<?xml version='1.0' encoding='UTF-8'?><gpx version="1.1" creator="JPX - https://github.com/jenetics/jpx" xmlns="http://www.topografix.com/GPX/1/1"><trk><trkseg><trkpt lat="42.191038" lon="14.2206164"><ele>568.0</ele><time>2026-05-01T12:58:55.031Z</time></trkpt><trkpt lat="42.1909799" lon="14.2206883"><ele>568.0</ele><time>2026-05-01T13:04:23.025Z</time></trkpt><trkpt lat="42.1908734" lon="14.2206962"><ele>568.0</ele><time>2026-05-01T13:04:25.025Z</time></trkpt><trkpt lat="42.1907972" lon="14.2206917"><ele>568.0</ele><time>2026-05-01T13:04:26.025Z</time></trkpt><trkpt lat="42.1906923" lon="14.2206487"><ele>568.0</ele><time>2026-05-01T13:04:27.024Z</time></trkpt><trkpt lat="42.1906119" lon="14.2205895"><ele>568.5</ele><time>2026-05-01T13:04:28.024Z</time></trkpt><trkpt lat="42.1905315" lon="14.2205406"><ele>569.0</ele><time>2026-05-01T13:04:29.025Z</time></trkpt><trkpt lat="42.1904616" lon="14.2205043"><ele>569.5</ele><time>2026-05-01T13:04:30.024Z</time></trkpt><trkpt lat="42.190399" lon="14.2204889"><ele>570.0</ele><time>2026-05-01T13:04:31.025Z</time></trkpt><trkpt lat="42.1902947" lon="14.2204544"><ele>570.5</ele><time>2026-05-01T13:04:33.025Z</time></trkpt><trkpt lat="42.19025" lon="14.220392"><ele>571.0</ele><time>2026-05-01T13:04:38.025Z</time></trkpt><trkpt lat="42.1901718" lon="14.2203379"><ele>571.0</ele><time>2026-05-01T13:04:41.025Z</time></trkpt><trkpt lat="42.1901024" lon="14.2203008"><ele>571.0</ele><time>2026-05-01T13:04:44.025Z</time></trkpt><trkpt lat="42.1900975" lon="14.2201745"><ele>571.0</ele><time>2026-05-01T13:04:47.024Z</time></trkpt><trkpt lat="42.1900675" lon="14.2200929"><ele>571.0</ele><time>2026-05-01T13:04:49.025Z</time></trkpt><trkpt lat="42.1900096" lon="14.2200539"><ele>571.0</ele><time>2026-05-01T13:04:51.025Z</time></trkpt><trkpt lat="42.1899383" lon="14.2200692"><ele>571.0</ele><time>2026-05-01T13:04:53.025Z</time></trkpt><trkpt lat="42.189857" lon="14.2200592"><ele>571.0</ele><time>2026-05-01T13:04:55.025Z</time></trkpt><trkpt lat="42.1898058" lon="14.2200083"><ele>571.0</ele><time>2026-05-01T13:04:58.025Z</time></trkpt><trkpt lat="42.1898504" lon="14.2199482"><ele>571.0</ele><time>2026-05-01T13:05:10.025Z</time></trkpt><trkpt lat="42.1899629" lon="14.219953"><ele>571.0</ele><time>2026-05-01T13:05:12.024Z</time></trkpt><trkpt lat="42.1900288" lon="14.2199464"><ele>571.0</ele><time>2026-05-01T13:05:13.025Z</time></trkpt><trkpt lat="42.1901082" lon="14.2199167"><ele>571.0</ele><time>2026-05-01T13:05:14.025Z</time></trkpt><trkpt lat="42.1901919" lon="14.2198825"><ele>571.0</ele><time>2026-05-01T13:05:15.025Z</time></trkpt><trkpt lat="42.1902789" lon="14.2198427"><ele>571.0</ele><time>2026-05-01T13:05:16.024Z</time></trkpt><trkpt lat="42.1903688" lon="14.2197971"><ele>571.0</ele><time>2026-05-01T13:05:17.025Z</time></trkpt><trkpt lat="42.1904641" lon="14.2197523"><ele>571.0</ele><time>2026-05-01T13:05:18.025Z</time></trkpt><trkpt lat="42.1905696" lon="14.2197353"><ele>571.0</ele><time>2026-05-01T13:05:19.025Z</time></trkpt><trkpt lat="42.1906781" lon="14.2197271"><ele>566.5</ele><time>2026-05-01T13:05:20.025Z</time></trkpt><trkpt lat="42.1907863" lon="14.2197266"><ele>562.0</ele><time>2026-05-01T13:05:21.025Z</time></trkpt><trkpt lat="42.1909015" lon="14.2197433"><ele>557.5</ele><time>2026-05-01T13:05:22.025Z</time></trkpt><trkpt lat="42.1910239" lon="14.2197482"><ele>553.0</ele><time>2026-05-01T13:05:23.025Z</time></trkpt><trkpt lat="42.1911391" lon="14.2197727"><ele>553.0</ele><time>2026-05-01T13:05:24.025Z</time></trkpt><trkpt lat="42.1912609" lon="14.219787"><ele>553.0</ele><time>2026-05-01T13:05:25.025Z</time></trkpt><trkpt lat="42.1913785" lon="14.2197981"><ele>553.0</ele><time>2026-05-01T13:05:26.025Z</time></trkpt><trkpt lat="42.1915083" lon="14.2198005"><ele>553.0</ele><time>2026-05-01T13:05:27.025Z</time></trkpt><trkpt lat="42.191623" lon="14.2198072"><ele>552.0</ele><time>2026-05-01T13:05:28.025Z</time></trkpt><trkpt lat="42.1917488" lon="14.2198139"><ele>551.0</ele><time>2026-05-01T13:05:29.025Z</time></trkpt><trkpt lat="42.1918702" lon="14.21982"><ele>550.0</ele><time>2026-05-01T13:05:30.025Z</time></trkpt><trkpt lat="42.1919779" lon="14.2198271"><ele>549.0</ele><time>2026-05-01T13:05:31.025Z</time></trkpt><trkpt lat="42.1920983" lon="14.2198343"><ele>551.75</ele><time>2026-05-01T13:05:32.025Z</time></trkpt><trkpt lat="42.1922221" lon="14.2198426"><ele>554.5</ele><time>2026-05-01T13:05:33.024Z</time></trkpt><trkpt lat="42.192354" lon="14.2198689"><ele>557.25</ele><time>2026-05-01T13:05:34.025Z</time></trkpt><trkpt lat="42.1924673" lon="14.2199178"><ele>560.0</ele><time>2026-05-01T13:05:35.025Z</time></trkpt><trkpt lat="42.1925728" lon="14.2199761"><ele>560.0</ele><time>2026-05-01T13:05:36.025Z</time></trkpt><trkpt lat="42.1926866" lon="14.2200266"><ele>560.0</ele><time>2026-05-01T13:05:37.025Z</time></trkpt><trkpt lat="42.1928025" lon="14.2200908"><ele>560.0</ele><time>2026-05-01T13:05:38.025Z</time></trkpt><trkpt lat="42.1929069" lon="14.2201891"><ele>560.0</ele><time>2026-05-01T13:05:39.025Z</time></trkpt><trkpt lat="42.1930044" lon="14.2202785"><ele>560.0</ele><time>2026-05-01T13:05:40.025Z</time></trkpt><trkpt lat="42.1930898" lon="14.2203596"><ele>560.0</ele><time>2026-05-01T13:05:41.025Z</time></trkpt><trkpt lat="42.1931785" lon="14.220433"><ele>560.0</ele><time>2026-05-01T13:05:42.025Z</time></trkpt><trkpt lat="42.1932725" lon="14.2204815"><ele>560.0</ele><time>2026-05-01T13:05:43.024Z</time></trkpt><trkpt lat="42.1933584" lon="14.2205127"><ele>560.0</ele><time>2026-05-01T13:05:44.025Z</time></trkpt><trkpt lat="42.193433" lon="14.2205585"><ele>559.3333333333333</ele><time>2026-05-01T13:05:45.024Z</time></trkpt><trkpt lat="42.1935172" lon="14.220594"><ele>558.6666666666666</ele><time>2026-05-01T13:05:46.025Z</time></trkpt><trkpt lat="42.1935994" lon="14.2206163"><ele>558.0</ele><time>2026-05-01T13:05:47.025Z</time></trkpt><trkpt lat="42.1936695" lon="14.2206393"><ele>557.3333333333334</ele><time>2026-05-01T13:05:48.025Z</time></trkpt><trkpt lat="42.1937318" lon="14.2206613"><ele>556.6666666666667</ele><time>2026-05-01T13:05:49.025Z</time></trkpt><trkpt lat="42.1938456" lon="14.2206278"><ele>556.0</ele><time>2026-05-01T13:05:51.025Z</time></trkpt><trkpt lat="42.1938546" lon="14.2204872"><ele>554.8</ele><time>2026-05-01T13:05:53.024Z</time></trkpt><trkpt lat="42.1938207" lon="14.2203827"><ele>553.6</ele><time>2026-05-01T13:05:54.025Z</time></trkpt><trkpt lat="42.1937806" lon="14.2203132"><ele>552.4</ele><time>2026-05-01T13:05:55.025Z</time></trkpt><trkpt lat="42.1936705" lon="14.2202929"><ele>551.2</ele><time>2026-05-01T13:05:56.025Z</time></trkpt><trkpt lat="42.1935759" lon="14.2202404"><ele>550.0</ele><time>2026-05-01T13:05:57.024Z</time></trkpt><trkpt lat="42.19348" lon="14.220182"><ele>550.0</ele><time>2026-05-01T13:05:58.025Z</time></trkpt><trkpt lat="42.1933854" lon="14.220123"><ele>550.0</ele><time>2026-05-01T13:05:59.025Z</time></trkpt><trkpt lat="42.1932949" lon="14.2200836"><ele>550.0</ele><time>2026-05-01T13:06:00.025Z</time></trkpt><trkpt lat="42.1932065" lon="14.2200284"><ele>550.0</ele><time>2026-05-01T13:06:01.025Z</time></trkpt><trkpt lat="42.1931233" lon="14.2199741"><ele>550.0</ele><time>2026-05-01T13:06:02.025Z</time></trkpt><trkpt lat="42.193052" lon="14.2199043"><ele>551.6666666666667</ele><time>2026-05-01T13:06:03.025Z</time></trkpt><trkpt lat="42.1929945" lon="14.2198383"><ele>553.3333333333334</ele><time>2026-05-01T13:06:04.025Z</time></trkpt><trkpt lat="42.1929716" lon="14.2197506"><ele>555.0</ele><time>2026-05-01T13:06:05.025Z</time></trkpt><trkpt lat="42.1929631" lon="14.2196432"><ele>556.6666666666666</ele><time>2026-05-01T13:06:06.025Z</time></trkpt><trkpt lat="42.1929911" lon="14.2195454"><ele>558.3333333333333</ele><time>2026-05-01T13:06:07.025Z</time></trkpt><trkpt lat="42.19304" lon="14.2194558"><ele>560.0</ele><time>2026-05-01T13:06:08.025Z</time></trkpt><trkpt lat="42.1931099" lon="14.2193709"><ele>556.8333333333333</ele><time>2026-05-01T13:06:09.025Z</time></trkpt><trkpt lat="42.1931859" lon="14.2193035"><ele>553.6666666666666</ele><time>2026-05-01T13:06:10.025Z</time></trkpt><trkpt lat="42.1932577" lon="14.2192618"><ele>550.5</ele><time>2026-05-01T13:06:11.024Z</time></trkpt><trkpt lat="42.193326" lon="14.2192226"><ele>547.3333333333334</ele><time>2026-05-01T13:06:12.025Z</time></trkpt><trkpt lat="42.1934017" lon="14.2192167"><ele>544.1666666666667</ele><time>2026-05-01T13:06:13.025Z</time></trkpt><trkpt lat="42.1934877" lon="14.2192414"><ele>541.0</ele><time>2026-05-01T13:06:14.025Z</time></trkpt><trkpt lat="42.1935862" lon="14.2192831"><ele>541.0</ele><time>2026-05-01T13:06:16.025Z</time></trkpt><trkpt lat="42.1936484" lon="14.2193192"><ele>541.0</ele><time>2026-05-01T13:06:17.024Z</time></trkpt><trkpt lat="42.1937096" lon="14.2193612"><ele>541.0</ele><time>2026-05-01T13:06:18.025Z</time></trkpt><trkpt lat="42.1937761" lon="14.2194131"><ele>541.0</ele><time>2026-05-01T13:06:19.025Z</time></trkpt><trkpt lat="42.193845" lon="14.2194698"><ele>541.0</ele><time>2026-05-01T13:06:20.025Z</time></trkpt><trkpt lat="42.1939232" lon="14.2195252"><ele>541.0</ele><time>2026-05-01T13:06:21.025Z</time></trkpt><trkpt lat="42.1940029" lon="14.2195717"><ele>540.1666666666667</ele><time>2026-05-01T13:06:22.025Z</time></trkpt><trkpt lat="42.1940804" lon="14.2196259"><ele>539.3333333333334</ele><time>2026-05-01T13:06:23.025Z</time></trkpt><trkpt lat="42.1941431" lon="14.2196746"><ele>538.5</ele><time>2026-05-01T13:06:24.025Z</time></trkpt><trkpt lat="42.1942092" lon="14.2197268"><ele>537.6666666666666</ele><time>2026-05-01T13:06:25.025Z</time></trkpt><trkpt lat="42.1942687" lon="14.2197848"><ele>536.8333333333333</ele><time>2026-05-01T13:06:26.025Z</time></trkpt><trkpt lat="42.1943271" lon="14.2198491"><ele>536.0</ele><time>2026-05-01T13:06:27.025Z</time></trkpt><trkpt lat="42.1943751" lon="14.2199294"><ele>536.0</ele><time>2026-05-01T13:06:28.025Z</time></trkpt><trkpt lat="42.1944237" lon="14.2200146"><ele>536.0</ele><time>2026-05-01T13:06:29.024Z</time></trkpt><trkpt lat="42.1944662" lon="14.2201045"><ele>536.0</ele><time>2026-05-01T13:06:30.024Z</time></trkpt><trkpt lat="42.1945016" lon="14.2201972"><ele>536.0</ele><time>2026-05-01T13:06:31.025Z</time></trkpt><trkpt lat="42.1945169" lon="14.2202821"><ele>536.0</ele><time>2026-05-01T13:06:32.025Z</time></trkpt><trkpt lat="42.1945681" lon="14.2204223"><ele>536.0</ele><time>2026-05-01T13:06:34.025Z</time></trkpt><trkpt lat="42.1946247" lon="14.2205255"><ele>536.0</ele><time>2026-05-01T13:06:36.025Z</time></trkpt><trkpt lat="42.1946807" lon="14.2205884"><ele>536.0</ele><time>2026-05-01T13:06:38.025Z</time></trkpt><trkpt lat="42.1946761" lon="14.2204929"><ele>536.0</ele><time>2026-05-01T13:06:43.025Z</time></trkpt><trkpt lat="42.1945798" lon="14.2203942"><ele>536.0</ele><time>2026-05-01T13:06:45.025Z</time></trkpt><trkpt lat="42.1945481" lon="14.2203097"><ele>536.0</ele><time>2026-05-01T13:06:46.024Z</time></trkpt><trkpt lat="42.194514" lon="14.2201838"><ele>536.0</ele><time>2026-05-01T13:06:47.025Z</time></trkpt><trkpt lat="42.1944701" lon="14.2200524"><ele>536.0</ele><time>2026-05-01T13:06:48.025Z</time></trkpt><trkpt lat="42.1944049" lon="14.2199329"><ele>536.0</ele><time>2026-05-01T13:06:49.025Z</time></trkpt><trkpt lat="42.1943247" lon="14.2198149"><ele>536.0</ele><time>2026-05-01T13:06:50.025Z</time></trkpt><trkpt lat="42.194224" lon="14.2197119"><ele>536.0</ele><time>2026-05-01T13:06:51.025Z</time></trkpt><trkpt lat="42.194111" lon="14.2196242"><ele>537.25</ele><time>2026-05-01T13:06:52.025Z</time></trkpt><trkpt lat="42.1940009" lon="14.2195479"><ele>538.5</ele><time>2026-05-01T13:06:53.025Z</time></trkpt><trkpt lat="42.1938981" lon="14.2194799"><ele>539.75</ele><time>2026-05-01T13:06:54.025Z</time></trkpt><trkpt lat="42.1937944" lon="14.2194152"><ele>541.0</ele><time>2026-05-01T13:06:55.024Z</time></trkpt><trkpt lat="42.193688" lon="14.2193509"><ele>541.0</ele><time>2026-05-01T13:06:56.024Z</time></trkpt><trkpt lat="42.1935846" lon="14.2192884"><ele>541.0</ele><time>2026-05-01T13:06:57.025Z</time></trkpt><trkpt lat="42.1934896" lon="14.2192279"><ele>541.0</ele><time>2026-05-01T13:06:58.025Z</time></trkpt><trkpt lat="42.1933952" lon="14.2191916"><ele>541.0</ele><time>2026-05-01T13:06:59.025Z</time></trkpt><trkpt lat="42.193292" lon="14.2191571"><ele>541.0</ele><time>2026-05-01T13:07:00.025Z</time></trkpt><trkpt lat="42.1931951" lon="14.2192704"><ele>540.5</ele><time>2026-05-01T13:07:01.025Z</time></trkpt><trkpt lat="42.1931172" lon="14.2193483"><ele>540.0</ele><time>2026-05-01T13:07:02.025Z</time></trkpt><trkpt lat="42.1930394" lon="14.2194314"><ele>539.5</ele><time>2026-05-01T13:07:03.024Z</time></trkpt><trkpt lat="42.1929825" lon="14.2195162"><ele>539.0</ele><time>2026-05-01T13:07:04.024Z</time></trkpt><trkpt lat="42.1929482" lon="14.2195918"><ele>538.5</ele><time>2026-05-01T13:07:05.025Z</time></trkpt><trkpt lat="42.1929461" lon="14.2196799"><ele>538.0</ele><time>2026-05-01T13:07:06.025Z</time></trkpt><trkpt lat="42.1929518" lon="14.2197665"><ele>541.0</ele><time>2026-05-01T13:07:07.025Z</time></trkpt><trkpt lat="42.1929841" lon="14.2198955"><ele>544.0</ele><time>2026-05-01T13:07:09.025Z</time></trkpt><trkpt lat="42.1930286" lon="14.2200412"><ele>547.0</ele><time>2026-05-01T13:07:11.025Z</time></trkpt><trkpt lat="42.1931749" lon="14.2199879"><ele>550.0</ele><time>2026-05-01T13:07:13.025Z</time></trkpt><trkpt lat="42.1932774" lon="14.2200017"><ele>550.0</ele><time>2026-05-01T13:07:15.025Z</time></trkpt><trkpt lat="42.1933418" lon="14.2200091"><ele>550.0</ele><time>2026-05-01T13:07:16.025Z</time></trkpt><trkpt lat="42.1934081" lon="14.2200306"><ele>550.0</ele><time>2026-05-01T13:07:17.025Z</time></trkpt><trkpt lat="42.1935163" lon="14.2201102"><ele>550.0</ele><time>2026-05-01T13:07:19.025Z</time></trkpt><trkpt lat="42.1935942" lon="14.2201644"><ele>550.0</ele><time>2026-05-01T13:07:20.025Z</time></trkpt><trkpt lat="42.1936494" lon="14.2202182"><ele>550.0</ele><time>2026-05-01T13:07:21.024Z</time></trkpt><trkpt lat="42.1937677" lon="14.2202956"><ele>550.0</ele><time>2026-05-01T13:07:23.025Z</time></trkpt><trkpt lat="42.1938316" lon="14.220313"><ele>550.0</ele><time>2026-05-01T13:07:24.025Z</time></trkpt><trkpt lat="42.1939187" lon="14.2204066"><ele>550.0</ele><time>2026-05-01T13:07:26.025Z</time></trkpt><trkpt lat="42.1939637" lon="14.2204842"><ele>550.0</ele><time>2026-05-01T13:07:27.025Z</time></trkpt><trkpt lat="42.1939949" lon="14.2205758"><ele>550.0</ele><time>2026-05-01T13:07:28.025Z</time></trkpt><trkpt lat="42.19402" lon="14.2206885"><ele>550.0</ele><time>2026-05-01T13:07:29.025Z</time></trkpt><trkpt lat="42.1940527" lon="14.2208065"><ele>546.8</ele><time>2026-05-01T13:07:30.025Z</time></trkpt><trkpt lat="42.1940639" lon="14.2209424"><ele>543.6</ele><time>2026-05-01T13:07:31.025Z</time></trkpt><trkpt lat="42.1940672" lon="14.2210864"><ele>540.4</ele><time>2026-05-01T13:07:32.025Z</time></trkpt><trkpt lat="42.194064" lon="14.2212386"><ele>537.2</ele><time>2026-05-01T13:07:33.024Z</time></trkpt><trkpt lat="42.1940604" lon="14.2213958"><ele>534.0</ele><time>2026-05-01T13:07:34.025Z</time></trkpt><trkpt lat="42.194056" lon="14.2215556"><ele>532.75</ele><time>2026-05-01T13:07:35.025Z</time></trkpt><trkpt lat="42.1940535" lon="14.2217169"><ele>531.5</ele><time>2026-05-01T13:07:36.025Z</time></trkpt><trkpt lat="42.1940465" lon="14.2218776"><ele>530.25</ele><time>2026-05-01T13:07:37.025Z</time></trkpt><trkpt lat="42.1940462" lon="14.222045"><ele>529.0</ele><time>2026-05-01T13:07:38.025Z</time></trkpt><trkpt lat="42.194044" lon="14.222221"><ele>527.25</ele><time>2026-05-01T13:07:39.025Z</time></trkpt><trkpt lat="42.1940488" lon="14.2224033"><ele>525.5</ele><time>2026-05-01T13:07:40.025Z</time></trkpt><trkpt lat="42.1940512" lon="14.22258"><ele>523.75</ele><time>2026-05-01T13:07:41.025Z</time></trkpt><trkpt lat="42.1940589" lon="14.222751"><ele>522.0</ele><time>2026-05-01T13:07:42.025Z</time></trkpt><trkpt lat="42.1940737" lon="14.2229175"><ele>522.0</ele><time>2026-05-01T13:07:43.025Z</time></trkpt><trkpt lat="42.1940943" lon="14.223082"><ele>522.0</ele><time>2026-05-01T13:07:44.024Z</time></trkpt><trkpt lat="42.1941107" lon="14.2232375"><ele>522.0</ele><time>2026-05-01T13:07:45.025Z</time></trkpt><trkpt lat="42.1941235" lon="14.223385"><ele>522.0</ele><time>2026-05-01T13:07:46.025Z</time></trkpt><trkpt lat="42.1941366" lon="14.2235234"><ele>520.8000000000001</ele><time>2026-05-01T13:07:47.025Z</time></trkpt><trkpt lat="42.1941473" lon="14.2236416"><ele>519.6</ele><time>2026-05-01T13:07:48.025Z</time></trkpt><trkpt lat="42.1941553" lon="14.2237387"><ele>518.4000000000001</ele><time>2026-05-01T13:07:49.024Z</time></trkpt><trkpt lat="42.194181" lon="14.2238694"><ele>517.2</ele><time>2026-05-01T13:07:51.025Z</time></trkpt><trkpt lat="42.1942494" lon="14.2239238"><ele>516.0</ele><time>2026-05-01T13:07:53.025Z</time></trkpt><trkpt lat="42.1943512" lon="14.2238497"><ele>516.0</ele><time>2026-05-01T13:07:55.024Z</time></trkpt><trkpt lat="42.1944031" lon="14.2237956"><ele>516.0</ele><time>2026-05-01T13:07:56.025Z</time></trkpt><trkpt lat="42.1944682" lon="14.2237258"><ele>516.0</ele><time>2026-05-01T13:07:57.025Z</time></trkpt><trkpt lat="42.1945448" lon="14.2236623"><ele>516.0</ele><time>2026-05-01T13:07:58.025Z</time></trkpt><trkpt lat="42.1946186" lon="14.2235857"><ele>516.0</ele><time>2026-05-01T13:07:59.025Z</time></trkpt><trkpt lat="42.1947099" lon="14.2235156"><ele>516.0</ele><time>2026-05-01T13:08:00.024Z</time></trkpt><trkpt lat="42.1948004" lon="14.2234415"><ele>514.8</ele><time>2026-05-01T13:08:01.025Z</time></trkpt><trkpt lat="42.1948929" lon="14.2233661"><ele>513.6</ele><time>2026-05-01T13:08:02.025Z</time></trkpt><trkpt lat="42.1949753" lon="14.2232899"><ele>512.4</ele><time>2026-05-01T13:08:03.025Z</time></trkpt><trkpt lat="42.1950652" lon="14.2232107"><ele>511.2</ele><time>2026-05-01T13:08:04.025Z</time></trkpt><trkpt lat="42.1951483" lon="14.2231227"><ele>510.0</ele><time>2026-05-01T13:08:05.025Z</time></trkpt><trkpt lat="42.1952292" lon="14.2230321"><ele>510.0</ele><time>2026-05-01T13:08:06.024Z</time></trkpt><trkpt lat="42.1953095" lon="14.2229252"><ele>510.0</ele><time>2026-05-01T13:08:07.025Z</time></trkpt><trkpt lat="42.1953895" lon="14.2228222"><ele>510.0</ele><time>2026-05-01T13:08:08.025Z</time></trkpt><trkpt lat="42.1954608" lon="14.2227112"><ele>510.0</ele><time>2026-05-01T13:08:09.025Z</time></trkpt><trkpt lat="42.1955351" lon="14.2226017"><ele>510.0</ele><time>2026-05-01T13:08:10.025Z</time></trkpt><trkpt lat="42.1956012" lon="14.2224801"><ele>510.0</ele><time>2026-05-01T13:08:11.025Z</time></trkpt><trkpt lat="42.1956527" lon="14.2223489"><ele>510.0</ele><time>2026-05-01T13:08:12.025Z</time></trkpt><trkpt lat="42.1956906" lon="14.2222105"><ele>510.0</ele><time>2026-05-01T13:08:13.024Z</time></trkpt><trkpt lat="42.1957204" lon="14.2220722"><ele>510.0</ele><time>2026-05-01T13:08:14.025Z</time></trkpt><trkpt lat="42.1957552" lon="14.2219288"><ele>510.0</ele><time>2026-05-01T13:08:15.025Z</time></trkpt><trkpt lat="42.1957837" lon="14.2217812"><ele>508.75</ele><time>2026-05-01T13:08:16.025Z</time></trkpt><trkpt lat="42.1958007" lon="14.221627"><ele>507.5</ele><time>2026-05-01T13:08:17.025Z</time></trkpt><trkpt lat="42.1958124" lon="14.2214713"><ele>506.25</ele><time>2026-05-01T13:08:18.025Z</time></trkpt><trkpt lat="42.1958061" lon="14.2213175"><ele>505.0</ele><time>2026-05-01T13:08:19.025Z</time></trkpt><trkpt lat="42.1958152" lon="14.2211752"><ele>505.0</ele><time>2026-05-01T13:08:20.025Z</time></trkpt><trkpt lat="42.1958138" lon="14.2210247"><ele>505.0</ele><time>2026-05-01T13:08:21.025Z</time></trkpt><trkpt lat="42.1958086" lon="14.2208757"><ele>505.0</ele><time>2026-05-01T13:08:22.025Z</time></trkpt><trkpt lat="42.1958059" lon="14.2207371"><ele>505.0</ele><time>2026-05-01T13:08:23.025Z</time></trkpt><trkpt lat="42.1958137" lon="14.2205937"><ele>505.0</ele><time>2026-05-01T13:08:24.025Z</time></trkpt><trkpt lat="42.1958296" lon="14.2204477"><ele>505.4</ele><time>2026-05-01T13:08:25.024Z</time></trkpt><trkpt lat="42.1958494" lon="14.220317"><ele>505.8</ele><time>2026-05-01T13:08:26.025Z</time></trkpt><trkpt lat="42.1958787" lon="14.2201859"><ele>506.20000000000005</ele><time>2026-05-01T13:08:27.025Z</time></trkpt><trkpt lat="42.1959053" lon="14.2200632"><ele>506.6</ele><time>2026-05-01T13:08:28.025Z</time></trkpt><trkpt lat="42.1959419" lon="14.2199402"><ele>507.0</ele><time>2026-05-01T13:08:29.025Z</time></trkpt><trkpt lat="42.1959924" lon="14.219826"><ele>507.20000000000005</ele><time>2026-05-01T13:08:30.024Z</time></trkpt><trkpt lat="42.196057" lon="14.2197232"><ele>507.40000000000003</ele><time>2026-05-01T13:08:31.025Z</time></trkpt><trkpt lat="42.1961332" lon="14.2196299"><ele>507.59999999999997</ele><time>2026-05-01T13:08:32.024Z</time></trkpt><trkpt lat="42.1962175" lon="14.2195446"><ele>507.79999999999995</ele><time>2026-05-01T13:08:33.025Z</time></trkpt><trkpt lat="42.1963009" lon="14.2194657"><ele>508.0</ele><time>2026-05-01T13:08:34.025Z</time></trkpt><trkpt lat="42.1963741" lon="14.2193908"><ele>508.0</ele><time>2026-05-01T13:08:35.025Z</time></trkpt><trkpt lat="42.1964419" lon="14.2193288"><ele>507.99999999999994</ele><time>2026-05-01T13:08:36.025Z</time></trkpt><trkpt lat="42.1964961" lon="14.2192801"><ele>507.99999999999994</ele><time>2026-05-01T13:08:37.025Z</time></trkpt><trkpt lat="42.1966092" lon="14.2192359"><ele>508.0</ele><time>2026-05-01T13:08:39.025Z</time></trkpt><trkpt lat="42.1967221" lon="14.2192444"><ele>508.0</ele><time>2026-05-01T13:08:41.025Z</time></trkpt><trkpt lat="42.1968254" lon="14.2192111"><ele>506.79999999999995</ele><time>2026-05-01T13:08:43.025Z</time></trkpt><trkpt lat="42.1969302" lon="14.2191277"><ele>505.59999999999997</ele><time>2026-05-01T13:08:45.025Z</time></trkpt><trkpt lat="42.196997" lon="14.2191047"><ele>504.40000000000003</ele><time>2026-05-01T13:08:46.025Z</time></trkpt><trkpt lat="42.1970776" lon="14.2191067"><ele>503.20000000000005</ele><time>2026-05-01T13:08:47.025Z</time></trkpt><trkpt lat="42.1971612" lon="14.2191035"><ele>502.0</ele><time>2026-05-01T13:08:48.025Z</time></trkpt><trkpt lat="42.1972582" lon="14.2191006"><ele>501.25</ele><time>2026-05-01T13:08:49.025Z</time></trkpt><trkpt lat="42.1973644" lon="14.2190923"><ele>500.5</ele><time>2026-05-01T13:08:50.025Z</time></trkpt><trkpt lat="42.1974742" lon="14.2190759"><ele>499.75</ele><time>2026-05-01T13:08:51.025Z</time></trkpt><trkpt lat="42.1975936" lon="14.2190547"><ele>499.0</ele><time>2026-05-01T13:08:52.025Z</time></trkpt><trkpt lat="42.1977172" lon="14.2190275"><ele>499.0</ele><time>2026-05-01T13:08:53.025Z</time></trkpt><trkpt lat="42.1978482" lon="14.218999"><ele>499.0</ele><time>2026-05-01T13:08:54.024Z</time></trkpt><trkpt lat="42.1979839" lon="14.2189662"><ele>499.0</ele><time>2026-05-01T13:08:55.025Z</time></trkpt><trkpt lat="42.1981283" lon="14.2189281"><ele>499.0</ele><time>2026-05-01T13:08:56.025Z</time></trkpt><trkpt lat="42.1982793" lon="14.2188876"><ele>496.6666666666667</ele><time>2026-05-01T13:08:57.025Z</time></trkpt><trkpt lat="42.1984345" lon="14.2188378"><ele>494.33333333333337</ele><time>2026-05-01T13:08:58.025Z</time></trkpt><trkpt lat="42.1985919" lon="14.2187806"><ele>492.0</ele><time>2026-05-01T13:08:59.024Z</time></trkpt><trkpt lat="42.1987409" lon="14.2187159"><ele>492.0</ele><time>2026-05-01T13:09:00.025Z</time></trkpt><trkpt lat="42.1988858" lon="14.2186508"><ele>492.0</ele><time>2026-05-01T13:09:01.025Z</time></trkpt><trkpt lat="42.1990289" lon="14.2185915"><ele>492.0</ele><time>2026-05-01T13:09:02.025Z</time></trkpt><trkpt lat="42.199171" lon="14.2185224"><ele>490.75</ele><time>2026-05-01T13:09:03.025Z</time></trkpt><trkpt lat="42.1993157" lon="14.2184661"><ele>489.5</ele><time>2026-05-01T13:09:04.024Z</time></trkpt><trkpt lat="42.1994514" lon="14.2184072"><ele>488.25</ele><time>2026-05-01T13:09:05.025Z</time></trkpt><trkpt lat="42.1995846" lon="14.2183514"><ele>487.0</ele><time>2026-05-01T13:09:06.025Z</time></trkpt><trkpt lat="42.1997142" lon="14.2183077"><ele>485.75</ele><time>2026-05-01T13:09:07.025Z</time></trkpt><trkpt lat="42.1998406" lon="14.2182758"><ele>484.5</ele><time>2026-05-01T13:09:08.025Z</time></trkpt><trkpt lat="42.1999657" lon="14.2182611"><ele>483.25</ele><time>2026-05-01T13:09:09.025Z</time></trkpt><trkpt lat="42.2000866" lon="14.2182508"><ele>482.0</ele><time>2026-05-01T13:09:10.025Z</time></trkpt><trkpt lat="42.2002053" lon="14.2182418"><ele>482.0</ele><time>2026-05-01T13:09:11.024Z</time></trkpt><trkpt lat="42.2002982" lon="14.2182355"><ele>482.00000000000006</ele><time>2026-05-01T13:09:12.025Z</time></trkpt><trkpt lat="42.2003798" lon="14.2182348"><ele>482.00000000000006</ele><time>2026-05-01T13:09:13.025Z</time></trkpt><trkpt lat="42.2004726" lon="14.2182405"><ele>482.0</ele><time>2026-05-01T13:09:14.024Z</time></trkpt><trkpt lat="42.2005737" lon="14.2182489"><ele>482.0</ele><time>2026-05-01T13:09:15.024Z</time></trkpt><trkpt lat="42.2006836" lon="14.2182611"><ele>481.0</ele><time>2026-05-01T13:09:16.025Z</time></trkpt><trkpt lat="42.2007987" lon="14.2182852"><ele>480.0</ele><time>2026-05-01T13:09:17.025Z</time></trkpt><trkpt lat="42.2009196" lon="14.2183173"><ele>479.0</ele><time>2026-05-01T13:09:18.025Z</time></trkpt><trkpt lat="42.2010481" lon="14.2183615"><ele>478.0</ele><time>2026-05-01T13:09:19.025Z</time></trkpt><trkpt lat="42.2011707" lon="14.2184069"><ele>478.00000000000006</ele><time>2026-05-01T13:09:20.025Z</time></trkpt><trkpt lat="42.2012756" lon="14.2184475"><ele>478.0</ele><time>2026-05-01T13:09:21.025Z</time></trkpt><trkpt lat="42.2013461" lon="14.2184816"><ele>478.0</ele><time>2026-05-01T13:09:22.024Z</time></trkpt><trkpt lat="42.2014051" lon="14.2185126"><ele>478.0</ele><time>2026-05-01T13:09:23.025Z</time></trkpt><trkpt lat="42.2014844" lon="14.2185035"><ele>478.00000000000006</ele><time>2026-05-01T13:09:26.025Z</time></trkpt><trkpt lat="42.2014529" lon="14.2184231"><ele>478.0</ele><time>2026-05-01T13:09:34.025Z</time></trkpt><trkpt lat="42.2013507" lon="14.2184127"><ele>478.0</ele><time>2026-05-01T13:09:36.025Z</time></trkpt><trkpt lat="42.2012758" lon="14.2183769"><ele>477.99999999999994</ele><time>2026-05-01T13:09:37.025Z</time></trkpt><trkpt lat="42.2011858" lon="14.2183335"><ele>477.99999999999994</ele><time>2026-05-01T13:09:38.025Z</time></trkpt><trkpt lat="42.2010803" lon="14.2182913"><ele>478.0</ele><time>2026-05-01T13:09:39.024Z</time></trkpt><trkpt lat="42.2009691" lon="14.2182549"><ele>478.0</ele><time>2026-05-01T13:09:40.025Z</time></trkpt><trkpt lat="42.200858" lon="14.2182325"><ele>478.0</ele><time>2026-05-01T13:09:41.025Z</time></trkpt><trkpt lat="42.2007514" lon="14.2182177"><ele>477.99999999999994</ele><time>2026-05-01T13:09:42.025Z</time></trkpt><trkpt lat="42.2006674" lon="14.2182043"><ele>477.99999999999994</ele><time>2026-05-01T13:09:43.025Z</time></trkpt><trkpt lat="42.2005802" lon="14.2181738"><ele>478.0</ele><time>2026-05-01T13:09:45.025Z</time></trkpt><trkpt lat="42.2005711" lon="14.218063"><ele>478.0</ele><time>2026-05-01T13:09:48.025Z</time></trkpt><trkpt lat="42.2006809" lon="14.2180465"><ele>477.4</ele><time>2026-05-01T13:09:51.025Z</time></trkpt><trkpt lat="42.2007515" lon="14.2180419"><ele>476.79999999999995</ele><time>2026-05-01T13:09:52.025Z</time></trkpt><trkpt lat="42.2008234" lon="14.2180406"><ele>476.2</ele><time>2026-05-01T13:09:53.025Z</time></trkpt><trkpt lat="42.2009232" lon="14.2180457"><ele>475.6</ele><time>2026-05-01T13:09:54.025Z</time></trkpt><trkpt lat="42.2010529" lon="14.2180105"><ele>475.0</ele><time>2026-05-01T13:09:55.025Z</time></trkpt><trkpt lat="42.2011752" lon="14.2179883"><ele>475.0</ele><time>2026-05-01T13:09:56.025Z</time></trkpt><trkpt lat="42.2013002" lon="14.2179803"><ele>475.0</ele><time>2026-05-01T13:09:57.025Z</time></trkpt><trkpt lat="42.2014246" lon="14.2179699"><ele>475.0</ele><time>2026-05-01T13:09:58.025Z</time></trkpt><trkpt lat="42.2015273" lon="14.2179529"><ele>475.0</ele><time>2026-05-01T13:09:59.025Z</time></trkpt><trkpt lat="42.2016368" lon="14.2179547"><ele>474.4</ele><time>2026-05-01T13:10:00.025Z</time></trkpt><trkpt lat="42.2017553" lon="14.217985"><ele>473.8</ele><time>2026-05-01T13:10:01.025Z</time></trkpt><trkpt lat="42.2018602" lon="14.2180066"><ele>473.20000000000005</ele><time>2026-05-01T13:10:02.025Z</time></trkpt><trkpt lat="42.2019596" lon="14.2180279"><ele>472.6</ele><time>2026-05-01T13:10:03.025Z</time></trkpt><trkpt lat="42.2020603" lon="14.2180573"><ele>472.0</ele><time>2026-05-01T13:10:04.024Z</time></trkpt><trkpt lat="42.2021658" lon="14.2180906"><ele>472.0</ele><time>2026-05-01T13:10:05.025Z</time></trkpt><trkpt lat="42.2022697" lon="14.2181193"><ele>472.0</ele><time>2026-05-01T13:10:06.025Z</time></trkpt><trkpt lat="42.2023793" lon="14.2181307"><ele>472.0</ele><time>2026-05-01T13:10:07.024Z</time></trkpt><trkpt lat="42.2024988" lon="14.2181257"><ele>472.0</ele><time>2026-05-01T13:10:08.025Z</time></trkpt><trkpt lat="42.202612" lon="14.2180994"><ele>471.40000000000003</ele><time>2026-05-01T13:10:09.025Z</time></trkpt><trkpt lat="42.2027252" lon="14.2180889"><ele>470.80000000000007</ele><time>2026-05-01T13:10:10.025Z</time></trkpt><trkpt lat="42.2028371" lon="14.2180746"><ele>470.2</ele><time>2026-05-01T13:10:11.024Z</time></trkpt><trkpt lat="42.2029383" lon="14.2180628"><ele>469.6</ele><time>2026-05-01T13:10:12.024Z</time></trkpt><trkpt lat="42.2030403" lon="14.2180459"><ele>469.0</ele><time>2026-05-01T13:10:13.024Z</time></trkpt><trkpt lat="42.2031446" lon="14.2180297"><ele>467.2</ele><time>2026-05-01T13:10:14.024Z</time></trkpt><trkpt lat="42.2032325" lon="14.2179632"><ele>465.4</ele><time>2026-05-01T13:10:15.025Z</time></trkpt><trkpt lat="42.2033212" lon="14.2178909"><ele>463.6</ele><time>2026-05-01T13:10:16.025Z</time></trkpt><trkpt lat="42.2034187" lon="14.217795"><ele>461.8</ele><time>2026-05-01T13:10:17.025Z</time></trkpt><trkpt lat="42.2035136" lon="14.2177151"><ele>460.0</ele><time>2026-05-01T13:10:18.025Z</time></trkpt><trkpt lat="42.2036074" lon="14.2176322"><ele>460.0</ele><time>2026-05-01T13:10:19.025Z</time></trkpt><trkpt lat="42.2037077" lon="14.2175467"><ele>460.0</ele><time>2026-05-01T13:10:20.025Z</time></trkpt><trkpt lat="42.2037969" lon="14.2174668"><ele>460.0</ele><time>2026-05-01T13:10:21.025Z</time></trkpt><trkpt lat="42.2038741" lon="14.2174084"><ele>460.0</ele><time>2026-05-01T13:10:22.025Z</time></trkpt><trkpt lat="42.2039595" lon="14.2173741"><ele>460.0</ele><time>2026-05-01T13:10:23.025Z</time></trkpt><trkpt lat="42.204052" lon="14.2173574"><ele>460.6</ele><time>2026-05-01T13:10:24.024Z</time></trkpt><trkpt lat="42.2041474" lon="14.2173605"><ele>461.2</ele><time>2026-05-01T13:10:25.025Z</time></trkpt><trkpt lat="42.2042353" lon="14.2173773"><ele>461.79999999999995</ele><time>2026-05-01T13:10:26.025Z</time></trkpt><trkpt lat="42.2043304" lon="14.2173735"><ele>462.4</ele><time>2026-05-01T13:10:27.024Z</time></trkpt><trkpt lat="42.204427" lon="14.2173472"><ele>463.0</ele><time>2026-05-01T13:10:28.025Z</time></trkpt><trkpt lat="42.2045267" lon="14.2173137"><ele>463.0</ele><time>2026-05-01T13:10:29.025Z</time></trkpt><trkpt lat="42.2046254" lon="14.2172799"><ele>462.99999999999994</ele><time>2026-05-01T13:10:30.025Z</time></trkpt><trkpt lat="42.2047031" lon="14.2172477"><ele>462.99999999999994</ele><time>2026-05-01T13:10:31.025Z</time></trkpt><trkpt lat="42.2048134" lon="14.2172186"><ele>463.0</ele><time>2026-05-01T13:10:33.024Z</time></trkpt><trkpt lat="42.2049352" lon="14.2171752"><ele>463.0</ele><time>2026-05-01T13:10:35.024Z</time></trkpt><trkpt lat="42.2049967" lon="14.2171497"><ele>462.4285714285714</ele><time>2026-05-01T13:10:36.024Z</time></trkpt><trkpt lat="42.2050599" lon="14.2171211"><ele>461.8571428571428</ele><time>2026-05-01T13:10:37.025Z</time></trkpt><trkpt lat="42.2051176" lon="14.2170804"><ele>461.2857142857143</ele><time>2026-05-01T13:10:38.024Z</time></trkpt><trkpt lat="42.2051848" lon="14.2170472"><ele>460.71428571428567</ele><time>2026-05-01T13:10:39.025Z</time></trkpt><trkpt lat="42.2052513" lon="14.217016"><ele>460.1428571428571</ele><time>2026-05-01T13:10:40.024Z</time></trkpt><trkpt lat="42.205313" lon="14.216994"><ele>459.57142857142856</ele><time>2026-05-01T13:10:41.025Z</time></trkpt><trkpt lat="42.2053898" lon="14.2169868"><ele>459.0</ele><time>2026-05-01T13:10:42.025Z</time></trkpt><trkpt lat="42.2054715" lon="14.2169543"><ele>459.0</ele><time>2026-05-01T13:10:44.025Z</time></trkpt><trkpt lat="42.2055598" lon="14.2169718"><ele>459.0</ele><time>2026-05-01T13:10:46.024Z</time></trkpt><trkpt lat="42.2056237" lon="14.2170657"><ele>459.0</ele><time>2026-05-01T13:10:48.025Z</time></trkpt><trkpt lat="42.2056571" lon="14.2171437"><ele>459.0</ele><time>2026-05-01T13:10:49.025Z</time></trkpt><trkpt lat="42.2056931" lon="14.2172257"><ele>459.0</ele><time>2026-05-01T13:10:50.025Z</time></trkpt><trkpt lat="42.2057424" lon="14.2173197"><ele>459.0</ele><time>2026-05-01T13:10:51.025Z</time></trkpt><trkpt lat="42.2057905" lon="14.2174124"><ele>456.0</ele><time>2026-05-01T13:10:52.025Z</time></trkpt><trkpt lat="42.2058437" lon="14.2175013"><ele>453.0</ele><time>2026-05-01T13:10:53.024Z</time></trkpt><trkpt lat="42.2058944" lon="14.2176083"><ele>450.0</ele><time>2026-05-01T13:10:54.025Z</time></trkpt><trkpt lat="42.2059215" lon="14.2177273"><ele>447.0</ele><time>2026-05-01T13:10:55.025Z</time></trkpt><trkpt lat="42.205983" lon="14.2178469"><ele>444.0</ele><time>2026-05-01T13:10:56.025Z</time></trkpt><trkpt lat="42.2060392" lon="14.2179581"><ele>444.0</ele><time>2026-05-01T13:10:57.024Z</time></trkpt><trkpt lat="42.2060893" lon="14.218053"><ele>444.0</ele><time>2026-05-01T13:10:58.025Z</time></trkpt><trkpt lat="42.2061495" lon="14.2181601"><ele>444.0</ele><time>2026-05-01T13:10:59.025Z</time></trkpt><trkpt lat="42.2062161" lon="14.2182484"><ele>444.0</ele><time>2026-05-01T13:11:00.025Z</time></trkpt><trkpt lat="42.2063028" lon="14.2183235"><ele>444.0</ele><time>2026-05-01T13:11:01.025Z</time></trkpt><trkpt lat="42.2063834" lon="14.2183997"><ele>442.79999999999995</ele><time>2026-05-01T13:11:02.025Z</time></trkpt><trkpt lat="42.2064694" lon="14.2184627"><ele>441.59999999999997</ele><time>2026-05-01T13:11:03.025Z</time></trkpt><trkpt lat="42.2065544" lon="14.2185276"><ele>440.4</ele><time>2026-05-01T13:11:04.025Z</time></trkpt><trkpt lat="42.2066408" lon="14.2185853"><ele>439.2</ele><time>2026-05-01T13:11:05.025Z</time></trkpt><trkpt lat="42.2067019" lon="14.2186567"><ele>438.0</ele><time>2026-05-01T13:11:06.024Z</time></trkpt><trkpt lat="42.2067677" lon="14.2187537"><ele>436.59999999999997</ele><time>2026-05-01T13:11:07.024Z</time></trkpt><trkpt lat="42.2068294" lon="14.2188667"><ele>435.19999999999993</ele><time>2026-05-01T13:11:08.024Z</time></trkpt><trkpt lat="42.2068841" lon="14.2189833"><ele>433.8</ele><time>2026-05-01T13:11:09.025Z</time></trkpt><trkpt lat="42.2069401" lon="14.2190952"><ele>432.4</ele><time>2026-05-01T13:11:10.025Z</time></trkpt><trkpt lat="42.2069914" lon="14.2192135"><ele>431.0</ele><time>2026-05-01T13:11:11.025Z</time></trkpt><trkpt lat="42.2070346" lon="14.2193108"><ele>430.49999999999994</ele><time>2026-05-01T13:11:12.024Z</time></trkpt><trkpt lat="42.2070856" lon="14.2193949"><ele>430.0</ele><time>2026-05-01T13:11:13.025Z</time></trkpt><trkpt lat="42.207125" lon="14.2194919"><ele>429.5</ele><time>2026-05-01T13:11:14.025Z</time></trkpt><trkpt lat="42.2071661" lon="14.2195883"><ele>429.0</ele><time>2026-05-01T13:11:15.025Z</time></trkpt><trkpt lat="42.2071992" lon="14.2196806"><ele>428.49999999999994</ele><time>2026-05-01T13:11:16.024Z</time></trkpt><trkpt lat="42.2072344" lon="14.219774"><ele>428.0</ele><time>2026-05-01T13:11:17.025Z</time></trkpt><trkpt lat="42.2072847" lon="14.2198629"><ele>426.3333333333333</ele><time>2026-05-01T13:11:18.024Z</time></trkpt><trkpt lat="42.207337" lon="14.2199199"><ele>424.66666666666663</ele><time>2026-05-01T13:11:19.025Z</time></trkpt><trkpt lat="42.2074302" lon="14.2199647"><ele>423.0</ele><time>2026-05-01T13:11:20.024Z</time></trkpt><trkpt lat="42.2075188" lon="14.2200035"><ele>421.33333333333337</ele><time>2026-05-01T13:11:21.025Z</time></trkpt><trkpt lat="42.2076036" lon="14.2200208"><ele>419.6666666666667</ele><time>2026-05-01T13:11:22.025Z</time></trkpt><trkpt lat="42.2076788" lon="14.2200178"><ele>418.0</ele><time>2026-05-01T13:11:23.025Z</time></trkpt><trkpt lat="42.2077794" lon="14.2200169"><ele>418.00000000000006</ele><time>2026-05-01T13:11:25.024Z</time></trkpt><trkpt lat="42.2078448" lon="14.2200766"><ele>418.0</ele><time>2026-05-01T13:11:29.025Z</time></trkpt><trkpt lat="42.2078639" lon="14.2201672"><ele>418.0</ele><time>2026-05-01T13:11:31.024Z</time></trkpt><trkpt lat="42.2078949" lon="14.2202621"><ele>418.0</ele><time>2026-05-01T13:11:33.025Z</time></trkpt><trkpt lat="42.2079429" lon="14.220356"><ele>418.00000000000006</ele><time>2026-05-01T13:11:36.025Z</time></trkpt><trkpt lat="42.207967" lon="14.2204588"><ele>418.0</ele><time>2026-05-01T13:11:39.025Z</time></trkpt><trkpt lat="42.2079538" lon="14.2205449"><ele>418.00000000000006</ele><time>2026-05-01T13:11:42.024Z</time></trkpt><trkpt lat="42.2079254" lon="14.220621"><ele>418.0</ele><time>2026-05-01T13:11:46.025Z</time></trkpt><trkpt lat="42.2079599" lon="14.2205372"><ele>418.0</ele><time>2026-05-01T13:11:52.025Z</time></trkpt><trkpt lat="42.207921" lon="14.2203935"><ele>418.0</ele><time>2026-05-01T13:11:54.025Z</time></trkpt><trkpt lat="42.2078862" lon="14.2203011"><ele>418.00000000000006</ele><time>2026-05-01T13:11:56.025Z</time></trkpt><trkpt lat="42.2079008" lon="14.2202026"><ele>418.0</ele><time>2026-05-01T13:11:59.024Z</time></trkpt><trkpt lat="42.2079606" lon="14.2201705"><ele>418.00000000000006</ele><time>2026-05-01T13:12:01.025Z</time></trkpt><trkpt lat="42.2080557" lon="14.2201852"><ele>418.0</ele><time>2026-05-01T13:12:04.024Z</time></trkpt><trkpt lat="42.208114" lon="14.2202665"><ele>418.0</ele><time>2026-05-01T13:12:07.025Z</time></trkpt><trkpt lat="42.2081607" lon="14.2203705"><ele>418.0</ele><time>2026-05-01T13:12:10.025Z</time></trkpt><trkpt lat="42.2082254" lon="14.2203976"><ele>418.00000000000006</ele><time>2026-05-01T13:12:14.025Z</time></trkpt><trkpt lat="42.2083077" lon="14.2203568"><ele>418.0</ele><time>2026-05-01T13:12:17.024Z</time></trkpt><trkpt lat="42.20837" lon="14.220316"><ele>416.33333333333337</ele><time>2026-05-01T13:12:19.025Z</time></trkpt><trkpt lat="42.2084408" lon="14.2202748"><ele>414.6666666666667</ele><time>2026-05-01T13:12:21.025Z</time></trkpt><trkpt lat="42.2084995" lon="14.2202202"><ele>413.0</ele><time>2026-05-01T13:12:22.99Z</time></trkpt><trkpt lat="42.2085543" lon="14.220157"><ele>411.33333333333337</ele><time>2026-05-01T13:12:24.831Z</time></trkpt><trkpt lat="42.2086281" lon="14.2200634"><ele>409.6666666666667</ele><time>2026-05-01T13:12:26.89Z</time></trkpt><trkpt lat="42.2086889" lon="14.2200084"><ele>408.0</ele><time>2026-05-01T13:12:29.024Z</time></trkpt><trkpt lat="42.208771" lon="14.2199452"><ele>408.0</ele><time>2026-05-01T13:12:31.025Z</time></trkpt><trkpt lat="42.2088495" lon="14.2199005"><ele>408.0</ele><time>2026-05-01T13:12:33.025Z</time></trkpt><trkpt lat="42.2089202" lon="14.2199039"><ele>408.0</ele><time>2026-05-01T13:12:35.025Z</time></trkpt><trkpt lat="42.2090223" lon="14.2199322"><ele>408.0</ele><time>2026-05-01T13:12:37.025Z</time></trkpt><trkpt lat="42.2091278" lon="14.2199623"><ele>408.0</ele><time>2026-05-01T13:12:39.025Z</time></trkpt><trkpt lat="42.2092031" lon="14.220002"><ele>408.0</ele><time>2026-05-01T13:12:41.025Z</time></trkpt><trkpt lat="42.2092903" lon="14.2200421"><ele>406.1666666666667</ele><time>2026-05-01T13:12:44.024Z</time></trkpt><trkpt lat="42.2093713" lon="14.2200478"><ele>404.33333333333337</ele><time>2026-05-01T13:12:46.025Z</time></trkpt><trkpt lat="42.2094421" lon="14.2200769"><ele>402.5</ele><time>2026-05-01T13:12:48.025Z</time></trkpt><trkpt lat="42.2095173" lon="14.2200859"><ele>400.6666666666667</ele><time>2026-05-01T13:12:50.025Z</time></trkpt><trkpt lat="42.2095971" lon="14.2200333"><ele>398.83333333333337</ele><time>2026-05-01T13:12:52.024Z</time></trkpt><trkpt lat="42.2096395" lon="14.219956"><ele>397.0</ele><time>2026-05-01T13:12:53.025Z</time></trkpt><trkpt lat="42.2096827" lon="14.219859"><ele>397.00000000000006</ele><time>2026-05-01T13:12:54.025Z</time></trkpt><trkpt lat="42.2097218" lon="14.2197657"><ele>397.0</ele><time>2026-05-01T13:12:55.025Z</time></trkpt><trkpt lat="42.2097534" lon="14.2196822"><ele>397.0</ele><time>2026-05-01T13:12:56.024Z</time></trkpt><trkpt lat="42.2097571" lon="14.2195942"><ele>397.0</ele><time>2026-05-01T13:12:57.025Z</time></trkpt><trkpt lat="42.2097584" lon="14.2194566"><ele>397.00000000000006</ele><time>2026-05-01T13:12:59.025Z</time></trkpt><trkpt lat="42.2097668" lon="14.2193559"><ele>397.0</ele><time>2026-05-01T13:13:02.025Z</time></trkpt><trkpt lat="42.2098309" lon="14.219299"><ele>395.00000000000006</ele><time>2026-05-01T13:13:06.025Z</time></trkpt><trkpt lat="42.209871" lon="14.2193813"><ele>393.0</ele><time>2026-05-01T13:13:09.025Z</time></trkpt><trkpt lat="42.2098743" lon="14.2194934"><ele>391.0</ele><time>2026-05-01T13:13:11.025Z</time></trkpt><trkpt lat="42.2098693" lon="14.2195791"><ele>389.0</ele><time>2026-05-01T13:13:12.025Z</time></trkpt><trkpt lat="42.2098611" lon="14.219686"><ele>387.00000000000006</ele><time>2026-05-01T13:13:13.025Z</time></trkpt><trkpt lat="42.2098518" lon="14.2198125"><ele>385.0</ele><time>2026-05-01T13:13:14.025Z</time></trkpt><trkpt lat="42.2098443" lon="14.2199539"><ele>385.0</ele><time>2026-05-01T13:13:15.025Z</time></trkpt><trkpt lat="42.2098383" lon="14.2201108"><ele>385.0</ele><time>2026-05-01T13:13:16.025Z</time></trkpt><trkpt lat="42.2098295" lon="14.2202575"><ele>385.0</ele><time>2026-05-01T13:13:17.025Z</time></trkpt><trkpt lat="42.2098256" lon="14.2203847"><ele>385.0</ele><time>2026-05-01T13:13:18.024Z</time></trkpt><trkpt lat="42.2098262" lon="14.2204852"><ele>385.0</ele><time>2026-05-01T13:13:19.025Z</time></trkpt><trkpt lat="42.2098475" lon="14.2206385"><ele>385.83333333333337</ele><time>2026-05-01T13:13:21.025Z</time></trkpt><trkpt lat="42.2098696" lon="14.2207594"><ele>386.6666666666667</ele><time>2026-05-01T13:13:23.025Z</time></trkpt><trkpt lat="42.2098863" lon="14.2209035"><ele>387.5</ele><time>2026-05-01T13:13:26.024Z</time></trkpt><trkpt lat="42.2098712" lon="14.2209943"><ele>388.33333333333337</ele><time>2026-05-01T13:13:28.025Z</time></trkpt><trkpt lat="42.2098729" lon="14.2210875"><ele>389.1666666666667</ele><time>2026-05-01T13:13:58.025Z</time></trkpt><trkpt lat="42.2098853" lon="14.2209605"><ele>390.0</ele><time>2026-05-01T13:14:01.025Z</time></trkpt><trkpt lat="42.2098844" lon="14.2208655"><ele>390.0</ele><time>2026-05-01T13:14:03.025Z</time></trkpt><trkpt lat="42.2099675" lon="14.220795"><ele>390.0</ele><time>2026-05-01T13:14:06.025Z</time></trkpt><trkpt lat="42.2100564" lon="14.2207651"><ele>390.0</ele><time>2026-05-01T13:14:08.025Z</time></trkpt><trkpt lat="42.2101449" lon="14.2207609"><ele>390.0</ele><time>2026-05-01T13:14:10.025Z</time></trkpt><trkpt lat="42.2102187" lon="14.2207501"><ele>390.0</ele><time>2026-05-01T13:14:12.025Z</time></trkpt><trkpt lat="42.2103016" lon="14.220751"><ele>390.0</ele><time>2026-05-01T13:14:15.025Z</time></trkpt><trkpt lat="42.2103629" lon="14.2208325"><ele>390.0</ele><time>2026-05-01T13:14:18.025Z</time></trkpt><trkpt lat="42.2104015" lon="14.2209022"><ele>390.0</ele><time>2026-05-01T13:14:20.025Z</time></trkpt><trkpt lat="42.2104862" lon="14.2209289"><ele>390.0</ele><time>2026-05-01T13:14:23.025Z</time></trkpt><trkpt lat="42.21057" lon="14.2209118"><ele>390.0</ele><time>2026-05-01T13:14:25.025Z</time></trkpt><trkpt lat="42.2106651" lon="14.2208729"><ele>390.0</ele><time>2026-05-01T13:14:27.025Z</time></trkpt><trkpt lat="42.2107574" lon="14.2208518"><ele>390.0</ele><time>2026-05-01T13:14:29.025Z</time></trkpt><trkpt lat="42.2108418" lon="14.2208264"><ele>388.8</ele><time>2026-05-01T13:14:31.025Z</time></trkpt><trkpt lat="42.2109429" lon="14.2208098"><ele>387.6</ele><time>2026-05-01T13:14:33.025Z</time></trkpt><trkpt lat="42.2110369" lon="14.2207987"><ele>386.4</ele><time>2026-05-01T13:14:35.024Z</time></trkpt><trkpt lat="42.2111416" lon="14.2207934"><ele>385.2</ele><time>2026-05-01T13:14:37.025Z</time></trkpt><trkpt lat="42.211243" lon="14.2207671"><ele>384.0</ele><time>2026-05-01T13:14:39.025Z</time></trkpt><trkpt lat="42.2113283" lon="14.2207512"><ele>384.0</ele><time>2026-05-01T13:14:41.025Z</time></trkpt><trkpt lat="42.2114038" lon="14.2207284"><ele>384.0</ele><time>2026-05-01T13:14:43.025Z</time></trkpt><trkpt lat="42.2114858" lon="14.2206905"><ele>384.0</ele><time>2026-05-01T13:14:45.025Z</time></trkpt><trkpt lat="42.2115522" lon="14.2206603"><ele>384.0</ele><time>2026-05-01T13:14:47.024Z</time></trkpt><trkpt lat="42.2116195" lon="14.220643"><ele>384.0</ele><time>2026-05-01T13:14:49.025Z</time></trkpt><trkpt lat="42.2116896" lon="14.2206378"><ele>384.0</ele><time>2026-05-01T13:14:51.025Z</time></trkpt><trkpt lat="42.2117773" lon="14.2206231"><ele>381.99999999999994</ele><time>2026-05-01T13:14:54.025Z</time></trkpt><trkpt lat="42.2118496" lon="14.2205891"><ele>380.0</ele><time>2026-05-01T13:14:57.024Z</time></trkpt><trkpt lat="42.211908" lon="14.220554"><ele>378.0</ele><time>2026-05-01T13:16:43.025Z</time></trkpt><trkpt lat="42.2119591" lon="14.2204982"><ele>376.0</ele><time>2026-05-01T13:16:52.024Z</time></trkpt><trkpt lat="42.2119966" lon="14.2204232"><ele>374.0</ele><time>2026-05-01T13:17:03.025Z</time></trkpt><trkpt lat="42.2120306" lon="14.2203403"><ele>371.99999999999994</ele><time>2026-05-01T13:17:15.025Z</time></trkpt><trkpt lat="42.2120671" lon="14.2202682"><ele>370.0</ele><time>2026-05-01T13:17:24.025Z</time></trkpt><trkpt lat="42.2121358" lon="14.2202364"><ele>369.99999999999994</ele><time>2026-05-01T13:17:53.024Z</time></trkpt><trkpt lat="42.2121986" lon="14.2202155"><ele>370.0</ele><time>2026-05-01T13:18:20.025Z</time></trkpt><trkpt lat="42.2122655" lon="14.2202199"><ele>370.0</ele><time>2026-05-01T13:18:26.025Z</time></trkpt><trkpt lat="42.212305" lon="14.2202873"><ele>370.0</ele><time>2026-05-01T13:18:32.025Z</time></trkpt><trkpt lat="42.2123322" lon="14.2203659"><ele>370.0</ele><time>2026-05-01T13:27:12.025Z</time></trkpt><trkpt lat="42.212316" lon="14.2204518"><ele>369.99999999999994</ele><time>2026-05-01T13:27:15.025Z</time></trkpt><trkpt lat="42.2123174" lon="14.2205381"><ele>370.0</ele><time>2026-05-01T13:27:17.025Z</time></trkpt><trkpt lat="42.2123312" lon="14.2206255"><ele>372.5</ele><time>2026-05-01T13:27:19.025Z</time></trkpt><trkpt lat="42.21235" lon="14.2207171"><ele>375.0</ele><time>2026-05-01T13:27:21.025Z</time></trkpt><trkpt lat="42.2123774" lon="14.2208053"><ele>377.5</ele><time>2026-05-01T13:27:23.025Z</time></trkpt><trkpt lat="42.2124514" lon="14.2208059"><ele>380.0</ele><time>2026-05-01T13:27:38.025Z</time></trkpt><trkpt lat="42.212514" lon="14.2207756"><ele>382.50000000000006</ele><time>2026-05-01T13:27:41.025Z</time></trkpt><trkpt lat="42.2125954" lon="14.2207434"><ele>385.0</ele><time>2026-05-01T13:27:45.025Z</time></trkpt><trkpt lat="42.2126793" lon="14.2206854"><ele>385.0</ele><time>2026-05-01T13:27:48.024Z</time></trkpt><trkpt lat="42.2127391" lon="14.2206581"><ele>385.0</ele><time>2026-05-01T13:27:50.025Z</time></trkpt><trkpt lat="42.2128025" lon="14.2206224"><ele>385.0</ele><time>2026-05-01T13:27:55.025Z</time></trkpt><trkpt lat="42.2128655" lon="14.2205988"><ele>385.0</ele><time>2026-05-01T13:28:00.025Z</time></trkpt><trkpt lat="42.2129225" lon="14.2205622"><ele>385.0</ele><time>2026-05-01T13:28:02.025Z</time></trkpt><trkpt lat="42.2129743" lon="14.2205076"><ele>385.0</ele><time>2026-05-01T13:28:04.025Z</time></trkpt><trkpt lat="42.2130292" lon="14.2204659"><ele>385.0</ele><time>2026-05-01T13:28:07.025Z</time></trkpt><trkpt lat="42.2131078" lon="14.2204156"><ele>383.50000000000006</ele><time>2026-05-01T13:28:17.025Z</time></trkpt><trkpt lat="42.2131577" lon="14.2203341"><ele>382.0</ele><time>2026-05-01T13:28:19.025Z</time></trkpt><trkpt lat="42.2132165" lon="14.2202482"><ele>380.5</ele><time>2026-05-01T13:28:21.025Z</time></trkpt><trkpt lat="42.2132912" lon="14.2202048"><ele>379.0</ele><time>2026-05-01T13:28:23.024Z</time></trkpt><trkpt lat="42.2133737" lon="14.2201492"><ele>377.5</ele><time>2026-05-01T13:28:25.025Z</time></trkpt><trkpt lat="42.2134459" lon="14.2200788"><ele>376.0</ele><time>2026-05-01T13:28:27.025Z</time></trkpt><trkpt lat="42.213509" lon="14.219994"><ele>376.0</ele><time>2026-05-01T13:28:29.025Z</time></trkpt><trkpt lat="42.2135831" lon="14.2199308"><ele>376.0</ele><time>2026-05-01T13:28:31.025Z</time></trkpt><trkpt lat="42.2136617" lon="14.219862"><ele>376.0</ele><time>2026-05-01T13:28:33.025Z</time></trkpt><trkpt lat="42.213734" lon="14.2197845"><ele>376.0</ele><time>2026-05-01T13:28:35.025Z</time></trkpt><trkpt lat="42.2138019" lon="14.2197039"><ele>376.0</ele><time>2026-05-01T13:28:37.025Z</time></trkpt><trkpt lat="42.2138602" lon="14.2196355"><ele>376.0</ele><time>2026-05-01T13:28:39.025Z</time></trkpt><trkpt lat="42.2139347" lon="14.2195765"><ele>374.7142857142857</ele><time>2026-05-01T13:28:42.025Z</time></trkpt><trkpt lat="42.2139815" lon="14.219508"><ele>373.42857142857144</ele><time>2026-05-01T13:28:44.024Z</time></trkpt><trkpt lat="42.2140313" lon="14.2193993"><ele>372.1428571428571</ele><time>2026-05-01T13:28:47.024Z</time></trkpt><trkpt lat="42.214066" lon="14.2193231"><ele>370.8571428571429</ele><time>2026-05-01T13:28:49.025Z</time></trkpt><trkpt lat="42.2141008" lon="14.2192521"><ele>369.5714285714286</ele><time>2026-05-01T13:28:51.025Z</time></trkpt><trkpt lat="42.2141392" lon="14.2191721"><ele>368.2857142857143</ele><time>2026-05-01T13:28:53.025Z</time></trkpt><trkpt lat="42.2141756" lon="14.2190895"><ele>367.0</ele><time>2026-05-01T13:28:55.025Z</time></trkpt><trkpt lat="42.2142075" lon="14.2190117"><ele>364.0</ele><time>2026-05-01T13:28:57.025Z</time></trkpt><trkpt lat="42.2142398" lon="14.2189371"><ele>361.0</ele><time>2026-05-01T13:28:59.025Z</time></trkpt><trkpt lat="42.2142826" lon="14.2188674"><ele>358.0</ele><time>2026-05-01T13:29:01.025Z</time></trkpt><trkpt lat="42.2143667" lon="14.2188202"><ele>355.0</ele><time>2026-05-01T13:29:03.025Z</time></trkpt><trkpt lat="42.2144673" lon="14.218754"><ele>352.0</ele><time>2026-05-01T13:29:05.024Z</time></trkpt><trkpt lat="42.2145628" lon="14.2186498"><ele>352.0</ele><time>2026-05-01T13:29:07.025Z</time></trkpt><trkpt lat="42.2146128" lon="14.2185967"><ele>352.0</ele><time>2026-05-01T13:29:08.024Z</time></trkpt><trkpt lat="42.2147094" lon="14.2184838"><ele>352.0</ele><time>2026-05-01T13:29:10.025Z</time></trkpt><trkpt lat="42.214755" lon="14.218423"><ele>352.0</ele><time>2026-05-01T13:29:11.025Z</time></trkpt><trkpt lat="42.214852" lon="14.2183306"><ele>352.0</ele><time>2026-05-01T13:29:13.025Z</time></trkpt><trkpt lat="42.2149059" lon="14.218277"><ele>352.0</ele><time>2026-05-01T13:29:14.025Z</time></trkpt><trkpt lat="42.2149551" lon="14.2182154"><ele>351.3333333333333</ele><time>2026-05-01T13:29:15.025Z</time></trkpt><trkpt lat="42.2150137" lon="14.218161"><ele>350.66666666666663</ele><time>2026-05-01T13:29:16.025Z</time></trkpt><trkpt lat="42.2150683" lon="14.2181074"><ele>350.0</ele><time>2026-05-01T13:29:17.025Z</time></trkpt><trkpt lat="42.2151192" lon="14.2180512"><ele>349.3333333333333</ele><time>2026-05-01T13:29:18.025Z</time></trkpt><trkpt lat="42.2152182" lon="14.2179595"><ele>348.6666666666667</ele><time>2026-05-01T13:29:20.025Z</time></trkpt><trkpt lat="42.2152834" lon="14.2179287"><ele>348.0</ele><time>2026-05-01T13:29:21.025Z</time></trkpt><trkpt lat="42.2153469" lon="14.2178982"><ele>348.0</ele><time>2026-05-01T13:29:22.025Z</time></trkpt><trkpt lat="42.2154081" lon="14.2178666"><ele>348.0</ele><time>2026-05-01T13:29:23.025Z</time></trkpt><trkpt lat="42.215469" lon="14.2178235"><ele>348.0</ele><time>2026-05-01T13:29:24.025Z</time></trkpt><trkpt lat="42.2155651" lon="14.2177336"><ele>348.0</ele><time>2026-05-01T13:29:26.024Z</time></trkpt><trkpt lat="42.2156184" lon="14.2176842"><ele>348.0</ele><time>2026-05-01T13:29:27.024Z</time></trkpt><trkpt lat="42.215673" lon="14.2176327"><ele>348.0</ele><time>2026-05-01T13:29:28.025Z</time></trkpt><trkpt lat="42.2157716" lon="14.2175275"><ele>348.79999999999995</ele><time>2026-05-01T13:29:30.024Z</time></trkpt><trkpt lat="42.215856" lon="14.2174422"><ele>349.6</ele><time>2026-05-01T13:29:32.025Z</time></trkpt><trkpt lat="42.2159364" lon="14.2173561"><ele>350.4</ele><time>2026-05-01T13:29:34.025Z</time></trkpt><trkpt lat="42.2159999" lon="14.217289"><ele>351.20000000000005</ele><time>2026-05-01T13:29:36.025Z</time></trkpt><trkpt lat="42.2160765" lon="14.2172434"><ele>352.0</ele><time>2026-05-01T13:29:38.025Z</time></trkpt><trkpt lat="42.2161474" lon="14.2171743"><ele>350.0</ele><time>2026-05-01T13:29:40.025Z</time></trkpt><trkpt lat="42.2162183" lon="14.2171012"><ele>348.0</ele><time>2026-05-01T13:29:42.025Z</time></trkpt><trkpt lat="42.216302" lon="14.2170133"><ele>346.0</ele><time>2026-05-01T13:29:44.025Z</time></trkpt><trkpt lat="42.2163886" lon="14.2169356"><ele>344.0</ele><time>2026-05-01T13:29:46.025Z</time></trkpt><trkpt lat="42.2164885" lon="14.2168717"><ele>342.0</ele><time>2026-05-01T13:29:48.025Z</time></trkpt><trkpt lat="42.2165975" lon="14.216807"><ele>342.0</ele><time>2026-05-01T13:29:50.025Z</time></trkpt><trkpt lat="42.2167079" lon="14.2167496"><ele>342.0</ele><time>2026-05-01T13:29:52.025Z</time></trkpt><trkpt lat="42.2168041" lon="14.2166825"><ele>342.0</ele><time>2026-05-01T13:29:54.025Z</time></trkpt><trkpt lat="42.2168599" lon="14.2166356"><ele>342.0</ele><time>2026-05-01T13:29:55.025Z</time></trkpt><trkpt lat="42.2169588" lon="14.2165457"><ele>342.0</ele><time>2026-05-01T13:29:57.025Z</time></trkpt><trkpt lat="42.2170742" lon="14.2164645"><ele>341.4285714285714</ele><time>2026-05-01T13:29:59.024Z</time></trkpt><trkpt lat="42.2171365" lon="14.2164377"><ele>340.85714285714283</ele><time>2026-05-01T13:30:00.025Z</time></trkpt><trkpt lat="42.2172013" lon="14.2164207"><ele>340.2857142857143</ele><time>2026-05-01T13:30:01.025Z</time></trkpt><trkpt lat="42.2172611" lon="14.2163835"><ele>339.71428571428567</ele><time>2026-05-01T13:30:02.025Z</time></trkpt><trkpt lat="42.2173228" lon="14.2163393"><ele>339.1428571428571</ele><time>2026-05-01T13:30:03.024Z</time></trkpt><trkpt lat="42.21738" lon="14.2162936"><ele>338.57142857142856</ele><time>2026-05-01T13:30:04.024Z</time></trkpt><trkpt lat="42.2174827" lon="14.2162628"><ele>338.0</ele><time>2026-05-01T13:30:06.024Z</time></trkpt><trkpt lat="42.2175868" lon="14.2163168"><ele>337.79999999999995</ele><time>2026-05-01T13:30:08.025Z</time></trkpt><trkpt lat="42.2176453" lon="14.2164042"><ele>337.6</ele><time>2026-05-01T13:30:10.025Z</time></trkpt><trkpt lat="42.2176976" lon="14.2165099"><ele>337.4</ele><time>2026-05-01T13:30:12.025Z</time></trkpt><trkpt lat="42.2177615" lon="14.2166902"><ele>337.20000000000005</ele><time>2026-05-01T13:30:16.024Z</time></trkpt><trkpt lat="42.2177212" lon="14.2167617"><ele>337.0</ele><time>2026-05-01T13:30:18.025Z</time></trkpt><trkpt lat="42.2176372" lon="14.2167881"><ele>338.16666666666663</ele><time>2026-05-01T13:30:20.025Z</time></trkpt><trkpt lat="42.2175546" lon="14.2168334"><ele>339.3333333333333</ele><time>2026-05-01T13:30:22.025Z</time></trkpt><trkpt lat="42.2174878" lon="14.2169014"><ele>340.5</ele><time>2026-05-01T13:30:24.025Z</time></trkpt><trkpt lat="42.217535" lon="14.2169633"><ele>341.6666666666667</ele><time>2026-05-01T13:30:26.025Z</time></trkpt><trkpt lat="42.2176306" lon="14.2169796"><ele>342.83333333333337</ele><time>2026-05-01T13:30:28.025Z</time></trkpt><trkpt lat="42.2177042" lon="14.2169685"><ele>344.0</ele><time>2026-05-01T13:30:29.025Z</time></trkpt><trkpt lat="42.2177686" lon="14.2169671"><ele>344.0</ele><time>2026-05-01T13:30:30.025Z</time></trkpt><trkpt lat="42.2178317" lon="14.2169601"><ele>344.0</ele><time>2026-05-01T13:30:31.025Z</time></trkpt><trkpt lat="42.2178965" lon="14.2169602"><ele>344.0</ele><time>2026-05-01T13:30:32.024Z</time></trkpt><trkpt lat="42.2180016" lon="14.216964"><ele>344.0</ele><time>2026-05-01T13:30:34.025Z</time></trkpt><trkpt lat="42.2180713" lon="14.2170135"><ele>344.0</ele><time>2026-05-01T13:30:35.024Z</time></trkpt><trkpt lat="42.2181376" lon="14.2170737"><ele>344.0</ele><time>2026-05-01T13:30:36.025Z</time></trkpt><trkpt lat="42.2182022" lon="14.2171506"><ele>344.5</ele><time>2026-05-01T13:30:37.025Z</time></trkpt><trkpt lat="42.21826" lon="14.2171903"><ele>345.0</ele><time>2026-05-01T13:30:38.025Z</time></trkpt><trkpt lat="42.218327" lon="14.2172159"><ele>345.5</ele><time>2026-05-01T13:30:40.025Z</time></trkpt><trkpt lat="42.2183613" lon="14.2171444"><ele>346.0</ele><time>2026-05-01T13:30:42.025Z</time></trkpt><trkpt lat="42.218422" lon="14.2170026"><ele>346.5</ele><time>2026-05-01T13:30:44.025Z</time></trkpt><trkpt lat="42.2184776" lon="14.216928"><ele>347.0</ele><time>2026-05-01T13:30:45.025Z</time></trkpt><trkpt lat="42.2185446" lon="14.2168434"><ele>347.0</ele><time>2026-05-01T13:30:46.024Z</time></trkpt><trkpt lat="42.218616" lon="14.2167661"><ele>347.0</ele><time>2026-05-01T13:30:47.025Z</time></trkpt><trkpt lat="42.2187002" lon="14.2166839"><ele>347.0</ele><time>2026-05-01T13:30:48.025Z</time></trkpt><trkpt lat="42.2187901" lon="14.216596"><ele>347.0</ele><time>2026-05-01T13:30:49.025Z</time></trkpt><trkpt lat="42.2188853" lon="14.2165073"><ele>347.0</ele><time>2026-05-01T13:30:50.024Z</time></trkpt><trkpt lat="42.2189853" lon="14.2164014"><ele>345.5</ele><time>2026-05-01T13:30:51.025Z</time></trkpt><trkpt lat="42.2190748" lon="14.2162815"><ele>344.0</ele><time>2026-05-01T13:30:52.025Z</time></trkpt><trkpt lat="42.2191699" lon="14.2161516"><ele>342.5</ele><time>2026-05-01T13:30:53.025Z</time></trkpt><trkpt lat="42.2192528" lon="14.2160169"><ele>341.0</ele><time>2026-05-01T13:30:54.025Z</time></trkpt><trkpt lat="42.219331" lon="14.2158645"><ele>341.0</ele><time>2026-05-01T13:30:55.025Z</time></trkpt><trkpt lat="42.2193937" lon="14.2156824"><ele>341.0</ele><time>2026-05-01T13:30:56.025Z</time></trkpt><trkpt lat="42.2194574" lon="14.2155007"><ele>341.0</ele><time>2026-05-01T13:30:57.025Z</time></trkpt><trkpt lat="42.2195122" lon="14.2153569"><ele>341.0</ele><time>2026-05-01T13:30:58.025Z</time></trkpt><trkpt lat="42.2195877" lon="14.2151914"><ele>338.5</ele><time>2026-05-01T13:30:59.025Z</time></trkpt><trkpt lat="42.2196661" lon="14.2150173"><ele>336.0</ele><time>2026-05-01T13:31:00.025Z</time></trkpt><trkpt lat="42.219749" lon="14.2148499"><ele>333.5</ele><time>2026-05-01T13:31:01.025Z</time></trkpt><trkpt lat="42.219816" lon="14.214705"><ele>331.0</ele><time>2026-05-01T13:31:02.025Z</time></trkpt><trkpt lat="42.2198796" lon="14.2145727"><ele>330.3333333333333</ele><time>2026-05-01T13:31:03.025Z</time></trkpt><trkpt lat="42.2199304" lon="14.2144481"><ele>329.66666666666663</ele><time>2026-05-01T13:31:04.025Z</time></trkpt><trkpt lat="42.21997" lon="14.2143439"><ele>329.0</ele><time>2026-05-01T13:31:05.025Z</time></trkpt><trkpt lat="42.2199988" lon="14.2142503"><ele>328.3333333333333</ele><time>2026-05-01T13:31:06.025Z</time></trkpt><trkpt lat="42.2200254" lon="14.2141609"><ele>327.6666666666667</ele><time>2026-05-01T13:31:07.025Z</time></trkpt><trkpt lat="42.2200593" lon="14.2140336"><ele>327.0</ele><time>2026-05-01T13:31:09.025Z</time></trkpt><trkpt lat="42.2201132" lon="14.2138918"><ele>326.0</ele><time>2026-05-01T13:31:11.025Z</time></trkpt><trkpt lat="42.2201252" lon="14.21376"><ele>325.0</ele><time>2026-05-01T13:31:13.025Z</time></trkpt><trkpt lat="42.2200685" lon="14.2136657"><ele>324.0</ele><time>2026-05-01T13:31:15.025Z</time></trkpt><trkpt lat="42.2199838" lon="14.2136149"><ele>323.0</ele><time>2026-05-01T13:31:17.025Z</time></trkpt><trkpt lat="42.2199227" lon="14.2135856"><ele>322.0</ele><time>2026-05-01T13:31:19.025Z</time></trkpt><trkpt lat="42.2198711" lon="14.2135274"><ele>321.0</ele><time>2026-05-01T13:31:22.024Z</time></trkpt><trkpt lat="42.219887" lon="14.2134196"><ele>321.0</ele><time>2026-05-01T13:31:25.025Z</time></trkpt><trkpt lat="42.2199364" lon="14.2133124"><ele>321.0</ele><time>2026-05-01T13:31:27.025Z</time></trkpt><trkpt lat="42.2200193" lon="14.213176"><ele>321.0</ele><time>2026-05-01T13:31:29.025Z</time></trkpt><trkpt lat="42.2200734" lon="14.2130863"><ele>321.0</ele><time>2026-05-01T13:31:30.025Z</time></trkpt><trkpt lat="42.2201541" lon="14.2129905"><ele>321.0</ele><time>2026-05-01T13:31:31.025Z</time></trkpt><trkpt lat="42.2202873" lon="14.2128031"><ele>321.3333333333333</ele><time>2026-05-01T13:31:32.025Z</time></trkpt><trkpt lat="42.2203907" lon="14.2126446"><ele>321.66666666666663</ele><time>2026-05-01T13:31:33.025Z</time></trkpt><trkpt lat="42.2205344" lon="14.2125266"><ele>322.0</ele><time>2026-05-01T13:31:34.025Z</time></trkpt><trkpt lat="42.2206393" lon="14.2123912"><ele>321.5</ele><time>2026-05-01T13:31:35.024Z</time></trkpt><trkpt lat="42.2207561" lon="14.2122618"><ele>321.0</ele><time>2026-05-01T13:31:36.025Z</time></trkpt><trkpt lat="42.2208476" lon="14.212124"><ele>320.5</ele><time>2026-05-01T13:31:37.025Z</time></trkpt><trkpt lat="42.2209587" lon="14.2119946"><ele>320.0</ele><time>2026-05-01T13:31:38.024Z</time></trkpt><trkpt lat="42.2210609" lon="14.2118819"><ele>320.0</ele><time>2026-05-01T13:31:39.025Z</time></trkpt><trkpt lat="42.221186" lon="14.2117968"><ele>320.0</ele><time>2026-05-01T13:31:40.025Z</time></trkpt><trkpt lat="42.2213115" lon="14.2117159"><ele>320.0</ele><time>2026-05-01T13:31:41.024Z</time></trkpt><trkpt lat="42.221456" lon="14.2116265"><ele>320.0</ele><time>2026-05-01T13:31:42.025Z</time></trkpt><trkpt lat="42.2216005" lon="14.2115425"><ele>318.5</ele><time>2026-05-01T13:31:43.025Z</time></trkpt><trkpt lat="42.2217467" lon="14.2114665"><ele>317.0</ele><time>2026-05-01T13:31:44.025Z</time></trkpt><trkpt lat="42.2218645" lon="14.2113783"><ele>315.5</ele><time>2026-05-01T13:31:45.024Z</time></trkpt><trkpt lat="42.22198" lon="14.2113126"><ele>314.0</ele><time>2026-05-01T13:31:46.025Z</time></trkpt><trkpt lat="42.2220942" lon="14.2112591"><ele>314.0</ele><time>2026-05-01T13:31:47.024Z</time></trkpt><trkpt lat="42.2222309" lon="14.2112171"><ele>314.0</ele><time>2026-05-01T13:31:48.025Z</time></trkpt><trkpt lat="42.2223555" lon="14.2111806"><ele>314.0</ele><time>2026-05-01T13:31:49.025Z</time></trkpt><trkpt lat="42.2224723" lon="14.2111414"><ele>314.0</ele><time>2026-05-01T13:31:50.024Z</time></trkpt><trkpt lat="42.2225932" lon="14.2110902"><ele>313.2</ele><time>2026-05-01T13:31:51.025Z</time></trkpt><trkpt lat="42.222688" lon="14.2109903"><ele>312.4</ele><time>2026-05-01T13:31:52.025Z</time></trkpt><trkpt lat="42.2227807" lon="14.210914"><ele>311.6</ele><time>2026-05-01T13:31:53.025Z</time></trkpt><trkpt lat="42.222859" lon="14.2108415"><ele>310.8</ele><time>2026-05-01T13:31:54.025Z</time></trkpt><trkpt lat="42.2229429" lon="14.2107832"><ele>310.0</ele><time>2026-05-01T13:31:55.025Z</time></trkpt><trkpt lat="42.2230162" lon="14.210724"><ele>310.2</ele><time>2026-05-01T13:31:56.025Z</time></trkpt><trkpt lat="42.2230809" lon="14.2106576"><ele>310.4</ele><time>2026-05-01T13:31:57.025Z</time></trkpt><trkpt lat="42.2231449" lon="14.210579"><ele>310.6</ele><time>2026-05-01T13:31:58.025Z</time></trkpt><trkpt lat="42.223254" lon="14.2104833"><ele>310.8</ele><time>2026-05-01T13:31:59.024Z</time></trkpt><trkpt lat="42.2233258" lon="14.2103695"><ele>311.0</ele><time>2026-05-01T13:32:00.025Z</time></trkpt><trkpt lat="42.2233963" lon="14.2102586"><ele>310.6</ele><time>2026-05-01T13:32:01.025Z</time></trkpt><trkpt lat="42.2234644" lon="14.2101648"><ele>310.20000000000005</ele><time>2026-05-01T13:32:02.025Z</time></trkpt><trkpt lat="42.2235338" lon="14.2100714"><ele>309.79999999999995</ele><time>2026-05-01T13:32:03.025Z</time></trkpt><trkpt lat="42.2236172" lon="14.2099938"><ele>309.4</ele><time>2026-05-01T13:32:04.025Z</time></trkpt><trkpt lat="42.2236958" lon="14.209931"><ele>309.0</ele><time>2026-05-01T13:32:05.025Z</time></trkpt><trkpt lat="42.2237757" lon="14.2098803"><ele>309.0</ele><time>2026-05-01T13:32:06.024Z</time></trkpt><trkpt lat="42.2238637" lon="14.2098397"><ele>309.0</ele><time>2026-05-01T13:32:07.025Z</time></trkpt><trkpt lat="42.2239486" lon="14.2098634"><ele>309.0</ele><time>2026-05-01T13:32:08.025Z</time></trkpt><trkpt lat="42.2240417" lon="14.2098643"><ele>309.0</ele><time>2026-05-01T13:32:09.025Z</time></trkpt><trkpt lat="42.2241353" lon="14.2098855"><ele>309.0</ele><time>2026-05-01T13:32:10.025Z</time></trkpt><trkpt lat="42.2242191" lon="14.2098846"><ele>309.0</ele><time>2026-05-01T13:32:11.025Z</time></trkpt><trkpt lat="42.2242998" lon="14.2098819"><ele>309.0</ele><time>2026-05-01T13:32:12.025Z</time></trkpt><trkpt lat="42.2243715" lon="14.2098615"><ele>309.0</ele><time>2026-05-01T13:32:13.024Z</time></trkpt><trkpt lat="42.2244409" lon="14.2097132"><ele>309.0</ele><time>2026-05-01T13:32:14.024Z</time></trkpt><trkpt lat="42.2245046" lon="14.2096392"><ele>309.0</ele><time>2026-05-01T13:32:15.025Z</time></trkpt><trkpt lat="42.2245803" lon="14.2095299"><ele>309.4</ele><time>2026-05-01T13:32:16.025Z</time></trkpt><trkpt lat="42.2246653" lon="14.2094395"><ele>309.79999999999995</ele><time>2026-05-01T13:32:17.025Z</time></trkpt><trkpt lat="42.2247396" lon="14.20936"><ele>310.20000000000005</ele><time>2026-05-01T13:32:18.025Z</time></trkpt><trkpt lat="42.224814" lon="14.2092624"><ele>310.6</ele><time>2026-05-01T13:32:19.025Z</time></trkpt><trkpt lat="42.224909" lon="14.2092208"><ele>311.0</ele><time>2026-05-01T13:32:20.025Z</time></trkpt><trkpt lat="42.2249972" lon="14.2091804"><ele>310.0</ele><time>2026-05-01T13:32:21.025Z</time></trkpt><trkpt lat="42.2251092" lon="14.2091649"><ele>309.0</ele><time>2026-05-01T13:32:22.025Z</time></trkpt><trkpt lat="42.2252101" lon="14.2091464"><ele>308.0</ele><time>2026-05-01T13:32:23.025Z</time></trkpt><trkpt lat="42.2253086" lon="14.209071"><ele>307.0</ele><time>2026-05-01T13:32:24.025Z</time></trkpt><trkpt lat="42.2254193" lon="14.2089809"><ele>306.5</ele><time>2026-05-01T13:32:25.025Z</time></trkpt><trkpt lat="42.2255451" lon="14.2089203"><ele>306.0</ele><time>2026-05-01T13:32:26.025Z</time></trkpt><trkpt lat="42.2256609" lon="14.2088659"><ele>305.5</ele><time>2026-05-01T13:32:27.025Z</time></trkpt><trkpt lat="42.2258031" lon="14.2088244"><ele>305.0</ele><time>2026-05-01T13:32:28.025Z</time></trkpt><trkpt lat="42.225913" lon="14.2087959"><ele>304.6666666666667</ele><time>2026-05-01T13:32:29.025Z</time></trkpt><trkpt lat="42.2260135" lon="14.2087725"><ele>304.33333333333337</ele><time>2026-05-01T13:32:30.024Z</time></trkpt><trkpt lat="42.226091" lon="14.2087483"><ele>304.0</ele><time>2026-05-01T13:32:31.024Z</time></trkpt><trkpt lat="42.2261572" lon="14.2087004"><ele>303.6666666666667</ele><time>2026-05-01T13:32:32.025Z</time></trkpt><trkpt lat="42.2262104" lon="14.208625"><ele>303.3333333333333</ele><time>2026-05-01T13:32:33.025Z</time></trkpt><trkpt lat="42.2262509" lon="14.2085103"><ele>303.0</ele><time>2026-05-01T13:32:34.025Z</time></trkpt><trkpt lat="42.2263007" lon="14.2083994"><ele>303.0</ele><time>2026-05-01T13:32:35.025Z</time></trkpt><trkpt lat="42.2263578" lon="14.2082335"><ele>303.0</ele><time>2026-05-01T13:32:36.025Z</time></trkpt><trkpt lat="42.2264092" lon="14.2080734"><ele>303.0</ele><time>2026-05-01T13:32:37.025Z</time></trkpt><trkpt lat="42.2264564" lon="14.207931"><ele>303.0</ele><time>2026-05-01T13:32:38.025Z</time></trkpt><trkpt lat="42.2265118" lon="14.2078114"><ele>302.2</ele><time>2026-05-01T13:32:39.025Z</time></trkpt><trkpt lat="42.2265671" lon="14.207705"><ele>301.4</ele><time>2026-05-01T13:32:40.025Z</time></trkpt><trkpt lat="42.2266389" lon="14.2075879"><ele>300.59999999999997</ele><time>2026-05-01T13:32:41.025Z</time></trkpt><trkpt lat="42.2267366" lon="14.207494"><ele>299.8</ele><time>2026-05-01T13:32:42.025Z</time></trkpt><trkpt lat="42.2268415" lon="14.2074151"><ele>299.0</ele><time>2026-05-01T13:32:43.024Z</time></trkpt><trkpt lat="42.2269692" lon="14.2073281"><ele>298.75</ele><time>2026-05-01T13:32:44.025Z</time></trkpt><trkpt lat="42.2271082" lon="14.2072315"><ele>298.5</ele><time>2026-05-01T13:32:45.025Z</time></trkpt><trkpt lat="42.2272374" lon="14.2071477"><ele>298.25</ele><time>2026-05-01T13:32:46.025Z</time></trkpt><trkpt lat="42.2273634" lon="14.2070764"><ele>298.0</ele><time>2026-05-01T13:32:47.025Z</time></trkpt><trkpt lat="42.2274299" lon="14.2070186"><ele>297.2</ele><time>2026-05-01T13:32:48.025Z</time></trkpt><trkpt lat="42.2275176" lon="14.2069516"><ele>296.4</ele><time>2026-05-01T13:32:49.024Z</time></trkpt><trkpt lat="42.227565" lon="14.2068184"><ele>295.59999999999997</ele><time>2026-05-01T13:32:50.024Z</time></trkpt><trkpt lat="42.2276126" lon="14.2067041"><ele>294.8</ele><time>2026-05-01T13:32:51.025Z</time></trkpt><trkpt lat="42.2276496" lon="14.2065476"><ele>294.0</ele><time>2026-05-01T13:32:52.025Z</time></trkpt><trkpt lat="42.227686" lon="14.2063796"><ele>293.5</ele><time>2026-05-01T13:32:53.025Z</time></trkpt><trkpt lat="42.2277289" lon="14.2062325"><ele>293.0</ele><time>2026-05-01T13:32:54.025Z</time></trkpt><trkpt lat="42.22777" lon="14.2061148"><ele>292.5</ele><time>2026-05-01T13:32:55.025Z</time></trkpt><trkpt lat="42.2277956" lon="14.2060206"><ele>292.0</ele><time>2026-05-01T13:32:56.024Z</time></trkpt><trkpt lat="42.2278123" lon="14.2059346"><ele>291.5</ele><time>2026-05-01T13:32:57.025Z</time></trkpt><trkpt lat="42.2277951" lon="14.2058244"><ele>291.0</ele><time>2026-05-01T13:32:58.025Z</time></trkpt><trkpt lat="42.2277759" lon="14.2057012"><ele>290.8333333333333</ele><time>2026-05-01T13:32:59.025Z</time></trkpt><trkpt lat="42.2277169" lon="14.2055876"><ele>290.6666666666667</ele><time>2026-05-01T13:33:00.025Z</time></trkpt><trkpt lat="42.2277059" lon="14.2055021"><ele>290.5</ele><time>2026-05-01T13:33:01.025Z</time></trkpt><trkpt lat="42.2277078" lon="14.2054079"><ele>290.33333333333337</ele><time>2026-05-01T13:33:02.025Z</time></trkpt><trkpt lat="42.2277198" lon="14.2053111"><ele>290.1666666666667</ele><time>2026-05-01T13:33:03.025Z</time></trkpt><trkpt lat="42.2277419" lon="14.2052057"><ele>290.0</ele><time>2026-05-01T13:33:04.025Z</time></trkpt><trkpt lat="42.2277811" lon="14.2051032"><ele>290.0</ele><time>2026-05-01T13:33:05.025Z</time></trkpt><trkpt lat="42.2278446" lon="14.2050253"><ele>290.0</ele><time>2026-05-01T13:33:06.025Z</time></trkpt><trkpt lat="42.2279183" lon="14.2049726"><ele>290.0</ele><time>2026-05-01T13:33:07.025Z</time></trkpt><trkpt lat="42.22802" lon="14.2049249"><ele>290.0</ele><time>2026-05-01T13:33:08.025Z</time></trkpt><trkpt lat="42.2281096" lon="14.2049006"><ele>290.0</ele><time>2026-05-01T13:33:09.025Z</time></trkpt><trkpt lat="42.2281857" lon="14.204832"><ele>290.0</ele><time>2026-05-01T13:33:10.024Z</time></trkpt><trkpt lat="42.2282557" lon="14.204749"><ele>290.0</ele><time>2026-05-01T13:33:11.024Z</time></trkpt><trkpt lat="42.2283292" lon="14.2046417"><ele>290.0</ele><time>2026-05-01T13:33:12.025Z</time></trkpt><trkpt lat="42.228387" lon="14.2045127"><ele>290.0</ele><time>2026-05-01T13:33:13.025Z</time></trkpt><trkpt lat="42.2284293" lon="14.2043876"><ele>290.0</ele><time>2026-05-01T13:33:14.024Z</time></trkpt><trkpt lat="42.2284847" lon="14.2042659"><ele>290.0</ele><time>2026-05-01T13:33:15.024Z</time></trkpt><trkpt lat="42.2285354" lon="14.2041556"><ele>290.0</ele><time>2026-05-01T13:33:16.024Z</time></trkpt><trkpt lat="42.2286164" lon="14.2040763"><ele>290.0</ele><time>2026-05-01T13:33:17.025Z</time></trkpt><trkpt lat="42.2287146" lon="14.2039971"><ele>290.0</ele><time>2026-05-01T13:33:18.025Z</time></trkpt><trkpt lat="42.2288178" lon="14.2039405"><ele>290.0</ele><time>2026-05-01T13:33:19.025Z</time></trkpt><trkpt lat="42.2289192" lon="14.2038868"><ele>289.5</ele><time>2026-05-01T13:33:20.025Z</time></trkpt><trkpt lat="42.2290336" lon="14.2038258"><ele>289.0</ele><time>2026-05-01T13:33:21.025Z</time></trkpt><trkpt lat="42.2291582" lon="14.2037429"><ele>288.5</ele><time>2026-05-01T13:33:22.025Z</time></trkpt><trkpt lat="42.2292618" lon="14.2036723"><ele>288.0</ele><time>2026-05-01T13:33:23.025Z</time></trkpt><trkpt lat="42.2293554" lon="14.2035985"><ele>288.0</ele><time>2026-05-01T13:33:24.025Z</time></trkpt><trkpt lat="42.2294495" lon="14.2035323"><ele>288.0</ele><time>2026-05-01T13:33:25.025Z</time></trkpt><trkpt lat="42.2294865" lon="14.2034355"><ele>288.0</ele><time>2026-05-01T13:33:26.025Z</time></trkpt><trkpt lat="42.2295394" lon="14.2033221"><ele>288.0</ele><time>2026-05-01T13:33:27.025Z</time></trkpt><trkpt lat="42.2295715" lon="14.2031814"><ele>288.0</ele><time>2026-05-01T13:33:28.025Z</time></trkpt><trkpt lat="42.2295858" lon="14.2030242"><ele>287.0</ele><time>2026-05-01T13:33:29.025Z</time></trkpt><trkpt lat="42.229596" lon="14.202853"><ele>286.0</ele><time>2026-05-01T13:33:30.025Z</time></trkpt><trkpt lat="42.2296107" lon="14.2027037"><ele>285.0</ele><time>2026-05-01T13:33:31.025Z</time></trkpt><trkpt lat="42.2296415" lon="14.2025554"><ele>284.0</ele><time>2026-05-01T13:33:32.025Z</time></trkpt><trkpt lat="42.2296885" lon="14.2024103"><ele>283.75</ele><time>2026-05-01T13:33:33.025Z</time></trkpt><trkpt lat="42.2297548" lon="14.2022696"><ele>283.5</ele><time>2026-05-01T13:33:34.025Z</time></trkpt><trkpt lat="42.2298244" lon="14.2021266"><ele>283.25</ele><time>2026-05-01T13:33:35.025Z</time></trkpt><trkpt lat="42.2298992" lon="14.2020038"><ele>283.0</ele><time>2026-05-01T13:33:36.025Z</time></trkpt><trkpt lat="42.2299859" lon="14.2019319"><ele>283.0</ele><time>2026-05-01T13:33:37.025Z</time></trkpt><trkpt lat="42.2300699" lon="14.2018519"><ele>283.0</ele><time>2026-05-01T13:33:38.025Z</time></trkpt><trkpt lat="42.2301523" lon="14.2017766"><ele>283.0</ele><time>2026-05-01T13:33:39.025Z</time></trkpt><trkpt lat="42.2302512" lon="14.2017167"><ele>283.0</ele><time>2026-05-01T13:33:40.025Z</time></trkpt><trkpt lat="42.2303508" lon="14.2016506"><ele>283.0</ele><time>2026-05-01T13:33:41.025Z</time></trkpt><trkpt lat="42.2304609" lon="14.201568"><ele>282.75</ele><time>2026-05-01T13:33:42.025Z</time></trkpt><trkpt lat="42.2305637" lon="14.2014934"><ele>282.5</ele><time>2026-05-01T13:33:43.025Z</time></trkpt><trkpt lat="42.2306485" lon="14.2013338"><ele>282.25</ele><time>2026-05-01T13:33:44.025Z</time></trkpt><trkpt lat="42.2307489" lon="14.2011758"><ele>282.0</ele><time>2026-05-01T13:33:45.024Z</time></trkpt><trkpt lat="42.2308266" lon="14.2010182"><ele>282.0</ele><time>2026-05-01T13:33:46.024Z</time></trkpt><trkpt lat="42.2308964" lon="14.2008557"><ele>282.0</ele><time>2026-05-01T13:33:47.025Z</time></trkpt><trkpt lat="42.2309815" lon="14.2006979"><ele>282.0</ele><time>2026-05-01T13:33:48.025Z</time></trkpt><trkpt lat="42.2311005" lon="14.2005716"><ele>282.0</ele><time>2026-05-01T13:33:49.025Z</time></trkpt><trkpt lat="42.231226" lon="14.2004336"><ele>281.0</ele><time>2026-05-01T13:33:50.025Z</time></trkpt><trkpt lat="42.2313481" lon="14.2002731"><ele>280.0</ele><time>2026-05-01T13:33:51.025Z</time></trkpt><trkpt lat="42.2314784" lon="14.2000962"><ele>279.0</ele><time>2026-05-01T13:33:52.025Z</time></trkpt><trkpt lat="42.231607" lon="14.1999218"><ele>278.25</ele><time>2026-05-01T13:33:53.024Z</time></trkpt><trkpt lat="42.2317212" lon="14.1997632"><ele>277.5</ele><time>2026-05-01T13:33:54.024Z</time></trkpt><trkpt lat="42.2318204" lon="14.1996573"><ele>276.75</ele><time>2026-05-01T13:33:55.025Z</time></trkpt><trkpt lat="42.2319119" lon="14.1995783"><ele>276.0</ele><time>2026-05-01T13:33:56.025Z</time></trkpt><trkpt lat="42.2319836" lon="14.199554"><ele>276.0</ele><time>2026-05-01T13:33:57.024Z</time></trkpt><trkpt lat="42.232003" lon="14.1994316"><ele>276.0</ele><time>2026-05-01T13:33:59.025Z</time></trkpt><trkpt lat="42.2320488" lon="14.1993372"><ele>276.0</ele><time>2026-05-01T13:34:00.024Z</time></trkpt><trkpt lat="42.2321258" lon="14.1991736"><ele>276.0</ele><time>2026-05-01T13:34:01.025Z</time></trkpt><trkpt lat="42.2322193" lon="14.1990271"><ele>275.0</ele><time>2026-05-01T13:34:02.024Z</time></trkpt><trkpt lat="42.2323221" lon="14.1988671"><ele>274.0</ele><time>2026-05-01T13:34:03.025Z</time></trkpt><trkpt lat="42.2324063" lon="14.1987284"><ele>273.0</ele><time>2026-05-01T13:34:04.025Z</time></trkpt><trkpt lat="42.2325033" lon="14.1985885"><ele>272.0</ele><time>2026-05-01T13:34:05.025Z</time></trkpt><trkpt lat="42.2325979" lon="14.1984554"><ele>272.0</ele><time>2026-05-01T13:34:06.025Z</time></trkpt><trkpt lat="42.2326867" lon="14.1983249"><ele>272.0</ele><time>2026-05-01T13:34:07.025Z</time></trkpt><trkpt lat="42.2327695" lon="14.1981942"><ele>272.0</ele><time>2026-05-01T13:34:08.025Z</time></trkpt><trkpt lat="42.2328132" lon="14.1981217"><ele>272.0</ele><time>2026-05-01T13:34:09.025Z</time></trkpt><trkpt lat="42.2328483" lon="14.1979643"><ele>271.0</ele><time>2026-05-01T13:34:11.025Z</time></trkpt><trkpt lat="42.2328678" lon="14.1978444"><ele>270.0</ele><time>2026-05-01T13:34:13.025Z</time></trkpt><trkpt lat="42.2329055" lon="14.1977652"><ele>269.0</ele><time>2026-05-01T13:34:54.024Z</time></trkpt><trkpt lat="42.2330245" lon="14.1977563"><ele>268.0</ele><time>2026-05-01T13:34:57.025Z</time></trkpt><trkpt lat="42.2331235" lon="14.1977546"><ele>267.0</ele><time>2026-05-01T13:34:59.025Z</time></trkpt><trkpt lat="42.2332014" lon="14.1977117"><ele>267.0</ele><time>2026-05-01T13:35:01.025Z</time></trkpt><trkpt lat="42.2332836" lon="14.1976322"><ele>267.0</ele><time>2026-05-01T13:35:03.025Z</time></trkpt><trkpt lat="42.2333834" lon="14.1975496"><ele>267.0</ele><time>2026-05-01T13:35:05.025Z</time></trkpt><trkpt lat="42.2334515" lon="14.1975168"><ele>267.0</ele><time>2026-05-01T13:35:06.025Z</time></trkpt><trkpt lat="42.2335174" lon="14.1974759"><ele>267.0</ele><time>2026-05-01T13:35:07.025Z</time></trkpt><trkpt lat="42.2335747" lon="14.1974216"><ele>267.0</ele><time>2026-05-01T13:35:08.025Z</time></trkpt><trkpt lat="42.2336304" lon="14.1973571"><ele>267.0</ele><time>2026-05-01T13:35:09.025Z</time></trkpt><trkpt lat="42.2336659" lon="14.1972546"><ele>267.0</ele><time>2026-05-01T13:35:10.025Z</time></trkpt><trkpt lat="42.2337004" lon="14.1971579"><ele>267.0</ele><time>2026-05-01T13:35:11.025Z</time></trkpt><trkpt lat="42.233736" lon="14.1970612"><ele>267.0</ele><time>2026-05-01T13:35:12.024Z</time></trkpt><trkpt lat="42.233778" lon="14.1969699"><ele>267.0</ele><time>2026-05-01T13:35:13.025Z</time></trkpt><trkpt lat="42.2338248" lon="14.1968739"><ele>267.0</ele><time>2026-05-01T13:35:14.025Z</time></trkpt><trkpt lat="42.2338717" lon="14.1967792"><ele>267.0</ele><time>2026-05-01T13:35:15.025Z</time></trkpt><trkpt lat="42.2339156" lon="14.1966844"><ele>267.0</ele><time>2026-05-01T13:35:16.025Z</time></trkpt><trkpt lat="42.2339531" lon="14.1965728"><ele>267.0</ele><time>2026-05-01T13:35:17.025Z</time></trkpt><trkpt lat="42.2339876" lon="14.1964627"><ele>267.0</ele><time>2026-05-01T13:35:18.025Z</time></trkpt><trkpt lat="42.2340317" lon="14.1963417"><ele>267.0</ele><time>2026-05-01T13:35:19.025Z</time></trkpt><trkpt lat="42.234082" lon="14.1962311"><ele>266.8</ele><time>2026-05-01T13:35:20.025Z</time></trkpt><trkpt lat="42.2341368" lon="14.1961104"><ele>266.6</ele><time>2026-05-01T13:35:21.024Z</time></trkpt><trkpt lat="42.2341915" lon="14.1959927"><ele>266.40000000000003</ele><time>2026-05-01T13:35:22.025Z</time></trkpt><trkpt lat="42.2342519" lon="14.195878"><ele>266.2</ele><time>2026-05-01T13:35:23.025Z</time></trkpt><trkpt lat="42.2343179" lon="14.1957699"><ele>266.0</ele><time>2026-05-01T13:35:24.025Z</time></trkpt><trkpt lat="42.2343844" lon="14.1956575"><ele>266.6</ele><time>2026-05-01T13:35:25.025Z</time></trkpt><trkpt lat="42.2344561" lon="14.1955532"><ele>267.20000000000005</ele><time>2026-05-01T13:35:26.024Z</time></trkpt><trkpt lat="42.23454" lon="14.1954625"><ele>267.79999999999995</ele><time>2026-05-01T13:35:27.025Z</time></trkpt><trkpt lat="42.2346087" lon="14.1953823"><ele>268.4</ele><time>2026-05-01T13:35:28.025Z</time></trkpt><trkpt lat="42.2346598" lon="14.1952972"><ele>269.0</ele><time>2026-05-01T13:35:29.025Z</time></trkpt><trkpt lat="42.2347227" lon="14.1952309"><ele>269.0</ele><time>2026-05-01T13:35:30.025Z</time></trkpt><trkpt lat="42.2347937" lon="14.1951581"><ele>269.0</ele><time>2026-05-01T13:35:31.025Z</time></trkpt><trkpt lat="42.2348673" lon="14.1950859"><ele>269.0</ele><time>2026-05-01T13:35:32.025Z</time></trkpt><trkpt lat="42.2349571" lon="14.1950151"><ele>269.0</ele><time>2026-05-01T13:35:33.025Z</time></trkpt><trkpt lat="42.23504" lon="14.1949268"><ele>269.0</ele><time>2026-05-01T13:35:34.025Z</time></trkpt><trkpt lat="42.2351272" lon="14.194828"><ele>268.2</ele><time>2026-05-01T13:35:35.025Z</time></trkpt><trkpt lat="42.2352229" lon="14.1947365"><ele>267.4</ele><time>2026-05-01T13:35:36.025Z</time></trkpt><trkpt lat="42.2353255" lon="14.1946544"><ele>266.6</ele><time>2026-05-01T13:35:37.025Z</time></trkpt><trkpt lat="42.2353882" lon="14.1945818"><ele>265.8</ele><time>2026-05-01T13:35:38.025Z</time></trkpt><trkpt lat="42.2354512" lon="14.1945242"><ele>265.0</ele><time>2026-05-01T13:35:39.025Z</time></trkpt><trkpt lat="42.2355106" lon="14.1944779"><ele>265.0</ele><time>2026-05-01T13:35:40.025Z</time></trkpt><trkpt lat="42.2355734" lon="14.1944319"><ele>265.0</ele><time>2026-05-01T13:35:41.025Z</time></trkpt><trkpt lat="42.2356441" lon="14.1943886"><ele>265.0</ele><time>2026-05-01T13:35:42.025Z</time></trkpt><trkpt lat="42.2357419" lon="14.1943377"><ele>265.0</ele><time>2026-05-01T13:35:43.025Z</time></trkpt><trkpt lat="42.2358274" lon="14.1942976"><ele>265.0</ele><time>2026-05-01T13:35:44.025Z</time></trkpt><trkpt lat="42.2358945" lon="14.1942506"><ele>265.0</ele><time>2026-05-01T13:35:45.025Z</time></trkpt><trkpt lat="42.2359521" lon="14.1941555"><ele>265.0</ele><time>2026-05-01T13:35:46.025Z</time></trkpt><trkpt lat="42.2360193" lon="14.1940357"><ele>265.0</ele><time>2026-05-01T13:35:47.025Z</time></trkpt><trkpt lat="42.2360792" lon="14.1939028"><ele>265.0</ele><time>2026-05-01T13:35:48.025Z</time></trkpt><trkpt lat="42.2361334" lon="14.1937534"><ele>265.0</ele><time>2026-05-01T13:35:49.025Z</time></trkpt><trkpt lat="42.236184" lon="14.193594"><ele>264.25</ele><time>2026-05-01T13:35:50.025Z</time></trkpt><trkpt lat="42.2362291" lon="14.1934464"><ele>263.5</ele><time>2026-05-01T13:35:51.025Z</time></trkpt><trkpt lat="42.2362691" lon="14.1932917"><ele>262.75</ele><time>2026-05-01T13:35:52.025Z</time></trkpt><trkpt lat="42.2363085" lon="14.1931423"><ele>262.0</ele><time>2026-05-01T13:35:53.025Z</time></trkpt><trkpt lat="42.2363463" lon="14.193015"><ele>262.25</ele><time>2026-05-01T13:35:54.025Z</time></trkpt><trkpt lat="42.2363756" lon="14.1928518"><ele>262.5</ele><time>2026-05-01T13:35:55.024Z</time></trkpt><trkpt lat="42.2364289" lon="14.1927115"><ele>262.75</ele><time>2026-05-01T13:35:56.025Z</time></trkpt><trkpt lat="42.2364824" lon="14.1925562"><ele>263.0</ele><time>2026-05-01T13:35:57.025Z</time></trkpt><trkpt lat="42.2365252" lon="14.1923988"><ele>261.8</ele><time>2026-05-01T13:35:58.025Z</time></trkpt><trkpt lat="42.2365809" lon="14.1922196"><ele>260.6</ele><time>2026-05-01T13:35:59.025Z</time></trkpt><trkpt lat="42.2366275" lon="14.192077"><ele>259.4</ele><time>2026-05-01T13:36:00.025Z</time></trkpt><trkpt lat="42.2366694" lon="14.1919529"><ele>258.2</ele><time>2026-05-01T13:36:01.025Z</time></trkpt><trkpt lat="42.2367085" lon="14.19185"><ele>257.0</ele><time>2026-05-01T13:36:02.024Z</time></trkpt><trkpt lat="42.2367576" lon="14.1917391"><ele>257.0</ele><time>2026-05-01T13:36:03.025Z</time></trkpt><trkpt lat="42.2368171" lon="14.1916326"><ele>257.0</ele><time>2026-05-01T13:36:04.025Z</time></trkpt><trkpt lat="42.2368799" lon="14.1915302"><ele>257.0</ele><time>2026-05-01T13:36:05.025Z</time></trkpt><trkpt lat="42.2369465" lon="14.1914329"><ele>257.0</ele><time>2026-05-01T13:36:06.025Z</time></trkpt><trkpt lat="42.237018" lon="14.1913438"><ele>257.0</ele><time>2026-05-01T13:36:07.025Z</time></trkpt><trkpt lat="42.2370807" lon="14.1912571"><ele>255.75</ele><time>2026-05-01T13:36:08.025Z</time></trkpt><trkpt lat="42.2371234" lon="14.1911456"><ele>254.5</ele><time>2026-05-01T13:36:09.025Z</time></trkpt><trkpt lat="42.2371703" lon="14.1909818"><ele>253.25</ele><time>2026-05-01T13:36:10.025Z</time></trkpt><trkpt lat="42.2372208" lon="14.190829"><ele>252.0</ele><time>2026-05-01T13:36:11.025Z</time></trkpt><trkpt lat="42.2372817" lon="14.1906846"><ele>252.2</ele><time>2026-05-01T13:36:12.025Z</time></trkpt><trkpt lat="42.2373315" lon="14.1905606"><ele>252.39999999999998</ele><time>2026-05-01T13:36:13.025Z</time></trkpt><trkpt lat="42.2373795" lon="14.190472"><ele>252.60000000000002</ele><time>2026-05-01T13:36:14.024Z</time></trkpt><trkpt lat="42.2374481" lon="14.1903661"><ele>252.8</ele><time>2026-05-01T13:36:15.025Z</time></trkpt><trkpt lat="42.2375309" lon="14.1902703"><ele>253.0</ele><time>2026-05-01T13:36:16.025Z</time></trkpt><trkpt lat="42.2376153" lon="14.1901873"><ele>253.0</ele><time>2026-05-01T13:36:17.024Z</time></trkpt><trkpt lat="42.2376976" lon="14.1900636"><ele>253.0</ele><time>2026-05-01T13:36:18.025Z</time></trkpt><trkpt lat="42.2377722" lon="14.1899293"><ele>253.0</ele><time>2026-05-01T13:36:19.025Z</time></trkpt><trkpt lat="42.2378432" lon="14.189793"><ele>253.0</ele><time>2026-05-01T13:36:20.025Z</time></trkpt><trkpt lat="42.2378825" lon="14.1896346"><ele>251.75</ele><time>2026-05-01T13:36:21.025Z</time></trkpt><trkpt lat="42.2379163" lon="14.1894584"><ele>250.5</ele><time>2026-05-01T13:36:22.025Z</time></trkpt><trkpt lat="42.2379364" lon="14.189275"><ele>249.25</ele><time>2026-05-01T13:36:23.025Z</time></trkpt><trkpt lat="42.2379529" lon="14.1891111"><ele>248.0</ele><time>2026-05-01T13:36:24.025Z</time></trkpt><trkpt lat="42.2379493" lon="14.188959"><ele>247.4</ele><time>2026-05-01T13:36:25.025Z</time></trkpt><trkpt lat="42.2379444" lon="14.1887993"><ele>246.8</ele><time>2026-05-01T13:36:26.025Z</time></trkpt><trkpt lat="42.2379434" lon="14.1886656"><ele>246.2</ele><time>2026-05-01T13:36:27.024Z</time></trkpt><trkpt lat="42.2379724" lon="14.1885242"><ele>245.6</ele><time>2026-05-01T13:36:28.025Z</time></trkpt><trkpt lat="42.2380262" lon="14.1884021"><ele>245.0</ele><time>2026-05-01T13:36:29.024Z</time></trkpt><trkpt lat="42.2380904" lon="14.1882932"><ele>244.6</ele><time>2026-05-01T13:36:30.024Z</time></trkpt><trkpt lat="42.2381609" lon="14.1881948"><ele>244.2</ele><time>2026-05-01T13:36:31.025Z</time></trkpt><trkpt lat="42.2382297" lon="14.1881087"><ele>243.8</ele><time>2026-05-01T13:36:32.025Z</time></trkpt><trkpt lat="42.2382844" lon="14.1880267"><ele>243.4</ele><time>2026-05-01T13:36:33.025Z</time></trkpt><trkpt lat="42.2383609" lon="14.1878831"><ele>243.0</ele><time>2026-05-01T13:36:35.025Z</time></trkpt><trkpt lat="42.2383414" lon="14.1877883"><ele>243.0</ele><time>2026-05-01T13:36:36.025Z</time></trkpt><trkpt lat="42.2383434" lon="14.1876897"><ele>243.0</ele><time>2026-05-01T13:36:37.025Z</time></trkpt><trkpt lat="42.2383512" lon="14.187584"><ele>243.0</ele><time>2026-05-01T13:36:38.025Z</time></trkpt><trkpt lat="42.2383754" lon="14.187443"><ele>243.0</ele><time>2026-05-01T13:36:40.025Z</time></trkpt><trkpt lat="42.238455" lon="14.1873593"><ele>243.0</ele><time>2026-05-01T13:36:42.025Z</time></trkpt><trkpt lat="42.2385901" lon="14.1873091"><ele>244.0</ele><time>2026-05-01T13:36:44.024Z</time></trkpt><trkpt lat="42.2386763" lon="14.1872878"><ele>245.0</ele><time>2026-05-01T13:36:45.025Z</time></trkpt><trkpt lat="42.2387539" lon="14.1872709"><ele>246.0</ele><time>2026-05-01T13:36:46.025Z</time></trkpt><trkpt lat="42.2388743" lon="14.1872158"><ele>247.0</ele><time>2026-05-01T13:36:48.025Z</time></trkpt><trkpt lat="42.2389979" lon="14.1870482"><ele>247.5</ele><time>2026-05-01T13:36:50.025Z</time></trkpt><trkpt lat="42.2390599" lon="14.1869157"><ele>248.0</ele><time>2026-05-01T13:36:51.024Z</time></trkpt><trkpt lat="42.2391322" lon="14.186766"><ele>248.5</ele><time>2026-05-01T13:36:52.025Z</time></trkpt><trkpt lat="42.2391929" lon="14.186613"><ele>249.0</ele><time>2026-05-01T13:36:53.025Z</time></trkpt><trkpt lat="42.2392523" lon="14.1864855"><ele>250.2</ele><time>2026-05-01T13:36:54.025Z</time></trkpt><trkpt lat="42.2393058" lon="14.1863699"><ele>251.39999999999998</ele><time>2026-05-01T13:36:55.025Z</time></trkpt><trkpt lat="42.2393491" lon="14.1862702"><ele>252.6</ele><time>2026-05-01T13:36:56.024Z</time></trkpt><trkpt lat="42.2394075" lon="14.1861852"><ele>253.8</ele><time>2026-05-01T13:36:57.025Z</time></trkpt><trkpt lat="42.2395152" lon="14.1861221"><ele>255.0</ele><time>2026-05-01T13:36:59.025Z</time></trkpt><trkpt lat="42.2395936" lon="14.1860479"><ele>255.0</ele><time>2026-05-01T13:37:00.025Z</time></trkpt><trkpt lat="42.2396732" lon="14.185945"><ele>255.0</ele><time>2026-05-01T13:37:01.025Z</time></trkpt><trkpt lat="42.2397552" lon="14.1858259"><ele>255.0</ele><time>2026-05-01T13:37:02.024Z</time></trkpt><trkpt lat="42.2398201" lon="14.1857096"><ele>255.0</ele><time>2026-05-01T13:37:03.025Z</time></trkpt><trkpt lat="42.2398736" lon="14.1856078"><ele>255.0</ele><time>2026-05-01T13:37:04.025Z</time></trkpt><trkpt lat="42.2399052" lon="14.185524"><ele>254.6</ele><time>2026-05-01T13:37:05.025Z</time></trkpt><trkpt lat="42.2399542" lon="14.1853985"><ele>254.2</ele><time>2026-05-01T13:37:07.025Z</time></trkpt><trkpt lat="42.2400403" lon="14.1852643"><ele>253.8</ele><time>2026-05-01T13:37:09.025Z</time></trkpt><trkpt lat="42.2401167" lon="14.1852036"><ele>253.4</ele><time>2026-05-01T13:37:10.025Z</time></trkpt><trkpt lat="42.2401967" lon="14.1851183"><ele>253.0</ele><time>2026-05-01T13:37:11.025Z</time></trkpt><trkpt lat="42.2402758" lon="14.1850212"><ele>252.99999999999997</ele><time>2026-05-01T13:37:12.025Z</time></trkpt><trkpt lat="42.2403402" lon="14.1849409"><ele>253.0</ele><time>2026-05-01T13:37:13.025Z</time></trkpt><trkpt lat="42.2404031" lon="14.1848597"><ele>253.0</ele><time>2026-05-01T13:37:14.024Z</time></trkpt><trkpt lat="42.2404584" lon="14.1847986"><ele>253.0</ele><time>2026-05-01T13:37:15.024Z</time></trkpt><trkpt lat="42.2405607" lon="14.184725"><ele>252.99999999999997</ele><time>2026-05-01T13:37:17.025Z</time></trkpt><trkpt lat="42.2406211" lon="14.1846908"><ele>253.0</ele><time>2026-05-01T13:37:19.025Z</time></trkpt><trkpt lat="42.2406959" lon="14.1847316"><ele>253.0</ele><time>2026-05-01T13:37:33.025Z</time></trkpt><trkpt lat="42.2407993" lon="14.1848152"><ele>253.0</ele><time>2026-05-01T13:37:35.025Z</time></trkpt><trkpt lat="42.2408672" lon="14.1848639"><ele>253.0</ele><time>2026-05-01T13:37:36.025Z</time></trkpt><trkpt lat="42.2409485" lon="14.1849109"><ele>253.0</ele><time>2026-05-01T13:37:37.025Z</time></trkpt><trkpt lat="42.241031" lon="14.1849657"><ele>253.0</ele><time>2026-05-01T13:37:38.025Z</time></trkpt><trkpt lat="42.241118" lon="14.1850192"><ele>252.33333333333331</ele><time>2026-05-01T13:37:39.025Z</time></trkpt><trkpt lat="42.2412032" lon="14.1850681"><ele>251.66666666666666</ele><time>2026-05-01T13:37:40.024Z</time></trkpt><trkpt lat="42.2412851" lon="14.1851197"><ele>251.0</ele><time>2026-05-01T13:37:41.025Z</time></trkpt><trkpt lat="42.2413673" lon="14.1851648"><ele>250.33333333333331</ele><time>2026-05-01T13:37:42.025Z</time></trkpt><trkpt lat="42.2414456" lon="14.1851853"><ele>249.66666666666666</ele><time>2026-05-01T13:37:43.025Z</time></trkpt><trkpt lat="42.2415251" lon="14.1851714"><ele>249.0</ele><time>2026-05-01T13:37:44.025Z</time></trkpt><trkpt lat="42.2416115" lon="14.1851449"><ele>248.39999999999998</ele><time>2026-05-01T13:37:45.025Z</time></trkpt><trkpt lat="42.2416795" lon="14.18504"><ele>247.79999999999998</ele><time>2026-05-01T13:37:46.025Z</time></trkpt><trkpt lat="42.2417618" lon="14.1849531"><ele>247.20000000000002</ele><time>2026-05-01T13:37:47.025Z</time></trkpt><trkpt lat="42.2418425" lon="14.1848624"><ele>246.60000000000002</ele><time>2026-05-01T13:37:48.025Z</time></trkpt><trkpt lat="42.2419149" lon="14.1847706"><ele>246.0</ele><time>2026-05-01T13:37:49.025Z</time></trkpt><trkpt lat="42.2419814" lon="14.1846683"><ele>246.0</ele><time>2026-05-01T13:37:50.025Z</time></trkpt><trkpt lat="42.2420241" lon="14.1845189"><ele>246.00000000000003</ele><time>2026-05-01T13:37:51.025Z</time></trkpt><trkpt lat="42.2420313" lon="14.1843688"><ele>246.00000000000003</ele><time>2026-05-01T13:37:52.025Z</time></trkpt><trkpt lat="42.2420335" lon="14.1842336"><ele>246.0</ele><time>2026-05-01T13:37:53.025Z</time></trkpt><trkpt lat="42.2420405" lon="14.1841033"><ele>246.0</ele><time>2026-05-01T13:37:54.025Z</time></trkpt><trkpt lat="42.2420779" lon="14.1839962"><ele>246.0</ele><time>2026-05-01T13:37:55.025Z</time></trkpt><trkpt lat="42.2421158" lon="14.1838774"><ele>246.00000000000003</ele><time>2026-05-01T13:37:56.025Z</time></trkpt><trkpt lat="42.2421765" lon="14.183761"><ele>246.00000000000003</ele><time>2026-05-01T13:37:57.025Z</time></trkpt><trkpt lat="42.2422379" lon="14.1836372"><ele>246.0</ele><time>2026-05-01T13:37:58.025Z</time></trkpt><trkpt lat="42.2423029" lon="14.1835202"><ele>246.0</ele><time>2026-05-01T13:37:59.025Z</time></trkpt><trkpt lat="42.242388" lon="14.1834101"><ele>246.20000000000002</ele><time>2026-05-01T13:38:00.025Z</time></trkpt><trkpt lat="42.2424718" lon="14.1833445"><ele>246.40000000000003</ele><time>2026-05-01T13:38:01.025Z</time></trkpt><trkpt lat="42.2425754" lon="14.1833169"><ele>246.6</ele><time>2026-05-01T13:38:02.025Z</time></trkpt><trkpt lat="42.2426891" lon="14.18331"><ele>246.8</ele><time>2026-05-01T13:38:03.025Z</time></trkpt><trkpt lat="42.2428085" lon="14.1833396"><ele>247.0</ele><time>2026-05-01T13:38:04.025Z</time></trkpt><trkpt lat="42.2429116" lon="14.1833622"><ele>246.99999999999997</ele><time>2026-05-01T13:38:05.025Z</time></trkpt><trkpt lat="42.2430036" lon="14.1833859"><ele>247.0</ele><time>2026-05-01T13:38:06.025Z</time></trkpt><trkpt lat="42.2431022" lon="14.1834075"><ele>247.0</ele><time>2026-05-01T13:38:07.025Z</time></trkpt><trkpt lat="42.2431726" lon="14.1834207"><ele>247.0</ele><time>2026-05-01T13:38:08.025Z</time></trkpt><trkpt lat="42.2432387" lon="14.1834341"><ele>246.99999999999997</ele><time>2026-05-01T13:38:09.024Z</time></trkpt><trkpt lat="42.2433023" lon="14.1833464"><ele>247.0</ele><time>2026-05-01T13:38:11.025Z</time></trkpt><trkpt lat="42.2433279" lon="14.183267"><ele>247.0</ele><time>2026-05-01T13:38:13.024Z</time></trkpt><trkpt lat="42.243283" lon="14.1831575"><ele>247.0</ele><time>2026-05-01T13:38:16.025Z</time></trkpt><trkpt lat="42.2431876" lon="14.1830781"><ele>247.0</ele><time>2026-05-01T13:38:18.025Z</time></trkpt><trkpt lat="42.2431089" lon="14.1830445"><ele>247.0</ele><time>2026-05-01T13:38:19.025Z</time></trkpt><trkpt lat="42.2430278" lon="14.1829954"><ele>247.0</ele><time>2026-05-01T13:38:20.025Z</time></trkpt><trkpt lat="42.2429322" lon="14.1829475"><ele>247.5</ele><time>2026-05-01T13:38:21.025Z</time></trkpt><trkpt lat="42.2428242" lon="14.1828975"><ele>248.0</ele><time>2026-05-01T13:38:22.024Z</time></trkpt><trkpt lat="42.2427092" lon="14.1828393"><ele>248.5</ele><time>2026-05-01T13:38:23.025Z</time></trkpt><trkpt lat="42.2425969" lon="14.1827471"><ele>249.0</ele><time>2026-05-01T13:38:24.024Z</time></trkpt><trkpt lat="42.2424917" lon="14.1826362"><ele>249.0</ele><time>2026-05-01T13:38:25.025Z</time></trkpt><trkpt lat="42.2424109" lon="14.1825288"><ele>248.99999999999997</ele><time>2026-05-01T13:38:26.025Z</time></trkpt><trkpt lat="42.2423346" lon="14.1824382"><ele>248.99999999999997</ele><time>2026-05-01T13:38:28.025Z</time></trkpt><trkpt lat="42.24235" lon="14.1823287"><ele>249.0</ele><time>2026-05-01T13:38:31.025Z</time></trkpt><trkpt lat="42.2424647" lon="14.1822828"><ele>249.0</ele><time>2026-05-01T13:38:33.025Z</time></trkpt><trkpt lat="42.2426045" lon="14.1822457"><ele>249.33333333333334</ele><time>2026-05-01T13:38:35.025Z</time></trkpt><trkpt lat="42.2426834" lon="14.1822052"><ele>249.66666666666669</ele><time>2026-05-01T13:38:36.025Z</time></trkpt><trkpt lat="42.242774" lon="14.182158"><ele>250.0</ele><time>2026-05-01T13:38:37.025Z</time></trkpt><trkpt lat="42.2428453" lon="14.1821001"><ele>250.33333333333334</ele><time>2026-05-01T13:38:38.025Z</time></trkpt><trkpt lat="42.2429191" lon="14.1820572"><ele>250.66666666666669</ele><time>2026-05-01T13:38:39.025Z</time></trkpt><trkpt lat="42.2429796" lon="14.1820065"><ele>251.0</ele><time>2026-05-01T13:38:40.025Z</time></trkpt><trkpt lat="42.2430654" lon="14.1819605"><ele>249.75</ele><time>2026-05-01T13:38:41.025Z</time></trkpt><trkpt lat="42.243162" lon="14.1819163"><ele>248.5</ele><time>2026-05-01T13:38:42.025Z</time></trkpt><trkpt lat="42.243264" lon="14.1818606"><ele>247.25</ele><time>2026-05-01T13:38:43.025Z</time></trkpt><trkpt lat="42.243371" lon="14.1818055"><ele>246.0</ele><time>2026-05-01T13:38:44.025Z</time></trkpt><trkpt lat="42.2434905" lon="14.1817323"><ele>246.0</ele><time>2026-05-01T13:38:45.025Z</time></trkpt><trkpt lat="42.2436118" lon="14.1816626"><ele>246.0</ele><time>2026-05-01T13:38:46.024Z</time></trkpt><trkpt lat="42.2437391" lon="14.1815924"><ele>246.0</ele><time>2026-05-01T13:38:47.024Z</time></trkpt><trkpt lat="42.2438697" lon="14.1815238"><ele>246.0</ele><time>2026-05-01T13:38:48.025Z</time></trkpt><trkpt lat="42.2439931" lon="14.1814576"><ele>244.75</ele><time>2026-05-01T13:38:49.024Z</time></trkpt><trkpt lat="42.2441073" lon="14.1813938"><ele>243.5</ele><time>2026-05-01T13:38:50.025Z</time></trkpt><trkpt lat="42.2442188" lon="14.1813294"><ele>242.25</ele><time>2026-05-01T13:38:51.025Z</time></trkpt><trkpt lat="42.2443361" lon="14.1812582"><ele>241.0</ele><time>2026-05-01T13:38:52.025Z</time></trkpt><trkpt lat="42.2444531" lon="14.1811804"><ele>241.0</ele><time>2026-05-01T13:38:53.025Z</time></trkpt><trkpt lat="42.244562" lon="14.1811095"><ele>241.00000000000003</ele><time>2026-05-01T13:38:54.025Z</time></trkpt><trkpt lat="42.2446553" lon="14.1810559"><ele>241.00000000000003</ele><time>2026-05-01T13:38:55.025Z</time></trkpt><trkpt lat="42.2447498" lon="14.1810258"><ele>241.0</ele><time>2026-05-01T13:38:56.025Z</time></trkpt><trkpt lat="42.2448099" lon="14.1810575"><ele>241.0</ele><time>2026-05-01T13:38:57.025Z</time></trkpt><trkpt lat="42.2448813" lon="14.1810626"><ele>240.4</ele><time>2026-05-01T13:38:58.025Z</time></trkpt><trkpt lat="42.2449532" lon="14.1810867"><ele>239.8</ele><time>2026-05-01T13:38:59.025Z</time></trkpt><trkpt lat="42.2450234" lon="14.1811249"><ele>239.20000000000002</ele><time>2026-05-01T13:39:00.025Z</time></trkpt><trkpt lat="42.2451023" lon="14.1811801"><ele>238.60000000000002</ele><time>2026-05-01T13:39:01.025Z</time></trkpt><trkpt lat="42.2451879" lon="14.1812498"><ele>238.0</ele><time>2026-05-01T13:39:02.024Z</time></trkpt><trkpt lat="42.2452811" lon="14.1813323"><ele>238.0</ele><time>2026-05-01T13:39:03.025Z</time></trkpt><trkpt lat="42.2453937" lon="14.1814142"><ele>238.0</ele><time>2026-05-01T13:39:04.025Z</time></trkpt><trkpt lat="42.2455077" lon="14.1814677"><ele>238.0</ele><time>2026-05-01T13:39:05.025Z</time></trkpt><trkpt lat="42.2456321" lon="14.1815164"><ele>238.0</ele><time>2026-05-01T13:39:06.025Z</time></trkpt><trkpt lat="42.2457538" lon="14.1815755"><ele>237.75</ele><time>2026-05-01T13:39:07.024Z</time></trkpt><trkpt lat="42.2458714" lon="14.1816627"><ele>237.5</ele><time>2026-05-01T13:39:08.025Z</time></trkpt><trkpt lat="42.2459724" lon="14.1817533"><ele>237.25</ele><time>2026-05-01T13:39:09.025Z</time></trkpt><trkpt lat="42.2460801" lon="14.1818359"><ele>237.0</ele><time>2026-05-01T13:39:10.025Z</time></trkpt><trkpt lat="42.2461962" lon="14.1818863"><ele>237.0</ele><time>2026-05-01T13:39:11.025Z</time></trkpt><trkpt lat="42.2463373" lon="14.181904"><ele>237.0</ele><time>2026-05-01T13:39:12.025Z</time></trkpt><trkpt lat="42.2464747" lon="14.1819026"><ele>237.0</ele><time>2026-05-01T13:39:13.025Z</time></trkpt><trkpt lat="42.2466175" lon="14.1819049"><ele>237.0</ele><time>2026-05-01T13:39:14.025Z</time></trkpt><trkpt lat="42.2467523" lon="14.1819184"><ele>235.75</ele><time>2026-05-01T13:39:15.025Z</time></trkpt><trkpt lat="42.2468794" lon="14.181951"><ele>234.5</ele><time>2026-05-01T13:39:16.025Z</time></trkpt><trkpt lat="42.2469987" lon="14.1820099"><ele>233.25</ele><time>2026-05-01T13:39:17.025Z</time></trkpt><trkpt lat="42.2471027" lon="14.1820805"><ele>232.0</ele><time>2026-05-01T13:39:18.025Z</time></trkpt><trkpt lat="42.247193" lon="14.1821615"><ele>232.0</ele><time>2026-05-01T13:39:19.024Z</time></trkpt><trkpt lat="42.247271" lon="14.1822559"><ele>232.0</ele><time>2026-05-01T13:39:20.025Z</time></trkpt><trkpt lat="42.2473378" lon="14.1823651"><ele>232.0</ele><time>2026-05-01T13:39:21.025Z</time></trkpt><trkpt lat="42.2473894" lon="14.1824771"><ele>232.0</ele><time>2026-05-01T13:39:22.025Z</time></trkpt><trkpt lat="42.2474214" lon="14.1825768"><ele>232.0</ele><time>2026-05-01T13:39:23.025Z</time></trkpt><trkpt lat="42.2474421" lon="14.18267"><ele>231.99999999999997</ele><time>2026-05-01T13:39:24.025Z</time></trkpt><trkpt lat="42.2474774" lon="14.1827499"><ele>232.0</ele><time>2026-05-01T13:39:25.025Z</time></trkpt><trkpt lat="42.2475262" lon="14.1828329"><ele>232.0</ele><time>2026-05-01T13:39:26.025Z</time></trkpt><trkpt lat="42.2476159" lon="14.1829001"><ele>232.0</ele><time>2026-05-01T13:39:27.025Z</time></trkpt><trkpt lat="42.2476898" lon="14.1829686"><ele>231.99999999999997</ele><time>2026-05-01T13:39:28.025Z</time></trkpt><trkpt lat="42.2477616" lon="14.1830184"><ele>232.0</ele><time>2026-05-01T13:39:29.024Z</time></trkpt><trkpt lat="42.2478419" lon="14.1830826"><ele>232.0</ele><time>2026-05-01T13:39:30.025Z</time></trkpt><trkpt lat="42.2479153" lon="14.1831698"><ele>232.0</ele><time>2026-05-01T13:39:31.025Z</time></trkpt><trkpt lat="42.2479757" lon="14.1832759"><ele>232.0</ele><time>2026-05-01T13:39:32.025Z</time></trkpt><trkpt lat="42.2480221" lon="14.1833828"><ele>232.0</ele><time>2026-05-01T13:39:33.025Z</time></trkpt><trkpt lat="42.2480525" lon="14.1834933"><ele>232.0</ele><time>2026-05-01T13:39:34.025Z</time></trkpt><trkpt lat="42.2480701" lon="14.1835927"><ele>232.33333333333331</ele><time>2026-05-01T13:39:35.025Z</time></trkpt><trkpt lat="42.2480825" lon="14.1837407"><ele>232.66666666666666</ele><time>2026-05-01T13:39:37.025Z</time></trkpt><trkpt lat="42.2480704" lon="14.183848"><ele>233.0</ele><time>2026-05-01T13:39:39.025Z</time></trkpt><trkpt lat="42.2480482" lon="14.1839575"><ele>233.33333333333331</ele><time>2026-05-01T13:39:42.025Z</time></trkpt><trkpt lat="42.2480111" lon="14.1840266"><ele>233.66666666666666</ele><time>2026-05-01T13:39:46.025Z</time></trkpt><trkpt lat="42.2479959" lon="14.1841116"><ele>234.0</ele><time>2026-05-01T13:39:51.024Z</time></trkpt><trkpt lat="42.2479607" lon="14.1842165"><ele>233.0</ele><time>2026-05-01T13:39:53.025Z</time></trkpt><trkpt lat="42.247906" lon="14.1842975"><ele>232.0</ele><time>2026-05-01T13:39:56.025Z</time></trkpt><trkpt lat="42.2478446" lon="14.1843395"><ele>231.0</ele><time>2026-05-01T13:39:59.025Z</time></trkpt><trkpt lat="42.2477834" lon="14.1843854"><ele>230.0</ele><time>2026-05-01T13:40:01.025Z</time></trkpt><trkpt lat="42.2478051" lon="14.1844721"><ele>229.0</ele><time>2026-05-01T13:40:05.024Z</time></trkpt><trkpt lat="42.2478709" lon="14.1843914"><ele>228.0</ele><time>2026-05-01T13:40:08.025Z</time></trkpt><trkpt lat="42.2479264" lon="14.1843075"><ele>228.0</ele><time>2026-05-01T13:40:10.024Z</time></trkpt><trkpt lat="42.2479925" lon="14.1842367"><ele>228.0</ele><time>2026-05-01T13:40:12.025Z</time></trkpt><trkpt lat="42.2480025" lon="14.1841388"><ele>228.0</ele><time>2026-05-01T13:40:14.025Z</time></trkpt><trkpt lat="42.2479386" lon="14.1840919"><ele>228.0</ele><time>2026-05-01T13:40:16.025Z</time></trkpt><trkpt lat="42.2478551" lon="14.184154"><ele>228.0</ele><time>2026-05-01T13:40:18.025Z</time></trkpt><trkpt lat="42.2477648" lon="14.1841857"><ele>228.0</ele><time>2026-05-01T13:40:20.025Z</time></trkpt><trkpt lat="42.2476728" lon="14.1841845"><ele>228.0</ele><time>2026-05-01T13:40:22.025Z</time></trkpt><trkpt lat="42.2476074" lon="14.1840841"><ele>228.0</ele><time>2026-05-01T13:40:24.025Z</time></trkpt><trkpt lat="42.2475276" lon="14.1839703"><ele>228.0</ele><time>2026-05-01T13:40:26.025Z</time></trkpt><trkpt lat="42.2474619" lon="14.1838977"><ele>228.0</ele><time>2026-05-01T13:40:28.025Z</time></trkpt><trkpt lat="42.2474082" lon="14.1838254"><ele>228.0</ele><time>2026-05-01T13:40:31.025Z</time></trkpt><trkpt lat="42.2474884" lon="14.1838987"><ele>228.0</ele><time>2026-05-01T13:41:01.025Z</time></trkpt><trkpt lat="42.2475615" lon="14.184017"><ele>228.0</ele><time>2026-05-01T13:41:03.024Z</time></trkpt><trkpt lat="42.2476357" lon="14.1841033"><ele>228.0</ele><time>2026-05-01T13:41:05.025Z</time></trkpt><trkpt lat="42.2476969" lon="14.1841665"><ele>228.0</ele><time>2026-05-01T13:41:07.025Z</time></trkpt><trkpt lat="42.2477671" lon="14.1842028"><ele>228.0</ele><time>2026-05-01T13:41:09.025Z</time></trkpt><trkpt lat="42.2478385" lon="14.1841845"><ele>228.0</ele><time>2026-05-01T13:41:11.025Z</time></trkpt><trkpt lat="42.2479072" lon="14.1841153"><ele>228.0</ele><time>2026-05-01T13:41:14.025Z</time></trkpt><trkpt lat="42.24797" lon="14.1840911"><ele>228.0</ele><time>2026-05-01T13:41:18.024Z</time></trkpt><trkpt lat="42.2480344" lon="14.1840609"><ele>228.0</ele><time>2026-05-01T13:41:22.025Z</time></trkpt><trkpt lat="42.2481074" lon="14.18399"><ele>228.0</ele><time>2026-05-01T13:41:25.025Z</time></trkpt><trkpt lat="42.2481519" lon="14.1839104"><ele>228.0</ele><time>2026-05-01T13:41:29.025Z</time></trkpt><trkpt lat="42.248087" lon="14.1838865"><ele>228.0</ele><time>2026-05-01T13:41:32.025Z</time></trkpt><trkpt lat="42.2480423" lon="14.183985"><ele>228.0</ele><time>2026-05-01T13:41:34.024Z</time></trkpt><trkpt lat="42.2479971" lon="14.1841105"><ele>228.0</ele><time>2026-05-01T13:41:36.025Z</time></trkpt><trkpt lat="42.2479341" lon="14.1842433"><ele>228.0</ele><time>2026-05-01T13:41:38.025Z</time></trkpt><trkpt lat="42.2478753" lon="14.184317"><ele>228.0</ele><time>2026-05-01T13:41:40.025Z</time></trkpt><trkpt lat="42.2478025" lon="14.1843595"><ele>228.0</ele><time>2026-05-01T13:41:44.025Z</time></trkpt><trkpt lat="42.2477298" lon="14.1843745"><ele>228.0</ele><time>2026-05-01T13:41:47.025Z</time></trkpt><trkpt lat="42.2476595" lon="14.1843783"><ele>228.0</ele><time>2026-05-01T13:41:49.024Z</time></trkpt><trkpt lat="42.24758" lon="14.1843779"><ele>228.0</ele><time>2026-05-01T13:41:51.025Z</time></trkpt><trkpt lat="42.2475021" lon="14.1843646"><ele>228.0</ele><time>2026-05-01T13:41:53.025Z</time></trkpt><trkpt lat="42.2474285" lon="14.1844037"><ele>228.0</ele><time>2026-05-01T13:41:56.025Z</time></trkpt><trkpt lat="42.2474245" lon="14.1845054"><ele>228.0</ele><time>2026-05-01T13:41:59.025Z</time></trkpt><trkpt lat="42.2474925" lon="14.1845923"><ele>228.0</ele><time>2026-05-01T13:42:09.025Z</time></trkpt><trkpt lat="42.2475588" lon="14.1846784"><ele>228.0</ele><time>2026-05-01T13:42:11.025Z</time></trkpt><trkpt lat="42.2476187" lon="14.1847867"><ele>228.0</ele><time>2026-05-01T13:42:13.025Z</time></trkpt><trkpt lat="42.2476834" lon="14.1849164"><ele>228.0</ele><time>2026-05-01T13:42:15.025Z</time></trkpt><trkpt lat="42.2477029" lon="14.1849987"><ele>228.0</ele><time>2026-05-01T13:42:16.025Z</time></trkpt><trkpt lat="42.2477165" lon="14.1850861"><ele>228.0</ele><time>2026-05-01T13:42:17.024Z</time></trkpt><trkpt lat="42.2477313" lon="14.1851829"><ele>226.83333333333334</ele><time>2026-05-01T13:42:18.024Z</time></trkpt><trkpt lat="42.247748" lon="14.1852857"><ele>225.66666666666669</ele><time>2026-05-01T13:42:19.024Z</time></trkpt><trkpt lat="42.247775" lon="14.1853886"><ele>224.5</ele><time>2026-05-01T13:42:20.025Z</time></trkpt><trkpt lat="42.24782" lon="14.1854886"><ele>223.33333333333334</ele><time>2026-05-01T13:42:21.025Z</time></trkpt><trkpt lat="42.2478687" lon="14.1855984"><ele>222.16666666666669</ele><time>2026-05-01T13:42:22.025Z</time></trkpt><trkpt lat="42.247919" lon="14.1857101"><ele>221.0</ele><time>2026-05-01T13:42:23.025Z</time></trkpt><trkpt lat="42.2479694" lon="14.1858216"><ele>221.00000000000003</ele><time>2026-05-01T13:42:24.025Z</time></trkpt><trkpt lat="42.2480208" lon="14.1859274"><ele>221.0</ele><time>2026-05-01T13:42:25.025Z</time></trkpt><trkpt lat="42.2480725" lon="14.1860262"><ele>221.0</ele><time>2026-05-01T13:42:26.024Z</time></trkpt><trkpt lat="42.248121" lon="14.1861348"><ele>221.0</ele><time>2026-05-01T13:42:27.024Z</time></trkpt><trkpt lat="42.2481841" lon="14.1862151"><ele>221.00000000000003</ele><time>2026-05-01T13:42:28.025Z</time></trkpt><trkpt lat="42.2482454" lon="14.1862811"><ele>221.0</ele><time>2026-05-01T13:42:29.025Z</time></trkpt><trkpt lat="42.2483431" lon="14.186325"><ele>221.0</ele><time>2026-05-01T13:42:30.025Z</time></trkpt><trkpt lat="42.248443" lon="14.1863607"><ele>221.00000000000003</ele><time>2026-05-01T13:42:31.025Z</time></trkpt><trkpt lat="42.2485344" lon="14.1864023"><ele>221.00000000000003</ele><time>2026-05-01T13:42:32.025Z</time></trkpt><trkpt lat="42.248622" lon="14.1864539"><ele>221.0</ele><time>2026-05-01T13:42:33.024Z</time></trkpt><trkpt lat="42.2487128" lon="14.1864946"><ele>221.0</ele><time>2026-05-01T13:42:34.025Z</time></trkpt><trkpt lat="42.248802" lon="14.1865268"><ele>221.00000000000003</ele><time>2026-05-01T13:42:35.025Z</time></trkpt><trkpt lat="42.2488943" lon="14.186552"><ele>221.0</ele><time>2026-05-01T13:42:36.024Z</time></trkpt><trkpt lat="42.2489831" lon="14.1865544"><ele>221.0</ele><time>2026-05-01T13:42:37.025Z</time></trkpt><trkpt lat="42.2490598" lon="14.1865503"><ele>221.0</ele><time>2026-05-01T13:42:38.025Z</time></trkpt><trkpt lat="42.2491633" lon="14.1865573"><ele>221.00000000000003</ele><time>2026-05-01T13:42:40.025Z</time></trkpt><trkpt lat="42.2492097" lon="14.1866539"><ele>221.0</ele><time>2026-05-01T13:42:42.024Z</time></trkpt><trkpt lat="42.24921" lon="14.186804"><ele>221.0</ele><time>2026-05-01T13:42:44.024Z</time></trkpt><trkpt lat="42.2492035" lon="14.1869169"><ele>221.00000000000003</ele><time>2026-05-01T13:42:45.024Z</time></trkpt><trkpt lat="42.2491922" lon="14.1870485"><ele>221.00000000000003</ele><time>2026-05-01T13:42:46.025Z</time></trkpt><trkpt lat="42.2491776" lon="14.1871994"><ele>221.0</ele><time>2026-05-01T13:42:47.025Z</time></trkpt><trkpt lat="42.2491609" lon="14.1873634"><ele>221.0</ele><time>2026-05-01T13:42:48.025Z</time></trkpt><trkpt lat="42.2491428" lon="14.1875342"><ele>221.20000000000002</ele><time>2026-05-01T13:42:49.024Z</time></trkpt><trkpt lat="42.2491282" lon="14.1876935"><ele>221.40000000000003</ele><time>2026-05-01T13:42:50.024Z</time></trkpt><trkpt lat="42.2491118" lon="14.1878463"><ele>221.6</ele><time>2026-05-01T13:42:51.025Z</time></trkpt><trkpt lat="42.2490892" lon="14.1879815"><ele>221.8</ele><time>2026-05-01T13:42:52.025Z</time></trkpt><trkpt lat="42.2490553" lon="14.1880916"><ele>222.0</ele><time>2026-05-01T13:42:53.025Z</time></trkpt><trkpt lat="42.2490208" lon="14.1881908"><ele>222.0</ele><time>2026-05-01T13:42:54.024Z</time></trkpt><trkpt lat="42.2489982" lon="14.1882704"><ele>222.0</ele><time>2026-05-01T13:42:55.025Z</time></trkpt><trkpt lat="42.2489972" lon="14.188416"><ele>222.0</ele><time>2026-05-01T13:42:57.024Z</time></trkpt><trkpt lat="42.2490304" lon="14.1884939"><ele>222.0</ele><time>2026-05-01T13:42:59.025Z</time></trkpt><trkpt lat="42.2491291" lon="14.1885704"><ele>222.0</ele><time>2026-05-01T13:43:01.024Z</time></trkpt><trkpt lat="42.2492074" lon="14.1885837"><ele>222.0</ele><time>2026-05-01T13:43:02.024Z</time></trkpt><trkpt lat="42.2493163" lon="14.1886118"><ele>222.0</ele><time>2026-05-01T13:43:03.025Z</time></trkpt><trkpt lat="42.249417" lon="14.1886307"><ele>222.0</ele><time>2026-05-01T13:43:04.025Z</time></trkpt><trkpt lat="42.2495361" lon="14.1886679"><ele>222.0</ele><time>2026-05-01T13:43:05.025Z</time></trkpt><trkpt lat="42.2496623" lon="14.1887211"><ele>222.0</ele><time>2026-05-01T13:43:06.025Z</time></trkpt><trkpt lat="42.2497872" lon="14.1887733"><ele>221.5</ele><time>2026-05-01T13:43:07.025Z</time></trkpt><trkpt lat="42.2499103" lon="14.1888386"><ele>221.0</ele><time>2026-05-01T13:43:08.025Z</time></trkpt><trkpt lat="42.2500302" lon="14.1889191"><ele>220.5</ele><time>2026-05-01T13:43:09.025Z</time></trkpt><trkpt lat="42.2501526" lon="14.1890086"><ele>220.0</ele><time>2026-05-01T13:43:10.025Z</time></trkpt><trkpt lat="42.2502822" lon="14.1891059"><ele>221.25</ele><time>2026-05-01T13:43:11.025Z</time></trkpt><trkpt lat="42.2504118" lon="14.1892023"><ele>222.5</ele><time>2026-05-01T13:43:12.025Z</time></trkpt><trkpt lat="42.250527" lon="14.1892712"><ele>223.75</ele><time>2026-05-01T13:43:13.025Z</time></trkpt><trkpt lat="42.250648" lon="14.1893012"><ele>225.0</ele><time>2026-05-01T13:43:14.025Z</time></trkpt><trkpt lat="42.2507776" lon="14.1892945"><ele>225.0</ele><time>2026-05-01T13:43:15.025Z</time></trkpt><trkpt lat="42.2509041" lon="14.1892421"><ele>225.0</ele><time>2026-05-01T13:43:16.025Z</time></trkpt><trkpt lat="42.2510371" lon="14.1891507"><ele>225.0</ele><time>2026-05-01T13:43:17.025Z</time></trkpt><trkpt lat="42.2511699" lon="14.1890441"><ele>225.0</ele><time>2026-05-01T13:43:18.024Z</time></trkpt><trkpt lat="42.2512858" lon="14.1889464"><ele>224.8</ele><time>2026-05-01T13:43:19.025Z</time></trkpt><trkpt lat="42.2513762" lon="14.1888627"><ele>224.6</ele><time>2026-05-01T13:43:20.025Z</time></trkpt><trkpt lat="42.2514601" lon="14.1887913"><ele>224.39999999999998</ele><time>2026-05-01T13:43:21.025Z</time></trkpt><trkpt lat="42.2515379" lon="14.1887321"><ele>224.2</ele><time>2026-05-01T13:43:22.025Z</time></trkpt><trkpt lat="42.2515954" lon="14.1886818"><ele>224.0</ele><time>2026-05-01T13:43:23.025Z</time></trkpt><trkpt lat="42.2516766" lon="14.1886305"><ele>224.0</ele><time>2026-05-01T13:43:25.025Z</time></trkpt><trkpt lat="42.2517215" lon="14.1885326"><ele>223.99999999999997</ele><time>2026-05-01T13:43:27.024Z</time></trkpt><trkpt lat="42.251716" lon="14.1883772"><ele>223.99999999999997</ele><time>2026-05-01T13:43:29.024Z</time></trkpt><trkpt lat="42.2517133" lon="14.1882779"><ele>224.0</ele><time>2026-05-01T13:43:30.025Z</time></trkpt><trkpt lat="42.2517502" lon="14.1881185"><ele>224.0</ele><time>2026-05-01T13:43:32.024Z</time></trkpt><trkpt lat="42.2517896" lon="14.1880341"><ele>223.50000000000003</ele><time>2026-05-01T13:43:33.024Z</time></trkpt><trkpt lat="42.2518403" lon="14.1879466"><ele>223.0</ele><time>2026-05-01T13:43:34.025Z</time></trkpt><trkpt lat="42.2519004" lon="14.1878592"><ele>222.5</ele><time>2026-05-01T13:43:35.025Z</time></trkpt><trkpt lat="42.2519662" lon="14.1877769"><ele>222.0</ele><time>2026-05-01T13:43:36.025Z</time></trkpt><trkpt lat="42.2520395" lon="14.1876926"><ele>221.50000000000003</ele><time>2026-05-01T13:43:37.024Z</time></trkpt><trkpt lat="42.2520981" lon="14.1876217"><ele>221.0</ele><time>2026-05-01T13:43:38.025Z</time></trkpt><trkpt lat="42.252168" lon="14.1875545"><ele>221.00000000000003</ele><time>2026-05-01T13:43:39.025Z</time></trkpt><trkpt lat="42.252193" lon="14.1874449"><ele>221.0</ele><time>2026-05-01T13:43:40.025Z</time></trkpt><trkpt lat="42.2522172" lon="14.1873378"><ele>221.0</ele><time>2026-05-01T13:43:41.025Z</time></trkpt><trkpt lat="42.252227" lon="14.1872477"><ele>221.0</ele><time>2026-05-01T13:43:42.025Z</time></trkpt><trkpt lat="42.2522449" lon="14.1871191"><ele>221.00000000000003</ele><time>2026-05-01T13:43:44.025Z</time></trkpt><trkpt lat="42.2522282" lon="14.1870051"><ele>221.0</ele><time>2026-05-01T13:43:47.025Z</time></trkpt><trkpt lat="42.2521568" lon="14.1869257"><ele>220.33333333333334</ele><time>2026-05-01T13:43:49.024Z</time></trkpt><trkpt lat="42.2520977" lon="14.1868488"><ele>219.66666666666669</ele><time>2026-05-01T13:43:51.025Z</time></trkpt><trkpt lat="42.2520902" lon="14.1867324"><ele>219.0</ele><time>2026-05-01T13:43:54.025Z</time></trkpt><trkpt lat="42.2521149" lon="14.1866413"><ele>218.33333333333331</ele><time>2026-05-01T13:43:58.025Z</time></trkpt><trkpt lat="42.252116" lon="14.1867391"><ele>217.66666666666666</ele><time>2026-05-01T13:44:57.024Z</time></trkpt><trkpt lat="42.252129" lon="14.1868665"><ele>217.0</ele><time>2026-05-01T13:44:59.025Z</time></trkpt><trkpt lat="42.2521836" lon="14.1869613"><ele>217.0</ele><time>2026-05-01T13:45:01.024Z</time></trkpt><trkpt lat="42.2522625" lon="14.1870198"><ele>217.0</ele><time>2026-05-01T13:45:04.025Z</time></trkpt><trkpt lat="42.2523315" lon="14.1870172"><ele>217.0</ele><time>2026-05-01T13:45:06.025Z</time></trkpt><trkpt lat="42.2523976" lon="14.1869969"><ele>217.0</ele><time>2026-05-01T13:45:21.025Z</time></trkpt><trkpt lat="42.2524189" lon="14.1869164"><ele>217.0</ele><time>2026-05-01T13:45:30.025Z</time></trkpt><trkpt lat="42.2524545" lon="14.1868426"><ele>217.0</ele><time>2026-05-01T13:45:32.025Z</time></trkpt><trkpt lat="42.2524898" lon="14.1867647"><ele>217.0</ele><time>2026-05-01T13:45:34.025Z</time></trkpt><trkpt lat="42.2525299" lon="14.1866854"><ele>217.49999999999997</ele><time>2026-05-01T13:45:36.025Z</time></trkpt><trkpt lat="42.2525712" lon="14.1865998"><ele>218.0</ele><time>2026-05-01T13:45:38.025Z</time></trkpt><trkpt lat="42.2526092" lon="14.1865102"><ele>218.5</ele><time>2026-05-01T13:45:40.025Z</time></trkpt><trkpt lat="42.2526441" lon="14.1864257"><ele>219.0</ele><time>2026-05-01T13:45:42.025Z</time></trkpt><trkpt lat="42.2526814" lon="14.1863253"><ele>219.49999999999997</ele><time>2026-05-01T13:45:44.025Z</time></trkpt><trkpt lat="42.2527175" lon="14.1862338"><ele>220.0</ele><time>2026-05-01T13:45:46.025Z</time></trkpt><trkpt lat="42.2527551" lon="14.186148"><ele>218.99999999999997</ele><time>2026-05-01T13:45:48.025Z</time></trkpt><trkpt lat="42.2527979" lon="14.1860574"><ele>218.0</ele><time>2026-05-01T13:45:50.025Z</time></trkpt><trkpt lat="42.2528445" lon="14.1859676"><ele>217.0</ele><time>2026-05-01T13:45:52.024Z</time></trkpt><trkpt lat="42.2528902" lon="14.1858721"><ele>216.0</ele><time>2026-05-01T13:45:54.025Z</time></trkpt><trkpt lat="42.2529347" lon="14.1857574"><ele>214.99999999999997</ele><time>2026-05-01T13:45:56.025Z</time></trkpt><trkpt lat="42.2529772" lon="14.1856623"><ele>214.0</ele><time>2026-05-01T13:45:58.025Z</time></trkpt><trkpt lat="42.2530111" lon="14.1855765"><ele>213.16666666666666</ele><time>2026-05-01T13:46:00.025Z</time></trkpt><trkpt lat="42.2530428" lon="14.1854771"><ele>212.33333333333331</ele><time>2026-05-01T13:46:03.025Z</time></trkpt><trkpt lat="42.253112" lon="14.1854201"><ele>211.5</ele><time>2026-05-01T13:46:07.025Z</time></trkpt><trkpt lat="42.2531948" lon="14.1854744"><ele>210.66666666666669</ele><time>2026-05-01T13:46:10.024Z</time></trkpt><trkpt lat="42.2532516" lon="14.1855261"><ele>209.83333333333334</ele><time>2026-05-01T13:46:12.025Z</time></trkpt><trkpt lat="42.2533243" lon="14.1855741"><ele>209.0</ele><time>2026-05-01T13:46:14.025Z</time></trkpt><trkpt lat="42.2534115" lon="14.1856291"><ele>210.00000000000003</ele><time>2026-05-01T13:46:16.025Z</time></trkpt><trkpt lat="42.2534938" lon="14.1856819"><ele>211.0</ele><time>2026-05-01T13:46:18.024Z</time></trkpt><trkpt lat="42.2535603" lon="14.1857235"><ele>212.0</ele><time>2026-05-01T13:46:19.025Z</time></trkpt><trkpt lat="42.2536508" lon="14.1857968"><ele>213.0</ele><time>2026-05-01T13:46:21.025Z</time></trkpt><trkpt lat="42.2536994" lon="14.1858769"><ele>214.00000000000003</ele><time>2026-05-01T13:46:24.025Z</time></trkpt><trkpt lat="42.2537051" lon="14.1859995"><ele>215.0</ele><time>2026-05-01T13:46:26.025Z</time></trkpt><trkpt lat="42.253709" lon="14.1861071"><ele>215.0</ele><time>2026-05-01T13:46:28.025Z</time></trkpt><trkpt lat="42.2537703" lon="14.1861783"><ele>215.0</ele><time>2026-05-01T13:46:31.025Z</time></trkpt><trkpt lat="42.2538328" lon="14.1861535"><ele>215.0</ele><time>2026-05-01T13:46:33.025Z</time></trkpt><trkpt lat="42.2538973" lon="14.1861557"><ele>215.0</ele><time>2026-05-01T13:46:35.025Z</time></trkpt><trkpt lat="42.2539612" lon="14.1861802"><ele>215.0</ele><time>2026-05-01T13:46:37.025Z</time></trkpt><trkpt lat="42.2540223" lon="14.1862561"><ele>215.0</ele><time>2026-05-01T13:46:40.025Z</time></trkpt><trkpt lat="42.2540796" lon="14.1863224"><ele>215.0</ele><time>2026-05-01T13:46:43.025Z</time></trkpt><trkpt lat="42.2541392" lon="14.1863586"><ele>213.50000000000003</ele><time>2026-05-01T13:46:47.025Z</time></trkpt><trkpt lat="42.254186" lon="14.186296"><ele>212.0</ele><time>2026-05-01T13:46:53.025Z</time></trkpt><trkpt lat="42.2541535" lon="14.186202"><ele>210.5</ele><time>2026-05-01T13:46:57.025Z</time></trkpt><trkpt lat="42.2541814" lon="14.1860937"><ele>209.0</ele><time>2026-05-01T13:47:00.025Z</time></trkpt><trkpt lat="42.2542332" lon="14.186019"><ele>207.50000000000003</ele><time>2026-05-01T13:47:02.025Z</time></trkpt><trkpt lat="42.2542987" lon="14.1859643"><ele>206.0</ele><time>2026-05-01T13:47:04.025Z</time></trkpt><trkpt lat="42.2543795" lon="14.185983"><ele>206.00000000000003</ele><time>2026-05-01T13:47:06.025Z</time></trkpt><trkpt lat="42.2544667" lon="14.186053"><ele>206.0</ele><time>2026-05-01T13:47:08.025Z</time></trkpt><trkpt lat="42.2545783" lon="14.1861303"><ele>206.0</ele><time>2026-05-01T13:47:10.025Z</time></trkpt><trkpt lat="42.2546458" lon="14.1861688"><ele>206.0</ele><time>2026-05-01T13:47:11.025Z</time></trkpt><trkpt lat="42.2547041" lon="14.1862105"><ele>206.00000000000003</ele><time>2026-05-01T13:47:12.025Z</time></trkpt><trkpt lat="42.2547658" lon="14.1862483"><ele>206.0</ele><time>2026-05-01T13:47:13.025Z</time></trkpt><trkpt lat="42.254827" lon="14.1862925"><ele>205.66666666666669</ele><time>2026-05-01T13:47:14.025Z</time></trkpt><trkpt lat="42.2548784" lon="14.1863421"><ele>205.33333333333334</ele><time>2026-05-01T13:47:15.025Z</time></trkpt><trkpt lat="42.254944" lon="14.186408"><ele>205.0</ele><time>2026-05-01T13:47:17.024Z</time></trkpt><trkpt lat="42.2550357" lon="14.1864308"><ele>204.66666666666669</ele><time>2026-05-01T13:47:21.025Z</time></trkpt><trkpt lat="42.2551069" lon="14.186444"><ele>204.33333333333334</ele><time>2026-05-01T13:47:23.025Z</time></trkpt><trkpt lat="42.255186" lon="14.1864659"><ele>204.0</ele><time>2026-05-01T13:47:26.024Z</time></trkpt><trkpt lat="42.2552648" lon="14.1865196"><ele>204.0</ele><time>2026-05-01T13:47:30.024Z</time></trkpt><trkpt lat="42.2553414" lon="14.1865858"><ele>204.0</ele><time>2026-05-01T13:47:33.024Z</time></trkpt><trkpt lat="42.255405" lon="14.1865571"><ele>204.0</ele><time>2026-05-01T13:47:40.024Z</time></trkpt><trkpt lat="42.2554405" lon="14.186477"><ele>204.0</ele><time>2026-05-01T13:48:04.025Z</time></trkpt><trkpt lat="42.2555178" lon="14.1864377"><ele>204.0</ele><time>2026-05-01T13:48:08.025Z</time></trkpt><trkpt lat="42.2555711" lon="14.1863819"><ele>204.0</ele><time>2026-05-01T13:57:03.025Z</time></trkpt><trkpt lat="42.2556382" lon="14.1863365"><ele>204.16666666666666</ele><time>2026-05-01T13:57:07.025Z</time></trkpt><trkpt lat="42.2557162" lon="14.1863261"><ele>204.33333333333331</ele><time>2026-05-01T13:57:10.025Z</time></trkpt><trkpt lat="42.2557775" lon="14.1862832"><ele>204.5</ele><time>2026-05-01T13:57:18.025Z</time></trkpt><trkpt lat="42.2557743" lon="14.1861828"><ele>204.66666666666666</ele><time>2026-05-01T13:57:24.025Z</time></trkpt><trkpt lat="42.2557624" lon="14.1860639"><ele>204.83333333333331</ele><time>2026-05-01T13:59:24.025Z</time></trkpt><trkpt lat="42.2557926" lon="14.185966"><ele>205.0</ele><time>2026-05-01T14:06:36.024Z</time></trkpt><trkpt lat="42.2558318" lon="14.1858955"><ele>205.0</ele><time>2026-05-01T14:07:04.025Z</time></trkpt><trkpt lat="42.2558788" lon="14.1858314"><ele>205.0</ele><time>2026-05-01T14:07:13.025Z</time></trkpt><trkpt lat="42.2559258" lon="14.1857748"><ele>205.0</ele><time>2026-05-01T14:07:17.025Z</time></trkpt><trkpt lat="42.2559776" lon="14.1857107"><ele>205.0</ele><time>2026-05-01T14:07:20.025Z</time></trkpt><trkpt lat="42.2560328" lon="14.1856526"><ele>205.0</ele><time>2026-05-01T14:08:34.025Z</time></trkpt><trkpt lat="42.2560864" lon="14.1855956"><ele>205.0</ele><time>2026-05-01T14:08:40.025Z</time></trkpt><trkpt lat="42.2561391" lon="14.1855016"><ele>205.0</ele><time>2026-05-01T14:08:43.025Z</time></trkpt><trkpt lat="42.256186" lon="14.1853752"><ele>206.2</ele><time>2026-05-01T14:08:45.025Z</time></trkpt><trkpt lat="42.2562702" lon="14.1852449"><ele>207.4</ele><time>2026-05-01T14:08:47.025Z</time></trkpt><trkpt lat="42.2563347" lon="14.185153"><ele>208.60000000000002</ele><time>2026-05-01T14:08:49.025Z</time></trkpt><trkpt lat="42.2564411" lon="14.1851072"><ele>209.8</ele><time>2026-05-01T14:08:51.025Z</time></trkpt><trkpt lat="42.256534" lon="14.1851219"><ele>211.0</ele><time>2026-05-01T14:08:53.025Z</time></trkpt><trkpt lat="42.2566054" lon="14.185159"><ele>213.0</ele><time>2026-05-01T14:08:56.025Z</time></trkpt><trkpt lat="42.2566721" lon="14.1851198"><ele>215.0</ele><time>2026-05-01T14:09:02.024Z</time></trkpt><trkpt lat="42.2567366" lon="14.184996"><ele>217.00000000000003</ele><time>2026-05-01T14:09:11.025Z</time></trkpt><trkpt lat="42.256808" lon="14.1848516"><ele>219.0</ele><time>2026-05-01T14:09:13.025Z</time></trkpt><trkpt lat="42.2568549" lon="14.1847853"><ele>221.0</ele><time>2026-05-01T14:09:14.025Z</time></trkpt><trkpt lat="42.2569196" lon="14.1847135"><ele>222.00000000000003</ele><time>2026-05-01T14:09:15.025Z</time></trkpt><trkpt lat="42.2569708" lon="14.1846418"><ele>223.0</ele><time>2026-05-01T14:09:16.025Z</time></trkpt><trkpt lat="42.2570408" lon="14.1845961"><ele>224.0</ele><time>2026-05-01T14:09:17.024Z</time></trkpt><trkpt lat="42.2571336" lon="14.1845426"><ele>225.0</ele><time>2026-05-01T14:09:18.025Z</time></trkpt><trkpt lat="42.2572086" lon="14.1844878"><ele>226.00000000000003</ele><time>2026-05-01T14:09:19.025Z</time></trkpt><trkpt lat="42.2572835" lon="14.1844261"><ele>227.0</ele><time>2026-05-01T14:09:20.025Z</time></trkpt><trkpt lat="42.257334" lon="14.1843491"><ele>227.33333333333334</ele><time>2026-05-01T14:09:21.025Z</time></trkpt><trkpt lat="42.2574049" lon="14.184291"><ele>227.66666666666669</ele><time>2026-05-01T14:09:22.024Z</time></trkpt><trkpt lat="42.2574573" lon="14.184233"><ele>228.0</ele><time>2026-05-01T14:09:23.025Z</time></trkpt><trkpt lat="42.2575253" lon="14.1841243"><ele>228.33333333333331</ele><time>2026-05-01T14:09:25.025Z</time></trkpt><trkpt lat="42.2575669" lon="14.1840124"><ele>228.66666666666666</ele><time>2026-05-01T14:09:27.025Z</time></trkpt><trkpt lat="42.2575814" lon="14.1839237"><ele>229.0</ele><time>2026-05-01T14:09:28.025Z</time></trkpt><trkpt lat="42.2575929" lon="14.183733"><ele>229.85714285714283</ele><time>2026-05-01T14:09:30.025Z</time></trkpt><trkpt lat="42.2575832" lon="14.1836413"><ele>230.71428571428572</ele><time>2026-05-01T14:09:31.025Z</time></trkpt><trkpt lat="42.2575747" lon="14.1835477"><ele>231.57142857142856</ele><time>2026-05-01T14:09:32.025Z</time></trkpt><trkpt lat="42.2575511" lon="14.183451"><ele>232.42857142857142</ele><time>2026-05-01T14:09:33.025Z</time></trkpt><trkpt lat="42.257536" lon="14.1833544"><ele>233.28571428571428</ele><time>2026-05-01T14:09:34.025Z</time></trkpt><trkpt lat="42.2575139" lon="14.1832633"><ele>234.14285714285714</ele><time>2026-05-01T14:09:35.025Z</time></trkpt><trkpt lat="42.2574928" lon="14.1831557"><ele>235.0</ele><time>2026-05-01T14:09:36.025Z</time></trkpt><trkpt lat="42.2574783" lon="14.1830625"><ele>237.75</ele><time>2026-05-01T14:09:37.025Z</time></trkpt><trkpt lat="42.2574423" lon="14.1829257"><ele>240.5</ele><time>2026-05-01T14:09:39.025Z</time></trkpt><trkpt lat="42.2573746" lon="14.1828211"><ele>243.25</ele><time>2026-05-01T14:09:41.025Z</time></trkpt><trkpt lat="42.2572719" lon="14.182747"><ele>246.0</ele><time>2026-05-01T14:09:43.025Z</time></trkpt><trkpt lat="42.2571556" lon="14.1826923"><ele>246.4</ele><time>2026-05-01T14:09:45.025Z</time></trkpt><trkpt lat="42.2570792" lon="14.1826233"><ele>246.8</ele><time>2026-05-01T14:09:47.025Z</time></trkpt><trkpt lat="42.2570552" lon="14.1825345"><ele>247.20000000000002</ele><time>2026-05-01T14:09:49.025Z</time></trkpt><trkpt lat="42.2570772" lon="14.1823968"><ele>247.60000000000002</ele><time>2026-05-01T14:09:51.025Z</time></trkpt><trkpt lat="42.257085" lon="14.1822857"><ele>248.0</ele><time>2026-05-01T14:09:53.025Z</time></trkpt><trkpt lat="42.2571486" lon="14.1821392"><ele>249.16666666666669</ele><time>2026-05-01T14:09:57.025Z</time></trkpt><trkpt lat="42.2572422" lon="14.1820273"><ele>250.33333333333334</ele><time>2026-05-01T14:09:59.025Z</time></trkpt><trkpt lat="42.2572806" lon="14.1819553"><ele>251.5</ele><time>2026-05-01T14:10:00.025Z</time></trkpt><trkpt lat="42.2573106" lon="14.1818715"><ele>252.66666666666669</ele><time>2026-05-01T14:10:01.025Z</time></trkpt><trkpt lat="42.2573593" lon="14.1817887"><ele>253.83333333333334</ele><time>2026-05-01T14:10:02.025Z</time></trkpt><trkpt lat="42.257389" lon="14.1816695"><ele>255.0</ele><time>2026-05-01T14:10:03.025Z</time></trkpt><trkpt lat="42.2574131" lon="14.1815333"><ele>256.2857142857143</ele><time>2026-05-01T14:10:04.025Z</time></trkpt><trkpt lat="42.2574367" lon="14.1814248"><ele>257.5714285714286</ele><time>2026-05-01T14:10:05.025Z</time></trkpt><trkpt lat="42.2574605" lon="14.1813291"><ele>258.8571428571429</ele><time>2026-05-01T14:10:06.024Z</time></trkpt><trkpt lat="42.257481" lon="14.1812405"><ele>260.14285714285717</ele><time>2026-05-01T14:10:07.025Z</time></trkpt><trkpt lat="42.2575386" lon="14.1811802"><ele>261.42857142857144</ele><time>2026-05-01T14:10:09.025Z</time></trkpt><trkpt lat="42.2575753" lon="14.1811023"><ele>262.7142857142857</ele><time>2026-05-01T14:10:10.025Z</time></trkpt><trkpt lat="42.25762" lon="14.1810278"><ele>264.0</ele><time>2026-05-01T14:10:11.025Z</time></trkpt><trkpt lat="42.2576839" lon="14.1808909"><ele>264.0</ele><time>2026-05-01T14:10:13.025Z</time></trkpt><trkpt lat="42.2577371" lon="14.1807793"><ele>264.0</ele><time>2026-05-01T14:10:15.025Z</time></trkpt><trkpt lat="42.2577989" lon="14.180642"><ele>264.0</ele><time>2026-05-01T14:10:17.024Z</time></trkpt><trkpt lat="42.2578205" lon="14.1805609"><ele>264.0</ele><time>2026-05-01T14:10:18.025Z</time></trkpt><trkpt lat="42.2578393" lon="14.1804737"><ele>264.0</ele><time>2026-05-01T14:10:19.025Z</time></trkpt><trkpt lat="42.2578567" lon="14.1803587"><ele>264.0</ele><time>2026-05-01T14:10:20.025Z</time></trkpt><trkpt lat="42.257867" lon="14.1802273"><ele>266.59999999999997</ele><time>2026-05-01T14:10:21.025Z</time></trkpt><trkpt lat="42.2578794" lon="14.1800898"><ele>269.2</ele><time>2026-05-01T14:10:22.025Z</time></trkpt><trkpt lat="42.2578957" lon="14.179947"><ele>271.79999999999995</ele><time>2026-05-01T14:10:23.025Z</time></trkpt><trkpt lat="42.2579038" lon="14.1798234"><ele>274.4</ele><time>2026-05-01T14:10:24.025Z</time></trkpt><trkpt lat="42.2579125" lon="14.1796816"><ele>277.0</ele><time>2026-05-01T14:10:25.025Z</time></trkpt><trkpt lat="42.2579151" lon="14.17955"><ele>279.75</ele><time>2026-05-01T14:10:26.025Z</time></trkpt><trkpt lat="42.2579152" lon="14.1793709"><ele>282.5</ele><time>2026-05-01T14:10:28.025Z</time></trkpt><trkpt lat="42.257943" lon="14.1792364"><ele>285.25</ele><time>2026-05-01T14:10:30.024Z</time></trkpt><trkpt lat="42.2579644" lon="14.1790466"><ele>288.0</ele><time>2026-05-01T14:10:32.024Z</time></trkpt><trkpt lat="42.2579735" lon="14.1789492"><ele>290.0</ele><time>2026-05-01T14:10:33.024Z</time></trkpt><trkpt lat="42.2580172" lon="14.1787777"><ele>292.0</ele><time>2026-05-01T14:10:35.025Z</time></trkpt><trkpt lat="42.2580398" lon="14.1786099"><ele>294.0</ele><time>2026-05-01T14:10:37.025Z</time></trkpt><trkpt lat="42.2580506" lon="14.1784951"><ele>296.0</ele><time>2026-05-01T14:10:38.025Z</time></trkpt><trkpt lat="42.2580605" lon="14.1783966"><ele>298.0</ele><time>2026-05-01T14:10:39.025Z</time></trkpt><trkpt lat="42.2580903" lon="14.1782782"><ele>299.4</ele><time>2026-05-01T14:10:41.025Z</time></trkpt><trkpt lat="42.2580971" lon="14.1781501"><ele>300.8</ele><time>2026-05-01T14:10:44.025Z</time></trkpt><trkpt lat="42.2580887" lon="14.1779921"><ele>302.2</ele><time>2026-05-01T14:10:46.024Z</time></trkpt><trkpt lat="42.2580726" lon="14.1778636"><ele>303.6</ele><time>2026-05-01T14:10:48.025Z</time></trkpt><trkpt lat="42.2579767" lon="14.1777873"><ele>305.0</ele><time>2026-05-01T14:10:50.024Z</time></trkpt><trkpt lat="42.2579135" lon="14.1777087"><ele>305.0</ele><time>2026-05-01T14:10:52.025Z</time></trkpt><trkpt lat="42.2578199" lon="14.1776511"><ele>305.0</ele><time>2026-05-01T14:10:54.024Z</time></trkpt><trkpt lat="42.2577546" lon="14.1776904"><ele>305.0</ele><time>2026-05-01T14:10:55.025Z</time></trkpt><trkpt lat="42.2576368" lon="14.1777193"><ele>305.0</ele><time>2026-05-01T14:10:57.025Z</time></trkpt><trkpt lat="42.2575193" lon="14.17768"><ele>305.0</ele><time>2026-05-01T14:10:59.025Z</time></trkpt><trkpt lat="42.2574019" lon="14.1777202"><ele>305.0</ele><time>2026-05-01T14:11:01.025Z</time></trkpt><trkpt lat="42.2573368" lon="14.1777483"><ele>305.0</ele><time>2026-05-01T14:11:02.025Z</time></trkpt><trkpt lat="42.2572724" lon="14.1777782"><ele>305.0</ele><time>2026-05-01T14:11:03.025Z</time></trkpt><trkpt lat="42.2571959" lon="14.1778434"><ele>305.0</ele><time>2026-05-01T14:11:05.025Z</time></trkpt><trkpt lat="42.2571368" lon="14.1779143"><ele>305.0</ele><time>2026-05-01T14:11:07.024Z</time></trkpt><trkpt lat="42.2570725" lon="14.1779301"><ele>305.0</ele><time>2026-05-01T14:11:09.025Z</time></trkpt><trkpt lat="42.2570435" lon="14.1778449"><ele>305.0</ele><time>2026-05-01T14:11:11.025Z</time></trkpt><trkpt lat="42.2570734" lon="14.1776789"><ele>307.0</ele><time>2026-05-01T14:11:13.025Z</time></trkpt><trkpt lat="42.2570957" lon="14.1775793"><ele>309.0</ele><time>2026-05-01T14:11:14.025Z</time></trkpt><trkpt lat="42.2571232" lon="14.1774687"><ele>311.0</ele><time>2026-05-01T14:11:15.025Z</time></trkpt><trkpt lat="42.2571866" lon="14.1773663"><ele>313.0</ele><time>2026-05-01T14:11:16.025Z</time></trkpt><trkpt lat="42.2572429" lon="14.1772213"><ele>315.0</ele><time>2026-05-01T14:11:17.025Z</time></trkpt><trkpt lat="42.2572995" lon="14.1771227"><ele>315.0</ele><time>2026-05-01T14:11:18.025Z</time></trkpt><trkpt lat="42.2573464" lon="14.1770292"><ele>315.0</ele><time>2026-05-01T14:11:19.025Z</time></trkpt><trkpt lat="42.257387" lon="14.176935"><ele>315.0</ele><time>2026-05-01T14:11:20.025Z</time></trkpt><trkpt lat="42.2574243" lon="14.176825"><ele>315.0</ele><time>2026-05-01T14:11:21.025Z</time></trkpt><trkpt lat="42.2574634" lon="14.1766981"><ele>315.0</ele><time>2026-05-01T14:11:22.024Z</time></trkpt><trkpt lat="42.2574936" lon="14.176589"><ele>315.0</ele><time>2026-05-01T14:11:23.024Z</time></trkpt><trkpt lat="42.2575234" lon="14.1764811"><ele>316.5</ele><time>2026-05-01T14:11:24.025Z</time></trkpt><trkpt lat="42.2575533" lon="14.1764059"><ele>318.0</ele><time>2026-05-01T14:11:25.025Z</time></trkpt><trkpt lat="42.2575783" lon="14.1762835"><ele>319.5</ele><time>2026-05-01T14:11:27.025Z</time></trkpt><trkpt lat="42.2575565" lon="14.17618"><ele>321.0</ele><time>2026-05-01T14:11:29.024Z</time></trkpt><trkpt lat="42.2574857" lon="14.1761236"><ele>322.5</ele><time>2026-05-01T14:11:31.025Z</time></trkpt><trkpt lat="42.2573707" lon="14.1760553"><ele>324.0</ele><time>2026-05-01T14:11:33.025Z</time></trkpt><trkpt lat="42.257277" lon="14.1759157"><ele>325.0</ele><time>2026-05-01T14:11:35.025Z</time></trkpt><trkpt lat="42.2572616" lon="14.1757896"><ele>326.0</ele><time>2026-05-01T14:11:37.025Z</time></trkpt><trkpt lat="42.2572306" lon="14.1756659"><ele>327.0</ele><time>2026-05-01T14:11:39.025Z</time></trkpt><trkpt lat="42.2571968" lon="14.175588"><ele>328.0</ele><time>2026-05-01T14:11:41.025Z</time></trkpt><trkpt lat="42.2571735" lon="14.1754539"><ele>329.0</ele><time>2026-05-01T14:11:44.025Z</time></trkpt><trkpt lat="42.2572004" lon="14.1752752"><ele>329.0</ele><time>2026-05-01T14:12:34.025Z</time></trkpt><trkpt lat="42.257275" lon="14.1750673"><ele>329.0</ele><time>2026-05-01T14:12:35.025Z</time></trkpt><trkpt lat="42.2573504" lon="14.1748428"><ele>329.0</ele><time>2026-05-01T14:12:36.025Z</time></trkpt><trkpt lat="42.2574496" lon="14.1746055"><ele>332.33333333333337</ele><time>2026-05-01T14:12:37.025Z</time></trkpt><trkpt lat="42.2575522" lon="14.1743707"><ele>335.6666666666667</ele><time>2026-05-01T14:12:38.025Z</time></trkpt><trkpt lat="42.2576438" lon="14.174161"><ele>339.0</ele><time>2026-05-01T14:12:39.025Z</time></trkpt><trkpt lat="42.2577264" lon="14.1739813"><ele>341.3333333333333</ele><time>2026-05-01T14:12:40.025Z</time></trkpt><trkpt lat="42.2578116" lon="14.1738126"><ele>343.66666666666663</ele><time>2026-05-01T14:12:41.025Z</time></trkpt><trkpt lat="42.2579067" lon="14.1736473"><ele>346.0</ele><time>2026-05-01T14:12:42.025Z</time></trkpt><trkpt lat="42.2580115" lon="14.1734975"><ele>345.5</ele><time>2026-05-01T14:12:43.024Z</time></trkpt><trkpt lat="42.2581213" lon="14.1733672"><ele>345.0</ele><time>2026-05-01T14:12:44.025Z</time></trkpt><trkpt lat="42.2582277" lon="14.1732565"><ele>344.5</ele><time>2026-05-01T14:12:45.024Z</time></trkpt><trkpt lat="42.2583232" lon="14.1731717"><ele>344.0</ele><time>2026-05-01T14:12:46.025Z</time></trkpt><trkpt lat="42.2584152" lon="14.1730931"><ele>346.1666666666667</ele><time>2026-05-01T14:12:47.025Z</time></trkpt><trkpt lat="42.2584428" lon="14.1729739"><ele>348.33333333333337</ele><time>2026-05-01T14:12:50.024Z</time></trkpt><trkpt lat="42.2584676" lon="14.172858"><ele>350.5</ele><time>2026-05-01T14:12:52.025Z</time></trkpt><trkpt lat="42.2585427" lon="14.1727516"><ele>352.6666666666667</ele><time>2026-05-01T14:12:54.025Z</time></trkpt><trkpt lat="42.2585885" lon="14.1726877"><ele>354.8333333333333</ele><time>2026-05-01T14:12:55.025Z</time></trkpt><trkpt lat="42.2586434" lon="14.1726313"><ele>357.0</ele><time>2026-05-01T14:12:56.025Z</time></trkpt><trkpt lat="42.2587006" lon="14.1725555"><ele>357.0</ele><time>2026-05-01T14:12:57.025Z</time></trkpt><trkpt lat="42.2587611" lon="14.1724782"><ele>357.0</ele><time>2026-05-01T14:12:58.025Z</time></trkpt><trkpt lat="42.2588139" lon="14.172407"><ele>357.0</ele><time>2026-05-01T14:12:59.024Z</time></trkpt><trkpt lat="42.2588667" lon="14.1723395"><ele>357.0</ele><time>2026-05-01T14:13:00.025Z</time></trkpt><trkpt lat="42.2589179" lon="14.1722769"><ele>357.0</ele><time>2026-05-01T14:13:01.025Z</time></trkpt><trkpt lat="42.2590092" lon="14.1721746"><ele>357.0</ele><time>2026-05-01T14:13:03.025Z</time></trkpt><trkpt lat="42.2590655" lon="14.1721067"><ele>360.20000000000005</ele><time>2026-05-01T14:13:05.025Z</time></trkpt><trkpt lat="42.2591429" lon="14.1720178"><ele>363.4</ele><time>2026-05-01T14:13:07.024Z</time></trkpt><trkpt lat="42.2591981" lon="14.171951"><ele>366.6</ele><time>2026-05-01T14:13:08.025Z</time></trkpt><trkpt lat="42.2592643" lon="14.1718733"><ele>369.79999999999995</ele><time>2026-05-01T14:13:09.025Z</time></trkpt><trkpt lat="42.2593312" lon="14.1717943"><ele>373.0</ele><time>2026-05-01T14:13:10.025Z</time></trkpt><trkpt lat="42.2594098" lon="14.1717027"><ele>373.0</ele><time>2026-05-01T14:13:11.025Z</time></trkpt><trkpt lat="42.2594714" lon="14.1715867"><ele>373.0</ele><time>2026-05-01T14:13:12.025Z</time></trkpt><trkpt lat="42.2595248" lon="14.1714856"><ele>373.0</ele><time>2026-05-01T14:13:13.024Z</time></trkpt><trkpt lat="42.2595586" lon="14.1713965"><ele>373.0</ele><time>2026-05-01T14:13:14.025Z</time></trkpt><trkpt lat="42.2596061" lon="14.1712826"><ele>373.0</ele><time>2026-05-01T14:13:16.025Z</time></trkpt><trkpt lat="42.2596596" lon="14.1711971"><ele>372.4</ele><time>2026-05-01T14:13:18.025Z</time></trkpt><trkpt lat="42.2597629" lon="14.1710763"><ele>371.79999999999995</ele><time>2026-05-01T14:13:20.025Z</time></trkpt><trkpt lat="42.2598425" lon="14.1710034"><ele>371.2</ele><time>2026-05-01T14:13:21.025Z</time></trkpt><trkpt lat="42.2599273" lon="14.1709186"><ele>370.6</ele><time>2026-05-01T14:13:22.025Z</time></trkpt><trkpt lat="42.260014" lon="14.1708363"><ele>370.0</ele><time>2026-05-01T14:13:23.025Z</time></trkpt><trkpt lat="42.2600946" lon="14.1707625"><ele>369.4</ele><time>2026-05-01T14:13:24.025Z</time></trkpt><trkpt lat="42.2601772" lon="14.1706831"><ele>368.8</ele><time>2026-05-01T14:13:25.025Z</time></trkpt><trkpt lat="42.2602608" lon="14.17061"><ele>368.20000000000005</ele><time>2026-05-01T14:13:26.025Z</time></trkpt><trkpt lat="42.2603444" lon="14.170529"><ele>367.6</ele><time>2026-05-01T14:13:27.025Z</time></trkpt><trkpt lat="42.2604285" lon="14.1704501"><ele>367.0</ele><time>2026-05-01T14:13:28.025Z</time></trkpt><trkpt lat="42.2605083" lon="14.1703743"><ele>367.0</ele><time>2026-05-01T14:13:29.024Z</time></trkpt><trkpt lat="42.260588" lon="14.1702871"><ele>367.0</ele><time>2026-05-01T14:13:30.025Z</time></trkpt><trkpt lat="42.2606623" lon="14.1702112"><ele>367.0</ele><time>2026-05-01T14:13:31.025Z</time></trkpt><trkpt lat="42.2607225" lon="14.1701225"><ele>367.0</ele><time>2026-05-01T14:13:32.024Z</time></trkpt><trkpt lat="42.2607867" lon="14.1700485"><ele>367.0</ele><time>2026-05-01T14:13:33.025Z</time></trkpt><trkpt lat="42.2608384" lon="14.1699802"><ele>367.0</ele><time>2026-05-01T14:13:34.025Z</time></trkpt><trkpt lat="42.26092" lon="14.1698768"><ele>363.8333333333333</ele><time>2026-05-01T14:13:36.025Z</time></trkpt><trkpt lat="42.26097" lon="14.1697658"><ele>360.66666666666663</ele><time>2026-05-01T14:13:38.025Z</time></trkpt><trkpt lat="42.2609881" lon="14.1695976"><ele>357.5</ele><time>2026-05-01T14:13:40.025Z</time></trkpt><trkpt lat="42.2609944" lon="14.1695036"><ele>354.3333333333333</ele><time>2026-05-01T14:13:41.025Z</time></trkpt><trkpt lat="42.261001" lon="14.1694028"><ele>351.1666666666667</ele><time>2026-05-01T14:13:42.025Z</time></trkpt><trkpt lat="42.261011" lon="14.169304"><ele>348.0</ele><time>2026-05-01T14:13:43.025Z</time></trkpt><trkpt lat="42.2610205" lon="14.1692001"><ele>348.0</ele><time>2026-05-01T14:13:44.025Z</time></trkpt><trkpt lat="42.2610273" lon="14.1691079"><ele>348.0</ele><time>2026-05-01T14:13:45.025Z</time></trkpt><trkpt lat="42.2610309" lon="14.1690188"><ele>348.0</ele><time>2026-05-01T14:13:46.025Z</time></trkpt><trkpt lat="42.2610252" lon="14.1689312"><ele>348.0</ele><time>2026-05-01T14:13:47.024Z</time></trkpt><trkpt lat="42.2610109" lon="14.1688438"><ele>348.0</ele><time>2026-05-01T14:13:48.025Z</time></trkpt><trkpt lat="42.2610033" lon="14.1687505"><ele>348.0</ele><time>2026-05-01T14:13:49.024Z</time></trkpt><trkpt lat="42.2610016" lon="14.1686489"><ele>348.0</ele><time>2026-05-01T14:13:50.025Z</time></trkpt><trkpt lat="42.2610117" lon="14.1685446"><ele>347.1666666666667</ele><time>2026-05-01T14:13:51.025Z</time></trkpt><trkpt lat="42.2610281" lon="14.1684374"><ele>346.3333333333333</ele><time>2026-05-01T14:13:52.025Z</time></trkpt><trkpt lat="42.2610503" lon="14.1683295"><ele>345.5</ele><time>2026-05-01T14:13:53.025Z</time></trkpt><trkpt lat="42.2610752" lon="14.1682235"><ele>344.66666666666663</ele><time>2026-05-01T14:13:54.024Z</time></trkpt><trkpt lat="42.2611047" lon="14.1681185"><ele>343.8333333333333</ele><time>2026-05-01T14:13:55.025Z</time></trkpt><trkpt lat="42.2611355" lon="14.1680142"><ele>343.0</ele><time>2026-05-01T14:13:56.025Z</time></trkpt><trkpt lat="42.2611578" lon="14.1679049"><ele>341.5</ele><time>2026-05-01T14:13:57.025Z</time></trkpt><trkpt lat="42.2611667" lon="14.1677871"><ele>340.0</ele><time>2026-05-01T14:13:58.025Z</time></trkpt><trkpt lat="42.2611672" lon="14.1676638"><ele>338.5</ele><time>2026-05-01T14:13:59.025Z</time></trkpt><trkpt lat="42.2611589" lon="14.1675469"><ele>337.0</ele><time>2026-05-01T14:14:00.024Z</time></trkpt><trkpt lat="42.2611562" lon="14.1674305"><ele>335.5</ele><time>2026-05-01T14:14:01.025Z</time></trkpt><trkpt lat="42.2611446" lon="14.1673253"><ele>334.0</ele><time>2026-05-01T14:14:02.025Z</time></trkpt><trkpt lat="42.2611417" lon="14.1672208"><ele>331.5</ele><time>2026-05-01T14:14:03.025Z</time></trkpt><trkpt lat="42.2611341" lon="14.1671332"><ele>329.0</ele><time>2026-05-01T14:14:04.025Z</time></trkpt><trkpt lat="42.2611846" lon="14.1669977"><ele>326.5</ele><time>2026-05-01T14:14:06.025Z</time></trkpt><trkpt lat="42.2612434" lon="14.1669514"><ele>324.0</ele><time>2026-05-01T14:14:07.024Z</time></trkpt><trkpt lat="42.2613177" lon="14.1669772"><ele>321.5</ele><time>2026-05-01T14:14:08.025Z</time></trkpt><trkpt lat="42.2613798" lon="14.1670139"><ele>319.0</ele><time>2026-05-01T14:14:09.025Z</time></trkpt><trkpt lat="42.2614458" lon="14.1670652"><ele>318.59999999999997</ele><time>2026-05-01T14:14:10.025Z</time></trkpt><trkpt lat="42.2615111" lon="14.1671199"><ele>318.2</ele><time>2026-05-01T14:14:11.025Z</time></trkpt><trkpt lat="42.2615898" lon="14.1671934"><ele>317.79999999999995</ele><time>2026-05-01T14:14:12.025Z</time></trkpt><trkpt lat="42.2616634" lon="14.167265"><ele>317.4</ele><time>2026-05-01T14:14:13.025Z</time></trkpt><trkpt lat="42.2617431" lon="14.1673625"><ele>317.0</ele><time>2026-05-01T14:14:14.025Z</time></trkpt><trkpt lat="42.2618093" lon="14.1674364"><ele>317.0</ele><time>2026-05-01T14:14:15.025Z</time></trkpt><trkpt lat="42.2618692" lon="14.1675276"><ele>317.0</ele><time>2026-05-01T14:14:16.025Z</time></trkpt><trkpt lat="42.261928" lon="14.1676074"><ele>317.0</ele><time>2026-05-01T14:14:17.025Z</time></trkpt><trkpt lat="42.2619893" lon="14.167683"><ele>317.0</ele><time>2026-05-01T14:14:18.025Z</time></trkpt><trkpt lat="42.2620554" lon="14.1677138"><ele>317.0</ele><time>2026-05-01T14:14:19.025Z</time></trkpt><trkpt lat="42.2621189" lon="14.1677385"><ele>317.0</ele><time>2026-05-01T14:14:20.025Z</time></trkpt><trkpt lat="42.2622243" lon="14.1677162"><ele>311.6</ele><time>2026-05-01T14:14:21.025Z</time></trkpt><trkpt lat="42.2623083" lon="14.1676883"><ele>306.2</ele><time>2026-05-01T14:14:22.025Z</time></trkpt><trkpt lat="42.2623933" lon="14.1676631"><ele>300.8</ele><time>2026-05-01T14:14:23.024Z</time></trkpt><trkpt lat="42.2624787" lon="14.1676416"><ele>295.4</ele><time>2026-05-01T14:14:24.025Z</time></trkpt><trkpt lat="42.2626045" lon="14.167629"><ele>290.0</ele><time>2026-05-01T14:14:26.025Z</time></trkpt><trkpt lat="42.262678" lon="14.1676608"><ele>290.0</ele><time>2026-05-01T14:14:27.025Z</time></trkpt><trkpt lat="42.2627883" lon="14.1677411"><ele>290.0</ele><time>2026-05-01T14:14:29.025Z</time></trkpt><trkpt lat="42.2628564" lon="14.1677855"><ele>290.0</ele><time>2026-05-01T14:14:30.024Z</time></trkpt><trkpt lat="42.2629244" lon="14.1678353"><ele>290.0</ele><time>2026-05-01T14:14:31.024Z</time></trkpt><trkpt lat="42.2629986" lon="14.1678845"><ele>290.0</ele><time>2026-05-01T14:14:32.025Z</time></trkpt><trkpt lat="42.2630859" lon="14.1679501"><ele>287.8</ele><time>2026-05-01T14:14:33.025Z</time></trkpt><trkpt lat="42.263174" lon="14.1680108"><ele>285.6</ele><time>2026-05-01T14:14:34.025Z</time></trkpt><trkpt lat="42.2632594" lon="14.1680743"><ele>283.4</ele><time>2026-05-01T14:14:35.025Z</time></trkpt><trkpt lat="42.2633399" lon="14.1681466"><ele>281.2</ele><time>2026-05-01T14:14:36.024Z</time></trkpt><trkpt lat="42.2634258" lon="14.1682108"><ele>279.0</ele><time>2026-05-01T14:14:37.025Z</time></trkpt><trkpt lat="42.26351" lon="14.1682717"><ele>279.0</ele><time>2026-05-01T14:14:38.025Z</time></trkpt><trkpt lat="42.2635861" lon="14.1683297"><ele>279.0</ele><time>2026-05-01T14:14:39.024Z</time></trkpt><trkpt lat="42.2636678" lon="14.1683735"><ele>279.0</ele><time>2026-05-01T14:14:40.025Z</time></trkpt><trkpt lat="42.2637445" lon="14.1684057"><ele>279.0</ele><time>2026-05-01T14:14:41.025Z</time></trkpt><trkpt lat="42.2638188" lon="14.168425"><ele>279.0</ele><time>2026-05-01T14:14:42.024Z</time></trkpt><trkpt lat="42.2638847" lon="14.1684326"><ele>279.0</ele><time>2026-05-01T14:14:43.025Z</time></trkpt><trkpt lat="42.2639968" lon="14.1684236"><ele>276.1666666666667</ele><time>2026-05-01T14:14:45.025Z</time></trkpt><trkpt lat="42.2640952" lon="14.1684113"><ele>273.3333333333333</ele><time>2026-05-01T14:14:47.025Z</time></trkpt><trkpt lat="42.264172" lon="14.1683843"><ele>270.5</ele><time>2026-05-01T14:14:49.025Z</time></trkpt><trkpt lat="42.264248" lon="14.1683129"><ele>267.66666666666663</ele><time>2026-05-01T14:14:52.025Z</time></trkpt><trkpt lat="42.2643173" lon="14.1682304"><ele>264.8333333333333</ele><time>2026-05-01T14:14:55.025Z</time></trkpt><trkpt lat="42.2643538" lon="14.1681478"><ele>262.0</ele><time>2026-05-01T14:14:57.025Z</time></trkpt><trkpt lat="42.2643929" lon="14.1680469"><ele>260.5</ele><time>2026-05-01T14:14:59.025Z</time></trkpt><trkpt lat="42.2644288" lon="14.1679342"><ele>259.0</ele><time>2026-05-01T14:15:01.024Z</time></trkpt><trkpt lat="42.2644795" lon="14.167818"><ele>257.5</ele><time>2026-05-01T14:15:03.025Z</time></trkpt><trkpt lat="42.2645374" lon="14.1676727"><ele>256.0</ele><time>2026-05-01T14:15:05.025Z</time></trkpt><trkpt lat="42.2645718" lon="14.1675967"><ele>254.49999999999997</ele><time>2026-05-01T14:15:06.024Z</time></trkpt><trkpt lat="42.26461" lon="14.1675198"><ele>253.0</ele><time>2026-05-01T14:15:07.025Z</time></trkpt><trkpt lat="42.2646489" lon="14.1674526"><ele>248.8</ele><time>2026-05-01T14:15:08.025Z</time></trkpt><trkpt lat="42.2647485" lon="14.1673598"><ele>244.60000000000002</ele><time>2026-05-01T14:15:10.024Z</time></trkpt><trkpt lat="42.2648421" lon="14.1673206"><ele>240.39999999999998</ele><time>2026-05-01T14:15:12.025Z</time></trkpt><trkpt lat="42.2649226" lon="14.1672897"><ele>236.2</ele><time>2026-05-01T14:15:14.025Z</time></trkpt><trkpt lat="42.2650087" lon="14.1672293"><ele>232.0</ele><time>2026-05-01T14:15:17.025Z</time></trkpt><trkpt lat="42.2650547" lon="14.1671711"><ele>230.6</ele><time>2026-05-01T14:15:19.025Z</time></trkpt><trkpt lat="42.2651072" lon="14.1670833"><ele>229.2</ele><time>2026-05-01T14:15:21.025Z</time></trkpt><trkpt lat="42.2651873" lon="14.1669975"><ele>227.8</ele><time>2026-05-01T14:15:23.025Z</time></trkpt><trkpt lat="42.2652705" lon="14.1668905"><ele>226.4</ele><time>2026-05-01T14:15:25.025Z</time></trkpt><trkpt lat="42.2653483" lon="14.1667655"><ele>225.0</ele><time>2026-05-01T14:15:27.025Z</time></trkpt><trkpt lat="42.265397" lon="14.1667009"><ele>225.0</ele><time>2026-05-01T14:15:28.025Z</time></trkpt><trkpt lat="42.2654492" lon="14.1666327"><ele>225.0</ele><time>2026-05-01T14:15:29.024Z</time></trkpt><trkpt lat="42.2655027" lon="14.16656"><ele>225.0</ele><time>2026-05-01T14:15:30.025Z</time></trkpt><trkpt lat="42.2655548" lon="14.1664899"><ele>225.0</ele><time>2026-05-01T14:15:31.025Z</time></trkpt><trkpt lat="42.2656077" lon="14.1664171"><ele>225.0</ele><time>2026-05-01T14:15:32.024Z</time></trkpt><trkpt lat="42.2656687" lon="14.1663481"><ele>225.0</ele><time>2026-05-01T14:15:33.025Z</time></trkpt><trkpt lat="42.2657523" lon="14.1662427"><ele>221.6</ele><time>2026-05-01T14:15:35.025Z</time></trkpt><trkpt lat="42.2658297" lon="14.1661245"><ele>218.2</ele><time>2026-05-01T14:15:37.025Z</time></trkpt><trkpt lat="42.2658874" lon="14.1659735"><ele>214.8</ele><time>2026-05-01T14:15:39.025Z</time></trkpt><trkpt lat="42.2659146" lon="14.1658917"><ele>211.4</ele><time>2026-05-01T14:15:40.024Z</time></trkpt><trkpt lat="42.2659346" lon="14.1658089"><ele>208.0</ele><time>2026-05-01T14:15:41.025Z</time></trkpt><trkpt lat="42.265972" lon="14.1656676"><ele>207.99999999999997</ele><time>2026-05-01T14:15:43.025Z</time></trkpt><trkpt lat="42.2660188" lon="14.1656009"><ele>208.0</ele><time>2026-05-01T14:15:45.025Z</time></trkpt><trkpt lat="42.2661223" lon="14.165626"><ele>208.0</ele><time>2026-05-01T14:15:48.025Z</time></trkpt><trkpt lat="42.2661713" lon="14.1657025"><ele>208.0</ele><time>2026-05-01T14:15:50.025Z</time></trkpt><trkpt lat="42.2662056" lon="14.1657863"><ele>207.99999999999997</ele><time>2026-05-01T14:15:52.025Z</time></trkpt><trkpt lat="42.2662281" lon="14.1659102"><ele>208.0</ele><time>2026-05-01T14:15:54.025Z</time></trkpt><trkpt lat="42.2662696" lon="14.1660617"><ele>208.0</ele><time>2026-05-01T14:15:56.025Z</time></trkpt><trkpt lat="42.2662906" lon="14.1661507"><ele>208.0</ele><time>2026-05-01T14:15:57.025Z</time></trkpt><trkpt lat="42.266311" lon="14.1662521"><ele>208.0</ele><time>2026-05-01T14:15:58.025Z</time></trkpt><trkpt lat="42.2663329" lon="14.1663523"><ele>208.0</ele><time>2026-05-01T14:15:59.025Z</time></trkpt><trkpt lat="42.2663515" lon="14.1664495"><ele>208.0</ele><time>2026-05-01T14:16:00.025Z</time></trkpt><trkpt lat="42.2663688" lon="14.1665363"><ele>208.0</ele><time>2026-05-01T14:16:01.025Z</time></trkpt><trkpt lat="42.2664024" lon="14.1666233"><ele>208.0</ele><time>2026-05-01T14:16:02.025Z</time></trkpt><trkpt lat="42.2664428" lon="14.1667133"><ele>206.99999999999997</ele><time>2026-05-01T14:16:03.025Z</time></trkpt><trkpt lat="42.2664864" lon="14.1668014"><ele>206.0</ele><time>2026-05-01T14:16:04.025Z</time></trkpt><trkpt lat="42.2665269" lon="14.1668945"><ele>205.0</ele><time>2026-05-01T14:16:05.025Z</time></trkpt><trkpt lat="42.2665677" lon="14.1669815"><ele>204.0</ele><time>2026-05-01T14:16:06.024Z</time></trkpt><trkpt lat="42.2666086" lon="14.1670758"><ele>202.99999999999997</ele><time>2026-05-01T14:16:07.025Z</time></trkpt><trkpt lat="42.2666503" lon="14.1671714"><ele>202.0</ele><time>2026-05-01T14:16:08.025Z</time></trkpt><trkpt lat="42.2666814" lon="14.1672637"><ele>202.0</ele><time>2026-05-01T14:16:09.025Z</time></trkpt><trkpt lat="42.2667132" lon="14.1673476"><ele>202.0</ele><time>2026-05-01T14:16:10.025Z</time></trkpt><trkpt lat="42.26675" lon="14.1674286"><ele>202.0</ele><time>2026-05-01T14:16:11.025Z</time></trkpt><trkpt lat="42.2667885" lon="14.1675131"><ele>202.0</ele><time>2026-05-01T14:16:12.025Z</time></trkpt><trkpt lat="42.2668212" lon="14.1676049"><ele>202.0</ele><time>2026-05-01T14:16:13.025Z</time></trkpt><trkpt lat="42.2668733" lon="14.1676876"><ele>202.0</ele><time>2026-05-01T14:16:14.025Z</time></trkpt><trkpt lat="42.2669183" lon="14.1677613"><ele>202.0</ele><time>2026-05-01T14:16:15.025Z</time></trkpt><trkpt lat="42.266965" lon="14.1678613"><ele>202.14285714285714</ele><time>2026-05-01T14:16:16.025Z</time></trkpt><trkpt lat="42.267011" lon="14.1679399"><ele>202.28571428571428</ele><time>2026-05-01T14:16:17.025Z</time></trkpt><trkpt lat="42.267054" lon="14.1680178"><ele>202.42857142857144</ele><time>2026-05-01T14:16:18.024Z</time></trkpt><trkpt lat="42.2671006" lon="14.1680955"><ele>202.57142857142856</ele><time>2026-05-01T14:16:19.025Z</time></trkpt><trkpt lat="42.2671451" lon="14.1681591"><ele>202.71428571428572</ele><time>2026-05-01T14:16:20.025Z</time></trkpt><trkpt lat="42.2672056" lon="14.1682295"><ele>202.85714285714286</ele><time>2026-05-01T14:16:21.024Z</time></trkpt><trkpt lat="42.2672671" lon="14.1682978"><ele>203.0</ele><time>2026-05-01T14:16:22.025Z</time></trkpt><trkpt lat="42.2673251" lon="14.1683647"><ele>200.16666666666669</ele><time>2026-05-01T14:16:23.025Z</time></trkpt><trkpt lat="42.2673791" lon="14.1684416"><ele>197.33333333333334</ele><time>2026-05-01T14:16:24.025Z</time></trkpt><trkpt lat="42.2674378" lon="14.1685205"><ele>194.5</ele><time>2026-05-01T14:16:25.025Z</time></trkpt><trkpt lat="42.2674922" lon="14.1685995"><ele>191.66666666666669</ele><time>2026-05-01T14:16:26.025Z</time></trkpt><trkpt lat="42.2675411" lon="14.1686643"><ele>188.83333333333334</ele><time>2026-05-01T14:16:27.025Z</time></trkpt><trkpt lat="42.2676282" lon="14.1687317"><ele>186.0</ele><time>2026-05-01T14:16:29.025Z</time></trkpt><trkpt lat="42.2676778" lon="14.1686577"><ele>186.0</ele><time>2026-05-01T14:16:32.025Z</time></trkpt><trkpt lat="42.2676686" lon="14.1685678"><ele>186.0</ele><time>2026-05-01T14:16:34.025Z</time></trkpt><trkpt lat="42.2676736" lon="14.1684271"><ele>186.0</ele><time>2026-05-01T14:16:36.025Z</time></trkpt><trkpt lat="42.2676931" lon="14.1682652"><ele>186.0</ele><time>2026-05-01T14:16:38.025Z</time></trkpt><trkpt lat="42.2677096" lon="14.1681414"><ele>186.0</ele><time>2026-05-01T14:16:40.025Z</time></trkpt><trkpt lat="42.2677138" lon="14.1680428"><ele>185.33333333333334</ele><time>2026-05-01T14:16:43.025Z</time></trkpt><trkpt lat="42.2677176" lon="14.1679495"><ele>184.66666666666666</ele><time>2026-05-01T14:16:47.025Z</time></trkpt><trkpt lat="42.2677245" lon="14.1678267"><ele>184.0</ele><time>2026-05-01T14:16:50.025Z</time></trkpt><trkpt lat="42.2677197" lon="14.1677174"><ele>183.33333333333331</ele><time>2026-05-01T14:16:52.025Z</time></trkpt><trkpt lat="42.2677043" lon="14.1675744"><ele>182.66666666666666</ele><time>2026-05-01T14:16:54.025Z</time></trkpt><trkpt lat="42.2676986" lon="14.167487"><ele>182.0</ele><time>2026-05-01T14:16:55.025Z</time></trkpt><trkpt lat="42.2676948" lon="14.1673932"><ele>181.16666666666666</ele><time>2026-05-01T14:16:56.025Z</time></trkpt><trkpt lat="42.2676903" lon="14.1672999"><ele>180.33333333333331</ele><time>2026-05-01T14:16:57.024Z</time></trkpt><trkpt lat="42.2676851" lon="14.167208"><ele>179.5</ele><time>2026-05-01T14:16:58.025Z</time></trkpt><trkpt lat="42.2676789" lon="14.1671035"><ele>178.66666666666666</ele><time>2026-05-01T14:16:59.024Z</time></trkpt><trkpt lat="42.2676746" lon="14.1670024"><ele>177.83333333333334</ele><time>2026-05-01T14:17:00.025Z</time></trkpt><trkpt lat="42.2676723" lon="14.1668993"><ele>177.0</ele><time>2026-05-01T14:17:01.025Z</time></trkpt><trkpt lat="42.2676606" lon="14.166751"><ele>177.0</ele><time>2026-05-01T14:17:03.025Z</time></trkpt><trkpt lat="42.2676666" lon="14.166591"><ele>177.0</ele><time>2026-05-01T14:17:05.025Z</time></trkpt><trkpt lat="42.267674" lon="14.1665046"><ele>177.0</ele><time>2026-05-01T14:17:06.024Z</time></trkpt><trkpt lat="42.267687" lon="14.1664153"><ele>177.0</ele><time>2026-05-01T14:17:07.024Z</time></trkpt><trkpt lat="42.267719" lon="14.1662551"><ele>177.0</ele><time>2026-05-01T14:17:09.025Z</time></trkpt><trkpt lat="42.267796" lon="14.1661188"><ele>176.66666666666666</ele><time>2026-05-01T14:17:11.025Z</time></trkpt><trkpt lat="42.2678446" lon="14.1660526"><ele>176.33333333333334</ele><time>2026-05-01T14:17:12.025Z</time></trkpt><trkpt lat="42.267901" lon="14.1659915"><ele>176.0</ele><time>2026-05-01T14:17:13.025Z</time></trkpt><trkpt lat="42.2680105" lon="14.1658911"><ele>175.66666666666669</ele><time>2026-05-01T14:17:15.025Z</time></trkpt><trkpt lat="42.2680545" lon="14.1658164"><ele>175.33333333333334</ele><time>2026-05-01T14:17:16.025Z</time></trkpt><trkpt lat="42.2680865" lon="14.1657311"><ele>175.0</ele><time>2026-05-01T14:17:17.025Z</time></trkpt><trkpt lat="42.2681174" lon="14.1655789"><ele>174.0</ele><time>2026-05-01T14:17:19.025Z</time></trkpt><trkpt lat="42.2680967" lon="14.1654466"><ele>173.0</ele><time>2026-05-01T14:17:22.025Z</time></trkpt><trkpt lat="42.2680891" lon="14.16536"><ele>172.0</ele><time>2026-05-01T14:17:23.025Z</time></trkpt><trkpt lat="42.2680848" lon="14.1652618"><ele>171.0</ele><time>2026-05-01T14:17:24.025Z</time></trkpt><trkpt lat="42.2680717" lon="14.1651073"><ele>170.0</ele><time>2026-05-01T14:17:26.025Z</time></trkpt><trkpt lat="42.2680681" lon="14.1649564"><ele>167.8</ele><time>2026-05-01T14:17:28.025Z</time></trkpt><trkpt lat="42.2680649" lon="14.1647979"><ele>165.6</ele><time>2026-05-01T14:17:30.025Z</time></trkpt><trkpt lat="42.268063" lon="14.1647113"><ele>163.4</ele><time>2026-05-01T14:17:31.025Z</time></trkpt><trkpt lat="42.2680528" lon="14.164557"><ele>161.2</ele><time>2026-05-01T14:17:33.025Z</time></trkpt><trkpt lat="42.2680462" lon="14.164472"><ele>159.0</ele><time>2026-05-01T14:17:34.025Z</time></trkpt><trkpt lat="42.2680369" lon="14.1643099"><ele>159.0</ele><time>2026-05-01T14:17:36.025Z</time></trkpt><trkpt lat="42.2680304" lon="14.1642164"><ele>159.0</ele><time>2026-05-01T14:17:37.025Z</time></trkpt><trkpt lat="42.2680186" lon="14.1641258"><ele>159.0</ele><time>2026-05-01T14:17:38.025Z</time></trkpt><trkpt lat="42.2680202" lon="14.1639513"><ele>159.0</ele><time>2026-05-01T14:17:40.024Z</time></trkpt><trkpt lat="42.2680162" lon="14.1638585"><ele>159.0</ele><time>2026-05-01T14:17:41.025Z</time></trkpt><trkpt lat="42.2680266" lon="14.1637723"><ele>159.0</ele><time>2026-05-01T14:17:42.025Z</time></trkpt><trkpt lat="42.268041" lon="14.1636766"><ele>156.4</ele><time>2026-05-01T14:17:43.025Z</time></trkpt><trkpt lat="42.2680567" lon="14.1635942"><ele>153.8</ele><time>2026-05-01T14:17:44.024Z</time></trkpt><trkpt lat="42.2681034" lon="14.1634555"><ele>151.2</ele><time>2026-05-01T14:17:46.025Z</time></trkpt><trkpt lat="42.2681471" lon="14.1633151"><ele>148.6</ele><time>2026-05-01T14:17:48.025Z</time></trkpt><trkpt lat="42.2681849" lon="14.1631974"><ele>146.0</ele><time>2026-05-01T14:17:50.025Z</time></trkpt><trkpt lat="42.2682399" lon="14.1630694"><ele>146.0</ele><time>2026-05-01T14:17:52.025Z</time></trkpt><trkpt lat="42.2682761" lon="14.1629909"><ele>146.0</ele><time>2026-05-01T14:17:53.025Z</time></trkpt><trkpt lat="42.2683159" lon="14.1629079"><ele>146.0</ele><time>2026-05-01T14:17:54.024Z</time></trkpt><trkpt lat="42.268358" lon="14.1628058"><ele>146.0</ele><time>2026-05-01T14:17:55.025Z</time></trkpt><trkpt lat="42.2684116" lon="14.1626834"><ele>146.0</ele><time>2026-05-01T14:17:56.025Z</time></trkpt><trkpt lat="42.2684738" lon="14.1625528"><ele>146.0</ele><time>2026-05-01T14:17:57.025Z</time></trkpt><trkpt lat="42.2685403" lon="14.1624534"><ele>146.0</ele><time>2026-05-01T14:17:58.024Z</time></trkpt><trkpt lat="42.2686018" lon="14.1623854"><ele>146.0</ele><time>2026-05-01T14:17:59.025Z</time></trkpt><trkpt lat="42.2686651" lon="14.1623277"><ele>146.0</ele><time>2026-05-01T14:18:00.025Z</time></trkpt><trkpt lat="42.2687381" lon="14.1622939"><ele>146.0</ele><time>2026-05-01T14:18:01.025Z</time></trkpt><trkpt lat="42.2688251" lon="14.1622876"><ele>146.0</ele><time>2026-05-01T14:18:02.025Z</time></trkpt><trkpt lat="42.2689" lon="14.1622954"><ele>146.0</ele><time>2026-05-01T14:18:03.025Z</time></trkpt><trkpt lat="42.2689814" lon="14.1622933"><ele>148.0</ele><time>2026-05-01T14:18:04.025Z</time></trkpt><trkpt lat="42.2690819" lon="14.1622999"><ele>150.0</ele><time>2026-05-01T14:18:06.025Z</time></trkpt><trkpt lat="42.2691737" lon="14.162236"><ele>152.0</ele><time>2026-05-01T14:18:08.025Z</time></trkpt><trkpt lat="42.2692198" lon="14.1620613"><ele>154.0</ele><time>2026-05-01T14:18:10.025Z</time></trkpt><trkpt lat="42.269223" lon="14.161962"><ele>156.0</ele><time>2026-05-01T14:18:11.025Z</time></trkpt><trkpt lat="42.2692151" lon="14.161837"><ele>156.0</ele><time>2026-05-01T14:18:12.025Z</time></trkpt><trkpt lat="42.2692112" lon="14.1617152"><ele>156.0</ele><time>2026-05-01T14:18:13.025Z</time></trkpt><trkpt lat="42.2691903" lon="14.1615827"><ele>156.0</ele><time>2026-05-01T14:18:14.025Z</time></trkpt><trkpt lat="42.2691799" lon="14.1614666"><ele>156.0</ele><time>2026-05-01T14:18:15.025Z</time></trkpt><trkpt lat="42.2691631" lon="14.1613263"><ele>156.0</ele><time>2026-05-01T14:18:16.024Z</time></trkpt><trkpt lat="42.269151" lon="14.1612071"><ele>157.16666666666666</ele><time>2026-05-01T14:18:17.025Z</time></trkpt><trkpt lat="42.2691409" lon="14.1611069"><ele>158.33333333333334</ele><time>2026-05-01T14:18:18.025Z</time></trkpt><trkpt lat="42.2691354" lon="14.1610063"><ele>159.5</ele><time>2026-05-01T14:18:19.025Z</time></trkpt><trkpt lat="42.2691193" lon="14.1609099"><ele>160.66666666666669</ele><time>2026-05-01T14:18:20.025Z</time></trkpt><trkpt lat="42.2690768" lon="14.1608451"><ele>161.83333333333334</ele><time>2026-05-01T14:18:21.025Z</time></trkpt><trkpt lat="42.2690139" lon="14.1608211"><ele>163.0</ele><time>2026-05-01T14:18:22.025Z</time></trkpt><trkpt lat="42.2688836" lon="14.1607708"><ele>164.8</ele><time>2026-05-01T14:18:24.025Z</time></trkpt><trkpt lat="42.2687838" lon="14.1607737"><ele>166.60000000000002</ele><time>2026-05-01T14:18:25.024Z</time></trkpt><trkpt lat="42.2686925" lon="14.1607808"><ele>168.39999999999998</ele><time>2026-05-01T14:18:26.025Z</time></trkpt><trkpt lat="42.2685986" lon="14.160787"><ele>170.2</ele><time>2026-05-01T14:18:27.024Z</time></trkpt><trkpt lat="42.2685177" lon="14.1608159"><ele>172.0</ele><time>2026-05-01T14:18:28.025Z</time></trkpt><trkpt lat="42.268406" lon="14.1608462"><ele>172.0</ele><time>2026-05-01T14:18:30.025Z</time></trkpt><trkpt lat="42.2683373" lon="14.1608562"><ele>172.0</ele><time>2026-05-01T14:18:31.024Z</time></trkpt><trkpt lat="42.2682444" lon="14.1609"><ele>172.0</ele><time>2026-05-01T14:18:33.025Z</time></trkpt><trkpt lat="42.2681511" lon="14.1609291"><ele>172.0</ele><time>2026-05-01T14:18:35.025Z</time></trkpt><trkpt lat="42.2680353" lon="14.1609478"><ele>172.0</ele><time>2026-05-01T14:18:37.024Z</time></trkpt><trkpt lat="42.2679153" lon="14.1609545"><ele>172.0</ele><time>2026-05-01T14:18:39.025Z</time></trkpt><trkpt lat="42.2678515" lon="14.1609506"><ele>172.0</ele><time>2026-05-01T14:18:40.025Z</time></trkpt><trkpt lat="42.2677347" lon="14.1609284"><ele>172.0</ele><time>2026-05-01T14:18:42.025Z</time></trkpt><trkpt lat="42.2676505" lon="14.1608894"><ele>172.0</ele><time>2026-05-01T14:18:44.025Z</time></trkpt><trkpt lat="42.2676274" lon="14.1607807"><ele>172.0</ele><time>2026-05-01T14:18:46.025Z</time></trkpt><trkpt lat="42.2676733" lon="14.1606577"><ele>174.83333333333334</ele><time>2026-05-01T14:18:48.025Z</time></trkpt><trkpt lat="42.2677209" lon="14.160598"><ele>177.66666666666669</ele><time>2026-05-01T14:18:49.025Z</time></trkpt><trkpt lat="42.2677965" lon="14.1605155"><ele>180.5</ele><time>2026-05-01T14:18:50.024Z</time></trkpt><trkpt lat="42.2678736" lon="14.160435"><ele>183.33333333333334</ele><time>2026-05-01T14:18:51.024Z</time></trkpt><trkpt lat="42.2679388" lon="14.1603523"><ele>186.16666666666666</ele><time>2026-05-01T14:18:52.024Z</time></trkpt><trkpt lat="42.2679904" lon="14.1602905"><ele>189.0</ele><time>2026-05-01T14:18:53.025Z</time></trkpt><trkpt lat="42.2680495" lon="14.1602015"><ele>188.79999999999998</ele><time>2026-05-01T14:18:54.025Z</time></trkpt><trkpt lat="42.2681123" lon="14.1600957"><ele>188.6</ele><time>2026-05-01T14:18:55.025Z</time></trkpt><trkpt lat="42.2681774" lon="14.1599654"><ele>188.4</ele><time>2026-05-01T14:18:56.025Z</time></trkpt><trkpt lat="42.268236" lon="14.1598431"><ele>188.2</ele><time>2026-05-01T14:18:57.025Z</time></trkpt><trkpt lat="42.26829" lon="14.1597508"><ele>188.0</ele><time>2026-05-01T14:18:58.024Z</time></trkpt><trkpt lat="42.2683389" lon="14.1596135"><ele>190.33333333333331</ele><time>2026-05-01T14:18:59.025Z</time></trkpt><trkpt lat="42.2683683" lon="14.1595122"><ele>192.66666666666666</ele><time>2026-05-01T14:19:00.025Z</time></trkpt><trkpt lat="42.2683887" lon="14.1594056"><ele>195.0</ele><time>2026-05-01T14:19:01.025Z</time></trkpt><trkpt lat="42.2684093" lon="14.1592946"><ele>197.33333333333331</ele><time>2026-05-01T14:19:02.025Z</time></trkpt><trkpt lat="42.2684132" lon="14.1591858"><ele>199.66666666666666</ele><time>2026-05-01T14:19:03.025Z</time></trkpt><trkpt lat="42.2683606" lon="14.1590439"><ele>202.0</ele><time>2026-05-01T14:19:04.025Z</time></trkpt><trkpt lat="42.2683377" lon="14.1589181"><ele>204.2</ele><time>2026-05-01T14:19:05.024Z</time></trkpt><trkpt lat="42.2683126" lon="14.1587726"><ele>206.39999999999998</ele><time>2026-05-01T14:19:06.024Z</time></trkpt><trkpt lat="42.2683046" lon="14.1586187"><ele>208.60000000000002</ele><time>2026-05-01T14:19:07.025Z</time></trkpt><trkpt lat="42.2682871" lon="14.1584859"><ele>210.8</ele><time>2026-05-01T14:19:08.024Z</time></trkpt><trkpt lat="42.2682862" lon="14.1583486"><ele>213.0</ele><time>2026-05-01T14:19:09.025Z</time></trkpt><trkpt lat="42.2682891" lon="14.1582071"><ele>214.5</ele><time>2026-05-01T14:19:10.025Z</time></trkpt><trkpt lat="42.2682963" lon="14.158073"><ele>216.0</ele><time>2026-05-01T14:19:11.025Z</time></trkpt><trkpt lat="42.2682982" lon="14.1579322"><ele>217.5</ele><time>2026-05-01T14:19:12.025Z</time></trkpt><trkpt lat="42.2683106" lon="14.1578425"><ele>219.0</ele><time>2026-05-01T14:19:13.025Z</time></trkpt><trkpt lat="42.2683279" lon="14.1577456"><ele>220.5</ele><time>2026-05-01T14:19:14.025Z</time></trkpt><trkpt lat="42.2683658" lon="14.1576197"><ele>222.0</ele><time>2026-05-01T14:19:16.025Z</time></trkpt><trkpt lat="42.2683861" lon="14.1575379"><ele>222.0</ele><time>2026-05-01T14:19:18.025Z</time></trkpt><trkpt lat="42.268429" lon="14.1574473"><ele>222.0</ele><time>2026-05-01T14:19:20.025Z</time></trkpt><trkpt lat="42.2684849" lon="14.1573352"><ele>222.0</ele><time>2026-05-01T14:19:22.025Z</time></trkpt><trkpt lat="42.2685431" lon="14.1572615"><ele>222.0</ele><time>2026-05-01T14:19:24.025Z</time></trkpt><trkpt lat="42.2686469" lon="14.1572089"><ele>222.0</ele><time>2026-05-01T14:19:26.025Z</time></trkpt><trkpt lat="42.2687187" lon="14.1572012"><ele>222.0</ele><time>2026-05-01T14:19:27.025Z</time></trkpt><trkpt lat="42.2687937" lon="14.157186"><ele>225.2</ele><time>2026-05-01T14:19:28.024Z</time></trkpt><trkpt lat="42.268923" lon="14.1572293"><ele>228.39999999999998</ele><time>2026-05-01T14:19:29.025Z</time></trkpt><trkpt lat="42.2690101" lon="14.1572415"><ele>231.60000000000002</ele><time>2026-05-01T14:19:30.025Z</time></trkpt><trkpt lat="42.2690954" lon="14.1572553"><ele>234.8</ele><time>2026-05-01T14:19:31.024Z</time></trkpt><trkpt lat="42.2691734" lon="14.1572657"><ele>238.0</ele><time>2026-05-01T14:19:32.025Z</time></trkpt><trkpt lat="42.2692448" lon="14.1572759"><ele>238.25</ele><time>2026-05-01T14:19:33.025Z</time></trkpt><trkpt lat="42.2693603" lon="14.1573039"><ele>238.5</ele><time>2026-05-01T14:19:35.025Z</time></trkpt><trkpt lat="42.2694677" lon="14.1573177"><ele>238.75</ele><time>2026-05-01T14:19:37.024Z</time></trkpt><trkpt lat="42.2695348" lon="14.1572959"><ele>239.0</ele><time>2026-05-01T14:19:39.025Z</time></trkpt><trkpt lat="42.269688" lon="14.1571997"><ele>238.39999999999998</ele><time>2026-05-01T14:19:41.025Z</time></trkpt><trkpt lat="42.2697818" lon="14.1571013"><ele>237.79999999999998</ele><time>2026-05-01T14:19:42.025Z</time></trkpt><trkpt lat="42.269857" lon="14.1570099"><ele>237.20000000000002</ele><time>2026-05-01T14:19:43.024Z</time></trkpt><trkpt lat="42.2699141" lon="14.1569129"><ele>236.60000000000002</ele><time>2026-05-01T14:19:44.025Z</time></trkpt><trkpt lat="42.2699629" lon="14.1568082"><ele>236.0</ele><time>2026-05-01T14:19:45.025Z</time></trkpt><trkpt lat="42.2700037" lon="14.156668"><ele>238.25</ele><time>2026-05-01T14:19:46.025Z</time></trkpt><trkpt lat="42.270032" lon="14.1564983"><ele>240.5</ele><time>2026-05-01T14:19:47.025Z</time></trkpt><trkpt lat="42.270072" lon="14.1563383"><ele>242.75</ele><time>2026-05-01T14:19:48.025Z</time></trkpt><trkpt lat="42.2701249" lon="14.1561784"><ele>245.0</ele><time>2026-05-01T14:19:49.025Z</time></trkpt><trkpt lat="42.2701824" lon="14.1560332"><ele>245.0</ele><time>2026-05-01T14:19:50.025Z</time></trkpt><trkpt lat="42.2702314" lon="14.1559096"><ele>245.0</ele><time>2026-05-01T14:19:51.025Z</time></trkpt><trkpt lat="42.2702717" lon="14.1557997"><ele>245.0</ele><time>2026-05-01T14:19:52.025Z</time></trkpt><trkpt lat="42.2702902" lon="14.1557055"><ele>245.0</ele><time>2026-05-01T14:19:53.025Z</time></trkpt><trkpt lat="42.2702594" lon="14.1555562"><ele>245.0</ele><time>2026-05-01T14:19:55.025Z</time></trkpt><trkpt lat="42.2701645" lon="14.155502"><ele>246.16666666666669</ele><time>2026-05-01T14:19:57.025Z</time></trkpt><trkpt lat="42.2700977" lon="14.1555128"><ele>247.33333333333334</ele><time>2026-05-01T14:19:58.025Z</time></trkpt><trkpt lat="42.2700302" lon="14.1555285"><ele>248.5</ele><time>2026-05-01T14:19:59.025Z</time></trkpt><trkpt lat="42.2699564" lon="14.155558"><ele>249.66666666666669</ele><time>2026-05-01T14:20:00.025Z</time></trkpt><trkpt lat="42.2698935" lon="14.1555775"><ele>250.83333333333334</ele><time>2026-05-01T14:20:01.025Z</time></trkpt><trkpt lat="42.2697956" lon="14.1555622"><ele>252.0</ele><time>2026-05-01T14:20:03.025Z</time></trkpt><trkpt lat="42.2697238" lon="14.1554285"><ele>252.0</ele><time>2026-05-01T14:20:05.025Z</time></trkpt><trkpt lat="42.2697216" lon="14.155332"><ele>252.0</ele><time>2026-05-01T14:20:06.024Z</time></trkpt><trkpt lat="42.2697475" lon="14.1552349"><ele>252.0</ele><time>2026-05-01T14:20:07.024Z</time></trkpt><trkpt lat="42.2697964" lon="14.155153"><ele>252.0</ele><time>2026-05-01T14:20:08.025Z</time></trkpt><trkpt lat="42.2698442" lon="14.1550771"><ele>252.0</ele><time>2026-05-01T14:20:09.024Z</time></trkpt><trkpt lat="42.2699173" lon="14.1549282"><ele>252.0</ele><time>2026-05-01T14:20:11.024Z</time></trkpt><trkpt lat="42.2699709" lon="14.1548191"><ele>254.39999999999998</ele><time>2026-05-01T14:20:12.024Z</time></trkpt><trkpt lat="42.2700321" lon="14.1546883"><ele>256.79999999999995</ele><time>2026-05-01T14:20:13.025Z</time></trkpt><trkpt lat="42.270095" lon="14.1545571"><ele>259.2</ele><time>2026-05-01T14:20:14.025Z</time></trkpt><trkpt lat="42.2701486" lon="14.1544387"><ele>261.59999999999997</ele><time>2026-05-01T14:20:15.025Z</time></trkpt><trkpt lat="42.2702054" lon="14.1543304"><ele>264.0</ele><time>2026-05-01T14:20:16.025Z</time></trkpt><trkpt lat="42.2702592" lon="14.1542284"><ele>264.0</ele><time>2026-05-01T14:20:17.025Z</time></trkpt><trkpt lat="42.2703185" lon="14.1541188"><ele>264.0</ele><time>2026-05-01T14:20:18.025Z</time></trkpt><trkpt lat="42.270391" lon="14.1540091"><ele>264.0</ele><time>2026-05-01T14:20:19.025Z</time></trkpt><trkpt lat="42.270478" lon="14.1538917"><ele>264.0</ele><time>2026-05-01T14:20:20.025Z</time></trkpt><trkpt lat="42.2705723" lon="14.1537639"><ele>265.5</ele><time>2026-05-01T14:20:21.025Z</time></trkpt><trkpt lat="42.2706579" lon="14.1536441"><ele>267.0</ele><time>2026-05-01T14:20:22.024Z</time></trkpt><trkpt lat="42.2707382" lon="14.1535417"><ele>268.5</ele><time>2026-05-01T14:20:23.025Z</time></trkpt><trkpt lat="42.270814" lon="14.1534337"><ele>270.0</ele><time>2026-05-01T14:20:24.024Z</time></trkpt><trkpt lat="42.270883" lon="14.1533202"><ele>270.0</ele><time>2026-05-01T14:20:25.025Z</time></trkpt><trkpt lat="42.2709461" lon="14.1532071"><ele>270.0</ele><time>2026-05-01T14:20:26.025Z</time></trkpt><trkpt lat="42.2709951" lon="14.1531125"><ele>270.0</ele><time>2026-05-01T14:20:27.024Z</time></trkpt><trkpt lat="42.2710371" lon="14.1530007"><ele>270.0</ele><time>2026-05-01T14:20:28.025Z</time></trkpt><trkpt lat="42.2710661" lon="14.1529044"><ele>270.0</ele><time>2026-05-01T14:20:29.025Z</time></trkpt><trkpt lat="42.2710871" lon="14.1528003"><ele>270.0</ele><time>2026-05-01T14:20:30.025Z</time></trkpt><trkpt lat="42.2711116" lon="14.1526972"><ele>269.1666666666667</ele><time>2026-05-01T14:20:33.025Z</time></trkpt><trkpt lat="42.2711959" lon="14.1526323"><ele>268.3333333333333</ele><time>2026-05-01T14:20:44.025Z</time></trkpt><trkpt lat="42.2712584" lon="14.1526014"><ele>267.5</ele><time>2026-05-01T14:20:45.025Z</time></trkpt><trkpt lat="42.2713397" lon="14.1525781"><ele>266.66666666666663</ele><time>2026-05-01T14:20:46.024Z</time></trkpt><trkpt lat="42.2714246" lon="14.152536"><ele>265.8333333333333</ele><time>2026-05-01T14:20:47.025Z</time></trkpt><trkpt lat="42.2715086" lon="14.152492"><ele>265.0</ele><time>2026-05-01T14:20:48.025Z</time></trkpt><trkpt lat="42.2715878" lon="14.15245"><ele>265.0</ele><time>2026-05-01T14:20:49.025Z</time></trkpt><trkpt lat="42.271663" lon="14.1524162"><ele>265.0</ele><time>2026-05-01T14:20:50.024Z</time></trkpt><trkpt lat="42.271729" lon="14.152385"><ele>265.0</ele><time>2026-05-01T14:20:51.024Z</time></trkpt><trkpt lat="42.2718286" lon="14.1523722"><ele>265.0</ele><time>2026-05-01T14:20:53.025Z</time></trkpt><trkpt lat="42.271908" lon="14.1523827"><ele>265.0</ele><time>2026-05-01T14:20:55.025Z</time></trkpt><trkpt lat="42.2719434" lon="14.1522918"><ele>265.0</ele><time>2026-05-01T14:20:58.025Z</time></trkpt><trkpt lat="42.2718347" lon="14.1523069"><ele>265.0</ele><time>2026-05-01T14:21:01.025Z</time></trkpt><trkpt lat="42.2717654" lon="14.1523473"><ele>265.0</ele><time>2026-05-01T14:21:02.025Z</time></trkpt><trkpt lat="42.271681" lon="14.1523856"><ele>265.0</ele><time>2026-05-01T14:21:03.025Z</time></trkpt><trkpt lat="42.2715896" lon="14.1524248"><ele>265.0</ele><time>2026-05-01T14:21:04.025Z</time></trkpt><trkpt lat="42.2714916" lon="14.1524753"><ele>265.0</ele><time>2026-05-01T14:21:05.024Z</time></trkpt><trkpt lat="42.271401" lon="14.152509"><ele>267.3333333333333</ele><time>2026-05-01T14:21:06.024Z</time></trkpt><trkpt lat="42.2713152" lon="14.1525469"><ele>269.66666666666663</ele><time>2026-05-01T14:21:07.025Z</time></trkpt><trkpt lat="42.2712463" lon="14.1525717"><ele>272.0</ele><time>2026-05-01T14:21:08.025Z</time></trkpt><trkpt lat="42.271165" lon="14.1526114"><ele>274.3333333333333</ele><time>2026-05-01T14:21:10.025Z</time></trkpt><trkpt lat="42.2711092" lon="14.1527042"><ele>276.6666666666667</ele><time>2026-05-01T14:21:24.025Z</time></trkpt><trkpt lat="42.2711638" lon="14.1527712"><ele>279.0</ele><time>2026-05-01T14:21:31.025Z</time></trkpt><trkpt lat="42.2712272" lon="14.1527433"><ele>279.0</ele><time>2026-05-01T14:21:33.024Z</time></trkpt><trkpt lat="42.2713154" lon="14.1527136"><ele>279.0</ele><time>2026-05-01T14:21:36.025Z</time></trkpt><trkpt lat="42.271402" lon="14.1527133"><ele>279.0</ele><time>2026-05-01T14:21:38.025Z</time></trkpt><trkpt lat="42.271491" lon="14.1527072"><ele>279.0</ele><time>2026-05-01T14:21:40.025Z</time></trkpt><trkpt lat="42.271572" lon="14.1527061"><ele>279.0</ele><time>2026-05-01T14:21:42.025Z</time></trkpt><trkpt lat="42.2716562" lon="14.1526799"><ele>279.0</ele><time>2026-05-01T14:21:44.025Z</time></trkpt><trkpt lat="42.2717296" lon="14.1526694"><ele>276.6666666666667</ele><time>2026-05-01T14:21:46.025Z</time></trkpt><trkpt lat="42.2718065" lon="14.1526886"><ele>274.3333333333333</ele><time>2026-05-01T14:21:48.025Z</time></trkpt><trkpt lat="42.2718878" lon="14.1527336"><ele>272.0</ele><time>2026-05-01T14:21:50.025Z</time></trkpt><trkpt lat="42.2719563" lon="14.1527922"><ele>269.66666666666663</ele><time>2026-05-01T14:21:52.025Z</time></trkpt><trkpt lat="42.2720092" lon="14.1528702"><ele>267.3333333333333</ele><time>2026-05-01T14:21:54.025Z</time></trkpt><trkpt lat="42.2720545" lon="14.152937"><ele>265.0</ele><time>2026-05-01T14:21:56.025Z</time></trkpt><trkpt lat="42.2721045" lon="14.1530225"><ele>264.99999999999994</ele><time>2026-05-01T14:21:59.025Z</time></trkpt><trkpt lat="42.2721557" lon="14.1531247"><ele>265.0</ele><time>2026-05-01T14:22:02.025Z</time></trkpt><trkpt lat="42.2721942" lon="14.1531977"><ele>265.0</ele><time>2026-05-01T14:22:04.025Z</time></trkpt><trkpt lat="42.2722379" lon="14.1532702"><ele>265.0</ele><time>2026-05-01T14:22:06.025Z</time></trkpt><trkpt lat="42.2722774" lon="14.153344"><ele>265.0</ele><time>2026-05-01T14:22:08.025Z</time></trkpt><trkpt lat="42.2723323" lon="14.153414"><ele>264.99999999999994</ele><time>2026-05-01T14:22:10.025Z</time></trkpt><trkpt lat="42.2723896" lon="14.1534838"><ele>265.0</ele><time>2026-05-01T14:22:12.025Z</time></trkpt><trkpt lat="42.2724414" lon="14.1535542"><ele>261.71428571428567</ele><time>2026-05-01T14:22:14.025Z</time></trkpt><trkpt lat="42.272478" lon="14.1536268"><ele>258.42857142857144</ele><time>2026-05-01T14:22:16.025Z</time></trkpt><trkpt lat="42.2725173" lon="14.1537047"><ele>255.1428571428571</ele><time>2026-05-01T14:22:18.025Z</time></trkpt><trkpt lat="42.272558" lon="14.1537818"><ele>251.85714285714283</ele><time>2026-05-01T14:22:20.025Z</time></trkpt><trkpt lat="42.2726015" lon="14.153863"><ele>248.57142857142856</ele><time>2026-05-01T14:22:22.025Z</time></trkpt><trkpt lat="42.2726583" lon="14.1539272"><ele>245.28571428571428</ele><time>2026-05-01T14:22:24.025Z</time></trkpt><trkpt lat="42.2727308" lon="14.153992"><ele>242.0</ele><time>2026-05-01T14:22:26.025Z</time></trkpt><trkpt lat="42.2727936" lon="14.1540669"><ele>239.39999999999998</ele><time>2026-05-01T14:22:28.025Z</time></trkpt><trkpt lat="42.2728654" lon="14.1541299"><ele>236.79999999999998</ele><time>2026-05-01T14:22:30.024Z</time></trkpt><trkpt lat="42.2729624" lon="14.1541693"><ele>234.2</ele><time>2026-05-01T14:22:32.024Z</time></trkpt><trkpt lat="42.2730501" lon="14.1542178"><ele>231.6</ele><time>2026-05-01T14:22:34.025Z</time></trkpt><trkpt lat="42.2731532" lon="14.1542701"><ele>229.0</ele><time>2026-05-01T14:22:36.025Z</time></trkpt><trkpt lat="42.2732371" lon="14.1543196"><ele>226.85714285714286</ele><time>2026-05-01T14:22:38.025Z</time></trkpt><trkpt lat="42.2733151" lon="14.1543783"><ele>224.71428571428572</ele><time>2026-05-01T14:22:40.025Z</time></trkpt><trkpt lat="42.2733635" lon="14.154477"><ele>222.57142857142858</ele><time>2026-05-01T14:22:42.025Z</time></trkpt><trkpt lat="42.2733935" lon="14.1545683"><ele>220.42857142857144</ele><time>2026-05-01T14:22:44.025Z</time></trkpt><trkpt lat="42.2734194" lon="14.1546575"><ele>218.28571428571428</ele><time>2026-05-01T14:22:46.024Z</time></trkpt><trkpt lat="42.273435" lon="14.1547419"><ele>216.14285714285717</ele><time>2026-05-01T14:22:48.025Z</time></trkpt><trkpt lat="42.2734489" lon="14.1548252"><ele>214.0</ele><time>2026-05-01T14:22:50.025Z</time></trkpt><trkpt lat="42.2734611" lon="14.1549104"><ele>211.49999999999997</ele><time>2026-05-01T14:22:52.025Z</time></trkpt><trkpt lat="42.273486" lon="14.1549902"><ele>209.0</ele><time>2026-05-01T14:22:54.025Z</time></trkpt><trkpt lat="42.2735281" lon="14.1550576"><ele>206.5</ele><time>2026-05-01T14:22:56.025Z</time></trkpt><trkpt lat="42.2735839" lon="14.1551082"><ele>204.0</ele><time>2026-05-01T14:22:58.025Z</time></trkpt><trkpt lat="42.2736607" lon="14.1551561"><ele>201.49999999999997</ele><time>2026-05-01T14:23:00.025Z</time></trkpt><trkpt lat="42.2737415" lon="14.1551861"><ele>199.0</ele><time>2026-05-01T14:23:02.025Z</time></trkpt><trkpt lat="42.273819" lon="14.1552451"><ele>199.0</ele><time>2026-05-01T14:23:04.025Z</time></trkpt><trkpt lat="42.2738948" lon="14.1553486"><ele>199.0</ele><time>2026-05-01T14:23:06.025Z</time></trkpt><trkpt lat="42.2739537" lon="14.1554716"><ele>199.0</ele><time>2026-05-01T14:23:08.024Z</time></trkpt><trkpt lat="42.2740217" lon="14.1555655"><ele>199.0</ele><time>2026-05-01T14:23:10.025Z</time></trkpt><trkpt lat="42.2741085" lon="14.1556081"><ele>199.0</ele><time>2026-05-01T14:23:12.025Z</time></trkpt><trkpt lat="42.2741794" lon="14.1556466"><ele>197.14285714285714</ele><time>2026-05-01T14:23:14.024Z</time></trkpt><trkpt lat="42.2742252" lon="14.1557064"><ele>195.28571428571428</ele><time>2026-05-01T14:23:16.024Z</time></trkpt><trkpt lat="42.2742484" lon="14.1557939"><ele>193.42857142857144</ele><time>2026-05-01T14:23:18.025Z</time></trkpt><trkpt lat="42.2742682" lon="14.1558929"><ele>191.57142857142856</ele><time>2026-05-01T14:23:20.025Z</time></trkpt><trkpt lat="42.2742924" lon="14.1559895"><ele>189.71428571428572</ele><time>2026-05-01T14:23:22.024Z</time></trkpt><trkpt lat="42.2743215" lon="14.1560774"><ele>187.85714285714286</ele><time>2026-05-01T14:23:24.025Z</time></trkpt><trkpt lat="42.2743557" lon="14.1561612"><ele>186.0</ele><time>2026-05-01T14:23:26.025Z</time></trkpt><trkpt lat="42.274392" lon="14.1562424"><ele>186.0</ele><time>2026-05-01T14:23:28.025Z</time></trkpt><trkpt lat="42.2744322" lon="14.1563497"><ele>186.0</ele><time>2026-05-01T14:23:31.025Z</time></trkpt><trkpt lat="42.2744499" lon="14.1564389"><ele>186.0</ele><time>2026-05-01T14:23:33.025Z</time></trkpt><trkpt lat="42.2744946" lon="14.1565302"><ele>186.0</ele><time>2026-05-01T14:23:36.025Z</time></trkpt><trkpt lat="42.2745641" lon="14.1565964"><ele>186.0</ele><time>2026-05-01T14:23:39.025Z</time></trkpt><trkpt lat="42.2746283" lon="14.1566518"><ele>186.0</ele><time>2026-05-01T14:23:42.025Z</time></trkpt><trkpt lat="42.2747165" lon="14.1566712"><ele>182.57142857142858</ele><time>2026-05-01T14:23:45.025Z</time></trkpt><trkpt lat="42.274796" lon="14.1566487"><ele>179.14285714285714</ele><time>2026-05-01T14:23:48.025Z</time></trkpt><trkpt lat="42.2748701" lon="14.1565956"><ele>175.71428571428572</ele><time>2026-05-01T14:23:51.025Z</time></trkpt><trkpt lat="42.2749444" lon="14.1565923"><ele>172.28571428571428</ele><time>2026-05-01T14:23:54.025Z</time></trkpt><trkpt lat="42.2750091" lon="14.1565801"><ele>168.85714285714286</ele><time>2026-05-01T14:24:00.025Z</time></trkpt><trkpt lat="42.2750737" lon="14.1565769"><ele>165.42857142857144</ele><time>2026-05-01T14:24:06.025Z</time></trkpt><trkpt lat="42.2751372" lon="14.1565651"><ele>162.0</ele><time>2026-05-01T14:24:13.025Z</time></trkpt><trkpt lat="42.2752014" lon="14.1565385"><ele>162.0</ele><time>2026-05-01T14:24:17.025Z</time></trkpt><trkpt lat="42.2752705" lon="14.1564881"><ele>162.0</ele><time>2026-05-01T14:24:23.025Z</time></trkpt><trkpt lat="42.2753776" lon="14.1564013"><ele>162.0</ele><time>2026-05-01T14:24:35.024Z</time></trkpt><trkpt lat="42.2754423" lon="14.1564405"><ele>162.0</ele><time>2026-05-01T14:24:39.025Z</time></trkpt><trkpt lat="42.2754857" lon="14.156518"><ele>162.0</ele><time>2026-05-01T14:24:41.024Z</time></trkpt><trkpt lat="42.2755322" lon="14.1566309"><ele>162.0</ele><time>2026-05-01T14:24:43.025Z</time></trkpt><trkpt lat="42.275576" lon="14.1567324"><ele>162.8</ele><time>2026-05-01T14:24:45.024Z</time></trkpt><trkpt lat="42.2756328" lon="14.156784"><ele>163.6</ele><time>2026-05-01T14:24:47.025Z</time></trkpt><trkpt lat="42.2757736" lon="14.1567674"><ele>164.4</ele><time>2026-05-01T14:24:51.025Z</time></trkpt><trkpt lat="42.2758533" lon="14.1566782"><ele>165.20000000000002</ele><time>2026-05-01T14:24:53.025Z</time></trkpt><trkpt lat="42.2759389" lon="14.1565782"><ele>166.0</ele><time>2026-05-01T14:24:55.025Z</time></trkpt><trkpt lat="42.2759972" lon="14.1565272"><ele>166.0</ele><time>2026-05-01T14:24:56.024Z</time></trkpt><trkpt lat="42.2761066" lon="14.1564347"><ele>166.0</ele><time>2026-05-01T14:24:58.025Z</time></trkpt><trkpt lat="42.2761685" lon="14.156391"><ele>166.0</ele><time>2026-05-01T14:24:59.025Z</time></trkpt><trkpt lat="42.2762845" lon="14.1563171"><ele>166.0</ele><time>2026-05-01T14:25:01.025Z</time></trkpt><trkpt lat="42.2763438" lon="14.1562767"><ele>166.0</ele><time>2026-05-01T14:25:02.025Z</time></trkpt><trkpt lat="42.2764602" lon="14.1562014"><ele>164.0</ele><time>2026-05-01T14:25:04.025Z</time></trkpt><trkpt lat="42.2765799" lon="14.1561256"><ele>162.0</ele><time>2026-05-01T14:25:06.024Z</time></trkpt><trkpt lat="42.2766881" lon="14.1560866"><ele>160.0</ele><time>2026-05-01T14:25:08.025Z</time></trkpt><trkpt lat="42.2767938" lon="14.1560141"><ele>158.0</ele><time>2026-05-01T14:25:10.025Z</time></trkpt><trkpt lat="42.2768624" lon="14.155974"><ele>156.0</ele><time>2026-05-01T14:25:11.025Z</time></trkpt><trkpt lat="42.2769262" lon="14.1559396"><ele>156.0</ele><time>2026-05-01T14:25:12.025Z</time></trkpt><trkpt lat="42.2769955" lon="14.1558958"><ele>156.0</ele><time>2026-05-01T14:25:13.025Z</time></trkpt><trkpt lat="42.2770639" lon="14.1558575"><ele>156.0</ele><time>2026-05-01T14:25:14.025Z</time></trkpt><trkpt lat="42.2771325" lon="14.1558208"><ele>156.0</ele><time>2026-05-01T14:25:15.025Z</time></trkpt><trkpt lat="42.2772313" lon="14.1557371"><ele>156.0</ele><time>2026-05-01T14:25:17.025Z</time></trkpt><trkpt lat="42.2772976" lon="14.1557177"><ele>156.0</ele><time>2026-05-01T14:25:19.025Z</time></trkpt><trkpt lat="42.2773595" lon="14.1556872"><ele>156.0</ele><time>2026-05-01T14:25:21.025Z</time></trkpt><trkpt lat="42.277443" lon="14.1556379"><ele>156.0</ele><time>2026-05-01T14:25:23.025Z</time></trkpt><trkpt lat="42.2775529" lon="14.1555733"><ele>156.0</ele><time>2026-05-01T14:25:25.025Z</time></trkpt><trkpt lat="42.2776204" lon="14.1555361"><ele>156.0</ele><time>2026-05-01T14:25:26.024Z</time></trkpt><trkpt lat="42.2776873" lon="14.1554969"><ele>156.0</ele><time>2026-05-01T14:25:27.025Z</time></trkpt><trkpt lat="42.2777597" lon="14.155449"><ele>156.0</ele><time>2026-05-01T14:25:28.025Z</time></trkpt><trkpt lat="42.2778281" lon="14.1554023"><ele>156.0</ele><time>2026-05-01T14:25:29.025Z</time></trkpt><trkpt lat="42.277896" lon="14.1553563"><ele>156.0</ele><time>2026-05-01T14:25:30.025Z</time></trkpt><trkpt lat="42.2779591" lon="14.155314"><ele>156.0</ele><time>2026-05-01T14:25:31.024Z</time></trkpt><trkpt lat="42.2780248" lon="14.1552733"><ele>156.0</ele><time>2026-05-01T14:25:32.025Z</time></trkpt><trkpt lat="42.2780893" lon="14.1552298"><ele>156.0</ele><time>2026-05-01T14:25:33.025Z</time></trkpt><trkpt lat="42.2781533" lon="14.155188"><ele>156.0</ele><time>2026-05-01T14:25:34.025Z</time></trkpt><trkpt lat="42.2782233" lon="14.155149"><ele>156.0</ele><time>2026-05-01T14:25:35.025Z</time></trkpt><trkpt lat="42.2782939" lon="14.155118"><ele>154.8</ele><time>2026-05-01T14:25:36.025Z</time></trkpt><trkpt lat="42.278362" lon="14.1550841"><ele>153.6</ele><time>2026-05-01T14:25:37.025Z</time></trkpt><trkpt lat="42.2784294" lon="14.1550522"><ele>152.4</ele><time>2026-05-01T14:25:38.025Z</time></trkpt><trkpt lat="42.2785426" lon="14.1549961"><ele>151.2</ele><time>2026-05-01T14:25:40.025Z</time></trkpt><trkpt lat="42.2786423" lon="14.1549288"><ele>150.0</ele><time>2026-05-01T14:25:42.025Z</time></trkpt><trkpt lat="42.2787451" lon="14.1548566"><ele>150.0</ele><time>2026-05-01T14:25:44.024Z</time></trkpt><trkpt lat="42.2788503" lon="14.1547801"><ele>150.0</ele><time>2026-05-01T14:25:46.025Z</time></trkpt><trkpt lat="42.2789125" lon="14.154733"><ele>150.0</ele><time>2026-05-01T14:25:47.025Z</time></trkpt><trkpt lat="42.2789831" lon="14.1546828"><ele>150.0</ele><time>2026-05-01T14:25:48.025Z</time></trkpt><trkpt lat="42.2790486" lon="14.154635"><ele>150.0</ele><time>2026-05-01T14:25:49.025Z</time></trkpt><trkpt lat="42.27913" lon="14.1545792"><ele>150.0</ele><time>2026-05-01T14:25:50.025Z</time></trkpt><trkpt lat="42.2792109" lon="14.1545283"><ele>148.5</ele><time>2026-05-01T14:25:51.025Z</time></trkpt><trkpt lat="42.2792877" lon="14.1544748"><ele>147.0</ele><time>2026-05-01T14:25:52.025Z</time></trkpt><trkpt lat="42.2793653" lon="14.1544252"><ele>145.5</ele><time>2026-05-01T14:25:53.025Z</time></trkpt><trkpt lat="42.279444" lon="14.1543734"><ele>144.0</ele><time>2026-05-01T14:25:54.024Z</time></trkpt><trkpt lat="42.2795107" lon="14.1543293"><ele>142.5</ele><time>2026-05-01T14:25:55.025Z</time></trkpt><trkpt lat="42.2795728" lon="14.1542887"><ele>141.0</ele><time>2026-05-01T14:25:56.025Z</time></trkpt><trkpt lat="42.2796433" lon="14.1542515"><ele>141.0</ele><time>2026-05-01T14:25:57.025Z</time></trkpt><trkpt lat="42.279714" lon="14.1542136"><ele>141.0</ele><time>2026-05-01T14:25:58.025Z</time></trkpt><trkpt lat="42.2797916" lon="14.1541702"><ele>141.0</ele><time>2026-05-01T14:25:59.025Z</time></trkpt><trkpt lat="42.2798719" lon="14.1541134"><ele>141.0</ele><time>2026-05-01T14:26:00.025Z</time></trkpt><trkpt lat="42.279938" lon="14.1540711"><ele>141.0</ele><time>2026-05-01T14:26:01.025Z</time></trkpt><trkpt lat="42.2800172" lon="14.1540239"><ele>141.0</ele><time>2026-05-01T14:26:02.025Z</time></trkpt><trkpt lat="42.2800994" lon="14.1539823"><ele>141.33333333333334</ele><time>2026-05-01T14:26:03.025Z</time></trkpt><trkpt lat="42.2801804" lon="14.1539279"><ele>141.66666666666666</ele><time>2026-05-01T14:26:04.025Z</time></trkpt><trkpt lat="42.280257" lon="14.1538864"><ele>142.0</ele><time>2026-05-01T14:26:05.025Z</time></trkpt><trkpt lat="42.2803317" lon="14.153843"><ele>142.33333333333331</ele><time>2026-05-01T14:26:06.025Z</time></trkpt><trkpt lat="42.2804044" lon="14.1537927"><ele>142.66666666666666</ele><time>2026-05-01T14:26:07.025Z</time></trkpt><trkpt lat="42.280477" lon="14.1537478"><ele>143.0</ele><time>2026-05-01T14:26:08.025Z</time></trkpt><trkpt lat="42.2805521" lon="14.1536992"><ele>141.33333333333331</ele><time>2026-05-01T14:26:09.025Z</time></trkpt><trkpt lat="42.2806365" lon="14.1536493"><ele>139.66666666666666</ele><time>2026-05-01T14:26:10.025Z</time></trkpt><trkpt lat="42.2807274" lon="14.1536141"><ele>138.0</ele><time>2026-05-01T14:26:11.025Z</time></trkpt><trkpt lat="42.280811" lon="14.153582"><ele>136.33333333333334</ele><time>2026-05-01T14:26:12.025Z</time></trkpt><trkpt lat="42.2808943" lon="14.1535462"><ele>134.66666666666669</ele><time>2026-05-01T14:26:13.025Z</time></trkpt><trkpt lat="42.2809656" lon="14.1535095"><ele>133.0</ele><time>2026-05-01T14:26:14.025Z</time></trkpt><trkpt lat="42.281034" lon="14.1534735"><ele>133.0</ele><time>2026-05-01T14:26:15.024Z</time></trkpt><trkpt lat="42.2811005" lon="14.1534923"><ele>133.0</ele><time>2026-05-01T14:26:17.025Z</time></trkpt><trkpt lat="42.281225" lon="14.153463"><ele>133.0</ele><time>2026-05-01T14:26:19.025Z</time></trkpt><trkpt lat="42.2812871" lon="14.1534874"><ele>133.0</ele><time>2026-05-01T14:26:21.025Z</time></trkpt><trkpt lat="42.2813967" lon="14.1534315"><ele>133.0</ele><time>2026-05-01T14:26:23.025Z</time></trkpt><trkpt lat="42.2814543" lon="14.1533781"><ele>133.0</ele><time>2026-05-01T14:26:24.025Z</time></trkpt><trkpt lat="42.2814933" lon="14.1532963"><ele>131.16666666666669</ele><time>2026-05-01T14:26:25.025Z</time></trkpt><trkpt lat="42.2815587" lon="14.1532276"><ele>129.33333333333334</ele><time>2026-05-01T14:26:26.025Z</time></trkpt><trkpt lat="42.2816361" lon="14.1531696"><ele>127.5</ele><time>2026-05-01T14:26:27.025Z</time></trkpt><trkpt lat="42.2817235" lon="14.1531152"><ele>125.66666666666666</ele><time>2026-05-01T14:26:28.024Z</time></trkpt><trkpt lat="42.2818077" lon="14.1530762"><ele>123.83333333333333</ele><time>2026-05-01T14:26:29.025Z</time></trkpt><trkpt lat="42.2818902" lon="14.1530334"><ele>122.0</ele><time>2026-05-01T14:26:30.025Z</time></trkpt><trkpt lat="42.2819793" lon="14.1529796"><ele>121.6</ele><time>2026-05-01T14:26:31.025Z</time></trkpt><trkpt lat="42.2821003" lon="14.1529417"><ele>121.19999999999999</ele><time>2026-05-01T14:26:33.025Z</time></trkpt><trkpt lat="42.282186" lon="14.1529517"><ele>120.8</ele><time>2026-05-01T14:26:34.025Z</time></trkpt><trkpt lat="42.2822585" lon="14.1529371"><ele>120.4</ele><time>2026-05-01T14:26:35.025Z</time></trkpt><trkpt lat="42.2823717" lon="14.1528885"><ele>120.0</ele><time>2026-05-01T14:26:37.025Z</time></trkpt><trkpt lat="42.282496" lon="14.1528836"><ele>119.8</ele><time>2026-05-01T14:26:48.024Z</time></trkpt><trkpt lat="42.2824907" lon="14.1527684"><ele>119.6</ele><time>2026-05-01T14:26:53.024Z</time></trkpt><trkpt lat="42.2824668" lon="14.1526594"><ele>119.4</ele><time>2026-05-01T14:26:55.025Z</time></trkpt><trkpt lat="42.2824369" lon="14.1525087"><ele>119.2</ele><time>2026-05-01T14:26:57.025Z</time></trkpt><trkpt lat="42.2824022" lon="14.1523521"><ele>119.0</ele><time>2026-05-01T14:26:59.025Z</time></trkpt><trkpt lat="42.2823531" lon="14.1522152"><ele>119.0</ele><time>2026-05-01T14:27:01.025Z</time></trkpt><trkpt lat="42.2823126" lon="14.1521305"><ele>119.0</ele><time>2026-05-01T14:27:03.024Z</time></trkpt><trkpt lat="42.2822459" lon="14.1520934"><ele>119.0</ele><time>2026-05-01T14:27:14.024Z</time></trkpt><trkpt lat="42.2821164" lon="14.1520924"><ele>119.0</ele><time>2026-05-01T14:27:16.025Z</time></trkpt><trkpt lat="42.2820274" lon="14.1520922"><ele>119.0</ele><time>2026-05-01T14:27:17.024Z</time></trkpt><trkpt lat="42.2819343" lon="14.1521029"><ele>119.2</ele><time>2026-05-01T14:27:18.025Z</time></trkpt><trkpt lat="42.2818332" lon="14.1521233"><ele>119.4</ele><time>2026-05-01T14:27:19.025Z</time></trkpt><trkpt lat="42.2817346" lon="14.1521987"><ele>119.6</ele><time>2026-05-01T14:27:20.025Z</time></trkpt><trkpt lat="42.2816466" lon="14.1522711"><ele>119.8</ele><time>2026-05-01T14:27:21.025Z</time></trkpt><trkpt lat="42.2815639" lon="14.1523703"><ele>120.0</ele><time>2026-05-01T14:27:22.025Z</time></trkpt><trkpt lat="42.2814836" lon="14.1524747"><ele>121.8</ele><time>2026-05-01T14:27:23.025Z</time></trkpt><trkpt lat="42.2814117" lon="14.1525551"><ele>123.6</ele><time>2026-05-01T14:27:24.025Z</time></trkpt><trkpt lat="42.2813377" lon="14.1526434"><ele>125.4</ele><time>2026-05-01T14:27:25.025Z</time></trkpt><trkpt lat="42.2812688" lon="14.1527448"><ele>127.2</ele><time>2026-05-01T14:27:26.025Z</time></trkpt><trkpt lat="42.2811956" lon="14.1528342"><ele>129.0</ele><time>2026-05-01T14:27:27.025Z</time></trkpt><trkpt lat="42.2811049" lon="14.1529084"><ele>129.0</ele><time>2026-05-01T14:27:28.024Z</time></trkpt><trkpt lat="42.2809964" lon="14.152967"><ele>129.0</ele><time>2026-05-01T14:27:29.025Z</time></trkpt><trkpt lat="42.2808858" lon="14.1530293"><ele>129.0</ele><time>2026-05-01T14:27:30.024Z</time></trkpt><trkpt lat="42.2807602" lon="14.1530932"><ele>129.0</ele><time>2026-05-01T14:27:31.025Z</time></trkpt><trkpt lat="42.2806442" lon="14.1531456"><ele>131.6</ele><time>2026-05-01T14:27:32.025Z</time></trkpt><trkpt lat="42.2805349" lon="14.1531841"><ele>134.2</ele><time>2026-05-01T14:27:33.025Z</time></trkpt><trkpt lat="42.2804334" lon="14.153187"><ele>136.79999999999998</ele><time>2026-05-01T14:27:34.025Z</time></trkpt><trkpt lat="42.2803224" lon="14.1531765"><ele>139.4</ele><time>2026-05-01T14:27:35.025Z</time></trkpt><trkpt lat="42.2802204" lon="14.1531378"><ele>142.0</ele><time>2026-05-01T14:27:36.024Z</time></trkpt><trkpt lat="42.2801195" lon="14.1530682"><ele>142.0</ele><time>2026-05-01T14:27:37.025Z</time></trkpt><trkpt lat="42.2800277" lon="14.1529848"><ele>142.0</ele><time>2026-05-01T14:27:38.025Z</time></trkpt><trkpt lat="42.2799446" lon="14.152884"><ele>142.0</ele><time>2026-05-01T14:27:39.024Z</time></trkpt><trkpt lat="42.2798746" lon="14.1527847"><ele>142.0</ele><time>2026-05-01T14:27:40.025Z</time></trkpt><trkpt lat="42.2798283" lon="14.1527085"><ele>142.0</ele><time>2026-05-01T14:27:41.025Z</time></trkpt><trkpt lat="42.2797651" lon="14.1526174"><ele>142.0</ele><time>2026-05-01T14:27:43.025Z</time></trkpt><trkpt lat="42.2797754" lon="14.1527184"><ele>142.0</ele><time>2026-05-01T14:27:48.025Z</time></trkpt><trkpt lat="42.2798254" lon="14.1527729"><ele>142.0</ele><time>2026-05-01T14:27:50.025Z</time></trkpt><trkpt lat="42.2798751" lon="14.1528438"><ele>142.0</ele><time>2026-05-01T14:27:52.025Z</time></trkpt><trkpt lat="42.2799208" lon="14.1529375"><ele>142.0</ele><time>2026-05-01T14:27:54.025Z</time></trkpt><trkpt lat="42.2799712" lon="14.153015"><ele>142.0</ele><time>2026-05-01T14:27:56.025Z</time></trkpt><trkpt lat="42.2800244" lon="14.1530806"><ele>142.0</ele><time>2026-05-01T14:27:58.025Z</time></trkpt><trkpt lat="42.2800946" lon="14.1531413"><ele>142.0</ele><time>2026-05-01T14:28:00.025Z</time></trkpt><trkpt lat="42.2801841" lon="14.1531981"><ele>142.0</ele><time>2026-05-01T14:28:02.025Z</time></trkpt><trkpt lat="42.2802873" lon="14.1532387"><ele>142.0</ele><time>2026-05-01T14:28:04.025Z</time></trkpt><trkpt lat="42.2804093" lon="14.1532537"><ele>142.0</ele><time>2026-05-01T14:28:06.025Z</time></trkpt><trkpt lat="42.2805279" lon="14.1532301"><ele>142.0</ele><time>2026-05-01T14:28:08.024Z</time></trkpt><trkpt lat="42.280635" lon="14.1531861"><ele>138.75</ele><time>2026-05-01T14:28:10.025Z</time></trkpt><trkpt lat="42.2807464" lon="14.1531448"><ele>135.5</ele><time>2026-05-01T14:28:12.025Z</time></trkpt><trkpt lat="42.2808684" lon="14.1531102"><ele>132.25</ele><time>2026-05-01T14:28:14.025Z</time></trkpt><trkpt lat="42.2809849" lon="14.1530519"><ele>129.0</ele><time>2026-05-01T14:28:16.025Z</time></trkpt><trkpt lat="42.2811058" lon="14.1529796"><ele>129.0</ele><time>2026-05-01T14:28:18.024Z</time></trkpt><trkpt lat="42.2812053" lon="14.1528768"><ele>129.0</ele><time>2026-05-01T14:28:20.025Z</time></trkpt><trkpt lat="42.2812542" lon="14.1528162"><ele>129.0</ele><time>2026-05-01T14:28:21.025Z</time></trkpt><trkpt lat="42.2813066" lon="14.1527477"><ele>129.0</ele><time>2026-05-01T14:28:22.025Z</time></trkpt><trkpt lat="42.2813646" lon="14.1526778"><ele>129.0</ele><time>2026-05-01T14:28:23.025Z</time></trkpt><trkpt lat="42.2814264" lon="14.1525869"><ele>129.0</ele><time>2026-05-01T14:28:24.025Z</time></trkpt><trkpt lat="42.2814956" lon="14.152488"><ele>127.2</ele><time>2026-05-01T14:28:25.025Z</time></trkpt><trkpt lat="42.2815736" lon="14.1523873"><ele>125.4</ele><time>2026-05-01T14:28:26.024Z</time></trkpt><trkpt lat="42.2816539" lon="14.1522965"><ele>123.6</ele><time>2026-05-01T14:28:27.025Z</time></trkpt><trkpt lat="42.2817448" lon="14.1522108"><ele>121.8</ele><time>2026-05-01T14:28:28.025Z</time></trkpt><trkpt lat="42.2818309" lon="14.1521679"><ele>120.0</ele><time>2026-05-01T14:28:29.025Z</time></trkpt><trkpt lat="42.2819254" lon="14.1521237"><ele>120.0</ele><time>2026-05-01T14:28:30.025Z</time></trkpt><trkpt lat="42.2820285" lon="14.1521118"><ele>120.0</ele><time>2026-05-01T14:28:31.024Z</time></trkpt><trkpt lat="42.2821409" lon="14.1521118"><ele>120.0</ele><time>2026-05-01T14:28:32.025Z</time></trkpt><trkpt lat="42.282251" lon="14.1521107"><ele>120.0</ele><time>2026-05-01T14:28:33.025Z</time></trkpt><trkpt lat="42.2823452" lon="14.1521102"><ele>120.0</ele><time>2026-05-01T14:28:34.024Z</time></trkpt><trkpt lat="42.2824438" lon="14.1521409"><ele>119.8</ele><time>2026-05-01T14:28:35.025Z</time></trkpt><trkpt lat="42.2825512" lon="14.152149"><ele>119.6</ele><time>2026-05-01T14:28:36.025Z</time></trkpt><trkpt lat="42.282654" lon="14.152161"><ele>119.4</ele><time>2026-05-01T14:28:37.025Z</time></trkpt><trkpt lat="42.282753" lon="14.1521618"><ele>119.2</ele><time>2026-05-01T14:28:38.025Z</time></trkpt><trkpt lat="42.2828392" lon="14.1521446"><ele>119.0</ele><time>2026-05-01T14:28:39.025Z</time></trkpt><trkpt lat="42.2829137" lon="14.1521205"><ele>119.0</ele><time>2026-05-01T14:28:40.024Z</time></trkpt><trkpt lat="42.2829741" lon="14.1520765"><ele>119.0</ele><time>2026-05-01T14:28:41.024Z</time></trkpt><trkpt lat="42.2830275" lon="14.1519552"><ele>119.0</ele><time>2026-05-01T14:28:43.024Z</time></trkpt><trkpt lat="42.2830579" lon="14.1517951"><ele>119.0</ele><time>2026-05-01T14:28:45.025Z</time></trkpt><trkpt lat="42.2830775" lon="14.151698"><ele>119.0</ele><time>2026-05-01T14:28:46.025Z</time></trkpt><trkpt lat="42.2830902" lon="14.1515912"><ele>122.6</ele><time>2026-05-01T14:28:47.025Z</time></trkpt><trkpt lat="42.2831088" lon="14.1514822"><ele>126.2</ele><time>2026-05-01T14:28:48.025Z</time></trkpt><trkpt lat="42.2831315" lon="14.1513764"><ele>129.79999999999998</ele><time>2026-05-01T14:28:49.025Z</time></trkpt><trkpt lat="42.2831732" lon="14.1512368"><ele>133.4</ele><time>2026-05-01T14:28:51.025Z</time></trkpt><trkpt lat="42.2831739" lon="14.1511167"><ele>137.0</ele><time>2026-05-01T14:28:54.025Z</time></trkpt><trkpt lat="42.283117" lon="14.15102"><ele>136.0</ele><time>2026-05-01T14:28:56.025Z</time></trkpt><trkpt lat="42.2830091" lon="14.150954"><ele>135.0</ele><time>2026-05-01T14:28:58.025Z</time></trkpt><trkpt lat="42.2829347" lon="14.150917"><ele>134.0</ele><time>2026-05-01T14:28:59.025Z</time></trkpt><trkpt lat="42.2828568" lon="14.1508562"><ele>133.0</ele><time>2026-05-01T14:29:00.025Z</time></trkpt><trkpt lat="42.2827765" lon="14.1507864"><ele>132.0</ele><time>2026-05-01T14:29:01.025Z</time></trkpt><trkpt lat="42.2826913" lon="14.1506909"><ele>132.0</ele><time>2026-05-01T14:29:02.024Z</time></trkpt><trkpt lat="42.2826139" lon="14.1505844"><ele>132.0</ele><time>2026-05-01T14:29:03.024Z</time></trkpt><trkpt lat="42.2825331" lon="14.1504656"><ele>132.0</ele><time>2026-05-01T14:29:04.024Z</time></trkpt><trkpt lat="42.2824603" lon="14.1503466"><ele>132.0</ele><time>2026-05-01T14:29:05.025Z</time></trkpt><trkpt lat="42.2823923" lon="14.1502049"><ele>132.0</ele><time>2026-05-01T14:29:06.024Z</time></trkpt><trkpt lat="42.2823297" lon="14.1500433"><ele>132.0</ele><time>2026-05-01T14:29:07.025Z</time></trkpt><trkpt lat="42.28225" lon="14.1498921"><ele>132.0</ele><time>2026-05-01T14:29:08.025Z</time></trkpt><trkpt lat="42.2821764" lon="14.1497454"><ele>132.0</ele><time>2026-05-01T14:29:09.025Z</time></trkpt><trkpt lat="42.2820967" lon="14.1495965"><ele>131.0</ele><time>2026-05-01T14:29:10.025Z</time></trkpt><trkpt lat="42.2820174" lon="14.1494384"><ele>130.0</ele><time>2026-05-01T14:29:11.025Z</time></trkpt><trkpt lat="42.2819386" lon="14.1492967"><ele>129.0</ele><time>2026-05-01T14:29:12.025Z</time></trkpt><trkpt lat="42.2818603" lon="14.1491425"><ele>128.0</ele><time>2026-05-01T14:29:13.025Z</time></trkpt><trkpt lat="42.2817874" lon="14.1489937"><ele>128.0</ele><time>2026-05-01T14:29:14.025Z</time></trkpt><trkpt lat="42.2817095" lon="14.1488434"><ele>128.0</ele><time>2026-05-01T14:29:15.025Z</time></trkpt><trkpt lat="42.2816367" lon="14.1486965"><ele>128.0</ele><time>2026-05-01T14:29:16.025Z</time></trkpt><trkpt lat="42.2815683" lon="14.148553"><ele>128.0</ele><time>2026-05-01T14:29:17.025Z</time></trkpt><trkpt lat="42.2815071" lon="14.1484142"><ele>128.0</ele><time>2026-05-01T14:29:18.025Z</time></trkpt><trkpt lat="42.281451" lon="14.1482909"><ele>128.0</ele><time>2026-05-01T14:29:19.025Z</time></trkpt><trkpt lat="42.2813994" lon="14.1481699"><ele>128.0</ele><time>2026-05-01T14:29:20.025Z</time></trkpt><trkpt lat="42.2813475" lon="14.148051"><ele>128.0</ele><time>2026-05-01T14:29:21.025Z</time></trkpt><trkpt lat="42.281302" lon="14.1479452"><ele>128.0</ele><time>2026-05-01T14:29:22.025Z</time></trkpt><trkpt lat="42.281264" lon="14.1478538"><ele>128.16666666666666</ele><time>2026-05-01T14:29:23.025Z</time></trkpt><trkpt lat="42.2812137" lon="14.1477398"><ele>128.33333333333331</ele><time>2026-05-01T14:29:25.024Z</time></trkpt><trkpt lat="42.2812226" lon="14.1476455"><ele>128.5</ele><time>2026-05-01T14:29:34.025Z</time></trkpt><trkpt lat="42.2812978" lon="14.1475674"><ele>128.66666666666666</ele><time>2026-05-01T14:29:37.025Z</time></trkpt><trkpt lat="42.2813567" lon="14.1475193"><ele>128.83333333333334</ele><time>2026-05-01T14:29:39.024Z</time></trkpt><trkpt lat="42.2814086" lon="14.1474644"><ele>129.0</ele><time>2026-05-01T14:29:41.025Z</time></trkpt><trkpt lat="42.2814547" lon="14.1473936"><ele>129.28571428571428</ele><time>2026-05-01T14:29:43.025Z</time></trkpt><trkpt lat="42.2814901" lon="14.1473205"><ele>129.57142857142856</ele><time>2026-05-01T14:29:45.025Z</time></trkpt><trkpt lat="42.2815226" lon="14.1472418"><ele>129.85714285714286</ele><time>2026-05-01T14:29:47.025Z</time></trkpt><trkpt lat="42.2815614" lon="14.1471444"><ele>130.14285714285714</ele><time>2026-05-01T14:29:49.025Z</time></trkpt><trkpt lat="42.2815826" lon="14.1470336"><ele>130.42857142857144</ele><time>2026-05-01T14:29:51.025Z</time></trkpt><trkpt lat="42.2815756" lon="14.1469309"><ele>130.71428571428572</ele><time>2026-05-01T14:29:53.025Z</time></trkpt><trkpt lat="42.2815631" lon="14.1468417"><ele>131.0</ele><time>2026-05-01T14:29:55.025Z</time></trkpt><trkpt lat="42.2815684" lon="14.1467549"><ele>131.0</ele><time>2026-05-01T14:29:58.025Z</time></trkpt><trkpt lat="42.281574" lon="14.1466682"><ele>131.0</ele><time>2026-05-01T14:30:02.025Z</time></trkpt><trkpt lat="42.2815695" lon="14.1465824"><ele>131.0</ele><time>2026-05-01T14:30:06.024Z</time></trkpt><trkpt lat="42.2815551" lon="14.1464924"><ele>131.0</ele><time>2026-05-01T14:30:09.025Z</time></trkpt><trkpt lat="42.2815291" lon="14.146411"><ele>131.0</ele><time>2026-05-01T14:30:12.025Z</time></trkpt><trkpt lat="42.2815096" lon="14.1463241"><ele>131.0</ele><time>2026-05-01T14:30:16.025Z</time></trkpt><trkpt lat="42.2814866" lon="14.1462443"><ele>131.0</ele><time>2026-05-01T14:30:22.024Z</time></trkpt><trkpt lat="42.2814605" lon="14.1461561"><ele>131.14285714285714</ele><time>2026-05-01T14:30:29.025Z</time></trkpt><trkpt lat="42.2814468" lon="14.1460647"><ele>131.2857142857143</ele><time>2026-05-01T14:30:35.025Z</time></trkpt><trkpt lat="42.2814279" lon="14.145967"><ele>131.42857142857144</ele><time>2026-05-01T14:31:21.024Z</time></trkpt><trkpt lat="42.2813951" lon="14.1458816"><ele>131.57142857142858</ele><time>2026-05-01T14:31:24.024Z</time></trkpt><trkpt lat="42.2813579" lon="14.1457779"><ele>131.71428571428572</ele><time>2026-05-01T14:31:27.025Z</time></trkpt><trkpt lat="42.2813331" lon="14.1456987"><ele>131.85714285714286</ele><time>2026-05-01T14:31:29.025Z</time></trkpt><trkpt lat="42.2813025" lon="14.145621"><ele>132.0</ele><time>2026-05-01T14:31:31.025Z</time></trkpt><trkpt lat="42.2812531" lon="14.1455143"><ele>134.0</ele><time>2026-05-01T14:31:33.025Z</time></trkpt><trkpt lat="42.2812101" lon="14.145393"><ele>136.0</ele><time>2026-05-01T14:31:35.025Z</time></trkpt><trkpt lat="42.2811924" lon="14.145277"><ele>138.0</ele><time>2026-05-01T14:31:37.025Z</time></trkpt><trkpt lat="42.2811843" lon="14.1451447"><ele>140.0</ele><time>2026-05-01T14:31:39.025Z</time></trkpt><trkpt lat="42.281205" lon="14.1449785"><ele>142.0</ele><time>2026-05-01T14:31:41.025Z</time></trkpt><trkpt lat="42.2812151" lon="14.1448814"><ele>143.14285714285714</ele><time>2026-05-01T14:31:42.024Z</time></trkpt><trkpt lat="42.2812243" lon="14.1447864"><ele>144.28571428571428</ele><time>2026-05-01T14:31:43.025Z</time></trkpt><trkpt lat="42.281234" lon="14.1446914"><ele>145.42857142857142</ele><time>2026-05-01T14:31:44.025Z</time></trkpt><trkpt lat="42.2812465" lon="14.1445903"><ele>146.57142857142856</ele><time>2026-05-01T14:31:45.025Z</time></trkpt><trkpt lat="42.2812494" lon="14.1444935"><ele>147.71428571428572</ele><time>2026-05-01T14:31:46.024Z</time></trkpt><trkpt lat="42.281266" lon="14.144402"><ele>148.85714285714283</ele><time>2026-05-01T14:31:47.025Z</time></trkpt><trkpt lat="42.2812745" lon="14.1442997"><ele>150.0</ele><time>2026-05-01T14:31:48.025Z</time></trkpt><trkpt lat="42.281293" lon="14.1441999"><ele>150.0</ele><time>2026-05-01T14:31:49.025Z</time></trkpt><trkpt lat="42.2813033" lon="14.1441032"><ele>150.0</ele><time>2026-05-01T14:31:50.025Z</time></trkpt><trkpt lat="42.2813118" lon="14.1439963"><ele>150.0</ele><time>2026-05-01T14:31:51.025Z</time></trkpt><trkpt lat="42.2813187" lon="14.1438399"><ele>150.0</ele><time>2026-05-01T14:31:53.025Z</time></trkpt><trkpt lat="42.2813302" lon="14.1437208"><ele>150.0</ele><time>2026-05-01T14:31:55.025Z</time></trkpt><trkpt lat="42.2813371" lon="14.1435978"><ele>150.0</ele><time>2026-05-01T14:31:57.024Z</time></trkpt><trkpt lat="42.28134" lon="14.143492"><ele>151.83333333333334</ele><time>2026-05-01T14:31:59.025Z</time></trkpt><trkpt lat="42.2813287" lon="14.1433963"><ele>153.66666666666666</ele><time>2026-05-01T14:32:01.025Z</time></trkpt><trkpt lat="42.2813058" lon="14.1432851"><ele>155.5</ele><time>2026-05-01T14:32:03.025Z</time></trkpt><trkpt lat="42.2812816" lon="14.1431625"><ele>157.33333333333331</ele><time>2026-05-01T14:32:05.025Z</time></trkpt><trkpt lat="42.2812465" lon="14.1430487"><ele>159.16666666666666</ele><time>2026-05-01T14:32:07.025Z</time></trkpt><trkpt lat="42.2812784" lon="14.1429212"><ele>161.0</ele><time>2026-05-01T14:32:09.025Z</time></trkpt><trkpt lat="42.281339" lon="14.1428045"><ele>162.5</ele><time>2026-05-01T14:32:11.025Z</time></trkpt><trkpt lat="42.2813916" lon="14.1427299"><ele>164.0</ele><time>2026-05-01T14:32:12.024Z</time></trkpt><trkpt lat="42.2814532" lon="14.1426218"><ele>165.5</ele><time>2026-05-01T14:32:14.025Z</time></trkpt><trkpt lat="42.2815223" lon="14.1425426"><ele>167.0</ele><time>2026-05-01T14:32:16.024Z</time></trkpt><trkpt lat="42.2815608" lon="14.1424652"><ele>168.5</ele><time>2026-05-01T14:32:18.025Z</time></trkpt><trkpt lat="42.2814985" lon="14.1423809"><ele>170.0</ele><time>2026-05-01T14:32:21.025Z</time></trkpt><trkpt lat="42.2814257" lon="14.1423692"><ele>174.4</ele><time>2026-05-01T14:32:23.025Z</time></trkpt><trkpt lat="42.2813585" lon="14.1423322"><ele>178.8</ele><time>2026-05-01T14:32:25.025Z</time></trkpt><trkpt lat="42.2812739" lon="14.1423179"><ele>183.2</ele><time>2026-05-01T14:32:27.025Z</time></trkpt><trkpt lat="42.2811721" lon="14.1422823"><ele>187.6</ele><time>2026-05-01T14:32:29.025Z</time></trkpt><trkpt lat="42.2810724" lon="14.1422286"><ele>192.0</ele><time>2026-05-01T14:32:31.024Z</time></trkpt><trkpt lat="42.2809851" lon="14.1421479"><ele>192.0</ele><time>2026-05-01T14:32:33.025Z</time></trkpt><trkpt lat="42.2809382" lon="14.1420358"><ele>192.0</ele><time>2026-05-01T14:32:35.025Z</time></trkpt><trkpt lat="42.2809247" lon="14.1419176"><ele>192.0</ele><time>2026-05-01T14:32:37.025Z</time></trkpt><trkpt lat="42.2809031" lon="14.1418022"><ele>192.0</ele><time>2026-05-01T14:32:39.025Z</time></trkpt><trkpt lat="42.2808849" lon="14.1416979"><ele>192.0</ele><time>2026-05-01T14:32:41.025Z</time></trkpt><trkpt lat="42.2808651" lon="14.1415839"><ele>192.0</ele><time>2026-05-01T14:32:43.025Z</time></trkpt><trkpt lat="42.2808444" lon="14.1414449"><ele>192.0</ele><time>2026-05-01T14:32:45.024Z</time></trkpt><trkpt lat="42.2808217" lon="14.1412837"><ele>192.0</ele><time>2026-05-01T14:32:47.025Z</time></trkpt><trkpt lat="42.2807889" lon="14.1411339"><ele>192.0</ele><time>2026-05-01T14:32:49.025Z</time></trkpt><trkpt lat="42.2807822" lon="14.1410355"><ele>192.0</ele><time>2026-05-01T14:32:51.025Z</time></trkpt><trkpt lat="42.280844" lon="14.1409359"><ele>192.0</ele><time>2026-05-01T14:32:54.025Z</time></trkpt><trkpt lat="42.2809544" lon="14.1408761"><ele>192.0</ele><time>2026-05-01T14:32:56.025Z</time></trkpt><trkpt lat="42.2810159" lon="14.1408327"><ele>192.0</ele><time>2026-05-01T14:32:57.024Z</time></trkpt><trkpt lat="42.2810779" lon="14.1407926"><ele>192.0</ele><time>2026-05-01T14:32:58.025Z</time></trkpt><trkpt lat="42.2812103" lon="14.1407384"><ele>192.0</ele><time>2026-05-01T14:33:00.025Z</time></trkpt><trkpt lat="42.2812836" lon="14.1407114"><ele>192.0</ele><time>2026-05-01T14:33:01.024Z</time></trkpt><trkpt lat="42.2813552" lon="14.1406846"><ele>192.0</ele><time>2026-05-01T14:33:02.025Z</time></trkpt><trkpt lat="42.2814212" lon="14.1406523"><ele>194.83333333333334</ele><time>2026-05-01T14:33:03.025Z</time></trkpt><trkpt lat="42.2815321" lon="14.1405834"><ele>197.66666666666669</ele><time>2026-05-01T14:33:05.025Z</time></trkpt><trkpt lat="42.2815904" lon="14.1405476"><ele>200.5</ele><time>2026-05-01T14:33:06.025Z</time></trkpt><trkpt lat="42.2816449" lon="14.1404946"><ele>203.33333333333334</ele><time>2026-05-01T14:33:07.025Z</time></trkpt><trkpt lat="42.2816997" lon="14.14043"><ele>206.16666666666669</ele><time>2026-05-01T14:33:08.025Z</time></trkpt><trkpt lat="42.2817507" lon="14.140366"><ele>209.0</ele><time>2026-05-01T14:33:09.025Z</time></trkpt><trkpt lat="42.2818027" lon="14.1403018"><ele>209.00000000000003</ele><time>2026-05-01T14:33:10.024Z</time></trkpt><trkpt lat="42.2818512" lon="14.1402366"><ele>209.0</ele><time>2026-05-01T14:33:11.024Z</time></trkpt><trkpt lat="42.2818977" lon="14.1401706"><ele>209.0</ele><time>2026-05-01T14:33:12.025Z</time></trkpt><trkpt lat="42.2819712" lon="14.1400416"><ele>209.0</ele><time>2026-05-01T14:33:14.025Z</time></trkpt><trkpt lat="42.2820162" lon="14.139975"><ele>209.00000000000003</ele><time>2026-05-01T14:33:15.025Z</time></trkpt><trkpt lat="42.2820734" lon="14.1399124"><ele>209.0</ele><time>2026-05-01T14:33:16.025Z</time></trkpt><trkpt lat="42.2821314" lon="14.1398499"><ele>209.57142857142856</ele><time>2026-05-01T14:33:17.025Z</time></trkpt><trkpt lat="42.2821883" lon="14.1397847"><ele>210.14285714285714</ele><time>2026-05-01T14:33:18.025Z</time></trkpt><trkpt lat="42.2822421" lon="14.1397216"><ele>210.71428571428572</ele><time>2026-05-01T14:33:19.025Z</time></trkpt><trkpt lat="42.2822944" lon="14.1396617"><ele>211.28571428571428</ele><time>2026-05-01T14:33:20.025Z</time></trkpt><trkpt lat="42.2823435" lon="14.1395965"><ele>211.85714285714286</ele><time>2026-05-01T14:33:21.025Z</time></trkpt><trkpt lat="42.2823963" lon="14.1395348"><ele>212.42857142857142</ele><time>2026-05-01T14:33:22.024Z</time></trkpt><trkpt lat="42.2824464" lon="14.1394772"><ele>213.0</ele><time>2026-05-01T14:33:23.024Z</time></trkpt><trkpt lat="42.2825278" lon="14.1393768"><ele>213.0</ele><time>2026-05-01T14:33:25.025Z</time></trkpt><trkpt lat="42.2825955" lon="14.1392863"><ele>213.0</ele><time>2026-05-01T14:33:27.025Z</time></trkpt><trkpt lat="42.2826674" lon="14.1391886"><ele>213.0</ele><time>2026-05-01T14:33:29.025Z</time></trkpt><trkpt lat="42.2827394" lon="14.1390733"><ele>213.0</ele><time>2026-05-01T14:33:31.025Z</time></trkpt><trkpt lat="42.2828006" lon="14.1390277"><ele>213.0</ele><time>2026-05-01T14:33:34.025Z</time></trkpt><trkpt lat="42.2828728" lon="14.138933"><ele>213.66666666666666</ele><time>2026-05-01T14:33:36.025Z</time></trkpt><trkpt lat="42.2829626" lon="14.1388042"><ele>214.33333333333331</ele><time>2026-05-01T14:33:38.025Z</time></trkpt><trkpt lat="42.2830049" lon="14.1387098"><ele>215.0</ele><time>2026-05-01T14:33:39.025Z</time></trkpt><trkpt lat="42.2830572" lon="14.1386431"><ele>215.66666666666666</ele><time>2026-05-01T14:33:40.025Z</time></trkpt><trkpt lat="42.2831215" lon="14.1385695"><ele>216.33333333333331</ele><time>2026-05-01T14:33:41.025Z</time></trkpt><trkpt lat="42.2831828" lon="14.1385053"><ele>217.0</ele><time>2026-05-01T14:33:42.025Z</time></trkpt><trkpt lat="42.2832661" lon="14.1384305"><ele>217.0</ele><time>2026-05-01T14:33:44.025Z</time></trkpt><trkpt lat="42.283315" lon="14.1383508"><ele>217.0</ele><time>2026-05-01T14:33:46.025Z</time></trkpt><trkpt lat="42.2833236" lon="14.1382513"><ele>217.0</ele><time>2026-05-01T14:33:48.025Z</time></trkpt><trkpt lat="42.2831865" lon="14.1382322"><ele>217.0</ele><time>2026-05-01T14:33:50.025Z</time></trkpt><trkpt lat="42.2831246" lon="14.1382065"><ele>217.0</ele><time>2026-05-01T14:33:51.024Z</time></trkpt><trkpt lat="42.2830177" lon="14.1381573"><ele>214.33333333333331</ele><time>2026-05-01T14:33:53.025Z</time></trkpt><trkpt lat="42.282922" lon="14.1381325"><ele>211.66666666666666</ele><time>2026-05-01T14:33:55.025Z</time></trkpt><trkpt lat="42.2828417" lon="14.1381303"><ele>209.0</ele><time>2026-05-01T14:33:57.025Z</time></trkpt><trkpt lat="42.2827717" lon="14.13811"><ele>206.33333333333331</ele><time>2026-05-01T14:34:00.025Z</time></trkpt><trkpt lat="42.2826973" lon="14.1380683"><ele>203.66666666666666</ele><time>2026-05-01T14:37:05.025Z</time></trkpt><trkpt lat="42.2827063" lon="14.1379655"><ele>201.0</ele><time>2026-05-01T14:37:09.025Z</time></trkpt><trkpt lat="42.2827739" lon="14.1379058"><ele>201.0</ele><time>2026-05-01T14:37:12.025Z</time></trkpt><trkpt lat="42.2828309" lon="14.1378644"><ele>201.0</ele><time>2026-05-01T14:37:14.025Z</time></trkpt><trkpt lat="42.2828802" lon="14.1378041"><ele>201.0</ele><time>2026-05-01T14:37:16.025Z</time></trkpt><trkpt lat="42.2829184" lon="14.1377235"><ele>201.0</ele><time>2026-05-01T14:37:18.025Z</time></trkpt><trkpt lat="42.2829295" lon="14.1375857"><ele>201.0</ele><time>2026-05-01T14:37:20.025Z</time></trkpt><trkpt lat="42.2829065" lon="14.1374521"><ele>201.0</ele><time>2026-05-01T14:37:22.025Z</time></trkpt><trkpt lat="42.2828597" lon="14.1373551"><ele>202.20000000000002</ele><time>2026-05-01T14:37:24.025Z</time></trkpt><trkpt lat="42.2828113" lon="14.1372519"><ele>203.4</ele><time>2026-05-01T14:37:26.025Z</time></trkpt><trkpt lat="42.282781" lon="14.1371377"><ele>204.6</ele><time>2026-05-01T14:37:28.025Z</time></trkpt><trkpt lat="42.2827696" lon="14.1370202"><ele>205.8</ele><time>2026-05-01T14:37:30.025Z</time></trkpt><trkpt lat="42.2827604" lon="14.1368836"><ele>207.0</ele><time>2026-05-01T14:37:32.025Z</time></trkpt><trkpt lat="42.282758" lon="14.1367524"><ele>207.0</ele><time>2026-05-01T14:37:34.025Z</time></trkpt><trkpt lat="42.2827465" lon="14.1366186"><ele>207.0</ele><time>2026-05-01T14:37:36.025Z</time></trkpt><trkpt lat="42.2827089" lon="14.1364619"><ele>207.0</ele><time>2026-05-01T14:37:38.025Z</time></trkpt><trkpt lat="42.282688" lon="14.1363761"><ele>207.0</ele><time>2026-05-01T14:37:39.025Z</time></trkpt><trkpt lat="42.2826429" lon="14.1362369"><ele>207.0</ele><time>2026-05-01T14:37:41.025Z</time></trkpt><trkpt lat="42.2826093" lon="14.1361606"><ele>208.00000000000003</ele><time>2026-05-01T14:37:42.024Z</time></trkpt><trkpt lat="42.2825639" lon="14.1360962"><ele>209.0</ele><time>2026-05-01T14:37:43.025Z</time></trkpt><trkpt lat="42.2825137" lon="14.1360273"><ele>210.0</ele><time>2026-05-01T14:37:44.025Z</time></trkpt><trkpt lat="42.2824703" lon="14.1359652"><ele>211.0</ele><time>2026-05-01T14:37:45.025Z</time></trkpt><trkpt lat="42.2824239" lon="14.1359027"><ele>212.0</ele><time>2026-05-01T14:37:46.025Z</time></trkpt><trkpt lat="42.2823873" lon="14.1358315"><ele>213.00000000000003</ele><time>2026-05-01T14:37:47.025Z</time></trkpt><trkpt lat="42.2823552" lon="14.1357581"><ele>214.0</ele><time>2026-05-01T14:37:48.025Z</time></trkpt><trkpt lat="42.2823231" lon="14.1356836"><ele>212.39999999999998</ele><time>2026-05-01T14:37:49.025Z</time></trkpt><trkpt lat="42.2822781" lon="14.1355583"><ele>210.79999999999998</ele><time>2026-05-01T14:37:51.024Z</time></trkpt><trkpt lat="42.2822583" lon="14.1354002"><ele>209.2</ele><time>2026-05-01T14:37:53.025Z</time></trkpt><trkpt lat="42.2822443" lon="14.1352302"><ele>207.60000000000002</ele><time>2026-05-01T14:37:55.024Z</time></trkpt><trkpt lat="42.2822341" lon="14.1351383"><ele>206.0</ele><time>2026-05-01T14:37:56.025Z</time></trkpt><trkpt lat="42.2822232" lon="14.1350442"><ele>206.0</ele><time>2026-05-01T14:37:57.025Z</time></trkpt><trkpt lat="42.2822136" lon="14.1349471"><ele>206.0</ele><time>2026-05-01T14:37:58.025Z</time></trkpt><trkpt lat="42.2821999" lon="14.134862"><ele>206.0</ele><time>2026-05-01T14:37:59.025Z</time></trkpt><trkpt lat="42.2821806" lon="14.1347201"><ele>206.0</ele><time>2026-05-01T14:38:01.024Z</time></trkpt><trkpt lat="42.2821607" lon="14.1345662"><ele>206.0</ele><time>2026-05-01T14:38:03.025Z</time></trkpt><trkpt lat="42.2821381" lon="14.1344149"><ele>207.50000000000003</ele><time>2026-05-01T14:38:05.025Z</time></trkpt><trkpt lat="42.2821027" lon="14.1342569"><ele>209.0</ele><time>2026-05-01T14:38:07.025Z</time></trkpt><trkpt lat="42.282088" lon="14.1341673"><ele>210.5</ele><time>2026-05-01T14:38:08.025Z</time></trkpt><trkpt lat="42.2820784" lon="14.134069"><ele>212.0</ele><time>2026-05-01T14:38:09.025Z</time></trkpt><trkpt lat="42.2820619" lon="14.1339712"><ele>213.50000000000003</ele><time>2026-05-01T14:38:10.025Z</time></trkpt><trkpt lat="42.282048" lon="14.1338734"><ele>215.0</ele><time>2026-05-01T14:38:11.025Z</time></trkpt><trkpt lat="42.2820347" lon="14.1337794"><ele>215.83333333333334</ele><time>2026-05-01T14:38:12.025Z</time></trkpt><trkpt lat="42.2820225" lon="14.1336805"><ele>216.66666666666669</ele><time>2026-05-01T14:38:13.025Z</time></trkpt><trkpt lat="42.2820127" lon="14.1335885"><ele>217.5</ele><time>2026-05-01T14:38:14.025Z</time></trkpt><trkpt lat="42.2820014" lon="14.1335037"><ele>218.33333333333331</ele><time>2026-05-01T14:38:15.024Z</time></trkpt><trkpt lat="42.2819889" lon="14.1333532"><ele>219.16666666666666</ele><time>2026-05-01T14:38:17.024Z</time></trkpt><trkpt lat="42.2819626" lon="14.1332461"><ele>220.0</ele><time>2026-05-01T14:38:19.025Z</time></trkpt><trkpt lat="42.2818926" lon="14.1331978"><ele>221.4</ele><time>2026-05-01T14:38:21.025Z</time></trkpt><trkpt lat="42.2817895" lon="14.1331433"><ele>222.8</ele><time>2026-05-01T14:38:23.025Z</time></trkpt><trkpt lat="42.2817018" lon="14.1330663"><ele>224.2</ele><time>2026-05-01T14:38:25.025Z</time></trkpt><trkpt lat="42.281623" lon="14.1329943"><ele>225.6</ele><time>2026-05-01T14:38:27.024Z</time></trkpt><trkpt lat="42.2815198" lon="14.1329686"><ele>227.0</ele><time>2026-05-01T14:38:29.025Z</time></trkpt><trkpt lat="42.28145" lon="14.1329933"><ele>226.50000000000003</ele><time>2026-05-01T14:38:30.025Z</time></trkpt><trkpt lat="42.2813844" lon="14.1330078"><ele>226.0</ele><time>2026-05-01T14:38:31.024Z</time></trkpt><trkpt lat="42.2812959" lon="14.1330365"><ele>225.5</ele><time>2026-05-01T14:38:32.025Z</time></trkpt><trkpt lat="42.2812116" lon="14.1330717"><ele>225.0</ele><time>2026-05-01T14:38:33.025Z</time></trkpt><trkpt lat="42.2811351" lon="14.1331037"><ele>224.50000000000003</ele><time>2026-05-01T14:38:34.025Z</time></trkpt><trkpt lat="42.2810636" lon="14.13313"><ele>224.0</ele><time>2026-05-01T14:38:35.025Z</time></trkpt><trkpt lat="42.2809962" lon="14.1331358"><ele>224.00000000000003</ele><time>2026-05-01T14:38:36.025Z</time></trkpt><trkpt lat="42.2808806" lon="14.1330759"><ele>224.0</ele><time>2026-05-01T14:38:38.025Z</time></trkpt><trkpt lat="42.280828" lon="14.1330118"><ele>224.0</ele><time>2026-05-01T14:38:39.025Z</time></trkpt><trkpt lat="42.280767" lon="14.1329397"><ele>224.0</ele><time>2026-05-01T14:38:40.025Z</time></trkpt><trkpt lat="42.2807136" lon="14.132875"><ele>224.00000000000003</ele><time>2026-05-01T14:38:41.025Z</time></trkpt><trkpt lat="42.2806522" lon="14.1328272"><ele>224.0</ele><time>2026-05-01T14:38:42.025Z</time></trkpt><trkpt lat="42.2805825" lon="14.1327817"><ele>222.83333333333334</ele><time>2026-05-01T14:38:43.024Z</time></trkpt><trkpt lat="42.2805135" lon="14.1327398"><ele>221.66666666666669</ele><time>2026-05-01T14:38:44.025Z</time></trkpt><trkpt lat="42.280439" lon="14.1326973"><ele>220.5</ele><time>2026-05-01T14:38:45.025Z</time></trkpt><trkpt lat="42.2803606" lon="14.1326534"><ele>219.33333333333331</ele><time>2026-05-01T14:38:46.025Z</time></trkpt><trkpt lat="42.280277" lon="14.1326104"><ele>218.16666666666666</ele><time>2026-05-01T14:38:47.024Z</time></trkpt><trkpt lat="42.2801904" lon="14.1325688"><ele>217.0</ele><time>2026-05-01T14:38:48.025Z</time></trkpt><trkpt lat="42.2801087" lon="14.1325172"><ele>217.0</ele><time>2026-05-01T14:38:49.024Z</time></trkpt><trkpt lat="42.2800325" lon="14.132466"><ele>217.0</ele><time>2026-05-01T14:38:50.024Z</time></trkpt><trkpt lat="42.2799587" lon="14.1324234"><ele>217.0</ele><time>2026-05-01T14:38:51.025Z</time></trkpt><trkpt lat="42.2798988" lon="14.1323764"><ele>217.0</ele><time>2026-05-01T14:38:52.025Z</time></trkpt><trkpt lat="42.279845" lon="14.1322039"><ele>217.0</ele><time>2026-05-01T14:38:54.025Z</time></trkpt><trkpt lat="42.279818" lon="14.1320701"><ele>218.2</ele><time>2026-05-01T14:38:55.025Z</time></trkpt><trkpt lat="42.2797829" lon="14.1319261"><ele>219.39999999999998</ele><time>2026-05-01T14:38:56.025Z</time></trkpt><trkpt lat="42.279719" lon="14.131751"><ele>220.60000000000002</ele><time>2026-05-01T14:38:57.025Z</time></trkpt><trkpt lat="42.2796953" lon="14.1316379"><ele>221.8</ele><time>2026-05-01T14:38:58.024Z</time></trkpt><trkpt lat="42.2796809" lon="14.1315521"><ele>223.0</ele><time>2026-05-01T14:38:59.025Z</time></trkpt><trkpt lat="42.2797097" lon="14.1314744"><ele>227.2</ele><time>2026-05-01T14:39:01.024Z</time></trkpt><trkpt lat="42.2797866" lon="14.1314735"><ele>231.4</ele><time>2026-05-01T14:39:03.025Z</time></trkpt><trkpt lat="42.2799094" lon="14.1314878"><ele>235.59999999999997</ele><time>2026-05-01T14:39:05.025Z</time></trkpt><trkpt lat="42.279987" lon="14.1315004"><ele>239.79999999999998</ele><time>2026-05-01T14:39:06.025Z</time></trkpt><trkpt lat="42.2800769" lon="14.1315111"><ele>244.0</ele><time>2026-05-01T14:39:07.025Z</time></trkpt><trkpt lat="42.280176" lon="14.1315138"><ele>244.0</ele><time>2026-05-01T14:39:08.025Z</time></trkpt><trkpt lat="42.2802811" lon="14.1315023"><ele>243.99999999999997</ele><time>2026-05-01T14:39:09.025Z</time></trkpt><trkpt lat="42.2803931" lon="14.1314807"><ele>243.99999999999997</ele><time>2026-05-01T14:39:10.025Z</time></trkpt><trkpt lat="42.2805047" lon="14.131455"><ele>244.0</ele><time>2026-05-01T14:39:11.025Z</time></trkpt><trkpt lat="42.2806124" lon="14.131417"><ele>244.0</ele><time>2026-05-01T14:39:12.025Z</time></trkpt><trkpt lat="42.2807114" lon="14.1313604"><ele>243.6</ele><time>2026-05-01T14:39:13.025Z</time></trkpt><trkpt lat="42.2807845" lon="14.131263"><ele>243.2</ele><time>2026-05-01T14:39:14.025Z</time></trkpt><trkpt lat="42.2808437" lon="14.1311477"><ele>242.79999999999998</ele><time>2026-05-01T14:39:15.024Z</time></trkpt><trkpt lat="42.2808876" lon="14.1310131"><ele>242.39999999999998</ele><time>2026-05-01T14:39:16.024Z</time></trkpt><trkpt lat="42.2809304" lon="14.1308743"><ele>242.0</ele><time>2026-05-01T14:39:17.025Z</time></trkpt><trkpt lat="42.2809678" lon="14.1307194"><ele>243.2</ele><time>2026-05-01T14:39:18.024Z</time></trkpt><trkpt lat="42.2809994" lon="14.1305585"><ele>244.39999999999998</ele><time>2026-05-01T14:39:19.025Z</time></trkpt><trkpt lat="42.2810292" lon="14.1304058"><ele>245.60000000000002</ele><time>2026-05-01T14:39:20.025Z</time></trkpt><trkpt lat="42.281052" lon="14.1302683"><ele>246.8</ele><time>2026-05-01T14:39:21.025Z</time></trkpt><trkpt lat="42.2810501" lon="14.1301381"><ele>248.0</ele><time>2026-05-01T14:39:22.025Z</time></trkpt><trkpt lat="42.2810092" lon="14.1300242"><ele>248.0</ele><time>2026-05-01T14:39:23.024Z</time></trkpt><trkpt lat="42.2809408" lon="14.1299296"><ele>248.0</ele><time>2026-05-01T14:39:24.025Z</time></trkpt><trkpt lat="42.2808547" lon="14.1298918"><ele>248.0</ele><time>2026-05-01T14:39:25.025Z</time></trkpt><trkpt lat="42.2807641" lon="14.1299086"><ele>248.0</ele><time>2026-05-01T14:39:26.025Z</time></trkpt><trkpt lat="42.2806785" lon="14.1299411"><ele>248.0</ele><time>2026-05-01T14:39:27.025Z</time></trkpt><trkpt lat="42.2805968" lon="14.1300814"><ele>249.5</ele><time>2026-05-01T14:39:28.025Z</time></trkpt><trkpt lat="42.2805058" lon="14.1301876"><ele>251.0</ele><time>2026-05-01T14:39:29.025Z</time></trkpt><trkpt lat="42.2804069" lon="14.1303048"><ele>252.5</ele><time>2026-05-01T14:39:30.025Z</time></trkpt><trkpt lat="42.2803058" lon="14.1304135"><ele>254.0</ele><time>2026-05-01T14:39:31.025Z</time></trkpt><trkpt lat="42.2802053" lon="14.1304675"><ele>254.0</ele><time>2026-05-01T14:39:32.025Z</time></trkpt><trkpt lat="42.2801071" lon="14.1304822"><ele>253.99999999999997</ele><time>2026-05-01T14:39:33.025Z</time></trkpt><trkpt lat="42.2800047" lon="14.1304587"><ele>253.99999999999997</ele><time>2026-05-01T14:39:34.025Z</time></trkpt><trkpt lat="42.279901" lon="14.1304126"><ele>254.0</ele><time>2026-05-01T14:39:35.025Z</time></trkpt><trkpt lat="42.2797933" lon="14.1303505"><ele>254.0</ele><time>2026-05-01T14:39:36.025Z</time></trkpt><trkpt lat="42.2796807" lon="14.1302852"><ele>253.5</ele><time>2026-05-01T14:39:37.025Z</time></trkpt><trkpt lat="42.2795645" lon="14.1302156"><ele>253.0</ele><time>2026-05-01T14:39:38.025Z</time></trkpt><trkpt lat="42.2794556" lon="14.1301431"><ele>252.5</ele><time>2026-05-01T14:39:39.025Z</time></trkpt><trkpt lat="42.2793699" lon="14.1300502"><ele>252.0</ele><time>2026-05-01T14:39:40.025Z</time></trkpt><trkpt lat="42.2793027" lon="14.1299259"><ele>254.6</ele><time>2026-05-01T14:39:41.025Z</time></trkpt><trkpt lat="42.2792888" lon="14.1297933"><ele>257.2</ele><time>2026-05-01T14:39:42.025Z</time></trkpt><trkpt lat="42.2792792" lon="14.1296562"><ele>259.8</ele><time>2026-05-01T14:39:43.024Z</time></trkpt><trkpt lat="42.2793951" lon="14.1296199"><ele>262.4</ele><time>2026-05-01T14:39:44.025Z</time></trkpt><trkpt lat="42.2794863" lon="14.1295924"><ele>265.0</ele><time>2026-05-01T14:39:45.025Z</time></trkpt><trkpt lat="42.2795898" lon="14.1295909"><ele>265.0</ele><time>2026-05-01T14:39:46.025Z</time></trkpt><trkpt lat="42.279693" lon="14.1295701"><ele>265.0</ele><time>2026-05-01T14:39:47.025Z</time></trkpt><trkpt lat="42.2797899" lon="14.1295117"><ele>265.0</ele><time>2026-05-01T14:39:48.025Z</time></trkpt><trkpt lat="42.2798689" lon="14.1294425"><ele>265.0</ele><time>2026-05-01T14:39:49.024Z</time></trkpt><trkpt lat="42.2799209" lon="14.1293211"><ele>265.0</ele><time>2026-05-01T14:39:50.025Z</time></trkpt><trkpt lat="42.2799758" lon="14.1291839"><ele>266.5</ele><time>2026-05-01T14:39:51.025Z</time></trkpt><trkpt lat="42.280038" lon="14.1290279"><ele>268.0</ele><time>2026-05-01T14:39:52.025Z</time></trkpt><trkpt lat="42.280102" lon="14.128862"><ele>269.5</ele><time>2026-05-01T14:39:53.025Z</time></trkpt><trkpt lat="42.2801664" lon="14.1287004"><ele>271.0</ele><time>2026-05-01T14:39:54.025Z</time></trkpt><trkpt lat="42.2802237" lon="14.1285591"><ele>271.0</ele><time>2026-05-01T14:39:55.025Z</time></trkpt><trkpt lat="42.280286" lon="14.1284214"><ele>271.0</ele><time>2026-05-01T14:39:56.025Z</time></trkpt><trkpt lat="42.2803737" lon="14.1283064"><ele>271.0</ele><time>2026-05-01T14:39:57.025Z</time></trkpt><trkpt lat="42.2804886" lon="14.1282156"><ele>271.0</ele><time>2026-05-01T14:39:58.025Z</time></trkpt><trkpt lat="42.2806135" lon="14.1281364"><ele>272.5</ele><time>2026-05-01T14:39:59.025Z</time></trkpt><trkpt lat="42.2807404" lon="14.1280707"><ele>274.0</ele><time>2026-05-01T14:40:00.025Z</time></trkpt><trkpt lat="42.2808541" lon="14.1280165"><ele>275.5</ele><time>2026-05-01T14:40:01.025Z</time></trkpt><trkpt lat="42.2809457" lon="14.1279493"><ele>277.0</ele><time>2026-05-01T14:40:02.025Z</time></trkpt><trkpt lat="42.281022" lon="14.1278589"><ele>277.0</ele><time>2026-05-01T14:40:03.025Z</time></trkpt><trkpt lat="42.2810577" lon="14.1277332"><ele>277.0</ele><time>2026-05-01T14:40:04.024Z</time></trkpt><trkpt lat="42.2810838" lon="14.1276042"><ele>277.0</ele><time>2026-05-01T14:40:05.025Z</time></trkpt><trkpt lat="42.2810791" lon="14.1274677"><ele>277.0</ele><time>2026-05-01T14:40:06.025Z</time></trkpt><trkpt lat="42.2810451" lon="14.1273266"><ele>277.0</ele><time>2026-05-01T14:40:07.025Z</time></trkpt><trkpt lat="42.2809462" lon="14.1272369"><ele>279.75</ele><time>2026-05-01T14:40:08.025Z</time></trkpt><trkpt lat="42.2808492" lon="14.1271443"><ele>282.5</ele><time>2026-05-01T14:40:09.025Z</time></trkpt><trkpt lat="42.2807265" lon="14.1271874"><ele>285.25</ele><time>2026-05-01T14:40:10.024Z</time></trkpt><trkpt lat="42.2805468" lon="14.1272378"><ele>288.0</ele><time>2026-05-01T14:40:11.025Z</time></trkpt><trkpt lat="42.2803144" lon="14.1273184"><ele>288.0</ele><time>2026-05-01T14:40:12.025Z</time></trkpt><trkpt lat="42.2801413" lon="14.1273333"><ele>288.0</ele><time>2026-05-01T14:40:13.025Z</time></trkpt><trkpt lat="42.2799591" lon="14.1273576"><ele>288.0</ele><time>2026-05-01T14:40:14.025Z</time></trkpt><trkpt lat="42.279792" lon="14.1273746"><ele>286.8</ele><time>2026-05-01T14:40:15.025Z</time></trkpt><trkpt lat="42.2796504" lon="14.127401"><ele>285.6</ele><time>2026-05-01T14:40:16.025Z</time></trkpt><trkpt lat="42.2795463" lon="14.1274148"><ele>284.4</ele><time>2026-05-01T14:40:17.025Z</time></trkpt><trkpt lat="42.2794403" lon="14.127447"><ele>283.2</ele><time>2026-05-01T14:40:19.025Z</time></trkpt><trkpt lat="42.2793839" lon="14.1274901"><ele>282.0</ele><time>2026-05-01T14:40:21.024Z</time></trkpt><trkpt lat="42.2793159" lon="14.1275645"><ele>282.0</ele><time>2026-05-01T14:40:23.025Z</time></trkpt><trkpt lat="42.2792129" lon="14.1275968"><ele>282.0</ele><time>2026-05-01T14:40:25.025Z</time></trkpt><trkpt lat="42.2791481" lon="14.127612"><ele>282.0</ele><time>2026-05-01T14:40:26.025Z</time></trkpt><trkpt lat="42.2790219" lon="14.1276116"><ele>282.0</ele><time>2026-05-01T14:40:28.025Z</time></trkpt><trkpt lat="42.2789556" lon="14.1276178"><ele>282.0</ele><time>2026-05-01T14:40:29.024Z</time></trkpt><trkpt lat="42.2788916" lon="14.127615"><ele>282.0</ele><time>2026-05-01T14:40:30.025Z</time></trkpt><trkpt lat="42.2788275" lon="14.1276115"><ele>282.2857142857143</ele><time>2026-05-01T14:40:31.025Z</time></trkpt><trkpt lat="42.2787627" lon="14.1276121"><ele>282.57142857142856</ele><time>2026-05-01T14:40:32.025Z</time></trkpt><trkpt lat="42.2786982" lon="14.1276071"><ele>282.85714285714283</ele><time>2026-05-01T14:40:33.025Z</time></trkpt><trkpt lat="42.2786319" lon="14.1276029"><ele>283.1428571428571</ele><time>2026-05-01T14:40:34.025Z</time></trkpt><trkpt lat="42.2785567" lon="14.1276047"><ele>283.4285714285714</ele><time>2026-05-01T14:40:35.025Z</time></trkpt><trkpt lat="42.2784846" lon="14.1276094"><ele>283.7142857142857</ele><time>2026-05-01T14:40:36.025Z</time></trkpt><trkpt lat="42.2784079" lon="14.1276062"><ele>284.0</ele><time>2026-05-01T14:40:37.024Z</time></trkpt><trkpt lat="42.2783239" lon="14.1276047"><ele>284.0</ele><time>2026-05-01T14:40:38.025Z</time></trkpt><trkpt lat="42.2782454" lon="14.1275881"><ele>284.0</ele><time>2026-05-01T14:40:39.024Z</time></trkpt><trkpt lat="42.2781713" lon="14.1275817"><ele>284.0</ele><time>2026-05-01T14:40:40.025Z</time></trkpt><trkpt lat="42.278088" lon="14.1275622"><ele>284.0</ele><time>2026-05-01T14:40:41.025Z</time></trkpt><trkpt lat="42.2780032" lon="14.1275339"><ele>284.0</ele><time>2026-05-01T14:40:42.024Z</time></trkpt><trkpt lat="42.2779216" lon="14.1275035"><ele>284.0</ele><time>2026-05-01T14:40:43.024Z</time></trkpt><trkpt lat="42.2778377" lon="14.1274772"><ele>284.33333333333337</ele><time>2026-05-01T14:40:44.025Z</time></trkpt><trkpt lat="42.2777566" lon="14.127445"><ele>284.6666666666667</ele><time>2026-05-01T14:40:45.025Z</time></trkpt><trkpt lat="42.2776773" lon="14.1274169"><ele>285.0</ele><time>2026-05-01T14:40:46.025Z</time></trkpt><trkpt lat="42.2775977" lon="14.1273928"><ele>285.3333333333333</ele><time>2026-05-01T14:40:47.025Z</time></trkpt><trkpt lat="42.2775144" lon="14.1273743"><ele>285.66666666666663</ele><time>2026-05-01T14:40:48.024Z</time></trkpt><trkpt lat="42.2774259" lon="14.1273682"><ele>286.0</ele><time>2026-05-01T14:40:49.025Z</time></trkpt><trkpt lat="42.2773378" lon="14.1273755"><ele>287.0</ele><time>2026-05-01T14:40:50.025Z</time></trkpt><trkpt lat="42.2772456" lon="14.1273915"><ele>288.0</ele><time>2026-05-01T14:40:51.025Z</time></trkpt><trkpt lat="42.277161" lon="14.1273962"><ele>289.0</ele><time>2026-05-01T14:40:52.025Z</time></trkpt><trkpt lat="42.2770795" lon="14.127392"><ele>290.0</ele><time>2026-05-01T14:40:53.025Z</time></trkpt><trkpt lat="42.277" lon="14.1273701"><ele>291.0</ele><time>2026-05-01T14:40:54.025Z</time></trkpt><trkpt lat="42.2769257" lon="14.1273368"><ele>292.0</ele><time>2026-05-01T14:40:55.025Z</time></trkpt><trkpt lat="42.2768545" lon="14.1272986"><ele>292.8333333333333</ele><time>2026-05-01T14:40:56.025Z</time></trkpt><trkpt lat="42.2767782" lon="14.1272711"><ele>293.66666666666663</ele><time>2026-05-01T14:40:57.025Z</time></trkpt><trkpt lat="42.2767142" lon="14.1272343"><ele>294.5</ele><time>2026-05-01T14:40:58.025Z</time></trkpt><trkpt lat="42.2766141" lon="14.1272014"><ele>295.3333333333333</ele><time>2026-05-01T14:41:00.025Z</time></trkpt><trkpt lat="42.2765242" lon="14.1272519"><ele>296.1666666666667</ele><time>2026-05-01T14:41:02.025Z</time></trkpt><trkpt lat="42.2764756" lon="14.1273112"><ele>297.0</ele><time>2026-05-01T14:41:03.025Z</time></trkpt><trkpt lat="42.2764261" lon="14.1273751"><ele>296.8333333333333</ele><time>2026-05-01T14:41:04.025Z</time></trkpt><trkpt lat="42.2763724" lon="14.1274474"><ele>296.6666666666667</ele><time>2026-05-01T14:41:05.025Z</time></trkpt><trkpt lat="42.2763157" lon="14.1275321"><ele>296.5</ele><time>2026-05-01T14:41:06.025Z</time></trkpt><trkpt lat="42.2762589" lon="14.1276271"><ele>296.33333333333337</ele><time>2026-05-01T14:41:07.025Z</time></trkpt><trkpt lat="42.2762004" lon="14.1277291"><ele>296.1666666666667</ele><time>2026-05-01T14:41:08.025Z</time></trkpt><trkpt lat="42.2761433" lon="14.1278324"><ele>296.0</ele><time>2026-05-01T14:41:09.025Z</time></trkpt><trkpt lat="42.2760637" lon="14.1278772"><ele>296.0</ele><time>2026-05-01T14:41:10.025Z</time></trkpt><trkpt lat="42.2759776" lon="14.1279274"><ele>296.0</ele><time>2026-05-01T14:41:11.025Z</time></trkpt><trkpt lat="42.2758885" lon="14.1279619"><ele>296.0</ele><time>2026-05-01T14:41:12.025Z</time></trkpt><trkpt lat="42.2757964" lon="14.127996"><ele>296.0</ele><time>2026-05-01T14:41:13.025Z</time></trkpt><trkpt lat="42.2757032" lon="14.1280312"><ele>296.0</ele><time>2026-05-01T14:41:14.025Z</time></trkpt><trkpt lat="42.2755946" lon="14.128051"><ele>296.8</ele><time>2026-05-01T14:41:15.025Z</time></trkpt><trkpt lat="42.2754877" lon="14.128097"><ele>297.6</ele><time>2026-05-01T14:41:16.025Z</time></trkpt><trkpt lat="42.2753886" lon="14.1281583"><ele>298.4</ele><time>2026-05-01T14:41:17.024Z</time></trkpt><trkpt lat="42.2753261" lon="14.1282129"><ele>299.2</ele><time>2026-05-01T14:41:18.025Z</time></trkpt><trkpt lat="42.2752685" lon="14.1282539"><ele>300.0</ele><time>2026-05-01T14:41:19.025Z</time></trkpt><trkpt lat="42.2751827" lon="14.1282142"><ele>300.5</ele><time>2026-05-01T14:41:21.025Z</time></trkpt><trkpt lat="42.2751331" lon="14.1280938"><ele>301.0</ele><time>2026-05-01T14:41:23.025Z</time></trkpt><trkpt lat="42.2751071" lon="14.1280152"><ele>301.5</ele><time>2026-05-01T14:41:24.025Z</time></trkpt><trkpt lat="42.2750794" lon="14.1279227"><ele>302.0</ele><time>2026-05-01T14:41:25.025Z</time></trkpt><trkpt lat="42.2750472" lon="14.1278064"><ele>302.5</ele><time>2026-05-01T14:41:26.024Z</time></trkpt><trkpt lat="42.2750078" lon="14.1276873"><ele>303.0</ele><time>2026-05-01T14:41:27.025Z</time></trkpt><trkpt lat="42.2749619" lon="14.1275598"><ele>303.0</ele><time>2026-05-01T14:41:28.024Z</time></trkpt><trkpt lat="42.2749177" lon="14.1274194"><ele>303.0</ele><time>2026-05-01T14:41:29.025Z</time></trkpt><trkpt lat="42.2748691" lon="14.127275"><ele>303.0</ele><time>2026-05-01T14:41:30.025Z</time></trkpt><trkpt lat="42.2748197" lon="14.1271223"><ele>303.0</ele><time>2026-05-01T14:41:31.025Z</time></trkpt><trkpt lat="42.2747667" lon="14.1269678"><ele>302.0</ele><time>2026-05-01T14:41:32.025Z</time></trkpt><trkpt lat="42.2747221" lon="14.126806"><ele>301.0</ele><time>2026-05-01T14:41:33.025Z</time></trkpt><trkpt lat="42.2746834" lon="14.1266494"><ele>300.0</ele><time>2026-05-01T14:41:34.025Z</time></trkpt><trkpt lat="42.2746509" lon="14.1265025"><ele>299.0</ele><time>2026-05-01T14:41:35.024Z</time></trkpt><trkpt lat="42.2746222" lon="14.126357"><ele>297.0</ele><time>2026-05-01T14:41:36.025Z</time></trkpt><trkpt lat="42.274617" lon="14.1262039"><ele>295.0</ele><time>2026-05-01T14:41:37.025Z</time></trkpt><trkpt lat="42.2746291" lon="14.1260579"><ele>293.0</ele><time>2026-05-01T14:41:38.025Z</time></trkpt><trkpt lat="42.2746586" lon="14.1259056"><ele>291.0</ele><time>2026-05-01T14:41:39.025Z</time></trkpt><trkpt lat="42.2746972" lon="14.1257477"><ele>291.25</ele><time>2026-05-01T14:41:40.025Z</time></trkpt><trkpt lat="42.2747416" lon="14.1255825"><ele>291.5</ele><time>2026-05-01T14:41:41.025Z</time></trkpt><trkpt lat="42.274791" lon="14.1254109"><ele>291.75</ele><time>2026-05-01T14:41:42.025Z</time></trkpt><trkpt lat="42.2748383" lon="14.1252446"><ele>292.0</ele><time>2026-05-01T14:41:43.025Z</time></trkpt><trkpt lat="42.2748811" lon="14.125085"><ele>297.4</ele><time>2026-05-01T14:41:44.025Z</time></trkpt><trkpt lat="42.2749187" lon="14.1249527"><ele>302.79999999999995</ele><time>2026-05-01T14:41:45.025Z</time></trkpt><trkpt lat="42.2749582" lon="14.1248351"><ele>308.2</ele><time>2026-05-01T14:41:46.025Z</time></trkpt><trkpt lat="42.2750055" lon="14.1247263"><ele>313.59999999999997</ele><time>2026-05-01T14:41:47.024Z</time></trkpt><trkpt lat="42.2750579" lon="14.1246132"><ele>319.0</ele><time>2026-05-01T14:41:48.025Z</time></trkpt><trkpt lat="42.2751028" lon="14.1245148"><ele>320.3333333333333</ele><time>2026-05-01T14:41:49.025Z</time></trkpt><trkpt lat="42.2751486" lon="14.1244125"><ele>321.66666666666663</ele><time>2026-05-01T14:41:50.025Z</time></trkpt><trkpt lat="42.2752003" lon="14.124331"><ele>323.0</ele><time>2026-05-01T14:41:51.025Z</time></trkpt><trkpt lat="42.275255" lon="14.1242794"><ele>324.3333333333333</ele><time>2026-05-01T14:41:52.024Z</time></trkpt><trkpt lat="42.2753316" lon="14.1242446"><ele>325.6666666666667</ele><time>2026-05-01T14:41:53.025Z</time></trkpt><trkpt lat="42.2754286" lon="14.124238"><ele>327.0</ele><time>2026-05-01T14:41:54.025Z</time></trkpt><trkpt lat="42.2755446" lon="14.1242281"><ele>325.8</ele><time>2026-05-01T14:41:55.025Z</time></trkpt><trkpt lat="42.275655" lon="14.1242206"><ele>324.6</ele><time>2026-05-01T14:41:56.025Z</time></trkpt><trkpt lat="42.2757677" lon="14.1242061"><ele>323.40000000000003</ele><time>2026-05-01T14:41:57.025Z</time></trkpt><trkpt lat="42.2758802" lon="14.1242046"><ele>322.20000000000005</ele><time>2026-05-01T14:41:58.025Z</time></trkpt><trkpt lat="42.2759851" lon="14.124188"><ele>321.0</ele><time>2026-05-01T14:41:59.025Z</time></trkpt><trkpt lat="42.276083" lon="14.1241532"><ele>321.0</ele><time>2026-05-01T14:42:00.025Z</time></trkpt><trkpt lat="42.2761812" lon="14.1241128"><ele>321.0</ele><time>2026-05-01T14:42:01.024Z</time></trkpt><trkpt lat="42.2762837" lon="14.1241168"><ele>321.0</ele><time>2026-05-01T14:42:02.025Z</time></trkpt><trkpt lat="42.2763678" lon="14.1241241"><ele>321.0</ele><time>2026-05-01T14:42:03.025Z</time></trkpt><trkpt lat="42.2764404" lon="14.1241134"><ele>321.0</ele><time>2026-05-01T14:42:04.025Z</time></trkpt><trkpt lat="42.2765417" lon="14.1241089"><ele>320.2</ele><time>2026-05-01T14:42:06.025Z</time></trkpt><trkpt lat="42.2766255" lon="14.1241267"><ele>319.40000000000003</ele><time>2026-05-01T14:42:09.025Z</time></trkpt><trkpt lat="42.2765327" lon="14.1240632"><ele>318.6</ele><time>2026-05-01T14:42:37.025Z</time></trkpt><trkpt lat="42.2764201" lon="14.1239879"><ele>317.8</ele><time>2026-05-01T14:42:39.025Z</time></trkpt><trkpt lat="42.2763651" lon="14.1239361"><ele>317.0</ele><time>2026-05-01T14:42:40.025Z</time></trkpt><trkpt lat="42.2763142" lon="14.1238601"><ele>317.0</ele><time>2026-05-01T14:42:41.025Z</time></trkpt><trkpt lat="42.2762692" lon="14.1237881"><ele>317.0</ele><time>2026-05-01T14:42:42.025Z</time></trkpt><trkpt lat="42.2762255" lon="14.1237007"><ele>317.0</ele><time>2026-05-01T14:42:43.025Z</time></trkpt><trkpt lat="42.2761823" lon="14.1236047"><ele>317.0</ele><time>2026-05-01T14:42:44.025Z</time></trkpt><trkpt lat="42.2761395" lon="14.1235251"><ele>317.0</ele><time>2026-05-01T14:42:45.025Z</time></trkpt><trkpt lat="42.2760856" lon="14.1234607"><ele>317.0</ele><time>2026-05-01T14:42:46.025Z</time></trkpt><trkpt lat="42.2760283" lon="14.1234223"><ele>317.0</ele><time>2026-05-01T14:42:47.025Z</time></trkpt><trkpt lat="42.2759573" lon="14.1233919"><ele>317.0</ele><time>2026-05-01T14:42:48.025Z</time></trkpt><trkpt lat="42.275881" lon="14.1233703"><ele>317.0</ele><time>2026-05-01T14:42:49.025Z</time></trkpt><trkpt lat="42.2757978" lon="14.1233386"><ele>317.0</ele><time>2026-05-01T14:42:50.024Z</time></trkpt><trkpt lat="42.2757046" lon="14.1233169"><ele>317.0</ele><time>2026-05-01T14:42:51.025Z</time></trkpt><trkpt lat="42.2756155" lon="14.1233072"><ele>317.0</ele><time>2026-05-01T14:42:52.025Z</time></trkpt><trkpt lat="42.2755174" lon="14.1232819"><ele>317.0</ele><time>2026-05-01T14:42:53.025Z</time></trkpt><trkpt lat="42.2754233" lon="14.1232429"><ele>316.4</ele><time>2026-05-01T14:42:54.025Z</time></trkpt><trkpt lat="42.2753257" lon="14.1232217"><ele>315.79999999999995</ele><time>2026-05-01T14:42:55.024Z</time></trkpt><trkpt lat="42.2752275" lon="14.1231899"><ele>315.2</ele><time>2026-05-01T14:42:56.025Z</time></trkpt><trkpt lat="42.2751339" lon="14.1231677"><ele>314.59999999999997</ele><time>2026-05-01T14:42:57.025Z</time></trkpt><trkpt lat="42.2750516" lon="14.1231556"><ele>314.0</ele><time>2026-05-01T14:42:58.025Z</time></trkpt><trkpt lat="42.2749795" lon="14.1231413"><ele>314.0</ele><time>2026-05-01T14:42:59.025Z</time></trkpt><trkpt lat="42.2748933" lon="14.1231273"><ele>314.0</ele><time>2026-05-01T14:43:00.025Z</time></trkpt><trkpt lat="42.2748162" lon="14.1231205"><ele>314.0</ele><time>2026-05-01T14:43:01.025Z</time></trkpt><trkpt lat="42.2747376" lon="14.1231059"><ele>314.0</ele><time>2026-05-01T14:43:02.024Z</time></trkpt><trkpt lat="42.2746649" lon="14.1230965"><ele>314.0</ele><time>2026-05-01T14:43:03.025Z</time></trkpt><trkpt lat="42.2745962" lon="14.1230823"><ele>314.0</ele><time>2026-05-01T14:43:04.025Z</time></trkpt><trkpt lat="42.2745289" lon="14.1230738"><ele>314.85714285714283</ele><time>2026-05-01T14:43:05.025Z</time></trkpt><trkpt lat="42.2744652" lon="14.1230561"><ele>315.7142857142857</ele><time>2026-05-01T14:43:06.025Z</time></trkpt><trkpt lat="42.2744051" lon="14.123018"><ele>316.57142857142856</ele><time>2026-05-01T14:43:07.025Z</time></trkpt><trkpt lat="42.2743483" lon="14.1229771"><ele>317.42857142857144</ele><time>2026-05-01T14:43:08.025Z</time></trkpt><trkpt lat="42.274291" lon="14.1229305"><ele>318.2857142857143</ele><time>2026-05-01T14:43:09.025Z</time></trkpt><trkpt lat="42.2742306" lon="14.1228904"><ele>319.1428571428571</ele><time>2026-05-01T14:43:10.025Z</time></trkpt><trkpt lat="42.2741731" lon="14.1228458"><ele>320.0</ele><time>2026-05-01T14:43:11.024Z</time></trkpt><trkpt lat="42.2741213" lon="14.1227892"><ele>320.0</ele><time>2026-05-01T14:43:12.024Z</time></trkpt><trkpt lat="42.2740722" lon="14.1227082"><ele>320.0</ele><time>2026-05-01T14:43:13.025Z</time></trkpt><trkpt lat="42.2740301" lon="14.1226148"><ele>320.0</ele><time>2026-05-01T14:43:14.025Z</time></trkpt><trkpt lat="42.2739936" lon="14.1225177"><ele>320.0</ele><time>2026-05-01T14:43:15.025Z</time></trkpt><trkpt lat="42.2739555" lon="14.1224339"><ele>320.0</ele><time>2026-05-01T14:43:16.025Z</time></trkpt><trkpt lat="42.2739114" lon="14.1223701"><ele>320.0</ele><time>2026-05-01T14:43:17.025Z</time></trkpt><trkpt lat="42.2738217" lon="14.1222856"><ele>316.83333333333337</ele><time>2026-05-01T14:43:19.025Z</time></trkpt><trkpt lat="42.2737451" lon="14.122201"><ele>313.6666666666667</ele><time>2026-05-01T14:43:21.025Z</time></trkpt><trkpt lat="42.2736906" lon="14.1220904"><ele>310.5</ele><time>2026-05-01T14:43:23.025Z</time></trkpt><trkpt lat="42.2736706" lon="14.1220089"><ele>307.3333333333333</ele><time>2026-05-01T14:43:24.025Z</time></trkpt><trkpt lat="42.2736549" lon="14.1219141"><ele>304.16666666666663</ele><time>2026-05-01T14:43:25.024Z</time></trkpt><trkpt lat="42.2736343" lon="14.1218115"><ele>301.0</ele><time>2026-05-01T14:43:26.025Z</time></trkpt><trkpt lat="42.273597" lon="14.1217151"><ele>301.0</ele><time>2026-05-01T14:43:27.025Z</time></trkpt><trkpt lat="42.2735483" lon="14.1216267"><ele>301.0</ele><time>2026-05-01T14:43:28.025Z</time></trkpt><trkpt lat="42.2734884" lon="14.1215438"><ele>301.0</ele><time>2026-05-01T14:43:29.024Z</time></trkpt><trkpt lat="42.27343" lon="14.1214835"><ele>301.0</ele><time>2026-05-01T14:43:30.025Z</time></trkpt><trkpt lat="42.2733782" lon="14.1214316"><ele>301.0</ele><time>2026-05-01T14:43:31.025Z</time></trkpt><trkpt lat="42.273299" lon="14.121343"><ele>301.0</ele><time>2026-05-01T14:43:33.025Z</time></trkpt><trkpt lat="42.2732534" lon="14.1212345"><ele>300.40000000000003</ele><time>2026-05-01T14:43:35.025Z</time></trkpt><trkpt lat="42.2732191" lon="14.1211418"><ele>299.8</ele><time>2026-05-01T14:43:37.025Z</time></trkpt><trkpt lat="42.2731587" lon="14.1210648"><ele>299.20000000000005</ele><time>2026-05-01T14:43:39.025Z</time></trkpt><trkpt lat="42.2730762" lon="14.1210044"><ele>298.6</ele><time>2026-05-01T14:43:41.025Z</time></trkpt><trkpt lat="42.2729728" lon="14.1209397"><ele>298.0</ele><time>2026-05-01T14:43:43.025Z</time></trkpt><trkpt lat="42.2728766" lon="14.1208628"><ele>296.8</ele><time>2026-05-01T14:43:45.025Z</time></trkpt><trkpt lat="42.2727892" lon="14.1208044"><ele>295.6</ele><time>2026-05-01T14:43:47.025Z</time></trkpt><trkpt lat="42.2726992" lon="14.1207525"><ele>294.4</ele><time>2026-05-01T14:43:49.024Z</time></trkpt><trkpt lat="42.2726135" lon="14.1207072"><ele>293.2</ele><time>2026-05-01T14:43:51.025Z</time></trkpt><trkpt lat="42.2725308" lon="14.1206485"><ele>292.0</ele><time>2026-05-01T14:43:53.025Z</time></trkpt><trkpt lat="42.2724473" lon="14.1205801"><ele>290.5</ele><time>2026-05-01T14:43:55.025Z</time></trkpt><trkpt lat="42.2723627" lon="14.1205037"><ele>289.0</ele><time>2026-05-01T14:43:57.025Z</time></trkpt><trkpt lat="42.2722879" lon="14.1204378"><ele>287.5</ele><time>2026-05-01T14:43:59.024Z</time></trkpt><trkpt lat="42.2722174" lon="14.1203803"><ele>286.0</ele><time>2026-05-01T14:44:01.025Z</time></trkpt><trkpt lat="42.2721566" lon="14.1203294"><ele>284.5</ele><time>2026-05-01T14:44:03.025Z</time></trkpt><trkpt lat="42.2720918" lon="14.1202683"><ele>283.0</ele><time>2026-05-01T14:44:05.025Z</time></trkpt><trkpt lat="42.2720182" lon="14.1202085"><ele>282.6</ele><time>2026-05-01T14:44:07.025Z</time></trkpt><trkpt lat="42.2719277" lon="14.1201365"><ele>282.20000000000005</ele><time>2026-05-01T14:44:09.025Z</time></trkpt><trkpt lat="42.2718223" lon="14.120052"><ele>281.8</ele><time>2026-05-01T14:44:11.025Z</time></trkpt><trkpt lat="42.2717245" lon="14.1199807"><ele>281.40000000000003</ele><time>2026-05-01T14:44:13.025Z</time></trkpt><trkpt lat="42.2716295" lon="14.1199243"><ele>281.0</ele><time>2026-05-01T14:44:15.024Z</time></trkpt><trkpt lat="42.2715453" lon="14.1198454"><ele>280.5</ele><time>2026-05-01T14:44:17.025Z</time></trkpt><trkpt lat="42.2714734" lon="14.1197271"><ele>280.0</ele><time>2026-05-01T14:44:19.025Z</time></trkpt><trkpt lat="42.2714423" lon="14.1196466"><ele>279.5</ele><time>2026-05-01T14:44:20.024Z</time></trkpt><trkpt lat="42.271414" lon="14.1195535"><ele>279.0</ele><time>2026-05-01T14:44:21.025Z</time></trkpt><trkpt lat="42.2713827" lon="14.1194532"><ele>278.5</ele><time>2026-05-01T14:44:22.025Z</time></trkpt><trkpt lat="42.2713545" lon="14.1193563"><ele>278.0</ele><time>2026-05-01T14:44:23.025Z</time></trkpt><trkpt lat="42.2713232" lon="14.1192621"><ele>278.0</ele><time>2026-05-01T14:44:24.024Z</time></trkpt><trkpt lat="42.27129" lon="14.1191703"><ele>278.0</ele><time>2026-05-01T14:44:25.025Z</time></trkpt><trkpt lat="42.2712569" lon="14.1190784"><ele>278.0</ele><time>2026-05-01T14:44:26.024Z</time></trkpt><trkpt lat="42.2712149" lon="14.118992"><ele>278.0</ele><time>2026-05-01T14:44:27.025Z</time></trkpt><trkpt lat="42.2711709" lon="14.1189144"><ele>278.0</ele><time>2026-05-01T14:44:28.025Z</time></trkpt><trkpt lat="42.2711197" lon="14.1188583"><ele>278.0</ele><time>2026-05-01T14:44:29.025Z</time></trkpt><trkpt lat="42.2710283" lon="14.1188049"><ele>277.33333333333337</ele><time>2026-05-01T14:44:31.025Z</time></trkpt><trkpt lat="42.2709464" lon="14.11879"><ele>276.6666666666667</ele><time>2026-05-01T14:44:34.025Z</time></trkpt><trkpt lat="42.2708505" lon="14.1187844"><ele>276.0</ele><time>2026-05-01T14:44:36.025Z</time></trkpt><trkpt lat="42.2707797" lon="14.1187822"><ele>275.3333333333333</ele><time>2026-05-01T14:44:37.025Z</time></trkpt><trkpt lat="42.2707062" lon="14.1187779"><ele>274.66666666666663</ele><time>2026-05-01T14:44:38.025Z</time></trkpt><trkpt lat="42.270625" lon="14.1187601"><ele>274.0</ele><time>2026-05-01T14:44:39.025Z</time></trkpt><trkpt lat="42.2705452" lon="14.1187422"><ele>275.59999999999997</ele><time>2026-05-01T14:44:40.024Z</time></trkpt><trkpt lat="42.2704628" lon="14.1187278"><ele>277.2</ele><time>2026-05-01T14:44:41.025Z</time></trkpt><trkpt lat="42.27038" lon="14.1187043"><ele>278.79999999999995</ele><time>2026-05-01T14:44:42.024Z</time></trkpt><trkpt lat="42.270292" lon="14.1186706"><ele>280.4</ele><time>2026-05-01T14:44:43.025Z</time></trkpt><trkpt lat="42.2702062" lon="14.1186235"><ele>282.0</ele><time>2026-05-01T14:44:44.025Z</time></trkpt><trkpt lat="42.2701168" lon="14.1185698"><ele>282.0</ele><time>2026-05-01T14:44:45.025Z</time></trkpt><trkpt lat="42.2700276" lon="14.1185203"><ele>282.0</ele><time>2026-05-01T14:44:46.025Z</time></trkpt><trkpt lat="42.2699448" lon="14.1184842"><ele>282.0</ele><time>2026-05-01T14:44:47.025Z</time></trkpt><trkpt lat="42.2698776" lon="14.1184456"><ele>282.0</ele><time>2026-05-01T14:44:48.025Z</time></trkpt><trkpt lat="42.2697881" lon="14.1183714"><ele>282.0</ele><time>2026-05-01T14:44:50.025Z</time></trkpt><trkpt lat="42.2697278" lon="14.11832"><ele>282.0</ele><time>2026-05-01T14:44:52.025Z</time></trkpt><trkpt lat="42.2696749" lon="14.1182725"><ele>279.4</ele><time>2026-05-01T14:45:19.025Z</time></trkpt><trkpt lat="42.2696071" lon="14.1182175"><ele>276.79999999999995</ele><time>2026-05-01T14:47:21.025Z</time></trkpt><trkpt lat="42.2695583" lon="14.1181585"><ele>274.2</ele><time>2026-05-01T14:47:23.025Z</time></trkpt><trkpt lat="42.2694991" lon="14.1180635"><ele>271.59999999999997</ele><time>2026-05-01T14:47:25.024Z</time></trkpt><trkpt lat="42.2694403" lon="14.1179466"><ele>269.0</ele><time>2026-05-01T14:47:27.025Z</time></trkpt><trkpt lat="42.2693921" lon="14.1178097"><ele>269.0</ele><time>2026-05-01T14:47:29.024Z</time></trkpt><trkpt lat="42.2693743" lon="14.1176593"><ele>269.0</ele><time>2026-05-01T14:47:31.025Z</time></trkpt><trkpt lat="42.2693858" lon="14.1175122"><ele>269.0</ele><time>2026-05-01T14:47:33.025Z</time></trkpt><trkpt lat="42.2694286" lon="14.1173612"><ele>269.0</ele><time>2026-05-01T14:47:35.025Z</time></trkpt><trkpt lat="42.2694897" lon="14.1172263"><ele>266.5</ele><time>2026-05-01T14:47:37.025Z</time></trkpt><trkpt lat="42.2695399" lon="14.1170997"><ele>264.0</ele><time>2026-05-01T14:47:39.025Z</time></trkpt><trkpt lat="42.2695722" lon="14.116954"><ele>261.5</ele><time>2026-05-01T14:47:41.025Z</time></trkpt><trkpt lat="42.2695779" lon="14.1167817"><ele>259.0</ele><time>2026-05-01T14:47:43.025Z</time></trkpt><trkpt lat="42.2695757" lon="14.116615"><ele>257.8</ele><time>2026-05-01T14:47:45.025Z</time></trkpt><trkpt lat="42.2695746" lon="14.1165248"><ele>256.59999999999997</ele><time>2026-05-01T14:47:46.025Z</time></trkpt><trkpt lat="42.2695742" lon="14.1164384"><ele>255.4</ele><time>2026-05-01T14:47:47.025Z</time></trkpt><trkpt lat="42.2695742" lon="14.1162767"><ele>254.2</ele><time>2026-05-01T14:47:49.024Z</time></trkpt><trkpt lat="42.2695648" lon="14.1161169"><ele>253.0</ele><time>2026-05-01T14:47:51.025Z</time></trkpt><trkpt lat="42.2695283" lon="14.1159568"><ele>253.0</ele><time>2026-05-01T14:47:53.025Z</time></trkpt><trkpt lat="42.2694689" lon="14.1158221"><ele>253.0</ele><time>2026-05-01T14:47:55.025Z</time></trkpt><trkpt lat="42.2693757" lon="14.1157199"><ele>253.0</ele><time>2026-05-01T14:47:57.025Z</time></trkpt><trkpt lat="42.2692668" lon="14.1156376"><ele>253.0</ele><time>2026-05-01T14:47:59.025Z</time></trkpt><trkpt lat="42.2692125" lon="14.1155873"><ele>253.0</ele><time>2026-05-01T14:48:00.024Z</time></trkpt><trkpt lat="42.2691264" lon="14.1154659"><ele>251.99999999999997</ele><time>2026-05-01T14:48:02.024Z</time></trkpt><trkpt lat="42.2690888" lon="14.1153923"><ele>251.0</ele><time>2026-05-01T14:48:03.025Z</time></trkpt><trkpt lat="42.2690545" lon="14.1153131"><ele>250.0</ele><time>2026-05-01T14:48:04.024Z</time></trkpt><trkpt lat="42.2689996" lon="14.1151934"><ele>249.0</ele><time>2026-05-01T14:48:06.025Z</time></trkpt><trkpt lat="42.268975" lon="14.1151133"><ele>247.99999999999997</ele><time>2026-05-01T14:48:08.024Z</time></trkpt><trkpt lat="42.2689636" lon="14.1150231"><ele>247.0</ele><time>2026-05-01T14:48:10.025Z</time></trkpt><trkpt lat="42.2689216" lon="14.1149197"><ele>243.39999999999998</ele><time>2026-05-01T14:48:12.025Z</time></trkpt><trkpt lat="42.2688703" lon="14.1148118"><ele>239.79999999999998</ele><time>2026-05-01T14:48:14.025Z</time></trkpt><trkpt lat="42.2688233" lon="14.1146817"><ele>236.2</ele><time>2026-05-01T14:48:16.025Z</time></trkpt><trkpt lat="42.2688029" lon="14.1145437"><ele>232.6</ele><time>2026-05-01T14:48:18.025Z</time></trkpt><trkpt lat="42.26878" lon="14.1144063"><ele>229.0</ele><time>2026-05-01T14:48:20.025Z</time></trkpt><trkpt lat="42.2687472" lon="14.1142486"><ele>229.0</ele><time>2026-05-01T14:48:22.025Z</time></trkpt><trkpt lat="42.2687311" lon="14.1141513"><ele>229.0</ele><time>2026-05-01T14:48:23.025Z</time></trkpt><trkpt lat="42.2687061" lon="14.1140645"><ele>229.0</ele><time>2026-05-01T14:48:24.025Z</time></trkpt><trkpt lat="42.2686692" lon="14.1139891"><ele>229.0</ele><time>2026-05-01T14:48:25.025Z</time></trkpt><trkpt lat="42.268618" lon="14.1139207"><ele>229.0</ele><time>2026-05-01T14:48:26.025Z</time></trkpt><trkpt lat="42.2685498" lon="14.1138684"><ele>229.0</ele><time>2026-05-01T14:48:27.024Z</time></trkpt><trkpt lat="42.2684762" lon="14.1138134"><ele>229.0</ele><time>2026-05-01T14:48:28.025Z</time></trkpt><trkpt lat="42.2684052" lon="14.1137498"><ele>228.99999999999997</ele><time>2026-05-01T14:48:29.025Z</time></trkpt><trkpt lat="42.268336" lon="14.1136887"><ele>229.0</ele><time>2026-05-01T14:48:30.025Z</time></trkpt><trkpt lat="42.2682658" lon="14.1136415"><ele>229.0</ele><time>2026-05-01T14:48:31.024Z</time></trkpt><trkpt lat="42.2681914" lon="14.113599"><ele>229.0</ele><time>2026-05-01T14:48:32.025Z</time></trkpt><trkpt lat="42.2681276" lon="14.1135473"><ele>228.99999999999997</ele><time>2026-05-01T14:48:33.025Z</time></trkpt><trkpt lat="42.268062" lon="14.1134773"><ele>229.0</ele><time>2026-05-01T14:48:34.025Z</time></trkpt><trkpt lat="42.2680007" lon="14.1133896"><ele>228.66666666666666</ele><time>2026-05-01T14:48:35.025Z</time></trkpt><trkpt lat="42.2679449" lon="14.113299"><ele>228.33333333333331</ele><time>2026-05-01T14:48:36.024Z</time></trkpt><trkpt lat="42.2678918" lon="14.1132077"><ele>228.0</ele><time>2026-05-01T14:48:37.025Z</time></trkpt><trkpt lat="42.2678472" lon="14.1131142"><ele>227.66666666666669</ele><time>2026-05-01T14:48:38.025Z</time></trkpt><trkpt lat="42.2678125" lon="14.1130212"><ele>227.33333333333334</ele><time>2026-05-01T14:48:39.025Z</time></trkpt><trkpt lat="42.2677721" lon="14.1129349"><ele>227.0</ele><time>2026-05-01T14:48:40.025Z</time></trkpt><trkpt lat="42.267716" lon="14.1128572"><ele>227.33333333333334</ele><time>2026-05-01T14:48:41.025Z</time></trkpt><trkpt lat="42.2676519" lon="14.1127842"><ele>227.66666666666669</ele><time>2026-05-01T14:48:42.025Z</time></trkpt><trkpt lat="42.2675889" lon="14.1127166"><ele>228.0</ele><time>2026-05-01T14:48:43.025Z</time></trkpt><trkpt lat="42.2675285" lon="14.1126516"><ele>228.33333333333331</ele><time>2026-05-01T14:48:44.025Z</time></trkpt><trkpt lat="42.2674744" lon="14.1125838"><ele>228.66666666666666</ele><time>2026-05-01T14:48:45.025Z</time></trkpt><trkpt lat="42.2674309" lon="14.1125024"><ele>229.0</ele><time>2026-05-01T14:48:46.025Z</time></trkpt><trkpt lat="42.2673993" lon="14.1124063"><ele>228.99999999999997</ele><time>2026-05-01T14:48:47.025Z</time></trkpt><trkpt lat="42.2673708" lon="14.1122988"><ele>229.0</ele><time>2026-05-01T14:48:48.025Z</time></trkpt><trkpt lat="42.2673446" lon="14.1121804"><ele>229.0</ele><time>2026-05-01T14:48:49.025Z</time></trkpt><trkpt lat="42.2673186" lon="14.1120643"><ele>229.0</ele><time>2026-05-01T14:48:50.025Z</time></trkpt><trkpt lat="42.2672905" lon="14.1119504"><ele>228.99999999999997</ele><time>2026-05-01T14:48:51.025Z</time></trkpt><trkpt lat="42.2672623" lon="14.1118347"><ele>229.0</ele><time>2026-05-01T14:48:52.025Z</time></trkpt><trkpt lat="42.2672289" lon="14.111718"><ele>232.0</ele><time>2026-05-01T14:48:53.025Z</time></trkpt><trkpt lat="42.2671931" lon="14.1116009"><ele>234.99999999999997</ele><time>2026-05-01T14:48:54.025Z</time></trkpt><trkpt lat="42.2671584" lon="14.1114829"><ele>237.99999999999997</ele><time>2026-05-01T14:48:55.025Z</time></trkpt><trkpt lat="42.2671248" lon="14.1113634"><ele>241.0</ele><time>2026-05-01T14:48:56.024Z</time></trkpt><trkpt lat="42.2670873" lon="14.1112434"><ele>244.0</ele><time>2026-05-01T14:48:57.025Z</time></trkpt><trkpt lat="42.2670463" lon="14.1111226"><ele>243.99999999999997</ele><time>2026-05-01T14:48:58.025Z</time></trkpt><trkpt lat="42.2670052" lon="14.1110041"><ele>244.0</ele><time>2026-05-01T14:48:59.024Z</time></trkpt><trkpt lat="42.2669686" lon="14.1108921"><ele>244.0</ele><time>2026-05-01T14:49:00.025Z</time></trkpt><trkpt lat="42.266935" lon="14.1107896"><ele>244.0</ele><time>2026-05-01T14:49:01.025Z</time></trkpt><trkpt lat="42.2669043" lon="14.1106868"><ele>243.99999999999997</ele><time>2026-05-01T14:49:02.025Z</time></trkpt><trkpt lat="42.2668853" lon="14.1105926"><ele>244.0</ele><time>2026-05-01T14:49:03.024Z</time></trkpt><trkpt lat="42.2668632" lon="14.1104949"><ele>244.6</ele><time>2026-05-01T14:49:04.025Z</time></trkpt><trkpt lat="42.2668452" lon="14.1104046"><ele>245.2</ele><time>2026-05-01T14:49:05.025Z</time></trkpt><trkpt lat="42.2668339" lon="14.1103209"><ele>245.79999999999998</ele><time>2026-05-01T14:49:06.025Z</time></trkpt><trkpt lat="42.2668086" lon="14.1101703"><ele>246.39999999999998</ele><time>2026-05-01T14:49:08.025Z</time></trkpt><trkpt lat="42.2667874" lon="14.1100111"><ele>247.0</ele><time>2026-05-01T14:49:10.025Z</time></trkpt><trkpt lat="42.26675" lon="14.1098604"><ele>248.66666666666666</ele><time>2026-05-01T14:49:12.025Z</time></trkpt><trkpt lat="42.2666988" lon="14.1097357"><ele>250.33333333333331</ele><time>2026-05-01T14:49:14.025Z</time></trkpt><trkpt lat="42.2666678" lon="14.1096597"><ele>252.0</ele><time>2026-05-01T14:49:15.025Z</time></trkpt><trkpt lat="42.2666351" lon="14.1095766"><ele>253.66666666666669</ele><time>2026-05-01T14:49:16.025Z</time></trkpt><trkpt lat="42.266597" lon="14.1094865"><ele>255.33333333333334</ele><time>2026-05-01T14:49:17.025Z</time></trkpt><trkpt lat="42.2665546" lon="14.1093979"><ele>257.0</ele><time>2026-05-01T14:49:18.025Z</time></trkpt><trkpt lat="42.2665182" lon="14.1093122"><ele>257.0</ele><time>2026-05-01T14:49:19.025Z</time></trkpt><trkpt lat="42.2664833" lon="14.1092307"><ele>257.0</ele><time>2026-05-01T14:49:20.025Z</time></trkpt><trkpt lat="42.2664435" lon="14.1091502"><ele>257.0</ele><time>2026-05-01T14:49:21.025Z</time></trkpt><trkpt lat="42.2664021" lon="14.1090736"><ele>257.0</ele><time>2026-05-01T14:49:22.025Z</time></trkpt><trkpt lat="42.26636" lon="14.1089968"><ele>257.0</ele><time>2026-05-01T14:49:23.025Z</time></trkpt><trkpt lat="42.266319" lon="14.1089311"><ele>257.0</ele><time>2026-05-01T14:49:24.025Z</time></trkpt><trkpt lat="42.2662698" lon="14.1088585"><ele>257.0</ele><time>2026-05-01T14:49:25.025Z</time></trkpt><trkpt lat="42.2662122" lon="14.108774"><ele>258.6666666666667</ele><time>2026-05-01T14:49:26.025Z</time></trkpt><trkpt lat="42.2661544" lon="14.1086928"><ele>260.33333333333337</ele><time>2026-05-01T14:49:27.025Z</time></trkpt><trkpt lat="42.2661023" lon="14.1086096"><ele>262.0</ele><time>2026-05-01T14:49:28.025Z</time></trkpt><trkpt lat="42.2660477" lon="14.1085241"><ele>263.6666666666667</ele><time>2026-05-01T14:49:29.025Z</time></trkpt><trkpt lat="42.2659935" lon="14.1084387"><ele>265.3333333333333</ele><time>2026-05-01T14:49:30.025Z</time></trkpt><trkpt lat="42.2659383" lon="14.1083528"><ele>267.0</ele><time>2026-05-01T14:49:31.025Z</time></trkpt><trkpt lat="42.2658858" lon="14.1082582"><ele>267.3333333333333</ele><time>2026-05-01T14:49:32.025Z</time></trkpt><trkpt lat="42.2658391" lon="14.1081498"><ele>267.6666666666667</ele><time>2026-05-01T14:49:33.025Z</time></trkpt><trkpt lat="42.265797" lon="14.1080442"><ele>268.0</ele><time>2026-05-01T14:49:34.025Z</time></trkpt><trkpt lat="42.2657602" lon="14.1079419"><ele>268.33333333333337</ele><time>2026-05-01T14:49:35.025Z</time></trkpt><trkpt lat="42.2657209" lon="14.1078336"><ele>268.6666666666667</ele><time>2026-05-01T14:49:36.025Z</time></trkpt><trkpt lat="42.2656843" lon="14.107728"><ele>269.0</ele><time>2026-05-01T14:49:37.025Z</time></trkpt><trkpt lat="42.265646" lon="14.1076321"><ele>269.1666666666667</ele><time>2026-05-01T14:49:38.025Z</time></trkpt><trkpt lat="42.2656023" lon="14.1075437"><ele>269.33333333333337</ele><time>2026-05-01T14:49:39.024Z</time></trkpt><trkpt lat="42.2655501" lon="14.1074564"><ele>269.5</ele><time>2026-05-01T14:49:40.025Z</time></trkpt><trkpt lat="42.2654993" lon="14.1073687"><ele>269.6666666666667</ele><time>2026-05-01T14:49:41.024Z</time></trkpt><trkpt lat="42.2654553" lon="14.1072807"><ele>269.8333333333333</ele><time>2026-05-01T14:49:42.025Z</time></trkpt><trkpt lat="42.2654155" lon="14.1071894"><ele>270.0</ele><time>2026-05-01T14:49:43.025Z</time></trkpt><trkpt lat="42.265379" lon="14.1071065"><ele>270.0</ele><time>2026-05-01T14:49:44.025Z</time></trkpt><trkpt lat="42.2653477" lon="14.1070279"><ele>270.0</ele><time>2026-05-01T14:49:45.025Z</time></trkpt><trkpt lat="42.2653164" lon="14.1069513"><ele>270.0</ele><time>2026-05-01T14:49:46.025Z</time></trkpt><trkpt lat="42.2652779" lon="14.1068662"><ele>270.0</ele><time>2026-05-01T14:49:47.025Z</time></trkpt><trkpt lat="42.2652166" lon="14.1067395"><ele>270.0</ele><time>2026-05-01T14:49:49.025Z</time></trkpt><trkpt lat="42.265152" lon="14.1066673"><ele>270.0</ele><time>2026-05-01T14:49:51.025Z</time></trkpt><trkpt lat="42.2650683" lon="14.106617"><ele>270.0</ele><time>2026-05-01T14:49:54.025Z</time></trkpt><trkpt lat="42.2650044" lon="14.1065871"><ele>270.0</ele><time>2026-05-01T14:49:56.025Z</time></trkpt><trkpt lat="42.2649127" lon="14.1065572"><ele>270.0</ele><time>2026-05-01T14:49:58.025Z</time></trkpt><trkpt lat="42.2648315" lon="14.1065217"><ele>270.0</ele><time>2026-05-01T14:50:00.025Z</time></trkpt><trkpt lat="42.2647471" lon="14.1064878"><ele>270.0</ele><time>2026-05-01T14:50:03.025Z</time></trkpt><trkpt lat="42.2646721" lon="14.1064668"><ele>270.0</ele><time>2026-05-01T14:50:05.024Z</time></trkpt><trkpt lat="42.264589" lon="14.1064516"><ele>269.5</ele><time>2026-05-01T14:50:07.025Z</time></trkpt><trkpt lat="42.2645164" lon="14.1064398"><ele>269.0</ele><time>2026-05-01T14:50:09.025Z</time></trkpt><trkpt lat="42.2644406" lon="14.1064208"><ele>268.5</ele><time>2026-05-01T14:50:11.025Z</time></trkpt><trkpt lat="42.2643719" lon="14.1064122"><ele>268.0</ele><time>2026-05-01T14:50:13.025Z</time></trkpt><trkpt lat="42.2643088" lon="14.1064081"><ele>267.5</ele><time>2026-05-01T14:50:15.025Z</time></trkpt><trkpt lat="42.2642243" lon="14.106417"><ele>267.0</ele><time>2026-05-01T14:50:17.025Z</time></trkpt><trkpt lat="42.2641189" lon="14.1064314"><ele>267.0</ele><time>2026-05-01T14:50:19.025Z</time></trkpt><trkpt lat="42.2640012" lon="14.1064128"><ele>267.0</ele><time>2026-05-01T14:50:21.025Z</time></trkpt><trkpt lat="42.2639381" lon="14.1063897"><ele>267.0</ele><time>2026-05-01T14:50:22.025Z</time></trkpt><trkpt lat="42.263876" lon="14.1063462"><ele>267.0</ele><time>2026-05-01T14:50:23.025Z</time></trkpt><trkpt lat="42.263819" lon="14.1062917"><ele>267.0</ele><time>2026-05-01T14:50:24.025Z</time></trkpt><trkpt lat="42.2637665" lon="14.1062362"><ele>267.0</ele><time>2026-05-01T14:50:25.025Z</time></trkpt><trkpt lat="42.2637107" lon="14.1061742"><ele>269.28571428571433</ele><time>2026-05-01T14:50:26.025Z</time></trkpt><trkpt lat="42.263662" lon="14.1061029"><ele>271.57142857142856</ele><time>2026-05-01T14:50:27.025Z</time></trkpt><trkpt lat="42.2635941" lon="14.1060074"><ele>273.8571428571429</ele><time>2026-05-01T14:50:29.025Z</time></trkpt><trkpt lat="42.2635499" lon="14.1059461"><ele>276.14285714285717</ele><time>2026-05-01T14:50:32.025Z</time></trkpt><trkpt lat="42.2635024" lon="14.1058899"><ele>278.42857142857144</ele><time>2026-05-01T14:50:39.025Z</time></trkpt><trkpt lat="42.2634904" lon="14.1059797"><ele>280.7142857142857</ele><time>2026-05-01T14:50:49.025Z</time></trkpt><trkpt lat="42.2635565" lon="14.1059582"><ele>283.0</ele><time>2026-05-01T14:51:09.025Z</time></trkpt><trkpt lat="42.2636143" lon="14.1060222"><ele>283.0</ele><time>2026-05-01T14:51:16.025Z</time></trkpt><trkpt lat="42.2636636" lon="14.1061107"><ele>283.0</ele><time>2026-05-01T14:51:19.025Z</time></trkpt><trkpt lat="42.2637188" lon="14.106188"><ele>283.0</ele><time>2026-05-01T14:51:22.025Z</time></trkpt><trkpt lat="42.2637833" lon="14.1062627"><ele>283.0</ele><time>2026-05-01T14:51:25.025Z</time></trkpt><trkpt lat="42.2638485" lon="14.1063396"><ele>283.0</ele><time>2026-05-01T14:51:28.025Z</time></trkpt><trkpt lat="42.2639227" lon="14.106405"><ele>283.0</ele><time>2026-05-01T14:51:31.025Z</time></trkpt><trkpt lat="42.2639932" lon="14.1064273"><ele>280.3333333333333</ele><time>2026-05-01T14:51:33.025Z</time></trkpt><trkpt lat="42.2640719" lon="14.1064314"><ele>277.66666666666663</ele><time>2026-05-01T14:51:35.025Z</time></trkpt><trkpt lat="42.2641419" lon="14.1064337"><ele>275.0</ele><time>2026-05-01T14:51:37.025Z</time></trkpt><trkpt lat="42.2642152" lon="14.1064302"><ele>272.3333333333333</ele><time>2026-05-01T14:51:39.025Z</time></trkpt><trkpt lat="42.2643009" lon="14.106421"><ele>269.6666666666667</ele><time>2026-05-01T14:51:41.024Z</time></trkpt><trkpt lat="42.2644072" lon="14.1064264"><ele>267.0</ele><time>2026-05-01T14:51:43.025Z</time></trkpt><trkpt lat="42.264514" lon="14.1064524"><ele>267.0</ele><time>2026-05-01T14:51:45.025Z</time></trkpt><trkpt lat="42.2645782" lon="14.1064673"><ele>267.0</ele><time>2026-05-01T14:51:46.025Z</time></trkpt><trkpt lat="42.2646855" lon="14.1064885"><ele>267.0</ele><time>2026-05-01T14:51:48.025Z</time></trkpt><trkpt lat="42.2647991" lon="14.1065264"><ele>267.0</ele><time>2026-05-01T14:51:50.025Z</time></trkpt><trkpt lat="42.2648609" lon="14.1065448"><ele>267.0</ele><time>2026-05-01T14:51:51.025Z</time></trkpt><trkpt lat="42.2649673" lon="14.1065866"><ele>267.5</ele><time>2026-05-01T14:51:53.025Z</time></trkpt><trkpt lat="42.2650516" lon="14.1066176"><ele>268.0</ele><time>2026-05-01T14:51:55.025Z</time></trkpt><trkpt lat="42.2651273" lon="14.1066612"><ele>268.5</ele><time>2026-05-01T14:51:58.025Z</time></trkpt><trkpt lat="42.2651743" lon="14.1067226"><ele>269.0</ele><time>2026-05-01T14:52:06.025Z</time></trkpt><trkpt lat="42.2652279" lon="14.106822"><ele>269.5</ele><time>2026-05-01T14:52:09.025Z</time></trkpt><trkpt lat="42.2652567" lon="14.1068998"><ele>270.0</ele><time>2026-05-01T14:52:11.025Z</time></trkpt><trkpt lat="42.2652995" lon="14.1069694"><ele>270.0</ele><time>2026-05-01T14:52:14.025Z</time></trkpt><trkpt lat="42.2653803" lon="14.1069504"><ele>270.0</ele><time>2026-05-01T14:52:19.025Z</time></trkpt><trkpt lat="42.2654269" lon="14.106868"><ele>270.0</ele><time>2026-05-01T14:52:22.025Z</time></trkpt><trkpt lat="42.2654716" lon="14.1067851"><ele>270.0</ele><time>2026-05-01T14:52:25.025Z</time></trkpt><trkpt lat="42.2655182" lon="14.1066875"><ele>270.0</ele><time>2026-05-01T14:52:28.025Z</time></trkpt><trkpt lat="42.2655628" lon="14.1065912"><ele>270.0</ele><time>2026-05-01T14:52:31.025Z</time></trkpt><trkpt lat="42.2656045" lon="14.1065173"><ele>265.8333333333333</ele><time>2026-05-01T14:52:34.025Z</time></trkpt><trkpt lat="42.265681" lon="14.1064652"><ele>261.6666666666667</ele><time>2026-05-01T14:52:38.025Z</time></trkpt><trkpt lat="42.2657493" lon="14.106413"><ele>257.5</ele><time>2026-05-01T14:52:42.025Z</time></trkpt><trkpt lat="42.2658115" lon="14.1063766"><ele>253.33333333333334</ele><time>2026-05-01T14:52:45.025Z</time></trkpt><trkpt lat="42.2658642" lon="14.1063269"><ele>249.16666666666669</ele><time>2026-05-01T14:52:48.025Z</time></trkpt><trkpt lat="42.2659295" lon="14.1062721"><ele>245.0</ele><time>2026-05-01T14:52:51.025Z</time></trkpt><trkpt lat="42.2659965" lon="14.1062089"><ele>245.00000000000003</ele><time>2026-05-01T14:52:54.025Z</time></trkpt><trkpt lat="42.266056" lon="14.1061301"><ele>245.0</ele><time>2026-05-01T14:52:57.024Z</time></trkpt><trkpt lat="42.2661034" lon="14.1060432"><ele>245.0</ele><time>2026-05-01T14:53:00.025Z</time></trkpt><trkpt lat="42.2661428" lon="14.1059411"><ele>245.0</ele><time>2026-05-01T14:53:03.025Z</time></trkpt><trkpt lat="42.2661712" lon="14.1058533"><ele>245.00000000000003</ele><time>2026-05-01T14:53:06.025Z</time></trkpt><trkpt lat="42.2661878" lon="14.1057496"><ele>245.0</ele><time>2026-05-01T14:53:12.025Z</time></trkpt><trkpt lat="42.266207" lon="14.1056643"><ele>241.71428571428572</ele><time>2026-05-01T14:53:15.024Z</time></trkpt><trkpt lat="42.2662205" lon="14.1055663"><ele>238.42857142857144</ele><time>2026-05-01T14:53:29.025Z</time></trkpt><trkpt lat="42.2662433" lon="14.1054645"><ele>235.14285714285714</ele><time>2026-05-01T14:53:34.025Z</time></trkpt><trkpt lat="42.2662599" lon="14.1053815"><ele>231.85714285714286</ele><time>2026-05-01T14:53:54.025Z</time></trkpt><trkpt lat="42.2662869" lon="14.1052843"><ele>228.57142857142858</ele><time>2026-05-01T14:54:01.025Z</time></trkpt><trkpt lat="42.2663054" lon="14.1051967"><ele>225.28571428571428</ele><time>2026-05-01T14:54:08.025Z</time></trkpt><trkpt lat="42.2663342" lon="14.1051124"><ele>222.0</ele><time>2026-05-01T14:54:13.025Z</time></trkpt><trkpt lat="42.2663951" lon="14.1050628"><ele>222.39999999999998</ele><time>2026-05-01T14:54:17.025Z</time></trkpt><trkpt lat="42.2664483" lon="14.1050035"><ele>222.79999999999998</ele><time>2026-05-01T14:54:19.025Z</time></trkpt><trkpt lat="42.2665325" lon="14.1049298"><ele>223.2</ele><time>2026-05-01T14:54:21.025Z</time></trkpt><trkpt lat="42.2666361" lon="14.1048639"><ele>223.6</ele><time>2026-05-01T14:54:23.025Z</time></trkpt><trkpt lat="42.2667491" lon="14.1048243"><ele>224.0</ele><time>2026-05-01T14:54:25.025Z</time></trkpt><trkpt lat="42.2668846" lon="14.1047198"><ele>221.0</ele><time>2026-05-01T14:54:27.025Z</time></trkpt><trkpt lat="42.2670041" lon="14.1046997"><ele>217.99999999999997</ele><time>2026-05-01T14:54:29.025Z</time></trkpt><trkpt lat="42.2670658" lon="14.1046826"><ele>215.0</ele><time>2026-05-01T14:54:30.025Z</time></trkpt><trkpt lat="42.2671898" lon="14.1046639"><ele>212.0</ele><time>2026-05-01T14:54:32.025Z</time></trkpt><trkpt lat="42.2673105" lon="14.10463"><ele>209.0</ele><time>2026-05-01T14:54:34.025Z</time></trkpt><trkpt lat="42.2673753" lon="14.1046096"><ele>209.00000000000003</ele><time>2026-05-01T14:54:35.025Z</time></trkpt><trkpt lat="42.2674415" lon="14.1045931"><ele>209.0</ele><time>2026-05-01T14:54:36.025Z</time></trkpt><trkpt lat="42.2675131" lon="14.1045847"><ele>209.0</ele><time>2026-05-01T14:54:37.025Z</time></trkpt><trkpt lat="42.2675857" lon="14.104576"><ele>209.0</ele><time>2026-05-01T14:54:38.025Z</time></trkpt><trkpt lat="42.267663" lon="14.1045653"><ele>209.00000000000003</ele><time>2026-05-01T14:54:39.025Z</time></trkpt><trkpt lat="42.2677441" lon="14.1045533"><ele>209.0</ele><time>2026-05-01T14:54:40.025Z</time></trkpt><trkpt lat="42.2678292" lon="14.1045471"><ele>209.0</ele><time>2026-05-01T14:54:41.025Z</time></trkpt><trkpt lat="42.2679196" lon="14.1045338"><ele>209.0</ele><time>2026-05-01T14:54:42.025Z</time></trkpt><trkpt lat="42.2680093" lon="14.1045185"><ele>209.0</ele><time>2026-05-01T14:54:43.024Z</time></trkpt><trkpt lat="42.2680984" lon="14.1044993"><ele>209.0</ele><time>2026-05-01T14:54:44.025Z</time></trkpt><trkpt lat="42.2681904" lon="14.1044739"><ele>209.0</ele><time>2026-05-01T14:54:45.025Z</time></trkpt><trkpt lat="42.2682764" lon="14.1044462"><ele>210.0</ele><time>2026-05-01T14:54:46.024Z</time></trkpt><trkpt lat="42.2683578" lon="14.1044223"><ele>211.0</ele><time>2026-05-01T14:54:47.024Z</time></trkpt><trkpt lat="42.2684302" lon="14.1044011"><ele>211.99999999999997</ele><time>2026-05-01T14:54:48.025Z</time></trkpt><trkpt lat="42.2684924" lon="14.1043866"><ele>213.0</ele><time>2026-05-01T14:54:49.024Z</time></trkpt><trkpt lat="42.2686066" lon="14.1043813"><ele>214.0</ele><time>2026-05-01T14:54:51.025Z</time></trkpt><trkpt lat="42.2687278" lon="14.1044054"><ele>214.0</ele><time>2026-05-01T14:54:53.025Z</time></trkpt><trkpt lat="42.2688448" lon="14.1044273"><ele>213.99999999999997</ele><time>2026-05-01T14:54:55.025Z</time></trkpt><trkpt lat="42.2689692" lon="14.1044748"><ele>213.99999999999997</ele><time>2026-05-01T14:54:57.025Z</time></trkpt><trkpt lat="42.2690435" lon="14.1044912"><ele>214.0</ele><time>2026-05-01T14:54:58.024Z</time></trkpt><trkpt lat="42.2691119" lon="14.1045036"><ele>214.0</ele><time>2026-05-01T14:54:59.025Z</time></trkpt><trkpt lat="42.2691743" lon="14.1045194"><ele>213.83333333333331</ele><time>2026-05-01T14:55:00.025Z</time></trkpt><trkpt lat="42.2692415" lon="14.1045506"><ele>213.66666666666666</ele><time>2026-05-01T14:55:01.025Z</time></trkpt><trkpt lat="42.2693141" lon="14.1045846"><ele>213.5</ele><time>2026-05-01T14:55:02.025Z</time></trkpt><trkpt lat="42.269395" lon="14.1046074"><ele>213.33333333333331</ele><time>2026-05-01T14:55:03.025Z</time></trkpt><trkpt lat="42.2694849" lon="14.1046161"><ele>213.16666666666666</ele><time>2026-05-01T14:55:04.025Z</time></trkpt><trkpt lat="42.2695752" lon="14.1046064"><ele>213.0</ele><time>2026-05-01T14:55:05.025Z</time></trkpt><trkpt lat="42.2696611" lon="14.1045882"><ele>213.0</ele><time>2026-05-01T14:55:06.025Z</time></trkpt><trkpt lat="42.2697439" lon="14.1045778"><ele>213.0</ele><time>2026-05-01T14:55:07.025Z</time></trkpt><trkpt lat="42.2698317" lon="14.104573"><ele>213.0</ele><time>2026-05-01T14:55:08.024Z</time></trkpt><trkpt lat="42.269916" lon="14.1045808"><ele>213.0</ele><time>2026-05-01T14:55:09.024Z</time></trkpt><trkpt lat="42.2700073" lon="14.1045896"><ele>213.0</ele><time>2026-05-01T14:55:10.025Z</time></trkpt><trkpt lat="42.2701046" lon="14.1046011"><ele>213.0</ele><time>2026-05-01T14:55:11.025Z</time></trkpt><trkpt lat="42.2701979" lon="14.1046114"><ele>213.5</ele><time>2026-05-01T14:55:12.024Z</time></trkpt><trkpt lat="42.2702836" lon="14.104618"><ele>214.0</ele><time>2026-05-01T14:55:13.025Z</time></trkpt><trkpt lat="42.2703644" lon="14.1046181"><ele>214.5</ele><time>2026-05-01T14:55:14.025Z</time></trkpt><trkpt lat="42.2704497" lon="14.1046113"><ele>215.0</ele><time>2026-05-01T14:55:15.025Z</time></trkpt><trkpt lat="42.2705278" lon="14.1046078"><ele>215.5</ele><time>2026-05-01T14:55:16.025Z</time></trkpt><trkpt lat="42.2705912" lon="14.1046045"><ele>216.0</ele><time>2026-05-01T14:55:17.025Z</time></trkpt><trkpt lat="42.2706572" lon="14.1045925"><ele>216.0</ele><time>2026-05-01T14:55:18.025Z</time></trkpt><trkpt lat="42.2707292" lon="14.1045764"><ele>216.00000000000003</ele><time>2026-05-01T14:55:19.025Z</time></trkpt><trkpt lat="42.2708646" lon="14.1045549"><ele>216.00000000000003</ele><time>2026-05-01T14:55:21.025Z</time></trkpt><trkpt lat="42.2709429" lon="14.1045341"><ele>216.0</ele><time>2026-05-01T14:55:22.025Z</time></trkpt><trkpt lat="42.2710201" lon="14.1045077"><ele>216.0</ele><time>2026-05-01T14:55:23.025Z</time></trkpt><trkpt lat="42.2711019" lon="14.104481"><ele>216.0</ele><time>2026-05-01T14:55:24.025Z</time></trkpt><trkpt lat="42.2711877" lon="14.1044646"><ele>216.0</ele><time>2026-05-01T14:55:25.025Z</time></trkpt><trkpt lat="42.2712767" lon="14.1044512"><ele>216.0</ele><time>2026-05-01T14:55:26.025Z</time></trkpt><trkpt lat="42.2713667" lon="14.1044425"><ele>216.0</ele><time>2026-05-01T14:55:27.025Z</time></trkpt><trkpt lat="42.2714561" lon="14.1044406"><ele>216.0</ele><time>2026-05-01T14:55:28.025Z</time></trkpt><trkpt lat="42.2715308" lon="14.1044423"><ele>216.0</ele><time>2026-05-01T14:55:29.025Z</time></trkpt><trkpt lat="42.2716023" lon="14.1044251"><ele>214.83333333333334</ele><time>2026-05-01T14:55:30.025Z</time></trkpt><trkpt lat="42.2716745" lon="14.1043719"><ele>213.66666666666669</ele><time>2026-05-01T14:55:31.025Z</time></trkpt><trkpt lat="42.271748" lon="14.1043075"><ele>212.5</ele><time>2026-05-01T14:55:32.025Z</time></trkpt><trkpt lat="42.27182" lon="14.1042392"><ele>211.33333333333334</ele><time>2026-05-01T14:55:33.025Z</time></trkpt><trkpt lat="42.2718885" lon="14.1041679"><ele>210.16666666666669</ele><time>2026-05-01T14:55:34.024Z</time></trkpt><trkpt lat="42.2719456" lon="14.1040874"><ele>209.0</ele><time>2026-05-01T14:55:35.024Z</time></trkpt><trkpt lat="42.2720001" lon="14.1039948"><ele>206.2</ele><time>2026-05-01T14:55:36.025Z</time></trkpt><trkpt lat="42.2720448" lon="14.1038869"><ele>203.39999999999998</ele><time>2026-05-01T14:55:37.025Z</time></trkpt><trkpt lat="42.272079" lon="14.1037629"><ele>200.6</ele><time>2026-05-01T14:55:38.025Z</time></trkpt><trkpt lat="42.2721107" lon="14.1036236"><ele>197.8</ele><time>2026-05-01T14:55:39.024Z</time></trkpt><trkpt lat="42.2721476" lon="14.1034819"><ele>195.0</ele><time>2026-05-01T14:55:40.024Z</time></trkpt><trkpt lat="42.2721793" lon="14.1033408"><ele>192.8</ele><time>2026-05-01T14:55:41.025Z</time></trkpt><trkpt lat="42.2721952" lon="14.1031875"><ele>190.6</ele><time>2026-05-01T14:55:42.025Z</time></trkpt><trkpt lat="42.2722014" lon="14.103037"><ele>188.39999999999998</ele><time>2026-05-01T14:55:43.025Z</time></trkpt><trkpt lat="42.2722115" lon="14.1029124"><ele>186.2</ele><time>2026-05-01T14:55:44.025Z</time></trkpt><trkpt lat="42.2722415" lon="14.1028075"><ele>184.0</ele><time>2026-05-01T14:55:45.025Z</time></trkpt><trkpt lat="42.2722872" lon="14.1027194"><ele>185.6</ele><time>2026-05-01T14:55:46.025Z</time></trkpt><trkpt lat="42.2723587" lon="14.1026417"><ele>187.2</ele><time>2026-05-01T14:55:47.025Z</time></trkpt><trkpt lat="42.27245" lon="14.1025658"><ele>188.79999999999998</ele><time>2026-05-01T14:55:48.025Z</time></trkpt><trkpt lat="42.2725483" lon="14.1024819"><ele>190.39999999999998</ele><time>2026-05-01T14:55:49.025Z</time></trkpt><trkpt lat="42.2726424" lon="14.1023974"><ele>192.0</ele><time>2026-05-01T14:55:50.025Z</time></trkpt><trkpt lat="42.2727255" lon="14.1023032"><ele>192.0</ele><time>2026-05-01T14:55:51.024Z</time></trkpt><trkpt lat="42.2727935" lon="14.1022008"><ele>192.0</ele><time>2026-05-01T14:55:52.025Z</time></trkpt><trkpt lat="42.2728362" lon="14.1020786"><ele>192.0</ele><time>2026-05-01T14:55:53.025Z</time></trkpt><trkpt lat="42.2728695" lon="14.1019472"><ele>192.0</ele><time>2026-05-01T14:55:54.025Z</time></trkpt><trkpt lat="42.2729063" lon="14.101825"><ele>192.0</ele><time>2026-05-01T14:55:55.025Z</time></trkpt><trkpt lat="42.2729526" lon="14.1017085"><ele>192.0</ele><time>2026-05-01T14:55:56.025Z</time></trkpt><trkpt lat="42.2730041" lon="14.1016053"><ele>192.0</ele><time>2026-05-01T14:55:57.025Z</time></trkpt><trkpt lat="42.2730781" lon="14.1015164"><ele>192.0</ele><time>2026-05-01T14:55:58.025Z</time></trkpt><trkpt lat="42.2731718" lon="14.1014589"><ele>192.0</ele><time>2026-05-01T14:55:59.025Z</time></trkpt><trkpt lat="42.2732606" lon="14.1014448"><ele>192.0</ele><time>2026-05-01T14:56:00.025Z</time></trkpt><trkpt lat="42.2733478" lon="14.1014464"><ele>191.8</ele><time>2026-05-01T14:56:01.024Z</time></trkpt><trkpt lat="42.2734327" lon="14.1015013"><ele>191.6</ele><time>2026-05-01T14:56:02.025Z</time></trkpt><trkpt lat="42.2735367" lon="14.1015438"><ele>191.4</ele><time>2026-05-01T14:56:03.025Z</time></trkpt><trkpt lat="42.2736546" lon="14.1015813"><ele>191.20000000000002</ele><time>2026-05-01T14:56:04.025Z</time></trkpt><trkpt lat="42.2737675" lon="14.1016238"><ele>191.0</ele><time>2026-05-01T14:56:05.025Z</time></trkpt><trkpt lat="42.2738769" lon="14.1016773"><ele>189.5</ele><time>2026-05-01T14:56:06.025Z</time></trkpt><trkpt lat="42.273984" lon="14.1017226"><ele>188.0</ele><time>2026-05-01T14:56:07.025Z</time></trkpt><trkpt lat="42.2740958" lon="14.1017573"><ele>186.5</ele><time>2026-05-01T14:56:08.025Z</time></trkpt><trkpt lat="42.2742126" lon="14.1017701"><ele>185.0</ele><time>2026-05-01T14:56:09.025Z</time></trkpt><trkpt lat="42.2743203" lon="14.1017601"><ele>185.0</ele><time>2026-05-01T14:56:10.025Z</time></trkpt><trkpt lat="42.2744169" lon="14.101738"><ele>185.0</ele><time>2026-05-01T14:56:11.025Z</time></trkpt><trkpt lat="42.2745129" lon="14.1016941"><ele>185.0</ele><time>2026-05-01T14:56:12.025Z</time></trkpt><trkpt lat="42.2745957" lon="14.1016324"><ele>185.0</ele><time>2026-05-01T14:56:13.025Z</time></trkpt><trkpt lat="42.2746773" lon="14.1015593"><ele>185.0</ele><time>2026-05-01T14:56:14.025Z</time></trkpt><trkpt lat="42.2747584" lon="14.1014628"><ele>183.8</ele><time>2026-05-01T14:56:15.025Z</time></trkpt><trkpt lat="42.2748266" lon="14.1013691"><ele>182.6</ele><time>2026-05-01T14:56:16.025Z</time></trkpt><trkpt lat="42.2748885" lon="14.1012512"><ele>181.39999999999998</ele><time>2026-05-01T14:56:17.025Z</time></trkpt><trkpt lat="42.2749375" lon="14.1011209"><ele>180.2</ele><time>2026-05-01T14:56:18.024Z</time></trkpt><trkpt lat="42.2749854" lon="14.1009801"><ele>179.0</ele><time>2026-05-01T14:56:19.024Z</time></trkpt><trkpt lat="42.2750418" lon="14.1008397"><ele>177.75</ele><time>2026-05-01T14:56:20.025Z</time></trkpt><trkpt lat="42.2750961" lon="14.1006925"><ele>176.5</ele><time>2026-05-01T14:56:21.025Z</time></trkpt><trkpt lat="42.2751561" lon="14.100545"><ele>175.25</ele><time>2026-05-01T14:56:22.025Z</time></trkpt><trkpt lat="42.275223" lon="14.1003959"><ele>174.0</ele><time>2026-05-01T14:56:23.025Z</time></trkpt><trkpt lat="42.2752825" lon="14.1002394"><ele>174.0</ele><time>2026-05-01T14:56:24.024Z</time></trkpt><trkpt lat="42.2753427" lon="14.1000832"><ele>174.0</ele><time>2026-05-01T14:56:25.024Z</time></trkpt><trkpt lat="42.2753974" lon="14.0999298"><ele>174.0</ele><time>2026-05-01T14:56:26.024Z</time></trkpt><trkpt lat="42.2754503" lon="14.0997783"><ele>174.0</ele><time>2026-05-01T14:56:27.025Z</time></trkpt><trkpt lat="42.2754821" lon="14.0996313"><ele>174.25</ele><time>2026-05-01T14:56:28.025Z</time></trkpt><trkpt lat="42.2754921" lon="14.0994696"><ele>174.5</ele><time>2026-05-01T14:56:29.025Z</time></trkpt><trkpt lat="42.2754845" lon="14.0993148"><ele>174.75</ele><time>2026-05-01T14:56:30.025Z</time></trkpt><trkpt lat="42.2754642" lon="14.0991622"><ele>175.0</ele><time>2026-05-01T14:56:31.025Z</time></trkpt><trkpt lat="42.2754391" lon="14.099017"><ele>176.0</ele><time>2026-05-01T14:56:32.025Z</time></trkpt><trkpt lat="42.2754149" lon="14.0988742"><ele>177.0</ele><time>2026-05-01T14:56:33.024Z</time></trkpt><trkpt lat="42.2753921" lon="14.0987295"><ele>178.0</ele><time>2026-05-01T14:56:34.025Z</time></trkpt><trkpt lat="42.2753689" lon="14.0985836"><ele>179.0</ele><time>2026-05-01T14:56:35.025Z</time></trkpt><trkpt lat="42.2753532" lon="14.0984347"><ele>180.0</ele><time>2026-05-01T14:56:36.025Z</time></trkpt><trkpt lat="42.2753338" lon="14.0982828"><ele>180.0</ele><time>2026-05-01T14:56:37.025Z</time></trkpt><trkpt lat="42.2753177" lon="14.0981298"><ele>180.0</ele><time>2026-05-01T14:56:38.025Z</time></trkpt><trkpt lat="42.2753118" lon="14.09798"><ele>180.0</ele><time>2026-05-01T14:56:39.025Z</time></trkpt><trkpt lat="42.2753116" lon="14.0978317"><ele>180.0</ele><time>2026-05-01T14:56:40.024Z</time></trkpt><trkpt lat="42.275319" lon="14.0976919"><ele>180.0</ele><time>2026-05-01T14:56:41.025Z</time></trkpt><trkpt lat="42.2753278" lon="14.0975441"><ele>178.75</ele><time>2026-05-01T14:56:42.025Z</time></trkpt><trkpt lat="42.2753382" lon="14.0973952"><ele>177.5</ele><time>2026-05-01T14:56:43.025Z</time></trkpt><trkpt lat="42.2753516" lon="14.0972406"><ele>176.25</ele><time>2026-05-01T14:56:44.025Z</time></trkpt><trkpt lat="42.2753706" lon="14.0970767"><ele>175.0</ele><time>2026-05-01T14:56:45.025Z</time></trkpt><trkpt lat="42.2753899" lon="14.096908"><ele>175.0</ele><time>2026-05-01T14:56:46.025Z</time></trkpt><trkpt lat="42.2754072" lon="14.0967362"><ele>175.0</ele><time>2026-05-01T14:56:47.025Z</time></trkpt><trkpt lat="42.2754291" lon="14.0965644"><ele>175.0</ele><time>2026-05-01T14:56:48.025Z</time></trkpt><trkpt lat="42.2754456" lon="14.0963934"><ele>175.0</ele><time>2026-05-01T14:56:49.025Z</time></trkpt><trkpt lat="42.2754614" lon="14.096222"><ele>173.6</ele><time>2026-05-01T14:56:50.024Z</time></trkpt><trkpt lat="42.275485" lon="14.096066"><ele>172.2</ele><time>2026-05-01T14:56:51.025Z</time></trkpt><trkpt lat="42.2755117" lon="14.0959153"><ele>170.8</ele><time>2026-05-01T14:56:52.025Z</time></trkpt><trkpt lat="42.2755449" lon="14.0957749"><ele>169.4</ele><time>2026-05-01T14:56:53.025Z</time></trkpt><trkpt lat="42.2755673" lon="14.0956536"><ele>168.0</ele><time>2026-05-01T14:56:54.025Z</time></trkpt><trkpt lat="42.275582" lon="14.0955252"><ele>167.5</ele><time>2026-05-01T14:56:55.024Z</time></trkpt><trkpt lat="42.2755905" lon="14.0954102"><ele>167.0</ele><time>2026-05-01T14:56:56.025Z</time></trkpt><trkpt lat="42.2755944" lon="14.0953085"><ele>166.5</ele><time>2026-05-01T14:56:57.025Z</time></trkpt><trkpt lat="42.2756103" lon="14.095223"><ele>166.0</ele><time>2026-05-01T14:56:58.025Z</time></trkpt><trkpt lat="42.2757192" lon="14.0951292"><ele>165.5</ele><time>2026-05-01T14:57:00.025Z</time></trkpt><trkpt lat="42.2758082" lon="14.0950892"><ele>165.0</ele><time>2026-05-01T14:57:01.025Z</time></trkpt><trkpt lat="42.27591" lon="14.0950388"><ele>165.0</ele><time>2026-05-01T14:57:02.025Z</time></trkpt><trkpt lat="42.2760252" lon="14.0949757"><ele>165.0</ele><time>2026-05-01T14:57:03.025Z</time></trkpt><trkpt lat="42.2761492" lon="14.094906"><ele>165.0</ele><time>2026-05-01T14:57:04.025Z</time></trkpt><trkpt lat="42.2762775" lon="14.0948356"><ele>165.0</ele><time>2026-05-01T14:57:05.025Z</time></trkpt><trkpt lat="42.2764009" lon="14.0947577"><ele>162.25</ele><time>2026-05-01T14:57:06.025Z</time></trkpt><trkpt lat="42.2765295" lon="14.0946775"><ele>159.5</ele><time>2026-05-01T14:57:07.024Z</time></trkpt><trkpt lat="42.2766312" lon="14.0945885"><ele>156.75</ele><time>2026-05-01T14:57:08.025Z</time></trkpt><trkpt lat="42.2767233" lon="14.0944879"><ele>154.0</ele><time>2026-05-01T14:57:09.025Z</time></trkpt><trkpt lat="42.276795" lon="14.0943582"><ele>154.0</ele><time>2026-05-01T14:57:10.025Z</time></trkpt><trkpt lat="42.2768491" lon="14.0941982"><ele>154.0</ele><time>2026-05-01T14:57:11.025Z</time></trkpt><trkpt lat="42.2768912" lon="14.0940137"><ele>154.0</ele><time>2026-05-01T14:57:12.025Z</time></trkpt><trkpt lat="42.2769296" lon="14.0938288"><ele>154.0</ele><time>2026-05-01T14:57:13.024Z</time></trkpt><trkpt lat="42.2769646" lon="14.093649"><ele>151.75</ele><time>2026-05-01T14:57:14.025Z</time></trkpt><trkpt lat="42.2770005" lon="14.0934702"><ele>149.5</ele><time>2026-05-01T14:57:15.024Z</time></trkpt><trkpt lat="42.2770352" lon="14.0932874"><ele>147.25</ele><time>2026-05-01T14:57:16.025Z</time></trkpt><trkpt lat="42.2770683" lon="14.0931024"><ele>145.0</ele><time>2026-05-01T14:57:17.025Z</time></trkpt><trkpt lat="42.2771001" lon="14.092924"><ele>142.75</ele><time>2026-05-01T14:57:18.025Z</time></trkpt><trkpt lat="42.2771235" lon="14.0927475"><ele>140.5</ele><time>2026-05-01T14:57:19.024Z</time></trkpt><trkpt lat="42.277132" lon="14.0925711"><ele>138.25</ele><time>2026-05-01T14:57:20.024Z</time></trkpt><trkpt lat="42.277137" lon="14.0923997"><ele>136.0</ele><time>2026-05-01T14:57:21.024Z</time></trkpt><trkpt lat="42.2771358" lon="14.0922161"><ele>133.75</ele><time>2026-05-01T14:57:22.025Z</time></trkpt><trkpt lat="42.2771319" lon="14.0920314"><ele>131.5</ele><time>2026-05-01T14:57:23.025Z</time></trkpt><trkpt lat="42.2771331" lon="14.0918457"><ele>129.25</ele><time>2026-05-01T14:57:24.025Z</time></trkpt><trkpt lat="42.2771477" lon="14.0916617"><ele>127.0</ele><time>2026-05-01T14:57:25.025Z</time></trkpt><trkpt lat="42.2771731" lon="14.0914878"><ele>128.2</ele><time>2026-05-01T14:57:26.025Z</time></trkpt><trkpt lat="42.2772111" lon="14.0913309"><ele>129.39999999999998</ele><time>2026-05-01T14:57:27.024Z</time></trkpt><trkpt lat="42.2772473" lon="14.0912042"><ele>130.60000000000002</ele><time>2026-05-01T14:57:28.025Z</time></trkpt><trkpt lat="42.2772978" lon="14.0911052"><ele>131.8</ele><time>2026-05-01T14:57:29.024Z</time></trkpt><trkpt lat="42.2773571" lon="14.0910397"><ele>133.0</ele><time>2026-05-01T14:57:30.025Z</time></trkpt><trkpt lat="42.277428" lon="14.091006"><ele>133.0</ele><time>2026-05-01T14:57:31.025Z</time></trkpt><trkpt lat="42.2775092" lon="14.0909932"><ele>133.0</ele><time>2026-05-01T14:57:32.025Z</time></trkpt><trkpt lat="42.2776282" lon="14.0911064"><ele>133.0</ele><time>2026-05-01T14:57:33.025Z</time></trkpt><trkpt lat="42.2777364" lon="14.0911739"><ele>133.0</ele><time>2026-05-01T14:57:34.025Z</time></trkpt><trkpt lat="42.2778307" lon="14.0912234"><ele>133.0</ele><time>2026-05-01T14:57:35.024Z</time></trkpt><trkpt lat="42.2779037" lon="14.0912454"><ele>133.0</ele><time>2026-05-01T14:57:36.025Z</time></trkpt><trkpt lat="42.278019" lon="14.0911867"><ele>133.0</ele><time>2026-05-01T14:57:38.025Z</time></trkpt><trkpt lat="42.2780396" lon="14.0910893"><ele>133.0</ele><time>2026-05-01T14:57:39.024Z</time></trkpt><trkpt lat="42.2780339" lon="14.090984"><ele>133.0</ele><time>2026-05-01T14:57:40.025Z</time></trkpt><trkpt lat="42.2780203" lon="14.0908677"><ele>133.0</ele><time>2026-05-01T14:57:41.025Z</time></trkpt><trkpt lat="42.2779986" lon="14.0907737"><ele>133.0</ele><time>2026-05-01T14:57:42.025Z</time></trkpt><trkpt lat="42.2779973" lon="14.0906408"><ele>130.6</ele><time>2026-05-01T14:57:44.025Z</time></trkpt><trkpt lat="42.2780795" lon="14.0906123"><ele>128.20000000000002</ele><time>2026-05-01T14:57:47.024Z</time></trkpt><trkpt lat="42.2781218" lon="14.0906968"><ele>125.8</ele><time>2026-05-01T14:57:49.025Z</time></trkpt><trkpt lat="42.2781717" lon="14.0908663"><ele>123.4</ele><time>2026-05-01T14:57:51.025Z</time></trkpt><trkpt lat="42.2782092" lon="14.0909766"><ele>121.0</ele><time>2026-05-01T14:57:52.025Z</time></trkpt><trkpt lat="42.278256" lon="14.0910881"><ele>120.75</ele><time>2026-05-01T14:57:53.025Z</time></trkpt><trkpt lat="42.2782909" lon="14.0912232"><ele>120.5</ele><time>2026-05-01T14:57:54.025Z</time></trkpt><trkpt lat="42.2783268" lon="14.0913643"><ele>120.25</ele><time>2026-05-01T14:57:55.024Z</time></trkpt><trkpt lat="42.2783603" lon="14.0915149"><ele>120.0</ele><time>2026-05-01T14:57:56.025Z</time></trkpt><trkpt lat="42.2783952" lon="14.091677"><ele>121.0</ele><time>2026-05-01T14:57:57.025Z</time></trkpt><trkpt lat="42.2784253" lon="14.0918505"><ele>122.0</ele><time>2026-05-01T14:57:58.025Z</time></trkpt><trkpt lat="42.2784523" lon="14.0920279"><ele>123.0</ele><time>2026-05-01T14:57:59.025Z</time></trkpt><trkpt lat="42.2784793" lon="14.0922092"><ele>124.0</ele><time>2026-05-01T14:58:00.025Z</time></trkpt><trkpt lat="42.2784997" lon="14.0923885"><ele>124.25</ele><time>2026-05-01T14:58:01.025Z</time></trkpt><trkpt lat="42.2785221" lon="14.0925714"><ele>124.5</ele><time>2026-05-01T14:58:02.025Z</time></trkpt><trkpt lat="42.2785614" lon="14.0927478"><ele>124.75</ele><time>2026-05-01T14:58:03.025Z</time></trkpt><trkpt lat="42.2786036" lon="14.0929127"><ele>125.0</ele><time>2026-05-01T14:58:04.025Z</time></trkpt><trkpt lat="42.2786827" lon="14.0930301"><ele>125.0</ele><time>2026-05-01T14:58:05.025Z</time></trkpt><trkpt lat="42.2787561" lon="14.0931241"><ele>125.0</ele><time>2026-05-01T14:58:06.025Z</time></trkpt><trkpt lat="42.2788408" lon="14.0931829"><ele>125.0</ele><time>2026-05-01T14:58:07.025Z</time></trkpt><trkpt lat="42.2789341" lon="14.0932015"><ele>125.0</ele><time>2026-05-01T14:58:08.025Z</time></trkpt><trkpt lat="42.2790279" lon="14.0931817"><ele>125.0</ele><time>2026-05-01T14:58:09.025Z</time></trkpt><trkpt lat="42.2791246" lon="14.0931513"><ele>123.2</ele><time>2026-05-01T14:58:10.025Z</time></trkpt><trkpt lat="42.2792344" lon="14.0931296"><ele>121.4</ele><time>2026-05-01T14:58:11.025Z</time></trkpt><trkpt lat="42.2793372" lon="14.0931348"><ele>119.6</ele><time>2026-05-01T14:58:12.025Z</time></trkpt><trkpt lat="42.2794272" lon="14.0931761"><ele>117.8</ele><time>2026-05-01T14:58:13.025Z</time></trkpt><trkpt lat="42.2795132" lon="14.0932674"><ele>116.0</ele><time>2026-05-01T14:58:14.025Z</time></trkpt><trkpt lat="42.2796029" lon="14.0933785"><ele>116.0</ele><time>2026-05-01T14:58:15.025Z</time></trkpt><trkpt lat="42.2796896" lon="14.0935006"><ele>116.0</ele><time>2026-05-01T14:58:16.025Z</time></trkpt><trkpt lat="42.2797785" lon="14.0936163"><ele>116.0</ele><time>2026-05-01T14:58:17.025Z</time></trkpt><trkpt lat="42.2798665" lon="14.0937155"><ele>116.0</ele><time>2026-05-01T14:58:18.025Z</time></trkpt><trkpt lat="42.2799514" lon="14.0938079"><ele>113.0</ele><time>2026-05-01T14:58:19.025Z</time></trkpt><trkpt lat="42.2800181" lon="14.0938827"><ele>110.0</ele><time>2026-05-01T14:58:20.025Z</time></trkpt><trkpt lat="42.2800701" lon="14.09397"><ele>107.0</ele><time>2026-05-01T14:58:21.025Z</time></trkpt><trkpt lat="42.2801013" lon="14.0940907"><ele>104.0</ele><time>2026-05-01T14:58:22.025Z</time></trkpt><trkpt lat="42.2801205" lon="14.0942196"><ele>101.0</ele><time>2026-05-01T14:58:23.025Z</time></trkpt><trkpt lat="42.2801291" lon="14.0943664"><ele>100.75</ele><time>2026-05-01T14:58:24.025Z</time></trkpt><trkpt lat="42.2801332" lon="14.0945219"><ele>100.5</ele><time>2026-05-01T14:58:25.025Z</time></trkpt><trkpt lat="42.2801396" lon="14.094701"><ele>100.25</ele><time>2026-05-01T14:58:26.025Z</time></trkpt><trkpt lat="42.2801503" lon="14.0948878"><ele>100.0</ele><time>2026-05-01T14:58:27.025Z</time></trkpt><trkpt lat="42.2801641" lon="14.095087"><ele>99.33333333333334</ele><time>2026-05-01T14:58:28.025Z</time></trkpt><trkpt lat="42.2801773" lon="14.095293"><ele>98.66666666666666</ele><time>2026-05-01T14:58:29.024Z</time></trkpt><trkpt lat="42.2801873" lon="14.0955131"><ele>98.0</ele><time>2026-05-01T14:58:30.025Z</time></trkpt><trkpt lat="42.2802077" lon="14.0957411"><ele>98.66666666666666</ele><time>2026-05-01T14:58:31.025Z</time></trkpt><trkpt lat="42.2802277" lon="14.0959693"><ele>99.33333333333334</ele><time>2026-05-01T14:58:32.025Z</time></trkpt><trkpt lat="42.2802511" lon="14.0962043"><ele>100.0</ele><time>2026-05-01T14:58:33.025Z</time></trkpt><trkpt lat="42.2802889" lon="14.0964257"><ele>101.0</ele><time>2026-05-01T14:58:34.025Z</time></trkpt><trkpt lat="42.2803297" lon="14.0966262"><ele>102.0</ele><time>2026-05-01T14:58:35.025Z</time></trkpt><trkpt lat="42.2803675" lon="14.0968249"><ele>103.0</ele><time>2026-05-01T14:58:36.025Z</time></trkpt><trkpt lat="42.2804027" lon="14.0970272"><ele>103.0</ele><time>2026-05-01T14:58:37.025Z</time></trkpt><trkpt lat="42.2804243" lon="14.0972295"><ele>103.0</ele><time>2026-05-01T14:58:38.025Z</time></trkpt><trkpt lat="42.2804484" lon="14.0974522"><ele>103.0</ele><time>2026-05-01T14:58:39.025Z</time></trkpt><trkpt lat="42.2804799" lon="14.0976908"><ele>103.0</ele><time>2026-05-01T14:58:40.025Z</time></trkpt><trkpt lat="42.2805249" lon="14.0979356"><ele>103.0</ele><time>2026-05-01T14:58:41.025Z</time></trkpt><trkpt lat="42.2805661" lon="14.0981965"><ele>103.0</ele><time>2026-05-01T14:58:42.024Z</time></trkpt><trkpt lat="42.280618" lon="14.0984588"><ele>105.33333333333334</ele><time>2026-05-01T14:58:43.025Z</time></trkpt><trkpt lat="42.2806631" lon="14.0987231"><ele>107.66666666666666</ele><time>2026-05-01T14:58:44.025Z</time></trkpt><trkpt lat="42.2807162" lon="14.098991"><ele>110.0</ele><time>2026-05-01T14:58:45.025Z</time></trkpt><trkpt lat="42.2807752" lon="14.0992437"><ele>112.33333333333333</ele><time>2026-05-01T14:58:46.025Z</time></trkpt><trkpt lat="42.28084" lon="14.0994922"><ele>114.66666666666666</ele><time>2026-05-01T14:58:47.024Z</time></trkpt><trkpt lat="42.2808898" lon="14.0997214"><ele>117.0</ele><time>2026-05-01T14:58:48.025Z</time></trkpt><trkpt lat="42.2809401" lon="14.0999437"><ele>119.33333333333334</ele><time>2026-05-01T14:58:49.025Z</time></trkpt><trkpt lat="42.2809744" lon="14.1001632"><ele>121.66666666666667</ele><time>2026-05-01T14:58:50.025Z</time></trkpt><trkpt lat="42.2810015" lon="14.1003896"><ele>124.0</ele><time>2026-05-01T14:58:51.025Z</time></trkpt><trkpt lat="42.2810107" lon="14.1006157"><ele>127.33333333333334</ele><time>2026-05-01T14:58:52.025Z</time></trkpt><trkpt lat="42.2810168" lon="14.1008464"><ele>130.66666666666666</ele><time>2026-05-01T14:58:53.025Z</time></trkpt><trkpt lat="42.281012" lon="14.101052"><ele>134.0</ele><time>2026-05-01T14:58:54.024Z</time></trkpt><trkpt lat="42.2809941" lon="14.1012369"><ele>134.0</ele><time>2026-05-01T14:58:55.025Z</time></trkpt><trkpt lat="42.2809722" lon="14.1013868"><ele>134.0</ele><time>2026-05-01T14:58:56.025Z</time></trkpt><trkpt lat="42.2809588" lon="14.1014835"><ele>134.0</ele><time>2026-05-01T14:58:57.025Z</time></trkpt><trkpt lat="42.2809382" lon="14.1016097"><ele>134.0</ele><time>2026-05-01T14:58:59.024Z</time></trkpt><trkpt lat="42.2809346" lon="14.1017476"><ele>134.0</ele><time>2026-05-01T14:59:02.025Z</time></trkpt><trkpt lat="42.2809377" lon="14.1019115"><ele>135.5</ele><time>2026-05-01T14:59:04.025Z</time></trkpt><trkpt lat="42.2809464" lon="14.1020116"><ele>137.0</ele><time>2026-05-01T14:59:05.025Z</time></trkpt><trkpt lat="42.2809597" lon="14.1021568"><ele>138.5</ele><time>2026-05-01T14:59:07.024Z</time></trkpt><trkpt lat="42.2809538" lon="14.1022488"><ele>140.0</ele><time>2026-05-01T14:59:09.025Z</time></trkpt><trkpt lat="42.2809837" lon="14.1021437"><ele>141.5</ele><time>2026-05-01T14:59:25.024Z</time></trkpt><trkpt lat="42.280977" lon="14.1020544"><ele>143.0</ele><time>2026-05-01T14:59:26.024Z</time></trkpt><trkpt lat="42.2809691" lon="14.1019469"><ele>143.0</ele><time>2026-05-01T14:59:27.025Z</time></trkpt><trkpt lat="42.2809639" lon="14.1018248"><ele>143.0</ele><time>2026-05-01T14:59:28.025Z</time></trkpt><trkpt lat="42.2809655" lon="14.1017058"><ele>143.0</ele><time>2026-05-01T14:59:29.025Z</time></trkpt><trkpt lat="42.2809761" lon="14.1015863"><ele>143.0</ele><time>2026-05-01T14:59:30.025Z</time></trkpt><trkpt lat="42.2809931" lon="14.1014643"><ele>143.0</ele><time>2026-05-01T14:59:31.025Z</time></trkpt><trkpt lat="42.2810064" lon="14.1013418"><ele>141.5</ele><time>2026-05-01T14:59:32.025Z</time></trkpt><trkpt lat="42.2810208" lon="14.1012237"><ele>140.0</ele><time>2026-05-01T14:59:33.025Z</time></trkpt><trkpt lat="42.2810307" lon="14.1011066"><ele>138.5</ele><time>2026-05-01T14:59:34.024Z</time></trkpt><trkpt lat="42.2810353" lon="14.1009892"><ele>137.0</ele><time>2026-05-01T14:59:35.025Z</time></trkpt><trkpt lat="42.2810393" lon="14.1008702"><ele>135.5</ele><time>2026-05-01T14:59:36.025Z</time></trkpt><trkpt lat="42.2810419" lon="14.1007565"><ele>134.0</ele><time>2026-05-01T14:59:37.025Z</time></trkpt><trkpt lat="42.2810441" lon="14.100648"><ele>132.33333333333331</ele><time>2026-05-01T14:59:38.025Z</time></trkpt><trkpt lat="42.2810398" lon="14.1005376"><ele>130.66666666666666</ele><time>2026-05-01T14:59:39.024Z</time></trkpt><trkpt lat="42.2810301" lon="14.100432"><ele>129.0</ele><time>2026-05-01T14:59:40.025Z</time></trkpt><trkpt lat="42.2810192" lon="14.1003395"><ele>127.33333333333334</ele><time>2026-05-01T14:59:41.025Z</time></trkpt><trkpt lat="42.2809915" lon="14.1002122"><ele>125.66666666666667</ele><time>2026-05-01T14:59:43.025Z</time></trkpt><trkpt lat="42.2810118" lon="14.1001169"><ele>124.0</ele><time>2026-05-01T14:59:46.025Z</time></trkpt><trkpt lat="42.2810775" lon="14.1001611"><ele>124.0</ele><time>2026-05-01T14:59:50.025Z</time></trkpt><trkpt lat="42.2811223" lon="14.1002654"><ele>124.0</ele><time>2026-05-01T14:59:52.025Z</time></trkpt><trkpt lat="42.2811717" lon="14.1003765"><ele>124.0</ele><time>2026-05-01T14:59:54.025Z</time></trkpt><trkpt lat="42.2812311" lon="14.1004796"><ele>124.0</ele><time>2026-05-01T14:59:56.025Z</time></trkpt><trkpt lat="42.2812926" lon="14.1005965"><ele>124.0</ele><time>2026-05-01T14:59:58.024Z</time></trkpt><trkpt lat="42.2813301" lon="14.1006672"><ele>124.00000000000001</ele><time>2026-05-01T14:59:59.025Z</time></trkpt><trkpt lat="42.2813712" lon="14.1007438"><ele>124.0</ele><time>2026-05-01T15:00:00.025Z</time></trkpt><trkpt lat="42.2814127" lon="14.100829"><ele>124.0</ele><time>2026-05-01T15:00:01.025Z</time></trkpt><trkpt lat="42.2814563" lon="14.1009139"><ele>124.0</ele><time>2026-05-01T15:00:02.025Z</time></trkpt><trkpt lat="42.2814963" lon="14.1009943"><ele>124.00000000000001</ele><time>2026-05-01T15:00:03.024Z</time></trkpt><trkpt lat="42.2815342" lon="14.1010856"><ele>124.0</ele><time>2026-05-01T15:00:04.025Z</time></trkpt><trkpt lat="42.2815726" lon="14.1011807"><ele>124.00000000000001</ele><time>2026-05-01T15:00:05.025Z</time></trkpt><trkpt lat="42.281615" lon="14.1012743"><ele>124.0</ele><time>2026-05-01T15:00:06.025Z</time></trkpt><trkpt lat="42.2816633" lon="14.1013737"><ele>124.0</ele><time>2026-05-01T15:00:07.025Z</time></trkpt><trkpt lat="42.2817082" lon="14.1014739"><ele>124.0</ele><time>2026-05-01T15:00:08.025Z</time></trkpt><trkpt lat="42.2817595" lon="14.1015647"><ele>124.00000000000001</ele><time>2026-05-01T15:00:09.025Z</time></trkpt><trkpt lat="42.2818043" lon="14.1016624"><ele>124.0</ele><time>2026-05-01T15:00:10.024Z</time></trkpt><trkpt lat="42.2818497" lon="14.1017571"><ele>125.50000000000001</ele><time>2026-05-01T15:00:11.025Z</time></trkpt><trkpt lat="42.2818881" lon="14.1018522"><ele>127.0</ele><time>2026-05-01T15:00:12.025Z</time></trkpt><trkpt lat="42.2819267" lon="14.1019408"><ele>128.5</ele><time>2026-05-01T15:00:13.025Z</time></trkpt><trkpt lat="42.2819646" lon="14.1020309"><ele>130.0</ele><time>2026-05-01T15:00:14.025Z</time></trkpt><trkpt lat="42.2820033" lon="14.1021219"><ele>131.5</ele><time>2026-05-01T15:00:15.024Z</time></trkpt><trkpt lat="42.2820451" lon="14.1022176"><ele>133.0</ele><time>2026-05-01T15:00:16.024Z</time></trkpt><trkpt lat="42.2820867" lon="14.1023173"><ele>133.0</ele><time>2026-05-01T15:00:17.025Z</time></trkpt><trkpt lat="42.2821308" lon="14.1024132"><ele>133.0</ele><time>2026-05-01T15:00:18.025Z</time></trkpt><trkpt lat="42.2821738" lon="14.1025105"><ele>133.0</ele><time>2026-05-01T15:00:19.025Z</time></trkpt><trkpt lat="42.2822141" lon="14.1026081"><ele>133.0</ele><time>2026-05-01T15:00:20.025Z</time></trkpt><trkpt lat="42.2822576" lon="14.1027109"><ele>133.0</ele><time>2026-05-01T15:00:21.024Z</time></trkpt><trkpt lat="42.2823062" lon="14.1028116"><ele>133.0</ele><time>2026-05-01T15:00:22.025Z</time></trkpt><trkpt lat="42.2823502" lon="14.1029088"><ele>132.20000000000002</ele><time>2026-05-01T15:00:23.025Z</time></trkpt><trkpt lat="42.2824323" lon="14.1031"><ele>131.4</ele><time>2026-05-01T15:00:25.025Z</time></trkpt><trkpt lat="42.2824767" lon="14.1032064"><ele>130.60000000000002</ele><time>2026-05-01T15:00:26.025Z</time></trkpt><trkpt lat="42.2825262" lon="14.1033192"><ele>129.8</ele><time>2026-05-01T15:00:27.025Z</time></trkpt><trkpt lat="42.282576" lon="14.1034267"><ele>129.0</ele><time>2026-05-01T15:00:28.025Z</time></trkpt><trkpt lat="42.2826195" lon="14.103534"><ele>129.0</ele><time>2026-05-01T15:00:29.025Z</time></trkpt><trkpt lat="42.2826587" lon="14.1036408"><ele>129.0</ele><time>2026-05-01T15:00:30.025Z</time></trkpt><trkpt lat="42.2826995" lon="14.103741"><ele>129.0</ele><time>2026-05-01T15:00:31.025Z</time></trkpt><trkpt lat="42.2827386" lon="14.1038388"><ele>129.0</ele><time>2026-05-01T15:00:32.025Z</time></trkpt><trkpt lat="42.2827751" lon="14.1039258"><ele>129.0</ele><time>2026-05-01T15:00:33.025Z</time></trkpt><trkpt lat="42.2828005" lon="14.1040061"><ele>129.0</ele><time>2026-05-01T15:00:34.025Z</time></trkpt><trkpt lat="42.2828513" lon="14.1041446"><ele>130.4</ele><time>2026-05-01T15:00:36.025Z</time></trkpt><trkpt lat="42.2828976" lon="14.1042786"><ele>131.8</ele><time>2026-05-01T15:00:38.024Z</time></trkpt><trkpt lat="42.2829391" lon="14.1043962"><ele>133.2</ele><time>2026-05-01T15:00:40.025Z</time></trkpt><trkpt lat="42.2829809" lon="14.104532"><ele>134.6</ele><time>2026-05-01T15:00:42.025Z</time></trkpt><trkpt lat="42.2830256" lon="14.1046616"><ele>136.0</ele><time>2026-05-01T15:00:44.025Z</time></trkpt><trkpt lat="42.2830644" lon="14.1047704"><ele>133.66666666666669</ele><time>2026-05-01T15:00:46.025Z</time></trkpt><trkpt lat="42.2831108" lon="14.1048881"><ele>131.33333333333334</ele><time>2026-05-01T15:00:48.025Z</time></trkpt><trkpt lat="42.2831455" lon="14.1049648"><ele>129.0</ele><time>2026-05-01T15:00:49.025Z</time></trkpt><trkpt lat="42.2831817" lon="14.1050659"><ele>126.66666666666666</ele><time>2026-05-01T15:00:50.025Z</time></trkpt><trkpt lat="42.2832218" lon="14.1051741"><ele>124.33333333333333</ele><time>2026-05-01T15:00:51.025Z</time></trkpt><trkpt lat="42.2832624" lon="14.1052958"><ele>122.0</ele><time>2026-05-01T15:00:52.025Z</time></trkpt><trkpt lat="42.2832991" lon="14.105406"><ele>121.99999999999999</ele><time>2026-05-01T15:00:53.024Z</time></trkpt><trkpt lat="42.2833331" lon="14.1055019"><ele>122.0</ele><time>2026-05-01T15:00:54.025Z</time></trkpt><trkpt lat="42.283367" lon="14.1055908"><ele>121.99999999999999</ele><time>2026-05-01T15:00:55.025Z</time></trkpt><trkpt lat="42.2833966" lon="14.1056781"><ele>121.99999999999999</ele><time>2026-05-01T15:00:56.025Z</time></trkpt><trkpt lat="42.2834264" lon="14.1057663"><ele>122.0</ele><time>2026-05-01T15:00:57.025Z</time></trkpt><trkpt lat="42.2834587" lon="14.1058559"><ele>121.99999999999999</ele><time>2026-05-01T15:00:58.025Z</time></trkpt><trkpt lat="42.2834943" lon="14.1059463"><ele>121.99999999999999</ele><time>2026-05-01T15:00:59.025Z</time></trkpt><trkpt lat="42.2835293" lon="14.1060382"><ele>122.99999999999999</ele><time>2026-05-01T15:01:00.025Z</time></trkpt><trkpt lat="42.2835674" lon="14.1061274"><ele>124.0</ele><time>2026-05-01T15:01:01.025Z</time></trkpt><trkpt lat="42.2836032" lon="14.1062207"><ele>125.0</ele><time>2026-05-01T15:01:02.025Z</time></trkpt><trkpt lat="42.2836381" lon="14.1063259"><ele>126.0</ele><time>2026-05-01T15:01:03.024Z</time></trkpt><trkpt lat="42.283673" lon="14.1064345"><ele>126.99999999999999</ele><time>2026-05-01T15:01:04.025Z</time></trkpt><trkpt lat="42.2837109" lon="14.1065469"><ele>128.0</ele><time>2026-05-01T15:01:05.025Z</time></trkpt><trkpt lat="42.2837483" lon="14.1066538"><ele>127.16666666666666</ele><time>2026-05-01T15:01:06.025Z</time></trkpt><trkpt lat="42.2837814" lon="14.106751"><ele>126.33333333333333</ele><time>2026-05-01T15:01:07.025Z</time></trkpt><trkpt lat="42.2838135" lon="14.1068541"><ele>125.5</ele><time>2026-05-01T15:01:08.025Z</time></trkpt><trkpt lat="42.2838483" lon="14.1069602"><ele>124.66666666666666</ele><time>2026-05-01T15:01:09.025Z</time></trkpt><trkpt lat="42.2838849" lon="14.107068"><ele>123.83333333333333</ele><time>2026-05-01T15:01:10.025Z</time></trkpt><trkpt lat="42.2839186" lon="14.1071779"><ele>123.0</ele><time>2026-05-01T15:01:11.025Z</time></trkpt><trkpt lat="42.2839525" lon="14.1072837"><ele>123.0</ele><time>2026-05-01T15:01:12.025Z</time></trkpt><trkpt lat="42.2839781" lon="14.1073827"><ele>123.0</ele><time>2026-05-01T15:01:13.025Z</time></trkpt><trkpt lat="42.2840073" lon="14.107478"><ele>123.0</ele><time>2026-05-01T15:01:14.025Z</time></trkpt><trkpt lat="42.2840353" lon="14.1075805"><ele>123.0</ele><time>2026-05-01T15:01:15.025Z</time></trkpt><trkpt lat="42.284063" lon="14.1076842"><ele>123.0</ele><time>2026-05-01T15:01:16.025Z</time></trkpt><trkpt lat="42.2840882" lon="14.1077783"><ele>123.0</ele><time>2026-05-01T15:01:17.025Z</time></trkpt><trkpt lat="42.2841177" lon="14.107871"><ele>124.0</ele><time>2026-05-01T15:01:18.025Z</time></trkpt><trkpt lat="42.284149" lon="14.1079669"><ele>125.0</ele><time>2026-05-01T15:01:19.025Z</time></trkpt><trkpt lat="42.2841851" lon="14.1080686"><ele>126.0</ele><time>2026-05-01T15:01:20.025Z</time></trkpt><trkpt lat="42.28422" lon="14.1081719"><ele>127.0</ele><time>2026-05-01T15:01:21.025Z</time></trkpt><trkpt lat="42.2842516" lon="14.1082768"><ele>128.0</ele><time>2026-05-01T15:01:22.025Z</time></trkpt><trkpt lat="42.28428" lon="14.108373"><ele>129.0</ele><time>2026-05-01T15:01:23.025Z</time></trkpt><trkpt lat="42.2843169" lon="14.1085005"><ele>129.5</ele><time>2026-05-01T15:01:25.025Z</time></trkpt><trkpt lat="42.2843487" lon="14.1085763"><ele>130.0</ele><time>2026-05-01T15:01:27.025Z</time></trkpt><trkpt lat="42.2843842" lon="14.1086624"><ele>130.5</ele><time>2026-05-01T15:01:29.025Z</time></trkpt><trkpt lat="42.2844248" lon="14.1087781"><ele>131.0</ele><time>2026-05-01T15:01:31.025Z</time></trkpt><trkpt lat="42.284468" lon="14.1089068"><ele>131.5</ele><time>2026-05-01T15:01:33.025Z</time></trkpt><trkpt lat="42.2845084" lon="14.1090293"><ele>132.0</ele><time>2026-05-01T15:01:35.025Z</time></trkpt><trkpt lat="42.2845411" lon="14.1091137"><ele>132.83333333333334</ele><time>2026-05-01T15:04:30.025Z</time></trkpt><trkpt lat="42.2845691" lon="14.1091917"><ele>133.66666666666666</ele><time>2026-05-01T15:08:30.017Z</time></trkpt><trkpt lat="42.2846132" lon="14.1093061"><ele>134.5</ele><time>2026-05-01T15:08:33.017Z</time></trkpt><trkpt lat="42.2846403" lon="14.1094038"><ele>135.33333333333331</ele><time>2026-05-01T15:08:35.016Z</time></trkpt><trkpt lat="42.2846817" lon="14.1095155"><ele>136.16666666666666</ele><time>2026-05-01T15:08:37.017Z</time></trkpt><trkpt lat="42.2847313" lon="14.1096285"><ele>137.0</ele><time>2026-05-01T15:08:39.017Z</time></trkpt><trkpt lat="42.2847883" lon="14.1097556"><ele>135.33333333333331</ele><time>2026-05-01T15:08:41.016Z</time></trkpt><trkpt lat="42.2848455" lon="14.1099016"><ele>133.66666666666666</ele><time>2026-05-01T15:08:43.017Z</time></trkpt><trkpt lat="42.2848684" lon="14.1099941"><ele>132.0</ele><time>2026-05-01T15:08:44.017Z</time></trkpt><trkpt lat="42.284902" lon="14.1100711"><ele>130.33333333333334</ele><time>2026-05-01T15:08:45.017Z</time></trkpt><trkpt lat="42.2849326" lon="14.1101596"><ele>128.66666666666669</ele><time>2026-05-01T15:08:46.017Z</time></trkpt><trkpt lat="42.2849647" lon="14.1102473"><ele>127.0</ele><time>2026-05-01T15:08:47.017Z</time></trkpt><trkpt lat="42.284997" lon="14.1103435"><ele>127.0</ele><time>2026-05-01T15:08:48.017Z</time></trkpt><trkpt lat="42.2850285" lon="14.110438"><ele>127.0</ele><time>2026-05-01T15:08:49.017Z</time></trkpt><trkpt lat="42.2850635" lon="14.1105144"><ele>127.0</ele><time>2026-05-01T15:08:50.017Z</time></trkpt><trkpt lat="42.2850932" lon="14.1106123"><ele>127.0</ele><time>2026-05-01T15:08:51.016Z</time></trkpt><trkpt lat="42.2851201" lon="14.1107004"><ele>127.0</ele><time>2026-05-01T15:08:52.016Z</time></trkpt><trkpt lat="42.2851426" lon="14.110796"><ele>127.0</ele><time>2026-05-01T15:08:53.017Z</time></trkpt><trkpt lat="42.2851609" lon="14.1108949"><ele>127.0</ele><time>2026-05-01T15:08:54.017Z</time></trkpt><trkpt lat="42.285187" lon="14.1109891"><ele>128.33333333333334</ele><time>2026-05-01T15:08:55.017Z</time></trkpt><trkpt lat="42.2852076" lon="14.1110913"><ele>129.66666666666669</ele><time>2026-05-01T15:08:56.017Z</time></trkpt><trkpt lat="42.2852369" lon="14.1111944"><ele>131.0</ele><time>2026-05-01T15:08:57.017Z</time></trkpt><trkpt lat="42.2852631" lon="14.1113015"><ele>132.33333333333334</ele><time>2026-05-01T15:08:58.017Z</time></trkpt><trkpt lat="42.2852855" lon="14.1114095"><ele>133.66666666666666</ele><time>2026-05-01T15:08:59.017Z</time></trkpt><trkpt lat="42.285312" lon="14.1115149"><ele>135.0</ele><time>2026-05-01T15:09:00.017Z</time></trkpt><trkpt lat="42.285369" lon="14.1116208"><ele>135.8</ele><time>2026-05-01T15:09:02.017Z</time></trkpt><trkpt lat="42.2853894" lon="14.1117571"><ele>136.6</ele><time>2026-05-01T15:09:04.017Z</time></trkpt><trkpt lat="42.2854233" lon="14.1118622"><ele>137.4</ele><time>2026-05-01T15:09:06.017Z</time></trkpt><trkpt lat="42.2854698" lon="14.1119914"><ele>138.2</ele><time>2026-05-01T15:09:08.017Z</time></trkpt><trkpt lat="42.2855286" lon="14.1121379"><ele>139.0</ele><time>2026-05-01T15:09:10.017Z</time></trkpt><trkpt lat="42.2856099" lon="14.1122755"><ele>137.5</ele><time>2026-05-01T15:09:12.017Z</time></trkpt><trkpt lat="42.2856896" lon="14.1124142"><ele>136.0</ele><time>2026-05-01T15:09:14.016Z</time></trkpt><trkpt lat="42.2857366" lon="14.11249"><ele>134.5</ele><time>2026-05-01T15:09:15.017Z</time></trkpt><trkpt lat="42.2857847" lon="14.1125567"><ele>133.0</ele><time>2026-05-01T15:09:16.016Z</time></trkpt><trkpt lat="42.2858375" lon="14.1126353"><ele>131.5</ele><time>2026-05-01T15:09:17.016Z</time></trkpt><trkpt lat="42.2858953" lon="14.112713"><ele>130.0</ele><time>2026-05-01T15:09:18.017Z</time></trkpt><trkpt lat="42.2859489" lon="14.1127922"><ele>130.0</ele><time>2026-05-01T15:09:19.016Z</time></trkpt><trkpt lat="42.2860094" lon="14.1128648"><ele>130.0</ele><time>2026-05-01T15:09:20.017Z</time></trkpt><trkpt lat="42.2860632" lon="14.1129644"><ele>130.0</ele><time>2026-05-01T15:09:21.017Z</time></trkpt><trkpt lat="42.2861103" lon="14.1130516"><ele>130.0</ele><time>2026-05-01T15:09:22.016Z</time></trkpt><trkpt lat="42.2861535" lon="14.1131416"><ele>130.0</ele><time>2026-05-01T15:09:23.017Z</time></trkpt><trkpt lat="42.2861767" lon="14.1132338"><ele>130.0</ele><time>2026-05-01T15:09:24.017Z</time></trkpt><trkpt lat="42.2861977" lon="14.1133276"><ele>131.5</ele><time>2026-05-01T15:09:25.017Z</time></trkpt><trkpt lat="42.2862095" lon="14.1134408"><ele>133.0</ele><time>2026-05-01T15:09:26.017Z</time></trkpt><trkpt lat="42.2862203" lon="14.113545"><ele>134.5</ele><time>2026-05-01T15:09:27.017Z</time></trkpt><trkpt lat="42.2862254" lon="14.1136547"><ele>136.0</ele><time>2026-05-01T15:09:28.017Z</time></trkpt><trkpt lat="42.2862362" lon="14.1137555"><ele>137.5</ele><time>2026-05-01T15:09:29.017Z</time></trkpt><trkpt lat="42.2862447" lon="14.1138637"><ele>139.0</ele><time>2026-05-01T15:09:30.017Z</time></trkpt><trkpt lat="42.2862509" lon="14.1139708"><ele>139.71428571428572</ele><time>2026-05-01T15:09:31.017Z</time></trkpt><trkpt lat="42.286267" lon="14.1140794"><ele>140.42857142857144</ele><time>2026-05-01T15:09:32.016Z</time></trkpt><trkpt lat="42.2862736" lon="14.1141796"><ele>141.14285714285717</ele><time>2026-05-01T15:09:33.016Z</time></trkpt><trkpt lat="42.2862867" lon="14.1142819"><ele>141.85714285714286</ele><time>2026-05-01T15:09:34.017Z</time></trkpt><trkpt lat="42.2862937" lon="14.1143735"><ele>142.57142857142858</ele><time>2026-05-01T15:09:35.017Z</time></trkpt><trkpt lat="42.2863029" lon="14.1144607"><ele>143.2857142857143</ele><time>2026-05-01T15:09:36.017Z</time></trkpt><trkpt lat="42.2863095" lon="14.114556"><ele>144.0</ele><time>2026-05-01T15:09:37.017Z</time></trkpt><trkpt lat="42.28632" lon="14.1146463"><ele>144.00000000000003</ele><time>2026-05-01T15:09:38.017Z</time></trkpt><trkpt lat="42.28633" lon="14.1147414"><ele>144.0</ele><time>2026-05-01T15:09:39.016Z</time></trkpt><trkpt lat="42.2863379" lon="14.1148337"><ele>144.0</ele><time>2026-05-01T15:09:40.017Z</time></trkpt><trkpt lat="42.2863483" lon="14.1149196"><ele>144.0</ele><time>2026-05-01T15:09:41.017Z</time></trkpt><trkpt lat="42.2863655" lon="14.1150027"><ele>144.0</ele><time>2026-05-01T15:09:42.017Z</time></trkpt><trkpt lat="42.2863825" lon="14.1150867"><ele>144.00000000000003</ele><time>2026-05-01T15:09:43.017Z</time></trkpt><trkpt lat="42.2864045" lon="14.1151736"><ele>144.0</ele><time>2026-05-01T15:09:44.017Z</time></trkpt><trkpt lat="42.2864169" lon="14.115262"><ele>143.00000000000003</ele><time>2026-05-01T15:09:45.016Z</time></trkpt><trkpt lat="42.2864388" lon="14.1153477"><ele>142.0</ele><time>2026-05-01T15:09:46.017Z</time></trkpt><trkpt lat="42.2864645" lon="14.1154365"><ele>141.0</ele><time>2026-05-01T15:09:47.016Z</time></trkpt><trkpt lat="42.2864932" lon="14.1155224"><ele>140.0</ele><time>2026-05-01T15:09:48.017Z</time></trkpt><trkpt lat="42.286514" lon="14.1156046"><ele>139.0</ele><time>2026-05-01T15:09:49.017Z</time></trkpt><trkpt lat="42.2865212" lon="14.1156917"><ele>138.00000000000003</ele><time>2026-05-01T15:09:50.017Z</time></trkpt><trkpt lat="42.2865141" lon="14.1158404"><ele>137.0</ele><time>2026-05-01T15:09:52.017Z</time></trkpt><trkpt lat="42.2864803" lon="14.1159999"><ele>137.0</ele><time>2026-05-01T15:09:54.017Z</time></trkpt><trkpt lat="42.2864531" lon="14.1160776"><ele>137.0</ele><time>2026-05-01T15:09:55.017Z</time></trkpt><trkpt lat="42.2863809" lon="14.1162147"><ele>137.0</ele><time>2026-05-01T15:09:57.016Z</time></trkpt><trkpt lat="42.2863419" lon="14.1162866"><ele>137.0</ele><time>2026-05-01T15:09:58.017Z</time></trkpt><trkpt lat="42.2862992" lon="14.1163605"><ele>137.0</ele><time>2026-05-01T15:09:59.017Z</time></trkpt><trkpt lat="42.2862569" lon="14.1164322"><ele>137.0</ele><time>2026-05-01T15:10:00.017Z</time></trkpt><trkpt lat="42.2861816" lon="14.1165629"><ele>139.4</ele><time>2026-05-01T15:10:02.017Z</time></trkpt><trkpt lat="42.2861414" lon="14.1167126"><ele>141.79999999999998</ele><time>2026-05-01T15:10:04.017Z</time></trkpt><trkpt lat="42.2861208" lon="14.1168791"><ele>144.2</ele><time>2026-05-01T15:10:06.017Z</time></trkpt><trkpt lat="42.286116" lon="14.1169719"><ele>146.6</ele><time>2026-05-01T15:10:07.017Z</time></trkpt><trkpt lat="42.2861107" lon="14.1170663"><ele>149.0</ele><time>2026-05-01T15:10:08.017Z</time></trkpt><trkpt lat="42.2861044" lon="14.1171624"><ele>149.0</ele><time>2026-05-01T15:10:09.017Z</time></trkpt><trkpt lat="42.2860997" lon="14.1172614"><ele>149.0</ele><time>2026-05-01T15:10:10.017Z</time></trkpt><trkpt lat="42.2860926" lon="14.117361"><ele>149.0</ele><time>2026-05-01T15:10:11.017Z</time></trkpt><trkpt lat="42.2860891" lon="14.1174673"><ele>149.0</ele><time>2026-05-01T15:10:12.016Z</time></trkpt><trkpt lat="42.2860827" lon="14.1175839"><ele>149.0</ele><time>2026-05-01T15:10:13.017Z</time></trkpt><trkpt lat="42.286068" lon="14.1177027"><ele>149.0</ele><time>2026-05-01T15:10:14.017Z</time></trkpt><trkpt lat="42.2860521" lon="14.1178103"><ele>149.33333333333331</ele><time>2026-05-01T15:10:15.017Z</time></trkpt><trkpt lat="42.2860375" lon="14.1179119"><ele>149.66666666666666</ele><time>2026-05-01T15:10:16.017Z</time></trkpt><trkpt lat="42.2860079" lon="14.1180134"><ele>150.0</ele><time>2026-05-01T15:10:17.017Z</time></trkpt><trkpt lat="42.2859778" lon="14.1181177"><ele>150.33333333333334</ele><time>2026-05-01T15:10:18.017Z</time></trkpt><trkpt lat="42.2859476" lon="14.1182268"><ele>150.66666666666669</ele><time>2026-05-01T15:10:19.017Z</time></trkpt><trkpt lat="42.2859197" lon="14.1183399"><ele>151.0</ele><time>2026-05-01T15:10:20.017Z</time></trkpt><trkpt lat="42.2858962" lon="14.1184444"><ele>151.57142857142858</ele><time>2026-05-01T15:10:21.017Z</time></trkpt><trkpt lat="42.2858724" lon="14.1185297"><ele>152.14285714285714</ele><time>2026-05-01T15:10:22.016Z</time></trkpt><trkpt lat="42.2858473" lon="14.118675"><ele>152.71428571428572</ele><time>2026-05-01T15:10:24.017Z</time></trkpt><trkpt lat="42.285839" lon="14.1187677"><ele>153.28571428571428</ele><time>2026-05-01T15:10:25.017Z</time></trkpt><trkpt lat="42.2858347" lon="14.1188554"><ele>153.85714285714286</ele><time>2026-05-01T15:10:26.017Z</time></trkpt><trkpt lat="42.2858209" lon="14.1189421"><ele>154.42857142857144</ele><time>2026-05-01T15:10:27.017Z</time></trkpt><trkpt lat="42.2858016" lon="14.1190233"><ele>155.0</ele><time>2026-05-01T15:10:28.017Z</time></trkpt><trkpt lat="42.285746" lon="14.1191724"><ele>156.0</ele><time>2026-05-01T15:10:30.017Z</time></trkpt><trkpt lat="42.2856672" lon="14.119303"><ele>157.0</ele><time>2026-05-01T15:10:32.017Z</time></trkpt><trkpt lat="42.2855771" lon="14.1194238"><ele>158.0</ele><time>2026-05-01T15:10:34.017Z</time></trkpt><trkpt lat="42.2855217" lon="14.1194809"><ele>159.0</ele><time>2026-05-01T15:10:35.017Z</time></trkpt><trkpt lat="42.2854705" lon="14.1195379"><ele>160.0</ele><time>2026-05-01T15:10:36.017Z</time></trkpt><trkpt lat="42.2854214" lon="14.1195932"><ele>162.0</ele><time>2026-05-01T15:10:37.017Z</time></trkpt><trkpt lat="42.2853656" lon="14.1196468"><ele>164.0</ele><time>2026-05-01T15:10:38.017Z</time></trkpt><trkpt lat="42.2853132" lon="14.1196969"><ele>166.0</ele><time>2026-05-01T15:10:39.017Z</time></trkpt><trkpt lat="42.2852611" lon="14.1197482"><ele>168.0</ele><time>2026-05-01T15:10:40.016Z</time></trkpt><trkpt lat="42.2852087" lon="14.1197995"><ele>170.0</ele><time>2026-05-01T15:10:41.017Z</time></trkpt><trkpt lat="42.285094" lon="14.1198886"><ele>172.0</ele><time>2026-05-01T15:10:43.016Z</time></trkpt><trkpt lat="42.2850334" lon="14.1199376"><ele>172.0</ele><time>2026-05-01T15:10:44.017Z</time></trkpt><trkpt lat="42.2849691" lon="14.1199882"><ele>172.0</ele><time>2026-05-01T15:10:45.017Z</time></trkpt><trkpt lat="42.2849047" lon="14.1200402"><ele>172.0</ele><time>2026-05-01T15:10:46.017Z</time></trkpt><trkpt lat="42.2848428" lon="14.1200929"><ele>172.0</ele><time>2026-05-01T15:10:47.017Z</time></trkpt><trkpt lat="42.2847817" lon="14.1201426"><ele>172.0</ele><time>2026-05-01T15:10:48.016Z</time></trkpt><trkpt lat="42.2846939" lon="14.1202284"><ele>172.0</ele><time>2026-05-01T15:10:50.017Z</time></trkpt><trkpt lat="42.284628" lon="14.1203194"><ele>175.2</ele><time>2026-05-01T15:10:52.017Z</time></trkpt><trkpt lat="42.2845722" lon="14.120417"><ele>178.39999999999998</ele><time>2026-05-01T15:10:54.016Z</time></trkpt><trkpt lat="42.284522" lon="14.1205328"><ele>181.60000000000002</ele><time>2026-05-01T15:10:56.017Z</time></trkpt><trkpt lat="42.2844797" lon="14.120675"><ele>184.8</ele><time>2026-05-01T15:10:58.016Z</time></trkpt><trkpt lat="42.2844487" lon="14.1207947"><ele>188.0</ele><time>2026-05-01T15:11:00.017Z</time></trkpt><trkpt lat="42.2844282" lon="14.1209241"><ele>188.0</ele><time>2026-05-01T15:11:02.017Z</time></trkpt><trkpt lat="42.2844114" lon="14.1210575"><ele>188.0</ele><time>2026-05-01T15:11:04.017Z</time></trkpt><trkpt lat="42.2844004" lon="14.1212078"><ele>188.0</ele><time>2026-05-01T15:11:06.017Z</time></trkpt><trkpt lat="42.284389" lon="14.1213695"><ele>188.0</ele><time>2026-05-01T15:11:08.016Z</time></trkpt><trkpt lat="42.2843792" lon="14.1215297"><ele>188.2</ele><time>2026-05-01T15:11:10.017Z</time></trkpt><trkpt lat="42.2843596" lon="14.1216697"><ele>188.4</ele><time>2026-05-01T15:11:12.017Z</time></trkpt><trkpt lat="42.2843377" lon="14.1217989"><ele>188.6</ele><time>2026-05-01T15:11:14.016Z</time></trkpt><trkpt lat="42.2843021" lon="14.121917"><ele>188.79999999999998</ele><time>2026-05-01T15:11:16.016Z</time></trkpt><trkpt lat="42.2842379" lon="14.1220349"><ele>189.0</ele><time>2026-05-01T15:11:18.017Z</time></trkpt><trkpt lat="42.2841409" lon="14.1221079"><ele>189.0</ele><time>2026-05-01T15:11:20.017Z</time></trkpt><trkpt lat="42.2840343" lon="14.1221392"><ele>189.0</ele><time>2026-05-01T15:11:22.017Z</time></trkpt><trkpt lat="42.2839241" lon="14.1221212"><ele>189.0</ele><time>2026-05-01T15:11:24.017Z</time></trkpt><trkpt lat="42.2838373" lon="14.122058"><ele>189.0</ele><time>2026-05-01T15:11:26.017Z</time></trkpt><trkpt lat="42.2837618" lon="14.1219592"><ele>189.0</ele><time>2026-05-01T15:11:28.016Z</time></trkpt><trkpt lat="42.2837058" lon="14.1218483"><ele>193.33333333333334</ele><time>2026-05-01T15:11:30.017Z</time></trkpt><trkpt lat="42.2836297" lon="14.1217369"><ele>197.66666666666669</ele><time>2026-05-01T15:11:32.016Z</time></trkpt><trkpt lat="42.2835898" lon="14.1216676"><ele>202.0</ele><time>2026-05-01T15:11:33.017Z</time></trkpt><trkpt lat="42.2835436" lon="14.1215958"><ele>206.33333333333334</ele><time>2026-05-01T15:11:34.017Z</time></trkpt><trkpt lat="42.2834997" lon="14.1215205"><ele>210.66666666666669</ele><time>2026-05-01T15:11:35.017Z</time></trkpt><trkpt lat="42.2834542" lon="14.121445"><ele>215.0</ele><time>2026-05-01T15:11:36.016Z</time></trkpt><trkpt lat="42.2834171" lon="14.1213657"><ele>215.00000000000003</ele><time>2026-05-01T15:11:37.017Z</time></trkpt><trkpt lat="42.2833841" lon="14.1212861"><ele>215.0</ele><time>2026-05-01T15:11:38.016Z</time></trkpt><trkpt lat="42.2833483" lon="14.121209"><ele>215.0</ele><time>2026-05-01T15:11:39.017Z</time></trkpt><trkpt lat="42.2833122" lon="14.1211323"><ele>215.0</ele><time>2026-05-01T15:11:40.017Z</time></trkpt><trkpt lat="42.2832824" lon="14.1210565"><ele>215.00000000000003</ele><time>2026-05-01T15:11:41.017Z</time></trkpt><trkpt lat="42.2832357" lon="14.1209287"><ele>215.0</ele><time>2026-05-01T15:11:43.017Z</time></trkpt><trkpt lat="42.2832078" lon="14.1208068"><ele>214.2</ele><time>2026-05-01T15:11:45.017Z</time></trkpt><trkpt lat="42.2831564" lon="14.1206346"><ele>213.4</ele><time>2026-05-01T15:11:47.017Z</time></trkpt><trkpt lat="42.2831281" lon="14.1205327"><ele>212.60000000000002</ele><time>2026-05-01T15:11:48.017Z</time></trkpt><trkpt lat="42.2830871" lon="14.1204115"><ele>211.8</ele><time>2026-05-01T15:11:49.016Z</time></trkpt><trkpt lat="42.2830387" lon="14.1202458"><ele>211.0</ele><time>2026-05-01T15:11:50.017Z</time></trkpt><trkpt lat="42.2829872" lon="14.1200733"><ele>214.8</ele><time>2026-05-01T15:11:51.016Z</time></trkpt><trkpt lat="42.2829454" lon="14.1199284"><ele>218.60000000000002</ele><time>2026-05-01T15:11:52.017Z</time></trkpt><trkpt lat="42.2829074" lon="14.1197872"><ele>222.4</ele><time>2026-05-01T15:11:53.017Z</time></trkpt><trkpt lat="42.2828708" lon="14.119655"><ele>226.2</ele><time>2026-05-01T15:11:54.017Z</time></trkpt><trkpt lat="42.2828341" lon="14.1195281"><ele>230.0</ele><time>2026-05-01T15:11:55.017Z</time></trkpt><trkpt lat="42.2827974" lon="14.1193957"><ele>230.0</ele><time>2026-05-01T15:11:56.017Z</time></trkpt><trkpt lat="42.2827644" lon="14.1192676"><ele>230.0</ele><time>2026-05-01T15:11:57.017Z</time></trkpt><trkpt lat="42.2827277" lon="14.1191469"><ele>230.0</ele><time>2026-05-01T15:11:58.016Z</time></trkpt><trkpt lat="42.2826901" lon="14.1190209"><ele>230.0</ele><time>2026-05-01T15:11:59.017Z</time></trkpt><trkpt lat="42.2826522" lon="14.1188958"><ele>230.0</ele><time>2026-05-01T15:12:00.017Z</time></trkpt><trkpt lat="42.2826158" lon="14.1187764"><ele>229.2</ele><time>2026-05-01T15:12:01.017Z</time></trkpt><trkpt lat="42.2825762" lon="14.1186587"><ele>228.4</ele><time>2026-05-01T15:12:02.017Z</time></trkpt><trkpt lat="42.2825427" lon="14.1185489"><ele>227.60000000000002</ele><time>2026-05-01T15:12:03.016Z</time></trkpt><trkpt lat="42.282511" lon="14.1184411"><ele>226.8</ele><time>2026-05-01T15:12:04.016Z</time></trkpt><trkpt lat="42.2824759" lon="14.1183283"><ele>226.0</ele><time>2026-05-01T15:12:05.016Z</time></trkpt><trkpt lat="42.2824361" lon="14.118207"><ele>225.4</ele><time>2026-05-01T15:12:06.017Z</time></trkpt><trkpt lat="42.2823848" lon="14.1180823"><ele>224.8</ele><time>2026-05-01T15:12:07.017Z</time></trkpt><trkpt lat="42.2823325" lon="14.1179687"><ele>224.20000000000002</ele><time>2026-05-01T15:12:08.017Z</time></trkpt><trkpt lat="42.2822784" lon="14.1178571"><ele>223.60000000000002</ele><time>2026-05-01T15:12:09.017Z</time></trkpt><trkpt lat="42.2822263" lon="14.117757"><ele>223.0</ele><time>2026-05-01T15:12:10.017Z</time></trkpt><trkpt lat="42.2821796" lon="14.1176775"><ele>223.0</ele><time>2026-05-01T15:12:11.017Z</time></trkpt><trkpt lat="42.2821151" lon="14.117597"><ele>223.0</ele><time>2026-05-01T15:12:13.017Z</time></trkpt><trkpt lat="42.282038" lon="14.1175957"><ele>223.0</ele><time>2026-05-01T15:12:16.017Z</time></trkpt><trkpt lat="42.2820205" lon="14.1177058"><ele>223.0</ele><time>2026-05-01T15:12:18.017Z</time></trkpt><trkpt lat="42.2820269" lon="14.1178382"><ele>223.0</ele><time>2026-05-01T15:12:19.017Z</time></trkpt><trkpt lat="42.2820292" lon="14.1180177"><ele>223.0</ele><time>2026-05-01T15:12:20.016Z</time></trkpt><trkpt lat="42.2820125" lon="14.1182239"><ele>223.0</ele><time>2026-05-01T15:12:21.017Z</time></trkpt><trkpt lat="42.2819924" lon="14.1184481"><ele>223.0</ele><time>2026-05-01T15:12:22.017Z</time></trkpt><trkpt lat="42.2819704" lon="14.118699"><ele>224.66666666666666</ele><time>2026-05-01T15:12:23.017Z</time></trkpt><trkpt lat="42.2819378" lon="14.1189623"><ele>226.33333333333331</ele><time>2026-05-01T15:12:24.017Z</time></trkpt><trkpt lat="42.2819126" lon="14.1191985"><ele>228.0</ele><time>2026-05-01T15:12:25.017Z</time></trkpt><trkpt lat="42.2818922" lon="14.1194133"><ele>230.66666666666669</ele><time>2026-05-01T15:12:26.016Z</time></trkpt><trkpt lat="42.2818863" lon="14.119627"><ele>233.33333333333334</ele><time>2026-05-01T15:12:27.016Z</time></trkpt><trkpt lat="42.2819058" lon="14.1198614"><ele>236.0</ele><time>2026-05-01T15:12:28.017Z</time></trkpt><trkpt lat="42.281947" lon="14.1200582"><ele>237.5</ele><time>2026-05-01T15:12:29.017Z</time></trkpt><trkpt lat="42.2819908" lon="14.120235"><ele>239.0</ele><time>2026-05-01T15:12:30.017Z</time></trkpt><trkpt lat="42.282026" lon="14.1204014"><ele>240.5</ele><time>2026-05-01T15:12:31.017Z</time></trkpt><trkpt lat="42.2820527" lon="14.1205534"><ele>242.0</ele><time>2026-05-01T15:12:32.017Z</time></trkpt><trkpt lat="42.2820707" lon="14.1207126"><ele>243.5</ele><time>2026-05-01T15:12:33.017Z</time></trkpt><trkpt lat="42.2820823" lon="14.1208822"><ele>245.0</ele><time>2026-05-01T15:12:34.017Z</time></trkpt><trkpt lat="42.2820777" lon="14.1210577"><ele>246.5</ele><time>2026-05-01T15:12:35.017Z</time></trkpt><trkpt lat="42.2820595" lon="14.1212423"><ele>248.0</ele><time>2026-05-01T15:12:36.017Z</time></trkpt><trkpt lat="42.2820254" lon="14.1214285"><ele>249.0</ele><time>2026-05-01T15:12:37.017Z</time></trkpt><trkpt lat="42.2819966" lon="14.1216211"><ele>250.0</ele><time>2026-05-01T15:12:38.017Z</time></trkpt><trkpt lat="42.2819875" lon="14.1218266"><ele>251.0</ele><time>2026-05-01T15:12:39.017Z</time></trkpt><trkpt lat="42.2819991" lon="14.1220311"><ele>252.0</ele><time>2026-05-01T15:12:40.017Z</time></trkpt><trkpt lat="42.2820299" lon="14.1222429"><ele>253.75</ele><time>2026-05-01T15:12:41.017Z</time></trkpt><trkpt lat="42.2820564" lon="14.1224379"><ele>255.5</ele><time>2026-05-01T15:12:42.017Z</time></trkpt><trkpt lat="42.2820823" lon="14.1226249"><ele>257.25</ele><time>2026-05-01T15:12:43.017Z</time></trkpt><trkpt lat="42.2821035" lon="14.1228131"><ele>259.0</ele><time>2026-05-01T15:12:44.017Z</time></trkpt><trkpt lat="42.2821179" lon="14.1230028"><ele>259.0</ele><time>2026-05-01T15:12:45.017Z</time></trkpt><trkpt lat="42.2821264" lon="14.1231907"><ele>259.0</ele><time>2026-05-01T15:12:46.017Z</time></trkpt><trkpt lat="42.2821312" lon="14.1233799"><ele>259.0</ele><time>2026-05-01T15:12:47.017Z</time></trkpt><trkpt lat="42.2821375" lon="14.1235716"><ele>259.0</ele><time>2026-05-01T15:12:48.016Z</time></trkpt><trkpt lat="42.2821442" lon="14.1237604"><ele>262.0</ele><time>2026-05-01T15:12:49.016Z</time></trkpt><trkpt lat="42.2821491" lon="14.1239464"><ele>265.0</ele><time>2026-05-01T15:12:50.017Z</time></trkpt><trkpt lat="42.2821557" lon="14.1241354"><ele>268.0</ele><time>2026-05-01T15:12:51.017Z</time></trkpt><trkpt lat="42.2821638" lon="14.1243233"><ele>271.0</ele><time>2026-05-01T15:12:52.017Z</time></trkpt><trkpt lat="42.2821758" lon="14.1245128"><ele>273.0</ele><time>2026-05-01T15:12:53.017Z</time></trkpt><trkpt lat="42.2821873" lon="14.1247033"><ele>275.0</ele><time>2026-05-01T15:12:54.017Z</time></trkpt><trkpt lat="42.2822086" lon="14.1248999"><ele>277.0</ele><time>2026-05-01T15:12:55.017Z</time></trkpt><trkpt lat="42.2822318" lon="14.1250977"><ele>279.0</ele><time>2026-05-01T15:12:56.017Z</time></trkpt><trkpt lat="42.2822527" lon="14.1253008"><ele>279.5</ele><time>2026-05-01T15:12:57.017Z</time></trkpt><trkpt lat="42.2822616" lon="14.1255112"><ele>280.0</ele><time>2026-05-01T15:12:58.017Z</time></trkpt><trkpt lat="42.2822735" lon="14.1257069"><ele>280.5</ele><time>2026-05-01T15:12:59.017Z</time></trkpt><trkpt lat="42.2822881" lon="14.1258818"><ele>281.0</ele><time>2026-05-01T15:13:00.016Z</time></trkpt><trkpt lat="42.282298" lon="14.1260462"><ele>282.6</ele><time>2026-05-01T15:13:01.016Z</time></trkpt><trkpt lat="42.2823197" lon="14.1261889"><ele>284.20000000000005</ele><time>2026-05-01T15:13:02.016Z</time></trkpt><trkpt lat="42.2823475" lon="14.1263191"><ele>285.79999999999995</ele><time>2026-05-01T15:13:03.017Z</time></trkpt><trkpt lat="42.282387" lon="14.1264439"><ele>287.4</ele><time>2026-05-01T15:13:04.017Z</time></trkpt><trkpt lat="42.2824312" lon="14.1265505"><ele>289.0</ele><time>2026-05-01T15:13:05.017Z</time></trkpt><trkpt lat="42.2824713" lon="14.1266507"><ele>290.8333333333333</ele><time>2026-05-01T15:13:06.016Z</time></trkpt><trkpt lat="42.2825105" lon="14.1267437"><ele>292.66666666666663</ele><time>2026-05-01T15:13:07.017Z</time></trkpt><trkpt lat="42.2825454" lon="14.1268333"><ele>294.5</ele><time>2026-05-01T15:13:08.017Z</time></trkpt><trkpt lat="42.2825985" lon="14.1269541"><ele>296.3333333333333</ele><time>2026-05-01T15:13:10.017Z</time></trkpt><trkpt lat="42.2826304" lon="14.1270392"><ele>298.1666666666667</ele><time>2026-05-01T15:13:13.017Z</time></trkpt><trkpt lat="42.2826674" lon="14.1271259"><ele>300.0</ele><time>2026-05-01T15:13:20.017Z</time></trkpt><trkpt lat="42.2827082" lon="14.1272143"><ele>300.0</ele><time>2026-05-01T15:13:21.017Z</time></trkpt><trkpt lat="42.2827721" lon="14.127331"><ele>300.0</ele><time>2026-05-01T15:13:22.017Z</time></trkpt><trkpt lat="42.2828485" lon="14.127466"><ele>300.0</ele><time>2026-05-01T15:13:23.017Z</time></trkpt><trkpt lat="42.2829352" lon="14.1276171"><ele>300.0</ele><time>2026-05-01T15:13:24.017Z</time></trkpt><trkpt lat="42.2830318" lon="14.1277835"><ele>299.5</ele><time>2026-05-01T15:13:25.017Z</time></trkpt><trkpt lat="42.283128" lon="14.1279519"><ele>299.0</ele><time>2026-05-01T15:13:26.017Z</time></trkpt><trkpt lat="42.2832137" lon="14.1280988"><ele>298.5</ele><time>2026-05-01T15:13:27.017Z</time></trkpt><trkpt lat="42.2833009" lon="14.128245"><ele>298.0</ele><time>2026-05-01T15:13:28.017Z</time></trkpt><trkpt lat="42.283386" lon="14.128383"><ele>299.0</ele><time>2026-05-01T15:13:29.017Z</time></trkpt><trkpt lat="42.2834722" lon="14.128504"><ele>300.0</ele><time>2026-05-01T15:13:30.017Z</time></trkpt><trkpt lat="42.2835634" lon="14.1286007"><ele>301.0</ele><time>2026-05-01T15:13:31.017Z</time></trkpt><trkpt lat="42.2836596" lon="14.1286971"><ele>302.0</ele><time>2026-05-01T15:13:32.017Z</time></trkpt><trkpt lat="42.2837631" lon="14.1286948"><ele>302.0</ele><time>2026-05-01T15:13:33.016Z</time></trkpt><trkpt lat="42.283867" lon="14.1286896"><ele>302.0</ele><time>2026-05-01T15:13:34.017Z</time></trkpt><trkpt lat="42.2839601" lon="14.128706"><ele>302.0</ele><time>2026-05-01T15:13:35.017Z</time></trkpt><trkpt lat="42.284056" lon="14.1287193"><ele>302.0</ele><time>2026-05-01T15:13:36.017Z</time></trkpt><trkpt lat="42.2841549" lon="14.1287482"><ele>302.0</ele><time>2026-05-01T15:13:37.017Z</time></trkpt><trkpt lat="42.2842409" lon="14.1287881"><ele>302.33333333333337</ele><time>2026-05-01T15:13:38.017Z</time></trkpt><trkpt lat="42.2843137" lon="14.1288433"><ele>302.6666666666667</ele><time>2026-05-01T15:13:39.017Z</time></trkpt><trkpt lat="42.2843885" lon="14.1289096"><ele>303.0</ele><time>2026-05-01T15:13:40.017Z</time></trkpt><trkpt lat="42.2844537" lon="14.1289729"><ele>303.3333333333333</ele><time>2026-05-01T15:13:41.016Z</time></trkpt><trkpt lat="42.2845209" lon="14.1290398"><ele>303.66666666666663</ele><time>2026-05-01T15:13:42.017Z</time></trkpt><trkpt lat="42.2845753" lon="14.1290968"><ele>304.0</ele><time>2026-05-01T15:13:43.017Z</time></trkpt><trkpt lat="42.2846733" lon="14.1292009"><ele>303.59999999999997</ele><time>2026-05-01T15:13:45.017Z</time></trkpt><trkpt lat="42.284725" lon="14.1292541"><ele>303.2</ele><time>2026-05-01T15:13:46.017Z</time></trkpt><trkpt lat="42.2847911" lon="14.1293239"><ele>302.79999999999995</ele><time>2026-05-01T15:13:47.017Z</time></trkpt><trkpt lat="42.2848707" lon="14.1294125"><ele>302.4</ele><time>2026-05-01T15:13:48.017Z</time></trkpt><trkpt lat="42.2849524" lon="14.1295119"><ele>302.0</ele><time>2026-05-01T15:13:49.017Z</time></trkpt><trkpt lat="42.2850504" lon="14.1296436"><ele>302.0</ele><time>2026-05-01T15:13:50.017Z</time></trkpt><trkpt lat="42.2851646" lon="14.1298058"><ele>302.0</ele><time>2026-05-01T15:13:51.017Z</time></trkpt><trkpt lat="42.2852911" lon="14.1299807"><ele>302.0</ele><time>2026-05-01T15:13:52.017Z</time></trkpt><trkpt lat="42.2854216" lon="14.1301618"><ele>300.6666666666667</ele><time>2026-05-01T15:13:53.017Z</time></trkpt><trkpt lat="42.2855474" lon="14.1303504"><ele>299.3333333333333</ele><time>2026-05-01T15:13:54.017Z</time></trkpt><trkpt lat="42.2856617" lon="14.1305556"><ele>298.0</ele><time>2026-05-01T15:13:55.016Z</time></trkpt><trkpt lat="42.28577" lon="14.1307837"><ele>298.0</ele><time>2026-05-01T15:13:56.016Z</time></trkpt><trkpt lat="42.2858848" lon="14.1310156"><ele>298.0</ele><time>2026-05-01T15:13:57.017Z</time></trkpt><trkpt lat="42.2860122" lon="14.1312371"><ele>298.0</ele><time>2026-05-01T15:13:58.017Z</time></trkpt><trkpt lat="42.2861441" lon="14.1314351"><ele>299.3333333333333</ele><time>2026-05-01T15:13:59.017Z</time></trkpt><trkpt lat="42.2862706" lon="14.1316247"><ele>300.6666666666667</ele><time>2026-05-01T15:14:00.017Z</time></trkpt><trkpt lat="42.2863835" lon="14.1318128"><ele>302.0</ele><time>2026-05-01T15:14:01.017Z</time></trkpt><trkpt lat="42.2864813" lon="14.1319936"><ele>298.6666666666667</ele><time>2026-05-01T15:14:02.017Z</time></trkpt><trkpt lat="42.2865721" lon="14.1321604"><ele>295.3333333333333</ele><time>2026-05-01T15:14:03.016Z</time></trkpt><trkpt lat="42.2866489" lon="14.1323376"><ele>292.0</ele><time>2026-05-01T15:14:04.017Z</time></trkpt><trkpt lat="42.2867047" lon="14.132536"><ele>292.0</ele><time>2026-05-01T15:14:05.017Z</time></trkpt><trkpt lat="42.2867481" lon="14.13274"><ele>292.0</ele><time>2026-05-01T15:14:06.017Z</time></trkpt><trkpt lat="42.2867842" lon="14.1329234"><ele>292.0</ele><time>2026-05-01T15:14:07.016Z</time></trkpt><trkpt lat="42.2868176" lon="14.1330802"><ele>292.0</ele><time>2026-05-01T15:14:08.017Z</time></trkpt><trkpt lat="42.2868645" lon="14.1332146"><ele>291.25</ele><time>2026-05-01T15:14:09.017Z</time></trkpt><trkpt lat="42.2869446" lon="14.1333175"><ele>290.5</ele><time>2026-05-01T15:14:10.017Z</time></trkpt><trkpt lat="42.2870381" lon="14.1333957"><ele>289.75</ele><time>2026-05-01T15:14:11.017Z</time></trkpt><trkpt lat="42.2872025" lon="14.1334594"><ele>289.0</ele><time>2026-05-01T15:14:12.016Z</time></trkpt><trkpt lat="42.2873739" lon="14.1335255"><ele>289.0</ele><time>2026-05-01T15:14:13.017Z</time></trkpt><trkpt lat="42.2875498" lon="14.1335949"><ele>289.0</ele><time>2026-05-01T15:14:14.017Z</time></trkpt><trkpt lat="42.2877097" lon="14.1336565"><ele>289.0</ele><time>2026-05-01T15:14:15.017Z</time></trkpt><trkpt lat="42.2878564" lon="14.1337361"><ele>289.0</ele><time>2026-05-01T15:14:16.017Z</time></trkpt><trkpt lat="42.2879824" lon="14.1338536"><ele>289.0</ele><time>2026-05-01T15:14:17.017Z</time></trkpt><trkpt lat="42.2880917" lon="14.1340203"><ele>289.0</ele><time>2026-05-01T15:14:18.017Z</time></trkpt><trkpt lat="42.2881956" lon="14.1342174"><ele>292.0</ele><time>2026-05-01T15:14:19.016Z</time></trkpt><trkpt lat="42.2883105" lon="14.1344188"><ele>295.0</ele><time>2026-05-01T15:14:20.017Z</time></trkpt><trkpt lat="42.2884332" lon="14.1345775"><ele>298.0</ele><time>2026-05-01T15:14:21.017Z</time></trkpt><trkpt lat="42.2885807" lon="14.1347131"><ele>298.0</ele><time>2026-05-01T15:14:22.016Z</time></trkpt><trkpt lat="42.2887418" lon="14.1348366"><ele>298.0</ele><time>2026-05-01T15:14:23.017Z</time></trkpt><trkpt lat="42.2888971" lon="14.1349791"><ele>298.0</ele><time>2026-05-01T15:14:24.017Z</time></trkpt><trkpt lat="42.2890276" lon="14.1351072"><ele>302.0</ele><time>2026-05-01T15:14:25.017Z</time></trkpt><trkpt lat="42.2891459" lon="14.13523"><ele>306.0</ele><time>2026-05-01T15:14:26.017Z</time></trkpt><trkpt lat="42.2892756" lon="14.1353627"><ele>310.0</ele><time>2026-05-01T15:14:27.016Z</time></trkpt><trkpt lat="42.2893919" lon="14.135485"><ele>310.0</ele><time>2026-05-01T15:14:28.016Z</time></trkpt><trkpt lat="42.2895035" lon="14.1355899"><ele>310.0</ele><time>2026-05-01T15:14:29.016Z</time></trkpt><trkpt lat="42.2896239" lon="14.1356834"><ele>310.0</ele><time>2026-05-01T15:14:30.017Z</time></trkpt><trkpt lat="42.2897673" lon="14.1357406"><ele>310.0</ele><time>2026-05-01T15:14:31.017Z</time></trkpt><trkpt lat="42.2899014" lon="14.1357756"><ele>310.25</ele><time>2026-05-01T15:14:32.017Z</time></trkpt><trkpt lat="42.2900224" lon="14.1358177"><ele>310.5</ele><time>2026-05-01T15:14:33.017Z</time></trkpt><trkpt lat="42.2901381" lon="14.135852"><ele>310.75</ele><time>2026-05-01T15:14:34.017Z</time></trkpt><trkpt lat="42.2902466" lon="14.1358879"><ele>311.0</ele><time>2026-05-01T15:14:35.017Z</time></trkpt><trkpt lat="42.2903603" lon="14.1359265"><ele>311.0</ele><time>2026-05-01T15:14:36.017Z</time></trkpt><trkpt lat="42.2904704" lon="14.1359686"><ele>311.0</ele><time>2026-05-01T15:14:37.017Z</time></trkpt><trkpt lat="42.290586" lon="14.1360104"><ele>311.0</ele><time>2026-05-01T15:14:38.017Z</time></trkpt><trkpt lat="42.2907036" lon="14.1360502"><ele>311.0</ele><time>2026-05-01T15:14:39.017Z</time></trkpt><trkpt lat="42.2908202" lon="14.1360862"><ele>312.0</ele><time>2026-05-01T15:14:40.016Z</time></trkpt><trkpt lat="42.2909237" lon="14.1361078"><ele>313.0</ele><time>2026-05-01T15:14:41.017Z</time></trkpt><trkpt lat="42.2910037" lon="14.1361188"><ele>314.0</ele><time>2026-05-01T15:14:42.017Z</time></trkpt><trkpt lat="42.2910746" lon="14.1361003"><ele>315.0</ele><time>2026-05-01T15:14:43.017Z</time></trkpt><trkpt lat="42.2911401" lon="14.1360769"><ele>316.0</ele><time>2026-05-01T15:14:44.017Z</time></trkpt><trkpt lat="42.291205" lon="14.1360531"><ele>317.0</ele><time>2026-05-01T15:14:45.017Z</time></trkpt><trkpt lat="42.2912783" lon="14.1360338"><ele>317.0</ele><time>2026-05-01T15:14:46.016Z</time></trkpt><trkpt lat="42.2913429" lon="14.1360238"><ele>317.0</ele><time>2026-05-01T15:14:47.017Z</time></trkpt><trkpt lat="42.291437" lon="14.1359531"><ele>317.0</ele><time>2026-05-01T15:14:49.017Z</time></trkpt><trkpt lat="42.2914418" lon="14.1358212"><ele>317.0</ele><time>2026-05-01T15:14:51.017Z</time></trkpt><trkpt lat="42.2913762" lon="14.1357575"><ele>317.0</ele><time>2026-05-01T15:14:53.017Z</time></trkpt><trkpt lat="42.2913312" lon="14.1356562"><ele>317.0</ele><time>2026-05-01T15:14:56.017Z</time></trkpt><trkpt lat="42.2913044" lon="14.1355244"><ele>317.6666666666667</ele><time>2026-05-01T15:14:58.017Z</time></trkpt><trkpt lat="42.2912885" lon="14.1354311"><ele>318.33333333333337</ele><time>2026-05-01T15:14:59.017Z</time></trkpt><trkpt lat="42.2912687" lon="14.135328"><ele>319.0</ele><time>2026-05-01T15:15:00.017Z</time></trkpt><trkpt lat="42.2912427" lon="14.1352166"><ele>319.6666666666667</ele><time>2026-05-01T15:15:01.016Z</time></trkpt><trkpt lat="42.2912182" lon="14.1350971"><ele>320.3333333333333</ele><time>2026-05-01T15:15:02.017Z</time></trkpt><trkpt lat="42.2911957" lon="14.1349816"><ele>321.0</ele><time>2026-05-01T15:15:03.017Z</time></trkpt><trkpt lat="42.2911767" lon="14.1348713"><ele>320.99999999999994</ele><time>2026-05-01T15:15:04.017Z</time></trkpt><trkpt lat="42.2911591" lon="14.1347771"><ele>321.0</ele><time>2026-05-01T15:15:05.017Z</time></trkpt><trkpt lat="42.2911165" lon="14.134711"><ele>321.0</ele><time>2026-05-01T15:15:06.017Z</time></trkpt><trkpt lat="42.2910718" lon="14.1346379"><ele>321.0</ele><time>2026-05-01T15:15:07.017Z</time></trkpt><trkpt lat="42.291022" lon="14.1345675"><ele>321.0</ele><time>2026-05-01T15:15:08.017Z</time></trkpt><trkpt lat="42.2909751" lon="14.134492"><ele>320.99999999999994</ele><time>2026-05-01T15:15:09.016Z</time></trkpt><trkpt lat="42.2909365" lon="14.1344216"><ele>321.0</ele><time>2026-05-01T15:15:10.017Z</time></trkpt><trkpt lat="42.2908646" lon="14.1342962"><ele>321.0</ele><time>2026-05-01T15:15:12.017Z</time></trkpt><trkpt lat="42.2908068" lon="14.1341777"><ele>321.0</ele><time>2026-05-01T15:15:14.017Z</time></trkpt><trkpt lat="42.2907261" lon="14.1341047"><ele>321.0</ele><time>2026-05-01T15:15:17.017Z</time></trkpt><trkpt lat="42.2906194" lon="14.1340336"><ele>321.0</ele><time>2026-05-01T15:15:19.017Z</time></trkpt><trkpt lat="42.2905466" lon="14.1339887"><ele>321.0</ele><time>2026-05-01T15:15:20.017Z</time></trkpt><trkpt lat="42.2904644" lon="14.1339422"><ele>320.6</ele><time>2026-05-01T15:15:21.017Z</time></trkpt><trkpt lat="42.2903726" lon="14.1338997"><ele>320.20000000000005</ele><time>2026-05-01T15:15:22.017Z</time></trkpt><trkpt lat="42.2902794" lon="14.1338508"><ele>319.79999999999995</ele><time>2026-05-01T15:15:23.017Z</time></trkpt><trkpt lat="42.2901811" lon="14.1337986"><ele>319.4</ele><time>2026-05-01T15:15:24.017Z</time></trkpt><trkpt lat="42.2900909" lon="14.1337302"><ele>319.0</ele><time>2026-05-01T15:15:25.017Z</time></trkpt><trkpt lat="42.2900128" lon="14.133642"><ele>319.0</ele><time>2026-05-01T15:15:26.017Z</time></trkpt><trkpt lat="42.2899503" lon="14.1335385"><ele>319.0</ele><time>2026-05-01T15:15:27.017Z</time></trkpt><trkpt lat="42.289902" lon="14.1334269"><ele>319.0</ele><time>2026-05-01T15:15:28.017Z</time></trkpt><trkpt lat="42.289853" lon="14.1333216"><ele>319.0</ele><time>2026-05-01T15:15:29.017Z</time></trkpt><trkpt lat="42.2898038" lon="14.1332279"><ele>319.0</ele><time>2026-05-01T15:15:30.016Z</time></trkpt><trkpt lat="42.2897538" lon="14.1331536"><ele>319.0</ele><time>2026-05-01T15:15:31.017Z</time></trkpt><trkpt lat="42.2897047" lon="14.1330938"><ele>318.16666666666663</ele><time>2026-05-01T15:15:32.017Z</time></trkpt><trkpt lat="42.2896308" lon="14.1329961"><ele>317.3333333333333</ele><time>2026-05-01T15:15:34.017Z</time></trkpt><trkpt lat="42.2896012" lon="14.1328398"><ele>316.5</ele><time>2026-05-01T15:15:36.016Z</time></trkpt><trkpt lat="42.2896117" lon="14.1327447"><ele>315.6666666666667</ele><time>2026-05-01T15:15:37.017Z</time></trkpt><trkpt lat="42.2896266" lon="14.1326456"><ele>314.83333333333337</ele><time>2026-05-01T15:15:38.016Z</time></trkpt><trkpt lat="42.2896401" lon="14.1325513"><ele>314.0</ele><time>2026-05-01T15:15:39.017Z</time></trkpt><trkpt lat="42.2896551" lon="14.1324651"><ele>313.1666666666667</ele><time>2026-05-01T15:15:40.016Z</time></trkpt><trkpt lat="42.2896686" lon="14.1323798"><ele>312.33333333333337</ele><time>2026-05-01T15:15:41.017Z</time></trkpt><trkpt lat="42.2897019" lon="14.1322197"><ele>311.5</ele><time>2026-05-01T15:15:43.017Z</time></trkpt><trkpt lat="42.2897225" lon="14.1321378"><ele>310.6666666666667</ele><time>2026-05-01T15:15:44.017Z</time></trkpt><trkpt lat="42.2897438" lon="14.1320564"><ele>309.8333333333333</ele><time>2026-05-01T15:15:45.017Z</time></trkpt><trkpt lat="42.2897937" lon="14.13193"><ele>309.0</ele><time>2026-05-01T15:15:47.017Z</time></trkpt><trkpt lat="42.2898275" lon="14.1318455"><ele>309.00000000000006</ele><time>2026-05-01T15:15:49.017Z</time></trkpt><trkpt lat="42.2898648" lon="14.1317567"><ele>309.0</ele><time>2026-05-01T15:15:51.016Z</time></trkpt><trkpt lat="42.2899114" lon="14.1316653"><ele>309.0</ele><time>2026-05-01T15:15:53.017Z</time></trkpt><trkpt lat="42.2899538" lon="14.1315877"><ele>309.0</ele><time>2026-05-01T15:15:55.017Z</time></trkpt><trkpt lat="42.2899956" lon="14.131508"><ele>309.0</ele><time>2026-05-01T15:15:58.017Z</time></trkpt><trkpt lat="42.2900425" lon="14.1314275"><ele>309.00000000000006</ele><time>2026-05-01T15:16:02.017Z</time></trkpt><trkpt lat="42.2900736" lon="14.13135"><ele>309.0</ele><time>2026-05-01T15:16:06.017Z</time></trkpt><trkpt lat="42.2901097" lon="14.1312575"><ele>306.3333333333333</ele><time>2026-05-01T15:16:10.017Z</time></trkpt><trkpt lat="42.2901354" lon="14.1311789"><ele>303.6666666666667</ele><time>2026-05-01T15:16:13.017Z</time></trkpt><trkpt lat="42.2901669" lon="14.1310733"><ele>301.0</ele><time>2026-05-01T15:16:17.017Z</time></trkpt><trkpt lat="42.2901937" lon="14.1309789"><ele>298.33333333333337</ele><time>2026-05-01T15:16:20.017Z</time></trkpt><trkpt lat="42.2902222" lon="14.1308618"><ele>295.6666666666667</ele><time>2026-05-01T15:16:23.017Z</time></trkpt><trkpt lat="42.2902428" lon="14.1307614"><ele>293.0</ele><time>2026-05-01T15:16:25.017Z</time></trkpt><trkpt lat="42.290267" lon="14.130654"><ele>289.8</ele><time>2026-05-01T15:16:27.016Z</time></trkpt><trkpt lat="42.2902948" lon="14.1305447"><ele>286.6</ele><time>2026-05-01T15:16:29.017Z</time></trkpt><trkpt lat="42.2903244" lon="14.1304395"><ele>283.4</ele><time>2026-05-01T15:16:31.017Z</time></trkpt><trkpt lat="42.2903467" lon="14.1303238"><ele>280.2</ele><time>2026-05-01T15:16:33.017Z</time></trkpt><trkpt lat="42.2903683" lon="14.1301954"><ele>277.0</ele><time>2026-05-01T15:16:35.017Z</time></trkpt><trkpt lat="42.2903752" lon="14.1300338"><ele>277.0</ele><time>2026-05-01T15:16:37.017Z</time></trkpt><trkpt lat="42.2903763" lon="14.129946"><ele>277.0</ele><time>2026-05-01T15:16:38.017Z</time></trkpt><trkpt lat="42.2903722" lon="14.1298568"><ele>277.0</ele><time>2026-05-01T15:16:39.017Z</time></trkpt><trkpt lat="42.2903659" lon="14.1297688"><ele>277.0</ele><time>2026-05-01T15:16:40.017Z</time></trkpt><trkpt lat="42.2903558" lon="14.1296181"><ele>277.0</ele><time>2026-05-01T15:16:42.017Z</time></trkpt><trkpt lat="42.2903407" lon="14.1294658"><ele>277.0</ele><time>2026-05-01T15:16:44.017Z</time></trkpt><trkpt lat="42.2903345" lon="14.1293116"><ele>275.4</ele><time>2026-05-01T15:16:46.017Z</time></trkpt><trkpt lat="42.2903389" lon="14.1291508"><ele>273.79999999999995</ele><time>2026-05-01T15:16:48.017Z</time></trkpt><trkpt lat="42.2903471" lon="14.1290643"><ele>272.2</ele><time>2026-05-01T15:16:49.017Z</time></trkpt><trkpt lat="42.2903557" lon="14.1289119"><ele>270.59999999999997</ele><time>2026-05-01T15:16:51.017Z</time></trkpt><trkpt lat="42.2903776" lon="14.1287709"><ele>269.0</ele><time>2026-05-01T15:16:53.017Z</time></trkpt><trkpt lat="42.2903953" lon="14.1286218"><ele>265.6666666666667</ele><time>2026-05-01T15:16:55.016Z</time></trkpt><trkpt lat="42.2904171" lon="14.1284517"><ele>262.33333333333337</ele><time>2026-05-01T15:16:57.017Z</time></trkpt><trkpt lat="42.2904365" lon="14.1282994"><ele>259.0</ele><time>2026-05-01T15:16:59.017Z</time></trkpt><trkpt lat="42.2904439" lon="14.1282096"><ele>255.66666666666669</ele><time>2026-05-01T15:17:00.017Z</time></trkpt><trkpt lat="42.2904562" lon="14.1281244"><ele>252.33333333333334</ele><time>2026-05-01T15:17:01.017Z</time></trkpt><trkpt lat="42.2904681" lon="14.128039"><ele>249.0</ele><time>2026-05-01T15:17:02.017Z</time></trkpt><trkpt lat="42.2904886" lon="14.1278818"><ele>243.75</ele><time>2026-05-01T15:17:04.017Z</time></trkpt><trkpt lat="42.2905066" lon="14.1277327"><ele>238.5</ele><time>2026-05-01T15:17:06.017Z</time></trkpt><trkpt lat="42.29053" lon="14.1275669"><ele>233.25</ele><time>2026-05-01T15:17:08.017Z</time></trkpt><trkpt lat="42.2905555" lon="14.1274093"><ele>228.0</ele><time>2026-05-01T15:17:10.017Z</time></trkpt><trkpt lat="42.2905785" lon="14.1272602"><ele>227.33333333333334</ele><time>2026-05-01T15:17:12.016Z</time></trkpt><trkpt lat="42.2905914" lon="14.127176"><ele>226.66666666666669</ele><time>2026-05-01T15:17:13.017Z</time></trkpt><trkpt lat="42.2906045" lon="14.1270874"><ele>226.0</ele><time>2026-05-01T15:17:14.017Z</time></trkpt><trkpt lat="42.2906163" lon="14.1270007"><ele>225.33333333333334</ele><time>2026-05-01T15:17:15.017Z</time></trkpt><trkpt lat="42.2906297" lon="14.1268429"><ele>224.66666666666669</ele><time>2026-05-01T15:17:17.016Z</time></trkpt><trkpt lat="42.290629" lon="14.1266841"><ele>224.0</ele><time>2026-05-01T15:17:19.017Z</time></trkpt><trkpt lat="42.2906171" lon="14.1265368"><ele>222.50000000000003</ele><time>2026-05-01T15:17:21.017Z</time></trkpt><trkpt lat="42.2905948" lon="14.126381"><ele>221.0</ele><time>2026-05-01T15:17:23.017Z</time></trkpt><trkpt lat="42.2905807" lon="14.1262969"><ele>219.5</ele><time>2026-05-01T15:17:24.017Z</time></trkpt><trkpt lat="42.2905546" lon="14.1261379"><ele>218.0</ele><time>2026-05-01T15:17:26.017Z</time></trkpt><trkpt lat="42.2905456" lon="14.1260525"><ele>216.50000000000003</ele><time>2026-05-01T15:17:27.017Z</time></trkpt><trkpt lat="42.2905449" lon="14.1259645"><ele>215.0</ele><time>2026-05-01T15:17:28.017Z</time></trkpt><trkpt lat="42.2905318" lon="14.125803"><ele>211.8</ele><time>2026-05-01T15:17:30.017Z</time></trkpt><trkpt lat="42.2905186" lon="14.1256516"><ele>208.6</ele><time>2026-05-01T15:17:32.016Z</time></trkpt><trkpt lat="42.2905004" lon="14.1255233"><ele>205.39999999999998</ele><time>2026-05-01T15:17:34.017Z</time></trkpt><trkpt lat="42.2904917" lon="14.1253936"><ele>202.2</ele><time>2026-05-01T15:17:36.016Z</time></trkpt><trkpt lat="42.2904939" lon="14.1252724"><ele>199.0</ele><time>2026-05-01T15:17:38.017Z</time></trkpt><trkpt lat="42.2904959" lon="14.125145"><ele>198.99999999999997</ele><time>2026-05-01T15:17:40.017Z</time></trkpt><trkpt lat="42.2905081" lon="14.1250005"><ele>199.0</ele><time>2026-05-01T15:17:43.017Z</time></trkpt><trkpt lat="42.2905295" lon="14.1249201"><ele>199.0</ele><time>2026-05-01T15:17:45.016Z</time></trkpt><trkpt lat="42.2905738" lon="14.1248328"><ele>199.0</ele><time>2026-05-01T15:17:48.017Z</time></trkpt><trkpt lat="42.290608" lon="14.1247572"><ele>198.99999999999997</ele><time>2026-05-01T15:17:51.017Z</time></trkpt><trkpt lat="42.2906491" lon="14.1246723"><ele>199.0</ele><time>2026-05-01T15:17:54.017Z</time></trkpt><trkpt lat="42.2906953" lon="14.1245738"><ele>198.16666666666666</ele><time>2026-05-01T15:17:57.017Z</time></trkpt><trkpt lat="42.2907335" lon="14.1244908"><ele>197.33333333333331</ele><time>2026-05-01T15:18:00.016Z</time></trkpt><trkpt lat="42.2907858" lon="14.1243936"><ele>196.5</ele><time>2026-05-01T15:18:03.017Z</time></trkpt><trkpt lat="42.2908203" lon="14.1243223"><ele>195.66666666666669</ele><time>2026-05-01T15:18:05.017Z</time></trkpt><trkpt lat="42.2908495" lon="14.1242349"><ele>194.83333333333334</ele><time>2026-05-01T15:18:07.017Z</time></trkpt><trkpt lat="42.2908761" lon="14.1241457"><ele>194.0</ele><time>2026-05-01T15:18:09.017Z</time></trkpt><trkpt lat="42.2909144" lon="14.1240267"><ele>190.39999999999998</ele><time>2026-05-01T15:18:12.016Z</time></trkpt><trkpt lat="42.2909353" lon="14.1239193"><ele>186.8</ele><time>2026-05-01T15:18:14.017Z</time></trkpt><trkpt lat="42.2909687" lon="14.1237968"><ele>183.2</ele><time>2026-05-01T15:18:16.017Z</time></trkpt><trkpt lat="42.2909836" lon="14.1236873"><ele>179.60000000000002</ele><time>2026-05-01T15:18:18.017Z</time></trkpt><trkpt lat="42.2909787" lon="14.1235651"><ele>176.0</ele><time>2026-05-01T15:18:20.017Z</time></trkpt><trkpt lat="42.2909421" lon="14.1234274"><ele>176.0</ele><time>2026-05-01T15:18:22.017Z</time></trkpt><trkpt lat="42.2908883" lon="14.1232894"><ele>176.0</ele><time>2026-05-01T15:18:24.017Z</time></trkpt><trkpt lat="42.2908432" lon="14.1231528"><ele>176.0</ele><time>2026-05-01T15:18:26.017Z</time></trkpt><trkpt lat="42.2908075" lon="14.1230428"><ele>176.0</ele><time>2026-05-01T15:18:28.017Z</time></trkpt><trkpt lat="42.2907724" lon="14.1229369"><ele>176.0</ele><time>2026-05-01T15:18:30.017Z</time></trkpt><trkpt lat="42.2907422" lon="14.1228444"><ele>173.5</ele><time>2026-05-01T15:18:32.017Z</time></trkpt><trkpt lat="42.2907121" lon="14.1227612"><ele>171.0</ele><time>2026-05-01T15:18:34.017Z</time></trkpt><trkpt lat="42.2906817" lon="14.1226751"><ele>168.5</ele><time>2026-05-01T15:18:36.017Z</time></trkpt><trkpt lat="42.2906595" lon="14.1225814"><ele>166.0</ele><time>2026-05-01T15:18:38.016Z</time></trkpt><trkpt lat="42.2907053" lon="14.1224715"><ele>163.5</ele><time>2026-05-01T15:18:41.016Z</time></trkpt><trkpt lat="42.2907654" lon="14.1224094"><ele>161.0</ele><time>2026-05-01T15:18:43.017Z</time></trkpt><trkpt lat="42.2908266" lon="14.1223443"><ele>161.0</ele><time>2026-05-01T15:18:45.017Z</time></trkpt><trkpt lat="42.290888" lon="14.1223054"><ele>161.0</ele><time>2026-05-01T15:18:47.017Z</time></trkpt><trkpt lat="42.290954" lon="14.1222733"><ele>161.0</ele><time>2026-05-01T15:18:49.017Z</time></trkpt><trkpt lat="42.2910003" lon="14.12219"><ele>161.0</ele><time>2026-05-01T15:18:52.017Z</time></trkpt><trkpt lat="42.2909884" lon="14.1220773"><ele>161.0</ele><time>2026-05-01T15:18:54.017Z</time></trkpt><trkpt lat="42.2909809" lon="14.1219345"><ele>161.0</ele><time>2026-05-01T15:18:56.017Z</time></trkpt><trkpt lat="42.2910152" lon="14.1218098"><ele>161.0</ele><time>2026-05-01T15:18:58.016Z</time></trkpt><trkpt lat="42.2910892" lon="14.1216617"><ele>161.0</ele><time>2026-05-01T15:19:00.017Z</time></trkpt><trkpt lat="42.2911371" lon="14.1215672"><ele>161.0</ele><time>2026-05-01T15:19:01.017Z</time></trkpt><trkpt lat="42.2911856" lon="14.1214677"><ele>161.0</ele><time>2026-05-01T15:19:02.017Z</time></trkpt><trkpt lat="42.2912324" lon="14.1213636"><ele>161.0</ele><time>2026-05-01T15:19:03.017Z</time></trkpt><trkpt lat="42.291282" lon="14.1212689"><ele>162.66666666666666</ele><time>2026-05-01T15:19:04.017Z</time></trkpt><trkpt lat="42.291327" lon="14.1211693"><ele>164.33333333333331</ele><time>2026-05-01T15:19:05.016Z</time></trkpt><trkpt lat="42.291364" lon="14.1210819"><ele>166.0</ele><time>2026-05-01T15:19:06.017Z</time></trkpt><trkpt lat="42.2914017" lon="14.1209981"><ele>167.66666666666666</ele><time>2026-05-01T15:19:07.017Z</time></trkpt><trkpt lat="42.2914383" lon="14.1209178"><ele>169.33333333333334</ele><time>2026-05-01T15:19:08.017Z</time></trkpt><trkpt lat="42.2914784" lon="14.1208324"><ele>171.0</ele><time>2026-05-01T15:19:09.017Z</time></trkpt><trkpt lat="42.2915192" lon="14.1207501"><ele>175.33333333333334</ele><time>2026-05-01T15:19:10.016Z</time></trkpt><trkpt lat="42.2915646" lon="14.1206572"><ele>179.66666666666669</ele><time>2026-05-01T15:19:11.017Z</time></trkpt><trkpt lat="42.2916092" lon="14.1205666"><ele>184.0</ele><time>2026-05-01T15:19:12.017Z</time></trkpt><trkpt lat="42.2916456" lon="14.1204895"><ele>188.33333333333334</ele><time>2026-05-01T15:19:13.017Z</time></trkpt><trkpt lat="42.29171" lon="14.1203686"><ele>192.66666666666669</ele><time>2026-05-01T15:19:15.017Z</time></trkpt><trkpt lat="42.2917567" lon="14.1202879"><ele>197.0</ele><time>2026-05-01T15:19:17.017Z</time></trkpt><trkpt lat="42.2917989" lon="14.1202065"><ele>197.0</ele><time>2026-05-01T15:22:16.02Z</time></trkpt><trkpt lat="42.2918046" lon="14.1201132"><ele>197.0</ele><time>2026-05-01T15:22:19.02Z</time></trkpt><trkpt lat="42.2918028" lon="14.1199916"><ele>197.0</ele><time>2026-05-01T15:22:21.02Z</time></trkpt><trkpt lat="42.2917943" lon="14.1198523"><ele>197.0</ele><time>2026-05-01T15:22:23.02Z</time></trkpt><trkpt lat="42.2917749" lon="14.1197016"><ele>197.0</ele><time>2026-05-01T15:22:25.02Z</time></trkpt><trkpt lat="42.291741" lon="14.1195604"><ele>200.00000000000003</ele><time>2026-05-01T15:22:27.02Z</time></trkpt><trkpt lat="42.2917241" lon="14.1194681"><ele>203.0</ele><time>2026-05-01T15:22:30.02Z</time></trkpt><trkpt lat="42.2918012" lon="14.1194641"><ele>206.0</ele><time>2026-05-01T15:22:40.02Z</time></trkpt><trkpt lat="42.291873" lon="14.1195162"><ele>209.0</ele><time>2026-05-01T15:22:42.02Z</time></trkpt><trkpt lat="42.2919673" lon="14.119521"><ele>212.00000000000003</ele><time>2026-05-01T15:22:44.02Z</time></trkpt><trkpt lat="42.2920698" lon="14.1194911"><ele>215.0</ele><time>2026-05-01T15:22:46.02Z</time></trkpt><trkpt lat="42.2921844" lon="14.1194293"><ele>215.0</ele><time>2026-05-01T15:22:48.02Z</time></trkpt><trkpt lat="42.2922412" lon="14.1193889"><ele>215.0</ele><time>2026-05-01T15:22:49.02Z</time></trkpt><trkpt lat="42.2922987" lon="14.1193508"><ele>215.0</ele><time>2026-05-01T15:22:50.02Z</time></trkpt><trkpt lat="42.2923991" lon="14.119281"><ele>215.0</ele><time>2026-05-01T15:22:52.019Z</time></trkpt><trkpt lat="42.292495" lon="14.1192156"><ele>215.0</ele><time>2026-05-01T15:22:54.02Z</time></trkpt><trkpt lat="42.2925783" lon="14.1191367"><ele>221.4</ele><time>2026-05-01T15:22:56.02Z</time></trkpt><trkpt lat="42.2926584" lon="14.1190426"><ele>227.8</ele><time>2026-05-01T15:22:58.02Z</time></trkpt><trkpt lat="42.2927339" lon="14.118951"><ele>234.2</ele><time>2026-05-01T15:23:00.02Z</time></trkpt><trkpt lat="42.2928116" lon="14.1188692"><ele>240.6</ele><time>2026-05-01T15:23:02.02Z</time></trkpt><trkpt lat="42.2928767" lon="14.1188092"><ele>247.0</ele><time>2026-05-01T15:23:04.019Z</time></trkpt><trkpt lat="42.292929" lon="14.1187446"><ele>246.99999999999997</ele><time>2026-05-01T15:23:07.02Z</time></trkpt><trkpt lat="42.2929981" lon="14.1186841"><ele>247.0</ele><time>2026-05-01T15:26:15.015Z</time></trkpt><trkpt lat="42.2930452" lon="14.1185957"><ele>247.0</ele><time>2026-05-01T15:26:18.015Z</time></trkpt><trkpt lat="42.293029" lon="14.1185064"><ele>247.0</ele><time>2026-05-01T15:26:20.015Z</time></trkpt><trkpt lat="42.2930098" lon="14.1183695"><ele>246.99999999999997</ele><time>2026-05-01T15:26:22.015Z</time></trkpt><trkpt lat="42.2929877" lon="14.1182517"><ele>247.0</ele><time>2026-05-01T15:26:24.015Z</time></trkpt><trkpt lat="42.2929782" lon="14.1181641"><ele>246.16666666666666</ele><time>2026-05-01T15:26:28.015Z</time></trkpt><trkpt lat="42.2929133" lon="14.1181475"><ele>245.33333333333331</ele><time>2026-05-01T15:26:46.015Z</time></trkpt><trkpt lat="42.2929707" lon="14.118192"><ele>244.5</ele><time>2026-05-01T15:27:54.015Z</time></trkpt><trkpt lat="42.2929304" lon="14.1181226"><ele>243.66666666666669</ele><time>2026-05-01T15:28:04.015Z</time></trkpt><trkpt lat="42.2928424" lon="14.1180957"><ele>242.83333333333334</ele><time>2026-05-01T15:28:47.015Z</time></trkpt><trkpt lat="42.2927306" lon="14.1180464"><ele>242.0</ele><time>2026-05-01T15:28:49.015Z</time></trkpt><trkpt lat="42.2926655" lon="14.1180333"><ele>242.0</ele><time>2026-05-01T15:28:50.015Z</time></trkpt><trkpt lat="42.292601" lon="14.1180103"><ele>241.99999999999997</ele><time>2026-05-01T15:28:51.014Z</time></trkpt><trkpt lat="42.2925378" lon="14.1179827"><ele>242.0</ele><time>2026-05-01T15:28:52.015Z</time></trkpt><trkpt lat="42.2924769" lon="14.1179426"><ele>242.0</ele><time>2026-05-01T15:28:53.015Z</time></trkpt><trkpt lat="42.2924198" lon="14.1178928"><ele>241.99999999999997</ele><time>2026-05-01T15:28:54.015Z</time></trkpt><trkpt lat="42.2923775" lon="14.1178297"><ele>242.0</ele><time>2026-05-01T15:28:55.015Z</time></trkpt><trkpt lat="42.2923568" lon="14.1177462"><ele>242.0</ele><time>2026-05-01T15:28:56.015Z</time></trkpt><trkpt lat="42.2923981" lon="14.1175937"><ele>242.0</ele><time>2026-05-01T15:28:58.015Z</time></trkpt><trkpt lat="42.292456" lon="14.117547"><ele>241.99999999999997</ele><time>2026-05-01T15:28:59.014Z</time></trkpt><trkpt lat="42.2925185" lon="14.1175328"><ele>242.0</ele><time>2026-05-01T15:29:00.015Z</time></trkpt><trkpt lat="42.2925801" lon="14.1175552"><ele>242.0</ele><time>2026-05-01T15:29:01.015Z</time></trkpt><trkpt lat="42.2926398" lon="14.1175943"><ele>241.99999999999997</ele><time>2026-05-01T15:29:02.015Z</time></trkpt><trkpt lat="42.2926985" lon="14.1176344"><ele>242.0</ele><time>2026-05-01T15:29:03.015Z</time></trkpt><trkpt lat="42.2927566" lon="14.1176811"><ele>242.0</ele><time>2026-05-01T15:29:04.015Z</time></trkpt><trkpt lat="42.2928716" lon="14.1177594"><ele>242.00000000000003</ele><time>2026-05-01T15:29:06.015Z</time></trkpt><trkpt lat="42.2929343" lon="14.1177987"><ele>242.0</ele><time>2026-05-01T15:29:07.015Z</time></trkpt><trkpt lat="42.2929984" lon="14.1178149"><ele>242.0</ele><time>2026-05-01T15:29:08.015Z</time></trkpt><trkpt lat="42.2930628" lon="14.1178227"><ele>242.0</ele><time>2026-05-01T15:29:09.015Z</time></trkpt><trkpt lat="42.2931399" lon="14.1177193"><ele>242.00000000000003</ele><time>2026-05-01T15:29:11.015Z</time></trkpt><trkpt lat="42.29311" lon="14.1175722"><ele>242.0</ele><time>2026-05-01T15:29:13.015Z</time></trkpt><trkpt lat="42.2930431" lon="14.117502"><ele>242.0</ele><time>2026-05-01T15:29:14.015Z</time></trkpt><trkpt lat="42.2929608" lon="14.1174227"><ele>242.0</ele><time>2026-05-01T15:29:15.015Z</time></trkpt><trkpt lat="42.292881" lon="14.1173163"><ele>242.0</ele><time>2026-05-01T15:29:16.015Z</time></trkpt><trkpt lat="42.2927961" lon="14.1172091"><ele>242.0</ele><time>2026-05-01T15:29:17.015Z</time></trkpt><trkpt lat="42.2927239" lon="14.1170767"><ele>238.75</ele><time>2026-05-01T15:29:18.015Z</time></trkpt><trkpt lat="42.2926511" lon="14.1169449"><ele>235.5</ele><time>2026-05-01T15:29:19.015Z</time></trkpt><trkpt lat="42.292579" lon="14.1168004"><ele>232.25</ele><time>2026-05-01T15:29:20.015Z</time></trkpt><trkpt lat="42.2925063" lon="14.116669"><ele>229.0</ele><time>2026-05-01T15:29:21.015Z</time></trkpt><trkpt lat="42.2924328" lon="14.1165386"><ele>225.5</ele><time>2026-05-01T15:29:22.015Z</time></trkpt><trkpt lat="42.2923459" lon="14.1164042"><ele>222.0</ele><time>2026-05-01T15:29:23.015Z</time></trkpt><trkpt lat="42.2922516" lon="14.1162722"><ele>218.5</ele><time>2026-05-01T15:29:24.015Z</time></trkpt><trkpt lat="42.2921495" lon="14.1161396"><ele>215.0</ele><time>2026-05-01T15:29:25.015Z</time></trkpt><trkpt lat="42.2920391" lon="14.1160114"><ele>215.0</ele><time>2026-05-01T15:29:26.015Z</time></trkpt><trkpt lat="42.2919266" lon="14.1158776"><ele>215.0</ele><time>2026-05-01T15:29:27.014Z</time></trkpt><trkpt lat="42.2918299" lon="14.1157423"><ele>215.0</ele><time>2026-05-01T15:29:28.015Z</time></trkpt><trkpt lat="42.2917335" lon="14.1155988"><ele>215.0</ele><time>2026-05-01T15:29:29.015Z</time></trkpt><trkpt lat="42.2916432" lon="14.115464"><ele>214.25</ele><time>2026-05-01T15:29:30.015Z</time></trkpt><trkpt lat="42.2915549" lon="14.1153278"><ele>213.5</ele><time>2026-05-01T15:29:31.015Z</time></trkpt><trkpt lat="42.2914688" lon="14.1151822"><ele>212.75</ele><time>2026-05-01T15:29:32.015Z</time></trkpt><trkpt lat="42.2913841" lon="14.1150306"><ele>212.0</ele><time>2026-05-01T15:29:33.015Z</time></trkpt><trkpt lat="42.2913035" lon="14.1148751"><ele>213.5</ele><time>2026-05-01T15:29:34.014Z</time></trkpt><trkpt lat="42.2912277" lon="14.1147106"><ele>215.0</ele><time>2026-05-01T15:29:35.015Z</time></trkpt><trkpt lat="42.2911462" lon="14.1145409"><ele>216.5</ele><time>2026-05-01T15:29:36.014Z</time></trkpt><trkpt lat="42.2910698" lon="14.1143606"><ele>218.0</ele><time>2026-05-01T15:29:37.014Z</time></trkpt><trkpt lat="42.2909862" lon="14.114181"><ele>216.66666666666669</ele><time>2026-05-01T15:29:38.015Z</time></trkpt><trkpt lat="42.2909007" lon="14.113997"><ele>215.33333333333331</ele><time>2026-05-01T15:29:39.014Z</time></trkpt><trkpt lat="42.2908192" lon="14.1138098"><ele>214.0</ele><time>2026-05-01T15:29:40.015Z</time></trkpt><trkpt lat="42.2907421" lon="14.1136326"><ele>214.0</ele><time>2026-05-01T15:29:41.015Z</time></trkpt><trkpt lat="42.2906705" lon="14.1134627"><ele>214.0</ele><time>2026-05-01T15:29:42.015Z</time></trkpt><trkpt lat="42.2906006" lon="14.1132968"><ele>214.0</ele><time>2026-05-01T15:29:43.015Z</time></trkpt><trkpt lat="42.2905355" lon="14.1131244"><ele>214.0</ele><time>2026-05-01T15:29:44.015Z</time></trkpt><trkpt lat="42.2904836" lon="14.1129405"><ele>215.66666666666666</ele><time>2026-05-01T15:29:45.015Z</time></trkpt><trkpt lat="42.290433" lon="14.1127527"><ele>217.33333333333331</ele><time>2026-05-01T15:29:46.014Z</time></trkpt><trkpt lat="42.2903876" lon="14.1125558"><ele>219.0</ele><time>2026-05-01T15:29:47.014Z</time></trkpt><trkpt lat="42.2903404" lon="14.112355"><ele>219.0</ele><time>2026-05-01T15:29:48.015Z</time></trkpt><trkpt lat="42.2902932" lon="14.1121539"><ele>219.0</ele><time>2026-05-01T15:29:49.014Z</time></trkpt><trkpt lat="42.2902507" lon="14.111952"><ele>219.0</ele><time>2026-05-01T15:29:50.015Z</time></trkpt><trkpt lat="42.2902112" lon="14.1117578"><ele>219.0</ele><time>2026-05-01T15:29:51.015Z</time></trkpt><trkpt lat="42.2901773" lon="14.111576"><ele>219.0</ele><time>2026-05-01T15:29:52.015Z</time></trkpt><trkpt lat="42.290153" lon="14.1113988"><ele>219.0</ele><time>2026-05-01T15:29:53.014Z</time></trkpt><trkpt lat="42.2901496" lon="14.1112311"><ele>219.0</ele><time>2026-05-01T15:29:54.015Z</time></trkpt><trkpt lat="42.2901609" lon="14.1110681"><ele>217.25</ele><time>2026-05-01T15:29:55.015Z</time></trkpt><trkpt lat="42.2901928" lon="14.1109076"><ele>215.5</ele><time>2026-05-01T15:29:56.015Z</time></trkpt><trkpt lat="42.290239" lon="14.1107492"><ele>213.75</ele><time>2026-05-01T15:29:57.015Z</time></trkpt><trkpt lat="42.290287" lon="14.1105998"><ele>212.0</ele><time>2026-05-01T15:29:58.014Z</time></trkpt><trkpt lat="42.290347" lon="14.1104695"><ele>212.5</ele><time>2026-05-01T15:29:59.015Z</time></trkpt><trkpt lat="42.2904216" lon="14.1103516"><ele>213.0</ele><time>2026-05-01T15:30:00.015Z</time></trkpt><trkpt lat="42.2905229" lon="14.110257"><ele>213.5</ele><time>2026-05-01T15:30:01.014Z</time></trkpt><trkpt lat="42.2906328" lon="14.110162"><ele>214.0</ele><time>2026-05-01T15:30:02.015Z</time></trkpt><trkpt lat="42.290749" lon="14.1100606"><ele>214.0</ele><time>2026-05-01T15:30:03.015Z</time></trkpt><trkpt lat="42.2908727" lon="14.1099395"><ele>214.0</ele><time>2026-05-01T15:30:04.015Z</time></trkpt><trkpt lat="42.2909941" lon="14.1098092"><ele>214.0</ele><time>2026-05-01T15:30:05.015Z</time></trkpt><trkpt lat="42.2911114" lon="14.1096723"><ele>211.66666666666666</ele><time>2026-05-01T15:30:06.015Z</time></trkpt><trkpt lat="42.2912275" lon="14.1095339"><ele>209.33333333333331</ele><time>2026-05-01T15:30:07.014Z</time></trkpt><trkpt lat="42.2913426" lon="14.1094052"><ele>207.0</ele><time>2026-05-01T15:30:08.015Z</time></trkpt><trkpt lat="42.2914734" lon="14.1092933"><ele>211.25</ele><time>2026-05-01T15:30:09.014Z</time></trkpt><trkpt lat="42.2916183" lon="14.1091961"><ele>215.5</ele><time>2026-05-01T15:30:10.015Z</time></trkpt><trkpt lat="42.2917512" lon="14.1091213"><ele>219.75</ele><time>2026-05-01T15:30:11.015Z</time></trkpt><trkpt lat="42.2918748" lon="14.1090414"><ele>224.0</ele><time>2026-05-01T15:30:12.015Z</time></trkpt><trkpt lat="42.2919817" lon="14.1089592"><ele>223.5</ele><time>2026-05-01T15:30:13.015Z</time></trkpt><trkpt lat="42.2920877" lon="14.1088526"><ele>223.0</ele><time>2026-05-01T15:30:14.015Z</time></trkpt><trkpt lat="42.29218" lon="14.1087331"><ele>222.5</ele><time>2026-05-01T15:30:15.014Z</time></trkpt><trkpt lat="42.2922737" lon="14.1086103"><ele>222.0</ele><time>2026-05-01T15:30:16.015Z</time></trkpt><trkpt lat="42.2923616" lon="14.1084677"><ele>222.0</ele><time>2026-05-01T15:30:17.014Z</time></trkpt><trkpt lat="42.2924424" lon="14.1083036"><ele>222.0</ele><time>2026-05-01T15:30:18.014Z</time></trkpt><trkpt lat="42.2925223" lon="14.1081277"><ele>222.0</ele><time>2026-05-01T15:30:19.015Z</time></trkpt><trkpt lat="42.2926011" lon="14.1079385"><ele>223.66666666666669</ele><time>2026-05-01T15:30:20.014Z</time></trkpt><trkpt lat="42.2926792" lon="14.1077401"><ele>225.33333333333334</ele><time>2026-05-01T15:30:21.015Z</time></trkpt><trkpt lat="42.2927541" lon="14.1075361"><ele>227.0</ele><time>2026-05-01T15:30:22.015Z</time></trkpt><trkpt lat="42.2928342" lon="14.1073268"><ele>228.0</ele><time>2026-05-01T15:30:23.015Z</time></trkpt><trkpt lat="42.2929114" lon="14.1071274"><ele>229.0</ele><time>2026-05-01T15:30:24.015Z</time></trkpt><trkpt lat="42.2929839" lon="14.1069314"><ele>230.0</ele><time>2026-05-01T15:30:25.015Z</time></trkpt><trkpt lat="42.2930517" lon="14.1067439"><ele>225.66666666666669</ele><time>2026-05-01T15:30:26.014Z</time></trkpt><trkpt lat="42.2931214" lon="14.1065554"><ele>221.33333333333331</ele><time>2026-05-01T15:30:27.015Z</time></trkpt><trkpt lat="42.2931936" lon="14.1063696"><ele>217.0</ele><time>2026-05-01T15:30:28.015Z</time></trkpt><trkpt lat="42.2932746" lon="14.1061886"><ele>217.0</ele><time>2026-05-01T15:30:29.015Z</time></trkpt><trkpt lat="42.293368" lon="14.1060183"><ele>217.0</ele><time>2026-05-01T15:30:30.015Z</time></trkpt><trkpt lat="42.2934665" lon="14.1058585"><ele>217.0</ele><time>2026-05-01T15:30:31.015Z</time></trkpt><trkpt lat="42.2935643" lon="14.105718"><ele>217.75</ele><time>2026-05-01T15:30:32.015Z</time></trkpt><trkpt lat="42.2936572" lon="14.1055904"><ele>218.5</ele><time>2026-05-01T15:30:33.014Z</time></trkpt><trkpt lat="42.2937516" lon="14.1054574"><ele>219.25</ele><time>2026-05-01T15:30:34.015Z</time></trkpt><trkpt lat="42.2938467" lon="14.1053062"><ele>220.0</ele><time>2026-05-01T15:30:35.015Z</time></trkpt><trkpt lat="42.2939421" lon="14.1051365"><ele>216.33333333333331</ele><time>2026-05-01T15:30:36.015Z</time></trkpt><trkpt lat="42.294037" lon="14.10495"><ele>212.66666666666669</ele><time>2026-05-01T15:30:37.015Z</time></trkpt><trkpt lat="42.2941342" lon="14.1047547"><ele>209.0</ele><time>2026-05-01T15:30:38.015Z</time></trkpt><trkpt lat="42.2942342" lon="14.1045544"><ele>209.0</ele><time>2026-05-01T15:30:39.015Z</time></trkpt><trkpt lat="42.2943334" lon="14.1043564"><ele>209.0</ele><time>2026-05-01T15:30:40.015Z</time></trkpt><trkpt lat="42.2944287" lon="14.1041711"><ele>209.0</ele><time>2026-05-01T15:30:41.014Z</time></trkpt><trkpt lat="42.2945242" lon="14.1039795"><ele>209.0</ele><time>2026-05-01T15:30:42.015Z</time></trkpt><trkpt lat="42.2946212" lon="14.1037847"><ele>209.0</ele><time>2026-05-01T15:30:43.014Z</time></trkpt><trkpt lat="42.2947179" lon="14.1035847"><ele>209.0</ele><time>2026-05-01T15:30:44.014Z</time></trkpt><trkpt lat="42.2948119" lon="14.1033859"><ele>207.33333333333334</ele><time>2026-05-01T15:30:45.015Z</time></trkpt><trkpt lat="42.2949009" lon="14.1031926"><ele>205.66666666666669</ele><time>2026-05-01T15:30:46.015Z</time></trkpt><trkpt lat="42.2949913" lon="14.1030053"><ele>204.0</ele><time>2026-05-01T15:30:47.015Z</time></trkpt><trkpt lat="42.2950861" lon="14.1028254"><ele>204.0</ele><time>2026-05-01T15:30:48.015Z</time></trkpt><trkpt lat="42.2951836" lon="14.102649"><ele>204.0</ele><time>2026-05-01T15:30:49.015Z</time></trkpt><trkpt lat="42.2952819" lon="14.1024783"><ele>204.0</ele><time>2026-05-01T15:30:50.015Z</time></trkpt><trkpt lat="42.2953872" lon="14.1023174"><ele>203.66666666666669</ele><time>2026-05-01T15:30:51.015Z</time></trkpt><trkpt lat="42.2954969" lon="14.1021645"><ele>203.33333333333334</ele><time>2026-05-01T15:30:52.015Z</time></trkpt><trkpt lat="42.2956082" lon="14.1020187"><ele>203.0</ele><time>2026-05-01T15:30:53.015Z</time></trkpt><trkpt lat="42.2957207" lon="14.1018754"><ele>202.66666666666669</ele><time>2026-05-01T15:30:54.015Z</time></trkpt><trkpt lat="42.2958345" lon="14.1017391"><ele>202.33333333333331</ele><time>2026-05-01T15:30:55.015Z</time></trkpt><trkpt lat="42.2959505" lon="14.1015952"><ele>202.0</ele><time>2026-05-01T15:30:56.015Z</time></trkpt><trkpt lat="42.2960654" lon="14.1014406"><ele>203.0</ele><time>2026-05-01T15:30:57.014Z</time></trkpt><trkpt lat="42.2961796" lon="14.1012796"><ele>204.0</ele><time>2026-05-01T15:30:58.014Z</time></trkpt><trkpt lat="42.2962997" lon="14.1011124"><ele>205.0</ele><time>2026-05-01T15:30:59.015Z</time></trkpt><trkpt lat="42.2964159" lon="14.1009557"><ele>203.33333333333331</ele><time>2026-05-01T15:31:00.015Z</time></trkpt><trkpt lat="42.29653" lon="14.1008062"><ele>201.66666666666669</ele><time>2026-05-01T15:31:01.015Z</time></trkpt><trkpt lat="42.2966503" lon="14.1006759"><ele>200.0</ele><time>2026-05-01T15:31:02.014Z</time></trkpt><trkpt lat="42.2967758" lon="14.1005559"><ele>200.0</ele><time>2026-05-01T15:31:03.015Z</time></trkpt><trkpt lat="42.2969026" lon="14.1004438"><ele>200.0</ele><time>2026-05-01T15:31:04.015Z</time></trkpt><trkpt lat="42.2970223" lon="14.1003269"><ele>200.0</ele><time>2026-05-01T15:31:05.015Z</time></trkpt><trkpt lat="42.2971295" lon="14.1002095"><ele>200.0</ele><time>2026-05-01T15:31:06.014Z</time></trkpt><trkpt lat="42.2972317" lon="14.1000688"><ele>196.0</ele><time>2026-05-01T15:31:07.014Z</time></trkpt><trkpt lat="42.2973291" lon="14.0999217"><ele>192.0</ele><time>2026-05-01T15:31:08.015Z</time></trkpt><trkpt lat="42.2974153" lon="14.0997628"><ele>188.0</ele><time>2026-05-01T15:31:09.015Z</time></trkpt><trkpt lat="42.2974892" lon="14.0995949"><ele>184.0</ele><time>2026-05-01T15:31:10.015Z</time></trkpt><trkpt lat="42.2975468" lon="14.0994153"><ele>184.0</ele><time>2026-05-01T15:31:11.015Z</time></trkpt><trkpt lat="42.2975849" lon="14.099227"><ele>184.0</ele><time>2026-05-01T15:31:12.015Z</time></trkpt><trkpt lat="42.2976057" lon="14.0990235"><ele>184.0</ele><time>2026-05-01T15:31:13.015Z</time></trkpt><trkpt lat="42.297612" lon="14.0988278"><ele>184.0</ele><time>2026-05-01T15:31:14.015Z</time></trkpt><trkpt lat="42.2976099" lon="14.0986282"><ele>183.0</ele><time>2026-05-01T15:31:15.014Z</time></trkpt><trkpt lat="42.297612" lon="14.0984347"><ele>182.0</ele><time>2026-05-01T15:31:16.015Z</time></trkpt><trkpt lat="42.2976166" lon="14.0982585"><ele>181.0</ele><time>2026-05-01T15:31:17.015Z</time></trkpt><trkpt lat="42.2976249" lon="14.0981022"><ele>180.0</ele><time>2026-05-01T15:31:18.015Z</time></trkpt><trkpt lat="42.2976403" lon="14.0979624"><ele>180.0</ele><time>2026-05-01T15:31:19.015Z</time></trkpt><trkpt lat="42.2976595" lon="14.0978548"><ele>180.0</ele><time>2026-05-01T15:31:20.015Z</time></trkpt><trkpt lat="42.2976828" lon="14.0977736"><ele>180.0</ele><time>2026-05-01T15:31:21.015Z</time></trkpt><trkpt lat="42.2977285" lon="14.0976888"><ele>180.0</ele><time>2026-05-01T15:31:23.015Z</time></trkpt><trkpt lat="42.2977837" lon="14.0977614"><ele>180.0</ele><time>2026-05-01T15:31:27.015Z</time></trkpt><trkpt lat="42.2977824" lon="14.0978943"><ele>180.0</ele><time>2026-05-01T15:31:29.015Z</time></trkpt><trkpt lat="42.2978031" lon="14.0979758"><ele>180.0</ele><time>2026-05-01T15:31:30.015Z</time></trkpt><trkpt lat="42.2978498" lon="14.0980373"><ele>180.0</ele><time>2026-05-01T15:31:31.015Z</time></trkpt><trkpt lat="42.2979102" lon="14.0980756"><ele>180.0</ele><time>2026-05-01T15:31:32.015Z</time></trkpt><trkpt lat="42.2979794" lon="14.0981058"><ele>180.0</ele><time>2026-05-01T15:31:33.015Z</time></trkpt><trkpt lat="42.2980515" lon="14.0981421"><ele>180.0</ele><time>2026-05-01T15:31:34.015Z</time></trkpt><trkpt lat="42.2981134" lon="14.0982003"><ele>180.0</ele><time>2026-05-01T15:31:35.015Z</time></trkpt><trkpt lat="42.2981628" lon="14.0982627"><ele>180.0</ele><time>2026-05-01T15:31:36.015Z</time></trkpt><trkpt lat="42.2982136" lon="14.0983279"><ele>176.66666666666666</ele><time>2026-05-01T15:31:37.014Z</time></trkpt><trkpt lat="42.2982813" lon="14.0983945"><ele>173.33333333333334</ele><time>2026-05-01T15:31:38.015Z</time></trkpt><trkpt lat="42.2983582" lon="14.0984539"><ele>170.0</ele><time>2026-05-01T15:31:39.015Z</time></trkpt><trkpt lat="42.298448" lon="14.0985123"><ele>166.66666666666669</ele><time>2026-05-01T15:31:40.015Z</time></trkpt><trkpt lat="42.2985139" lon="14.0985805"><ele>163.33333333333334</ele><time>2026-05-01T15:31:41.015Z</time></trkpt><trkpt lat="42.2985971" lon="14.098623"><ele>160.0</ele><time>2026-05-01T15:31:42.015Z</time></trkpt><trkpt lat="42.2986833" lon="14.0986403"><ele>160.0</ele><time>2026-05-01T15:31:43.014Z</time></trkpt><trkpt lat="42.2987748" lon="14.0986578"><ele>160.0</ele><time>2026-05-01T15:31:44.015Z</time></trkpt><trkpt lat="42.2988822" lon="14.0986876"><ele>160.0</ele><time>2026-05-01T15:31:45.015Z</time></trkpt><trkpt lat="42.2989876" lon="14.098712"><ele>160.0</ele><time>2026-05-01T15:31:46.015Z</time></trkpt><trkpt lat="42.2990921" lon="14.0987379"><ele>160.0</ele><time>2026-05-01T15:31:47.015Z</time></trkpt><trkpt lat="42.2991955" lon="14.0987597"><ele>155.8</ele><time>2026-05-01T15:31:48.015Z</time></trkpt><trkpt lat="42.2993021" lon="14.0987743"><ele>151.6</ele><time>2026-05-01T15:31:49.015Z</time></trkpt><trkpt lat="42.2994094" lon="14.0987799"><ele>147.4</ele><time>2026-05-01T15:31:50.015Z</time></trkpt><trkpt lat="42.2995151" lon="14.0987789"><ele>143.2</ele><time>2026-05-01T15:31:51.015Z</time></trkpt><trkpt lat="42.2996318" lon="14.0987682"><ele>139.0</ele><time>2026-05-01T15:31:52.015Z</time></trkpt><trkpt lat="42.2997518" lon="14.0987456"><ele>135.75</ele><time>2026-05-01T15:31:53.015Z</time></trkpt><trkpt lat="42.2998695" lon="14.0987165"><ele>132.5</ele><time>2026-05-01T15:31:54.015Z</time></trkpt><trkpt lat="42.2999819" lon="14.098684"><ele>129.25</ele><time>2026-05-01T15:31:55.015Z</time></trkpt><trkpt lat="42.3001007" lon="14.0986444"><ele>126.0</ele><time>2026-05-01T15:31:56.015Z</time></trkpt><trkpt lat="42.3002066" lon="14.0985877"><ele>126.0</ele><time>2026-05-01T15:31:57.015Z</time></trkpt><trkpt lat="42.300312" lon="14.0985148"><ele>126.0</ele><time>2026-05-01T15:31:58.014Z</time></trkpt><trkpt lat="42.3003987" lon="14.0984461"><ele>126.0</ele><time>2026-05-01T15:31:59.015Z</time></trkpt><trkpt lat="42.3005015" lon="14.0983489"><ele>126.0</ele><time>2026-05-01T15:32:00.014Z</time></trkpt><trkpt lat="42.3005904" lon="14.0982365"><ele>122.25</ele><time>2026-05-01T15:32:01.015Z</time></trkpt><trkpt lat="42.3006772" lon="14.0981306"><ele>118.5</ele><time>2026-05-01T15:32:02.015Z</time></trkpt><trkpt lat="42.300759" lon="14.0980365"><ele>114.75</ele><time>2026-05-01T15:32:03.015Z</time></trkpt><trkpt lat="42.3008567" lon="14.0979631"><ele>111.0</ele><time>2026-05-01T15:32:04.015Z</time></trkpt><trkpt lat="42.300964" lon="14.0978964"><ele>111.0</ele><time>2026-05-01T15:32:05.015Z</time></trkpt><trkpt lat="42.3010676" lon="14.0978293"><ele>111.0</ele><time>2026-05-01T15:32:06.015Z</time></trkpt><trkpt lat="42.3011799" lon="14.0978"><ele>111.0</ele><time>2026-05-01T15:32:07.015Z</time></trkpt><trkpt lat="42.3012736" lon="14.097779"><ele>111.0</ele><time>2026-05-01T15:32:08.015Z</time></trkpt><trkpt lat="42.301349" lon="14.0978012"><ele>111.0</ele><time>2026-05-01T15:32:09.015Z</time></trkpt><trkpt lat="42.3014276" lon="14.0978126"><ele>110.0</ele><time>2026-05-01T15:32:10.015Z</time></trkpt><trkpt lat="42.301502" lon="14.0978273"><ele>109.0</ele><time>2026-05-01T15:32:11.015Z</time></trkpt><trkpt lat="42.3016106" lon="14.0978285"><ele>108.0</ele><time>2026-05-01T15:32:13.014Z</time></trkpt><trkpt lat="42.3016425" lon="14.0977279"><ele>107.0</ele><time>2026-05-01T15:32:15.015Z</time></trkpt><trkpt lat="42.3016851" lon="14.0975217"><ele>106.0</ele><time>2026-05-01T15:32:17.015Z</time></trkpt><trkpt lat="42.3017076" lon="14.0973824"><ele>105.75</ele><time>2026-05-01T15:32:18.015Z</time></trkpt><trkpt lat="42.3017229" lon="14.0972317"><ele>105.5</ele><time>2026-05-01T15:32:19.015Z</time></trkpt><trkpt lat="42.3017568" lon="14.0970462"><ele>105.25</ele><time>2026-05-01T15:32:20.015Z</time></trkpt><trkpt lat="42.3017879" lon="14.0968441"><ele>105.0</ele><time>2026-05-01T15:32:21.014Z</time></trkpt><trkpt lat="42.3018271" lon="14.0966234"><ele>106.0</ele><time>2026-05-01T15:32:22.015Z</time></trkpt><trkpt lat="42.3018586" lon="14.0963981"><ele>107.0</ele><time>2026-05-01T15:32:23.014Z</time></trkpt><trkpt lat="42.3018849" lon="14.0961755"><ele>108.0</ele><time>2026-05-01T15:32:24.015Z</time></trkpt><trkpt lat="42.3019125" lon="14.0959621"><ele>108.0</ele><time>2026-05-01T15:32:25.015Z</time></trkpt><trkpt lat="42.3019396" lon="14.0957596"><ele>108.0</ele><time>2026-05-01T15:32:26.015Z</time></trkpt><trkpt lat="42.3019613" lon="14.0955361"><ele>108.0</ele><time>2026-05-01T15:32:27.015Z</time></trkpt><trkpt lat="42.3019879" lon="14.0953318"><ele>107.5</ele><time>2026-05-01T15:32:28.015Z</time></trkpt><trkpt lat="42.3020136" lon="14.0951297"><ele>107.0</ele><time>2026-05-01T15:32:29.015Z</time></trkpt><trkpt lat="42.3020342" lon="14.0949479"><ele>106.5</ele><time>2026-05-01T15:32:30.015Z</time></trkpt><trkpt lat="42.3020562" lon="14.0947868"><ele>106.0</ele><time>2026-05-01T15:32:31.014Z</time></trkpt><trkpt lat="42.3020517" lon="14.0946557"><ele>106.0</ele><time>2026-05-01T15:32:32.015Z</time></trkpt><trkpt lat="42.3020393" lon="14.0945248"><ele>106.0</ele><time>2026-05-01T15:32:33.015Z</time></trkpt><trkpt lat="42.301993" lon="14.0943959"><ele>106.0</ele><time>2026-05-01T15:32:34.015Z</time></trkpt><trkpt lat="42.3019615" lon="14.0942669"><ele>106.0</ele><time>2026-05-01T15:32:35.015Z</time></trkpt><trkpt lat="42.3019376" lon="14.0941283"><ele>106.0</ele><time>2026-05-01T15:32:36.015Z</time></trkpt><trkpt lat="42.3019093" lon="14.093996"><ele>106.0</ele><time>2026-05-01T15:32:37.015Z</time></trkpt><trkpt lat="42.3018355" lon="14.0938593"><ele>106.0</ele><time>2026-05-01T15:32:38.015Z</time></trkpt><trkpt lat="42.3017477" lon="14.093731"><ele>106.0</ele><time>2026-05-01T15:32:39.015Z</time></trkpt><trkpt lat="42.3016889" lon="14.0936187"><ele>106.0</ele><time>2026-05-01T15:32:40.015Z</time></trkpt><trkpt lat="42.3016359" lon="14.0935"><ele>106.0</ele><time>2026-05-01T15:32:41.014Z</time></trkpt><trkpt lat="42.3016677" lon="14.0934097"><ele>106.0</ele><time>2026-05-01T15:32:42.015Z</time></trkpt><trkpt lat="42.3016829" lon="14.0933143"><ele>106.0</ele><time>2026-05-01T15:32:43.014Z</time></trkpt><trkpt lat="42.3017738" lon="14.0932866"><ele>106.0</ele><time>2026-05-01T15:32:44.015Z</time></trkpt><trkpt lat="42.3018675" lon="14.0932385"><ele>106.0</ele><time>2026-05-01T15:32:45.015Z</time></trkpt><trkpt lat="42.301974" lon="14.0931822"><ele>108.25</ele><time>2026-05-01T15:32:46.014Z</time></trkpt><trkpt lat="42.3020872" lon="14.0931109"><ele>110.5</ele><time>2026-05-01T15:32:47.015Z</time></trkpt><trkpt lat="42.3022176" lon="14.0930436"><ele>112.75</ele><time>2026-05-01T15:32:48.015Z</time></trkpt><trkpt lat="42.3023383" lon="14.0929874"><ele>115.0</ele><time>2026-05-01T15:32:49.015Z</time></trkpt><trkpt lat="42.3024491" lon="14.0929327"><ele>115.0</ele><time>2026-05-01T15:32:50.015Z</time></trkpt><trkpt lat="42.3025484" lon="14.0928798"><ele>115.0</ele><time>2026-05-01T15:32:51.014Z</time></trkpt><trkpt lat="42.3026473" lon="14.0928229"><ele>115.0</ele><time>2026-05-01T15:32:52.015Z</time></trkpt><trkpt lat="42.3027441" lon="14.0927674"><ele>115.0</ele><time>2026-05-01T15:32:53.015Z</time></trkpt><trkpt lat="42.3028347" lon="14.0927148"><ele>115.0</ele><time>2026-05-01T15:32:54.015Z</time></trkpt><trkpt lat="42.3029145" lon="14.0926342"><ele>115.0</ele><time>2026-05-01T15:32:55.015Z</time></trkpt><trkpt lat="42.3029935" lon="14.0924984"><ele>115.0</ele><time>2026-05-01T15:32:56.014Z</time></trkpt><trkpt lat="42.3030915" lon="14.0923918"><ele>115.0</ele><time>2026-05-01T15:32:57.014Z</time></trkpt><trkpt lat="42.3031871" lon="14.0922512"><ele>115.0</ele><time>2026-05-01T15:32:58.015Z</time></trkpt><trkpt lat="42.3032835" lon="14.0921239"><ele>114.0</ele><time>2026-05-01T15:32:59.015Z</time></trkpt><trkpt lat="42.3033846" lon="14.0919951"><ele>113.0</ele><time>2026-05-01T15:33:00.015Z</time></trkpt><trkpt lat="42.303483" lon="14.0918899"><ele>112.0</ele><time>2026-05-01T15:33:01.015Z</time></trkpt><trkpt lat="42.3035964" lon="14.0918063"><ele>111.0</ele><time>2026-05-01T15:33:02.015Z</time></trkpt><trkpt lat="42.3037244" lon="14.0917482"><ele>111.0</ele><time>2026-05-01T15:33:03.014Z</time></trkpt><trkpt lat="42.3038593" lon="14.0916686"><ele>111.0</ele><time>2026-05-01T15:33:04.014Z</time></trkpt><trkpt lat="42.3040059" lon="14.0915969"><ele>111.0</ele><time>2026-05-01T15:33:05.015Z</time></trkpt><trkpt lat="42.304142" lon="14.0915209"><ele>111.25</ele><time>2026-05-01T15:33:06.015Z</time></trkpt><trkpt lat="42.3042707" lon="14.0914479"><ele>111.5</ele><time>2026-05-01T15:33:07.015Z</time></trkpt><trkpt lat="42.3043965" lon="14.0913799"><ele>111.75</ele><time>2026-05-01T15:33:08.015Z</time></trkpt><trkpt lat="42.3045173" lon="14.0913217"><ele>112.0</ele><time>2026-05-01T15:33:09.015Z</time></trkpt><trkpt lat="42.3046473" lon="14.0912455"><ele>109.0</ele><time>2026-05-01T15:33:10.014Z</time></trkpt><trkpt lat="42.3047754" lon="14.0911614"><ele>106.0</ele><time>2026-05-01T15:33:11.015Z</time></trkpt><trkpt lat="42.3049008" lon="14.0910718"><ele>103.0</ele><time>2026-05-01T15:33:12.014Z</time></trkpt><trkpt lat="42.305018" lon="14.0910044"><ele>100.0</ele><time>2026-05-01T15:33:13.015Z</time></trkpt><trkpt lat="42.3051309" lon="14.0909257"><ele>100.0</ele><time>2026-05-01T15:33:14.015Z</time></trkpt><trkpt lat="42.305248" lon="14.0908444"><ele>100.0</ele><time>2026-05-01T15:33:15.015Z</time></trkpt><trkpt lat="42.3053681" lon="14.0907664"><ele>100.0</ele><time>2026-05-01T15:33:16.015Z</time></trkpt><trkpt lat="42.305488" lon="14.0906853"><ele>100.0</ele><time>2026-05-01T15:33:17.015Z</time></trkpt><trkpt lat="42.3056029" lon="14.0906061"><ele>99.0</ele><time>2026-05-01T15:33:18.015Z</time></trkpt><trkpt lat="42.305712" lon="14.0905676"><ele>98.0</ele><time>2026-05-01T15:33:19.015Z</time></trkpt><trkpt lat="42.3058184" lon="14.0905046"><ele>97.0</ele><time>2026-05-01T15:33:20.015Z</time></trkpt><trkpt lat="42.305914" lon="14.0904107"><ele>96.0</ele><time>2026-05-01T15:33:21.015Z</time></trkpt><trkpt lat="42.3060089" lon="14.0903272"><ele>96.0</ele><time>2026-05-01T15:33:22.015Z</time></trkpt><trkpt lat="42.306105" lon="14.0902363"><ele>96.0</ele><time>2026-05-01T15:33:23.015Z</time></trkpt><trkpt lat="42.3062059" lon="14.0901374"><ele>96.0</ele><time>2026-05-01T15:33:24.015Z</time></trkpt><trkpt lat="42.3062928" lon="14.0900089"><ele>96.0</ele><time>2026-05-01T15:33:25.015Z</time></trkpt><trkpt lat="42.306367" lon="14.089856"><ele>95.4</ele><time>2026-05-01T15:33:26.015Z</time></trkpt><trkpt lat="42.3064308" lon="14.0897025"><ele>94.8</ele><time>2026-05-01T15:33:27.015Z</time></trkpt><trkpt lat="42.3064943" lon="14.0895647"><ele>94.2</ele><time>2026-05-01T15:33:28.015Z</time></trkpt><trkpt lat="42.3065464" lon="14.0894713"><ele>93.60000000000001</ele><time>2026-05-01T15:33:29.014Z</time></trkpt><trkpt lat="42.3066089" lon="14.0894034"><ele>93.0</ele><time>2026-05-01T15:33:30.015Z</time></trkpt><trkpt lat="42.3066836" lon="14.0893783"><ele>93.0</ele><time>2026-05-01T15:33:31.015Z</time></trkpt><trkpt lat="42.3067696" lon="14.0893921"><ele>93.0</ele><time>2026-05-01T15:33:32.015Z</time></trkpt><trkpt lat="42.3068581" lon="14.0894178"><ele>93.0</ele><time>2026-05-01T15:33:33.015Z</time></trkpt><trkpt lat="42.3069609" lon="14.0894731"><ele>93.0</ele><time>2026-05-01T15:33:34.015Z</time></trkpt><trkpt lat="42.3070565" lon="14.0895266"><ele>93.0</ele><time>2026-05-01T15:33:35.015Z</time></trkpt><trkpt lat="42.3071518" lon="14.0895688"><ele>93.0</ele><time>2026-05-01T15:33:36.015Z</time></trkpt><trkpt lat="42.307224" lon="14.0896128"><ele>93.0</ele><time>2026-05-01T15:33:37.015Z</time></trkpt><trkpt lat="42.3073027" lon="14.0896218"><ele>93.0</ele><time>2026-05-01T15:33:38.015Z</time></trkpt><trkpt lat="42.3073827" lon="14.0896173"><ele>93.0</ele><time>2026-05-01T15:33:39.015Z</time></trkpt><trkpt lat="42.307462" lon="14.0895374"><ele>93.0</ele><time>2026-05-01T15:33:40.015Z</time></trkpt><trkpt lat="42.3075471" lon="14.0894513"><ele>93.0</ele><time>2026-05-01T15:33:41.015Z</time></trkpt><trkpt lat="42.3076232" lon="14.0893575"><ele>92.80000000000001</ele><time>2026-05-01T15:33:42.015Z</time></trkpt><trkpt lat="42.3076875" lon="14.0892792"><ele>92.6</ele><time>2026-05-01T15:33:43.015Z</time></trkpt><trkpt lat="42.3077567" lon="14.0892019"><ele>92.4</ele><time>2026-05-01T15:33:45.015Z</time></trkpt><trkpt lat="42.3078201" lon="14.0891477"><ele>92.19999999999999</ele><time>2026-05-01T15:33:47.015Z</time></trkpt><trkpt lat="42.3078895" lon="14.0890676"><ele>92.0</ele><time>2026-05-01T15:33:49.015Z</time></trkpt><trkpt lat="42.3077954" lon="14.0891519"><ele>92.0</ele><time>2026-05-01T15:33:57.015Z</time></trkpt><trkpt lat="42.3077398" lon="14.0892215"><ele>92.0</ele><time>2026-05-01T15:33:58.014Z</time></trkpt><trkpt lat="42.307679" lon="14.0892822"><ele>92.0</ele><time>2026-05-01T15:33:59.015Z</time></trkpt><trkpt lat="42.307623" lon="14.0893338"><ele>92.0</ele><time>2026-05-01T15:34:00.014Z</time></trkpt><trkpt lat="42.3075459" lon="14.0894427"><ele>92.0</ele><time>2026-05-01T15:34:02.015Z</time></trkpt><trkpt lat="42.3075266" lon="14.0895329"><ele>92.0</ele><time>2026-05-01T15:34:04.015Z</time></trkpt><trkpt lat="42.3075448" lon="14.0896147"><ele>92.0</ele><time>2026-05-01T15:34:06.015Z</time></trkpt><trkpt lat="42.3076229" lon="14.0896741"><ele>92.0</ele><time>2026-05-01T15:34:08.015Z</time></trkpt><trkpt lat="42.307723" lon="14.0897206"><ele>92.0</ele><time>2026-05-01T15:34:10.015Z</time></trkpt><trkpt lat="42.307786" lon="14.089752"><ele>92.0</ele><time>2026-05-01T15:34:11.015Z</time></trkpt><trkpt lat="42.3078563" lon="14.0897785"><ele>92.0</ele><time>2026-05-01T15:34:12.015Z</time></trkpt><trkpt lat="42.3079326" lon="14.089808"><ele>92.0</ele><time>2026-05-01T15:34:13.015Z</time></trkpt><trkpt lat="42.3080113" lon="14.0898347"><ele>91.16666666666667</ele><time>2026-05-01T15:34:14.015Z</time></trkpt><trkpt lat="42.308091" lon="14.0898615"><ele>90.33333333333334</ele><time>2026-05-01T15:34:15.015Z</time></trkpt><trkpt lat="42.3081719" lon="14.0898875"><ele>89.5</ele><time>2026-05-01T15:34:16.015Z</time></trkpt><trkpt lat="42.3082541" lon="14.089912"><ele>88.66666666666667</ele><time>2026-05-01T15:34:17.015Z</time></trkpt><trkpt lat="42.3083349" lon="14.0899347"><ele>87.83333333333333</ele><time>2026-05-01T15:34:18.015Z</time></trkpt><trkpt lat="42.3084146" lon="14.0899624"><ele>87.0</ele><time>2026-05-01T15:34:19.015Z</time></trkpt><trkpt lat="42.3084929" lon="14.0899873"><ele>86.16666666666667</ele><time>2026-05-01T15:34:20.015Z</time></trkpt><trkpt lat="42.3085737" lon="14.090011"><ele>85.33333333333333</ele><time>2026-05-01T15:34:21.015Z</time></trkpt><trkpt lat="42.3086477" lon="14.0900363"><ele>84.5</ele><time>2026-05-01T15:34:22.015Z</time></trkpt><trkpt lat="42.3087145" lon="14.0900616"><ele>83.66666666666666</ele><time>2026-05-01T15:34:23.014Z</time></trkpt><trkpt lat="42.3087796" lon="14.0900871"><ele>82.83333333333333</ele><time>2026-05-01T15:34:24.014Z</time></trkpt><trkpt lat="42.3088772" lon="14.0901203"><ele>82.0</ele><time>2026-05-01T15:34:26.014Z</time></trkpt><trkpt lat="42.3089565" lon="14.0901467"><ele>81.8</ele><time>2026-05-01T15:34:49.015Z</time></trkpt><trkpt lat="42.309047" lon="14.0900991"><ele>81.6</ele><time>2026-05-01T15:34:51.014Z</time></trkpt><trkpt lat="42.3091052" lon="14.0900526"><ele>81.39999999999999</ele><time>2026-05-01T15:34:52.015Z</time></trkpt><trkpt lat="42.309184" lon="14.0899031"><ele>81.19999999999999</ele><time>2026-05-01T15:34:53.015Z</time></trkpt><trkpt lat="42.3092686" lon="14.0897921"><ele>81.0</ele><time>2026-05-01T15:34:54.015Z</time></trkpt><trkpt lat="42.3093675" lon="14.0896545"><ele>81.0</ele><time>2026-05-01T15:34:55.015Z</time></trkpt><trkpt lat="42.3094786" lon="14.0895089"><ele>81.0</ele><time>2026-05-01T15:34:56.015Z</time></trkpt><trkpt lat="42.3095952" lon="14.0893474"><ele>81.0</ele><time>2026-05-01T15:34:57.015Z</time></trkpt><trkpt lat="42.3097206" lon="14.0891806"><ele>81.0</ele><time>2026-05-01T15:34:58.014Z</time></trkpt><trkpt lat="42.3098561" lon="14.0889948"><ele>81.0</ele><time>2026-05-01T15:34:59.015Z</time></trkpt><trkpt lat="42.3099977" lon="14.0888056"><ele>81.0</ele><time>2026-05-01T15:35:00.014Z</time></trkpt><trkpt lat="42.3101428" lon="14.0886093"><ele>81.0</ele><time>2026-05-01T15:35:01.014Z</time></trkpt><trkpt lat="42.3102933" lon="14.0884125"><ele>81.0</ele><time>2026-05-01T15:35:02.015Z</time></trkpt><trkpt lat="42.3104452" lon="14.0882071"><ele>81.0</ele><time>2026-05-01T15:35:03.014Z</time></trkpt><trkpt lat="42.3106003" lon="14.0880014"><ele>81.33333333333333</ele><time>2026-05-01T15:35:04.015Z</time></trkpt><trkpt lat="42.3107568" lon="14.087794"><ele>81.66666666666666</ele><time>2026-05-01T15:35:05.015Z</time></trkpt><trkpt lat="42.3109123" lon="14.0875787"><ele>82.0</ele><time>2026-05-01T15:35:06.015Z</time></trkpt><trkpt lat="42.3110668" lon="14.0873615"><ele>82.0</ele><time>2026-05-01T15:35:07.015Z</time></trkpt><trkpt lat="42.3112172" lon="14.0871359"><ele>82.0</ele><time>2026-05-01T15:35:08.014Z</time></trkpt><trkpt lat="42.3113618" lon="14.0869002"><ele>79.5</ele><time>2026-05-01T15:35:09.015Z</time></trkpt><trkpt lat="42.3115012" lon="14.0866513"><ele>77.0</ele><time>2026-05-01T15:35:10.015Z</time></trkpt><trkpt lat="42.3116407" lon="14.0863978"><ele>77.0</ele><time>2026-05-01T15:35:11.015Z</time></trkpt><trkpt lat="42.3117815" lon="14.0861378"><ele>77.0</ele><time>2026-05-01T15:35:12.015Z</time></trkpt><trkpt lat="42.3119217" lon="14.0858766"><ele>78.0</ele><time>2026-05-01T15:35:13.015Z</time></trkpt><trkpt lat="42.3120623" lon="14.0856217"><ele>79.0</ele><time>2026-05-01T15:35:14.014Z</time></trkpt><trkpt lat="42.312205" lon="14.0853668"><ele>77.33333333333333</ele><time>2026-05-01T15:35:15.015Z</time></trkpt><trkpt lat="42.3123364" lon="14.0851345"><ele>75.66666666666667</ele><time>2026-05-01T15:35:16.015Z</time></trkpt><trkpt lat="42.3124613" lon="14.0849057"><ele>74.0</ele><time>2026-05-01T15:35:17.015Z</time></trkpt><trkpt lat="42.3125797" lon="14.0846891"><ele>74.0</ele><time>2026-05-01T15:35:18.015Z</time></trkpt><trkpt lat="42.3126983" lon="14.0844714"><ele>74.0</ele><time>2026-05-01T15:35:19.015Z</time></trkpt><trkpt lat="42.3128222" lon="14.0842715"><ele>74.0</ele><time>2026-05-01T15:35:20.015Z</time></trkpt><trkpt lat="42.3129577" lon="14.0840934"><ele>74.66666666666667</ele><time>2026-05-01T15:35:21.015Z</time></trkpt><trkpt lat="42.3131133" lon="14.0839262"><ele>75.33333333333333</ele><time>2026-05-01T15:35:22.015Z</time></trkpt><trkpt lat="42.3132861" lon="14.0837841"><ele>76.0</ele><time>2026-05-01T15:35:23.015Z</time></trkpt><trkpt lat="42.313457" lon="14.0836894"><ele>76.0</ele><time>2026-05-01T15:35:24.015Z</time></trkpt><trkpt lat="42.313629" lon="14.0836182"><ele>76.0</ele><time>2026-05-01T15:35:25.015Z</time></trkpt><trkpt lat="42.3138084" lon="14.0835914"><ele>76.0</ele><time>2026-05-01T15:35:26.015Z</time></trkpt><trkpt lat="42.31399" lon="14.0836056"><ele>75.33333333333333</ele><time>2026-05-01T15:35:27.015Z</time></trkpt><trkpt lat="42.3141775" lon="14.0836632"><ele>74.66666666666667</ele><time>2026-05-01T15:35:28.015Z</time></trkpt><trkpt lat="42.3143703" lon="14.0837411"><ele>74.0</ele><time>2026-05-01T15:35:29.015Z</time></trkpt><trkpt lat="42.3145656" lon="14.0838183"><ele>74.33333333333334</ele><time>2026-05-01T15:35:30.015Z</time></trkpt><trkpt lat="42.314748" lon="14.0838802"><ele>74.66666666666667</ele><time>2026-05-01T15:35:31.015Z</time></trkpt><trkpt lat="42.3149338" lon="14.0839307"><ele>75.0</ele><time>2026-05-01T15:35:32.015Z</time></trkpt><trkpt lat="42.3151241" lon="14.0839565"><ele>75.0</ele><time>2026-05-01T15:35:33.015Z</time></trkpt><trkpt lat="42.315318" lon="14.083969"><ele>75.0</ele><time>2026-05-01T15:35:34.015Z</time></trkpt><trkpt lat="42.3155132" lon="14.0839748"><ele>75.0</ele><time>2026-05-01T15:35:35.015Z</time></trkpt><trkpt lat="42.3157036" lon="14.0839812"><ele>72.66666666666667</ele><time>2026-05-01T15:35:36.015Z</time></trkpt><trkpt lat="42.3158802" lon="14.0839899"><ele>70.33333333333334</ele><time>2026-05-01T15:35:37.015Z</time></trkpt><trkpt lat="42.3160544" lon="14.0839697"><ele>68.0</ele><time>2026-05-01T15:35:38.015Z</time></trkpt><trkpt lat="42.3162242" lon="14.0839159"><ele>68.0</ele><time>2026-05-01T15:35:39.014Z</time></trkpt><trkpt lat="42.3163894" lon="14.0838247"><ele>68.0</ele><time>2026-05-01T15:35:40.015Z</time></trkpt><trkpt lat="42.3165479" lon="14.0837162"><ele>68.0</ele><time>2026-05-01T15:35:41.015Z</time></trkpt><trkpt lat="42.3167122" lon="14.0836028"><ele>68.33333333333334</ele><time>2026-05-01T15:35:42.015Z</time></trkpt><trkpt lat="42.3168759" lon="14.0834937"><ele>68.66666666666667</ele><time>2026-05-01T15:35:43.015Z</time></trkpt><trkpt lat="42.3170377" lon="14.0833764"><ele>69.0</ele><time>2026-05-01T15:35:44.015Z</time></trkpt><trkpt lat="42.3171855" lon="14.0832486"><ele>67.33333333333333</ele><time>2026-05-01T15:35:45.015Z</time></trkpt><trkpt lat="42.3173152" lon="14.0831092"><ele>65.66666666666666</ele><time>2026-05-01T15:35:46.015Z</time></trkpt><trkpt lat="42.3174294" lon="14.0829656"><ele>64.0</ele><time>2026-05-01T15:35:47.015Z</time></trkpt><trkpt lat="42.3175259" lon="14.0828299"><ele>64.0</ele><time>2026-05-01T15:35:48.015Z</time></trkpt><trkpt lat="42.3176072" lon="14.0827157"><ele>64.0</ele><time>2026-05-01T15:35:49.015Z</time></trkpt><trkpt lat="42.3176865" lon="14.0826215"><ele>64.0</ele><time>2026-05-01T15:35:50.015Z</time></trkpt><trkpt lat="42.3177564" lon="14.082555"><ele>64.0</ele><time>2026-05-01T15:35:51.014Z</time></trkpt><trkpt lat="42.3178227" lon="14.0825176"><ele>64.0</ele><time>2026-05-01T15:35:52.015Z</time></trkpt><trkpt lat="42.3179225" lon="14.0825274"><ele>63.99999999999999</ele><time>2026-05-01T15:35:54.015Z</time></trkpt><trkpt lat="42.3180094" lon="14.0825494"><ele>64.0</ele><time>2026-05-01T15:36:18.015Z</time></trkpt><trkpt lat="42.3180764" lon="14.0825927"><ele>64.0</ele><time>2026-05-01T15:36:19.015Z</time></trkpt><trkpt lat="42.3181325" lon="14.0826822"><ele>64.0</ele><time>2026-05-01T15:36:20.015Z</time></trkpt><trkpt lat="42.3181787" lon="14.0827741"><ele>63.99999999999999</ele><time>2026-05-01T15:36:21.015Z</time></trkpt><trkpt lat="42.3182278" lon="14.0828885"><ele>64.0</ele><time>2026-05-01T15:36:22.015Z</time></trkpt><trkpt lat="42.3182842" lon="14.0830119"><ele>64.0</ele><time>2026-05-01T15:36:23.014Z</time></trkpt><trkpt lat="42.3183342" lon="14.0831315"><ele>64.0</ele><time>2026-05-01T15:36:24.015Z</time></trkpt><trkpt lat="42.3183939" lon="14.083258"><ele>64.0</ele><time>2026-05-01T15:36:25.015Z</time></trkpt><trkpt lat="42.3184573" lon="14.0833892"><ele>64.0</ele><time>2026-05-01T15:36:26.015Z</time></trkpt><trkpt lat="42.3185232" lon="14.0835301"><ele>64.0</ele><time>2026-05-01T15:36:27.014Z</time></trkpt><trkpt lat="42.3185935" lon="14.083683"><ele>64.0</ele><time>2026-05-01T15:36:28.015Z</time></trkpt><trkpt lat="42.3186663" lon="14.0838415"><ele>64.0</ele><time>2026-05-01T15:36:29.015Z</time></trkpt><trkpt lat="42.3187454" lon="14.0840023"><ele>64.0</ele><time>2026-05-01T15:36:30.015Z</time></trkpt><trkpt lat="42.3188281" lon="14.0841683"><ele>63.75</ele><time>2026-05-01T15:36:31.015Z</time></trkpt><trkpt lat="42.3189103" lon="14.0843343"><ele>63.5</ele><time>2026-05-01T15:36:32.014Z</time></trkpt><trkpt lat="42.3189948" lon="14.0845008"><ele>63.25</ele><time>2026-05-01T15:36:33.015Z</time></trkpt><trkpt lat="42.3190722" lon="14.0846648"><ele>63.0</ele><time>2026-05-01T15:36:34.015Z</time></trkpt><trkpt lat="42.3191474" lon="14.0848218"><ele>62.75</ele><time>2026-05-01T15:36:35.014Z</time></trkpt><trkpt lat="42.3192216" lon="14.0849709"><ele>62.5</ele><time>2026-05-01T15:36:36.015Z</time></trkpt><trkpt lat="42.3192925" lon="14.0851104"><ele>62.25</ele><time>2026-05-01T15:36:37.015Z</time></trkpt><trkpt lat="42.3193548" lon="14.0852448"><ele>62.0</ele><time>2026-05-01T15:36:38.015Z</time></trkpt><trkpt lat="42.3194175" lon="14.0853811"><ele>62.0</ele><time>2026-05-01T15:36:39.015Z</time></trkpt><trkpt lat="42.3194773" lon="14.0855116"><ele>62.0</ele><time>2026-05-01T15:36:40.015Z</time></trkpt><trkpt lat="42.3195326" lon="14.085634"><ele>62.0</ele><time>2026-05-01T15:36:41.015Z</time></trkpt><trkpt lat="42.3195839" lon="14.0857506"><ele>62.0</ele><time>2026-05-01T15:36:42.015Z</time></trkpt><trkpt lat="42.3196341" lon="14.0858642"><ele>62.0</ele><time>2026-05-01T15:36:43.015Z</time></trkpt><trkpt lat="42.3196814" lon="14.085974"><ele>61.833333333333336</ele><time>2026-05-01T15:36:44.015Z</time></trkpt><trkpt lat="42.319728" lon="14.0860705"><ele>61.66666666666667</ele><time>2026-05-01T15:36:45.015Z</time></trkpt><trkpt lat="42.3197753" lon="14.086163"><ele>61.5</ele><time>2026-05-01T15:36:46.015Z</time></trkpt><trkpt lat="42.3198249" lon="14.0862541"><ele>61.33333333333333</ele><time>2026-05-01T15:36:47.015Z</time></trkpt><trkpt lat="42.3198764" lon="14.0863487"><ele>61.166666666666664</ele><time>2026-05-01T15:36:48.015Z</time></trkpt><trkpt lat="42.3199237" lon="14.0864429"><ele>61.0</ele><time>2026-05-01T15:36:49.015Z</time></trkpt><trkpt lat="42.3199691" lon="14.0865388"><ele>61.0</ele><time>2026-05-01T15:36:50.015Z</time></trkpt><trkpt lat="42.3200139" lon="14.0866415"><ele>60.99999999999999</ele><time>2026-05-01T15:36:51.015Z</time></trkpt><trkpt lat="42.320067" lon="14.0867447"><ele>60.99999999999999</ele><time>2026-05-01T15:36:52.015Z</time></trkpt><trkpt lat="42.3201173" lon="14.0868515"><ele>61.0</ele><time>2026-05-01T15:36:53.015Z</time></trkpt><trkpt lat="42.3201746" lon="14.0869665"><ele>61.0</ele><time>2026-05-01T15:36:54.015Z</time></trkpt><trkpt lat="42.3202256" lon="14.0870754"><ele>60.99999999999999</ele><time>2026-05-01T15:36:55.014Z</time></trkpt><trkpt lat="42.3202751" lon="14.0871747"><ele>61.0</ele><time>2026-05-01T15:36:56.015Z</time></trkpt><trkpt lat="42.3203175" lon="14.0872734"><ele>61.0</ele><time>2026-05-01T15:36:57.014Z</time></trkpt><trkpt lat="42.3203644" lon="14.0873775"><ele>61.0</ele><time>2026-05-01T15:36:58.015Z</time></trkpt><trkpt lat="42.3204098" lon="14.0874809"><ele>60.99999999999999</ele><time>2026-05-01T15:36:59.015Z</time></trkpt><trkpt lat="42.3204538" lon="14.0875784"><ele>61.0</ele><time>2026-05-01T15:37:00.015Z</time></trkpt><trkpt lat="42.320498" lon="14.0876727"><ele>60.99999999999999</ele><time>2026-05-01T15:37:01.015Z</time></trkpt><trkpt lat="42.3205419" lon="14.0877618"><ele>61.0</ele><time>2026-05-01T15:37:02.015Z</time></trkpt><trkpt lat="42.3205894" lon="14.0878499"><ele>60.99999999999999</ele><time>2026-05-01T15:37:03.015Z</time></trkpt><trkpt lat="42.3206336" lon="14.0879415"><ele>60.99999999999999</ele><time>2026-05-01T15:37:04.015Z</time></trkpt><trkpt lat="42.3206726" lon="14.0880233"><ele>61.0</ele><time>2026-05-01T15:37:05.014Z</time></trkpt><trkpt lat="42.3207104" lon="14.0881051"><ele>60.99999999999999</ele><time>2026-05-01T15:37:06.015Z</time></trkpt><trkpt lat="42.3207425" lon="14.0881786"><ele>60.99999999999999</ele><time>2026-05-01T15:37:07.015Z</time></trkpt><trkpt lat="42.3207938" lon="14.0883068"><ele>60.83333333333333</ele><time>2026-05-01T15:37:09.015Z</time></trkpt><trkpt lat="42.3208353" lon="14.0884162"><ele>60.666666666666664</ele><time>2026-05-01T15:37:11.015Z</time></trkpt><trkpt lat="42.3208373" lon="14.0885149"><ele>60.5</ele><time>2026-05-01T15:37:13.015Z</time></trkpt><trkpt lat="42.3208547" lon="14.0886247"><ele>60.33333333333333</ele><time>2026-05-01T15:37:16.015Z</time></trkpt><trkpt lat="42.3208884" lon="14.0887007"><ele>60.166666666666664</ele><time>2026-05-01T15:37:19.015Z</time></trkpt><trkpt lat="42.3209234" lon="14.0888011"><ele>60.0</ele><time>2026-05-01T15:46:18.015Z</time></trkpt><trkpt lat="42.3209757" lon="14.0888675"><ele>60.0</ele><time>2026-05-01T15:46:20.015Z</time></trkpt><trkpt lat="42.3210655" lon="14.0889297"><ele>60.0</ele><time>2026-05-01T15:46:22.508Z</time></trkpt><trkpt lat="42.3211373" lon="14.0889928"><ele>60.0</ele><time>2026-05-01T15:46:26.008Z</time></trkpt><trkpt lat="42.3212066" lon="14.0891298"><ele>60.0</ele><time>2026-05-01T15:46:28.009Z</time></trkpt><trkpt lat="42.3212483" lon="14.0892329"><ele>60.0</ele><time>2026-05-01T15:46:29.009Z</time></trkpt><trkpt lat="42.3213046" lon="14.0893478"><ele>59.75</ele><time>2026-05-01T15:46:30.009Z</time></trkpt><trkpt lat="42.3213699" lon="14.0894777"><ele>59.5</ele><time>2026-05-01T15:46:31.009Z</time></trkpt><trkpt lat="42.321438" lon="14.0896146"><ele>59.25</ele><time>2026-05-01T15:46:32.009Z</time></trkpt><trkpt lat="42.3214975" lon="14.0897466"><ele>59.0</ele><time>2026-05-01T15:46:33.009Z</time></trkpt><trkpt lat="42.3215594" lon="14.089872"><ele>58.800000000000004</ele><time>2026-05-01T15:46:34.009Z</time></trkpt><trkpt lat="42.3216195" lon="14.0899971"><ele>58.60000000000001</ele><time>2026-05-01T15:46:35.009Z</time></trkpt><trkpt lat="42.3216779" lon="14.0901162"><ele>58.4</ele><time>2026-05-01T15:46:36.009Z</time></trkpt><trkpt lat="42.3217331" lon="14.090235"><ele>58.2</ele><time>2026-05-01T15:46:37.009Z</time></trkpt><trkpt lat="42.3217906" lon="14.0903582"><ele>58.0</ele><time>2026-05-01T15:46:38.009Z</time></trkpt><trkpt lat="42.3218504" lon="14.0904819"><ele>58.0</ele><time>2026-05-01T15:46:39.009Z</time></trkpt><trkpt lat="42.3219113" lon="14.0906084"><ele>58.0</ele><time>2026-05-01T15:46:40.009Z</time></trkpt><trkpt lat="42.3219746" lon="14.0907428"><ele>58.0</ele><time>2026-05-01T15:46:41.009Z</time></trkpt><trkpt lat="42.3220351" lon="14.0908818"><ele>58.0</ele><time>2026-05-01T15:46:42.009Z</time></trkpt><trkpt lat="42.3221024" lon="14.0910238"><ele>58.0</ele><time>2026-05-01T15:46:43.009Z</time></trkpt><trkpt lat="42.3221776" lon="14.0911686"><ele>58.0</ele><time>2026-05-01T15:46:44.009Z</time></trkpt><trkpt lat="42.322253" lon="14.0913173"><ele>58.0</ele><time>2026-05-01T15:46:45.009Z</time></trkpt><trkpt lat="42.3223257" lon="14.0914696"><ele>58.0</ele><time>2026-05-01T15:46:46.009Z</time></trkpt><trkpt lat="42.3223986" lon="14.0916262"><ele>58.25</ele><time>2026-05-01T15:46:47.008Z</time></trkpt><trkpt lat="42.3224752" lon="14.0917861"><ele>58.5</ele><time>2026-05-01T15:46:48.009Z</time></trkpt><trkpt lat="42.3225514" lon="14.0919478"><ele>58.75</ele><time>2026-05-01T15:46:49.009Z</time></trkpt><trkpt lat="42.3226312" lon="14.0921105"><ele>59.0</ele><time>2026-05-01T15:46:50.009Z</time></trkpt><trkpt lat="42.3227106" lon="14.0922749"><ele>58.75</ele><time>2026-05-01T15:46:51.008Z</time></trkpt><trkpt lat="42.3227883" lon="14.0924392"><ele>58.5</ele><time>2026-05-01T15:46:52.009Z</time></trkpt><trkpt lat="42.3228649" lon="14.092607"><ele>58.25</ele><time>2026-05-01T15:46:53.009Z</time></trkpt><trkpt lat="42.3229435" lon="14.0927744"><ele>58.0</ele><time>2026-05-01T15:46:54.009Z</time></trkpt><trkpt lat="42.3230248" lon="14.0929394"><ele>58.0</ele><time>2026-05-01T15:46:55.009Z</time></trkpt><trkpt lat="42.3231067" lon="14.0931057"><ele>58.0</ele><time>2026-05-01T15:46:56.009Z</time></trkpt><trkpt lat="42.3231874" lon="14.0932718"><ele>58.0</ele><time>2026-05-01T15:46:57.009Z</time></trkpt><trkpt lat="42.323272" lon="14.0934386"><ele>58.0</ele><time>2026-05-01T15:46:58.009Z</time></trkpt><trkpt lat="42.3233521" lon="14.0936081"><ele>58.0</ele><time>2026-05-01T15:46:59.009Z</time></trkpt><trkpt lat="42.3234319" lon="14.0937797"><ele>58.0</ele><time>2026-05-01T15:47:00.008Z</time></trkpt><trkpt lat="42.3235032" lon="14.0939531"><ele>58.0</ele><time>2026-05-01T15:47:01.009Z</time></trkpt><trkpt lat="42.3235615" lon="14.0941287"><ele>58.0</ele><time>2026-05-01T15:47:02.009Z</time></trkpt><trkpt lat="42.3236108" lon="14.0943063"><ele>58.0</ele><time>2026-05-01T15:47:03.008Z</time></trkpt><trkpt lat="42.3236557" lon="14.0944929"><ele>58.0</ele><time>2026-05-01T15:47:04.009Z</time></trkpt><trkpt lat="42.3236929" lon="14.094685"><ele>58.0</ele><time>2026-05-01T15:47:05.009Z</time></trkpt><trkpt lat="42.3237331" lon="14.0948803"><ele>58.0</ele><time>2026-05-01T15:47:06.009Z</time></trkpt><trkpt lat="42.3237761" lon="14.0950779"><ele>58.0</ele><time>2026-05-01T15:47:07.009Z</time></trkpt><trkpt lat="42.3238188" lon="14.0952748"><ele>58.0</ele><time>2026-05-01T15:47:08.008Z</time></trkpt><trkpt lat="42.3238591" lon="14.0954702"><ele>58.0</ele><time>2026-05-01T15:47:09.009Z</time></trkpt><trkpt lat="42.3238992" lon="14.0956605"><ele>58.0</ele><time>2026-05-01T15:47:10.009Z</time></trkpt><trkpt lat="42.3239406" lon="14.0958543"><ele>58.0</ele><time>2026-05-01T15:47:11.009Z</time></trkpt><trkpt lat="42.3239801" lon="14.0960472"><ele>58.0</ele><time>2026-05-01T15:47:12.009Z</time></trkpt><trkpt lat="42.3240179" lon="14.0962408"><ele>58.0</ele><time>2026-05-01T15:47:13.009Z</time></trkpt><trkpt lat="42.3240561" lon="14.0964371"><ele>58.0</ele><time>2026-05-01T15:47:14.009Z</time></trkpt><trkpt lat="42.3240945" lon="14.0966352"><ele>58.0</ele><time>2026-05-01T15:47:15.009Z</time></trkpt><trkpt lat="42.3241332" lon="14.0968322"><ele>58.0</ele><time>2026-05-01T15:47:16.009Z</time></trkpt><trkpt lat="42.3241725" lon="14.0970244"><ele>58.0</ele><time>2026-05-01T15:47:17.009Z</time></trkpt><trkpt lat="42.3242131" lon="14.0972075"><ele>58.0</ele><time>2026-05-01T15:47:18.008Z</time></trkpt><trkpt lat="42.3242513" lon="14.0973872"><ele>57.75</ele><time>2026-05-01T15:47:19.009Z</time></trkpt><trkpt lat="42.3242892" lon="14.0975598"><ele>57.5</ele><time>2026-05-01T15:47:20.009Z</time></trkpt><trkpt lat="42.3243369" lon="14.0977233"><ele>57.25</ele><time>2026-05-01T15:47:21.008Z</time></trkpt><trkpt lat="42.3243905" lon="14.0978788"><ele>57.0</ele><time>2026-05-01T15:47:22.009Z</time></trkpt><trkpt lat="42.3244512" lon="14.0980338"><ele>57.0</ele><time>2026-05-01T15:47:23.008Z</time></trkpt><trkpt lat="42.3245223" lon="14.0981787"><ele>57.0</ele><time>2026-05-01T15:47:24.009Z</time></trkpt><trkpt lat="42.3245986" lon="14.0983216"><ele>57.0</ele><time>2026-05-01T15:47:25.008Z</time></trkpt><trkpt lat="42.3246781" lon="14.0984538"><ele>57.0</ele><time>2026-05-01T15:47:26.009Z</time></trkpt><trkpt lat="42.3247542" lon="14.0985794"><ele>56.8</ele><time>2026-05-01T15:47:27.009Z</time></trkpt><trkpt lat="42.3248305" lon="14.0986993"><ele>56.6</ele><time>2026-05-01T15:47:28.009Z</time></trkpt><trkpt lat="42.3249037" lon="14.0988104"><ele>56.39999999999999</ele><time>2026-05-01T15:47:29.009Z</time></trkpt><trkpt lat="42.3249696" lon="14.098915"><ele>56.199999999999996</ele><time>2026-05-01T15:47:30.009Z</time></trkpt><trkpt lat="42.3250336" lon="14.0990184"><ele>56.0</ele><time>2026-05-01T15:47:31.009Z</time></trkpt><trkpt lat="42.3251032" lon="14.099128"><ele>56.0</ele><time>2026-05-01T15:47:32.009Z</time></trkpt><trkpt lat="42.3251781" lon="14.0992369"><ele>55.99999999999999</ele><time>2026-05-01T15:47:33.009Z</time></trkpt><trkpt lat="42.3252496" lon="14.0993493"><ele>55.99999999999999</ele><time>2026-05-01T15:47:34.008Z</time></trkpt><trkpt lat="42.3253097" lon="14.0994546"><ele>56.0</ele><time>2026-05-01T15:47:35.008Z</time></trkpt><trkpt lat="42.3253693" lon="14.099553"><ele>56.0</ele><time>2026-05-01T15:47:36.009Z</time></trkpt><trkpt lat="42.32543" lon="14.0996438"><ele>56.0</ele><time>2026-05-01T15:47:37.009Z</time></trkpt><trkpt lat="42.3254919" lon="14.0997345"><ele>55.99999999999999</ele><time>2026-05-01T15:47:38.009Z</time></trkpt><trkpt lat="42.3255525" lon="14.0998327"><ele>55.99999999999999</ele><time>2026-05-01T15:47:39.009Z</time></trkpt><trkpt lat="42.3256189" lon="14.0999318"><ele>56.0</ele><time>2026-05-01T15:47:40.009Z</time></trkpt><trkpt lat="42.3256865" lon="14.1000359"><ele>56.0</ele><time>2026-05-01T15:47:41.008Z</time></trkpt><trkpt lat="42.3257533" lon="14.1001423"><ele>55.4</ele><time>2026-05-01T15:47:42.009Z</time></trkpt><trkpt lat="42.3258209" lon="14.1002539"><ele>54.8</ele><time>2026-05-01T15:47:43.008Z</time></trkpt><trkpt lat="42.3258886" lon="14.1003683"><ele>54.199999999999996</ele><time>2026-05-01T15:47:44.008Z</time></trkpt><trkpt lat="42.3259577" lon="14.1004722"><ele>53.599999999999994</ele><time>2026-05-01T15:47:45.008Z</time></trkpt><trkpt lat="42.326011" lon="14.1005667"><ele>53.0</ele><time>2026-05-01T15:47:46.009Z</time></trkpt><trkpt lat="42.326055" lon="14.100659"><ele>53.285714285714285</ele><time>2026-05-01T15:47:47.008Z</time></trkpt><trkpt lat="42.3260918" lon="14.1007495"><ele>53.57142857142857</ele><time>2026-05-01T15:47:48.009Z</time></trkpt><trkpt lat="42.3261202" lon="14.1008454"><ele>53.857142857142854</ele><time>2026-05-01T15:47:49.009Z</time></trkpt><trkpt lat="42.3261358" lon="14.1009436"><ele>54.14285714285714</ele><time>2026-05-01T15:47:50.008Z</time></trkpt><trkpt lat="42.3261462" lon="14.1010323"><ele>54.42857142857143</ele><time>2026-05-01T15:47:51.009Z</time></trkpt><trkpt lat="42.3261683" lon="14.101116"><ele>54.71428571428571</ele><time>2026-05-01T15:47:52.009Z</time></trkpt><trkpt lat="42.3262057" lon="14.1011905"><ele>55.0</ele><time>2026-05-01T15:47:53.009Z</time></trkpt><trkpt lat="42.3262586" lon="14.1012394"><ele>54.99999999999999</ele><time>2026-05-01T15:47:54.008Z</time></trkpt><trkpt lat="42.3263305" lon="14.1012637"><ele>55.0</ele><time>2026-05-01T15:47:55.008Z</time></trkpt><trkpt lat="42.3264043" lon="14.1013017"><ele>55.0</ele><time>2026-05-01T15:47:56.009Z</time></trkpt><trkpt lat="42.3264761" lon="14.1013618"><ele>55.0</ele><time>2026-05-01T15:47:57.009Z</time></trkpt><trkpt lat="42.3265481" lon="14.1014469"><ele>54.99999999999999</ele><time>2026-05-01T15:47:58.009Z</time></trkpt><trkpt lat="42.3266178" lon="14.1015513"><ele>55.0</ele><time>2026-05-01T15:47:59.009Z</time></trkpt><trkpt lat="42.3266912" lon="14.1016672"><ele>55.0</ele><time>2026-05-01T15:48:00.009Z</time></trkpt><trkpt lat="42.3267684" lon="14.1017891"><ele>55.0</ele><time>2026-05-01T15:48:01.009Z</time></trkpt><trkpt lat="42.3268498" lon="14.1019135"><ele>55.0</ele><time>2026-05-01T15:48:02.009Z</time></trkpt><trkpt lat="42.3269298" lon="14.1020499"><ele>55.0</ele><time>2026-05-01T15:48:03.009Z</time></trkpt><trkpt lat="42.327008" lon="14.1021838"><ele>55.0</ele><time>2026-05-01T15:48:04.009Z</time></trkpt><trkpt lat="42.327082" lon="14.1023224"><ele>55.0</ele><time>2026-05-01T15:48:05.009Z</time></trkpt><trkpt lat="42.3271509" lon="14.1024655"><ele>55.0</ele><time>2026-05-01T15:48:06.009Z</time></trkpt><trkpt lat="42.3272119" lon="14.1026147"><ele>55.0</ele><time>2026-05-01T15:48:07.009Z</time></trkpt><trkpt lat="42.3272584" lon="14.1027662"><ele>53.5</ele><time>2026-05-01T15:48:08.009Z</time></trkpt><trkpt lat="42.3273044" lon="14.102919"><ele>52.0</ele><time>2026-05-01T15:48:09.009Z</time></trkpt><trkpt lat="42.3273544" lon="14.1030753"><ele>50.5</ele><time>2026-05-01T15:48:10.009Z</time></trkpt><trkpt lat="42.3274093" lon="14.1032327"><ele>49.0</ele><time>2026-05-01T15:48:11.008Z</time></trkpt><trkpt lat="42.3274647" lon="14.1033935"><ele>49.0</ele><time>2026-05-01T15:48:12.009Z</time></trkpt><trkpt lat="42.3275158" lon="14.1035515"><ele>49.0</ele><time>2026-05-01T15:48:13.009Z</time></trkpt><trkpt lat="42.3275638" lon="14.1037128"><ele>49.0</ele><time>2026-05-01T15:48:14.009Z</time></trkpt><trkpt lat="42.3276132" lon="14.1038785"><ele>49.0</ele><time>2026-05-01T15:48:15.009Z</time></trkpt><trkpt lat="42.327667" lon="14.1040436"><ele>48.5</ele><time>2026-05-01T15:48:16.009Z</time></trkpt><trkpt lat="42.3277218" lon="14.1042125"><ele>48.0</ele><time>2026-05-01T15:48:17.009Z</time></trkpt><trkpt lat="42.3277803" lon="14.1043853"><ele>47.5</ele><time>2026-05-01T15:48:18.008Z</time></trkpt><trkpt lat="42.3278308" lon="14.1045629"><ele>47.0</ele><time>2026-05-01T15:48:19.009Z</time></trkpt><trkpt lat="42.3278831" lon="14.1047393"><ele>46.75</ele><time>2026-05-01T15:48:20.008Z</time></trkpt><trkpt lat="42.3279369" lon="14.1049147"><ele>46.5</ele><time>2026-05-01T15:48:21.009Z</time></trkpt><trkpt lat="42.3279943" lon="14.1050908"><ele>46.25</ele><time>2026-05-01T15:48:22.008Z</time></trkpt><trkpt lat="42.3280497" lon="14.1052641"><ele>46.0</ele><time>2026-05-01T15:48:23.008Z</time></trkpt><trkpt lat="42.3281039" lon="14.1054396"><ele>46.0</ele><time>2026-05-01T15:48:24.009Z</time></trkpt><trkpt lat="42.3281571" lon="14.1056135"><ele>46.0</ele><time>2026-05-01T15:48:25.009Z</time></trkpt><trkpt lat="42.3282127" lon="14.1057835"><ele>46.0</ele><time>2026-05-01T15:48:26.009Z</time></trkpt><trkpt lat="42.3282637" lon="14.105944"><ele>46.0</ele><time>2026-05-01T15:48:27.009Z</time></trkpt><trkpt lat="42.3283094" lon="14.1060874"><ele>46.0</ele><time>2026-05-01T15:48:28.009Z</time></trkpt><trkpt lat="42.3283559" lon="14.1062222"><ele>46.0</ele><time>2026-05-01T15:48:29.009Z</time></trkpt><trkpt lat="42.3283987" lon="14.1063456"><ele>46.0</ele><time>2026-05-01T15:48:30.009Z</time></trkpt><trkpt lat="42.3284337" lon="14.1064593"><ele>46.0</ele><time>2026-05-01T15:48:31.009Z</time></trkpt><trkpt lat="42.3284652" lon="14.1065635"><ele>46.0</ele><time>2026-05-01T15:48:32.009Z</time></trkpt><trkpt lat="42.3284925" lon="14.1066642"><ele>46.0</ele><time>2026-05-01T15:48:33.009Z</time></trkpt><trkpt lat="42.3285271" lon="14.106769"><ele>46.0</ele><time>2026-05-01T15:48:34.009Z</time></trkpt><trkpt lat="42.3285655" lon="14.1068799"><ele>46.0</ele><time>2026-05-01T15:48:35.009Z</time></trkpt><trkpt lat="42.3286103" lon="14.1070012"><ele>46.0</ele><time>2026-05-01T15:48:36.009Z</time></trkpt><trkpt lat="42.3286558" lon="14.107139"><ele>46.0</ele><time>2026-05-01T15:48:37.009Z</time></trkpt><trkpt lat="42.3286949" lon="14.1072813"><ele>46.0</ele><time>2026-05-01T15:48:38.009Z</time></trkpt><trkpt lat="42.3287393" lon="14.1074284"><ele>46.0</ele><time>2026-05-01T15:48:39.009Z</time></trkpt><trkpt lat="42.3287882" lon="14.1075897"><ele>46.0</ele><time>2026-05-01T15:48:40.009Z</time></trkpt><trkpt lat="42.3288344" lon="14.1077496"><ele>46.0</ele><time>2026-05-01T15:48:41.009Z</time></trkpt><trkpt lat="42.328886" lon="14.1079156"><ele>44.75</ele><time>2026-05-01T15:48:42.009Z</time></trkpt><trkpt lat="42.3289397" lon="14.108088"><ele>43.5</ele><time>2026-05-01T15:48:43.009Z</time></trkpt><trkpt lat="42.328995" lon="14.1082597"><ele>42.25</ele><time>2026-05-01T15:48:44.009Z</time></trkpt><trkpt lat="42.3290502" lon="14.1084361"><ele>41.0</ele><time>2026-05-01T15:48:45.009Z</time></trkpt><trkpt lat="42.3291084" lon="14.1086173"><ele>41.0</ele><time>2026-05-01T15:48:46.009Z</time></trkpt><trkpt lat="42.3291552" lon="14.1088018"><ele>41.0</ele><time>2026-05-01T15:48:47.009Z</time></trkpt><trkpt lat="42.3292091" lon="14.1089801"><ele>41.0</ele><time>2026-05-01T15:48:48.009Z</time></trkpt><trkpt lat="42.3292651" lon="14.1091497"><ele>41.0</ele><time>2026-05-01T15:48:49.009Z</time></trkpt><trkpt lat="42.329318" lon="14.1093101"><ele>41.5</ele><time>2026-05-01T15:48:50.008Z</time></trkpt><trkpt lat="42.3293678" lon="14.1094663"><ele>42.0</ele><time>2026-05-01T15:48:51.008Z</time></trkpt><trkpt lat="42.3294076" lon="14.1096154"><ele>42.5</ele><time>2026-05-01T15:48:52.009Z</time></trkpt><trkpt lat="42.3294546" lon="14.1097601"><ele>43.0</ele><time>2026-05-01T15:48:53.009Z</time></trkpt><trkpt lat="42.3294992" lon="14.1098969"><ele>43.25</ele><time>2026-05-01T15:48:54.008Z</time></trkpt><trkpt lat="42.3295394" lon="14.1100376"><ele>43.5</ele><time>2026-05-01T15:48:55.008Z</time></trkpt><trkpt lat="42.3295852" lon="14.1101816"><ele>43.75</ele><time>2026-05-01T15:48:56.009Z</time></trkpt><trkpt lat="42.3296308" lon="14.1103244"><ele>44.0</ele><time>2026-05-01T15:48:57.009Z</time></trkpt><trkpt lat="42.3296758" lon="14.1104752"><ele>44.0</ele><time>2026-05-01T15:48:58.009Z</time></trkpt><trkpt lat="42.3297233" lon="14.1106188"><ele>44.0</ele><time>2026-05-01T15:48:59.009Z</time></trkpt><trkpt lat="42.3297696" lon="14.1107558"><ele>44.0</ele><time>2026-05-01T15:49:00.009Z</time></trkpt><trkpt lat="42.3298146" lon="14.1108953"><ele>44.0</ele><time>2026-05-01T15:49:01.009Z</time></trkpt><trkpt lat="42.3298602" lon="14.1110339"><ele>43.75</ele><time>2026-05-01T15:49:02.009Z</time></trkpt><trkpt lat="42.3299104" lon="14.1111831"><ele>43.5</ele><time>2026-05-01T15:49:03.009Z</time></trkpt><trkpt lat="42.329954" lon="14.111332"><ele>43.25</ele><time>2026-05-01T15:49:04.009Z</time></trkpt><trkpt lat="42.3299959" lon="14.1114781"><ele>43.0</ele><time>2026-05-01T15:49:05.009Z</time></trkpt><trkpt lat="42.3300419" lon="14.1116131"><ele>43.0</ele><time>2026-05-01T15:49:06.009Z</time></trkpt><trkpt lat="42.3300838" lon="14.111742"><ele>43.0</ele><time>2026-05-01T15:49:07.009Z</time></trkpt><trkpt lat="42.3301242" lon="14.111868"><ele>43.0</ele><time>2026-05-01T15:49:08.009Z</time></trkpt><trkpt lat="42.33016" lon="14.1119847"><ele>43.0</ele><time>2026-05-01T15:49:09.009Z</time></trkpt><trkpt lat="42.3301922" lon="14.1120985"><ele>43.0</ele><time>2026-05-01T15:49:10.009Z</time></trkpt><trkpt lat="42.330223" lon="14.1122096"><ele>43.0</ele><time>2026-05-01T15:49:11.009Z</time></trkpt><trkpt lat="42.3302537" lon="14.1123212"><ele>43.0</ele><time>2026-05-01T15:49:12.008Z</time></trkpt><trkpt lat="42.3302875" lon="14.11242"><ele>43.0</ele><time>2026-05-01T15:49:13.009Z</time></trkpt><trkpt lat="42.3303218" lon="14.1125264"><ele>43.0</ele><time>2026-05-01T15:49:14.009Z</time></trkpt><trkpt lat="42.3303565" lon="14.1126274"><ele>43.0</ele><time>2026-05-01T15:49:15.009Z</time></trkpt><trkpt lat="42.3303874" lon="14.112726"><ele>43.0</ele><time>2026-05-01T15:49:16.009Z</time></trkpt><trkpt lat="42.3304124" lon="14.1128249"><ele>43.00000000000001</ele><time>2026-05-01T15:49:17.009Z</time></trkpt><trkpt lat="42.3304253" lon="14.1129234"><ele>43.0</ele><time>2026-05-01T15:49:18.009Z</time></trkpt><trkpt lat="42.3304253" lon="14.1130282"><ele>43.0</ele><time>2026-05-01T15:49:19.009Z</time></trkpt><trkpt lat="42.3304288" lon="14.1131181"><ele>43.0</ele><time>2026-05-01T15:49:20.009Z</time></trkpt><trkpt lat="42.3304542" lon="14.1131963"><ele>43.0</ele><time>2026-05-01T15:49:21.009Z</time></trkpt><trkpt lat="42.3305009" lon="14.1132713"><ele>43.00000000000001</ele><time>2026-05-01T15:49:22.009Z</time></trkpt><trkpt lat="42.3305534" lon="14.113335"><ele>43.0</ele><time>2026-05-01T15:49:23.009Z</time></trkpt><trkpt lat="42.3305983" lon="14.1134059"><ele>42.16666666666667</ele><time>2026-05-01T15:49:24.009Z</time></trkpt><trkpt lat="42.330632" lon="14.1134894"><ele>41.333333333333336</ele><time>2026-05-01T15:49:25.009Z</time></trkpt><trkpt lat="42.3306651" lon="14.1135846"><ele>40.5</ele><time>2026-05-01T15:49:26.009Z</time></trkpt><trkpt lat="42.3307005" lon="14.1136928"><ele>39.666666666666664</ele><time>2026-05-01T15:49:27.009Z</time></trkpt><trkpt lat="42.3307388" lon="14.1138102"><ele>38.83333333333333</ele><time>2026-05-01T15:49:28.009Z</time></trkpt><trkpt lat="42.3307815" lon="14.1139365"><ele>38.0</ele><time>2026-05-01T15:49:29.009Z</time></trkpt><trkpt lat="42.3308284" lon="14.1140664"><ele>38.0</ele><time>2026-05-01T15:49:30.009Z</time></trkpt><trkpt lat="42.3308683" lon="14.1142018"><ele>38.0</ele><time>2026-05-01T15:49:31.009Z</time></trkpt><trkpt lat="42.3309104" lon="14.1143344"><ele>38.0</ele><time>2026-05-01T15:49:32.009Z</time></trkpt><trkpt lat="42.3309546" lon="14.1144676"><ele>38.0</ele><time>2026-05-01T15:49:33.009Z</time></trkpt><trkpt lat="42.3309965" lon="14.1146027"><ele>38.0</ele><time>2026-05-01T15:49:34.008Z</time></trkpt><trkpt lat="42.3310415" lon="14.114741"><ele>38.0</ele><time>2026-05-01T15:49:35.009Z</time></trkpt><trkpt lat="42.3310881" lon="14.1148833"><ele>38.0</ele><time>2026-05-01T15:49:36.009Z</time></trkpt><trkpt lat="42.3311328" lon="14.1150306"><ele>38.0</ele><time>2026-05-01T15:49:37.009Z</time></trkpt><trkpt lat="42.3311826" lon="14.1151817"><ele>38.0</ele><time>2026-05-01T15:49:38.009Z</time></trkpt><trkpt lat="42.3312508" lon="14.115369"><ele>38.0</ele><time>2026-05-01T15:49:39.009Z</time></trkpt><trkpt lat="42.3313272" lon="14.1155938"><ele>38.0</ele><time>2026-05-01T15:49:40.009Z</time></trkpt><trkpt lat="42.3314035" lon="14.1158505"><ele>38.0</ele><time>2026-05-01T15:49:41.009Z</time></trkpt><trkpt lat="42.331476" lon="14.1161135"><ele>38.0</ele><time>2026-05-01T15:49:42.009Z</time></trkpt><trkpt lat="42.3315478" lon="14.1163563"><ele>38.0</ele><time>2026-05-01T15:49:43.009Z</time></trkpt><trkpt lat="42.3316139" lon="14.1165828"><ele>38.0</ele><time>2026-05-01T15:49:44.009Z</time></trkpt><trkpt lat="42.3316825" lon="14.1167994"><ele>38.0</ele><time>2026-05-01T15:49:45.009Z</time></trkpt><trkpt lat="42.331745" lon="14.1170087"><ele>38.0</ele><time>2026-05-01T15:49:46.009Z</time></trkpt><trkpt lat="42.3318063" lon="14.1172053"><ele>38.0</ele><time>2026-05-01T15:49:47.009Z</time></trkpt><trkpt lat="42.331864" lon="14.1173921"><ele>38.5</ele><time>2026-05-01T15:49:48.008Z</time></trkpt><trkpt lat="42.3319174" lon="14.1175774"><ele>39.0</ele><time>2026-05-01T15:49:49.009Z</time></trkpt><trkpt lat="42.3319729" lon="14.1177515"><ele>39.5</ele><time>2026-05-01T15:49:50.009Z</time></trkpt><trkpt lat="42.3320252" lon="14.117922"><ele>40.0</ele><time>2026-05-01T15:49:51.009Z</time></trkpt><trkpt lat="42.3320761" lon="14.1180877"><ele>40.0</ele><time>2026-05-01T15:49:52.008Z</time></trkpt><trkpt lat="42.33213" lon="14.1182492"><ele>40.0</ele><time>2026-05-01T15:49:53.009Z</time></trkpt><trkpt lat="42.3321786" lon="14.1184047"><ele>40.0</ele><time>2026-05-01T15:49:54.009Z</time></trkpt><trkpt lat="42.3322235" lon="14.1185459"><ele>40.0</ele><time>2026-05-01T15:49:55.009Z</time></trkpt><trkpt lat="42.332259" lon="14.1186766"><ele>39.6</ele><time>2026-05-01T15:49:56.009Z</time></trkpt><trkpt lat="42.3322991" lon="14.1188095"><ele>39.2</ele><time>2026-05-01T15:49:57.008Z</time></trkpt><trkpt lat="42.3323407" lon="14.1189483"><ele>38.8</ele><time>2026-05-01T15:49:58.008Z</time></trkpt><trkpt lat="42.3323786" lon="14.1190676"><ele>38.4</ele><time>2026-05-01T15:49:59.009Z</time></trkpt><trkpt lat="42.3324117" lon="14.1191692"><ele>38.0</ele><time>2026-05-01T15:50:00.009Z</time></trkpt><trkpt lat="42.3324384" lon="14.1192532"><ele>37.83333333333333</ele><time>2026-05-01T15:50:01.009Z</time></trkpt><trkpt lat="42.3324658" lon="14.1193357"><ele>37.666666666666664</ele><time>2026-05-01T15:50:02.009Z</time></trkpt><trkpt lat="42.3324899" lon="14.1194177"><ele>37.5</ele><time>2026-05-01T15:50:03.009Z</time></trkpt><trkpt lat="42.3325193" lon="14.1195111"><ele>37.333333333333336</ele><time>2026-05-01T15:50:04.009Z</time></trkpt><trkpt lat="42.3325513" lon="14.1196111"><ele>37.16666666666667</ele><time>2026-05-01T15:50:05.009Z</time></trkpt><trkpt lat="42.3325873" lon="14.119715"><ele>37.0</ele><time>2026-05-01T15:50:06.009Z</time></trkpt><trkpt lat="42.3326249" lon="14.1198295"><ele>37.75</ele><time>2026-05-01T15:50:07.009Z</time></trkpt><trkpt lat="42.3326663" lon="14.1199523"><ele>38.5</ele><time>2026-05-01T15:50:08.009Z</time></trkpt><trkpt lat="42.3327066" lon="14.1200917"><ele>39.25</ele><time>2026-05-01T15:50:09.009Z</time></trkpt><trkpt lat="42.3327749" lon="14.1202706"><ele>40.0</ele><time>2026-05-01T15:50:10.009Z</time></trkpt><trkpt lat="42.3328581" lon="14.120499"><ele>40.0</ele><time>2026-05-01T15:50:11.008Z</time></trkpt><trkpt lat="42.3329397" lon="14.120724"><ele>40.0</ele><time>2026-05-01T15:50:12.009Z</time></trkpt><trkpt lat="42.3330289" lon="14.1209784"><ele>40.0</ele><time>2026-05-01T15:50:13.009Z</time></trkpt><trkpt lat="42.3331031" lon="14.1212392"><ele>41.0</ele><time>2026-05-01T15:50:14.009Z</time></trkpt><trkpt lat="42.3332031" lon="14.1215235"><ele>42.0</ele><time>2026-05-01T15:50:15.009Z</time></trkpt><trkpt lat="42.333279" lon="14.1218166"><ele>42.0</ele><time>2026-05-01T15:50:16.009Z</time></trkpt><trkpt lat="42.3333537" lon="14.1220574"><ele>42.0</ele><time>2026-05-01T15:50:17.009Z</time></trkpt><trkpt lat="42.3334397" lon="14.1223068"><ele>42.0</ele><time>2026-05-01T15:50:18.009Z</time></trkpt><trkpt lat="42.3335223" lon="14.1225756"><ele>42.333333333333336</ele><time>2026-05-01T15:50:19.009Z</time></trkpt><trkpt lat="42.3335909" lon="14.1228372"><ele>42.66666666666667</ele><time>2026-05-01T15:50:20.009Z</time></trkpt><trkpt lat="42.3336625" lon="14.1230703"><ele>43.0</ele><time>2026-05-01T15:50:21.009Z</time></trkpt><trkpt lat="42.3337271" lon="14.1232802"><ele>43.0</ele><time>2026-05-01T15:50:22.008Z</time></trkpt><trkpt lat="42.3337888" lon="14.1234902"><ele>43.0</ele><time>2026-05-01T15:50:23.009Z</time></trkpt><trkpt lat="42.3338533" lon="14.1236976"><ele>43.0</ele><time>2026-05-01T15:50:24.009Z</time></trkpt><trkpt lat="42.3339199" lon="14.1239106"><ele>42.333333333333336</ele><time>2026-05-01T15:50:25.009Z</time></trkpt><trkpt lat="42.3339912" lon="14.1241402"><ele>41.666666666666664</ele><time>2026-05-01T15:50:26.009Z</time></trkpt><trkpt lat="42.3340656" lon="14.1243823"><ele>41.0</ele><time>2026-05-01T15:50:27.008Z</time></trkpt><trkpt lat="42.3341434" lon="14.1246373"><ele>41.666666666666664</ele><time>2026-05-01T15:50:28.009Z</time></trkpt><trkpt lat="42.3342262" lon="14.1249018"><ele>42.333333333333336</ele><time>2026-05-01T15:50:29.009Z</time></trkpt><trkpt lat="42.3343104" lon="14.1251659"><ele>43.0</ele><time>2026-05-01T15:50:30.009Z</time></trkpt><trkpt lat="42.3343953" lon="14.1254323"><ele>43.0</ele><time>2026-05-01T15:50:31.009Z</time></trkpt><trkpt lat="42.3344799" lon="14.1256963"><ele>43.0</ele><time>2026-05-01T15:50:32.008Z</time></trkpt><trkpt lat="42.3345572" lon="14.1259388"><ele>43.0</ele><time>2026-05-01T15:50:33.009Z</time></trkpt><trkpt lat="42.334631" lon="14.1261721"><ele>43.66666666666667</ele><time>2026-05-01T15:50:34.009Z</time></trkpt><trkpt lat="42.3347028" lon="14.1264032"><ele>44.333333333333336</ele><time>2026-05-01T15:50:35.009Z</time></trkpt><trkpt lat="42.3347724" lon="14.126633"><ele>45.0</ele><time>2026-05-01T15:50:36.009Z</time></trkpt><trkpt lat="42.3348443" lon="14.1268616"><ele>45.333333333333336</ele><time>2026-05-01T15:50:37.009Z</time></trkpt><trkpt lat="42.3349201" lon="14.1270884"><ele>45.66666666666667</ele><time>2026-05-01T15:50:38.008Z</time></trkpt><trkpt lat="42.3349924" lon="14.1273161"><ele>46.0</ele><time>2026-05-01T15:50:39.008Z</time></trkpt><trkpt lat="42.3350658" lon="14.1275399"><ele>46.66666666666667</ele><time>2026-05-01T15:50:40.008Z</time></trkpt><trkpt lat="42.3351338" lon="14.1277665"><ele>47.333333333333336</ele><time>2026-05-01T15:50:41.008Z</time></trkpt><trkpt lat="42.3352004" lon="14.127978"><ele>48.0</ele><time>2026-05-01T15:50:42.009Z</time></trkpt><trkpt lat="42.3352625" lon="14.1281797"><ele>48.33333333333333</ele><time>2026-05-01T15:50:43.008Z</time></trkpt><trkpt lat="42.3353244" lon="14.1283774"><ele>48.666666666666664</ele><time>2026-05-01T15:50:44.008Z</time></trkpt><trkpt lat="42.3353862" lon="14.1285809"><ele>49.0</ele><time>2026-05-01T15:50:45.008Z</time></trkpt><trkpt lat="42.3354515" lon="14.1287772"><ele>49.0</ele><time>2026-05-01T15:50:46.009Z</time></trkpt><trkpt lat="42.3355139" lon="14.1289692"><ele>49.0</ele><time>2026-05-01T15:50:47.009Z</time></trkpt><trkpt lat="42.3355732" lon="14.1291552"><ele>49.0</ele><time>2026-05-01T15:50:48.009Z</time></trkpt><trkpt lat="42.3356321" lon="14.1293415"><ele>49.25</ele><time>2026-05-01T15:50:49.008Z</time></trkpt><trkpt lat="42.3356927" lon="14.1295246"><ele>49.5</ele><time>2026-05-01T15:50:50.009Z</time></trkpt><trkpt lat="42.3357514" lon="14.1297122"><ele>49.75</ele><time>2026-05-01T15:50:51.009Z</time></trkpt><trkpt lat="42.3358079" lon="14.1298926"><ele>50.0</ele><time>2026-05-01T15:50:52.009Z</time></trkpt><trkpt lat="42.3358638" lon="14.130063"><ele>50.5</ele><time>2026-05-01T15:50:53.008Z</time></trkpt><trkpt lat="42.3359142" lon="14.1302338"><ele>51.0</ele><time>2026-05-01T15:50:54.009Z</time></trkpt><trkpt lat="42.3359643" lon="14.1304043"><ele>51.5</ele><time>2026-05-01T15:50:55.009Z</time></trkpt><trkpt lat="42.3360137" lon="14.1305647"><ele>52.0</ele><time>2026-05-01T15:50:56.009Z</time></trkpt><trkpt lat="42.3360614" lon="14.1307196"><ele>52.0</ele><time>2026-05-01T15:50:57.009Z</time></trkpt><trkpt lat="42.3361029" lon="14.1308679"><ele>52.0</ele><time>2026-05-01T15:50:58.009Z</time></trkpt><trkpt lat="42.3361488" lon="14.1310033"><ele>52.0</ele><time>2026-05-01T15:50:59.009Z</time></trkpt><trkpt lat="42.3361933" lon="14.131135"><ele>52.0</ele><time>2026-05-01T15:51:00.009Z</time></trkpt><trkpt lat="42.336231" lon="14.1312667"><ele>52.0</ele><time>2026-05-01T15:51:01.009Z</time></trkpt><trkpt lat="42.3362745" lon="14.1314065"><ele>52.0</ele><time>2026-05-01T15:51:02.009Z</time></trkpt><trkpt lat="42.3363211" lon="14.1315492"><ele>52.0</ele><time>2026-05-01T15:51:03.009Z</time></trkpt><trkpt lat="42.3363707" lon="14.1316956"><ele>52.0</ele><time>2026-05-01T15:51:04.009Z</time></trkpt><trkpt lat="42.3364243" lon="14.1318449"><ele>52.0</ele><time>2026-05-01T15:51:05.008Z</time></trkpt><trkpt lat="42.3364823" lon="14.1319877"><ele>52.0</ele><time>2026-05-01T15:51:06.009Z</time></trkpt><trkpt lat="42.3365405" lon="14.1321185"><ele>52.0</ele><time>2026-05-01T15:51:07.008Z</time></trkpt><trkpt lat="42.3366137" lon="14.1322399"><ele>52.0</ele><time>2026-05-01T15:51:08.008Z</time></trkpt><trkpt lat="42.3366973" lon="14.1323584"><ele>52.0</ele><time>2026-05-01T15:51:09.009Z</time></trkpt><trkpt lat="42.3367888" lon="14.1324661"><ele>52.5</ele><time>2026-05-01T15:51:10.009Z</time></trkpt><trkpt lat="42.3368829" lon="14.1325664"><ele>53.0</ele><time>2026-05-01T15:51:11.009Z</time></trkpt><trkpt lat="42.3369782" lon="14.1326536"><ele>53.5</ele><time>2026-05-01T15:51:12.009Z</time></trkpt><trkpt lat="42.3370785" lon="14.1327321"><ele>54.0</ele><time>2026-05-01T15:51:13.009Z</time></trkpt><trkpt lat="42.3371815" lon="14.1327937"><ele>54.2</ele><time>2026-05-01T15:51:14.009Z</time></trkpt><trkpt lat="42.3372807" lon="14.1328539"><ele>54.400000000000006</ele><time>2026-05-01T15:51:15.009Z</time></trkpt><trkpt lat="42.3373842" lon="14.1329014"><ele>54.6</ele><time>2026-05-01T15:51:16.008Z</time></trkpt><trkpt lat="42.3374877" lon="14.132938"><ele>54.8</ele><time>2026-05-01T15:51:17.009Z</time></trkpt><trkpt lat="42.3376012" lon="14.1329732"><ele>55.0</ele><time>2026-05-01T15:51:18.008Z</time></trkpt><trkpt lat="42.3377062" lon="14.1330042"><ele>55.0</ele><time>2026-05-01T15:51:19.009Z</time></trkpt><trkpt lat="42.3378138" lon="14.1330345"><ele>55.0</ele><time>2026-05-01T15:51:20.009Z</time></trkpt><trkpt lat="42.3379285" lon="14.1330765"><ele>55.0</ele><time>2026-05-01T15:51:21.009Z</time></trkpt><trkpt lat="42.3380434" lon="14.1331019"><ele>55.0</ele><time>2026-05-01T15:51:22.008Z</time></trkpt><trkpt lat="42.338176" lon="14.1331346"><ele>55.0</ele><time>2026-05-01T15:51:23.009Z</time></trkpt><trkpt lat="42.3383295" lon="14.133183"><ele>55.0</ele><time>2026-05-01T15:51:24.009Z</time></trkpt><trkpt lat="42.3385003" lon="14.1332434"><ele>55.0</ele><time>2026-05-01T15:51:25.009Z</time></trkpt><trkpt lat="42.3386821" lon="14.1332979"><ele>55.0</ele><time>2026-05-01T15:51:26.009Z</time></trkpt><trkpt lat="42.3388611" lon="14.1333489"><ele>55.0</ele><time>2026-05-01T15:51:27.009Z</time></trkpt><trkpt lat="42.3390395" lon="14.1334084"><ele>55.0</ele><time>2026-05-01T15:51:28.009Z</time></trkpt><trkpt lat="42.33921" lon="14.1334624"><ele>55.33333333333333</ele><time>2026-05-01T15:51:29.009Z</time></trkpt><trkpt lat="42.3393695" lon="14.1335125"><ele>55.66666666666667</ele><time>2026-05-01T15:51:30.009Z</time></trkpt><trkpt lat="42.3395227" lon="14.1335596"><ele>56.0</ele><time>2026-05-01T15:51:31.009Z</time></trkpt><trkpt lat="42.3396724" lon="14.1335991"><ele>55.75</ele><time>2026-05-01T15:51:32.009Z</time></trkpt><trkpt lat="42.3398136" lon="14.1336358"><ele>55.5</ele><time>2026-05-01T15:51:33.009Z</time></trkpt><trkpt lat="42.3399501" lon="14.1336774"><ele>55.25</ele><time>2026-05-01T15:51:34.009Z</time></trkpt><trkpt lat="42.340079" lon="14.1337177"><ele>55.0</ele><time>2026-05-01T15:51:35.009Z</time></trkpt><trkpt lat="42.3401892" lon="14.1337532"><ele>55.0</ele><time>2026-05-01T15:51:36.009Z</time></trkpt><trkpt lat="42.3402821" lon="14.1337887"><ele>55.0</ele><time>2026-05-01T15:51:37.009Z</time></trkpt><trkpt lat="42.3403676" lon="14.1338277"><ele>55.0</ele><time>2026-05-01T15:51:38.009Z</time></trkpt><trkpt lat="42.3404346" lon="14.1338887"><ele>55.0</ele><time>2026-05-01T15:51:39.008Z</time></trkpt><trkpt lat="42.3404962" lon="14.1339516"><ele>55.0</ele><time>2026-05-01T15:51:40.009Z</time></trkpt><trkpt lat="42.3405965" lon="14.133997"><ele>54.6</ele><time>2026-05-01T15:51:42.009Z</time></trkpt><trkpt lat="42.340674" lon="14.1339209"><ele>54.2</ele><time>2026-05-01T15:51:44.009Z</time></trkpt><trkpt lat="42.3406883" lon="14.1337754"><ele>53.8</ele><time>2026-05-01T15:51:46.009Z</time></trkpt><trkpt lat="42.3406502" lon="14.1336347"><ele>53.4</ele><time>2026-05-01T15:51:48.009Z</time></trkpt><trkpt lat="42.3406802" lon="14.1334679"><ele>53.0</ele><time>2026-05-01T15:51:50.008Z</time></trkpt><trkpt lat="42.3407202" lon="14.1333749"><ele>53.0</ele><time>2026-05-01T15:51:51.009Z</time></trkpt><trkpt lat="42.3407702" lon="14.1332725"><ele>53.0</ele><time>2026-05-01T15:51:52.009Z</time></trkpt><trkpt lat="42.3408286" lon="14.1331639"><ele>53.0</ele><time>2026-05-01T15:51:53.009Z</time></trkpt><trkpt lat="42.3408891" lon="14.1330501"><ele>53.0</ele><time>2026-05-01T15:51:54.009Z</time></trkpt><trkpt lat="42.3409503" lon="14.1329396"><ele>53.0</ele><time>2026-05-01T15:51:55.008Z</time></trkpt><trkpt lat="42.3410128" lon="14.1328352"><ele>52.66666666666667</ele><time>2026-05-01T15:51:56.009Z</time></trkpt><trkpt lat="42.3410706" lon="14.1327401"><ele>52.333333333333336</ele><time>2026-05-01T15:51:57.008Z</time></trkpt><trkpt lat="42.3411289" lon="14.1326511"><ele>52.0</ele><time>2026-05-01T15:51:58.009Z</time></trkpt><trkpt lat="42.3411914" lon="14.1325624"><ele>51.66666666666667</ele><time>2026-05-01T15:51:59.009Z</time></trkpt><trkpt lat="42.3412474" lon="14.1324797"><ele>51.333333333333336</ele><time>2026-05-01T15:52:00.009Z</time></trkpt><trkpt lat="42.3413018" lon="14.1323986"><ele>51.0</ele><time>2026-05-01T15:52:01.009Z</time></trkpt><trkpt lat="42.3413564" lon="14.1323199"><ele>50.5</ele><time>2026-05-01T15:52:02.009Z</time></trkpt><trkpt lat="42.3414043" lon="14.132242"><ele>50.0</ele><time>2026-05-01T15:52:03.008Z</time></trkpt><trkpt lat="42.3414464" lon="14.1321602"><ele>49.5</ele><time>2026-05-01T15:52:04.009Z</time></trkpt><trkpt lat="42.341483" lon="14.1320657"><ele>49.0</ele><time>2026-05-01T15:52:05.009Z</time></trkpt><trkpt lat="42.3415167" lon="14.1319571"><ele>48.5</ele><time>2026-05-01T15:52:06.009Z</time></trkpt><trkpt lat="42.3415463" lon="14.131849"><ele>48.0</ele><time>2026-05-01T15:52:07.008Z</time></trkpt><trkpt lat="42.3415711" lon="14.131746"><ele>48.0</ele><time>2026-05-01T15:52:08.009Z</time></trkpt><trkpt lat="42.3415963" lon="14.1316522"><ele>48.0</ele><time>2026-05-01T15:52:09.009Z</time></trkpt><trkpt lat="42.3416312" lon="14.1315525"><ele>48.0</ele><time>2026-05-01T15:52:10.009Z</time></trkpt><trkpt lat="42.3416626" lon="14.1314724"><ele>48.0</ele><time>2026-05-01T15:52:11.009Z</time></trkpt><trkpt lat="42.3417226" lon="14.1313245"><ele>48.0</ele><time>2026-05-01T15:52:13.009Z</time></trkpt><trkpt lat="42.34176" lon="14.1312532"><ele>48.0</ele><time>2026-05-01T15:52:14.009Z</time></trkpt><trkpt lat="42.3418005" lon="14.1311809"><ele>47.833333333333336</ele><time>2026-05-01T15:52:15.009Z</time></trkpt><trkpt lat="42.3418297" lon="14.1310917"><ele>47.666666666666664</ele><time>2026-05-01T15:52:16.009Z</time></trkpt><trkpt lat="42.3418443" lon="14.1309798"><ele>47.5</ele><time>2026-05-01T15:52:17.009Z</time></trkpt><trkpt lat="42.3418606" lon="14.1308624"><ele>47.33333333333333</ele><time>2026-05-01T15:52:18.009Z</time></trkpt><trkpt lat="42.3418851" lon="14.1307417"><ele>47.166666666666664</ele><time>2026-05-01T15:52:19.009Z</time></trkpt><trkpt lat="42.3419136" lon="14.130626"><ele>47.0</ele><time>2026-05-01T15:52:20.009Z</time></trkpt><trkpt lat="42.341937" lon="14.1305118"><ele>46.8</ele><time>2026-05-01T15:52:21.009Z</time></trkpt><trkpt lat="42.3419588" lon="14.1304023"><ele>46.6</ele><time>2026-05-01T15:52:22.009Z</time></trkpt><trkpt lat="42.3419765" lon="14.1303017"><ele>46.4</ele><time>2026-05-01T15:52:23.009Z</time></trkpt><trkpt lat="42.3420111" lon="14.1301417"><ele>46.199999999999996</ele><time>2026-05-01T15:52:25.009Z</time></trkpt><trkpt lat="42.3420228" lon="14.1300562"><ele>46.0</ele><time>2026-05-01T15:52:26.009Z</time></trkpt><trkpt lat="42.3420306" lon="14.1299019"><ele>45.599999999999994</ele><time>2026-05-01T15:52:28.009Z</time></trkpt><trkpt lat="42.3420449" lon="14.1297785"><ele>45.2</ele><time>2026-05-01T15:52:30.009Z</time></trkpt><trkpt lat="42.3421078" lon="14.129636"><ele>44.8</ele><time>2026-05-01T15:52:32.009Z</time></trkpt><trkpt lat="42.3421521" lon="14.1295529"><ele>44.400000000000006</ele><time>2026-05-01T15:52:33.009Z</time></trkpt><trkpt lat="42.3421809" lon="14.1294664"><ele>44.0</ele><time>2026-05-01T15:52:34.008Z</time></trkpt><trkpt lat="42.3421768" lon="14.129331"><ele>44.0</ele><time>2026-05-01T15:52:36.009Z</time></trkpt><trkpt lat="42.342106" lon="14.1292183"><ele>44.0</ele><time>2026-05-01T15:52:38.009Z</time></trkpt><trkpt lat="42.3420501" lon="14.1291732"><ele>44.0</ele><time>2026-05-01T15:52:39.009Z</time></trkpt><trkpt lat="42.3419896" lon="14.1291139"><ele>44.0</ele><time>2026-05-01T15:52:40.008Z</time></trkpt><trkpt lat="42.3419367" lon="14.1290345"><ele>44.0</ele><time>2026-05-01T15:52:41.009Z</time></trkpt><trkpt lat="42.3418959" lon="14.128928"><ele>44.0</ele><time>2026-05-01T15:52:42.009Z</time></trkpt><trkpt lat="42.3418667" lon="14.1288044"><ele>42.75</ele><time>2026-05-01T15:52:43.009Z</time></trkpt><trkpt lat="42.3418339" lon="14.128661"><ele>41.5</ele><time>2026-05-01T15:52:44.009Z</time></trkpt><trkpt lat="42.3417979" lon="14.1285007"><ele>40.25</ele><time>2026-05-01T15:52:45.009Z</time></trkpt><trkpt lat="42.34176" lon="14.1283125"><ele>39.0</ele><time>2026-05-01T15:52:46.009Z</time></trkpt><trkpt lat="42.341714" lon="14.1280954"><ele>38.333333333333336</ele><time>2026-05-01T15:52:47.009Z</time></trkpt><trkpt lat="42.3416656" lon="14.1278528"><ele>37.66666666666667</ele><time>2026-05-01T15:52:48.009Z</time></trkpt><trkpt lat="42.3416203" lon="14.1275815"><ele>37.0</ele><time>2026-05-01T15:52:49.009Z</time></trkpt><trkpt lat="42.3415796" lon="14.1272893"><ele>36.0</ele><time>2026-05-01T15:52:50.009Z</time></trkpt><trkpt lat="42.3415323" lon="14.1269808"><ele>35.0</ele><time>2026-05-01T15:52:51.009Z</time></trkpt><trkpt lat="42.3414819" lon="14.1266858"><ele>35.0</ele><time>2026-05-01T15:52:52.009Z</time></trkpt><trkpt lat="42.341436" lon="14.1264054"><ele>35.0</ele><time>2026-05-01T15:52:53.009Z</time></trkpt><trkpt lat="42.34139" lon="14.1261281"><ele>35.0</ele><time>2026-05-01T15:52:54.009Z</time></trkpt><trkpt lat="42.3413436" lon="14.1258462"><ele>34.666666666666664</ele><time>2026-05-01T15:52:55.009Z</time></trkpt><trkpt lat="42.3412956" lon="14.1255658"><ele>34.333333333333336</ele><time>2026-05-01T15:52:56.008Z</time></trkpt><trkpt lat="42.3412459" lon="14.1252809"><ele>34.0</ele><time>2026-05-01T15:52:57.009Z</time></trkpt><trkpt lat="42.3411988" lon="14.1249946"><ele>34.333333333333336</ele><time>2026-05-01T15:52:58.009Z</time></trkpt><trkpt lat="42.3411498" lon="14.1247057"><ele>34.666666666666664</ele><time>2026-05-01T15:52:59.009Z</time></trkpt><trkpt lat="42.3411029" lon="14.124414"><ele>35.0</ele><time>2026-05-01T15:53:00.009Z</time></trkpt><trkpt lat="42.3410549" lon="14.1241214"><ele>35.33333333333333</ele><time>2026-05-01T15:53:01.008Z</time></trkpt><trkpt lat="42.341006" lon="14.1238304"><ele>35.666666666666664</ele><time>2026-05-01T15:53:02.009Z</time></trkpt><trkpt lat="42.340962" lon="14.123551"><ele>36.0</ele><time>2026-05-01T15:53:03.009Z</time></trkpt><trkpt lat="42.3409182" lon="14.1232885"><ele>35.666666666666664</ele><time>2026-05-01T15:53:04.009Z</time></trkpt><trkpt lat="42.3408779" lon="14.1230449"><ele>35.33333333333333</ele><time>2026-05-01T15:53:05.009Z</time></trkpt><trkpt lat="42.340838" lon="14.1228113"><ele>35.0</ele><time>2026-05-01T15:53:06.009Z</time></trkpt><trkpt lat="42.3408067" lon="14.122592"><ele>34.75</ele><time>2026-05-01T15:53:07.009Z</time></trkpt><trkpt lat="42.3407952" lon="14.1223779"><ele>34.5</ele><time>2026-05-01T15:53:08.009Z</time></trkpt><trkpt lat="42.3407995" lon="14.1221809"><ele>34.25</ele><time>2026-05-01T15:53:09.009Z</time></trkpt><trkpt lat="42.3408124" lon="14.1220149"><ele>34.0</ele><time>2026-05-01T15:53:10.008Z</time></trkpt><trkpt lat="42.3408408" lon="14.121883"><ele>33.99999999999999</ele><time>2026-05-01T15:53:11.009Z</time></trkpt><trkpt lat="42.3408759" lon="14.1217778"><ele>34.0</ele><time>2026-05-01T15:53:12.009Z</time></trkpt><trkpt lat="42.3409177" lon="14.1217009"><ele>34.0</ele><time>2026-05-01T15:53:13.009Z</time></trkpt><trkpt lat="42.3409741" lon="14.1216472"><ele>34.0</ele><time>2026-05-01T15:53:14.009Z</time></trkpt><trkpt lat="42.3410292" lon="14.1216019"><ele>34.0</ele><time>2026-05-01T15:53:15.009Z</time></trkpt><trkpt lat="42.3410907" lon="14.1215653"><ele>33.99999999999999</ele><time>2026-05-01T15:53:16.009Z</time></trkpt><trkpt lat="42.3411418" lon="14.1215099"><ele>34.0</ele><time>2026-05-01T15:53:17.009Z</time></trkpt><trkpt lat="42.3411808" lon="14.1214281"><ele>33.333333333333336</ele><time>2026-05-01T15:53:18.009Z</time></trkpt><trkpt lat="42.341201" lon="14.1213273"><ele>32.66666666666667</ele><time>2026-05-01T15:53:19.008Z</time></trkpt><trkpt lat="42.3412051" lon="14.1212155"><ele>32.0</ele><time>2026-05-01T15:53:20.009Z</time></trkpt><trkpt lat="42.3412073" lon="14.1211001"><ele>31.333333333333336</ele><time>2026-05-01T15:53:21.009Z</time></trkpt><trkpt lat="42.3412328" lon="14.1209857"><ele>30.666666666666668</ele><time>2026-05-01T15:53:22.008Z</time></trkpt><trkpt lat="42.3412801" lon="14.1208708"><ele>30.0</ele><time>2026-05-01T15:53:23.008Z</time></trkpt><trkpt lat="42.3413466" lon="14.1207309"><ele>31.0</ele><time>2026-05-01T15:53:24.009Z</time></trkpt><trkpt lat="42.3414264" lon="14.1205648"><ele>32.0</ele><time>2026-05-01T15:53:25.009Z</time></trkpt><trkpt lat="42.3415219" lon="14.1203843"><ele>33.0</ele><time>2026-05-01T15:53:26.009Z</time></trkpt><trkpt lat="42.3416362" lon="14.1201932"><ele>33.0</ele><time>2026-05-01T15:53:27.008Z</time></trkpt><trkpt lat="42.341758" lon="14.1199903"><ele>33.0</ele><time>2026-05-01T15:53:28.008Z</time></trkpt><trkpt lat="42.3418816" lon="14.1197772"><ele>33.0</ele><time>2026-05-01T15:53:29.009Z</time></trkpt><trkpt lat="42.3419937" lon="14.1195688"><ele>33.0</ele><time>2026-05-01T15:53:30.009Z</time></trkpt><trkpt lat="42.3421013" lon="14.1193721"><ele>33.0</ele><time>2026-05-01T15:53:31.008Z</time></trkpt><trkpt lat="42.3422058" lon="14.1191798"><ele>33.0</ele><time>2026-05-01T15:53:32.008Z</time></trkpt><trkpt lat="42.3422977" lon="14.1189905"><ele>33.0</ele><time>2026-05-01T15:53:33.008Z</time></trkpt><trkpt lat="42.3423823" lon="14.1187969"><ele>33.0</ele><time>2026-05-01T15:53:34.009Z</time></trkpt><trkpt lat="42.3424549" lon="14.1185963"><ele>33.0</ele><time>2026-05-01T15:53:35.009Z</time></trkpt><trkpt lat="42.3425129" lon="14.1183807"><ele>35.0</ele><time>2026-05-01T15:53:36.009Z</time></trkpt><trkpt lat="42.3425628" lon="14.1181611"><ele>37.0</ele><time>2026-05-01T15:53:37.009Z</time></trkpt><trkpt lat="42.3426046" lon="14.1179317"><ele>39.0</ele><time>2026-05-01T15:53:38.009Z</time></trkpt><trkpt lat="42.3426447" lon="14.1176991"><ele>39.0</ele><time>2026-05-01T15:53:39.009Z</time></trkpt><trkpt lat="42.3426883" lon="14.1174715"><ele>39.0</ele><time>2026-05-01T15:53:40.009Z</time></trkpt><trkpt lat="42.3427299" lon="14.117252"><ele>39.0</ele><time>2026-05-01T15:53:41.008Z</time></trkpt><trkpt lat="42.342776" lon="14.1170298"><ele>41.0</ele><time>2026-05-01T15:53:42.009Z</time></trkpt><trkpt lat="42.3428136" lon="14.1168358"><ele>43.0</ele><time>2026-05-01T15:53:43.009Z</time></trkpt><trkpt lat="42.3428515" lon="14.1166169"><ele>45.0</ele><time>2026-05-01T15:53:44.009Z</time></trkpt><trkpt lat="42.3428936" lon="14.116397"><ele>45.333333333333336</ele><time>2026-05-01T15:53:45.009Z</time></trkpt><trkpt lat="42.3429359" lon="14.1161827"><ele>45.66666666666667</ele><time>2026-05-01T15:53:46.009Z</time></trkpt><trkpt lat="42.3429704" lon="14.1159835"><ele>46.0</ele><time>2026-05-01T15:53:47.009Z</time></trkpt><trkpt lat="42.3430056" lon="14.1157886"><ele>46.5</ele><time>2026-05-01T15:53:48.009Z</time></trkpt><trkpt lat="42.3430383" lon="14.1156028"><ele>47.0</ele><time>2026-05-01T15:53:49.009Z</time></trkpt><trkpt lat="42.3430723" lon="14.1154198"><ele>47.5</ele><time>2026-05-01T15:53:50.008Z</time></trkpt><trkpt lat="42.3431001" lon="14.1152387"><ele>48.0</ele><time>2026-05-01T15:53:51.008Z</time></trkpt><trkpt lat="42.3431281" lon="14.1150537"><ele>48.0</ele><time>2026-05-01T15:53:52.009Z</time></trkpt><trkpt lat="42.3431525" lon="14.1148716"><ele>48.0</ele><time>2026-05-01T15:53:53.009Z</time></trkpt><trkpt lat="42.3431757" lon="14.1146822"><ele>48.0</ele><time>2026-05-01T15:53:54.009Z</time></trkpt><trkpt lat="42.3431998" lon="14.1144903"><ele>48.0</ele><time>2026-05-01T15:53:55.009Z</time></trkpt><trkpt lat="42.3432253" lon="14.1142983"><ele>48.0</ele><time>2026-05-01T15:53:56.009Z</time></trkpt><trkpt lat="42.3432514" lon="14.1141067"><ele>48.0</ele><time>2026-05-01T15:53:57.009Z</time></trkpt><trkpt lat="42.3432767" lon="14.1139175"><ele>48.0</ele><time>2026-05-01T15:53:58.009Z</time></trkpt><trkpt lat="42.3433003" lon="14.1137281"><ele>48.0</ele><time>2026-05-01T15:53:59.009Z</time></trkpt><trkpt lat="42.3433257" lon="14.1135375"><ele>47.75</ele><time>2026-05-01T15:54:00.009Z</time></trkpt><trkpt lat="42.3433514" lon="14.1133496"><ele>47.5</ele><time>2026-05-01T15:54:01.009Z</time></trkpt><trkpt lat="42.3433763" lon="14.1131587"><ele>47.25</ele><time>2026-05-01T15:54:02.009Z</time></trkpt><trkpt lat="42.3433975" lon="14.1129753"><ele>47.0</ele><time>2026-05-01T15:54:03.009Z</time></trkpt><trkpt lat="42.3434139" lon="14.1128067"><ele>47.0</ele><time>2026-05-01T15:54:04.009Z</time></trkpt><trkpt lat="42.3434386" lon="14.112638"><ele>47.0</ele><time>2026-05-01T15:54:05.009Z</time></trkpt><trkpt lat="42.3434606" lon="14.1124835"><ele>47.0</ele><time>2026-05-01T15:54:06.009Z</time></trkpt><trkpt lat="42.3434811" lon="14.1123381"><ele>47.0</ele><time>2026-05-01T15:54:07.008Z</time></trkpt><trkpt lat="42.3434997" lon="14.1122046"><ele>47.0</ele><time>2026-05-01T15:54:08.009Z</time></trkpt><trkpt lat="42.3435164" lon="14.112079"><ele>47.0</ele><time>2026-05-01T15:54:09.008Z</time></trkpt><trkpt lat="42.3435317" lon="14.1119602"><ele>47.0</ele><time>2026-05-01T15:54:10.009Z</time></trkpt><trkpt lat="42.3435487" lon="14.1118488"><ele>47.0</ele><time>2026-05-01T15:54:11.009Z</time></trkpt><trkpt lat="42.3435639" lon="14.111747"><ele>47.0</ele><time>2026-05-01T15:54:12.009Z</time></trkpt><trkpt lat="42.343582" lon="14.1116523"><ele>47.0</ele><time>2026-05-01T15:54:13.009Z</time></trkpt><trkpt lat="42.3436082" lon="14.1115651"><ele>47.2</ele><time>2026-05-01T15:54:14.009Z</time></trkpt><trkpt lat="42.3436863" lon="14.1114666"><ele>47.400000000000006</ele><time>2026-05-01T15:54:16.009Z</time></trkpt><trkpt lat="42.3437979" lon="14.1114829"><ele>47.599999999999994</ele><time>2026-05-01T15:54:18.009Z</time></trkpt><trkpt lat="42.3439188" lon="14.1115724"><ele>47.8</ele><time>2026-05-01T15:54:20.008Z</time></trkpt><trkpt lat="42.3439972" lon="14.1116209"><ele>48.0</ele><time>2026-05-01T15:54:21.008Z</time></trkpt><trkpt lat="42.3440864" lon="14.1116726"><ele>48.0</ele><time>2026-05-01T15:54:22.008Z</time></trkpt><trkpt lat="42.3442016" lon="14.1117345"><ele>48.0</ele><time>2026-05-01T15:54:23.008Z</time></trkpt><trkpt lat="42.3443283" lon="14.1118111"><ele>48.0</ele><time>2026-05-01T15:54:24.009Z</time></trkpt><trkpt lat="42.3444594" lon="14.1118991"><ele>48.0</ele><time>2026-05-01T15:54:25.009Z</time></trkpt><trkpt lat="42.3445954" lon="14.1120001"><ele>47.25</ele><time>2026-05-01T15:54:26.008Z</time></trkpt><trkpt lat="42.3447267" lon="14.1120926"><ele>46.5</ele><time>2026-05-01T15:54:27.009Z</time></trkpt><trkpt lat="42.3448484" lon="14.1121783"><ele>45.75</ele><time>2026-05-01T15:54:28.009Z</time></trkpt><trkpt lat="42.3449685" lon="14.1122567"><ele>45.0</ele><time>2026-05-01T15:54:29.009Z</time></trkpt><trkpt lat="42.3450925" lon="14.1123287"><ele>45.0</ele><time>2026-05-01T15:54:30.008Z</time></trkpt><trkpt lat="42.3452123" lon="14.1123835"><ele>45.0</ele><time>2026-05-01T15:54:31.009Z</time></trkpt><trkpt lat="42.3453391" lon="14.1124312"><ele>45.0</ele><time>2026-05-01T15:54:32.009Z</time></trkpt><trkpt lat="42.3454715" lon="14.1124766"><ele>45.0</ele><time>2026-05-01T15:54:33.009Z</time></trkpt><trkpt lat="42.3456103" lon="14.1125164"><ele>45.25</ele><time>2026-05-01T15:54:34.009Z</time></trkpt><trkpt lat="42.3457531" lon="14.1125545"><ele>45.5</ele><time>2026-05-01T15:54:35.009Z</time></trkpt><trkpt lat="42.3458985" lon="14.1125871"><ele>45.75</ele><time>2026-05-01T15:54:36.009Z</time></trkpt><trkpt lat="42.3460481" lon="14.1126349"><ele>46.0</ele><time>2026-05-01T15:54:37.009Z</time></trkpt><trkpt lat="42.3461992" lon="14.1126931"><ele>46.0</ele><time>2026-05-01T15:54:38.008Z</time></trkpt><trkpt lat="42.3463526" lon="14.1127607"><ele>46.0</ele><time>2026-05-01T15:54:39.009Z</time></trkpt><trkpt lat="42.3465059" lon="14.1128332"><ele>46.0</ele><time>2026-05-01T15:54:40.009Z</time></trkpt><trkpt lat="42.3466634" lon="14.1129078"><ele>45.333333333333336</ele><time>2026-05-01T15:54:41.009Z</time></trkpt><trkpt lat="42.346819" lon="14.1129898"><ele>44.666666666666664</ele><time>2026-05-01T15:54:42.009Z</time></trkpt><trkpt lat="42.3469799" lon="14.113068"><ele>44.0</ele><time>2026-05-01T15:54:43.009Z</time></trkpt><trkpt lat="42.3471451" lon="14.1131432"><ele>44.33333333333333</ele><time>2026-05-01T15:54:44.009Z</time></trkpt><trkpt lat="42.3473019" lon="14.113223"><ele>44.666666666666664</ele><time>2026-05-01T15:54:45.009Z</time></trkpt><trkpt lat="42.347457" lon="14.1133045"><ele>45.0</ele><time>2026-05-01T15:54:46.009Z</time></trkpt><trkpt lat="42.3476051" lon="14.1133744"><ele>45.0</ele><time>2026-05-01T15:54:47.009Z</time></trkpt><trkpt lat="42.3477498" lon="14.1134478"><ele>45.0</ele><time>2026-05-01T15:54:48.009Z</time></trkpt><trkpt lat="42.3478853" lon="14.1135136"><ele>45.0</ele><time>2026-05-01T15:54:49.009Z</time></trkpt><trkpt lat="42.3480157" lon="14.1135802"><ele>45.0</ele><time>2026-05-01T15:54:50.009Z</time></trkpt><trkpt lat="42.3481437" lon="14.1136249"><ele>45.0</ele><time>2026-05-01T15:54:51.009Z</time></trkpt><trkpt lat="42.3482713" lon="14.1136535"><ele>45.0</ele><time>2026-05-01T15:54:52.009Z</time></trkpt><trkpt lat="42.348389" lon="14.1136445"><ele>45.0</ele><time>2026-05-01T15:54:53.009Z</time></trkpt><trkpt lat="42.3485105" lon="14.1136044"><ele>45.0</ele><time>2026-05-01T15:54:54.009Z</time></trkpt><trkpt lat="42.348632" lon="14.1135348"><ele>45.0</ele><time>2026-05-01T15:54:55.009Z</time></trkpt><trkpt lat="42.3487623" lon="14.1134582"><ele>45.0</ele><time>2026-05-01T15:54:56.009Z</time></trkpt><trkpt lat="42.3488923" lon="14.1133786"><ele>45.0</ele><time>2026-05-01T15:54:57.009Z</time></trkpt><trkpt lat="42.3490273" lon="14.1132958"><ele>45.0</ele><time>2026-05-01T15:54:58.009Z</time></trkpt><trkpt lat="42.3491622" lon="14.1132087"><ele>44.0</ele><time>2026-05-01T15:54:59.009Z</time></trkpt><trkpt lat="42.3492947" lon="14.113118"><ele>43.0</ele><time>2026-05-01T15:55:00.008Z</time></trkpt><trkpt lat="42.34942" lon="14.1130333"><ele>42.0</ele><time>2026-05-01T15:55:01.009Z</time></trkpt><trkpt lat="42.3495439" lon="14.1129479"><ele>41.0</ele><time>2026-05-01T15:55:02.009Z</time></trkpt><trkpt lat="42.3496642" lon="14.1128638"><ele>41.75</ele><time>2026-05-01T15:55:03.009Z</time></trkpt><trkpt lat="42.3497869" lon="14.1127775"><ele>42.5</ele><time>2026-05-01T15:55:04.009Z</time></trkpt><trkpt lat="42.3499146" lon="14.1126941"><ele>43.25</ele><time>2026-05-01T15:55:05.009Z</time></trkpt><trkpt lat="42.3500501" lon="14.1126199"><ele>44.0</ele><time>2026-05-01T15:55:06.009Z</time></trkpt><trkpt lat="42.3501939" lon="14.1125627"><ele>44.0</ele><time>2026-05-01T15:55:07.009Z</time></trkpt><trkpt lat="42.3503502" lon="14.1125207"><ele>44.0</ele><time>2026-05-01T15:55:08.009Z</time></trkpt><trkpt lat="42.350516" lon="14.1124958"><ele>44.0</ele><time>2026-05-01T15:55:09.009Z</time></trkpt><trkpt lat="42.3506872" lon="14.1124954"><ele>44.0</ele><time>2026-05-01T15:55:10.009Z</time></trkpt><trkpt lat="42.3508628" lon="14.1125187"><ele>44.0</ele><time>2026-05-01T15:55:11.009Z</time></trkpt><trkpt lat="42.3510423" lon="14.1125698"><ele>44.0</ele><time>2026-05-01T15:55:12.009Z</time></trkpt><trkpt lat="42.3512258" lon="14.1126341"><ele>42.666666666666664</ele><time>2026-05-01T15:55:13.008Z</time></trkpt><trkpt lat="42.3514171" lon="14.1127113"><ele>41.333333333333336</ele><time>2026-05-01T15:55:14.009Z</time></trkpt><trkpt lat="42.3516159" lon="14.1127903"><ele>40.0</ele><time>2026-05-01T15:55:15.008Z</time></trkpt><trkpt lat="42.3518093" lon="14.1128772"><ele>40.0</ele><time>2026-05-01T15:55:16.009Z</time></trkpt><trkpt lat="42.3519836" lon="14.1129583"><ele>40.0</ele><time>2026-05-01T15:55:17.009Z</time></trkpt><trkpt lat="42.3521515" lon="14.1130313"><ele>40.0</ele><time>2026-05-01T15:55:18.009Z</time></trkpt><trkpt lat="42.3523168" lon="14.1130947"><ele>38.66666666666667</ele><time>2026-05-01T15:55:19.008Z</time></trkpt><trkpt lat="42.3524783" lon="14.1131586"><ele>37.333333333333336</ele><time>2026-05-01T15:55:20.009Z</time></trkpt><trkpt lat="42.3526344" lon="14.1132224"><ele>36.0</ele><time>2026-05-01T15:55:21.009Z</time></trkpt><trkpt lat="42.3527945" lon="14.1132905"><ele>36.0</ele><time>2026-05-01T15:55:22.009Z</time></trkpt><trkpt lat="42.3529678" lon="14.1133546"><ele>36.0</ele><time>2026-05-01T15:55:23.008Z</time></trkpt><trkpt lat="42.3531491" lon="14.1134294"><ele>36.0</ele><time>2026-05-01T15:55:24.009Z</time></trkpt><trkpt lat="42.3533393" lon="14.1135076"><ele>36.0</ele><time>2026-05-01T15:55:25.009Z</time></trkpt><trkpt lat="42.3535326" lon="14.1135926"><ele>36.0</ele><time>2026-05-01T15:55:26.009Z</time></trkpt><trkpt lat="42.3537384" lon="14.1136752"><ele>36.0</ele><time>2026-05-01T15:55:27.009Z</time></trkpt><trkpt lat="42.3539455" lon="14.113757"><ele>36.0</ele><time>2026-05-01T15:55:28.008Z</time></trkpt><trkpt lat="42.3541544" lon="14.1138382"><ele>36.0</ele><time>2026-05-01T15:55:29.009Z</time></trkpt><trkpt lat="42.354362" lon="14.1139228"><ele>36.0</ele><time>2026-05-01T15:55:30.008Z</time></trkpt><trkpt lat="42.3545714" lon="14.1140065"><ele>36.333333333333336</ele><time>2026-05-01T15:55:31.009Z</time></trkpt><trkpt lat="42.3547794" lon="14.1140917"><ele>36.66666666666667</ele><time>2026-05-01T15:55:32.009Z</time></trkpt><trkpt lat="42.3549796" lon="14.1141732"><ele>37.0</ele><time>2026-05-01T15:55:33.009Z</time></trkpt><trkpt lat="42.3551858" lon="14.1142564"><ele>37.0</ele><time>2026-05-01T15:55:34.009Z</time></trkpt><trkpt lat="42.3553928" lon="14.1143391"><ele>37.0</ele><time>2026-05-01T15:55:35.009Z</time></trkpt><trkpt lat="42.3556027" lon="14.1144229"><ele>37.0</ele><time>2026-05-01T15:55:36.009Z</time></trkpt><trkpt lat="42.355819" lon="14.1145119"><ele>42.0</ele><time>2026-05-01T15:55:37.009Z</time></trkpt><trkpt lat="42.3560373" lon="14.1146033"><ele>47.0</ele><time>2026-05-01T15:55:38.009Z</time></trkpt><trkpt lat="42.3562586" lon="14.1146876"><ele>48.0</ele><time>2026-05-01T15:55:39.009Z</time></trkpt><trkpt lat="42.3564787" lon="14.114775"><ele>49.0</ele><time>2026-05-01T15:55:40.009Z</time></trkpt><trkpt lat="42.3567007" lon="14.1148619"><ele>44.0</ele><time>2026-05-01T15:55:41.009Z</time></trkpt><trkpt lat="42.3569241" lon="14.1149478"><ele>39.0</ele><time>2026-05-01T15:55:42.009Z</time></trkpt><trkpt lat="42.3571476" lon="14.1150339"><ele>40.0</ele><time>2026-05-01T15:55:43.009Z</time></trkpt><trkpt lat="42.3573723" lon="14.115122"><ele>41.0</ele><time>2026-05-01T15:55:44.009Z</time></trkpt><trkpt lat="42.3575966" lon="14.1152132"><ele>41.0</ele><time>2026-05-01T15:55:45.009Z</time></trkpt><trkpt lat="42.3578227" lon="14.1153073"><ele>41.0</ele><time>2026-05-01T15:55:46.009Z</time></trkpt><trkpt lat="42.3580504" lon="14.115402"><ele>41.0</ele><time>2026-05-01T15:55:47.009Z</time></trkpt><trkpt lat="42.3582754" lon="14.1154922"><ele>41.0</ele><time>2026-05-01T15:55:48.009Z</time></trkpt><trkpt lat="42.3585023" lon="14.1155974"><ele>41.0</ele><time>2026-05-01T15:55:49.009Z</time></trkpt><trkpt lat="42.3587321" lon="14.1156979"><ele>41.0</ele><time>2026-05-01T15:55:50.009Z</time></trkpt><trkpt lat="42.3589634" lon="14.1157932"><ele>38.5</ele><time>2026-05-01T15:55:51.009Z</time></trkpt><trkpt lat="42.3591898" lon="14.1158932"><ele>36.0</ele><time>2026-05-01T15:55:52.009Z</time></trkpt><trkpt lat="42.3594188" lon="14.1159883"><ele>36.0</ele><time>2026-05-01T15:55:53.009Z</time></trkpt><trkpt lat="42.3596461" lon="14.1160802"><ele>36.0</ele><time>2026-05-01T15:55:54.009Z</time></trkpt><trkpt lat="42.3598696" lon="14.1161756"><ele>36.5</ele><time>2026-05-01T15:55:55.009Z</time></trkpt><trkpt lat="42.3600923" lon="14.11627"><ele>37.0</ele><time>2026-05-01T15:55:56.009Z</time></trkpt><trkpt lat="42.3603103" lon="14.1163684"><ele>37.0</ele><time>2026-05-01T15:55:57.009Z</time></trkpt><trkpt lat="42.3605241" lon="14.1164652"><ele>37.0</ele><time>2026-05-01T15:55:58.009Z</time></trkpt><trkpt lat="42.3607368" lon="14.11656"><ele>37.0</ele><time>2026-05-01T15:55:59.009Z</time></trkpt><trkpt lat="42.3609555" lon="14.1166483"><ele>36.66666666666667</ele><time>2026-05-01T15:56:00.009Z</time></trkpt><trkpt lat="42.3611673" lon="14.1167402"><ele>36.333333333333336</ele><time>2026-05-01T15:56:01.009Z</time></trkpt><trkpt lat="42.361376" lon="14.1168367"><ele>36.0</ele><time>2026-05-01T15:56:02.009Z</time></trkpt><trkpt lat="42.3615846" lon="14.1169311"><ele>36.0</ele><time>2026-05-01T15:56:03.009Z</time></trkpt><trkpt lat="42.3617943" lon="14.1170258"><ele>36.0</ele><time>2026-05-01T15:56:04.009Z</time></trkpt><trkpt lat="42.3620027" lon="14.1171193"><ele>36.0</ele><time>2026-05-01T15:56:05.009Z</time></trkpt><trkpt lat="42.3622026" lon="14.1172116"><ele>33.666666666666664</ele><time>2026-05-01T15:56:06.009Z</time></trkpt><trkpt lat="42.3624014" lon="14.1173007"><ele>31.333333333333332</ele><time>2026-05-01T15:56:07.009Z</time></trkpt><trkpt lat="42.3625892" lon="14.1173645"><ele>29.0</ele><time>2026-05-01T15:56:08.009Z</time></trkpt><trkpt lat="42.3627784" lon="14.1174164"><ele>29.0</ele><time>2026-05-01T15:56:09.009Z</time></trkpt><trkpt lat="42.3629685" lon="14.1174498"><ele>29.0</ele><time>2026-05-01T15:56:10.009Z</time></trkpt><trkpt lat="42.3631615" lon="14.1174641"><ele>29.0</ele><time>2026-05-01T15:56:11.009Z</time></trkpt><trkpt lat="42.3633533" lon="14.1174659"><ele>29.666666666666664</ele><time>2026-05-01T15:56:12.009Z</time></trkpt><trkpt lat="42.3635464" lon="14.1174658"><ele>30.333333333333336</ele><time>2026-05-01T15:56:13.009Z</time></trkpt><trkpt lat="42.3637343" lon="14.1174683"><ele>31.0</ele><time>2026-05-01T15:56:14.009Z</time></trkpt><trkpt lat="42.3639169" lon="14.1174729"><ele>31.666666666666668</ele><time>2026-05-01T15:56:15.009Z</time></trkpt><trkpt lat="42.364098" lon="14.1174907"><ele>32.333333333333336</ele><time>2026-05-01T15:56:16.009Z</time></trkpt><trkpt lat="42.3642751" lon="14.1175297"><ele>33.0</ele><time>2026-05-01T15:56:17.009Z</time></trkpt><trkpt lat="42.3644529" lon="14.1176015"><ele>33.0</ele><time>2026-05-01T15:56:18.009Z</time></trkpt><trkpt lat="42.3646376" lon="14.117692"><ele>33.0</ele><time>2026-05-01T15:56:19.009Z</time></trkpt><trkpt lat="42.3648276" lon="14.1178124"><ele>33.0</ele><time>2026-05-01T15:56:20.009Z</time></trkpt><trkpt lat="42.3650247" lon="14.1179446"><ele>32.5</ele><time>2026-05-01T15:56:21.009Z</time></trkpt><trkpt lat="42.3652335" lon="14.1180826"><ele>32.0</ele><time>2026-05-01T15:56:22.009Z</time></trkpt><trkpt lat="42.3654448" lon="14.1182259"><ele>30.0</ele><time>2026-05-01T15:56:23.009Z</time></trkpt><trkpt lat="42.3656628" lon="14.1183591"><ele>28.0</ele><time>2026-05-01T15:56:24.009Z</time></trkpt><trkpt lat="42.3658567" lon="14.118498"><ele>28.0</ele><time>2026-05-01T15:56:25.009Z</time></trkpt><trkpt lat="42.3660458" lon="14.1186237"><ele>28.0</ele><time>2026-05-01T15:56:26.009Z</time></trkpt><trkpt lat="42.3662161" lon="14.1187514"><ele>28.0</ele><time>2026-05-01T15:56:27.009Z</time></trkpt><trkpt lat="42.3663918" lon="14.1188737"><ele>28.0</ele><time>2026-05-01T15:56:28.008Z</time></trkpt><trkpt lat="42.3665624" lon="14.1189984"><ele>28.0</ele><time>2026-05-01T15:56:29.009Z</time></trkpt><trkpt lat="42.366743" lon="14.1191286"><ele>28.0</ele><time>2026-05-01T15:56:30.009Z</time></trkpt><trkpt lat="42.3669273" lon="14.1192588"><ele>28.0</ele><time>2026-05-01T15:56:31.009Z</time></trkpt><trkpt lat="42.3671155" lon="14.1193898"><ele>28.0</ele><time>2026-05-01T15:56:32.009Z</time></trkpt><trkpt lat="42.3673008" lon="14.1195176"><ele>28.0</ele><time>2026-05-01T15:56:33.009Z</time></trkpt><trkpt lat="42.3674868" lon="14.1196462"><ele>28.0</ele><time>2026-05-01T15:56:34.008Z</time></trkpt><trkpt lat="42.3676717" lon="14.1197728"><ele>28.0</ele><time>2026-05-01T15:56:35.009Z</time></trkpt><trkpt lat="42.3678519" lon="14.1198995"><ele>28.0</ele><time>2026-05-01T15:56:36.008Z</time></trkpt><trkpt lat="42.3680223" lon="14.120014"><ele>28.333333333333336</ele><time>2026-05-01T15:56:37.009Z</time></trkpt><trkpt lat="42.3681929" lon="14.120117"><ele>28.666666666666664</ele><time>2026-05-01T15:56:38.009Z</time></trkpt><trkpt lat="42.3683749" lon="14.1202009"><ele>29.0</ele><time>2026-05-01T15:56:39.009Z</time></trkpt><trkpt lat="42.368575" lon="14.1202411"><ele>29.0</ele><time>2026-05-01T15:56:40.009Z</time></trkpt><trkpt lat="42.3687854" lon="14.1202686"><ele>29.0</ele><time>2026-05-01T15:56:41.009Z</time></trkpt><trkpt lat="42.3690061" lon="14.1202955"><ele>29.0</ele><time>2026-05-01T15:56:42.009Z</time></trkpt><trkpt lat="42.3692302" lon="14.1203294"><ele>33.0</ele><time>2026-05-01T15:56:43.009Z</time></trkpt><trkpt lat="42.3694595" lon="14.1203626"><ele>37.0</ele><time>2026-05-01T15:56:44.009Z</time></trkpt><trkpt lat="42.3696931" lon="14.1203901"><ele>37.0</ele><time>2026-05-01T15:56:45.009Z</time></trkpt><trkpt lat="42.3699234" lon="14.1204216"><ele>37.0</ele><time>2026-05-01T15:56:46.008Z</time></trkpt><trkpt lat="42.3701409" lon="14.1204491"><ele>37.0</ele><time>2026-05-01T15:56:47.009Z</time></trkpt><trkpt lat="42.3703481" lon="14.1204778"><ele>37.0</ele><time>2026-05-01T15:56:48.009Z</time></trkpt><trkpt lat="42.3705539" lon="14.1205127"><ele>37.0</ele><time>2026-05-01T15:56:49.009Z</time></trkpt><trkpt lat="42.3707629" lon="14.1205612"><ele>37.333333333333336</ele><time>2026-05-01T15:56:50.009Z</time></trkpt><trkpt lat="42.3709669" lon="14.1206276"><ele>37.666666666666664</ele><time>2026-05-01T15:56:51.009Z</time></trkpt><trkpt lat="42.371177" lon="14.1207083"><ele>38.0</ele><time>2026-05-01T15:56:52.008Z</time></trkpt><trkpt lat="42.3713873" lon="14.1207963"><ele>36.33333333333333</ele><time>2026-05-01T15:56:53.009Z</time></trkpt><trkpt lat="42.3715994" lon="14.1208852"><ele>34.666666666666664</ele><time>2026-05-01T15:56:54.009Z</time></trkpt><trkpt lat="42.3718123" lon="14.1209856"><ele>33.0</ele><time>2026-05-01T15:56:55.009Z</time></trkpt><trkpt lat="42.3720134" lon="14.1211024"><ele>36.333333333333336</ele><time>2026-05-01T15:56:56.009Z</time></trkpt><trkpt lat="42.3722122" lon="14.1212276"><ele>39.66666666666667</ele><time>2026-05-01T15:56:57.009Z</time></trkpt><trkpt lat="42.3724007" lon="14.1213664"><ele>43.0</ele><time>2026-05-01T15:56:58.009Z</time></trkpt><trkpt lat="42.3725685" lon="14.1215037"><ele>40.0</ele><time>2026-05-01T15:56:59.009Z</time></trkpt><trkpt lat="42.3727325" lon="14.121636"><ele>37.0</ele><time>2026-05-01T15:57:00.009Z</time></trkpt><trkpt lat="42.3728845" lon="14.1217586"><ele>34.0</ele><time>2026-05-01T15:57:01.008Z</time></trkpt><trkpt lat="42.3730207" lon="14.1218705"><ele>35.75</ele><time>2026-05-01T15:57:02.009Z</time></trkpt><trkpt lat="42.3731506" lon="14.1219713"><ele>37.5</ele><time>2026-05-01T15:57:03.009Z</time></trkpt><trkpt lat="42.3732624" lon="14.1220641"><ele>39.25</ele><time>2026-05-01T15:57:04.009Z</time></trkpt><trkpt lat="42.3733676" lon="14.1221435"><ele>41.0</ele><time>2026-05-01T15:57:05.009Z</time></trkpt><trkpt lat="42.3734709" lon="14.1222169"><ele>41.0</ele><time>2026-05-01T15:57:06.009Z</time></trkpt><trkpt lat="42.3735541" lon="14.1222827"><ele>41.0</ele><time>2026-05-01T15:57:07.008Z</time></trkpt><trkpt lat="42.3736334" lon="14.1223395"><ele>41.0</ele><time>2026-05-01T15:57:08.009Z</time></trkpt><trkpt lat="42.3736952" lon="14.1223849"><ele>41.0</ele><time>2026-05-01T15:57:09.009Z</time></trkpt><trkpt lat="42.3737543" lon="14.1224245"><ele>41.0</ele><time>2026-05-01T15:57:10.009Z</time></trkpt><trkpt lat="42.3738391" lon="14.1224878"><ele>41.0</ele><time>2026-05-01T15:57:12.009Z</time></trkpt><trkpt lat="42.3739005" lon="14.1225335"><ele>41.0</ele><time>2026-05-01T15:57:14.009Z</time></trkpt><trkpt lat="42.3739691" lon="14.1225778"><ele>41.0</ele><time>2026-05-01T15:58:13.009Z</time></trkpt><trkpt lat="42.3740457" lon="14.1226482"><ele>41.0</ele><time>2026-05-01T15:58:15.009Z</time></trkpt><trkpt lat="42.374108" lon="14.1226932"><ele>41.0</ele><time>2026-05-01T15:58:16.008Z</time></trkpt><trkpt lat="42.3741852" lon="14.1227513"><ele>41.0</ele><time>2026-05-01T15:58:17.009Z</time></trkpt><trkpt lat="42.3742722" lon="14.1228261"><ele>41.0</ele><time>2026-05-01T15:58:18.009Z</time></trkpt><trkpt lat="42.3743708" lon="14.1229122"><ele>41.0</ele><time>2026-05-01T15:58:19.009Z</time></trkpt><trkpt lat="42.3744812" lon="14.1230049"><ele>41.0</ele><time>2026-05-01T15:58:20.009Z</time></trkpt><trkpt lat="42.3746086" lon="14.1231013"><ele>41.0</ele><time>2026-05-01T15:58:21.009Z</time></trkpt><trkpt lat="42.3747412" lon="14.123197"><ele>41.0</ele><time>2026-05-01T15:58:22.008Z</time></trkpt><trkpt lat="42.3748741" lon="14.123298"><ele>40.5</ele><time>2026-05-01T15:58:23.009Z</time></trkpt><trkpt lat="42.3750112" lon="14.123408"><ele>40.0</ele><time>2026-05-01T15:58:24.009Z</time></trkpt><trkpt lat="42.3751387" lon="14.1235062"><ele>39.5</ele><time>2026-05-01T15:58:25.009Z</time></trkpt><trkpt lat="42.3752602" lon="14.1235981"><ele>39.0</ele><time>2026-05-01T15:58:26.009Z</time></trkpt><trkpt lat="42.375378" lon="14.1236867"><ele>39.0</ele><time>2026-05-01T15:58:27.009Z</time></trkpt><trkpt lat="42.3754871" lon="14.1237718"><ele>39.0</ele><time>2026-05-01T15:58:28.009Z</time></trkpt><trkpt lat="42.3755903" lon="14.1238518"><ele>39.0</ele><time>2026-05-01T15:58:29.009Z</time></trkpt><trkpt lat="42.3756842" lon="14.1239154"><ele>39.0</ele><time>2026-05-01T15:58:30.009Z</time></trkpt><trkpt lat="42.3757797" lon="14.123964"><ele>38.8</ele><time>2026-05-01T15:58:31.008Z</time></trkpt><trkpt lat="42.3758769" lon="14.1239981"><ele>38.599999999999994</ele><time>2026-05-01T15:58:32.008Z</time></trkpt><trkpt lat="42.3759712" lon="14.124026"><ele>38.4</ele><time>2026-05-01T15:58:33.009Z</time></trkpt><trkpt lat="42.3760613" lon="14.1240445"><ele>38.199999999999996</ele><time>2026-05-01T15:58:34.009Z</time></trkpt><trkpt lat="42.3761454" lon="14.124067"><ele>38.0</ele><time>2026-05-01T15:58:35.009Z</time></trkpt><trkpt lat="42.3762178" lon="14.1241062"><ele>38.0</ele><time>2026-05-01T15:58:36.008Z</time></trkpt><trkpt lat="42.3762816" lon="14.1241649"><ele>38.0</ele><time>2026-05-01T15:58:37.009Z</time></trkpt><trkpt lat="42.3763302" lon="14.1242379"><ele>38.0</ele><time>2026-05-01T15:58:38.009Z</time></trkpt><trkpt lat="42.3763674" lon="14.1243195"><ele>38.0</ele><time>2026-05-01T15:58:39.009Z</time></trkpt><trkpt lat="42.376397" lon="14.1243992"><ele>38.0</ele><time>2026-05-01T15:58:40.009Z</time></trkpt><trkpt lat="42.3764818" lon="14.124512"><ele>38.0</ele><time>2026-05-01T15:58:42.009Z</time></trkpt><trkpt lat="42.3765497" lon="14.1245296"><ele>37.8</ele><time>2026-05-01T15:58:43.008Z</time></trkpt><trkpt lat="42.3766546" lon="14.1244026"><ele>37.599999999999994</ele><time>2026-05-01T15:58:45.009Z</time></trkpt><trkpt lat="42.3766939" lon="14.1242892"><ele>37.400000000000006</ele><time>2026-05-01T15:58:46.009Z</time></trkpt><trkpt lat="42.3767529" lon="14.1241758"><ele>37.2</ele><time>2026-05-01T15:58:47.008Z</time></trkpt><trkpt lat="42.3768321" lon="14.1240763"><ele>37.0</ele><time>2026-05-01T15:58:48.008Z</time></trkpt><trkpt lat="42.3769175" lon="14.1239728"><ele>38.400000000000006</ele><time>2026-05-01T15:58:49.009Z</time></trkpt><trkpt lat="42.3769928" lon="14.1238452"><ele>39.800000000000004</ele><time>2026-05-01T15:58:50.009Z</time></trkpt><trkpt lat="42.3770585" lon="14.1237214"><ele>41.2</ele><time>2026-05-01T15:58:51.008Z</time></trkpt><trkpt lat="42.3771227" lon="14.1236127"><ele>42.6</ele><time>2026-05-01T15:58:52.009Z</time></trkpt><trkpt lat="42.3771968" lon="14.1235204"><ele>44.0</ele><time>2026-05-01T15:58:53.009Z</time></trkpt><trkpt lat="42.3772836" lon="14.1234511"><ele>44.5</ele><time>2026-05-01T15:58:54.009Z</time></trkpt><trkpt lat="42.3773862" lon="14.1234113"><ele>45.0</ele><time>2026-05-01T15:58:55.008Z</time></trkpt><trkpt lat="42.3775003" lon="14.1233983"><ele>45.5</ele><time>2026-05-01T15:58:56.009Z</time></trkpt><trkpt lat="42.3776169" lon="14.1234026"><ele>46.0</ele><time>2026-05-01T15:58:57.009Z</time></trkpt><trkpt lat="42.3777432" lon="14.1234214"><ele>46.0</ele><time>2026-05-01T15:58:58.009Z</time></trkpt><trkpt lat="42.3778773" lon="14.1234405"><ele>46.0</ele><time>2026-05-01T15:58:59.009Z</time></trkpt><trkpt lat="42.3780135" lon="14.1234613"><ele>46.0</ele><time>2026-05-01T15:59:00.008Z</time></trkpt><trkpt lat="42.3781525" lon="14.1234845"><ele>46.0</ele><time>2026-05-01T15:59:01.009Z</time></trkpt><trkpt lat="42.3782902" lon="14.1235053"><ele>48.25</ele><time>2026-05-01T15:59:02.009Z</time></trkpt><trkpt lat="42.3784219" lon="14.1235243"><ele>50.5</ele><time>2026-05-01T15:59:03.009Z</time></trkpt><trkpt lat="42.3785526" lon="14.1235464"><ele>52.75</ele><time>2026-05-01T15:59:04.009Z</time></trkpt><trkpt lat="42.3786831" lon="14.1235709"><ele>55.0</ele><time>2026-05-01T15:59:05.008Z</time></trkpt><trkpt lat="42.3788145" lon="14.1235984"><ele>55.8</ele><time>2026-05-01T15:59:06.009Z</time></trkpt><trkpt lat="42.3789414" lon="14.123619"><ele>56.6</ele><time>2026-05-01T15:59:07.009Z</time></trkpt><trkpt lat="42.3790563" lon="14.1236369"><ele>57.400000000000006</ele><time>2026-05-01T15:59:08.009Z</time></trkpt><trkpt lat="42.3791572" lon="14.1236527"><ele>58.2</ele><time>2026-05-01T15:59:09.009Z</time></trkpt><trkpt lat="42.3792505" lon="14.1236857"><ele>59.0</ele><time>2026-05-01T15:59:10.009Z</time></trkpt><trkpt lat="42.3793351" lon="14.1237287"><ele>59.00000000000001</ele><time>2026-05-01T15:59:11.009Z</time></trkpt><trkpt lat="42.3794106" lon="14.123774"><ele>59.0</ele><time>2026-05-01T15:59:12.009Z</time></trkpt><trkpt lat="42.3794802" lon="14.1238273"><ele>59.0</ele><time>2026-05-01T15:59:13.009Z</time></trkpt><trkpt lat="42.3795474" lon="14.1238918"><ele>59.0</ele><time>2026-05-01T15:59:14.008Z</time></trkpt><trkpt lat="42.3796131" lon="14.1239749"><ele>59.00000000000001</ele><time>2026-05-01T15:59:15.009Z</time></trkpt><trkpt lat="42.3796904" lon="14.1240628"><ele>59.0</ele><time>2026-05-01T15:59:16.009Z</time></trkpt><trkpt lat="42.3797887" lon="14.1241442"><ele>57.25</ele><time>2026-05-01T15:59:17.009Z</time></trkpt><trkpt lat="42.3798867" lon="14.1242319"><ele>55.5</ele><time>2026-05-01T15:59:18.008Z</time></trkpt><trkpt lat="42.3799916" lon="14.1243206"><ele>53.75</ele><time>2026-05-01T15:59:19.008Z</time></trkpt><trkpt lat="42.3801082" lon="14.1244094"><ele>52.0</ele><time>2026-05-01T15:59:20.009Z</time></trkpt><trkpt lat="42.380225" lon="14.1244984"><ele>52.0</ele><time>2026-05-01T15:59:21.009Z</time></trkpt><trkpt lat="42.3803453" lon="14.1245891"><ele>52.0</ele><time>2026-05-01T15:59:22.009Z</time></trkpt><trkpt lat="42.380471" lon="14.1246752"><ele>52.0</ele><time>2026-05-01T15:59:23.009Z</time></trkpt><trkpt lat="42.3805928" lon="14.1247757"><ele>52.0</ele><time>2026-05-01T15:59:24.009Z</time></trkpt><trkpt lat="42.3807227" lon="14.1248683"><ele>50.666666666666664</ele><time>2026-05-01T15:59:25.008Z</time></trkpt><trkpt lat="42.3808551" lon="14.1249634"><ele>49.33333333333333</ele><time>2026-05-01T15:59:26.009Z</time></trkpt><trkpt lat="42.3809914" lon="14.1250615"><ele>48.0</ele><time>2026-05-01T15:59:27.009Z</time></trkpt><trkpt lat="42.3811243" lon="14.125155"><ele>48.0</ele><time>2026-05-01T15:59:28.009Z</time></trkpt><trkpt lat="42.3812571" lon="14.1252497"><ele>48.0</ele><time>2026-05-01T15:59:29.009Z</time></trkpt><trkpt lat="42.3813858" lon="14.1253405"><ele>48.0</ele><time>2026-05-01T15:59:30.009Z</time></trkpt><trkpt lat="42.3815185" lon="14.1254282"><ele>48.0</ele><time>2026-05-01T15:59:31.009Z</time></trkpt><trkpt lat="42.3816453" lon="14.1255244"><ele>47.0</ele><time>2026-05-01T15:59:32.009Z</time></trkpt><trkpt lat="42.3817731" lon="14.1256249"><ele>46.0</ele><time>2026-05-01T15:59:33.009Z</time></trkpt><trkpt lat="42.381902" lon="14.1257313"><ele>45.0</ele><time>2026-05-01T15:59:34.008Z</time></trkpt><trkpt lat="42.3820312" lon="14.125836"><ele>44.0</ele><time>2026-05-01T15:59:35.009Z</time></trkpt><trkpt lat="42.3821523" lon="14.1259467"><ele>46.25</ele><time>2026-05-01T15:59:36.009Z</time></trkpt><trkpt lat="42.3822674" lon="14.1260612"><ele>48.5</ele><time>2026-05-01T15:59:37.009Z</time></trkpt><trkpt lat="42.3823851" lon="14.1261645"><ele>50.75</ele><time>2026-05-01T15:59:38.008Z</time></trkpt><trkpt lat="42.3825042" lon="14.126254"><ele>53.0</ele><time>2026-05-01T15:59:39.009Z</time></trkpt><trkpt lat="42.3826281" lon="14.126317"><ele>53.0</ele><time>2026-05-01T15:59:40.009Z</time></trkpt><trkpt lat="42.3827589" lon="14.1263655"><ele>53.0</ele><time>2026-05-01T15:59:41.009Z</time></trkpt><trkpt lat="42.3828735" lon="14.1263825"><ele>53.0</ele><time>2026-05-01T15:59:42.009Z</time></trkpt><trkpt lat="42.3829881" lon="14.1263941"><ele>53.0</ele><time>2026-05-01T15:59:43.009Z</time></trkpt><trkpt lat="42.3830973" lon="14.1263996"><ele>53.00000000000001</ele><time>2026-05-01T15:59:44.008Z</time></trkpt><trkpt lat="42.3831953" lon="14.1264029"><ele>53.0</ele><time>2026-05-01T15:59:45.008Z</time></trkpt><trkpt lat="42.3832843" lon="14.1264049"><ele>53.0</ele><time>2026-05-01T15:59:46.009Z</time></trkpt><trkpt lat="42.3833704" lon="14.1264107"><ele>53.0</ele><time>2026-05-01T15:59:47.009Z</time></trkpt><trkpt lat="42.383456" lon="14.1264244"><ele>53.00000000000001</ele><time>2026-05-01T15:59:48.009Z</time></trkpt><trkpt lat="42.3835404" lon="14.1264661"><ele>53.0</ele><time>2026-05-01T15:59:49.009Z</time></trkpt><trkpt lat="42.3836299" lon="14.1265202"><ele>50.8</ele><time>2026-05-01T15:59:50.009Z</time></trkpt><trkpt lat="42.3837226" lon="14.1265904"><ele>48.599999999999994</ele><time>2026-05-01T15:59:51.009Z</time></trkpt><trkpt lat="42.3838183" lon="14.126654"><ele>46.400000000000006</ele><time>2026-05-01T15:59:52.009Z</time></trkpt><trkpt lat="42.3839233" lon="14.1267149"><ele>44.2</ele><time>2026-05-01T15:59:53.009Z</time></trkpt><trkpt lat="42.38403" lon="14.1267679"><ele>42.0</ele><time>2026-05-01T15:59:54.009Z</time></trkpt><trkpt lat="42.3841444" lon="14.12683"><ele>42.0</ele><time>2026-05-01T15:59:55.009Z</time></trkpt><trkpt lat="42.3842661" lon="14.1268835"><ele>42.0</ele><time>2026-05-01T15:59:56.009Z</time></trkpt><trkpt lat="42.3843901" lon="14.1269352"><ele>42.0</ele><time>2026-05-01T15:59:57.009Z</time></trkpt><trkpt lat="42.3845188" lon="14.1269814"><ele>42.0</ele><time>2026-05-01T15:59:58.009Z</time></trkpt><trkpt lat="42.38464" lon="14.1270264"><ele>42.75</ele><time>2026-05-01T15:59:59.008Z</time></trkpt><trkpt lat="42.3847631" lon="14.1270674"><ele>43.5</ele><time>2026-05-01T16:00:00.009Z</time></trkpt><trkpt lat="42.3848806" lon="14.127121"><ele>44.25</ele><time>2026-05-01T16:00:01.009Z</time></trkpt><trkpt lat="42.3849912" lon="14.1271999"><ele>45.0</ele><time>2026-05-01T16:00:02.009Z</time></trkpt><trkpt lat="42.385096" lon="14.1272853"><ele>45.0</ele><time>2026-05-01T16:00:03.009Z</time></trkpt><trkpt lat="42.3851991" lon="14.1273809"><ele>45.0</ele><time>2026-05-01T16:00:04.009Z</time></trkpt><trkpt lat="42.3852981" lon="14.1274883"><ele>45.0</ele><time>2026-05-01T16:00:05.009Z</time></trkpt><trkpt lat="42.3853987" lon="14.1275964"><ele>45.0</ele><time>2026-05-01T16:00:06.008Z</time></trkpt><trkpt lat="42.3854988" lon="14.1277021"><ele>42.75</ele><time>2026-05-01T16:00:07.009Z</time></trkpt><trkpt lat="42.3856027" lon="14.1278159"><ele>40.5</ele><time>2026-05-01T16:00:08.009Z</time></trkpt><trkpt lat="42.3857129" lon="14.1279278"><ele>38.25</ele><time>2026-05-01T16:00:09.009Z</time></trkpt><trkpt lat="42.3858255" lon="14.1280321"><ele>36.0</ele><time>2026-05-01T16:00:10.009Z</time></trkpt><trkpt lat="42.3859404" lon="14.1281427"><ele>35.75</ele><time>2026-05-01T16:00:11.008Z</time></trkpt><trkpt lat="42.3860585" lon="14.1282452"><ele>35.5</ele><time>2026-05-01T16:00:12.009Z</time></trkpt><trkpt lat="42.3861745" lon="14.1283556"><ele>35.25</ele><time>2026-05-01T16:00:13.009Z</time></trkpt><trkpt lat="42.3862803" lon="14.1284809"><ele>35.0</ele><time>2026-05-01T16:00:14.009Z</time></trkpt><trkpt lat="42.3863736" lon="14.1286211"><ele>35.5</ele><time>2026-05-01T16:00:15.009Z</time></trkpt><trkpt lat="42.3864589" lon="14.1287672"><ele>36.0</ele><time>2026-05-01T16:00:16.009Z</time></trkpt><trkpt lat="42.386545" lon="14.1289101"><ele>36.5</ele><time>2026-05-01T16:00:17.009Z</time></trkpt><trkpt lat="42.3866286" lon="14.129049"><ele>37.0</ele><time>2026-05-01T16:00:18.009Z</time></trkpt><trkpt lat="42.3867141" lon="14.1291846"><ele>36.0</ele><time>2026-05-01T16:00:19.009Z</time></trkpt><trkpt lat="42.3867963" lon="14.1293136"><ele>35.0</ele><time>2026-05-01T16:00:20.009Z</time></trkpt><trkpt lat="42.3868898" lon="14.129426"><ele>34.0</ele><time>2026-05-01T16:00:21.008Z</time></trkpt><trkpt lat="42.3869772" lon="14.1295335"><ele>33.0</ele><time>2026-05-01T16:00:22.009Z</time></trkpt><trkpt lat="42.3870677" lon="14.1296351"><ele>33.0</ele><time>2026-05-01T16:00:23.009Z</time></trkpt><trkpt lat="42.387165" lon="14.1297218"><ele>33.0</ele><time>2026-05-01T16:00:24.009Z</time></trkpt><trkpt lat="42.387254" lon="14.1298141"><ele>33.0</ele><time>2026-05-01T16:00:25.009Z</time></trkpt><trkpt lat="42.3873498" lon="14.1299037"><ele>33.0</ele><time>2026-05-01T16:00:26.009Z</time></trkpt><trkpt lat="42.3874506" lon="14.1299853"><ele>32.8</ele><time>2026-05-01T16:00:27.009Z</time></trkpt><trkpt lat="42.3875426" lon="14.1300703"><ele>32.599999999999994</ele><time>2026-05-01T16:00:28.009Z</time></trkpt><trkpt lat="42.3876284" lon="14.1301557"><ele>32.400000000000006</ele><time>2026-05-01T16:00:29.009Z</time></trkpt><trkpt lat="42.3877116" lon="14.1302404"><ele>32.2</ele><time>2026-05-01T16:00:30.009Z</time></trkpt><trkpt lat="42.3877866" lon="14.1303222"><ele>32.0</ele><time>2026-05-01T16:00:31.009Z</time></trkpt><trkpt lat="42.3878596" lon="14.1303848"><ele>31.999999999999996</ele><time>2026-05-01T16:00:32.008Z</time></trkpt><trkpt lat="42.3879241" lon="14.1304423"><ele>32.0</ele><time>2026-05-01T16:00:33.008Z</time></trkpt><trkpt lat="42.3879892" lon="14.1304868"><ele>32.0</ele><time>2026-05-01T16:00:34.009Z</time></trkpt><trkpt lat="42.3880595" lon="14.1305276"><ele>32.0</ele><time>2026-05-01T16:00:35.009Z</time></trkpt><trkpt lat="42.3881397" lon="14.1305703"><ele>31.999999999999996</ele><time>2026-05-01T16:00:36.009Z</time></trkpt><trkpt lat="42.3882332" lon="14.1306131"><ele>32.0</ele><time>2026-05-01T16:00:37.009Z</time></trkpt><trkpt lat="42.3883311" lon="14.1306632"><ele>32.0</ele><time>2026-05-01T16:00:38.009Z</time></trkpt><trkpt lat="42.3884365" lon="14.1307247"><ele>32.0</ele><time>2026-05-01T16:00:39.009Z</time></trkpt><trkpt lat="42.388548" lon="14.1307849"><ele>32.0</ele><time>2026-05-01T16:00:40.008Z</time></trkpt><trkpt lat="42.3886607" lon="14.1308496"><ele>32.0</ele><time>2026-05-01T16:00:41.009Z</time></trkpt><trkpt lat="42.3887713" lon="14.1309195"><ele>32.25</ele><time>2026-05-01T16:00:42.009Z</time></trkpt><trkpt lat="42.3888897" lon="14.1309929"><ele>32.5</ele><time>2026-05-01T16:00:43.009Z</time></trkpt><trkpt lat="42.3890116" lon="14.1310786"><ele>32.75</ele><time>2026-05-01T16:00:44.009Z</time></trkpt><trkpt lat="42.3891363" lon="14.1311662"><ele>33.0</ele><time>2026-05-01T16:00:45.009Z</time></trkpt><trkpt lat="42.3892594" lon="14.1312651"><ele>33.0</ele><time>2026-05-01T16:00:46.009Z</time></trkpt><trkpt lat="42.3893824" lon="14.1313678"><ele>33.0</ele><time>2026-05-01T16:00:47.008Z</time></trkpt><trkpt lat="42.3895069" lon="14.131475"><ele>33.0</ele><time>2026-05-01T16:00:48.009Z</time></trkpt><trkpt lat="42.3896239" lon="14.1315815"><ele>33.0</ele><time>2026-05-01T16:00:49.008Z</time></trkpt><trkpt lat="42.3897562" lon="14.1316859"><ele>32.333333333333336</ele><time>2026-05-01T16:00:50.009Z</time></trkpt><trkpt lat="42.3898862" lon="14.1317961"><ele>31.666666666666668</ele><time>2026-05-01T16:00:51.009Z</time></trkpt><trkpt lat="42.3900134" lon="14.1319083"><ele>31.0</ele><time>2026-05-01T16:00:52.009Z</time></trkpt><trkpt lat="42.3901378" lon="14.132022"><ele>31.0</ele><time>2026-05-01T16:00:53.009Z</time></trkpt><trkpt lat="42.3902606" lon="14.1321298"><ele>31.0</ele><time>2026-05-01T16:00:54.009Z</time></trkpt><trkpt lat="42.3903821" lon="14.1322389"><ele>31.0</ele><time>2026-05-01T16:00:55.009Z</time></trkpt><trkpt lat="42.3905011" lon="14.1323465"><ele>31.0</ele><time>2026-05-01T16:00:56.009Z</time></trkpt><trkpt lat="42.3906214" lon="14.1324508"><ele>30.75</ele><time>2026-05-01T16:00:57.008Z</time></trkpt><trkpt lat="42.390738" lon="14.1325558"><ele>30.5</ele><time>2026-05-01T16:00:58.009Z</time></trkpt><trkpt lat="42.3908548" lon="14.1326602"><ele>30.25</ele><time>2026-05-01T16:00:59.009Z</time></trkpt><trkpt lat="42.3909689" lon="14.1327595"><ele>30.0</ele><time>2026-05-01T16:01:00.009Z</time></trkpt><trkpt lat="42.3910828" lon="14.1328617"><ele>30.0</ele><time>2026-05-01T16:01:01.009Z</time></trkpt><trkpt lat="42.3911998" lon="14.1329607"><ele>30.0</ele><time>2026-05-01T16:01:02.009Z</time></trkpt><trkpt lat="42.391321" lon="14.1330517"><ele>30.0</ele><time>2026-05-01T16:01:03.009Z</time></trkpt><trkpt lat="42.3914295" lon="14.133156"><ele>30.0</ele><time>2026-05-01T16:01:04.009Z</time></trkpt><trkpt lat="42.3915433" lon="14.1332585"><ele>30.0</ele><time>2026-05-01T16:01:05.009Z</time></trkpt><trkpt lat="42.3916564" lon="14.1333634"><ele>30.0</ele><time>2026-05-01T16:01:06.009Z</time></trkpt><trkpt lat="42.3917714" lon="14.1334722"><ele>30.0</ele><time>2026-05-01T16:01:07.009Z</time></trkpt><trkpt lat="42.3918919" lon="14.1335805"><ele>30.0</ele><time>2026-05-01T16:01:08.009Z</time></trkpt><trkpt lat="42.392012" lon="14.133687"><ele>30.0</ele><time>2026-05-01T16:01:09.009Z</time></trkpt><trkpt lat="42.3921409" lon="14.1337904"><ele>30.0</ele><time>2026-05-01T16:01:10.008Z</time></trkpt><trkpt lat="42.3922635" lon="14.1338885"><ele>30.0</ele><time>2026-05-01T16:01:11.009Z</time></trkpt><trkpt lat="42.3923871" lon="14.1339922"><ele>30.0</ele><time>2026-05-01T16:01:12.008Z</time></trkpt><trkpt lat="42.3925105" lon="14.1340953"><ele>29.666666666666664</ele><time>2026-05-01T16:01:13.009Z</time></trkpt><trkpt lat="42.392632" lon="14.1342026"><ele>29.333333333333332</ele><time>2026-05-01T16:01:14.009Z</time></trkpt><trkpt lat="42.3927965" lon="14.1343965"><ele>29.0</ele><time>2026-05-01T16:01:15.009Z</time></trkpt><trkpt lat="42.3929476" lon="14.1344122"><ele>29.333333333333332</ele><time>2026-05-01T16:01:16.009Z</time></trkpt><trkpt lat="42.3930967" lon="14.1346323"><ele>29.666666666666664</ele><time>2026-05-01T16:01:17.009Z</time></trkpt><trkpt lat="42.3932186" lon="14.1347544"><ele>30.0</ele><time>2026-05-01T16:01:18.009Z</time></trkpt><trkpt lat="42.3933514" lon="14.1348692"><ele>29.0</ele><time>2026-05-01T16:01:19.008Z</time></trkpt><trkpt lat="42.3934816" lon="14.1349854"><ele>28.0</ele><time>2026-05-01T16:01:20.009Z</time></trkpt><trkpt lat="42.3936175" lon="14.1351006"><ele>27.0</ele><time>2026-05-01T16:01:21.008Z</time></trkpt><trkpt lat="42.3937491" lon="14.1352169"><ele>27.75</ele><time>2026-05-01T16:01:22.009Z</time></trkpt><trkpt lat="42.393871" lon="14.1353278"><ele>28.5</ele><time>2026-05-01T16:01:23.009Z</time></trkpt><trkpt lat="42.3939857" lon="14.1354275"><ele>29.25</ele><time>2026-05-01T16:01:24.008Z</time></trkpt><trkpt lat="42.3940724" lon="14.1355252"><ele>30.0</ele><time>2026-05-01T16:01:25.008Z</time></trkpt><trkpt lat="42.3941779" lon="14.1356145"><ele>30.0</ele><time>2026-05-01T16:01:26.009Z</time></trkpt><trkpt lat="42.3942745" lon="14.1356981"><ele>30.0</ele><time>2026-05-01T16:01:27.009Z</time></trkpt><trkpt lat="42.3943721" lon="14.1357831"><ele>30.0</ele><time>2026-05-01T16:01:28.009Z</time></trkpt><trkpt lat="42.3944712" lon="14.1358723"><ele>30.0</ele><time>2026-05-01T16:01:29.009Z</time></trkpt><trkpt lat="42.3945686" lon="14.1359665"><ele>29.75</ele><time>2026-05-01T16:01:30.009Z</time></trkpt><trkpt lat="42.3946722" lon="14.1360543"><ele>29.5</ele><time>2026-05-01T16:01:31.009Z</time></trkpt><trkpt lat="42.3947753" lon="14.1361417"><ele>29.25</ele><time>2026-05-01T16:01:32.009Z</time></trkpt><trkpt lat="42.3948746" lon="14.1362322"><ele>29.0</ele><time>2026-05-01T16:01:33.009Z</time></trkpt><trkpt lat="42.3949754" lon="14.1363267"><ele>29.0</ele><time>2026-05-01T16:01:34.009Z</time></trkpt><trkpt lat="42.3950778" lon="14.1364188"><ele>29.0</ele><time>2026-05-01T16:01:35.008Z</time></trkpt><trkpt lat="42.3951797" lon="14.136509"><ele>29.0</ele><time>2026-05-01T16:01:36.009Z</time></trkpt><trkpt lat="42.3952802" lon="14.1366032"><ele>29.0</ele><time>2026-05-01T16:01:37.008Z</time></trkpt><trkpt lat="42.3953724" lon="14.1366904"><ele>28.25</ele><time>2026-05-01T16:01:38.009Z</time></trkpt><trkpt lat="42.3954671" lon="14.1367756"><ele>27.5</ele><time>2026-05-01T16:01:39.009Z</time></trkpt><trkpt lat="42.3955728" lon="14.1368563"><ele>26.75</ele><time>2026-05-01T16:01:40.009Z</time></trkpt><trkpt lat="42.3956727" lon="14.1369443"><ele>26.0</ele><time>2026-05-01T16:01:41.009Z</time></trkpt><trkpt lat="42.3957688" lon="14.1370348"><ele>26.0</ele><time>2026-05-01T16:01:42.009Z</time></trkpt><trkpt lat="42.3958727" lon="14.1371261"><ele>26.0</ele><time>2026-05-01T16:01:43.009Z</time></trkpt><trkpt lat="42.3959726" lon="14.1372141"><ele>26.0</ele><time>2026-05-01T16:01:44.009Z</time></trkpt><trkpt lat="42.3960652" lon="14.1373034"><ele>26.0</ele><time>2026-05-01T16:01:45.008Z</time></trkpt><trkpt lat="42.3961648" lon="14.1373978"><ele>26.25</ele><time>2026-05-01T16:01:46.009Z</time></trkpt><trkpt lat="42.3962648" lon="14.1374887"><ele>26.5</ele><time>2026-05-01T16:01:47.009Z</time></trkpt><trkpt lat="42.3963654" lon="14.1375748"><ele>26.75</ele><time>2026-05-01T16:01:48.009Z</time></trkpt><trkpt lat="42.396465" lon="14.1376622"><ele>27.0</ele><time>2026-05-01T16:01:49.009Z</time></trkpt><trkpt lat="42.3965657" lon="14.1377495"><ele>27.0</ele><time>2026-05-01T16:01:50.009Z</time></trkpt><trkpt lat="42.3966646" lon="14.1378426"><ele>27.0</ele><time>2026-05-01T16:01:51.009Z</time></trkpt><trkpt lat="42.3967617" lon="14.1379297"><ele>27.0</ele><time>2026-05-01T16:01:52.009Z</time></trkpt><trkpt lat="42.3968602" lon="14.1380214"><ele>27.0</ele><time>2026-05-01T16:01:53.009Z</time></trkpt><trkpt lat="42.3969607" lon="14.1381103"><ele>27.0</ele><time>2026-05-01T16:01:54.008Z</time></trkpt><trkpt lat="42.3970645" lon="14.1381987"><ele>27.0</ele><time>2026-05-01T16:01:55.009Z</time></trkpt><trkpt lat="42.3971677" lon="14.1382873"><ele>27.0</ele><time>2026-05-01T16:01:56.009Z</time></trkpt><trkpt lat="42.3972663" lon="14.1383797"><ele>27.0</ele><time>2026-05-01T16:01:57.009Z</time></trkpt><trkpt lat="42.3973626" lon="14.1384648"><ele>26.75</ele><time>2026-05-01T16:01:58.009Z</time></trkpt><trkpt lat="42.3974615" lon="14.1385546"><ele>26.5</ele><time>2026-05-01T16:01:59.009Z</time></trkpt><trkpt lat="42.3975602" lon="14.1386467"><ele>26.25</ele><time>2026-05-01T16:02:00.009Z</time></trkpt><trkpt lat="42.3976594" lon="14.1387425"><ele>26.0</ele><time>2026-05-01T16:02:01.009Z</time></trkpt><trkpt lat="42.3977542" lon="14.1388297"><ele>26.0</ele><time>2026-05-01T16:02:02.009Z</time></trkpt><trkpt lat="42.3978559" lon="14.1389168"><ele>26.0</ele><time>2026-05-01T16:02:03.009Z</time></trkpt><trkpt lat="42.3979532" lon="14.1390036"><ele>26.0</ele><time>2026-05-01T16:02:04.009Z</time></trkpt><trkpt lat="42.3980554" lon="14.1390909"><ele>26.0</ele><time>2026-05-01T16:02:05.009Z</time></trkpt><trkpt lat="42.3981536" lon="14.1391822"><ele>26.0</ele><time>2026-05-01T16:02:06.009Z</time></trkpt><trkpt lat="42.3982572" lon="14.1392709"><ele>26.0</ele><time>2026-05-01T16:02:07.009Z</time></trkpt><trkpt lat="42.3983585" lon="14.1393635"><ele>26.0</ele><time>2026-05-01T16:02:08.009Z</time></trkpt><trkpt lat="42.398463" lon="14.1394507"><ele>26.0</ele><time>2026-05-01T16:02:09.008Z</time></trkpt><trkpt lat="42.3985673" lon="14.1395406"><ele>26.0</ele><time>2026-05-01T16:02:10.009Z</time></trkpt><trkpt lat="42.398668" lon="14.1396322"><ele>26.0</ele><time>2026-05-01T16:02:11.009Z</time></trkpt><trkpt lat="42.398768" lon="14.1397311"><ele>26.0</ele><time>2026-05-01T16:02:12.009Z</time></trkpt><trkpt lat="42.3988689" lon="14.1398216"><ele>26.0</ele><time>2026-05-01T16:02:13.008Z</time></trkpt><trkpt lat="42.3989708" lon="14.1399131"><ele>25.75</ele><time>2026-05-01T16:02:14.009Z</time></trkpt><trkpt lat="42.399071" lon="14.1400052"><ele>25.5</ele><time>2026-05-01T16:02:15.009Z</time></trkpt><trkpt lat="42.3991737" lon="14.1400917"><ele>25.25</ele><time>2026-05-01T16:02:16.009Z</time></trkpt><trkpt lat="42.3992757" lon="14.1401821"><ele>25.0</ele><time>2026-05-01T16:02:17.009Z</time></trkpt><trkpt lat="42.399378" lon="14.1402733"><ele>25.0</ele><time>2026-05-01T16:02:18.009Z</time></trkpt><trkpt lat="42.3994823" lon="14.1403659"><ele>25.0</ele><time>2026-05-01T16:02:19.009Z</time></trkpt><trkpt lat="42.3995897" lon="14.140454"><ele>25.0</ele><time>2026-05-01T16:02:20.009Z</time></trkpt><trkpt lat="42.3996957" lon="14.1405467"><ele>25.0</ele><time>2026-05-01T16:02:21.008Z</time></trkpt><trkpt lat="42.3997986" lon="14.1406402"><ele>25.25</ele><time>2026-05-01T16:02:22.009Z</time></trkpt><trkpt lat="42.3999013" lon="14.1407378"><ele>25.5</ele><time>2026-05-01T16:02:23.009Z</time></trkpt><trkpt lat="42.4000064" lon="14.140825"><ele>25.75</ele><time>2026-05-01T16:02:24.009Z</time></trkpt><trkpt lat="42.4001082" lon="14.140918"><ele>26.0</ele><time>2026-05-01T16:02:25.009Z</time></trkpt><trkpt lat="42.4002148" lon="14.1410055"><ele>26.0</ele><time>2026-05-01T16:02:26.009Z</time></trkpt><trkpt lat="42.4003193" lon="14.1410959"><ele>26.0</ele><time>2026-05-01T16:02:27.009Z</time></trkpt><trkpt lat="42.4004195" lon="14.1411949"><ele>26.0</ele><time>2026-05-01T16:02:28.008Z</time></trkpt><trkpt lat="42.4005216" lon="14.1412876"><ele>26.0</ele><time>2026-05-01T16:02:29.009Z</time></trkpt><trkpt lat="42.400626" lon="14.1413793"><ele>25.75</ele><time>2026-05-01T16:02:30.009Z</time></trkpt><trkpt lat="42.4007296" lon="14.1414729"><ele>25.5</ele><time>2026-05-01T16:02:31.009Z</time></trkpt><trkpt lat="42.4008315" lon="14.1415703"><ele>25.25</ele><time>2026-05-01T16:02:32.009Z</time></trkpt><trkpt lat="42.4009359" lon="14.1416664"><ele>25.0</ele><time>2026-05-01T16:02:33.009Z</time></trkpt><trkpt lat="42.4010444" lon="14.1417625"><ele>25.0</ele><time>2026-05-01T16:02:34.009Z</time></trkpt><trkpt lat="42.4011555" lon="14.1418619"><ele>25.0</ele><time>2026-05-01T16:02:35.009Z</time></trkpt><trkpt lat="42.4012689" lon="14.1419629"><ele>25.0</ele><time>2026-05-01T16:02:36.008Z</time></trkpt><trkpt lat="42.4013834" lon="14.1420665"><ele>25.0</ele><time>2026-05-01T16:02:37.009Z</time></trkpt><trkpt lat="42.401497" lon="14.1421679"><ele>25.0</ele><time>2026-05-01T16:02:38.009Z</time></trkpt><trkpt lat="42.4016113" lon="14.1422693"><ele>25.0</ele><time>2026-05-01T16:02:39.009Z</time></trkpt><trkpt lat="42.4017225" lon="14.1423713"><ele>25.0</ele><time>2026-05-01T16:02:40.009Z</time></trkpt><trkpt lat="42.4018335" lon="14.1424725"><ele>25.0</ele><time>2026-05-01T16:02:41.009Z</time></trkpt><trkpt lat="42.4019461" lon="14.1425736"><ele>24.75</ele><time>2026-05-01T16:02:42.008Z</time></trkpt><trkpt lat="42.4020606" lon="14.1426735"><ele>24.5</ele><time>2026-05-01T16:02:43.008Z</time></trkpt><trkpt lat="42.4021783" lon="14.1427797"><ele>24.25</ele><time>2026-05-01T16:02:44.009Z</time></trkpt><trkpt lat="42.4022998" lon="14.1428852"><ele>24.0</ele><time>2026-05-01T16:02:45.009Z</time></trkpt><trkpt lat="42.4024246" lon="14.1429899"><ele>24.0</ele><time>2026-05-01T16:02:46.009Z</time></trkpt><trkpt lat="42.4025485" lon="14.1431007"><ele>24.0</ele><time>2026-05-01T16:02:47.009Z</time></trkpt><trkpt lat="42.4026715" lon="14.1432053"><ele>24.0</ele><time>2026-05-01T16:02:48.009Z</time></trkpt><trkpt lat="42.4027925" lon="14.1433115"><ele>24.0</ele><time>2026-05-01T16:02:49.009Z</time></trkpt><trkpt lat="42.4029128" lon="14.1434147"><ele>24.0</ele><time>2026-05-01T16:02:50.009Z</time></trkpt><trkpt lat="42.4030344" lon="14.1435152"><ele>24.0</ele><time>2026-05-01T16:02:51.009Z</time></trkpt><trkpt lat="42.4031543" lon="14.1436177"><ele>24.0</ele><time>2026-05-01T16:02:52.009Z</time></trkpt><trkpt lat="42.4032739" lon="14.1437209"><ele>24.0</ele><time>2026-05-01T16:02:53.009Z</time></trkpt><trkpt lat="42.403395" lon="14.1438319"><ele>24.0</ele><time>2026-05-01T16:02:54.009Z</time></trkpt><trkpt lat="42.4035141" lon="14.1439403"><ele>24.0</ele><time>2026-05-01T16:02:55.008Z</time></trkpt><trkpt lat="42.4036314" lon="14.1440522"><ele>24.0</ele><time>2026-05-01T16:02:56.009Z</time></trkpt><trkpt lat="42.403755" lon="14.1441628"><ele>24.0</ele><time>2026-05-01T16:02:57.008Z</time></trkpt><trkpt lat="42.4038763" lon="14.14427"><ele>24.25</ele><time>2026-05-01T16:02:58.009Z</time></trkpt><trkpt lat="42.4039956" lon="14.1443777"><ele>24.5</ele><time>2026-05-01T16:02:59.009Z</time></trkpt><trkpt lat="42.4041146" lon="14.1444922"><ele>24.75</ele><time>2026-05-01T16:03:00.009Z</time></trkpt><trkpt lat="42.4042315" lon="14.1446014"><ele>25.0</ele><time>2026-05-01T16:03:01.009Z</time></trkpt><trkpt lat="42.4043493" lon="14.1447108"><ele>25.0</ele><time>2026-05-01T16:03:02.009Z</time></trkpt><trkpt lat="42.4044532" lon="14.1448052"><ele>25.0</ele><time>2026-05-01T16:03:03.009Z</time></trkpt><trkpt lat="42.4045437" lon="14.1448824"><ele>25.0</ele><time>2026-05-01T16:03:04.009Z</time></trkpt><trkpt lat="42.4046319" lon="14.1449626"><ele>25.0</ele><time>2026-05-01T16:03:05.009Z</time></trkpt><trkpt lat="42.404713" lon="14.1450282"><ele>25.0</ele><time>2026-05-01T16:03:06.009Z</time></trkpt><trkpt lat="42.4047833" lon="14.1450892"><ele>24.666666666666668</ele><time>2026-05-01T16:03:07.009Z</time></trkpt><trkpt lat="42.4048552" lon="14.1451538"><ele>24.333333333333336</ele><time>2026-05-01T16:03:08.009Z</time></trkpt><trkpt lat="42.4049163" lon="14.1452182"><ele>24.0</ele><time>2026-05-01T16:03:09.008Z</time></trkpt><trkpt lat="42.4049817" lon="14.1452747"><ele>23.666666666666668</ele><time>2026-05-01T16:03:10.009Z</time></trkpt><trkpt lat="42.4050447" lon="14.1453252"><ele>23.333333333333336</ele><time>2026-05-01T16:03:11.009Z</time></trkpt><trkpt lat="42.4051054" lon="14.1453817"><ele>23.0</ele><time>2026-05-01T16:03:12.009Z</time></trkpt><trkpt lat="42.4051646" lon="14.145439"><ele>23.0</ele><time>2026-05-01T16:03:13.009Z</time></trkpt><trkpt lat="42.405218" lon="14.1454903"><ele>23.0</ele><time>2026-05-01T16:03:14.009Z</time></trkpt><trkpt lat="42.4052727" lon="14.1455405"><ele>23.0</ele><time>2026-05-01T16:03:15.009Z</time></trkpt><trkpt lat="42.4053282" lon="14.1455899"><ele>23.0</ele><time>2026-05-01T16:03:16.008Z</time></trkpt><trkpt lat="42.4053993" lon="14.145657"><ele>23.0</ele><time>2026-05-01T16:03:18.008Z</time></trkpt><trkpt lat="42.4054429" lon="14.1457497"><ele>23.0</ele><time>2026-05-01T16:03:20.009Z</time></trkpt><trkpt lat="42.4054637" lon="14.145885"><ele>22.799999999999997</ele><time>2026-05-01T16:03:22.008Z</time></trkpt><trkpt lat="42.405474" lon="14.1460107"><ele>22.6</ele><time>2026-05-01T16:03:24.009Z</time></trkpt><trkpt lat="42.4055418" lon="14.1460929"><ele>22.4</ele><time>2026-05-01T16:03:26.009Z</time></trkpt><trkpt lat="42.4056491" lon="14.1460722"><ele>22.200000000000003</ele><time>2026-05-01T16:03:28.009Z</time></trkpt><trkpt lat="42.4057627" lon="14.1460406"><ele>22.0</ele><time>2026-05-01T16:03:30.008Z</time></trkpt><trkpt lat="42.4058714" lon="14.1460906"><ele>22.0</ele><time>2026-05-01T16:03:32.009Z</time></trkpt><trkpt lat="42.4059367" lon="14.1461449"><ele>22.0</ele><time>2026-05-01T16:03:33.009Z</time></trkpt><trkpt lat="42.4060043" lon="14.1462035"><ele>22.0</ele><time>2026-05-01T16:03:34.009Z</time></trkpt><trkpt lat="42.4060889" lon="14.1462767"><ele>22.0</ele><time>2026-05-01T16:03:35.009Z</time></trkpt><trkpt lat="42.4061992" lon="14.1463616"><ele>22.0</ele><time>2026-05-01T16:03:36.009Z</time></trkpt><trkpt lat="42.4063272" lon="14.1464688"><ele>22.0</ele><time>2026-05-01T16:03:37.009Z</time></trkpt><trkpt lat="42.4064613" lon="14.1465836"><ele>22.0</ele><time>2026-05-01T16:03:38.009Z</time></trkpt><trkpt lat="42.4065875" lon="14.1466992"><ele>22.0</ele><time>2026-05-01T16:03:39.009Z</time></trkpt><trkpt lat="42.4067117" lon="14.1468016"><ele>22.0</ele><time>2026-05-01T16:03:40.009Z</time></trkpt><trkpt lat="42.4068455" lon="14.14688"><ele>22.0</ele><time>2026-05-01T16:03:41.009Z</time></trkpt><trkpt lat="42.4069827" lon="14.1469347"><ele>22.0</ele><time>2026-05-01T16:03:42.009Z</time></trkpt><trkpt lat="42.4071178" lon="14.1469791"><ele>22.0</ele><time>2026-05-01T16:03:43.008Z</time></trkpt><trkpt lat="42.407247" lon="14.1470242"><ele>21.0</ele><time>2026-05-01T16:03:44.009Z</time></trkpt><trkpt lat="42.4073732" lon="14.1470653"><ele>20.0</ele><time>2026-05-01T16:03:45.009Z</time></trkpt><trkpt lat="42.4075034" lon="14.1471"><ele>19.0</ele><time>2026-05-01T16:03:46.009Z</time></trkpt><trkpt lat="42.4076372" lon="14.147126"><ele>18.0</ele><time>2026-05-01T16:03:47.009Z</time></trkpt><trkpt lat="42.4077757" lon="14.1471475"><ele>18.0</ele><time>2026-05-01T16:03:48.009Z</time></trkpt><trkpt lat="42.4079135" lon="14.1471785"><ele>18.0</ele><time>2026-05-01T16:03:49.009Z</time></trkpt><trkpt lat="42.4080525" lon="14.1472118"><ele>18.0</ele><time>2026-05-01T16:03:50.009Z</time></trkpt><trkpt lat="42.408191" lon="14.147248"><ele>18.0</ele><time>2026-05-01T16:03:51.009Z</time></trkpt><trkpt lat="42.4083262" lon="14.1472966"><ele>17.75</ele><time>2026-05-01T16:03:52.009Z</time></trkpt><trkpt lat="42.4084567" lon="14.1473522"><ele>17.5</ele><time>2026-05-01T16:03:53.009Z</time></trkpt><trkpt lat="42.4085836" lon="14.1474157"><ele>17.25</ele><time>2026-05-01T16:03:54.009Z</time></trkpt><trkpt lat="42.4087106" lon="14.147487"><ele>17.0</ele><time>2026-05-01T16:03:55.009Z</time></trkpt><trkpt lat="42.4088366" lon="14.1475666"><ele>17.0</ele><time>2026-05-01T16:03:56.009Z</time></trkpt><trkpt lat="42.4089611" lon="14.1476564"><ele>17.0</ele><time>2026-05-01T16:03:57.009Z</time></trkpt><trkpt lat="42.4090857" lon="14.1477518"><ele>17.0</ele><time>2026-05-01T16:03:58.009Z</time></trkpt><trkpt lat="42.4092101" lon="14.147848"><ele>17.0</ele><time>2026-05-01T16:03:59.009Z</time></trkpt><trkpt lat="42.4093367" lon="14.1479415"><ele>17.0</ele><time>2026-05-01T16:04:00.009Z</time></trkpt><trkpt lat="42.4094612" lon="14.1480409"><ele>17.0</ele><time>2026-05-01T16:04:01.009Z</time></trkpt><trkpt lat="42.4095843" lon="14.1481423"><ele>17.0</ele><time>2026-05-01T16:04:02.009Z</time></trkpt><trkpt lat="42.4097061" lon="14.1482356"><ele>17.0</ele><time>2026-05-01T16:04:03.009Z</time></trkpt><trkpt lat="42.4098265" lon="14.1483363"><ele>17.5</ele><time>2026-05-01T16:04:04.008Z</time></trkpt><trkpt lat="42.4099519" lon="14.1484376"><ele>18.0</ele><time>2026-05-01T16:04:05.009Z</time></trkpt><trkpt lat="42.4100798" lon="14.1485432"><ele>18.5</ele><time>2026-05-01T16:04:06.009Z</time></trkpt><trkpt lat="42.4102097" lon="14.1486478"><ele>19.0</ele><time>2026-05-01T16:04:07.009Z</time></trkpt><trkpt lat="42.4103421" lon="14.1487533"><ele>19.0</ele><time>2026-05-01T16:04:08.009Z</time></trkpt><trkpt lat="42.4104738" lon="14.1488578"><ele>19.0</ele><time>2026-05-01T16:04:09.009Z</time></trkpt><trkpt lat="42.4106047" lon="14.1489618"><ele>19.0</ele><time>2026-05-01T16:04:10.009Z</time></trkpt><trkpt lat="42.4107399" lon="14.1490624"><ele>19.666666666666664</ele><time>2026-05-01T16:04:11.008Z</time></trkpt><trkpt lat="42.4108745" lon="14.1491685"><ele>20.333333333333332</ele><time>2026-05-01T16:04:12.009Z</time></trkpt><trkpt lat="42.4110086" lon="14.1492777"><ele>21.0</ele><time>2026-05-01T16:04:13.009Z</time></trkpt><trkpt lat="42.4111464" lon="14.1493861"><ele>21.0</ele><time>2026-05-01T16:04:14.009Z</time></trkpt><trkpt lat="42.4112824" lon="14.149492"><ele>21.0</ele><time>2026-05-01T16:04:15.009Z</time></trkpt><trkpt lat="42.4114176" lon="14.1496034"><ele>21.0</ele><time>2026-05-01T16:04:16.009Z</time></trkpt><trkpt lat="42.4115554" lon="14.1497131"><ele>21.0</ele><time>2026-05-01T16:04:17.009Z</time></trkpt><trkpt lat="42.4116939" lon="14.1498285"><ele>21.0</ele><time>2026-05-01T16:04:18.009Z</time></trkpt><trkpt lat="42.4118347" lon="14.1499479"><ele>21.0</ele><time>2026-05-01T16:04:19.009Z</time></trkpt><trkpt lat="42.4119789" lon="14.1500655"><ele>20.0</ele><time>2026-05-01T16:04:20.009Z</time></trkpt><trkpt lat="42.412124" lon="14.1501801"><ele>19.0</ele><time>2026-05-01T16:04:21.009Z</time></trkpt><trkpt lat="42.4122744" lon="14.1502947"><ele>18.0</ele><time>2026-05-01T16:04:22.009Z</time></trkpt><trkpt lat="42.4124209" lon="14.1504108"><ele>17.0</ele><time>2026-05-01T16:04:23.009Z</time></trkpt><trkpt lat="42.4125672" lon="14.1505288"><ele>16.0</ele><time>2026-05-01T16:04:24.009Z</time></trkpt><trkpt lat="42.4127122" lon="14.1506433"><ele>15.0</ele><time>2026-05-01T16:04:25.009Z</time></trkpt><trkpt lat="42.4128525" lon="14.1507655"><ele>15.0</ele><time>2026-05-01T16:04:26.009Z</time></trkpt><trkpt lat="42.4129873" lon="14.1508943"><ele>15.0</ele><time>2026-05-01T16:04:27.009Z</time></trkpt><trkpt lat="42.4131205" lon="14.1510307"><ele>15.0</ele><time>2026-05-01T16:04:28.009Z</time></trkpt><trkpt lat="42.4132517" lon="14.1511722"><ele>15.0</ele><time>2026-05-01T16:04:29.009Z</time></trkpt><trkpt lat="42.4133831" lon="14.1513113"><ele>15.0</ele><time>2026-05-01T16:04:30.009Z</time></trkpt><trkpt lat="42.4135184" lon="14.1514459"><ele>15.0</ele><time>2026-05-01T16:04:31.009Z</time></trkpt><trkpt lat="42.4136654" lon="14.1515667"><ele>15.333333333333332</ele><time>2026-05-01T16:04:32.009Z</time></trkpt><trkpt lat="42.4138117" lon="14.1516722"><ele>15.666666666666666</ele><time>2026-05-01T16:04:33.009Z</time></trkpt><trkpt lat="42.4139633" lon="14.151769"><ele>16.0</ele><time>2026-05-01T16:04:34.009Z</time></trkpt><trkpt lat="42.4141213" lon="14.1518464"><ele>16.0</ele><time>2026-05-01T16:04:35.009Z</time></trkpt><trkpt lat="42.4142799" lon="14.1519168"><ele>16.0</ele><time>2026-05-01T16:04:36.008Z</time></trkpt><trkpt lat="42.4144422" lon="14.1519677"><ele>16.0</ele><time>2026-05-01T16:04:37.009Z</time></trkpt><trkpt lat="42.4145995" lon="14.1520087"><ele>15.666666666666666</ele><time>2026-05-01T16:04:38.009Z</time></trkpt><trkpt lat="42.4147623" lon="14.1520385"><ele>15.333333333333332</ele><time>2026-05-01T16:04:39.008Z</time></trkpt><trkpt lat="42.4149191" lon="14.1520571"><ele>15.0</ele><time>2026-05-01T16:04:40.009Z</time></trkpt><trkpt lat="42.4150809" lon="14.1520658"><ele>15.0</ele><time>2026-05-01T16:04:41.009Z</time></trkpt><trkpt lat="42.4152472" lon="14.1520656"><ele>15.0</ele><time>2026-05-01T16:04:42.009Z</time></trkpt><trkpt lat="42.4154125" lon="14.1520742"><ele>15.0</ele><time>2026-05-01T16:04:43.009Z</time></trkpt><trkpt lat="42.4155741" lon="14.1520891"><ele>15.333333333333332</ele><time>2026-05-01T16:04:44.009Z</time></trkpt><trkpt lat="42.415739" lon="14.1521107"><ele>15.666666666666666</ele><time>2026-05-01T16:04:45.009Z</time></trkpt><trkpt lat="42.4159021" lon="14.1521517"><ele>16.0</ele><time>2026-05-01T16:04:46.009Z</time></trkpt><trkpt lat="42.4160574" lon="14.1522169"><ele>16.0</ele><time>2026-05-01T16:04:47.009Z</time></trkpt><trkpt lat="42.416204" lon="14.1523078"><ele>16.0</ele><time>2026-05-01T16:04:48.009Z</time></trkpt><trkpt lat="42.4163324" lon="14.152439"><ele>16.0</ele><time>2026-05-01T16:04:49.008Z</time></trkpt><trkpt lat="42.4164548" lon="14.1525806"><ele>17.333333333333332</ele><time>2026-05-01T16:04:50.009Z</time></trkpt><trkpt lat="42.4165623" lon="14.1527391"><ele>18.666666666666668</ele><time>2026-05-01T16:04:51.009Z</time></trkpt><trkpt lat="42.4166779" lon="14.1528993"><ele>20.0</ele><time>2026-05-01T16:04:52.009Z</time></trkpt><trkpt lat="42.4167957" lon="14.1530556"><ele>19.666666666666668</ele><time>2026-05-01T16:04:53.008Z</time></trkpt><trkpt lat="42.4169126" lon="14.1532178"><ele>19.333333333333332</ele><time>2026-05-01T16:04:54.008Z</time></trkpt><trkpt lat="42.4170298" lon="14.1533788"><ele>19.0</ele><time>2026-05-01T16:04:55.008Z</time></trkpt><trkpt lat="42.4171461" lon="14.1535377"><ele>19.666666666666664</ele><time>2026-05-01T16:04:56.009Z</time></trkpt><trkpt lat="42.4172648" lon="14.1536908"><ele>20.333333333333332</ele><time>2026-05-01T16:04:57.009Z</time></trkpt><trkpt lat="42.4173773" lon="14.1538261"><ele>21.0</ele><time>2026-05-01T16:04:58.009Z</time></trkpt><trkpt lat="42.4174739" lon="14.1539574"><ele>20.5</ele><time>2026-05-01T16:04:59.009Z</time></trkpt><trkpt lat="42.4175677" lon="14.1540815"><ele>20.0</ele><time>2026-05-01T16:05:00.009Z</time></trkpt><trkpt lat="42.417656" lon="14.1541985"><ele>19.5</ele><time>2026-05-01T16:05:01.009Z</time></trkpt><trkpt lat="42.4177412" lon="14.1543141"><ele>19.0</ele><time>2026-05-01T16:05:02.009Z</time></trkpt><trkpt lat="42.4178277" lon="14.1544309"><ele>19.0</ele><time>2026-05-01T16:05:03.009Z</time></trkpt><trkpt lat="42.4179145" lon="14.154546"><ele>19.0</ele><time>2026-05-01T16:05:04.009Z</time></trkpt><trkpt lat="42.4179944" lon="14.1546576"><ele>19.0</ele><time>2026-05-01T16:05:05.009Z</time></trkpt><trkpt lat="42.4180884" lon="14.1547726"><ele>19.0</ele><time>2026-05-01T16:05:06.009Z</time></trkpt><trkpt lat="42.4181685" lon="14.1549007"><ele>18.5</ele><time>2026-05-01T16:05:07.009Z</time></trkpt><trkpt lat="42.4182583" lon="14.1550275"><ele>18.0</ele><time>2026-05-01T16:05:08.009Z</time></trkpt><trkpt lat="42.4183498" lon="14.1551574"><ele>17.5</ele><time>2026-05-01T16:05:09.009Z</time></trkpt><trkpt lat="42.4184355" lon="14.1552866"><ele>17.0</ele><time>2026-05-01T16:05:10.009Z</time></trkpt><trkpt lat="42.4185388" lon="14.1554099"><ele>17.0</ele><time>2026-05-01T16:05:11.009Z</time></trkpt><trkpt lat="42.4186341" lon="14.15553"><ele>17.0</ele><time>2026-05-01T16:05:12.009Z</time></trkpt><trkpt lat="42.4187249" lon="14.1556532"><ele>17.0</ele><time>2026-05-01T16:05:13.009Z</time></trkpt><trkpt lat="42.4188109" lon="14.1557744"><ele>17.0</ele><time>2026-05-01T16:05:14.009Z</time></trkpt><trkpt lat="42.4188935" lon="14.155901"><ele>18.5</ele><time>2026-05-01T16:05:15.009Z</time></trkpt><trkpt lat="42.4189728" lon="14.1560114"><ele>20.0</ele><time>2026-05-01T16:05:16.009Z</time></trkpt><trkpt lat="42.4190581" lon="14.1561218"><ele>21.5</ele><time>2026-05-01T16:05:17.009Z</time></trkpt><trkpt lat="42.4191425" lon="14.1562236"><ele>23.0</ele><time>2026-05-01T16:05:18.008Z</time></trkpt><trkpt lat="42.4192367" lon="14.1563126"><ele>23.0</ele><time>2026-05-01T16:05:19.009Z</time></trkpt><trkpt lat="42.4193461" lon="14.1563826"><ele>23.0</ele><time>2026-05-01T16:05:20.008Z</time></trkpt><trkpt lat="42.4194559" lon="14.1564453"><ele>23.0</ele><time>2026-05-01T16:05:21.009Z</time></trkpt><trkpt lat="42.4195756" lon="14.1564963"><ele>23.0</ele><time>2026-05-01T16:05:22.009Z</time></trkpt><trkpt lat="42.4196998" lon="14.1565431"><ele>22.25</ele><time>2026-05-01T16:05:23.008Z</time></trkpt><trkpt lat="42.4198245" lon="14.1565959"><ele>21.5</ele><time>2026-05-01T16:05:24.008Z</time></trkpt><trkpt lat="42.4199529" lon="14.1566481"><ele>20.75</ele><time>2026-05-01T16:05:25.009Z</time></trkpt><trkpt lat="42.4200835" lon="14.1567038"><ele>20.0</ele><time>2026-05-01T16:05:26.009Z</time></trkpt><trkpt lat="42.4202196" lon="14.1567539"><ele>20.0</ele><time>2026-05-01T16:05:27.009Z</time></trkpt><trkpt lat="42.4203556" lon="14.1568113"><ele>20.0</ele><time>2026-05-01T16:05:28.009Z</time></trkpt><trkpt lat="42.4204927" lon="14.1568706"><ele>20.0</ele><time>2026-05-01T16:05:29.009Z</time></trkpt><trkpt lat="42.4206295" lon="14.1569326"><ele>20.0</ele><time>2026-05-01T16:05:30.009Z</time></trkpt><trkpt lat="42.4207644" lon="14.1569945"><ele>20.25</ele><time>2026-05-01T16:05:31.009Z</time></trkpt><trkpt lat="42.4208896" lon="14.1570496"><ele>20.5</ele><time>2026-05-01T16:05:32.009Z</time></trkpt><trkpt lat="42.4210152" lon="14.157098"><ele>20.75</ele><time>2026-05-01T16:05:33.009Z</time></trkpt><trkpt lat="42.4211271" lon="14.1571409"><ele>21.0</ele><time>2026-05-01T16:05:34.009Z</time></trkpt><trkpt lat="42.4212252" lon="14.1571813"><ele>21.4</ele><time>2026-05-01T16:05:35.009Z</time></trkpt><trkpt lat="42.4213204" lon="14.157226"><ele>21.8</ele><time>2026-05-01T16:05:36.009Z</time></trkpt><trkpt lat="42.4214168" lon="14.1572637"><ele>22.2</ele><time>2026-05-01T16:05:37.009Z</time></trkpt><trkpt lat="42.4215019" lon="14.1572997"><ele>22.599999999999998</ele><time>2026-05-01T16:05:38.009Z</time></trkpt><trkpt lat="42.4215751" lon="14.1573316"><ele>23.0</ele><time>2026-05-01T16:05:39.009Z</time></trkpt><trkpt lat="42.4216857" lon="14.1573724"><ele>22.5</ele><time>2026-05-01T16:05:41.009Z</time></trkpt><trkpt lat="42.4217929" lon="14.1574062"><ele>22.0</ele><time>2026-05-01T16:05:43.009Z</time></trkpt><trkpt lat="42.4218923" lon="14.1574226"><ele>21.5</ele><time>2026-05-01T16:05:45.009Z</time></trkpt><trkpt lat="42.4219575" lon="14.1574237"><ele>21.0</ele><time>2026-05-01T16:05:47.009Z</time></trkpt><trkpt lat="42.4220298" lon="14.1574132"><ele>20.5</ele><time>2026-05-01T16:05:50.009Z</time></trkpt><trkpt lat="42.4221082" lon="14.1573982"><ele>20.0</ele><time>2026-05-01T16:05:58.009Z</time></trkpt><trkpt lat="42.4221797" lon="14.1574156"><ele>20.0</ele><time>2026-05-01T16:06:00.009Z</time></trkpt><trkpt lat="42.4222423" lon="14.1574495"><ele>20.0</ele><time>2026-05-01T16:06:02.009Z</time></trkpt><trkpt lat="42.4223167" lon="14.1574715"><ele>20.0</ele><time>2026-05-01T16:06:04.009Z</time></trkpt><trkpt lat="42.4223815" lon="14.1574936"><ele>20.0</ele><time>2026-05-01T16:06:06.009Z</time></trkpt><trkpt lat="42.4224543" lon="14.1575157"><ele>20.0</ele><time>2026-05-01T16:06:08.009Z</time></trkpt><trkpt lat="42.4225383" lon="14.1575487"><ele>20.0</ele><time>2026-05-01T16:06:10.009Z</time></trkpt><trkpt lat="42.4226015" lon="14.1575861"><ele>20.0</ele><time>2026-05-01T16:06:12.009Z</time></trkpt><trkpt lat="42.4226634" lon="14.1576334"><ele>20.0</ele><time>2026-05-01T16:06:14.009Z</time></trkpt><trkpt lat="42.4227307" lon="14.1577037"><ele>20.0</ele><time>2026-05-01T16:06:16.008Z</time></trkpt><trkpt lat="42.4227821" lon="14.1577614"><ele>20.0</ele><time>2026-05-01T16:06:18.009Z</time></trkpt><trkpt lat="42.4228477" lon="14.1578123"><ele>20.0</ele><time>2026-05-01T16:06:20.009Z</time></trkpt><trkpt lat="42.4229464" lon="14.1578519"><ele>20.0</ele><time>2026-05-01T16:06:22.009Z</time></trkpt><trkpt lat="42.4230547" lon="14.1578852"><ele>20.0</ele><time>2026-05-01T16:06:24.009Z</time></trkpt><trkpt lat="42.4231165" lon="14.1579109"><ele>19.666666666666668</ele><time>2026-05-01T16:06:25.009Z</time></trkpt><trkpt lat="42.4231866" lon="14.1579464"><ele>19.333333333333336</ele><time>2026-05-01T16:06:26.008Z</time></trkpt><trkpt lat="42.4232608" lon="14.1579831"><ele>19.0</ele><time>2026-05-01T16:06:27.009Z</time></trkpt><trkpt lat="42.4233377" lon="14.1580218"><ele>18.666666666666668</ele><time>2026-05-01T16:06:28.009Z</time></trkpt><trkpt lat="42.4234202" lon="14.1580552"><ele>18.333333333333332</ele><time>2026-05-01T16:06:29.009Z</time></trkpt><trkpt lat="42.4235006" lon="14.1580866"><ele>18.0</ele><time>2026-05-01T16:06:30.009Z</time></trkpt><trkpt lat="42.4235818" lon="14.158118"><ele>18.0</ele><time>2026-05-01T16:06:31.008Z</time></trkpt><trkpt lat="42.4236677" lon="14.1581509"><ele>18.0</ele><time>2026-05-01T16:06:32.009Z</time></trkpt><trkpt lat="42.4237538" lon="14.1581868"><ele>18.0</ele><time>2026-05-01T16:06:33.009Z</time></trkpt><trkpt lat="42.423839" lon="14.1582228"><ele>18.0</ele><time>2026-05-01T16:06:34.009Z</time></trkpt><trkpt lat="42.4239214" lon="14.1582525"><ele>18.0</ele><time>2026-05-01T16:06:35.009Z</time></trkpt><trkpt lat="42.4239907" lon="14.1582789"><ele>18.0</ele><time>2026-05-01T16:06:36.009Z</time></trkpt><trkpt lat="42.4240501" lon="14.1583107"><ele>17.833333333333332</ele><time>2026-05-01T16:06:37.009Z</time></trkpt><trkpt lat="42.4241336" lon="14.1583569"><ele>17.666666666666668</ele><time>2026-05-01T16:06:39.009Z</time></trkpt><trkpt lat="42.4241947" lon="14.1583778"><ele>17.5</ele><time>2026-05-01T16:06:41.009Z</time></trkpt><trkpt lat="42.4242722" lon="14.1584019"><ele>17.333333333333336</ele><time>2026-05-01T16:06:43.009Z</time></trkpt><trkpt lat="42.4243518" lon="14.1584359"><ele>17.166666666666668</ele><time>2026-05-01T16:06:44.009Z</time></trkpt><trkpt lat="42.4244361" lon="14.1584676"><ele>17.0</ele><time>2026-05-01T16:06:45.008Z</time></trkpt><trkpt lat="42.4245294" lon="14.1585103"><ele>17.0</ele><time>2026-05-01T16:06:46.009Z</time></trkpt><trkpt lat="42.424639" lon="14.1585503"><ele>17.0</ele><time>2026-05-01T16:06:47.009Z</time></trkpt><trkpt lat="42.4247494" lon="14.158597"><ele>17.0</ele><time>2026-05-01T16:06:48.009Z</time></trkpt><trkpt lat="42.4248675" lon="14.1586469"><ele>17.0</ele><time>2026-05-01T16:06:49.008Z</time></trkpt><trkpt lat="42.4249926" lon="14.1587016"><ele>17.25</ele><time>2026-05-01T16:06:50.009Z</time></trkpt><trkpt lat="42.4251152" lon="14.1587605"><ele>17.5</ele><time>2026-05-01T16:06:51.009Z</time></trkpt><trkpt lat="42.4252334" lon="14.1588177"><ele>17.75</ele><time>2026-05-01T16:06:52.009Z</time></trkpt><trkpt lat="42.4253443" lon="14.158866"><ele>18.0</ele><time>2026-05-01T16:06:53.009Z</time></trkpt><trkpt lat="42.4254449" lon="14.1589107"><ele>18.2</ele><time>2026-05-01T16:06:54.008Z</time></trkpt><trkpt lat="42.4255403" lon="14.1589562"><ele>18.4</ele><time>2026-05-01T16:06:55.009Z</time></trkpt><trkpt lat="42.4256312" lon="14.1590039"><ele>18.599999999999998</ele><time>2026-05-01T16:06:56.009Z</time></trkpt><trkpt lat="42.4257211" lon="14.1590506"><ele>18.8</ele><time>2026-05-01T16:06:57.009Z</time></trkpt><trkpt lat="42.4258083" lon="14.1590943"><ele>19.0</ele><time>2026-05-01T16:06:58.009Z</time></trkpt><trkpt lat="42.4258937" lon="14.1591364"><ele>19.0</ele><time>2026-05-01T16:06:59.009Z</time></trkpt><trkpt lat="42.4259655" lon="14.1591738"><ele>19.0</ele><time>2026-05-01T16:07:00.009Z</time></trkpt><trkpt lat="42.426073" lon="14.1592296"><ele>19.0</ele><time>2026-05-01T16:07:02.008Z</time></trkpt><trkpt lat="42.426147" lon="14.1592663"><ele>19.0</ele><time>2026-05-01T16:07:05.009Z</time></trkpt><trkpt lat="42.4262344" lon="14.1593195"><ele>19.0</ele><time>2026-05-01T16:07:07.009Z</time></trkpt><trkpt lat="42.4262996" lon="14.1593639"><ele>19.0</ele><time>2026-05-01T16:07:08.009Z</time></trkpt><trkpt lat="42.4263705" lon="14.1594175"><ele>19.2</ele><time>2026-05-01T16:07:09.009Z</time></trkpt><trkpt lat="42.4264526" lon="14.1594801"><ele>19.4</ele><time>2026-05-01T16:07:10.009Z</time></trkpt><trkpt lat="42.426541" lon="14.1595464"><ele>19.6</ele><time>2026-05-01T16:07:11.009Z</time></trkpt><trkpt lat="42.4266314" lon="14.159614"><ele>19.8</ele><time>2026-05-01T16:07:12.008Z</time></trkpt><trkpt lat="42.4267179" lon="14.1596856"><ele>20.0</ele><time>2026-05-01T16:07:13.009Z</time></trkpt><trkpt lat="42.4267984" lon="14.1597579"><ele>20.0</ele><time>2026-05-01T16:07:14.008Z</time></trkpt><trkpt lat="42.4268855" lon="14.1598258"><ele>20.0</ele><time>2026-05-01T16:07:15.008Z</time></trkpt><trkpt lat="42.4269813" lon="14.1598982"><ele>20.0</ele><time>2026-05-01T16:07:16.008Z</time></trkpt><trkpt lat="42.4270764" lon="14.1599877"><ele>20.0</ele><time>2026-05-01T16:07:17.009Z</time></trkpt><trkpt lat="42.427184" lon="14.1600758"><ele>19.5</ele><time>2026-05-01T16:07:18.009Z</time></trkpt><trkpt lat="42.4272909" lon="14.1601712"><ele>19.0</ele><time>2026-05-01T16:07:19.008Z</time></trkpt><trkpt lat="42.427406" lon="14.1602771"><ele>18.5</ele><time>2026-05-01T16:07:20.009Z</time></trkpt><trkpt lat="42.4275211" lon="14.1603815"><ele>18.0</ele><time>2026-05-01T16:07:21.009Z</time></trkpt><trkpt lat="42.4276481" lon="14.1605049"><ele>18.0</ele><time>2026-05-01T16:07:22.009Z</time></trkpt><trkpt lat="42.4277746" lon="14.1606286"><ele>18.0</ele><time>2026-05-01T16:07:23.009Z</time></trkpt><trkpt lat="42.4279035" lon="14.1607499"><ele>18.0</ele><time>2026-05-01T16:07:24.009Z</time></trkpt><trkpt lat="42.4280317" lon="14.1608717"><ele>17.666666666666668</ele><time>2026-05-01T16:07:25.009Z</time></trkpt><trkpt lat="42.4281591" lon="14.1609938"><ele>17.333333333333336</ele><time>2026-05-01T16:07:26.009Z</time></trkpt><trkpt lat="42.4282838" lon="14.1611177"><ele>17.0</ele><time>2026-05-01T16:07:27.009Z</time></trkpt><trkpt lat="42.4284049" lon="14.1612362"><ele>17.0</ele><time>2026-05-01T16:07:28.008Z</time></trkpt><trkpt lat="42.4285197" lon="14.1613473"><ele>17.0</ele><time>2026-05-01T16:07:29.009Z</time></trkpt><trkpt lat="42.428625" lon="14.1614514"><ele>17.0</ele><time>2026-05-01T16:07:30.009Z</time></trkpt><trkpt lat="42.4287229" lon="14.1615514"><ele>17.0</ele><time>2026-05-01T16:07:31.009Z</time></trkpt><trkpt lat="42.4288076" lon="14.1616392"><ele>19.0</ele><time>2026-05-01T16:07:32.009Z</time></trkpt><trkpt lat="42.4288911" lon="14.1617207"><ele>21.0</ele><time>2026-05-01T16:07:33.009Z</time></trkpt><trkpt lat="42.4289723" lon="14.1618032"><ele>23.000000000000004</ele><time>2026-05-01T16:07:34.008Z</time></trkpt><trkpt lat="42.4290587" lon="14.1618855"><ele>25.0</ele><time>2026-05-01T16:07:35.009Z</time></trkpt><trkpt lat="42.4291488" lon="14.1619747"><ele>27.0</ele><time>2026-05-01T16:07:36.009Z</time></trkpt><trkpt lat="42.4292418" lon="14.1620712"><ele>27.0</ele><time>2026-05-01T16:07:37.008Z</time></trkpt><trkpt lat="42.4293384" lon="14.1621692"><ele>27.0</ele><time>2026-05-01T16:07:38.009Z</time></trkpt><trkpt lat="42.429433" lon="14.1622628"><ele>27.0</ele><time>2026-05-01T16:07:39.009Z</time></trkpt><trkpt lat="42.4295198" lon="14.1623526"><ele>27.0</ele><time>2026-05-01T16:07:40.009Z</time></trkpt><trkpt lat="42.4296123" lon="14.1624391"><ele>25.5</ele><time>2026-05-01T16:07:41.009Z</time></trkpt><trkpt lat="42.4297099" lon="14.1625211"><ele>24.0</ele><time>2026-05-01T16:07:42.008Z</time></trkpt><trkpt lat="42.4298138" lon="14.162597"><ele>22.5</ele><time>2026-05-01T16:07:43.009Z</time></trkpt><trkpt lat="42.4299257" lon="14.1626623"><ele>21.0</ele><time>2026-05-01T16:07:44.008Z</time></trkpt><trkpt lat="42.4300451" lon="14.1627145"><ele>21.0</ele><time>2026-05-01T16:07:45.009Z</time></trkpt><trkpt lat="42.4301535" lon="14.1627537"><ele>21.0</ele><time>2026-05-01T16:07:46.009Z</time></trkpt><trkpt lat="42.4302355" lon="14.1627726"><ele>21.0</ele><time>2026-05-01T16:07:47.009Z</time></trkpt><trkpt lat="42.4302984" lon="14.1627918"><ele>21.0</ele><time>2026-05-01T16:07:48.009Z</time></trkpt><trkpt lat="42.4303829" lon="14.1627798"><ele>21.0</ele><time>2026-05-01T16:07:50.009Z</time></trkpt><trkpt lat="42.4304507" lon="14.1627518"><ele>21.0</ele><time>2026-05-01T16:07:52.009Z</time></trkpt><trkpt lat="42.4305034" lon="14.1626979"><ele>21.0</ele><time>2026-05-01T16:07:55.009Z</time></trkpt><trkpt lat="42.4304677" lon="14.1626185"><ele>21.0</ele><time>2026-05-01T16:07:57.009Z</time></trkpt><trkpt lat="42.4304025" lon="14.1625627"><ele>21.0</ele><time>2026-05-01T16:07:59.008Z</time></trkpt><trkpt lat="42.4303451" lon="14.1624673"><ele>21.0</ele><time>2026-05-01T16:08:01.009Z</time></trkpt><trkpt lat="42.4303481" lon="14.1623295"><ele>21.0</ele><time>2026-05-01T16:08:03.008Z</time></trkpt><trkpt lat="42.4303787" lon="14.1622431"><ele>21.0</ele><time>2026-05-01T16:08:04.008Z</time></trkpt><trkpt lat="42.4304204" lon="14.1621439"><ele>21.4</ele><time>2026-05-01T16:08:05.009Z</time></trkpt><trkpt lat="42.4304654" lon="14.1620354"><ele>21.8</ele><time>2026-05-01T16:08:06.008Z</time></trkpt><trkpt lat="42.430511" lon="14.1619225"><ele>22.2</ele><time>2026-05-01T16:08:07.009Z</time></trkpt><trkpt lat="42.4305599" lon="14.1618035"><ele>22.599999999999998</ele><time>2026-05-01T16:08:08.009Z</time></trkpt><trkpt lat="42.4306119" lon="14.1616784"><ele>23.0</ele><time>2026-05-01T16:08:09.009Z</time></trkpt><trkpt lat="42.4306624" lon="14.1615531"><ele>23.799999999999997</ele><time>2026-05-01T16:08:10.009Z</time></trkpt><trkpt lat="42.4307099" lon="14.161437"><ele>24.6</ele><time>2026-05-01T16:08:11.009Z</time></trkpt><trkpt lat="42.4307503" lon="14.161337"><ele>25.400000000000002</ele><time>2026-05-01T16:08:12.009Z</time></trkpt><trkpt lat="42.4307858" lon="14.1612476"><ele>26.200000000000003</ele><time>2026-05-01T16:08:13.009Z</time></trkpt><trkpt lat="42.4308156" lon="14.1611684"><ele>27.0</ele><time>2026-05-01T16:08:14.009Z</time></trkpt><trkpt lat="42.4308759" lon="14.161008"><ele>27.0</ele><time>2026-05-01T16:08:16.009Z</time></trkpt><trkpt lat="42.4309204" lon="14.1608974"><ele>27.0</ele><time>2026-05-01T16:08:17.008Z</time></trkpt><trkpt lat="42.4309775" lon="14.1607634"><ele>27.0</ele><time>2026-05-01T16:08:18.009Z</time></trkpt><trkpt lat="42.4310434" lon="14.1606093"><ele>27.0</ele><time>2026-05-01T16:08:19.009Z</time></trkpt><trkpt lat="42.4311186" lon="14.1604448"><ele>27.0</ele><time>2026-05-01T16:08:20.009Z</time></trkpt><trkpt lat="42.4311885" lon="14.1602834"><ele>27.0</ele><time>2026-05-01T16:08:21.009Z</time></trkpt><trkpt lat="42.4312505" lon="14.1601306"><ele>27.0</ele><time>2026-05-01T16:08:22.009Z</time></trkpt><trkpt lat="42.4313083" lon="14.1599791"><ele>27.0</ele><time>2026-05-01T16:08:23.009Z</time></trkpt><trkpt lat="42.431371" lon="14.1598262"><ele>28.25</ele><time>2026-05-01T16:08:24.009Z</time></trkpt><trkpt lat="42.4314324" lon="14.1596769"><ele>29.5</ele><time>2026-05-01T16:08:25.009Z</time></trkpt><trkpt lat="42.4314946" lon="14.1595305"><ele>30.75</ele><time>2026-05-01T16:08:26.009Z</time></trkpt><trkpt lat="42.4315545" lon="14.1593804"><ele>32.0</ele><time>2026-05-01T16:08:27.009Z</time></trkpt><trkpt lat="42.4316149" lon="14.1592296"><ele>32.0</ele><time>2026-05-01T16:08:28.009Z</time></trkpt><trkpt lat="42.4316754" lon="14.1590841"><ele>32.0</ele><time>2026-05-01T16:08:29.009Z</time></trkpt><trkpt lat="42.4317338" lon="14.158939"><ele>32.0</ele><time>2026-05-01T16:08:30.009Z</time></trkpt><trkpt lat="42.4317898" lon="14.1587974"><ele>32.0</ele><time>2026-05-01T16:08:31.009Z</time></trkpt><trkpt lat="42.4318451" lon="14.1586473"><ele>32.25</ele><time>2026-05-01T16:08:32.008Z</time></trkpt><trkpt lat="42.4319026" lon="14.1584989"><ele>32.5</ele><time>2026-05-01T16:08:33.009Z</time></trkpt><trkpt lat="42.4319664" lon="14.1583561"><ele>32.75</ele><time>2026-05-01T16:08:34.009Z</time></trkpt><trkpt lat="42.4320325" lon="14.1582143"><ele>33.0</ele><time>2026-05-01T16:08:35.009Z</time></trkpt><trkpt lat="42.4320955" lon="14.1580698"><ele>35.0</ele><time>2026-05-01T16:08:36.008Z</time></trkpt><trkpt lat="42.4321561" lon="14.1579289"><ele>37.0</ele><time>2026-05-01T16:08:37.009Z</time></trkpt><trkpt lat="42.4322203" lon="14.1577876"><ele>39.0</ele><time>2026-05-01T16:08:38.009Z</time></trkpt><trkpt lat="42.4322817" lon="14.1576518"><ele>41.0</ele><time>2026-05-01T16:08:39.009Z</time></trkpt><trkpt lat="42.4323508" lon="14.1575307"><ele>41.0</ele><time>2026-05-01T16:08:40.008Z</time></trkpt><trkpt lat="42.432421" lon="14.157412"><ele>41.0</ele><time>2026-05-01T16:08:41.009Z</time></trkpt><trkpt lat="42.4324975" lon="14.1573024"><ele>41.0</ele><time>2026-05-01T16:08:42.009Z</time></trkpt><trkpt lat="42.4325797" lon="14.1572039"><ele>41.0</ele><time>2026-05-01T16:08:43.009Z</time></trkpt><trkpt lat="42.4326693" lon="14.1571127"><ele>41.0</ele><time>2026-05-01T16:08:44.009Z</time></trkpt><trkpt lat="42.432763" lon="14.1570304"><ele>42.0</ele><time>2026-05-01T16:08:45.009Z</time></trkpt><trkpt lat="42.4328564" lon="14.1569448"><ele>43.0</ele><time>2026-05-01T16:08:46.009Z</time></trkpt><trkpt lat="42.4329527" lon="14.1568627"><ele>44.0</ele><time>2026-05-01T16:08:47.009Z</time></trkpt><trkpt lat="42.4330526" lon="14.1567845"><ele>45.0</ele><time>2026-05-01T16:08:48.009Z</time></trkpt><trkpt lat="42.4331491" lon="14.1567052"><ele>46.25</ele><time>2026-05-01T16:08:49.009Z</time></trkpt><trkpt lat="42.4332444" lon="14.1566274"><ele>47.5</ele><time>2026-05-01T16:08:50.008Z</time></trkpt><trkpt lat="42.4333428" lon="14.1565476"><ele>48.75</ele><time>2026-05-01T16:08:51.009Z</time></trkpt><trkpt lat="42.433445" lon="14.1564708"><ele>50.0</ele><time>2026-05-01T16:08:52.009Z</time></trkpt><trkpt lat="42.4335489" lon="14.1563915"><ele>50.5</ele><time>2026-05-01T16:08:53.008Z</time></trkpt><trkpt lat="42.4336586" lon="14.1563047"><ele>51.0</ele><time>2026-05-01T16:08:54.009Z</time></trkpt><trkpt lat="42.4337738" lon="14.1562157"><ele>51.5</ele><time>2026-05-01T16:08:55.008Z</time></trkpt><trkpt lat="42.4338924" lon="14.1561242"><ele>52.0</ele><time>2026-05-01T16:08:56.009Z</time></trkpt><trkpt lat="42.4340147" lon="14.1560284"><ele>52.666666666666664</ele><time>2026-05-01T16:08:57.009Z</time></trkpt><trkpt lat="42.4341445" lon="14.1559321"><ele>53.33333333333333</ele><time>2026-05-01T16:08:58.008Z</time></trkpt><trkpt lat="42.4342769" lon="14.1558312"><ele>54.0</ele><time>2026-05-01T16:08:59.009Z</time></trkpt><trkpt lat="42.4344147" lon="14.1557256"><ele>54.33333333333333</ele><time>2026-05-01T16:09:00.009Z</time></trkpt><trkpt lat="42.4345522" lon="14.1556187"><ele>54.666666666666664</ele><time>2026-05-01T16:09:01.009Z</time></trkpt><trkpt lat="42.4346928" lon="14.1555125"><ele>55.0</ele><time>2026-05-01T16:09:02.009Z</time></trkpt><trkpt lat="42.4348358" lon="14.1554158"><ele>56.33333333333333</ele><time>2026-05-01T16:09:03.009Z</time></trkpt><trkpt lat="42.4349744" lon="14.1553084"><ele>57.66666666666667</ele><time>2026-05-01T16:09:04.009Z</time></trkpt><trkpt lat="42.435111" lon="14.1552044"><ele>59.0</ele><time>2026-05-01T16:09:05.009Z</time></trkpt><trkpt lat="42.4352509" lon="14.1550976"><ele>59.0</ele><time>2026-05-01T16:09:06.009Z</time></trkpt><trkpt lat="42.4353904" lon="14.1549879"><ele>59.0</ele><time>2026-05-01T16:09:07.009Z</time></trkpt><trkpt lat="42.4355271" lon="14.1548773"><ele>59.0</ele><time>2026-05-01T16:09:08.009Z</time></trkpt><trkpt lat="42.4356682" lon="14.1547716"><ele>60.333333333333336</ele><time>2026-05-01T16:09:09.009Z</time></trkpt><trkpt lat="42.4358108" lon="14.1546629"><ele>61.66666666666667</ele><time>2026-05-01T16:09:10.009Z</time></trkpt><trkpt lat="42.4359525" lon="14.1545553"><ele>63.0</ele><time>2026-05-01T16:09:11.009Z</time></trkpt><trkpt lat="42.4360938" lon="14.1544428"><ele>63.0</ele><time>2026-05-01T16:09:12.009Z</time></trkpt><trkpt lat="42.4362336" lon="14.1543311"><ele>63.0</ele><time>2026-05-01T16:09:13.009Z</time></trkpt><trkpt lat="42.4363727" lon="14.1542144"><ele>63.0</ele><time>2026-05-01T16:09:14.009Z</time></trkpt><trkpt lat="42.4365119" lon="14.1540988"><ele>65.33333333333333</ele><time>2026-05-01T16:09:15.009Z</time></trkpt><trkpt lat="42.4366502" lon="14.1539871"><ele>67.66666666666666</ele><time>2026-05-01T16:09:16.009Z</time></trkpt><trkpt lat="42.4367867" lon="14.1538693"><ele>70.0</ele><time>2026-05-01T16:09:17.009Z</time></trkpt><trkpt lat="42.4369204" lon="14.1537502"><ele>70.0</ele><time>2026-05-01T16:09:18.009Z</time></trkpt><trkpt lat="42.4370559" lon="14.1536341"><ele>70.0</ele><time>2026-05-01T16:09:19.009Z</time></trkpt><trkpt lat="42.4371944" lon="14.1535196"><ele>70.0</ele><time>2026-05-01T16:09:20.009Z</time></trkpt><trkpt lat="42.4373296" lon="14.1534197"><ele>69.75</ele><time>2026-05-01T16:09:21.009Z</time></trkpt><trkpt lat="42.4374683" lon="14.1533439"><ele>69.5</ele><time>2026-05-01T16:09:22.009Z</time></trkpt><trkpt lat="42.4376073" lon="14.1532838"><ele>69.25</ele><time>2026-05-01T16:09:23.009Z</time></trkpt><trkpt lat="42.4377479" lon="14.153243"><ele>69.0</ele><time>2026-05-01T16:09:24.009Z</time></trkpt><trkpt lat="42.4378888" lon="14.1532104"><ele>67.5</ele><time>2026-05-01T16:09:25.009Z</time></trkpt><trkpt lat="42.438029" lon="14.1531708"><ele>66.0</ele><time>2026-05-01T16:09:26.009Z</time></trkpt><trkpt lat="42.4381711" lon="14.1531165"><ele>64.5</ele><time>2026-05-01T16:09:27.009Z</time></trkpt><trkpt lat="42.4383077" lon="14.1530404"><ele>63.0</ele><time>2026-05-01T16:09:28.009Z</time></trkpt><trkpt lat="42.4384375" lon="14.1529444"><ele>63.0</ele><time>2026-05-01T16:09:29.009Z</time></trkpt><trkpt lat="42.4385611" lon="14.1528331"><ele>63.0</ele><time>2026-05-01T16:09:30.008Z</time></trkpt><trkpt lat="42.4386788" lon="14.1527095"><ele>63.0</ele><time>2026-05-01T16:09:31.009Z</time></trkpt><trkpt lat="42.4387876" lon="14.1525746"><ele>63.0</ele><time>2026-05-01T16:09:32.009Z</time></trkpt><trkpt lat="42.4388948" lon="14.1524361"><ele>66.33333333333333</ele><time>2026-05-01T16:09:33.009Z</time></trkpt><trkpt lat="42.4389987" lon="14.1522914"><ele>69.66666666666666</ele><time>2026-05-01T16:09:34.009Z</time></trkpt><trkpt lat="42.4391003" lon="14.152137"><ele>73.0</ele><time>2026-05-01T16:09:35.009Z</time></trkpt><trkpt lat="42.4392039" lon="14.151983"><ele>73.0</ele><time>2026-05-01T16:09:36.009Z</time></trkpt><trkpt lat="42.439315" lon="14.1518469"><ele>73.0</ele><time>2026-05-01T16:09:37.009Z</time></trkpt><trkpt lat="42.4394379" lon="14.1517219"><ele>73.0</ele><time>2026-05-01T16:09:38.009Z</time></trkpt><trkpt lat="42.4395694" lon="14.1516167"><ele>74.0</ele><time>2026-05-01T16:09:39.008Z</time></trkpt><trkpt lat="42.4397188" lon="14.1515277"><ele>75.0</ele><time>2026-05-01T16:09:40.009Z</time></trkpt><trkpt lat="42.439874" lon="14.1514491"><ele>76.0</ele><time>2026-05-01T16:09:41.009Z</time></trkpt><trkpt lat="42.4400296" lon="14.1513751"><ele>76.0</ele><time>2026-05-01T16:09:42.009Z</time></trkpt><trkpt lat="42.4401842" lon="14.1512879"><ele>76.0</ele><time>2026-05-01T16:09:43.008Z</time></trkpt><trkpt lat="42.4403341" lon="14.1511876"><ele>76.0</ele><time>2026-05-01T16:09:44.009Z</time></trkpt><trkpt lat="42.4404759" lon="14.1510821"><ele>79.0</ele><time>2026-05-01T16:09:45.009Z</time></trkpt><trkpt lat="42.4406106" lon="14.150983"><ele>82.0</ele><time>2026-05-01T16:09:46.009Z</time></trkpt><trkpt lat="42.4407439" lon="14.1509069"><ele>85.0</ele><time>2026-05-01T16:09:47.009Z</time></trkpt><trkpt lat="42.4408797" lon="14.1508513"><ele>88.0</ele><time>2026-05-01T16:09:48.008Z</time></trkpt><trkpt lat="42.4410207" lon="14.1508209"><ele>88.0</ele><time>2026-05-01T16:09:49.009Z</time></trkpt><trkpt lat="42.4411645" lon="14.1508217"><ele>88.0</ele><time>2026-05-01T16:09:50.009Z</time></trkpt><trkpt lat="42.4413131" lon="14.1508726"><ele>88.0</ele><time>2026-05-01T16:09:51.009Z</time></trkpt><trkpt lat="42.4414523" lon="14.1509185"><ele>88.0</ele><time>2026-05-01T16:09:52.009Z</time></trkpt><trkpt lat="42.4415977" lon="14.1509619"><ele>88.75</ele><time>2026-05-01T16:09:53.009Z</time></trkpt><trkpt lat="42.4417377" lon="14.1509775"><ele>89.5</ele><time>2026-05-01T16:09:54.009Z</time></trkpt><trkpt lat="42.4418813" lon="14.150955"><ele>90.25</ele><time>2026-05-01T16:09:55.008Z</time></trkpt><trkpt lat="42.4420172" lon="14.150914"><ele>91.0</ele><time>2026-05-01T16:09:56.009Z</time></trkpt><trkpt lat="42.442128" lon="14.1508552"><ele>91.75</ele><time>2026-05-01T16:09:57.009Z</time></trkpt><trkpt lat="42.4422289" lon="14.1507874"><ele>92.5</ele><time>2026-05-01T16:09:58.009Z</time></trkpt><trkpt lat="42.442328" lon="14.1506958"><ele>93.25</ele><time>2026-05-01T16:09:59.009Z</time></trkpt><trkpt lat="42.4423761" lon="14.1505355"><ele>94.0</ele><time>2026-05-01T16:10:00.009Z</time></trkpt><trkpt lat="42.4424019" lon="14.1503132"><ele>94.0</ele><time>2026-05-01T16:10:01.009Z</time></trkpt><trkpt lat="42.4424399" lon="14.150119"><ele>94.0</ele><time>2026-05-01T16:10:02.009Z</time></trkpt><trkpt lat="42.442482" lon="14.149934"><ele>94.0</ele><time>2026-05-01T16:10:03.009Z</time></trkpt><trkpt lat="42.442524" lon="14.1497517"><ele>94.0</ele><time>2026-05-01T16:10:04.009Z</time></trkpt><trkpt lat="42.4425679" lon="14.1495702"><ele>95.0</ele><time>2026-05-01T16:10:05.009Z</time></trkpt><trkpt lat="42.4426202" lon="14.149383"><ele>96.0</ele><time>2026-05-01T16:10:06.009Z</time></trkpt><trkpt lat="42.4426826" lon="14.1492027"><ele>97.0</ele><time>2026-05-01T16:10:07.009Z</time></trkpt><trkpt lat="42.4427531" lon="14.1490257"><ele>98.0</ele><time>2026-05-01T16:10:08.009Z</time></trkpt><trkpt lat="42.4428313" lon="14.1488532"><ele>99.5</ele><time>2026-05-01T16:10:09.009Z</time></trkpt><trkpt lat="42.4429166" lon="14.1486878"><ele>101.0</ele><time>2026-05-01T16:10:10.009Z</time></trkpt><trkpt lat="42.4430109" lon="14.1485328"><ele>102.5</ele><time>2026-05-01T16:10:11.009Z</time></trkpt><trkpt lat="42.4431048" lon="14.1483824"><ele>104.0</ele><time>2026-05-01T16:10:12.009Z</time></trkpt><trkpt lat="42.4432119" lon="14.1482394"><ele>109.0</ele><time>2026-05-01T16:10:13.009Z</time></trkpt><trkpt lat="42.4433165" lon="14.14809"><ele>114.0</ele><time>2026-05-01T16:10:14.009Z</time></trkpt><trkpt lat="42.4434238" lon="14.1479413"><ele>119.0</ele><time>2026-05-01T16:10:15.008Z</time></trkpt><trkpt lat="42.4435315" lon="14.1477931"><ele>119.0</ele><time>2026-05-01T16:10:16.009Z</time></trkpt><trkpt lat="42.4436494" lon="14.1476637"><ele>119.0</ele><time>2026-05-01T16:10:17.009Z</time></trkpt><trkpt lat="42.443791" lon="14.1475692"><ele>119.0</ele><time>2026-05-01T16:10:18.009Z</time></trkpt><trkpt lat="42.4439347" lon="14.1474993"><ele>117.75</ele><time>2026-05-01T16:10:19.009Z</time></trkpt><trkpt lat="42.4440826" lon="14.1474529"><ele>116.5</ele><time>2026-05-01T16:10:20.009Z</time></trkpt><trkpt lat="42.444221" lon="14.1474134"><ele>115.25</ele><time>2026-05-01T16:10:21.009Z</time></trkpt><trkpt lat="42.4443392" lon="14.1473601"><ele>114.0</ele><time>2026-05-01T16:10:22.009Z</time></trkpt><trkpt lat="42.4444281" lon="14.1472538"><ele>115.4</ele><time>2026-05-01T16:10:23.009Z</time></trkpt><trkpt lat="42.4444947" lon="14.1471692"><ele>116.80000000000001</ele><time>2026-05-01T16:10:24.009Z</time></trkpt><trkpt lat="42.4445264" lon="14.147078"><ele>118.19999999999999</ele><time>2026-05-01T16:10:25.009Z</time></trkpt><trkpt lat="42.4445739" lon="14.1469569"><ele>119.6</ele><time>2026-05-01T16:10:27.009Z</time></trkpt><trkpt lat="42.444642" lon="14.1468188"><ele>121.0</ele><time>2026-05-01T16:10:29.008Z</time></trkpt><trkpt lat="42.4446917" lon="14.146747"><ele>121.0</ele><time>2026-05-01T16:10:30.009Z</time></trkpt><trkpt lat="42.4447603" lon="14.1466484"><ele>121.0</ele><time>2026-05-01T16:10:31.009Z</time></trkpt><trkpt lat="42.4448327" lon="14.1465318"><ele>121.0</ele><time>2026-05-01T16:10:32.009Z</time></trkpt><trkpt lat="42.4449109" lon="14.1464038"><ele>121.0</ele><time>2026-05-01T16:10:33.009Z</time></trkpt><trkpt lat="42.4449948" lon="14.146263"><ele>122.25</ele><time>2026-05-01T16:10:34.009Z</time></trkpt><trkpt lat="42.4450791" lon="14.1461112"><ele>123.5</ele><time>2026-05-01T16:10:35.009Z</time></trkpt><trkpt lat="42.4451645" lon="14.1459592"><ele>124.75</ele><time>2026-05-01T16:10:36.009Z</time></trkpt><trkpt lat="42.4452498" lon="14.1458056"><ele>126.0</ele><time>2026-05-01T16:10:37.009Z</time></trkpt><trkpt lat="42.4453374" lon="14.1456509"><ele>124.0</ele><time>2026-05-01T16:10:38.009Z</time></trkpt><trkpt lat="42.4454285" lon="14.1454974"><ele>122.0</ele><time>2026-05-01T16:10:39.009Z</time></trkpt><trkpt lat="42.4455406" lon="14.1453637"><ele>120.0</ele><time>2026-05-01T16:10:40.009Z</time></trkpt><trkpt lat="42.4456703" lon="14.1452332"><ele>120.0</ele><time>2026-05-01T16:10:41.009Z</time></trkpt><trkpt lat="42.445812" lon="14.1451067"><ele>120.0</ele><time>2026-05-01T16:10:42.008Z</time></trkpt><trkpt lat="42.445961" lon="14.144985"><ele>120.0</ele><time>2026-05-01T16:10:43.009Z</time></trkpt><trkpt lat="42.4461222" lon="14.1448729"><ele>120.33333333333334</ele><time>2026-05-01T16:10:44.009Z</time></trkpt><trkpt lat="42.4462897" lon="14.1447793"><ele>120.66666666666667</ele><time>2026-05-01T16:10:45.009Z</time></trkpt><trkpt lat="42.4464648" lon="14.1447077"><ele>121.0</ele><time>2026-05-01T16:10:46.009Z</time></trkpt><trkpt lat="42.4466415" lon="14.1446556"><ele>121.0</ele><time>2026-05-01T16:10:47.009Z</time></trkpt><trkpt lat="42.4468128" lon="14.1446085"><ele>121.0</ele><time>2026-05-01T16:10:48.009Z</time></trkpt><trkpt lat="42.4469776" lon="14.1445676"><ele>121.0</ele><time>2026-05-01T16:10:49.009Z</time></trkpt><trkpt lat="42.447128" lon="14.1445296"><ele>122.25</ele><time>2026-05-01T16:10:50.008Z</time></trkpt><trkpt lat="42.4472737" lon="14.1445181"><ele>123.5</ele><time>2026-05-01T16:10:51.009Z</time></trkpt><trkpt lat="42.4474193" lon="14.1445362"><ele>124.75</ele><time>2026-05-01T16:10:52.008Z</time></trkpt><trkpt lat="42.4474986" lon="14.144644"><ele>126.0</ele><time>2026-05-01T16:10:53.009Z</time></trkpt><trkpt lat="42.4475626" lon="14.1447762"><ele>126.25</ele><time>2026-05-01T16:10:54.009Z</time></trkpt><trkpt lat="42.4475911" lon="14.1449272"><ele>126.5</ele><time>2026-05-01T16:10:55.009Z</time></trkpt><trkpt lat="42.447594" lon="14.1450999"><ele>126.75</ele><time>2026-05-01T16:10:56.009Z</time></trkpt><trkpt lat="42.4476001" lon="14.1452784"><ele>127.0</ele><time>2026-05-01T16:10:57.009Z</time></trkpt><trkpt lat="42.4476007" lon="14.1454442"><ele>127.0</ele><time>2026-05-01T16:10:58.009Z</time></trkpt><trkpt lat="42.4476233" lon="14.1455966"><ele>127.0</ele><time>2026-05-01T16:10:59.009Z</time></trkpt><trkpt lat="42.4476549" lon="14.1457475"><ele>127.0</ele><time>2026-05-01T16:11:00.009Z</time></trkpt><trkpt lat="42.4477315" lon="14.1458751"><ele>127.0</ele><time>2026-05-01T16:11:01.009Z</time></trkpt><trkpt lat="42.4478201" lon="14.1459993"><ele>127.5</ele><time>2026-05-01T16:11:02.009Z</time></trkpt><trkpt lat="42.4479203" lon="14.146112"><ele>128.0</ele><time>2026-05-01T16:11:03.009Z</time></trkpt><trkpt lat="42.4480398" lon="14.146209"><ele>128.5</ele><time>2026-05-01T16:11:04.009Z</time></trkpt><trkpt lat="42.4481666" lon="14.1462906"><ele>129.0</ele><time>2026-05-01T16:11:05.009Z</time></trkpt><trkpt lat="42.4483086" lon="14.1463537"><ele>132.25</ele><time>2026-05-01T16:11:06.009Z</time></trkpt><trkpt lat="42.4484541" lon="14.1464012"><ele>135.5</ele><time>2026-05-01T16:11:07.009Z</time></trkpt><trkpt lat="42.4485991" lon="14.1464262"><ele>138.75</ele><time>2026-05-01T16:11:08.009Z</time></trkpt><trkpt lat="42.4487425" lon="14.1464171"><ele>142.0</ele><time>2026-05-01T16:11:09.008Z</time></trkpt><trkpt lat="42.4488794" lon="14.1463663"><ele>142.5</ele><time>2026-05-01T16:11:10.009Z</time></trkpt><trkpt lat="42.449001" lon="14.1462831"><ele>143.0</ele><time>2026-05-01T16:11:11.009Z</time></trkpt><trkpt lat="42.4491217" lon="14.1461865"><ele>143.5</ele><time>2026-05-01T16:11:12.009Z</time></trkpt><trkpt lat="42.4492248" lon="14.1460473"><ele>144.0</ele><time>2026-05-01T16:11:13.009Z</time></trkpt><trkpt lat="42.4492857" lon="14.1458776"><ele>144.0</ele><time>2026-05-01T16:11:14.009Z</time></trkpt><trkpt lat="42.4493681" lon="14.1457276"><ele>144.0</ele><time>2026-05-01T16:11:15.009Z</time></trkpt><trkpt lat="42.4494533" lon="14.1455798"><ele>144.0</ele><time>2026-05-01T16:11:16.008Z</time></trkpt><trkpt lat="42.4495343" lon="14.1454347"><ele>144.0</ele><time>2026-05-01T16:11:17.009Z</time></trkpt><trkpt lat="42.4496128" lon="14.1452811"><ele>143.5</ele><time>2026-05-01T16:11:18.009Z</time></trkpt><trkpt lat="42.4496837" lon="14.1451139"><ele>143.0</ele><time>2026-05-01T16:11:19.009Z</time></trkpt><trkpt lat="42.4497506" lon="14.1449298"><ele>142.5</ele><time>2026-05-01T16:11:20.008Z</time></trkpt><trkpt lat="42.4498132" lon="14.1447451"><ele>142.0</ele><time>2026-05-01T16:11:21.009Z</time></trkpt><trkpt lat="42.4498731" lon="14.1445539"><ele>142.0</ele><time>2026-05-01T16:11:22.009Z</time></trkpt><trkpt lat="42.4499134" lon="14.1443506"><ele>142.0</ele><time>2026-05-01T16:11:23.009Z</time></trkpt><trkpt lat="42.4499332" lon="14.1441352"><ele>142.0</ele><time>2026-05-01T16:11:24.008Z</time></trkpt><trkpt lat="42.4499324" lon="14.1439118"><ele>140.66666666666669</ele><time>2026-05-01T16:11:25.009Z</time></trkpt><trkpt lat="42.4499224" lon="14.1436824"><ele>139.33333333333334</ele><time>2026-05-01T16:11:26.009Z</time></trkpt><trkpt lat="42.4499085" lon="14.1434504"><ele>138.0</ele><time>2026-05-01T16:11:27.009Z</time></trkpt><trkpt lat="42.4498867" lon="14.1432246"><ele>137.66666666666666</ele><time>2026-05-01T16:11:28.009Z</time></trkpt><trkpt lat="42.4498545" lon="14.1430187"><ele>137.33333333333331</ele><time>2026-05-01T16:11:29.009Z</time></trkpt><trkpt lat="42.449807" lon="14.1428143"><ele>137.0</ele><time>2026-05-01T16:11:30.008Z</time></trkpt><trkpt lat="42.4497504" lon="14.1426247"><ele>137.0</ele><time>2026-05-01T16:11:31.009Z</time></trkpt><trkpt lat="42.4496865" lon="14.1424566"><ele>137.0</ele><time>2026-05-01T16:11:32.009Z</time></trkpt><trkpt lat="42.4496259" lon="14.1423038"><ele>137.0</ele><time>2026-05-01T16:11:33.008Z</time></trkpt><trkpt lat="42.4495775" lon="14.1421629"><ele>137.0</ele><time>2026-05-01T16:11:34.009Z</time></trkpt><trkpt lat="42.4495522" lon="14.1420258"><ele>137.75</ele><time>2026-05-01T16:11:35.009Z</time></trkpt><trkpt lat="42.4495686" lon="14.1418899"><ele>138.5</ele><time>2026-05-01T16:11:36.009Z</time></trkpt><trkpt lat="42.4496222" lon="14.1417704"><ele>139.25</ele><time>2026-05-01T16:11:37.009Z</time></trkpt><trkpt lat="42.4497179" lon="14.1416615"><ele>140.0</ele><time>2026-05-01T16:11:38.009Z</time></trkpt><trkpt lat="42.4498368" lon="14.1415675"><ele>141.66666666666666</ele><time>2026-05-01T16:11:39.009Z</time></trkpt><trkpt lat="42.4499736" lon="14.1414744"><ele>143.33333333333334</ele><time>2026-05-01T16:11:40.009Z</time></trkpt><trkpt lat="42.4501222" lon="14.1413989"><ele>145.0</ele><time>2026-05-01T16:11:41.009Z</time></trkpt><trkpt lat="42.4502694" lon="14.1413352"><ele>145.0</ele><time>2026-05-01T16:11:42.009Z</time></trkpt><trkpt lat="42.4504112" lon="14.1412777"><ele>145.0</ele><time>2026-05-01T16:11:43.008Z</time></trkpt><trkpt lat="42.4505544" lon="14.1412201"><ele>145.0</ele><time>2026-05-01T16:11:44.009Z</time></trkpt><trkpt lat="42.4506931" lon="14.1411657"><ele>145.0</ele><time>2026-05-01T16:11:45.009Z</time></trkpt><trkpt lat="42.4508311" lon="14.1411204"><ele>146.25</ele><time>2026-05-01T16:11:46.009Z</time></trkpt><trkpt lat="42.4509628" lon="14.1410839"><ele>147.5</ele><time>2026-05-01T16:11:47.009Z</time></trkpt><trkpt lat="42.4510924" lon="14.1410393"><ele>148.75</ele><time>2026-05-01T16:11:48.009Z</time></trkpt><trkpt lat="42.4512209" lon="14.1409996"><ele>150.0</ele><time>2026-05-01T16:11:49.009Z</time></trkpt><trkpt lat="42.4513501" lon="14.1409607"><ele>150.5</ele><time>2026-05-01T16:11:50.009Z</time></trkpt><trkpt lat="42.4514785" lon="14.1409331"><ele>151.0</ele><time>2026-05-01T16:11:51.009Z</time></trkpt><trkpt lat="42.4516028" lon="14.1409133"><ele>151.5</ele><time>2026-05-01T16:11:52.009Z</time></trkpt><trkpt lat="42.4517259" lon="14.1408959"><ele>152.0</ele><time>2026-05-01T16:11:53.008Z</time></trkpt><trkpt lat="42.4518534" lon="14.1408723"><ele>152.0</ele><time>2026-05-01T16:11:54.009Z</time></trkpt><trkpt lat="42.4519821" lon="14.1408495"><ele>152.0</ele><time>2026-05-01T16:11:55.009Z</time></trkpt><trkpt lat="42.452112" lon="14.1408201"><ele>152.0</ele><time>2026-05-01T16:11:56.009Z</time></trkpt><trkpt lat="42.4522445" lon="14.1407946"><ele>152.0</ele><time>2026-05-01T16:11:57.009Z</time></trkpt><trkpt lat="42.4523786" lon="14.1407648"><ele>152.0</ele><time>2026-05-01T16:11:58.009Z</time></trkpt><trkpt lat="42.4525148" lon="14.1407295"><ele>152.0</ele><time>2026-05-01T16:11:59.009Z</time></trkpt><trkpt lat="42.4526549" lon="14.1406963"><ele>152.0</ele><time>2026-05-01T16:12:00.009Z</time></trkpt><trkpt lat="42.4527833" lon="14.1406604"><ele>152.0</ele><time>2026-05-01T16:12:01.009Z</time></trkpt><trkpt lat="42.4528712" lon="14.1406374"><ele>152.0</ele><time>2026-05-01T16:12:02.009Z</time></trkpt><trkpt lat="42.4529347" lon="14.1406014"><ele>152.0</ele><time>2026-05-01T16:12:03.009Z</time></trkpt><trkpt lat="42.4530626" lon="14.1405637"><ele>152.0</ele><time>2026-05-01T16:12:05.009Z</time></trkpt><trkpt lat="42.4531463" lon="14.1405259"><ele>152.0</ele><time>2026-05-01T16:12:06.009Z</time></trkpt><trkpt lat="42.4532399" lon="14.1404695"><ele>152.0</ele><time>2026-05-01T16:12:07.009Z</time></trkpt><trkpt lat="42.4533401" lon="14.140404"><ele>156.25</ele><time>2026-05-01T16:12:08.009Z</time></trkpt><trkpt lat="42.453448" lon="14.14034"><ele>160.5</ele><time>2026-05-01T16:12:09.009Z</time></trkpt><trkpt lat="42.4535583" lon="14.140273"><ele>164.75</ele><time>2026-05-01T16:12:10.009Z</time></trkpt><trkpt lat="42.4536653" lon="14.140206"><ele>169.0</ele><time>2026-05-01T16:12:11.009Z</time></trkpt><trkpt lat="42.4537701" lon="14.1401231"><ele>169.75</ele><time>2026-05-01T16:12:12.008Z</time></trkpt><trkpt lat="42.4538687" lon="14.14003"><ele>170.5</ele><time>2026-05-01T16:12:13.009Z</time></trkpt><trkpt lat="42.453941" lon="14.1398973"><ele>171.25</ele><time>2026-05-01T16:12:14.009Z</time></trkpt><trkpt lat="42.4540099" lon="14.1397618"><ele>172.0</ele><time>2026-05-01T16:12:15.008Z</time></trkpt><trkpt lat="42.4540741" lon="14.1396173"><ele>172.5</ele><time>2026-05-01T16:12:16.008Z</time></trkpt><trkpt lat="42.4541454" lon="14.1394719"><ele>173.0</ele><time>2026-05-01T16:12:17.009Z</time></trkpt><trkpt lat="42.4542172" lon="14.1393282"><ele>173.5</ele><time>2026-05-01T16:12:18.008Z</time></trkpt><trkpt lat="42.4542944" lon="14.1391903"><ele>174.0</ele><time>2026-05-01T16:12:19.008Z</time></trkpt><trkpt lat="42.4543708" lon="14.1390492"><ele>173.75</ele><time>2026-05-01T16:12:20.009Z</time></trkpt><trkpt lat="42.4544452" lon="14.1389113"><ele>173.5</ele><time>2026-05-01T16:12:21.009Z</time></trkpt><trkpt lat="42.4545188" lon="14.1387873"><ele>173.25</ele><time>2026-05-01T16:12:22.009Z</time></trkpt><trkpt lat="42.4545864" lon="14.1386771"><ele>173.0</ele><time>2026-05-01T16:12:23.009Z</time></trkpt><trkpt lat="42.4546517" lon="14.1385707"><ele>173.0</ele><time>2026-05-01T16:12:24.009Z</time></trkpt><trkpt lat="42.4547141" lon="14.1384656"><ele>173.0</ele><time>2026-05-01T16:12:25.009Z</time></trkpt><trkpt lat="42.4547737" lon="14.1383637"><ele>173.0</ele><time>2026-05-01T16:12:26.009Z</time></trkpt><trkpt lat="42.4548352" lon="14.1382649"><ele>173.0</ele><time>2026-05-01T16:12:27.009Z</time></trkpt><trkpt lat="42.4548965" lon="14.1381672"><ele>173.0</ele><time>2026-05-01T16:12:28.008Z</time></trkpt><trkpt lat="42.4549548" lon="14.1380627"><ele>173.0</ele><time>2026-05-01T16:12:29.009Z</time></trkpt><trkpt lat="42.455002" lon="14.1379444"><ele>173.0</ele><time>2026-05-01T16:12:30.009Z</time></trkpt><trkpt lat="42.4550305" lon="14.1378076"><ele>173.0</ele><time>2026-05-01T16:12:31.009Z</time></trkpt><trkpt lat="42.455046" lon="14.1376702"><ele>173.0</ele><time>2026-05-01T16:12:32.009Z</time></trkpt><trkpt lat="42.4550542" lon="14.1375235"><ele>173.0</ele><time>2026-05-01T16:12:33.009Z</time></trkpt><trkpt lat="42.4550506" lon="14.1373725"><ele>173.0</ele><time>2026-05-01T16:12:34.009Z</time></trkpt><trkpt lat="42.4550489" lon="14.1372281"><ele>173.0</ele><time>2026-05-01T16:12:35.009Z</time></trkpt><trkpt lat="42.4550446" lon="14.1370949"><ele>173.0</ele><time>2026-05-01T16:12:36.009Z</time></trkpt><trkpt lat="42.4550401" lon="14.1369708"><ele>173.0</ele><time>2026-05-01T16:12:37.009Z</time></trkpt><trkpt lat="42.4550374" lon="14.1368589"><ele>173.0</ele><time>2026-05-01T16:12:38.008Z</time></trkpt><trkpt lat="42.4550339" lon="14.1367632"><ele>173.0</ele><time>2026-05-01T16:12:39.009Z</time></trkpt><trkpt lat="42.4550327" lon="14.1366761"><ele>173.0</ele><time>2026-05-01T16:12:40.009Z</time></trkpt><trkpt lat="42.4550567" lon="14.1365149"><ele>173.0</ele><time>2026-05-01T16:12:42.009Z</time></trkpt><trkpt lat="42.4550919" lon="14.1364441"><ele>173.0</ele><time>2026-05-01T16:12:43.009Z</time></trkpt><trkpt lat="42.4551506" lon="14.1364004"><ele>173.0</ele><time>2026-05-01T16:12:44.009Z</time></trkpt><trkpt lat="42.4552255" lon="14.136373"><ele>173.0</ele><time>2026-05-01T16:12:45.008Z</time></trkpt><trkpt lat="42.4553133" lon="14.1363432"><ele>174.16666666666666</ele><time>2026-05-01T16:12:46.008Z</time></trkpt><trkpt lat="42.455398" lon="14.1362919"><ele>175.33333333333331</ele><time>2026-05-01T16:12:47.009Z</time></trkpt><trkpt lat="42.4554737" lon="14.1362502"><ele>176.5</ele><time>2026-05-01T16:12:48.009Z</time></trkpt><trkpt lat="42.4555409" lon="14.1362076"><ele>177.66666666666666</ele><time>2026-05-01T16:12:49.009Z</time></trkpt><trkpt lat="42.4556076" lon="14.1361657"><ele>178.83333333333334</ele><time>2026-05-01T16:12:50.008Z</time></trkpt><trkpt lat="42.455681" lon="14.1361179"><ele>180.0</ele><time>2026-05-01T16:12:51.008Z</time></trkpt><trkpt lat="42.4557643" lon="14.1360646"><ele>180.0</ele><time>2026-05-01T16:12:52.009Z</time></trkpt><trkpt lat="42.455854" lon="14.1359962"><ele>180.0</ele><time>2026-05-01T16:12:53.009Z</time></trkpt><trkpt lat="42.4559421" lon="14.1359084"><ele>180.0</ele><time>2026-05-01T16:12:54.009Z</time></trkpt><trkpt lat="42.4560213" lon="14.1357982"><ele>180.0</ele><time>2026-05-01T16:12:55.009Z</time></trkpt><trkpt lat="42.4560852" lon="14.1356573"><ele>180.0</ele><time>2026-05-01T16:12:56.009Z</time></trkpt><trkpt lat="42.4561472" lon="14.1355153"><ele>183.5</ele><time>2026-05-01T16:12:57.009Z</time></trkpt><trkpt lat="42.4562" lon="14.135365"><ele>187.0</ele><time>2026-05-01T16:12:58.009Z</time></trkpt><trkpt lat="42.4562496" lon="14.1352146"><ele>190.5</ele><time>2026-05-01T16:12:59.009Z</time></trkpt><trkpt lat="42.4562938" lon="14.1350637"><ele>194.0</ele><time>2026-05-01T16:13:00.009Z</time></trkpt><trkpt lat="42.4563371" lon="14.134914"><ele>188.79999999999998</ele><time>2026-05-01T16:13:01.009Z</time></trkpt><trkpt lat="42.4563839" lon="14.1347701"><ele>183.6</ele><time>2026-05-01T16:13:02.008Z</time></trkpt><trkpt lat="42.4564269" lon="14.1346304"><ele>178.4</ele><time>2026-05-01T16:13:03.008Z</time></trkpt><trkpt lat="42.4564708" lon="14.1344965"><ele>173.2</ele><time>2026-05-01T16:13:04.009Z</time></trkpt><trkpt lat="42.4565151" lon="14.1343642"><ele>168.0</ele><time>2026-05-01T16:13:05.009Z</time></trkpt><trkpt lat="42.456558" lon="14.1342304"><ele>168.0</ele><time>2026-05-01T16:13:06.009Z</time></trkpt><trkpt lat="42.4565986" lon="14.1341033"><ele>168.0</ele><time>2026-05-01T16:13:07.009Z</time></trkpt><trkpt lat="42.4566368" lon="14.1339844"><ele>168.0</ele><time>2026-05-01T16:13:08.009Z</time></trkpt><trkpt lat="42.4566697" lon="14.1338653"><ele>168.0</ele><time>2026-05-01T16:13:09.009Z</time></trkpt><trkpt lat="42.4566997" lon="14.1337439"><ele>168.0</ele><time>2026-05-01T16:13:10.009Z</time></trkpt><trkpt lat="42.4567228" lon="14.1336177"><ele>168.0</ele><time>2026-05-01T16:13:11.009Z</time></trkpt><trkpt lat="42.4567437" lon="14.1334929"><ele>168.0</ele><time>2026-05-01T16:13:12.009Z</time></trkpt><trkpt lat="42.4567679" lon="14.1333509"><ele>168.0</ele><time>2026-05-01T16:13:13.009Z</time></trkpt><trkpt lat="42.4567865" lon="14.1331887"><ele>168.0</ele><time>2026-05-01T16:13:14.008Z</time></trkpt><trkpt lat="42.4568057" lon="14.1330104"><ele>167.33333333333334</ele><time>2026-05-01T16:13:15.009Z</time></trkpt><trkpt lat="42.4568312" lon="14.1328231"><ele>166.66666666666669</ele><time>2026-05-01T16:13:16.008Z</time></trkpt><trkpt lat="42.4568729" lon="14.13263"><ele>166.0</ele><time>2026-05-01T16:13:17.009Z</time></trkpt><trkpt lat="42.4569328" lon="14.1324265"><ele>166.0</ele><time>2026-05-01T16:13:18.009Z</time></trkpt><trkpt lat="42.4570095" lon="14.1322135"><ele>166.0</ele><time>2026-05-01T16:13:19.009Z</time></trkpt><trkpt lat="42.4570973" lon="14.1319926"><ele>166.0</ele><time>2026-05-01T16:13:20.008Z</time></trkpt><trkpt lat="42.457196" lon="14.1317646"><ele>164.0</ele><time>2026-05-01T16:13:21.008Z</time></trkpt><trkpt lat="42.4572973" lon="14.1315334"><ele>162.0</ele><time>2026-05-01T16:13:22.009Z</time></trkpt><trkpt lat="42.4573926" lon="14.1312958"><ele>160.0</ele><time>2026-05-01T16:13:23.009Z</time></trkpt><trkpt lat="42.4574884" lon="14.1310707"><ele>160.0</ele><time>2026-05-01T16:13:24.009Z</time></trkpt><trkpt lat="42.4575945" lon="14.1308543"><ele>160.0</ele><time>2026-05-01T16:13:25.009Z</time></trkpt><trkpt lat="42.4577232" lon="14.1306496"><ele>160.0</ele><time>2026-05-01T16:13:26.009Z</time></trkpt><trkpt lat="42.4578748" lon="14.1304601"><ele>159.33333333333334</ele><time>2026-05-01T16:13:27.008Z</time></trkpt><trkpt lat="42.4580414" lon="14.1302997"><ele>158.66666666666666</ele><time>2026-05-01T16:13:28.009Z</time></trkpt><trkpt lat="42.4582041" lon="14.1301239"><ele>158.0</ele><time>2026-05-01T16:13:29.008Z</time></trkpt><trkpt lat="42.4583443" lon="14.1299374"><ele>158.66666666666666</ele><time>2026-05-01T16:13:30.009Z</time></trkpt><trkpt lat="42.4584665" lon="14.1297407"><ele>159.33333333333334</ele><time>2026-05-01T16:13:31.009Z</time></trkpt><trkpt lat="42.4585655" lon="14.1295231"><ele>160.0</ele><time>2026-05-01T16:13:32.009Z</time></trkpt><trkpt lat="42.4586362" lon="14.1292881"><ele>160.0</ele><time>2026-05-01T16:13:33.009Z</time></trkpt><trkpt lat="42.4586878" lon="14.1290698"><ele>160.0</ele><time>2026-05-01T16:13:34.009Z</time></trkpt><trkpt lat="42.4587128" lon="14.1288402"><ele>160.0</ele><time>2026-05-01T16:13:35.008Z</time></trkpt><trkpt lat="42.4587064" lon="14.1286018"><ele>161.0</ele><time>2026-05-01T16:13:36.009Z</time></trkpt><trkpt lat="42.458659" lon="14.1283514"><ele>162.0</ele><time>2026-05-01T16:13:37.009Z</time></trkpt><trkpt lat="42.4585831" lon="14.1281017"><ele>163.0</ele><time>2026-05-01T16:13:38.009Z</time></trkpt><trkpt lat="42.4584957" lon="14.1278582"><ele>163.0</ele><time>2026-05-01T16:13:39.009Z</time></trkpt><trkpt lat="42.4584162" lon="14.1276357"><ele>163.0</ele><time>2026-05-01T16:13:40.009Z</time></trkpt><trkpt lat="42.4583344" lon="14.127439"><ele>163.0</ele><time>2026-05-01T16:13:41.009Z</time></trkpt><trkpt lat="42.458219" lon="14.1272656"><ele>160.66666666666669</ele><time>2026-05-01T16:13:42.009Z</time></trkpt><trkpt lat="42.458105" lon="14.1271097"><ele>158.33333333333334</ele><time>2026-05-01T16:13:43.009Z</time></trkpt><trkpt lat="42.4579759" lon="14.1269827"><ele>156.0</ele><time>2026-05-01T16:13:44.009Z</time></trkpt><trkpt lat="42.4578659" lon="14.1268074"><ele>156.0</ele><time>2026-05-01T16:13:45.009Z</time></trkpt><trkpt lat="42.4577615" lon="14.1266077"><ele>156.0</ele><time>2026-05-01T16:13:46.008Z</time></trkpt><trkpt lat="42.4576647" lon="14.126414"><ele>156.0</ele><time>2026-05-01T16:13:47.009Z</time></trkpt><trkpt lat="42.4575759" lon="14.1262399"><ele>158.75</ele><time>2026-05-01T16:13:48.009Z</time></trkpt><trkpt lat="42.4574929" lon="14.126074"><ele>161.5</ele><time>2026-05-01T16:13:49.009Z</time></trkpt><trkpt lat="42.457429" lon="14.1259284"><ele>164.25</ele><time>2026-05-01T16:13:50.009Z</time></trkpt><trkpt lat="42.4573748" lon="14.1257932"><ele>167.0</ele><time>2026-05-01T16:13:51.009Z</time></trkpt><trkpt lat="42.4573356" lon="14.1256559"><ele>167.8</ele><time>2026-05-01T16:13:52.009Z</time></trkpt><trkpt lat="42.4573021" lon="14.125527"><ele>168.6</ele><time>2026-05-01T16:13:53.009Z</time></trkpt><trkpt lat="42.4572731" lon="14.1253904"><ele>169.4</ele><time>2026-05-01T16:13:54.009Z</time></trkpt><trkpt lat="42.4572513" lon="14.1252386"><ele>170.20000000000002</ele><time>2026-05-01T16:13:55.009Z</time></trkpt><trkpt lat="42.4572404" lon="14.1250685"><ele>171.0</ele><time>2026-05-01T16:13:56.009Z</time></trkpt><trkpt lat="42.457241" lon="14.1248857"><ele>171.0</ele><time>2026-05-01T16:13:57.009Z</time></trkpt><trkpt lat="42.4572521" lon="14.1246874"><ele>171.0</ele><time>2026-05-01T16:13:58.009Z</time></trkpt><trkpt lat="42.4572749" lon="14.1244766"><ele>171.0</ele><time>2026-05-01T16:13:59.009Z</time></trkpt><trkpt lat="42.4573145" lon="14.1242614"><ele>168.66666666666666</ele><time>2026-05-01T16:14:00.008Z</time></trkpt><trkpt lat="42.4573671" lon="14.1240404"><ele>166.33333333333331</ele><time>2026-05-01T16:14:01.009Z</time></trkpt><trkpt lat="42.4574306" lon="14.1238109"><ele>164.0</ele><time>2026-05-01T16:14:02.009Z</time></trkpt><trkpt lat="42.4574968" lon="14.1235686"><ele>164.0</ele><time>2026-05-01T16:14:03.009Z</time></trkpt><trkpt lat="42.4575662" lon="14.1233305"><ele>164.0</ele><time>2026-05-01T16:14:04.009Z</time></trkpt><trkpt lat="42.457632" lon="14.1230998"><ele>164.0</ele><time>2026-05-01T16:14:05.009Z</time></trkpt><trkpt lat="42.4577005" lon="14.1228821"><ele>163.33333333333331</ele><time>2026-05-01T16:14:06.009Z</time></trkpt><trkpt lat="42.4577677" lon="14.122665"><ele>162.66666666666666</ele><time>2026-05-01T16:14:07.009Z</time></trkpt><trkpt lat="42.4578391" lon="14.1224551"><ele>162.0</ele><time>2026-05-01T16:14:08.008Z</time></trkpt><trkpt lat="42.4579205" lon="14.1222599"><ele>161.33333333333334</ele><time>2026-05-01T16:14:09.009Z</time></trkpt><trkpt lat="42.4580104" lon="14.1220817"><ele>160.66666666666669</ele><time>2026-05-01T16:14:10.009Z</time></trkpt><trkpt lat="42.458117" lon="14.1219218"><ele>160.0</ele><time>2026-05-01T16:14:11.009Z</time></trkpt><trkpt lat="42.4582284" lon="14.1217714"><ele>160.0</ele><time>2026-05-01T16:14:12.009Z</time></trkpt><trkpt lat="42.4583483" lon="14.1216385"><ele>160.0</ele><time>2026-05-01T16:14:13.009Z</time></trkpt><trkpt lat="42.4584701" lon="14.1215069"><ele>160.0</ele><time>2026-05-01T16:14:14.009Z</time></trkpt><trkpt lat="42.4585992" lon="14.1213724"><ele>160.0</ele><time>2026-05-01T16:14:15.008Z</time></trkpt><trkpt lat="42.4587237" lon="14.1212516"><ele>160.0</ele><time>2026-05-01T16:14:16.009Z</time></trkpt><trkpt lat="42.4588472" lon="14.1211234"><ele>160.0</ele><time>2026-05-01T16:14:17.009Z</time></trkpt><trkpt lat="42.4589717" lon="14.1209897"><ele>160.0</ele><time>2026-05-01T16:14:18.009Z</time></trkpt><trkpt lat="42.4590921" lon="14.1208568"><ele>160.0</ele><time>2026-05-01T16:14:19.009Z</time></trkpt><trkpt lat="42.4592123" lon="14.1207253"><ele>160.0</ele><time>2026-05-01T16:14:20.009Z</time></trkpt><trkpt lat="42.4593297" lon="14.1205979"><ele>160.0</ele><time>2026-05-01T16:14:21.009Z</time></trkpt><trkpt lat="42.4594415" lon="14.1204779"><ele>160.0</ele><time>2026-05-01T16:14:22.009Z</time></trkpt><trkpt lat="42.4595491" lon="14.1203713"><ele>160.0</ele><time>2026-05-01T16:14:23.009Z</time></trkpt><trkpt lat="42.4596456" lon="14.120278"><ele>160.0</ele><time>2026-05-01T16:14:24.008Z</time></trkpt><trkpt lat="42.4597311" lon="14.1201979"><ele>160.0</ele><time>2026-05-01T16:14:25.009Z</time></trkpt><trkpt lat="42.4598055" lon="14.1201309"><ele>160.0</ele><time>2026-05-01T16:14:26.009Z</time></trkpt><trkpt lat="42.4598915" lon="14.1200824"><ele>160.0</ele><time>2026-05-01T16:14:27.009Z</time></trkpt><trkpt lat="42.4599996" lon="14.1200475"><ele>160.0</ele><time>2026-05-01T16:14:28.008Z</time></trkpt><trkpt lat="42.4601147" lon="14.1200166"><ele>160.0</ele><time>2026-05-01T16:14:29.008Z</time></trkpt><trkpt lat="42.4602285" lon="14.120005"><ele>160.0</ele><time>2026-05-01T16:14:30.009Z</time></trkpt><trkpt lat="42.4603536" lon="14.1200303"><ele>160.0</ele><time>2026-05-01T16:14:31.009Z</time></trkpt><trkpt lat="42.4604933" lon="14.1200854"><ele>160.0</ele><time>2026-05-01T16:14:32.009Z</time></trkpt><trkpt lat="42.4606401" lon="14.1201482"><ele>160.0</ele><time>2026-05-01T16:14:33.009Z</time></trkpt><trkpt lat="42.4608013" lon="14.1202044"><ele>160.66666666666669</ele><time>2026-05-01T16:14:34.009Z</time></trkpt><trkpt lat="42.4609621" lon="14.1202473"><ele>161.33333333333334</ele><time>2026-05-01T16:14:35.008Z</time></trkpt><trkpt lat="42.4611142" lon="14.1202825"><ele>162.0</ele><time>2026-05-01T16:14:36.009Z</time></trkpt><trkpt lat="42.4612568" lon="14.1203327"><ele>164.33333333333334</ele><time>2026-05-01T16:14:37.009Z</time></trkpt><trkpt lat="42.4613949" lon="14.1204016"><ele>166.66666666666669</ele><time>2026-05-01T16:14:38.009Z</time></trkpt><trkpt lat="42.4615236" lon="14.120503"><ele>169.0</ele><time>2026-05-01T16:14:39.009Z</time></trkpt><trkpt lat="42.4616593" lon="14.120614"><ele>169.0</ele><time>2026-05-01T16:14:40.009Z</time></trkpt><trkpt lat="42.4617986" lon="14.1207243"><ele>169.0</ele><time>2026-05-01T16:14:41.009Z</time></trkpt><trkpt lat="42.4619603" lon="14.1208448"><ele>169.0</ele><time>2026-05-01T16:14:42.009Z</time></trkpt><trkpt lat="42.4621074" lon="14.1209544"><ele>168.0</ele><time>2026-05-01T16:14:43.009Z</time></trkpt><trkpt lat="42.4622549" lon="14.1210674"><ele>167.0</ele><time>2026-05-01T16:14:44.009Z</time></trkpt><trkpt lat="42.4623993" lon="14.1211637"><ele>166.0</ele><time>2026-05-01T16:14:45.009Z</time></trkpt><trkpt lat="42.4625377" lon="14.1212649"><ele>166.0</ele><time>2026-05-01T16:14:46.009Z</time></trkpt><trkpt lat="42.4626783" lon="14.1213656"><ele>166.0</ele><time>2026-05-01T16:14:47.009Z</time></trkpt><trkpt lat="42.4628169" lon="14.1214694"><ele>166.0</ele><time>2026-05-01T16:14:48.009Z</time></trkpt><trkpt lat="42.4629589" lon="14.1215718"><ele>163.25</ele><time>2026-05-01T16:14:49.008Z</time></trkpt><trkpt lat="42.4630978" lon="14.1216701"><ele>160.5</ele><time>2026-05-01T16:14:50.009Z</time></trkpt><trkpt lat="42.4632273" lon="14.1217623"><ele>157.75</ele><time>2026-05-01T16:14:51.009Z</time></trkpt><trkpt lat="42.4633517" lon="14.1218573"><ele>155.0</ele><time>2026-05-01T16:14:52.009Z</time></trkpt><trkpt lat="42.4634708" lon="14.1219471"><ele>155.0</ele><time>2026-05-01T16:14:53.009Z</time></trkpt><trkpt lat="42.4635915" lon="14.1220416"><ele>155.0</ele><time>2026-05-01T16:14:54.009Z</time></trkpt><trkpt lat="42.4637109" lon="14.1221377"><ele>155.0</ele><time>2026-05-01T16:14:55.009Z</time></trkpt><trkpt lat="42.4638249" lon="14.1222521"><ele>155.0</ele><time>2026-05-01T16:14:56.009Z</time></trkpt><trkpt lat="42.4639308" lon="14.1223951"><ele>153.0</ele><time>2026-05-01T16:14:57.009Z</time></trkpt><trkpt lat="42.4640249" lon="14.1225645"><ele>151.0</ele><time>2026-05-01T16:14:58.009Z</time></trkpt><trkpt lat="42.4641114" lon="14.1227423"><ele>149.0</ele><time>2026-05-01T16:14:59.009Z</time></trkpt><trkpt lat="42.4641864" lon="14.1229261"><ele>149.0</ele><time>2026-05-01T16:15:00.009Z</time></trkpt><trkpt lat="42.4642535" lon="14.1231148"><ele>149.0</ele><time>2026-05-01T16:15:01.009Z</time></trkpt><trkpt lat="42.464312" lon="14.1233084"><ele>149.0</ele><time>2026-05-01T16:15:02.009Z</time></trkpt><trkpt lat="42.4643627" lon="14.1235049"><ele>149.0</ele><time>2026-05-01T16:15:03.009Z</time></trkpt><trkpt lat="42.4644137" lon="14.1236991"><ele>149.0</ele><time>2026-05-01T16:15:04.009Z</time></trkpt><trkpt lat="42.4644759" lon="14.1238815"><ele>149.0</ele><time>2026-05-01T16:15:05.008Z</time></trkpt><trkpt lat="42.4645536" lon="14.1240569"><ele>146.33333333333331</ele><time>2026-05-01T16:15:06.009Z</time></trkpt><trkpt lat="42.4646521" lon="14.1242177"><ele>143.66666666666666</ele><time>2026-05-01T16:15:07.009Z</time></trkpt><trkpt lat="42.4647563" lon="14.1243762"><ele>141.0</ele><time>2026-05-01T16:15:08.009Z</time></trkpt><trkpt lat="42.4648763" lon="14.1245303"><ele>141.0</ele><time>2026-05-01T16:15:09.009Z</time></trkpt><trkpt lat="42.4649922" lon="14.1246891"><ele>141.0</ele><time>2026-05-01T16:15:10.009Z</time></trkpt><trkpt lat="42.4650984" lon="14.1248549"><ele>141.0</ele><time>2026-05-01T16:15:11.009Z</time></trkpt><trkpt lat="42.4651949" lon="14.1250315"><ele>139.33333333333334</ele><time>2026-05-01T16:15:12.009Z</time></trkpt><trkpt lat="42.46529" lon="14.1252115"><ele>137.66666666666669</ele><time>2026-05-01T16:15:13.009Z</time></trkpt><trkpt lat="42.4653947" lon="14.1253851"><ele>136.0</ele><time>2026-05-01T16:15:14.009Z</time></trkpt><trkpt lat="42.4655078" lon="14.1255463"><ele>136.0</ele><time>2026-05-01T16:15:15.009Z</time></trkpt><trkpt lat="42.4656315" lon="14.1257028"><ele>136.0</ele><time>2026-05-01T16:15:16.009Z</time></trkpt><trkpt lat="42.4657579" lon="14.1258452"><ele>136.0</ele><time>2026-05-01T16:15:17.009Z</time></trkpt><trkpt lat="42.465886" lon="14.1259686"><ele>135.33333333333334</ele><time>2026-05-01T16:15:18.009Z</time></trkpt><trkpt lat="42.466029" lon="14.1260518"><ele>134.66666666666666</ele><time>2026-05-01T16:15:19.009Z</time></trkpt><trkpt lat="42.4661781" lon="14.1260988"><ele>134.0</ele><time>2026-05-01T16:15:20.009Z</time></trkpt><trkpt lat="42.4663253" lon="14.1261241"><ele>134.0</ele><time>2026-05-01T16:15:21.009Z</time></trkpt><trkpt lat="42.4664714" lon="14.1261442"><ele>134.0</ele><time>2026-05-01T16:15:22.009Z</time></trkpt><trkpt lat="42.466607" lon="14.1261878"><ele>134.0</ele><time>2026-05-01T16:15:23.009Z</time></trkpt><trkpt lat="42.4667154" lon="14.1262805"><ele>134.0</ele><time>2026-05-01T16:15:24.009Z</time></trkpt><trkpt lat="42.4668047" lon="14.126417"><ele>135.66666666666666</ele><time>2026-05-01T16:15:25.009Z</time></trkpt><trkpt lat="42.4668887" lon="14.1265764"><ele>137.33333333333334</ele><time>2026-05-01T16:15:26.009Z</time></trkpt><trkpt lat="42.4669837" lon="14.1267464"><ele>139.0</ele><time>2026-05-01T16:15:27.009Z</time></trkpt><trkpt lat="42.4670775" lon="14.1269285"><ele>137.66666666666669</ele><time>2026-05-01T16:15:28.009Z</time></trkpt><trkpt lat="42.4671725" lon="14.1271202"><ele>136.33333333333334</ele><time>2026-05-01T16:15:29.009Z</time></trkpt><trkpt lat="42.4672634" lon="14.1273214"><ele>135.0</ele><time>2026-05-01T16:15:30.009Z</time></trkpt><trkpt lat="42.4673491" lon="14.1275276"><ele>138.33333333333334</ele><time>2026-05-01T16:15:31.009Z</time></trkpt><trkpt lat="42.4674311" lon="14.127733"><ele>141.66666666666669</ele><time>2026-05-01T16:15:32.009Z</time></trkpt><trkpt lat="42.4675055" lon="14.1279387"><ele>145.0</ele><time>2026-05-01T16:15:33.009Z</time></trkpt><trkpt lat="42.467576" lon="14.1281376"><ele>145.5</ele><time>2026-05-01T16:15:34.009Z</time></trkpt><trkpt lat="42.4676387" lon="14.1283226"><ele>146.0</ele><time>2026-05-01T16:15:35.009Z</time></trkpt><trkpt lat="42.4677062" lon="14.1284893"><ele>146.5</ele><time>2026-05-01T16:15:36.009Z</time></trkpt><trkpt lat="42.4677976" lon="14.1286218"><ele>147.0</ele><time>2026-05-01T16:15:37.009Z</time></trkpt><trkpt lat="42.4679059" lon="14.1287204"><ele>150.33333333333334</ele><time>2026-05-01T16:15:38.008Z</time></trkpt><trkpt lat="42.4680428" lon="14.1287989"><ele>153.66666666666669</ele><time>2026-05-01T16:15:39.009Z</time></trkpt><trkpt lat="42.4682031" lon="14.1288629"><ele>157.0</ele><time>2026-05-01T16:15:40.009Z</time></trkpt><trkpt lat="42.4683587" lon="14.1289189"><ele>157.0</ele><time>2026-05-01T16:15:41.009Z</time></trkpt><trkpt lat="42.4685143" lon="14.1289738"><ele>157.0</ele><time>2026-05-01T16:15:42.009Z</time></trkpt><trkpt lat="42.4686753" lon="14.1290244"><ele>157.0</ele><time>2026-05-01T16:15:43.009Z</time></trkpt><trkpt lat="42.4688331" lon="14.1290821"><ele>154.66666666666669</ele><time>2026-05-01T16:15:44.009Z</time></trkpt><trkpt lat="42.4689828" lon="14.1291349"><ele>152.33333333333334</ele><time>2026-05-01T16:15:45.008Z</time></trkpt><trkpt lat="42.4691308" lon="14.1291896"><ele>150.0</ele><time>2026-05-01T16:15:46.009Z</time></trkpt><trkpt lat="42.4692736" lon="14.1292672"><ele>150.0</ele><time>2026-05-01T16:15:47.009Z</time></trkpt><trkpt lat="42.4694078" lon="14.1293752"><ele>150.0</ele><time>2026-05-01T16:15:48.009Z</time></trkpt><trkpt lat="42.4695404" lon="14.1295032"><ele>150.0</ele><time>2026-05-01T16:15:49.009Z</time></trkpt><trkpt lat="42.4696691" lon="14.1296391"><ele>150.0</ele><time>2026-05-01T16:15:50.009Z</time></trkpt><trkpt lat="42.469794" lon="14.1297798"><ele>150.0</ele><time>2026-05-01T16:15:51.009Z</time></trkpt><trkpt lat="42.4699138" lon="14.1299172"><ele>150.0</ele><time>2026-05-01T16:15:52.009Z</time></trkpt><trkpt lat="42.4700274" lon="14.1300566"><ele>150.0</ele><time>2026-05-01T16:15:53.009Z</time></trkpt><trkpt lat="42.4701405" lon="14.1301973"><ele>150.0</ele><time>2026-05-01T16:15:54.009Z</time></trkpt><trkpt lat="42.4702551" lon="14.1303398"><ele>150.0</ele><time>2026-05-01T16:15:55.009Z</time></trkpt><trkpt lat="42.4703772" lon="14.1304808"><ele>148.5</ele><time>2026-05-01T16:15:56.009Z</time></trkpt><trkpt lat="42.4704964" lon="14.1306126"><ele>147.0</ele><time>2026-05-01T16:15:57.008Z</time></trkpt><trkpt lat="42.4706048" lon="14.1307359"><ele>145.5</ele><time>2026-05-01T16:15:58.009Z</time></trkpt><trkpt lat="42.4707084" lon="14.1308641"><ele>144.0</ele><time>2026-05-01T16:15:59.009Z</time></trkpt><trkpt lat="42.4708129" lon="14.1309943"><ele>144.0</ele><time>2026-05-01T16:16:00.009Z</time></trkpt><trkpt lat="42.4709206" lon="14.1311281"><ele>144.0</ele><time>2026-05-01T16:16:01.009Z</time></trkpt><trkpt lat="42.4710328" lon="14.1312661"><ele>144.0</ele><time>2026-05-01T16:16:02.009Z</time></trkpt><trkpt lat="42.4711469" lon="14.1314068"><ele>144.0</ele><time>2026-05-01T16:16:03.009Z</time></trkpt><trkpt lat="42.4712547" lon="14.1315455"><ele>144.0</ele><time>2026-05-01T16:16:04.009Z</time></trkpt><trkpt lat="42.4713551" lon="14.1316845"><ele>144.0</ele><time>2026-05-01T16:16:05.009Z</time></trkpt><trkpt lat="42.4714353" lon="14.1318272"><ele>144.0</ele><time>2026-05-01T16:16:06.009Z</time></trkpt><trkpt lat="42.4714973" lon="14.1319844"><ele>143.5</ele><time>2026-05-01T16:16:07.009Z</time></trkpt><trkpt lat="42.4715422" lon="14.1321722"><ele>143.0</ele><time>2026-05-01T16:16:08.009Z</time></trkpt><trkpt lat="42.4715575" lon="14.1323704"><ele>142.5</ele><time>2026-05-01T16:16:09.009Z</time></trkpt><trkpt lat="42.4715641" lon="14.1325598"><ele>142.0</ele><time>2026-05-01T16:16:10.009Z</time></trkpt><trkpt lat="42.4715871" lon="14.1327418"><ele>143.5</ele><time>2026-05-01T16:16:11.008Z</time></trkpt><trkpt lat="42.4716291" lon="14.1329172"><ele>145.0</ele><time>2026-05-01T16:16:12.009Z</time></trkpt><trkpt lat="42.4716858" lon="14.1330716"><ele>146.5</ele><time>2026-05-01T16:16:13.009Z</time></trkpt><trkpt lat="42.4717701" lon="14.1332092"><ele>148.0</ele><time>2026-05-01T16:16:14.009Z</time></trkpt><trkpt lat="42.4718765" lon="14.1333118"><ele>148.0</ele><time>2026-05-01T16:16:15.009Z</time></trkpt><trkpt lat="42.471986" lon="14.1334093"><ele>148.0</ele><time>2026-05-01T16:16:16.009Z</time></trkpt><trkpt lat="42.4721265" lon="14.1334103"><ele>148.0</ele><time>2026-05-01T16:16:17.009Z</time></trkpt><trkpt lat="42.4722756" lon="14.1333782"><ele>148.0</ele><time>2026-05-01T16:16:18.009Z</time></trkpt><trkpt lat="42.472384" lon="14.1333999"><ele>150.5</ele><time>2026-05-01T16:16:19.009Z</time></trkpt><trkpt lat="42.4724923" lon="14.1334508"><ele>153.0</ele><time>2026-05-01T16:16:20.009Z</time></trkpt><trkpt lat="42.4726027" lon="14.1335387"><ele>155.5</ele><time>2026-05-01T16:16:21.009Z</time></trkpt><trkpt lat="42.4726999" lon="14.1336566"><ele>158.0</ele><time>2026-05-01T16:16:22.008Z</time></trkpt><trkpt lat="42.4728271" lon="14.1337701"><ele>160.66666666666666</ele><time>2026-05-01T16:16:23.009Z</time></trkpt><trkpt lat="42.472946" lon="14.1338812"><ele>163.33333333333334</ele><time>2026-05-01T16:16:24.009Z</time></trkpt><trkpt lat="42.47314" lon="14.1340216"><ele>166.0</ele><time>2026-05-01T16:16:25.009Z</time></trkpt><trkpt lat="42.4733075" lon="14.1341902"><ele>166.0</ele><time>2026-05-01T16:16:26.009Z</time></trkpt><trkpt lat="42.4734304" lon="14.1343591"><ele>166.0</ele><time>2026-05-01T16:16:27.009Z</time></trkpt><trkpt lat="42.4735243" lon="14.1345412"><ele>166.0</ele><time>2026-05-01T16:16:28.009Z</time></trkpt><trkpt lat="42.4735782" lon="14.1347401"><ele>164.0</ele><time>2026-05-01T16:16:29.009Z</time></trkpt><trkpt lat="42.4736127" lon="14.1349483"><ele>162.0</ele><time>2026-05-01T16:16:30.009Z</time></trkpt><trkpt lat="42.4736569" lon="14.1351199"><ele>160.0</ele><time>2026-05-01T16:16:31.009Z</time></trkpt><trkpt lat="42.4737014" lon="14.1352696"><ele>158.0</ele><time>2026-05-01T16:16:32.009Z</time></trkpt><trkpt lat="42.4737709" lon="14.1353916"><ele>163.75</ele><time>2026-05-01T16:16:33.009Z</time></trkpt><trkpt lat="42.4738354" lon="14.1355245"><ele>169.5</ele><time>2026-05-01T16:16:34.009Z</time></trkpt><trkpt lat="42.4739465" lon="14.1355698"><ele>175.25</ele><time>2026-05-01T16:16:35.009Z</time></trkpt><trkpt lat="42.4741255" lon="14.1356221"><ele>181.0</ele><time>2026-05-01T16:16:36.009Z</time></trkpt><trkpt lat="42.4742673" lon="14.1356933"><ele>181.66666666666669</ele><time>2026-05-01T16:16:37.009Z</time></trkpt><trkpt lat="42.4743979" lon="14.1357807"><ele>182.33333333333334</ele><time>2026-05-01T16:16:38.009Z</time></trkpt><trkpt lat="42.4745145" lon="14.1359142"><ele>183.0</ele><time>2026-05-01T16:16:39.009Z</time></trkpt><trkpt lat="42.4746427" lon="14.1360305"><ele>183.0</ele><time>2026-05-01T16:16:40.009Z</time></trkpt><trkpt lat="42.4747712" lon="14.1361153"><ele>183.0</ele><time>2026-05-01T16:16:41.009Z</time></trkpt><trkpt lat="42.4749219" lon="14.1361597"><ele>183.0</ele><time>2026-05-01T16:16:42.009Z</time></trkpt><trkpt lat="42.4750398" lon="14.1362052"><ele>183.0</ele><time>2026-05-01T16:16:43.009Z</time></trkpt><trkpt lat="42.475153" lon="14.1362782"><ele>183.0</ele><time>2026-05-01T16:16:44.009Z</time></trkpt><trkpt lat="42.4752424" lon="14.1364163"><ele>183.0</ele><time>2026-05-01T16:16:45.009Z</time></trkpt><trkpt lat="42.4753443" lon="14.1365773"><ele>183.0</ele><time>2026-05-01T16:16:46.009Z</time></trkpt><trkpt lat="42.4754487" lon="14.1367146"><ele>183.0</ele><time>2026-05-01T16:16:47.009Z</time></trkpt><trkpt lat="42.4755957" lon="14.1368273"><ele>183.0</ele><time>2026-05-01T16:16:48.009Z</time></trkpt><trkpt lat="42.4757476" lon="14.1369331"><ele>183.0</ele><time>2026-05-01T16:16:49.008Z</time></trkpt><trkpt lat="42.4759189" lon="14.1370348"><ele>183.0</ele><time>2026-05-01T16:16:50.009Z</time></trkpt><trkpt lat="42.4760959" lon="14.137129"><ele>183.0</ele><time>2026-05-01T16:16:51.009Z</time></trkpt><trkpt lat="42.476254" lon="14.1372224"><ele>183.0</ele><time>2026-05-01T16:16:52.009Z</time></trkpt><trkpt lat="42.4764021" lon="14.1373027"><ele>183.0</ele><time>2026-05-01T16:16:53.009Z</time></trkpt><trkpt lat="42.4765421" lon="14.1373667"><ele>182.0</ele><time>2026-05-01T16:16:54.009Z</time></trkpt><trkpt lat="42.4766708" lon="14.1374118"><ele>181.0</ele><time>2026-05-01T16:16:55.009Z</time></trkpt><trkpt lat="42.4767916" lon="14.1374368"><ele>180.0</ele><time>2026-05-01T16:16:56.009Z</time></trkpt><trkpt lat="42.4769054" lon="14.1374484"><ele>179.0</ele><time>2026-05-01T16:16:57.009Z</time></trkpt><trkpt lat="42.4770187" lon="14.137456"><ele>179.75</ele><time>2026-05-01T16:16:58.009Z</time></trkpt><trkpt lat="42.4771315" lon="14.137461"><ele>180.5</ele><time>2026-05-01T16:16:59.009Z</time></trkpt><trkpt lat="42.4772486" lon="14.1374596"><ele>181.25</ele><time>2026-05-01T16:17:00.009Z</time></trkpt><trkpt lat="42.4773733" lon="14.1374414"><ele>182.0</ele><time>2026-05-01T16:17:01.009Z</time></trkpt><trkpt lat="42.4775043" lon="14.1374056"><ele>180.0</ele><time>2026-05-01T16:17:02.009Z</time></trkpt><trkpt lat="42.4776398" lon="14.137356"><ele>178.0</ele><time>2026-05-01T16:17:03.009Z</time></trkpt><trkpt lat="42.4777756" lon="14.1373009"><ele>176.0</ele><time>2026-05-01T16:17:04.009Z</time></trkpt><trkpt lat="42.4779084" lon="14.1372427"><ele>174.0</ele><time>2026-05-01T16:17:05.008Z</time></trkpt><trkpt lat="42.4780383" lon="14.1371963"><ele>172.5</ele><time>2026-05-01T16:17:06.009Z</time></trkpt><trkpt lat="42.4781662" lon="14.1371715"><ele>171.0</ele><time>2026-05-01T16:17:07.009Z</time></trkpt><trkpt lat="42.4782878" lon="14.1371899"><ele>169.5</ele><time>2026-05-01T16:17:08.009Z</time></trkpt><trkpt lat="42.4784155" lon="14.1372378"><ele>168.0</ele><time>2026-05-01T16:17:09.008Z</time></trkpt><trkpt lat="42.4785429" lon="14.1372888"><ele>168.0</ele><time>2026-05-01T16:17:10.009Z</time></trkpt><trkpt lat="42.4786698" lon="14.1373099"><ele>168.0</ele><time>2026-05-01T16:17:11.009Z</time></trkpt><trkpt lat="42.478815" lon="14.137319"><ele>168.0</ele><time>2026-05-01T16:17:12.009Z</time></trkpt><trkpt lat="42.4789506" lon="14.1372116"><ele>168.0</ele><time>2026-05-01T16:17:13.008Z</time></trkpt><trkpt lat="42.4790784" lon="14.137143"><ele>167.75</ele><time>2026-05-01T16:17:14.009Z</time></trkpt><trkpt lat="42.4791927" lon="14.1370569"><ele>167.5</ele><time>2026-05-01T16:17:15.009Z</time></trkpt><trkpt lat="42.4793009" lon="14.1369395"><ele>167.25</ele><time>2026-05-01T16:17:16.009Z</time></trkpt><trkpt lat="42.4793962" lon="14.1367725"><ele>167.0</ele><time>2026-05-01T16:17:17.009Z</time></trkpt><trkpt lat="42.479475" lon="14.1365967"><ele>166.5</ele><time>2026-05-01T16:17:18.009Z</time></trkpt><trkpt lat="42.4795553" lon="14.1364594"><ele>166.0</ele><time>2026-05-01T16:17:19.009Z</time></trkpt><trkpt lat="42.4796396" lon="14.1363424"><ele>165.5</ele><time>2026-05-01T16:17:20.009Z</time></trkpt><trkpt lat="42.4797288" lon="14.1362319"><ele>165.0</ele><time>2026-05-01T16:17:21.008Z</time></trkpt><trkpt lat="42.4798167" lon="14.1361252"><ele>165.0</ele><time>2026-05-01T16:17:22.009Z</time></trkpt><trkpt lat="42.4798881" lon="14.1359985"><ele>165.0</ele><time>2026-05-01T16:17:23.008Z</time></trkpt><trkpt lat="42.4799368" lon="14.1358269"><ele>165.0</ele><time>2026-05-01T16:17:24.009Z</time></trkpt><trkpt lat="42.4799767" lon="14.1356548"><ele>165.0</ele><time>2026-05-01T16:17:25.008Z</time></trkpt><trkpt lat="42.4800161" lon="14.1355008"><ele>163.0</ele><time>2026-05-01T16:17:26.009Z</time></trkpt><trkpt lat="42.4800665" lon="14.1353531"><ele>161.0</ele><time>2026-05-01T16:17:27.009Z</time></trkpt><trkpt lat="42.4801379" lon="14.1352128"><ele>159.0</ele><time>2026-05-01T16:17:28.009Z</time></trkpt><trkpt lat="42.4802328" lon="14.1350821"><ele>157.0</ele><time>2026-05-01T16:17:29.009Z</time></trkpt><trkpt lat="42.4803452" lon="14.1349557"><ele>155.0</ele><time>2026-05-01T16:17:30.009Z</time></trkpt><trkpt lat="42.4804607" lon="14.1348597"><ele>153.0</ele><time>2026-05-01T16:17:31.009Z</time></trkpt><trkpt lat="42.4805705" lon="14.1347915"><ele>151.0</ele><time>2026-05-01T16:17:32.008Z</time></trkpt><trkpt lat="42.4806842" lon="14.1347652"><ele>149.0</ele><time>2026-05-01T16:17:33.009Z</time></trkpt><trkpt lat="42.4807964" lon="14.1347617"><ele>149.0</ele><time>2026-05-01T16:17:34.009Z</time></trkpt><trkpt lat="42.4809036" lon="14.1348735"><ele>149.0</ele><time>2026-05-01T16:17:35.009Z</time></trkpt><trkpt lat="42.4810012" lon="14.1349911"><ele>149.0</ele><time>2026-05-01T16:17:36.009Z</time></trkpt><trkpt lat="42.4810828" lon="14.1351367"><ele>149.0</ele><time>2026-05-01T16:17:37.009Z</time></trkpt><trkpt lat="42.4811512" lon="14.1353044"><ele>148.5</ele><time>2026-05-01T16:17:38.009Z</time></trkpt><trkpt lat="42.481211" lon="14.1354884"><ele>148.0</ele><time>2026-05-01T16:17:39.009Z</time></trkpt><trkpt lat="42.4812699" lon="14.1356675"><ele>147.5</ele><time>2026-05-01T16:17:40.009Z</time></trkpt><trkpt lat="42.4813269" lon="14.1358386"><ele>147.0</ele><time>2026-05-01T16:17:41.009Z</time></trkpt><trkpt lat="42.4813823" lon="14.1360089"><ele>147.0</ele><time>2026-05-01T16:17:42.009Z</time></trkpt><trkpt lat="42.4814374" lon="14.1361734"><ele>147.0</ele><time>2026-05-01T16:17:43.009Z</time></trkpt><trkpt lat="42.4814914" lon="14.1363235"><ele>147.0</ele><time>2026-05-01T16:17:44.009Z</time></trkpt><trkpt lat="42.4815534" lon="14.1364557"><ele>147.0</ele><time>2026-05-01T16:17:45.009Z</time></trkpt><trkpt lat="42.4816223" lon="14.1365709"><ele>147.0</ele><time>2026-05-01T16:17:46.009Z</time></trkpt><trkpt lat="42.4817155" lon="14.1366345"><ele>147.0</ele><time>2026-05-01T16:17:47.009Z</time></trkpt><trkpt lat="42.4818656" lon="14.1366622"><ele>147.0</ele><time>2026-05-01T16:17:48.009Z</time></trkpt><trkpt lat="42.4819595" lon="14.1364632"><ele>147.0</ele><time>2026-05-01T16:17:49.009Z</time></trkpt><trkpt lat="42.4820514" lon="14.1363422"><ele>145.33333333333334</ele><time>2026-05-01T16:17:50.009Z</time></trkpt><trkpt lat="42.4821264" lon="14.1362056"><ele>143.66666666666669</ele><time>2026-05-01T16:17:51.009Z</time></trkpt><trkpt lat="42.482199" lon="14.1360572"><ele>142.0</ele><time>2026-05-01T16:17:52.009Z</time></trkpt><trkpt lat="42.4822207" lon="14.1357713"><ele>141.0</ele><time>2026-05-01T16:17:53.009Z</time></trkpt><trkpt lat="42.4822627" lon="14.1355505"><ele>140.0</ele><time>2026-05-01T16:17:54.009Z</time></trkpt><trkpt lat="42.4823086" lon="14.1353428"><ele>139.0</ele><time>2026-05-01T16:17:55.008Z</time></trkpt><trkpt lat="42.482355" lon="14.1351261"><ele>139.0</ele><time>2026-05-01T16:17:56.009Z</time></trkpt><trkpt lat="42.4823992" lon="14.1349262"><ele>139.0</ele><time>2026-05-01T16:17:57.009Z</time></trkpt><trkpt lat="42.4824389" lon="14.134729"><ele>139.0</ele><time>2026-05-01T16:17:58.009Z</time></trkpt><trkpt lat="42.4824778" lon="14.1345396"><ele>138.5</ele><time>2026-05-01T16:17:59.009Z</time></trkpt><trkpt lat="42.4825194" lon="14.1343522"><ele>138.0</ele><time>2026-05-01T16:18:00.009Z</time></trkpt><trkpt lat="42.482561" lon="14.1341698"><ele>137.5</ele><time>2026-05-01T16:18:01.008Z</time></trkpt><trkpt lat="42.482601" lon="14.1339949"><ele>137.0</ele><time>2026-05-01T16:18:02.009Z</time></trkpt><trkpt lat="42.4826345" lon="14.1338284"><ele>136.0</ele><time>2026-05-01T16:18:03.009Z</time></trkpt><trkpt lat="42.4826712" lon="14.1336704"><ele>135.0</ele><time>2026-05-01T16:18:04.009Z</time></trkpt><trkpt lat="42.4827197" lon="14.1335179"><ele>134.0</ele><time>2026-05-01T16:18:05.009Z</time></trkpt><trkpt lat="42.4827915" lon="14.1333898"><ele>133.0</ele><time>2026-05-01T16:18:06.009Z</time></trkpt><trkpt lat="42.4828801" lon="14.1332858"><ele>132.0</ele><time>2026-05-01T16:18:07.009Z</time></trkpt><trkpt lat="42.482982" lon="14.1332071"><ele>131.0</ele><time>2026-05-01T16:18:08.009Z</time></trkpt><trkpt lat="42.4830964" lon="14.133146"><ele>130.0</ele><time>2026-05-01T16:18:09.009Z</time></trkpt><trkpt lat="42.4832218" lon="14.1330893"><ele>129.0</ele><time>2026-05-01T16:18:10.009Z</time></trkpt><trkpt lat="42.4833514" lon="14.1330306"><ele>129.0</ele><time>2026-05-01T16:18:11.009Z</time></trkpt><trkpt lat="42.483475" lon="14.132977"><ele>129.0</ele><time>2026-05-01T16:18:12.009Z</time></trkpt><trkpt lat="42.483584" lon="14.1329175"><ele>129.0</ele><time>2026-05-01T16:18:13.008Z</time></trkpt><trkpt lat="42.4836965" lon="14.1328577"><ele>129.0</ele><time>2026-05-01T16:18:14.009Z</time></trkpt><trkpt lat="42.483813" lon="14.1328044"><ele>128.0</ele><time>2026-05-01T16:18:15.009Z</time></trkpt><trkpt lat="42.4839232" lon="14.1327525"><ele>127.0</ele><time>2026-05-01T16:18:16.009Z</time></trkpt><trkpt lat="42.4840363" lon="14.1327026"><ele>126.0</ele><time>2026-05-01T16:18:17.009Z</time></trkpt><trkpt lat="42.4841493" lon="14.1326486"><ele>125.0</ele><time>2026-05-01T16:18:18.009Z</time></trkpt><trkpt lat="42.4842599" lon="14.1325907"><ele>125.0</ele><time>2026-05-01T16:18:19.009Z</time></trkpt><trkpt lat="42.4843731" lon="14.1325368"><ele>125.0</ele><time>2026-05-01T16:18:20.009Z</time></trkpt><trkpt lat="42.4844888" lon="14.1324861"><ele>125.0</ele><time>2026-05-01T16:18:21.009Z</time></trkpt><trkpt lat="42.4846062" lon="14.1324316"><ele>125.0</ele><time>2026-05-01T16:18:22.008Z</time></trkpt><trkpt lat="42.4847241" lon="14.1323786"><ele>123.5</ele><time>2026-05-01T16:18:23.009Z</time></trkpt><trkpt lat="42.4848378" lon="14.1323289"><ele>122.0</ele><time>2026-05-01T16:18:24.009Z</time></trkpt><trkpt lat="42.4849507" lon="14.1323029"><ele>120.5</ele><time>2026-05-01T16:18:25.009Z</time></trkpt><trkpt lat="42.4850672" lon="14.132302"><ele>119.0</ele><time>2026-05-01T16:18:26.009Z</time></trkpt><trkpt lat="42.4851825" lon="14.1323367"><ele>119.2</ele><time>2026-05-01T16:18:27.008Z</time></trkpt><trkpt lat="42.4852959" lon="14.1324002"><ele>119.4</ele><time>2026-05-01T16:18:28.009Z</time></trkpt><trkpt lat="42.4853836" lon="14.1324673"><ele>119.6</ele><time>2026-05-01T16:18:29.009Z</time></trkpt><trkpt lat="42.4854658" lon="14.1325413"><ele>119.8</ele><time>2026-05-01T16:18:30.008Z</time></trkpt><trkpt lat="42.4855479" lon="14.1326358"><ele>120.0</ele><time>2026-05-01T16:18:31.009Z</time></trkpt><trkpt lat="42.4856325" lon="14.13274"><ele>119.5</ele><time>2026-05-01T16:18:32.009Z</time></trkpt><trkpt lat="42.4857092" lon="14.1328454"><ele>119.0</ele><time>2026-05-01T16:18:33.008Z</time></trkpt><trkpt lat="42.4857981" lon="14.132952"><ele>118.5</ele><time>2026-05-01T16:18:34.009Z</time></trkpt><trkpt lat="42.4858914" lon="14.1330562"><ele>118.0</ele><time>2026-05-01T16:18:35.009Z</time></trkpt><trkpt lat="42.4859745" lon="14.1331528"><ele>117.80000000000001</ele><time>2026-05-01T16:18:36.008Z</time></trkpt><trkpt lat="42.4860533" lon="14.1332473"><ele>117.60000000000001</ele><time>2026-05-01T16:18:37.009Z</time></trkpt><trkpt lat="42.4861301" lon="14.1333384"><ele>117.39999999999999</ele><time>2026-05-01T16:18:38.009Z</time></trkpt><trkpt lat="42.4862137" lon="14.1334331"><ele>117.19999999999999</ele><time>2026-05-01T16:18:39.009Z</time></trkpt><trkpt lat="42.4862882" lon="14.1335217"><ele>117.0</ele><time>2026-05-01T16:18:40.009Z</time></trkpt><trkpt lat="42.4863541" lon="14.1336062"><ele>117.0</ele><time>2026-05-01T16:18:41.009Z</time></trkpt><trkpt lat="42.4864192" lon="14.1336793"><ele>117.0</ele><time>2026-05-01T16:18:42.008Z</time></trkpt><trkpt lat="42.4864799" lon="14.1337529"><ele>117.0</ele><time>2026-05-01T16:18:43.009Z</time></trkpt><trkpt lat="42.4865367" lon="14.1338248"><ele>117.0</ele><time>2026-05-01T16:18:44.009Z</time></trkpt><trkpt lat="42.486593" lon="14.1339006"><ele>117.0</ele><time>2026-05-01T16:18:45.008Z</time></trkpt><trkpt lat="42.4866398" lon="14.1339913"><ele>117.0</ele><time>2026-05-01T16:18:46.009Z</time></trkpt><trkpt lat="42.4866724" lon="14.1341014"><ele>117.0</ele><time>2026-05-01T16:18:47.009Z</time></trkpt><trkpt lat="42.4866949" lon="14.1342266"><ele>116.99999999999999</ele><time>2026-05-01T16:18:48.009Z</time></trkpt><trkpt lat="42.4867145" lon="14.1343656"><ele>116.99999999999999</ele><time>2026-05-01T16:18:49.009Z</time></trkpt><trkpt lat="42.4867386" lon="14.1345143"><ele>117.0</ele><time>2026-05-01T16:18:50.009Z</time></trkpt><trkpt lat="42.4867642" lon="14.134669"><ele>117.0</ele><time>2026-05-01T16:18:51.009Z</time></trkpt><trkpt lat="42.4867889" lon="14.134833"><ele>117.0</ele><time>2026-05-01T16:18:52.009Z</time></trkpt><trkpt lat="42.4868189" lon="14.1349942"><ele>117.0</ele><time>2026-05-01T16:18:53.009Z</time></trkpt><trkpt lat="42.4868479" lon="14.1351589"><ele>117.0</ele><time>2026-05-01T16:18:54.009Z</time></trkpt><trkpt lat="42.4868789" lon="14.1353337"><ele>117.0</ele><time>2026-05-01T16:18:55.009Z</time></trkpt><trkpt lat="42.4869136" lon="14.1355107"><ele>117.0</ele><time>2026-05-01T16:18:56.009Z</time></trkpt><trkpt lat="42.4869545" lon="14.1356908"><ele>117.0</ele><time>2026-05-01T16:18:57.009Z</time></trkpt><trkpt lat="42.4870079" lon="14.1358686"><ele>117.0</ele><time>2026-05-01T16:18:58.009Z</time></trkpt><trkpt lat="42.4870641" lon="14.1360374"><ele>117.0</ele><time>2026-05-01T16:18:59.009Z</time></trkpt><trkpt lat="42.4871203" lon="14.1361978"><ele>117.5</ele><time>2026-05-01T16:19:00.008Z</time></trkpt><trkpt lat="42.4871829" lon="14.136357"><ele>118.0</ele><time>2026-05-01T16:19:01.009Z</time></trkpt><trkpt lat="42.4872484" lon="14.1365143"><ele>118.5</ele><time>2026-05-01T16:19:02.008Z</time></trkpt><trkpt lat="42.4873117" lon="14.1366651"><ele>119.0</ele><time>2026-05-01T16:19:03.009Z</time></trkpt><trkpt lat="42.4873735" lon="14.1368201"><ele>120.25</ele><time>2026-05-01T16:19:04.009Z</time></trkpt><trkpt lat="42.4874324" lon="14.1369858"><ele>121.5</ele><time>2026-05-01T16:19:05.009Z</time></trkpt><trkpt lat="42.4874903" lon="14.1371491"><ele>122.75</ele><time>2026-05-01T16:19:06.009Z</time></trkpt><trkpt lat="42.4875507" lon="14.1373161"><ele>124.0</ele><time>2026-05-01T16:19:07.009Z</time></trkpt><trkpt lat="42.4876097" lon="14.1375034"><ele>124.0</ele><time>2026-05-01T16:19:08.008Z</time></trkpt><trkpt lat="42.487649" lon="14.1377113"><ele>124.0</ele><time>2026-05-01T16:19:09.009Z</time></trkpt><trkpt lat="42.4876554" lon="14.1379449"><ele>124.0</ele><time>2026-05-01T16:19:10.009Z</time></trkpt><trkpt lat="42.4876462" lon="14.1381589"><ele>124.25</ele><time>2026-05-01T16:19:11.009Z</time></trkpt><trkpt lat="42.4876364" lon="14.1383503"><ele>124.5</ele><time>2026-05-01T16:19:12.009Z</time></trkpt><trkpt lat="42.4876555" lon="14.1385348"><ele>124.75</ele><time>2026-05-01T16:19:13.009Z</time></trkpt><trkpt lat="42.4877041" lon="14.138715"><ele>125.0</ele><time>2026-05-01T16:19:14.009Z</time></trkpt><trkpt lat="42.4877691" lon="14.1388943"><ele>125.0</ele><time>2026-05-01T16:19:15.009Z</time></trkpt><trkpt lat="42.487852" lon="14.1390438"><ele>125.0</ele><time>2026-05-01T16:19:16.009Z</time></trkpt><trkpt lat="42.4879568" lon="14.1391703"><ele>125.0</ele><time>2026-05-01T16:19:17.009Z</time></trkpt><trkpt lat="42.4880617" lon="14.1392584"><ele>125.0</ele><time>2026-05-01T16:19:18.009Z</time></trkpt><trkpt lat="42.4881777" lon="14.1393073"><ele>126.8</ele><time>2026-05-01T16:19:19.009Z</time></trkpt><trkpt lat="42.4882901" lon="14.1393632"><ele>128.6</ele><time>2026-05-01T16:19:20.009Z</time></trkpt><trkpt lat="42.4883941" lon="14.1393956"><ele>130.4</ele><time>2026-05-01T16:19:21.009Z</time></trkpt><trkpt lat="42.488525" lon="14.1393719"><ele>132.2</ele><time>2026-05-01T16:19:23.009Z</time></trkpt><trkpt lat="42.4885936" lon="14.1393767"><ele>134.0</ele><time>2026-05-01T16:19:24.009Z</time></trkpt><trkpt lat="42.4886668" lon="14.1393795"><ele>134.0</ele><time>2026-05-01T16:19:25.009Z</time></trkpt><trkpt lat="42.4887359" lon="14.1393834"><ele>134.0</ele><time>2026-05-01T16:19:26.009Z</time></trkpt><trkpt lat="42.4888526" lon="14.1393803"><ele>134.0</ele><time>2026-05-01T16:19:28.009Z</time></trkpt><trkpt lat="42.4889486" lon="14.1394011"><ele>134.0</ele><time>2026-05-01T16:19:30.009Z</time></trkpt><trkpt lat="42.4890484" lon="14.1394533"><ele>134.0</ele><time>2026-05-01T16:19:32.009Z</time></trkpt><trkpt lat="42.4891528" lon="14.1395409"><ele>134.5</ele><time>2026-05-01T16:19:34.009Z</time></trkpt><trkpt lat="42.4892063" lon="14.1395886"><ele>135.0</ele><time>2026-05-01T16:19:35.009Z</time></trkpt><trkpt lat="42.4893307" lon="14.1396088"><ele>135.5</ele><time>2026-05-01T16:19:37.009Z</time></trkpt><trkpt lat="42.4894004" lon="14.1395748"><ele>136.0</ele><time>2026-05-01T16:19:38.009Z</time></trkpt><trkpt lat="42.489461" lon="14.1395084"><ele>136.5</ele><time>2026-05-01T16:19:39.009Z</time></trkpt><trkpt lat="42.4895485" lon="14.1394601"><ele>137.0</ele><time>2026-05-01T16:19:40.009Z</time></trkpt><trkpt lat="42.4896428" lon="14.139426"><ele>138.0</ele><time>2026-05-01T16:19:41.008Z</time></trkpt><trkpt lat="42.4897921" lon="14.139445"><ele>139.0</ele><time>2026-05-01T16:19:42.009Z</time></trkpt><trkpt lat="42.4899296" lon="14.1394437"><ele>140.0</ele><time>2026-05-01T16:19:43.009Z</time></trkpt><trkpt lat="42.4900866" lon="14.1394498"><ele>141.0</ele><time>2026-05-01T16:19:44.009Z</time></trkpt><trkpt lat="42.4902057" lon="14.1394583"><ele>141.0</ele><time>2026-05-01T16:19:45.009Z</time></trkpt><trkpt lat="42.4903101" lon="14.1394683"><ele>141.0</ele><time>2026-05-01T16:19:46.009Z</time></trkpt><trkpt lat="42.490409" lon="14.1394734"><ele>141.0</ele><time>2026-05-01T16:19:47.009Z</time></trkpt><trkpt lat="42.4904948" lon="14.1394798"><ele>141.0</ele><time>2026-05-01T16:19:48.009Z</time></trkpt><trkpt lat="42.4905764" lon="14.139483"><ele>141.0</ele><time>2026-05-01T16:19:49.009Z</time></trkpt><trkpt lat="42.4906591" lon="14.1394898"><ele>142.66666666666666</ele><time>2026-05-01T16:19:50.009Z</time></trkpt><trkpt lat="42.4907354" lon="14.1395089"><ele>144.33333333333334</ele><time>2026-05-01T16:19:51.009Z</time></trkpt><trkpt lat="42.4908036" lon="14.1395595"><ele>146.0</ele><time>2026-05-01T16:19:52.009Z</time></trkpt><trkpt lat="42.4908537" lon="14.1396385"><ele>147.66666666666669</ele><time>2026-05-01T16:19:53.009Z</time></trkpt><trkpt lat="42.490879" lon="14.1397465"><ele>149.33333333333334</ele><time>2026-05-01T16:19:54.009Z</time></trkpt><trkpt lat="42.4908855" lon="14.13988"><ele>151.0</ele><time>2026-05-01T16:19:55.008Z</time></trkpt><trkpt lat="42.4908829" lon="14.1400349"><ele>151.8</ele><time>2026-05-01T16:19:56.009Z</time></trkpt><trkpt lat="42.4908832" lon="14.1401935"><ele>152.6</ele><time>2026-05-01T16:19:57.009Z</time></trkpt><trkpt lat="42.4908801" lon="14.1403432"><ele>153.4</ele><time>2026-05-01T16:19:58.008Z</time></trkpt><trkpt lat="42.4908767" lon="14.1404808"><ele>154.2</ele><time>2026-05-01T16:19:59.009Z</time></trkpt><trkpt lat="42.4908754" lon="14.1406099"><ele>155.0</ele><time>2026-05-01T16:20:00.009Z</time></trkpt><trkpt lat="42.4908874" lon="14.1407215"><ele>155.0</ele><time>2026-05-01T16:20:01.009Z</time></trkpt><trkpt lat="42.4909008" lon="14.1408215"><ele>155.0</ele><time>2026-05-01T16:20:02.009Z</time></trkpt><trkpt lat="42.4909387" lon="14.1409137"><ele>155.0</ele><time>2026-05-01T16:20:03.008Z</time></trkpt><trkpt lat="42.4910053" lon="14.1409313"><ele>155.0</ele><time>2026-05-01T16:20:04.009Z</time></trkpt><trkpt lat="42.4911017" lon="14.1408126"><ele>155.0</ele><time>2026-05-01T16:20:05.009Z</time></trkpt><trkpt lat="42.4911537" lon="14.1407476"><ele>155.0</ele><time>2026-05-01T16:20:06.009Z</time></trkpt><trkpt lat="42.4912015" lon="14.1406638"><ele>156.2</ele><time>2026-05-01T16:20:07.009Z</time></trkpt><trkpt lat="42.4912722" lon="14.1405457"><ele>157.4</ele><time>2026-05-01T16:20:09.009Z</time></trkpt><trkpt lat="42.4913405" lon="14.1404249"><ele>158.60000000000002</ele><time>2026-05-01T16:20:11.009Z</time></trkpt><trkpt lat="42.4914218" lon="14.1403213"><ele>159.8</ele><time>2026-05-01T16:20:13.009Z</time></trkpt><trkpt lat="42.4915271" lon="14.1403651"><ele>161.0</ele><time>2026-05-01T16:20:15.009Z</time></trkpt><trkpt lat="42.4915813" lon="14.1404435"><ele>161.0</ele><time>2026-05-01T16:20:16.008Z</time></trkpt><trkpt lat="42.4916257" lon="14.1405536"><ele>161.0</ele><time>2026-05-01T16:20:17.009Z</time></trkpt><trkpt lat="42.4916721" lon="14.1406805"><ele>161.0</ele><time>2026-05-01T16:20:18.009Z</time></trkpt><trkpt lat="42.4917068" lon="14.14082"><ele>161.0</ele><time>2026-05-01T16:20:19.008Z</time></trkpt><trkpt lat="42.491738" lon="14.1409517"><ele>161.0</ele><time>2026-05-01T16:20:20.009Z</time></trkpt><trkpt lat="42.4917658" lon="14.141076"><ele>161.0</ele><time>2026-05-01T16:20:21.009Z</time></trkpt><trkpt lat="42.4917809" lon="14.1411876"><ele>161.0</ele><time>2026-05-01T16:20:22.009Z</time></trkpt><trkpt lat="42.4917891" lon="14.1413083"><ele>161.0</ele><time>2026-05-01T16:20:23.009Z</time></trkpt><trkpt lat="42.4917803" lon="14.1414424"><ele>161.0</ele><time>2026-05-01T16:20:24.009Z</time></trkpt><trkpt lat="42.4917635" lon="14.1415763"><ele>161.0</ele><time>2026-05-01T16:20:25.009Z</time></trkpt><trkpt lat="42.491728" lon="14.1417106"><ele>161.0</ele><time>2026-05-01T16:20:26.009Z</time></trkpt><trkpt lat="42.4916816" lon="14.1418506"><ele>161.0</ele><time>2026-05-01T16:20:27.008Z</time></trkpt><trkpt lat="42.4916255" lon="14.1419795"><ele>161.0</ele><time>2026-05-01T16:20:28.009Z</time></trkpt><trkpt lat="42.4915766" lon="14.1421184"><ele>161.0</ele><time>2026-05-01T16:20:29.009Z</time></trkpt><trkpt lat="42.4916251" lon="14.1422544"><ele>161.0</ele><time>2026-05-01T16:20:30.009Z</time></trkpt><trkpt lat="42.4916455" lon="14.1423969"><ele>160.20000000000002</ele><time>2026-05-01T16:20:31.009Z</time></trkpt><trkpt lat="42.491687" lon="14.1425339"><ele>159.4</ele><time>2026-05-01T16:20:32.008Z</time></trkpt><trkpt lat="42.49176" lon="14.1426077"><ele>158.6</ele><time>2026-05-01T16:20:33.009Z</time></trkpt><trkpt lat="42.4917748" lon="14.1427329"><ele>157.8</ele><time>2026-05-01T16:20:34.009Z</time></trkpt><trkpt lat="42.4917703" lon="14.1428648"><ele>157.0</ele><time>2026-05-01T16:20:35.008Z</time></trkpt><trkpt lat="42.4917543" lon="14.1429829"><ele>157.0</ele><time>2026-05-01T16:20:36.009Z</time></trkpt><trkpt lat="42.4916941" lon="14.1430842"><ele>157.0</ele><time>2026-05-01T16:20:37.009Z</time></trkpt><trkpt lat="42.491623" lon="14.1431825"><ele>157.0</ele><time>2026-05-01T16:20:38.008Z</time></trkpt><trkpt lat="42.491556" lon="14.1432855"><ele>157.0</ele><time>2026-05-01T16:20:39.008Z</time></trkpt><trkpt lat="42.4915528" lon="14.1434331"><ele>157.0</ele><time>2026-05-01T16:20:40.009Z</time></trkpt><trkpt lat="42.491539" lon="14.1435643"><ele>157.0</ele><time>2026-05-01T16:20:41.009Z</time></trkpt><trkpt lat="42.4916084" lon="14.1437172"><ele>157.0</ele><time>2026-05-01T16:20:42.009Z</time></trkpt><trkpt lat="42.4916815" lon="14.1438582"><ele>157.0</ele><time>2026-05-01T16:20:43.009Z</time></trkpt><trkpt lat="42.4917662" lon="14.1440003"><ele>157.0</ele><time>2026-05-01T16:20:44.009Z</time></trkpt><trkpt lat="42.4918635" lon="14.1441293"><ele>157.0</ele><time>2026-05-01T16:20:45.009Z</time></trkpt><trkpt lat="42.4919719" lon="14.144218"><ele>157.0</ele><time>2026-05-01T16:20:46.009Z</time></trkpt><trkpt lat="42.4921704" lon="14.1442636"><ele>157.0</ele><time>2026-05-01T16:20:47.009Z</time></trkpt><trkpt lat="42.4923469" lon="14.1443187"><ele>150.75</ele><time>2026-05-01T16:20:48.009Z</time></trkpt><trkpt lat="42.4924994" lon="14.1444018"><ele>144.5</ele><time>2026-05-01T16:20:49.009Z</time></trkpt><trkpt lat="42.49265" lon="14.1444832"><ele>138.25</ele><time>2026-05-01T16:20:50.009Z</time></trkpt><trkpt lat="42.4927448" lon="14.1445392"><ele>132.0</ele><time>2026-05-01T16:20:51.009Z</time></trkpt><trkpt lat="42.4928475" lon="14.1446221"><ele>133.25</ele><time>2026-05-01T16:20:52.009Z</time></trkpt><trkpt lat="42.4929392" lon="14.1447284"><ele>134.5</ele><time>2026-05-01T16:20:53.009Z</time></trkpt><trkpt lat="42.4930498" lon="14.1448574"><ele>135.75</ele><time>2026-05-01T16:20:54.009Z</time></trkpt><trkpt lat="42.4931222" lon="14.1450231"><ele>137.0</ele><time>2026-05-01T16:20:55.009Z</time></trkpt><trkpt lat="42.4932151" lon="14.1451468"><ele>137.0</ele><time>2026-05-01T16:20:56.008Z</time></trkpt><trkpt lat="42.4933234" lon="14.1452302"><ele>137.0</ele><time>2026-05-01T16:20:57.009Z</time></trkpt><trkpt lat="42.4934313" lon="14.1453192"><ele>137.0</ele><time>2026-05-01T16:20:58.009Z</time></trkpt><trkpt lat="42.4935284" lon="14.1453491"><ele>137.0</ele><time>2026-05-01T16:20:59.009Z</time></trkpt><trkpt lat="42.4936587" lon="14.1453122"><ele>135.5</ele><time>2026-05-01T16:21:00.009Z</time></trkpt><trkpt lat="42.4937611" lon="14.1451397"><ele>134.0</ele><time>2026-05-01T16:21:01.009Z</time></trkpt><trkpt lat="42.4938346" lon="14.1450451"><ele>132.5</ele><time>2026-05-01T16:21:02.009Z</time></trkpt><trkpt lat="42.4938853" lon="14.1448958"><ele>131.0</ele><time>2026-05-01T16:21:03.009Z</time></trkpt><trkpt lat="42.4939286" lon="14.1447241"><ele>127.75</ele><time>2026-05-01T16:21:04.009Z</time></trkpt><trkpt lat="42.4939716" lon="14.1445767"><ele>124.5</ele><time>2026-05-01T16:21:05.009Z</time></trkpt><trkpt lat="42.4940098" lon="14.1444243"><ele>121.25</ele><time>2026-05-01T16:21:06.009Z</time></trkpt><trkpt lat="42.4940483" lon="14.1442708"><ele>118.0</ele><time>2026-05-01T16:21:07.009Z</time></trkpt><trkpt lat="42.4941354" lon="14.1441418"><ele>112.75</ele><time>2026-05-01T16:21:08.009Z</time></trkpt><trkpt lat="42.4942273" lon="14.1440317"><ele>107.5</ele><time>2026-05-01T16:21:09.009Z</time></trkpt><trkpt lat="42.4943266" lon="14.1439535"><ele>102.25</ele><time>2026-05-01T16:21:10.009Z</time></trkpt><trkpt lat="42.4944556" lon="14.1438716"><ele>97.0</ele><time>2026-05-01T16:21:11.008Z</time></trkpt><trkpt lat="42.4945797" lon="14.1438156"><ele>98.75</ele><time>2026-05-01T16:21:12.009Z</time></trkpt><trkpt lat="42.4947334" lon="14.1438194"><ele>100.5</ele><time>2026-05-01T16:21:13.009Z</time></trkpt><trkpt lat="42.4948666" lon="14.1438059"><ele>102.25</ele><time>2026-05-01T16:21:14.009Z</time></trkpt><trkpt lat="42.4950139" lon="14.143814"><ele>104.0</ele><time>2026-05-01T16:21:15.009Z</time></trkpt><trkpt lat="42.4951615" lon="14.1437757"><ele>104.0</ele><time>2026-05-01T16:21:16.009Z</time></trkpt><trkpt lat="42.4953149" lon="14.1437287"><ele>104.0</ele><time>2026-05-01T16:21:17.009Z</time></trkpt><trkpt lat="42.4954562" lon="14.1436833"><ele>104.0</ele><time>2026-05-01T16:21:18.009Z</time></trkpt><trkpt lat="42.4955911" lon="14.143631"><ele>104.0</ele><time>2026-05-01T16:21:19.009Z</time></trkpt><trkpt lat="42.4957235" lon="14.1435524"><ele>103.5</ele><time>2026-05-01T16:21:20.009Z</time></trkpt><trkpt lat="42.4958332" lon="14.1434202"><ele>103.0</ele><time>2026-05-01T16:21:21.009Z</time></trkpt><trkpt lat="42.495946" lon="14.1433102"><ele>102.5</ele><time>2026-05-01T16:21:22.009Z</time></trkpt><trkpt lat="42.4960613" lon="14.1432154"><ele>102.0</ele><time>2026-05-01T16:21:23.008Z</time></trkpt><trkpt lat="42.4961838" lon="14.1431023"><ele>101.5</ele><time>2026-05-01T16:21:24.009Z</time></trkpt><trkpt lat="42.496302" lon="14.1430019"><ele>101.0</ele><time>2026-05-01T16:21:25.009Z</time></trkpt><trkpt lat="42.4964282" lon="14.1428974"><ele>100.5</ele><time>2026-05-01T16:21:26.008Z</time></trkpt><trkpt lat="42.4965418" lon="14.1427995"><ele>100.0</ele><time>2026-05-01T16:21:27.009Z</time></trkpt><trkpt lat="42.4966519" lon="14.1427083"><ele>100.0</ele><time>2026-05-01T16:21:28.009Z</time></trkpt><trkpt lat="42.4967635" lon="14.1426101"><ele>100.0</ele><time>2026-05-01T16:21:29.009Z</time></trkpt><trkpt lat="42.4968691" lon="14.1425157"><ele>100.0</ele><time>2026-05-01T16:21:30.008Z</time></trkpt><trkpt lat="42.4969647" lon="14.1424264"><ele>100.0</ele><time>2026-05-01T16:21:31.009Z</time></trkpt><trkpt lat="42.4970643" lon="14.1423269"><ele>97.0</ele><time>2026-05-01T16:21:32.009Z</time></trkpt><trkpt lat="42.4971594" lon="14.1422118"><ele>94.0</ele><time>2026-05-01T16:21:33.009Z</time></trkpt><trkpt lat="42.4972455" lon="14.1421064"><ele>91.0</ele><time>2026-05-01T16:21:34.009Z</time></trkpt><trkpt lat="42.4973208" lon="14.1420217"><ele>88.0</ele><time>2026-05-01T16:21:35.008Z</time></trkpt><trkpt lat="42.4973926" lon="14.1419588"><ele>85.0</ele><time>2026-05-01T16:21:36.009Z</time></trkpt><trkpt lat="42.4974765" lon="14.1419442"><ele>85.0</ele><time>2026-05-01T16:21:37.009Z</time></trkpt><trkpt lat="42.4975478" lon="14.1419795"><ele>85.0</ele><time>2026-05-01T16:21:38.008Z</time></trkpt><trkpt lat="42.4975997" lon="14.142063"><ele>85.0</ele><time>2026-05-01T16:21:39.009Z</time></trkpt><trkpt lat="42.4976017" lon="14.1421779"><ele>85.0</ele><time>2026-05-01T16:21:40.009Z</time></trkpt><trkpt lat="42.4975695" lon="14.1423046"><ele>85.0</ele><time>2026-05-01T16:21:41.009Z</time></trkpt><trkpt lat="42.4974935" lon="14.1424634"><ele>85.33333333333333</ele><time>2026-05-01T16:21:42.008Z</time></trkpt><trkpt lat="42.4973858" lon="14.1426424"><ele>85.66666666666667</ele><time>2026-05-01T16:21:43.008Z</time></trkpt><trkpt lat="42.497268" lon="14.1428348"><ele>86.0</ele><time>2026-05-01T16:21:44.008Z</time></trkpt><trkpt lat="42.4971712" lon="14.1430107"><ele>89.33333333333334</ele><time>2026-05-01T16:21:45.009Z</time></trkpt><trkpt lat="42.497069" lon="14.143198"><ele>92.66666666666667</ele><time>2026-05-01T16:21:46.009Z</time></trkpt><trkpt lat="42.4969687" lon="14.1433706"><ele>96.0</ele><time>2026-05-01T16:21:47.009Z</time></trkpt><trkpt lat="42.4968828" lon="14.1435076"><ele>96.0</ele><time>2026-05-01T16:21:48.008Z</time></trkpt><trkpt lat="42.4967954" lon="14.1436446"><ele>96.0</ele><time>2026-05-01T16:21:49.009Z</time></trkpt><trkpt lat="42.4967073" lon="14.1437809"><ele>96.0</ele><time>2026-05-01T16:21:50.009Z</time></trkpt><trkpt lat="42.4966196" lon="14.1439029"><ele>96.0</ele><time>2026-05-01T16:21:51.009Z</time></trkpt><trkpt lat="42.4965402" lon="14.1440104"><ele>92.5</ele><time>2026-05-01T16:21:52.009Z</time></trkpt><trkpt lat="42.4964708" lon="14.1441501"><ele>89.0</ele><time>2026-05-01T16:21:53.008Z</time></trkpt><trkpt lat="42.4964335" lon="14.1443139"><ele>85.5</ele><time>2026-05-01T16:21:54.009Z</time></trkpt><trkpt lat="42.4964158" lon="14.1444659"><ele>82.0</ele><time>2026-05-01T16:21:55.009Z</time></trkpt><trkpt lat="42.4963939" lon="14.1446232"><ele>82.0</ele><time>2026-05-01T16:21:56.009Z</time></trkpt><trkpt lat="42.4963787" lon="14.1448079"><ele>82.0</ele><time>2026-05-01T16:21:57.009Z</time></trkpt><trkpt lat="42.4963778" lon="14.1449797"><ele>82.0</ele><time>2026-05-01T16:21:58.009Z</time></trkpt><trkpt lat="42.4963409" lon="14.1451422"><ele>82.0</ele><time>2026-05-01T16:21:59.009Z</time></trkpt><trkpt lat="42.4962909" lon="14.145276"><ele>82.0</ele><time>2026-05-01T16:22:00.009Z</time></trkpt><trkpt lat="42.4962519" lon="14.1454204"><ele>82.0</ele><time>2026-05-01T16:22:01.008Z</time></trkpt><trkpt lat="42.4962137" lon="14.1455524"><ele>82.0</ele><time>2026-05-01T16:22:02.009Z</time></trkpt><trkpt lat="42.4962015" lon="14.1456988"><ele>82.0</ele><time>2026-05-01T16:22:03.009Z</time></trkpt><trkpt lat="42.4961845" lon="14.1458011"><ele>82.0</ele><time>2026-05-01T16:22:04.009Z</time></trkpt><trkpt lat="42.496222" lon="14.1458845"><ele>80.0</ele><time>2026-05-01T16:22:05.009Z</time></trkpt><trkpt lat="42.4963329" lon="14.1459563"><ele>78.0</ele><time>2026-05-01T16:22:06.009Z</time></trkpt><trkpt lat="42.4964185" lon="14.1460067"><ele>76.0</ele><time>2026-05-01T16:22:07.009Z</time></trkpt><trkpt lat="42.4965085" lon="14.1460343"><ele>74.0</ele><time>2026-05-01T16:22:08.009Z</time></trkpt><trkpt lat="42.4965864" lon="14.1459536"><ele>72.0</ele><time>2026-05-01T16:22:09.008Z</time></trkpt><trkpt lat="42.4966655" lon="14.1458999"><ele>72.0</ele><time>2026-05-01T16:22:10.009Z</time></trkpt><trkpt lat="42.4967257" lon="14.145825"><ele>72.0</ele><time>2026-05-01T16:22:11.009Z</time></trkpt><trkpt lat="42.496777" lon="14.1457172"><ele>72.0</ele><time>2026-05-01T16:22:12.009Z</time></trkpt><trkpt lat="42.4967443" lon="14.1454766"><ele>72.0</ele><time>2026-05-01T16:22:13.008Z</time></trkpt><trkpt lat="42.4967537" lon="14.1453187"><ele>71.5</ele><time>2026-05-01T16:22:14.008Z</time></trkpt><trkpt lat="42.4967905" lon="14.1451527"><ele>71.0</ele><time>2026-05-01T16:22:15.009Z</time></trkpt><trkpt lat="42.4968488" lon="14.1449901"><ele>70.5</ele><time>2026-05-01T16:22:16.009Z</time></trkpt><trkpt lat="42.4969222" lon="14.1448491"><ele>70.0</ele><time>2026-05-01T16:22:17.009Z</time></trkpt><trkpt lat="42.4970091" lon="14.1447218"><ele>67.5</ele><time>2026-05-01T16:22:18.009Z</time></trkpt><trkpt lat="42.4971111" lon="14.1446048"><ele>65.0</ele><time>2026-05-01T16:22:19.009Z</time></trkpt><trkpt lat="42.4972299" lon="14.1445163"><ele>62.5</ele><time>2026-05-01T16:22:20.009Z</time></trkpt><trkpt lat="42.4973456" lon="14.1444366"><ele>60.0</ele><time>2026-05-01T16:22:21.009Z</time></trkpt><trkpt lat="42.4974494" lon="14.1443759"><ele>60.0</ele><time>2026-05-01T16:22:22.008Z</time></trkpt><trkpt lat="42.497543" lon="14.144265"><ele>60.0</ele><time>2026-05-01T16:22:23.009Z</time></trkpt><trkpt lat="42.4976397" lon="14.1441572"><ele>60.0</ele><time>2026-05-01T16:22:24.009Z</time></trkpt><trkpt lat="42.4977322" lon="14.1440278"><ele>60.0</ele><time>2026-05-01T16:22:25.009Z</time></trkpt><trkpt lat="42.4978304" lon="14.1438916"><ele>57.75</ele><time>2026-05-01T16:22:26.009Z</time></trkpt><trkpt lat="42.4979287" lon="14.1437596"><ele>55.5</ele><time>2026-05-01T16:22:27.009Z</time></trkpt><trkpt lat="42.4980207" lon="14.1436183"><ele>53.25</ele><time>2026-05-01T16:22:28.009Z</time></trkpt><trkpt lat="42.4981166" lon="14.1434748"><ele>51.0</ele><time>2026-05-01T16:22:29.009Z</time></trkpt><trkpt lat="42.4982091" lon="14.1433392"><ele>51.0</ele><time>2026-05-01T16:22:30.009Z</time></trkpt><trkpt lat="42.4982841" lon="14.1432178"><ele>51.0</ele><time>2026-05-01T16:22:31.009Z</time></trkpt><trkpt lat="42.4983493" lon="14.1431162"><ele>51.0</ele><time>2026-05-01T16:22:32.009Z</time></trkpt><trkpt lat="42.4984045" lon="14.143025"><ele>51.0</ele><time>2026-05-01T16:22:33.008Z</time></trkpt><trkpt lat="42.4984456" lon="14.142954"><ele>51.0</ele><time>2026-05-01T16:22:34.009Z</time></trkpt><trkpt lat="42.4985188" lon="14.1428293"><ele>49.666666666666664</ele><time>2026-05-01T16:22:36.009Z</time></trkpt><trkpt lat="42.4985731" lon="14.1427563"><ele>48.333333333333336</ele><time>2026-05-01T16:22:38.009Z</time></trkpt><trkpt lat="42.4986289" lon="14.1427045"><ele>47.0</ele><time>2026-05-01T16:22:41.009Z</time></trkpt><trkpt lat="42.4986971" lon="14.1426291"><ele>45.66666666666667</ele><time>2026-05-01T16:23:03.009Z</time></trkpt><trkpt lat="42.4987315" lon="14.1424681"><ele>44.333333333333336</ele><time>2026-05-01T16:23:05.009Z</time></trkpt><trkpt lat="42.4987623" lon="14.1423685"><ele>43.0</ele><time>2026-05-01T16:23:06.009Z</time></trkpt><trkpt lat="42.4987987" lon="14.1422472"><ele>43.0</ele><time>2026-05-01T16:23:07.009Z</time></trkpt><trkpt lat="42.4988442" lon="14.1421109"><ele>43.0</ele><time>2026-05-01T16:23:08.009Z</time></trkpt><trkpt lat="42.4989024" lon="14.1419682"><ele>43.0</ele><time>2026-05-01T16:23:09.009Z</time></trkpt><trkpt lat="42.4989655" lon="14.1418273"><ele>43.0</ele><time>2026-05-01T16:23:10.009Z</time></trkpt><trkpt lat="42.499034" lon="14.1416973"><ele>43.0</ele><time>2026-05-01T16:23:11.009Z</time></trkpt><trkpt lat="42.499105" lon="14.141579"><ele>43.0</ele><time>2026-05-01T16:23:12.009Z</time></trkpt><trkpt lat="42.4991796" lon="14.1414649"><ele>43.0</ele><time>2026-05-01T16:23:13.009Z</time></trkpt><trkpt lat="42.499255" lon="14.141369"><ele>43.0</ele><time>2026-05-01T16:23:14.009Z</time></trkpt><trkpt lat="42.4993366" lon="14.1412773"><ele>43.0</ele><time>2026-05-01T16:23:15.009Z</time></trkpt><trkpt lat="42.499424" lon="14.1411876"><ele>45.25</ele><time>2026-05-01T16:23:16.009Z</time></trkpt><trkpt lat="42.4995144" lon="14.141092"><ele>47.5</ele><time>2026-05-01T16:23:17.009Z</time></trkpt><trkpt lat="42.4996107" lon="14.140996"><ele>49.75</ele><time>2026-05-01T16:23:18.009Z</time></trkpt><trkpt lat="42.4997005" lon="14.1409013"><ele>52.0</ele><time>2026-05-01T16:23:19.009Z</time></trkpt><trkpt lat="42.4997932" lon="14.1408151"><ele>48.75</ele><time>2026-05-01T16:23:20.009Z</time></trkpt><trkpt lat="42.4998812" lon="14.1407084"><ele>45.5</ele><time>2026-05-01T16:23:21.009Z</time></trkpt><trkpt lat="42.4999588" lon="14.1405961"><ele>42.25</ele><time>2026-05-01T16:23:22.009Z</time></trkpt><trkpt lat="42.5000338" lon="14.1404692"><ele>39.0</ele><time>2026-05-01T16:23:23.009Z</time></trkpt><trkpt lat="42.5001172" lon="14.1403465"><ele>39.0</ele><time>2026-05-01T16:23:24.009Z</time></trkpt><trkpt lat="42.5002058" lon="14.1402376"><ele>39.0</ele><time>2026-05-01T16:23:25.008Z</time></trkpt><trkpt lat="42.5002809" lon="14.1401102"><ele>39.0</ele><time>2026-05-01T16:23:26.009Z</time></trkpt><trkpt lat="42.5003611" lon="14.1399883"><ele>39.0</ele><time>2026-05-01T16:23:27.009Z</time></trkpt><trkpt lat="42.5004332" lon="14.1398784"><ele>36.4</ele><time>2026-05-01T16:23:28.009Z</time></trkpt><trkpt lat="42.5004984" lon="14.1397641"><ele>33.8</ele><time>2026-05-01T16:23:29.009Z</time></trkpt><trkpt lat="42.5005612" lon="14.1396533"><ele>31.200000000000003</ele><time>2026-05-01T16:23:30.009Z</time></trkpt><trkpt lat="42.5006241" lon="14.1395441"><ele>28.6</ele><time>2026-05-01T16:23:31.009Z</time></trkpt><trkpt lat="42.5006839" lon="14.1394416"><ele>26.0</ele><time>2026-05-01T16:23:32.009Z</time></trkpt><trkpt lat="42.5007388" lon="14.139337"><ele>25.999999999999996</ele><time>2026-05-01T16:23:33.009Z</time></trkpt><trkpt lat="42.5007924" lon="14.1392371"><ele>26.0</ele><time>2026-05-01T16:23:34.009Z</time></trkpt><trkpt lat="42.5008413" lon="14.139138"><ele>26.0</ele><time>2026-05-01T16:23:35.008Z</time></trkpt><trkpt lat="42.5008853" lon="14.1390456"><ele>26.0</ele><time>2026-05-01T16:23:36.009Z</time></trkpt><trkpt lat="42.5009265" lon="14.1389689"><ele>25.999999999999996</ele><time>2026-05-01T16:23:37.009Z</time></trkpt><trkpt lat="42.5009871" lon="14.1388491"><ele>26.0</ele><time>2026-05-01T16:23:39.009Z</time></trkpt><trkpt lat="42.5010324" lon="14.1387451"><ele>25.166666666666664</ele><time>2026-05-01T16:23:41.009Z</time></trkpt><trkpt lat="42.5010841" lon="14.1386342"><ele>24.333333333333332</ele><time>2026-05-01T16:23:43.009Z</time></trkpt><trkpt lat="42.501148" lon="14.1385106"><ele>23.5</ele><time>2026-05-01T16:23:45.009Z</time></trkpt><trkpt lat="42.5011834" lon="14.1384342"><ele>22.666666666666664</ele><time>2026-05-01T16:23:46.009Z</time></trkpt><trkpt lat="42.5012162" lon="14.1383554"><ele>21.833333333333332</ele><time>2026-05-01T16:23:47.009Z</time></trkpt><trkpt lat="42.5012342" lon="14.1382713"><ele>21.0</ele><time>2026-05-01T16:23:48.008Z</time></trkpt><trkpt lat="42.5012499" lon="14.1381875"><ele>20.166666666666668</ele><time>2026-05-01T16:23:49.009Z</time></trkpt><trkpt lat="42.5012652" lon="14.138098"><ele>19.333333333333332</ele><time>2026-05-01T16:23:50.009Z</time></trkpt><trkpt lat="42.5012852" lon="14.1380044"><ele>18.5</ele><time>2026-05-01T16:23:51.008Z</time></trkpt><trkpt lat="42.5013096" lon="14.1379041"><ele>17.666666666666664</ele><time>2026-05-01T16:23:52.009Z</time></trkpt><trkpt lat="42.5013371" lon="14.1377903"><ele>16.833333333333332</ele><time>2026-05-01T16:23:53.009Z</time></trkpt><trkpt lat="42.5013676" lon="14.1376719"><ele>16.0</ele><time>2026-05-01T16:23:54.009Z</time></trkpt><trkpt lat="42.5013998" lon="14.13754"><ele>16.0</ele><time>2026-05-01T16:23:55.009Z</time></trkpt><trkpt lat="42.5014327" lon="14.1374097"><ele>16.0</ele><time>2026-05-01T16:23:56.009Z</time></trkpt><trkpt lat="42.501466" lon="14.1372775"><ele>16.0</ele><time>2026-05-01T16:23:57.009Z</time></trkpt><trkpt lat="42.5015023" lon="14.1371463"><ele>16.0</ele><time>2026-05-01T16:23:58.009Z</time></trkpt><trkpt lat="42.501533" lon="14.1370217"><ele>16.0</ele><time>2026-05-01T16:23:59.009Z</time></trkpt><trkpt lat="42.5015606" lon="14.1369109"><ele>15.666666666666666</ele><time>2026-05-01T16:24:00.009Z</time></trkpt><trkpt lat="42.5015819" lon="14.1368242"><ele>15.333333333333332</ele><time>2026-05-01T16:24:01.009Z</time></trkpt><trkpt lat="42.5016053" lon="14.136734"><ele>15.0</ele><time>2026-05-01T16:24:02.009Z</time></trkpt><trkpt lat="42.5016254" lon="14.1366458"><ele>14.666666666666668</ele><time>2026-05-01T16:24:03.009Z</time></trkpt><trkpt lat="42.5016627" lon="14.1364915"><ele>14.333333333333334</ele><time>2026-05-01T16:24:05.009Z</time></trkpt><trkpt lat="42.50169" lon="14.136384"><ele>14.0</ele><time>2026-05-01T16:24:07.009Z</time></trkpt><trkpt lat="42.5017131" lon="14.1362932"><ele>14.000000000000002</ele><time>2026-05-01T16:24:09.009Z</time></trkpt><trkpt lat="42.5017373" lon="14.1361991"><ele>14.0</ele><time>2026-05-01T16:24:11.008Z</time></trkpt><trkpt lat="42.5017711" lon="14.1360682"><ele>14.0</ele><time>2026-05-01T16:24:13.009Z</time></trkpt><trkpt lat="42.5018169" lon="14.1359074"><ele>14.0</ele><time>2026-05-01T16:24:15.008Z</time></trkpt><trkpt lat="42.5018414" lon="14.1358154"><ele>14.000000000000002</ele><time>2026-05-01T16:24:16.009Z</time></trkpt><trkpt lat="42.5018645" lon="14.1357322"><ele>14.0</ele><time>2026-05-01T16:24:17.009Z</time></trkpt><trkpt lat="42.5018866" lon="14.1356498"><ele>14.0</ele><time>2026-05-01T16:24:18.008Z</time></trkpt><trkpt lat="42.5019092" lon="14.1355699"><ele>14.0</ele><time>2026-05-01T16:24:19.009Z</time></trkpt><trkpt lat="42.5019345" lon="14.135474"><ele>14.0</ele><time>2026-05-01T16:24:20.009Z</time></trkpt><trkpt lat="42.5019629" lon="14.1353714"><ele>14.0</ele><time>2026-05-01T16:24:21.009Z</time></trkpt><trkpt lat="42.5019895" lon="14.1352761"><ele>14.0</ele><time>2026-05-01T16:24:22.008Z</time></trkpt><trkpt lat="42.5020178" lon="14.1351889"><ele>14.0</ele><time>2026-05-01T16:24:23.009Z</time></trkpt><trkpt lat="42.5020421" lon="14.1351083"><ele>14.0</ele><time>2026-05-01T16:24:24.009Z</time></trkpt><trkpt lat="42.5020883" lon="14.1349712"><ele>14.000000000000002</ele><time>2026-05-01T16:24:26.009Z</time></trkpt><trkpt lat="42.5021315" lon="14.1348779"><ele>14.0</ele><time>2026-05-01T16:24:28.008Z</time></trkpt><trkpt lat="42.5021821" lon="14.1348208"><ele>14.0</ele><time>2026-05-01T16:24:30.008Z</time></trkpt><trkpt lat="42.502293" lon="14.1347487"><ele>14.0</ele><time>2026-05-01T16:24:32.009Z</time></trkpt><trkpt lat="42.5023562" lon="14.1347233"><ele>14.000000000000002</ele><time>2026-05-01T16:24:33.009Z</time></trkpt><trkpt lat="42.5024208" lon="14.1347115"><ele>14.0</ele><time>2026-05-01T16:24:34.009Z</time></trkpt><trkpt lat="42.5025422" lon="14.1347661"><ele>14.000000000000002</ele><time>2026-05-01T16:24:36.009Z</time></trkpt><trkpt lat="42.502603" lon="14.1348391"><ele>14.0</ele><time>2026-05-01T16:24:37.009Z</time></trkpt><trkpt lat="42.5026673" lon="14.1349104"><ele>14.0</ele><time>2026-05-01T16:24:38.009Z</time></trkpt><trkpt lat="42.5027234" lon="14.1349755"><ele>14.0</ele><time>2026-05-01T16:24:39.009Z</time></trkpt><trkpt lat="42.5027718" lon="14.1350406"><ele>14.000000000000002</ele><time>2026-05-01T16:24:40.009Z</time></trkpt><trkpt lat="42.5028221" lon="14.1351127"><ele>14.0</ele><time>2026-05-01T16:24:41.009Z</time></trkpt><trkpt lat="42.5028765" lon="14.1351847"><ele>13.6</ele><time>2026-05-01T16:24:42.009Z</time></trkpt><trkpt lat="42.5029326" lon="14.1352456"><ele>13.2</ele><time>2026-05-01T16:24:43.009Z</time></trkpt><trkpt lat="42.5029901" lon="14.1353009"><ele>12.799999999999999</ele><time>2026-05-01T16:24:44.009Z</time></trkpt><trkpt lat="42.5030983" lon="14.1353079"><ele>12.399999999999999</ele><time>2026-05-01T16:24:46.008Z</time></trkpt><trkpt lat="42.5031787" lon="14.135164"><ele>12.0</ele><time>2026-05-01T16:24:48.009Z</time></trkpt><trkpt lat="42.5032085" lon="14.135039"><ele>12.0</ele><time>2026-05-01T16:24:49.009Z</time></trkpt><trkpt lat="42.5032385" lon="14.1348948"><ele>12.0</ele><time>2026-05-01T16:24:50.008Z</time></trkpt><trkpt lat="42.5032697" lon="14.1347549"><ele>12.0</ele><time>2026-05-01T16:24:51.009Z</time></trkpt><trkpt lat="42.5033009" lon="14.1346272"><ele>12.0</ele><time>2026-05-01T16:24:52.009Z</time></trkpt><trkpt lat="42.503326" lon="14.13452"><ele>12.0</ele><time>2026-05-01T16:24:53.009Z</time></trkpt><trkpt lat="42.503348" lon="14.1344306"><ele>12.166666666666666</ele><time>2026-05-01T16:24:54.008Z</time></trkpt><trkpt lat="42.5033688" lon="14.1343441"><ele>12.333333333333332</ele><time>2026-05-01T16:24:55.009Z</time></trkpt><trkpt lat="42.5033947" lon="14.1342632"><ele>12.5</ele><time>2026-05-01T16:24:56.009Z</time></trkpt><trkpt lat="42.503422" lon="14.134174"><ele>12.666666666666666</ele><time>2026-05-01T16:24:57.009Z</time></trkpt><trkpt lat="42.5034497" lon="14.1340821"><ele>12.833333333333332</ele><time>2026-05-01T16:24:58.009Z</time></trkpt><trkpt lat="42.5034755" lon="14.1339944"><ele>13.0</ele><time>2026-05-01T16:24:59.009Z</time></trkpt><trkpt lat="42.5035166" lon="14.1338328"><ele>13.0</ele><time>2026-05-01T16:25:01.008Z</time></trkpt><trkpt lat="42.5035466" lon="14.1337573"><ele>13.0</ele><time>2026-05-01T16:25:02.008Z</time></trkpt><trkpt lat="42.5035911" lon="14.1336794"><ele>13.0</ele><time>2026-05-01T16:25:03.009Z</time></trkpt><trkpt lat="42.5036534" lon="14.1335971"><ele>13.0</ele><time>2026-05-01T16:25:04.009Z</time></trkpt><trkpt lat="42.5037407" lon="14.1334985"><ele>13.0</ele><time>2026-05-01T16:25:05.009Z</time></trkpt><trkpt lat="42.5038528" lon="14.133395"><ele>13.0</ele><time>2026-05-01T16:25:06.009Z</time></trkpt><trkpt lat="42.5039825" lon="14.1332858"><ele>13.0</ele><time>2026-05-01T16:25:07.008Z</time></trkpt><trkpt lat="42.5041203" lon="14.1331678"><ele>13.0</ele><time>2026-05-01T16:25:08.008Z</time></trkpt><trkpt lat="42.5042622" lon="14.1330386"><ele>13.0</ele><time>2026-05-01T16:25:09.009Z</time></trkpt><trkpt lat="42.5043998" lon="14.1329126"><ele>13.0</ele><time>2026-05-01T16:25:10.009Z</time></trkpt><trkpt lat="42.5045306" lon="14.1327896"><ele>13.0</ele><time>2026-05-01T16:25:11.009Z</time></trkpt><trkpt lat="42.5046587" lon="14.1326732"><ele>12.0</ele><time>2026-05-01T16:25:12.009Z</time></trkpt><trkpt lat="42.504783" lon="14.1325582"><ele>11.0</ele><time>2026-05-01T16:25:13.008Z</time></trkpt><trkpt lat="42.5049064" lon="14.132449"><ele>10.0</ele><time>2026-05-01T16:25:14.009Z</time></trkpt><trkpt lat="42.5050281" lon="14.1323388"><ele>9.0</ele><time>2026-05-01T16:25:15.009Z</time></trkpt><trkpt lat="42.5051504" lon="14.1322279"><ele>9.0</ele><time>2026-05-01T16:25:16.009Z</time></trkpt><trkpt lat="42.5052756" lon="14.1321137"><ele>9.0</ele><time>2026-05-01T16:25:17.008Z</time></trkpt><trkpt lat="42.5054022" lon="14.131993"><ele>9.0</ele><time>2026-05-01T16:25:18.009Z</time></trkpt><trkpt lat="42.5055269" lon="14.1318769"><ele>9.0</ele><time>2026-05-01T16:25:19.009Z</time></trkpt><trkpt lat="42.5056501" lon="14.1317664"><ele>9.0</ele><time>2026-05-01T16:25:20.009Z</time></trkpt><trkpt lat="42.5057703" lon="14.1316576"><ele>9.0</ele><time>2026-05-01T16:25:21.009Z</time></trkpt><trkpt lat="42.5058916" lon="14.1315436"><ele>9.0</ele><time>2026-05-01T16:25:22.009Z</time></trkpt><trkpt lat="42.5060144" lon="14.1314268"><ele>9.0</ele><time>2026-05-01T16:25:23.009Z</time></trkpt><trkpt lat="42.5061378" lon="14.1313123"><ele>9.0</ele><time>2026-05-01T16:25:24.009Z</time></trkpt><trkpt lat="42.506269" lon="14.1312035"><ele>9.0</ele><time>2026-05-01T16:25:25.009Z</time></trkpt><trkpt lat="42.5064073" lon="14.1311014"><ele>9.0</ele><time>2026-05-01T16:25:26.009Z</time></trkpt><trkpt lat="42.5065538" lon="14.131009"><ele>9.0</ele><time>2026-05-01T16:25:27.009Z</time></trkpt><trkpt lat="42.5067101" lon="14.1309254"><ele>9.0</ele><time>2026-05-01T16:25:28.009Z</time></trkpt><trkpt lat="42.5068708" lon="14.1308425"><ele>9.0</ele><time>2026-05-01T16:25:29.009Z</time></trkpt><trkpt lat="42.5070357" lon="14.1307708"><ele>9.0</ele><time>2026-05-01T16:25:30.009Z</time></trkpt><trkpt lat="42.507206" lon="14.1307114"><ele>9.0</ele><time>2026-05-01T16:25:31.009Z</time></trkpt><trkpt lat="42.5073739" lon="14.1306575"><ele>10.0</ele><time>2026-05-01T16:25:32.009Z</time></trkpt><trkpt lat="42.5075344" lon="14.1306052"><ele>11.0</ele><time>2026-05-01T16:25:33.009Z</time></trkpt><trkpt lat="42.5076888" lon="14.13054"><ele>12.0</ele><time>2026-05-01T16:25:34.009Z</time></trkpt><trkpt lat="42.5078318" lon="14.1304579"><ele>12.0</ele><time>2026-05-01T16:25:35.009Z</time></trkpt><trkpt lat="42.5079648" lon="14.1303618"><ele>12.0</ele><time>2026-05-01T16:25:36.008Z</time></trkpt><trkpt lat="42.5080856" lon="14.1302665"><ele>12.0</ele><time>2026-05-01T16:25:37.009Z</time></trkpt><trkpt lat="42.5082005" lon="14.130175"><ele>12.0</ele><time>2026-05-01T16:25:38.008Z</time></trkpt><trkpt lat="42.5083076" lon="14.1300888"><ele>12.0</ele><time>2026-05-01T16:25:39.009Z</time></trkpt><trkpt lat="42.5084091" lon="14.130012"><ele>12.0</ele><time>2026-05-01T16:25:40.009Z</time></trkpt><trkpt lat="42.508501" lon="14.1299367"><ele>12.0</ele><time>2026-05-01T16:25:41.009Z</time></trkpt><trkpt lat="42.5085783" lon="14.1298714"><ele>12.0</ele><time>2026-05-01T16:25:42.008Z</time></trkpt><trkpt lat="42.5086401" lon="14.129816"><ele>12.0</ele><time>2026-05-01T16:25:43.009Z</time></trkpt><trkpt lat="42.5086976" lon="14.1297675"><ele>11.0</ele><time>2026-05-01T16:25:44.009Z</time></trkpt><trkpt lat="42.508821" lon="14.1297209"><ele>10.0</ele><time>2026-05-01T16:25:46.009Z</time></trkpt><trkpt lat="42.5088986" lon="14.1297349"><ele>9.0</ele><time>2026-05-01T16:25:47.009Z</time></trkpt><trkpt lat="42.5089851" lon="14.1297732"><ele>8.0</ele><time>2026-05-01T16:25:48.009Z</time></trkpt><trkpt lat="42.5090701" lon="14.1298285"><ele>7.0</ele><time>2026-05-01T16:25:49.009Z</time></trkpt><trkpt lat="42.5091515" lon="14.129919"><ele>7.0</ele><time>2026-05-01T16:25:50.009Z</time></trkpt><trkpt lat="42.5092352" lon="14.130036"><ele>7.0</ele><time>2026-05-01T16:25:51.009Z</time></trkpt><trkpt lat="42.5093257" lon="14.1301613"><ele>7.0</ele><time>2026-05-01T16:25:52.009Z</time></trkpt><trkpt lat="42.5094227" lon="14.1303022"><ele>7.0</ele><time>2026-05-01T16:25:53.009Z</time></trkpt><trkpt lat="42.5095223" lon="14.1304477"><ele>7.0</ele><time>2026-05-01T16:25:54.008Z</time></trkpt><trkpt lat="42.5096316" lon="14.1306088"><ele>7.0</ele><time>2026-05-01T16:25:55.009Z</time></trkpt><trkpt lat="42.5097465" lon="14.1307696"><ele>7.0</ele><time>2026-05-01T16:25:56.009Z</time></trkpt><trkpt lat="42.509854" lon="14.1309267"><ele>6.333333333333334</ele><time>2026-05-01T16:25:57.009Z</time></trkpt><trkpt lat="42.5099602" lon="14.1310889"><ele>5.666666666666667</ele><time>2026-05-01T16:25:58.009Z</time></trkpt><trkpt lat="42.5100664" lon="14.131254"><ele>5.0</ele><time>2026-05-01T16:25:59.009Z</time></trkpt><trkpt lat="42.5101698" lon="14.1314314"><ele>5.333333333333334</ele><time>2026-05-01T16:26:00.009Z</time></trkpt><trkpt lat="42.5102711" lon="14.1316114"><ele>5.666666666666667</ele><time>2026-05-01T16:26:01.009Z</time></trkpt><trkpt lat="42.5103666" lon="14.131783"><ele>6.0</ele><time>2026-05-01T16:26:02.009Z</time></trkpt><trkpt lat="42.5104515" lon="14.1319431"><ele>6.0</ele><time>2026-05-01T16:26:03.009Z</time></trkpt><trkpt lat="42.5105373" lon="14.1321043"><ele>6.0</ele><time>2026-05-01T16:26:04.008Z</time></trkpt><trkpt lat="42.5106198" lon="14.1322603"><ele>6.0</ele><time>2026-05-01T16:26:05.009Z</time></trkpt><trkpt lat="42.5106964" lon="14.1324126"><ele>6.0</ele><time>2026-05-01T16:26:06.009Z</time></trkpt><trkpt lat="42.510773" lon="14.1325597"><ele>6.0</ele><time>2026-05-01T16:26:07.009Z</time></trkpt><trkpt lat="42.5108504" lon="14.1327116"><ele>6.0</ele><time>2026-05-01T16:26:08.009Z</time></trkpt><trkpt lat="42.5109297" lon="14.1328639"><ele>6.0</ele><time>2026-05-01T16:26:09.009Z</time></trkpt><trkpt lat="42.5110131" lon="14.1330122"><ele>6.0</ele><time>2026-05-01T16:26:10.008Z</time></trkpt><trkpt lat="42.5111025" lon="14.1331537"><ele>6.25</ele><time>2026-05-01T16:26:11.008Z</time></trkpt><trkpt lat="42.5111895" lon="14.133292"><ele>6.5</ele><time>2026-05-01T16:26:12.008Z</time></trkpt><trkpt lat="42.5112734" lon="14.1334299"><ele>6.75</ele><time>2026-05-01T16:26:13.009Z</time></trkpt><trkpt lat="42.5113586" lon="14.1335719"><ele>7.0</ele><time>2026-05-01T16:26:14.009Z</time></trkpt><trkpt lat="42.5114355" lon="14.1337133"><ele>6.5</ele><time>2026-05-01T16:26:15.009Z</time></trkpt><trkpt lat="42.511506" lon="14.1338674"><ele>6.0</ele><time>2026-05-01T16:26:16.009Z</time></trkpt><trkpt lat="42.5115728" lon="14.1340238"><ele>5.5</ele><time>2026-05-01T16:26:17.008Z</time></trkpt><trkpt lat="42.511649" lon="14.1341657"><ele>5.0</ele><time>2026-05-01T16:26:18.008Z</time></trkpt><trkpt lat="42.5117377" lon="14.1342932"><ele>5.0</ele><time>2026-05-01T16:26:19.009Z</time></trkpt><trkpt lat="42.5118328" lon="14.1344042"><ele>5.0</ele><time>2026-05-01T16:26:20.009Z</time></trkpt><trkpt lat="42.5119352" lon="14.1344984"><ele>5.0</ele><time>2026-05-01T16:26:21.009Z</time></trkpt><trkpt lat="42.5120456" lon="14.1345845"><ele>5.0</ele><time>2026-05-01T16:26:22.008Z</time></trkpt><trkpt lat="42.5121537" lon="14.1346637"><ele>4.5</ele><time>2026-05-01T16:26:23.009Z</time></trkpt><trkpt lat="42.5122648" lon="14.1347411"><ele>4.0</ele><time>2026-05-01T16:26:24.009Z</time></trkpt><trkpt lat="42.5123753" lon="14.1348251"><ele>3.5</ele><time>2026-05-01T16:26:25.008Z</time></trkpt><trkpt lat="42.5124964" lon="14.1349026"><ele>3.0</ele><time>2026-05-01T16:26:26.009Z</time></trkpt><trkpt lat="42.5126055" lon="14.1349843"><ele>3.0</ele><time>2026-05-01T16:26:27.009Z</time></trkpt><trkpt lat="42.5127184" lon="14.1350651"><ele>3.0</ele><time>2026-05-01T16:26:28.009Z</time></trkpt><trkpt lat="42.5128316" lon="14.1351641"><ele>3.0</ele><time>2026-05-01T16:26:29.009Z</time></trkpt><trkpt lat="42.5129357" lon="14.135277"><ele>3.0</ele><time>2026-05-01T16:26:30.009Z</time></trkpt><trkpt lat="42.5130321" lon="14.1354092"><ele>3.0</ele><time>2026-05-01T16:26:31.009Z</time></trkpt><trkpt lat="42.5131192" lon="14.1355602"><ele>3.0</ele><time>2026-05-01T16:26:32.009Z</time></trkpt><trkpt lat="42.5131996" lon="14.1357193"><ele>3.0</ele><time>2026-05-01T16:26:33.009Z</time></trkpt><trkpt lat="42.5132699" lon="14.1358812"><ele>3.0</ele><time>2026-05-01T16:26:34.009Z</time></trkpt><trkpt lat="42.513324" lon="14.136043"><ele>3.0</ele><time>2026-05-01T16:26:35.008Z</time></trkpt><trkpt lat="42.5133612" lon="14.1361932"><ele>3.0</ele><time>2026-05-01T16:26:36.009Z</time></trkpt><trkpt lat="42.5133876" lon="14.1363313"><ele>3.0</ele><time>2026-05-01T16:26:37.009Z</time></trkpt><trkpt lat="42.5134141" lon="14.1364554"><ele>3.0</ele><time>2026-05-01T16:26:38.009Z</time></trkpt><trkpt lat="42.5134389" lon="14.1365669"><ele>3.0</ele><time>2026-05-01T16:26:39.009Z</time></trkpt><trkpt lat="42.5134619" lon="14.1366696"><ele>3.1666666666666665</ele><time>2026-05-01T16:26:40.009Z</time></trkpt><trkpt lat="42.5134857" lon="14.1367662"><ele>3.333333333333333</ele><time>2026-05-01T16:26:41.009Z</time></trkpt><trkpt lat="42.5135107" lon="14.1368493"><ele>3.5</ele><time>2026-05-01T16:26:42.009Z</time></trkpt><trkpt lat="42.5135607" lon="14.1370026"><ele>3.6666666666666665</ele><time>2026-05-01T16:26:44.008Z</time></trkpt><trkpt lat="42.5136054" lon="14.137126"><ele>3.833333333333333</ele><time>2026-05-01T16:26:46.009Z</time></trkpt><trkpt lat="42.5136324" lon="14.137208"><ele>4.0</ele><time>2026-05-01T16:26:48.009Z</time></trkpt><trkpt lat="42.5136823" lon="14.1373021"><ele>4.4</ele><time>2026-05-01T16:26:50.009Z</time></trkpt><trkpt lat="42.5137381" lon="14.1374341"><ele>4.800000000000001</ele><time>2026-05-01T16:26:52.009Z</time></trkpt><trkpt lat="42.5137663" lon="14.137526"><ele>5.199999999999999</ele><time>2026-05-01T16:26:53.008Z</time></trkpt><trkpt lat="42.5137779" lon="14.1376411"><ele>5.6</ele><time>2026-05-01T16:26:54.008Z</time></trkpt><trkpt lat="42.5137795" lon="14.1377641"><ele>6.0</ele><time>2026-05-01T16:26:55.009Z</time></trkpt><trkpt lat="42.5137416" lon="14.137906"><ele>6.0</ele><time>2026-05-01T16:26:56.008Z</time></trkpt><trkpt lat="42.5136857" lon="14.1380487"><ele>6.0</ele><time>2026-05-01T16:26:57.009Z</time></trkpt><trkpt lat="42.5136164" lon="14.1382065"><ele>6.0</ele><time>2026-05-01T16:26:58.009Z</time></trkpt><trkpt lat="42.5135431" lon="14.1383718"><ele>6.0</ele><time>2026-05-01T16:26:59.009Z</time></trkpt><trkpt lat="42.5134737" lon="14.1385405"><ele>5.75</ele><time>2026-05-01T16:27:00.009Z</time></trkpt><trkpt lat="42.5134077" lon="14.1387062"><ele>5.5</ele><time>2026-05-01T16:27:01.009Z</time></trkpt><trkpt lat="42.513347" lon="14.1388657"><ele>5.25</ele><time>2026-05-01T16:27:02.009Z</time></trkpt><trkpt lat="42.5132875" lon="14.1390189"><ele>5.0</ele><time>2026-05-01T16:27:03.009Z</time></trkpt><trkpt lat="42.5132312" lon="14.1391671"><ele>5.5</ele><time>2026-05-01T16:27:04.008Z</time></trkpt><trkpt lat="42.5131771" lon="14.1393192"><ele>6.0</ele><time>2026-05-01T16:27:05.009Z</time></trkpt><trkpt lat="42.5131219" lon="14.1394641"><ele>6.5</ele><time>2026-05-01T16:27:06.009Z</time></trkpt><trkpt lat="42.5130626" lon="14.1396073"><ele>7.0</ele><time>2026-05-01T16:27:07.009Z</time></trkpt><trkpt lat="42.5130061" lon="14.1397518"><ele>6.8</ele><time>2026-05-01T16:27:08.009Z</time></trkpt><trkpt lat="42.5129537" lon="14.1398964"><ele>6.6</ele><time>2026-05-01T16:27:09.008Z</time></trkpt><trkpt lat="42.5129059" lon="14.1400285"><ele>6.3999999999999995</ele><time>2026-05-01T16:27:10.009Z</time></trkpt><trkpt lat="42.5128684" lon="14.1401492"><ele>6.199999999999999</ele><time>2026-05-01T16:27:11.009Z</time></trkpt><trkpt lat="42.5128348" lon="14.1402422"><ele>6.0</ele><time>2026-05-01T16:27:12.009Z</time></trkpt><trkpt lat="42.5127947" lon="14.1403856"><ele>6.0</ele><time>2026-05-01T16:27:14.009Z</time></trkpt><trkpt lat="42.5127565" lon="14.1405047"><ele>6.0</ele><time>2026-05-01T16:27:16.009Z</time></trkpt><trkpt lat="42.5127071" lon="14.140657"><ele>6.0</ele><time>2026-05-01T16:27:18.009Z</time></trkpt><trkpt lat="42.5126751" lon="14.1407395"><ele>6.0</ele><time>2026-05-01T16:27:19.009Z</time></trkpt><trkpt lat="42.5126222" lon="14.1408581"><ele>6.0</ele><time>2026-05-01T16:27:21.009Z</time></trkpt><trkpt lat="42.5125747" lon="14.1409717"><ele>6.4</ele><time>2026-05-01T16:27:24.009Z</time></trkpt><trkpt lat="42.5125347" lon="14.141079"><ele>6.8</ele><time>2026-05-01T16:27:26.009Z</time></trkpt><trkpt lat="42.5124877" lon="14.1412019"><ele>7.200000000000001</ele><time>2026-05-01T16:27:28.008Z</time></trkpt><trkpt lat="42.5124681" lon="14.1413282"><ele>7.6000000000000005</ele><time>2026-05-01T16:27:30.009Z</time></trkpt><trkpt lat="42.5125275" lon="14.1414525"><ele>8.0</ele><time>2026-05-01T16:27:32.009Z</time></trkpt><trkpt lat="42.5126582" lon="14.1414866"><ele>8.0</ele><time>2026-05-01T16:27:34.009Z</time></trkpt><trkpt lat="42.5127615" lon="14.1414504"><ele>8.0</ele><time>2026-05-01T16:27:35.009Z</time></trkpt><trkpt lat="42.5128916" lon="14.1414257"><ele>8.0</ele><time>2026-05-01T16:27:36.008Z</time></trkpt><trkpt lat="42.5130151" lon="14.141421"><ele>8.0</ele><time>2026-05-01T16:27:37.009Z</time></trkpt><trkpt lat="42.5131351" lon="14.1414257"><ele>7.5</ele><time>2026-05-01T16:27:38.008Z</time></trkpt><trkpt lat="42.5132575" lon="14.1414411"><ele>7.0</ele><time>2026-05-01T16:27:39.009Z</time></trkpt><trkpt lat="42.5133734" lon="14.1414703"><ele>6.5</ele><time>2026-05-01T16:27:40.009Z</time></trkpt><trkpt lat="42.5134825" lon="14.1415173"><ele>6.0</ele><time>2026-05-01T16:27:41.009Z</time></trkpt><trkpt lat="42.5135744" lon="14.1415711"><ele>6.0</ele><time>2026-05-01T16:27:42.009Z</time></trkpt><trkpt lat="42.5136639" lon="14.1416215"><ele>6.0</ele><time>2026-05-01T16:27:43.009Z</time></trkpt><trkpt lat="42.5137451" lon="14.1416809"><ele>6.0</ele><time>2026-05-01T16:27:44.008Z</time></trkpt><trkpt lat="42.5138325" lon="14.1417404"><ele>6.0</ele><time>2026-05-01T16:27:45.009Z</time></trkpt><trkpt lat="42.513918" lon="14.141797"><ele>6.0</ele><time>2026-05-01T16:27:46.009Z</time></trkpt><trkpt lat="42.5139989" lon="14.1418543"><ele>5.5</ele><time>2026-05-01T16:27:47.009Z</time></trkpt><trkpt lat="42.5140739" lon="14.1419137"><ele>5.0</ele><time>2026-05-01T16:27:48.009Z</time></trkpt><trkpt lat="42.5141467" lon="14.1419682"><ele>4.5</ele><time>2026-05-01T16:27:49.009Z</time></trkpt><trkpt lat="42.5142058" lon="14.1420344"><ele>4.0</ele><time>2026-05-01T16:27:50.009Z</time></trkpt><trkpt lat="42.5142493" lon="14.1421078"><ele>3.5</ele><time>2026-05-01T16:27:51.009Z</time></trkpt><trkpt lat="42.5142971" lon="14.1422421"><ele>3.0</ele><time>2026-05-01T16:27:53.009Z</time></trkpt><trkpt lat="42.5143406" lon="14.1423913"><ele>2.8333333333333335</ele><time>2026-05-01T16:27:55.008Z</time></trkpt><trkpt lat="42.5143805" lon="14.1424584"><ele>2.6666666666666665</ele><time>2026-05-01T16:27:56.009Z</time></trkpt><trkpt lat="42.5144509" lon="14.1424533"><ele>2.5</ele><time>2026-05-01T16:27:57.009Z</time></trkpt><trkpt lat="42.5145221" lon="14.1424312"><ele>2.333333333333333</ele><time>2026-05-01T16:27:58.009Z</time></trkpt><trkpt lat="42.5146062" lon="14.1423957"><ele>2.1666666666666665</ele><time>2026-05-01T16:27:59.009Z</time></trkpt><trkpt lat="42.5147017" lon="14.1423949"><ele>2.0</ele><time>2026-05-01T16:28:00.009Z</time></trkpt><trkpt lat="42.5147965" lon="14.1424488"><ele>2.0</ele><time>2026-05-01T16:28:01.009Z</time></trkpt><trkpt lat="42.5149027" lon="14.1425259"><ele>2.0</ele><time>2026-05-01T16:28:02.009Z</time></trkpt><trkpt lat="42.514989" lon="14.1425987"><ele>2.0</ele><time>2026-05-01T16:28:03.009Z</time></trkpt><trkpt lat="42.5150711" lon="14.1426571"><ele>2.0</ele><time>2026-05-01T16:28:04.009Z</time></trkpt><trkpt lat="42.5151455" lon="14.1427112"><ele>2.0</ele><time>2026-05-01T16:28:05.009Z</time></trkpt><trkpt lat="42.5152063" lon="14.1427548"><ele>1.9999999999999998</ele><time>2026-05-01T16:28:06.009Z</time></trkpt><trkpt lat="42.5152703" lon="14.1428"><ele>2.0</ele><time>2026-05-01T16:28:07.009Z</time></trkpt><trkpt lat="42.5153348" lon="14.1428493"><ele>2.0</ele><time>2026-05-01T16:28:08.009Z</time></trkpt><trkpt lat="42.5154045" lon="14.1429015"><ele>2.0</ele><time>2026-05-01T16:28:09.009Z</time></trkpt><trkpt lat="42.5154769" lon="14.1429519"><ele>1.9999999999999998</ele><time>2026-05-01T16:28:10.009Z</time></trkpt><trkpt lat="42.5155553" lon="14.1430043"><ele>2.0</ele><time>2026-05-01T16:28:11.009Z</time></trkpt><trkpt lat="42.5156346" lon="14.1430631"><ele>2.2</ele><time>2026-05-01T16:28:12.009Z</time></trkpt><trkpt lat="42.5157187" lon="14.1431229"><ele>2.4000000000000004</ele><time>2026-05-01T16:28:13.008Z</time></trkpt><trkpt lat="42.5158041" lon="14.1431864"><ele>2.5999999999999996</ele><time>2026-05-01T16:28:14.009Z</time></trkpt><trkpt lat="42.5158933" lon="14.1432511"><ele>2.8</ele><time>2026-05-01T16:28:15.009Z</time></trkpt><trkpt lat="42.5159962" lon="14.1433217"><ele>3.0</ele><time>2026-05-01T16:28:16.009Z</time></trkpt><trkpt lat="42.5161107" lon="14.1434005"><ele>4.0</ele><time>2026-05-01T16:28:17.009Z</time></trkpt><trkpt lat="42.516237" lon="14.1434829"><ele>5.0</ele><time>2026-05-01T16:28:18.008Z</time></trkpt><trkpt lat="42.5163743" lon="14.1435736"><ele>6.0</ele><time>2026-05-01T16:28:19.009Z</time></trkpt><trkpt lat="42.5165193" lon="14.1436701"><ele>6.0</ele><time>2026-05-01T16:28:20.009Z</time></trkpt><trkpt lat="42.5166669" lon="14.1437813"><ele>6.0</ele><time>2026-05-01T16:28:21.008Z</time></trkpt><trkpt lat="42.5168213" lon="14.1439009"><ele>6.0</ele><time>2026-05-01T16:28:22.009Z</time></trkpt><trkpt lat="42.5169779" lon="14.1440173"><ele>5.0</ele><time>2026-05-01T16:28:23.009Z</time></trkpt><trkpt lat="42.5171315" lon="14.1441335"><ele>4.0</ele><time>2026-05-01T16:28:24.009Z</time></trkpt><trkpt lat="42.5172814" lon="14.1442446"><ele>3.0</ele><time>2026-05-01T16:28:25.009Z</time></trkpt><trkpt lat="42.5174243" lon="14.1443576"><ele>3.0</ele><time>2026-05-01T16:28:26.009Z</time></trkpt><trkpt lat="42.5175609" lon="14.1444618"><ele>3.0</ele><time>2026-05-01T16:28:27.009Z</time></trkpt><trkpt lat="42.5176942" lon="14.1445588"><ele>3.0</ele><time>2026-05-01T16:28:28.009Z</time></trkpt><trkpt lat="42.5178237" lon="14.1446499"><ele>3.0</ele><time>2026-05-01T16:28:29.009Z</time></trkpt><trkpt lat="42.5179552" lon="14.1447408"><ele>3.0</ele><time>2026-05-01T16:28:30.009Z</time></trkpt><trkpt lat="42.5180865" lon="14.1448339"><ele>3.0</ele><time>2026-05-01T16:28:31.009Z</time></trkpt><trkpt lat="42.5182165" lon="14.1449285"><ele>3.0</ele><time>2026-05-01T16:28:32.009Z</time></trkpt><trkpt lat="42.5183461" lon="14.1450255"><ele>3.0</ele><time>2026-05-01T16:28:33.009Z</time></trkpt><trkpt lat="42.5184681" lon="14.1451116"><ele>3.0</ele><time>2026-05-01T16:28:34.009Z</time></trkpt><trkpt lat="42.5185838" lon="14.145196"><ele>3.0</ele><time>2026-05-01T16:28:35.009Z</time></trkpt><trkpt lat="42.5186861" lon="14.1452734"><ele>3.0</ele><time>2026-05-01T16:28:36.009Z</time></trkpt><trkpt lat="42.5187828" lon="14.1453396"><ele>3.0</ele><time>2026-05-01T16:28:37.009Z</time></trkpt><trkpt lat="42.5188769" lon="14.1454104"><ele>3.0</ele><time>2026-05-01T16:28:38.009Z</time></trkpt><trkpt lat="42.5189678" lon="14.1454754"><ele>3.0</ele><time>2026-05-01T16:28:39.009Z</time></trkpt><trkpt lat="42.5190549" lon="14.1455407"><ele>3.0</ele><time>2026-05-01T16:28:40.009Z</time></trkpt><trkpt lat="42.5191344" lon="14.1455975"><ele>3.0</ele><time>2026-05-01T16:28:41.009Z</time></trkpt><trkpt lat="42.5192076" lon="14.145648"><ele>3.0</ele><time>2026-05-01T16:28:42.009Z</time></trkpt><trkpt lat="42.519269" lon="14.1456951"><ele>3.0</ele><time>2026-05-01T16:28:43.009Z</time></trkpt><trkpt lat="42.5193283" lon="14.1457355"><ele>3.0</ele><time>2026-05-01T16:28:44.009Z</time></trkpt><trkpt lat="42.5194173" lon="14.1458005"><ele>3.0</ele><time>2026-05-01T16:28:46.009Z</time></trkpt><trkpt lat="42.5194696" lon="14.1458566"><ele>3.0</ele><time>2026-05-01T16:28:48.009Z</time></trkpt><trkpt lat="42.5195178" lon="14.1459289"><ele>3.0</ele><time>2026-05-01T16:28:54.009Z</time></trkpt><trkpt lat="42.519569" lon="14.1460046"><ele>3.0</ele><time>2026-05-01T16:29:02.009Z</time></trkpt><trkpt lat="42.5196058" lon="14.1460856"><ele>3.0</ele><time>2026-05-01T16:29:04.009Z</time></trkpt><trkpt lat="42.5195666" lon="14.1461944"><ele>3.0</ele><time>2026-05-01T16:29:06.009Z</time></trkpt><trkpt lat="42.5195046" lon="14.1462919"><ele>3.0</ele><time>2026-05-01T16:29:08.009Z</time></trkpt><trkpt lat="42.5194375" lon="14.1463807"><ele>3.0</ele><time>2026-05-01T16:29:10.009Z</time></trkpt><trkpt lat="42.5193772" lon="14.1464634"><ele>3.0</ele><time>2026-05-01T16:29:12.009Z</time></trkpt><trkpt lat="42.5193331" lon="14.1465299"><ele>3.0</ele><time>2026-05-01T16:29:14.009Z</time></trkpt><trkpt lat="42.5192915" lon="14.1465941"><ele>3.0</ele><time>2026-05-01T16:29:19.009Z</time></trkpt><trkpt lat="42.5192443" lon="14.1466522"><ele>3.0</ele><time>2026-05-01T16:29:25.008Z</time></trkpt><trkpt lat="42.5191674" lon="14.1467464"><ele>3.0</ele><time>2026-05-01T16:29:27.009Z</time></trkpt><trkpt lat="42.5191154" lon="14.1468276"><ele>3.0</ele><time>2026-05-01T16:29:29.009Z</time></trkpt><trkpt lat="42.519092" lon="14.1469177"><ele>3.0</ele><time>2026-05-01T16:29:31.009Z</time></trkpt><trkpt lat="42.5190931" lon="14.1470348"><ele>3.0</ele><time>2026-05-01T16:29:33.009Z</time></trkpt><trkpt lat="42.5191368" lon="14.1471534"><ele>3.0</ele><time>2026-05-01T16:29:35.009Z</time></trkpt><trkpt lat="42.5192508" lon="14.1472102"><ele>3.0</ele><time>2026-05-01T16:29:37.009Z</time></trkpt><trkpt lat="42.5193364" lon="14.1472448"><ele>3.0</ele><time>2026-05-01T16:29:38.009Z</time></trkpt><trkpt lat="42.5194274" lon="14.1473161"><ele>3.0</ele><time>2026-05-01T16:29:39.009Z</time></trkpt><trkpt lat="42.5195024" lon="14.1474138"><ele>2.4</ele><time>2026-05-01T16:29:40.009Z</time></trkpt><trkpt lat="42.51957" lon="14.1475092"><ele>1.7999999999999998</ele><time>2026-05-01T16:29:41.009Z</time></trkpt><trkpt lat="42.5196424" lon="14.14762"><ele>1.2</ele><time>2026-05-01T16:29:42.008Z</time></trkpt><trkpt lat="42.5197179" lon="14.1477313"><ele>0.6</ele><time>2026-05-01T16:29:43.009Z</time></trkpt><trkpt lat="42.5197994" lon="14.1478443"><ele>0.0</ele><time>2026-05-01T16:29:44.009Z</time></trkpt><trkpt lat="42.5198652" lon="14.1479611"><ele>0.0</ele><time>2026-05-01T16:29:45.009Z</time></trkpt><trkpt lat="42.5199226" lon="14.1480731"><ele>0.0</ele><time>2026-05-01T16:29:46.009Z</time></trkpt><trkpt lat="42.5199715" lon="14.1481877"><ele>0.0</ele><time>2026-05-01T16:29:47.009Z</time></trkpt><trkpt lat="42.5200147" lon="14.1482919"><ele>0.0</ele><time>2026-05-01T16:29:48.009Z</time></trkpt><trkpt lat="42.5200515" lon="14.1483985"><ele>0.0</ele><time>2026-05-01T16:29:49.009Z</time></trkpt><trkpt lat="42.5200898" lon="14.1485051"><ele>0.4</ele><time>2026-05-01T16:29:50.009Z</time></trkpt><trkpt lat="42.5201271" lon="14.1486153"><ele>0.8</ele><time>2026-05-01T16:29:51.009Z</time></trkpt><trkpt lat="42.520166" lon="14.1487303"><ele>1.2000000000000002</ele><time>2026-05-01T16:29:52.009Z</time></trkpt><trkpt lat="42.5202042" lon="14.1488416"><ele>1.6</ele><time>2026-05-01T16:29:53.009Z</time></trkpt><trkpt lat="42.5202464" lon="14.1489514"><ele>2.0</ele><time>2026-05-01T16:29:54.009Z</time></trkpt><trkpt lat="42.5202833" lon="14.1490568"><ele>1.9999999999999998</ele><time>2026-05-01T16:29:55.009Z</time></trkpt><trkpt lat="42.5203149" lon="14.1491522"><ele>2.0</ele><time>2026-05-01T16:29:56.009Z</time></trkpt><trkpt lat="42.5203434" lon="14.1492398"><ele>2.0</ele><time>2026-05-01T16:29:57.009Z</time></trkpt><trkpt lat="42.5203687" lon="14.1493197"><ele>2.0</ele><time>2026-05-01T16:29:58.009Z</time></trkpt><trkpt lat="42.5204185" lon="14.1494597"><ele>1.9999999999999998</ele><time>2026-05-01T16:30:00.009Z</time></trkpt><trkpt lat="42.5204627" lon="14.1495769"><ele>2.0</ele><time>2026-05-01T16:30:02.009Z</time></trkpt><trkpt lat="42.5204987" lon="14.1496774"><ele>1.9999999999999998</ele><time>2026-05-01T16:30:04.009Z</time></trkpt><trkpt lat="42.5205295" lon="14.1497609"><ele>2.0</ele><time>2026-05-01T16:30:07.009Z</time></trkpt><trkpt lat="42.520559" lon="14.1498466"><ele>2.0</ele><time>2026-05-01T16:30:12.009Z</time></trkpt><trkpt lat="42.520586" lon="14.149927"><ele>2.0</ele><time>2026-05-01T16:30:16.009Z</time></trkpt><trkpt lat="42.5206141" lon="14.150006"><ele>1.9999999999999998</ele><time>2026-05-01T16:30:25.009Z</time></trkpt><trkpt lat="42.5206678" lon="14.1501488"><ele>2.0</ele><time>2026-05-01T16:30:27.008Z</time></trkpt><trkpt lat="42.5207001" lon="14.1502427"><ele>1.9999999999999998</ele><time>2026-05-01T16:30:28.008Z</time></trkpt><trkpt lat="42.5207368" lon="14.1503478"><ele>2.0</ele><time>2026-05-01T16:30:29.008Z</time></trkpt><trkpt lat="42.5207775" lon="14.1504552"><ele>2.0</ele><time>2026-05-01T16:30:30.008Z</time></trkpt><trkpt lat="42.5208156" lon="14.1505618"><ele>2.0</ele><time>2026-05-01T16:30:31.009Z</time></trkpt><trkpt lat="42.5208506" lon="14.1506695"><ele>1.9999999999999998</ele><time>2026-05-01T16:30:32.008Z</time></trkpt><trkpt lat="42.5208838" lon="14.1507755"><ele>2.0</ele><time>2026-05-01T16:30:33.009Z</time></trkpt><trkpt lat="42.5209181" lon="14.1508778"><ele>1.9999999999999998</ele><time>2026-05-01T16:30:34.009Z</time></trkpt><trkpt lat="42.520956" lon="14.1509769"><ele>2.0</ele><time>2026-05-01T16:30:35.008Z</time></trkpt><trkpt lat="42.5209913" lon="14.1510789"><ele>2.0</ele><time>2026-05-01T16:30:36.009Z</time></trkpt><trkpt lat="42.5210243" lon="14.1511835"><ele>2.0</ele><time>2026-05-01T16:30:37.009Z</time></trkpt><trkpt lat="42.5210608" lon="14.1512904"><ele>1.9999999999999998</ele><time>2026-05-01T16:30:38.009Z</time></trkpt><trkpt lat="42.5210955" lon="14.1513942"><ele>2.0</ele><time>2026-05-01T16:30:39.009Z</time></trkpt><trkpt lat="42.5211274" lon="14.1514941"><ele>1.9999999999999998</ele><time>2026-05-01T16:30:40.009Z</time></trkpt><trkpt lat="42.5211586" lon="14.1515837"><ele>2.0</ele><time>2026-05-01T16:30:41.008Z</time></trkpt><trkpt lat="42.5211867" lon="14.1516706"><ele>2.0</ele><time>2026-05-01T16:30:42.009Z</time></trkpt><trkpt lat="42.5212408" lon="14.1518117"><ele>2.0</ele><time>2026-05-01T16:30:44.009Z</time></trkpt><trkpt lat="42.5212695" lon="14.1518937"><ele>1.9999999999999998</ele><time>2026-05-01T16:30:45.009Z</time></trkpt><trkpt lat="42.5212979" lon="14.1519764"><ele>2.0</ele><time>2026-05-01T16:30:46.008Z</time></trkpt><trkpt lat="42.5213298" lon="14.1520687"><ele>1.6666666666666665</ele><time>2026-05-01T16:30:47.009Z</time></trkpt><trkpt lat="42.5213665" lon="14.1521679"><ele>1.3333333333333333</ele><time>2026-05-01T16:30:48.009Z</time></trkpt><trkpt lat="42.5214063" lon="14.1522754"><ele>1.0</ele><time>2026-05-01T16:30:49.009Z</time></trkpt><trkpt lat="42.5214409" lon="14.1523852"><ele>0.6666666666666666</ele><time>2026-05-01T16:30:50.009Z</time></trkpt><trkpt lat="42.5214863" lon="14.1524985"><ele>0.3333333333333333</ele><time>2026-05-01T16:30:51.009Z</time></trkpt><trkpt lat="42.5215218" lon="14.1526049"><ele>0.0</ele><time>2026-05-01T16:30:52.009Z</time></trkpt><trkpt lat="42.5215568" lon="14.1527072"><ele>0.0</ele><time>2026-05-01T16:30:53.009Z</time></trkpt><trkpt lat="42.5215925" lon="14.1528047"><ele>0.0</ele><time>2026-05-01T16:30:54.009Z</time></trkpt><trkpt lat="42.5216233" lon="14.152906"><ele>0.0</ele><time>2026-05-01T16:30:55.009Z</time></trkpt><trkpt lat="42.5216586" lon="14.1530078"><ele>0.0</ele><time>2026-05-01T16:30:56.009Z</time></trkpt><trkpt lat="42.5216912" lon="14.1531068"><ele>0.0</ele><time>2026-05-01T16:30:57.009Z</time></trkpt><trkpt lat="42.5217259" lon="14.1531957"><ele>0.0</ele><time>2026-05-01T16:30:58.009Z</time></trkpt><trkpt lat="42.5217558" lon="14.1532846"><ele>0.0</ele><time>2026-05-01T16:30:59.008Z</time></trkpt><trkpt lat="42.5218039" lon="14.1534145"><ele>0.0</ele><time>2026-05-01T16:31:01.009Z</time></trkpt><trkpt lat="42.5218452" lon="14.1535168"><ele>0.0</ele><time>2026-05-01T16:31:04.009Z</time></trkpt><trkpt lat="42.5218726" lon="14.1536006"><ele>0.0</ele><time>2026-05-01T16:31:07.009Z</time></trkpt><trkpt lat="42.5219381" lon="14.153681"><ele>0.0</ele><time>2026-05-01T16:31:11.009Z</time></trkpt><trkpt lat="42.5220309" lon="14.1536216"><ele>0.3333333333333333</ele><time>2026-05-01T16:31:14.009Z</time></trkpt><trkpt lat="42.5220905" lon="14.1535633"><ele>0.6666666666666666</ele><time>2026-05-01T16:31:16.009Z</time></trkpt><trkpt lat="42.5221586" lon="14.1534995"><ele>1.0</ele><time>2026-05-01T16:31:18.009Z</time></trkpt><trkpt lat="42.5222311" lon="14.1534407"><ele>1.3333333333333333</ele><time>2026-05-01T16:31:20.009Z</time></trkpt><trkpt lat="42.5223002" lon="14.1533628"><ele>1.6666666666666665</ele><time>2026-05-01T16:31:23.009Z</time></trkpt><trkpt lat="42.5222992" lon="14.1532651"><ele>2.0</ele><time>2026-05-01T16:31:26.009Z</time></trkpt><trkpt lat="42.5222541" lon="14.1531772"><ele>2.0</ele><time>2026-05-01T16:31:30.009Z</time></trkpt><trkpt lat="42.5222179" lon="14.1530975"><ele>1.9999999999999998</ele><time>2026-05-01T16:31:33.009Z</time></trkpt><trkpt lat="42.5221784" lon="14.153002"><ele>2.0</ele><time>2026-05-01T16:31:36.008Z</time></trkpt><trkpt lat="42.5221396" lon="14.1529068"><ele>2.0</ele><time>2026-05-01T16:31:40.009Z</time></trkpt><trkpt lat="42.5220868" lon="14.1528256"><ele>1.9999999999999998</ele><time>2026-05-01T16:31:44.009Z</time></trkpt><trkpt lat="42.5220472" lon="14.1527578"><ele>2.0</ele><time>2026-05-01T16:31:47.009Z</time></trkpt><trkpt lat="42.5220377" lon="14.1526644"><ele>2.0</ele><time>2026-05-01T16:37:07.009Z</time></trkpt><trkpt lat="42.5220355" lon="14.1525704"><ele>2.0</ele><time>2026-05-01T16:37:14.009Z</time></trkpt><trkpt lat="42.5220887" lon="14.1525079"><ele>1.9999999999999998</ele><time>2026-05-01T16:37:21.009Z</time></trkpt><trkpt lat="42.5221037" lon="14.1524191"><ele>2.0</ele><time>2026-05-01T16:37:29.009Z</time></trkpt><trkpt lat="42.5221686" lon="14.1524297"><ele>2.0</ele><time>2026-05-01T16:37:39.009Z</time></trkpt><trkpt lat="42.5221966" lon="14.1523502"><ele>1.9999999999999998</ele><time>2026-05-01T16:37:47.92Z</time></trkpt><trkpt lat="42.5221397" lon="14.1523052"><ele>2.0</ele><time>2026-05-01T16:39:05.009Z</time></trkpt><trkpt lat="42.5221688" lon="14.1523867"><ele>2.0</ele><time>2026-05-01T16:47:52.009Z</time></trkpt><trkpt lat="42.522142" lon="14.1524699"><ele>2.0</ele><time>2026-05-01T17:14:17.008Z</time></trkpt><trkpt lat="42.5220868" lon="14.1525268"><ele>1.9999999999999998</ele><time>2026-05-01T17:14:24.009Z</time></trkpt><trkpt lat="42.5220203" lon="14.152545"><ele>2.0</ele><time>2026-05-01T17:14:30.771Z</time></trkpt><trkpt lat="42.5220173" lon="14.1526373"><ele>2.0</ele><time>2026-05-01T17:14:38.009Z</time></trkpt><trkpt lat="42.5220531" lon="14.1527084"><ele>1.9999999999999998</ele><time>2026-05-01T17:14:44.905Z</time></trkpt><trkpt lat="42.5219936" lon="14.1527776"><ele>2.0</ele><time>2026-05-01T17:16:56.009Z</time></trkpt><trkpt lat="42.522014" lon="14.1526961"><ele>2.0</ele><time>2026-05-01T17:17:28.009Z</time></trkpt><trkpt lat="42.5221481" lon="14.153002"><ele>2.0</ele><time>2026-05-01T17:24:36.009Z</time></trkpt><trkpt lat="42.5221802" lon="14.1530757"><ele>1.9999999999999998</ele><time>2026-05-01T17:24:38.009Z</time></trkpt><trkpt lat="42.5222159" lon="14.1531507"><ele>2.0</ele><time>2026-05-01T17:24:42.009Z</time></trkpt><trkpt lat="42.5222825" lon="14.1531624"><ele>2.0</ele><time>2026-05-01T17:24:45.009Z</time></trkpt><trkpt lat="42.522354" lon="14.1530976"><ele>1.9999999999999998</ele><time>2026-05-01T17:24:47.008Z</time></trkpt><trkpt lat="42.5223737" lon="14.1530131"><ele>2.0</ele><time>2026-05-01T17:24:49.009Z</time></trkpt><trkpt lat="42.5223368" lon="14.1528942"><ele>2.0</ele><time>2026-05-01T17:24:51.009Z</time></trkpt><trkpt lat="42.5222966" lon="14.1527983"><ele>2.0</ele><time>2026-05-01T17:24:53.009Z</time></trkpt><trkpt lat="42.5222575" lon="14.1527154"><ele>1.9999999999999998</ele><time>2026-05-01T17:24:55.008Z</time></trkpt><trkpt lat="42.5222144" lon="14.1526198"><ele>2.0</ele><time>2026-05-01T17:24:57.009Z</time></trkpt><trkpt lat="42.5221804" lon="14.1525474"><ele>2.0</ele><time>2026-05-01T17:24:59.009Z</time></trkpt><trkpt lat="42.5221439" lon="14.1524678"><ele>1.9999999999999998</ele><time>2026-05-01T17:25:01.009Z</time></trkpt><trkpt lat="42.5221069" lon="14.1523815"><ele>2.0</ele><time>2026-05-01T17:25:03.009Z</time></trkpt><trkpt lat="42.5220774" lon="14.152304"><ele>2.0</ele><time>2026-05-01T17:25:05.009Z</time></trkpt><trkpt lat="42.522045" lon="14.1521983"><ele>1.9999999999999998</ele><time>2026-05-01T17:25:07.009Z</time></trkpt><trkpt lat="42.5219827" lon="14.1521014"><ele>2.0</ele><time>2026-05-01T17:25:09.009Z</time></trkpt><trkpt lat="42.521937" lon="14.1520132"><ele>2.0</ele><time>2026-05-01T17:25:11.009Z</time></trkpt><trkpt lat="42.521942" lon="14.1519212"><ele>2.0</ele><time>2026-05-01T17:25:13.008Z</time></trkpt><trkpt lat="42.5220006" lon="14.1518377"><ele>1.9999999999999998</ele><time>2026-05-01T17:25:15.009Z</time></trkpt><trkpt lat="42.5220797" lon="14.1517589"><ele>2.0</ele><time>2026-05-01T17:25:17.009Z</time></trkpt><trkpt lat="42.5221461" lon="14.1517279"><ele>1.9999999999999998</ele><time>2026-05-01T17:25:19.009Z</time></trkpt><trkpt lat="42.5222197" lon="14.1517337"><ele>2.0</ele><time>2026-05-01T17:25:22.009Z</time></trkpt><trkpt lat="42.5222602" lon="14.1518045"><ele>2.0</ele><time>2026-05-01T17:25:26.009Z</time></trkpt><trkpt lat="42.5223195" lon="14.1518429"><ele>2.0</ele><time>2026-05-01T17:25:47.009Z</time></trkpt><trkpt lat="42.5222648" lon="14.1517023"><ele>1.9999999999999998</ele><time>2026-05-01T17:25:50.009Z</time></trkpt><trkpt lat="42.5221787" lon="14.1516969"><ele>2.0</ele><time>2026-05-01T17:25:52.008Z</time></trkpt><trkpt lat="42.5221199" lon="14.1517416"><ele>2.0</ele><time>2026-05-01T17:25:55.008Z</time></trkpt><trkpt lat="42.5221331" lon="14.1518515"><ele>1.9999999999999998</ele><time>2026-05-01T17:25:58.008Z</time></trkpt><trkpt lat="42.5221663" lon="14.1519265"><ele>2.0</ele><time>2026-05-01T17:26:01.009Z</time></trkpt><trkpt lat="42.5222453" lon="14.1519087"><ele>2.0</ele><time>2026-05-01T17:26:05.008Z</time></trkpt><trkpt lat="42.5223062" lon="14.1518647"><ele>1.9999999999999998</ele><time>2026-05-01T17:26:39.009Z</time></trkpt><trkpt lat="42.5222506" lon="14.1518055"><ele>2.0</ele><time>2026-05-01T17:28:16.009Z</time></trkpt><trkpt lat="42.5222018" lon="14.1518658"><ele>2.0</ele><time>2026-05-01T17:29:14.009Z</time></trkpt><trkpt lat="42.5222552" lon="14.1518163"><ele>2.0</ele><time>2026-05-01T17:31:19.009Z</time></trkpt><trkpt lat="42.5221977" lon="14.1517777"><ele>1.9999999999999998</ele><time>2026-05-01T17:32:29.009Z</time></trkpt><trkpt lat="42.5222073" lon="14.1518796"><ele>2.0</ele><time>2026-05-01T18:16:56.009Z</time></trkpt><trkpt lat="42.5222555" lon="14.1518194"><ele>2.0</ele><time>2026-05-01T18:17:31.008Z</time></trkpt><trkpt lat="42.5223278" lon="14.1518452"><ele>1.9999999999999998</ele><time>2026-05-01T18:17:44.009Z</time></trkpt><trkpt lat="42.5223907" lon="14.1518636"><ele>2.0</ele><time>2026-05-01T18:17:52.009Z</time></trkpt><trkpt lat="42.5224522" lon="14.1518202"><ele>2.0</ele><time>2026-05-01T18:17:57.891Z</time></trkpt><trkpt lat="42.5225188" lon="14.1518114"><ele>2.0</ele><time>2026-05-01T18:18:03.915Z</time></trkpt><trkpt lat="42.5224868" lon="14.1517373"><ele>1.9999999999999998</ele><time>2026-05-01T18:18:14.009Z</time></trkpt><trkpt lat="42.522421" lon="14.151764"><ele>2.0</ele><time>2026-05-01T18:18:52.009Z</time></trkpt><trkpt lat="42.5223704" lon="14.151826"><ele>2.0</ele><time>2026-05-01T18:18:59.009Z</time></trkpt><trkpt lat="42.5224287" lon="14.1518651"><ele>1.9999999999999998</ele><time>2026-05-01T18:19:06.909Z</time></trkpt><trkpt lat="42.5224471" lon="14.1519486"><ele>2.0</ele><time>2026-05-01T18:19:13.009Z</time></trkpt><trkpt lat="42.5224494" lon="14.1520411"><ele>2.0</ele><time>2026-05-01T18:19:21.009Z</time></trkpt><trkpt lat="42.5224782" lon="14.1521173"><ele>2.0</ele><time>2026-05-01T18:20:24.009Z</time></trkpt><trkpt lat="42.5224693" lon="14.1520061"><ele>2.0</ele><time>2026-05-01T18:39:28.167Z</time></trkpt><trkpt lat="42.5223491" lon="14.1518948"><ele>2.0</ele><time>2026-05-01T18:39:33.009Z</time></trkpt><trkpt lat="42.5224144" lon="14.1521248"><ele>2.0</ele><time>2026-05-01T18:39:38.009Z</time></trkpt><trkpt lat="42.5224036" lon="14.1520076"><ele>2.0</ele><time>2026-05-01T18:50:20.009Z</time></trkpt><trkpt lat="42.5223432" lon="14.1520449"><ele>1.9999999999999998</ele><time>2026-05-01T18:50:25.009Z</time></trkpt><trkpt lat="42.5223055" lon="14.152127"><ele>2.0</ele><time>2026-05-01T18:56:50.008Z</time></trkpt><trkpt lat="42.5222554" lon="14.1521791"><ele>2.0</ele><time>2026-05-01T18:56:57.009Z</time></trkpt><trkpt lat="42.5223006" lon="14.1521111"><ele>1.9999999999999998</ele><time>2026-05-01T18:57:10.009Z</time></trkpt><trkpt lat="42.5223605" lon="14.1520646"><ele>2.0</ele><time>2026-05-01T19:04:16.009Z</time></trkpt><trkpt lat="42.5224274" lon="14.1520518"><ele>2.0</ele><time>2026-05-01T19:30:12.008Z</time></trkpt><trkpt lat="42.5224877" lon="14.1520895"><ele>2.0</ele><time>2026-05-01T19:30:47.009Z</time></trkpt><trkpt lat="42.5225233" lon="14.1521636"><ele>2.0</ele><time>2026-05-01T19:31:07.008Z</time></trkpt><trkpt lat="42.5225" lon="14.1522475"><ele>2.0</ele><time>2026-05-01T19:31:34.009Z</time></trkpt><trkpt lat="42.5224236" lon="14.1519871"><ele>2.0</ele><time>2026-05-01T20:04:17.645Z</time></trkpt><trkpt lat="42.5223377" lon="14.1519198"><ele>2.0</ele><time>2026-05-01T20:04:51.008Z</time></trkpt><trkpt lat="42.5222722" lon="14.1519322"><ele>2.0</ele><time>2026-05-01T20:05:01.009Z</time></trkpt><trkpt lat="42.5222002" lon="14.1519309"><ele>1.9999999999999998</ele><time>2026-05-01T20:05:20.009Z</time></trkpt><trkpt lat="42.5222668" lon="14.1518893"><ele>2.0</ele><time>2026-05-01T20:05:34.008Z</time></trkpt><trkpt lat="42.5223339" lon="14.1518719"><ele>2.0</ele><time>2026-05-01T20:05:41.009Z</time></trkpt><trkpt lat="42.5222697" lon="14.151888"><ele>1.9999999999999998</ele><time>2026-05-01T20:06:25.009Z</time></trkpt><trkpt lat="42.5223316" lon="14.1518387"><ele>2.0</ele><time>2026-05-01T20:06:56.009Z</time></trkpt><trkpt lat="42.5222795" lon="14.1519033"><ele>2.0</ele><time>2026-05-01T20:08:36.009Z</time></trkpt><trkpt lat="42.5223645" lon="14.1518823"><ele>1.9999999999999998</ele><time>2026-05-01T20:09:28.938Z</time></trkpt><trkpt lat="42.5224116" lon="14.1519391"><ele>2.0</ele><time>2026-05-01T20:09:36.914Z</time></trkpt><trkpt lat="42.5224294" lon="14.1520244"><ele>2.0</ele><time>2026-05-01T20:10:18.94Z</time></trkpt><trkpt lat="42.5224869" lon="14.1520624"><ele>2.0</ele><time>2026-05-01T20:11:22.009Z</time></trkpt><trkpt lat="42.5225024" lon="14.152148"><ele>1.9999999999999998</ele><time>2026-05-01T20:18:02.009Z</time></trkpt><trkpt lat="42.5225044" lon="14.1519776"><ele>2.0</ele><time>2026-05-01T20:45:20.009Z</time></trkpt><trkpt lat="42.5225214" lon="14.1518792"><ele>1.9999999999999998</ele><time>2026-05-01T20:45:23.009Z</time></trkpt><trkpt lat="42.5224578" lon="14.1519033"><ele>2.0</ele><time>2026-05-01T20:47:12.015Z</time></trkpt><trkpt lat="42.5223477" lon="14.1518822"><ele>2.0</ele><time>2026-05-01T20:47:23.959Z</time></trkpt><trkpt lat="42.5223055" lon="14.1518171"><ele>2.0</ele><time>2026-05-01T20:47:32.008Z</time></trkpt><trkpt lat="42.5222548" lon="14.1517463"><ele>1.9999999999999998</ele><time>2026-05-01T20:47:38.009Z</time></trkpt><trkpt lat="42.5222177" lon="14.1518578"><ele>2.0</ele><time>2026-05-01T20:49:29.009Z</time></trkpt><trkpt lat="42.5222821" lon="14.151933"><ele>2.0</ele><time>2026-05-01T20:57:37.008Z</time></trkpt><trkpt lat="42.5222583" lon="14.1518309"><ele>2.0</ele><time>2026-05-01T20:58:03.009Z</time></trkpt><trkpt lat="42.5221888" lon="14.1518832"><ele>2.0</ele><time>2026-05-01T21:00:35.13Z</time></trkpt><trkpt lat="42.5222414" lon="14.1518331"><ele>2.0</ele><time>2026-05-01T21:31:43.002Z</time></trkpt></trkseg><trkseg><trkpt lat="42.5222149" lon="14.1517443"><ele>1.9999999999999998</ele><time>2026-05-02T05:47:52.032Z</time></trkpt><trkpt lat="42.5221502" lon="14.1516901"><ele>2.0</ele><time>2026-05-02T05:47:57.032Z</time></trkpt><trkpt lat="42.5220819" lon="14.1517114"><ele>2.0</ele><time>2026-05-02T05:47:59.031Z</time></trkpt><trkpt lat="42.5220094" lon="14.1517665"><ele>2.0</ele><time>2026-05-02T05:48:01.032Z</time></trkpt><trkpt lat="42.5219413" lon="14.1518331"><ele>1.9999999999999998</ele><time>2026-05-02T05:48:03.032Z</time></trkpt><trkpt lat="42.5218713" lon="14.1519071"><ele>2.0</ele><time>2026-05-02T05:48:06.032Z</time></trkpt><trkpt lat="42.5218171" lon="14.1519552"><ele>1.6666666666666665</ele><time>2026-05-02T05:48:08.032Z</time></trkpt><trkpt lat="42.5217753" lon="14.1520468"><ele>1.3333333333333333</ele><time>2026-05-02T05:48:11.032Z</time></trkpt><trkpt lat="42.5217877" lon="14.1521524"><ele>1.0</ele><time>2026-05-02T05:48:14.032Z</time></trkpt><trkpt lat="42.5218259" lon="14.1522614"><ele>0.6666666666666666</ele><time>2026-05-02T05:48:17.032Z</time></trkpt><trkpt lat="42.5218554" lon="14.1523408"><ele>0.3333333333333333</ele><time>2026-05-02T05:48:19.032Z</time></trkpt><trkpt lat="42.5218937" lon="14.1524291"><ele>0.0</ele><time>2026-05-02T05:48:22.032Z</time></trkpt><trkpt lat="42.5219404" lon="14.152509"><ele>-0.16666666666666666</ele><time>2026-05-02T05:48:26.032Z</time></trkpt><trkpt lat="42.5219879" lon="14.1525834"><ele>-0.3333333333333333</ele><time>2026-05-02T05:56:04.026Z</time></trkpt><trkpt lat="42.5220227" lon="14.1526621"><ele>-0.5</ele><time>2026-05-02T05:56:13.026Z</time></trkpt><trkpt lat="42.5220735" lon="14.1527844"><ele>-0.6666666666666666</ele><time>2026-05-02T05:56:15.026Z</time></trkpt><trkpt lat="42.5221094" lon="14.1528575"><ele>-0.8333333333333333</ele><time>2026-05-02T05:56:16.026Z</time></trkpt><trkpt lat="42.5221459" lon="14.1529289"><ele>-1.0</ele><time>2026-05-02T05:56:17.025Z</time></trkpt><trkpt lat="42.5222084" lon="14.153054"><ele>-0.8333333333333333</ele><time>2026-05-02T05:56:19.026Z</time></trkpt><trkpt lat="42.522254" lon="14.1531483"><ele>-0.6666666666666666</ele><time>2026-05-02T05:56:21.025Z</time></trkpt><trkpt lat="42.5222922" lon="14.1532418"><ele>-0.5</ele><time>2026-05-02T05:56:24.026Z</time></trkpt><trkpt lat="42.522284" lon="14.1533744"><ele>-0.3333333333333333</ele><time>2026-05-02T05:56:27.026Z</time></trkpt><trkpt lat="42.522192" lon="14.1534759"><ele>-0.16666666666666666</ele><time>2026-05-02T05:56:29.026Z</time></trkpt><trkpt lat="42.5221286" lon="14.1535146"><ele>0.0</ele><time>2026-05-02T05:56:30.026Z</time></trkpt><trkpt lat="42.5220643" lon="14.1535611"><ele>0.0</ele><time>2026-05-02T05:56:31.026Z</time></trkpt><trkpt lat="42.5219608" lon="14.1536085"><ele>0.0</ele><time>2026-05-02T05:56:33.026Z</time></trkpt><trkpt lat="42.5218701" lon="14.1535597"><ele>0.0</ele><time>2026-05-02T05:56:35.026Z</time></trkpt><trkpt lat="42.5217983" lon="14.1534072"><ele>0.0</ele><time>2026-05-02T05:56:37.026Z</time></trkpt><trkpt lat="42.5217664" lon="14.1533052"><ele>0.0</ele><time>2026-05-02T05:56:38.026Z</time></trkpt><trkpt lat="42.521731" lon="14.1531914"><ele>-0.2</ele><time>2026-05-02T05:56:39.025Z</time></trkpt><trkpt lat="42.5216938" lon="14.15307"><ele>-0.4</ele><time>2026-05-02T05:56:40.026Z</time></trkpt><trkpt lat="42.5216502" lon="14.1529461"><ele>-0.6000000000000001</ele><time>2026-05-02T05:56:41.026Z</time></trkpt><trkpt lat="42.5216061" lon="14.1528114"><ele>-0.8</ele><time>2026-05-02T05:56:42.026Z</time></trkpt><trkpt lat="42.5215594" lon="14.1526777"><ele>-1.0</ele><time>2026-05-02T05:56:43.026Z</time></trkpt><trkpt lat="42.5215104" lon="14.152535"><ele>-1.0</ele><time>2026-05-02T05:56:44.026Z</time></trkpt><trkpt lat="42.5214582" lon="14.1523974"><ele>-1.0</ele><time>2026-05-02T05:56:45.026Z</time></trkpt><trkpt lat="42.521412" lon="14.1522646"><ele>-1.0</ele><time>2026-05-02T05:56:46.026Z</time></trkpt><trkpt lat="42.5213693" lon="14.1521357"><ele>-1.0</ele><time>2026-05-02T05:56:47.025Z</time></trkpt><trkpt lat="42.5213264" lon="14.1520145"><ele>-1.0</ele><time>2026-05-02T05:56:48.026Z</time></trkpt><trkpt lat="42.5212833" lon="14.1518996"><ele>-0.8</ele><time>2026-05-02T05:56:49.026Z</time></trkpt><trkpt lat="42.5212424" lon="14.1517892"><ele>-0.6000000000000001</ele><time>2026-05-02T05:56:50.026Z</time></trkpt><trkpt lat="42.5212034" lon="14.151669"><ele>-0.4</ele><time>2026-05-02T05:56:51.026Z</time></trkpt><trkpt lat="42.5211628" lon="14.151544"><ele>-0.2</ele><time>2026-05-02T05:56:52.026Z</time></trkpt><trkpt lat="42.521117" lon="14.1514167"><ele>0.0</ele><time>2026-05-02T05:56:53.026Z</time></trkpt><trkpt lat="42.5210695" lon="14.1512842"><ele>0.4</ele><time>2026-05-02T05:56:54.026Z</time></trkpt><trkpt lat="42.5210196" lon="14.1511552"><ele>0.8</ele><time>2026-05-02T05:56:55.026Z</time></trkpt><trkpt lat="42.5209715" lon="14.151022"><ele>1.2000000000000002</ele><time>2026-05-02T05:56:56.026Z</time></trkpt><trkpt lat="42.5209256" lon="14.150884"><ele>1.6</ele><time>2026-05-02T05:56:57.026Z</time></trkpt><trkpt lat="42.5208798" lon="14.1507467"><ele>2.0</ele><time>2026-05-02T05:56:58.026Z</time></trkpt><trkpt lat="42.5208319" lon="14.1506086"><ele>2.25</ele><time>2026-05-02T05:56:59.026Z</time></trkpt><trkpt lat="42.5207848" lon="14.1504681"><ele>2.5</ele><time>2026-05-02T05:57:00.026Z</time></trkpt><trkpt lat="42.5207417" lon="14.1503251"><ele>2.75</ele><time>2026-05-02T05:57:01.025Z</time></trkpt><trkpt lat="42.5206936" lon="14.1501839"><ele>3.0</ele><time>2026-05-02T05:57:02.026Z</time></trkpt><trkpt lat="42.5206433" lon="14.1500416"><ele>3.0</ele><time>2026-05-02T05:57:03.026Z</time></trkpt><trkpt lat="42.5205892" lon="14.1498991"><ele>3.0</ele><time>2026-05-02T05:57:04.026Z</time></trkpt><trkpt lat="42.520539" lon="14.1497538"><ele>3.0</ele><time>2026-05-02T05:57:05.026Z</time></trkpt><trkpt lat="42.5204904" lon="14.149603"><ele>3.0</ele><time>2026-05-02T05:57:06.026Z</time></trkpt><trkpt lat="42.520438" lon="14.1494492"><ele>2.75</ele><time>2026-05-02T05:57:07.026Z</time></trkpt><trkpt lat="42.5203868" lon="14.1492925"><ele>2.5</ele><time>2026-05-02T05:57:08.026Z</time></trkpt><trkpt lat="42.5203337" lon="14.1491338"><ele>2.25</ele><time>2026-05-02T05:57:09.026Z</time></trkpt><trkpt lat="42.5202792" lon="14.1489719"><ele>2.0</ele><time>2026-05-02T05:57:10.026Z</time></trkpt><trkpt lat="42.5202216" lon="14.1488098"><ele>2.0</ele><time>2026-05-02T05:57:11.026Z</time></trkpt><trkpt lat="42.5201669" lon="14.1486493"><ele>2.0</ele><time>2026-05-02T05:57:12.026Z</time></trkpt><trkpt lat="42.5201131" lon="14.1484944"><ele>2.0</ele><time>2026-05-02T05:57:13.026Z</time></trkpt><trkpt lat="42.5200564" lon="14.1483527"><ele>2.0</ele><time>2026-05-02T05:57:14.026Z</time></trkpt><trkpt lat="42.5199996" lon="14.1482199"><ele>1.6</ele><time>2026-05-02T05:57:15.026Z</time></trkpt><trkpt lat="42.5199422" lon="14.1480904"><ele>1.2000000000000002</ele><time>2026-05-02T05:57:16.025Z</time></trkpt><trkpt lat="42.5198852" lon="14.1479786"><ele>0.8</ele><time>2026-05-02T05:57:17.026Z</time></trkpt><trkpt lat="42.5198278" lon="14.1478748"><ele>0.4</ele><time>2026-05-02T05:57:18.025Z</time></trkpt><trkpt lat="42.5197693" lon="14.1477743"><ele>0.0</ele><time>2026-05-02T05:57:19.026Z</time></trkpt><trkpt lat="42.5197132" lon="14.1476849"><ele>0.0</ele><time>2026-05-02T05:57:20.026Z</time></trkpt><trkpt lat="42.5196587" lon="14.1475936"><ele>0.0</ele><time>2026-05-02T05:57:21.026Z</time></trkpt><trkpt lat="42.5196047" lon="14.1475065"><ele>0.0</ele><time>2026-05-02T05:57:22.026Z</time></trkpt><trkpt lat="42.5195595" lon="14.1474224"><ele>0.0</ele><time>2026-05-02T05:57:23.026Z</time></trkpt><trkpt lat="42.5195267" lon="14.1473353"><ele>0.0</ele><time>2026-05-02T05:57:24.026Z</time></trkpt><trkpt lat="42.5195024" lon="14.147251"><ele>0.0</ele><time>2026-05-02T05:57:25.026Z</time></trkpt><trkpt lat="42.5194892" lon="14.147162"><ele>0.5</ele><time>2026-05-02T05:57:26.025Z</time></trkpt><trkpt lat="42.5194705" lon="14.1470735"><ele>1.0</ele><time>2026-05-02T05:57:27.026Z</time></trkpt><trkpt lat="42.519462" lon="14.1469728"><ele>1.5</ele><time>2026-05-02T05:57:28.026Z</time></trkpt><trkpt lat="42.5194558" lon="14.1468669"><ele>2.0</ele><time>2026-05-02T05:57:29.026Z</time></trkpt><trkpt lat="42.5194635" lon="14.1467673"><ele>2.5</ele><time>2026-05-02T05:57:30.026Z</time></trkpt><trkpt lat="42.5194734" lon="14.1466826"><ele>3.0</ele><time>2026-05-02T05:57:31.026Z</time></trkpt><trkpt lat="42.5194979" lon="14.1465342"><ele>3.0</ele><time>2026-05-02T05:57:33.026Z</time></trkpt><trkpt lat="42.5195257" lon="14.1464393"><ele>3.0</ele><time>2026-05-02T05:57:35.026Z</time></trkpt><trkpt lat="42.5195409" lon="14.1463532"><ele>3.0</ele><time>2026-05-02T05:57:37.026Z</time></trkpt><trkpt lat="42.5195928" lon="14.1462483"><ele>3.0</ele><time>2026-05-02T05:57:39.026Z</time></trkpt><trkpt lat="42.5196434" lon="14.1461364"><ele>3.0</ele><time>2026-05-02T05:57:41.026Z</time></trkpt><trkpt lat="42.5196799" lon="14.1460119"><ele>3.0</ele><time>2026-05-02T05:57:43.026Z</time></trkpt><trkpt lat="42.5196429" lon="14.1459007"><ele>3.0</ele><time>2026-05-02T05:57:45.026Z</time></trkpt><trkpt lat="42.5195452" lon="14.1457958"><ele>3.0</ele><time>2026-05-02T05:57:47.026Z</time></trkpt><trkpt lat="42.5194828" lon="14.1457379"><ele>3.0</ele><time>2026-05-02T05:57:48.026Z</time></trkpt><trkpt lat="42.5193758" lon="14.1456913"><ele>3.0</ele><time>2026-05-02T05:57:49.025Z</time></trkpt><trkpt lat="42.5192741" lon="14.1456291"><ele>3.0</ele><time>2026-05-02T05:57:50.026Z</time></trkpt><trkpt lat="42.5191637" lon="14.1455626"><ele>3.0</ele><time>2026-05-02T05:57:51.025Z</time></trkpt><trkpt lat="42.519048" lon="14.1454909"><ele>3.0</ele><time>2026-05-02T05:57:52.026Z</time></trkpt><trkpt lat="42.5189243" lon="14.1454131"><ele>3.0</ele><time>2026-05-02T05:57:53.026Z</time></trkpt><trkpt lat="42.5187949" lon="14.1453285"><ele>3.0</ele><time>2026-05-02T05:57:54.026Z</time></trkpt><trkpt lat="42.5186607" lon="14.1452322"><ele>3.0</ele><time>2026-05-02T05:57:55.026Z</time></trkpt><trkpt lat="42.5185264" lon="14.1451374"><ele>3.0</ele><time>2026-05-02T05:57:56.026Z</time></trkpt><trkpt lat="42.5183936" lon="14.1450445"><ele>3.0</ele><time>2026-05-02T05:57:57.025Z</time></trkpt><trkpt lat="42.5182623" lon="14.1449527"><ele>3.0</ele><time>2026-05-02T05:57:58.025Z</time></trkpt><trkpt lat="42.5181314" lon="14.1448596"><ele>3.0</ele><time>2026-05-02T05:57:59.026Z</time></trkpt><trkpt lat="42.5179927" lon="14.1447618"><ele>3.0</ele><time>2026-05-02T05:58:00.026Z</time></trkpt><trkpt lat="42.5178482" lon="14.1446697"><ele>3.0</ele><time>2026-05-02T05:58:01.026Z</time></trkpt><trkpt lat="42.5177012" lon="14.1445717"><ele>3.0</ele><time>2026-05-02T05:58:02.026Z</time></trkpt><trkpt lat="42.5175578" lon="14.1444591"><ele>3.0</ele><time>2026-05-02T05:58:03.025Z</time></trkpt><trkpt lat="42.5174117" lon="14.144342"><ele>3.0</ele><time>2026-05-02T05:58:04.026Z</time></trkpt><trkpt lat="42.5172615" lon="14.1442314"><ele>3.0</ele><time>2026-05-02T05:58:05.026Z</time></trkpt><trkpt lat="42.5171112" lon="14.1441208"><ele>3.0</ele><time>2026-05-02T05:58:06.026Z</time></trkpt><trkpt lat="42.5169596" lon="14.1440156"><ele>3.0</ele><time>2026-05-02T05:58:07.026Z</time></trkpt><trkpt lat="42.5168129" lon="14.1439021"><ele>4.0</ele><time>2026-05-02T05:58:08.026Z</time></trkpt><trkpt lat="42.5166659" lon="14.143794"><ele>5.0</ele><time>2026-05-02T05:58:09.026Z</time></trkpt><trkpt lat="42.5165231" lon="14.143687"><ele>6.0</ele><time>2026-05-02T05:58:10.026Z</time></trkpt><trkpt lat="42.5163791" lon="14.1435843"><ele>5.333333333333333</ele><time>2026-05-02T05:58:11.026Z</time></trkpt><trkpt lat="42.5162356" lon="14.1434824"><ele>4.666666666666666</ele><time>2026-05-02T05:58:12.025Z</time></trkpt><trkpt lat="42.5160935" lon="14.1433813"><ele>4.0</ele><time>2026-05-02T05:58:13.026Z</time></trkpt><trkpt lat="42.5159526" lon="14.1432831"><ele>3.6666666666666665</ele><time>2026-05-02T05:58:14.026Z</time></trkpt><trkpt lat="42.5158152" lon="14.1431859"><ele>3.333333333333333</ele><time>2026-05-02T05:58:15.026Z</time></trkpt><trkpt lat="42.5156801" lon="14.1430901"><ele>3.0</ele><time>2026-05-02T05:58:16.026Z</time></trkpt><trkpt lat="42.5155508" lon="14.1429959"><ele>3.0</ele><time>2026-05-02T05:58:17.025Z</time></trkpt><trkpt lat="42.5154251" lon="14.1429029"><ele>3.0</ele><time>2026-05-02T05:58:18.025Z</time></trkpt><trkpt lat="42.5152984" lon="14.1428151"><ele>3.0</ele><time>2026-05-02T05:58:19.026Z</time></trkpt><trkpt lat="42.5151763" lon="14.1427302"><ele>3.0</ele><time>2026-05-02T05:58:20.026Z</time></trkpt><trkpt lat="42.5150578" lon="14.1426417"><ele>2.75</ele><time>2026-05-02T05:58:21.026Z</time></trkpt><trkpt lat="42.5149458" lon="14.1425547"><ele>2.5</ele><time>2026-05-02T05:58:22.025Z</time></trkpt><trkpt lat="42.5148362" lon="14.1424759"><ele>2.25</ele><time>2026-05-02T05:58:23.026Z</time></trkpt><trkpt lat="42.5147352" lon="14.1424055"><ele>2.0</ele><time>2026-05-02T05:58:24.026Z</time></trkpt><trkpt lat="42.5146393" lon="14.1423391"><ele>2.2</ele><time>2026-05-02T05:58:25.026Z</time></trkpt><trkpt lat="42.5145473" lon="14.1422758"><ele>2.4000000000000004</ele><time>2026-05-02T05:58:26.026Z</time></trkpt><trkpt lat="42.514462" lon="14.1422135"><ele>2.5999999999999996</ele><time>2026-05-02T05:58:27.026Z</time></trkpt><trkpt lat="42.5143763" lon="14.1421481"><ele>2.8</ele><time>2026-05-02T05:58:28.026Z</time></trkpt><trkpt lat="42.5142882" lon="14.1420821"><ele>3.0</ele><time>2026-05-02T05:58:29.026Z</time></trkpt><trkpt lat="42.5141981" lon="14.1420202"><ele>3.0</ele><time>2026-05-02T05:58:30.026Z</time></trkpt><trkpt lat="42.5141037" lon="14.1419571"><ele>3.0</ele><time>2026-05-02T05:58:31.026Z</time></trkpt><trkpt lat="42.5140107" lon="14.141887"><ele>3.0</ele><time>2026-05-02T05:58:32.026Z</time></trkpt><trkpt lat="42.5139156" lon="14.1418148"><ele>3.0</ele><time>2026-05-02T05:58:33.025Z</time></trkpt><trkpt lat="42.5138177" lon="14.1417446"><ele>3.0</ele><time>2026-05-02T05:58:34.026Z</time></trkpt><trkpt lat="42.5137222" lon="14.1416708"><ele>3.5999999999999996</ele><time>2026-05-02T05:58:35.026Z</time></trkpt><trkpt lat="42.5136256" lon="14.1415969"><ele>4.199999999999999</ele><time>2026-05-02T05:58:36.026Z</time></trkpt><trkpt lat="42.5135293" lon="14.1415275"><ele>4.8</ele><time>2026-05-02T05:58:37.026Z</time></trkpt><trkpt lat="42.5134362" lon="14.1414596"><ele>5.3999999999999995</ele><time>2026-05-02T05:58:38.026Z</time></trkpt><trkpt lat="42.5133478" lon="14.1414"><ele>6.0</ele><time>2026-05-02T05:58:39.026Z</time></trkpt><trkpt lat="42.5132625" lon="14.1413407"><ele>6.0</ele><time>2026-05-02T05:58:40.025Z</time></trkpt><trkpt lat="42.5131799" lon="14.1412726"><ele>6.0</ele><time>2026-05-02T05:58:41.026Z</time></trkpt><trkpt lat="42.5130995" lon="14.1411961"><ele>6.0</ele><time>2026-05-02T05:58:42.025Z</time></trkpt><trkpt lat="42.5130261" lon="14.1411021"><ele>6.0</ele><time>2026-05-02T05:58:43.025Z</time></trkpt><trkpt lat="42.5129662" lon="14.1409956"><ele>6.0</ele><time>2026-05-02T05:58:44.026Z</time></trkpt><trkpt lat="42.5129179" lon="14.1408778"><ele>6.0</ele><time>2026-05-02T05:58:45.026Z</time></trkpt><trkpt lat="42.5128802" lon="14.1407523"><ele>6.0</ele><time>2026-05-02T05:58:46.026Z</time></trkpt><trkpt lat="42.5128558" lon="14.1406174"><ele>6.0</ele><time>2026-05-02T05:58:47.026Z</time></trkpt><trkpt lat="42.5128451" lon="14.1404799"><ele>6.0</ele><time>2026-05-02T05:58:48.025Z</time></trkpt><trkpt lat="42.5128506" lon="14.1403354"><ele>6.0</ele><time>2026-05-02T05:58:49.026Z</time></trkpt><trkpt lat="42.512879" lon="14.1401902"><ele>6.0</ele><time>2026-05-02T05:58:50.026Z</time></trkpt><trkpt lat="42.5129212" lon="14.140046"><ele>6.0</ele><time>2026-05-02T05:58:51.026Z</time></trkpt><trkpt lat="42.5129772" lon="14.1398958"><ele>6.0</ele><time>2026-05-02T05:58:52.026Z</time></trkpt><trkpt lat="42.5130355" lon="14.1397426"><ele>6.0</ele><time>2026-05-02T05:58:53.026Z</time></trkpt><trkpt lat="42.5130949" lon="14.1395834"><ele>6.25</ele><time>2026-05-02T05:58:54.026Z</time></trkpt><trkpt lat="42.5131581" lon="14.139422"><ele>6.5</ele><time>2026-05-02T05:58:55.026Z</time></trkpt><trkpt lat="42.5132218" lon="14.1392578"><ele>6.75</ele><time>2026-05-02T05:58:56.026Z</time></trkpt><trkpt lat="42.5132865" lon="14.1390876"><ele>7.0</ele><time>2026-05-02T05:58:57.026Z</time></trkpt><trkpt lat="42.5133518" lon="14.1389254"><ele>6.5</ele><time>2026-05-02T05:58:58.026Z</time></trkpt><trkpt lat="42.5134124" lon="14.1387704"><ele>6.0</ele><time>2026-05-02T05:58:59.026Z</time></trkpt><trkpt lat="42.5134668" lon="14.1386274"><ele>5.5</ele><time>2026-05-02T05:59:00.025Z</time></trkpt><trkpt lat="42.5135209" lon="14.1384941"><ele>5.0</ele><time>2026-05-02T05:59:01.026Z</time></trkpt><trkpt lat="42.5135728" lon="14.1383644"><ele>5.0</ele><time>2026-05-02T05:59:02.026Z</time></trkpt><trkpt lat="42.5136191" lon="14.13824"><ele>5.0</ele><time>2026-05-02T05:59:03.026Z</time></trkpt><trkpt lat="42.5136658" lon="14.1381281"><ele>5.0</ele><time>2026-05-02T05:59:04.026Z</time></trkpt><trkpt lat="42.5137036" lon="14.1380321"><ele>5.0</ele><time>2026-05-02T05:59:05.026Z</time></trkpt><trkpt lat="42.5137334" lon="14.1379517"><ele>5.0</ele><time>2026-05-02T05:59:06.025Z</time></trkpt><trkpt lat="42.513785" lon="14.1378351"><ele>5.0</ele><time>2026-05-02T05:59:08.026Z</time></trkpt><trkpt lat="42.5138259" lon="14.1377558"><ele>5.2</ele><time>2026-05-02T05:59:10.026Z</time></trkpt><trkpt lat="42.5138869" lon="14.1376455"><ele>5.4</ele><time>2026-05-02T05:59:12.026Z</time></trkpt><trkpt lat="42.5139149" lon="14.1375168"><ele>5.6</ele><time>2026-05-02T05:59:14.026Z</time></trkpt><trkpt lat="42.5138578" lon="14.1374003"><ele>5.8</ele><time>2026-05-02T05:59:16.026Z</time></trkpt><trkpt lat="42.5137962" lon="14.1373547"><ele>6.0</ele><time>2026-05-02T05:59:17.026Z</time></trkpt><trkpt lat="42.5137291" lon="14.1372962"><ele>5.6</ele><time>2026-05-02T05:59:18.026Z</time></trkpt><trkpt lat="42.5136678" lon="14.1372043"><ele>5.199999999999999</ele><time>2026-05-02T05:59:19.026Z</time></trkpt><trkpt lat="42.513615" lon="14.1370888"><ele>4.800000000000001</ele><time>2026-05-02T05:59:20.026Z</time></trkpt><trkpt lat="42.5135692" lon="14.1369526"><ele>4.4</ele><time>2026-05-02T05:59:21.026Z</time></trkpt><trkpt lat="42.5135212" lon="14.1368042"><ele>4.0</ele><time>2026-05-02T05:59:22.026Z</time></trkpt><trkpt lat="42.5134753" lon="14.1366432"><ele>3.75</ele><time>2026-05-02T05:59:23.026Z</time></trkpt><trkpt lat="42.5134341" lon="14.1364702"><ele>3.5</ele><time>2026-05-02T05:59:24.026Z</time></trkpt><trkpt lat="42.5133937" lon="14.1362897"><ele>3.25</ele><time>2026-05-02T05:59:25.026Z</time></trkpt><trkpt lat="42.513348" lon="14.1361073"><ele>3.0</ele><time>2026-05-02T05:59:26.025Z</time></trkpt><trkpt lat="42.5132924" lon="14.135927"><ele>3.0</ele><time>2026-05-02T05:59:27.026Z</time></trkpt><trkpt lat="42.5132226" lon="14.1357537"><ele>3.0</ele><time>2026-05-02T05:59:28.026Z</time></trkpt><trkpt lat="42.5131401" lon="14.1355859"><ele>3.0</ele><time>2026-05-02T05:59:29.026Z</time></trkpt><trkpt lat="42.5130477" lon="14.1354259"><ele>3.0</ele><time>2026-05-02T05:59:30.026Z</time></trkpt><trkpt lat="42.5129412" lon="14.1352795"><ele>3.0</ele><time>2026-05-02T05:59:31.026Z</time></trkpt><trkpt lat="42.512819" lon="14.1351505"><ele>3.0</ele><time>2026-05-02T05:59:32.026Z</time></trkpt><trkpt lat="42.5126893" lon="14.1350359"><ele>3.0</ele><time>2026-05-02T05:59:33.026Z</time></trkpt><trkpt lat="42.5125541" lon="14.134931"><ele>2.5</ele><time>2026-05-02T05:59:34.026Z</time></trkpt><trkpt lat="42.5124148" lon="14.1348389"><ele>2.0</ele><time>2026-05-02T05:59:35.026Z</time></trkpt><trkpt lat="42.5122844" lon="14.1347566"><ele>1.5</ele><time>2026-05-02T05:59:36.026Z</time></trkpt><trkpt lat="42.5121788" lon="14.1346821"><ele>1.0</ele><time>2026-05-02T05:59:37.026Z</time></trkpt><trkpt lat="42.5120953" lon="14.1346247"><ele>1.6666666666666665</ele><time>2026-05-02T05:59:38.026Z</time></trkpt><trkpt lat="42.5120209" lon="14.1345747"><ele>2.3333333333333335</ele><time>2026-05-02T05:59:39.026Z</time></trkpt><trkpt lat="42.5119476" lon="14.1345205"><ele>3.0</ele><time>2026-05-02T05:59:40.026Z</time></trkpt><trkpt lat="42.5118696" lon="14.1344574"><ele>3.666666666666667</ele><time>2026-05-02T05:59:41.026Z</time></trkpt><trkpt lat="42.5117948" lon="14.1343885"><ele>4.333333333333334</ele><time>2026-05-02T05:59:42.026Z</time></trkpt><trkpt lat="42.5117281" lon="14.134309"><ele>5.0</ele><time>2026-05-02T05:59:43.026Z</time></trkpt><trkpt lat="42.5116698" lon="14.1342162"><ele>5.0</ele><time>2026-05-02T05:59:44.026Z</time></trkpt><trkpt lat="42.5116146" lon="14.134117"><ele>5.0</ele><time>2026-05-02T05:59:45.026Z</time></trkpt><trkpt lat="42.5115607" lon="14.1340059"><ele>5.0</ele><time>2026-05-02T05:59:46.026Z</time></trkpt><trkpt lat="42.5115002" lon="14.1338837"><ele>5.0</ele><time>2026-05-02T05:59:47.025Z</time></trkpt><trkpt lat="42.5114334" lon="14.1337447"><ele>5.0</ele><time>2026-05-02T05:59:48.026Z</time></trkpt><trkpt lat="42.5113602" lon="14.1335956"><ele>5.0</ele><time>2026-05-02T05:59:49.026Z</time></trkpt><trkpt lat="42.5112792" lon="14.1334408"><ele>5.0</ele><time>2026-05-02T05:59:50.026Z</time></trkpt><trkpt lat="42.511187" lon="14.1332776"><ele>5.0</ele><time>2026-05-02T05:59:51.026Z</time></trkpt><trkpt lat="42.5110836" lon="14.1331082"><ele>5.333333333333334</ele><time>2026-05-02T05:59:52.026Z</time></trkpt><trkpt lat="42.5109783" lon="14.1329286"><ele>5.666666666666667</ele><time>2026-05-02T05:59:53.026Z</time></trkpt><trkpt lat="42.5108706" lon="14.1327377"><ele>6.0</ele><time>2026-05-02T05:59:54.026Z</time></trkpt><trkpt lat="42.5107642" lon="14.1325406"><ele>5.333333333333333</ele><time>2026-05-02T05:59:55.025Z</time></trkpt><trkpt lat="42.510662" lon="14.1323365"><ele>4.666666666666666</ele><time>2026-05-02T05:59:56.026Z</time></trkpt><trkpt lat="42.5105535" lon="14.1321311"><ele>4.0</ele><time>2026-05-02T05:59:57.026Z</time></trkpt><trkpt lat="42.5104416" lon="14.1319285"><ele>4.333333333333333</ele><time>2026-05-02T05:59:58.026Z</time></trkpt><trkpt lat="42.5103285" lon="14.1317244"><ele>4.666666666666667</ele><time>2026-05-02T05:59:59.026Z</time></trkpt><trkpt lat="42.5102145" lon="14.1315209"><ele>5.0</ele><time>2026-05-02T06:00:00.025Z</time></trkpt><trkpt lat="42.5101004" lon="14.13132"><ele>5.0</ele><time>2026-05-02T06:00:01.026Z</time></trkpt><trkpt lat="42.5099835" lon="14.131128"><ele>5.0</ele><time>2026-05-02T06:00:02.026Z</time></trkpt><trkpt lat="42.5098641" lon="14.1309456"><ele>5.0</ele><time>2026-05-02T06:00:03.026Z</time></trkpt><trkpt lat="42.5097461" lon="14.1307698"><ele>5.666666666666667</ele><time>2026-05-02T06:00:04.026Z</time></trkpt><trkpt lat="42.509635" lon="14.1306001"><ele>6.333333333333334</ele><time>2026-05-02T06:00:05.026Z</time></trkpt><trkpt lat="42.5095328" lon="14.1304422"><ele>7.0</ele><time>2026-05-02T06:00:06.026Z</time></trkpt><trkpt lat="42.5094415" lon="14.1302993"><ele>7.0</ele><time>2026-05-02T06:00:07.026Z</time></trkpt><trkpt lat="42.5093528" lon="14.1301702"><ele>6.999999999999999</ele><time>2026-05-02T06:00:08.026Z</time></trkpt><trkpt lat="42.5092721" lon="14.1300533"><ele>6.999999999999999</ele><time>2026-05-02T06:00:09.026Z</time></trkpt><trkpt lat="42.5091988" lon="14.1299513"><ele>7.0</ele><time>2026-05-02T06:00:10.026Z</time></trkpt><trkpt lat="42.509145" lon="14.129869"><ele>7.0</ele><time>2026-05-02T06:00:11.026Z</time></trkpt><trkpt lat="42.5090897" lon="14.1297496"><ele>6.6</ele><time>2026-05-02T06:00:13.026Z</time></trkpt><trkpt lat="42.5090633" lon="14.1296327"><ele>6.199999999999999</ele><time>2026-05-02T06:00:15.025Z</time></trkpt><trkpt lat="42.5090225" lon="14.1294762"><ele>5.8</ele><time>2026-05-02T06:00:17.026Z</time></trkpt><trkpt lat="42.5089795" lon="14.1293979"><ele>5.4</ele><time>2026-05-02T06:00:18.026Z</time></trkpt><trkpt lat="42.5089102" lon="14.129329"><ele>5.0</ele><time>2026-05-02T06:00:19.025Z</time></trkpt><trkpt lat="42.5088212" lon="14.129259"><ele>5.25</ele><time>2026-05-02T06:00:20.026Z</time></trkpt><trkpt lat="42.5087254" lon="14.1291655"><ele>5.5</ele><time>2026-05-02T06:00:21.026Z</time></trkpt><trkpt lat="42.5086404" lon="14.1290397"><ele>5.75</ele><time>2026-05-02T06:00:22.026Z</time></trkpt><trkpt lat="42.5085571" lon="14.1288916"><ele>6.0</ele><time>2026-05-02T06:00:23.026Z</time></trkpt><trkpt lat="42.5084669" lon="14.1287293"><ele>6.0</ele><time>2026-05-02T06:00:24.025Z</time></trkpt><trkpt lat="42.5083729" lon="14.1285551"><ele>6.0</ele><time>2026-05-02T06:00:25.026Z</time></trkpt><trkpt lat="42.5082723" lon="14.1283736"><ele>6.0</ele><time>2026-05-02T06:00:26.026Z</time></trkpt><trkpt lat="42.5081661" lon="14.1281869"><ele>5.666666666666667</ele><time>2026-05-02T06:00:27.025Z</time></trkpt><trkpt lat="42.5080547" lon="14.1279909"><ele>5.333333333333334</ele><time>2026-05-02T06:00:28.026Z</time></trkpt><trkpt lat="42.5079414" lon="14.1277873"><ele>5.0</ele><time>2026-05-02T06:00:29.026Z</time></trkpt><trkpt lat="42.5078257" lon="14.1275785"><ele>6.0</ele><time>2026-05-02T06:00:30.026Z</time></trkpt><trkpt lat="42.5077076" lon="14.1273674"><ele>7.0</ele><time>2026-05-02T06:00:31.026Z</time></trkpt><trkpt lat="42.5075876" lon="14.1271539"><ele>8.0</ele><time>2026-05-02T06:00:32.026Z</time></trkpt><trkpt lat="42.5074668" lon="14.1269393"><ele>8.0</ele><time>2026-05-02T06:00:33.025Z</time></trkpt><trkpt lat="42.5073457" lon="14.1267246"><ele>8.0</ele><time>2026-05-02T06:00:34.025Z</time></trkpt><trkpt lat="42.5072241" lon="14.1265107"><ele>8.0</ele><time>2026-05-02T06:00:35.026Z</time></trkpt><trkpt lat="42.5071004" lon="14.1262993"><ele>8.0</ele><time>2026-05-02T06:00:36.026Z</time></trkpt><trkpt lat="42.5069751" lon="14.1260933"><ele>8.0</ele><time>2026-05-02T06:00:37.026Z</time></trkpt><trkpt lat="42.5068482" lon="14.12589"><ele>8.0</ele><time>2026-05-02T06:00:38.026Z</time></trkpt><trkpt lat="42.5067181" lon="14.1256924"><ele>8.0</ele><time>2026-05-02T06:00:39.026Z</time></trkpt><trkpt lat="42.5065854" lon="14.1255017"><ele>8.0</ele><time>2026-05-02T06:00:40.026Z</time></trkpt><trkpt lat="42.506449" lon="14.1253157"><ele>8.0</ele><time>2026-05-02T06:00:41.026Z</time></trkpt><trkpt lat="42.5063121" lon="14.1251336"><ele>8.333333333333332</ele><time>2026-05-02T06:00:42.026Z</time></trkpt><trkpt lat="42.5061764" lon="14.1249554"><ele>8.666666666666666</ele><time>2026-05-02T06:00:43.026Z</time></trkpt><trkpt lat="42.5060409" lon="14.1247809"><ele>9.0</ele><time>2026-05-02T06:00:44.026Z</time></trkpt><trkpt lat="42.5059001" lon="14.1246106"><ele>9.0</ele><time>2026-05-02T06:00:45.026Z</time></trkpt><trkpt lat="42.505755" lon="14.1244437"><ele>9.0</ele><time>2026-05-02T06:00:46.026Z</time></trkpt><trkpt lat="42.505604" lon="14.1242802"><ele>9.0</ele><time>2026-05-02T06:00:47.026Z</time></trkpt><trkpt lat="42.5054513" lon="14.1241209"><ele>8.333333333333334</ele><time>2026-05-02T06:00:48.026Z</time></trkpt><trkpt lat="42.5052962" lon="14.1239677"><ele>7.666666666666667</ele><time>2026-05-02T06:00:49.026Z</time></trkpt><trkpt lat="42.5051388" lon="14.1238162"><ele>7.0</ele><time>2026-05-02T06:00:50.026Z</time></trkpt><trkpt lat="42.5049834" lon="14.1236643"><ele>7.0</ele><time>2026-05-02T06:00:51.026Z</time></trkpt><trkpt lat="42.5048277" lon="14.1235156"><ele>7.0</ele><time>2026-05-02T06:00:52.026Z</time></trkpt><trkpt lat="42.5046712" lon="14.1233698"><ele>7.0</ele><time>2026-05-02T06:00:53.026Z</time></trkpt><trkpt lat="42.5045149" lon="14.1232236"><ele>8.0</ele><time>2026-05-02T06:00:54.026Z</time></trkpt><trkpt lat="42.5043593" lon="14.1230807"><ele>9.0</ele><time>2026-05-02T06:00:55.026Z</time></trkpt><trkpt lat="42.5042044" lon="14.1229408"><ele>10.0</ele><time>2026-05-02T06:00:56.026Z</time></trkpt><trkpt lat="42.5040503" lon="14.122803"><ele>10.0</ele><time>2026-05-02T06:00:57.025Z</time></trkpt><trkpt lat="42.5038982" lon="14.1226685"><ele>10.0</ele><time>2026-05-02T06:00:58.026Z</time></trkpt><trkpt lat="42.5037514" lon="14.1225333"><ele>10.0</ele><time>2026-05-02T06:00:59.026Z</time></trkpt><trkpt lat="42.5036129" lon="14.1224064"><ele>9.75</ele><time>2026-05-02T06:01:00.026Z</time></trkpt><trkpt lat="42.5034846" lon="14.1222876"><ele>9.5</ele><time>2026-05-02T06:01:01.026Z</time></trkpt><trkpt lat="42.5033645" lon="14.1221802"><ele>9.25</ele><time>2026-05-02T06:01:02.026Z</time></trkpt><trkpt lat="42.5032564" lon="14.1220816"><ele>9.0</ele><time>2026-05-02T06:01:03.026Z</time></trkpt><trkpt lat="42.5031593" lon="14.1219916"><ele>9.0</ele><time>2026-05-02T06:01:04.025Z</time></trkpt><trkpt lat="42.5030733" lon="14.1219115"><ele>9.0</ele><time>2026-05-02T06:01:05.026Z</time></trkpt><trkpt lat="42.502998" lon="14.1218383"><ele>9.0</ele><time>2026-05-02T06:01:06.026Z</time></trkpt><trkpt lat="42.5029372" lon="14.1217637"><ele>9.0</ele><time>2026-05-02T06:01:07.026Z</time></trkpt><trkpt lat="42.5028847" lon="14.1216849"><ele>9.0</ele><time>2026-05-02T06:01:08.026Z</time></trkpt><trkpt lat="42.5028412" lon="14.1215949"><ele>9.0</ele><time>2026-05-02T06:01:09.025Z</time></trkpt><trkpt lat="42.5028059" lon="14.1215023"><ele>8.833333333333334</ele><time>2026-05-02T06:01:10.025Z</time></trkpt><trkpt lat="42.5027646" lon="14.1214164"><ele>8.666666666666666</ele><time>2026-05-02T06:01:11.026Z</time></trkpt><trkpt lat="42.5027099" lon="14.1213547"><ele>8.5</ele><time>2026-05-02T06:01:12.026Z</time></trkpt><trkpt lat="42.502645" lon="14.1213207"><ele>8.333333333333332</ele><time>2026-05-02T06:01:13.026Z</time></trkpt><trkpt lat="42.5025607" lon="14.121311"><ele>8.166666666666666</ele><time>2026-05-02T06:01:14.026Z</time></trkpt><trkpt lat="42.5024652" lon="14.121309"><ele>8.0</ele><time>2026-05-02T06:01:15.026Z</time></trkpt><trkpt lat="42.5023543" lon="14.1212956"><ele>8.0</ele><time>2026-05-02T06:01:16.026Z</time></trkpt><trkpt lat="42.5022385" lon="14.1212472"><ele>8.0</ele><time>2026-05-02T06:01:17.026Z</time></trkpt><trkpt lat="42.5021145" lon="14.1211797"><ele>8.0</ele><time>2026-05-02T06:01:18.025Z</time></trkpt><trkpt lat="42.5019839" lon="14.1211016"><ele>8.0</ele><time>2026-05-02T06:01:19.026Z</time></trkpt><trkpt lat="42.5018439" lon="14.1210241"><ele>8.666666666666666</ele><time>2026-05-02T06:01:20.026Z</time></trkpt><trkpt lat="42.5016962" lon="14.1209483"><ele>9.333333333333334</ele><time>2026-05-02T06:01:21.026Z</time></trkpt><trkpt lat="42.5015412" lon="14.1208791"><ele>10.0</ele><time>2026-05-02T06:01:22.026Z</time></trkpt><trkpt lat="42.5013821" lon="14.1208252"><ele>10.0</ele><time>2026-05-02T06:01:23.026Z</time></trkpt><trkpt lat="42.5012317" lon="14.1207808"><ele>10.0</ele><time>2026-05-02T06:01:24.026Z</time></trkpt><trkpt lat="42.5010901" lon="14.120726"><ele>10.0</ele><time>2026-05-02T06:01:25.025Z</time></trkpt><trkpt lat="42.5009496" lon="14.1206641"><ele>10.0</ele><time>2026-05-02T06:01:26.025Z</time></trkpt><trkpt lat="42.5008138" lon="14.1205918"><ele>10.333333333333334</ele><time>2026-05-02T06:01:27.026Z</time></trkpt><trkpt lat="42.5006781" lon="14.1205038"><ele>10.666666666666666</ele><time>2026-05-02T06:01:28.026Z</time></trkpt><trkpt lat="42.5005444" lon="14.120409"><ele>11.0</ele><time>2026-05-02T06:01:29.026Z</time></trkpt><trkpt lat="42.5004109" lon="14.1203158"><ele>11.75</ele><time>2026-05-02T06:01:30.025Z</time></trkpt><trkpt lat="42.5002779" lon="14.1202244"><ele>12.5</ele><time>2026-05-02T06:01:31.025Z</time></trkpt><trkpt lat="42.5001499" lon="14.1201365"><ele>13.25</ele><time>2026-05-02T06:01:32.026Z</time></trkpt><trkpt lat="42.500031" lon="14.1200495"><ele>14.0</ele><time>2026-05-02T06:01:33.026Z</time></trkpt><trkpt lat="42.4999281" lon="14.1199696"><ele>14.000000000000002</ele><time>2026-05-02T06:01:34.026Z</time></trkpt><trkpt lat="42.4998431" lon="14.1199084"><ele>14.0</ele><time>2026-05-02T06:01:35.026Z</time></trkpt><trkpt lat="42.4997578" lon="14.1198737"><ele>14.0</ele><time>2026-05-02T06:01:36.026Z</time></trkpt><trkpt lat="42.4996759" lon="14.1198767"><ele>14.0</ele><time>2026-05-02T06:01:37.026Z</time></trkpt><trkpt lat="42.4996069" lon="14.1199192"><ele>14.000000000000002</ele><time>2026-05-02T06:01:38.026Z</time></trkpt><trkpt lat="42.4995451" lon="14.1199907"><ele>14.0</ele><time>2026-05-02T06:01:39.026Z</time></trkpt><trkpt lat="42.4994771" lon="14.1200968"><ele>14.25</ele><time>2026-05-02T06:01:40.026Z</time></trkpt><trkpt lat="42.4993996" lon="14.120217"><ele>14.5</ele><time>2026-05-02T06:01:41.026Z</time></trkpt><trkpt lat="42.4993057" lon="14.1203453"><ele>14.75</ele><time>2026-05-02T06:01:42.025Z</time></trkpt><trkpt lat="42.4992057" lon="14.1204798"><ele>15.0</ele><time>2026-05-02T06:01:43.026Z</time></trkpt><trkpt lat="42.4991001" lon="14.1206148"><ele>15.0</ele><time>2026-05-02T06:01:44.025Z</time></trkpt><trkpt lat="42.4989902" lon="14.1207559"><ele>15.0</ele><time>2026-05-02T06:01:45.026Z</time></trkpt><trkpt lat="42.4988809" lon="14.1208913"><ele>15.0</ele><time>2026-05-02T06:01:46.026Z</time></trkpt><trkpt lat="42.4987771" lon="14.1210237"><ele>15.0</ele><time>2026-05-02T06:01:47.026Z</time></trkpt><trkpt lat="42.498677" lon="14.1211504"><ele>15.0</ele><time>2026-05-02T06:01:48.026Z</time></trkpt><trkpt lat="42.4985807" lon="14.1212746"><ele>15.0</ele><time>2026-05-02T06:01:49.025Z</time></trkpt><trkpt lat="42.4984829" lon="14.1213918"><ele>15.0</ele><time>2026-05-02T06:01:50.026Z</time></trkpt><trkpt lat="42.4983773" lon="14.1214997"><ele>15.0</ele><time>2026-05-02T06:01:51.025Z</time></trkpt><trkpt lat="42.4982651" lon="14.1215851"><ele>15.0</ele><time>2026-05-02T06:01:52.026Z</time></trkpt><trkpt lat="42.4981563" lon="14.1216693"><ele>15.0</ele><time>2026-05-02T06:01:53.026Z</time></trkpt><trkpt lat="42.498056" lon="14.1217752"><ele>15.0</ele><time>2026-05-02T06:01:54.025Z</time></trkpt><trkpt lat="42.4979665" lon="14.1218942"><ele>15.0</ele><time>2026-05-02T06:01:55.026Z</time></trkpt><trkpt lat="42.4978857" lon="14.1220205"><ele>15.0</ele><time>2026-05-02T06:01:56.026Z</time></trkpt><trkpt lat="42.4978056" lon="14.122143"><ele>15.0</ele><time>2026-05-02T06:01:57.026Z</time></trkpt><trkpt lat="42.4977263" lon="14.1222635"><ele>15.0</ele><time>2026-05-02T06:01:58.026Z</time></trkpt><trkpt lat="42.4976508" lon="14.1223824"><ele>15.0</ele><time>2026-05-02T06:01:59.026Z</time></trkpt><trkpt lat="42.497577" lon="14.1224996"><ele>14.75</ele><time>2026-05-02T06:02:00.026Z</time></trkpt><trkpt lat="42.4975045" lon="14.1226161"><ele>14.5</ele><time>2026-05-02T06:02:01.026Z</time></trkpt><trkpt lat="42.4974305" lon="14.1227346"><ele>14.25</ele><time>2026-05-02T06:02:02.026Z</time></trkpt><trkpt lat="42.4973582" lon="14.1228538"><ele>14.0</ele><time>2026-05-02T06:02:03.026Z</time></trkpt><trkpt lat="42.497284" lon="14.1229704"><ele>14.0</ele><time>2026-05-02T06:02:04.026Z</time></trkpt><trkpt lat="42.4972075" lon="14.1230854"><ele>14.0</ele><time>2026-05-02T06:02:05.025Z</time></trkpt><trkpt lat="42.4971296" lon="14.1232005"><ele>14.0</ele><time>2026-05-02T06:02:06.026Z</time></trkpt><trkpt lat="42.497054" lon="14.123313"><ele>14.0</ele><time>2026-05-02T06:02:07.026Z</time></trkpt><trkpt lat="42.4969811" lon="14.1234212"><ele>14.399999999999999</ele><time>2026-05-02T06:02:08.026Z</time></trkpt><trkpt lat="42.4969077" lon="14.1235225"><ele>14.799999999999999</ele><time>2026-05-02T06:02:09.026Z</time></trkpt><trkpt lat="42.4968329" lon="14.1236176"><ele>15.200000000000001</ele><time>2026-05-02T06:02:10.025Z</time></trkpt><trkpt lat="42.4967564" lon="14.1237048"><ele>15.600000000000001</ele><time>2026-05-02T06:02:11.026Z</time></trkpt><trkpt lat="42.4966795" lon="14.1237803"><ele>16.0</ele><time>2026-05-02T06:02:12.026Z</time></trkpt><trkpt lat="42.4966054" lon="14.1238506"><ele>15.999999999999998</ele><time>2026-05-02T06:02:13.026Z</time></trkpt><trkpt lat="42.4965351" lon="14.1239192"><ele>16.0</ele><time>2026-05-02T06:02:14.026Z</time></trkpt><trkpt lat="42.4964631" lon="14.123985"><ele>16.0</ele><time>2026-05-02T06:02:15.026Z</time></trkpt><trkpt lat="42.4963888" lon="14.1240532"><ele>16.0</ele><time>2026-05-02T06:02:16.026Z</time></trkpt><trkpt lat="42.4963139" lon="14.1241215"><ele>15.999999999999998</ele><time>2026-05-02T06:02:17.026Z</time></trkpt><trkpt lat="42.4962461" lon="14.1241896"><ele>16.0</ele><time>2026-05-02T06:02:18.026Z</time></trkpt><trkpt lat="42.4961903" lon="14.1242555"><ele>15.8</ele><time>2026-05-02T06:02:19.026Z</time></trkpt><trkpt lat="42.4960969" lon="14.1243534"><ele>15.600000000000001</ele><time>2026-05-02T06:02:21.026Z</time></trkpt><trkpt lat="42.4959855" lon="14.1244239"><ele>15.4</ele><time>2026-05-02T06:02:23.026Z</time></trkpt><trkpt lat="42.495921" lon="14.1244564"><ele>15.2</ele><time>2026-05-02T06:02:24.026Z</time></trkpt><trkpt lat="42.4958548" lon="14.1245046"><ele>15.0</ele><time>2026-05-02T06:02:25.026Z</time></trkpt><trkpt lat="42.4957812" lon="14.1245459"><ele>15.0</ele><time>2026-05-02T06:02:26.026Z</time></trkpt><trkpt lat="42.4956954" lon="14.1245627"><ele>15.0</ele><time>2026-05-02T06:02:27.026Z</time></trkpt><trkpt lat="42.4956001" lon="14.124563"><ele>15.0</ele><time>2026-05-02T06:02:28.025Z</time></trkpt><trkpt lat="42.4954949" lon="14.1245581"><ele>15.0</ele><time>2026-05-02T06:02:29.026Z</time></trkpt><trkpt lat="42.4953848" lon="14.1245596"><ele>15.0</ele><time>2026-05-02T06:02:30.025Z</time></trkpt><trkpt lat="42.4952899" lon="14.1245623"><ele>15.333333333333334</ele><time>2026-05-02T06:02:31.025Z</time></trkpt><trkpt lat="42.4952077" lon="14.1245661"><ele>15.666666666666668</ele><time>2026-05-02T06:02:32.026Z</time></trkpt><trkpt lat="42.49513" lon="14.1245676"><ele>16.0</ele><time>2026-05-02T06:02:33.026Z</time></trkpt><trkpt lat="42.4950354" lon="14.124563"><ele>16.333333333333336</ele><time>2026-05-02T06:02:35.026Z</time></trkpt><trkpt lat="42.4949352" lon="14.1245626"><ele>16.666666666666668</ele><time>2026-05-02T06:02:38.026Z</time></trkpt><trkpt lat="42.494867" lon="14.1245678"><ele>17.0</ele><time>2026-05-02T06:02:40.026Z</time></trkpt><trkpt lat="42.4947612" lon="14.1245739"><ele>17.0</ele><time>2026-05-02T06:02:43.026Z</time></trkpt><trkpt lat="42.4946604" lon="14.1245691"><ele>17.0</ele><time>2026-05-02T06:02:45.025Z</time></trkpt><trkpt lat="42.4945331" lon="14.1245634"><ele>17.0</ele><time>2026-05-02T06:02:47.026Z</time></trkpt><trkpt lat="42.4944651" lon="14.1245695"><ele>17.0</ele><time>2026-05-02T06:02:48.026Z</time></trkpt><trkpt lat="42.4943981" lon="14.124603"><ele>17.0</ele><time>2026-05-02T06:02:49.026Z</time></trkpt><trkpt lat="42.4943397" lon="14.1246655"><ele>17.0</ele><time>2026-05-02T06:02:50.026Z</time></trkpt><trkpt lat="42.4942801" lon="14.1247447"><ele>17.166666666666668</ele><time>2026-05-02T06:02:51.026Z</time></trkpt><trkpt lat="42.494214" lon="14.1248276"><ele>17.333333333333336</ele><time>2026-05-02T06:02:52.026Z</time></trkpt><trkpt lat="42.4941481" lon="14.1249078"><ele>17.5</ele><time>2026-05-02T06:02:53.026Z</time></trkpt><trkpt lat="42.494094" lon="14.1249813"><ele>17.666666666666668</ele><time>2026-05-02T06:02:54.025Z</time></trkpt><trkpt lat="42.4940376" lon="14.1250775"><ele>17.833333333333332</ele><time>2026-05-02T06:02:56.026Z</time></trkpt><trkpt lat="42.4939988" lon="14.1251646"><ele>18.0</ele><time>2026-05-02T06:02:58.026Z</time></trkpt><trkpt lat="42.4939567" lon="14.1252619"><ele>18.0</ele><time>2026-05-02T06:03:00.026Z</time></trkpt><trkpt lat="42.4939042" lon="14.125341"><ele>18.0</ele><time>2026-05-02T06:03:03.026Z</time></trkpt><trkpt lat="42.4938316" lon="14.1253439"><ele>18.0</ele><time>2026-05-02T06:03:05.025Z</time></trkpt><trkpt lat="42.4937313" lon="14.1252543"><ele>18.0</ele><time>2026-05-02T06:03:07.026Z</time></trkpt><trkpt lat="42.493624" lon="14.1251511"><ele>18.0</ele><time>2026-05-02T06:03:09.026Z</time></trkpt><trkpt lat="42.493565" lon="14.1251021"><ele>18.166666666666668</ele><time>2026-05-02T06:03:10.026Z</time></trkpt><trkpt lat="42.4935066" lon="14.1250544"><ele>18.333333333333332</ele><time>2026-05-02T06:03:11.026Z</time></trkpt><trkpt lat="42.4934408" lon="14.1250051"><ele>18.5</ele><time>2026-05-02T06:03:12.025Z</time></trkpt><trkpt lat="42.4933682" lon="14.1249538"><ele>18.666666666666664</ele><time>2026-05-02T06:03:13.026Z</time></trkpt><trkpt lat="42.4932892" lon="14.1248909"><ele>18.833333333333332</ele><time>2026-05-02T06:03:14.026Z</time></trkpt><trkpt lat="42.4932027" lon="14.1248192"><ele>19.0</ele><time>2026-05-02T06:03:15.026Z</time></trkpt><trkpt lat="42.4931119" lon="14.1247398"><ele>19.0</ele><time>2026-05-02T06:03:16.025Z</time></trkpt><trkpt lat="42.4930144" lon="14.1246571"><ele>19.0</ele><time>2026-05-02T06:03:17.026Z</time></trkpt><trkpt lat="42.4929134" lon="14.1245711"><ele>19.0</ele><time>2026-05-02T06:03:18.026Z</time></trkpt><trkpt lat="42.4928069" lon="14.1244805"><ele>19.0</ele><time>2026-05-02T06:03:19.025Z</time></trkpt><trkpt lat="42.492696" lon="14.1243887"><ele>19.0</ele><time>2026-05-02T06:03:20.026Z</time></trkpt><trkpt lat="42.4925846" lon="14.1243"><ele>19.0</ele><time>2026-05-02T06:03:21.026Z</time></trkpt><trkpt lat="42.4924689" lon="14.1242107"><ele>19.0</ele><time>2026-05-02T06:03:22.026Z</time></trkpt><trkpt lat="42.4923536" lon="14.1241157"><ele>19.0</ele><time>2026-05-02T06:03:23.026Z</time></trkpt><trkpt lat="42.4922376" lon="14.1240174"><ele>19.0</ele><time>2026-05-02T06:03:24.026Z</time></trkpt><trkpt lat="42.4921215" lon="14.12392"><ele>19.0</ele><time>2026-05-02T06:03:25.026Z</time></trkpt><trkpt lat="42.4920007" lon="14.1238241"><ele>19.0</ele><time>2026-05-02T06:03:26.026Z</time></trkpt><trkpt lat="42.4918796" lon="14.1237301"><ele>19.0</ele><time>2026-05-02T06:03:27.026Z</time></trkpt><trkpt lat="42.4917618" lon="14.1236333"><ele>19.5</ele><time>2026-05-02T06:03:28.026Z</time></trkpt><trkpt lat="42.4916425" lon="14.1235376"><ele>20.0</ele><time>2026-05-02T06:03:29.026Z</time></trkpt><trkpt lat="42.491523" lon="14.1234481"><ele>20.5</ele><time>2026-05-02T06:03:30.026Z</time></trkpt><trkpt lat="42.4914062" lon="14.1233531"><ele>21.0</ele><time>2026-05-02T06:03:31.026Z</time></trkpt><trkpt lat="42.4912869" lon="14.1232584"><ele>21.5</ele><time>2026-05-02T06:03:32.026Z</time></trkpt><trkpt lat="42.491168" lon="14.1231633"><ele>22.0</ele><time>2026-05-02T06:03:33.026Z</time></trkpt><trkpt lat="42.4910485" lon="14.1230696"><ele>22.5</ele><time>2026-05-02T06:03:34.026Z</time></trkpt><trkpt lat="42.4909296" lon="14.122978"><ele>23.0</ele><time>2026-05-02T06:03:35.026Z</time></trkpt><trkpt lat="42.4908149" lon="14.1228918"><ele>23.0</ele><time>2026-05-02T06:03:36.025Z</time></trkpt><trkpt lat="42.4907079" lon="14.122808"><ele>23.0</ele><time>2026-05-02T06:03:37.026Z</time></trkpt><trkpt lat="42.490606" lon="14.1227235"><ele>23.0</ele><time>2026-05-02T06:03:38.026Z</time></trkpt><trkpt lat="42.4905066" lon="14.1226405"><ele>23.0</ele><time>2026-05-02T06:03:39.025Z</time></trkpt><trkpt lat="42.4904109" lon="14.1225643"><ele>23.0</ele><time>2026-05-02T06:03:40.026Z</time></trkpt><trkpt lat="42.4903109" lon="14.1224857"><ele>23.0</ele><time>2026-05-02T06:03:41.026Z</time></trkpt><trkpt lat="42.490211" lon="14.1224057"><ele>23.0</ele><time>2026-05-02T06:03:42.026Z</time></trkpt><trkpt lat="42.4901055" lon="14.1223191"><ele>23.0</ele><time>2026-05-02T06:03:43.026Z</time></trkpt><trkpt lat="42.4899966" lon="14.1222346"><ele>22.75</ele><time>2026-05-02T06:03:44.025Z</time></trkpt><trkpt lat="42.4898849" lon="14.1221419"><ele>22.5</ele><time>2026-05-02T06:03:45.026Z</time></trkpt><trkpt lat="42.489768" lon="14.1220452"><ele>22.25</ele><time>2026-05-02T06:03:46.025Z</time></trkpt><trkpt lat="42.489649" lon="14.1219484"><ele>22.0</ele><time>2026-05-02T06:03:47.026Z</time></trkpt><trkpt lat="42.4895289" lon="14.121852"><ele>22.25</ele><time>2026-05-02T06:03:48.026Z</time></trkpt><trkpt lat="42.4894067" lon="14.1217497"><ele>22.5</ele><time>2026-05-02T06:03:49.025Z</time></trkpt><trkpt lat="42.4892814" lon="14.1216464"><ele>22.75</ele><time>2026-05-02T06:03:50.026Z</time></trkpt><trkpt lat="42.4891571" lon="14.1215442"><ele>23.0</ele><time>2026-05-02T06:03:51.026Z</time></trkpt><trkpt lat="42.4890339" lon="14.1214437"><ele>23.0</ele><time>2026-05-02T06:03:52.026Z</time></trkpt><trkpt lat="42.488908" lon="14.1213446"><ele>23.0</ele><time>2026-05-02T06:03:53.026Z</time></trkpt><trkpt lat="42.4887843" lon="14.1212451"><ele>23.0</ele><time>2026-05-02T06:03:54.026Z</time></trkpt><trkpt lat="42.4886613" lon="14.1211469"><ele>23.0</ele><time>2026-05-02T06:03:55.025Z</time></trkpt><trkpt lat="42.4885386" lon="14.121052"><ele>23.25</ele><time>2026-05-02T06:03:56.026Z</time></trkpt><trkpt lat="42.4884183" lon="14.120954"><ele>23.5</ele><time>2026-05-02T06:03:57.026Z</time></trkpt><trkpt lat="42.4883016" lon="14.1208558"><ele>23.75</ele><time>2026-05-02T06:03:58.026Z</time></trkpt><trkpt lat="42.4881878" lon="14.120766"><ele>24.0</ele><time>2026-05-02T06:03:59.026Z</time></trkpt><trkpt lat="42.4880762" lon="14.1206841"><ele>24.0</ele><time>2026-05-02T06:04:00.026Z</time></trkpt><trkpt lat="42.4879725" lon="14.1205986"><ele>24.0</ele><time>2026-05-02T06:04:01.026Z</time></trkpt><trkpt lat="42.4878698" lon="14.1205127"><ele>24.0</ele><time>2026-05-02T06:04:02.025Z</time></trkpt><trkpt lat="42.4877688" lon="14.1204275"><ele>24.0</ele><time>2026-05-02T06:04:03.025Z</time></trkpt><trkpt lat="42.4876663" lon="14.1203469"><ele>24.5</ele><time>2026-05-02T06:04:04.025Z</time></trkpt><trkpt lat="42.4875674" lon="14.1202628"><ele>25.0</ele><time>2026-05-02T06:04:05.025Z</time></trkpt><trkpt lat="42.487469" lon="14.1201816"><ele>25.5</ele><time>2026-05-02T06:04:06.025Z</time></trkpt><trkpt lat="42.4873723" lon="14.1201021"><ele>26.0</ele><time>2026-05-02T06:04:07.026Z</time></trkpt><trkpt lat="42.4872773" lon="14.1200224"><ele>26.0</ele><time>2026-05-02T06:04:08.026Z</time></trkpt><trkpt lat="42.4871814" lon="14.1199456"><ele>26.0</ele><time>2026-05-02T06:04:09.026Z</time></trkpt><trkpt lat="42.4870882" lon="14.1198721"><ele>26.0</ele><time>2026-05-02T06:04:10.026Z</time></trkpt><trkpt lat="42.4869947" lon="14.1198016"><ele>26.0</ele><time>2026-05-02T06:04:11.026Z</time></trkpt><trkpt lat="42.4869038" lon="14.1197269"><ele>26.0</ele><time>2026-05-02T06:04:12.026Z</time></trkpt><trkpt lat="42.4868114" lon="14.1196544"><ele>26.0</ele><time>2026-05-02T06:04:13.026Z</time></trkpt><trkpt lat="42.4867181" lon="14.1195792"><ele>26.0</ele><time>2026-05-02T06:04:14.026Z</time></trkpt><trkpt lat="42.4866238" lon="14.1195018"><ele>26.0</ele><time>2026-05-02T06:04:15.026Z</time></trkpt><trkpt lat="42.4865268" lon="14.1194228"><ele>26.0</ele><time>2026-05-02T06:04:16.026Z</time></trkpt><trkpt lat="42.4864294" lon="14.1193519"><ele>26.0</ele><time>2026-05-02T06:04:17.026Z</time></trkpt><trkpt lat="42.4863336" lon="14.1192788"><ele>25.75</ele><time>2026-05-02T06:04:18.026Z</time></trkpt><trkpt lat="42.4862344" lon="14.1192038"><ele>25.5</ele><time>2026-05-02T06:04:19.025Z</time></trkpt><trkpt lat="42.486137" lon="14.1191209"><ele>25.25</ele><time>2026-05-02T06:04:20.025Z</time></trkpt><trkpt lat="42.4860409" lon="14.1190354"><ele>25.0</ele><time>2026-05-02T06:04:21.025Z</time></trkpt><trkpt lat="42.485939" lon="14.1189541"><ele>25.0</ele><time>2026-05-02T06:04:22.026Z</time></trkpt><trkpt lat="42.4858406" lon="14.1188715"><ele>25.0</ele><time>2026-05-02T06:04:23.026Z</time></trkpt><trkpt lat="42.4857415" lon="14.1187879"><ele>25.0</ele><time>2026-05-02T06:04:24.026Z</time></trkpt><trkpt lat="42.4856427" lon="14.1187068"><ele>25.0</ele><time>2026-05-02T06:04:25.026Z</time></trkpt><trkpt lat="42.4855384" lon="14.1186254"><ele>25.0</ele><time>2026-05-02T06:04:26.026Z</time></trkpt><trkpt lat="42.4854353" lon="14.1185387"><ele>25.0</ele><time>2026-05-02T06:04:27.026Z</time></trkpt><trkpt lat="42.485329" lon="14.118454"><ele>25.0</ele><time>2026-05-02T06:04:28.026Z</time></trkpt><trkpt lat="42.4852192" lon="14.1183712"><ele>25.0</ele><time>2026-05-02T06:04:29.026Z</time></trkpt><trkpt lat="42.4851134" lon="14.1182838"><ele>25.5</ele><time>2026-05-02T06:04:30.026Z</time></trkpt><trkpt lat="42.4850093" lon="14.1181961"><ele>26.0</ele><time>2026-05-02T06:04:31.026Z</time></trkpt><trkpt lat="42.4849084" lon="14.1181108"><ele>26.5</ele><time>2026-05-02T06:04:32.026Z</time></trkpt><trkpt lat="42.4848057" lon="14.1180254"><ele>27.0</ele><time>2026-05-02T06:04:33.026Z</time></trkpt><trkpt lat="42.4847041" lon="14.1179436"><ele>27.0</ele><time>2026-05-02T06:04:34.025Z</time></trkpt><trkpt lat="42.4846039" lon="14.1178577"><ele>27.0</ele><time>2026-05-02T06:04:35.026Z</time></trkpt><trkpt lat="42.484504" lon="14.1177715"><ele>27.0</ele><time>2026-05-02T06:04:36.026Z</time></trkpt><trkpt lat="42.4844017" lon="14.1176922"><ele>27.0</ele><time>2026-05-02T06:04:37.026Z</time></trkpt><trkpt lat="42.4842976" lon="14.117611"><ele>27.0</ele><time>2026-05-02T06:04:38.026Z</time></trkpt><trkpt lat="42.4841921" lon="14.1175279"><ele>27.0</ele><time>2026-05-02T06:04:39.026Z</time></trkpt><trkpt lat="42.484087" lon="14.1174403"><ele>27.0</ele><time>2026-05-02T06:04:40.026Z</time></trkpt><trkpt lat="42.4839781" lon="14.1173551"><ele>27.0</ele><time>2026-05-02T06:04:41.026Z</time></trkpt><trkpt lat="42.4838691" lon="14.1172644"><ele>27.75</ele><time>2026-05-02T06:04:42.025Z</time></trkpt><trkpt lat="42.483758" lon="14.1171745"><ele>28.5</ele><time>2026-05-02T06:04:43.026Z</time></trkpt><trkpt lat="42.4836457" lon="14.1170844"><ele>29.25</ele><time>2026-05-02T06:04:44.026Z</time></trkpt><trkpt lat="42.4835318" lon="14.1169938"><ele>30.0</ele><time>2026-05-02T06:04:45.026Z</time></trkpt><trkpt lat="42.4834187" lon="14.1169026"><ele>30.0</ele><time>2026-05-02T06:04:46.026Z</time></trkpt><trkpt lat="42.4833039" lon="14.1168108"><ele>30.0</ele><time>2026-05-02T06:04:47.026Z</time></trkpt><trkpt lat="42.4831917" lon="14.116717"><ele>30.0</ele><time>2026-05-02T06:04:48.026Z</time></trkpt><trkpt lat="42.4830775" lon="14.1166248"><ele>30.0</ele><time>2026-05-02T06:04:49.026Z</time></trkpt><trkpt lat="42.4829636" lon="14.1165304"><ele>29.75</ele><time>2026-05-02T06:04:50.026Z</time></trkpt><trkpt lat="42.4828522" lon="14.1164366"><ele>29.5</ele><time>2026-05-02T06:04:51.025Z</time></trkpt><trkpt lat="42.4827398" lon="14.1163465"><ele>29.25</ele><time>2026-05-02T06:04:52.026Z</time></trkpt><trkpt lat="42.4826256" lon="14.1162582"><ele>29.0</ele><time>2026-05-02T06:04:53.026Z</time></trkpt><trkpt lat="42.4825118" lon="14.1161669"><ele>29.0</ele><time>2026-05-02T06:04:54.026Z</time></trkpt><trkpt lat="42.4823979" lon="14.116075"><ele>29.0</ele><time>2026-05-02T06:04:55.026Z</time></trkpt><trkpt lat="42.4822811" lon="14.1159846"><ele>29.0</ele><time>2026-05-02T06:04:56.026Z</time></trkpt><trkpt lat="42.4821667" lon="14.1158918"><ele>29.0</ele><time>2026-05-02T06:04:57.026Z</time></trkpt><trkpt lat="42.4820575" lon="14.115799"><ele>30.0</ele><time>2026-05-02T06:04:58.026Z</time></trkpt><trkpt lat="42.4819526" lon="14.1157106"><ele>31.0</ele><time>2026-05-02T06:04:59.026Z</time></trkpt><trkpt lat="42.4818486" lon="14.1156288"><ele>32.0</ele><time>2026-05-02T06:05:00.026Z</time></trkpt><trkpt lat="42.4817412" lon="14.1155477"><ele>33.0</ele><time>2026-05-02T06:05:01.026Z</time></trkpt><trkpt lat="42.4816314" lon="14.1154654"><ele>33.0</ele><time>2026-05-02T06:05:02.026Z</time></trkpt><trkpt lat="42.4815202" lon="14.1153769"><ele>33.0</ele><time>2026-05-02T06:05:03.026Z</time></trkpt><trkpt lat="42.4814082" lon="14.1152837"><ele>33.0</ele><time>2026-05-02T06:05:04.026Z</time></trkpt><trkpt lat="42.4812927" lon="14.1151854"><ele>33.0</ele><time>2026-05-02T06:05:05.025Z</time></trkpt><trkpt lat="42.4811748" lon="14.1150906"><ele>33.0</ele><time>2026-05-02T06:05:06.026Z</time></trkpt><trkpt lat="42.4810594" lon="14.1149924"><ele>33.0</ele><time>2026-05-02T06:05:07.026Z</time></trkpt><trkpt lat="42.4809466" lon="14.1149004"><ele>33.0</ele><time>2026-05-02T06:05:08.026Z</time></trkpt><trkpt lat="42.4808362" lon="14.114814"><ele>33.0</ele><time>2026-05-02T06:05:09.025Z</time></trkpt><trkpt lat="42.4807273" lon="14.1147244"><ele>32.25</ele><time>2026-05-02T06:05:10.026Z</time></trkpt><trkpt lat="42.4806192" lon="14.1146379"><ele>31.5</ele><time>2026-05-02T06:05:11.025Z</time></trkpt><trkpt lat="42.4805107" lon="14.1145511"><ele>30.75</ele><time>2026-05-02T06:05:12.026Z</time></trkpt><trkpt lat="42.4804042" lon="14.1144624"><ele>30.0</ele><time>2026-05-02T06:05:13.026Z</time></trkpt><trkpt lat="42.480299" lon="14.1143748"><ele>30.0</ele><time>2026-05-02T06:05:14.026Z</time></trkpt><trkpt lat="42.4801933" lon="14.1142826"><ele>30.0</ele><time>2026-05-02T06:05:15.026Z</time></trkpt><trkpt lat="42.4800865" lon="14.1142012"><ele>30.0</ele><time>2026-05-02T06:05:16.026Z</time></trkpt><trkpt lat="42.4799793" lon="14.1141184"><ele>30.0</ele><time>2026-05-02T06:05:17.025Z</time></trkpt><trkpt lat="42.4798773" lon="14.1140369"><ele>29.8</ele><time>2026-05-02T06:05:18.026Z</time></trkpt><trkpt lat="42.4797791" lon="14.1139554"><ele>29.6</ele><time>2026-05-02T06:05:19.026Z</time></trkpt><trkpt lat="42.4796849" lon="14.1138743"><ele>29.4</ele><time>2026-05-02T06:05:20.026Z</time></trkpt><trkpt lat="42.4795938" lon="14.1137931"><ele>29.2</ele><time>2026-05-02T06:05:21.026Z</time></trkpt><trkpt lat="42.479507" lon="14.1137159"><ele>29.0</ele><time>2026-05-02T06:05:22.026Z</time></trkpt><trkpt lat="42.4794195" lon="14.1136405"><ele>29.6</ele><time>2026-05-02T06:05:23.026Z</time></trkpt><trkpt lat="42.4793296" lon="14.1135646"><ele>30.2</ele><time>2026-05-02T06:05:24.026Z</time></trkpt><trkpt lat="42.4792397" lon="14.1134943"><ele>30.800000000000004</ele><time>2026-05-02T06:05:25.026Z</time></trkpt><trkpt lat="42.4791493" lon="14.1134213"><ele>31.400000000000002</ele><time>2026-05-02T06:05:26.026Z</time></trkpt><trkpt lat="42.4790588" lon="14.1133445"><ele>32.0</ele><time>2026-05-02T06:05:27.026Z</time></trkpt><trkpt lat="42.4789648" lon="14.1132646"><ele>32.25</ele><time>2026-05-02T06:05:28.026Z</time></trkpt><trkpt lat="42.4788702" lon="14.1131834"><ele>32.5</ele><time>2026-05-02T06:05:29.026Z</time></trkpt><trkpt lat="42.4787731" lon="14.1131042"><ele>32.75</ele><time>2026-05-02T06:05:30.026Z</time></trkpt><trkpt lat="42.4786761" lon="14.1130233"><ele>33.0</ele><time>2026-05-02T06:05:31.026Z</time></trkpt><trkpt lat="42.4785794" lon="14.1129444"><ele>33.0</ele><time>2026-05-02T06:05:32.026Z</time></trkpt><trkpt lat="42.4784852" lon="14.1128684"><ele>33.0</ele><time>2026-05-02T06:05:33.025Z</time></trkpt><trkpt lat="42.4783925" lon="14.112793"><ele>33.0</ele><time>2026-05-02T06:05:34.026Z</time></trkpt><trkpt lat="42.4782981" lon="14.1127195"><ele>33.0</ele><time>2026-05-02T06:05:35.026Z</time></trkpt><trkpt lat="42.4782028" lon="14.1126445"><ele>33.0</ele><time>2026-05-02T06:05:36.026Z</time></trkpt><trkpt lat="42.4781072" lon="14.1125678"><ele>33.0</ele><time>2026-05-02T06:05:37.026Z</time></trkpt><trkpt lat="42.4780106" lon="14.1124911"><ele>33.0</ele><time>2026-05-02T06:05:38.025Z</time></trkpt><trkpt lat="42.4779114" lon="14.1124159"><ele>33.0</ele><time>2026-05-02T06:05:39.025Z</time></trkpt><trkpt lat="42.4778146" lon="14.1123388"><ele>33.0</ele><time>2026-05-02T06:05:40.026Z</time></trkpt><trkpt lat="42.4777074" lon="14.1122693"><ele>33.4</ele><time>2026-05-02T06:05:41.026Z</time></trkpt><trkpt lat="42.4776084" lon="14.1121895"><ele>33.8</ele><time>2026-05-02T06:05:42.026Z</time></trkpt><trkpt lat="42.4775153" lon="14.1121167"><ele>34.2</ele><time>2026-05-02T06:05:43.026Z</time></trkpt><trkpt lat="42.4774235" lon="14.1120468"><ele>34.6</ele><time>2026-05-02T06:05:44.026Z</time></trkpt><trkpt lat="42.4773376" lon="14.1119824"><ele>35.0</ele><time>2026-05-02T06:05:45.025Z</time></trkpt><trkpt lat="42.4772541" lon="14.1119127"><ele>35.0</ele><time>2026-05-02T06:05:46.026Z</time></trkpt><trkpt lat="42.4771681" lon="14.1118412"><ele>35.0</ele><time>2026-05-02T06:05:47.026Z</time></trkpt><trkpt lat="42.4770817" lon="14.1117701"><ele>35.0</ele><time>2026-05-02T06:05:48.026Z</time></trkpt><trkpt lat="42.4769991" lon="14.1116996"><ele>35.0</ele><time>2026-05-02T06:05:49.026Z</time></trkpt><trkpt lat="42.4769217" lon="14.1116301"><ele>35.0</ele><time>2026-05-02T06:05:50.025Z</time></trkpt><trkpt lat="42.4768446" lon="14.111564"><ele>35.0</ele><time>2026-05-02T06:05:51.026Z</time></trkpt><trkpt lat="42.4767708" lon="14.1115032"><ele>35.0</ele><time>2026-05-02T06:05:52.026Z</time></trkpt><trkpt lat="42.4767018" lon="14.1114424"><ele>35.0</ele><time>2026-05-02T06:05:53.026Z</time></trkpt><trkpt lat="42.4766349" lon="14.1113813"><ele>35.0</ele><time>2026-05-02T06:05:54.026Z</time></trkpt><trkpt lat="42.4765764" lon="14.1113297"><ele>35.0</ele><time>2026-05-02T06:05:55.026Z</time></trkpt><trkpt lat="42.476521" lon="14.1112841"><ele>35.0</ele><time>2026-05-02T06:05:56.026Z</time></trkpt><trkpt lat="42.4764359" lon="14.1112094"><ele>35.0</ele><time>2026-05-02T06:05:58.026Z</time></trkpt><trkpt lat="42.4763835" lon="14.1111576"><ele>35.0</ele><time>2026-05-02T06:06:01.026Z</time></trkpt><trkpt lat="42.4763191" lon="14.1110933"><ele>35.0</ele><time>2026-05-02T06:06:09.026Z</time></trkpt><trkpt lat="42.4762833" lon="14.1109755"><ele>35.0</ele><time>2026-05-02T06:06:11.026Z</time></trkpt><trkpt lat="42.4762805" lon="14.1108372"><ele>35.0</ele><time>2026-05-02T06:06:13.026Z</time></trkpt><trkpt lat="42.4762675" lon="14.1107104"><ele>35.0</ele><time>2026-05-02T06:06:15.026Z</time></trkpt><trkpt lat="42.4762126" lon="14.1106363"><ele>35.4</ele><time>2026-05-02T06:06:17.026Z</time></trkpt><trkpt lat="42.4761208" lon="14.1106255"><ele>35.8</ele><time>2026-05-02T06:06:19.026Z</time></trkpt><trkpt lat="42.476015" lon="14.1106814"><ele>36.2</ele><time>2026-05-02T06:06:21.025Z</time></trkpt><trkpt lat="42.4758812" lon="14.1107086"><ele>36.6</ele><time>2026-05-02T06:06:23.025Z</time></trkpt><trkpt lat="42.4758053" lon="14.1106893"><ele>37.0</ele><time>2026-05-02T06:06:24.026Z</time></trkpt><trkpt lat="42.4757217" lon="14.1106411"><ele>37.0</ele><time>2026-05-02T06:06:25.026Z</time></trkpt><trkpt lat="42.4756277" lon="14.1105767"><ele>37.0</ele><time>2026-05-02T06:06:26.026Z</time></trkpt><trkpt lat="42.4755172" lon="14.1105255"><ele>37.0</ele><time>2026-05-02T06:06:27.026Z</time></trkpt><trkpt lat="42.4753953" lon="14.1104925"><ele>37.0</ele><time>2026-05-02T06:06:28.026Z</time></trkpt><trkpt lat="42.4752634" lon="14.11049"><ele>38.75</ele><time>2026-05-02T06:06:29.026Z</time></trkpt><trkpt lat="42.4751337" lon="14.1105071"><ele>40.5</ele><time>2026-05-02T06:06:30.026Z</time></trkpt><trkpt lat="42.4750097" lon="14.1105308"><ele>42.25</ele><time>2026-05-02T06:06:31.025Z</time></trkpt><trkpt lat="42.4748911" lon="14.1105432"><ele>44.0</ele><time>2026-05-02T06:06:32.026Z</time></trkpt><trkpt lat="42.4747722" lon="14.1105412"><ele>44.0</ele><time>2026-05-02T06:06:33.026Z</time></trkpt><trkpt lat="42.4746509" lon="14.1105197"><ele>44.0</ele><time>2026-05-02T06:06:34.026Z</time></trkpt><trkpt lat="42.4745347" lon="14.1104798"><ele>44.0</ele><time>2026-05-02T06:06:35.026Z</time></trkpt><trkpt lat="42.4744159" lon="14.1104347"><ele>44.0</ele><time>2026-05-02T06:06:36.026Z</time></trkpt><trkpt lat="42.4742955" lon="14.1103826"><ele>46.0</ele><time>2026-05-02T06:06:37.026Z</time></trkpt><trkpt lat="42.4741723" lon="14.1103207"><ele>48.0</ele><time>2026-05-02T06:06:38.026Z</time></trkpt><trkpt lat="42.474044" lon="14.1102523"><ele>50.0</ele><time>2026-05-02T06:06:39.026Z</time></trkpt><trkpt lat="42.4739122" lon="14.1101826"><ele>52.0</ele><time>2026-05-02T06:06:40.026Z</time></trkpt><trkpt lat="42.4737759" lon="14.1101151"><ele>53.33333333333333</ele><time>2026-05-02T06:06:41.026Z</time></trkpt><trkpt lat="42.4736338" lon="14.1100553"><ele>54.66666666666667</ele><time>2026-05-02T06:06:42.026Z</time></trkpt><trkpt lat="42.4734901" lon="14.1099947"><ele>56.0</ele><time>2026-05-02T06:06:43.025Z</time></trkpt><trkpt lat="42.4733436" lon="14.1099312"><ele>59.66666666666667</ele><time>2026-05-02T06:06:44.026Z</time></trkpt><trkpt lat="42.4731969" lon="14.1098591"><ele>63.33333333333333</ele><time>2026-05-02T06:06:45.025Z</time></trkpt><trkpt lat="42.4730476" lon="14.1097862"><ele>67.0</ele><time>2026-05-02T06:06:46.026Z</time></trkpt><trkpt lat="42.4728981" lon="14.1097092"><ele>67.0</ele><time>2026-05-02T06:06:47.026Z</time></trkpt><trkpt lat="42.4727499" lon="14.1096361"><ele>67.0</ele><time>2026-05-02T06:06:48.026Z</time></trkpt><trkpt lat="42.4726038" lon="14.1095712"><ele>67.0</ele><time>2026-05-02T06:06:49.026Z</time></trkpt><trkpt lat="42.4724496" lon="14.1095214"><ele>67.0</ele><time>2026-05-02T06:06:50.025Z</time></trkpt><trkpt lat="42.4722944" lon="14.1094864"><ele>67.0</ele><time>2026-05-02T06:06:51.025Z</time></trkpt><trkpt lat="42.4721408" lon="14.1094438"><ele>67.0</ele><time>2026-05-02T06:06:52.026Z</time></trkpt><trkpt lat="42.4719924" lon="14.1093805"><ele>65.66666666666666</ele><time>2026-05-02T06:06:53.026Z</time></trkpt><trkpt lat="42.4718485" lon="14.1092923"><ele>64.33333333333333</ele><time>2026-05-02T06:06:54.026Z</time></trkpt><trkpt lat="42.47171" lon="14.1091873"><ele>63.0</ele><time>2026-05-02T06:06:55.025Z</time></trkpt><trkpt lat="42.4715779" lon="14.1090664"><ele>64.0</ele><time>2026-05-02T06:06:56.025Z</time></trkpt><trkpt lat="42.4714524" lon="14.1089338"><ele>65.0</ele><time>2026-05-02T06:06:57.026Z</time></trkpt><trkpt lat="42.4713358" lon="14.1087859"><ele>66.0</ele><time>2026-05-02T06:06:58.026Z</time></trkpt><trkpt lat="42.4712217" lon="14.1086306"><ele>66.0</ele><time>2026-05-02T06:06:59.026Z</time></trkpt><trkpt lat="42.4711109" lon="14.1084749"><ele>66.0</ele><time>2026-05-02T06:07:00.026Z</time></trkpt><trkpt lat="42.4710051" lon="14.1083136"><ele>66.0</ele><time>2026-05-02T06:07:01.026Z</time></trkpt><trkpt lat="42.4709006" lon="14.1081545"><ele>70.0</ele><time>2026-05-02T06:07:02.026Z</time></trkpt><trkpt lat="42.4708039" lon="14.107984"><ele>74.0</ele><time>2026-05-02T06:07:03.025Z</time></trkpt><trkpt lat="42.4707164" lon="14.107797"><ele>78.0</ele><time>2026-05-02T06:07:04.026Z</time></trkpt><trkpt lat="42.4706344" lon="14.1076048"><ele>81.33333333333333</ele><time>2026-05-02T06:07:05.025Z</time></trkpt><trkpt lat="42.4705633" lon="14.1074071"><ele>84.66666666666666</ele><time>2026-05-02T06:07:06.025Z</time></trkpt><trkpt lat="42.470501" lon="14.1072004"><ele>88.0</ele><time>2026-05-02T06:07:07.025Z</time></trkpt><trkpt lat="42.4704444" lon="14.1069966"><ele>87.0</ele><time>2026-05-02T06:07:08.026Z</time></trkpt><trkpt lat="42.4703873" lon="14.1068088"><ele>86.0</ele><time>2026-05-02T06:07:09.025Z</time></trkpt><trkpt lat="42.4703212" lon="14.1066428"><ele>85.0</ele><time>2026-05-02T06:07:10.026Z</time></trkpt><trkpt lat="42.470255" lon="14.1065043"><ele>84.0</ele><time>2026-05-02T06:07:11.026Z</time></trkpt><trkpt lat="42.4701951" lon="14.1064025"><ele>84.0</ele><time>2026-05-02T06:07:12.026Z</time></trkpt><trkpt lat="42.4701458" lon="14.1063321"><ele>84.0</ele><time>2026-05-02T06:07:13.026Z</time></trkpt><trkpt lat="42.4700877" lon="14.1062804"><ele>84.0</ele><time>2026-05-02T06:07:15.026Z</time></trkpt><trkpt lat="42.4699518" lon="14.1061812"><ele>84.0</ele><time>2026-05-02T06:07:17.026Z</time></trkpt><trkpt lat="42.4698489" lon="14.106089"><ele>84.0</ele><time>2026-05-02T06:07:18.025Z</time></trkpt><trkpt lat="42.469717" lon="14.1059816"><ele>83.0</ele><time>2026-05-02T06:07:19.026Z</time></trkpt><trkpt lat="42.4695659" lon="14.1058635"><ele>82.0</ele><time>2026-05-02T06:07:20.026Z</time></trkpt><trkpt lat="42.4693986" lon="14.1057422"><ele>81.0</ele><time>2026-05-02T06:07:21.026Z</time></trkpt><trkpt lat="42.4692396" lon="14.1056266"><ele>85.33333333333333</ele><time>2026-05-02T06:07:22.026Z</time></trkpt><trkpt lat="42.4690946" lon="14.105519"><ele>89.66666666666666</ele><time>2026-05-02T06:07:23.025Z</time></trkpt><trkpt lat="42.4689559" lon="14.1054227"><ele>94.0</ele><time>2026-05-02T06:07:24.026Z</time></trkpt><trkpt lat="42.4688251" lon="14.1053356"><ele>94.5</ele><time>2026-05-02T06:07:25.026Z</time></trkpt><trkpt lat="42.4687006" lon="14.1052602"><ele>95.0</ele><time>2026-05-02T06:07:26.026Z</time></trkpt><trkpt lat="42.4685737" lon="14.1052013"><ele>95.5</ele><time>2026-05-02T06:07:27.026Z</time></trkpt><trkpt lat="42.4684449" lon="14.1051665"><ele>96.0</ele><time>2026-05-02T06:07:28.026Z</time></trkpt><trkpt lat="42.4683152" lon="14.1051416"><ele>96.0</ele><time>2026-05-02T06:07:29.026Z</time></trkpt><trkpt lat="42.4681848" lon="14.1051115"><ele>96.0</ele><time>2026-05-02T06:07:30.026Z</time></trkpt><trkpt lat="42.4680536" lon="14.1050775"><ele>96.0</ele><time>2026-05-02T06:07:31.026Z</time></trkpt><trkpt lat="42.4679241" lon="14.1050364"><ele>96.0</ele><time>2026-05-02T06:07:32.026Z</time></trkpt><trkpt lat="42.4678061" lon="14.1049824"><ele>98.0</ele><time>2026-05-02T06:07:33.026Z</time></trkpt><trkpt lat="42.4676929" lon="14.1049035"><ele>100.0</ele><time>2026-05-02T06:07:34.026Z</time></trkpt><trkpt lat="42.4675833" lon="14.1048025"><ele>102.0</ele><time>2026-05-02T06:07:35.026Z</time></trkpt><trkpt lat="42.4674767" lon="14.1046872"><ele>104.0</ele><time>2026-05-02T06:07:36.026Z</time></trkpt><trkpt lat="42.4673676" lon="14.1045724"><ele>104.0</ele><time>2026-05-02T06:07:37.026Z</time></trkpt><trkpt lat="42.467254" lon="14.1044627"><ele>104.0</ele><time>2026-05-02T06:07:38.026Z</time></trkpt><trkpt lat="42.4671285" lon="14.1043581"><ele>104.0</ele><time>2026-05-02T06:07:39.026Z</time></trkpt><trkpt lat="42.4670009" lon="14.104264"><ele>104.0</ele><time>2026-05-02T06:07:40.026Z</time></trkpt><trkpt lat="42.4668735" lon="14.1041725"><ele>102.75</ele><time>2026-05-02T06:07:41.026Z</time></trkpt><trkpt lat="42.4667497" lon="14.1040799"><ele>101.5</ele><time>2026-05-02T06:07:42.026Z</time></trkpt><trkpt lat="42.466633" lon="14.1039884"><ele>100.25</ele><time>2026-05-02T06:07:43.025Z</time></trkpt><trkpt lat="42.4665238" lon="14.1039018"><ele>99.0</ele><time>2026-05-02T06:07:44.026Z</time></trkpt><trkpt lat="42.4664061" lon="14.1038387"><ele>102.5</ele><time>2026-05-02T06:07:45.026Z</time></trkpt><trkpt lat="42.4662741" lon="14.1038159"><ele>106.0</ele><time>2026-05-02T06:07:46.026Z</time></trkpt><trkpt lat="42.4661396" lon="14.1038094"><ele>109.5</ele><time>2026-05-02T06:07:47.026Z</time></trkpt><trkpt lat="42.4659974" lon="14.1038183"><ele>113.0</ele><time>2026-05-02T06:07:48.026Z</time></trkpt><trkpt lat="42.4658562" lon="14.1038282"><ele>113.0</ele><time>2026-05-02T06:07:49.026Z</time></trkpt><trkpt lat="42.4657143" lon="14.103836"><ele>113.0</ele><time>2026-05-02T06:07:50.026Z</time></trkpt><trkpt lat="42.4655862" lon="14.1038251"><ele>113.0</ele><time>2026-05-02T06:07:51.025Z</time></trkpt><trkpt lat="42.4654652" lon="14.1037972"><ele>113.0</ele><time>2026-05-02T06:07:52.026Z</time></trkpt><trkpt lat="42.4653557" lon="14.1037513"><ele>114.0</ele><time>2026-05-02T06:07:53.026Z</time></trkpt><trkpt lat="42.4652482" lon="14.1036996"><ele>115.00000000000001</ele><time>2026-05-02T06:07:54.026Z</time></trkpt><trkpt lat="42.4651462" lon="14.1036383"><ele>116.00000000000001</ele><time>2026-05-02T06:07:55.025Z</time></trkpt><trkpt lat="42.465044" lon="14.1035794"><ele>117.0</ele><time>2026-05-02T06:07:56.026Z</time></trkpt><trkpt lat="42.4649484" lon="14.1035268"><ele>118.0</ele><time>2026-05-02T06:07:57.026Z</time></trkpt><trkpt lat="42.4648488" lon="14.1034485"><ele>118.0</ele><time>2026-05-02T06:07:58.025Z</time></trkpt><trkpt lat="42.464806" lon="14.103303"><ele>118.00000000000001</ele><time>2026-05-02T06:07:59.026Z</time></trkpt><trkpt lat="42.464725" lon="14.1032214"><ele>118.00000000000001</ele><time>2026-05-02T06:08:00.026Z</time></trkpt><trkpt lat="42.4646404" lon="14.1031471"><ele>118.0</ele><time>2026-05-02T06:08:01.026Z</time></trkpt><trkpt lat="42.4645676" lon="14.1030901"><ele>118.0</ele><time>2026-05-02T06:08:02.026Z</time></trkpt><trkpt lat="42.4645006" lon="14.103074"><ele>118.4</ele><time>2026-05-02T06:08:03.026Z</time></trkpt><trkpt lat="42.4643994" lon="14.1031139"><ele>118.80000000000001</ele><time>2026-05-02T06:08:05.026Z</time></trkpt><trkpt lat="42.4644059" lon="14.1032708"><ele>119.2</ele><time>2026-05-02T06:08:07.026Z</time></trkpt><trkpt lat="42.4644575" lon="14.1033433"><ele>119.6</ele><time>2026-05-02T06:08:08.026Z</time></trkpt><trkpt lat="42.4645226" lon="14.1033999"><ele>120.0</ele><time>2026-05-02T06:08:09.026Z</time></trkpt><trkpt lat="42.4646079" lon="14.1034403"><ele>120.0</ele><time>2026-05-02T06:08:10.025Z</time></trkpt><trkpt lat="42.4646803" lon="14.1034872"><ele>120.0</ele><time>2026-05-02T06:08:11.026Z</time></trkpt><trkpt lat="42.464729" lon="14.1035523"><ele>120.0</ele><time>2026-05-02T06:08:12.025Z</time></trkpt><trkpt lat="42.4647549" lon="14.1036363"><ele>120.0</ele><time>2026-05-02T06:08:13.026Z</time></trkpt><trkpt lat="42.4647006" lon="14.103783"><ele>120.0</ele><time>2026-05-02T06:08:15.026Z</time></trkpt><trkpt lat="42.4646319" lon="14.1038258"><ele>120.0</ele><time>2026-05-02T06:08:16.025Z</time></trkpt><trkpt lat="42.4645448" lon="14.1038627"><ele>120.0</ele><time>2026-05-02T06:08:17.026Z</time></trkpt><trkpt lat="42.464446" lon="14.1038998"><ele>120.0</ele><time>2026-05-02T06:08:18.026Z</time></trkpt><trkpt lat="42.4643306" lon="14.103932"><ele>120.0</ele><time>2026-05-02T06:08:19.026Z</time></trkpt><trkpt lat="42.4642014" lon="14.1039548"><ele>120.0</ele><time>2026-05-02T06:08:20.026Z</time></trkpt><trkpt lat="42.4640627" lon="14.1039778"><ele>120.0</ele><time>2026-05-02T06:08:21.026Z</time></trkpt><trkpt lat="42.4639204" lon="14.1040004"><ele>120.0</ele><time>2026-05-02T06:08:22.026Z</time></trkpt><trkpt lat="42.4637822" lon="14.1040269"><ele>120.0</ele><time>2026-05-02T06:08:23.026Z</time></trkpt><trkpt lat="42.4636591" lon="14.104056"><ele>120.0</ele><time>2026-05-02T06:08:24.025Z</time></trkpt><trkpt lat="42.4635503" lon="14.1040829"><ele>121.8</ele><time>2026-05-02T06:08:25.025Z</time></trkpt><trkpt lat="42.4634487" lon="14.1041161"><ele>123.6</ele><time>2026-05-02T06:08:26.026Z</time></trkpt><trkpt lat="42.4633543" lon="14.1041754"><ele>125.4</ele><time>2026-05-02T06:08:27.026Z</time></trkpt><trkpt lat="42.4632645" lon="14.1042638"><ele>127.2</ele><time>2026-05-02T06:08:28.026Z</time></trkpt><trkpt lat="42.4631722" lon="14.1043574"><ele>129.0</ele><time>2026-05-02T06:08:29.026Z</time></trkpt><trkpt lat="42.4630776" lon="14.1044565"><ele>129.0</ele><time>2026-05-02T06:08:30.025Z</time></trkpt><trkpt lat="42.462987" lon="14.1045562"><ele>129.0</ele><time>2026-05-02T06:08:31.026Z</time></trkpt><trkpt lat="42.4629117" lon="14.1046401"><ele>129.0</ele><time>2026-05-02T06:08:32.026Z</time></trkpt><trkpt lat="42.4628358" lon="14.1047011"><ele>129.0</ele><time>2026-05-02T06:08:33.026Z</time></trkpt><trkpt lat="42.4627735" lon="14.1047405"><ele>129.0</ele><time>2026-05-02T06:08:34.026Z</time></trkpt><trkpt lat="42.4626516" lon="14.1047279"><ele>129.4</ele><time>2026-05-02T06:08:36.026Z</time></trkpt><trkpt lat="42.462595" lon="14.1046883"><ele>129.8</ele><time>2026-05-02T06:08:37.026Z</time></trkpt><trkpt lat="42.4624925" lon="14.1046827"><ele>130.2</ele><time>2026-05-02T06:08:39.026Z</time></trkpt><trkpt lat="42.462444" lon="14.1048023"><ele>130.6</ele><time>2026-05-02T06:08:41.026Z</time></trkpt><trkpt lat="42.4624627" lon="14.104971"><ele>131.0</ele><time>2026-05-02T06:08:43.026Z</time></trkpt><trkpt lat="42.462432" lon="14.1050605"><ele>131.4</ele><time>2026-05-02T06:08:44.026Z</time></trkpt><trkpt lat="42.4623733" lon="14.1051394"><ele>131.8</ele><time>2026-05-02T06:08:45.026Z</time></trkpt><trkpt lat="42.4622895" lon="14.1052276"><ele>132.20000000000002</ele><time>2026-05-02T06:08:46.026Z</time></trkpt><trkpt lat="42.4621969" lon="14.1053305"><ele>132.6</ele><time>2026-05-02T06:08:47.026Z</time></trkpt><trkpt lat="42.4620915" lon="14.1054421"><ele>133.0</ele><time>2026-05-02T06:08:48.026Z</time></trkpt><trkpt lat="42.4619799" lon="14.1055543"><ele>135.0</ele><time>2026-05-02T06:08:49.026Z</time></trkpt><trkpt lat="42.46186" lon="14.1056681"><ele>137.0</ele><time>2026-05-02T06:08:50.026Z</time></trkpt><trkpt lat="42.4617382" lon="14.1057882"><ele>139.0</ele><time>2026-05-02T06:08:51.026Z</time></trkpt><trkpt lat="42.461615" lon="14.1059177"><ele>139.0</ele><time>2026-05-02T06:08:52.026Z</time></trkpt><trkpt lat="42.4614908" lon="14.1060482"><ele>139.0</ele><time>2026-05-02T06:08:53.026Z</time></trkpt><trkpt lat="42.4613688" lon="14.1061683"><ele>139.0</ele><time>2026-05-02T06:08:54.026Z</time></trkpt><trkpt lat="42.4612492" lon="14.1062715"><ele>142.5</ele><time>2026-05-02T06:08:55.026Z</time></trkpt><trkpt lat="42.4611238" lon="14.1063604"><ele>146.0</ele><time>2026-05-02T06:08:56.026Z</time></trkpt><trkpt lat="42.4609922" lon="14.1064244"><ele>149.5</ele><time>2026-05-02T06:08:57.026Z</time></trkpt><trkpt lat="42.4608643" lon="14.1064816"><ele>153.0</ele><time>2026-05-02T06:08:58.026Z</time></trkpt><trkpt lat="42.460742" lon="14.1065763"><ele>150.0</ele><time>2026-05-02T06:08:59.026Z</time></trkpt><trkpt lat="42.4606267" lon="14.1066998"><ele>147.0</ele><time>2026-05-02T06:09:00.026Z</time></trkpt><trkpt lat="42.4605423" lon="14.1068707"><ele>144.0</ele><time>2026-05-02T06:09:01.026Z</time></trkpt><trkpt lat="42.4604634" lon="14.1070481"><ele>149.33333333333334</ele><time>2026-05-02T06:09:02.026Z</time></trkpt><trkpt lat="42.4604026" lon="14.107237"><ele>154.66666666666669</ele><time>2026-05-02T06:09:03.025Z</time></trkpt><trkpt lat="42.4603574" lon="14.1074544"><ele>160.0</ele><time>2026-05-02T06:09:04.025Z</time></trkpt><trkpt lat="42.4603177" lon="14.1076667"><ele>160.0</ele><time>2026-05-02T06:09:05.026Z</time></trkpt><trkpt lat="42.4602731" lon="14.1078806"><ele>160.0</ele><time>2026-05-02T06:09:06.026Z</time></trkpt><trkpt lat="42.4602123" lon="14.1080837"><ele>160.0</ele><time>2026-05-02T06:09:07.026Z</time></trkpt><trkpt lat="42.46014" lon="14.1082776"><ele>159.0</ele><time>2026-05-02T06:09:08.026Z</time></trkpt><trkpt lat="42.4600679" lon="14.1084782"><ele>158.0</ele><time>2026-05-02T06:09:09.026Z</time></trkpt><trkpt lat="42.4599952" lon="14.1086806"><ele>157.0</ele><time>2026-05-02T06:09:10.026Z</time></trkpt><trkpt lat="42.4599193" lon="14.1088662"><ele>157.0</ele><time>2026-05-02T06:09:11.026Z</time></trkpt><trkpt lat="42.4598302" lon="14.109031"><ele>157.0</ele><time>2026-05-02T06:09:12.026Z</time></trkpt><trkpt lat="42.4597186" lon="14.1091853"><ele>157.0</ele><time>2026-05-02T06:09:13.026Z</time></trkpt><trkpt lat="42.4595905" lon="14.1093301"><ele>158.75</ele><time>2026-05-02T06:09:14.026Z</time></trkpt><trkpt lat="42.4594646" lon="14.1094598"><ele>160.5</ele><time>2026-05-02T06:09:15.025Z</time></trkpt><trkpt lat="42.4593481" lon="14.1095804"><ele>162.25</ele><time>2026-05-02T06:09:16.025Z</time></trkpt><trkpt lat="42.4592426" lon="14.1097055"><ele>164.0</ele><time>2026-05-02T06:09:17.026Z</time></trkpt><trkpt lat="42.4591463" lon="14.109835"><ele>161.66666666666666</ele><time>2026-05-02T06:09:18.026Z</time></trkpt><trkpt lat="42.4590461" lon="14.1099824"><ele>159.33333333333334</ele><time>2026-05-02T06:09:19.026Z</time></trkpt><trkpt lat="42.4589357" lon="14.1101622"><ele>157.0</ele><time>2026-05-02T06:09:20.026Z</time></trkpt><trkpt lat="42.4588162" lon="14.1103697"><ele>157.33333333333334</ele><time>2026-05-02T06:09:21.026Z</time></trkpt><trkpt lat="42.4586872" lon="14.1105946"><ele>157.66666666666666</ele><time>2026-05-02T06:09:22.026Z</time></trkpt><trkpt lat="42.4585658" lon="14.1107911"><ele>158.0</ele><time>2026-05-02T06:09:23.025Z</time></trkpt><trkpt lat="42.4584544" lon="14.1109631"><ele>158.8</ele><time>2026-05-02T06:09:24.026Z</time></trkpt><trkpt lat="42.4583656" lon="14.1110965"><ele>159.60000000000002</ele><time>2026-05-02T06:09:25.026Z</time></trkpt><trkpt lat="42.4582813" lon="14.1112039"><ele>160.39999999999998</ele><time>2026-05-02T06:09:26.026Z</time></trkpt><trkpt lat="42.4581847" lon="14.1112609"><ele>161.2</ele><time>2026-05-02T06:09:27.025Z</time></trkpt><trkpt lat="42.4580948" lon="14.1112549"><ele>162.0</ele><time>2026-05-02T06:09:28.026Z</time></trkpt><trkpt lat="42.4580207" lon="14.1112"><ele>162.0</ele><time>2026-05-02T06:09:29.026Z</time></trkpt><trkpt lat="42.4579598" lon="14.1111005"><ele>162.0</ele><time>2026-05-02T06:09:30.026Z</time></trkpt><trkpt lat="42.4579197" lon="14.110977"><ele>162.0</ele><time>2026-05-02T06:09:31.025Z</time></trkpt><trkpt lat="42.4578859" lon="14.1108721"><ele>162.0</ele><time>2026-05-02T06:09:32.026Z</time></trkpt><trkpt lat="42.4578341" lon="14.1108079"><ele>162.0</ele><time>2026-05-02T06:09:33.026Z</time></trkpt><trkpt lat="42.4577698" lon="14.1107996"><ele>162.0</ele><time>2026-05-02T06:09:34.026Z</time></trkpt><trkpt lat="42.4577004" lon="14.1109238"><ele>165.25</ele><time>2026-05-02T06:09:36.026Z</time></trkpt><trkpt lat="42.4576894" lon="14.111031"><ele>168.5</ele><time>2026-05-02T06:09:37.026Z</time></trkpt><trkpt lat="42.4577509" lon="14.1112009"><ele>171.75</ele><time>2026-05-02T06:09:38.026Z</time></trkpt><trkpt lat="42.4577994" lon="14.1113911"><ele>175.0</ele><time>2026-05-02T06:09:39.026Z</time></trkpt><trkpt lat="42.4578598" lon="14.1116044"><ele>175.66666666666669</ele><time>2026-05-02T06:09:40.026Z</time></trkpt><trkpt lat="42.4579201" lon="14.1118442"><ele>176.33333333333334</ele><time>2026-05-02T06:09:41.025Z</time></trkpt><trkpt lat="42.4579745" lon="14.112067"><ele>177.0</ele><time>2026-05-02T06:09:42.026Z</time></trkpt><trkpt lat="42.4580236" lon="14.1122713"><ele>176.5</ele><time>2026-05-02T06:09:43.025Z</time></trkpt><trkpt lat="42.4580616" lon="14.112469"><ele>176.0</ele><time>2026-05-02T06:09:44.025Z</time></trkpt><trkpt lat="42.4580888" lon="14.1126612"><ele>175.5</ele><time>2026-05-02T06:09:45.026Z</time></trkpt><trkpt lat="42.4581038" lon="14.1128455"><ele>175.0</ele><time>2026-05-02T06:09:46.025Z</time></trkpt><trkpt lat="42.458094" lon="14.113017"><ele>175.0</ele><time>2026-05-02T06:09:47.026Z</time></trkpt><trkpt lat="42.4580612" lon="14.1131787"><ele>175.0</ele><time>2026-05-02T06:09:48.026Z</time></trkpt><trkpt lat="42.4580093" lon="14.1133361"><ele>175.0</ele><time>2026-05-02T06:09:49.026Z</time></trkpt><trkpt lat="42.4579559" lon="14.1134973"><ele>175.0</ele><time>2026-05-02T06:09:50.026Z</time></trkpt><trkpt lat="42.4579199" lon="14.113681"><ele>176.66666666666669</ele><time>2026-05-02T06:09:51.026Z</time></trkpt><trkpt lat="42.4579133" lon="14.1138864"><ele>178.33333333333334</ele><time>2026-05-02T06:09:52.026Z</time></trkpt><trkpt lat="42.4579181" lon="14.1141057"><ele>180.0</ele><time>2026-05-02T06:09:53.026Z</time></trkpt><trkpt lat="42.4579188" lon="14.1143369"><ele>177.0</ele><time>2026-05-02T06:09:54.026Z</time></trkpt><trkpt lat="42.4579019" lon="14.114571"><ele>174.0</ele><time>2026-05-02T06:09:55.026Z</time></trkpt><trkpt lat="42.4578677" lon="14.1147549"><ele>171.0</ele><time>2026-05-02T06:09:56.026Z</time></trkpt><trkpt lat="42.4578321" lon="14.1149273"><ele>168.0</ele><time>2026-05-02T06:09:57.025Z</time></trkpt><trkpt lat="42.4578095" lon="14.1150922"><ele>167.75</ele><time>2026-05-02T06:09:58.026Z</time></trkpt><trkpt lat="42.4578151" lon="14.1152548"><ele>167.5</ele><time>2026-05-02T06:09:59.026Z</time></trkpt><trkpt lat="42.4578482" lon="14.1154037"><ele>167.25</ele><time>2026-05-02T06:10:00.026Z</time></trkpt><trkpt lat="42.4578794" lon="14.1155565"><ele>167.0</ele><time>2026-05-02T06:10:01.026Z</time></trkpt><trkpt lat="42.4580272" lon="14.1156681"><ele>167.0</ele><time>2026-05-02T06:10:02.026Z</time></trkpt><trkpt lat="42.4581395" lon="14.1158044"><ele>167.0</ele><time>2026-05-02T06:10:03.026Z</time></trkpt><trkpt lat="42.4582705" lon="14.1159526"><ele>167.0</ele><time>2026-05-02T06:10:04.026Z</time></trkpt><trkpt lat="42.4584034" lon="14.1161037"><ele>167.0</ele><time>2026-05-02T06:10:05.026Z</time></trkpt><trkpt lat="42.4585304" lon="14.116253"><ele>167.0</ele><time>2026-05-02T06:10:06.026Z</time></trkpt><trkpt lat="42.4586533" lon="14.1163971"><ele>167.0</ele><time>2026-05-02T06:10:07.026Z</time></trkpt><trkpt lat="42.4587819" lon="14.1165354"><ele>165.66666666666666</ele><time>2026-05-02T06:10:08.026Z</time></trkpt><trkpt lat="42.4589198" lon="14.1166641"><ele>164.33333333333334</ele><time>2026-05-02T06:10:09.026Z</time></trkpt><trkpt lat="42.4590645" lon="14.1167923"><ele>163.0</ele><time>2026-05-02T06:10:10.026Z</time></trkpt><trkpt lat="42.4592123" lon="14.1169207"><ele>163.0</ele><time>2026-05-02T06:10:11.026Z</time></trkpt><trkpt lat="42.4593595" lon="14.1170447"><ele>163.0</ele><time>2026-05-02T06:10:12.025Z</time></trkpt><trkpt lat="42.4595028" lon="14.1171657"><ele>163.0</ele><time>2026-05-02T06:10:13.025Z</time></trkpt><trkpt lat="42.4596464" lon="14.1172857"><ele>162.0</ele><time>2026-05-02T06:10:14.026Z</time></trkpt><trkpt lat="42.4597883" lon="14.1174048"><ele>161.0</ele><time>2026-05-02T06:10:15.026Z</time></trkpt><trkpt lat="42.4599291" lon="14.1175206"><ele>160.0</ele><time>2026-05-02T06:10:16.025Z</time></trkpt><trkpt lat="42.4600605" lon="14.1176261"><ele>160.0</ele><time>2026-05-02T06:10:17.026Z</time></trkpt><trkpt lat="42.4601796" lon="14.1177214"><ele>160.0</ele><time>2026-05-02T06:10:18.026Z</time></trkpt><trkpt lat="42.4602808" lon="14.1178119"><ele>160.0</ele><time>2026-05-02T06:10:19.025Z</time></trkpt><trkpt lat="42.4603655" lon="14.1179054"><ele>160.0</ele><time>2026-05-02T06:10:20.026Z</time></trkpt><trkpt lat="42.4604284" lon="14.1180139"><ele>160.25</ele><time>2026-05-02T06:10:21.026Z</time></trkpt><trkpt lat="42.460472" lon="14.1181475"><ele>160.5</ele><time>2026-05-02T06:10:22.026Z</time></trkpt><trkpt lat="42.4604929" lon="14.1183097"><ele>160.75</ele><time>2026-05-02T06:10:23.026Z</time></trkpt><trkpt lat="42.4604922" lon="14.1184864"><ele>161.0</ele><time>2026-05-02T06:10:24.026Z</time></trkpt><trkpt lat="42.4604675" lon="14.1186758"><ele>160.75</ele><time>2026-05-02T06:10:25.026Z</time></trkpt><trkpt lat="42.4604264" lon="14.1188581"><ele>160.5</ele><time>2026-05-02T06:10:26.026Z</time></trkpt><trkpt lat="42.4603766" lon="14.1190238"><ele>160.25</ele><time>2026-05-02T06:10:27.026Z</time></trkpt><trkpt lat="42.4603249" lon="14.1191728"><ele>160.0</ele><time>2026-05-02T06:10:28.026Z</time></trkpt><trkpt lat="42.4602759" lon="14.1192973"><ele>160.0</ele><time>2026-05-02T06:10:29.025Z</time></trkpt><trkpt lat="42.4602271" lon="14.1194047"><ele>160.0</ele><time>2026-05-02T06:10:30.026Z</time></trkpt><trkpt lat="42.4601779" lon="14.1195016"><ele>160.0</ele><time>2026-05-02T06:10:31.026Z</time></trkpt><trkpt lat="42.4601219" lon="14.1195805"><ele>160.0</ele><time>2026-05-02T06:10:32.026Z</time></trkpt><trkpt lat="42.4600474" lon="14.1196473"><ele>160.0</ele><time>2026-05-02T06:10:33.025Z</time></trkpt><trkpt lat="42.459972" lon="14.1197176"><ele>160.0</ele><time>2026-05-02T06:10:34.026Z</time></trkpt><trkpt lat="42.4599111" lon="14.1198141"><ele>160.0</ele><time>2026-05-02T06:10:35.026Z</time></trkpt><trkpt lat="42.4598638" lon="14.1199335"><ele>160.0</ele><time>2026-05-02T06:10:36.026Z</time></trkpt><trkpt lat="42.4598052" lon="14.1200628"><ele>160.0</ele><time>2026-05-02T06:10:37.026Z</time></trkpt><trkpt lat="42.4597208" lon="14.1201821"><ele>160.0</ele><time>2026-05-02T06:10:38.026Z</time></trkpt><trkpt lat="42.4596222" lon="14.1202909"><ele>159.75</ele><time>2026-05-02T06:10:39.026Z</time></trkpt><trkpt lat="42.4595154" lon="14.120398"><ele>159.5</ele><time>2026-05-02T06:10:40.026Z</time></trkpt><trkpt lat="42.4594154" lon="14.1205001"><ele>159.25</ele><time>2026-05-02T06:10:41.026Z</time></trkpt><trkpt lat="42.4593201" lon="14.1205992"><ele>159.0</ele><time>2026-05-02T06:10:42.026Z</time></trkpt><trkpt lat="42.4592275" lon="14.1206973"><ele>159.2</ele><time>2026-05-02T06:10:43.026Z</time></trkpt><trkpt lat="42.4591346" lon="14.1207909"><ele>159.4</ele><time>2026-05-02T06:10:44.025Z</time></trkpt><trkpt lat="42.4590509" lon="14.1208815"><ele>159.6</ele><time>2026-05-02T06:10:45.026Z</time></trkpt><trkpt lat="42.4589881" lon="14.1209621"><ele>159.8</ele><time>2026-05-02T06:10:46.026Z</time></trkpt><trkpt lat="42.4589063" lon="14.1210346"><ele>160.0</ele><time>2026-05-02T06:10:48.026Z</time></trkpt><trkpt lat="42.4588338" lon="14.1210083"><ele>160.2</ele><time>2026-05-02T06:10:50.026Z</time></trkpt><trkpt lat="42.458763" lon="14.1209232"><ele>160.4</ele><time>2026-05-02T06:10:52.026Z</time></trkpt><trkpt lat="42.4586613" lon="14.1208096"><ele>160.60000000000002</ele><time>2026-05-02T06:10:54.025Z</time></trkpt><trkpt lat="42.4586026" lon="14.1207479"><ele>160.8</ele><time>2026-05-02T06:10:55.026Z</time></trkpt><trkpt lat="42.4585445" lon="14.1206848"><ele>161.0</ele><time>2026-05-02T06:10:56.026Z</time></trkpt><trkpt lat="42.4584816" lon="14.1206169"><ele>159.5</ele><time>2026-05-02T06:10:57.026Z</time></trkpt><trkpt lat="42.4584142" lon="14.1205476"><ele>158.0</ele><time>2026-05-02T06:10:58.026Z</time></trkpt><trkpt lat="42.4583461" lon="14.1204762"><ele>156.5</ele><time>2026-05-02T06:10:59.026Z</time></trkpt><trkpt lat="42.4582798" lon="14.1204074"><ele>155.0</ele><time>2026-05-02T06:11:00.026Z</time></trkpt><trkpt lat="42.4582195" lon="14.1203393"><ele>153.5</ele><time>2026-05-02T06:11:01.026Z</time></trkpt><trkpt lat="42.4581598" lon="14.1202737"><ele>152.0</ele><time>2026-05-02T06:11:02.026Z</time></trkpt><trkpt lat="42.4581022" lon="14.1202223"><ele>152.0</ele><time>2026-05-02T06:11:03.026Z</time></trkpt><trkpt lat="42.4580544" lon="14.1201642"><ele>152.0</ele><time>2026-05-02T06:11:04.025Z</time></trkpt><trkpt lat="42.4580081" lon="14.1200991"><ele>152.0</ele><time>2026-05-02T06:11:05.026Z</time></trkpt><trkpt lat="42.4579562" lon="14.1200295"><ele>152.0</ele><time>2026-05-02T06:11:06.025Z</time></trkpt><trkpt lat="42.4578997" lon="14.1199361"><ele>152.0</ele><time>2026-05-02T06:11:07.026Z</time></trkpt><trkpt lat="42.4578466" lon="14.1198499"><ele>152.0</ele><time>2026-05-02T06:11:08.026Z</time></trkpt><trkpt lat="42.4577948" lon="14.1197555"><ele>148.66666666666666</ele><time>2026-05-02T06:11:09.026Z</time></trkpt><trkpt lat="42.457719" lon="14.1196409"><ele>145.33333333333331</ele><time>2026-05-02T06:11:11.025Z</time></trkpt><trkpt lat="42.4576426" lon="14.1195546"><ele>142.0</ele><time>2026-05-02T06:11:13.025Z</time></trkpt><trkpt lat="42.45759" lon="14.1194856"><ele>138.66666666666666</ele><time>2026-05-02T06:11:15.026Z</time></trkpt><trkpt lat="42.4575372" lon="14.1194189"><ele>135.33333333333334</ele><time>2026-05-02T06:11:17.025Z</time></trkpt><trkpt lat="42.4574747" lon="14.1193595"><ele>132.0</ele><time>2026-05-02T06:11:19.026Z</time></trkpt><trkpt lat="42.4574196" lon="14.11931"><ele>132.0</ele><time>2026-05-02T06:11:21.025Z</time></trkpt><trkpt lat="42.4573535" lon="14.11928"><ele>132.0</ele><time>2026-05-02T06:11:23.026Z</time></trkpt><trkpt lat="42.4572744" lon="14.1192728"><ele>132.0</ele><time>2026-05-02T06:11:25.026Z</time></trkpt><trkpt lat="42.4571943" lon="14.1192686"><ele>132.0</ele><time>2026-05-02T06:11:27.026Z</time></trkpt><trkpt lat="42.4571143" lon="14.1192615"><ele>132.0</ele><time>2026-05-02T06:11:29.025Z</time></trkpt><trkpt lat="42.4570326" lon="14.1192616"><ele>132.0</ele><time>2026-05-02T06:11:31.026Z</time></trkpt><trkpt lat="42.4569453" lon="14.1192684"><ele>130.4</ele><time>2026-05-02T06:11:33.026Z</time></trkpt><trkpt lat="42.4568413" lon="14.1192804"><ele>128.79999999999998</ele><time>2026-05-02T06:11:35.026Z</time></trkpt><trkpt lat="42.4567353" lon="14.1193003"><ele>127.2</ele><time>2026-05-02T06:11:37.026Z</time></trkpt><trkpt lat="42.4566379" lon="14.1193281"><ele>125.6</ele><time>2026-05-02T06:11:39.026Z</time></trkpt><trkpt lat="42.4565613" lon="14.1193397"><ele>124.0</ele><time>2026-05-02T06:11:41.026Z</time></trkpt><trkpt lat="42.4564913" lon="14.1193227"><ele>124.0</ele><time>2026-05-02T06:11:44.026Z</time></trkpt><trkpt lat="42.456408" lon="14.1193189"><ele>124.00000000000001</ele><time>2026-05-02T06:11:48.026Z</time></trkpt><trkpt lat="42.4563277" lon="14.1193205"><ele>124.0</ele><time>2026-05-02T06:11:51.026Z</time></trkpt><trkpt lat="42.4562642" lon="14.1193266"><ele>124.0</ele><time>2026-05-02T06:11:53.026Z</time></trkpt><trkpt lat="42.456195" lon="14.1193376"><ele>124.00000000000001</ele><time>2026-05-02T06:11:55.026Z</time></trkpt><trkpt lat="42.4561321" lon="14.1193332"><ele>124.0</ele><time>2026-05-02T06:12:01.025Z</time></trkpt><trkpt lat="42.4560545" lon="14.1193216"><ele>124.0</ele><time>2026-05-02T06:12:08.026Z</time></trkpt><trkpt lat="42.4559899" lon="14.1193162"><ele>123.28571428571429</ele><time>2026-05-02T06:12:24.026Z</time></trkpt><trkpt lat="42.4559236" lon="14.1192937"><ele>122.57142857142858</ele><time>2026-05-02T06:12:28.026Z</time></trkpt><trkpt lat="42.4558562" lon="14.1192606"><ele>121.85714285714286</ele><time>2026-05-02T06:12:31.026Z</time></trkpt><trkpt lat="42.455781" lon="14.1192302"><ele>121.14285714285714</ele><time>2026-05-02T06:12:35.026Z</time></trkpt><trkpt lat="42.4557175" lon="14.119211"><ele>120.42857142857143</ele><time>2026-05-02T06:12:38.026Z</time></trkpt><trkpt lat="42.4556413" lon="14.119199"><ele>119.71428571428572</ele><time>2026-05-02T06:12:41.026Z</time></trkpt><trkpt lat="42.455564" lon="14.1192132"><ele>119.0</ele><time>2026-05-02T06:12:45.026Z</time></trkpt><trkpt lat="42.4554996" lon="14.1192147"><ele>118.28571428571428</ele><time>2026-05-02T06:12:48.025Z</time></trkpt><trkpt lat="42.4554322" lon="14.1192105"><ele>117.57142857142857</ele><time>2026-05-02T06:12:51.026Z</time></trkpt><trkpt lat="42.4553594" lon="14.1192055"><ele>116.85714285714286</ele><time>2026-05-02T06:12:55.026Z</time></trkpt><trkpt lat="42.4552958" lon="14.1192235"><ele>116.14285714285714</ele><time>2026-05-02T06:12:58.025Z</time></trkpt><trkpt lat="42.4552168" lon="14.1192286"><ele>115.42857142857142</ele><time>2026-05-02T06:13:02.026Z</time></trkpt><trkpt lat="42.4551448" lon="14.11921"><ele>114.71428571428571</ele><time>2026-05-02T06:13:05.026Z</time></trkpt><trkpt lat="42.4550627" lon="14.1191989"><ele>114.0</ele><time>2026-05-02T06:13:08.026Z</time></trkpt><trkpt lat="42.4549967" lon="14.1191902"><ele>114.0</ele><time>2026-05-02T06:13:12.026Z</time></trkpt><trkpt lat="42.454933" lon="14.1191721"><ele>114.0</ele><time>2026-05-02T06:13:18.025Z</time></trkpt><trkpt lat="42.454868" lon="14.1191381"><ele>114.0</ele><time>2026-05-02T06:13:24.026Z</time></trkpt><trkpt lat="42.4548176" lon="14.1190834"><ele>114.0</ele><time>2026-05-02T06:13:30.026Z</time></trkpt><trkpt lat="42.4548091" lon="14.118984"><ele>114.0</ele><time>2026-05-02T06:13:35.025Z</time></trkpt><trkpt lat="42.4548219" lon="14.1188536"><ele>114.0</ele><time>2026-05-02T06:13:38.026Z</time></trkpt><trkpt lat="42.4548333" lon="14.1187287"><ele>114.33333333333333</ele><time>2026-05-02T06:13:41.026Z</time></trkpt><trkpt lat="42.4548128" lon="14.118644"><ele>114.66666666666666</ele><time>2026-05-02T06:13:45.026Z</time></trkpt><trkpt lat="42.4548732" lon="14.1186175"><ele>115.0</ele><time>2026-05-02T06:13:55.026Z</time></trkpt><trkpt lat="42.4548878" lon="14.1185061"><ele>115.33333333333333</ele><time>2026-05-02T06:14:32.026Z</time></trkpt><trkpt lat="42.4548783" lon="14.1183805"><ele>115.66666666666666</ele><time>2026-05-02T06:14:34.026Z</time></trkpt><trkpt lat="42.454891" lon="14.1182259"><ele>116.0</ele><time>2026-05-02T06:14:36.026Z</time></trkpt><trkpt lat="42.4549189" lon="14.1180648"><ele>116.0</ele><time>2026-05-02T06:14:38.025Z</time></trkpt><trkpt lat="42.4549578" lon="14.1179046"><ele>116.0</ele><time>2026-05-02T06:14:40.026Z</time></trkpt><trkpt lat="42.4549817" lon="14.1177355"><ele>116.0</ele><time>2026-05-02T06:14:42.026Z</time></trkpt><trkpt lat="42.4549867" lon="14.1176458"><ele>116.0</ele><time>2026-05-02T06:14:43.026Z</time></trkpt><trkpt lat="42.4549937" lon="14.1175503"><ele>116.0</ele><time>2026-05-02T06:14:44.026Z</time></trkpt><trkpt lat="42.4549969" lon="14.1174612"><ele>117.00000000000001</ele><time>2026-05-02T06:14:45.026Z</time></trkpt><trkpt lat="42.454992" lon="14.1173723"><ele>118.0</ele><time>2026-05-02T06:14:46.026Z</time></trkpt><trkpt lat="42.4549889" lon="14.1172613"><ele>119.00000000000001</ele><time>2026-05-02T06:14:48.025Z</time></trkpt><trkpt lat="42.4549359" lon="14.1171954"><ele>120.00000000000001</ele><time>2026-05-02T06:14:52.026Z</time></trkpt><trkpt lat="42.454846" lon="14.1171769"><ele>121.0</ele><time>2026-05-02T06:14:54.026Z</time></trkpt><trkpt lat="42.4547803" lon="14.1171652"><ele>122.00000000000001</ele><time>2026-05-02T06:14:55.026Z</time></trkpt><trkpt lat="42.4547095" lon="14.1171458"><ele>123.00000000000001</ele><time>2026-05-02T06:14:56.026Z</time></trkpt><trkpt lat="42.4546362" lon="14.1171198"><ele>123.33333333333333</ele><time>2026-05-02T06:14:57.026Z</time></trkpt><trkpt lat="42.4545603" lon="14.1170943"><ele>123.66666666666666</ele><time>2026-05-02T06:14:58.026Z</time></trkpt><trkpt lat="42.4544836" lon="14.1170749"><ele>124.0</ele><time>2026-05-02T06:14:59.025Z</time></trkpt><trkpt lat="42.4544032" lon="14.1170558"><ele>124.33333333333333</ele><time>2026-05-02T06:15:00.025Z</time></trkpt><trkpt lat="42.4543215" lon="14.1170388"><ele>124.66666666666666</ele><time>2026-05-02T06:15:01.026Z</time></trkpt><trkpt lat="42.4542353" lon="14.1170237"><ele>125.0</ele><time>2026-05-02T06:15:02.025Z</time></trkpt><trkpt lat="42.4541535" lon="14.1170089"><ele>124.99999999999999</ele><time>2026-05-02T06:15:03.026Z</time></trkpt><trkpt lat="42.4540693" lon="14.1169923"><ele>125.0</ele><time>2026-05-02T06:15:04.026Z</time></trkpt><trkpt lat="42.4539835" lon="14.1169796"><ele>125.0</ele><time>2026-05-02T06:15:05.025Z</time></trkpt><trkpt lat="42.4539083" lon="14.1169709"><ele>125.0</ele><time>2026-05-02T06:15:06.025Z</time></trkpt><trkpt lat="42.4538389" lon="14.1169575"><ele>124.99999999999999</ele><time>2026-05-02T06:15:07.026Z</time></trkpt><trkpt lat="42.4537705" lon="14.1169513"><ele>125.0</ele><time>2026-05-02T06:15:08.026Z</time></trkpt><trkpt lat="42.4536997" lon="14.1169563"><ele>125.33333333333333</ele><time>2026-05-02T06:15:09.025Z</time></trkpt><trkpt lat="42.4536343" lon="14.1169704"><ele>125.66666666666666</ele><time>2026-05-02T06:15:10.026Z</time></trkpt><trkpt lat="42.4535117" lon="14.117041"><ele>126.0</ele><time>2026-05-02T06:15:12.026Z</time></trkpt><trkpt lat="42.4534447" lon="14.1171061"><ele>126.33333333333334</ele><time>2026-05-02T06:15:13.025Z</time></trkpt><trkpt lat="42.453382" lon="14.1171855"><ele>126.66666666666667</ele><time>2026-05-02T06:15:14.026Z</time></trkpt><trkpt lat="42.4533216" lon="14.1172412"><ele>127.0</ele><time>2026-05-02T06:15:15.026Z</time></trkpt><trkpt lat="42.4532579" lon="14.1172957"><ele>127.00000000000001</ele><time>2026-05-02T06:15:16.026Z</time></trkpt><trkpt lat="42.453186" lon="14.1173343"><ele>127.0</ele><time>2026-05-02T06:15:17.026Z</time></trkpt><trkpt lat="42.4531122" lon="14.1173699"><ele>127.0</ele><time>2026-05-02T06:15:18.026Z</time></trkpt><trkpt lat="42.453031" lon="14.1173861"><ele>127.0</ele><time>2026-05-02T06:15:19.026Z</time></trkpt><trkpt lat="42.4529557" lon="14.1174074"><ele>127.00000000000001</ele><time>2026-05-02T06:15:20.026Z</time></trkpt><trkpt lat="42.4528768" lon="14.1174196"><ele>127.0</ele><time>2026-05-02T06:15:21.026Z</time></trkpt><trkpt lat="42.4528009" lon="14.117424"><ele>127.6</ele><time>2026-05-02T06:15:22.026Z</time></trkpt><trkpt lat="42.4527351" lon="14.1174208"><ele>128.2</ele><time>2026-05-02T06:15:23.026Z</time></trkpt><trkpt lat="42.4526296" lon="14.1173834"><ele>128.8</ele><time>2026-05-02T06:15:25.026Z</time></trkpt><trkpt lat="42.4525628" lon="14.1172697"><ele>129.4</ele><time>2026-05-02T06:15:27.026Z</time></trkpt><trkpt lat="42.4525125" lon="14.1171089"><ele>130.0</ele><time>2026-05-02T06:15:29.026Z</time></trkpt><trkpt lat="42.4524737" lon="14.1170198"><ele>130.0</ele><time>2026-05-02T06:15:30.026Z</time></trkpt><trkpt lat="42.4524335" lon="14.1169212"><ele>130.0</ele><time>2026-05-02T06:15:31.026Z</time></trkpt><trkpt lat="42.4523893" lon="14.116822"><ele>130.0</ele><time>2026-05-02T06:15:32.025Z</time></trkpt><trkpt lat="42.4523439" lon="14.1167288"><ele>130.0</ele><time>2026-05-02T06:15:33.026Z</time></trkpt><trkpt lat="42.4522935" lon="14.1166397"><ele>130.0</ele><time>2026-05-02T06:15:34.026Z</time></trkpt><trkpt lat="42.4522352" lon="14.1165613"><ele>130.0</ele><time>2026-05-02T06:15:35.026Z</time></trkpt><trkpt lat="42.4521752" lon="14.1164917"><ele>131.16666666666669</ele><time>2026-05-02T06:15:36.025Z</time></trkpt><trkpt lat="42.4521145" lon="14.1164353"><ele>132.33333333333334</ele><time>2026-05-02T06:15:37.025Z</time></trkpt><trkpt lat="42.4520486" lon="14.1163961"><ele>133.5</ele><time>2026-05-02T06:15:38.026Z</time></trkpt><trkpt lat="42.4519746" lon="14.1163714"><ele>134.66666666666666</ele><time>2026-05-02T06:15:39.026Z</time></trkpt><trkpt lat="42.4518899" lon="14.1163611"><ele>135.83333333333331</ele><time>2026-05-02T06:15:40.026Z</time></trkpt><trkpt lat="42.4518138" lon="14.116354"><ele>137.0</ele><time>2026-05-02T06:15:41.026Z</time></trkpt><trkpt lat="42.4517414" lon="14.1163543"><ele>137.0</ele><time>2026-05-02T06:15:42.026Z</time></trkpt><trkpt lat="42.4516759" lon="14.116357"><ele>137.0</ele><time>2026-05-02T06:15:43.025Z</time></trkpt><trkpt lat="42.4516057" lon="14.1163649"><ele>137.0</ele><time>2026-05-02T06:15:44.026Z</time></trkpt><trkpt lat="42.4515388" lon="14.1163648"><ele>137.0</ele><time>2026-05-02T06:15:45.026Z</time></trkpt><trkpt lat="42.4514189" lon="14.116356"><ele>137.0</ele><time>2026-05-02T06:15:47.026Z</time></trkpt><trkpt lat="42.4513115" lon="14.1163132"><ele>137.0</ele><time>2026-05-02T06:15:49.026Z</time></trkpt><trkpt lat="42.4512316" lon="14.1162575"><ele>133.2</ele><time>2026-05-02T06:15:51.025Z</time></trkpt><trkpt lat="42.4511767" lon="14.1162004"><ele>129.39999999999998</ele><time>2026-05-02T06:15:53.026Z</time></trkpt><trkpt lat="42.451082" lon="14.1161734"><ele>125.60000000000001</ele><time>2026-05-02T06:15:56.026Z</time></trkpt><trkpt lat="42.4510012" lon="14.1161966"><ele>121.80000000000001</ele><time>2026-05-02T06:15:58.026Z</time></trkpt><trkpt lat="42.4509058" lon="14.1162435"><ele>118.0</ele><time>2026-05-02T06:16:00.026Z</time></trkpt><trkpt lat="42.4508136" lon="14.1162956"><ele>118.0</ele><time>2026-05-02T06:16:02.026Z</time></trkpt><trkpt lat="42.4507269" lon="14.1163499"><ele>118.00000000000001</ele><time>2026-05-02T06:16:04.026Z</time></trkpt><trkpt lat="42.4506319" lon="14.1164119"><ele>118.00000000000001</ele><time>2026-05-02T06:16:06.026Z</time></trkpt><trkpt lat="42.4505446" lon="14.1164824"><ele>118.0</ele><time>2026-05-02T06:16:08.025Z</time></trkpt><trkpt lat="42.4504582" lon="14.1165691"><ele>118.0</ele><time>2026-05-02T06:16:10.026Z</time></trkpt><trkpt lat="42.4503631" lon="14.1166681"><ele>115.80000000000001</ele><time>2026-05-02T06:16:12.026Z</time></trkpt><trkpt lat="42.4503125" lon="14.1167193"><ele>113.60000000000001</ele><time>2026-05-02T06:16:13.026Z</time></trkpt><trkpt lat="42.4502617" lon="14.1167711"><ele>111.39999999999999</ele><time>2026-05-02T06:16:14.026Z</time></trkpt><trkpt lat="42.4501645" lon="14.1168748"><ele>109.19999999999999</ele><time>2026-05-02T06:16:16.026Z</time></trkpt><trkpt lat="42.4500761" lon="14.1169546"><ele>107.0</ele><time>2026-05-02T06:16:18.026Z</time></trkpt><trkpt lat="42.4499907" lon="14.1170244"><ele>106.99999999999999</ele><time>2026-05-02T06:16:20.026Z</time></trkpt><trkpt lat="42.4498961" lon="14.1170879"><ele>107.0</ele><time>2026-05-02T06:16:22.026Z</time></trkpt><trkpt lat="42.4497768" lon="14.1171567"><ele>107.0</ele><time>2026-05-02T06:16:24.026Z</time></trkpt><trkpt lat="42.4497108" lon="14.1171883"><ele>107.0</ele><time>2026-05-02T06:16:25.026Z</time></trkpt><trkpt lat="42.4496417" lon="14.1172141"><ele>106.99999999999999</ele><time>2026-05-02T06:16:26.026Z</time></trkpt><trkpt lat="42.4495704" lon="14.1172308"><ele>107.0</ele><time>2026-05-02T06:16:27.026Z</time></trkpt><trkpt lat="42.4495012" lon="14.117239"><ele>105.57142857142858</ele><time>2026-05-02T06:16:28.026Z</time></trkpt><trkpt lat="42.4494311" lon="14.1172384"><ele>104.14285714285714</ele><time>2026-05-02T06:16:29.026Z</time></trkpt><trkpt lat="42.4493667" lon="14.1172279"><ele>102.71428571428572</ele><time>2026-05-02T06:16:30.026Z</time></trkpt><trkpt lat="42.4493017" lon="14.1172119"><ele>101.28571428571429</ele><time>2026-05-02T06:16:31.026Z</time></trkpt><trkpt lat="42.4492357" lon="14.1171907"><ele>99.85714285714286</ele><time>2026-05-02T06:16:32.026Z</time></trkpt><trkpt lat="42.4491658" lon="14.1171651"><ele>98.42857142857143</ele><time>2026-05-02T06:16:33.026Z</time></trkpt><trkpt lat="42.4490984" lon="14.1171453"><ele>97.0</ele><time>2026-05-02T06:16:34.026Z</time></trkpt><trkpt lat="42.4490284" lon="14.1171281"><ele>97.0</ele><time>2026-05-02T06:16:35.026Z</time></trkpt><trkpt lat="42.4489631" lon="14.1171071"><ele>97.0</ele><time>2026-05-02T06:16:36.026Z</time></trkpt><trkpt lat="42.448898" lon="14.117091"><ele>97.0</ele><time>2026-05-02T06:16:37.026Z</time></trkpt><trkpt lat="42.4487848" lon="14.1170708"><ele>97.0</ele><time>2026-05-02T06:16:39.026Z</time></trkpt><trkpt lat="42.4486778" lon="14.1170766"><ele>97.0</ele><time>2026-05-02T06:16:41.026Z</time></trkpt><trkpt lat="42.4485834" lon="14.1171034"><ele>96.66666666666667</ele><time>2026-05-02T06:16:43.026Z</time></trkpt><trkpt lat="42.4485094" lon="14.1171224"><ele>96.33333333333334</ele><time>2026-05-02T06:16:45.025Z</time></trkpt><trkpt lat="42.4485165" lon="14.1172142"><ele>96.0</ele><time>2026-05-02T06:17:34.026Z</time></trkpt><trkpt lat="42.4485209" lon="14.1173149"><ele>95.66666666666667</ele><time>2026-05-02T06:17:38.026Z</time></trkpt><trkpt lat="42.4485212" lon="14.1174059"><ele>95.33333333333334</ele><time>2026-05-02T06:17:41.025Z</time></trkpt><trkpt lat="42.4485163" lon="14.1175417"><ele>95.0</ele><time>2026-05-02T06:17:44.025Z</time></trkpt><trkpt lat="42.4485257" lon="14.1176696"><ele>94.14285714285714</ele><time>2026-05-02T06:17:46.026Z</time></trkpt><trkpt lat="42.4485395" lon="14.1177636"><ele>93.28571428571429</ele><time>2026-05-02T06:17:48.026Z</time></trkpt><trkpt lat="42.4485592" lon="14.117878"><ele>92.42857142857142</ele><time>2026-05-02T06:17:51.026Z</time></trkpt><trkpt lat="42.4485677" lon="14.1179634"><ele>91.57142857142857</ele><time>2026-05-02T06:17:55.026Z</time></trkpt><trkpt lat="42.4485591" lon="14.1180525"><ele>90.71428571428571</ele><time>2026-05-02T06:18:26.026Z</time></trkpt><trkpt lat="42.4485415" lon="14.1181479"><ele>89.85714285714285</ele><time>2026-05-02T06:18:29.026Z</time></trkpt><trkpt lat="42.4485375" lon="14.1182425"><ele>89.0</ele><time>2026-05-02T06:18:31.026Z</time></trkpt><trkpt lat="42.4485538" lon="14.1183593"><ele>89.0</ele><time>2026-05-02T06:18:33.026Z</time></trkpt><trkpt lat="42.4485679" lon="14.1184708"><ele>89.0</ele><time>2026-05-02T06:18:35.026Z</time></trkpt><trkpt lat="42.4485811" lon="14.1185743"><ele>89.0</ele><time>2026-05-02T06:18:37.026Z</time></trkpt><trkpt lat="42.448592" lon="14.1186823"><ele>89.0</ele><time>2026-05-02T06:18:39.026Z</time></trkpt><trkpt lat="42.4486083" lon="14.1188047"><ele>89.0</ele><time>2026-05-02T06:18:41.026Z</time></trkpt><trkpt lat="42.4486196" lon="14.1189045"><ele>89.0</ele><time>2026-05-02T06:18:43.025Z</time></trkpt><trkpt lat="42.4486272" lon="14.118998"><ele>90.16666666666667</ele><time>2026-05-02T06:18:45.025Z</time></trkpt><trkpt lat="42.4486338" lon="14.1191254"><ele>91.33333333333334</ele><time>2026-05-02T06:18:48.026Z</time></trkpt><trkpt lat="42.4486382" lon="14.119221"><ele>92.5</ele><time>2026-05-02T06:19:16.026Z</time></trkpt><trkpt lat="42.4486413" lon="14.1193345"><ele>93.66666666666667</ele><time>2026-05-02T06:19:20.025Z</time></trkpt><trkpt lat="42.4486448" lon="14.1194376"><ele>94.83333333333333</ele><time>2026-05-02T06:19:23.025Z</time></trkpt><trkpt lat="42.4486522" lon="14.1195424"><ele>96.0</ele><time>2026-05-02T06:19:27.026Z</time></trkpt><trkpt lat="42.4486562" lon="14.1196292"><ele>95.99999999999999</ele><time>2026-05-02T06:19:31.026Z</time></trkpt><trkpt lat="42.4486588" lon="14.1197157"><ele>96.0</ele><time>2026-05-02T06:19:36.026Z</time></trkpt><trkpt lat="42.4486654" lon="14.1198052"><ele>96.0</ele><time>2026-05-02T06:19:41.026Z</time></trkpt><trkpt lat="42.4486659" lon="14.1198956"><ele>96.0</ele><time>2026-05-02T06:19:50.026Z</time></trkpt><trkpt lat="42.4486626" lon="14.1199823"><ele>96.0</ele><time>2026-05-02T06:20:02.026Z</time></trkpt><trkpt lat="42.4486639" lon="14.1200683"><ele>95.99999999999999</ele><time>2026-05-02T06:20:11.025Z</time></trkpt><trkpt lat="42.4486654" lon="14.120163"><ele>96.0</ele><time>2026-05-02T06:20:19.026Z</time></trkpt><trkpt lat="42.4486676" lon="14.1202607"><ele>97.42857142857142</ele><time>2026-05-02T06:20:42.026Z</time></trkpt><trkpt lat="42.4486722" lon="14.1203557"><ele>98.85714285714286</ele><time>2026-05-02T06:20:53.026Z</time></trkpt><trkpt lat="42.4486751" lon="14.1204454"><ele>100.28571428571428</ele><time>2026-05-02T06:21:02.026Z</time></trkpt><trkpt lat="42.4486718" lon="14.1205387"><ele>101.71428571428571</ele><time>2026-05-02T06:21:11.026Z</time></trkpt><trkpt lat="42.4486751" lon="14.1206346"><ele>103.14285714285714</ele><time>2026-05-02T06:21:20.026Z</time></trkpt><trkpt lat="42.4486718" lon="14.1207283"><ele>104.57142857142857</ele><time>2026-05-02T06:21:43.026Z</time></trkpt><trkpt lat="42.44868" lon="14.1208218"><ele>106.0</ele><time>2026-05-02T06:21:51.026Z</time></trkpt><trkpt lat="42.4486807" lon="14.12092"><ele>107.71428571428572</ele><time>2026-05-02T06:21:58.026Z</time></trkpt><trkpt lat="42.4486827" lon="14.1210133"><ele>109.42857142857142</ele><time>2026-05-02T06:22:05.026Z</time></trkpt><trkpt lat="42.448684" lon="14.1211096"><ele>111.14285714285714</ele><time>2026-05-02T06:22:11.026Z</time></trkpt><trkpt lat="42.4486898" lon="14.1212115"><ele>112.85714285714286</ele><time>2026-05-02T06:23:04.025Z</time></trkpt><trkpt lat="42.4486857" lon="14.1213042"><ele>114.57142857142858</ele><time>2026-05-02T06:23:11.026Z</time></trkpt><trkpt lat="42.4486895" lon="14.121391"><ele>116.28571428571428</ele><time>2026-05-02T06:23:16.026Z</time></trkpt><trkpt lat="42.4486931" lon="14.1214854"><ele>118.0</ele><time>2026-05-02T06:23:22.026Z</time></trkpt><trkpt lat="42.4486934" lon="14.121577"><ele>119.50000000000001</ele><time>2026-05-02T06:23:28.026Z</time></trkpt><trkpt lat="42.4487021" lon="14.1216754"><ele>121.0</ele><time>2026-05-02T06:23:32.026Z</time></trkpt><trkpt lat="42.4487166" lon="14.1217891"><ele>122.5</ele><time>2026-05-02T06:23:35.026Z</time></trkpt><trkpt lat="42.4487279" lon="14.1218982"><ele>124.0</ele><time>2026-05-02T06:23:38.026Z</time></trkpt><trkpt lat="42.4487378" lon="14.1219846"><ele>125.50000000000001</ele><time>2026-05-02T06:23:40.026Z</time></trkpt><trkpt lat="42.448762" lon="14.1220803"><ele>127.0</ele><time>2026-05-02T06:23:42.026Z</time></trkpt><trkpt lat="42.4487856" lon="14.1221827"><ele>126.83333333333334</ele><time>2026-05-02T06:23:44.026Z</time></trkpt><trkpt lat="42.448811" lon="14.1222825"><ele>126.66666666666667</ele><time>2026-05-02T06:23:46.026Z</time></trkpt><trkpt lat="42.4488567" lon="14.1223958"><ele>126.5</ele><time>2026-05-02T06:23:48.026Z</time></trkpt><trkpt lat="42.4488987" lon="14.122504"><ele>126.33333333333334</ele><time>2026-05-02T06:23:50.026Z</time></trkpt><trkpt lat="42.448915" lon="14.1225867"><ele>126.16666666666667</ele><time>2026-05-02T06:23:52.026Z</time></trkpt><trkpt lat="42.4488505" lon="14.1226441"><ele>126.0</ele><time>2026-05-02T06:24:02.026Z</time></trkpt><trkpt lat="42.448766" lon="14.1226085"><ele>126.16666666666667</ele><time>2026-05-02T06:24:05.026Z</time></trkpt><trkpt lat="42.4486918" lon="14.1225924"><ele>126.33333333333334</ele><time>2026-05-02T06:24:20.026Z</time></trkpt><trkpt lat="42.4486082" lon="14.1225543"><ele>126.5</ele><time>2026-05-02T06:24:26.026Z</time></trkpt><trkpt lat="42.4485063" lon="14.1224919"><ele>126.66666666666667</ele><time>2026-05-02T06:24:28.026Z</time></trkpt><trkpt lat="42.4484389" lon="14.1224501"><ele>126.83333333333334</ele><time>2026-05-02T06:24:29.026Z</time></trkpt><trkpt lat="42.4483613" lon="14.1224039"><ele>127.0</ele><time>2026-05-02T06:24:30.026Z</time></trkpt><trkpt lat="42.4482777" lon="14.1223521"><ele>127.0</ele><time>2026-05-02T06:24:31.026Z</time></trkpt><trkpt lat="42.44819" lon="14.1222933"><ele>126.99999999999999</ele><time>2026-05-02T06:24:32.026Z</time></trkpt><trkpt lat="42.4480975" lon="14.1222318"><ele>126.99999999999999</ele><time>2026-05-02T06:24:33.026Z</time></trkpt><trkpt lat="42.4480019" lon="14.1221643"><ele>127.0</ele><time>2026-05-02T06:24:34.026Z</time></trkpt><trkpt lat="42.4479052" lon="14.1220996"><ele>127.0</ele><time>2026-05-02T06:24:35.026Z</time></trkpt><trkpt lat="42.447811" lon="14.1220324"><ele>128.33333333333334</ele><time>2026-05-02T06:24:36.026Z</time></trkpt><trkpt lat="42.4477181" lon="14.1219685"><ele>129.66666666666669</ele><time>2026-05-02T06:24:37.025Z</time></trkpt><trkpt lat="42.4476346" lon="14.121907"><ele>131.0</ele><time>2026-05-02T06:24:38.025Z</time></trkpt><trkpt lat="42.4475613" lon="14.1218543"><ele>132.33333333333334</ele><time>2026-05-02T06:24:39.025Z</time></trkpt><trkpt lat="42.4474869" lon="14.1218143"><ele>133.66666666666666</ele><time>2026-05-02T06:24:40.026Z</time></trkpt><trkpt lat="42.4474027" lon="14.1217871"><ele>135.0</ele><time>2026-05-02T06:24:41.026Z</time></trkpt><trkpt lat="42.447305" lon="14.1217739"><ele>135.0</ele><time>2026-05-02T06:24:42.026Z</time></trkpt><trkpt lat="42.4472029" lon="14.1217621"><ele>135.0</ele><time>2026-05-02T06:24:43.026Z</time></trkpt><trkpt lat="42.4471001" lon="14.1217525"><ele>135.0</ele><time>2026-05-02T06:24:44.026Z</time></trkpt><trkpt lat="42.4469985" lon="14.1217426"><ele>135.0</ele><time>2026-05-02T06:24:45.025Z</time></trkpt><trkpt lat="42.4468996" lon="14.1217293"><ele>135.0</ele><time>2026-05-02T06:24:46.026Z</time></trkpt><trkpt lat="42.4468021" lon="14.1217169"><ele>134.25</ele><time>2026-05-02T06:24:47.026Z</time></trkpt><trkpt lat="42.4467004" lon="14.1217125"><ele>133.5</ele><time>2026-05-02T06:24:48.025Z</time></trkpt><trkpt lat="42.4465883" lon="14.1217313"><ele>132.75</ele><time>2026-05-02T06:24:49.026Z</time></trkpt><trkpt lat="42.4464724" lon="14.1217628"><ele>132.0</ele><time>2026-05-02T06:24:50.026Z</time></trkpt><trkpt lat="42.4463555" lon="14.1217947"><ele>131.2</ele><time>2026-05-02T06:24:51.026Z</time></trkpt><trkpt lat="42.4462392" lon="14.1218228"><ele>130.39999999999998</ele><time>2026-05-02T06:24:52.026Z</time></trkpt><trkpt lat="42.4461281" lon="14.1218445"><ele>129.60000000000002</ele><time>2026-05-02T06:24:53.026Z</time></trkpt><trkpt lat="42.4460196" lon="14.1218648"><ele>128.8</ele><time>2026-05-02T06:24:54.026Z</time></trkpt><trkpt lat="42.4459174" lon="14.1218935"><ele>128.0</ele><time>2026-05-02T06:24:55.026Z</time></trkpt><trkpt lat="42.4458211" lon="14.1219371"><ele>128.0</ele><time>2026-05-02T06:24:56.026Z</time></trkpt><trkpt lat="42.445723" lon="14.1220033"><ele>128.0</ele><time>2026-05-02T06:24:57.026Z</time></trkpt><trkpt lat="42.4456335" lon="14.1220928"><ele>128.0</ele><time>2026-05-02T06:24:58.026Z</time></trkpt><trkpt lat="42.4455518" lon="14.1222014"><ele>128.0</ele><time>2026-05-02T06:24:59.025Z</time></trkpt><trkpt lat="42.4454662" lon="14.1223155"><ele>127.5</ele><time>2026-05-02T06:25:00.025Z</time></trkpt><trkpt lat="42.4453713" lon="14.1224283"><ele>127.0</ele><time>2026-05-02T06:25:01.026Z</time></trkpt><trkpt lat="42.4452714" lon="14.1225214"><ele>126.5</ele><time>2026-05-02T06:25:02.026Z</time></trkpt><trkpt lat="42.4451699" lon="14.1225896"><ele>126.0</ele><time>2026-05-02T06:25:03.026Z</time></trkpt><trkpt lat="42.4450719" lon="14.1226552"><ele>126.0</ele><time>2026-05-02T06:25:04.026Z</time></trkpt><trkpt lat="42.444973" lon="14.1227118"><ele>126.0</ele><time>2026-05-02T06:25:05.026Z</time></trkpt><trkpt lat="42.4448711" lon="14.1227678"><ele>126.0</ele><time>2026-05-02T06:25:06.026Z</time></trkpt><trkpt lat="42.4447784" lon="14.1228409"><ele>126.0</ele><time>2026-05-02T06:25:07.026Z</time></trkpt><trkpt lat="42.4446906" lon="14.1229379"><ele>126.0</ele><time>2026-05-02T06:25:08.026Z</time></trkpt><trkpt lat="42.4446069" lon="14.1230479"><ele>124.6</ele><time>2026-05-02T06:25:09.026Z</time></trkpt><trkpt lat="42.4445188" lon="14.1231622"><ele>123.19999999999999</ele><time>2026-05-02T06:25:10.026Z</time></trkpt><trkpt lat="42.4444311" lon="14.1232602"><ele>121.80000000000001</ele><time>2026-05-02T06:25:11.026Z</time></trkpt><trkpt lat="42.4443462" lon="14.1233389"><ele>120.4</ele><time>2026-05-02T06:25:12.026Z</time></trkpt><trkpt lat="42.4442629" lon="14.1233975"><ele>119.0</ele><time>2026-05-02T06:25:13.026Z</time></trkpt><trkpt lat="42.4441746" lon="14.1234329"><ele>119.0</ele><time>2026-05-02T06:25:14.026Z</time></trkpt><trkpt lat="42.4440804" lon="14.1234363"><ele>119.0</ele><time>2026-05-02T06:25:15.026Z</time></trkpt><trkpt lat="42.4439805" lon="14.1234216"><ele>119.0</ele><time>2026-05-02T06:25:16.026Z</time></trkpt><trkpt lat="42.4438762" lon="14.1234266"><ele>119.0</ele><time>2026-05-02T06:25:17.026Z</time></trkpt><trkpt lat="42.4437686" lon="14.1234528"><ele>119.0</ele><time>2026-05-02T06:25:18.026Z</time></trkpt><trkpt lat="42.4436568" lon="14.1234805"><ele>117.0</ele><time>2026-05-02T06:25:19.026Z</time></trkpt><trkpt lat="42.443539" lon="14.1235122"><ele>115.0</ele><time>2026-05-02T06:25:20.025Z</time></trkpt><trkpt lat="42.4434181" lon="14.1235496"><ele>113.0</ele><time>2026-05-02T06:25:21.026Z</time></trkpt><trkpt lat="42.4432945" lon="14.1235885"><ele>111.0</ele><time>2026-05-02T06:25:22.026Z</time></trkpt><trkpt lat="42.4431717" lon="14.123632"><ele>111.0</ele><time>2026-05-02T06:25:23.025Z</time></trkpt><trkpt lat="42.4430478" lon="14.1236719"><ele>111.0</ele><time>2026-05-02T06:25:24.026Z</time></trkpt><trkpt lat="42.4429234" lon="14.1237146"><ele>111.0</ele><time>2026-05-02T06:25:25.026Z</time></trkpt><trkpt lat="42.4427917" lon="14.1237595"><ele>111.0</ele><time>2026-05-02T06:25:26.026Z</time></trkpt><trkpt lat="42.4426533" lon="14.1238028"><ele>111.5</ele><time>2026-05-02T06:25:27.025Z</time></trkpt><trkpt lat="42.442516" lon="14.1238414"><ele>112.0</ele><time>2026-05-02T06:25:28.026Z</time></trkpt><trkpt lat="42.4423791" lon="14.1238771"><ele>112.5</ele><time>2026-05-02T06:25:29.026Z</time></trkpt><trkpt lat="42.4422422" lon="14.1239037"><ele>113.0</ele><time>2026-05-02T06:25:30.026Z</time></trkpt><trkpt lat="42.442107" lon="14.123924"><ele>113.0</ele><time>2026-05-02T06:25:31.026Z</time></trkpt><trkpt lat="42.4419728" lon="14.1239254"><ele>113.0</ele><time>2026-05-02T06:25:32.026Z</time></trkpt><trkpt lat="42.4418368" lon="14.1239126"><ele>113.0</ele><time>2026-05-02T06:25:33.026Z</time></trkpt><trkpt lat="42.4417101" lon="14.1238946"><ele>113.0</ele><time>2026-05-02T06:25:34.026Z</time></trkpt><trkpt lat="42.4415953" lon="14.1238721"><ele>113.0</ele><time>2026-05-02T06:25:35.026Z</time></trkpt><trkpt lat="42.4414872" lon="14.1238434"><ele>113.0</ele><time>2026-05-02T06:25:36.025Z</time></trkpt><trkpt lat="42.4413826" lon="14.1238032"><ele>113.0</ele><time>2026-05-02T06:25:37.026Z</time></trkpt><trkpt lat="42.4412763" lon="14.1237482"><ele>113.0</ele><time>2026-05-02T06:25:38.026Z</time></trkpt><trkpt lat="42.4411683" lon="14.1236825"><ele>111.25</ele><time>2026-05-02T06:25:39.026Z</time></trkpt><trkpt lat="42.4410557" lon="14.1236118"><ele>109.5</ele><time>2026-05-02T06:25:40.026Z</time></trkpt><trkpt lat="42.4409365" lon="14.1235393"><ele>107.75</ele><time>2026-05-02T06:25:41.026Z</time></trkpt><trkpt lat="42.4408146" lon="14.123467"><ele>106.0</ele><time>2026-05-02T06:25:42.025Z</time></trkpt><trkpt lat="42.4406974" lon="14.1234028"><ele>106.0</ele><time>2026-05-02T06:25:43.026Z</time></trkpt><trkpt lat="42.4405862" lon="14.1233458"><ele>106.0</ele><time>2026-05-02T06:25:44.026Z</time></trkpt><trkpt lat="42.4404744" lon="14.1233016"><ele>106.0</ele><time>2026-05-02T06:25:45.026Z</time></trkpt><trkpt lat="42.440357" lon="14.1232676"><ele>106.0</ele><time>2026-05-02T06:25:46.025Z</time></trkpt><trkpt lat="42.4402384" lon="14.1232437"><ele>106.25</ele><time>2026-05-02T06:25:47.026Z</time></trkpt><trkpt lat="42.4401128" lon="14.1232279"><ele>106.5</ele><time>2026-05-02T06:25:48.026Z</time></trkpt><trkpt lat="42.4399837" lon="14.1232164"><ele>106.75</ele><time>2026-05-02T06:25:49.026Z</time></trkpt><trkpt lat="42.4398625" lon="14.1232046"><ele>107.0</ele><time>2026-05-02T06:25:50.025Z</time></trkpt><trkpt lat="42.4397422" lon="14.12321"><ele>100.25</ele><time>2026-05-02T06:25:51.026Z</time></trkpt><trkpt lat="42.4396252" lon="14.1232375"><ele>93.5</ele><time>2026-05-02T06:25:52.026Z</time></trkpt><trkpt lat="42.4395082" lon="14.1232885"><ele>86.75</ele><time>2026-05-02T06:25:53.025Z</time></trkpt><trkpt lat="42.4393882" lon="14.1233452"><ele>80.0</ele><time>2026-05-02T06:25:54.026Z</time></trkpt><trkpt lat="42.4392666" lon="14.1233949"><ele>80.0</ele><time>2026-05-02T06:25:55.026Z</time></trkpt><trkpt lat="42.4391409" lon="14.1234356"><ele>80.0</ele><time>2026-05-02T06:25:56.026Z</time></trkpt><trkpt lat="42.4390095" lon="14.1234638"><ele>80.0</ele><time>2026-05-02T06:25:57.026Z</time></trkpt><trkpt lat="42.4388769" lon="14.1234788"><ele>80.0</ele><time>2026-05-02T06:25:58.026Z</time></trkpt><trkpt lat="42.4387427" lon="14.1234936"><ele>77.25</ele><time>2026-05-02T06:25:59.026Z</time></trkpt><trkpt lat="42.4386165" lon="14.1235157"><ele>74.5</ele><time>2026-05-02T06:26:00.026Z</time></trkpt><trkpt lat="42.4384885" lon="14.1235481"><ele>71.75</ele><time>2026-05-02T06:26:01.026Z</time></trkpt><trkpt lat="42.4383627" lon="14.1235804"><ele>69.0</ele><time>2026-05-02T06:26:02.025Z</time></trkpt><trkpt lat="42.4382381" lon="14.1236198"><ele>69.0</ele><time>2026-05-02T06:26:03.026Z</time></trkpt><trkpt lat="42.438114" lon="14.1236554"><ele>69.0</ele><time>2026-05-02T06:26:04.026Z</time></trkpt><trkpt lat="42.4379882" lon="14.123691"><ele>69.0</ele><time>2026-05-02T06:26:05.026Z</time></trkpt><trkpt lat="42.4378706" lon="14.1237195"><ele>69.0</ele><time>2026-05-02T06:26:06.026Z</time></trkpt><trkpt lat="42.437768" lon="14.1237446"><ele>68.8</ele><time>2026-05-02T06:26:07.026Z</time></trkpt><trkpt lat="42.4376722" lon="14.1237422"><ele>68.60000000000001</ele><time>2026-05-02T06:26:08.026Z</time></trkpt><trkpt lat="42.437576" lon="14.1237165"><ele>68.4</ele><time>2026-05-02T06:26:09.026Z</time></trkpt><trkpt lat="42.4374797" lon="14.1236769"><ele>68.2</ele><time>2026-05-02T06:26:10.026Z</time></trkpt><trkpt lat="42.4373768" lon="14.1236574"><ele>68.0</ele><time>2026-05-02T06:26:11.026Z</time></trkpt><trkpt lat="42.4372773" lon="14.1236265"><ele>68.0</ele><time>2026-05-02T06:26:12.026Z</time></trkpt><trkpt lat="42.4371836" lon="14.1235765"><ele>68.0</ele><time>2026-05-02T06:26:13.026Z</time></trkpt><trkpt lat="42.4370948" lon="14.1235125"><ele>68.0</ele><time>2026-05-02T06:26:14.026Z</time></trkpt><trkpt lat="42.437001" lon="14.1234429"><ele>68.0</ele><time>2026-05-02T06:26:15.026Z</time></trkpt><trkpt lat="42.4368927" lon="14.123387"><ele>68.0</ele><time>2026-05-02T06:26:16.026Z</time></trkpt><trkpt lat="42.4367777" lon="14.1233385"><ele>67.0</ele><time>2026-05-02T06:26:17.026Z</time></trkpt><trkpt lat="42.4366579" lon="14.1232989"><ele>66.0</ele><time>2026-05-02T06:26:18.026Z</time></trkpt><trkpt lat="42.4365354" lon="14.1232586"><ele>65.0</ele><time>2026-05-02T06:26:19.026Z</time></trkpt><trkpt lat="42.4364124" lon="14.1232165"><ele>64.0</ele><time>2026-05-02T06:26:20.026Z</time></trkpt><trkpt lat="42.4362921" lon="14.1231859"><ele>64.0</ele><time>2026-05-02T06:26:21.026Z</time></trkpt><trkpt lat="42.4361816" lon="14.12316"><ele>64.0</ele><time>2026-05-02T06:26:22.026Z</time></trkpt><trkpt lat="42.4360756" lon="14.1231323"><ele>64.0</ele><time>2026-05-02T06:26:23.025Z</time></trkpt><trkpt lat="42.4359834" lon="14.1231064"><ele>64.0</ele><time>2026-05-02T06:26:24.026Z</time></trkpt><trkpt lat="42.4359028" lon="14.1230849"><ele>64.0</ele><time>2026-05-02T06:26:25.026Z</time></trkpt><trkpt lat="42.4358276" lon="14.1230687"><ele>63.99999999999999</ele><time>2026-05-02T06:26:26.026Z</time></trkpt><trkpt lat="42.4357578" lon="14.1230556"><ele>64.0</ele><time>2026-05-02T06:26:27.026Z</time></trkpt><trkpt lat="42.4356947" lon="14.1230571"><ele>64.0</ele><time>2026-05-02T06:26:28.026Z</time></trkpt><trkpt lat="42.4356237" lon="14.1230828"><ele>64.0</ele><time>2026-05-02T06:26:29.025Z</time></trkpt><trkpt lat="42.4355443" lon="14.1231358"><ele>63.99999999999999</ele><time>2026-05-02T06:26:30.025Z</time></trkpt><trkpt lat="42.4354608" lon="14.1232105"><ele>64.0</ele><time>2026-05-02T06:26:31.026Z</time></trkpt><trkpt lat="42.4353681" lon="14.1233086"><ele>64.5</ele><time>2026-05-02T06:26:32.026Z</time></trkpt><trkpt lat="42.4352681" lon="14.1234179"><ele>65.0</ele><time>2026-05-02T06:26:33.026Z</time></trkpt><trkpt lat="42.4351639" lon="14.1235416"><ele>65.5</ele><time>2026-05-02T06:26:34.026Z</time></trkpt><trkpt lat="42.4350534" lon="14.1236777"><ele>66.0</ele><time>2026-05-02T06:26:35.026Z</time></trkpt><trkpt lat="42.4349373" lon="14.1238217"><ele>66.0</ele><time>2026-05-02T06:26:36.026Z</time></trkpt><trkpt lat="42.434819" lon="14.1239748"><ele>66.0</ele><time>2026-05-02T06:26:37.026Z</time></trkpt><trkpt lat="42.4346986" lon="14.1241358"><ele>66.0</ele><time>2026-05-02T06:26:38.026Z</time></trkpt><trkpt lat="42.4345757" lon="14.1243019"><ele>65.33333333333333</ele><time>2026-05-02T06:26:39.026Z</time></trkpt><trkpt lat="42.4344522" lon="14.1244715"><ele>64.66666666666666</ele><time>2026-05-02T06:26:40.026Z</time></trkpt><trkpt lat="42.4343302" lon="14.1246328"><ele>64.0</ele><time>2026-05-02T06:26:41.026Z</time></trkpt><trkpt lat="42.4342177" lon="14.1247868"><ele>61.25</ele><time>2026-05-02T06:26:42.026Z</time></trkpt><trkpt lat="42.4341163" lon="14.1249326"><ele>58.5</ele><time>2026-05-02T06:26:43.026Z</time></trkpt><trkpt lat="42.4340241" lon="14.1250621"><ele>55.75</ele><time>2026-05-02T06:26:44.026Z</time></trkpt><trkpt lat="42.4339434" lon="14.1251768"><ele>53.0</ele><time>2026-05-02T06:26:45.026Z</time></trkpt><trkpt lat="42.4338809" lon="14.1252698"><ele>53.00000000000001</ele><time>2026-05-02T06:26:46.026Z</time></trkpt><trkpt lat="42.4338316" lon="14.1253415"><ele>53.0</ele><time>2026-05-02T06:26:47.026Z</time></trkpt><trkpt lat="42.4337407" lon="14.1254154"><ele>53.0</ele><time>2026-05-02T06:26:49.026Z</time></trkpt><trkpt lat="42.4336633" lon="14.1253883"><ele>53.0</ele><time>2026-05-02T06:26:51.026Z</time></trkpt><trkpt lat="42.4335958" lon="14.1253236"><ele>53.00000000000001</ele><time>2026-05-02T06:26:53.026Z</time></trkpt><trkpt lat="42.433526" lon="14.1252289"><ele>53.0</ele><time>2026-05-02T06:26:55.026Z</time></trkpt><trkpt lat="42.4334626" lon="14.1251583"><ele>54.333333333333336</ele><time>2026-05-02T06:26:57.026Z</time></trkpt><trkpt lat="42.4334039" lon="14.1251024"><ele>55.66666666666667</ele><time>2026-05-02T06:26:59.025Z</time></trkpt><trkpt lat="42.4333246" lon="14.1251269"><ele>57.0</ele><time>2026-05-02T06:27:01.025Z</time></trkpt><trkpt lat="42.433247" lon="14.1252302"><ele>58.33333333333333</ele><time>2026-05-02T06:27:03.026Z</time></trkpt><trkpt lat="42.4331926" lon="14.1252933"><ele>59.666666666666664</ele><time>2026-05-02T06:27:04.026Z</time></trkpt><trkpt lat="42.4331232" lon="14.1253536"><ele>61.0</ele><time>2026-05-02T06:27:05.025Z</time></trkpt><trkpt lat="42.4330417" lon="14.1254124"><ele>61.33333333333333</ele><time>2026-05-02T06:27:06.026Z</time></trkpt><trkpt lat="42.4329631" lon="14.1254715"><ele>61.666666666666664</ele><time>2026-05-02T06:27:07.026Z</time></trkpt><trkpt lat="42.4328932" lon="14.1255314"><ele>62.0</ele><time>2026-05-02T06:27:08.026Z</time></trkpt><trkpt lat="42.4328318" lon="14.1255792"><ele>62.33333333333333</ele><time>2026-05-02T06:27:09.026Z</time></trkpt><trkpt lat="42.4327646" lon="14.1256425"><ele>62.666666666666664</ele><time>2026-05-02T06:27:10.026Z</time></trkpt><trkpt lat="42.4327024" lon="14.1257006"><ele>63.0</ele><time>2026-05-02T06:27:11.025Z</time></trkpt><trkpt lat="42.4326431" lon="14.1257669"><ele>63.0</ele><time>2026-05-02T06:27:12.026Z</time></trkpt><trkpt lat="42.4325862" lon="14.1258263"><ele>63.0</ele><time>2026-05-02T06:27:13.026Z</time></trkpt><trkpt lat="42.4325241" lon="14.1258835"><ele>63.0</ele><time>2026-05-02T06:27:14.026Z</time></trkpt><trkpt lat="42.4324625" lon="14.1259302"><ele>63.0</ele><time>2026-05-02T06:27:15.026Z</time></trkpt><trkpt lat="42.4323878" lon="14.1259837"><ele>63.0</ele><time>2026-05-02T06:27:16.026Z</time></trkpt><trkpt lat="42.4322945" lon="14.1260141"><ele>63.0</ele><time>2026-05-02T06:27:17.026Z</time></trkpt><trkpt lat="42.4322242" lon="14.1260671"><ele>63.0</ele><time>2026-05-02T06:27:18.026Z</time></trkpt><trkpt lat="42.4321501" lon="14.126115"><ele>63.0</ele><time>2026-05-02T06:27:19.025Z</time></trkpt><trkpt lat="42.432073" lon="14.1261613"><ele>63.0</ele><time>2026-05-02T06:27:20.025Z</time></trkpt><trkpt lat="42.4319995" lon="14.1262158"><ele>63.0</ele><time>2026-05-02T06:27:21.026Z</time></trkpt><trkpt lat="42.4319267" lon="14.1262598"><ele>63.0</ele><time>2026-05-02T06:27:22.026Z</time></trkpt><trkpt lat="42.4318444" lon="14.1262924"><ele>63.0</ele><time>2026-05-02T06:27:23.026Z</time></trkpt><trkpt lat="42.4317634" lon="14.1263124"><ele>64.5</ele><time>2026-05-02T06:27:24.026Z</time></trkpt><trkpt lat="42.4316773" lon="14.1263256"><ele>66.0</ele><time>2026-05-02T06:27:25.026Z</time></trkpt><trkpt lat="42.4315936" lon="14.1263293"><ele>67.5</ele><time>2026-05-02T06:27:26.026Z</time></trkpt><trkpt lat="42.4315094" lon="14.1263355"><ele>69.0</ele><time>2026-05-02T06:27:27.026Z</time></trkpt><trkpt lat="42.4314231" lon="14.1263552"><ele>70.5</ele><time>2026-05-02T06:27:28.026Z</time></trkpt><trkpt lat="42.4313391" lon="14.1263727"><ele>72.0</ele><time>2026-05-02T06:27:29.026Z</time></trkpt><trkpt lat="42.4312483" lon="14.126398"><ele>72.8</ele><time>2026-05-02T06:27:30.026Z</time></trkpt><trkpt lat="42.4311533" lon="14.126439"><ele>73.6</ele><time>2026-05-02T06:27:31.025Z</time></trkpt><trkpt lat="42.4310662" lon="14.126477"><ele>74.39999999999999</ele><time>2026-05-02T06:27:32.025Z</time></trkpt><trkpt lat="42.4309819" lon="14.1265222"><ele>75.2</ele><time>2026-05-02T06:27:33.026Z</time></trkpt><trkpt lat="42.430902" lon="14.1265772"><ele>76.0</ele><time>2026-05-02T06:27:34.026Z</time></trkpt><trkpt lat="42.430831" lon="14.1266475"><ele>76.0</ele><time>2026-05-02T06:27:35.026Z</time></trkpt><trkpt lat="42.4307604" lon="14.1267318"><ele>76.0</ele><time>2026-05-02T06:27:36.026Z</time></trkpt><trkpt lat="42.430688" lon="14.1268111"><ele>76.0</ele><time>2026-05-02T06:27:37.026Z</time></trkpt><trkpt lat="42.4306092" lon="14.1268798"><ele>76.0</ele><time>2026-05-02T06:27:38.026Z</time></trkpt><trkpt lat="42.430526" lon="14.1269156"><ele>76.0</ele><time>2026-05-02T06:27:39.026Z</time></trkpt><trkpt lat="42.4304486" lon="14.1269349"><ele>76.0</ele><time>2026-05-02T06:27:40.026Z</time></trkpt><trkpt lat="42.4303765" lon="14.1269453"><ele>76.83333333333333</ele><time>2026-05-02T06:27:41.026Z</time></trkpt><trkpt lat="42.430292" lon="14.1268866"><ele>77.66666666666666</ele><time>2026-05-02T06:27:43.026Z</time></trkpt><trkpt lat="42.4302481" lon="14.1268085"><ele>78.5</ele><time>2026-05-02T06:27:54.026Z</time></trkpt><trkpt lat="42.4301855" lon="14.1267529"><ele>79.33333333333333</ele><time>2026-05-02T06:27:58.026Z</time></trkpt><trkpt lat="42.4301172" lon="14.1267291"><ele>80.16666666666667</ele><time>2026-05-02T06:28:00.026Z</time></trkpt><trkpt lat="42.4300235" lon="14.1267731"><ele>81.0</ele><time>2026-05-02T06:28:02.026Z</time></trkpt><trkpt lat="42.4299626" lon="14.1268045"><ele>81.0</ele><time>2026-05-02T06:28:03.025Z</time></trkpt><trkpt lat="42.4298446" lon="14.1268425"><ele>81.0</ele><time>2026-05-02T06:28:05.026Z</time></trkpt><trkpt lat="42.4297751" lon="14.1268635"><ele>81.0</ele><time>2026-05-02T06:28:06.026Z</time></trkpt><trkpt lat="42.4297094" lon="14.1268889"><ele>81.0</ele><time>2026-05-02T06:28:07.026Z</time></trkpt><trkpt lat="42.4295882" lon="14.1269219"><ele>81.0</ele><time>2026-05-02T06:28:09.026Z</time></trkpt><trkpt lat="42.4295243" lon="14.1269312"><ele>81.0</ele><time>2026-05-02T06:28:10.026Z</time></trkpt><trkpt lat="42.4294584" lon="14.1269299"><ele>78.66666666666667</ele><time>2026-05-02T06:28:11.026Z</time></trkpt><trkpt lat="42.4293911" lon="14.126923"><ele>76.33333333333333</ele><time>2026-05-02T06:28:12.026Z</time></trkpt><trkpt lat="42.4293274" lon="14.1269137"><ele>74.0</ele><time>2026-05-02T06:28:13.026Z</time></trkpt><trkpt lat="42.4292565" lon="14.1269131"><ele>71.66666666666666</ele><time>2026-05-02T06:28:14.026Z</time></trkpt><trkpt lat="42.4291297" lon="14.1269051"><ele>69.33333333333333</ele><time>2026-05-02T06:28:16.026Z</time></trkpt><trkpt lat="42.4290678" lon="14.1268895"><ele>67.0</ele><time>2026-05-02T06:28:17.026Z</time></trkpt><trkpt lat="42.4289986" lon="14.1268721"><ele>67.0</ele><time>2026-05-02T06:28:18.026Z</time></trkpt><trkpt lat="42.4289355" lon="14.1268544"><ele>67.0</ele><time>2026-05-02T06:28:19.026Z</time></trkpt><trkpt lat="42.4288802" lon="14.1268038"><ele>67.0</ele><time>2026-05-02T06:28:20.026Z</time></trkpt><trkpt lat="42.4288118" lon="14.126748"><ele>67.0</ele><time>2026-05-02T06:28:21.025Z</time></trkpt><trkpt lat="42.428746" lon="14.126702"><ele>67.0</ele><time>2026-05-02T06:28:22.026Z</time></trkpt><trkpt lat="42.4286812" lon="14.1266376"><ele>67.0</ele><time>2026-05-02T06:28:23.025Z</time></trkpt><trkpt lat="42.4286104" lon="14.1264882"><ele>64.0</ele><time>2026-05-02T06:28:25.026Z</time></trkpt><trkpt lat="42.4285704" lon="14.1263621"><ele>61.0</ele><time>2026-05-02T06:28:27.026Z</time></trkpt><trkpt lat="42.4284848" lon="14.1262206"><ele>58.0</ele><time>2026-05-02T06:28:29.026Z</time></trkpt><trkpt lat="42.4284295" lon="14.1261605"><ele>55.0</ele><time>2026-05-02T06:28:30.025Z</time></trkpt><trkpt lat="42.4283637" lon="14.1260992"><ele>52.0</ele><time>2026-05-02T06:28:31.026Z</time></trkpt><trkpt lat="42.4283066" lon="14.1260543"><ele>51.99999999999999</ele><time>2026-05-02T06:28:32.025Z</time></trkpt><trkpt lat="42.4282145" lon="14.1260199"><ele>52.0</ele><time>2026-05-02T06:28:34.026Z</time></trkpt><trkpt lat="42.4280797" lon="14.1260299"><ele>52.0</ele><time>2026-05-02T06:28:36.026Z</time></trkpt><trkpt lat="42.4280101" lon="14.1260468"><ele>52.0</ele><time>2026-05-02T06:28:37.026Z</time></trkpt><trkpt lat="42.4279446" lon="14.1260616"><ele>51.99999999999999</ele><time>2026-05-02T06:28:38.026Z</time></trkpt><trkpt lat="42.4278809" lon="14.1260645"><ele>52.0</ele><time>2026-05-02T06:28:39.026Z</time></trkpt><trkpt lat="42.4278121" lon="14.1260443"><ele>50.83333333333333</ele><time>2026-05-02T06:28:40.026Z</time></trkpt><trkpt lat="42.4277409" lon="14.1260118"><ele>49.666666666666664</ele><time>2026-05-02T06:28:41.026Z</time></trkpt><trkpt lat="42.4276593" lon="14.1259736"><ele>48.5</ele><time>2026-05-02T06:28:42.026Z</time></trkpt><trkpt lat="42.4275766" lon="14.1259409"><ele>47.33333333333333</ele><time>2026-05-02T06:28:43.026Z</time></trkpt><trkpt lat="42.4275038" lon="14.1258978"><ele>46.166666666666664</ele><time>2026-05-02T06:28:44.026Z</time></trkpt><trkpt lat="42.427438" lon="14.1258517"><ele>45.0</ele><time>2026-05-02T06:28:45.026Z</time></trkpt><trkpt lat="42.4273704" lon="14.1258094"><ele>45.0</ele><time>2026-05-02T06:28:46.026Z</time></trkpt><trkpt lat="42.4273066" lon="14.1257726"><ele>45.0</ele><time>2026-05-02T06:28:47.026Z</time></trkpt><trkpt lat="42.4272265" lon="14.1257467"><ele>45.0</ele><time>2026-05-02T06:28:48.026Z</time></trkpt><trkpt lat="42.4271541" lon="14.1257283"><ele>45.0</ele><time>2026-05-02T06:28:49.026Z</time></trkpt><trkpt lat="42.4270827" lon="14.1257243"><ele>45.0</ele><time>2026-05-02T06:28:50.026Z</time></trkpt><trkpt lat="42.4270139" lon="14.1257241"><ele>45.0</ele><time>2026-05-02T06:28:51.025Z</time></trkpt><trkpt lat="42.4269192" lon="14.1257243"><ele>43.714285714285715</ele><time>2026-05-02T06:28:53.026Z</time></trkpt><trkpt lat="42.42685" lon="14.1256764"><ele>42.42857142857143</ele><time>2026-05-02T06:28:55.026Z</time></trkpt><trkpt lat="42.4267964" lon="14.1256233"><ele>41.142857142857146</ele><time>2026-05-02T06:28:58.026Z</time></trkpt><trkpt lat="42.4267727" lon="14.1255352"><ele>39.85714285714286</ele><time>2026-05-02T06:29:05.026Z</time></trkpt><trkpt lat="42.4267409" lon="14.1254331"><ele>38.57142857142857</ele><time>2026-05-02T06:29:07.026Z</time></trkpt><trkpt lat="42.4267172" lon="14.1253429"><ele>37.28571428571429</ele><time>2026-05-02T06:29:08.026Z</time></trkpt><trkpt lat="42.4267095" lon="14.1252367"><ele>36.0</ele><time>2026-05-02T06:29:09.026Z</time></trkpt><trkpt lat="42.426697" lon="14.1251099"><ele>36.0</ele><time>2026-05-02T06:29:10.025Z</time></trkpt><trkpt lat="42.4266752" lon="14.124972"><ele>36.0</ele><time>2026-05-02T06:29:11.026Z</time></trkpt><trkpt lat="42.426646" lon="14.124822"><ele>36.0</ele><time>2026-05-02T06:29:12.025Z</time></trkpt><trkpt lat="42.4266117" lon="14.1246621"><ele>36.0</ele><time>2026-05-02T06:29:13.026Z</time></trkpt><trkpt lat="42.426571" lon="14.1244965"><ele>36.75</ele><time>2026-05-02T06:29:14.026Z</time></trkpt><trkpt lat="42.4265222" lon="14.124325"><ele>37.5</ele><time>2026-05-02T06:29:15.026Z</time></trkpt><trkpt lat="42.4264745" lon="14.1241475"><ele>38.25</ele><time>2026-05-02T06:29:16.026Z</time></trkpt><trkpt lat="42.4264272" lon="14.1239613"><ele>39.0</ele><time>2026-05-02T06:29:17.026Z</time></trkpt><trkpt lat="42.4263801" lon="14.1237678"><ele>38.666666666666664</ele><time>2026-05-02T06:29:18.026Z</time></trkpt><trkpt lat="42.4263376" lon="14.1235632"><ele>38.33333333333333</ele><time>2026-05-02T06:29:19.025Z</time></trkpt><trkpt lat="42.426298" lon="14.1233516"><ele>38.0</ele><time>2026-05-02T06:29:20.025Z</time></trkpt><trkpt lat="42.4262599" lon="14.1231315"><ele>38.0</ele><time>2026-05-02T06:29:21.026Z</time></trkpt><trkpt lat="42.4262246" lon="14.1229052"><ele>38.0</ele><time>2026-05-02T06:29:22.026Z</time></trkpt><trkpt lat="42.426194" lon="14.1226751"><ele>38.0</ele><time>2026-05-02T06:29:23.026Z</time></trkpt><trkpt lat="42.4261637" lon="14.1224429"><ele>38.33333333333333</ele><time>2026-05-02T06:29:24.026Z</time></trkpt><trkpt lat="42.4261342" lon="14.1222129"><ele>38.666666666666664</ele><time>2026-05-02T06:29:25.026Z</time></trkpt><trkpt lat="42.4261067" lon="14.121991"><ele>39.0</ele><time>2026-05-02T06:29:26.026Z</time></trkpt><trkpt lat="42.4260808" lon="14.1217784"><ele>39.0</ele><time>2026-05-02T06:29:27.025Z</time></trkpt><trkpt lat="42.4260536" lon="14.121566"><ele>39.0</ele><time>2026-05-02T06:29:28.026Z</time></trkpt><trkpt lat="42.4260249" lon="14.1213564"><ele>39.0</ele><time>2026-05-02T06:29:29.026Z</time></trkpt><trkpt lat="42.4259908" lon="14.1211545"><ele>39.5</ele><time>2026-05-02T06:29:30.026Z</time></trkpt><trkpt lat="42.4259433" lon="14.1209639"><ele>40.0</ele><time>2026-05-02T06:29:31.026Z</time></trkpt><trkpt lat="42.4258836" lon="14.1207823"><ele>40.5</ele><time>2026-05-02T06:29:32.026Z</time></trkpt><trkpt lat="42.4258217" lon="14.1206071"><ele>41.0</ele><time>2026-05-02T06:29:33.026Z</time></trkpt><trkpt lat="42.4257586" lon="14.120432"><ele>42.0</ele><time>2026-05-02T06:29:34.026Z</time></trkpt><trkpt lat="42.4256951" lon="14.1202591"><ele>43.0</ele><time>2026-05-02T06:29:35.026Z</time></trkpt><trkpt lat="42.4256328" lon="14.1200854"><ele>44.0</ele><time>2026-05-02T06:29:36.026Z</time></trkpt><trkpt lat="42.4255779" lon="14.1199132"><ele>45.0</ele><time>2026-05-02T06:29:37.026Z</time></trkpt><trkpt lat="42.4255322" lon="14.1197398"><ele>47.0</ele><time>2026-05-02T06:29:38.026Z</time></trkpt><trkpt lat="42.4254899" lon="14.1195574"><ele>49.0</ele><time>2026-05-02T06:29:39.026Z</time></trkpt><trkpt lat="42.4254524" lon="14.1193635"><ele>51.0</ele><time>2026-05-02T06:29:40.026Z</time></trkpt><trkpt lat="42.4254138" lon="14.1191501"><ele>47.0</ele><time>2026-05-02T06:29:41.026Z</time></trkpt><trkpt lat="42.4253727" lon="14.1189085"><ele>43.0</ele><time>2026-05-02T06:29:42.026Z</time></trkpt><trkpt lat="42.4253247" lon="14.1186434"><ele>39.0</ele><time>2026-05-02T06:29:43.026Z</time></trkpt><trkpt lat="42.4252739" lon="14.1183659"><ele>39.333333333333336</ele><time>2026-05-02T06:29:44.025Z</time></trkpt><trkpt lat="42.4252252" lon="14.118079"><ele>39.66666666666667</ele><time>2026-05-02T06:29:45.026Z</time></trkpt><trkpt lat="42.4251823" lon="14.1177904"><ele>40.0</ele><time>2026-05-02T06:29:46.026Z</time></trkpt><trkpt lat="42.4251466" lon="14.1175086"><ele>41.333333333333336</ele><time>2026-05-02T06:29:47.025Z</time></trkpt><trkpt lat="42.425115" lon="14.1172282"><ele>42.666666666666664</ele><time>2026-05-02T06:29:48.026Z</time></trkpt><trkpt lat="42.4250914" lon="14.1169507"><ele>44.0</ele><time>2026-05-02T06:29:49.026Z</time></trkpt><trkpt lat="42.4250707" lon="14.116685"><ele>44.0</ele><time>2026-05-02T06:29:50.026Z</time></trkpt><trkpt lat="42.4250554" lon="14.1164246"><ele>44.0</ele><time>2026-05-02T06:29:51.026Z</time></trkpt><trkpt lat="42.4250379" lon="14.1161724"><ele>44.0</ele><time>2026-05-02T06:29:52.026Z</time></trkpt><trkpt lat="42.4250191" lon="14.1159282"><ele>44.33333333333333</ele><time>2026-05-02T06:29:53.025Z</time></trkpt><trkpt lat="42.4250034" lon="14.1156997"><ele>44.666666666666664</ele><time>2026-05-02T06:29:54.026Z</time></trkpt><trkpt lat="42.4249895" lon="14.1154818"><ele>45.0</ele><time>2026-05-02T06:29:55.025Z</time></trkpt><trkpt lat="42.4249773" lon="14.1152782"><ele>45.0</ele><time>2026-05-02T06:29:56.026Z</time></trkpt><trkpt lat="42.4249654" lon="14.1150887"><ele>45.0</ele><time>2026-05-02T06:29:57.026Z</time></trkpt><trkpt lat="42.4249569" lon="14.1149093"><ele>45.0</ele><time>2026-05-02T06:29:58.026Z</time></trkpt><trkpt lat="42.4249459" lon="14.114733"><ele>45.0</ele><time>2026-05-02T06:29:59.026Z</time></trkpt><trkpt lat="42.4249356" lon="14.1145534"><ele>45.75</ele><time>2026-05-02T06:30:00.026Z</time></trkpt><trkpt lat="42.4249199" lon="14.11437"><ele>46.5</ele><time>2026-05-02T06:30:01.026Z</time></trkpt><trkpt lat="42.4249042" lon="14.1141801"><ele>47.25</ele><time>2026-05-02T06:30:02.026Z</time></trkpt><trkpt lat="42.4248924" lon="14.1139839"><ele>48.0</ele><time>2026-05-02T06:30:03.025Z</time></trkpt><trkpt lat="42.4248766" lon="14.1137816"><ele>48.5</ele><time>2026-05-02T06:30:04.026Z</time></trkpt><trkpt lat="42.4248642" lon="14.1135807"><ele>49.0</ele><time>2026-05-02T06:30:05.026Z</time></trkpt><trkpt lat="42.4248516" lon="14.1133931"><ele>49.5</ele><time>2026-05-02T06:30:06.026Z</time></trkpt><trkpt lat="42.4248396" lon="14.1132136"><ele>50.0</ele><time>2026-05-02T06:30:07.026Z</time></trkpt><trkpt lat="42.424837" lon="14.1130436"><ele>50.5</ele><time>2026-05-02T06:30:08.026Z</time></trkpt><trkpt lat="42.4248443" lon="14.1128759"><ele>51.0</ele><time>2026-05-02T06:30:09.025Z</time></trkpt><trkpt lat="42.4248648" lon="14.1127128"><ele>51.5</ele><time>2026-05-02T06:30:10.026Z</time></trkpt><trkpt lat="42.4248912" lon="14.1125554"><ele>52.0</ele><time>2026-05-02T06:30:11.026Z</time></trkpt><trkpt lat="42.4249211" lon="14.1124087"><ele>51.33333333333333</ele><time>2026-05-02T06:30:12.026Z</time></trkpt><trkpt lat="42.4249518" lon="14.1122773"><ele>50.666666666666664</ele><time>2026-05-02T06:30:13.026Z</time></trkpt><trkpt lat="42.4249784" lon="14.1121602"><ele>50.0</ele><time>2026-05-02T06:30:14.025Z</time></trkpt><trkpt lat="42.4250024" lon="14.1120488"><ele>49.33333333333333</ele><time>2026-05-02T06:30:15.026Z</time></trkpt><trkpt lat="42.4250249" lon="14.111956"><ele>48.666666666666664</ele><time>2026-05-02T06:30:16.026Z</time></trkpt><trkpt lat="42.4250434" lon="14.1118722"><ele>48.0</ele><time>2026-05-02T06:30:17.026Z</time></trkpt><trkpt lat="42.4250768" lon="14.1117307"><ele>48.0</ele><time>2026-05-02T06:30:19.026Z</time></trkpt><trkpt lat="42.4251082" lon="14.1116222"><ele>48.0</ele><time>2026-05-02T06:30:21.026Z</time></trkpt><trkpt lat="42.4251389" lon="14.111546"><ele>48.0</ele><time>2026-05-02T06:30:23.026Z</time></trkpt><trkpt lat="42.4251593" lon="14.1114387"><ele>48.0</ele><time>2026-05-02T06:30:26.025Z</time></trkpt><trkpt lat="42.4250801" lon="14.1114207"><ele>48.0</ele><time>2026-05-02T06:30:30.025Z</time></trkpt><trkpt lat="42.4249861" lon="14.1115271"><ele>48.0</ele><time>2026-05-02T06:30:32.025Z</time></trkpt><trkpt lat="42.4249156" lon="14.1115825"><ele>48.0</ele><time>2026-05-02T06:30:33.026Z</time></trkpt><trkpt lat="42.4248364" lon="14.1116385"><ele>48.0</ele><time>2026-05-02T06:30:34.026Z</time></trkpt><trkpt lat="42.4247491" lon="14.1116948"><ele>48.0</ele><time>2026-05-02T06:30:35.026Z</time></trkpt><trkpt lat="42.4246532" lon="14.111749"><ele>48.0</ele><time>2026-05-02T06:30:36.026Z</time></trkpt><trkpt lat="42.4245514" lon="14.1118"><ele>48.0</ele><time>2026-05-02T06:30:37.026Z</time></trkpt><trkpt lat="42.4244392" lon="14.1118386"><ele>46.8</ele><time>2026-05-02T06:30:38.026Z</time></trkpt><trkpt lat="42.4243249" lon="14.1118779"><ele>45.599999999999994</ele><time>2026-05-02T06:30:39.026Z</time></trkpt><trkpt lat="42.4242198" lon="14.1118879"><ele>44.400000000000006</ele><time>2026-05-02T06:30:40.026Z</time></trkpt><trkpt lat="42.4241189" lon="14.1119198"><ele>43.2</ele><time>2026-05-02T06:30:41.026Z</time></trkpt><trkpt lat="42.4240285" lon="14.1119515"><ele>42.0</ele><time>2026-05-02T06:30:42.026Z</time></trkpt><trkpt lat="42.4239344" lon="14.1119804"><ele>42.0</ele><time>2026-05-02T06:30:43.026Z</time></trkpt><trkpt lat="42.4238436" lon="14.1120043"><ele>42.0</ele><time>2026-05-02T06:30:44.026Z</time></trkpt><trkpt lat="42.4237492" lon="14.1120315"><ele>42.0</ele><time>2026-05-02T06:30:45.026Z</time></trkpt><trkpt lat="42.4236576" lon="14.1120185"><ele>42.0</ele><time>2026-05-02T06:30:46.025Z</time></trkpt><trkpt lat="42.4235566" lon="14.1120084"><ele>42.0</ele><time>2026-05-02T06:30:47.026Z</time></trkpt><trkpt lat="42.4234554" lon="14.1120053"><ele>41.0</ele><time>2026-05-02T06:30:48.026Z</time></trkpt><trkpt lat="42.423357" lon="14.1120157"><ele>40.0</ele><time>2026-05-02T06:30:49.026Z</time></trkpt><trkpt lat="42.4232611" lon="14.1120624"><ele>39.0</ele><time>2026-05-02T06:30:50.026Z</time></trkpt><trkpt lat="42.4231671" lon="14.1121396"><ele>38.0</ele><time>2026-05-02T06:30:51.026Z</time></trkpt><trkpt lat="42.4230743" lon="14.1122379"><ele>37.0</ele><time>2026-05-02T06:30:52.026Z</time></trkpt><trkpt lat="42.4229901" lon="14.1123371"><ele>38.400000000000006</ele><time>2026-05-02T06:30:53.026Z</time></trkpt><trkpt lat="42.4229179" lon="14.1124229"><ele>39.800000000000004</ele><time>2026-05-02T06:30:54.026Z</time></trkpt><trkpt lat="42.4228556" lon="14.1125077"><ele>41.2</ele><time>2026-05-02T06:30:55.026Z</time></trkpt><trkpt lat="42.4227817" lon="14.1126065"><ele>42.6</ele><time>2026-05-02T06:30:56.025Z</time></trkpt><trkpt lat="42.4226859" lon="14.112714"><ele>44.0</ele><time>2026-05-02T06:30:57.026Z</time></trkpt><trkpt lat="42.4225774" lon="14.1128225"><ele>44.0</ele><time>2026-05-02T06:30:58.026Z</time></trkpt><trkpt lat="42.422456" lon="14.1129372"><ele>44.0</ele><time>2026-05-02T06:30:59.026Z</time></trkpt><trkpt lat="42.4223296" lon="14.1130556"><ele>44.0</ele><time>2026-05-02T06:31:00.026Z</time></trkpt><trkpt lat="42.4222009" lon="14.1131802"><ele>45.25</ele><time>2026-05-02T06:31:01.026Z</time></trkpt><trkpt lat="42.4220695" lon="14.1133125"><ele>46.5</ele><time>2026-05-02T06:31:02.026Z</time></trkpt><trkpt lat="42.4219608" lon="14.1134066"><ele>47.75</ele><time>2026-05-02T06:31:03.026Z</time></trkpt><trkpt lat="42.4218498" lon="14.113477"><ele>49.0</ele><time>2026-05-02T06:31:04.026Z</time></trkpt><trkpt lat="42.4217265" lon="14.1135305"><ele>49.0</ele><time>2026-05-02T06:31:05.026Z</time></trkpt><trkpt lat="42.4215965" lon="14.1135729"><ele>49.0</ele><time>2026-05-02T06:31:06.026Z</time></trkpt><trkpt lat="42.4214668" lon="14.1136259"><ele>49.0</ele><time>2026-05-02T06:31:07.026Z</time></trkpt><trkpt lat="42.4213525" lon="14.1136755"><ele>49.0</ele><time>2026-05-02T06:31:08.026Z</time></trkpt><trkpt lat="42.4212353" lon="14.1137423"><ele>50.0</ele><time>2026-05-02T06:31:09.026Z</time></trkpt><trkpt lat="42.4211203" lon="14.1138207"><ele>51.0</ele><time>2026-05-02T06:31:10.026Z</time></trkpt><trkpt lat="42.421016" lon="14.113904"><ele>52.0</ele><time>2026-05-02T06:31:11.026Z</time></trkpt><trkpt lat="42.4209218" lon="14.1139796"><ele>53.0</ele><time>2026-05-02T06:31:12.026Z</time></trkpt><trkpt lat="42.4208334" lon="14.1140411"><ele>55.0</ele><time>2026-05-02T06:31:13.026Z</time></trkpt><trkpt lat="42.4207427" lon="14.1140993"><ele>57.0</ele><time>2026-05-02T06:31:14.026Z</time></trkpt><trkpt lat="42.4206565" lon="14.1141677"><ele>59.0</ele><time>2026-05-02T06:31:15.026Z</time></trkpt><trkpt lat="42.4205748" lon="14.1142702"><ele>61.0</ele><time>2026-05-02T06:31:16.026Z</time></trkpt><trkpt lat="42.4204972" lon="14.1144052"><ele>63.0</ele><time>2026-05-02T06:31:17.026Z</time></trkpt><trkpt lat="42.4204176" lon="14.1145388"><ele>63.0</ele><time>2026-05-02T06:31:18.026Z</time></trkpt><trkpt lat="42.4203318" lon="14.1146498"><ele>63.0</ele><time>2026-05-02T06:31:19.026Z</time></trkpt><trkpt lat="42.4202226" lon="14.114736"><ele>63.0</ele><time>2026-05-02T06:31:20.025Z</time></trkpt><trkpt lat="42.4201089" lon="14.1148071"><ele>63.0</ele><time>2026-05-02T06:31:21.026Z</time></trkpt><trkpt lat="42.4199839" lon="14.1148742"><ele>64.5</ele><time>2026-05-02T06:31:22.025Z</time></trkpt><trkpt lat="42.4198612" lon="14.1149452"><ele>66.0</ele><time>2026-05-02T06:31:23.025Z</time></trkpt><trkpt lat="42.4197473" lon="14.1150291"><ele>67.5</ele><time>2026-05-02T06:31:24.025Z</time></trkpt><trkpt lat="42.4196363" lon="14.1151404"><ele>69.0</ele><time>2026-05-02T06:31:25.026Z</time></trkpt><trkpt lat="42.4195283" lon="14.1152641"><ele>71.75</ele><time>2026-05-02T06:31:26.025Z</time></trkpt><trkpt lat="42.4194227" lon="14.1153826"><ele>74.5</ele><time>2026-05-02T06:31:27.026Z</time></trkpt><trkpt lat="42.4193111" lon="14.1154854"><ele>77.25</ele><time>2026-05-02T06:31:28.026Z</time></trkpt><trkpt lat="42.4192101" lon="14.1155722"><ele>80.0</ele><time>2026-05-02T06:31:29.025Z</time></trkpt><trkpt lat="42.4191283" lon="14.1156508"><ele>80.0</ele><time>2026-05-02T06:31:30.026Z</time></trkpt><trkpt lat="42.4190609" lon="14.115733"><ele>80.0</ele><time>2026-05-02T06:31:31.026Z</time></trkpt><trkpt lat="42.4190049" lon="14.1158067"><ele>80.0</ele><time>2026-05-02T06:31:32.026Z</time></trkpt><trkpt lat="42.4189583" lon="14.1158715"><ele>80.0</ele><time>2026-05-02T06:31:33.026Z</time></trkpt><trkpt lat="42.4188848" lon="14.1159335"><ele>80.0</ele><time>2026-05-02T06:31:35.026Z</time></trkpt><trkpt lat="42.4187842" lon="14.1159061"><ele>80.0</ele><time>2026-05-02T06:31:37.026Z</time></trkpt><trkpt lat="42.4187271" lon="14.1158574"><ele>82.75</ele><time>2026-05-02T06:31:38.026Z</time></trkpt><trkpt lat="42.418657" lon="14.1157879"><ele>85.5</ele><time>2026-05-02T06:31:39.026Z</time></trkpt><trkpt lat="42.4185703" lon="14.1157045"><ele>88.25</ele><time>2026-05-02T06:31:40.026Z</time></trkpt><trkpt lat="42.4184595" lon="14.11562"><ele>91.0</ele><time>2026-05-02T06:31:41.026Z</time></trkpt><trkpt lat="42.4183306" lon="14.1155414"><ele>92.75</ele><time>2026-05-02T06:31:42.026Z</time></trkpt><trkpt lat="42.4181969" lon="14.115462"><ele>94.5</ele><time>2026-05-02T06:31:43.025Z</time></trkpt><trkpt lat="42.4180792" lon="14.1153963"><ele>96.25</ele><time>2026-05-02T06:31:44.026Z</time></trkpt><trkpt lat="42.4179596" lon="14.1153352"><ele>98.0</ele><time>2026-05-02T06:31:45.026Z</time></trkpt><trkpt lat="42.4178387" lon="14.1152779"><ele>99.60000000000001</ele><time>2026-05-02T06:31:46.026Z</time></trkpt><trkpt lat="42.4177264" lon="14.1152291"><ele>101.2</ele><time>2026-05-02T06:31:47.026Z</time></trkpt><trkpt lat="42.4176233" lon="14.1151984"><ele>102.8</ele><time>2026-05-02T06:31:48.026Z</time></trkpt><trkpt lat="42.4175205" lon="14.1151724"><ele>104.4</ele><time>2026-05-02T06:31:49.026Z</time></trkpt><trkpt lat="42.4174292" lon="14.11513"><ele>106.0</ele><time>2026-05-02T06:31:50.026Z</time></trkpt><trkpt lat="42.4173063" lon="14.1151227"><ele>106.0</ele><time>2026-05-02T06:31:51.026Z</time></trkpt><trkpt lat="42.417166" lon="14.1151279"><ele>106.0</ele><time>2026-05-02T06:31:52.026Z</time></trkpt><trkpt lat="42.4170366" lon="14.1151204"><ele>106.0</ele><time>2026-05-02T06:31:53.026Z</time></trkpt><trkpt lat="42.4168837" lon="14.115132"><ele>106.0</ele><time>2026-05-02T06:31:54.026Z</time></trkpt><trkpt lat="42.4167454" lon="14.1151471"><ele>107.25</ele><time>2026-05-02T06:31:55.026Z</time></trkpt><trkpt lat="42.4165842" lon="14.1151754"><ele>108.5</ele><time>2026-05-02T06:31:56.026Z</time></trkpt><trkpt lat="42.4164336" lon="14.1152092"><ele>109.75</ele><time>2026-05-02T06:31:57.026Z</time></trkpt><trkpt lat="42.416304" lon="14.1152236"><ele>111.0</ele><time>2026-05-02T06:31:58.026Z</time></trkpt><trkpt lat="42.4161837" lon="14.1152256"><ele>112.25</ele><time>2026-05-02T06:31:59.026Z</time></trkpt><trkpt lat="42.41606" lon="14.11523"><ele>113.5</ele><time>2026-05-02T06:32:00.026Z</time></trkpt><trkpt lat="42.4159317" lon="14.1152317"><ele>114.75</ele><time>2026-05-02T06:32:01.026Z</time></trkpt><trkpt lat="42.4158082" lon="14.1152429"><ele>116.0</ele><time>2026-05-02T06:32:02.026Z</time></trkpt><trkpt lat="42.4156978" lon="14.1152744"><ele>116.0</ele><time>2026-05-02T06:32:03.026Z</time></trkpt><trkpt lat="42.4155899" lon="14.1153108"><ele>116.0</ele><time>2026-05-02T06:32:04.026Z</time></trkpt><trkpt lat="42.4154991" lon="14.1153355"><ele>116.0</ele><time>2026-05-02T06:32:05.026Z</time></trkpt><trkpt lat="42.4154305" lon="14.1153639"><ele>116.0</ele><time>2026-05-02T06:32:06.026Z</time></trkpt><trkpt lat="42.4153555" lon="14.1154032"><ele>116.0</ele><time>2026-05-02T06:32:08.026Z</time></trkpt><trkpt lat="42.4152811" lon="14.1154829"><ele>116.0</ele><time>2026-05-02T06:32:11.026Z</time></trkpt><trkpt lat="42.4151776" lon="14.1155822"><ele>116.0</ele><time>2026-05-02T06:32:13.025Z</time></trkpt><trkpt lat="42.4151183" lon="14.1156567"><ele>116.0</ele><time>2026-05-02T06:32:14.026Z</time></trkpt><trkpt lat="42.4150581" lon="14.1157416"><ele>116.0</ele><time>2026-05-02T06:32:15.026Z</time></trkpt><trkpt lat="42.4149854" lon="14.1158377"><ele>116.0</ele><time>2026-05-02T06:32:16.026Z</time></trkpt><trkpt lat="42.4149017" lon="14.1159426"><ele>116.0</ele><time>2026-05-02T06:32:17.026Z</time></trkpt><trkpt lat="42.4148105" lon="14.1160425"><ele>116.0</ele><time>2026-05-02T06:32:18.026Z</time></trkpt><trkpt lat="42.4147066" lon="14.1161353"><ele>116.0</ele><time>2026-05-02T06:32:19.026Z</time></trkpt><trkpt lat="42.4145948" lon="14.1162278"><ele>116.0</ele><time>2026-05-02T06:32:20.026Z</time></trkpt><trkpt lat="42.4144771" lon="14.1163226"><ele>114.75</ele><time>2026-05-02T06:32:21.026Z</time></trkpt><trkpt lat="42.4143637" lon="14.1164129"><ele>113.5</ele><time>2026-05-02T06:32:22.026Z</time></trkpt><trkpt lat="42.4142495" lon="14.1164999"><ele>112.25</ele><time>2026-05-02T06:32:23.026Z</time></trkpt><trkpt lat="42.4141331" lon="14.1165808"><ele>111.0</ele><time>2026-05-02T06:32:24.026Z</time></trkpt><trkpt lat="42.4140214" lon="14.1166503"><ele>110.75</ele><time>2026-05-02T06:32:25.026Z</time></trkpt><trkpt lat="42.413914" lon="14.1167146"><ele>110.5</ele><time>2026-05-02T06:32:26.026Z</time></trkpt><trkpt lat="42.4138145" lon="14.1167789"><ele>110.25</ele><time>2026-05-02T06:32:27.026Z</time></trkpt><trkpt lat="42.4137213" lon="14.116871"><ele>110.0</ele><time>2026-05-02T06:32:28.026Z</time></trkpt><trkpt lat="42.4136289" lon="14.1169968"><ele>109.75</ele><time>2026-05-02T06:32:29.026Z</time></trkpt><trkpt lat="42.413536" lon="14.1171427"><ele>109.5</ele><time>2026-05-02T06:32:30.026Z</time></trkpt><trkpt lat="42.4134399" lon="14.1173057"><ele>109.25</ele><time>2026-05-02T06:32:31.026Z</time></trkpt><trkpt lat="42.4133529" lon="14.1174529"><ele>109.0</ele><time>2026-05-02T06:32:32.026Z</time></trkpt><trkpt lat="42.413276" lon="14.1175926"><ele>109.0</ele><time>2026-05-02T06:32:33.026Z</time></trkpt><trkpt lat="42.4132034" lon="14.1177218"><ele>109.0</ele><time>2026-05-02T06:32:34.026Z</time></trkpt><trkpt lat="42.4131377" lon="14.117843"><ele>109.0</ele><time>2026-05-02T06:32:35.026Z</time></trkpt><trkpt lat="42.4130689" lon="14.11797"><ele>109.0</ele><time>2026-05-02T06:32:36.026Z</time></trkpt><trkpt lat="42.4129897" lon="14.1181036"><ele>108.5</ele><time>2026-05-02T06:32:37.026Z</time></trkpt><trkpt lat="42.4128987" lon="14.1182433"><ele>108.0</ele><time>2026-05-02T06:32:38.025Z</time></trkpt><trkpt lat="42.4127941" lon="14.1183813"><ele>107.5</ele><time>2026-05-02T06:32:39.026Z</time></trkpt><trkpt lat="42.4126868" lon="14.1185048"><ele>107.0</ele><time>2026-05-02T06:32:40.026Z</time></trkpt><trkpt lat="42.4125722" lon="14.1186095"><ele>107.0</ele><time>2026-05-02T06:32:41.026Z</time></trkpt><trkpt lat="42.4124475" lon="14.1187078"><ele>107.0</ele><time>2026-05-02T06:32:42.025Z</time></trkpt><trkpt lat="42.4123205" lon="14.1188012"><ele>107.0</ele><time>2026-05-02T06:32:43.026Z</time></trkpt><trkpt lat="42.4121918" lon="14.1188847"><ele>107.0</ele><time>2026-05-02T06:32:44.026Z</time></trkpt><trkpt lat="42.4120633" lon="14.1189671"><ele>105.33333333333333</ele><time>2026-05-02T06:32:45.026Z</time></trkpt><trkpt lat="42.4119303" lon="14.119058"><ele>103.66666666666666</ele><time>2026-05-02T06:32:46.026Z</time></trkpt><trkpt lat="42.4117942" lon="14.1191471"><ele>102.0</ele><time>2026-05-02T06:32:47.026Z</time></trkpt><trkpt lat="42.411656" lon="14.1192288"><ele>102.0</ele><time>2026-05-02T06:32:48.026Z</time></trkpt><trkpt lat="42.4115225" lon="14.1193115"><ele>102.0</ele><time>2026-05-02T06:32:49.026Z</time></trkpt><trkpt lat="42.4113976" lon="14.1193957"><ele>102.0</ele><time>2026-05-02T06:32:50.026Z</time></trkpt><trkpt lat="42.4112831" lon="14.1194744"><ele>102.0</ele><time>2026-05-02T06:32:51.026Z</time></trkpt><trkpt lat="42.4111808" lon="14.1195546"><ele>102.19999999999999</ele><time>2026-05-02T06:32:52.026Z</time></trkpt><trkpt lat="42.4110865" lon="14.1196334"><ele>102.4</ele><time>2026-05-02T06:32:53.026Z</time></trkpt><trkpt lat="42.4110031" lon="14.1197073"><ele>102.6</ele><time>2026-05-02T06:32:54.025Z</time></trkpt><trkpt lat="42.4109334" lon="14.1197742"><ele>102.80000000000001</ele><time>2026-05-02T06:32:55.026Z</time></trkpt><trkpt lat="42.4108785" lon="14.1198288"><ele>103.0</ele><time>2026-05-02T06:32:56.026Z</time></trkpt><trkpt lat="42.410792" lon="14.1199049"><ele>102.16666666666667</ele><time>2026-05-02T06:32:58.026Z</time></trkpt><trkpt lat="42.4107278" lon="14.1199525"><ele>101.33333333333334</ele><time>2026-05-02T06:33:00.026Z</time></trkpt><trkpt lat="42.4106556" lon="14.1199927"><ele>100.5</ele><time>2026-05-02T06:33:04.026Z</time></trkpt><trkpt lat="42.4105828" lon="14.1200078"><ele>99.66666666666666</ele><time>2026-05-02T06:33:07.026Z</time></trkpt><trkpt lat="42.4104963" lon="14.1199558"><ele>98.83333333333333</ele><time>2026-05-02T06:33:10.026Z</time></trkpt><trkpt lat="42.4104133" lon="14.119874"><ele>98.0</ele><time>2026-05-02T06:33:12.026Z</time></trkpt><trkpt lat="42.4103373" lon="14.1197729"><ele>97.2</ele><time>2026-05-02T06:33:14.026Z</time></trkpt><trkpt lat="42.4102793" lon="14.11966"><ele>96.4</ele><time>2026-05-02T06:33:16.026Z</time></trkpt><trkpt lat="42.4102288" lon="14.1195639"><ele>95.60000000000001</ele><time>2026-05-02T06:33:18.025Z</time></trkpt><trkpt lat="42.4101702" lon="14.1194601"><ele>94.80000000000001</ele><time>2026-05-02T06:33:20.025Z</time></trkpt><trkpt lat="42.4101343" lon="14.1193646"><ele>94.0</ele><time>2026-05-02T06:33:22.026Z</time></trkpt><trkpt lat="42.4100693" lon="14.1192725"><ele>94.0</ele><time>2026-05-02T06:33:24.025Z</time></trkpt><trkpt lat="42.4100225" lon="14.1191813"><ele>94.0</ele><time>2026-05-02T06:33:26.026Z</time></trkpt><trkpt lat="42.4099535" lon="14.1190944"><ele>94.0</ele><time>2026-05-02T06:33:28.026Z</time></trkpt><trkpt lat="42.4098515" lon="14.1190124"><ele>94.0</ele><time>2026-05-02T06:33:30.026Z</time></trkpt><trkpt lat="42.4097558" lon="14.1189315"><ele>94.0</ele><time>2026-05-02T06:33:32.026Z</time></trkpt><trkpt lat="42.4096686" lon="14.1189232"><ele>92.0</ele><time>2026-05-02T06:33:33.026Z</time></trkpt><trkpt lat="42.4095798" lon="14.1188443"><ele>90.0</ele><time>2026-05-02T06:33:35.026Z</time></trkpt><trkpt lat="42.4094874" lon="14.1187675"><ele>88.0</ele><time>2026-05-02T06:33:37.026Z</time></trkpt><trkpt lat="42.4093798" lon="14.1186924"><ele>86.0</ele><time>2026-05-02T06:33:39.026Z</time></trkpt><trkpt lat="42.4093143" lon="14.1186554"><ele>84.0</ele><time>2026-05-02T06:33:40.026Z</time></trkpt><trkpt lat="42.4092084" lon="14.1185885"><ele>84.0</ele><time>2026-05-02T06:33:42.026Z</time></trkpt><trkpt lat="42.4090981" lon="14.1184997"><ele>84.0</ele><time>2026-05-02T06:33:44.026Z</time></trkpt><trkpt lat="42.4090514" lon="14.1184337"><ele>84.0</ele><time>2026-05-02T06:33:45.026Z</time></trkpt><trkpt lat="42.4089828" lon="14.1183093"><ele>84.0</ele><time>2026-05-02T06:33:47.025Z</time></trkpt><trkpt lat="42.4089319" lon="14.118189"><ele>84.0</ele><time>2026-05-02T06:33:49.025Z</time></trkpt><trkpt lat="42.4088768" lon="14.118038"><ele>82.4</ele><time>2026-05-02T06:33:51.025Z</time></trkpt><trkpt lat="42.4088224" lon="14.1178901"><ele>80.80000000000001</ele><time>2026-05-02T06:33:53.026Z</time></trkpt><trkpt lat="42.4087737" lon="14.1177398"><ele>79.19999999999999</ele><time>2026-05-02T06:33:55.026Z</time></trkpt><trkpt lat="42.4087276" lon="14.1176122"><ele>77.6</ele><time>2026-05-02T06:33:57.026Z</time></trkpt><trkpt lat="42.4086875" lon="14.1175024"><ele>76.0</ele><time>2026-05-02T06:33:59.026Z</time></trkpt><trkpt lat="42.4086602" lon="14.1174099"><ele>76.83333333333333</ele><time>2026-05-02T06:34:01.026Z</time></trkpt><trkpt lat="42.4086263" lon="14.1173024"><ele>77.66666666666666</ele><time>2026-05-02T06:34:04.025Z</time></trkpt><trkpt lat="42.4085682" lon="14.1171924"><ele>78.5</ele><time>2026-05-02T06:34:07.026Z</time></trkpt><trkpt lat="42.4085052" lon="14.1171699"><ele>79.33333333333333</ele><time>2026-05-02T06:34:08.025Z</time></trkpt><trkpt lat="42.4084421" lon="14.1171333"><ele>80.16666666666667</ele><time>2026-05-02T06:34:09.026Z</time></trkpt><trkpt lat="42.408389" lon="14.1170815"><ele>81.0</ele><time>2026-05-02T06:34:10.026Z</time></trkpt><trkpt lat="42.4083379" lon="14.1170225"><ele>81.0</ele><time>2026-05-02T06:34:11.026Z</time></trkpt><trkpt lat="42.4082787" lon="14.1169651"><ele>81.0</ele><time>2026-05-02T06:34:12.026Z</time></trkpt><trkpt lat="42.4082264" lon="14.1169059"><ele>81.0</ele><time>2026-05-02T06:34:13.026Z</time></trkpt><trkpt lat="42.4081677" lon="14.1168414"><ele>81.0</ele><time>2026-05-02T06:34:14.026Z</time></trkpt><trkpt lat="42.4081078" lon="14.1167847"><ele>81.0</ele><time>2026-05-02T06:34:15.026Z</time></trkpt><trkpt lat="42.4080523" lon="14.1167355"><ele>81.0</ele><time>2026-05-02T06:34:16.026Z</time></trkpt><trkpt lat="42.4079951" lon="14.1166987"><ele>81.0</ele><time>2026-05-02T06:34:17.026Z</time></trkpt><trkpt lat="42.4078711" lon="14.1166244"><ele>83.8</ele><time>2026-05-02T06:34:19.025Z</time></trkpt><trkpt lat="42.4077406" lon="14.1165488"><ele>86.6</ele><time>2026-05-02T06:34:21.026Z</time></trkpt><trkpt lat="42.4076582" lon="14.1165132"><ele>89.4</ele><time>2026-05-02T06:34:22.025Z</time></trkpt><trkpt lat="42.4075782" lon="14.1164818"><ele>92.2</ele><time>2026-05-02T06:34:23.025Z</time></trkpt><trkpt lat="42.4074818" lon="14.1164473"><ele>95.0</ele><time>2026-05-02T06:34:24.026Z</time></trkpt><trkpt lat="42.4073848" lon="14.1164135"><ele>95.0</ele><time>2026-05-02T06:34:25.026Z</time></trkpt><trkpt lat="42.4073105" lon="14.1163854"><ele>95.0</ele><time>2026-05-02T06:34:26.025Z</time></trkpt><trkpt lat="42.4072406" lon="14.116369"><ele>95.0</ele><time>2026-05-02T06:34:27.026Z</time></trkpt><trkpt lat="42.4071713" lon="14.1163544"><ele>95.0</ele><time>2026-05-02T06:34:28.026Z</time></trkpt><trkpt lat="42.4071061" lon="14.1163486"><ele>95.0</ele><time>2026-05-02T06:34:29.026Z</time></trkpt><trkpt lat="42.4070285" lon="14.1163351"><ele>95.0</ele><time>2026-05-02T06:34:31.026Z</time></trkpt><trkpt lat="42.4069409" lon="14.1162707"><ele>96.6</ele><time>2026-05-02T06:34:33.026Z</time></trkpt><trkpt lat="42.4068793" lon="14.1162207"><ele>98.2</ele><time>2026-05-02T06:34:34.026Z</time></trkpt><trkpt lat="42.4068064" lon="14.1161627"><ele>99.80000000000001</ele><time>2026-05-02T06:34:35.026Z</time></trkpt><trkpt lat="42.4067187" lon="14.1160982"><ele>101.4</ele><time>2026-05-02T06:34:36.025Z</time></trkpt><trkpt lat="42.4066282" lon="14.1160251"><ele>103.0</ele><time>2026-05-02T06:34:37.026Z</time></trkpt><trkpt lat="42.406538" lon="14.1159641"><ele>103.00000000000001</ele><time>2026-05-02T06:34:38.026Z</time></trkpt><trkpt lat="42.4064584" lon="14.1159056"><ele>103.0</ele><time>2026-05-02T06:34:39.026Z</time></trkpt><trkpt lat="42.4063825" lon="14.115856"><ele>103.0</ele><time>2026-05-02T06:34:40.026Z</time></trkpt><trkpt lat="42.4063036" lon="14.1157988"><ele>103.0</ele><time>2026-05-02T06:34:41.026Z</time></trkpt><trkpt lat="42.4062223" lon="14.1157433"><ele>103.00000000000001</ele><time>2026-05-02T06:34:42.026Z</time></trkpt><trkpt lat="42.4061371" lon="14.1156951"><ele>103.0</ele><time>2026-05-02T06:34:43.026Z</time></trkpt><trkpt lat="42.4060553" lon="14.1156349"><ele>104.2</ele><time>2026-05-02T06:34:44.025Z</time></trkpt><trkpt lat="42.4059852" lon="14.1155764"><ele>105.4</ele><time>2026-05-02T06:34:45.026Z</time></trkpt><trkpt lat="42.4059238" lon="14.115521"><ele>106.60000000000001</ele><time>2026-05-02T06:34:46.026Z</time></trkpt><trkpt lat="42.4058287" lon="14.1154535"><ele>107.80000000000001</ele><time>2026-05-02T06:34:48.026Z</time></trkpt><trkpt lat="42.4057067" lon="14.1154544"><ele>109.0</ele><time>2026-05-02T06:34:50.025Z</time></trkpt><trkpt lat="42.4056319" lon="14.1154726"><ele>109.00000000000001</ele><time>2026-05-02T06:34:51.026Z</time></trkpt><trkpt lat="42.4055397" lon="14.1155062"><ele>109.0</ele><time>2026-05-02T06:34:53.026Z</time></trkpt><trkpt lat="42.4054711" lon="14.1155866"><ele>109.0</ele><time>2026-05-02T06:34:57.025Z</time></trkpt><trkpt lat="42.4054174" lon="14.1157189"><ele>109.0</ele><time>2026-05-02T06:34:59.026Z</time></trkpt><trkpt lat="42.4053865" lon="14.1157967"><ele>109.00000000000001</ele><time>2026-05-02T06:35:00.026Z</time></trkpt><trkpt lat="42.4053502" lon="14.1158784"><ele>109.0</ele><time>2026-05-02T06:35:01.026Z</time></trkpt><trkpt lat="42.4053132" lon="14.1159671"><ele>107.6</ele><time>2026-05-02T06:35:02.026Z</time></trkpt><trkpt lat="42.4052611" lon="14.1160637"><ele>106.2</ele><time>2026-05-02T06:35:03.026Z</time></trkpt><trkpt lat="42.4051836" lon="14.1161347"><ele>104.8</ele><time>2026-05-02T06:35:04.026Z</time></trkpt><trkpt lat="42.4050992" lon="14.1162251"><ele>103.39999999999999</ele><time>2026-05-02T06:35:05.026Z</time></trkpt><trkpt lat="42.4050316" lon="14.1163393"><ele>102.0</ele><time>2026-05-02T06:35:06.026Z</time></trkpt><trkpt lat="42.4049612" lon="14.1164557"><ele>102.0</ele><time>2026-05-02T06:35:07.026Z</time></trkpt><trkpt lat="42.404901" lon="14.1165594"><ele>102.0</ele><time>2026-05-02T06:35:08.026Z</time></trkpt><trkpt lat="42.4048366" lon="14.1166482"><ele>102.0</ele><time>2026-05-02T06:35:09.026Z</time></trkpt><trkpt lat="42.4047686" lon="14.1167288"><ele>102.0</ele><time>2026-05-02T06:35:10.025Z</time></trkpt><trkpt lat="42.4046901" lon="14.1167953"><ele>102.0</ele><time>2026-05-02T06:35:11.026Z</time></trkpt><trkpt lat="42.4046152" lon="14.1168776"><ele>99.6</ele><time>2026-05-02T06:35:12.026Z</time></trkpt><trkpt lat="42.4045483" lon="14.1169546"><ele>97.19999999999999</ele><time>2026-05-02T06:35:13.026Z</time></trkpt><trkpt lat="42.4044695" lon="14.1170435"><ele>94.8</ele><time>2026-05-02T06:35:14.025Z</time></trkpt><trkpt lat="42.4043828" lon="14.1171497"><ele>92.4</ele><time>2026-05-02T06:35:15.026Z</time></trkpt><trkpt lat="42.4042827" lon="14.1172638"><ele>90.0</ele><time>2026-05-02T06:35:16.026Z</time></trkpt><trkpt lat="42.4041844" lon="14.1173926"><ele>88.75</ele><time>2026-05-02T06:35:17.026Z</time></trkpt><trkpt lat="42.404079" lon="14.1175218"><ele>87.5</ele><time>2026-05-02T06:35:18.026Z</time></trkpt><trkpt lat="42.4039691" lon="14.1176474"><ele>86.25</ele><time>2026-05-02T06:35:19.026Z</time></trkpt><trkpt lat="42.4038675" lon="14.1177776"><ele>85.0</ele><time>2026-05-02T06:35:20.026Z</time></trkpt><trkpt lat="42.4037681" lon="14.1179037"><ele>84.25</ele><time>2026-05-02T06:35:21.026Z</time></trkpt><trkpt lat="42.4036665" lon="14.1180252"><ele>83.5</ele><time>2026-05-02T06:35:22.026Z</time></trkpt><trkpt lat="42.4035674" lon="14.1181448"><ele>82.75</ele><time>2026-05-02T06:35:23.026Z</time></trkpt><trkpt lat="42.4034697" lon="14.1182622"><ele>82.0</ele><time>2026-05-02T06:35:24.026Z</time></trkpt><trkpt lat="42.4033723" lon="14.1183762"><ele>81.5</ele><time>2026-05-02T06:35:25.026Z</time></trkpt><trkpt lat="42.4032783" lon="14.1184922"><ele>81.0</ele><time>2026-05-02T06:35:26.026Z</time></trkpt><trkpt lat="42.4031861" lon="14.118611"><ele>80.5</ele><time>2026-05-02T06:35:27.026Z</time></trkpt><trkpt lat="42.4030917" lon="14.1187308"><ele>80.0</ele><time>2026-05-02T06:35:28.026Z</time></trkpt><trkpt lat="42.4029975" lon="14.1188534"><ele>79.75</ele><time>2026-05-02T06:35:29.026Z</time></trkpt><trkpt lat="42.4029051" lon="14.1189704"><ele>79.5</ele><time>2026-05-02T06:35:30.026Z</time></trkpt><trkpt lat="42.4028163" lon="14.1190852"><ele>79.25</ele><time>2026-05-02T06:35:31.026Z</time></trkpt><trkpt lat="42.402734" lon="14.119194"><ele>79.0</ele><time>2026-05-02T06:35:32.026Z</time></trkpt><trkpt lat="42.4026511" lon="14.1192982"><ele>78.0</ele><time>2026-05-02T06:35:33.026Z</time></trkpt><trkpt lat="42.4025613" lon="14.1193942"><ele>77.0</ele><time>2026-05-02T06:35:34.026Z</time></trkpt><trkpt lat="42.4024603" lon="14.119496"><ele>76.0</ele><time>2026-05-02T06:35:35.026Z</time></trkpt><trkpt lat="42.4023794" lon="14.1195955"><ele>75.0</ele><time>2026-05-02T06:35:36.026Z</time></trkpt><trkpt lat="42.4022697" lon="14.1196812"><ele>75.0</ele><time>2026-05-02T06:35:37.026Z</time></trkpt><trkpt lat="42.4021824" lon="14.1197577"><ele>75.0</ele><time>2026-05-02T06:35:38.026Z</time></trkpt><trkpt lat="42.4020783" lon="14.1198526"><ele>75.0</ele><time>2026-05-02T06:35:39.026Z</time></trkpt><trkpt lat="42.4019601" lon="14.1199397"><ele>75.0</ele><time>2026-05-02T06:35:40.026Z</time></trkpt><trkpt lat="42.4018561" lon="14.1200487"><ele>73.0</ele><time>2026-05-02T06:35:41.025Z</time></trkpt><trkpt lat="42.4017496" lon="14.1201473"><ele>71.0</ele><time>2026-05-02T06:35:42.026Z</time></trkpt><trkpt lat="42.4016298" lon="14.1202495"><ele>69.0</ele><time>2026-05-02T06:35:43.026Z</time></trkpt><trkpt lat="42.4015097" lon="14.120349"><ele>67.0</ele><time>2026-05-02T06:35:44.026Z</time></trkpt><trkpt lat="42.4013943" lon="14.1204504"><ele>66.5</ele><time>2026-05-02T06:35:45.026Z</time></trkpt><trkpt lat="42.4012836" lon="14.1205521"><ele>66.0</ele><time>2026-05-02T06:35:46.026Z</time></trkpt><trkpt lat="42.4011719" lon="14.120648"><ele>65.5</ele><time>2026-05-02T06:35:47.026Z</time></trkpt><trkpt lat="42.4010677" lon="14.1207457"><ele>65.0</ele><time>2026-05-02T06:35:48.026Z</time></trkpt><trkpt lat="42.4009644" lon="14.120846"><ele>64.75</ele><time>2026-05-02T06:35:49.026Z</time></trkpt><trkpt lat="42.4008655" lon="14.1209408"><ele>64.5</ele><time>2026-05-02T06:35:50.026Z</time></trkpt><trkpt lat="42.4007704" lon="14.1210346"><ele>64.25</ele><time>2026-05-02T06:35:51.026Z</time></trkpt><trkpt lat="42.4006725" lon="14.1211369"><ele>64.0</ele><time>2026-05-02T06:35:52.026Z</time></trkpt><trkpt lat="42.4005747" lon="14.12123"><ele>63.400000000000006</ele><time>2026-05-02T06:35:53.026Z</time></trkpt><trkpt lat="42.4004799" lon="14.1213221"><ele>62.800000000000004</ele><time>2026-05-02T06:35:54.026Z</time></trkpt><trkpt lat="42.4003808" lon="14.121413"><ele>62.199999999999996</ele><time>2026-05-02T06:35:55.026Z</time></trkpt><trkpt lat="42.4002923" lon="14.1214659"><ele>61.599999999999994</ele><time>2026-05-02T06:35:56.026Z</time></trkpt><trkpt lat="42.4002011" lon="14.1215505"><ele>61.0</ele><time>2026-05-02T06:35:57.026Z</time></trkpt><trkpt lat="42.4001217" lon="14.1216413"><ele>61.0</ele><time>2026-05-02T06:35:58.025Z</time></trkpt><trkpt lat="42.4000522" lon="14.1217594"><ele>61.0</ele><time>2026-05-02T06:35:59.026Z</time></trkpt><trkpt lat="42.3999945" lon="14.1218989"><ele>61.0</ele><time>2026-05-02T06:36:00.026Z</time></trkpt><trkpt lat="42.3999414" lon="14.1220556"><ele>61.0</ele><time>2026-05-02T06:36:01.026Z</time></trkpt><trkpt lat="42.3998809" lon="14.1222302"><ele>61.0</ele><time>2026-05-02T06:36:02.026Z</time></trkpt><trkpt lat="42.3998285" lon="14.1223751"><ele>60.99999999999999</ele><time>2026-05-02T06:36:03.026Z</time></trkpt><trkpt lat="42.3997806" lon="14.122498"><ele>60.99999999999999</ele><time>2026-05-02T06:36:04.026Z</time></trkpt><trkpt lat="42.3997455" lon="14.1226127"><ele>61.0</ele><time>2026-05-02T06:36:05.026Z</time></trkpt><trkpt lat="42.3997299" lon="14.1227367"><ele>61.0</ele><time>2026-05-02T06:36:06.026Z</time></trkpt><trkpt lat="42.3997284" lon="14.1228756"><ele>61.0</ele><time>2026-05-02T06:36:07.025Z</time></trkpt><trkpt lat="42.3997412" lon="14.1230188"><ele>60.99999999999999</ele><time>2026-05-02T06:36:08.026Z</time></trkpt><trkpt lat="42.3997561" lon="14.1231533"><ele>60.99999999999999</ele><time>2026-05-02T06:36:09.026Z</time></trkpt><trkpt lat="42.3997621" lon="14.1232883"><ele>61.0</ele><time>2026-05-02T06:36:10.026Z</time></trkpt><trkpt lat="42.3997462" lon="14.1234263"><ele>61.0</ele><time>2026-05-02T06:36:11.026Z</time></trkpt><trkpt lat="42.3997024" lon="14.1235638"><ele>59.25</ele><time>2026-05-02T06:36:12.025Z</time></trkpt><trkpt lat="42.3996454" lon="14.1237078"><ele>57.5</ele><time>2026-05-02T06:36:13.026Z</time></trkpt><trkpt lat="42.3995833" lon="14.123866"><ele>55.75</ele><time>2026-05-02T06:36:14.026Z</time></trkpt><trkpt lat="42.3995171" lon="14.1240272"><ele>54.0</ele><time>2026-05-02T06:36:15.025Z</time></trkpt><trkpt lat="42.3994471" lon="14.1241963"><ele>53.5</ele><time>2026-05-02T06:36:16.026Z</time></trkpt><trkpt lat="42.3993702" lon="14.1243668"><ele>53.0</ele><time>2026-05-02T06:36:17.026Z</time></trkpt><trkpt lat="42.399292" lon="14.124532"><ele>52.5</ele><time>2026-05-02T06:36:18.026Z</time></trkpt><trkpt lat="42.3992126" lon="14.1246843"><ele>52.0</ele><time>2026-05-02T06:36:19.026Z</time></trkpt><trkpt lat="42.3991282" lon="14.1248371"><ele>51.75</ele><time>2026-05-02T06:36:20.025Z</time></trkpt><trkpt lat="42.3990444" lon="14.1249871"><ele>51.5</ele><time>2026-05-02T06:36:21.025Z</time></trkpt><trkpt lat="42.3989618" lon="14.1251195"><ele>51.25</ele><time>2026-05-02T06:36:22.026Z</time></trkpt><trkpt lat="42.3988669" lon="14.1252304"><ele>51.0</ele><time>2026-05-02T06:36:23.026Z</time></trkpt><trkpt lat="42.3987664" lon="14.1253034"><ele>49.5</ele><time>2026-05-02T06:36:24.026Z</time></trkpt><trkpt lat="42.3986577" lon="14.1253459"><ele>48.0</ele><time>2026-05-02T06:36:25.026Z</time></trkpt><trkpt lat="42.3985434" lon="14.1253588"><ele>46.5</ele><time>2026-05-02T06:36:26.026Z</time></trkpt><trkpt lat="42.3984275" lon="14.1253541"><ele>45.0</ele><time>2026-05-02T06:36:27.025Z</time></trkpt><trkpt lat="42.3983085" lon="14.1253292"><ele>45.0</ele><time>2026-05-02T06:36:28.026Z</time></trkpt><trkpt lat="42.3981917" lon="14.1252934"><ele>45.0</ele><time>2026-05-02T06:36:29.025Z</time></trkpt><trkpt lat="42.3980802" lon="14.125276"><ele>45.0</ele><time>2026-05-02T06:36:30.026Z</time></trkpt><trkpt lat="42.397977" lon="14.1252948"><ele>45.0</ele><time>2026-05-02T06:36:31.026Z</time></trkpt><trkpt lat="42.397882" lon="14.1253461"><ele>45.0</ele><time>2026-05-02T06:36:32.026Z</time></trkpt><trkpt lat="42.397798" lon="14.1254363"><ele>45.2</ele><time>2026-05-02T06:36:33.026Z</time></trkpt><trkpt lat="42.3977274" lon="14.1255558"><ele>45.4</ele><time>2026-05-02T06:36:34.026Z</time></trkpt><trkpt lat="42.3976699" lon="14.1256903"><ele>45.599999999999994</ele><time>2026-05-02T06:36:35.026Z</time></trkpt><trkpt lat="42.3976124" lon="14.1258122"><ele>45.8</ele><time>2026-05-02T06:36:36.026Z</time></trkpt><trkpt lat="42.397544" lon="14.1259117"><ele>46.0</ele><time>2026-05-02T06:36:37.026Z</time></trkpt><trkpt lat="42.3974696" lon="14.1259898"><ele>47.0</ele><time>2026-05-02T06:36:38.026Z</time></trkpt><trkpt lat="42.3973819" lon="14.1260588"><ele>48.0</ele><time>2026-05-02T06:36:39.026Z</time></trkpt><trkpt lat="42.3972851" lon="14.126114"><ele>49.0</ele><time>2026-05-02T06:36:40.026Z</time></trkpt><trkpt lat="42.3971736" lon="14.1261661"><ele>50.0</ele><time>2026-05-02T06:36:41.026Z</time></trkpt><trkpt lat="42.3970504" lon="14.1262224"><ele>51.0</ele><time>2026-05-02T06:36:42.025Z</time></trkpt><trkpt lat="42.3969214" lon="14.1262843"><ele>52.0</ele><time>2026-05-02T06:36:43.026Z</time></trkpt><trkpt lat="42.3967919" lon="14.1263438"><ele>53.0</ele><time>2026-05-02T06:36:44.026Z</time></trkpt><trkpt lat="42.3966545" lon="14.1264019"><ele>54.0</ele><time>2026-05-02T06:36:45.025Z</time></trkpt><trkpt lat="42.3965189" lon="14.126461"><ele>54.0</ele><time>2026-05-02T06:36:46.026Z</time></trkpt><trkpt lat="42.3963899" lon="14.1265076"><ele>54.0</ele><time>2026-05-02T06:36:47.026Z</time></trkpt><trkpt lat="42.3962592" lon="14.1265439"><ele>54.0</ele><time>2026-05-02T06:36:48.026Z</time></trkpt><trkpt lat="42.3961209" lon="14.1265719"><ele>54.0</ele><time>2026-05-02T06:36:49.026Z</time></trkpt><trkpt lat="42.3959722" lon="14.1266012"><ele>54.0</ele><time>2026-05-02T06:36:50.026Z</time></trkpt><trkpt lat="42.3958132" lon="14.1266318"><ele>54.0</ele><time>2026-05-02T06:36:51.025Z</time></trkpt><trkpt lat="42.3956478" lon="14.1266703"><ele>54.0</ele><time>2026-05-02T06:36:52.026Z</time></trkpt><trkpt lat="42.3954758" lon="14.126711"><ele>54.0</ele><time>2026-05-02T06:36:53.026Z</time></trkpt><trkpt lat="42.3953" lon="14.1267477"><ele>54.0</ele><time>2026-05-02T06:36:54.025Z</time></trkpt><trkpt lat="42.3951206" lon="14.1267796"><ele>54.0</ele><time>2026-05-02T06:36:55.026Z</time></trkpt><trkpt lat="42.3949418" lon="14.1268145"><ele>54.0</ele><time>2026-05-02T06:36:56.026Z</time></trkpt><trkpt lat="42.3947573" lon="14.1268483"><ele>54.0</ele><time>2026-05-02T06:36:57.026Z</time></trkpt><trkpt lat="42.3945764" lon="14.1268833"><ele>54.0</ele><time>2026-05-02T06:36:58.025Z</time></trkpt><trkpt lat="42.3943955" lon="14.1269187"><ele>55.0</ele><time>2026-05-02T06:36:59.026Z</time></trkpt><trkpt lat="42.394219" lon="14.1269517"><ele>56.0</ele><time>2026-05-02T06:37:00.026Z</time></trkpt><trkpt lat="42.3940488" lon="14.126984"><ele>57.0</ele><time>2026-05-02T06:37:01.026Z</time></trkpt><trkpt lat="42.393887" lon="14.1270263"><ele>56.33333333333333</ele><time>2026-05-02T06:37:02.026Z</time></trkpt><trkpt lat="42.3937321" lon="14.1270905"><ele>55.666666666666664</ele><time>2026-05-02T06:37:03.026Z</time></trkpt><trkpt lat="42.3935813" lon="14.127191"><ele>55.0</ele><time>2026-05-02T06:37:04.026Z</time></trkpt><trkpt lat="42.3934356" lon="14.1273279"><ele>54.666666666666664</ele><time>2026-05-02T06:37:05.025Z</time></trkpt><trkpt lat="42.3932975" lon="14.1274741"><ele>54.33333333333333</ele><time>2026-05-02T06:37:06.026Z</time></trkpt><trkpt lat="42.3931547" lon="14.1276282"><ele>54.0</ele><time>2026-05-02T06:37:07.026Z</time></trkpt><trkpt lat="42.3930187" lon="14.1277835"><ele>54.0</ele><time>2026-05-02T06:37:08.025Z</time></trkpt><trkpt lat="42.3928827" lon="14.1279441"><ele>54.0</ele><time>2026-05-02T06:37:09.026Z</time></trkpt><trkpt lat="42.3927549" lon="14.1281162"><ele>54.0</ele><time>2026-05-02T06:37:10.026Z</time></trkpt><trkpt lat="42.3926279" lon="14.1282912"><ele>54.0</ele><time>2026-05-02T06:37:11.026Z</time></trkpt><trkpt lat="42.3925054" lon="14.128461"><ele>54.0</ele><time>2026-05-02T06:37:12.026Z</time></trkpt><trkpt lat="42.3923896" lon="14.1286222"><ele>54.0</ele><time>2026-05-02T06:37:13.026Z</time></trkpt><trkpt lat="42.3922761" lon="14.128784"><ele>54.33333333333333</ele><time>2026-05-02T06:37:14.026Z</time></trkpt><trkpt lat="42.3921687" lon="14.1289432"><ele>54.666666666666664</ele><time>2026-05-02T06:37:15.026Z</time></trkpt><trkpt lat="42.3920657" lon="14.1290998"><ele>55.0</ele><time>2026-05-02T06:37:16.026Z</time></trkpt><trkpt lat="42.3919679" lon="14.129247"><ele>55.0</ele><time>2026-05-02T06:37:17.026Z</time></trkpt><trkpt lat="42.3918829" lon="14.1293677"><ele>55.0</ele><time>2026-05-02T06:37:18.026Z</time></trkpt><trkpt lat="42.3918025" lon="14.1294621"><ele>55.0</ele><time>2026-05-02T06:37:19.026Z</time></trkpt><trkpt lat="42.3917177" lon="14.1295191"><ele>55.0</ele><time>2026-05-02T06:37:20.025Z</time></trkpt><trkpt lat="42.3916215" lon="14.1295409"><ele>55.0</ele><time>2026-05-02T06:37:21.025Z</time></trkpt><trkpt lat="42.3915159" lon="14.1295345"><ele>55.0</ele><time>2026-05-02T06:37:22.026Z</time></trkpt><trkpt lat="42.391406" lon="14.1295065"><ele>55.0</ele><time>2026-05-02T06:37:23.026Z</time></trkpt><trkpt lat="42.391297" lon="14.1294639"><ele>55.0</ele><time>2026-05-02T06:37:24.026Z</time></trkpt><trkpt lat="42.3911846" lon="14.1294213"><ele>55.0</ele><time>2026-05-02T06:37:25.026Z</time></trkpt><trkpt lat="42.3910633" lon="14.1294062"><ele>51.75</ele><time>2026-05-02T06:37:26.026Z</time></trkpt><trkpt lat="42.3909385" lon="14.1294137"><ele>48.5</ele><time>2026-05-02T06:37:27.025Z</time></trkpt><trkpt lat="42.3908051" lon="14.129445"><ele>45.25</ele><time>2026-05-02T06:37:28.025Z</time></trkpt><trkpt lat="42.3906706" lon="14.1294947"><ele>42.0</ele><time>2026-05-02T06:37:29.026Z</time></trkpt><trkpt lat="42.3905314" lon="14.1295482"><ele>39.0</ele><time>2026-05-02T06:37:30.026Z</time></trkpt><trkpt lat="42.3903997" lon="14.1296002"><ele>36.0</ele><time>2026-05-02T06:37:31.026Z</time></trkpt><trkpt lat="42.3902751" lon="14.1296516"><ele>33.0</ele><time>2026-05-02T06:37:32.026Z</time></trkpt><trkpt lat="42.390152" lon="14.1297014"><ele>30.0</ele><time>2026-05-02T06:37:33.026Z</time></trkpt><trkpt lat="42.3900416" lon="14.129748"><ele>30.0</ele><time>2026-05-02T06:37:34.026Z</time></trkpt><trkpt lat="42.3899413" lon="14.1297869"><ele>30.0</ele><time>2026-05-02T06:37:35.026Z</time></trkpt><trkpt lat="42.3898564" lon="14.1298215"><ele>30.0</ele><time>2026-05-02T06:37:36.026Z</time></trkpt><trkpt lat="42.3897859" lon="14.1298552"><ele>30.0</ele><time>2026-05-02T06:37:37.026Z</time></trkpt><trkpt lat="42.3897222" lon="14.1298817"><ele>30.0</ele><time>2026-05-02T06:37:38.026Z</time></trkpt><trkpt lat="42.3896351" lon="14.1299164"><ele>30.0</ele><time>2026-05-02T06:37:40.026Z</time></trkpt><trkpt lat="42.3895454" lon="14.1299597"><ele>30.0</ele><time>2026-05-02T06:37:43.026Z</time></trkpt><trkpt lat="42.3894534" lon="14.1300004"><ele>30.0</ele><time>2026-05-02T06:37:45.026Z</time></trkpt><trkpt lat="42.3893362" lon="14.1300902"><ele>30.0</ele><time>2026-05-02T06:37:47.026Z</time></trkpt><trkpt lat="42.3892649" lon="14.1301624"><ele>30.0</ele><time>2026-05-02T06:37:48.026Z</time></trkpt><trkpt lat="42.3891798" lon="14.1302358"><ele>30.0</ele><time>2026-05-02T06:37:49.026Z</time></trkpt><trkpt lat="42.3890857" lon="14.1303126"><ele>30.0</ele><time>2026-05-02T06:37:50.025Z</time></trkpt><trkpt lat="42.3889881" lon="14.1303885"><ele>30.0</ele><time>2026-05-02T06:37:51.026Z</time></trkpt><trkpt lat="42.3888999" lon="14.1304542"><ele>30.0</ele><time>2026-05-02T06:37:52.025Z</time></trkpt><trkpt lat="42.3888204" lon="14.1305154"><ele>30.0</ele><time>2026-05-02T06:37:53.026Z</time></trkpt><trkpt lat="42.3887522" lon="14.1305734"><ele>30.0</ele><time>2026-05-02T06:37:54.026Z</time></trkpt><trkpt lat="42.3886906" lon="14.1306182"><ele>30.0</ele><time>2026-05-02T06:37:55.026Z</time></trkpt><trkpt lat="42.388588" lon="14.1306705"><ele>30.0</ele><time>2026-05-02T06:37:57.026Z</time></trkpt><trkpt lat="42.3884796" lon="14.1306592"><ele>30.0</ele><time>2026-05-02T06:37:59.026Z</time></trkpt><trkpt lat="42.3884102" lon="14.1306254"><ele>30.0</ele><time>2026-05-02T06:38:00.025Z</time></trkpt><trkpt lat="42.3883338" lon="14.1305767"><ele>30.0</ele><time>2026-05-02T06:38:01.026Z</time></trkpt><trkpt lat="42.3882605" lon="14.1305285"><ele>30.0</ele><time>2026-05-02T06:38:02.025Z</time></trkpt><trkpt lat="42.3881917" lon="14.1304829"><ele>30.0</ele><time>2026-05-02T06:38:03.026Z</time></trkpt><trkpt lat="42.3880921" lon="14.1303917"><ele>30.0</ele><time>2026-05-02T06:38:05.026Z</time></trkpt><trkpt lat="42.3879781" lon="14.1303563"><ele>30.0</ele><time>2026-05-02T06:38:07.026Z</time></trkpt><trkpt lat="42.3879073" lon="14.1303462"><ele>30.0</ele><time>2026-05-02T06:38:08.026Z</time></trkpt><trkpt lat="42.3878319" lon="14.13031"><ele>30.4</ele><time>2026-05-02T06:38:09.026Z</time></trkpt><trkpt lat="42.3877503" lon="14.1302441"><ele>30.8</ele><time>2026-05-02T06:38:10.025Z</time></trkpt><trkpt lat="42.3876626" lon="14.1301645"><ele>31.200000000000003</ele><time>2026-05-02T06:38:11.026Z</time></trkpt><trkpt lat="42.3875659" lon="14.1300758"><ele>31.6</ele><time>2026-05-02T06:38:12.025Z</time></trkpt><trkpt lat="42.3874602" lon="14.1299816"><ele>32.0</ele><time>2026-05-02T06:38:13.026Z</time></trkpt><trkpt lat="42.3873486" lon="14.1298799"><ele>32.25</ele><time>2026-05-02T06:38:14.026Z</time></trkpt><trkpt lat="42.3872315" lon="14.129767"><ele>32.5</ele><time>2026-05-02T06:38:15.026Z</time></trkpt><trkpt lat="42.3871127" lon="14.1296477"><ele>32.75</ele><time>2026-05-02T06:38:16.025Z</time></trkpt><trkpt lat="42.3869905" lon="14.1295232"><ele>33.0</ele><time>2026-05-02T06:38:17.026Z</time></trkpt><trkpt lat="42.3868757" lon="14.1293863"><ele>33.0</ele><time>2026-05-02T06:38:18.026Z</time></trkpt><trkpt lat="42.3867658" lon="14.1292349"><ele>33.0</ele><time>2026-05-02T06:38:19.026Z</time></trkpt><trkpt lat="42.3866621" lon="14.1290721"><ele>33.0</ele><time>2026-05-02T06:38:20.026Z</time></trkpt><trkpt lat="42.3865615" lon="14.1289045"><ele>33.666666666666664</ele><time>2026-05-02T06:38:21.026Z</time></trkpt><trkpt lat="42.3864621" lon="14.1287353"><ele>34.33333333333333</ele><time>2026-05-02T06:38:22.026Z</time></trkpt><trkpt lat="42.3863557" lon="14.1285722"><ele>35.0</ele><time>2026-05-02T06:38:23.026Z</time></trkpt><trkpt lat="42.3862403" lon="14.1284217"><ele>35.0</ele><time>2026-05-02T06:38:24.026Z</time></trkpt><trkpt lat="42.3861135" lon="14.1282875"><ele>35.0</ele><time>2026-05-02T06:38:25.026Z</time></trkpt><trkpt lat="42.3859826" lon="14.1281591"><ele>35.0</ele><time>2026-05-02T06:38:26.026Z</time></trkpt><trkpt lat="42.3858488" lon="14.1280337"><ele>35.33333333333333</ele><time>2026-05-02T06:38:27.026Z</time></trkpt><trkpt lat="42.3857171" lon="14.1279027"><ele>35.666666666666664</ele><time>2026-05-02T06:38:28.026Z</time></trkpt><trkpt lat="42.3855861" lon="14.1277674"><ele>36.0</ele><time>2026-05-02T06:38:29.026Z</time></trkpt><trkpt lat="42.3854542" lon="14.1276255"><ele>36.0</ele><time>2026-05-02T06:38:30.026Z</time></trkpt><trkpt lat="42.3853217" lon="14.1274791"><ele>36.0</ele><time>2026-05-02T06:38:31.026Z</time></trkpt><trkpt lat="42.3851884" lon="14.127337"><ele>36.0</ele><time>2026-05-02T06:38:32.026Z</time></trkpt><trkpt lat="42.3850584" lon="14.1272169"><ele>38.0</ele><time>2026-05-02T06:38:33.026Z</time></trkpt><trkpt lat="42.3849142" lon="14.1271232"><ele>40.0</ele><time>2026-05-02T06:38:34.026Z</time></trkpt><trkpt lat="42.3847593" lon="14.1270465"><ele>42.0</ele><time>2026-05-02T06:38:35.026Z</time></trkpt><trkpt lat="42.3845949" lon="14.126981"><ele>42.0</ele><time>2026-05-02T06:38:36.026Z</time></trkpt><trkpt lat="42.3844291" lon="14.126922"><ele>42.0</ele><time>2026-05-02T06:38:37.026Z</time></trkpt><trkpt lat="42.3842589" lon="14.1268586"><ele>42.0</ele><time>2026-05-02T06:38:38.026Z</time></trkpt><trkpt lat="42.3840954" lon="14.1267856"><ele>42.0</ele><time>2026-05-02T06:38:39.026Z</time></trkpt><trkpt lat="42.3839513" lon="14.1267017"><ele>42.0</ele><time>2026-05-02T06:38:40.026Z</time></trkpt><trkpt lat="42.383821" lon="14.1266261"><ele>42.0</ele><time>2026-05-02T06:38:41.026Z</time></trkpt><trkpt lat="42.3837004" lon="14.1265508"><ele>42.0</ele><time>2026-05-02T06:38:42.026Z</time></trkpt><trkpt lat="42.3835912" lon="14.1264762"><ele>44.75</ele><time>2026-05-02T06:38:43.026Z</time></trkpt><trkpt lat="42.3834804" lon="14.1264202"><ele>47.5</ele><time>2026-05-02T06:38:44.025Z</time></trkpt><trkpt lat="42.3833565" lon="14.1263942"><ele>50.25</ele><time>2026-05-02T06:38:45.026Z</time></trkpt><trkpt lat="42.3832237" lon="14.1263897"><ele>53.0</ele><time>2026-05-02T06:38:46.026Z</time></trkpt><trkpt lat="42.3830842" lon="14.1263953"><ele>53.0</ele><time>2026-05-02T06:38:47.026Z</time></trkpt><trkpt lat="42.3829465" lon="14.1263844"><ele>53.0</ele><time>2026-05-02T06:38:48.026Z</time></trkpt><trkpt lat="42.3828111" lon="14.1263568"><ele>53.0</ele><time>2026-05-02T06:38:49.026Z</time></trkpt><trkpt lat="42.3826753" lon="14.1263098"><ele>53.0</ele><time>2026-05-02T06:38:50.025Z</time></trkpt><trkpt lat="42.3825434" lon="14.12625"><ele>53.0</ele><time>2026-05-02T06:38:51.026Z</time></trkpt><trkpt lat="42.3824113" lon="14.1261641"><ele>53.0</ele><time>2026-05-02T06:38:52.026Z</time></trkpt><trkpt lat="42.3822713" lon="14.12605"><ele>53.0</ele><time>2026-05-02T06:38:53.026Z</time></trkpt><trkpt lat="42.3821255" lon="14.1259177"><ele>53.0</ele><time>2026-05-02T06:38:54.026Z</time></trkpt><trkpt lat="42.3819655" lon="14.1257831"><ele>53.0</ele><time>2026-05-02T06:38:55.026Z</time></trkpt><trkpt lat="42.3817967" lon="14.1256428"><ele>53.0</ele><time>2026-05-02T06:38:56.026Z</time></trkpt><trkpt lat="42.3816182" lon="14.1255038"><ele>53.0</ele><time>2026-05-02T06:38:57.026Z</time></trkpt><trkpt lat="42.3814341" lon="14.1253692"><ele>53.0</ele><time>2026-05-02T06:38:58.026Z</time></trkpt><trkpt lat="42.3812483" lon="14.1252387"><ele>53.0</ele><time>2026-05-02T06:38:59.026Z</time></trkpt><trkpt lat="42.3810649" lon="14.1251116"><ele>51.333333333333336</ele><time>2026-05-02T06:39:00.025Z</time></trkpt><trkpt lat="42.3808835" lon="14.1249824"><ele>49.66666666666667</ele><time>2026-05-02T06:39:01.026Z</time></trkpt><trkpt lat="42.3807101" lon="14.1248521"><ele>48.0</ele><time>2026-05-02T06:39:02.025Z</time></trkpt><trkpt lat="42.3805465" lon="14.1247271"><ele>49.33333333333333</ele><time>2026-05-02T06:39:03.026Z</time></trkpt><trkpt lat="42.3803937" lon="14.1246097"><ele>50.666666666666664</ele><time>2026-05-02T06:39:04.026Z</time></trkpt><trkpt lat="42.380255" lon="14.1245056"><ele>52.0</ele><time>2026-05-02T06:39:05.026Z</time></trkpt><trkpt lat="42.3801297" lon="14.1244162"><ele>52.0</ele><time>2026-05-02T06:39:06.026Z</time></trkpt><trkpt lat="42.3800192" lon="14.124338"><ele>52.0</ele><time>2026-05-02T06:39:07.026Z</time></trkpt><trkpt lat="42.3799304" lon="14.1242641"><ele>52.0</ele><time>2026-05-02T06:39:08.026Z</time></trkpt><trkpt lat="42.3798681" lon="14.1241819"><ele>52.0</ele><time>2026-05-02T06:39:09.026Z</time></trkpt><trkpt lat="42.3798256" lon="14.1240844"><ele>52.0</ele><time>2026-05-02T06:39:10.026Z</time></trkpt><trkpt lat="42.3798065" lon="14.1239796"><ele>53.400000000000006</ele><time>2026-05-02T06:39:11.026Z</time></trkpt><trkpt lat="42.3797809" lon="14.1238763"><ele>54.800000000000004</ele><time>2026-05-02T06:39:12.026Z</time></trkpt><trkpt lat="42.3797263" lon="14.1238022"><ele>56.2</ele><time>2026-05-02T06:39:13.026Z</time></trkpt><trkpt lat="42.3796494" lon="14.1237607"><ele>57.6</ele><time>2026-05-02T06:39:14.026Z</time></trkpt><trkpt lat="42.3795556" lon="14.1237469"><ele>59.0</ele><time>2026-05-02T06:39:15.026Z</time></trkpt><trkpt lat="42.3794373" lon="14.1237264"><ele>59.0</ele><time>2026-05-02T06:39:16.026Z</time></trkpt><trkpt lat="42.3793052" lon="14.1236851"><ele>59.0</ele><time>2026-05-02T06:39:17.026Z</time></trkpt><trkpt lat="42.3791509" lon="14.1236465"><ele>59.0</ele><time>2026-05-02T06:39:18.026Z</time></trkpt><trkpt lat="42.3789787" lon="14.1236129"><ele>57.66666666666667</ele><time>2026-05-02T06:39:19.025Z</time></trkpt><trkpt lat="42.3787926" lon="14.1235789"><ele>56.33333333333333</ele><time>2026-05-02T06:39:20.026Z</time></trkpt><trkpt lat="42.3786138" lon="14.1235464"><ele>55.0</ele><time>2026-05-02T06:39:21.026Z</time></trkpt><trkpt lat="42.3784437" lon="14.1235194"><ele>55.0</ele><time>2026-05-02T06:39:22.026Z</time></trkpt><trkpt lat="42.3782854" lon="14.123495"><ele>55.0</ele><time>2026-05-02T06:39:23.026Z</time></trkpt><trkpt lat="42.3781405" lon="14.1234688"><ele>55.0</ele><time>2026-05-02T06:39:24.026Z</time></trkpt><trkpt lat="42.3780001" lon="14.1234446"><ele>55.0</ele><time>2026-05-02T06:39:25.025Z</time></trkpt><trkpt lat="42.3778728" lon="14.1234211"><ele>52.75</ele><time>2026-05-02T06:39:26.026Z</time></trkpt><trkpt lat="42.3777474" lon="14.1233966"><ele>50.5</ele><time>2026-05-02T06:39:27.025Z</time></trkpt><trkpt lat="42.3776274" lon="14.1233757"><ele>48.25</ele><time>2026-05-02T06:39:28.025Z</time></trkpt><trkpt lat="42.3775194" lon="14.1233584"><ele>46.0</ele><time>2026-05-02T06:39:29.026Z</time></trkpt><trkpt lat="42.3774198" lon="14.1233567"><ele>46.0</ele><time>2026-05-02T06:39:30.026Z</time></trkpt><trkpt lat="42.3773271" lon="14.1233854"><ele>46.0</ele><time>2026-05-02T06:39:31.026Z</time></trkpt><trkpt lat="42.377239" lon="14.1234396"><ele>46.0</ele><time>2026-05-02T06:39:32.026Z</time></trkpt><trkpt lat="42.3771588" lon="14.1235225"><ele>46.0</ele><time>2026-05-02T06:39:33.026Z</time></trkpt><trkpt lat="42.3770896" lon="14.1236213"><ele>46.0</ele><time>2026-05-02T06:39:34.026Z</time></trkpt><trkpt lat="42.3770308" lon="14.1237327"><ele>45.66666666666667</ele><time>2026-05-02T06:39:35.026Z</time></trkpt><trkpt lat="42.376977" lon="14.1238418"><ele>45.333333333333336</ele><time>2026-05-02T06:39:36.026Z</time></trkpt><trkpt lat="42.3769245" lon="14.1239329"><ele>45.0</ele><time>2026-05-02T06:39:37.026Z</time></trkpt><trkpt lat="42.3768628" lon="14.1240145"><ele>44.666666666666664</ele><time>2026-05-02T06:39:38.025Z</time></trkpt><trkpt lat="42.3767961" lon="14.1240807"><ele>44.33333333333333</ele><time>2026-05-02T06:39:39.026Z</time></trkpt><trkpt lat="42.3767301" lon="14.1241272"><ele>44.0</ele><time>2026-05-02T06:39:40.026Z</time></trkpt><trkpt lat="42.376664" lon="14.1241667"><ele>43.83333333333333</ele><time>2026-05-02T06:39:41.026Z</time></trkpt><trkpt lat="42.3765921" lon="14.1241825"><ele>43.666666666666664</ele><time>2026-05-02T06:39:42.025Z</time></trkpt><trkpt lat="42.3765138" lon="14.1241853"><ele>43.5</ele><time>2026-05-02T06:39:43.025Z</time></trkpt><trkpt lat="42.3764261" lon="14.1241712"><ele>43.333333333333336</ele><time>2026-05-02T06:39:44.026Z</time></trkpt><trkpt lat="42.3763316" lon="14.1241391"><ele>43.16666666666667</ele><time>2026-05-02T06:39:45.025Z</time></trkpt><trkpt lat="42.3762319" lon="14.1240901"><ele>43.0</ele><time>2026-05-02T06:39:46.026Z</time></trkpt><trkpt lat="42.3761164" lon="14.1240334"><ele>43.0</ele><time>2026-05-02T06:39:47.026Z</time></trkpt><trkpt lat="42.375988" lon="14.123994"><ele>43.0</ele><time>2026-05-02T06:39:48.026Z</time></trkpt><trkpt lat="42.3758508" lon="14.1239492"><ele>43.0</ele><time>2026-05-02T06:39:49.026Z</time></trkpt><trkpt lat="42.3757072" lon="14.1238869"><ele>43.0</ele><time>2026-05-02T06:39:50.026Z</time></trkpt><trkpt lat="42.3755614" lon="14.1238054"><ele>41.66666666666667</ele><time>2026-05-02T06:39:51.026Z</time></trkpt><trkpt lat="42.3754142" lon="14.1237022"><ele>40.333333333333336</ele><time>2026-05-02T06:39:52.026Z</time></trkpt><trkpt lat="42.3752666" lon="14.1235874"><ele>39.0</ele><time>2026-05-02T06:39:53.026Z</time></trkpt><trkpt lat="42.3751319" lon="14.1234833"><ele>39.0</ele><time>2026-05-02T06:39:54.026Z</time></trkpt><trkpt lat="42.37501" lon="14.1233918"><ele>39.0</ele><time>2026-05-02T06:39:55.026Z</time></trkpt><trkpt lat="42.374896" lon="14.1232985"><ele>39.0</ele><time>2026-05-02T06:39:56.026Z</time></trkpt><trkpt lat="42.3747851" lon="14.1232097"><ele>39.0</ele><time>2026-05-02T06:39:57.026Z</time></trkpt><trkpt lat="42.3746796" lon="14.1231302"><ele>39.4</ele><time>2026-05-02T06:39:58.026Z</time></trkpt><trkpt lat="42.3745795" lon="14.1230551"><ele>39.8</ele><time>2026-05-02T06:39:59.026Z</time></trkpt><trkpt lat="42.3744862" lon="14.1229878"><ele>40.199999999999996</ele><time>2026-05-02T06:40:00.026Z</time></trkpt><trkpt lat="42.3743999" lon="14.1229124"><ele>40.599999999999994</ele><time>2026-05-02T06:40:01.026Z</time></trkpt><trkpt lat="42.3743243" lon="14.1228347"><ele>41.0</ele><time>2026-05-02T06:40:02.026Z</time></trkpt><trkpt lat="42.3742633" lon="14.1227579"><ele>41.0</ele><time>2026-05-02T06:40:03.026Z</time></trkpt><trkpt lat="42.3742193" lon="14.1226898"><ele>41.0</ele><time>2026-05-02T06:40:04.025Z</time></trkpt><trkpt lat="42.3741703" lon="14.1226351"><ele>41.0</ele><time>2026-05-02T06:40:05.025Z</time></trkpt><trkpt lat="42.3741126" lon="14.1225975"><ele>41.0</ele><time>2026-05-02T06:40:06.026Z</time></trkpt><trkpt lat="42.3740377" lon="14.1225682"><ele>41.0</ele><time>2026-05-02T06:40:07.025Z</time></trkpt><trkpt lat="42.3739461" lon="14.1225256"><ele>41.0</ele><time>2026-05-02T06:40:08.026Z</time></trkpt><trkpt lat="42.3738473" lon="14.122461"><ele>41.0</ele><time>2026-05-02T06:40:09.026Z</time></trkpt><trkpt lat="42.3737401" lon="14.1223835"><ele>41.0</ele><time>2026-05-02T06:40:10.026Z</time></trkpt><trkpt lat="42.3736201" lon="14.1222951"><ele>41.0</ele><time>2026-05-02T06:40:11.026Z</time></trkpt><trkpt lat="42.3734871" lon="14.1221926"><ele>41.0</ele><time>2026-05-02T06:40:12.026Z</time></trkpt><trkpt lat="42.3733432" lon="14.1220818"><ele>41.0</ele><time>2026-05-02T06:40:13.025Z</time></trkpt><trkpt lat="42.3731889" lon="14.1219604"><ele>41.0</ele><time>2026-05-02T06:40:14.026Z</time></trkpt><trkpt lat="42.3730255" lon="14.1218329"><ele>41.0</ele><time>2026-05-02T06:40:15.025Z</time></trkpt><trkpt lat="42.3728607" lon="14.1217007"><ele>41.666666666666664</ele><time>2026-05-02T06:40:16.026Z</time></trkpt><trkpt lat="42.3727098" lon="14.1215773"><ele>42.333333333333336</ele><time>2026-05-02T06:40:17.026Z</time></trkpt><trkpt lat="42.3725653" lon="14.1214619"><ele>43.0</ele><time>2026-05-02T06:40:18.026Z</time></trkpt><trkpt lat="42.3724261" lon="14.12135"><ele>43.0</ele><time>2026-05-02T06:40:19.026Z</time></trkpt><trkpt lat="42.3722769" lon="14.1212333"><ele>43.0</ele><time>2026-05-02T06:40:20.026Z</time></trkpt><trkpt lat="42.372116" lon="14.1211185"><ele>43.0</ele><time>2026-05-02T06:40:21.026Z</time></trkpt><trkpt lat="42.3719255" lon="14.121015"><ele>39.66666666666667</ele><time>2026-05-02T06:40:22.026Z</time></trkpt><trkpt lat="42.3717255" lon="14.1209153"><ele>36.333333333333336</ele><time>2026-05-02T06:40:23.026Z</time></trkpt><trkpt lat="42.3715133" lon="14.1208219"><ele>33.0</ele><time>2026-05-02T06:40:24.026Z</time></trkpt><trkpt lat="42.3713103" lon="14.1207365"><ele>34.666666666666664</ele><time>2026-05-02T06:40:25.025Z</time></trkpt><trkpt lat="42.3711179" lon="14.1206554"><ele>36.33333333333333</ele><time>2026-05-02T06:40:26.026Z</time></trkpt><trkpt lat="42.3709323" lon="14.1205843"><ele>38.0</ele><time>2026-05-02T06:40:27.026Z</time></trkpt><trkpt lat="42.3707525" lon="14.1205269"><ele>38.0</ele><time>2026-05-02T06:40:28.025Z</time></trkpt><trkpt lat="42.3705599" lon="14.1204882"><ele>38.0</ele><time>2026-05-02T06:40:29.026Z</time></trkpt><trkpt lat="42.3703519" lon="14.1204615"><ele>38.0</ele><time>2026-05-02T06:40:30.026Z</time></trkpt><trkpt lat="42.3701417" lon="14.1204297"><ele>37.666666666666664</ele><time>2026-05-02T06:40:31.026Z</time></trkpt><trkpt lat="42.3699191" lon="14.1204004"><ele>37.333333333333336</ele><time>2026-05-02T06:40:32.025Z</time></trkpt><trkpt lat="42.3697039" lon="14.1203738"><ele>37.0</ele><time>2026-05-02T06:40:33.026Z</time></trkpt><trkpt lat="42.3695056" lon="14.120351"><ele>37.0</ele><time>2026-05-02T06:40:34.026Z</time></trkpt><trkpt lat="42.3693196" lon="14.1203296"><ele>37.0</ele><time>2026-05-02T06:40:35.026Z</time></trkpt><trkpt lat="42.3691452" lon="14.1203079"><ele>37.0</ele><time>2026-05-02T06:40:36.026Z</time></trkpt><trkpt lat="42.3689822" lon="14.1202838"><ele>34.333333333333336</ele><time>2026-05-02T06:40:37.025Z</time></trkpt><trkpt lat="42.3688204" lon="14.1202609"><ele>31.666666666666664</ele><time>2026-05-02T06:40:38.025Z</time></trkpt><trkpt lat="42.3686565" lon="14.1202427"><ele>29.0</ele><time>2026-05-02T06:40:39.026Z</time></trkpt><trkpt lat="42.3684935" lon="14.1202075"><ele>29.0</ele><time>2026-05-02T06:40:40.026Z</time></trkpt><trkpt lat="42.3683313" lon="14.1201405"><ele>29.0</ele><time>2026-05-02T06:40:41.026Z</time></trkpt><trkpt lat="42.3681639" lon="14.1200439"><ele>29.0</ele><time>2026-05-02T06:40:42.025Z</time></trkpt><trkpt lat="42.3679873" lon="14.1199323"><ele>28.666666666666664</ele><time>2026-05-02T06:40:43.025Z</time></trkpt><trkpt lat="42.3678034" lon="14.1198096"><ele>28.333333333333336</ele><time>2026-05-02T06:40:44.026Z</time></trkpt><trkpt lat="42.3676127" lon="14.1196818"><ele>28.0</ele><time>2026-05-02T06:40:45.025Z</time></trkpt><trkpt lat="42.3674163" lon="14.1195462"><ele>28.0</ele><time>2026-05-02T06:40:46.026Z</time></trkpt><trkpt lat="42.3672145" lon="14.1194066"><ele>28.0</ele><time>2026-05-02T06:40:47.026Z</time></trkpt><trkpt lat="42.3670107" lon="14.1192619"><ele>28.0</ele><time>2026-05-02T06:40:48.026Z</time></trkpt><trkpt lat="42.3668037" lon="14.1191164"><ele>28.0</ele><time>2026-05-02T06:40:49.026Z</time></trkpt><trkpt lat="42.3665945" lon="14.11897"><ele>28.0</ele><time>2026-05-02T06:40:50.026Z</time></trkpt><trkpt lat="42.3663838" lon="14.1188235"><ele>28.0</ele><time>2026-05-02T06:40:51.026Z</time></trkpt><trkpt lat="42.3661734" lon="14.1186717"><ele>28.0</ele><time>2026-05-02T06:40:52.026Z</time></trkpt><trkpt lat="42.3659588" lon="14.1185367"><ele>28.0</ele><time>2026-05-02T06:40:53.026Z</time></trkpt><trkpt lat="42.3657431" lon="14.1183936"><ele>28.0</ele><time>2026-05-02T06:40:54.026Z</time></trkpt><trkpt lat="42.3655292" lon="14.1182488"><ele>28.0</ele><time>2026-05-02T06:40:55.026Z</time></trkpt><trkpt lat="42.3653128" lon="14.1181062"><ele>29.333333333333336</ele><time>2026-05-02T06:40:56.025Z</time></trkpt><trkpt lat="42.365111" lon="14.1179726"><ele>30.666666666666664</ele><time>2026-05-02T06:40:57.026Z</time></trkpt><trkpt lat="42.3649248" lon="14.1178461"><ele>32.0</ele><time>2026-05-02T06:40:58.026Z</time></trkpt><trkpt lat="42.3647467" lon="14.1177203"><ele>32.33333333333333</ele><time>2026-05-02T06:40:59.026Z</time></trkpt><trkpt lat="42.3645783" lon="14.1176198"><ele>32.666666666666664</ele><time>2026-05-02T06:41:00.026Z</time></trkpt><trkpt lat="42.3644091" lon="14.1175415"><ele>33.0</ele><time>2026-05-02T06:41:01.026Z</time></trkpt><trkpt lat="42.3642292" lon="14.1174888"><ele>33.0</ele><time>2026-05-02T06:41:02.026Z</time></trkpt><trkpt lat="42.3640211" lon="14.1174826"><ele>33.0</ele><time>2026-05-02T06:41:03.026Z</time></trkpt><trkpt lat="42.3638076" lon="14.1174678"><ele>33.0</ele><time>2026-05-02T06:41:04.026Z</time></trkpt><trkpt lat="42.3635819" lon="14.117456"><ele>32.333333333333336</ele><time>2026-05-02T06:41:05.026Z</time></trkpt><trkpt lat="42.3633708" lon="14.1174418"><ele>31.666666666666668</ele><time>2026-05-02T06:41:06.026Z</time></trkpt><trkpt lat="42.36317" lon="14.1174292"><ele>31.0</ele><time>2026-05-02T06:41:07.026Z</time></trkpt><trkpt lat="42.3629802" lon="14.1174104"><ele>35.66666666666667</ele><time>2026-05-02T06:41:08.026Z</time></trkpt><trkpt lat="42.3627982" lon="14.1173805"><ele>40.333333333333336</ele><time>2026-05-02T06:41:09.025Z</time></trkpt><trkpt lat="42.3626079" lon="14.1173228"><ele>45.0</ele><time>2026-05-02T06:41:10.026Z</time></trkpt><trkpt lat="42.3624044" lon="14.1172419"><ele>40.5</ele><time>2026-05-02T06:41:11.026Z</time></trkpt><trkpt lat="42.3621908" lon="14.1171471"><ele>36.0</ele><time>2026-05-02T06:41:12.026Z</time></trkpt><trkpt lat="42.3619653" lon="14.1170451"><ele>36.0</ele><time>2026-05-02T06:41:13.026Z</time></trkpt><trkpt lat="42.3617275" lon="14.1169399"><ele>36.0</ele><time>2026-05-02T06:41:14.026Z</time></trkpt><trkpt lat="42.361483" lon="14.1168312"><ele>33.0</ele><time>2026-05-02T06:41:15.025Z</time></trkpt><trkpt lat="42.3612302" lon="14.1167205"><ele>30.0</ele><time>2026-05-02T06:41:16.026Z</time></trkpt><trkpt lat="42.3609732" lon="14.1166021"><ele>33.5</ele><time>2026-05-02T06:41:17.026Z</time></trkpt><trkpt lat="42.3607126" lon="14.1164867"><ele>37.0</ele><time>2026-05-02T06:41:18.025Z</time></trkpt><trkpt lat="42.3604517" lon="14.1163698"><ele>37.0</ele><time>2026-05-02T06:41:19.026Z</time></trkpt><trkpt lat="42.3601895" lon="14.1162499"><ele>37.0</ele><time>2026-05-02T06:41:20.026Z</time></trkpt><trkpt lat="42.359927" lon="14.1161333"><ele>36.5</ele><time>2026-05-02T06:41:21.026Z</time></trkpt><trkpt lat="42.359679" lon="14.1160244"><ele>36.0</ele><time>2026-05-02T06:41:22.026Z</time></trkpt><trkpt lat="42.3594445" lon="14.1159252"><ele>36.0</ele><time>2026-05-02T06:41:23.026Z</time></trkpt><trkpt lat="42.3592234" lon="14.1158266"><ele>36.0</ele><time>2026-05-02T06:41:24.025Z</time></trkpt><trkpt lat="42.3590211" lon="14.1157446"><ele>36.0</ele><time>2026-05-02T06:41:25.026Z</time></trkpt><trkpt lat="42.3588325" lon="14.11567"><ele>37.666666666666664</ele><time>2026-05-02T06:41:26.026Z</time></trkpt><trkpt lat="42.3586546" lon="14.1156005"><ele>39.33333333333333</ele><time>2026-05-02T06:41:27.026Z</time></trkpt><trkpt lat="42.3584885" lon="14.1155308"><ele>41.0</ele><time>2026-05-02T06:41:28.026Z</time></trkpt><trkpt lat="42.3583214" lon="14.115465"><ele>41.0</ele><time>2026-05-02T06:41:29.025Z</time></trkpt><trkpt lat="42.3581561" lon="14.1153989"><ele>41.0</ele><time>2026-05-02T06:41:30.026Z</time></trkpt><trkpt lat="42.3579903" lon="14.1153328"><ele>41.0</ele><time>2026-05-02T06:41:31.026Z</time></trkpt><trkpt lat="42.3578181" lon="14.1152657"><ele>41.0</ele><time>2026-05-02T06:41:32.026Z</time></trkpt><trkpt lat="42.3576397" lon="14.1151976"><ele>41.0</ele><time>2026-05-02T06:41:33.026Z</time></trkpt><trkpt lat="42.3574579" lon="14.1151222"><ele>41.0</ele><time>2026-05-02T06:41:34.026Z</time></trkpt><trkpt lat="42.3572659" lon="14.1150431"><ele>40.33333333333333</ele><time>2026-05-02T06:41:35.026Z</time></trkpt><trkpt lat="42.3570666" lon="14.114962"><ele>39.666666666666664</ele><time>2026-05-02T06:41:36.026Z</time></trkpt><trkpt lat="42.3568575" lon="14.1148778"><ele>39.0</ele><time>2026-05-02T06:41:37.026Z</time></trkpt><trkpt lat="42.3566472" lon="14.1147916"><ele>43.0</ele><time>2026-05-02T06:41:38.026Z</time></trkpt><trkpt lat="42.3564283" lon="14.1147046"><ele>47.0</ele><time>2026-05-02T06:41:39.026Z</time></trkpt><trkpt lat="42.3562053" lon="14.1146197"><ele>47.0</ele><time>2026-05-02T06:41:40.026Z</time></trkpt><trkpt lat="42.3559796" lon="14.1145317"><ele>47.0</ele><time>2026-05-02T06:41:41.026Z</time></trkpt><trkpt lat="42.3557511" lon="14.1144384"><ele>42.0</ele><time>2026-05-02T06:41:42.026Z</time></trkpt><trkpt lat="42.3555195" lon="14.1143425"><ele>37.0</ele><time>2026-05-02T06:41:43.025Z</time></trkpt><trkpt lat="42.3552834" lon="14.1142487"><ele>37.0</ele><time>2026-05-02T06:41:44.025Z</time></trkpt><trkpt lat="42.3550448" lon="14.1141522"><ele>37.0</ele><time>2026-05-02T06:41:45.026Z</time></trkpt><trkpt lat="42.3548126" lon="14.1140558"><ele>36.66666666666667</ele><time>2026-05-02T06:41:46.026Z</time></trkpt><trkpt lat="42.3545927" lon="14.1139723"><ele>36.333333333333336</ele><time>2026-05-02T06:41:47.026Z</time></trkpt><trkpt lat="42.3543832" lon="14.1138938"><ele>36.0</ele><time>2026-05-02T06:41:48.026Z</time></trkpt><trkpt lat="42.3541824" lon="14.1138147"><ele>36.0</ele><time>2026-05-02T06:41:49.026Z</time></trkpt><trkpt lat="42.3539853" lon="14.1137374"><ele>36.0</ele><time>2026-05-02T06:41:50.026Z</time></trkpt><trkpt lat="42.353789" lon="14.1136597"><ele>36.0</ele><time>2026-05-02T06:41:51.026Z</time></trkpt><trkpt lat="42.353595" lon="14.11358"><ele>35.666666666666664</ele><time>2026-05-02T06:41:52.025Z</time></trkpt><trkpt lat="42.3534053" lon="14.1135079"><ele>35.33333333333333</ele><time>2026-05-02T06:41:53.026Z</time></trkpt><trkpt lat="42.3532252" lon="14.1134339"><ele>35.0</ele><time>2026-05-02T06:41:54.025Z</time></trkpt><trkpt lat="42.3530545" lon="14.1133641"><ele>35.0</ele><time>2026-05-02T06:41:55.025Z</time></trkpt><trkpt lat="42.3528891" lon="14.1132953"><ele>35.0</ele><time>2026-05-02T06:41:56.026Z</time></trkpt><trkpt lat="42.3527301" lon="14.1132298"><ele>35.0</ele><time>2026-05-02T06:41:57.025Z</time></trkpt><trkpt lat="42.3525721" lon="14.1131677"><ele>35.0</ele><time>2026-05-02T06:41:58.026Z</time></trkpt><trkpt lat="42.3524207" lon="14.1131098"><ele>35.0</ele><time>2026-05-02T06:41:59.026Z</time></trkpt><trkpt lat="42.3522736" lon="14.1130563"><ele>35.0</ele><time>2026-05-02T06:42:00.026Z</time></trkpt><trkpt lat="42.352133" lon="14.1129991"><ele>36.25</ele><time>2026-05-02T06:42:01.026Z</time></trkpt><trkpt lat="42.3519956" lon="14.1129424"><ele>37.5</ele><time>2026-05-02T06:42:02.025Z</time></trkpt><trkpt lat="42.3518564" lon="14.1128816"><ele>38.75</ele><time>2026-05-02T06:42:03.025Z</time></trkpt><trkpt lat="42.3517163" lon="14.1128206"><ele>40.0</ele><time>2026-05-02T06:42:04.025Z</time></trkpt><trkpt lat="42.3515767" lon="14.1127594"><ele>40.0</ele><time>2026-05-02T06:42:05.026Z</time></trkpt><trkpt lat="42.3514324" lon="14.1126958"><ele>40.0</ele><time>2026-05-02T06:42:06.026Z</time></trkpt><trkpt lat="42.3512801" lon="14.112635"><ele>40.0</ele><time>2026-05-02T06:42:07.026Z</time></trkpt><trkpt lat="42.351122" lon="14.1125787"><ele>41.0</ele><time>2026-05-02T06:42:08.026Z</time></trkpt><trkpt lat="42.3509648" lon="14.1125323"><ele>42.0</ele><time>2026-05-02T06:42:09.026Z</time></trkpt><trkpt lat="42.3508193" lon="14.1125002"><ele>43.0</ele><time>2026-05-02T06:42:10.026Z</time></trkpt><trkpt lat="42.35069" lon="14.1124736"><ele>44.0</ele><time>2026-05-02T06:42:11.026Z</time></trkpt><trkpt lat="42.3505706" lon="14.1124582"><ele>44.0</ele><time>2026-05-02T06:42:12.026Z</time></trkpt><trkpt lat="42.3504571" lon="14.1124443"><ele>44.0</ele><time>2026-05-02T06:42:13.025Z</time></trkpt><trkpt lat="42.3503543" lon="14.1124334"><ele>44.0</ele><time>2026-05-02T06:42:14.026Z</time></trkpt><trkpt lat="42.3502716" lon="14.1124147"><ele>44.0</ele><time>2026-05-02T06:42:15.026Z</time></trkpt><trkpt lat="42.3502051" lon="14.1123946"><ele>44.0</ele><time>2026-05-02T06:42:16.026Z</time></trkpt><trkpt lat="42.3500954" lon="14.1123623"><ele>44.0</ele><time>2026-05-02T06:42:18.025Z</time></trkpt><trkpt lat="42.3500279" lon="14.1123565"><ele>44.0</ele><time>2026-05-02T06:42:19.026Z</time></trkpt><trkpt lat="42.3499566" lon="14.1123737"><ele>44.0</ele><time>2026-05-02T06:42:20.025Z</time></trkpt><trkpt lat="42.3498877" lon="14.1124292"><ele>44.0</ele><time>2026-05-02T06:42:21.026Z</time></trkpt><trkpt lat="42.3498362" lon="14.1124985"><ele>44.0</ele><time>2026-05-02T06:42:22.026Z</time></trkpt><trkpt lat="42.3497939" lon="14.1125759"><ele>44.0</ele><time>2026-05-02T06:42:23.026Z</time></trkpt><trkpt lat="42.349756" lon="14.1126545"><ele>44.0</ele><time>2026-05-02T06:42:24.025Z</time></trkpt><trkpt lat="42.3497182" lon="14.1127237"><ele>43.400000000000006</ele><time>2026-05-02T06:42:25.026Z</time></trkpt><trkpt lat="42.3496368" lon="14.1128323"><ele>42.8</ele><time>2026-05-02T06:42:27.026Z</time></trkpt><trkpt lat="42.3495528" lon="14.1129138"><ele>42.2</ele><time>2026-05-02T06:42:29.026Z</time></trkpt><trkpt lat="42.3494444" lon="14.1129842"><ele>41.599999999999994</ele><time>2026-05-02T06:42:31.025Z</time></trkpt><trkpt lat="42.3493773" lon="14.113033"><ele>41.0</ele><time>2026-05-02T06:42:32.026Z</time></trkpt><trkpt lat="42.3493001" lon="14.113086"><ele>41.0</ele><time>2026-05-02T06:42:33.026Z</time></trkpt><trkpt lat="42.3492127" lon="14.1131494"><ele>41.0</ele><time>2026-05-02T06:42:34.026Z</time></trkpt><trkpt lat="42.3491136" lon="14.1132172"><ele>41.0</ele><time>2026-05-02T06:42:35.026Z</time></trkpt><trkpt lat="42.3490064" lon="14.1132888"><ele>41.0</ele><time>2026-05-02T06:42:36.026Z</time></trkpt><trkpt lat="42.3488924" lon="14.1133613"><ele>42.0</ele><time>2026-05-02T06:42:37.026Z</time></trkpt><trkpt lat="42.3487796" lon="14.1134353"><ele>43.0</ele><time>2026-05-02T06:42:38.026Z</time></trkpt><trkpt lat="42.3486753" lon="14.1135011"><ele>44.0</ele><time>2026-05-02T06:42:39.025Z</time></trkpt><trkpt lat="42.3485683" lon="14.1135647"><ele>45.0</ele><time>2026-05-02T06:42:40.026Z</time></trkpt><trkpt lat="42.3484629" lon="14.1136081"><ele>45.0</ele><time>2026-05-02T06:42:41.026Z</time></trkpt><trkpt lat="42.348359" lon="14.1136293"><ele>45.0</ele><time>2026-05-02T06:42:42.026Z</time></trkpt><trkpt lat="42.3482571" lon="14.1136238"><ele>45.0</ele><time>2026-05-02T06:42:43.026Z</time></trkpt><trkpt lat="42.3481591" lon="14.113594"><ele>45.0</ele><time>2026-05-02T06:42:44.025Z</time></trkpt><trkpt lat="42.3480707" lon="14.1135491"><ele>45.0</ele><time>2026-05-02T06:42:45.026Z</time></trkpt><trkpt lat="42.3479884" lon="14.113503"><ele>45.0</ele><time>2026-05-02T06:42:46.026Z</time></trkpt><trkpt lat="42.3479109" lon="14.1134625"><ele>45.0</ele><time>2026-05-02T06:42:47.026Z</time></trkpt><trkpt lat="42.3478413" lon="14.1134249"><ele>45.0</ele><time>2026-05-02T06:42:48.026Z</time></trkpt><trkpt lat="42.3477749" lon="14.1133971"><ele>45.0</ele><time>2026-05-02T06:42:49.026Z</time></trkpt><trkpt lat="42.3477157" lon="14.1133648"><ele>45.0</ele><time>2026-05-02T06:42:50.026Z</time></trkpt><trkpt lat="42.3476264" lon="14.1133177"><ele>45.0</ele><time>2026-05-02T06:42:52.026Z</time></trkpt><trkpt lat="42.347542" lon="14.1132797"><ele>45.0</ele><time>2026-05-02T06:42:55.026Z</time></trkpt><trkpt lat="42.3474641" lon="14.1132426"><ele>45.0</ele><time>2026-05-02T06:42:58.026Z</time></trkpt><trkpt lat="42.3474015" lon="14.1132319"><ele>45.0</ele><time>2026-05-02T06:43:00.026Z</time></trkpt><trkpt lat="42.3474597" lon="14.113312"><ele>45.0</ele><time>2026-05-02T06:43:05.026Z</time></trkpt><trkpt lat="42.3475246" lon="14.1133308"><ele>45.0</ele><time>2026-05-02T06:43:06.026Z</time></trkpt><trkpt lat="42.3476034" lon="14.1133639"><ele>45.0</ele><time>2026-05-02T06:43:07.026Z</time></trkpt><trkpt lat="42.3476958" lon="14.1134122"><ele>45.0</ele><time>2026-05-02T06:43:08.026Z</time></trkpt><trkpt lat="42.3478008" lon="14.11347"><ele>45.0</ele><time>2026-05-02T06:43:09.026Z</time></trkpt><trkpt lat="42.3479166" lon="14.1135295"><ele>45.0</ele><time>2026-05-02T06:43:10.026Z</time></trkpt><trkpt lat="42.3480244" lon="14.113576"><ele>45.0</ele><time>2026-05-02T06:43:11.026Z</time></trkpt><trkpt lat="42.3481337" lon="14.1136184"><ele>45.0</ele><time>2026-05-02T06:43:12.026Z</time></trkpt><trkpt lat="42.3482536" lon="14.1136418"><ele>45.0</ele><time>2026-05-02T06:43:13.026Z</time></trkpt><trkpt lat="42.3483718" lon="14.1136424"><ele>45.0</ele><time>2026-05-02T06:43:14.025Z</time></trkpt><trkpt lat="42.3484942" lon="14.1136128"><ele>45.0</ele><time>2026-05-02T06:43:15.026Z</time></trkpt><trkpt lat="42.3486219" lon="14.1135577"><ele>45.0</ele><time>2026-05-02T06:43:16.026Z</time></trkpt><trkpt lat="42.3487534" lon="14.1134873"><ele>45.0</ele><time>2026-05-02T06:43:17.026Z</time></trkpt><trkpt lat="42.3488891" lon="14.1134053"><ele>45.0</ele><time>2026-05-02T06:43:18.026Z</time></trkpt><trkpt lat="42.349028" lon="14.1133153"><ele>45.0</ele><time>2026-05-02T06:43:19.026Z</time></trkpt><trkpt lat="42.3491558" lon="14.1132284"><ele>44.0</ele><time>2026-05-02T06:43:20.026Z</time></trkpt><trkpt lat="42.349274" lon="14.1131463"><ele>43.0</ele><time>2026-05-02T06:43:21.026Z</time></trkpt><trkpt lat="42.3493927" lon="14.1130647"><ele>42.0</ele><time>2026-05-02T06:43:22.026Z</time></trkpt><trkpt lat="42.3495104" lon="14.1129832"><ele>41.0</ele><time>2026-05-02T06:43:23.026Z</time></trkpt><trkpt lat="42.3496195" lon="14.1129089"><ele>41.599999999999994</ele><time>2026-05-02T06:43:24.026Z</time></trkpt><trkpt lat="42.3497216" lon="14.1128331"><ele>42.2</ele><time>2026-05-02T06:43:25.026Z</time></trkpt><trkpt lat="42.3498169" lon="14.1127634"><ele>42.8</ele><time>2026-05-02T06:43:26.026Z</time></trkpt><trkpt lat="42.3499054" lon="14.1126996"><ele>43.400000000000006</ele><time>2026-05-02T06:43:27.025Z</time></trkpt><trkpt lat="42.3499791" lon="14.1126376"><ele>44.0</ele><time>2026-05-02T06:43:28.026Z</time></trkpt><trkpt lat="42.3500314" lon="14.1125732"><ele>44.0</ele><time>2026-05-02T06:43:29.025Z</time></trkpt><trkpt lat="42.3500664" lon="14.112433"><ele>44.0</ele><time>2026-05-02T06:43:31.025Z</time></trkpt><trkpt lat="42.3500097" lon="14.1123599"><ele>44.0</ele><time>2026-05-02T06:43:33.026Z</time></trkpt><trkpt lat="42.3499046" lon="14.1124029"><ele>44.0</ele><time>2026-05-02T06:43:35.026Z</time></trkpt><trkpt lat="42.3498447" lon="14.1124861"><ele>44.0</ele><time>2026-05-02T06:43:36.026Z</time></trkpt><trkpt lat="42.3497904" lon="14.1125523"><ele>44.0</ele><time>2026-05-02T06:43:37.026Z</time></trkpt><trkpt lat="42.3497312" lon="14.1126026"><ele>44.0</ele><time>2026-05-02T06:43:38.026Z</time></trkpt><trkpt lat="42.3496769" lon="14.11265"><ele>44.0</ele><time>2026-05-02T06:43:39.025Z</time></trkpt><trkpt lat="42.3495846" lon="14.1127403"><ele>44.0</ele><time>2026-05-02T06:43:41.026Z</time></trkpt><trkpt lat="42.3494789" lon="14.1127815"><ele>44.0</ele><time>2026-05-02T06:43:43.026Z</time></trkpt><trkpt lat="42.3494716" lon="14.1126637"><ele>44.0</ele><time>2026-05-02T06:43:44.025Z</time></trkpt><trkpt lat="42.3494456" lon="14.1125787"><ele>43.800000000000004</ele><time>2026-05-02T06:43:45.026Z</time></trkpt><trkpt lat="42.3493837" lon="14.1124523"><ele>43.6</ele><time>2026-05-02T06:43:47.025Z</time></trkpt><trkpt lat="42.3493006" lon="14.1123624"><ele>43.4</ele><time>2026-05-02T06:43:49.026Z</time></trkpt><trkpt lat="42.3492216" lon="14.1123009"><ele>43.2</ele><time>2026-05-02T06:43:51.026Z</time></trkpt><trkpt lat="42.3491365" lon="14.1122606"><ele>43.0</ele><time>2026-05-02T06:43:53.026Z</time></trkpt><trkpt lat="42.3490701" lon="14.112206"><ele>43.0</ele><time>2026-05-02T06:43:55.025Z</time></trkpt><trkpt lat="42.3490177" lon="14.1121471"><ele>43.0</ele><time>2026-05-02T06:43:57.026Z</time></trkpt><trkpt lat="42.3489953" lon="14.1120651"><ele>43.0</ele><time>2026-05-02T06:43:59.026Z</time></trkpt><trkpt lat="42.3489901" lon="14.1119137"><ele>43.0</ele><time>2026-05-02T06:44:01.026Z</time></trkpt><trkpt lat="42.3489755" lon="14.1117641"><ele>43.0</ele><time>2026-05-02T06:44:03.026Z</time></trkpt><trkpt lat="42.3489585" lon="14.1116225"><ele>43.0</ele><time>2026-05-02T06:44:05.026Z</time></trkpt><trkpt lat="42.3489484" lon="14.1114783"><ele>43.0</ele><time>2026-05-02T06:44:07.026Z</time></trkpt><trkpt lat="42.3489294" lon="14.1113321"><ele>43.0</ele><time>2026-05-02T06:44:09.025Z</time></trkpt><trkpt lat="42.3489097" lon="14.1111744"><ele>43.0</ele><time>2026-05-02T06:44:11.026Z</time></trkpt><trkpt lat="42.3488945" lon="14.1110207"><ele>43.0</ele><time>2026-05-02T06:44:13.026Z</time></trkpt><trkpt lat="42.3488839" lon="14.1108907"><ele>43.0</ele><time>2026-05-02T06:44:15.026Z</time></trkpt><trkpt lat="42.3489005" lon="14.1107519"><ele>43.0</ele><time>2026-05-02T06:44:17.025Z</time></trkpt><trkpt lat="42.3489086" lon="14.1106078"><ele>43.0</ele><time>2026-05-02T06:44:19.026Z</time></trkpt><trkpt lat="42.3488866" lon="14.1104864"><ele>43.0</ele><time>2026-05-02T06:44:21.026Z</time></trkpt><trkpt lat="42.3488612" lon="14.1103704"><ele>42.66666666666667</ele><time>2026-05-02T06:44:23.026Z</time></trkpt><trkpt lat="42.3488421" lon="14.1102389"><ele>42.333333333333336</ele><time>2026-05-02T06:44:25.026Z</time></trkpt><trkpt lat="42.3488247" lon="14.1101238"><ele>42.0</ele><time>2026-05-02T06:44:27.026Z</time></trkpt><trkpt lat="42.3487748" lon="14.110026"><ele>41.666666666666664</ele><time>2026-05-02T06:44:30.026Z</time></trkpt><trkpt lat="42.3486997" lon="14.1099451"><ele>41.33333333333333</ele><time>2026-05-02T06:44:33.025Z</time></trkpt><trkpt lat="42.3486399" lon="14.1098829"><ele>41.0</ele><time>2026-05-02T06:44:35.026Z</time></trkpt><trkpt lat="42.348575" lon="14.1098277"><ele>41.857142857142854</ele><time>2026-05-02T06:44:37.026Z</time></trkpt><trkpt lat="42.3485008" lon="14.1097743"><ele>42.714285714285715</ele><time>2026-05-02T06:44:40.026Z</time></trkpt><trkpt lat="42.3484403" lon="14.1097328"><ele>43.57142857142857</ele><time>2026-05-02T06:44:50.026Z</time></trkpt><trkpt lat="42.3483736" lon="14.1096887"><ele>44.42857142857143</ele><time>2026-05-02T06:44:55.026Z</time></trkpt><trkpt lat="42.3483152" lon="14.1096424"><ele>45.285714285714285</ele><time>2026-05-02T06:44:57.025Z</time></trkpt><trkpt lat="42.3482596" lon="14.1095742"><ele>46.14285714285714</ele><time>2026-05-02T06:44:59.026Z</time></trkpt><trkpt lat="42.348225" lon="14.1094886"><ele>47.0</ele><time>2026-05-02T06:45:00.026Z</time></trkpt><trkpt lat="42.3481815" lon="14.1094256"><ele>47.0</ele><time>2026-05-02T06:45:01.026Z</time></trkpt><trkpt lat="42.3481167" lon="14.1092987"><ele>47.0</ele><time>2026-05-02T06:45:03.026Z</time></trkpt><trkpt lat="42.3480401" lon="14.1091775"><ele>47.0</ele><time>2026-05-02T06:45:05.026Z</time></trkpt><trkpt lat="42.3479508" lon="14.1090731"><ele>47.0</ele><time>2026-05-02T06:45:07.026Z</time></trkpt><trkpt lat="42.3479061" lon="14.1089451"><ele>46.57142857142857</ele><time>2026-05-02T06:45:09.026Z</time></trkpt><trkpt lat="42.3478783" lon="14.1088648"><ele>46.14285714285714</ele><time>2026-05-02T06:45:10.025Z</time></trkpt><trkpt lat="42.3478451" lon="14.1087701"><ele>45.714285714285715</ele><time>2026-05-02T06:45:11.026Z</time></trkpt><trkpt lat="42.3478032" lon="14.1086797"><ele>45.285714285714285</ele><time>2026-05-02T06:45:12.026Z</time></trkpt><trkpt lat="42.3477619" lon="14.1086069"><ele>44.857142857142854</ele><time>2026-05-02T06:45:13.026Z</time></trkpt><trkpt lat="42.3477268" lon="14.1085335"><ele>44.42857142857143</ele><time>2026-05-02T06:45:14.026Z</time></trkpt><trkpt lat="42.3476898" lon="14.1084474"><ele>44.0</ele><time>2026-05-02T06:45:15.026Z</time></trkpt><trkpt lat="42.3476486" lon="14.1083659"><ele>44.0</ele><time>2026-05-02T06:45:16.026Z</time></trkpt><trkpt lat="42.3476062" lon="14.1082821"><ele>44.0</ele><time>2026-05-02T06:45:17.026Z</time></trkpt><trkpt lat="42.3475631" lon="14.1081951"><ele>44.0</ele><time>2026-05-02T06:45:18.026Z</time></trkpt><trkpt lat="42.3475227" lon="14.1081161"><ele>44.0</ele><time>2026-05-02T06:45:19.026Z</time></trkpt><trkpt lat="42.347485" lon="14.1080426"><ele>44.0</ele><time>2026-05-02T06:45:20.026Z</time></trkpt><trkpt lat="42.3474563" lon="14.1079626"><ele>44.0</ele><time>2026-05-02T06:45:21.026Z</time></trkpt><trkpt lat="42.3474377" lon="14.107872"><ele>44.0</ele><time>2026-05-02T06:45:22.026Z</time></trkpt><trkpt lat="42.3474169" lon="14.1077736"><ele>44.285714285714285</ele><time>2026-05-02T06:45:23.025Z</time></trkpt><trkpt lat="42.3473938" lon="14.1076732"><ele>44.57142857142857</ele><time>2026-05-02T06:45:24.026Z</time></trkpt><trkpt lat="42.3473723" lon="14.107586"><ele>44.85714285714286</ele><time>2026-05-02T06:45:25.026Z</time></trkpt><trkpt lat="42.3473499" lon="14.1075041"><ele>45.14285714285714</ele><time>2026-05-02T06:45:26.026Z</time></trkpt><trkpt lat="42.347321" lon="14.1074233"><ele>45.42857142857142</ele><time>2026-05-02T06:45:27.026Z</time></trkpt><trkpt lat="42.3472909" lon="14.1073418"><ele>45.714285714285715</ele><time>2026-05-02T06:45:28.026Z</time></trkpt><trkpt lat="42.3472603" lon="14.1072632"><ele>46.0</ele><time>2026-05-02T06:45:29.026Z</time></trkpt><trkpt lat="42.347231" lon="14.1071811"><ele>46.0</ele><time>2026-05-02T06:45:30.026Z</time></trkpt><trkpt lat="42.3472028" lon="14.1071019"><ele>46.0</ele><time>2026-05-02T06:45:31.026Z</time></trkpt><trkpt lat="42.3471788" lon="14.1069434"><ele>46.0</ele><time>2026-05-02T06:45:33.026Z</time></trkpt><trkpt lat="42.3471986" lon="14.1067971"><ele>46.0</ele><time>2026-05-02T06:45:35.026Z</time></trkpt><trkpt lat="42.3472196" lon="14.1067098"><ele>46.0</ele><time>2026-05-02T06:45:36.026Z</time></trkpt><trkpt lat="42.3472487" lon="14.1066287"><ele>46.0</ele><time>2026-05-02T06:45:37.026Z</time></trkpt><trkpt lat="42.3472956" lon="14.1064825"><ele>46.0</ele><time>2026-05-02T06:45:39.026Z</time></trkpt><trkpt lat="42.3473145" lon="14.1063977"><ele>46.0</ele><time>2026-05-02T06:45:40.026Z</time></trkpt><trkpt lat="42.3473343" lon="14.106315"><ele>46.0</ele><time>2026-05-02T06:45:41.026Z</time></trkpt><trkpt lat="42.3473961" lon="14.1061609"><ele>46.0</ele><time>2026-05-02T06:45:43.025Z</time></trkpt><trkpt lat="42.3474181" lon="14.1060636"><ele>46.0</ele><time>2026-05-02T06:45:44.026Z</time></trkpt><trkpt lat="42.3474313" lon="14.1059613"><ele>46.0</ele><time>2026-05-02T06:45:45.026Z</time></trkpt><trkpt lat="42.3474583" lon="14.105879"><ele>46.0</ele><time>2026-05-02T06:45:46.026Z</time></trkpt><trkpt lat="42.3474986" lon="14.1058055"><ele>46.0</ele><time>2026-05-02T06:45:47.026Z</time></trkpt><trkpt lat="42.3475539" lon="14.1057259"><ele>46.0</ele><time>2026-05-02T06:45:48.025Z</time></trkpt><trkpt lat="42.3476116" lon="14.105637"><ele>46.0</ele><time>2026-05-02T06:45:49.026Z</time></trkpt><trkpt lat="42.3476612" lon="14.1055351"><ele>46.0</ele><time>2026-05-02T06:45:50.026Z</time></trkpt><trkpt lat="42.3477111" lon="14.1054353"><ele>46.0</ele><time>2026-05-02T06:45:51.026Z</time></trkpt><trkpt lat="42.3477616" lon="14.1053436"><ele>45.833333333333336</ele><time>2026-05-02T06:45:52.026Z</time></trkpt><trkpt lat="42.3478149" lon="14.1052502"><ele>45.66666666666667</ele><time>2026-05-02T06:45:53.026Z</time></trkpt><trkpt lat="42.3478697" lon="14.1051543"><ele>45.5</ele><time>2026-05-02T06:45:54.026Z</time></trkpt><trkpt lat="42.3479277" lon="14.105055"><ele>45.333333333333336</ele><time>2026-05-02T06:45:55.026Z</time></trkpt><trkpt lat="42.347977" lon="14.1049602"><ele>45.166666666666664</ele><time>2026-05-02T06:45:56.026Z</time></trkpt><trkpt lat="42.3480302" lon="14.1048737"><ele>45.0</ele><time>2026-05-02T06:45:57.026Z</time></trkpt><trkpt lat="42.3480903" lon="14.1047928"><ele>46.0</ele><time>2026-05-02T06:45:58.026Z</time></trkpt><trkpt lat="42.3481499" lon="14.1047125"><ele>47.0</ele><time>2026-05-02T06:45:59.026Z</time></trkpt><trkpt lat="42.3481966" lon="14.104622"><ele>48.0</ele><time>2026-05-02T06:46:00.025Z</time></trkpt><trkpt lat="42.3482375" lon="14.1045267"><ele>49.0</ele><time>2026-05-02T06:46:01.026Z</time></trkpt><trkpt lat="42.3482767" lon="14.1044223"><ele>50.0</ele><time>2026-05-02T06:46:02.026Z</time></trkpt><trkpt lat="42.3483077" lon="14.1042994"><ele>51.0</ele><time>2026-05-02T06:46:03.026Z</time></trkpt><trkpt lat="42.348336" lon="14.1041829"><ele>50.199999999999996</ele><time>2026-05-02T06:46:04.026Z</time></trkpt><trkpt lat="42.3483708" lon="14.1040736"><ele>49.4</ele><time>2026-05-02T06:46:05.026Z</time></trkpt><trkpt lat="42.3484035" lon="14.1039708"><ele>48.6</ele><time>2026-05-02T06:46:06.026Z</time></trkpt><trkpt lat="42.3484338" lon="14.10385"><ele>47.8</ele><time>2026-05-02T06:46:07.026Z</time></trkpt><trkpt lat="42.3484563" lon="14.1037277"><ele>47.0</ele><time>2026-05-02T06:46:08.026Z</time></trkpt><trkpt lat="42.3484745" lon="14.1035919"><ele>47.0</ele><time>2026-05-02T06:46:09.025Z</time></trkpt><trkpt lat="42.3484881" lon="14.1034528"><ele>47.0</ele><time>2026-05-02T06:46:10.026Z</time></trkpt><trkpt lat="42.3484952" lon="14.1033095"><ele>47.0</ele><time>2026-05-02T06:46:11.026Z</time></trkpt><trkpt lat="42.3485051" lon="14.1031718"><ele>47.0</ele><time>2026-05-02T06:46:12.025Z</time></trkpt><trkpt lat="42.3485152" lon="14.1030336"><ele>47.0</ele><time>2026-05-02T06:46:13.025Z</time></trkpt><trkpt lat="42.3485256" lon="14.102896"><ele>47.2</ele><time>2026-05-02T06:46:14.025Z</time></trkpt><trkpt lat="42.3485369" lon="14.1027656"><ele>47.400000000000006</ele><time>2026-05-02T06:46:15.026Z</time></trkpt><trkpt lat="42.3485521" lon="14.1026368"><ele>47.599999999999994</ele><time>2026-05-02T06:46:16.026Z</time></trkpt><trkpt lat="42.3485718" lon="14.1025037"><ele>47.8</ele><time>2026-05-02T06:46:17.025Z</time></trkpt><trkpt lat="42.3485969" lon="14.1023743"><ele>48.0</ele><time>2026-05-02T06:46:18.026Z</time></trkpt><trkpt lat="42.3486203" lon="14.1022416"><ele>48.0</ele><time>2026-05-02T06:46:19.025Z</time></trkpt><trkpt lat="42.348643" lon="14.1021095"><ele>48.0</ele><time>2026-05-02T06:46:20.026Z</time></trkpt><trkpt lat="42.3486678" lon="14.101975"><ele>48.0</ele><time>2026-05-02T06:46:21.026Z</time></trkpt><trkpt lat="42.3486933" lon="14.1018529"><ele>48.0</ele><time>2026-05-02T06:46:22.026Z</time></trkpt><trkpt lat="42.3487179" lon="14.1017244"><ele>48.0</ele><time>2026-05-02T06:46:23.026Z</time></trkpt><trkpt lat="42.3487483" lon="14.1016024"><ele>48.4</ele><time>2026-05-02T06:46:24.026Z</time></trkpt><trkpt lat="42.3487769" lon="14.1014801"><ele>48.8</ele><time>2026-05-02T06:46:25.026Z</time></trkpt><trkpt lat="42.3488073" lon="14.1013652"><ele>49.2</ele><time>2026-05-02T06:46:26.026Z</time></trkpt><trkpt lat="42.3488359" lon="14.1012641"><ele>49.6</ele><time>2026-05-02T06:46:27.026Z</time></trkpt><trkpt lat="42.3488826" lon="14.1011266"><ele>50.0</ele><time>2026-05-02T06:46:29.026Z</time></trkpt><trkpt lat="42.3489706" lon="14.101055"><ele>50.333333333333336</ele><time>2026-05-02T06:46:31.026Z</time></trkpt><trkpt lat="42.3490271" lon="14.1010093"><ele>50.66666666666667</ele><time>2026-05-02T06:46:32.026Z</time></trkpt><trkpt lat="42.3490713" lon="14.1009453"><ele>51.0</ele><time>2026-05-02T06:46:33.026Z</time></trkpt><trkpt lat="42.3491279" lon="14.1008059"><ele>51.33333333333333</ele><time>2026-05-02T06:46:35.026Z</time></trkpt><trkpt lat="42.3491567" lon="14.1007158"><ele>51.666666666666664</ele><time>2026-05-02T06:46:37.026Z</time></trkpt><trkpt lat="42.3492057" lon="14.1006532"><ele>52.0</ele><time>2026-05-02T06:46:39.025Z</time></trkpt><trkpt lat="42.3492569" lon="14.1005835"><ele>51.99999999999999</ele><time>2026-05-02T06:46:41.026Z</time></trkpt><trkpt lat="42.349319" lon="14.1004966"><ele>52.0</ele><time>2026-05-02T06:46:43.026Z</time></trkpt><trkpt lat="42.3493583" lon="14.1004087"><ele>52.0</ele><time>2026-05-02T06:46:44.026Z</time></trkpt><trkpt lat="42.3493968" lon="14.1003131"><ele>52.0</ele><time>2026-05-02T06:46:45.026Z</time></trkpt><trkpt lat="42.3494293" lon="14.1002206"><ele>51.99999999999999</ele><time>2026-05-02T06:46:46.026Z</time></trkpt><trkpt lat="42.34946" lon="14.1001333"><ele>52.0</ele><time>2026-05-02T06:46:47.026Z</time></trkpt><trkpt lat="42.3494934" lon="14.1000146"><ele>51.33333333333333</ele><time>2026-05-02T06:46:49.025Z</time></trkpt><trkpt lat="42.3495074" lon="14.0999138"><ele>50.666666666666664</ele><time>2026-05-02T06:46:52.026Z</time></trkpt><trkpt lat="42.3495191" lon="14.0998123"><ele>50.0</ele><time>2026-05-02T06:46:54.026Z</time></trkpt><trkpt lat="42.3495294" lon="14.0996968"><ele>49.33333333333333</ele><time>2026-05-02T06:46:56.026Z</time></trkpt><trkpt lat="42.3495293" lon="14.0995682"><ele>48.666666666666664</ele><time>2026-05-02T06:46:58.026Z</time></trkpt><trkpt lat="42.3494862" lon="14.0994527"><ele>48.0</ele><time>2026-05-02T06:47:00.026Z</time></trkpt><trkpt lat="42.3494553" lon="14.0993776"><ele>48.0</ele><time>2026-05-02T06:47:01.026Z</time></trkpt><trkpt lat="42.3494304" lon="14.0992459"><ele>48.0</ele><time>2026-05-02T06:47:03.026Z</time></trkpt><trkpt lat="42.349429" lon="14.0991112"><ele>48.0</ele><time>2026-05-02T06:47:05.026Z</time></trkpt><trkpt lat="42.3494468" lon="14.0989662"><ele>48.0</ele><time>2026-05-02T06:47:07.026Z</time></trkpt><trkpt lat="42.3494641" lon="14.0988663"><ele>48.0</ele><time>2026-05-02T06:47:08.026Z</time></trkpt><trkpt lat="42.3494888" lon="14.0987623"><ele>48.4</ele><time>2026-05-02T06:47:09.026Z</time></trkpt><trkpt lat="42.3495181" lon="14.0986425"><ele>48.8</ele><time>2026-05-02T06:47:10.026Z</time></trkpt><trkpt lat="42.3495479" lon="14.098514"><ele>49.2</ele><time>2026-05-02T06:47:11.026Z</time></trkpt><trkpt lat="42.3495748" lon="14.0983847"><ele>49.6</ele><time>2026-05-02T06:47:12.026Z</time></trkpt><trkpt lat="42.3496014" lon="14.0982467"><ele>50.0</ele><time>2026-05-02T06:47:13.025Z</time></trkpt><trkpt lat="42.3496259" lon="14.0981064"><ele>50.2</ele><time>2026-05-02T06:47:14.025Z</time></trkpt><trkpt lat="42.3496587" lon="14.0979686"><ele>50.4</ele><time>2026-05-02T06:47:15.026Z</time></trkpt><trkpt lat="42.3496993" lon="14.0978366"><ele>50.599999999999994</ele><time>2026-05-02T06:47:16.026Z</time></trkpt><trkpt lat="42.3497341" lon="14.0977088"><ele>50.8</ele><time>2026-05-02T06:47:17.026Z</time></trkpt><trkpt lat="42.3497671" lon="14.097564"><ele>51.0</ele><time>2026-05-02T06:47:18.026Z</time></trkpt><trkpt lat="42.3497998" lon="14.0974249"><ele>51.0</ele><time>2026-05-02T06:47:19.026Z</time></trkpt><trkpt lat="42.3498298" lon="14.097279"><ele>51.0</ele><time>2026-05-02T06:47:20.026Z</time></trkpt><trkpt lat="42.3498587" lon="14.0971288"><ele>51.0</ele><time>2026-05-02T06:47:21.026Z</time></trkpt><trkpt lat="42.3498859" lon="14.0969826"><ele>51.0</ele><time>2026-05-02T06:47:22.025Z</time></trkpt><trkpt lat="42.34991" lon="14.0968403"><ele>51.0</ele><time>2026-05-02T06:47:23.026Z</time></trkpt><trkpt lat="42.3499216" lon="14.0966779"><ele>51.25</ele><time>2026-05-02T06:47:24.026Z</time></trkpt><trkpt lat="42.3499348" lon="14.0965217"><ele>51.5</ele><time>2026-05-02T06:47:25.026Z</time></trkpt><trkpt lat="42.3499488" lon="14.0963569"><ele>51.75</ele><time>2026-05-02T06:47:26.025Z</time></trkpt><trkpt lat="42.3499609" lon="14.0961887"><ele>52.0</ele><time>2026-05-02T06:47:27.026Z</time></trkpt><trkpt lat="42.349974" lon="14.0960163"><ele>52.0</ele><time>2026-05-02T06:47:28.026Z</time></trkpt><trkpt lat="42.3499844" lon="14.095847"><ele>52.0</ele><time>2026-05-02T06:47:29.025Z</time></trkpt><trkpt lat="42.3499945" lon="14.0956834"><ele>52.0</ele><time>2026-05-02T06:47:30.026Z</time></trkpt><trkpt lat="42.3500079" lon="14.0955259"><ele>52.0</ele><time>2026-05-02T06:47:31.026Z</time></trkpt><trkpt lat="42.3500205" lon="14.0953682"><ele>52.0</ele><time>2026-05-02T06:47:32.026Z</time></trkpt><trkpt lat="42.350026" lon="14.0952147"><ele>52.0</ele><time>2026-05-02T06:47:33.026Z</time></trkpt><trkpt lat="42.3500159" lon="14.0950508"><ele>52.0</ele><time>2026-05-02T06:47:34.026Z</time></trkpt><trkpt lat="42.3499989" lon="14.0948896"><ele>52.0</ele><time>2026-05-02T06:47:35.026Z</time></trkpt><trkpt lat="42.3499791" lon="14.0947311"><ele>52.0</ele><time>2026-05-02T06:47:36.025Z</time></trkpt><trkpt lat="42.3499578" lon="14.0945785"><ele>52.0</ele><time>2026-05-02T06:47:37.026Z</time></trkpt><trkpt lat="42.3499344" lon="14.0944299"><ele>52.0</ele><time>2026-05-02T06:47:38.026Z</time></trkpt><trkpt lat="42.3499026" lon="14.0942836"><ele>52.0</ele><time>2026-05-02T06:47:39.026Z</time></trkpt><trkpt lat="42.3498647" lon="14.0941299"><ele>51.8</ele><time>2026-05-02T06:47:40.026Z</time></trkpt><trkpt lat="42.3498362" lon="14.0939823"><ele>51.6</ele><time>2026-05-02T06:47:41.025Z</time></trkpt><trkpt lat="42.3498066" lon="14.0938385"><ele>51.4</ele><time>2026-05-02T06:47:42.025Z</time></trkpt><trkpt lat="42.3497806" lon="14.0937333"><ele>51.199999999999996</ele><time>2026-05-02T06:47:43.026Z</time></trkpt><trkpt lat="42.3497533" lon="14.0936304"><ele>51.0</ele><time>2026-05-02T06:47:44.026Z</time></trkpt><trkpt lat="42.3497153" lon="14.0935493"><ele>51.833333333333336</ele><time>2026-05-02T06:47:45.026Z</time></trkpt><trkpt lat="42.349684" lon="14.0934723"><ele>52.66666666666667</ele><time>2026-05-02T06:47:46.026Z</time></trkpt><trkpt lat="42.3496361" lon="14.0933243"><ele>53.5</ele><time>2026-05-02T06:47:48.026Z</time></trkpt><trkpt lat="42.3496213" lon="14.0931668"><ele>54.333333333333336</ele><time>2026-05-02T06:47:50.026Z</time></trkpt><trkpt lat="42.3496216" lon="14.0930714"><ele>55.16666666666667</ele><time>2026-05-02T06:47:51.026Z</time></trkpt><trkpt lat="42.3496075" lon="14.0929701"><ele>56.0</ele><time>2026-05-02T06:47:52.026Z</time></trkpt><trkpt lat="42.3495821" lon="14.0928705"><ele>56.00000000000001</ele><time>2026-05-02T06:47:53.026Z</time></trkpt><trkpt lat="42.3495446" lon="14.0927653"><ele>56.0</ele><time>2026-05-02T06:47:54.026Z</time></trkpt><trkpt lat="42.3494908" lon="14.0926716"><ele>56.0</ele><time>2026-05-02T06:47:55.026Z</time></trkpt><trkpt lat="42.3494313" lon="14.0925863"><ele>56.0</ele><time>2026-05-02T06:47:56.025Z</time></trkpt><trkpt lat="42.3493789" lon="14.0924948"><ele>56.00000000000001</ele><time>2026-05-02T06:47:57.026Z</time></trkpt><trkpt lat="42.3493427" lon="14.0923939"><ele>56.0</ele><time>2026-05-02T06:47:58.025Z</time></trkpt><trkpt lat="42.3493147" lon="14.0922775"><ele>56.199999999999996</ele><time>2026-05-02T06:47:59.026Z</time></trkpt><trkpt lat="42.3492871" lon="14.0921473"><ele>56.39999999999999</ele><time>2026-05-02T06:48:00.026Z</time></trkpt><trkpt lat="42.3492521" lon="14.0920109"><ele>56.6</ele><time>2026-05-02T06:48:01.026Z</time></trkpt><trkpt lat="42.3492227" lon="14.0918751"><ele>56.8</ele><time>2026-05-02T06:48:02.026Z</time></trkpt><trkpt lat="42.3491924" lon="14.0917316"><ele>57.0</ele><time>2026-05-02T06:48:03.026Z</time></trkpt><trkpt lat="42.3491673" lon="14.0915996"><ele>57.0</ele><time>2026-05-02T06:48:04.026Z</time></trkpt><trkpt lat="42.3491469" lon="14.0914619"><ele>57.0</ele><time>2026-05-02T06:48:05.025Z</time></trkpt><trkpt lat="42.3491276" lon="14.0913268"><ele>57.0</ele><time>2026-05-02T06:48:06.026Z</time></trkpt><trkpt lat="42.3491187" lon="14.0911985"><ele>57.0</ele><time>2026-05-02T06:48:07.026Z</time></trkpt><trkpt lat="42.3491167" lon="14.0910697"><ele>57.0</ele><time>2026-05-02T06:48:08.025Z</time></trkpt><trkpt lat="42.3491072" lon="14.0909364"><ele>57.0</ele><time>2026-05-02T06:48:09.026Z</time></trkpt><trkpt lat="42.3490851" lon="14.0907964"><ele>57.0</ele><time>2026-05-02T06:48:10.026Z</time></trkpt><trkpt lat="42.3490534" lon="14.0906491"><ele>57.0</ele><time>2026-05-02T06:48:11.026Z</time></trkpt><trkpt lat="42.3490222" lon="14.0904977"><ele>57.0</ele><time>2026-05-02T06:48:12.026Z</time></trkpt><trkpt lat="42.348996" lon="14.0903501"><ele>57.0</ele><time>2026-05-02T06:48:13.026Z</time></trkpt><trkpt lat="42.3489701" lon="14.0902029"><ele>57.0</ele><time>2026-05-02T06:48:14.025Z</time></trkpt><trkpt lat="42.3489453" lon="14.090044"><ele>57.0</ele><time>2026-05-02T06:48:15.026Z</time></trkpt><trkpt lat="42.3489234" lon="14.089872"><ele>57.0</ele><time>2026-05-02T06:48:16.026Z</time></trkpt><trkpt lat="42.3489035" lon="14.0897112"><ele>57.0</ele><time>2026-05-02T06:48:17.026Z</time></trkpt><trkpt lat="42.3488809" lon="14.0895544"><ele>59.0</ele><time>2026-05-02T06:48:18.026Z</time></trkpt><trkpt lat="42.3488574" lon="14.089402"><ele>61.0</ele><time>2026-05-02T06:48:19.026Z</time></trkpt><trkpt lat="42.3488306" lon="14.0892535"><ele>63.0</ele><time>2026-05-02T06:48:20.026Z</time></trkpt><trkpt lat="42.3488059" lon="14.0890995"><ele>65.0</ele><time>2026-05-02T06:48:21.026Z</time></trkpt><trkpt lat="42.3487895" lon="14.0889391"><ele>65.0</ele><time>2026-05-02T06:48:22.026Z</time></trkpt><trkpt lat="42.3487822" lon="14.0887745"><ele>65.0</ele><time>2026-05-02T06:48:23.026Z</time></trkpt><trkpt lat="42.3487816" lon="14.0886195"><ele>65.0</ele><time>2026-05-02T06:48:24.026Z</time></trkpt><trkpt lat="42.3487834" lon="14.0884641"><ele>65.0</ele><time>2026-05-02T06:48:25.026Z</time></trkpt><trkpt lat="42.3487713" lon="14.0883218"><ele>64.5</ele><time>2026-05-02T06:48:26.026Z</time></trkpt><trkpt lat="42.3487629" lon="14.0881929"><ele>64.0</ele><time>2026-05-02T06:48:27.026Z</time></trkpt><trkpt lat="42.3487575" lon="14.0880815"><ele>63.5</ele><time>2026-05-02T06:48:28.026Z</time></trkpt><trkpt lat="42.3487361" lon="14.0879793"><ele>63.0</ele><time>2026-05-02T06:48:29.026Z</time></trkpt><trkpt lat="42.3487066" lon="14.0878787"><ele>62.50000000000001</ele><time>2026-05-02T06:48:30.026Z</time></trkpt><trkpt lat="42.3486819" lon="14.0877878"><ele>62.0</ele><time>2026-05-02T06:48:31.026Z</time></trkpt><trkpt lat="42.3486641" lon="14.0876877"><ele>62.00000000000001</ele><time>2026-05-02T06:48:32.026Z</time></trkpt><trkpt lat="42.3486602" lon="14.087576"><ele>62.0</ele><time>2026-05-02T06:48:33.026Z</time></trkpt><trkpt lat="42.3486594" lon="14.0874571"><ele>62.0</ele><time>2026-05-02T06:48:34.025Z</time></trkpt><trkpt lat="42.3486496" lon="14.0873466"><ele>62.0</ele><time>2026-05-02T06:48:35.026Z</time></trkpt><trkpt lat="42.3486338" lon="14.0872365"><ele>62.00000000000001</ele><time>2026-05-02T06:48:36.026Z</time></trkpt><trkpt lat="42.3485925" lon="14.087156"><ele>62.0</ele><time>2026-05-02T06:48:37.026Z</time></trkpt><trkpt lat="42.3485598" lon="14.0870668"><ele>62.16666666666667</ele><time>2026-05-02T06:48:38.026Z</time></trkpt><trkpt lat="42.3485037" lon="14.087016"><ele>62.333333333333336</ele><time>2026-05-02T06:48:39.026Z</time></trkpt><trkpt lat="42.3484492" lon="14.086947"><ele>62.5</ele><time>2026-05-02T06:48:40.026Z</time></trkpt><trkpt lat="42.3483702" lon="14.0868729"><ele>62.66666666666667</ele><time>2026-05-02T06:48:42.026Z</time></trkpt><trkpt lat="42.348311" lon="14.0868302"><ele>62.833333333333336</ele><time>2026-05-02T06:48:44.026Z</time></trkpt><trkpt lat="42.3482452" lon="14.0867666"><ele>63.0</ele><time>2026-05-02T06:48:47.026Z</time></trkpt><trkpt lat="42.3481912" lon="14.0866847"><ele>63.0</ele><time>2026-05-02T06:48:50.026Z</time></trkpt><trkpt lat="42.3481548" lon="14.0865899"><ele>63.0</ele><time>2026-05-02T06:48:52.025Z</time></trkpt><trkpt lat="42.3481255" lon="14.0864777"><ele>63.0</ele><time>2026-05-02T06:48:54.026Z</time></trkpt><trkpt lat="42.3480992" lon="14.086384"><ele>63.0</ele><time>2026-05-02T06:48:56.026Z</time></trkpt><trkpt lat="42.3480841" lon="14.086262"><ele>63.0</ele><time>2026-05-02T06:48:58.026Z</time></trkpt><trkpt lat="42.3480777" lon="14.086113"><ele>63.0</ele><time>2026-05-02T06:49:00.026Z</time></trkpt><trkpt lat="42.3480633" lon="14.0859867"><ele>63.0</ele><time>2026-05-02T06:49:02.026Z</time></trkpt><trkpt lat="42.3480473" lon="14.0859042"><ele>63.0</ele><time>2026-05-02T06:49:04.025Z</time></trkpt><trkpt lat="42.3480352" lon="14.0858034"><ele>63.0</ele><time>2026-05-02T06:49:06.026Z</time></trkpt><trkpt lat="42.348007" lon="14.0856669"><ele>63.0</ele><time>2026-05-02T06:49:08.026Z</time></trkpt><trkpt lat="42.3479868" lon="14.0855376"><ele>63.0</ele><time>2026-05-02T06:49:10.025Z</time></trkpt><trkpt lat="42.3479675" lon="14.0854081"><ele>63.0</ele><time>2026-05-02T06:49:12.026Z</time></trkpt><trkpt lat="42.3479152" lon="14.0852702"><ele>64.0</ele><time>2026-05-02T06:49:14.026Z</time></trkpt><trkpt lat="42.3478509" lon="14.0851586"><ele>65.0</ele><time>2026-05-02T06:49:16.026Z</time></trkpt><trkpt lat="42.3478225" lon="14.0850802"><ele>66.0</ele><time>2026-05-02T06:49:17.026Z</time></trkpt><trkpt lat="42.3477757" lon="14.0849232"><ele>67.0</ele><time>2026-05-02T06:49:19.025Z</time></trkpt><trkpt lat="42.347779" lon="14.0848249"><ele>68.0</ele><time>2026-05-02T06:49:20.026Z</time></trkpt><trkpt lat="42.3477749" lon="14.0846687"><ele>67.99999999999999</ele><time>2026-05-02T06:49:22.025Z</time></trkpt><trkpt lat="42.347752" lon="14.0845836"><ele>68.0</ele><time>2026-05-02T06:49:23.026Z</time></trkpt><trkpt lat="42.3477173" lon="14.084486"><ele>68.0</ele><time>2026-05-02T06:49:24.026Z</time></trkpt><trkpt lat="42.3476898" lon="14.0843954"><ele>68.0</ele><time>2026-05-02T06:49:25.026Z</time></trkpt><trkpt lat="42.3476605" lon="14.0843044"><ele>68.0</ele><time>2026-05-02T06:49:26.026Z</time></trkpt><trkpt lat="42.3476342" lon="14.0842113"><ele>67.99999999999999</ele><time>2026-05-02T06:49:27.026Z</time></trkpt><trkpt lat="42.3476151" lon="14.0841263"><ele>68.0</ele><time>2026-05-02T06:49:28.026Z</time></trkpt><trkpt lat="42.3476137" lon="14.0840293"><ele>67.85714285714285</ele><time>2026-05-02T06:49:29.026Z</time></trkpt><trkpt lat="42.3476033" lon="14.0839362"><ele>67.71428571428571</ele><time>2026-05-02T06:49:30.026Z</time></trkpt><trkpt lat="42.3475986" lon="14.0838475"><ele>67.57142857142857</ele><time>2026-05-02T06:49:31.026Z</time></trkpt><trkpt lat="42.3475939" lon="14.0837574"><ele>67.42857142857142</ele><time>2026-05-02T06:49:32.026Z</time></trkpt><trkpt lat="42.3475817" lon="14.0836654"><ele>67.28571428571428</ele><time>2026-05-02T06:49:33.025Z</time></trkpt><trkpt lat="42.3475702" lon="14.0835573"><ele>67.14285714285714</ele><time>2026-05-02T06:49:34.026Z</time></trkpt><trkpt lat="42.3475721" lon="14.0834336"><ele>67.0</ele><time>2026-05-02T06:49:35.026Z</time></trkpt><trkpt lat="42.3475835" lon="14.0833301"><ele>67.16666666666666</ele><time>2026-05-02T06:49:36.026Z</time></trkpt><trkpt lat="42.3475991" lon="14.0832281"><ele>67.33333333333333</ele><time>2026-05-02T06:49:37.026Z</time></trkpt><trkpt lat="42.3476247" lon="14.0831304"><ele>67.5</ele><time>2026-05-02T06:49:38.026Z</time></trkpt><trkpt lat="42.3476568" lon="14.0830434"><ele>67.66666666666667</ele><time>2026-05-02T06:49:39.026Z</time></trkpt><trkpt lat="42.347699" lon="14.0829777"><ele>67.83333333333334</ele><time>2026-05-02T06:49:40.026Z</time></trkpt><trkpt lat="42.3477607" lon="14.0829146"><ele>68.0</ele><time>2026-05-02T06:49:41.025Z</time></trkpt><trkpt lat="42.347837" lon="14.0828378"><ele>68.0</ele><time>2026-05-02T06:49:42.026Z</time></trkpt><trkpt lat="42.3479116" lon="14.0827501"><ele>68.0</ele><time>2026-05-02T06:49:43.026Z</time></trkpt><trkpt lat="42.3479681" lon="14.082644"><ele>68.0</ele><time>2026-05-02T06:49:44.026Z</time></trkpt><trkpt lat="42.3480285" lon="14.0825129"><ele>68.0</ele><time>2026-05-02T06:49:45.026Z</time></trkpt><trkpt lat="42.3480852" lon="14.0823789"><ele>68.0</ele><time>2026-05-02T06:49:46.025Z</time></trkpt><trkpt lat="42.3481249" lon="14.0822722"><ele>67.5</ele><time>2026-05-02T06:49:47.026Z</time></trkpt><trkpt lat="42.3481583" lon="14.0821959"><ele>67.0</ele><time>2026-05-02T06:49:48.025Z</time></trkpt><trkpt lat="42.3482331" lon="14.0820804"><ele>66.5</ele><time>2026-05-02T06:49:50.026Z</time></trkpt><trkpt lat="42.3482681" lon="14.0820057"><ele>66.0</ele><time>2026-05-02T06:49:52.026Z</time></trkpt><trkpt lat="42.348309" lon="14.0819052"><ele>65.5</ele><time>2026-05-02T06:49:56.026Z</time></trkpt><trkpt lat="42.3483231" lon="14.0818119"><ele>65.0</ele><time>2026-05-02T06:49:58.026Z</time></trkpt><trkpt lat="42.3483313" lon="14.0817215"><ele>65.0</ele><time>2026-05-02T06:50:00.026Z</time></trkpt><trkpt lat="42.3483585" lon="14.0816117"><ele>65.0</ele><time>2026-05-02T06:50:03.026Z</time></trkpt><trkpt lat="42.3484029" lon="14.0815143"><ele>65.0</ele><time>2026-05-02T06:50:06.026Z</time></trkpt><trkpt lat="42.3483505" lon="14.0815832"><ele>65.0</ele><time>2026-05-02T06:50:33.026Z</time></trkpt><trkpt lat="42.3483312" lon="14.0816971"><ele>65.0</ele><time>2026-05-02T06:50:35.026Z</time></trkpt><trkpt lat="42.348315" lon="14.0817936"><ele>65.0</ele><time>2026-05-02T06:50:37.025Z</time></trkpt><trkpt lat="42.3483246" lon="14.0818971"><ele>65.00000000000001</ele><time>2026-05-02T06:50:40.026Z</time></trkpt><trkpt lat="42.3483875" lon="14.0819671"><ele>65.0</ele><time>2026-05-02T06:50:43.026Z</time></trkpt><trkpt lat="42.3484445" lon="14.0820123"><ele>65.0</ele><time>2026-05-02T06:50:45.026Z</time></trkpt><trkpt lat="42.3485057" lon="14.0819679"><ele>65.0</ele><time>2026-05-02T06:50:48.026Z</time></trkpt><trkpt lat="42.3485345" lon="14.0818689"><ele>65.0</ele><time>2026-05-02T06:50:50.026Z</time></trkpt><trkpt lat="42.3485654" lon="14.0817868"><ele>65.00000000000001</ele><time>2026-05-02T06:50:52.026Z</time></trkpt><trkpt lat="42.3485703" lon="14.0816948"><ele>65.0</ele><time>2026-05-02T06:50:54.026Z</time></trkpt><trkpt lat="42.3485962" lon="14.081594"><ele>65.4</ele><time>2026-05-02T06:50:56.025Z</time></trkpt><trkpt lat="42.3486651" lon="14.081518"><ele>65.8</ele><time>2026-05-02T06:50:58.026Z</time></trkpt><trkpt lat="42.3487487" lon="14.08145"><ele>66.2</ele><time>2026-05-02T06:51:00.025Z</time></trkpt><trkpt lat="42.3488405" lon="14.0813783"><ele>66.6</ele><time>2026-05-02T06:51:02.026Z</time></trkpt><trkpt lat="42.3489406" lon="14.0813075"><ele>67.0</ele><time>2026-05-02T06:51:04.026Z</time></trkpt><trkpt lat="42.3490277" lon="14.081246"><ele>67.0</ele><time>2026-05-02T06:51:06.026Z</time></trkpt><trkpt lat="42.3491172" lon="14.081216"><ele>67.0</ele><time>2026-05-02T06:51:08.026Z</time></trkpt><trkpt lat="42.3492222" lon="14.0812205"><ele>67.0</ele><time>2026-05-02T06:51:10.026Z</time></trkpt><trkpt lat="42.3493324" lon="14.0812534"><ele>67.0</ele><time>2026-05-02T06:51:12.026Z</time></trkpt><trkpt lat="42.3494395" lon="14.0812781"><ele>67.0</ele><time>2026-05-02T06:51:14.026Z</time></trkpt><trkpt lat="42.3495262" lon="14.0812811"><ele>67.0</ele><time>2026-05-02T06:51:16.026Z</time></trkpt><trkpt lat="42.3496078" lon="14.0812324"><ele>67.0</ele><time>2026-05-02T06:51:18.026Z</time></trkpt><trkpt lat="42.3496602" lon="14.0811432"><ele>67.0</ele><time>2026-05-02T06:51:20.026Z</time></trkpt><trkpt lat="42.3496718" lon="14.0810327"><ele>67.0</ele><time>2026-05-02T06:51:22.026Z</time></trkpt><trkpt lat="42.3496547" lon="14.0809419"><ele>67.0</ele><time>2026-05-02T06:51:24.025Z</time></trkpt><trkpt lat="42.3496166" lon="14.0808337"><ele>67.0</ele><time>2026-05-02T06:51:27.025Z</time></trkpt><trkpt lat="42.3495615" lon="14.0807419"><ele>66.83333333333333</ele><time>2026-05-02T06:51:30.026Z</time></trkpt><trkpt lat="42.3495296" lon="14.0806291"><ele>66.66666666666666</ele><time>2026-05-02T06:51:33.026Z</time></trkpt><trkpt lat="42.349585" lon="14.0805431"><ele>66.5</ele><time>2026-05-02T06:51:35.026Z</time></trkpt><trkpt lat="42.3496632" lon="14.0804665"><ele>66.33333333333333</ele><time>2026-05-02T06:51:37.026Z</time></trkpt><trkpt lat="42.3497239" lon="14.080385"><ele>66.16666666666667</ele><time>2026-05-02T06:51:39.026Z</time></trkpt><trkpt lat="42.3497896" lon="14.0803032"><ele>66.0</ele><time>2026-05-02T06:51:41.026Z</time></trkpt><trkpt lat="42.3498867" lon="14.0802095"><ele>66.0</ele><time>2026-05-02T06:51:43.025Z</time></trkpt><trkpt lat="42.3499486" lon="14.0801579"><ele>66.0</ele><time>2026-05-02T06:51:44.026Z</time></trkpt><trkpt lat="42.350018" lon="14.0801049"><ele>66.0</ele><time>2026-05-02T06:51:45.026Z</time></trkpt><trkpt lat="42.350089" lon="14.0800458"><ele>66.0</ele><time>2026-05-02T06:51:46.026Z</time></trkpt><trkpt lat="42.3501501" lon="14.0799812"><ele>66.0</ele><time>2026-05-02T06:51:47.026Z</time></trkpt><trkpt lat="42.3502063" lon="14.0799046"><ele>66.0</ele><time>2026-05-02T06:51:48.025Z</time></trkpt><trkpt lat="42.3502552" lon="14.0798127"><ele>66.0</ele><time>2026-05-02T06:51:49.026Z</time></trkpt><trkpt lat="42.3502958" lon="14.0797042"><ele>66.0</ele><time>2026-05-02T06:51:50.026Z</time></trkpt><trkpt lat="42.3503313" lon="14.0795898"><ele>66.0</ele><time>2026-05-02T06:51:51.026Z</time></trkpt><trkpt lat="42.3503582" lon="14.0794769"><ele>66.0</ele><time>2026-05-02T06:51:52.026Z</time></trkpt><trkpt lat="42.3503768" lon="14.0793611"><ele>66.0</ele><time>2026-05-02T06:51:53.026Z</time></trkpt><trkpt lat="42.3503905" lon="14.0792502"><ele>66.0</ele><time>2026-05-02T06:51:54.026Z</time></trkpt><trkpt lat="42.3504091" lon="14.079142"><ele>66.0</ele><time>2026-05-02T06:51:55.026Z</time></trkpt><trkpt lat="42.350437" lon="14.0790301"><ele>66.0</ele><time>2026-05-02T06:51:56.026Z</time></trkpt><trkpt lat="42.3504693" lon="14.0789185"><ele>66.0</ele><time>2026-05-02T06:51:57.026Z</time></trkpt><trkpt lat="42.3505038" lon="14.078816"><ele>66.0</ele><time>2026-05-02T06:51:58.025Z</time></trkpt><trkpt lat="42.3505362" lon="14.0787255"><ele>66.0</ele><time>2026-05-02T06:51:59.026Z</time></trkpt><trkpt lat="42.3505553" lon="14.078642"><ele>66.0</ele><time>2026-05-02T06:52:00.026Z</time></trkpt><trkpt lat="42.3505635" lon="14.0785516"><ele>66.14285714285714</ele><time>2026-05-02T06:52:01.026Z</time></trkpt><trkpt lat="42.3505633" lon="14.0784501"><ele>66.28571428571429</ele><time>2026-05-02T06:52:02.026Z</time></trkpt><trkpt lat="42.3505601" lon="14.0783534"><ele>66.42857142857143</ele><time>2026-05-02T06:52:03.026Z</time></trkpt><trkpt lat="42.3505461" lon="14.0782533"><ele>66.57142857142857</ele><time>2026-05-02T06:52:04.026Z</time></trkpt><trkpt lat="42.3505227" lon="14.0781495"><ele>66.71428571428571</ele><time>2026-05-02T06:52:05.026Z</time></trkpt><trkpt lat="42.3505023" lon="14.0780529"><ele>66.85714285714286</ele><time>2026-05-02T06:52:06.026Z</time></trkpt><trkpt lat="42.3504931" lon="14.0779632"><ele>67.0</ele><time>2026-05-02T06:52:07.026Z</time></trkpt><trkpt lat="42.3504829" lon="14.0778717"><ele>67.0</ele><time>2026-05-02T06:52:08.026Z</time></trkpt><trkpt lat="42.3504703" lon="14.0777784"><ele>67.0</ele><time>2026-05-02T06:52:09.026Z</time></trkpt><trkpt lat="42.3504546" lon="14.07768"><ele>67.0</ele><time>2026-05-02T06:52:10.026Z</time></trkpt><trkpt lat="42.3504491" lon="14.0775711"><ele>67.0</ele><time>2026-05-02T06:52:11.026Z</time></trkpt><trkpt lat="42.3504465" lon="14.0774532"><ele>67.0</ele><time>2026-05-02T06:52:12.026Z</time></trkpt><trkpt lat="42.3504473" lon="14.0773406"><ele>67.0</ele><time>2026-05-02T06:52:13.026Z</time></trkpt><trkpt lat="42.3504492" lon="14.0772322"><ele>67.16666666666666</ele><time>2026-05-02T06:52:14.026Z</time></trkpt><trkpt lat="42.3504501" lon="14.0771226"><ele>67.33333333333333</ele><time>2026-05-02T06:52:15.026Z</time></trkpt><trkpt lat="42.3504442" lon="14.0770127"><ele>67.5</ele><time>2026-05-02T06:52:16.026Z</time></trkpt><trkpt lat="42.3504401" lon="14.0768934"><ele>67.66666666666667</ele><time>2026-05-02T06:52:17.025Z</time></trkpt><trkpt lat="42.3504324" lon="14.0767787"><ele>67.83333333333334</ele><time>2026-05-02T06:52:18.026Z</time></trkpt><trkpt lat="42.3504351" lon="14.0766798"><ele>68.0</ele><time>2026-05-02T06:52:19.026Z</time></trkpt><trkpt lat="42.3504582" lon="14.0765605"><ele>68.33333333333334</ele><time>2026-05-02T06:52:20.026Z</time></trkpt><trkpt lat="42.3504813" lon="14.0764533"><ele>68.66666666666667</ele><time>2026-05-02T06:52:21.026Z</time></trkpt><trkpt lat="42.3504948" lon="14.0763415"><ele>69.0</ele><time>2026-05-02T06:52:22.026Z</time></trkpt><trkpt lat="42.350494" lon="14.0762371"><ele>69.33333333333333</ele><time>2026-05-02T06:52:23.026Z</time></trkpt><trkpt lat="42.3504924" lon="14.076128"><ele>69.66666666666666</ele><time>2026-05-02T06:52:24.026Z</time></trkpt><trkpt lat="42.3504411" lon="14.0759789"><ele>70.0</ele><time>2026-05-02T06:52:25.025Z</time></trkpt><trkpt lat="42.3504238" lon="14.0758758"><ele>70.16666666666666</ele><time>2026-05-02T06:52:26.025Z</time></trkpt><trkpt lat="42.3504141" lon="14.0757667"><ele>70.33333333333333</ele><time>2026-05-02T06:52:27.026Z</time></trkpt><trkpt lat="42.3504044" lon="14.0756759"><ele>70.5</ele><time>2026-05-02T06:52:28.026Z</time></trkpt><trkpt lat="42.3503901" lon="14.0755443"><ele>70.66666666666667</ele><time>2026-05-02T06:52:30.026Z</time></trkpt><trkpt lat="42.3504135" lon="14.075463"><ele>70.83333333333334</ele><time>2026-05-02T06:52:32.026Z</time></trkpt><trkpt lat="42.3504862" lon="14.0753847"><ele>71.0</ele><time>2026-05-02T06:52:34.026Z</time></trkpt><trkpt lat="42.3505466" lon="14.0753554"><ele>71.0</ele><time>2026-05-02T06:52:35.026Z</time></trkpt><trkpt lat="42.3506145" lon="14.0753374"><ele>71.0</ele><time>2026-05-02T06:52:36.026Z</time></trkpt><trkpt lat="42.3506976" lon="14.0753165"><ele>71.0</ele><time>2026-05-02T06:52:37.026Z</time></trkpt><trkpt lat="42.3507986" lon="14.0752913"><ele>71.0</ele><time>2026-05-02T06:52:38.026Z</time></trkpt><trkpt lat="42.3509081" lon="14.0752548"><ele>71.0</ele><time>2026-05-02T06:52:39.026Z</time></trkpt><trkpt lat="42.3510261" lon="14.0752139"><ele>71.0</ele><time>2026-05-02T06:52:40.026Z</time></trkpt><trkpt lat="42.3511276" lon="14.0751774"><ele>71.0</ele><time>2026-05-02T06:52:41.025Z</time></trkpt><trkpt lat="42.3512268" lon="14.0751435"><ele>71.0</ele><time>2026-05-02T06:52:42.025Z</time></trkpt><trkpt lat="42.3513211" lon="14.0751098"><ele>71.0</ele><time>2026-05-02T06:52:43.026Z</time></trkpt><trkpt lat="42.3514033" lon="14.075083"><ele>71.0</ele><time>2026-05-02T06:52:44.026Z</time></trkpt><trkpt lat="42.3514833" lon="14.0750677"><ele>71.5</ele><time>2026-05-02T06:52:45.026Z</time></trkpt><trkpt lat="42.3515712" lon="14.075061"><ele>72.0</ele><time>2026-05-02T06:52:46.025Z</time></trkpt><trkpt lat="42.3516815" lon="14.075064"><ele>72.5</ele><time>2026-05-02T06:52:47.026Z</time></trkpt><trkpt lat="42.3518039" lon="14.0750807"><ele>73.0</ele><time>2026-05-02T06:52:48.026Z</time></trkpt><trkpt lat="42.3519442" lon="14.075103"><ele>73.0</ele><time>2026-05-02T06:52:49.026Z</time></trkpt><trkpt lat="42.3520961" lon="14.075124"><ele>73.0</ele><time>2026-05-02T06:52:50.026Z</time></trkpt><trkpt lat="42.3522582" lon="14.0751473"><ele>73.0</ele><time>2026-05-02T06:52:51.026Z</time></trkpt><trkpt lat="42.352431" lon="14.0751727"><ele>74.0</ele><time>2026-05-02T06:52:52.026Z</time></trkpt><trkpt lat="42.3525951" lon="14.075197"><ele>75.0</ele><time>2026-05-02T06:52:53.026Z</time></trkpt><trkpt lat="42.352739" lon="14.0752197"><ele>76.0</ele><time>2026-05-02T06:52:54.026Z</time></trkpt><trkpt lat="42.352874" lon="14.0752479"><ele>77.0</ele><time>2026-05-02T06:52:55.025Z</time></trkpt><trkpt lat="42.3530098" lon="14.0752934"><ele>80.5</ele><time>2026-05-02T06:52:56.026Z</time></trkpt><trkpt lat="42.3531423" lon="14.0753399"><ele>84.0</ele><time>2026-05-02T06:52:57.026Z</time></trkpt><trkpt lat="42.3532637" lon="14.075363"><ele>87.5</ele><time>2026-05-02T06:52:58.025Z</time></trkpt><trkpt lat="42.3533949" lon="14.0753664"><ele>91.0</ele><time>2026-05-02T06:52:59.026Z</time></trkpt><trkpt lat="42.3535265" lon="14.0753441"><ele>91.0</ele><time>2026-05-02T06:53:00.026Z</time></trkpt><trkpt lat="42.3536592" lon="14.0753087"><ele>91.0</ele><time>2026-05-02T06:53:01.026Z</time></trkpt><trkpt lat="42.3537958" lon="14.0752741"><ele>91.0</ele><time>2026-05-02T06:53:02.026Z</time></trkpt><trkpt lat="42.3539379" lon="14.0752386"><ele>91.0</ele><time>2026-05-02T06:53:03.026Z</time></trkpt><trkpt lat="42.3540829" lon="14.0752026"><ele>93.0</ele><time>2026-05-02T06:53:04.026Z</time></trkpt><trkpt lat="42.3542312" lon="14.0751693"><ele>95.0</ele><time>2026-05-02T06:53:05.026Z</time></trkpt><trkpt lat="42.3543834" lon="14.0751295"><ele>97.0</ele><time>2026-05-02T06:53:06.026Z</time></trkpt><trkpt lat="42.3545439" lon="14.0750868"><ele>101.33333333333334</ele><time>2026-05-02T06:53:07.025Z</time></trkpt><trkpt lat="42.3547097" lon="14.0750424"><ele>105.66666666666666</ele><time>2026-05-02T06:53:08.026Z</time></trkpt><trkpt lat="42.3548647" lon="14.0750014"><ele>110.0</ele><time>2026-05-02T06:53:09.026Z</time></trkpt><trkpt lat="42.3550089" lon="14.0749745"><ele>110.0</ele><time>2026-05-02T06:53:10.026Z</time></trkpt><trkpt lat="42.3551656" lon="14.0749502"><ele>110.0</ele><time>2026-05-02T06:53:11.026Z</time></trkpt><trkpt lat="42.355324" lon="14.0749269"><ele>110.0</ele><time>2026-05-02T06:53:12.026Z</time></trkpt><trkpt lat="42.3554575" lon="14.0749062"><ele>112.0</ele><time>2026-05-02T06:53:13.026Z</time></trkpt><trkpt lat="42.3555803" lon="14.0748854"><ele>114.0</ele><time>2026-05-02T06:53:14.026Z</time></trkpt><trkpt lat="42.3556902" lon="14.0748648"><ele>116.0</ele><time>2026-05-02T06:53:15.026Z</time></trkpt><trkpt lat="42.3557909" lon="14.0748533"><ele>118.0</ele><time>2026-05-02T06:53:16.025Z</time></trkpt><trkpt lat="42.3558944" lon="14.0748519"><ele>120.0</ele><time>2026-05-02T06:53:17.026Z</time></trkpt><trkpt lat="42.3560009" lon="14.0748551"><ele>120.0</ele><time>2026-05-02T06:53:18.026Z</time></trkpt><trkpt lat="42.3561108" lon="14.0748625"><ele>120.0</ele><time>2026-05-02T06:53:19.026Z</time></trkpt><trkpt lat="42.3562269" lon="14.0748798"><ele>120.0</ele><time>2026-05-02T06:53:20.026Z</time></trkpt><trkpt lat="42.3563509" lon="14.0748976"><ele>120.0</ele><time>2026-05-02T06:53:21.026Z</time></trkpt><trkpt lat="42.3564801" lon="14.0749185"><ele>120.75</ele><time>2026-05-02T06:53:22.026Z</time></trkpt><trkpt lat="42.3566056" lon="14.0749427"><ele>121.5</ele><time>2026-05-02T06:53:23.026Z</time></trkpt><trkpt lat="42.3567255" lon="14.0749645"><ele>122.25</ele><time>2026-05-02T06:53:24.026Z</time></trkpt><trkpt lat="42.3568347" lon="14.0749791"><ele>123.0</ele><time>2026-05-02T06:53:25.026Z</time></trkpt><trkpt lat="42.3569367" lon="14.074995"><ele>123.0</ele><time>2026-05-02T06:53:26.026Z</time></trkpt><trkpt lat="42.3570334" lon="14.0750121"><ele>123.00000000000001</ele><time>2026-05-02T06:53:27.025Z</time></trkpt><trkpt lat="42.3571265" lon="14.0750324"><ele>123.00000000000001</ele><time>2026-05-02T06:53:28.026Z</time></trkpt><trkpt lat="42.3572166" lon="14.0750544"><ele>123.0</ele><time>2026-05-02T06:53:29.026Z</time></trkpt><trkpt lat="42.357305" lon="14.0750731"><ele>123.0</ele><time>2026-05-02T06:53:30.025Z</time></trkpt><trkpt lat="42.3573916" lon="14.0750876"><ele>122.80000000000001</ele><time>2026-05-02T06:53:31.026Z</time></trkpt><trkpt lat="42.3574808" lon="14.0751023"><ele>122.60000000000001</ele><time>2026-05-02T06:53:32.026Z</time></trkpt><trkpt lat="42.3575706" lon="14.075127"><ele>122.39999999999999</ele><time>2026-05-02T06:53:33.026Z</time></trkpt><trkpt lat="42.3576626" lon="14.0751535"><ele>122.19999999999999</ele><time>2026-05-02T06:53:34.025Z</time></trkpt><trkpt lat="42.3577551" lon="14.075184"><ele>122.0</ele><time>2026-05-02T06:53:35.026Z</time></trkpt><trkpt lat="42.3578565" lon="14.0752114"><ele>122.0</ele><time>2026-05-02T06:53:36.026Z</time></trkpt><trkpt lat="42.3579653" lon="14.0752456"><ele>122.0</ele><time>2026-05-02T06:53:37.026Z</time></trkpt><trkpt lat="42.3580741" lon="14.0752906"><ele>122.0</ele><time>2026-05-02T06:53:38.026Z</time></trkpt><trkpt lat="42.3581882" lon="14.0753375"><ele>122.0</ele><time>2026-05-02T06:53:39.026Z</time></trkpt><trkpt lat="42.358301" lon="14.0753838"><ele>121.8</ele><time>2026-05-02T06:53:40.026Z</time></trkpt><trkpt lat="42.3584108" lon="14.0754283"><ele>121.6</ele><time>2026-05-02T06:53:41.026Z</time></trkpt><trkpt lat="42.3585068" lon="14.0754699"><ele>121.39999999999999</ele><time>2026-05-02T06:53:42.026Z</time></trkpt><trkpt lat="42.35858" lon="14.0755004"><ele>121.19999999999999</ele><time>2026-05-02T06:53:43.026Z</time></trkpt><trkpt lat="42.3586627" lon="14.0755387"><ele>121.0</ele><time>2026-05-02T06:53:45.026Z</time></trkpt><trkpt lat="42.3587448" lon="14.0755396"><ele>121.0</ele><time>2026-05-02T06:53:47.026Z</time></trkpt><trkpt lat="42.3588648" lon="14.0754847"><ele>121.0</ele><time>2026-05-02T06:53:49.026Z</time></trkpt><trkpt lat="42.3589322" lon="14.0754403"><ele>121.0</ele><time>2026-05-02T06:53:50.026Z</time></trkpt><trkpt lat="42.3590029" lon="14.07539"><ele>121.0</ele><time>2026-05-02T06:53:51.026Z</time></trkpt><trkpt lat="42.3590783" lon="14.0753398"><ele>121.0</ele><time>2026-05-02T06:53:52.026Z</time></trkpt><trkpt lat="42.3591564" lon="14.0752908"><ele>121.66666666666667</ele><time>2026-05-02T06:53:53.026Z</time></trkpt><trkpt lat="42.3592355" lon="14.0752455"><ele>122.33333333333334</ele><time>2026-05-02T06:53:54.026Z</time></trkpt><trkpt lat="42.3593134" lon="14.0751925"><ele>123.0</ele><time>2026-05-02T06:53:55.026Z</time></trkpt><trkpt lat="42.3593914" lon="14.0751392"><ele>123.66666666666666</ele><time>2026-05-02T06:53:56.026Z</time></trkpt><trkpt lat="42.3594686" lon="14.0750795"><ele>124.33333333333333</ele><time>2026-05-02T06:53:57.025Z</time></trkpt><trkpt lat="42.359548" lon="14.0750163"><ele>125.0</ele><time>2026-05-02T06:53:58.025Z</time></trkpt><trkpt lat="42.3596253" lon="14.0749593"><ele>125.6</ele><time>2026-05-02T06:53:59.026Z</time></trkpt><trkpt lat="42.3597083" lon="14.0749011"><ele>126.2</ele><time>2026-05-02T06:54:00.026Z</time></trkpt><trkpt lat="42.3597931" lon="14.0748404"><ele>126.80000000000001</ele><time>2026-05-02T06:54:01.026Z</time></trkpt><trkpt lat="42.3598782" lon="14.0747803"><ele>127.4</ele><time>2026-05-02T06:54:02.025Z</time></trkpt><trkpt lat="42.3599633" lon="14.0747213"><ele>128.0</ele><time>2026-05-02T06:54:03.025Z</time></trkpt><trkpt lat="42.3600499" lon="14.0746587"><ele>128.0</ele><time>2026-05-02T06:54:04.026Z</time></trkpt><trkpt lat="42.3601388" lon="14.074595"><ele>128.0</ele><time>2026-05-02T06:54:05.026Z</time></trkpt><trkpt lat="42.3602297" lon="14.0745287"><ele>128.0</ele><time>2026-05-02T06:54:06.026Z</time></trkpt><trkpt lat="42.3603194" lon="14.0744692"><ele>128.0</ele><time>2026-05-02T06:54:07.026Z</time></trkpt><trkpt lat="42.3604129" lon="14.074409"><ele>128.0</ele><time>2026-05-02T06:54:08.026Z</time></trkpt><trkpt lat="42.3605098" lon="14.0743498"><ele>128.6</ele><time>2026-05-02T06:54:09.026Z</time></trkpt><trkpt lat="42.3606086" lon="14.0742902"><ele>129.20000000000002</ele><time>2026-05-02T06:54:10.026Z</time></trkpt><trkpt lat="42.3607045" lon="14.0742245"><ele>129.8</ele><time>2026-05-02T06:54:11.026Z</time></trkpt><trkpt lat="42.3607997" lon="14.0741556"><ele>130.4</ele><time>2026-05-02T06:54:12.025Z</time></trkpt><trkpt lat="42.3608971" lon="14.0740889"><ele>131.0</ele><time>2026-05-02T06:54:13.026Z</time></trkpt><trkpt lat="42.3609924" lon="14.0740226"><ele>131.6</ele><time>2026-05-02T06:54:14.026Z</time></trkpt><trkpt lat="42.3610882" lon="14.0739556"><ele>132.2</ele><time>2026-05-02T06:54:15.026Z</time></trkpt><trkpt lat="42.3611766" lon="14.0738904"><ele>132.8</ele><time>2026-05-02T06:54:16.026Z</time></trkpt><trkpt lat="42.3612562" lon="14.0738298"><ele>133.4</ele><time>2026-05-02T06:54:17.026Z</time></trkpt><trkpt lat="42.3613352" lon="14.0737654"><ele>134.0</ele><time>2026-05-02T06:54:18.026Z</time></trkpt><trkpt lat="42.3614153" lon="14.0737041"><ele>134.5</ele><time>2026-05-02T06:54:19.026Z</time></trkpt><trkpt lat="42.3614943" lon="14.073649"><ele>135.0</ele><time>2026-05-02T06:54:20.026Z</time></trkpt><trkpt lat="42.3615681" lon="14.0735968"><ele>135.5</ele><time>2026-05-02T06:54:21.026Z</time></trkpt><trkpt lat="42.3616281" lon="14.0735536"><ele>136.0</ele><time>2026-05-02T06:54:22.026Z</time></trkpt><trkpt lat="42.3617085" lon="14.0735156"><ele>136.5</ele><time>2026-05-02T06:54:24.026Z</time></trkpt><trkpt lat="42.3617557" lon="14.0734499"><ele>137.0</ele><time>2026-05-02T06:54:32.026Z</time></trkpt><trkpt lat="42.3617229" lon="14.0733402"><ele>137.0</ele><time>2026-05-02T06:54:34.026Z</time></trkpt><trkpt lat="42.361669" lon="14.0732734"><ele>137.0</ele><time>2026-05-02T06:54:35.026Z</time></trkpt><trkpt lat="42.3616135" lon="14.0731926"><ele>137.0</ele><time>2026-05-02T06:54:36.026Z</time></trkpt><trkpt lat="42.3615535" lon="14.0731016"><ele>137.0</ele><time>2026-05-02T06:54:37.026Z</time></trkpt><trkpt lat="42.3614847" lon="14.0730004"><ele>137.0</ele><time>2026-05-02T06:54:38.026Z</time></trkpt><trkpt lat="42.3614116" lon="14.0728914"><ele>136.0</ele><time>2026-05-02T06:54:39.026Z</time></trkpt><trkpt lat="42.3613335" lon="14.0727756"><ele>135.0</ele><time>2026-05-02T06:54:40.026Z</time></trkpt><trkpt lat="42.3612554" lon="14.0726623"><ele>134.0</ele><time>2026-05-02T06:54:41.026Z</time></trkpt><trkpt lat="42.3611734" lon="14.0725371"><ele>133.0</ele><time>2026-05-02T06:54:42.026Z</time></trkpt><trkpt lat="42.3610914" lon="14.0724039"><ele>133.0</ele><time>2026-05-02T06:54:43.026Z</time></trkpt><trkpt lat="42.361004" lon="14.0722674"><ele>133.0</ele><time>2026-05-02T06:54:44.026Z</time></trkpt><trkpt lat="42.3609161" lon="14.0721365"><ele>133.0</ele><time>2026-05-02T06:54:45.026Z</time></trkpt><trkpt lat="42.3608355" lon="14.0719998"><ele>133.0</ele><time>2026-05-02T06:54:46.025Z</time></trkpt><trkpt lat="42.3607547" lon="14.0718582"><ele>133.0</ele><time>2026-05-02T06:54:47.026Z</time></trkpt><trkpt lat="42.3606828" lon="14.0717059"><ele>133.0</ele><time>2026-05-02T06:54:48.026Z</time></trkpt><trkpt lat="42.3606257" lon="14.0715405"><ele>133.0</ele><time>2026-05-02T06:54:49.025Z</time></trkpt><trkpt lat="42.3605812" lon="14.0713634"><ele>133.0</ele><time>2026-05-02T06:54:50.026Z</time></trkpt><trkpt lat="42.3605373" lon="14.0711764"><ele>133.0</ele><time>2026-05-02T06:54:51.026Z</time></trkpt><trkpt lat="42.3604947" lon="14.0709803"><ele>133.0</ele><time>2026-05-02T06:54:52.026Z</time></trkpt><trkpt lat="42.3604521" lon="14.0707797"><ele>133.0</ele><time>2026-05-02T06:54:53.026Z</time></trkpt><trkpt lat="42.36041" lon="14.070571"><ele>133.66666666666669</ele><time>2026-05-02T06:54:54.025Z</time></trkpt><trkpt lat="42.3603646" lon="14.0703623"><ele>134.33333333333334</ele><time>2026-05-02T06:54:55.026Z</time></trkpt><trkpt lat="42.3603238" lon="14.0701523"><ele>135.0</ele><time>2026-05-02T06:54:56.026Z</time></trkpt><trkpt lat="42.3602856" lon="14.0699518"><ele>135.75</ele><time>2026-05-02T06:54:57.026Z</time></trkpt><trkpt lat="42.3602486" lon="14.0697601"><ele>136.5</ele><time>2026-05-02T06:54:58.026Z</time></trkpt><trkpt lat="42.3602224" lon="14.0695739"><ele>137.25</ele><time>2026-05-02T06:54:59.026Z</time></trkpt><trkpt lat="42.3602088" lon="14.069389"><ele>138.0</ele><time>2026-05-02T06:55:00.026Z</time></trkpt><trkpt lat="42.3602119" lon="14.0692052"><ele>138.5</ele><time>2026-05-02T06:55:01.026Z</time></trkpt><trkpt lat="42.3602305" lon="14.0690238"><ele>139.0</ele><time>2026-05-02T06:55:02.026Z</time></trkpt><trkpt lat="42.3602658" lon="14.0688498"><ele>139.5</ele><time>2026-05-02T06:55:03.026Z</time></trkpt><trkpt lat="42.3603184" lon="14.0686843"><ele>140.0</ele><time>2026-05-02T06:55:04.026Z</time></trkpt><trkpt lat="42.3603833" lon="14.0685407"><ele>140.0</ele><time>2026-05-02T06:55:05.026Z</time></trkpt><trkpt lat="42.3604408" lon="14.0684391"><ele>140.0</ele><time>2026-05-02T06:55:06.026Z</time></trkpt><trkpt lat="42.3604858" lon="14.0683681"><ele>140.0</ele><time>2026-05-02T06:55:07.026Z</time></trkpt><trkpt lat="42.3605599" lon="14.0682632"><ele>140.0</ele><time>2026-05-02T06:55:09.026Z</time></trkpt><trkpt lat="42.360623" lon="14.0681521"><ele>140.0</ele><time>2026-05-02T06:55:11.026Z</time></trkpt><trkpt lat="42.3606674" lon="14.0680249"><ele>140.0</ele><time>2026-05-02T06:55:13.025Z</time></trkpt><trkpt lat="42.3606972" lon="14.0678896"><ele>140.0</ele><time>2026-05-02T06:55:15.026Z</time></trkpt><trkpt lat="42.3607152" lon="14.0677159"><ele>140.0</ele><time>2026-05-02T06:55:17.025Z</time></trkpt><trkpt lat="42.3606866" lon="14.0675714"><ele>140.0</ele><time>2026-05-02T06:55:19.026Z</time></trkpt><trkpt lat="42.3606261" lon="14.0674285"><ele>139.33333333333331</ele><time>2026-05-02T06:55:21.025Z</time></trkpt><trkpt lat="42.3605917" lon="14.0673543"><ele>138.66666666666666</ele><time>2026-05-02T06:55:22.026Z</time></trkpt><trkpt lat="42.360555" lon="14.0672809"><ele>138.0</ele><time>2026-05-02T06:55:23.026Z</time></trkpt><trkpt lat="42.3605156" lon="14.0672066"><ele>137.33333333333334</ele><time>2026-05-02T06:55:24.026Z</time></trkpt><trkpt lat="42.3604782" lon="14.0671371"><ele>136.66666666666669</ele><time>2026-05-02T06:55:25.026Z</time></trkpt><trkpt lat="42.3604419" lon="14.0670616"><ele>136.0</ele><time>2026-05-02T06:55:26.026Z</time></trkpt><trkpt lat="42.3603889" lon="14.0669133"><ele>135.0</ele><time>2026-05-02T06:55:28.026Z</time></trkpt><trkpt lat="42.360363" lon="14.0667773"><ele>134.0</ele><time>2026-05-02T06:55:30.026Z</time></trkpt><trkpt lat="42.3603346" lon="14.0666911"><ele>133.0</ele><time>2026-05-02T06:55:39.026Z</time></trkpt><trkpt lat="42.3602769" lon="14.066628"><ele>132.0</ele><time>2026-05-02T06:55:41.026Z</time></trkpt><trkpt lat="42.3601776" lon="14.0665877"><ele>131.0</ele><time>2026-05-02T06:55:43.026Z</time></trkpt><trkpt lat="42.3600596" lon="14.0665238"><ele>131.0</ele><time>2026-05-02T06:55:45.026Z</time></trkpt><trkpt lat="42.3599956" lon="14.0664694"><ele>131.0</ele><time>2026-05-02T06:55:46.025Z</time></trkpt><trkpt lat="42.3599305" lon="14.0663888"><ele>131.0</ele><time>2026-05-02T06:55:47.025Z</time></trkpt><trkpt lat="42.3598662" lon="14.0662861"><ele>131.0</ele><time>2026-05-02T06:55:48.026Z</time></trkpt><trkpt lat="42.3598028" lon="14.0661676"><ele>131.0</ele><time>2026-05-02T06:55:49.026Z</time></trkpt><trkpt lat="42.3597336" lon="14.0660339"><ele>131.5</ele><time>2026-05-02T06:55:50.026Z</time></trkpt><trkpt lat="42.3596586" lon="14.0658915"><ele>132.0</ele><time>2026-05-02T06:55:51.026Z</time></trkpt><trkpt lat="42.3595829" lon="14.0657387"><ele>132.5</ele><time>2026-05-02T06:55:52.025Z</time></trkpt><trkpt lat="42.3595085" lon="14.0655906"><ele>133.0</ele><time>2026-05-02T06:55:53.026Z</time></trkpt><trkpt lat="42.3594352" lon="14.0654549"><ele>130.75</ele><time>2026-05-02T06:55:54.026Z</time></trkpt><trkpt lat="42.3593563" lon="14.0653378"><ele>128.5</ele><time>2026-05-02T06:55:55.026Z</time></trkpt><trkpt lat="42.3592613" lon="14.0652271"><ele>126.25</ele><time>2026-05-02T06:55:56.026Z</time></trkpt><trkpt lat="42.3591542" lon="14.0651277"><ele>124.0</ele><time>2026-05-02T06:55:57.026Z</time></trkpt><trkpt lat="42.3590452" lon="14.0650182"><ele>123.5</ele><time>2026-05-02T06:55:58.026Z</time></trkpt><trkpt lat="42.3589547" lon="14.0648812"><ele>123.0</ele><time>2026-05-02T06:55:59.026Z</time></trkpt><trkpt lat="42.3588611" lon="14.064741"><ele>122.5</ele><time>2026-05-02T06:56:00.026Z</time></trkpt><trkpt lat="42.3587865" lon="14.0645937"><ele>122.0</ele><time>2026-05-02T06:56:01.026Z</time></trkpt><trkpt lat="42.3587109" lon="14.0644582"><ele>121.5</ele><time>2026-05-02T06:56:02.026Z</time></trkpt><trkpt lat="42.3586384" lon="14.0643263"><ele>121.0</ele><time>2026-05-02T06:56:03.026Z</time></trkpt><trkpt lat="42.3585682" lon="14.0642011"><ele>120.5</ele><time>2026-05-02T06:56:04.026Z</time></trkpt><trkpt lat="42.3584869" lon="14.0640947"><ele>120.0</ele><time>2026-05-02T06:56:05.026Z</time></trkpt><trkpt lat="42.3583867" lon="14.0640199"><ele>117.25</ele><time>2026-05-02T06:56:06.026Z</time></trkpt><trkpt lat="42.3582733" lon="14.0639838"><ele>114.5</ele><time>2026-05-02T06:56:07.025Z</time></trkpt><trkpt lat="42.3581528" lon="14.0639776"><ele>111.75</ele><time>2026-05-02T06:56:08.026Z</time></trkpt><trkpt lat="42.3580222" lon="14.0639956"><ele>109.0</ele><time>2026-05-02T06:56:09.025Z</time></trkpt><trkpt lat="42.3578963" lon="14.0640158"><ele>108.0</ele><time>2026-05-02T06:56:10.026Z</time></trkpt><trkpt lat="42.3577758" lon="14.0640019"><ele>107.0</ele><time>2026-05-02T06:56:11.026Z</time></trkpt><trkpt lat="42.3576561" lon="14.0639634"><ele>106.0</ele><time>2026-05-02T06:56:12.026Z</time></trkpt><trkpt lat="42.3575315" lon="14.0639194"><ele>105.0</ele><time>2026-05-02T06:56:13.026Z</time></trkpt><trkpt lat="42.3573941" lon="14.0638538"><ele>105.0</ele><time>2026-05-02T06:56:14.026Z</time></trkpt><trkpt lat="42.3572775" lon="14.0637257"><ele>105.0</ele><time>2026-05-02T06:56:15.026Z</time></trkpt><trkpt lat="42.3571406" lon="14.0636715"><ele>105.0</ele><time>2026-05-02T06:56:16.026Z</time></trkpt><trkpt lat="42.3570108" lon="14.0636249"><ele>105.0</ele><time>2026-05-02T06:56:17.026Z</time></trkpt><trkpt lat="42.3568826" lon="14.0635755"><ele>103.75</ele><time>2026-05-02T06:56:18.026Z</time></trkpt><trkpt lat="42.3567515" lon="14.0635373"><ele>102.5</ele><time>2026-05-02T06:56:19.026Z</time></trkpt><trkpt lat="42.3566191" lon="14.063528"><ele>101.25</ele><time>2026-05-02T06:56:20.026Z</time></trkpt><trkpt lat="42.3564924" lon="14.0636334"><ele>100.0</ele><time>2026-05-02T06:56:21.026Z</time></trkpt><trkpt lat="42.3563653" lon="14.0636945"><ele>98.0</ele><time>2026-05-02T06:56:22.026Z</time></trkpt><trkpt lat="42.3562436" lon="14.063767"><ele>96.0</ele><time>2026-05-02T06:56:23.026Z</time></trkpt><trkpt lat="42.3561181" lon="14.063834"><ele>94.0</ele><time>2026-05-02T06:56:24.026Z</time></trkpt><trkpt lat="42.3560069" lon="14.0638666"><ele>92.0</ele><time>2026-05-02T06:56:25.026Z</time></trkpt><trkpt lat="42.3559004" lon="14.0638643"><ele>92.0</ele><time>2026-05-02T06:56:26.026Z</time></trkpt><trkpt lat="42.3557965" lon="14.0638112"><ele>92.0</ele><time>2026-05-02T06:56:27.026Z</time></trkpt><trkpt lat="42.3557062" lon="14.0637197"><ele>92.0</ele><time>2026-05-02T06:56:28.026Z</time></trkpt><trkpt lat="42.3556383" lon="14.0635957"><ele>92.0</ele><time>2026-05-02T06:56:29.025Z</time></trkpt><trkpt lat="42.3555946" lon="14.063439"><ele>92.0</ele><time>2026-05-02T06:56:30.026Z</time></trkpt><trkpt lat="42.3555482" lon="14.0632662"><ele>92.0</ele><time>2026-05-02T06:56:31.026Z</time></trkpt><trkpt lat="42.3554959" lon="14.0630899"><ele>92.0</ele><time>2026-05-02T06:56:32.026Z</time></trkpt><trkpt lat="42.355432" lon="14.0629085"><ele>92.0</ele><time>2026-05-02T06:56:33.026Z</time></trkpt><trkpt lat="42.3553488" lon="14.0627327"><ele>91.33333333333334</ele><time>2026-05-02T06:56:34.026Z</time></trkpt><trkpt lat="42.3552487" lon="14.0625596"><ele>90.66666666666667</ele><time>2026-05-02T06:56:35.026Z</time></trkpt><trkpt lat="42.3551402" lon="14.0623889"><ele>90.0</ele><time>2026-05-02T06:56:36.025Z</time></trkpt><trkpt lat="42.3550277" lon="14.0622154"><ele>90.0</ele><time>2026-05-02T06:56:37.026Z</time></trkpt><trkpt lat="42.3549125" lon="14.0620391"><ele>90.0</ele><time>2026-05-02T06:56:38.026Z</time></trkpt><trkpt lat="42.3547932" lon="14.061858"><ele>90.0</ele><time>2026-05-02T06:56:39.026Z</time></trkpt><trkpt lat="42.3546749" lon="14.0616769"><ele>91.33333333333333</ele><time>2026-05-02T06:56:40.025Z</time></trkpt><trkpt lat="42.3545598" lon="14.0614891"><ele>92.66666666666666</ele><time>2026-05-02T06:56:41.026Z</time></trkpt><trkpt lat="42.3544515" lon="14.0612961"><ele>94.0</ele><time>2026-05-02T06:56:42.026Z</time></trkpt><trkpt lat="42.3543405" lon="14.0611005"><ele>94.0</ele><time>2026-05-02T06:56:43.025Z</time></trkpt><trkpt lat="42.3542257" lon="14.0608978"><ele>94.0</ele><time>2026-05-02T06:56:44.025Z</time></trkpt><trkpt lat="42.3541068" lon="14.0606904"><ele>94.0</ele><time>2026-05-02T06:56:45.025Z</time></trkpt><trkpt lat="42.3539843" lon="14.0604799"><ele>94.0</ele><time>2026-05-02T06:56:46.026Z</time></trkpt><trkpt lat="42.3538633" lon="14.0602777"><ele>94.0</ele><time>2026-05-02T06:56:47.026Z</time></trkpt><trkpt lat="42.353747" lon="14.0600911"><ele>94.0</ele><time>2026-05-02T06:56:48.026Z</time></trkpt><trkpt lat="42.3536421" lon="14.0599028"><ele>94.0</ele><time>2026-05-02T06:56:49.025Z</time></trkpt><trkpt lat="42.3535559" lon="14.0596994"><ele>94.0</ele><time>2026-05-02T06:56:50.026Z</time></trkpt><trkpt lat="42.3534922" lon="14.0594818"><ele>94.0</ele><time>2026-05-02T06:56:51.025Z</time></trkpt><trkpt lat="42.353452" lon="14.0592482"><ele>93.66666666666666</ele><time>2026-05-02T06:56:52.026Z</time></trkpt><trkpt lat="42.3534271" lon="14.0590035"><ele>93.33333333333333</ele><time>2026-05-02T06:56:53.025Z</time></trkpt><trkpt lat="42.3533996" lon="14.058756"><ele>93.0</ele><time>2026-05-02T06:56:54.026Z</time></trkpt><trkpt lat="42.3533727" lon="14.0585006"><ele>92.66666666666667</ele><time>2026-05-02T06:56:55.026Z</time></trkpt><trkpt lat="42.353347" lon="14.0582389"><ele>92.33333333333334</ele><time>2026-05-02T06:56:56.026Z</time></trkpt><trkpt lat="42.353322" lon="14.0579691"><ele>92.0</ele><time>2026-05-02T06:56:57.025Z</time></trkpt><trkpt lat="42.3532975" lon="14.0576933"><ele>91.33333333333334</ele><time>2026-05-02T06:56:58.026Z</time></trkpt><trkpt lat="42.3532697" lon="14.0574123"><ele>90.66666666666667</ele><time>2026-05-02T06:56:59.026Z</time></trkpt><trkpt lat="42.3532384" lon="14.0571286"><ele>90.0</ele><time>2026-05-02T06:57:00.026Z</time></trkpt><trkpt lat="42.353204" lon="14.056845"><ele>89.66666666666667</ele><time>2026-05-02T06:57:01.026Z</time></trkpt><trkpt lat="42.3531704" lon="14.0565609"><ele>89.33333333333334</ele><time>2026-05-02T06:57:02.026Z</time></trkpt><trkpt lat="42.3531398" lon="14.0562731"><ele>89.0</ele><time>2026-05-02T06:57:03.026Z</time></trkpt><trkpt lat="42.3531145" lon="14.0559885"><ele>89.66666666666667</ele><time>2026-05-02T06:57:04.026Z</time></trkpt><trkpt lat="42.35309" lon="14.0557224"><ele>90.33333333333333</ele><time>2026-05-02T06:57:05.026Z</time></trkpt><trkpt lat="42.3530626" lon="14.0554695"><ele>91.0</ele><time>2026-05-02T06:57:06.025Z</time></trkpt><trkpt lat="42.3530382" lon="14.0552277"><ele>91.0</ele><time>2026-05-02T06:57:07.026Z</time></trkpt><trkpt lat="42.3530242" lon="14.054991"><ele>91.0</ele><time>2026-05-02T06:57:08.026Z</time></trkpt><trkpt lat="42.3530294" lon="14.0547576"><ele>91.0</ele><time>2026-05-02T06:57:09.025Z</time></trkpt><trkpt lat="42.3530511" lon="14.054524"><ele>92.0</ele><time>2026-05-02T06:57:10.026Z</time></trkpt><trkpt lat="42.3530806" lon="14.0542956"><ele>93.0</ele><time>2026-05-02T06:57:11.026Z</time></trkpt><trkpt lat="42.3531176" lon="14.0540761"><ele>94.0</ele><time>2026-05-02T06:57:12.026Z</time></trkpt><trkpt lat="42.3531537" lon="14.0538682"><ele>96.0</ele><time>2026-05-02T06:57:13.026Z</time></trkpt><trkpt lat="42.3531713" lon="14.0536679"><ele>98.0</ele><time>2026-05-02T06:57:14.025Z</time></trkpt><trkpt lat="42.3531571" lon="14.0534747"><ele>100.0</ele><time>2026-05-02T06:57:15.026Z</time></trkpt><trkpt lat="42.3531125" lon="14.0532906"><ele>102.0</ele><time>2026-05-02T06:57:16.026Z</time></trkpt><trkpt lat="42.3530413" lon="14.0531182"><ele>102.0</ele><time>2026-05-02T06:57:17.026Z</time></trkpt><trkpt lat="42.352968" lon="14.052963"><ele>102.0</ele><time>2026-05-02T06:57:18.026Z</time></trkpt><trkpt lat="42.3529146" lon="14.0527967"><ele>102.0</ele><time>2026-05-02T06:57:19.026Z</time></trkpt><trkpt lat="42.352882" lon="14.0526123"><ele>102.0</ele><time>2026-05-02T06:57:20.025Z</time></trkpt><trkpt lat="42.3528782" lon="14.0524198"><ele>103.25</ele><time>2026-05-02T06:57:21.026Z</time></trkpt><trkpt lat="42.3529013" lon="14.0522414"><ele>104.5</ele><time>2026-05-02T06:57:22.025Z</time></trkpt><trkpt lat="42.3529396" lon="14.0520677"><ele>105.75</ele><time>2026-05-02T06:57:23.026Z</time></trkpt><trkpt lat="42.3529841" lon="14.0518847"><ele>107.0</ele><time>2026-05-02T06:57:24.026Z</time></trkpt><trkpt lat="42.3530256" lon="14.0516903"><ele>108.33333333333333</ele><time>2026-05-02T06:57:25.026Z</time></trkpt><trkpt lat="42.3530562" lon="14.0514885"><ele>109.66666666666666</ele><time>2026-05-02T06:57:26.025Z</time></trkpt><trkpt lat="42.353072" lon="14.051274"><ele>111.0</ele><time>2026-05-02T06:57:27.026Z</time></trkpt><trkpt lat="42.3530893" lon="14.0510499"><ele>111.0</ele><time>2026-05-02T06:57:28.026Z</time></trkpt><trkpt lat="42.3531214" lon="14.0508263"><ele>111.0</ele><time>2026-05-02T06:57:29.026Z</time></trkpt><trkpt lat="42.3531604" lon="14.0506019"><ele>111.0</ele><time>2026-05-02T06:57:30.026Z</time></trkpt><trkpt lat="42.3531975" lon="14.0503886"><ele>111.66666666666666</ele><time>2026-05-02T06:57:31.026Z</time></trkpt><trkpt lat="42.3532185" lon="14.0501704"><ele>112.33333333333333</ele><time>2026-05-02T06:57:32.026Z</time></trkpt><trkpt lat="42.3532158" lon="14.0499361"><ele>113.0</ele><time>2026-05-02T06:57:33.026Z</time></trkpt><trkpt lat="42.3532069" lon="14.0497024"><ele>114.66666666666666</ele><time>2026-05-02T06:57:34.026Z</time></trkpt><trkpt lat="42.3531429" lon="14.0494608"><ele>116.33333333333334</ele><time>2026-05-02T06:57:35.026Z</time></trkpt><trkpt lat="42.3531057" lon="14.0492292"><ele>118.0</ele><time>2026-05-02T06:57:36.026Z</time></trkpt><trkpt lat="42.3531091" lon="14.0490097"><ele>118.33333333333334</ele><time>2026-05-02T06:57:37.026Z</time></trkpt><trkpt lat="42.3531082" lon="14.0487926"><ele>118.66666666666666</ele><time>2026-05-02T06:57:38.026Z</time></trkpt><trkpt lat="42.3530852" lon="14.048577"><ele>119.0</ele><time>2026-05-02T06:57:39.026Z</time></trkpt><trkpt lat="42.3530463" lon="14.0483738"><ele>119.0</ele><time>2026-05-02T06:57:40.026Z</time></trkpt><trkpt lat="42.3529982" lon="14.0481844"><ele>119.0</ele><time>2026-05-02T06:57:41.026Z</time></trkpt><trkpt lat="42.3529797" lon="14.0479978"><ele>119.0</ele><time>2026-05-02T06:57:42.026Z</time></trkpt><trkpt lat="42.3529994" lon="14.0478238"><ele>119.0</ele><time>2026-05-02T06:57:43.026Z</time></trkpt><trkpt lat="42.3530547" lon="14.0476647"><ele>119.0</ele><time>2026-05-02T06:57:44.026Z</time></trkpt><trkpt lat="42.3531272" lon="14.0475096"><ele>119.0</ele><time>2026-05-02T06:57:45.025Z</time></trkpt><trkpt lat="42.3532044" lon="14.0473661"><ele>119.0</ele><time>2026-05-02T06:57:46.026Z</time></trkpt><trkpt lat="42.3532724" lon="14.0472242"><ele>119.0</ele><time>2026-05-02T06:57:47.026Z</time></trkpt><trkpt lat="42.3533284" lon="14.0470671"><ele>119.0</ele><time>2026-05-02T06:57:48.026Z</time></trkpt><trkpt lat="42.3533796" lon="14.0469043"><ele>119.0</ele><time>2026-05-02T06:57:49.026Z</time></trkpt><trkpt lat="42.3534324" lon="14.0467421"><ele>119.0</ele><time>2026-05-02T06:57:50.025Z</time></trkpt><trkpt lat="42.3534763" lon="14.0465895"><ele>119.0</ele><time>2026-05-02T06:57:51.026Z</time></trkpt><trkpt lat="42.3535191" lon="14.0464373"><ele>118.25</ele><time>2026-05-02T06:57:52.026Z</time></trkpt><trkpt lat="42.3535507" lon="14.0462864"><ele>117.5</ele><time>2026-05-02T06:57:53.025Z</time></trkpt><trkpt lat="42.3535787" lon="14.0461348"><ele>116.75</ele><time>2026-05-02T06:57:54.026Z</time></trkpt><trkpt lat="42.3536022" lon="14.045975"><ele>116.0</ele><time>2026-05-02T06:57:55.026Z</time></trkpt><trkpt lat="42.3536204" lon="14.0458108"><ele>117.0</ele><time>2026-05-02T06:57:56.025Z</time></trkpt><trkpt lat="42.3536342" lon="14.0456502"><ele>118.0</ele><time>2026-05-02T06:57:57.026Z</time></trkpt><trkpt lat="42.3536409" lon="14.0454874"><ele>119.0</ele><time>2026-05-02T06:57:58.026Z</time></trkpt><trkpt lat="42.3536406" lon="14.0453305"><ele>120.0</ele><time>2026-05-02T06:57:59.026Z</time></trkpt><trkpt lat="42.3536341" lon="14.0451711"><ele>120.0</ele><time>2026-05-02T06:58:00.026Z</time></trkpt><trkpt lat="42.3536266" lon="14.0450083"><ele>120.0</ele><time>2026-05-02T06:58:01.025Z</time></trkpt><trkpt lat="42.3536158" lon="14.0448447"><ele>120.0</ele><time>2026-05-02T06:58:02.026Z</time></trkpt><trkpt lat="42.3536053" lon="14.0446776"><ele>120.0</ele><time>2026-05-02T06:58:03.026Z</time></trkpt><trkpt lat="42.353598" lon="14.0445044"><ele>121.25</ele><time>2026-05-02T06:58:04.026Z</time></trkpt><trkpt lat="42.3536039" lon="14.0443375"><ele>122.5</ele><time>2026-05-02T06:58:05.025Z</time></trkpt><trkpt lat="42.3536291" lon="14.0441615"><ele>123.75</ele><time>2026-05-02T06:58:06.026Z</time></trkpt><trkpt lat="42.3536661" lon="14.0439593"><ele>125.0</ele><time>2026-05-02T06:58:07.026Z</time></trkpt><trkpt lat="42.3537168" lon="14.0437429"><ele>126.33333333333333</ele><time>2026-05-02T06:58:08.025Z</time></trkpt><trkpt lat="42.3537806" lon="14.0435109"><ele>127.66666666666666</ele><time>2026-05-02T06:58:09.026Z</time></trkpt><trkpt lat="42.3538532" lon="14.0432642"><ele>129.0</ele><time>2026-05-02T06:58:10.026Z</time></trkpt><trkpt lat="42.3539152" lon="14.0430246"><ele>130.0</ele><time>2026-05-02T06:58:11.026Z</time></trkpt><trkpt lat="42.353962" lon="14.0428006"><ele>131.0</ele><time>2026-05-02T06:58:12.026Z</time></trkpt><trkpt lat="42.353999" lon="14.0425908"><ele>132.0</ele><time>2026-05-02T06:58:13.026Z</time></trkpt><trkpt lat="42.3540317" lon="14.0423965"><ele>132.0</ele><time>2026-05-02T06:58:14.025Z</time></trkpt><trkpt lat="42.3540641" lon="14.0422087"><ele>132.0</ele><time>2026-05-02T06:58:15.026Z</time></trkpt><trkpt lat="42.3540925" lon="14.0420297"><ele>132.0</ele><time>2026-05-02T06:58:16.026Z</time></trkpt><trkpt lat="42.3541186" lon="14.041857"><ele>132.0</ele><time>2026-05-02T06:58:17.026Z</time></trkpt><trkpt lat="42.3541467" lon="14.0416824"><ele>132.75</ele><time>2026-05-02T06:58:18.026Z</time></trkpt><trkpt lat="42.3541745" lon="14.0415081"><ele>133.5</ele><time>2026-05-02T06:58:19.025Z</time></trkpt><trkpt lat="42.354203" lon="14.0413366"><ele>134.25</ele><time>2026-05-02T06:58:20.026Z</time></trkpt><trkpt lat="42.3542317" lon="14.0411642"><ele>135.0</ele><time>2026-05-02T06:58:21.026Z</time></trkpt><trkpt lat="42.3542598" lon="14.040993"><ele>135.0</ele><time>2026-05-02T06:58:22.025Z</time></trkpt><trkpt lat="42.3542899" lon="14.0408225"><ele>135.0</ele><time>2026-05-02T06:58:23.026Z</time></trkpt><trkpt lat="42.3543202" lon="14.0406546"><ele>135.0</ele><time>2026-05-02T06:58:24.026Z</time></trkpt><trkpt lat="42.3543469" lon="14.0404844"><ele>135.0</ele><time>2026-05-02T06:58:25.026Z</time></trkpt><trkpt lat="42.3543756" lon="14.0403117"><ele>136.25</ele><time>2026-05-02T06:58:26.026Z</time></trkpt><trkpt lat="42.3544058" lon="14.0401436"><ele>137.5</ele><time>2026-05-02T06:58:27.026Z</time></trkpt><trkpt lat="42.3544385" lon="14.0399736"><ele>138.75</ele><time>2026-05-02T06:58:28.026Z</time></trkpt><trkpt lat="42.3544675" lon="14.0398024"><ele>140.0</ele><time>2026-05-02T06:58:29.025Z</time></trkpt><trkpt lat="42.3544969" lon="14.0396275"><ele>140.25</ele><time>2026-05-02T06:58:30.026Z</time></trkpt><trkpt lat="42.3545233" lon="14.0394441"><ele>140.5</ele><time>2026-05-02T06:58:31.026Z</time></trkpt><trkpt lat="42.3545508" lon="14.0392525"><ele>140.75</ele><time>2026-05-02T06:58:32.026Z</time></trkpt><trkpt lat="42.3545824" lon="14.0390515"><ele>141.0</ele><time>2026-05-02T06:58:33.026Z</time></trkpt><trkpt lat="42.354616" lon="14.0388468"><ele>140.0</ele><time>2026-05-02T06:58:34.025Z</time></trkpt><trkpt lat="42.3546525" lon="14.0386319"><ele>139.0</ele><time>2026-05-02T06:58:35.026Z</time></trkpt><trkpt lat="42.354684" lon="14.0384137"><ele>138.0</ele><time>2026-05-02T06:58:36.026Z</time></trkpt><trkpt lat="42.3547186" lon="14.0381897"><ele>136.0</ele><time>2026-05-02T06:58:37.026Z</time></trkpt><trkpt lat="42.3547538" lon="14.037956"><ele>134.0</ele><time>2026-05-02T06:58:38.026Z</time></trkpt><trkpt lat="42.3547885" lon="14.0377222"><ele>132.0</ele><time>2026-05-02T06:58:39.026Z</time></trkpt><trkpt lat="42.3548234" lon="14.0374934"><ele>132.33333333333334</ele><time>2026-05-02T06:58:40.026Z</time></trkpt><trkpt lat="42.3548545" lon="14.037261"><ele>132.66666666666669</ele><time>2026-05-02T06:58:41.026Z</time></trkpt><trkpt lat="42.3548766" lon="14.0370286"><ele>133.0</ele><time>2026-05-02T06:58:42.026Z</time></trkpt><trkpt lat="42.3548878" lon="14.0367963"><ele>133.33333333333334</ele><time>2026-05-02T06:58:43.025Z</time></trkpt><trkpt lat="42.3548897" lon="14.0365606"><ele>133.66666666666666</ele><time>2026-05-02T06:58:44.026Z</time></trkpt><trkpt lat="42.3548884" lon="14.036324"><ele>134.0</ele><time>2026-05-02T06:58:45.026Z</time></trkpt><trkpt lat="42.3548869" lon="14.0360829"><ele>134.0</ele><time>2026-05-02T06:58:46.025Z</time></trkpt><trkpt lat="42.3548861" lon="14.0358421"><ele>134.0</ele><time>2026-05-02T06:58:47.026Z</time></trkpt><trkpt lat="42.3548836" lon="14.0356023"><ele>134.0</ele><time>2026-05-02T06:58:48.026Z</time></trkpt><trkpt lat="42.3548825" lon="14.0353598"><ele>135.0</ele><time>2026-05-02T06:58:49.026Z</time></trkpt><trkpt lat="42.3548778" lon="14.035118"><ele>136.0</ele><time>2026-05-02T06:58:50.026Z</time></trkpt><trkpt lat="42.3548713" lon="14.0348801"><ele>137.0</ele><time>2026-05-02T06:58:51.026Z</time></trkpt><trkpt lat="42.3548688" lon="14.0346391"><ele>137.33333333333331</ele><time>2026-05-02T06:58:52.026Z</time></trkpt><trkpt lat="42.3548655" lon="14.0343984"><ele>137.66666666666666</ele><time>2026-05-02T06:58:53.026Z</time></trkpt><trkpt lat="42.3548654" lon="14.0341539"><ele>138.0</ele><time>2026-05-02T06:58:54.026Z</time></trkpt><trkpt lat="42.3548646" lon="14.0339125"><ele>138.0</ele><time>2026-05-02T06:58:55.026Z</time></trkpt><trkpt lat="42.3548617" lon="14.0336696"><ele>138.0</ele><time>2026-05-02T06:58:56.025Z</time></trkpt><trkpt lat="42.3548589" lon="14.033427"><ele>138.0</ele><time>2026-05-02T06:58:57.025Z</time></trkpt><trkpt lat="42.3548562" lon="14.0331842"><ele>138.33333333333334</ele><time>2026-05-02T06:58:58.026Z</time></trkpt><trkpt lat="42.3548568" lon="14.0329417"><ele>138.66666666666669</ele><time>2026-05-02T06:58:59.026Z</time></trkpt><trkpt lat="42.3548539" lon="14.0326959"><ele>139.0</ele><time>2026-05-02T06:59:00.026Z</time></trkpt><trkpt lat="42.3548515" lon="14.0324565"><ele>139.0</ele><time>2026-05-02T06:59:01.026Z</time></trkpt><trkpt lat="42.3548462" lon="14.0322167"><ele>139.0</ele><time>2026-05-02T06:59:02.026Z</time></trkpt><trkpt lat="42.3548454" lon="14.0319726"><ele>139.0</ele><time>2026-05-02T06:59:03.025Z</time></trkpt><trkpt lat="42.354842" lon="14.0317311"><ele>139.0</ele><time>2026-05-02T06:59:04.026Z</time></trkpt><trkpt lat="42.3548391" lon="14.0314842"><ele>139.0</ele><time>2026-05-02T06:59:05.026Z</time></trkpt><trkpt lat="42.3548329" lon="14.0312399"><ele>139.0</ele><time>2026-05-02T06:59:06.026Z</time></trkpt><trkpt lat="42.3548285" lon="14.0309993"><ele>139.66666666666669</ele><time>2026-05-02T06:59:07.026Z</time></trkpt><trkpt lat="42.3548274" lon="14.0307583"><ele>140.33333333333334</ele><time>2026-05-02T06:59:08.026Z</time></trkpt><trkpt lat="42.3548309" lon="14.0305144"><ele>141.0</ele><time>2026-05-02T06:59:09.026Z</time></trkpt><trkpt lat="42.354834" lon="14.0302725"><ele>141.0</ele><time>2026-05-02T06:59:10.026Z</time></trkpt><trkpt lat="42.3548322" lon="14.0300299"><ele>141.0</ele><time>2026-05-02T06:59:11.026Z</time></trkpt><trkpt lat="42.3548276" lon="14.0297846"><ele>141.0</ele><time>2026-05-02T06:59:12.026Z</time></trkpt><trkpt lat="42.3548248" lon="14.0295403"><ele>142.0</ele><time>2026-05-02T06:59:13.026Z</time></trkpt><trkpt lat="42.354824" lon="14.0292957"><ele>143.0</ele><time>2026-05-02T06:59:14.025Z</time></trkpt><trkpt lat="42.3548209" lon="14.0290521"><ele>144.0</ele><time>2026-05-02T06:59:15.026Z</time></trkpt><trkpt lat="42.3548186" lon="14.028806"><ele>144.0</ele><time>2026-05-02T06:59:16.025Z</time></trkpt><trkpt lat="42.3548149" lon="14.0285626"><ele>144.0</ele><time>2026-05-02T06:59:17.026Z</time></trkpt><trkpt lat="42.3548126" lon="14.0283181"><ele>144.0</ele><time>2026-05-02T06:59:18.026Z</time></trkpt><trkpt lat="42.3548117" lon="14.0280753"><ele>144.33333333333334</ele><time>2026-05-02T06:59:19.026Z</time></trkpt><trkpt lat="42.3548109" lon="14.0278307"><ele>144.66666666666669</ele><time>2026-05-02T06:59:20.026Z</time></trkpt><trkpt lat="42.3548045" lon="14.0275938"><ele>145.0</ele><time>2026-05-02T06:59:21.026Z</time></trkpt><trkpt lat="42.3547999" lon="14.0273683"><ele>145.5</ele><time>2026-05-02T06:59:22.026Z</time></trkpt><trkpt lat="42.3547951" lon="14.0271506"><ele>146.0</ele><time>2026-05-02T06:59:23.025Z</time></trkpt><trkpt lat="42.3547938" lon="14.0269543"><ele>146.5</ele><time>2026-05-02T06:59:24.025Z</time></trkpt><trkpt lat="42.354796" lon="14.0267737"><ele>147.0</ele><time>2026-05-02T06:59:25.026Z</time></trkpt><trkpt lat="42.3547961" lon="14.0266049"><ele>147.0</ele><time>2026-05-02T06:59:26.026Z</time></trkpt><trkpt lat="42.3547941" lon="14.026454"><ele>147.0</ele><time>2026-05-02T06:59:27.026Z</time></trkpt><trkpt lat="42.3547946" lon="14.0263168"><ele>147.0</ele><time>2026-05-02T06:59:28.026Z</time></trkpt><trkpt lat="42.3547955" lon="14.0261908"><ele>147.0</ele><time>2026-05-02T06:59:29.026Z</time></trkpt><trkpt lat="42.3547957" lon="14.0260875"><ele>147.0</ele><time>2026-05-02T06:59:30.026Z</time></trkpt><trkpt lat="42.354795" lon="14.0259933"><ele>147.0</ele><time>2026-05-02T06:59:31.026Z</time></trkpt><trkpt lat="42.3547936" lon="14.0258958"><ele>147.0</ele><time>2026-05-02T06:59:32.026Z</time></trkpt><trkpt lat="42.3547908" lon="14.0257924"><ele>147.0</ele><time>2026-05-02T06:59:33.026Z</time></trkpt><trkpt lat="42.3547833" lon="14.0256746"><ele>147.0</ele><time>2026-05-02T06:59:34.026Z</time></trkpt><trkpt lat="42.354779" lon="14.0255431"><ele>147.0</ele><time>2026-05-02T06:59:35.026Z</time></trkpt><trkpt lat="42.3547826" lon="14.0254027"><ele>147.0</ele><time>2026-05-02T06:59:36.025Z</time></trkpt><trkpt lat="42.3547879" lon="14.0252495"><ele>147.4</ele><time>2026-05-02T06:59:37.026Z</time></trkpt><trkpt lat="42.3547957" lon="14.0250935"><ele>147.79999999999998</ele><time>2026-05-02T06:59:38.026Z</time></trkpt><trkpt lat="42.3548008" lon="14.0249462"><ele>148.2</ele><time>2026-05-02T06:59:39.026Z</time></trkpt><trkpt lat="42.3548071" lon="14.024797"><ele>148.6</ele><time>2026-05-02T06:59:40.026Z</time></trkpt><trkpt lat="42.3548173" lon="14.0246479"><ele>149.0</ele><time>2026-05-02T06:59:41.026Z</time></trkpt><trkpt lat="42.3548288" lon="14.0244973"><ele>149.2</ele><time>2026-05-02T06:59:42.026Z</time></trkpt><trkpt lat="42.3548391" lon="14.0243484"><ele>149.4</ele><time>2026-05-02T06:59:43.025Z</time></trkpt><trkpt lat="42.3548475" lon="14.0242114"><ele>149.6</ele><time>2026-05-02T06:59:44.026Z</time></trkpt><trkpt lat="42.3548543" lon="14.0240889"><ele>149.8</ele><time>2026-05-02T06:59:45.026Z</time></trkpt><trkpt lat="42.3548643" lon="14.0239752"><ele>150.0</ele><time>2026-05-02T06:59:46.026Z</time></trkpt><trkpt lat="42.3548745" lon="14.0238777"><ele>150.4</ele><time>2026-05-02T06:59:47.025Z</time></trkpt><trkpt lat="42.3548767" lon="14.0237313"><ele>150.8</ele><time>2026-05-02T06:59:49.026Z</time></trkpt><trkpt lat="42.3548341" lon="14.023664"><ele>151.2</ele><time>2026-05-02T06:59:51.026Z</time></trkpt><trkpt lat="42.354757" lon="14.0236666"><ele>151.6</ele><time>2026-05-02T06:59:53.026Z</time></trkpt><trkpt lat="42.3546783" lon="14.0237396"><ele>152.0</ele><time>2026-05-02T06:59:55.026Z</time></trkpt><trkpt lat="42.3546002" lon="14.0238384"><ele>152.33333333333331</ele><time>2026-05-02T06:59:57.025Z</time></trkpt><trkpt lat="42.3545509" lon="14.023892"><ele>152.66666666666666</ele><time>2026-05-02T06:59:58.025Z</time></trkpt><trkpt lat="42.3544981" lon="14.0239553"><ele>153.0</ele><time>2026-05-02T06:59:59.026Z</time></trkpt><trkpt lat="42.3544434" lon="14.0240218"><ele>153.33333333333334</ele><time>2026-05-02T07:00:00.026Z</time></trkpt><trkpt lat="42.3543861" lon="14.024094"><ele>153.66666666666669</ele><time>2026-05-02T07:00:01.026Z</time></trkpt><trkpt lat="42.3543227" lon="14.0241667"><ele>154.0</ele><time>2026-05-02T07:00:02.025Z</time></trkpt><trkpt lat="42.3542608" lon="14.0242391"><ele>154.0</ele><time>2026-05-02T07:00:03.025Z</time></trkpt><trkpt lat="42.3541996" lon="14.0243174"><ele>154.0</ele><time>2026-05-02T07:00:04.026Z</time></trkpt><trkpt lat="42.3541409" lon="14.0243873"><ele>154.0</ele><time>2026-05-02T07:00:05.026Z</time></trkpt><trkpt lat="42.3540888" lon="14.0244575"><ele>154.0</ele><time>2026-05-02T07:00:06.025Z</time></trkpt><trkpt lat="42.3540415" lon="14.0245218"><ele>154.0</ele><time>2026-05-02T07:00:07.026Z</time></trkpt><trkpt lat="42.3539556" lon="14.0246063"><ele>154.0</ele><time>2026-05-02T07:00:09.026Z</time></trkpt><trkpt lat="42.3538947" lon="14.0246522"><ele>154.0</ele><time>2026-05-02T07:00:16.026Z</time></trkpt><trkpt lat="42.3539851" lon="14.0245857"><ele>154.0</ele><time>2026-05-02T07:00:37.026Z</time></trkpt><trkpt lat="42.3540501" lon="14.0245202"><ele>154.0</ele><time>2026-05-02T07:00:39.026Z</time></trkpt><trkpt lat="42.3540977" lon="14.0244501"><ele>154.0</ele><time>2026-05-02T07:00:41.026Z</time></trkpt><trkpt lat="42.3540906" lon="14.0243575"><ele>154.0</ele><time>2026-05-02T07:00:44.026Z</time></trkpt><trkpt lat="42.3540352" lon="14.0243094"><ele>154.0</ele><time>2026-05-02T07:00:46.026Z</time></trkpt><trkpt lat="42.3539453" lon="14.0242575"><ele>154.8</ele><time>2026-05-02T07:00:48.026Z</time></trkpt><trkpt lat="42.3538474" lon="14.0241928"><ele>155.60000000000002</ele><time>2026-05-02T07:00:50.026Z</time></trkpt><trkpt lat="42.3537409" lon="14.0241308"><ele>156.4</ele><time>2026-05-02T07:00:52.026Z</time></trkpt><trkpt lat="42.3536273" lon="14.0240872"><ele>157.20000000000002</ele><time>2026-05-02T07:00:54.026Z</time></trkpt><trkpt lat="42.3535636" lon="14.0240833"><ele>158.0</ele><time>2026-05-02T07:00:55.026Z</time></trkpt><trkpt lat="42.3534891" lon="14.0240762"><ele>158.0</ele><time>2026-05-02T07:00:56.026Z</time></trkpt><trkpt lat="42.3534017" lon="14.0240702"><ele>158.0</ele><time>2026-05-02T07:00:57.026Z</time></trkpt><trkpt lat="42.3533116" lon="14.0240586"><ele>158.0</ele><time>2026-05-02T07:00:58.026Z</time></trkpt><trkpt lat="42.35321" lon="14.0240414"><ele>158.0</ele><time>2026-05-02T07:00:59.026Z</time></trkpt><trkpt lat="42.3530978" lon="14.0240179"><ele>158.0</ele><time>2026-05-02T07:01:00.026Z</time></trkpt><trkpt lat="42.3529835" lon="14.023993"><ele>160.0</ele><time>2026-05-02T07:01:01.026Z</time></trkpt><trkpt lat="42.3528659" lon="14.023971"><ele>162.0</ele><time>2026-05-02T07:01:02.026Z</time></trkpt><trkpt lat="42.3527465" lon="14.0239532"><ele>164.0</ele><time>2026-05-02T07:01:03.025Z</time></trkpt><trkpt lat="42.3526313" lon="14.0239379"><ele>166.0</ele><time>2026-05-02T07:01:04.025Z</time></trkpt><trkpt lat="42.3525167" lon="14.0239233"><ele>166.0</ele><time>2026-05-02T07:01:05.026Z</time></trkpt><trkpt lat="42.3524171" lon="14.0239061"><ele>166.0</ele><time>2026-05-02T07:01:06.026Z</time></trkpt><trkpt lat="42.3523206" lon="14.0238909"><ele>166.0</ele><time>2026-05-02T07:01:07.026Z</time></trkpt><trkpt lat="42.3522289" lon="14.0238889"><ele>166.0</ele><time>2026-05-02T07:01:08.026Z</time></trkpt><trkpt lat="42.3521321" lon="14.0238858"><ele>166.0</ele><time>2026-05-02T07:01:09.025Z</time></trkpt><trkpt lat="42.352028" lon="14.0239156"><ele>167.4</ele><time>2026-05-02T07:01:10.026Z</time></trkpt><trkpt lat="42.3519262" lon="14.0239377"><ele>168.8</ele><time>2026-05-02T07:01:11.025Z</time></trkpt><trkpt lat="42.3518288" lon="14.0239625"><ele>170.20000000000002</ele><time>2026-05-02T07:01:12.026Z</time></trkpt><trkpt lat="42.3517268" lon="14.0240134"><ele>171.60000000000002</ele><time>2026-05-02T07:01:13.025Z</time></trkpt><trkpt lat="42.3516456" lon="14.0240408"><ele>173.0</ele><time>2026-05-02T07:01:14.026Z</time></trkpt><trkpt lat="42.3515681" lon="14.0240628"><ele>173.0</ele><time>2026-05-02T07:01:15.025Z</time></trkpt><trkpt lat="42.3514974" lon="14.024051"><ele>173.0</ele><time>2026-05-02T07:01:16.026Z</time></trkpt><trkpt lat="42.3514259" lon="14.024044"><ele>173.0</ele><time>2026-05-02T07:01:17.026Z</time></trkpt><trkpt lat="42.351361" lon="14.0240171"><ele>173.0</ele><time>2026-05-02T07:01:18.026Z</time></trkpt><trkpt lat="42.3513056" lon="14.0239721"><ele>173.0</ele><time>2026-05-02T07:01:19.026Z</time></trkpt><trkpt lat="42.3512597" lon="14.023912"><ele>173.0</ele><time>2026-05-02T07:01:20.025Z</time></trkpt><trkpt lat="42.3512308" lon="14.0238275"><ele>173.0</ele><time>2026-05-02T07:01:21.026Z</time></trkpt><trkpt lat="42.3511817" lon="14.0236886"><ele>174.33333333333331</ele><time>2026-05-02T07:01:23.026Z</time></trkpt><trkpt lat="42.3511359" lon="14.0235591"><ele>175.66666666666666</ele><time>2026-05-02T07:01:25.026Z</time></trkpt><trkpt lat="42.3510898" lon="14.0234266"><ele>177.0</ele><time>2026-05-02T07:01:27.026Z</time></trkpt><trkpt lat="42.3510544" lon="14.02335"><ele>178.33333333333334</ele><time>2026-05-02T07:01:28.026Z</time></trkpt><trkpt lat="42.3510102" lon="14.0232726"><ele>179.66666666666669</ele><time>2026-05-02T07:01:29.026Z</time></trkpt><trkpt lat="42.3509565" lon="14.0231938"><ele>181.0</ele><time>2026-05-02T07:01:30.026Z</time></trkpt><trkpt lat="42.3508854" lon="14.0231003"><ele>182.25</ele><time>2026-05-02T07:01:31.026Z</time></trkpt><trkpt lat="42.3508076" lon="14.0229938"><ele>183.5</ele><time>2026-05-02T07:01:32.026Z</time></trkpt><trkpt lat="42.3507269" lon="14.0228754"><ele>184.75</ele><time>2026-05-02T07:01:33.026Z</time></trkpt><trkpt lat="42.3506458" lon="14.0227473"><ele>186.0</ele><time>2026-05-02T07:01:34.026Z</time></trkpt><trkpt lat="42.3505766" lon="14.022652"><ele>186.5</ele><time>2026-05-02T07:01:35.026Z</time></trkpt><trkpt lat="42.350511" lon="14.022554"><ele>187.0</ele><time>2026-05-02T07:01:36.025Z</time></trkpt><trkpt lat="42.350447" lon="14.0224495"><ele>187.5</ele><time>2026-05-02T07:01:37.026Z</time></trkpt><trkpt lat="42.3503869" lon="14.0223687"><ele>188.0</ele><time>2026-05-02T07:01:38.026Z</time></trkpt><trkpt lat="42.3503222" lon="14.0223067"><ele>188.5</ele><time>2026-05-02T07:01:39.026Z</time></trkpt><trkpt lat="42.3502589" lon="14.0222653"><ele>189.0</ele><time>2026-05-02T07:01:40.026Z</time></trkpt><trkpt lat="42.3501383" lon="14.0222758"><ele>189.0</ele><time>2026-05-02T07:01:42.026Z</time></trkpt><trkpt lat="42.3500817" lon="14.0223159"><ele>189.0</ele><time>2026-05-02T07:01:43.026Z</time></trkpt><trkpt lat="42.3500174" lon="14.0223781"><ele>189.0</ele><time>2026-05-02T07:01:44.026Z</time></trkpt><trkpt lat="42.3499421" lon="14.0224522"><ele>189.0</ele><time>2026-05-02T07:01:45.026Z</time></trkpt><trkpt lat="42.3498593" lon="14.0225315"><ele>189.0</ele><time>2026-05-02T07:01:46.026Z</time></trkpt><trkpt lat="42.3497691" lon="14.0226152"><ele>189.0</ele><time>2026-05-02T07:01:47.025Z</time></trkpt><trkpt lat="42.3496734" lon="14.0227022"><ele>189.25</ele><time>2026-05-02T07:01:48.025Z</time></trkpt><trkpt lat="42.3495757" lon="14.0227879"><ele>189.5</ele><time>2026-05-02T07:01:49.026Z</time></trkpt><trkpt lat="42.3494749" lon="14.022878"><ele>189.75</ele><time>2026-05-02T07:01:50.026Z</time></trkpt><trkpt lat="42.3493759" lon="14.0229696"><ele>190.0</ele><time>2026-05-02T07:01:51.026Z</time></trkpt><trkpt lat="42.3492805" lon="14.0230603"><ele>190.0</ele><time>2026-05-02T07:01:52.026Z</time></trkpt><trkpt lat="42.3491931" lon="14.0231521"><ele>190.0</ele><time>2026-05-02T07:01:53.026Z</time></trkpt><trkpt lat="42.3491136" lon="14.023232"><ele>190.0</ele><time>2026-05-02T07:01:54.026Z</time></trkpt><trkpt lat="42.3490444" lon="14.0232961"><ele>190.0</ele><time>2026-05-02T07:01:55.025Z</time></trkpt><trkpt lat="42.3489833" lon="14.0233325"><ele>190.0</ele><time>2026-05-02T07:01:56.026Z</time></trkpt><trkpt lat="42.3488734" lon="14.0233162"><ele>191.0</ele><time>2026-05-02T07:01:58.026Z</time></trkpt><trkpt lat="42.3487845" lon="14.0231947"><ele>192.0</ele><time>2026-05-02T07:02:00.026Z</time></trkpt><trkpt lat="42.3487481" lon="14.0231198"><ele>193.0</ele><time>2026-05-02T07:02:01.026Z</time></trkpt><trkpt lat="42.3486874" lon="14.0230017"><ele>194.0</ele><time>2026-05-02T07:02:03.026Z</time></trkpt><trkpt lat="42.3486196" lon="14.0228536"><ele>195.0</ele><time>2026-05-02T07:02:05.026Z</time></trkpt><trkpt lat="42.3485808" lon="14.0227608"><ele>195.0</ele><time>2026-05-02T07:02:06.025Z</time></trkpt><trkpt lat="42.3485324" lon="14.0226614"><ele>195.0</ele><time>2026-05-02T07:02:07.026Z</time></trkpt><trkpt lat="42.3484787" lon="14.0225662"><ele>195.0</ele><time>2026-05-02T07:02:08.026Z</time></trkpt><trkpt lat="42.3484285" lon="14.0224716"><ele>195.0</ele><time>2026-05-02T07:02:09.026Z</time></trkpt><trkpt lat="42.3483753" lon="14.0223849"><ele>195.0</ele><time>2026-05-02T07:02:10.026Z</time></trkpt><trkpt lat="42.3483166" lon="14.0222958"><ele>195.0</ele><time>2026-05-02T07:02:11.026Z</time></trkpt><trkpt lat="42.3482558" lon="14.0222097"><ele>195.0</ele><time>2026-05-02T07:02:12.026Z</time></trkpt><trkpt lat="42.3481916" lon="14.0221271"><ele>195.0</ele><time>2026-05-02T07:02:13.026Z</time></trkpt><trkpt lat="42.3481273" lon="14.0220418"><ele>195.0</ele><time>2026-05-02T07:02:14.026Z</time></trkpt><trkpt lat="42.3480627" lon="14.0219493"><ele>195.0</ele><time>2026-05-02T07:02:15.026Z</time></trkpt><trkpt lat="42.3479986" lon="14.0218498"><ele>195.0</ele><time>2026-05-02T07:02:16.026Z</time></trkpt><trkpt lat="42.3479312" lon="14.0217499"><ele>195.25</ele><time>2026-05-02T07:02:17.026Z</time></trkpt><trkpt lat="42.3478576" lon="14.0216444"><ele>195.5</ele><time>2026-05-02T07:02:18.026Z</time></trkpt><trkpt lat="42.3477757" lon="14.0215323"><ele>195.75</ele><time>2026-05-02T07:02:19.025Z</time></trkpt><trkpt lat="42.3476874" lon="14.0214162"><ele>196.0</ele><time>2026-05-02T07:02:20.026Z</time></trkpt><trkpt lat="42.347597" lon="14.0212937"><ele>196.0</ele><time>2026-05-02T07:02:21.026Z</time></trkpt><trkpt lat="42.3475041" lon="14.0211623"><ele>196.0</ele><time>2026-05-02T07:02:22.026Z</time></trkpt><trkpt lat="42.3474101" lon="14.0210282"><ele>196.0</ele><time>2026-05-02T07:02:23.026Z</time></trkpt><trkpt lat="42.347317" lon="14.02088"><ele>196.0</ele><time>2026-05-02T07:02:24.026Z</time></trkpt><trkpt lat="42.3472287" lon="14.0207283"><ele>196.5</ele><time>2026-05-02T07:02:25.026Z</time></trkpt><trkpt lat="42.3471404" lon="14.0205701"><ele>197.0</ele><time>2026-05-02T07:02:26.025Z</time></trkpt><trkpt lat="42.3470505" lon="14.0204045"><ele>197.5</ele><time>2026-05-02T07:02:27.025Z</time></trkpt><trkpt lat="42.3469613" lon="14.020249"><ele>198.0</ele><time>2026-05-02T07:02:28.026Z</time></trkpt><trkpt lat="42.346875" lon="14.0200922"><ele>197.75</ele><time>2026-05-02T07:02:29.026Z</time></trkpt><trkpt lat="42.3467928" lon="14.0199433"><ele>197.5</ele><time>2026-05-02T07:02:30.025Z</time></trkpt><trkpt lat="42.3467236" lon="14.0197902"><ele>197.25</ele><time>2026-05-02T07:02:31.025Z</time></trkpt><trkpt lat="42.3466536" lon="14.0196411"><ele>197.0</ele><time>2026-05-02T07:02:32.026Z</time></trkpt><trkpt lat="42.3465879" lon="14.0194882"><ele>197.0</ele><time>2026-05-02T07:02:33.025Z</time></trkpt><trkpt lat="42.3465231" lon="14.0193408"><ele>197.0</ele><time>2026-05-02T07:02:34.026Z</time></trkpt><trkpt lat="42.3464624" lon="14.0192001"><ele>197.0</ele><time>2026-05-02T07:02:35.026Z</time></trkpt><trkpt lat="42.3464089" lon="14.0190704"><ele>197.0</ele><time>2026-05-02T07:02:36.026Z</time></trkpt><trkpt lat="42.3463559" lon="14.0189475"><ele>198.0</ele><time>2026-05-02T07:02:37.026Z</time></trkpt><trkpt lat="42.3463035" lon="14.0188217"><ele>199.0</ele><time>2026-05-02T07:02:38.026Z</time></trkpt><trkpt lat="42.346241" lon="14.0186918"><ele>200.0</ele><time>2026-05-02T07:02:39.026Z</time></trkpt><trkpt lat="42.3461748" lon="14.0185514"><ele>201.0</ele><time>2026-05-02T07:02:40.026Z</time></trkpt><trkpt lat="42.3461003" lon="14.0184058"><ele>201.5</ele><time>2026-05-02T07:02:41.026Z</time></trkpt><trkpt lat="42.3460282" lon="14.0182595"><ele>202.0</ele><time>2026-05-02T07:02:42.026Z</time></trkpt><trkpt lat="42.345941" lon="14.0181002"><ele>202.5</ele><time>2026-05-02T07:02:43.025Z</time></trkpt><trkpt lat="42.3458648" lon="14.0179222"><ele>203.0</ele><time>2026-05-02T07:02:44.026Z</time></trkpt><trkpt lat="42.3457761" lon="14.0177609"><ele>203.0</ele><time>2026-05-02T07:02:45.025Z</time></trkpt><trkpt lat="42.3456907" lon="14.017601"><ele>203.0</ele><time>2026-05-02T07:02:46.026Z</time></trkpt><trkpt lat="42.3456097" lon="14.0174537"><ele>203.0</ele><time>2026-05-02T07:02:47.026Z</time></trkpt><trkpt lat="42.3455284" lon="14.017313"><ele>203.0</ele><time>2026-05-02T07:02:48.026Z</time></trkpt><trkpt lat="42.3454542" lon="14.0171756"><ele>203.5</ele><time>2026-05-02T07:02:49.026Z</time></trkpt><trkpt lat="42.3453745" lon="14.0170377"><ele>204.0</ele><time>2026-05-02T07:02:50.026Z</time></trkpt><trkpt lat="42.3453029" lon="14.016899"><ele>204.5</ele><time>2026-05-02T07:02:51.026Z</time></trkpt><trkpt lat="42.3452412" lon="14.0167643"><ele>205.0</ele><time>2026-05-02T07:02:52.025Z</time></trkpt><trkpt lat="42.3451884" lon="14.0166389"><ele>205.33333333333331</ele><time>2026-05-02T07:02:53.026Z</time></trkpt><trkpt lat="42.3451418" lon="14.0165256"><ele>205.66666666666666</ele><time>2026-05-02T07:02:54.026Z</time></trkpt><trkpt lat="42.345105" lon="14.0164231"><ele>206.0</ele><time>2026-05-02T07:02:55.026Z</time></trkpt><trkpt lat="42.3450805" lon="14.0163316"><ele>206.33333333333331</ele><time>2026-05-02T07:02:56.025Z</time></trkpt><trkpt lat="42.3450499" lon="14.0162266"><ele>206.66666666666666</ele><time>2026-05-02T07:02:58.026Z</time></trkpt><trkpt lat="42.344981" lon="14.0161689"><ele>207.0</ele><time>2026-05-02T07:03:00.026Z</time></trkpt><trkpt lat="42.3448591" lon="14.0161684"><ele>207.0</ele><time>2026-05-02T07:03:02.025Z</time></trkpt><trkpt lat="42.3447884" lon="14.0161828"><ele>207.0</ele><time>2026-05-02T07:03:03.026Z</time></trkpt><trkpt lat="42.3447081" lon="14.0162009"><ele>207.0</ele><time>2026-05-02T07:03:04.026Z</time></trkpt><trkpt lat="42.3446186" lon="14.0162201"><ele>207.0</ele><time>2026-05-02T07:03:05.026Z</time></trkpt><trkpt lat="42.3445215" lon="14.0162454"><ele>207.0</ele><time>2026-05-02T07:03:06.026Z</time></trkpt><trkpt lat="42.3444196" lon="14.016272"><ele>207.0</ele><time>2026-05-02T07:03:07.026Z</time></trkpt><trkpt lat="42.3443122" lon="14.016294"><ele>207.0</ele><time>2026-05-02T07:03:08.026Z</time></trkpt><trkpt lat="42.3442055" lon="14.0163159"><ele>207.0</ele><time>2026-05-02T07:03:09.025Z</time></trkpt><trkpt lat="42.3441056" lon="14.0163406"><ele>207.0</ele><time>2026-05-02T07:03:10.025Z</time></trkpt><trkpt lat="42.3440151" lon="14.0163611"><ele>207.0</ele><time>2026-05-02T07:03:11.026Z</time></trkpt><trkpt lat="42.3439303" lon="14.0163768"><ele>207.0</ele><time>2026-05-02T07:03:12.026Z</time></trkpt><trkpt lat="42.3438467" lon="14.0163746"><ele>206.39999999999998</ele><time>2026-05-02T07:03:13.026Z</time></trkpt><trkpt lat="42.3437609" lon="14.0163598"><ele>205.79999999999998</ele><time>2026-05-02T07:03:14.025Z</time></trkpt><trkpt lat="42.3436689" lon="14.0163426"><ele>205.2</ele><time>2026-05-02T07:03:15.026Z</time></trkpt><trkpt lat="42.3435753" lon="14.0163263"><ele>204.6</ele><time>2026-05-02T07:03:16.025Z</time></trkpt><trkpt lat="42.3434815" lon="14.0163061"><ele>204.0</ele><time>2026-05-02T07:03:17.026Z</time></trkpt><trkpt lat="42.343382" lon="14.0162738"><ele>204.0</ele><time>2026-05-02T07:03:18.026Z</time></trkpt><trkpt lat="42.3432832" lon="14.0162349"><ele>204.0</ele><time>2026-05-02T07:03:19.026Z</time></trkpt><trkpt lat="42.3431905" lon="14.0162015"><ele>204.0</ele><time>2026-05-02T07:03:20.026Z</time></trkpt><trkpt lat="42.343104" lon="14.0161768"><ele>204.0</ele><time>2026-05-02T07:03:21.025Z</time></trkpt><trkpt lat="42.3430303" lon="14.0161517"><ele>204.0</ele><time>2026-05-02T07:03:22.026Z</time></trkpt><trkpt lat="42.3429613" lon="14.0161287"><ele>204.0</ele><time>2026-05-02T07:03:23.026Z</time></trkpt><trkpt lat="42.342851" lon="14.0161002"><ele>202.16666666666666</ele><time>2026-05-02T07:03:25.026Z</time></trkpt><trkpt lat="42.3427439" lon="14.0161666"><ele>200.33333333333331</ele><time>2026-05-02T07:03:27.026Z</time></trkpt><trkpt lat="42.3426999" lon="14.0162519"><ele>198.5</ele><time>2026-05-02T07:03:28.026Z</time></trkpt><trkpt lat="42.3426651" lon="14.0163466"><ele>196.66666666666666</ele><time>2026-05-02T07:03:29.026Z</time></trkpt><trkpt lat="42.342631" lon="14.016439"><ele>194.83333333333331</ele><time>2026-05-02T07:03:30.026Z</time></trkpt><trkpt lat="42.3426023" lon="14.016534"><ele>193.0</ele><time>2026-05-02T07:03:31.025Z</time></trkpt><trkpt lat="42.3425744" lon="14.0166262"><ele>192.66666666666666</ele><time>2026-05-02T07:03:32.026Z</time></trkpt><trkpt lat="42.3425471" lon="14.0167211"><ele>192.33333333333331</ele><time>2026-05-02T07:03:33.026Z</time></trkpt><trkpt lat="42.3425258" lon="14.0168102"><ele>192.0</ele><time>2026-05-02T07:03:34.026Z</time></trkpt><trkpt lat="42.3425113" lon="14.0169397"><ele>191.66666666666666</ele><time>2026-05-02T07:03:36.026Z</time></trkpt><trkpt lat="42.3424514" lon="14.0169966"><ele>191.33333333333331</ele><time>2026-05-02T07:03:38.026Z</time></trkpt><trkpt lat="42.34238" lon="14.0170336"><ele>191.0</ele><time>2026-05-02T07:03:40.026Z</time></trkpt><trkpt lat="42.3423181" lon="14.0170707"><ele>191.0</ele><time>2026-05-02T07:03:42.026Z</time></trkpt><trkpt lat="42.3422255" lon="14.0170517"><ele>191.0</ele><time>2026-05-02T07:03:45.026Z</time></trkpt><trkpt lat="42.3421725" lon="14.0170042"><ele>191.0</ele><time>2026-05-02T07:03:46.026Z</time></trkpt><trkpt lat="42.3421021" lon="14.0169526"><ele>191.0</ele><time>2026-05-02T07:03:47.026Z</time></trkpt><trkpt lat="42.3420248" lon="14.0168963"><ele>191.0</ele><time>2026-05-02T07:03:48.025Z</time></trkpt><trkpt lat="42.3419483" lon="14.0168335"><ele>191.0</ele><time>2026-05-02T07:03:49.026Z</time></trkpt><trkpt lat="42.3418673" lon="14.0167696"><ele>189.16666666666666</ele><time>2026-05-02T07:03:50.026Z</time></trkpt><trkpt lat="42.3417896" lon="14.0167127"><ele>187.33333333333331</ele><time>2026-05-02T07:03:51.026Z</time></trkpt><trkpt lat="42.3417184" lon="14.0166588"><ele>185.5</ele><time>2026-05-02T07:03:52.026Z</time></trkpt><trkpt lat="42.341651" lon="14.0166069"><ele>183.66666666666666</ele><time>2026-05-02T07:03:53.025Z</time></trkpt><trkpt lat="42.3415852" lon="14.0165549"><ele>181.83333333333334</ele><time>2026-05-02T07:03:54.026Z</time></trkpt><trkpt lat="42.34152" lon="14.0165046"><ele>180.0</ele><time>2026-05-02T07:03:55.026Z</time></trkpt><trkpt lat="42.3414557" lon="14.0164568"><ele>179.66666666666666</ele><time>2026-05-02T07:03:56.026Z</time></trkpt><trkpt lat="42.3413923" lon="14.0164101"><ele>179.33333333333334</ele><time>2026-05-02T07:03:57.025Z</time></trkpt><trkpt lat="42.3413327" lon="14.0163648"><ele>179.0</ele><time>2026-05-02T07:03:58.025Z</time></trkpt><trkpt lat="42.3412744" lon="14.0163248"><ele>178.66666666666669</ele><time>2026-05-02T07:03:59.026Z</time></trkpt><trkpt lat="42.3412117" lon="14.0162899"><ele>178.33333333333334</ele><time>2026-05-02T07:04:00.025Z</time></trkpt><trkpt lat="42.3411097" lon="14.016206"><ele>178.0</ele><time>2026-05-02T07:04:02.026Z</time></trkpt><trkpt lat="42.341049" lon="14.0161432"><ele>178.33333333333334</ele><time>2026-05-02T07:04:03.026Z</time></trkpt><trkpt lat="42.3409819" lon="14.0160622"><ele>178.66666666666669</ele><time>2026-05-02T07:04:04.026Z</time></trkpt><trkpt lat="42.3409206" lon="14.015976"><ele>179.0</ele><time>2026-05-02T07:04:05.026Z</time></trkpt><trkpt lat="42.3408581" lon="14.0158868"><ele>179.33333333333334</ele><time>2026-05-02T07:04:06.026Z</time></trkpt><trkpt lat="42.3408033" lon="14.0157871"><ele>179.66666666666666</ele><time>2026-05-02T07:04:07.025Z</time></trkpt><trkpt lat="42.3407539" lon="14.0156881"><ele>180.0</ele><time>2026-05-02T07:04:08.026Z</time></trkpt><trkpt lat="42.3407122" lon="14.0155862"><ele>180.0</ele><time>2026-05-02T07:04:09.025Z</time></trkpt><trkpt lat="42.3406822" lon="14.0154976"><ele>180.0</ele><time>2026-05-02T07:04:10.026Z</time></trkpt><trkpt lat="42.3406498" lon="14.0154124"><ele>180.0</ele><time>2026-05-02T07:04:11.025Z</time></trkpt><trkpt lat="42.3406221" lon="14.0153343"><ele>180.0</ele><time>2026-05-02T07:04:12.026Z</time></trkpt><trkpt lat="42.3405455" lon="14.0152272"><ele>180.0</ele><time>2026-05-02T07:04:14.026Z</time></trkpt><trkpt lat="42.340426" lon="14.0151975"><ele>180.0</ele><time>2026-05-02T07:04:16.026Z</time></trkpt><trkpt lat="42.3403552" lon="14.015225"><ele>180.66666666666666</ele><time>2026-05-02T07:04:17.026Z</time></trkpt><trkpt lat="42.3402707" lon="14.0152751"><ele>181.33333333333334</ele><time>2026-05-02T07:04:18.026Z</time></trkpt><trkpt lat="42.3401908" lon="14.0153299"><ele>182.0</ele><time>2026-05-02T07:04:19.026Z</time></trkpt><trkpt lat="42.3401198" lon="14.0153783"><ele>182.66666666666669</ele><time>2026-05-02T07:04:20.026Z</time></trkpt><trkpt lat="42.3400578" lon="14.0154188"><ele>183.33333333333334</ele><time>2026-05-02T07:04:21.026Z</time></trkpt><trkpt lat="42.3399985" lon="14.0154706"><ele>184.0</ele><time>2026-05-02T07:04:22.026Z</time></trkpt><trkpt lat="42.3399464" lon="14.0155215"><ele>184.0</ele><time>2026-05-02T07:04:23.026Z</time></trkpt><trkpt lat="42.3398513" lon="14.0156095"><ele>184.0</ele><time>2026-05-02T07:04:25.026Z</time></trkpt><trkpt lat="42.3397567" lon="14.015672"><ele>184.0</ele><time>2026-05-02T07:04:27.026Z</time></trkpt><trkpt lat="42.3396544" lon="14.0156474"><ele>184.0</ele><time>2026-05-02T07:04:29.026Z</time></trkpt><trkpt lat="42.3395948" lon="14.0156159"><ele>184.0</ele><time>2026-05-02T07:04:30.025Z</time></trkpt><trkpt lat="42.3395223" lon="14.0155579"><ele>183.16666666666669</ele><time>2026-05-02T07:04:31.026Z</time></trkpt><trkpt lat="42.3394504" lon="14.0155247"><ele>182.33333333333334</ele><time>2026-05-02T07:04:32.025Z</time></trkpt><trkpt lat="42.33939" lon="14.0154916"><ele>181.5</ele><time>2026-05-02T07:04:33.026Z</time></trkpt><trkpt lat="42.3393185" lon="14.0154131"><ele>180.66666666666666</ele><time>2026-05-02T07:04:35.026Z</time></trkpt><trkpt lat="42.3392626" lon="14.0152835"><ele>179.83333333333331</ele><time>2026-05-02T07:04:37.026Z</time></trkpt><trkpt lat="42.3392305" lon="14.0151898"><ele>179.0</ele><time>2026-05-02T07:04:38.026Z</time></trkpt><trkpt lat="42.3391915" lon="14.0150805"><ele>180.6</ele><time>2026-05-02T07:04:39.025Z</time></trkpt><trkpt lat="42.3391542" lon="14.0149687"><ele>182.2</ele><time>2026-05-02T07:04:40.026Z</time></trkpt><trkpt lat="42.3391055" lon="14.0148494"><ele>183.79999999999998</ele><time>2026-05-02T07:04:41.026Z</time></trkpt><trkpt lat="42.3390548" lon="14.014729"><ele>185.39999999999998</ele><time>2026-05-02T07:04:42.026Z</time></trkpt><trkpt lat="42.3390037" lon="14.0146098"><ele>187.0</ele><time>2026-05-02T07:04:43.026Z</time></trkpt><trkpt lat="42.3389577" lon="14.0144901"><ele>187.0</ele><time>2026-05-02T07:04:44.026Z</time></trkpt><trkpt lat="42.3389089" lon="14.0143706"><ele>187.0</ele><time>2026-05-02T07:04:45.026Z</time></trkpt><trkpt lat="42.3388584" lon="14.014251"><ele>187.0</ele><time>2026-05-02T07:04:46.026Z</time></trkpt><trkpt lat="42.3388051" lon="14.0141268"><ele>187.0</ele><time>2026-05-02T07:04:47.026Z</time></trkpt><trkpt lat="42.3387503" lon="14.0140109"><ele>187.0</ele><time>2026-05-02T07:04:48.026Z</time></trkpt><trkpt lat="42.3387113" lon="14.0138894"><ele>186.39999999999998</ele><time>2026-05-02T07:04:49.026Z</time></trkpt><trkpt lat="42.3386724" lon="14.0137606"><ele>185.79999999999998</ele><time>2026-05-02T07:04:50.026Z</time></trkpt><trkpt lat="42.3386231" lon="14.0136297"><ele>185.2</ele><time>2026-05-02T07:04:51.026Z</time></trkpt><trkpt lat="42.3385704" lon="14.0134874"><ele>184.6</ele><time>2026-05-02T07:04:52.026Z</time></trkpt><trkpt lat="42.3385255" lon="14.013352"><ele>184.0</ele><time>2026-05-02T07:04:53.026Z</time></trkpt><trkpt lat="42.3384746" lon="14.0132057"><ele>185.16666666666669</ele><time>2026-05-02T07:04:54.026Z</time></trkpt><trkpt lat="42.3384349" lon="14.0130702"><ele>186.33333333333334</ele><time>2026-05-02T07:04:55.026Z</time></trkpt><trkpt lat="42.338403" lon="14.0129695"><ele>187.5</ele><time>2026-05-02T07:04:56.026Z</time></trkpt><trkpt lat="42.3383752" lon="14.0128916"><ele>188.66666666666666</ele><time>2026-05-02T07:04:57.026Z</time></trkpt><trkpt lat="42.3383526" lon="14.012776"><ele>189.83333333333331</ele><time>2026-05-02T07:04:59.025Z</time></trkpt><trkpt lat="42.3384039" lon="14.0127025"><ele>191.0</ele><time>2026-05-02T07:05:01.026Z</time></trkpt><trkpt lat="42.3385082" lon="14.0126445"><ele>191.0</ele><time>2026-05-02T07:05:03.025Z</time></trkpt><trkpt lat="42.3385838" lon="14.0125971"><ele>191.0</ele><time>2026-05-02T07:05:04.026Z</time></trkpt><trkpt lat="42.3386669" lon="14.0125421"><ele>191.0</ele><time>2026-05-02T07:05:05.026Z</time></trkpt><trkpt lat="42.3387475" lon="14.0124892"><ele>191.0</ele><time>2026-05-02T07:05:06.026Z</time></trkpt><trkpt lat="42.3388052" lon="14.0124535"><ele>191.0</ele><time>2026-05-02T07:05:07.026Z</time></trkpt><trkpt lat="42.3388502" lon="14.0123717"><ele>191.0</ele><time>2026-05-02T07:05:10.025Z</time></trkpt><trkpt lat="42.3387849" lon="14.0123293"><ele>192.4</ele><time>2026-05-02T07:05:12.025Z</time></trkpt><trkpt lat="42.3387123" lon="14.0123071"><ele>193.8</ele><time>2026-05-02T07:05:13.026Z</time></trkpt><trkpt lat="42.3386108" lon="14.0122643"><ele>195.20000000000002</ele><time>2026-05-02T07:05:14.026Z</time></trkpt><trkpt lat="42.3385007" lon="14.0122007"><ele>196.60000000000002</ele><time>2026-05-02T07:05:15.026Z</time></trkpt><trkpt lat="42.3383763" lon="14.0121439"><ele>198.0</ele><time>2026-05-02T07:05:16.026Z</time></trkpt><trkpt lat="42.3382579" lon="14.0120984"><ele>198.0</ele><time>2026-05-02T07:05:17.026Z</time></trkpt><trkpt lat="42.3381424" lon="14.012053"><ele>198.0</ele><time>2026-05-02T07:05:18.026Z</time></trkpt><trkpt lat="42.3380251" lon="14.0120057"><ele>198.0</ele><time>2026-05-02T07:05:19.026Z</time></trkpt><trkpt lat="42.3379026" lon="14.0119436"><ele>198.0</ele><time>2026-05-02T07:05:20.025Z</time></trkpt><trkpt lat="42.3377812" lon="14.0118644"><ele>197.25</ele><time>2026-05-02T07:05:21.026Z</time></trkpt><trkpt lat="42.3376647" lon="14.0117722"><ele>196.5</ele><time>2026-05-02T07:05:22.026Z</time></trkpt><trkpt lat="42.3375524" lon="14.0116692"><ele>195.75</ele><time>2026-05-02T07:05:23.026Z</time></trkpt><trkpt lat="42.3374506" lon="14.0115609"><ele>195.0</ele><time>2026-05-02T07:05:24.026Z</time></trkpt><trkpt lat="42.3373565" lon="14.0114311"><ele>195.0</ele><time>2026-05-02T07:05:25.026Z</time></trkpt><trkpt lat="42.3372738" lon="14.0112903"><ele>195.0</ele><time>2026-05-02T07:05:26.026Z</time></trkpt><trkpt lat="42.3371988" lon="14.0111452"><ele>195.0</ele><time>2026-05-02T07:05:27.026Z</time></trkpt><trkpt lat="42.3371311" lon="14.0110321"><ele>195.0</ele><time>2026-05-02T07:05:28.026Z</time></trkpt><trkpt lat="42.3370555" lon="14.0109547"><ele>192.2</ele><time>2026-05-02T07:05:29.026Z</time></trkpt><trkpt lat="42.336963" lon="14.0109204"><ele>189.4</ele><time>2026-05-02T07:05:30.026Z</time></trkpt><trkpt lat="42.3368603" lon="14.0109389"><ele>186.60000000000002</ele><time>2026-05-02T07:05:31.026Z</time></trkpt><trkpt lat="42.3367495" lon="14.0109854"><ele>183.8</ele><time>2026-05-02T07:05:32.026Z</time></trkpt><trkpt lat="42.3366297" lon="14.0110555"><ele>181.0</ele><time>2026-05-02T07:05:33.026Z</time></trkpt><trkpt lat="42.3365208" lon="14.0111294"><ele>181.0</ele><time>2026-05-02T07:05:34.026Z</time></trkpt><trkpt lat="42.3364259" lon="14.0112207"><ele>181.0</ele><time>2026-05-02T07:05:35.026Z</time></trkpt><trkpt lat="42.3363475" lon="14.0113537"><ele>181.0</ele><time>2026-05-02T07:05:36.026Z</time></trkpt><trkpt lat="42.3362723" lon="14.0115269"><ele>181.0</ele><time>2026-05-02T07:05:37.026Z</time></trkpt><trkpt lat="42.3362016" lon="14.0117285"><ele>184.25</ele><time>2026-05-02T07:05:38.025Z</time></trkpt><trkpt lat="42.3361334" lon="14.0119202"><ele>187.5</ele><time>2026-05-02T07:05:39.025Z</time></trkpt><trkpt lat="42.336077" lon="14.0120862"><ele>190.75</ele><time>2026-05-02T07:05:40.026Z</time></trkpt><trkpt lat="42.3360454" lon="14.0122598"><ele>194.0</ele><time>2026-05-02T07:05:41.026Z</time></trkpt><trkpt lat="42.3360324" lon="14.0124646"><ele>195.66666666666669</ele><time>2026-05-02T07:05:42.026Z</time></trkpt><trkpt lat="42.3360349" lon="14.0126887"><ele>197.33333333333331</ele><time>2026-05-02T07:05:43.026Z</time></trkpt><trkpt lat="42.336038" lon="14.0129309"><ele>199.0</ele><time>2026-05-02T07:05:44.026Z</time></trkpt><trkpt lat="42.3360438" lon="14.013176"><ele>200.33333333333331</ele><time>2026-05-02T07:05:45.026Z</time></trkpt><trkpt lat="42.3360546" lon="14.0134209"><ele>201.66666666666669</ele><time>2026-05-02T07:05:46.025Z</time></trkpt><trkpt lat="42.3360604" lon="14.0136641"><ele>203.0</ele><time>2026-05-02T07:05:47.026Z</time></trkpt><trkpt lat="42.3360644" lon="14.0138869"><ele>203.0</ele><time>2026-05-02T07:05:48.026Z</time></trkpt><trkpt lat="42.336066" lon="14.0140967"><ele>203.0</ele><time>2026-05-02T07:05:49.026Z</time></trkpt><trkpt lat="42.3360693" lon="14.0142954"><ele>203.0</ele><time>2026-05-02T07:05:50.026Z</time></trkpt><trkpt lat="42.3360742" lon="14.0144755"><ele>203.0</ele><time>2026-05-02T07:05:51.025Z</time></trkpt><trkpt lat="42.3360977" lon="14.0146368"><ele>203.16666666666669</ele><time>2026-05-02T07:05:52.026Z</time></trkpt><trkpt lat="42.336137" lon="14.014767"><ele>203.33333333333334</ele><time>2026-05-02T07:05:53.025Z</time></trkpt><trkpt lat="42.3361778" lon="14.0148723"><ele>203.5</ele><time>2026-05-02T07:05:54.025Z</time></trkpt><trkpt lat="42.3361984" lon="14.0149684"><ele>203.66666666666669</ele><time>2026-05-02T07:05:55.026Z</time></trkpt><trkpt lat="42.3361953" lon="14.0150547"><ele>203.83333333333334</ele><time>2026-05-02T07:05:56.026Z</time></trkpt><trkpt lat="42.3361258" lon="14.0151471"><ele>204.0</ele><time>2026-05-02T07:05:58.026Z</time></trkpt><trkpt lat="42.3360264" lon="14.0151127"><ele>204.0</ele><time>2026-05-02T07:06:00.026Z</time></trkpt><trkpt lat="42.3359727" lon="14.0150682"><ele>204.0</ele><time>2026-05-02T07:06:01.026Z</time></trkpt><trkpt lat="42.3359168" lon="14.0150219"><ele>204.0</ele><time>2026-05-02T07:06:02.026Z</time></trkpt><trkpt lat="42.3358274" lon="14.0149434"><ele>204.0</ele><time>2026-05-02T07:06:04.025Z</time></trkpt><trkpt lat="42.3357658" lon="14.0148492"><ele>204.0</ele><time>2026-05-02T07:06:06.026Z</time></trkpt><trkpt lat="42.3357116" lon="14.014752"><ele>204.0</ele><time>2026-05-02T07:06:08.025Z</time></trkpt><trkpt lat="42.3356512" lon="14.0146547"><ele>204.6</ele><time>2026-05-02T07:06:11.026Z</time></trkpt><trkpt lat="42.3355482" lon="14.0145766"><ele>205.2</ele><time>2026-05-02T07:06:13.026Z</time></trkpt><trkpt lat="42.3354701" lon="14.014566"><ele>205.79999999999998</ele><time>2026-05-02T07:06:14.026Z</time></trkpt><trkpt lat="42.3353771" lon="14.0145755"><ele>206.39999999999998</ele><time>2026-05-02T07:06:15.026Z</time></trkpt><trkpt lat="42.335264" lon="14.0145784"><ele>207.0</ele><time>2026-05-02T07:06:16.026Z</time></trkpt><trkpt lat="42.3351397" lon="14.0145617"><ele>207.0</ele><time>2026-05-02T07:06:17.025Z</time></trkpt><trkpt lat="42.3349988" lon="14.0145393"><ele>207.0</ele><time>2026-05-02T07:06:18.026Z</time></trkpt><trkpt lat="42.3348335" lon="14.0145136"><ele>207.0</ele><time>2026-05-02T07:06:19.026Z</time></trkpt><trkpt lat="42.3346543" lon="14.0144894"><ele>204.66666666666669</ele><time>2026-05-02T07:06:20.026Z</time></trkpt><trkpt lat="42.3344683" lon="14.0144611"><ele>202.33333333333334</ele><time>2026-05-02T07:06:21.026Z</time></trkpt><trkpt lat="42.3342876" lon="14.0144394"><ele>200.0</ele><time>2026-05-02T07:06:22.026Z</time></trkpt><trkpt lat="42.3340997" lon="14.0144157"><ele>200.0</ele><time>2026-05-02T07:06:23.026Z</time></trkpt><trkpt lat="42.3339089" lon="14.0143868"><ele>200.0</ele><time>2026-05-02T07:06:24.026Z</time></trkpt><trkpt lat="42.333714" lon="14.0143593"><ele>200.0</ele><time>2026-05-02T07:06:25.026Z</time></trkpt><trkpt lat="42.3335168" lon="14.0143338"><ele>198.66666666666669</ele><time>2026-05-02T07:06:26.026Z</time></trkpt><trkpt lat="42.3333203" lon="14.0143078"><ele>197.33333333333331</ele><time>2026-05-02T07:06:27.026Z</time></trkpt><trkpt lat="42.3331308" lon="14.014285"><ele>196.0</ele><time>2026-05-02T07:06:28.025Z</time></trkpt><trkpt lat="42.3329455" lon="14.0142638"><ele>195.0</ele><time>2026-05-02T07:06:29.025Z</time></trkpt><trkpt lat="42.3327637" lon="14.0142396"><ele>194.0</ele><time>2026-05-02T07:06:30.026Z</time></trkpt><trkpt lat="42.3325892" lon="14.0142176"><ele>193.0</ele><time>2026-05-02T07:06:31.026Z</time></trkpt><trkpt lat="42.3324306" lon="14.0141961"><ele>193.0</ele><time>2026-05-02T07:06:32.026Z</time></trkpt><trkpt lat="42.3322744" lon="14.0141907"><ele>193.0</ele><time>2026-05-02T07:06:33.026Z</time></trkpt><trkpt lat="42.3321101" lon="14.0142198"><ele>193.0</ele><time>2026-05-02T07:06:34.026Z</time></trkpt><trkpt lat="42.3319466" lon="14.0142842"><ele>190.0</ele><time>2026-05-02T07:06:35.026Z</time></trkpt><trkpt lat="42.3317803" lon="14.014378"><ele>187.0</ele><time>2026-05-02T07:06:36.026Z</time></trkpt><trkpt lat="42.3316135" lon="14.0144982"><ele>184.0</ele><time>2026-05-02T07:06:37.026Z</time></trkpt><trkpt lat="42.3314549" lon="14.0146205"><ele>180.66666666666669</ele><time>2026-05-02T07:06:38.026Z</time></trkpt><trkpt lat="42.3313064" lon="14.0147367"><ele>177.33333333333334</ele><time>2026-05-02T07:06:39.026Z</time></trkpt><trkpt lat="42.331169" lon="14.0148383"><ele>174.0</ele><time>2026-05-02T07:06:40.026Z</time></trkpt><trkpt lat="42.3310458" lon="14.0149193"><ele>174.0</ele><time>2026-05-02T07:06:41.026Z</time></trkpt><trkpt lat="42.3309225" lon="14.0149851"><ele>174.0</ele><time>2026-05-02T07:06:42.026Z</time></trkpt><trkpt lat="42.3307927" lon="14.0150244"><ele>174.0</ele><time>2026-05-02T07:06:43.026Z</time></trkpt><trkpt lat="42.3306619" lon="14.0150272"><ele>174.0</ele><time>2026-05-02T07:06:44.026Z</time></trkpt><trkpt lat="42.3305315" lon="14.0149982"><ele>173.0</ele><time>2026-05-02T07:06:45.026Z</time></trkpt><trkpt lat="42.3304089" lon="14.014936"><ele>172.0</ele><time>2026-05-02T07:06:46.026Z</time></trkpt><trkpt lat="42.3302928" lon="14.0148406"><ele>171.0</ele><time>2026-05-02T07:06:47.026Z</time></trkpt><trkpt lat="42.330182" lon="14.0147143"><ele>170.0</ele><time>2026-05-02T07:06:48.026Z</time></trkpt><trkpt lat="42.3300733" lon="14.0145649"><ele>170.0</ele><time>2026-05-02T07:06:49.026Z</time></trkpt><trkpt lat="42.3299594" lon="14.0144074"><ele>170.0</ele><time>2026-05-02T07:06:50.026Z</time></trkpt><trkpt lat="42.3298404" lon="14.0142392"><ele>170.0</ele><time>2026-05-02T07:06:51.026Z</time></trkpt><trkpt lat="42.3297186" lon="14.0140594"><ele>167.66666666666666</ele><time>2026-05-02T07:06:52.026Z</time></trkpt><trkpt lat="42.3295999" lon="14.0138768"><ele>165.33333333333334</ele><time>2026-05-02T07:06:53.026Z</time></trkpt><trkpt lat="42.3294861" lon="14.0136987"><ele>163.0</ele><time>2026-05-02T07:06:54.026Z</time></trkpt><trkpt lat="42.3293818" lon="14.0135319"><ele>163.0</ele><time>2026-05-02T07:06:55.026Z</time></trkpt><trkpt lat="42.3292881" lon="14.013384"><ele>163.0</ele><time>2026-05-02T07:06:56.026Z</time></trkpt><trkpt lat="42.3292052" lon="14.0132422"><ele>163.0</ele><time>2026-05-02T07:06:57.026Z</time></trkpt><trkpt lat="42.3291297" lon="14.0131117"><ele>163.0</ele><time>2026-05-02T07:06:58.026Z</time></trkpt><trkpt lat="42.32906" lon="14.0129883"><ele>162.0</ele><time>2026-05-02T07:06:59.026Z</time></trkpt><trkpt lat="42.3289932" lon="14.0128631"><ele>161.0</ele><time>2026-05-02T07:07:00.026Z</time></trkpt><trkpt lat="42.3289253" lon="14.012747"><ele>160.0</ele><time>2026-05-02T07:07:01.026Z</time></trkpt><trkpt lat="42.3288575" lon="14.0126418"><ele>159.0</ele><time>2026-05-02T07:07:02.026Z</time></trkpt><trkpt lat="42.3287791" lon="14.012543"><ele>158.0</ele><time>2026-05-02T07:07:03.026Z</time></trkpt><trkpt lat="42.3286852" lon="14.0124458"><ele>158.0</ele><time>2026-05-02T07:07:04.026Z</time></trkpt><trkpt lat="42.3285634" lon="14.0123634"><ele>158.0</ele><time>2026-05-02T07:07:05.026Z</time></trkpt><trkpt lat="42.3284216" lon="14.0122935"><ele>158.0</ele><time>2026-05-02T07:07:06.026Z</time></trkpt><trkpt lat="42.3282636" lon="14.012225"><ele>158.0</ele><time>2026-05-02T07:07:07.026Z</time></trkpt><trkpt lat="42.3281" lon="14.0121569"><ele>158.0</ele><time>2026-05-02T07:07:08.026Z</time></trkpt><trkpt lat="42.3279457" lon="14.012093"><ele>158.0</ele><time>2026-05-02T07:07:09.026Z</time></trkpt><trkpt lat="42.327804" lon="14.0120343"><ele>157.0</ele><time>2026-05-02T07:07:10.026Z</time></trkpt><trkpt lat="42.3276665" lon="14.011976"><ele>156.0</ele><time>2026-05-02T07:07:11.025Z</time></trkpt><trkpt lat="42.3275318" lon="14.0119182"><ele>155.0</ele><time>2026-05-02T07:07:12.026Z</time></trkpt><trkpt lat="42.3273965" lon="14.0118682"><ele>154.0</ele><time>2026-05-02T07:07:13.026Z</time></trkpt><trkpt lat="42.3272724" lon="14.0118265"><ele>153.2</ele><time>2026-05-02T07:07:14.025Z</time></trkpt><trkpt lat="42.3271622" lon="14.0117967"><ele>152.4</ele><time>2026-05-02T07:07:15.026Z</time></trkpt><trkpt lat="42.3270625" lon="14.0117679"><ele>151.6</ele><time>2026-05-02T07:07:16.026Z</time></trkpt><trkpt lat="42.3269722" lon="14.0117333"><ele>150.8</ele><time>2026-05-02T07:07:17.026Z</time></trkpt><trkpt lat="42.3268937" lon="14.0116831"><ele>150.0</ele><time>2026-05-02T07:07:18.026Z</time></trkpt><trkpt lat="42.3268255" lon="14.011623"><ele>150.0</ele><time>2026-05-02T07:07:19.026Z</time></trkpt><trkpt lat="42.3267685" lon="14.0115469"><ele>150.0</ele><time>2026-05-02T07:07:20.026Z</time></trkpt><trkpt lat="42.3267195" lon="14.0114563"><ele>150.0</ele><time>2026-05-02T07:07:21.026Z</time></trkpt><trkpt lat="42.3266723" lon="14.0113388"><ele>150.0</ele><time>2026-05-02T07:07:22.025Z</time></trkpt><trkpt lat="42.3266202" lon="14.0111996"><ele>150.0</ele><time>2026-05-02T07:07:23.026Z</time></trkpt><trkpt lat="42.3265642" lon="14.0110443"><ele>150.0</ele><time>2026-05-02T07:07:24.026Z</time></trkpt><trkpt lat="42.3265049" lon="14.0108727"><ele>150.0</ele><time>2026-05-02T07:07:25.026Z</time></trkpt><trkpt lat="42.3264461" lon="14.0106862"><ele>150.0</ele><time>2026-05-02T07:07:26.025Z</time></trkpt><trkpt lat="42.3263806" lon="14.0104853"><ele>148.33333333333334</ele><time>2026-05-02T07:07:27.026Z</time></trkpt><trkpt lat="42.3263091" lon="14.010275"><ele>146.66666666666669</ele><time>2026-05-02T07:07:28.026Z</time></trkpt><trkpt lat="42.3262358" lon="14.0100532"><ele>145.0</ele><time>2026-05-02T07:07:29.026Z</time></trkpt><trkpt lat="42.3261614" lon="14.0098183"><ele>145.0</ele><time>2026-05-02T07:07:30.026Z</time></trkpt><trkpt lat="42.3260786" lon="14.0095727"><ele>145.0</ele><time>2026-05-02T07:07:31.025Z</time></trkpt><trkpt lat="42.3259933" lon="14.0093197"><ele>145.0</ele><time>2026-05-02T07:07:32.026Z</time></trkpt><trkpt lat="42.3259131" lon="14.0090766"><ele>144.33333333333334</ele><time>2026-05-02T07:07:33.026Z</time></trkpt><trkpt lat="42.3258396" lon="14.0088478"><ele>143.66666666666666</ele><time>2026-05-02T07:07:34.026Z</time></trkpt><trkpt lat="42.3257675" lon="14.0086329"><ele>143.0</ele><time>2026-05-02T07:07:35.026Z</time></trkpt><trkpt lat="42.3256918" lon="14.008416"><ele>141.66666666666666</ele><time>2026-05-02T07:07:36.026Z</time></trkpt><trkpt lat="42.3256059" lon="14.0082019"><ele>140.33333333333334</ele><time>2026-05-02T07:07:37.026Z</time></trkpt><trkpt lat="42.3255141" lon="14.0079846"><ele>139.0</ele><time>2026-05-02T07:07:38.025Z</time></trkpt><trkpt lat="42.3254126" lon="14.0077662"><ele>139.0</ele><time>2026-05-02T07:07:39.026Z</time></trkpt><trkpt lat="42.3253078" lon="14.0075408"><ele>139.0</ele><time>2026-05-02T07:07:40.026Z</time></trkpt><trkpt lat="42.325205" lon="14.0073036"><ele>139.0</ele><time>2026-05-02T07:07:41.025Z</time></trkpt><trkpt lat="42.3251186" lon="14.0070561"><ele>138.0</ele><time>2026-05-02T07:07:42.026Z</time></trkpt><trkpt lat="42.3250449" lon="14.0067975"><ele>137.0</ele><time>2026-05-02T07:07:43.026Z</time></trkpt><trkpt lat="42.3249787" lon="14.0065296"><ele>136.0</ele><time>2026-05-02T07:07:44.026Z</time></trkpt><trkpt lat="42.3249108" lon="14.0062605"><ele>135.66666666666669</ele><time>2026-05-02T07:07:45.026Z</time></trkpt><trkpt lat="42.3248443" lon="14.0059864"><ele>135.33333333333334</ele><time>2026-05-02T07:07:46.026Z</time></trkpt><trkpt lat="42.3247789" lon="14.0057048"><ele>135.0</ele><time>2026-05-02T07:07:47.025Z</time></trkpt><trkpt lat="42.3247141" lon="14.0054285"><ele>135.0</ele><time>2026-05-02T07:07:48.026Z</time></trkpt><trkpt lat="42.3246401" lon="14.0051516"><ele>135.0</ele><time>2026-05-02T07:07:49.026Z</time></trkpt><trkpt lat="42.3245511" lon="14.0048788"><ele>135.0</ele><time>2026-05-02T07:07:50.025Z</time></trkpt><trkpt lat="42.3244587" lon="14.0046096"><ele>135.0</ele><time>2026-05-02T07:07:51.026Z</time></trkpt><trkpt lat="42.3243626" lon="14.0043421"><ele>135.0</ele><time>2026-05-02T07:07:52.026Z</time></trkpt><trkpt lat="42.3242611" lon="14.0040779"><ele>135.0</ele><time>2026-05-02T07:07:53.025Z</time></trkpt><trkpt lat="42.3241592" lon="14.0038126"><ele>137.0</ele><time>2026-05-02T07:07:54.026Z</time></trkpt><trkpt lat="42.3240568" lon="14.0035416"><ele>139.0</ele><time>2026-05-02T07:07:55.026Z</time></trkpt><trkpt lat="42.3239566" lon="14.0032688"><ele>138.66666666666669</ele><time>2026-05-02T07:07:56.026Z</time></trkpt><trkpt lat="42.3238584" lon="14.0029973"><ele>138.33333333333334</ele><time>2026-05-02T07:07:57.026Z</time></trkpt><trkpt lat="42.3237573" lon="14.0027255"><ele>138.0</ele><time>2026-05-02T07:07:58.026Z</time></trkpt><trkpt lat="42.3236602" lon="14.0024538"><ele>138.0</ele><time>2026-05-02T07:07:59.026Z</time></trkpt><trkpt lat="42.323565" lon="14.0021827"><ele>138.0</ele><time>2026-05-02T07:08:00.026Z</time></trkpt><trkpt lat="42.3234741" lon="14.001911"><ele>138.0</ele><time>2026-05-02T07:08:01.026Z</time></trkpt><trkpt lat="42.3233861" lon="14.0016382"><ele>138.66666666666666</ele><time>2026-05-02T07:08:02.026Z</time></trkpt><trkpt lat="42.3232934" lon="14.001362"><ele>139.33333333333331</ele><time>2026-05-02T07:08:03.026Z</time></trkpt><trkpt lat="42.3232033" lon="14.0010874"><ele>140.0</ele><time>2026-05-02T07:08:04.026Z</time></trkpt><trkpt lat="42.3231138" lon="14.0008131"><ele>138.33333333333331</ele><time>2026-05-02T07:08:05.026Z</time></trkpt><trkpt lat="42.3230216" lon="14.0005377"><ele>136.66666666666666</ele><time>2026-05-02T07:08:06.026Z</time></trkpt><trkpt lat="42.3229303" lon="14.0002645"><ele>135.0</ele><time>2026-05-02T07:08:07.025Z</time></trkpt><trkpt lat="42.3228376" lon="13.9999922"><ele>135.0</ele><time>2026-05-02T07:08:08.026Z</time></trkpt><trkpt lat="42.3227469" lon="13.9997154"><ele>135.0</ele><time>2026-05-02T07:08:09.026Z</time></trkpt><trkpt lat="42.3226581" lon="13.9994411"><ele>135.0</ele><time>2026-05-02T07:08:10.026Z</time></trkpt><trkpt lat="42.3225687" lon="13.9991648"><ele>137.0</ele><time>2026-05-02T07:08:11.026Z</time></trkpt><trkpt lat="42.3224783" lon="13.9988881"><ele>139.0</ele><time>2026-05-02T07:08:12.026Z</time></trkpt><trkpt lat="42.3223847" lon="13.9986067"><ele>139.0</ele><time>2026-05-02T07:08:13.026Z</time></trkpt><trkpt lat="42.3222949" lon="13.9983262"><ele>139.0</ele><time>2026-05-02T07:08:14.026Z</time></trkpt><trkpt lat="42.3222046" lon="13.9980412"><ele>136.5</ele><time>2026-05-02T07:08:15.026Z</time></trkpt><trkpt lat="42.3221155" lon="13.9977503"><ele>134.0</ele><time>2026-05-02T07:08:16.026Z</time></trkpt><trkpt lat="42.3220237" lon="13.997453"><ele>134.0</ele><time>2026-05-02T07:08:17.026Z</time></trkpt><trkpt lat="42.3219316" lon="13.997165"><ele>134.0</ele><time>2026-05-02T07:08:18.026Z</time></trkpt><trkpt lat="42.3218423" lon="13.9968891"><ele>133.5</ele><time>2026-05-02T07:08:19.026Z</time></trkpt><trkpt lat="42.3217513" lon="13.9966096"><ele>133.0</ele><time>2026-05-02T07:08:20.025Z</time></trkpt><trkpt lat="42.3216565" lon="13.9963191"><ele>133.0</ele><time>2026-05-02T07:08:21.026Z</time></trkpt><trkpt lat="42.3215565" lon="13.996021"><ele>133.0</ele><time>2026-05-02T07:08:22.025Z</time></trkpt><trkpt lat="42.321456" lon="13.9957228"><ele>131.5</ele><time>2026-05-02T07:08:23.026Z</time></trkpt><trkpt lat="42.3213566" lon="13.9954237"><ele>130.0</ele><time>2026-05-02T07:08:24.025Z</time></trkpt><trkpt lat="42.3212637" lon="13.9951379"><ele>131.0</ele><time>2026-05-02T07:08:25.026Z</time></trkpt><trkpt lat="42.3211733" lon="13.994874"><ele>132.0</ele><time>2026-05-02T07:08:26.026Z</time></trkpt><trkpt lat="42.32109" lon="13.9946509"><ele>133.0</ele><time>2026-05-02T07:08:27.025Z</time></trkpt><trkpt lat="42.3210121" lon="13.9944485"><ele>133.0</ele><time>2026-05-02T07:08:28.026Z</time></trkpt><trkpt lat="42.3209444" lon="13.9942817"><ele>133.0</ele><time>2026-05-02T07:08:29.026Z</time></trkpt><trkpt lat="42.3208842" lon="13.9941368"><ele>133.0</ele><time>2026-05-02T07:08:30.026Z</time></trkpt><trkpt lat="42.3208339" lon="13.9940169"><ele>133.0</ele><time>2026-05-02T07:08:31.026Z</time></trkpt><trkpt lat="42.3207882" lon="13.9939144"><ele>133.20000000000002</ele><time>2026-05-02T07:08:32.025Z</time></trkpt><trkpt lat="42.3207482" lon="13.9938292"><ele>133.4</ele><time>2026-05-02T07:08:33.025Z</time></trkpt><trkpt lat="42.3206714" lon="13.9937025"><ele>133.60000000000002</ele><time>2026-05-02T07:08:35.026Z</time></trkpt><trkpt lat="42.3205767" lon="13.9936576"><ele>133.8</ele><time>2026-05-02T07:08:37.026Z</time></trkpt><trkpt lat="42.3204889" lon="13.9937002"><ele>134.0</ele><time>2026-05-02T07:08:39.026Z</time></trkpt><trkpt lat="42.3203737" lon="13.9937883"><ele>134.8</ele><time>2026-05-02T07:08:41.025Z</time></trkpt><trkpt lat="42.3202912" lon="13.9938577"><ele>135.60000000000002</ele><time>2026-05-02T07:08:42.026Z</time></trkpt><trkpt lat="42.3202033" lon="13.9939369"><ele>136.4</ele><time>2026-05-02T07:08:43.026Z</time></trkpt><trkpt lat="42.3201283" lon="13.9940283"><ele>137.20000000000002</ele><time>2026-05-02T07:08:44.026Z</time></trkpt><trkpt lat="42.3200563" lon="13.9941446"><ele>138.0</ele><time>2026-05-02T07:08:45.026Z</time></trkpt><trkpt lat="42.3199827" lon="13.9942842"><ele>138.0</ele><time>2026-05-02T07:08:46.026Z</time></trkpt><trkpt lat="42.3198931" lon="13.9944412"><ele>138.0</ele><time>2026-05-02T07:08:47.026Z</time></trkpt><trkpt lat="42.3198027" lon="13.9945837"><ele>138.0</ele><time>2026-05-02T07:08:48.026Z</time></trkpt><trkpt lat="42.3197167" lon="13.9947146"><ele>138.0</ele><time>2026-05-02T07:08:49.026Z</time></trkpt><trkpt lat="42.3196233" lon="13.9948712"><ele>138.75</ele><time>2026-05-02T07:08:50.026Z</time></trkpt><trkpt lat="42.3195328" lon="13.9950431"><ele>139.5</ele><time>2026-05-02T07:08:51.026Z</time></trkpt><trkpt lat="42.3194551" lon="13.9952043"><ele>140.25</ele><time>2026-05-02T07:08:52.026Z</time></trkpt><trkpt lat="42.3193727" lon="13.9953724"><ele>141.0</ele><time>2026-05-02T07:08:53.026Z</time></trkpt><trkpt lat="42.3192876" lon="13.9955495"><ele>141.0</ele><time>2026-05-02T07:08:54.026Z</time></trkpt><trkpt lat="42.3192013" lon="13.995733"><ele>141.0</ele><time>2026-05-02T07:08:55.026Z</time></trkpt><trkpt lat="42.3191182" lon="13.9959142"><ele>141.0</ele><time>2026-05-02T07:08:56.026Z</time></trkpt><trkpt lat="42.3190362" lon="13.9960923"><ele>140.75</ele><time>2026-05-02T07:08:57.026Z</time></trkpt><trkpt lat="42.318951" lon="13.9962793"><ele>140.5</ele><time>2026-05-02T07:08:58.026Z</time></trkpt><trkpt lat="42.3188723" lon="13.9964515"><ele>140.25</ele><time>2026-05-02T07:08:59.026Z</time></trkpt><trkpt lat="42.3188025" lon="13.9966032"><ele>140.0</ele><time>2026-05-02T07:09:00.026Z</time></trkpt><trkpt lat="42.3187412" lon="13.9967434"><ele>142.0</ele><time>2026-05-02T07:09:01.026Z</time></trkpt><trkpt lat="42.3186905" lon="13.996891"><ele>144.0</ele><time>2026-05-02T07:09:02.026Z</time></trkpt><trkpt lat="42.3186561" lon="13.9970543"><ele>146.0</ele><time>2026-05-02T07:09:03.026Z</time></trkpt><trkpt lat="42.3186287" lon="13.9972466"><ele>148.0</ele><time>2026-05-02T07:09:04.026Z</time></trkpt><trkpt lat="42.3185977" lon="13.9974524"><ele>147.75</ele><time>2026-05-02T07:09:05.025Z</time></trkpt><trkpt lat="42.3185735" lon="13.9976525"><ele>147.5</ele><time>2026-05-02T07:09:06.026Z</time></trkpt><trkpt lat="42.3185523" lon="13.9978294"><ele>147.25</ele><time>2026-05-02T07:09:07.026Z</time></trkpt><trkpt lat="42.3185325" lon="13.9979944"><ele>147.0</ele><time>2026-05-02T07:09:08.026Z</time></trkpt><trkpt lat="42.318511" lon="13.9981751"><ele>146.33333333333334</ele><time>2026-05-02T07:09:09.026Z</time></trkpt><trkpt lat="42.3184907" lon="13.9983662"><ele>145.66666666666669</ele><time>2026-05-02T07:09:10.026Z</time></trkpt><trkpt lat="42.3184694" lon="13.9985672"><ele>145.0</ele><time>2026-05-02T07:09:11.026Z</time></trkpt><trkpt lat="42.318451" lon="13.9987829"><ele>145.0</ele><time>2026-05-02T07:09:12.026Z</time></trkpt><trkpt lat="42.3184371" lon="13.9990057"><ele>145.0</ele><time>2026-05-02T07:09:13.026Z</time></trkpt><trkpt lat="42.3184226" lon="13.9992374"><ele>145.0</ele><time>2026-05-02T07:09:14.026Z</time></trkpt><trkpt lat="42.3184076" lon="13.9994544"><ele>143.5</ele><time>2026-05-02T07:09:15.026Z</time></trkpt><trkpt lat="42.3183971" lon="13.9996564"><ele>142.0</ele><time>2026-05-02T07:09:16.025Z</time></trkpt><trkpt lat="42.3183887" lon="13.999843"><ele>140.5</ele><time>2026-05-02T07:09:17.026Z</time></trkpt><trkpt lat="42.3183762" lon="14.0000383"><ele>139.0</ele><time>2026-05-02T07:09:18.026Z</time></trkpt><trkpt lat="42.3183651" lon="14.0002239"><ele>139.0</ele><time>2026-05-02T07:09:19.026Z</time></trkpt><trkpt lat="42.3183548" lon="14.0003905"><ele>139.0</ele><time>2026-05-02T07:09:20.025Z</time></trkpt><trkpt lat="42.3183483" lon="14.0005532"><ele>139.0</ele><time>2026-05-02T07:09:21.026Z</time></trkpt><trkpt lat="42.3183403" lon="14.0007122"><ele>139.0</ele><time>2026-05-02T07:09:22.026Z</time></trkpt><trkpt lat="42.3183313" lon="14.0008727"><ele>138.2</ele><time>2026-05-02T07:09:23.026Z</time></trkpt><trkpt lat="42.3183221" lon="14.0010171"><ele>137.4</ele><time>2026-05-02T07:09:24.026Z</time></trkpt><trkpt lat="42.3183087" lon="14.0011505"><ele>136.6</ele><time>2026-05-02T07:09:25.026Z</time></trkpt><trkpt lat="42.3182898" lon="14.0012815"><ele>135.8</ele><time>2026-05-02T07:09:26.026Z</time></trkpt><trkpt lat="42.3182597" lon="14.001403"><ele>135.0</ele><time>2026-05-02T07:09:27.026Z</time></trkpt><trkpt lat="42.3182283" lon="14.001516"><ele>135.0</ele><time>2026-05-02T07:09:28.026Z</time></trkpt><trkpt lat="42.3182025" lon="14.0016295"><ele>135.0</ele><time>2026-05-02T07:09:29.026Z</time></trkpt><trkpt lat="42.318196" lon="14.0017421"><ele>135.0</ele><time>2026-05-02T07:09:30.026Z</time></trkpt><trkpt lat="42.3182103" lon="14.0018466"><ele>135.0</ele><time>2026-05-02T07:09:31.026Z</time></trkpt><trkpt lat="42.3182425" lon="14.0019623"><ele>135.0</ele><time>2026-05-02T07:09:32.026Z</time></trkpt><trkpt lat="42.3182817" lon="14.0020859"><ele>135.0</ele><time>2026-05-02T07:09:33.026Z</time></trkpt><trkpt lat="42.3183178" lon="14.0022313"><ele>134.0</ele><time>2026-05-02T07:09:34.026Z</time></trkpt><trkpt lat="42.3183441" lon="14.0023798"><ele>133.0</ele><time>2026-05-02T07:09:35.026Z</time></trkpt><trkpt lat="42.31837" lon="14.0025402"><ele>132.0</ele><time>2026-05-02T07:09:36.026Z</time></trkpt><trkpt lat="42.318391" lon="14.0026973"><ele>131.0</ele><time>2026-05-02T07:09:37.026Z</time></trkpt><trkpt lat="42.3184045" lon="14.0028556"><ele>129.25</ele><time>2026-05-02T07:09:38.026Z</time></trkpt><trkpt lat="42.3184142" lon="14.0030145"><ele>127.5</ele><time>2026-05-02T07:09:39.025Z</time></trkpt><trkpt lat="42.3184295" lon="14.0031701"><ele>125.75</ele><time>2026-05-02T07:09:40.026Z</time></trkpt><trkpt lat="42.3184396" lon="14.0033297"><ele>124.0</ele><time>2026-05-02T07:09:41.026Z</time></trkpt><trkpt lat="42.3184359" lon="14.0034786"><ele>123.2</ele><time>2026-05-02T07:09:42.026Z</time></trkpt><trkpt lat="42.3184255" lon="14.0036171"><ele>122.4</ele><time>2026-05-02T07:09:43.025Z</time></trkpt><trkpt lat="42.3183982" lon="14.0037443"><ele>121.6</ele><time>2026-05-02T07:09:44.026Z</time></trkpt><trkpt lat="42.3183589" lon="14.0038828"><ele>120.8</ele><time>2026-05-02T07:09:45.026Z</time></trkpt><trkpt lat="42.3183121" lon="14.0040241"><ele>120.0</ele><time>2026-05-02T07:09:46.026Z</time></trkpt><trkpt lat="42.3182581" lon="14.0041728"><ele>119.25</ele><time>2026-05-02T07:09:47.026Z</time></trkpt><trkpt lat="42.3182074" lon="14.0043219"><ele>118.5</ele><time>2026-05-02T07:09:48.026Z</time></trkpt><trkpt lat="42.3181571" lon="14.004471"><ele>117.75</ele><time>2026-05-02T07:09:49.026Z</time></trkpt><trkpt lat="42.3181045" lon="14.0046243"><ele>117.0</ele><time>2026-05-02T07:09:50.026Z</time></trkpt><trkpt lat="42.3180414" lon="14.0047708"><ele>117.0</ele><time>2026-05-02T07:09:51.026Z</time></trkpt><trkpt lat="42.3179835" lon="14.0049336"><ele>117.0</ele><time>2026-05-02T07:09:52.026Z</time></trkpt><trkpt lat="42.3179274" lon="14.0051001"><ele>117.0</ele><time>2026-05-02T07:09:53.026Z</time></trkpt><trkpt lat="42.3178739" lon="14.0052668"><ele>117.0</ele><time>2026-05-02T07:09:54.026Z</time></trkpt><trkpt lat="42.3178119" lon="14.0054304"><ele>117.0</ele><time>2026-05-02T07:09:55.026Z</time></trkpt><trkpt lat="42.317753" lon="14.0055912"><ele>117.0</ele><time>2026-05-02T07:09:56.026Z</time></trkpt><trkpt lat="42.3177014" lon="14.0057202"><ele>117.0</ele><time>2026-05-02T07:09:57.026Z</time></trkpt><trkpt lat="42.3176573" lon="14.0058578"><ele>117.0</ele><time>2026-05-02T07:09:58.026Z</time></trkpt><trkpt lat="42.3176012" lon="14.0059889"><ele>117.75</ele><time>2026-05-02T07:09:59.026Z</time></trkpt><trkpt lat="42.3175508" lon="14.0061356"><ele>118.5</ele><time>2026-05-02T07:10:00.026Z</time></trkpt><trkpt lat="42.3175161" lon="14.0062891"><ele>119.25</ele><time>2026-05-02T07:10:01.026Z</time></trkpt><trkpt lat="42.3174715" lon="14.0064457"><ele>120.0</ele><time>2026-05-02T07:10:02.026Z</time></trkpt><trkpt lat="42.3174223" lon="14.0066079"><ele>120.0</ele><time>2026-05-02T07:10:03.025Z</time></trkpt><trkpt lat="42.3173686" lon="14.006766"><ele>120.0</ele><time>2026-05-02T07:10:04.026Z</time></trkpt><trkpt lat="42.317312" lon="14.0069181"><ele>120.0</ele><time>2026-05-02T07:10:05.026Z</time></trkpt><trkpt lat="42.3172638" lon="14.0070521"><ele>120.0</ele><time>2026-05-02T07:10:06.026Z</time></trkpt><trkpt lat="42.3172247" lon="14.0071583"><ele>120.0</ele><time>2026-05-02T07:10:07.026Z</time></trkpt><trkpt lat="42.3171958" lon="14.0072437"><ele>120.0</ele><time>2026-05-02T07:10:08.026Z</time></trkpt><trkpt lat="42.3171447" lon="14.0074178"><ele>120.0</ele><time>2026-05-02T07:10:10.026Z</time></trkpt><trkpt lat="42.317119" lon="14.0075306"><ele>120.0</ele><time>2026-05-02T07:10:11.026Z</time></trkpt><trkpt lat="42.3170878" lon="14.007643"><ele>120.0</ele><time>2026-05-02T07:10:12.026Z</time></trkpt><trkpt lat="42.3170463" lon="14.0077636"><ele>120.0</ele><time>2026-05-02T07:10:13.026Z</time></trkpt><trkpt lat="42.3169791" lon="14.007891"><ele>120.0</ele><time>2026-05-02T07:10:14.026Z</time></trkpt><trkpt lat="42.316888" lon="14.0080086"><ele>120.0</ele><time>2026-05-02T07:10:15.026Z</time></trkpt><trkpt lat="42.3167737" lon="14.0081278"><ele>120.0</ele><time>2026-05-02T07:10:16.026Z</time></trkpt><trkpt lat="42.3166608" lon="14.0082413"><ele>118.6</ele><time>2026-05-02T07:10:17.026Z</time></trkpt><trkpt lat="42.3165548" lon="14.0083502"><ele>117.2</ele><time>2026-05-02T07:10:18.026Z</time></trkpt><trkpt lat="42.3164593" lon="14.0084517"><ele>115.80000000000001</ele><time>2026-05-02T07:10:19.025Z</time></trkpt><trkpt lat="42.3163781" lon="14.0085413"><ele>114.4</ele><time>2026-05-02T07:10:20.026Z</time></trkpt><trkpt lat="42.3163113" lon="14.008616"><ele>113.0</ele><time>2026-05-02T07:10:21.026Z</time></trkpt><trkpt lat="42.3162635" lon="14.0086912"><ele>112.60000000000001</ele><time>2026-05-02T07:10:22.026Z</time></trkpt><trkpt lat="42.3162189" lon="14.008752"><ele>112.20000000000002</ele><time>2026-05-02T07:10:23.026Z</time></trkpt><trkpt lat="42.3161043" lon="14.0088606"><ele>111.8</ele><time>2026-05-02T07:10:25.026Z</time></trkpt><trkpt lat="42.3160192" lon="14.0089158"><ele>111.4</ele><time>2026-05-02T07:10:26.026Z</time></trkpt><trkpt lat="42.3159114" lon="14.0089766"><ele>111.0</ele><time>2026-05-02T07:10:27.026Z</time></trkpt><trkpt lat="42.3157914" lon="14.009054"><ele>111.0</ele><time>2026-05-02T07:10:28.026Z</time></trkpt><trkpt lat="42.3156576" lon="14.0091534"><ele>111.0</ele><time>2026-05-02T07:10:29.025Z</time></trkpt><trkpt lat="42.3155077" lon="14.0092775"><ele>111.0</ele><time>2026-05-02T07:10:30.026Z</time></trkpt><trkpt lat="42.315347" lon="14.009416"><ele>109.66666666666666</ele><time>2026-05-02T07:10:31.026Z</time></trkpt><trkpt lat="42.3151711" lon="14.0095653"><ele>108.33333333333333</ele><time>2026-05-02T07:10:32.026Z</time></trkpt><trkpt lat="42.3149839" lon="14.0097188"><ele>107.0</ele><time>2026-05-02T07:10:33.026Z</time></trkpt><trkpt lat="42.3147867" lon="14.0098776"><ele>105.5</ele><time>2026-05-02T07:10:34.026Z</time></trkpt><trkpt lat="42.3145849" lon="14.0100439"><ele>104.0</ele><time>2026-05-02T07:10:35.026Z</time></trkpt><trkpt lat="42.3143774" lon="14.0102134"><ele>104.0</ele><time>2026-05-02T07:10:36.025Z</time></trkpt><trkpt lat="42.3141822" lon="14.0103732"><ele>104.0</ele><time>2026-05-02T07:10:37.025Z</time></trkpt><trkpt lat="42.3139942" lon="14.0105262"><ele>104.0</ele><time>2026-05-02T07:10:38.026Z</time></trkpt><trkpt lat="42.3138175" lon="14.0106728"><ele>104.0</ele><time>2026-05-02T07:10:39.026Z</time></trkpt><trkpt lat="42.3136489" lon="14.0108028"><ele>104.0</ele><time>2026-05-02T07:10:40.026Z</time></trkpt><trkpt lat="42.3134816" lon="14.0109116"><ele>104.0</ele><time>2026-05-02T07:10:41.026Z</time></trkpt><trkpt lat="42.3133106" lon="14.0109924"><ele>103.33333333333333</ele><time>2026-05-02T07:10:42.026Z</time></trkpt><trkpt lat="42.3131248" lon="14.0110503"><ele>102.66666666666666</ele><time>2026-05-02T07:10:43.026Z</time></trkpt><trkpt lat="42.3129338" lon="14.0110918"><ele>102.0</ele><time>2026-05-02T07:10:44.025Z</time></trkpt><trkpt lat="42.3127373" lon="14.0111255"><ele>102.0</ele><time>2026-05-02T07:10:45.026Z</time></trkpt><trkpt lat="42.3125321" lon="14.0111487"><ele>102.0</ele><time>2026-05-02T07:10:46.026Z</time></trkpt><trkpt lat="42.3123249" lon="14.0111622"><ele>102.0</ele><time>2026-05-02T07:10:47.026Z</time></trkpt><trkpt lat="42.312111" lon="14.0111548"><ele>102.5</ele><time>2026-05-02T07:10:48.025Z</time></trkpt><trkpt lat="42.3118836" lon="14.011126"><ele>103.0</ele><time>2026-05-02T07:10:49.026Z</time></trkpt><trkpt lat="42.3116495" lon="14.0110856"><ele>103.0</ele><time>2026-05-02T07:10:50.026Z</time></trkpt><trkpt lat="42.3114096" lon="14.0110401"><ele>103.0</ele><time>2026-05-02T07:10:51.026Z</time></trkpt><trkpt lat="42.311163" lon="14.0109931"><ele>102.0</ele><time>2026-05-02T07:10:52.026Z</time></trkpt><trkpt lat="42.3109137" lon="14.0109456"><ele>101.0</ele><time>2026-05-02T07:10:53.026Z</time></trkpt><trkpt lat="42.3106611" lon="14.0108963"><ele>101.0</ele><time>2026-05-02T07:10:54.026Z</time></trkpt><trkpt lat="42.3104161" lon="14.0108519"><ele>101.0</ele><time>2026-05-02T07:10:55.026Z</time></trkpt><trkpt lat="42.3101879" lon="14.0108055"><ele>101.33333333333333</ele><time>2026-05-02T07:10:56.026Z</time></trkpt><trkpt lat="42.3099726" lon="14.0107653"><ele>101.66666666666666</ele><time>2026-05-02T07:10:57.025Z</time></trkpt><trkpt lat="42.3097687" lon="14.0107328"><ele>102.0</ele><time>2026-05-02T07:10:58.025Z</time></trkpt><trkpt lat="42.3095709" lon="14.0107004"><ele>102.33333333333334</ele><time>2026-05-02T07:10:59.026Z</time></trkpt><trkpt lat="42.3093898" lon="14.0106627"><ele>102.66666666666667</ele><time>2026-05-02T07:11:00.026Z</time></trkpt><trkpt lat="42.3092057" lon="14.010624"><ele>103.0</ele><time>2026-05-02T07:11:01.026Z</time></trkpt><trkpt lat="42.3090171" lon="14.0105849"><ele>105.33333333333334</ele><time>2026-05-02T07:11:02.025Z</time></trkpt><trkpt lat="42.3088355" lon="14.0105475"><ele>107.66666666666666</ele><time>2026-05-02T07:11:03.026Z</time></trkpt><trkpt lat="42.3086701" lon="14.0105156"><ele>110.0</ele><time>2026-05-02T07:11:04.026Z</time></trkpt><trkpt lat="42.308527" lon="14.0105005"><ele>110.0</ele><time>2026-05-02T07:11:05.025Z</time></trkpt><trkpt lat="42.3083969" lon="14.0105248"><ele>110.0</ele><time>2026-05-02T07:11:06.025Z</time></trkpt><trkpt lat="42.308265" lon="14.0105884"><ele>110.0</ele><time>2026-05-02T07:11:07.026Z</time></trkpt><trkpt lat="42.3081388" lon="14.0106885"><ele>110.0</ele><time>2026-05-02T07:11:08.026Z</time></trkpt><trkpt lat="42.3080163" lon="14.0107966"><ele>111.0</ele><time>2026-05-02T07:11:09.025Z</time></trkpt><trkpt lat="42.3078947" lon="14.0108793"><ele>112.0</ele><time>2026-05-02T07:11:10.026Z</time></trkpt><trkpt lat="42.3077649" lon="14.0109324"><ele>113.0</ele><time>2026-05-02T07:11:11.026Z</time></trkpt><trkpt lat="42.3076354" lon="14.0109804"><ele>114.0</ele><time>2026-05-02T07:11:12.026Z</time></trkpt><trkpt lat="42.3074972" lon="14.0109282"><ele>114.0</ele><time>2026-05-02T07:11:13.026Z</time></trkpt><trkpt lat="42.307347" lon="14.0108316"><ele>114.0</ele><time>2026-05-02T07:11:14.026Z</time></trkpt><trkpt lat="42.307198" lon="14.0107632"><ele>114.0</ele><time>2026-05-02T07:11:15.025Z</time></trkpt><trkpt lat="42.3070721" lon="14.0106793"><ele>116.75</ele><time>2026-05-02T07:11:16.026Z</time></trkpt><trkpt lat="42.3069692" lon="14.0105606"><ele>119.5</ele><time>2026-05-02T07:11:17.026Z</time></trkpt><trkpt lat="42.3068925" lon="14.0103953"><ele>122.25</ele><time>2026-05-02T07:11:18.026Z</time></trkpt><trkpt lat="42.3068236" lon="14.0102101"><ele>125.0</ele><time>2026-05-02T07:11:19.026Z</time></trkpt><trkpt lat="42.3067663" lon="14.0099891"><ele>126.0</ele><time>2026-05-02T07:11:20.026Z</time></trkpt><trkpt lat="42.3067011" lon="14.0097513"><ele>127.0</ele><time>2026-05-02T07:11:21.026Z</time></trkpt><trkpt lat="42.3066325" lon="14.0094971"><ele>128.0</ele><time>2026-05-02T07:11:22.026Z</time></trkpt><trkpt lat="42.3065533" lon="14.0092241"><ele>130.5</ele><time>2026-05-02T07:11:23.026Z</time></trkpt><trkpt lat="42.3064711" lon="14.0089246"><ele>133.0</ele><time>2026-05-02T07:11:24.025Z</time></trkpt><trkpt lat="42.3063819" lon="14.0086056"><ele>137.33333333333334</ele><time>2026-05-02T07:11:25.026Z</time></trkpt><trkpt lat="42.3063064" lon="14.00831"><ele>141.66666666666666</ele><time>2026-05-02T07:11:26.026Z</time></trkpt><trkpt lat="42.3062392" lon="14.0080398"><ele>146.0</ele><time>2026-05-02T07:11:27.026Z</time></trkpt><trkpt lat="42.306181" lon="14.0077968"><ele>146.0</ele><time>2026-05-02T07:11:28.026Z</time></trkpt><trkpt lat="42.3061228" lon="14.0075637"><ele>146.0</ele><time>2026-05-02T07:11:29.026Z</time></trkpt><trkpt lat="42.3060631" lon="14.0073511"><ele>146.0</ele><time>2026-05-02T07:11:30.026Z</time></trkpt><trkpt lat="42.3059924" lon="14.007146"><ele>146.66666666666666</ele><time>2026-05-02T07:11:31.025Z</time></trkpt><trkpt lat="42.3059181" lon="14.0069428"><ele>147.33333333333334</ele><time>2026-05-02T07:11:32.025Z</time></trkpt><trkpt lat="42.3058396" lon="14.0067479"><ele>148.0</ele><time>2026-05-02T07:11:33.026Z</time></trkpt><trkpt lat="42.3057567" lon="14.0065578"><ele>148.0</ele><time>2026-05-02T07:11:34.026Z</time></trkpt><trkpt lat="42.3056666" lon="14.0063939"><ele>148.0</ele><time>2026-05-02T07:11:35.026Z</time></trkpt><trkpt lat="42.3055742" lon="14.0062326"><ele>148.0</ele><time>2026-05-02T07:11:36.025Z</time></trkpt><trkpt lat="42.3054821" lon="14.0060767"><ele>148.0</ele><time>2026-05-02T07:11:37.026Z</time></trkpt><trkpt lat="42.3053909" lon="14.0059213"><ele>153.0</ele><time>2026-05-02T07:11:38.026Z</time></trkpt><trkpt lat="42.3052924" lon="14.0057583"><ele>158.0</ele><time>2026-05-02T07:11:39.025Z</time></trkpt><trkpt lat="42.3051945" lon="14.0055887"><ele>163.0</ele><time>2026-05-02T07:11:40.025Z</time></trkpt><trkpt lat="42.3051051" lon="14.0054128"><ele>163.0</ele><time>2026-05-02T07:11:41.026Z</time></trkpt><trkpt lat="42.305017" lon="14.0052156"><ele>163.0</ele><time>2026-05-02T07:11:42.026Z</time></trkpt><trkpt lat="42.3049325" lon="14.0050105"><ele>163.0</ele><time>2026-05-02T07:11:43.026Z</time></trkpt><trkpt lat="42.3048554" lon="14.0048261"><ele>162.75</ele><time>2026-05-02T07:11:44.026Z</time></trkpt><trkpt lat="42.3047843" lon="14.0046573"><ele>162.5</ele><time>2026-05-02T07:11:45.026Z</time></trkpt><trkpt lat="42.3047154" lon="14.0044948"><ele>162.25</ele><time>2026-05-02T07:11:46.026Z</time></trkpt><trkpt lat="42.304644" lon="14.0043328"><ele>162.0</ele><time>2026-05-02T07:11:47.026Z</time></trkpt><trkpt lat="42.3045681" lon="14.0041807"><ele>163.6</ele><time>2026-05-02T07:11:48.026Z</time></trkpt><trkpt lat="42.3044926" lon="14.004055"><ele>165.2</ele><time>2026-05-02T07:11:49.026Z</time></trkpt><trkpt lat="42.3044164" lon="14.0039623"><ele>166.8</ele><time>2026-05-02T07:11:50.026Z</time></trkpt><trkpt lat="42.3043297" lon="14.0038974"><ele>168.4</ele><time>2026-05-02T07:11:51.026Z</time></trkpt><trkpt lat="42.3042108" lon="14.0038412"><ele>170.0</ele><time>2026-05-02T07:11:52.026Z</time></trkpt><trkpt lat="42.3040757" lon="14.0037871"><ele>170.0</ele><time>2026-05-02T07:11:53.025Z</time></trkpt><trkpt lat="42.3039314" lon="14.0037263"><ele>170.0</ele><time>2026-05-02T07:11:54.026Z</time></trkpt><trkpt lat="42.303791" lon="14.0036599"><ele>170.0</ele><time>2026-05-02T07:11:55.026Z</time></trkpt><trkpt lat="42.303652" lon="14.0035749"><ele>169.0</ele><time>2026-05-02T07:11:56.026Z</time></trkpt><trkpt lat="42.3035261" lon="14.0034803"><ele>168.0</ele><time>2026-05-02T07:11:57.026Z</time></trkpt><trkpt lat="42.3034055" lon="14.0033933"><ele>167.0</ele><time>2026-05-02T07:11:58.025Z</time></trkpt><trkpt lat="42.3032824" lon="14.0033139"><ele>166.0</ele><time>2026-05-02T07:11:59.026Z</time></trkpt><trkpt lat="42.3031486" lon="14.0032396"><ele>167.0</ele><time>2026-05-02T07:12:00.026Z</time></trkpt><trkpt lat="42.303003" lon="14.0031762"><ele>168.0</ele><time>2026-05-02T07:12:01.026Z</time></trkpt><trkpt lat="42.3028573" lon="14.003128"><ele>169.0</ele><time>2026-05-02T07:12:02.026Z</time></trkpt><trkpt lat="42.3027073" lon="14.003107"><ele>169.0</ele><time>2026-05-02T07:12:03.026Z</time></trkpt><trkpt lat="42.3025538" lon="14.0030937"><ele>169.0</ele><time>2026-05-02T07:12:04.026Z</time></trkpt><trkpt lat="42.3023977" lon="14.0030857"><ele>169.0</ele><time>2026-05-02T07:12:05.026Z</time></trkpt><trkpt lat="42.3022474" lon="14.0030777"><ele>166.5</ele><time>2026-05-02T07:12:06.026Z</time></trkpt><trkpt lat="42.3021066" lon="14.0030695"><ele>164.0</ele><time>2026-05-02T07:12:07.026Z</time></trkpt><trkpt lat="42.3019762" lon="14.0030509"><ele>161.5</ele><time>2026-05-02T07:12:08.026Z</time></trkpt><trkpt lat="42.3018559" lon="14.003012"><ele>159.0</ele><time>2026-05-02T07:12:09.026Z</time></trkpt><trkpt lat="42.3017529" lon="14.0029504"><ele>159.0</ele><time>2026-05-02T07:12:10.025Z</time></trkpt><trkpt lat="42.301671" lon="14.0028826"><ele>159.0</ele><time>2026-05-02T07:12:11.026Z</time></trkpt><trkpt lat="42.3016043" lon="14.0028096"><ele>159.0</ele><time>2026-05-02T07:12:12.026Z</time></trkpt><trkpt lat="42.3015479" lon="14.0027445"><ele>159.0</ele><time>2026-05-02T07:12:13.026Z</time></trkpt><trkpt lat="42.3015029" lon="14.0026844"><ele>159.0</ele><time>2026-05-02T07:12:14.026Z</time></trkpt><trkpt lat="42.3014408" lon="14.0025373"><ele>159.0</ele><time>2026-05-02T07:12:16.026Z</time></trkpt><trkpt lat="42.3014166" lon="14.002433"><ele>158.2</ele><time>2026-05-02T07:12:17.026Z</time></trkpt><trkpt lat="42.3013973" lon="14.002309"><ele>157.4</ele><time>2026-05-02T07:12:18.026Z</time></trkpt><trkpt lat="42.3013814" lon="14.0021658"><ele>156.6</ele><time>2026-05-02T07:12:19.026Z</time></trkpt><trkpt lat="42.3013608" lon="14.0020129"><ele>155.8</ele><time>2026-05-02T07:12:20.026Z</time></trkpt><trkpt lat="42.3013286" lon="14.001861"><ele>155.0</ele><time>2026-05-02T07:12:21.026Z</time></trkpt><trkpt lat="42.3012815" lon="14.0017047"><ele>156.5</ele><time>2026-05-02T07:12:22.026Z</time></trkpt><trkpt lat="42.3012211" lon="14.0015415"><ele>158.0</ele><time>2026-05-02T07:12:23.026Z</time></trkpt><trkpt lat="42.3011569" lon="14.0013708"><ele>159.5</ele><time>2026-05-02T07:12:24.025Z</time></trkpt><trkpt lat="42.3010876" lon="14.001192"><ele>161.0</ele><time>2026-05-02T07:12:25.026Z</time></trkpt><trkpt lat="42.3010146" lon="14.0010157"><ele>161.0</ele><time>2026-05-02T07:12:26.026Z</time></trkpt><trkpt lat="42.3009469" lon="14.0008583"><ele>161.0</ele><time>2026-05-02T07:12:27.026Z</time></trkpt><trkpt lat="42.3008702" lon="14.0006991"><ele>161.0</ele><time>2026-05-02T07:12:28.026Z</time></trkpt><trkpt lat="42.3007877" lon="14.0005376"><ele>161.0</ele><time>2026-05-02T07:12:29.026Z</time></trkpt><trkpt lat="42.3006894" lon="14.0003874"><ele>160.25</ele><time>2026-05-02T07:12:30.026Z</time></trkpt><trkpt lat="42.3005709" lon="14.0002532"><ele>159.5</ele><time>2026-05-02T07:12:31.026Z</time></trkpt><trkpt lat="42.3004664" lon="14.0001268"><ele>158.75</ele><time>2026-05-02T07:12:32.026Z</time></trkpt><trkpt lat="42.3003775" lon="14.0000035"><ele>158.0</ele><time>2026-05-02T07:12:33.026Z</time></trkpt><trkpt lat="42.3002961" lon="13.9998709"><ele>158.0</ele><time>2026-05-02T07:12:34.026Z</time></trkpt><trkpt lat="42.300233" lon="13.9997418"><ele>158.0</ele><time>2026-05-02T07:12:35.026Z</time></trkpt><trkpt lat="42.3001788" lon="13.9996071"><ele>158.0</ele><time>2026-05-02T07:12:36.026Z</time></trkpt><trkpt lat="42.3001219" lon="13.9994665"><ele>158.0</ele><time>2026-05-02T07:12:37.026Z</time></trkpt><trkpt lat="42.3000515" lon="13.9993228"><ele>158.0</ele><time>2026-05-02T07:12:38.026Z</time></trkpt><trkpt lat="42.2999747" lon="13.9991705"><ele>158.0</ele><time>2026-05-02T07:12:39.025Z</time></trkpt><trkpt lat="42.2998874" lon="13.9990143"><ele>158.0</ele><time>2026-05-02T07:12:40.026Z</time></trkpt><trkpt lat="42.2997979" lon="13.9988484"><ele>158.0</ele><time>2026-05-02T07:12:41.026Z</time></trkpt><trkpt lat="42.2997181" lon="13.99869"><ele>158.0</ele><time>2026-05-02T07:12:42.026Z</time></trkpt><trkpt lat="42.299639" lon="13.9985369"><ele>158.0</ele><time>2026-05-02T07:12:43.025Z</time></trkpt><trkpt lat="42.299557" lon="13.9983834"><ele>158.0</ele><time>2026-05-02T07:12:44.026Z</time></trkpt><trkpt lat="42.299478" lon="13.9982391"><ele>158.0</ele><time>2026-05-02T07:12:45.026Z</time></trkpt><trkpt lat="42.2994013" lon="13.9981063"><ele>158.0</ele><time>2026-05-02T07:12:46.026Z</time></trkpt><trkpt lat="42.2993336" lon="13.997988"><ele>158.0</ele><time>2026-05-02T07:12:47.026Z</time></trkpt><trkpt lat="42.2992748" lon="13.9978665"><ele>158.0</ele><time>2026-05-02T07:12:48.026Z</time></trkpt><trkpt lat="42.2992282" lon="13.9977206"><ele>158.0</ele><time>2026-05-02T07:12:49.026Z</time></trkpt><trkpt lat="42.2991986" lon="13.9975506"><ele>158.0</ele><time>2026-05-02T07:12:50.026Z</time></trkpt><trkpt lat="42.2991754" lon="13.9973666"><ele>158.0</ele><time>2026-05-02T07:12:51.026Z</time></trkpt><trkpt lat="42.2991673" lon="13.9971915"><ele>158.0</ele><time>2026-05-02T07:12:52.026Z</time></trkpt><trkpt lat="42.2991658" lon="13.9970286"><ele>158.0</ele><time>2026-05-02T07:12:53.026Z</time></trkpt><trkpt lat="42.2991632" lon="13.9968715"><ele>158.0</ele><time>2026-05-02T07:12:54.026Z</time></trkpt><trkpt lat="42.2991413" lon="13.9967179"><ele>158.0</ele><time>2026-05-02T07:12:55.025Z</time></trkpt><trkpt lat="42.2990918" lon="13.9965729"><ele>158.0</ele><time>2026-05-02T07:12:56.026Z</time></trkpt><trkpt lat="42.2990322" lon="13.9964281"><ele>158.0</ele><time>2026-05-02T07:12:57.026Z</time></trkpt><trkpt lat="42.2989477" lon="13.9962932"><ele>156.0</ele><time>2026-05-02T07:12:58.026Z</time></trkpt><trkpt lat="42.2988516" lon="13.9961718"><ele>154.0</ele><time>2026-05-02T07:12:59.026Z</time></trkpt><trkpt lat="42.298759" lon="13.9960534"><ele>152.0</ele><time>2026-05-02T07:13:00.026Z</time></trkpt><trkpt lat="42.2986903" lon="13.9959432"><ele>150.0</ele><time>2026-05-02T07:13:01.026Z</time></trkpt><trkpt lat="42.2986438" lon="13.9958292"><ele>150.0</ele><time>2026-05-02T07:13:02.026Z</time></trkpt><trkpt lat="42.2985955" lon="13.9957089"><ele>150.0</ele><time>2026-05-02T07:13:03.026Z</time></trkpt><trkpt lat="42.2985409" lon="13.9955858"><ele>150.0</ele><time>2026-05-02T07:13:04.026Z</time></trkpt><trkpt lat="42.2984713" lon="13.9954576"><ele>150.0</ele><time>2026-05-02T07:13:05.026Z</time></trkpt><trkpt lat="42.2983964" lon="13.9953135"><ele>150.0</ele><time>2026-05-02T07:13:06.025Z</time></trkpt><trkpt lat="42.2983197" lon="13.9951567"><ele>150.0</ele><time>2026-05-02T07:13:07.026Z</time></trkpt><trkpt lat="42.2982321" lon="13.9949873"><ele>150.0</ele><time>2026-05-02T07:13:08.025Z</time></trkpt><trkpt lat="42.2981434" lon="13.9948355"><ele>150.0</ele><time>2026-05-02T07:13:09.026Z</time></trkpt><trkpt lat="42.2980527" lon="13.9947027"><ele>147.75</ele><time>2026-05-02T07:13:10.026Z</time></trkpt><trkpt lat="42.2979687" lon="13.9945736"><ele>145.5</ele><time>2026-05-02T07:13:11.025Z</time></trkpt><trkpt lat="42.2978997" lon="13.9944402"><ele>143.25</ele><time>2026-05-02T07:13:12.026Z</time></trkpt><trkpt lat="42.2978425" lon="13.9943021"><ele>141.0</ele><time>2026-05-02T07:13:13.026Z</time></trkpt><trkpt lat="42.2977815" lon="13.9941516"><ele>141.0</ele><time>2026-05-02T07:13:14.026Z</time></trkpt><trkpt lat="42.2977147" lon="13.9939955"><ele>141.0</ele><time>2026-05-02T07:13:15.026Z</time></trkpt><trkpt lat="42.2976451" lon="13.9938306"><ele>141.0</ele><time>2026-05-02T07:13:16.026Z</time></trkpt><trkpt lat="42.2975665" lon="13.9936642"><ele>141.0</ele><time>2026-05-02T07:13:17.026Z</time></trkpt><trkpt lat="42.2974829" lon="13.9934993"><ele>141.0</ele><time>2026-05-02T07:13:18.026Z</time></trkpt><trkpt lat="42.297398" lon="13.9933418"><ele>141.0</ele><time>2026-05-02T07:13:19.026Z</time></trkpt><trkpt lat="42.2973218" lon="13.993193"><ele>141.0</ele><time>2026-05-02T07:13:20.026Z</time></trkpt><trkpt lat="42.2972492" lon="13.9930492"><ele>141.0</ele><time>2026-05-02T07:13:21.026Z</time></trkpt><trkpt lat="42.2971764" lon="13.9928983"><ele>140.0</ele><time>2026-05-02T07:13:22.026Z</time></trkpt><trkpt lat="42.2971008" lon="13.9927428"><ele>139.0</ele><time>2026-05-02T07:13:23.026Z</time></trkpt><trkpt lat="42.2970261" lon="13.992597"><ele>138.0</ele><time>2026-05-02T07:13:24.026Z</time></trkpt><trkpt lat="42.296957" lon="13.9924493"><ele>137.0</ele><time>2026-05-02T07:13:25.026Z</time></trkpt><trkpt lat="42.2968981" lon="13.9922868"><ele>137.0</ele><time>2026-05-02T07:13:26.026Z</time></trkpt><trkpt lat="42.296849" lon="13.9921183"><ele>137.0</ele><time>2026-05-02T07:13:27.026Z</time></trkpt><trkpt lat="42.296803" lon="13.9919478"><ele>137.0</ele><time>2026-05-02T07:13:28.026Z</time></trkpt><trkpt lat="42.296759" lon="13.9917854"><ele>137.0</ele><time>2026-05-02T07:13:29.026Z</time></trkpt><trkpt lat="42.2967225" lon="13.9916322"><ele>137.5</ele><time>2026-05-02T07:13:30.026Z</time></trkpt><trkpt lat="42.2966925" lon="13.9914811"><ele>138.0</ele><time>2026-05-02T07:13:31.026Z</time></trkpt><trkpt lat="42.2966736" lon="13.9913274"><ele>138.5</ele><time>2026-05-02T07:13:32.026Z</time></trkpt><trkpt lat="42.2966577" lon="13.9911627"><ele>139.0</ele><time>2026-05-02T07:13:33.026Z</time></trkpt><trkpt lat="42.2966473" lon="13.9909996"><ele>138.75</ele><time>2026-05-02T07:13:34.026Z</time></trkpt><trkpt lat="42.2966385" lon="13.9908407"><ele>138.5</ele><time>2026-05-02T07:13:35.026Z</time></trkpt><trkpt lat="42.2966346" lon="13.9906851"><ele>138.25</ele><time>2026-05-02T07:13:36.026Z</time></trkpt><trkpt lat="42.2966283" lon="13.99053"><ele>138.0</ele><time>2026-05-02T07:13:37.026Z</time></trkpt><trkpt lat="42.2966012" lon="13.9903806"><ele>138.0</ele><time>2026-05-02T07:13:38.026Z</time></trkpt><trkpt lat="42.2965502" lon="13.9902454"><ele>138.0</ele><time>2026-05-02T07:13:39.025Z</time></trkpt><trkpt lat="42.2964869" lon="13.9901335"><ele>138.0</ele><time>2026-05-02T07:13:40.025Z</time></trkpt><trkpt lat="42.2964199" lon="13.9900396"><ele>138.0</ele><time>2026-05-02T07:13:41.025Z</time></trkpt><trkpt lat="42.296349" lon="13.9899645"><ele>138.0</ele><time>2026-05-02T07:13:42.026Z</time></trkpt><trkpt lat="42.2962665" lon="13.9899201"><ele>136.0</ele><time>2026-05-02T07:13:43.026Z</time></trkpt><trkpt lat="42.2961724" lon="13.9898866"><ele>134.0</ele><time>2026-05-02T07:13:44.026Z</time></trkpt><trkpt lat="42.2960734" lon="13.9898511"><ele>132.0</ele><time>2026-05-02T07:13:45.026Z</time></trkpt><trkpt lat="42.2959715" lon="13.9898089"><ele>130.0</ele><time>2026-05-02T07:13:46.026Z</time></trkpt><trkpt lat="42.2958827" lon="13.9897461"><ele>128.0</ele><time>2026-05-02T07:13:47.026Z</time></trkpt><trkpt lat="42.2958017" lon="13.9896756"><ele>128.0</ele><time>2026-05-02T07:13:48.026Z</time></trkpt><trkpt lat="42.2957198" lon="13.9896114"><ele>128.0</ele><time>2026-05-02T07:13:49.025Z</time></trkpt><trkpt lat="42.2956342" lon="13.9895463"><ele>128.0</ele><time>2026-05-02T07:13:50.026Z</time></trkpt><trkpt lat="42.2955496" lon="13.9894874"><ele>128.0</ele><time>2026-05-02T07:13:51.026Z</time></trkpt><trkpt lat="42.2954709" lon="13.9894344"><ele>128.0</ele><time>2026-05-02T07:13:52.025Z</time></trkpt><trkpt lat="42.2953971" lon="13.9893845"><ele>127.66666666666666</ele><time>2026-05-02T07:13:53.026Z</time></trkpt><trkpt lat="42.2953321" lon="13.9893457"><ele>127.33333333333333</ele><time>2026-05-02T07:13:54.026Z</time></trkpt><trkpt lat="42.2952529" lon="13.9893032"><ele>127.0</ele><time>2026-05-02T07:13:56.026Z</time></trkpt><trkpt lat="42.295185" lon="13.9892884"><ele>126.66666666666666</ele><time>2026-05-02T07:14:05.026Z</time></trkpt><trkpt lat="42.2950837" lon="13.989347"><ele>126.33333333333333</ele><time>2026-05-02T07:14:07.025Z</time></trkpt><trkpt lat="42.2949995" lon="13.9893175"><ele>126.0</ele><time>2026-05-02T07:14:09.026Z</time></trkpt><trkpt lat="42.2949569" lon="13.9891945"><ele>126.66666666666667</ele><time>2026-05-02T07:14:11.026Z</time></trkpt><trkpt lat="42.2949512" lon="13.9891038"><ele>127.33333333333334</ele><time>2026-05-02T07:14:12.026Z</time></trkpt><trkpt lat="42.2949383" lon="13.9890018"><ele>128.0</ele><time>2026-05-02T07:14:13.025Z</time></trkpt><trkpt lat="42.2949154" lon="13.9888854"><ele>128.66666666666669</ele><time>2026-05-02T07:14:14.026Z</time></trkpt><trkpt lat="42.2948862" lon="13.9887546"><ele>129.33333333333334</ele><time>2026-05-02T07:14:15.026Z</time></trkpt><trkpt lat="42.2948499" lon="13.9886104"><ele>130.0</ele><time>2026-05-02T07:14:16.026Z</time></trkpt><trkpt lat="42.2948075" lon="13.9884533"><ele>130.75</ele><time>2026-05-02T07:14:17.026Z</time></trkpt><trkpt lat="42.2947646" lon="13.988289"><ele>131.5</ele><time>2026-05-02T07:14:18.026Z</time></trkpt><trkpt lat="42.2947206" lon="13.9881166"><ele>132.25</ele><time>2026-05-02T07:14:19.026Z</time></trkpt><trkpt lat="42.2946732" lon="13.9879388"><ele>133.0</ele><time>2026-05-02T07:14:20.026Z</time></trkpt><trkpt lat="42.2946288" lon="13.9877755"><ele>133.0</ele><time>2026-05-02T07:14:21.025Z</time></trkpt><trkpt lat="42.2945859" lon="13.9876233"><ele>133.0</ele><time>2026-05-02T07:14:22.026Z</time></trkpt><trkpt lat="42.294539" lon="13.9874693"><ele>133.0</ele><time>2026-05-02T07:14:23.026Z</time></trkpt><trkpt lat="42.2944961" lon="13.9873213"><ele>133.0</ele><time>2026-05-02T07:14:24.025Z</time></trkpt><trkpt lat="42.2944548" lon="13.9871909"><ele>133.33333333333334</ele><time>2026-05-02T07:14:25.026Z</time></trkpt><trkpt lat="42.294418" lon="13.9870878"><ele>133.66666666666669</ele><time>2026-05-02T07:14:26.026Z</time></trkpt><trkpt lat="42.2943893" lon="13.9869962"><ele>134.0</ele><time>2026-05-02T07:14:27.026Z</time></trkpt><trkpt lat="42.2943814" lon="13.986844"><ele>134.33333333333334</ele><time>2026-05-02T07:14:29.026Z</time></trkpt><trkpt lat="42.2944067" lon="13.9867331"><ele>134.66666666666666</ele><time>2026-05-02T07:14:31.026Z</time></trkpt><trkpt lat="42.2943869" lon="13.9866248"><ele>135.0</ele><time>2026-05-02T07:14:33.026Z</time></trkpt><trkpt lat="42.2943546" lon="13.9865507"><ele>135.6</ele><time>2026-05-02T07:14:34.026Z</time></trkpt><trkpt lat="42.2943144" lon="13.9864455"><ele>136.2</ele><time>2026-05-02T07:14:35.025Z</time></trkpt><trkpt lat="42.2942736" lon="13.986323"><ele>136.8</ele><time>2026-05-02T07:14:36.025Z</time></trkpt><trkpt lat="42.294227" lon="13.9861828"><ele>137.4</ele><time>2026-05-02T07:14:37.026Z</time></trkpt><trkpt lat="42.2941796" lon="13.9860255"><ele>138.0</ele><time>2026-05-02T07:14:38.025Z</time></trkpt><trkpt lat="42.2941378" lon="13.9858653"><ele>138.75</ele><time>2026-05-02T07:14:39.026Z</time></trkpt><trkpt lat="42.2940936" lon="13.9857025"><ele>139.5</ele><time>2026-05-02T07:14:40.026Z</time></trkpt><trkpt lat="42.2940486" lon="13.9855391"><ele>140.25</ele><time>2026-05-02T07:14:41.025Z</time></trkpt><trkpt lat="42.2939991" lon="13.9853702"><ele>141.0</ele><time>2026-05-02T07:14:42.026Z</time></trkpt><trkpt lat="42.2939489" lon="13.9852022"><ele>142.5</ele><time>2026-05-02T07:14:43.026Z</time></trkpt><trkpt lat="42.2939001" lon="13.9850466"><ele>144.0</ele><time>2026-05-02T07:14:44.026Z</time></trkpt><trkpt lat="42.2938557" lon="13.9849019"><ele>145.5</ele><time>2026-05-02T07:14:45.026Z</time></trkpt><trkpt lat="42.2938064" lon="13.984758"><ele>147.0</ele><time>2026-05-02T07:14:46.025Z</time></trkpt><trkpt lat="42.2937451" lon="13.9846285"><ele>147.25</ele><time>2026-05-02T07:14:47.026Z</time></trkpt><trkpt lat="42.2936739" lon="13.984503"><ele>147.5</ele><time>2026-05-02T07:14:48.026Z</time></trkpt><trkpt lat="42.2936005" lon="13.9843844"><ele>147.75</ele><time>2026-05-02T07:14:49.025Z</time></trkpt><trkpt lat="42.2935304" lon="13.9842666"><ele>148.0</ele><time>2026-05-02T07:14:50.026Z</time></trkpt><trkpt lat="42.2934569" lon="13.9841527"><ele>148.5</ele><time>2026-05-02T07:14:51.026Z</time></trkpt><trkpt lat="42.293377" lon="13.9840489"><ele>149.0</ele><time>2026-05-02T07:14:52.026Z</time></trkpt><trkpt lat="42.2932904" lon="13.9839533"><ele>149.5</ele><time>2026-05-02T07:14:53.026Z</time></trkpt><trkpt lat="42.2931902" lon="13.9838711"><ele>150.0</ele><time>2026-05-02T07:14:54.026Z</time></trkpt><trkpt lat="42.2930955" lon="13.983796"><ele>152.5</ele><time>2026-05-02T07:14:55.026Z</time></trkpt><trkpt lat="42.293015" lon="13.9837007"><ele>155.0</ele><time>2026-05-02T07:14:56.026Z</time></trkpt><trkpt lat="42.2929356" lon="13.9835851"><ele>157.5</ele><time>2026-05-02T07:14:57.026Z</time></trkpt><trkpt lat="42.2928648" lon="13.9834524"><ele>160.0</ele><time>2026-05-02T07:14:58.026Z</time></trkpt><trkpt lat="42.2927915" lon="13.9833084"><ele>160.0</ele><time>2026-05-02T07:14:59.026Z</time></trkpt><trkpt lat="42.2927155" lon="13.9831602"><ele>160.0</ele><time>2026-05-02T07:15:00.026Z</time></trkpt><trkpt lat="42.2926389" lon="13.9830164"><ele>160.0</ele><time>2026-05-02T07:15:01.026Z</time></trkpt><trkpt lat="42.2925632" lon="13.9828767"><ele>160.0</ele><time>2026-05-02T07:15:02.026Z</time></trkpt><trkpt lat="42.2924901" lon="13.9827481"><ele>160.0</ele><time>2026-05-02T07:15:03.026Z</time></trkpt><trkpt lat="42.2924083" lon="13.9826074"><ele>160.0</ele><time>2026-05-02T07:15:04.026Z</time></trkpt><trkpt lat="42.2923196" lon="13.9824617"><ele>160.0</ele><time>2026-05-02T07:15:05.026Z</time></trkpt><trkpt lat="42.2922309" lon="13.9823108"><ele>160.0</ele><time>2026-05-02T07:15:06.025Z</time></trkpt><trkpt lat="42.2921498" lon="13.9821679"><ele>162.25</ele><time>2026-05-02T07:15:07.026Z</time></trkpt><trkpt lat="42.2920701" lon="13.9820396"><ele>164.5</ele><time>2026-05-02T07:15:08.026Z</time></trkpt><trkpt lat="42.2919978" lon="13.9819191"><ele>166.75</ele><time>2026-05-02T07:15:09.026Z</time></trkpt><trkpt lat="42.2919255" lon="13.9818093"><ele>169.0</ele><time>2026-05-02T07:15:10.026Z</time></trkpt><trkpt lat="42.291849" lon="13.9816983"><ele>168.6</ele><time>2026-05-02T07:15:11.026Z</time></trkpt><trkpt lat="42.2917663" lon="13.981581"><ele>168.2</ele><time>2026-05-02T07:15:12.026Z</time></trkpt><trkpt lat="42.2916887" lon="13.9814703"><ele>167.79999999999998</ele><time>2026-05-02T07:15:13.026Z</time></trkpt><trkpt lat="42.2916206" lon="13.9813755"><ele>167.39999999999998</ele><time>2026-05-02T07:15:14.026Z</time></trkpt><trkpt lat="42.2915594" lon="13.9812891"><ele>167.0</ele><time>2026-05-02T07:15:15.026Z</time></trkpt><trkpt lat="42.2915006" lon="13.9812148"><ele>167.0</ele><time>2026-05-02T07:15:16.026Z</time></trkpt><trkpt lat="42.2914435" lon="13.9811586"><ele>167.0</ele><time>2026-05-02T07:15:17.026Z</time></trkpt><trkpt lat="42.2913288" lon="13.981108"><ele>167.0</ele><time>2026-05-02T07:15:19.026Z</time></trkpt><trkpt lat="42.291214" lon="13.981097"><ele>167.0</ele><time>2026-05-02T07:15:21.026Z</time></trkpt><trkpt lat="42.2911129" lon="13.9810896"><ele>167.0</ele><time>2026-05-02T07:15:23.026Z</time></trkpt><trkpt lat="42.291006" lon="13.9810428"><ele>167.39999999999998</ele><time>2026-05-02T07:15:25.026Z</time></trkpt><trkpt lat="42.2909446" lon="13.9809737"><ele>167.79999999999998</ele><time>2026-05-02T07:15:26.026Z</time></trkpt><trkpt lat="42.2908987" lon="13.9808748"><ele>168.2</ele><time>2026-05-02T07:15:27.025Z</time></trkpt><trkpt lat="42.2908764" lon="13.9807529"><ele>168.6</ele><time>2026-05-02T07:15:28.026Z</time></trkpt><trkpt lat="42.2908716" lon="13.980607"><ele>169.0</ele><time>2026-05-02T07:15:29.026Z</time></trkpt><trkpt lat="42.2908697" lon="13.9804469"><ele>169.0</ele><time>2026-05-02T07:15:30.025Z</time></trkpt><trkpt lat="42.2908605" lon="13.9802893"><ele>169.0</ele><time>2026-05-02T07:15:31.026Z</time></trkpt><trkpt lat="42.290834" lon="13.9801403"><ele>169.0</ele><time>2026-05-02T07:15:32.025Z</time></trkpt><trkpt lat="42.2907766" lon="13.979989"><ele>169.0</ele><time>2026-05-02T07:15:33.025Z</time></trkpt><trkpt lat="42.2906915" lon="13.9798417"><ele>169.39999999999998</ele><time>2026-05-02T07:15:34.026Z</time></trkpt><trkpt lat="42.2905988" lon="13.9797217"><ele>169.8</ele><time>2026-05-02T07:15:35.026Z</time></trkpt><trkpt lat="42.2905017" lon="13.979636"><ele>170.2</ele><time>2026-05-02T07:15:36.026Z</time></trkpt><trkpt lat="42.2904061" lon="13.9795647"><ele>170.60000000000002</ele><time>2026-05-02T07:15:37.026Z</time></trkpt><trkpt lat="42.2903327" lon="13.9794854"><ele>171.0</ele><time>2026-05-02T07:15:38.026Z</time></trkpt><trkpt lat="42.2902928" lon="13.9793891"><ele>173.8</ele><time>2026-05-02T07:15:39.026Z</time></trkpt><trkpt lat="42.2902908" lon="13.979282"><ele>176.60000000000002</ele><time>2026-05-02T07:15:40.026Z</time></trkpt><trkpt lat="42.2903176" lon="13.979161"><ele>179.4</ele><time>2026-05-02T07:15:41.026Z</time></trkpt><trkpt lat="42.2903597" lon="13.9790306"><ele>182.2</ele><time>2026-05-02T07:15:42.025Z</time></trkpt><trkpt lat="42.2904064" lon="13.9788996"><ele>185.0</ele><time>2026-05-02T07:15:43.026Z</time></trkpt><trkpt lat="42.2904347" lon="13.9787821"><ele>185.0</ele><time>2026-05-02T07:15:44.026Z</time></trkpt><trkpt lat="42.2904272" lon="13.9786854"><ele>185.0</ele><time>2026-05-02T07:15:45.026Z</time></trkpt><trkpt lat="42.2903851" lon="13.9786197"><ele>185.0</ele><time>2026-05-02T07:15:46.026Z</time></trkpt><trkpt lat="42.2903191" lon="13.9785989"><ele>185.0</ele><time>2026-05-02T07:15:47.026Z</time></trkpt><trkpt lat="42.2902468" lon="13.9786169"><ele>185.0</ele><time>2026-05-02T07:15:48.026Z</time></trkpt><trkpt lat="42.2901747" lon="13.9786644"><ele>185.0</ele><time>2026-05-02T07:15:49.026Z</time></trkpt><trkpt lat="42.2900952" lon="13.9787322"><ele>185.0</ele><time>2026-05-02T07:15:50.026Z</time></trkpt><trkpt lat="42.2900015" lon="13.9788003"><ele>185.0</ele><time>2026-05-02T07:15:51.026Z</time></trkpt><trkpt lat="42.2898964" lon="13.9788565"><ele>185.0</ele><time>2026-05-02T07:15:52.026Z</time></trkpt><trkpt lat="42.2898044" lon="13.978899"><ele>185.0</ele><time>2026-05-02T07:15:53.026Z</time></trkpt><trkpt lat="42.2897182" lon="13.9789093"><ele>185.0</ele><time>2026-05-02T07:15:54.026Z</time></trkpt><trkpt lat="42.2896489" lon="13.9788687"><ele>187.6</ele><time>2026-05-02T07:15:55.026Z</time></trkpt><trkpt lat="42.2896009" lon="13.9787916"><ele>190.2</ele><time>2026-05-02T07:15:56.026Z</time></trkpt><trkpt lat="42.2895595" lon="13.9786859"><ele>192.8</ele><time>2026-05-02T07:15:57.026Z</time></trkpt><trkpt lat="42.2895286" lon="13.9785588"><ele>195.4</ele><time>2026-05-02T07:15:58.026Z</time></trkpt><trkpt lat="42.2895087" lon="13.9784258"><ele>198.0</ele><time>2026-05-02T07:15:59.025Z</time></trkpt><trkpt lat="42.2894965" lon="13.9783075"><ele>198.60000000000002</ele><time>2026-05-02T07:16:00.025Z</time></trkpt><trkpt lat="42.2894848" lon="13.9782066"><ele>199.20000000000002</ele><time>2026-05-02T07:16:01.025Z</time></trkpt><trkpt lat="42.2894552" lon="13.9780598"><ele>199.8</ele><time>2026-05-02T07:16:03.026Z</time></trkpt><trkpt lat="42.2893944" lon="13.9779407"><ele>200.4</ele><time>2026-05-02T07:16:05.026Z</time></trkpt><trkpt lat="42.2893115" lon="13.9778759"><ele>201.0</ele><time>2026-05-02T07:16:07.026Z</time></trkpt><trkpt lat="42.2892175" lon="13.9778717"><ele>201.0</ele><time>2026-05-02T07:16:09.026Z</time></trkpt><trkpt lat="42.2891155" lon="13.9779155"><ele>201.0</ele><time>2026-05-02T07:16:11.026Z</time></trkpt><trkpt lat="42.2890092" lon="13.9779868"><ele>201.0</ele><time>2026-05-02T07:16:13.026Z</time></trkpt><trkpt lat="42.2889518" lon="13.9780295"><ele>201.0</ele><time>2026-05-02T07:16:14.026Z</time></trkpt><trkpt lat="42.2888944" lon="13.9780871"><ele>201.0</ele><time>2026-05-02T07:16:15.026Z</time></trkpt><trkpt lat="42.28884" lon="13.9781571"><ele>201.0</ele><time>2026-05-02T07:16:16.026Z</time></trkpt><trkpt lat="42.2887948" lon="13.9782391"><ele>203.16666666666666</ele><time>2026-05-02T07:16:17.026Z</time></trkpt><trkpt lat="42.2887599" lon="13.9783319"><ele>205.33333333333331</ele><time>2026-05-02T07:16:18.026Z</time></trkpt><trkpt lat="42.2887317" lon="13.9784298"><ele>207.5</ele><time>2026-05-02T07:16:19.026Z</time></trkpt><trkpt lat="42.2886907" lon="13.9785225"><ele>209.66666666666666</ele><time>2026-05-02T07:16:20.026Z</time></trkpt><trkpt lat="42.2886349" lon="13.9786236"><ele>211.83333333333331</ele><time>2026-05-02T07:16:21.025Z</time></trkpt><trkpt lat="42.2885806" lon="13.9787245"><ele>214.0</ele><time>2026-05-02T07:16:22.026Z</time></trkpt><trkpt lat="42.288531" lon="13.9788173"><ele>214.0</ele><time>2026-05-02T07:16:23.026Z</time></trkpt><trkpt lat="42.2884859" lon="13.9788963"><ele>213.99999999999997</ele><time>2026-05-02T07:16:24.026Z</time></trkpt><trkpt lat="42.2884465" lon="13.9789671"><ele>213.99999999999997</ele><time>2026-05-02T07:16:25.025Z</time></trkpt><trkpt lat="42.2884162" lon="13.9791109"><ele>214.0</ele><time>2026-05-02T07:16:27.026Z</time></trkpt><trkpt lat="42.2884009" lon="13.9792863"><ele>214.0</ele><time>2026-05-02T07:16:29.026Z</time></trkpt><trkpt lat="42.2883944" lon="13.9793908"><ele>214.66666666666666</ele><time>2026-05-02T07:16:30.026Z</time></trkpt><trkpt lat="42.2883849" lon="13.9795046"><ele>215.33333333333331</ele><time>2026-05-02T07:16:31.025Z</time></trkpt><trkpt lat="42.2883761" lon="13.9796259"><ele>216.0</ele><time>2026-05-02T07:16:32.026Z</time></trkpt><trkpt lat="42.2883691" lon="13.9797441"><ele>216.66666666666669</ele><time>2026-05-02T07:16:33.025Z</time></trkpt><trkpt lat="42.2883611" lon="13.9798499"><ele>217.33333333333334</ele><time>2026-05-02T07:16:34.026Z</time></trkpt><trkpt lat="42.2883545" lon="13.9799456"><ele>218.0</ele><time>2026-05-02T07:16:35.026Z</time></trkpt><trkpt lat="42.288352" lon="13.9800452"><ele>218.42857142857144</ele><time>2026-05-02T07:16:36.026Z</time></trkpt><trkpt lat="42.2883616" lon="13.9801469"><ele>218.85714285714286</ele><time>2026-05-02T07:16:37.026Z</time></trkpt><trkpt lat="42.2883894" lon="13.9802421"><ele>219.28571428571428</ele><time>2026-05-02T07:16:38.026Z</time></trkpt><trkpt lat="42.2884225" lon="13.9803168"><ele>219.71428571428572</ele><time>2026-05-02T07:16:39.026Z</time></trkpt><trkpt lat="42.2884576" lon="13.9803899"><ele>220.14285714285714</ele><time>2026-05-02T07:16:40.026Z</time></trkpt><trkpt lat="42.2884869" lon="13.9804723"><ele>220.57142857142858</ele><time>2026-05-02T07:16:41.025Z</time></trkpt><trkpt lat="42.2885004" lon="13.9805689"><ele>221.0</ele><time>2026-05-02T07:16:42.026Z</time></trkpt><trkpt lat="42.288495" lon="13.9806595"><ele>221.00000000000003</ele><time>2026-05-02T07:16:43.026Z</time></trkpt><trkpt lat="42.2884685" lon="13.9807404"><ele>221.0</ele><time>2026-05-02T07:16:44.026Z</time></trkpt><trkpt lat="42.2883636" lon="13.9808256"><ele>221.0</ele><time>2026-05-02T07:16:46.025Z</time></trkpt><trkpt lat="42.2882549" lon="13.9808001"><ele>221.0</ele><time>2026-05-02T07:16:48.026Z</time></trkpt><trkpt lat="42.2882064" lon="13.9807431"><ele>221.00000000000003</ele><time>2026-05-02T07:16:49.026Z</time></trkpt><trkpt lat="42.2881773" lon="13.9806671"><ele>221.0</ele><time>2026-05-02T07:16:50.026Z</time></trkpt><trkpt lat="42.2881066" lon="13.9805419"><ele>225.8</ele><time>2026-05-02T07:16:52.025Z</time></trkpt><trkpt lat="42.2880041" lon="13.9805333"><ele>230.60000000000002</ele><time>2026-05-02T07:16:54.026Z</time></trkpt><trkpt lat="42.2879329" lon="13.9806336"><ele>235.4</ele><time>2026-05-02T07:16:56.026Z</time></trkpt><trkpt lat="42.2879354" lon="13.9807754"><ele>240.2</ele><time>2026-05-02T07:16:58.026Z</time></trkpt><trkpt lat="42.2879587" lon="13.9809428"><ele>245.0</ele><time>2026-05-02T07:17:00.026Z</time></trkpt><trkpt lat="42.2879696" lon="13.981035"><ele>246.33333333333334</ele><time>2026-05-02T07:17:01.026Z</time></trkpt><trkpt lat="42.2879872" lon="13.9811216"><ele>247.66666666666669</ele><time>2026-05-02T07:17:02.026Z</time></trkpt><trkpt lat="42.28801" lon="13.9812092"><ele>249.0</ele><time>2026-05-02T07:17:03.026Z</time></trkpt><trkpt lat="42.2880264" lon="13.9812932"><ele>250.33333333333331</ele><time>2026-05-02T07:17:04.026Z</time></trkpt><trkpt lat="42.2879981" lon="13.98144"><ele>251.66666666666666</ele><time>2026-05-02T07:17:06.026Z</time></trkpt><trkpt lat="42.2879006" lon="13.9814769"><ele>253.0</ele><time>2026-05-02T07:17:08.026Z</time></trkpt><trkpt lat="42.2878097" lon="13.981388"><ele>253.0</ele><time>2026-05-02T07:17:10.026Z</time></trkpt><trkpt lat="42.2877607" lon="13.9812349"><ele>253.0</ele><time>2026-05-02T07:17:12.026Z</time></trkpt><trkpt lat="42.2877035" lon="13.9811184"><ele>253.0</ele><time>2026-05-02T07:17:14.026Z</time></trkpt><trkpt lat="42.2875925" lon="13.9810842"><ele>253.0</ele><time>2026-05-02T07:17:16.026Z</time></trkpt><trkpt lat="42.2874547" lon="13.9810554"><ele>252.99999999999997</ele><time>2026-05-02T07:17:18.026Z</time></trkpt><trkpt lat="42.2873683" lon="13.9810242"><ele>253.0</ele><time>2026-05-02T07:17:19.026Z</time></trkpt><trkpt lat="42.287274" lon="13.9809931"><ele>253.0</ele><time>2026-05-02T07:17:20.026Z</time></trkpt><trkpt lat="42.2871825" lon="13.9809634"><ele>253.0</ele><time>2026-05-02T07:17:21.026Z</time></trkpt><trkpt lat="42.2871008" lon="13.9809317"><ele>252.99999999999997</ele><time>2026-05-02T07:17:22.026Z</time></trkpt><trkpt lat="42.287041" lon="13.9808942"><ele>253.0</ele><time>2026-05-02T07:17:23.026Z</time></trkpt><trkpt lat="42.2869698" lon="13.9807761"><ele>253.66666666666666</ele><time>2026-05-02T07:17:25.026Z</time></trkpt><trkpt lat="42.2869581" lon="13.9806797"><ele>254.33333333333331</ele><time>2026-05-02T07:17:26.026Z</time></trkpt><trkpt lat="42.2869585" lon="13.9805859"><ele>255.0</ele><time>2026-05-02T07:17:27.026Z</time></trkpt><trkpt lat="42.2869672" lon="13.9804847"><ele>255.66666666666669</ele><time>2026-05-02T07:17:28.026Z</time></trkpt><trkpt lat="42.2869808" lon="13.980379"><ele>256.33333333333337</ele><time>2026-05-02T07:17:29.026Z</time></trkpt><trkpt lat="42.2869885" lon="13.9802672"><ele>257.0</ele><time>2026-05-02T07:17:30.026Z</time></trkpt><trkpt lat="42.2869892" lon="13.9801466"><ele>257.0</ele><time>2026-05-02T07:17:31.025Z</time></trkpt><trkpt lat="42.2869855" lon="13.9800416"><ele>257.0</ele><time>2026-05-02T07:17:32.025Z</time></trkpt><trkpt lat="42.2869717" lon="13.9799378"><ele>257.0</ele><time>2026-05-02T07:17:33.026Z</time></trkpt><trkpt lat="42.286946" lon="13.9798368"><ele>257.0</ele><time>2026-05-02T07:17:34.025Z</time></trkpt><trkpt lat="42.2869174" lon="13.9797333"><ele>257.0</ele><time>2026-05-02T07:17:35.026Z</time></trkpt><trkpt lat="42.2868867" lon="13.9796372"><ele>257.0</ele><time>2026-05-02T07:17:36.026Z</time></trkpt><trkpt lat="42.286867" lon="13.9795544"><ele>257.1666666666667</ele><time>2026-05-02T07:17:37.026Z</time></trkpt><trkpt lat="42.2868567" lon="13.9794495"><ele>257.33333333333337</ele><time>2026-05-02T07:17:38.026Z</time></trkpt><trkpt lat="42.286852" lon="13.9793386"><ele>257.5</ele><time>2026-05-02T07:17:39.026Z</time></trkpt><trkpt lat="42.2868431" lon="13.9792325"><ele>257.6666666666667</ele><time>2026-05-02T07:17:40.025Z</time></trkpt><trkpt lat="42.2868307" lon="13.9791093"><ele>257.8333333333333</ele><time>2026-05-02T07:17:41.026Z</time></trkpt><trkpt lat="42.2868147" lon="13.9789779"><ele>258.0</ele><time>2026-05-02T07:17:42.026Z</time></trkpt><trkpt lat="42.2867972" lon="13.9788441"><ele>257.8</ele><time>2026-05-02T07:17:43.026Z</time></trkpt><trkpt lat="42.2867584" lon="13.9787104"><ele>257.6</ele><time>2026-05-02T07:17:44.026Z</time></trkpt><trkpt lat="42.2867201" lon="13.9785805"><ele>257.4</ele><time>2026-05-02T07:17:45.026Z</time></trkpt><trkpt lat="42.2866731" lon="13.9784583"><ele>257.2</ele><time>2026-05-02T07:17:46.025Z</time></trkpt><trkpt lat="42.2866189" lon="13.9783332"><ele>257.0</ele><time>2026-05-02T07:17:47.026Z</time></trkpt><trkpt lat="42.2865522" lon="13.9782308"><ele>257.0</ele><time>2026-05-02T07:17:48.025Z</time></trkpt><trkpt lat="42.2864725" lon="13.9781325"><ele>257.0</ele><time>2026-05-02T07:17:49.026Z</time></trkpt><trkpt lat="42.2863885" lon="13.9780264"><ele>257.0</ele><time>2026-05-02T07:17:50.025Z</time></trkpt><trkpt lat="42.2862937" lon="13.9779319"><ele>257.0</ele><time>2026-05-02T07:17:51.026Z</time></trkpt><trkpt lat="42.2862098" lon="13.9778259"><ele>258.4</ele><time>2026-05-02T07:17:52.026Z</time></trkpt><trkpt lat="42.286138" lon="13.9777147"><ele>259.79999999999995</ele><time>2026-05-02T07:17:53.026Z</time></trkpt><trkpt lat="42.2860642" lon="13.9776103"><ele>261.2</ele><time>2026-05-02T07:17:54.026Z</time></trkpt><trkpt lat="42.2860318" lon="13.9774903"><ele>262.59999999999997</ele><time>2026-05-02T07:17:55.026Z</time></trkpt><trkpt lat="42.2859723" lon="13.9773748"><ele>264.0</ele><time>2026-05-02T07:17:56.026Z</time></trkpt><trkpt lat="42.2858846" lon="13.9772762"><ele>264.0</ele><time>2026-05-02T07:17:57.026Z</time></trkpt><trkpt lat="42.2857951" lon="13.9771789"><ele>264.0</ele><time>2026-05-02T07:17:58.025Z</time></trkpt><trkpt lat="42.2857057" lon="13.9771075"><ele>264.0</ele><time>2026-05-02T07:17:59.026Z</time></trkpt><trkpt lat="42.2856181" lon="13.977045"><ele>264.0</ele><time>2026-05-02T07:18:00.026Z</time></trkpt><trkpt lat="42.2855392" lon="13.9769876"><ele>264.0</ele><time>2026-05-02T07:18:01.025Z</time></trkpt><trkpt lat="42.2854789" lon="13.9769451"><ele>265.0</ele><time>2026-05-02T07:18:02.026Z</time></trkpt><trkpt lat="42.2853892" lon="13.9768245"><ele>266.0</ele><time>2026-05-02T07:18:04.026Z</time></trkpt><trkpt lat="42.2853553" lon="13.976739"><ele>267.0</ele><time>2026-05-02T07:18:05.026Z</time></trkpt><trkpt lat="42.2853477" lon="13.9766381"><ele>268.0</ele><time>2026-05-02T07:18:06.026Z</time></trkpt><trkpt lat="42.2853533" lon="13.9765246"><ele>269.0</ele><time>2026-05-02T07:18:07.026Z</time></trkpt><trkpt lat="42.2853775" lon="13.9763858"><ele>269.0</ele><time>2026-05-02T07:18:08.026Z</time></trkpt><trkpt lat="42.2853983" lon="13.9762332"><ele>269.0</ele><time>2026-05-02T07:18:09.026Z</time></trkpt><trkpt lat="42.2854179" lon="13.9760828"><ele>269.0</ele><time>2026-05-02T07:18:10.025Z</time></trkpt><trkpt lat="42.2854223" lon="13.9759333"><ele>269.0</ele><time>2026-05-02T07:18:11.026Z</time></trkpt><trkpt lat="42.2854158" lon="13.9757639"><ele>270.25</ele><time>2026-05-02T07:18:12.026Z</time></trkpt><trkpt lat="42.2853965" lon="13.9755956"><ele>271.5</ele><time>2026-05-02T07:18:13.025Z</time></trkpt><trkpt lat="42.2853775" lon="13.9754289"><ele>272.75</ele><time>2026-05-02T07:18:14.025Z</time></trkpt><trkpt lat="42.2853476" lon="13.9752585"><ele>274.0</ele><time>2026-05-02T07:18:15.026Z</time></trkpt><trkpt lat="42.285312" lon="13.975091"><ele>274.5</ele><time>2026-05-02T07:18:16.025Z</time></trkpt><trkpt lat="42.2852617" lon="13.9749263"><ele>275.0</ele><time>2026-05-02T07:18:17.026Z</time></trkpt><trkpt lat="42.2851937" lon="13.9747569"><ele>275.5</ele><time>2026-05-02T07:18:18.026Z</time></trkpt><trkpt lat="42.2851175" lon="13.974596"><ele>276.0</ele><time>2026-05-02T07:18:19.026Z</time></trkpt><trkpt lat="42.2850442" lon="13.9744151"><ele>276.0</ele><time>2026-05-02T07:18:20.026Z</time></trkpt><trkpt lat="42.2849513" lon="13.9742202"><ele>276.0</ele><time>2026-05-02T07:18:21.026Z</time></trkpt><trkpt lat="42.2848614" lon="13.9740282"><ele>276.0</ele><time>2026-05-02T07:18:22.026Z</time></trkpt><trkpt lat="42.284783" lon="13.9738361"><ele>279.0</ele><time>2026-05-02T07:18:23.026Z</time></trkpt><trkpt lat="42.2847035" lon="13.9736563"><ele>282.0</ele><time>2026-05-02T07:18:24.026Z</time></trkpt><trkpt lat="42.2846406" lon="13.9735011"><ele>285.0</ele><time>2026-05-02T07:18:25.025Z</time></trkpt><trkpt lat="42.2845776" lon="13.9733496"><ele>288.0</ele><time>2026-05-02T07:18:26.026Z</time></trkpt><trkpt lat="42.2845216" lon="13.9732273"><ele>288.75</ele><time>2026-05-02T07:18:27.026Z</time></trkpt><trkpt lat="42.2844318" lon="13.9731114"><ele>289.5</ele><time>2026-05-02T07:18:28.025Z</time></trkpt><trkpt lat="42.2843107" lon="13.9730105"><ele>290.25</ele><time>2026-05-02T07:18:29.026Z</time></trkpt><trkpt lat="42.2841819" lon="13.9729028"><ele>291.0</ele><time>2026-05-02T07:18:30.026Z</time></trkpt><trkpt lat="42.284038" lon="13.9728115"><ele>292.5</ele><time>2026-05-02T07:18:31.026Z</time></trkpt><trkpt lat="42.2839092" lon="13.9727315"><ele>294.0</ele><time>2026-05-02T07:18:32.026Z</time></trkpt><trkpt lat="42.2837832" lon="13.9726638"><ele>295.5</ele><time>2026-05-02T07:18:33.026Z</time></trkpt><trkpt lat="42.2836443" lon="13.9726064"><ele>297.0</ele><time>2026-05-02T07:18:34.025Z</time></trkpt><trkpt lat="42.2835264" lon="13.9725477"><ele>296.2</ele><time>2026-05-02T07:18:35.026Z</time></trkpt><trkpt lat="42.2834148" lon="13.9725199"><ele>295.4</ele><time>2026-05-02T07:18:36.026Z</time></trkpt><trkpt lat="42.2833061" lon="13.9725181"><ele>294.6</ele><time>2026-05-02T07:18:37.026Z</time></trkpt><trkpt lat="42.2832134" lon="13.9724903"><ele>293.8</ele><time>2026-05-02T07:18:38.026Z</time></trkpt><trkpt lat="42.2831361" lon="13.9724258"><ele>293.0</ele><time>2026-05-02T07:18:39.026Z</time></trkpt><trkpt lat="42.2830716" lon="13.9723349"><ele>294.33333333333337</ele><time>2026-05-02T07:18:40.026Z</time></trkpt><trkpt lat="42.2830066" lon="13.9722273"><ele>295.6666666666667</ele><time>2026-05-02T07:18:41.026Z</time></trkpt><trkpt lat="42.2829587" lon="13.9721489"><ele>297.0</ele><time>2026-05-02T07:18:42.025Z</time></trkpt><trkpt lat="42.2829115" lon="13.9720694"><ele>298.3333333333333</ele><time>2026-05-02T07:18:44.026Z</time></trkpt><trkpt lat="42.2828791" lon="13.9719942"><ele>299.66666666666663</ele><time>2026-05-02T07:19:00.026Z</time></trkpt><trkpt lat="42.2829305" lon="13.9719176"><ele>301.0</ele><time>2026-05-02T07:19:03.026Z</time></trkpt><trkpt lat="42.2830047" lon="13.9717814"><ele>301.2</ele><time>2026-05-02T07:19:05.025Z</time></trkpt><trkpt lat="42.2830512" lon="13.9716845"><ele>301.40000000000003</ele><time>2026-05-02T07:19:06.026Z</time></trkpt><trkpt lat="42.2830937" lon="13.9715614"><ele>301.6</ele><time>2026-05-02T07:19:07.026Z</time></trkpt><trkpt lat="42.2831319" lon="13.971427"><ele>301.8</ele><time>2026-05-02T07:19:08.026Z</time></trkpt><trkpt lat="42.2831679" lon="13.9713059"><ele>302.0</ele><time>2026-05-02T07:19:09.026Z</time></trkpt><trkpt lat="42.2832197" lon="13.9711896"><ele>299.25</ele><time>2026-05-02T07:19:10.026Z</time></trkpt><trkpt lat="42.2832835" lon="13.971077"><ele>296.5</ele><time>2026-05-02T07:19:11.026Z</time></trkpt><trkpt lat="42.2833738" lon="13.970965"><ele>293.75</ele><time>2026-05-02T07:19:12.026Z</time></trkpt><trkpt lat="42.2834652" lon="13.9708662"><ele>291.0</ele><time>2026-05-02T07:19:13.026Z</time></trkpt><trkpt lat="42.2835506" lon="13.970759"><ele>290.8</ele><time>2026-05-02T07:19:14.026Z</time></trkpt><trkpt lat="42.2836358" lon="13.9706553"><ele>290.6</ele><time>2026-05-02T07:19:15.026Z</time></trkpt><trkpt lat="42.2836892" lon="13.9706061"><ele>290.4</ele><time>2026-05-02T07:19:16.025Z</time></trkpt><trkpt lat="42.2837572" lon="13.9705621"><ele>290.2</ele><time>2026-05-02T07:19:18.026Z</time></trkpt><trkpt lat="42.283828" lon="13.9705308"><ele>290.0</ele><time>2026-05-02T07:19:20.025Z</time></trkpt><trkpt lat="42.2839704" lon="13.9705128"><ele>289.4</ele><time>2026-05-02T07:19:22.026Z</time></trkpt><trkpt lat="42.2840621" lon="13.9705137"><ele>288.8</ele><time>2026-05-02T07:19:23.026Z</time></trkpt><trkpt lat="42.284163" lon="13.9705167"><ele>288.2</ele><time>2026-05-02T07:19:24.025Z</time></trkpt><trkpt lat="42.2842706" lon="13.9705055"><ele>287.6</ele><time>2026-05-02T07:19:25.026Z</time></trkpt><trkpt lat="42.2843918" lon="13.97048"><ele>287.0</ele><time>2026-05-02T07:19:26.026Z</time></trkpt><trkpt lat="42.2845318" lon="13.9704416"><ele>287.0</ele><time>2026-05-02T07:19:27.025Z</time></trkpt><trkpt lat="42.2846842" lon="13.970397"><ele>287.0</ele><time>2026-05-02T07:19:28.026Z</time></trkpt><trkpt lat="42.2848346" lon="13.9703506"><ele>287.0</ele><time>2026-05-02T07:19:29.025Z</time></trkpt><trkpt lat="42.2849708" lon="13.9703011"><ele>287.2</ele><time>2026-05-02T07:19:30.026Z</time></trkpt><trkpt lat="42.2850887" lon="13.9702624"><ele>287.4</ele><time>2026-05-02T07:19:31.026Z</time></trkpt><trkpt lat="42.2851748" lon="13.9702352"><ele>287.6</ele><time>2026-05-02T07:19:32.026Z</time></trkpt><trkpt lat="42.2852747" lon="13.9701829"><ele>287.8</ele><time>2026-05-02T07:19:34.026Z</time></trkpt><trkpt lat="42.2853505" lon="13.9700872"><ele>288.0</ele><time>2026-05-02T07:19:36.026Z</time></trkpt><trkpt lat="42.2853925" lon="13.9700136"><ele>288.0</ele><time>2026-05-02T07:19:37.026Z</time></trkpt><trkpt lat="42.2854345" lon="13.9699191"><ele>288.0</ele><time>2026-05-02T07:19:38.026Z</time></trkpt><trkpt lat="42.2854767" lon="13.9698081"><ele>288.0</ele><time>2026-05-02T07:19:39.026Z</time></trkpt><trkpt lat="42.285524" lon="13.969679"><ele>288.0</ele><time>2026-05-02T07:19:40.026Z</time></trkpt><trkpt lat="42.2855749" lon="13.9695413"><ele>288.0</ele><time>2026-05-02T07:19:41.026Z</time></trkpt><trkpt lat="42.2856312" lon="13.9693942"><ele>288.0</ele><time>2026-05-02T07:19:42.026Z</time></trkpt><trkpt lat="42.2856839" lon="13.9692538"><ele>288.0</ele><time>2026-05-02T07:19:43.026Z</time></trkpt><trkpt lat="42.2857291" lon="13.9691298"><ele>288.0</ele><time>2026-05-02T07:19:44.026Z</time></trkpt><trkpt lat="42.2857688" lon="13.9690083"><ele>288.0</ele><time>2026-05-02T07:19:45.026Z</time></trkpt><trkpt lat="42.2858082" lon="13.9688923"><ele>288.0</ele><time>2026-05-02T07:19:46.026Z</time></trkpt><trkpt lat="42.2858491" lon="13.9687858"><ele>289.6</ele><time>2026-05-02T07:19:47.026Z</time></trkpt><trkpt lat="42.2859009" lon="13.9686969"><ele>291.20000000000005</ele><time>2026-05-02T07:19:48.026Z</time></trkpt><trkpt lat="42.2859644" lon="13.9686147"><ele>292.8</ele><time>2026-05-02T07:19:49.026Z</time></trkpt><trkpt lat="42.2860321" lon="13.9685298"><ele>294.40000000000003</ele><time>2026-05-02T07:19:50.026Z</time></trkpt><trkpt lat="42.2861008" lon="13.9684408"><ele>296.0</ele><time>2026-05-02T07:19:51.026Z</time></trkpt><trkpt lat="42.2861651" lon="13.9683466"><ele>297.2</ele><time>2026-05-02T07:19:52.026Z</time></trkpt><trkpt lat="42.2862282" lon="13.9682451"><ele>298.40000000000003</ele><time>2026-05-02T07:19:53.026Z</time></trkpt><trkpt lat="42.2862874" lon="13.968142"><ele>299.6</ele><time>2026-05-02T07:19:54.026Z</time></trkpt><trkpt lat="42.2863483" lon="13.968033"><ele>300.8</ele><time>2026-05-02T07:19:55.026Z</time></trkpt><trkpt lat="42.2864086" lon="13.9679185"><ele>302.0</ele><time>2026-05-02T07:19:56.026Z</time></trkpt><trkpt lat="42.2864646" lon="13.9678004"><ele>300.8</ele><time>2026-05-02T07:19:57.026Z</time></trkpt><trkpt lat="42.2865232" lon="13.9676835"><ele>299.6</ele><time>2026-05-02T07:19:58.026Z</time></trkpt><trkpt lat="42.2865843" lon="13.9675695"><ele>298.40000000000003</ele><time>2026-05-02T07:19:59.026Z</time></trkpt><trkpt lat="42.2866444" lon="13.9674603"><ele>297.2</ele><time>2026-05-02T07:20:00.026Z</time></trkpt><trkpt lat="42.2867165" lon="13.967346"><ele>296.0</ele><time>2026-05-02T07:20:01.026Z</time></trkpt><trkpt lat="42.2867813" lon="13.9672533"><ele>296.0</ele><time>2026-05-02T07:20:02.026Z</time></trkpt><trkpt lat="42.2868453" lon="13.9671556"><ele>296.0</ele><time>2026-05-02T07:20:03.025Z</time></trkpt><trkpt lat="42.2868982" lon="13.9670656"><ele>296.0</ele><time>2026-05-02T07:20:04.026Z</time></trkpt><trkpt lat="42.2869399" lon="13.9669746"><ele>296.0</ele><time>2026-05-02T07:20:05.025Z</time></trkpt><trkpt lat="42.2869714" lon="13.9668707"><ele>296.0</ele><time>2026-05-02T07:20:06.026Z</time></trkpt><trkpt lat="42.2869819" lon="13.9667525"><ele>296.0</ele><time>2026-05-02T07:20:07.025Z</time></trkpt><trkpt lat="42.2869753" lon="13.9666355"><ele>298.75</ele><time>2026-05-02T07:20:08.026Z</time></trkpt><trkpt lat="42.2869471" lon="13.9665093"><ele>301.5</ele><time>2026-05-02T07:20:09.026Z</time></trkpt><trkpt lat="42.2869092" lon="13.9663714"><ele>304.25</ele><time>2026-05-02T07:20:10.025Z</time></trkpt><trkpt lat="42.2868669" lon="13.9662192"><ele>307.0</ele><time>2026-05-02T07:20:11.026Z</time></trkpt><trkpt lat="42.2868195" lon="13.9660628"><ele>307.0</ele><time>2026-05-02T07:20:12.026Z</time></trkpt><trkpt lat="42.2867751" lon="13.9659103"><ele>307.0</ele><time>2026-05-02T07:20:13.026Z</time></trkpt><trkpt lat="42.2867317" lon="13.9657379"><ele>307.0</ele><time>2026-05-02T07:20:14.026Z</time></trkpt><trkpt lat="42.2866826" lon="13.9655676"><ele>307.0</ele><time>2026-05-02T07:20:15.026Z</time></trkpt><trkpt lat="42.2866305" lon="13.965417"><ele>308.0</ele><time>2026-05-02T07:20:16.026Z</time></trkpt><trkpt lat="42.2865849" lon="13.9652814"><ele>309.0</ele><time>2026-05-02T07:20:17.026Z</time></trkpt><trkpt lat="42.28656" lon="13.9651454"><ele>310.0</ele><time>2026-05-02T07:20:18.025Z</time></trkpt><trkpt lat="42.2865445" lon="13.9649938"><ele>311.0</ele><time>2026-05-02T07:20:19.026Z</time></trkpt><trkpt lat="42.2865429" lon="13.9648347"><ele>312.0</ele><time>2026-05-02T07:20:20.026Z</time></trkpt><trkpt lat="42.2865478" lon="13.9646742"><ele>312.2</ele><time>2026-05-02T07:20:21.026Z</time></trkpt><trkpt lat="42.2865594" lon="13.9645284"><ele>312.4</ele><time>2026-05-02T07:20:22.026Z</time></trkpt><trkpt lat="42.2865867" lon="13.9643933"><ele>312.6</ele><time>2026-05-02T07:20:23.025Z</time></trkpt><trkpt lat="42.2866223" lon="13.9642683"><ele>312.8</ele><time>2026-05-02T07:20:24.026Z</time></trkpt><trkpt lat="42.2866732" lon="13.9641498"><ele>313.0</ele><time>2026-05-02T07:20:25.026Z</time></trkpt><trkpt lat="42.286729" lon="13.9640389"><ele>313.4</ele><time>2026-05-02T07:20:26.026Z</time></trkpt><trkpt lat="42.2867861" lon="13.963954"><ele>313.8</ele><time>2026-05-02T07:20:27.025Z</time></trkpt><trkpt lat="42.2868676" lon="13.9638415"><ele>314.2</ele><time>2026-05-02T07:20:29.026Z</time></trkpt><trkpt lat="42.286902" lon="13.9637695"><ele>314.6</ele><time>2026-05-02T07:20:30.026Z</time></trkpt><trkpt lat="42.2869283" lon="13.9636865"><ele>315.0</ele><time>2026-05-02T07:20:31.026Z</time></trkpt><trkpt lat="42.2869096" lon="13.9635031"><ele>315.0</ele><time>2026-05-02T07:20:33.026Z</time></trkpt><trkpt lat="42.2868743" lon="13.9633858"><ele>315.0</ele><time>2026-05-02T07:20:34.025Z</time></trkpt><trkpt lat="42.2868136" lon="13.9632753"><ele>315.0</ele><time>2026-05-02T07:20:35.026Z</time></trkpt><trkpt lat="42.2867528" lon="13.9631406"><ele>315.0</ele><time>2026-05-02T07:20:36.026Z</time></trkpt><trkpt lat="42.2866937" lon="13.9629835"><ele>315.0</ele><time>2026-05-02T07:20:37.026Z</time></trkpt><trkpt lat="42.2866368" lon="13.9628089"><ele>313.75</ele><time>2026-05-02T07:20:38.025Z</time></trkpt><trkpt lat="42.2865778" lon="13.9626392"><ele>312.5</ele><time>2026-05-02T07:20:39.025Z</time></trkpt><trkpt lat="42.2865156" lon="13.9624629"><ele>311.25</ele><time>2026-05-02T07:20:40.025Z</time></trkpt><trkpt lat="42.2864555" lon="13.9622861"><ele>310.0</ele><time>2026-05-02T07:20:41.026Z</time></trkpt><trkpt lat="42.2863971" lon="13.9621134"><ele>310.0</ele><time>2026-05-02T07:20:42.025Z</time></trkpt><trkpt lat="42.2863385" lon="13.9619442"><ele>310.0</ele><time>2026-05-02T07:20:43.025Z</time></trkpt><trkpt lat="42.286285" lon="13.9617758"><ele>310.0</ele><time>2026-05-02T07:20:44.025Z</time></trkpt><trkpt lat="42.2862352" lon="13.9616181"><ele>310.0</ele><time>2026-05-02T07:20:45.025Z</time></trkpt><trkpt lat="42.2861902" lon="13.9614775"><ele>309.2</ele><time>2026-05-02T07:20:46.025Z</time></trkpt><trkpt lat="42.2861552" lon="13.9613449"><ele>308.4</ele><time>2026-05-02T07:20:47.026Z</time></trkpt><trkpt lat="42.2861352" lon="13.9612092"><ele>307.6</ele><time>2026-05-02T07:20:48.026Z</time></trkpt><trkpt lat="42.2861178" lon="13.9610676"><ele>306.8</ele><time>2026-05-02T07:20:49.026Z</time></trkpt><trkpt lat="42.2861085" lon="13.96091"><ele>306.0</ele><time>2026-05-02T07:20:50.025Z</time></trkpt><trkpt lat="42.2861204" lon="13.9607506"><ele>305.5</ele><time>2026-05-02T07:20:51.026Z</time></trkpt><trkpt lat="42.2861409" lon="13.9605874"><ele>305.0</ele><time>2026-05-02T07:20:52.025Z</time></trkpt><trkpt lat="42.2861712" lon="13.960416"><ele>304.5</ele><time>2026-05-02T07:20:53.026Z</time></trkpt><trkpt lat="42.2861993" lon="13.9602515"><ele>304.0</ele><time>2026-05-02T07:20:54.026Z</time></trkpt><trkpt lat="42.2862248" lon="13.9600965"><ele>304.0</ele><time>2026-05-02T07:20:55.025Z</time></trkpt><trkpt lat="42.2862399" lon="13.9599849"><ele>304.0</ele><time>2026-05-02T07:20:56.026Z</time></trkpt><trkpt lat="42.2862465" lon="13.959896"><ele>304.0</ele><time>2026-05-02T07:20:57.026Z</time></trkpt><trkpt lat="42.2862187" lon="13.9597815"><ele>304.0</ele><time>2026-05-02T07:20:59.026Z</time></trkpt><trkpt lat="42.2861653" lon="13.9596889"><ele>304.0</ele><time>2026-05-02T07:21:01.026Z</time></trkpt><trkpt lat="42.2860911" lon="13.9596012"><ele>304.0</ele><time>2026-05-02T07:21:03.026Z</time></trkpt><trkpt lat="42.2860055" lon="13.9595382"><ele>304.0</ele><time>2026-05-02T07:21:05.026Z</time></trkpt><trkpt lat="42.2859385" lon="13.9595165"><ele>304.0</ele><time>2026-05-02T07:21:07.026Z</time></trkpt><trkpt lat="42.2858634" lon="13.9595025"><ele>304.0</ele><time>2026-05-02T07:21:09.026Z</time></trkpt><trkpt lat="42.2857788" lon="13.9594843"><ele>304.0</ele><time>2026-05-02T07:21:11.026Z</time></trkpt><trkpt lat="42.2856894" lon="13.9594622"><ele>304.0</ele><time>2026-05-02T07:21:13.026Z</time></trkpt><trkpt lat="42.2856185" lon="13.9594323"><ele>304.0</ele><time>2026-05-02T07:21:15.025Z</time></trkpt><trkpt lat="42.2855394" lon="13.9594407"><ele>304.0</ele><time>2026-05-02T07:21:18.026Z</time></trkpt><trkpt lat="42.2855925" lon="13.959492"><ele>304.0</ele><time>2026-05-02T07:21:25.026Z</time></trkpt><trkpt lat="42.285686" lon="13.9594542"><ele>304.0</ele><time>2026-05-02T07:21:27.025Z</time></trkpt><trkpt lat="42.2858051" lon="13.9594741"><ele>304.0</ele><time>2026-05-02T07:21:29.026Z</time></trkpt><trkpt lat="42.2858679" lon="13.9594915"><ele>304.0</ele><time>2026-05-02T07:21:30.026Z</time></trkpt><trkpt lat="42.2859292" lon="13.9595121"><ele>304.0</ele><time>2026-05-02T07:21:31.026Z</time></trkpt><trkpt lat="42.285991" lon="13.9595296"><ele>304.0</ele><time>2026-05-02T07:21:32.026Z</time></trkpt><trkpt lat="42.2860968" lon="13.9595931"><ele>304.0</ele><time>2026-05-02T07:21:34.026Z</time></trkpt><trkpt lat="42.2861713" lon="13.9596804"><ele>304.0</ele><time>2026-05-02T07:21:36.026Z</time></trkpt><trkpt lat="42.2862238" lon="13.959729"><ele>304.0</ele><time>2026-05-02T07:21:38.026Z</time></trkpt><trkpt lat="42.2862807" lon="13.9596615"><ele>304.0</ele><time>2026-05-02T07:21:41.026Z</time></trkpt><trkpt lat="42.2862635" lon="13.9595348"><ele>304.0</ele><time>2026-05-02T07:21:43.026Z</time></trkpt><trkpt lat="42.2862573" lon="13.959443"><ele>304.0</ele><time>2026-05-02T07:21:44.026Z</time></trkpt><trkpt lat="42.2862458" lon="13.9593466"><ele>304.0</ele><time>2026-05-02T07:21:45.026Z</time></trkpt><trkpt lat="42.2862214" lon="13.9592534"><ele>304.0</ele><time>2026-05-02T07:21:46.026Z</time></trkpt><trkpt lat="42.2861809" lon="13.9591603"><ele>304.0</ele><time>2026-05-02T07:21:47.026Z</time></trkpt><trkpt lat="42.2861238" lon="13.9590745"><ele>304.0</ele><time>2026-05-02T07:21:48.025Z</time></trkpt><trkpt lat="42.2860601" lon="13.9589868"><ele>304.0</ele><time>2026-05-02T07:21:49.026Z</time></trkpt><trkpt lat="42.2859924" lon="13.9588902"><ele>302.66666666666663</ele><time>2026-05-02T07:21:50.026Z</time></trkpt><trkpt lat="42.2859228" lon="13.9587978"><ele>301.3333333333333</ele><time>2026-05-02T07:21:51.026Z</time></trkpt><trkpt lat="42.2858548" lon="13.9587199"><ele>300.0</ele><time>2026-05-02T07:21:52.026Z</time></trkpt><trkpt lat="42.2857948" lon="13.9586456"><ele>298.6666666666667</ele><time>2026-05-02T07:21:53.025Z</time></trkpt><trkpt lat="42.2857436" lon="13.9585808"><ele>297.33333333333337</ele><time>2026-05-02T07:21:54.025Z</time></trkpt><trkpt lat="42.2856723" lon="13.9584694"><ele>296.0</ele><time>2026-05-02T07:21:56.026Z</time></trkpt><trkpt lat="42.2856532" lon="13.9583858"><ele>295.5</ele><time>2026-05-02T07:21:58.026Z</time></trkpt><trkpt lat="42.285608" lon="13.9582751"><ele>295.0</ele><time>2026-05-02T07:22:00.026Z</time></trkpt><trkpt lat="42.285556" lon="13.9582267"><ele>294.5</ele><time>2026-05-02T07:22:01.026Z</time></trkpt><trkpt lat="42.2854926" lon="13.9581854"><ele>294.0</ele><time>2026-05-02T07:22:02.026Z</time></trkpt><trkpt lat="42.2854157" lon="13.9581449"><ele>293.5</ele><time>2026-05-02T07:22:03.026Z</time></trkpt><trkpt lat="42.2853285" lon="13.95811"><ele>293.0</ele><time>2026-05-02T07:22:04.026Z</time></trkpt><trkpt lat="42.2852319" lon="13.9580858"><ele>293.0</ele><time>2026-05-02T07:22:05.026Z</time></trkpt><trkpt lat="42.2851268" lon="13.9580785"><ele>293.0</ele><time>2026-05-02T07:22:06.026Z</time></trkpt><trkpt lat="42.2850259" lon="13.9580745"><ele>293.0</ele><time>2026-05-02T07:22:07.026Z</time></trkpt><trkpt lat="42.2849322" lon="13.9580721"><ele>293.0</ele><time>2026-05-02T07:22:08.026Z</time></trkpt><trkpt lat="42.2848548" lon="13.9580689"><ele>293.0</ele><time>2026-05-02T07:22:09.025Z</time></trkpt><trkpt lat="42.2847909" lon="13.9580655"><ele>293.0</ele><time>2026-05-02T07:22:10.026Z</time></trkpt><trkpt lat="42.2846929" lon="13.9580459"><ele>293.0</ele><time>2026-05-02T07:22:12.026Z</time></trkpt><trkpt lat="42.2846184" lon="13.9580377"><ele>293.0</ele><time>2026-05-02T07:22:14.026Z</time></trkpt><trkpt lat="42.284548" lon="13.9580446"><ele>293.0</ele><time>2026-05-02T07:22:17.026Z</time></trkpt><trkpt lat="42.2845631" lon="13.9581315"><ele>293.0</ele><time>2026-05-02T07:22:21.026Z</time></trkpt><trkpt lat="42.2846303" lon="13.9581226"><ele>293.0</ele><time>2026-05-02T07:22:23.026Z</time></trkpt><trkpt lat="42.2847328" lon="13.9580607"><ele>293.0</ele><time>2026-05-02T07:22:25.025Z</time></trkpt><trkpt lat="42.2848012" lon="13.9580703"><ele>293.0</ele><time>2026-05-02T07:22:26.026Z</time></trkpt><trkpt lat="42.2848779" lon="13.9580844"><ele>293.0</ele><time>2026-05-02T07:22:27.026Z</time></trkpt><trkpt lat="42.2849606" lon="13.9580952"><ele>293.0</ele><time>2026-05-02T07:22:28.025Z</time></trkpt><trkpt lat="42.2850436" lon="13.9581015"><ele>293.0</ele><time>2026-05-02T07:22:29.026Z</time></trkpt><trkpt lat="42.2851091" lon="13.9581007"><ele>293.0</ele><time>2026-05-02T07:22:30.026Z</time></trkpt><trkpt lat="42.2851898" lon="13.9580361"><ele>293.0</ele><time>2026-05-02T07:22:32.026Z</time></trkpt><trkpt lat="42.2851781" lon="13.9579234"><ele>293.0</ele><time>2026-05-02T07:22:34.026Z</time></trkpt><trkpt lat="42.285078" lon="13.9579259"><ele>293.0</ele><time>2026-05-02T07:22:37.026Z</time></trkpt><trkpt lat="42.2849795" lon="13.9578909"><ele>293.0</ele><time>2026-05-02T07:22:39.026Z</time></trkpt><trkpt lat="42.2849109" lon="13.9578389"><ele>293.0</ele><time>2026-05-02T07:22:40.026Z</time></trkpt><trkpt lat="42.2848354" lon="13.9577931"><ele>293.0</ele><time>2026-05-02T07:22:41.025Z</time></trkpt><trkpt lat="42.2847495" lon="13.957743"><ele>292.0</ele><time>2026-05-02T07:22:42.026Z</time></trkpt><trkpt lat="42.2846613" lon="13.9576871"><ele>291.0</ele><time>2026-05-02T07:22:43.025Z</time></trkpt><trkpt lat="42.2845735" lon="13.9576299"><ele>290.0</ele><time>2026-05-02T07:22:44.025Z</time></trkpt><trkpt lat="42.2844807" lon="13.957569"><ele>289.0</ele><time>2026-05-02T07:22:45.026Z</time></trkpt><trkpt lat="42.2843824" lon="13.9574995"><ele>288.0</ele><time>2026-05-02T07:22:46.026Z</time></trkpt><trkpt lat="42.2842879" lon="13.9574226"><ele>287.25</ele><time>2026-05-02T07:22:47.026Z</time></trkpt><trkpt lat="42.2841982" lon="13.9573332"><ele>286.5</ele><time>2026-05-02T07:22:48.026Z</time></trkpt><trkpt lat="42.2841134" lon="13.9572327"><ele>285.75</ele><time>2026-05-02T07:22:49.026Z</time></trkpt><trkpt lat="42.2840305" lon="13.957124"><ele>285.0</ele><time>2026-05-02T07:22:50.026Z</time></trkpt><trkpt lat="42.2839455" lon="13.9570094"><ele>285.0</ele><time>2026-05-02T07:22:51.026Z</time></trkpt><trkpt lat="42.2838549" lon="13.9568903"><ele>285.0</ele><time>2026-05-02T07:22:52.026Z</time></trkpt><trkpt lat="42.2837574" lon="13.9567701"><ele>285.0</ele><time>2026-05-02T07:22:53.026Z</time></trkpt><trkpt lat="42.2836582" lon="13.9566385"><ele>285.0</ele><time>2026-05-02T07:22:54.026Z</time></trkpt><trkpt lat="42.2835607" lon="13.9564952"><ele>283.0</ele><time>2026-05-02T07:22:55.026Z</time></trkpt><trkpt lat="42.283468" lon="13.9563467"><ele>281.0</ele><time>2026-05-02T07:22:56.026Z</time></trkpt><trkpt lat="42.283378" lon="13.9562118"><ele>279.0</ele><time>2026-05-02T07:22:57.026Z</time></trkpt><trkpt lat="42.2832893" lon="13.9560869"><ele>277.0</ele><time>2026-05-02T07:22:58.026Z</time></trkpt><trkpt lat="42.2831973" lon="13.9559765"><ele>277.25</ele><time>2026-05-02T07:22:59.025Z</time></trkpt><trkpt lat="42.2831082" lon="13.9558689"><ele>277.5</ele><time>2026-05-02T07:23:00.026Z</time></trkpt><trkpt lat="42.2830191" lon="13.9557662"><ele>277.75</ele><time>2026-05-02T07:23:01.026Z</time></trkpt><trkpt lat="42.2829297" lon="13.9556662"><ele>278.0</ele><time>2026-05-02T07:23:02.026Z</time></trkpt><trkpt lat="42.2828417" lon="13.9555612"><ele>275.75</ele><time>2026-05-02T07:23:03.026Z</time></trkpt><trkpt lat="42.2827535" lon="13.9554524"><ele>273.5</ele><time>2026-05-02T07:23:04.026Z</time></trkpt><trkpt lat="42.2826645" lon="13.9553434"><ele>271.25</ele><time>2026-05-02T07:23:05.026Z</time></trkpt><trkpt lat="42.2825757" lon="13.9552362"><ele>269.0</ele><time>2026-05-02T07:23:06.026Z</time></trkpt><trkpt lat="42.2824896" lon="13.9551329"><ele>269.0</ele><time>2026-05-02T07:23:07.026Z</time></trkpt><trkpt lat="42.2824032" lon="13.955048"><ele>269.0</ele><time>2026-05-02T07:23:08.025Z</time></trkpt><trkpt lat="42.2822999" lon="13.9549863"><ele>269.0</ele><time>2026-05-02T07:23:09.026Z</time></trkpt><trkpt lat="42.2821859" lon="13.9549471"><ele>269.0</ele><time>2026-05-02T07:23:10.026Z</time></trkpt><trkpt lat="42.2820613" lon="13.9549322"><ele>267.0</ele><time>2026-05-02T07:23:11.026Z</time></trkpt><trkpt lat="42.2819341" lon="13.9549374"><ele>265.0</ele><time>2026-05-02T07:23:12.026Z</time></trkpt><trkpt lat="42.2818086" lon="13.954948"><ele>263.0</ele><time>2026-05-02T07:23:13.026Z</time></trkpt><trkpt lat="42.2816911" lon="13.9549454"><ele>261.0</ele><time>2026-05-02T07:23:14.026Z</time></trkpt><trkpt lat="42.2815803" lon="13.9549242"><ele>261.0</ele><time>2026-05-02T07:23:15.026Z</time></trkpt><trkpt lat="42.2814771" lon="13.9548862"><ele>261.0</ele><time>2026-05-02T07:23:16.026Z</time></trkpt><trkpt lat="42.2813778" lon="13.9548168"><ele>261.0</ele><time>2026-05-02T07:23:17.026Z</time></trkpt><trkpt lat="42.2812849" lon="13.9547218"><ele>261.0</ele><time>2026-05-02T07:23:18.025Z</time></trkpt><trkpt lat="42.281191" lon="13.9546177"><ele>260.25</ele><time>2026-05-02T07:23:19.025Z</time></trkpt><trkpt lat="42.2810894" lon="13.9545258"><ele>259.5</ele><time>2026-05-02T07:23:20.026Z</time></trkpt><trkpt lat="42.2809801" lon="13.9544529"><ele>258.75</ele><time>2026-05-02T07:23:21.026Z</time></trkpt><trkpt lat="42.2808687" lon="13.9543877"><ele>258.0</ele><time>2026-05-02T07:23:22.025Z</time></trkpt><trkpt lat="42.2807572" lon="13.9543289"><ele>258.0</ele><time>2026-05-02T07:23:23.026Z</time></trkpt><trkpt lat="42.2806446" lon="13.9542594"><ele>258.0</ele><time>2026-05-02T07:23:24.026Z</time></trkpt><trkpt lat="42.2805389" lon="13.9541764"><ele>258.0</ele><time>2026-05-02T07:23:25.025Z</time></trkpt><trkpt lat="42.280433" lon="13.954095"><ele>258.0</ele><time>2026-05-02T07:23:26.026Z</time></trkpt><trkpt lat="42.2803246" lon="13.9540293"><ele>255.2</ele><time>2026-05-02T07:23:27.026Z</time></trkpt><trkpt lat="42.280217" lon="13.9539851"><ele>252.4</ele><time>2026-05-02T07:23:28.025Z</time></trkpt><trkpt lat="42.2801185" lon="13.9539531"><ele>249.59999999999997</ele><time>2026-05-02T07:23:29.026Z</time></trkpt><trkpt lat="42.2800205" lon="13.9539307"><ele>246.79999999999998</ele><time>2026-05-02T07:23:30.026Z</time></trkpt><trkpt lat="42.2799196" lon="13.9539287"><ele>244.0</ele><time>2026-05-02T07:23:31.026Z</time></trkpt><trkpt lat="42.2798155" lon="13.9539278"><ele>243.79999999999998</ele><time>2026-05-02T07:23:32.026Z</time></trkpt><trkpt lat="42.2797162" lon="13.9538979"><ele>243.59999999999997</ele><time>2026-05-02T07:23:33.026Z</time></trkpt><trkpt lat="42.2796176" lon="13.953855"><ele>243.4</ele><time>2026-05-02T07:23:34.026Z</time></trkpt><trkpt lat="42.2795173" lon="13.9538049"><ele>243.2</ele><time>2026-05-02T07:23:35.025Z</time></trkpt><trkpt lat="42.2794137" lon="13.9537617"><ele>243.0</ele><time>2026-05-02T07:23:36.025Z</time></trkpt><trkpt lat="42.2793044" lon="13.953724"><ele>243.0</ele><time>2026-05-02T07:23:37.025Z</time></trkpt><trkpt lat="42.2791927" lon="13.9536822"><ele>243.0</ele><time>2026-05-02T07:23:38.026Z</time></trkpt><trkpt lat="42.2790675" lon="13.9536416"><ele>243.0</ele><time>2026-05-02T07:23:39.026Z</time></trkpt><trkpt lat="42.2789281" lon="13.9536027"><ele>243.0</ele><time>2026-05-02T07:23:40.026Z</time></trkpt><trkpt lat="42.2787978" lon="13.9535595"><ele>244.25</ele><time>2026-05-02T07:23:41.025Z</time></trkpt><trkpt lat="42.278674" lon="13.953508"><ele>245.5</ele><time>2026-05-02T07:23:42.025Z</time></trkpt><trkpt lat="42.2785454" lon="13.9534545"><ele>246.75</ele><time>2026-05-02T07:23:43.026Z</time></trkpt><trkpt lat="42.2784098" lon="13.9534057"><ele>248.0</ele><time>2026-05-02T07:23:44.026Z</time></trkpt><trkpt lat="42.27828" lon="13.9533673"><ele>245.25</ele><time>2026-05-02T07:23:45.026Z</time></trkpt><trkpt lat="42.27812" lon="13.9533176"><ele>242.5</ele><time>2026-05-02T07:23:46.026Z</time></trkpt><trkpt lat="42.2779917" lon="13.9532835"><ele>239.75</ele><time>2026-05-02T07:23:47.026Z</time></trkpt><trkpt lat="42.2778752" lon="13.9532534"><ele>237.0</ele><time>2026-05-02T07:23:48.025Z</time></trkpt><trkpt lat="42.2777653" lon="13.9532289"><ele>237.0</ele><time>2026-05-02T07:23:49.026Z</time></trkpt><trkpt lat="42.2776648" lon="13.9532083"><ele>237.0</ele><time>2026-05-02T07:23:50.026Z</time></trkpt><trkpt lat="42.277577" lon="13.9531864"><ele>237.0</ele><time>2026-05-02T07:23:51.026Z</time></trkpt><trkpt lat="42.2774993" lon="13.9531678"><ele>237.0</ele><time>2026-05-02T07:23:52.026Z</time></trkpt><trkpt lat="42.2774291" lon="13.953158"><ele>237.0</ele><time>2026-05-02T07:23:53.026Z</time></trkpt><trkpt lat="42.2773519" lon="13.9531139"><ele>237.0</ele><time>2026-05-02T07:23:55.026Z</time></trkpt><trkpt lat="42.2772721" lon="13.9530953"><ele>237.0</ele><time>2026-05-02T07:23:57.026Z</time></trkpt><trkpt lat="42.2772073" lon="13.9530666"><ele>237.0</ele><time>2026-05-02T07:23:59.026Z</time></trkpt><trkpt lat="42.2771926" lon="13.9529769"><ele>237.0</ele><time>2026-05-02T07:24:02.025Z</time></trkpt><trkpt lat="42.2772507" lon="13.9529375"><ele>237.0</ele><time>2026-05-02T07:24:05.026Z</time></trkpt><trkpt lat="42.2773452" lon="13.9529769"><ele>237.0</ele><time>2026-05-02T07:24:08.026Z</time></trkpt><trkpt lat="42.2774206" lon="13.9530011"><ele>237.0</ele><time>2026-05-02T07:24:09.026Z</time></trkpt><trkpt lat="42.2774968" lon="13.9530222"><ele>237.0</ele><time>2026-05-02T07:24:10.026Z</time></trkpt><trkpt lat="42.2776153" lon="13.9530278"><ele>237.0</ele><time>2026-05-02T07:24:12.026Z</time></trkpt><trkpt lat="42.2777071" lon="13.9529898"><ele>237.0</ele><time>2026-05-02T07:24:14.026Z</time></trkpt><trkpt lat="42.2777752" lon="13.9529048"><ele>237.0</ele><time>2026-05-02T07:24:16.026Z</time></trkpt><trkpt lat="42.2778301" lon="13.952798"><ele>237.0</ele><time>2026-05-02T07:24:18.026Z</time></trkpt><trkpt lat="42.2778501" lon="13.9526868"><ele>237.0</ele><time>2026-05-02T07:24:20.026Z</time></trkpt><trkpt lat="42.2778367" lon="13.9525871"><ele>237.0</ele><time>2026-05-02T07:24:22.026Z</time></trkpt><trkpt lat="42.2777885" lon="13.9524674"><ele>237.0</ele><time>2026-05-02T07:24:24.025Z</time></trkpt><trkpt lat="42.2777075" lon="13.9523741"><ele>237.0</ele><time>2026-05-02T07:24:26.026Z</time></trkpt><trkpt lat="42.2776047" lon="13.952311"><ele>237.0</ele><time>2026-05-02T07:24:28.026Z</time></trkpt><trkpt lat="42.2774985" lon="13.9522492"><ele>234.6</ele><time>2026-05-02T07:24:30.025Z</time></trkpt><trkpt lat="42.2774006" lon="13.9521766"><ele>232.2</ele><time>2026-05-02T07:24:32.026Z</time></trkpt><trkpt lat="42.2773495" lon="13.9520612"><ele>229.8</ele><time>2026-05-02T07:24:34.026Z</time></trkpt><trkpt lat="42.2773418" lon="13.9519198"><ele>227.4</ele><time>2026-05-02T07:24:36.026Z</time></trkpt><trkpt lat="42.2773418" lon="13.9517692"><ele>225.0</ele><time>2026-05-02T07:24:38.026Z</time></trkpt><trkpt lat="42.2773568" lon="13.9516479"><ele>222.6</ele><time>2026-05-02T07:24:40.026Z</time></trkpt><trkpt lat="42.2773957" lon="13.9515451"><ele>220.2</ele><time>2026-05-02T07:24:42.025Z</time></trkpt><trkpt lat="42.2774559" lon="13.9514795"><ele>217.8</ele><time>2026-05-02T07:24:44.025Z</time></trkpt><trkpt lat="42.2775489" lon="13.9514888"><ele>215.4</ele><time>2026-05-02T07:24:46.026Z</time></trkpt><trkpt lat="42.2776621" lon="13.9515295"><ele>213.0</ele><time>2026-05-02T07:24:48.025Z</time></trkpt><trkpt lat="42.2777453" lon="13.9515295"><ele>213.0</ele><time>2026-05-02T07:24:50.026Z</time></trkpt><trkpt lat="42.2777727" lon="13.9514423"><ele>213.0</ele><time>2026-05-02T07:24:52.026Z</time></trkpt><trkpt lat="42.2777305" lon="13.951346"><ele>213.0</ele><time>2026-05-02T07:24:54.026Z</time></trkpt><trkpt lat="42.2776748" lon="13.9512436"><ele>213.0</ele><time>2026-05-02T07:24:56.026Z</time></trkpt><trkpt lat="42.277612" lon="13.9511092"><ele>213.0</ele><time>2026-05-02T07:24:58.026Z</time></trkpt><trkpt lat="42.2775779" lon="13.9510316"><ele>213.0</ele><time>2026-05-02T07:24:59.026Z</time></trkpt><trkpt lat="42.2775422" lon="13.9509538"><ele>210.83333333333334</ele><time>2026-05-02T07:25:00.026Z</time></trkpt><trkpt lat="42.2775039" lon="13.9508738"><ele>208.66666666666669</ele><time>2026-05-02T07:25:01.025Z</time></trkpt><trkpt lat="42.2774611" lon="13.9507902"><ele>206.5</ele><time>2026-05-02T07:25:02.026Z</time></trkpt><trkpt lat="42.2774166" lon="13.9507023"><ele>204.33333333333334</ele><time>2026-05-02T07:25:03.026Z</time></trkpt><trkpt lat="42.2773739" lon="13.95061"><ele>202.16666666666669</ele><time>2026-05-02T07:25:04.026Z</time></trkpt><trkpt lat="42.2773356" lon="13.9505136"><ele>200.0</ele><time>2026-05-02T07:25:05.026Z</time></trkpt><trkpt lat="42.2772903" lon="13.95042"><ele>200.16666666666669</ele><time>2026-05-02T07:25:06.025Z</time></trkpt><trkpt lat="42.2772397" lon="13.9503312"><ele>200.33333333333334</ele><time>2026-05-02T07:25:07.026Z</time></trkpt><trkpt lat="42.2771848" lon="13.9502467"><ele>200.5</ele><time>2026-05-02T07:25:08.026Z</time></trkpt><trkpt lat="42.2771265" lon="13.9501696"><ele>200.66666666666669</ele><time>2026-05-02T07:25:09.026Z</time></trkpt><trkpt lat="42.2770708" lon="13.9501078"><ele>200.83333333333334</ele><time>2026-05-02T07:25:10.025Z</time></trkpt><trkpt lat="42.2770151" lon="13.9500657"><ele>201.0</ele><time>2026-05-02T07:25:11.026Z</time></trkpt><trkpt lat="42.2769273" lon="13.9500022"><ele>199.4</ele><time>2026-05-02T07:25:13.026Z</time></trkpt><trkpt lat="42.2769138" lon="13.9498802"><ele>197.8</ele><time>2026-05-02T07:25:16.025Z</time></trkpt><trkpt lat="42.2769916" lon="13.9498447"><ele>196.20000000000002</ele><time>2026-05-02T07:25:18.026Z</time></trkpt><trkpt lat="42.277115" lon="13.9498552"><ele>194.60000000000002</ele><time>2026-05-02T07:25:20.026Z</time></trkpt><trkpt lat="42.2771829" lon="13.9498616"><ele>193.0</ele><time>2026-05-02T07:25:21.026Z</time></trkpt><trkpt lat="42.2772981" lon="13.9498273"><ele>193.0</ele><time>2026-05-02T07:25:23.026Z</time></trkpt><trkpt lat="42.2773785" lon="13.9497097"><ele>193.0</ele><time>2026-05-02T07:25:25.025Z</time></trkpt><trkpt lat="42.2774023" lon="13.94955"><ele>193.0</ele><time>2026-05-02T07:25:27.026Z</time></trkpt><trkpt lat="42.2773599" lon="13.9493991"><ele>193.0</ele><time>2026-05-02T07:25:29.026Z</time></trkpt><trkpt lat="42.2772578" lon="13.949307"><ele>193.00000000000003</ele><time>2026-05-02T07:25:31.026Z</time></trkpt><trkpt lat="42.2771901" lon="13.9492818"><ele>193.0</ele><time>2026-05-02T07:25:32.026Z</time></trkpt><trkpt lat="42.2771151" lon="13.9492774"><ele>193.0</ele><time>2026-05-02T07:25:33.026Z</time></trkpt><trkpt lat="42.2770488" lon="13.9492505"><ele>193.0</ele><time>2026-05-02T07:25:34.026Z</time></trkpt><trkpt lat="42.2769896" lon="13.9491966"><ele>193.0</ele><time>2026-05-02T07:25:35.026Z</time></trkpt><trkpt lat="42.2769284" lon="13.9491339"><ele>193.00000000000003</ele><time>2026-05-02T07:25:36.026Z</time></trkpt><trkpt lat="42.2768642" lon="13.9490642"><ele>193.0</ele><time>2026-05-02T07:25:37.026Z</time></trkpt><trkpt lat="42.2767986" lon="13.9489951"><ele>191.83333333333331</ele><time>2026-05-02T07:25:38.026Z</time></trkpt><trkpt lat="42.2767397" lon="13.9489276"><ele>190.66666666666666</ele><time>2026-05-02T07:25:39.026Z</time></trkpt><trkpt lat="42.2766943" lon="13.9488441"><ele>189.5</ele><time>2026-05-02T07:25:40.026Z</time></trkpt><trkpt lat="42.2766577" lon="13.9487475"><ele>188.33333333333331</ele><time>2026-05-02T07:25:41.025Z</time></trkpt><trkpt lat="42.2766234" lon="13.9486426"><ele>187.16666666666666</ele><time>2026-05-02T07:25:42.026Z</time></trkpt><trkpt lat="42.276592" lon="13.9485236"><ele>186.0</ele><time>2026-05-02T07:25:43.026Z</time></trkpt><trkpt lat="42.2765612" lon="13.948394"><ele>187.0</ele><time>2026-05-02T07:25:44.026Z</time></trkpt><trkpt lat="42.2765387" lon="13.9482664"><ele>188.0</ele><time>2026-05-02T07:25:45.025Z</time></trkpt><trkpt lat="42.2765258" lon="13.9481373"><ele>189.0</ele><time>2026-05-02T07:25:46.026Z</time></trkpt><trkpt lat="42.276508" lon="13.948009"><ele>190.0</ele><time>2026-05-02T07:25:47.026Z</time></trkpt><trkpt lat="42.2764848" lon="13.9478769"><ele>191.0</ele><time>2026-05-02T07:25:48.026Z</time></trkpt><trkpt lat="42.2764676" lon="13.9477493"><ele>191.0</ele><time>2026-05-02T07:25:49.026Z</time></trkpt><trkpt lat="42.2764508" lon="13.9476235"><ele>191.0</ele><time>2026-05-02T07:25:50.026Z</time></trkpt><trkpt lat="42.2764285" lon="13.9474906"><ele>191.0</ele><time>2026-05-02T07:25:51.026Z</time></trkpt><trkpt lat="42.2764046" lon="13.9473507"><ele>191.0</ele><time>2026-05-02T07:25:52.026Z</time></trkpt><trkpt lat="42.2763869" lon="13.9472187"><ele>191.0</ele><time>2026-05-02T07:25:53.026Z</time></trkpt><trkpt lat="42.2763714" lon="13.9470875"><ele>191.60000000000002</ele><time>2026-05-02T07:25:54.026Z</time></trkpt><trkpt lat="42.276353" lon="13.9469572"><ele>192.2</ele><time>2026-05-02T07:25:55.026Z</time></trkpt><trkpt lat="42.2763302" lon="13.9468243"><ele>192.8</ele><time>2026-05-02T07:25:56.025Z</time></trkpt><trkpt lat="42.2763074" lon="13.9466939"><ele>193.39999999999998</ele><time>2026-05-02T07:25:57.026Z</time></trkpt><trkpt lat="42.276286" lon="13.9465641"><ele>194.0</ele><time>2026-05-02T07:25:58.026Z</time></trkpt><trkpt lat="42.2762621" lon="13.9464374"><ele>194.0</ele><time>2026-05-02T07:25:59.025Z</time></trkpt><trkpt lat="42.2762245" lon="13.9463232"><ele>194.0</ele><time>2026-05-02T07:26:00.026Z</time></trkpt><trkpt lat="42.2761752" lon="13.9462246"><ele>194.0</ele><time>2026-05-02T07:26:01.026Z</time></trkpt><trkpt lat="42.2761032" lon="13.9461496"><ele>194.0</ele><time>2026-05-02T07:26:02.026Z</time></trkpt><trkpt lat="42.27602" lon="13.9460905"><ele>194.0</ele><time>2026-05-02T07:26:03.026Z</time></trkpt><trkpt lat="42.2759364" lon="13.9460305"><ele>194.0</ele><time>2026-05-02T07:26:04.026Z</time></trkpt><trkpt lat="42.2758452" lon="13.9459691"><ele>194.0</ele><time>2026-05-02T07:26:05.026Z</time></trkpt><trkpt lat="42.2757522" lon="13.9459066"><ele>194.0</ele><time>2026-05-02T07:26:06.026Z</time></trkpt><trkpt lat="42.2756667" lon="13.9458508"><ele>194.0</ele><time>2026-05-02T07:26:07.026Z</time></trkpt><trkpt lat="42.2755922" lon="13.9457888"><ele>194.0</ele><time>2026-05-02T07:26:08.026Z</time></trkpt><trkpt lat="42.275533" lon="13.94572"><ele>193.83333333333334</ele><time>2026-05-02T07:26:09.025Z</time></trkpt><trkpt lat="42.2754939" lon="13.9456458"><ele>193.66666666666669</ele><time>2026-05-02T07:26:10.026Z</time></trkpt><trkpt lat="42.2754762" lon="13.9454943"><ele>193.5</ele><time>2026-05-02T07:26:12.026Z</time></trkpt><trkpt lat="42.2755305" lon="13.945384"><ele>193.33333333333331</ele><time>2026-05-02T07:26:14.026Z</time></trkpt><trkpt lat="42.275629" lon="13.9453597"><ele>193.16666666666666</ele><time>2026-05-02T07:26:16.026Z</time></trkpt><trkpt lat="42.2756908" lon="13.9453391"><ele>193.0</ele><time>2026-05-02T07:26:17.026Z</time></trkpt><trkpt lat="42.2757607" lon="13.9453243"><ele>196.2</ele><time>2026-05-02T07:26:18.026Z</time></trkpt><trkpt lat="42.2758437" lon="13.9453068"><ele>199.4</ele><time>2026-05-02T07:26:19.026Z</time></trkpt><trkpt lat="42.2759377" lon="13.9452844"><ele>202.6</ele><time>2026-05-02T07:26:20.025Z</time></trkpt><trkpt lat="42.2760379" lon="13.9452614"><ele>205.79999999999998</ele><time>2026-05-02T07:26:21.025Z</time></trkpt><trkpt lat="42.2761422" lon="13.9452394"><ele>209.0</ele><time>2026-05-02T07:26:22.025Z</time></trkpt><trkpt lat="42.2762431" lon="13.9452224"><ele>209.0</ele><time>2026-05-02T07:26:23.025Z</time></trkpt><trkpt lat="42.2763403" lon="13.9452023"><ele>209.0</ele><time>2026-05-02T07:26:24.026Z</time></trkpt><trkpt lat="42.2764388" lon="13.9451802"><ele>209.0</ele><time>2026-05-02T07:26:25.026Z</time></trkpt><trkpt lat="42.2765321" lon="13.9451615"><ele>209.0</ele><time>2026-05-02T07:26:26.026Z</time></trkpt><trkpt lat="42.2766215" lon="13.9451409"><ele>209.0</ele><time>2026-05-02T07:26:27.026Z</time></trkpt><trkpt lat="42.2767096" lon="13.9451251"><ele>210.33333333333334</ele><time>2026-05-02T07:26:28.025Z</time></trkpt><trkpt lat="42.2768003" lon="13.9451005"><ele>211.66666666666669</ele><time>2026-05-02T07:26:29.025Z</time></trkpt><trkpt lat="42.2768845" lon="13.9450593"><ele>213.0</ele><time>2026-05-02T07:26:30.026Z</time></trkpt><trkpt lat="42.2769465" lon="13.9449966"><ele>214.33333333333331</ele><time>2026-05-02T07:26:31.026Z</time></trkpt><trkpt lat="42.2769924" lon="13.9449151"><ele>215.66666666666666</ele><time>2026-05-02T07:26:32.026Z</time></trkpt><trkpt lat="42.2770224" lon="13.9448282"><ele>217.0</ele><time>2026-05-02T07:26:33.026Z</time></trkpt><trkpt lat="42.2770491" lon="13.9447239"><ele>217.71428571428572</ele><time>2026-05-02T07:26:34.025Z</time></trkpt><trkpt lat="42.2770721" lon="13.9446149"><ele>218.42857142857144</ele><time>2026-05-02T07:26:35.026Z</time></trkpt><trkpt lat="42.2770915" lon="13.9445121"><ele>219.14285714285714</ele><time>2026-05-02T07:26:36.026Z</time></trkpt><trkpt lat="42.2771124" lon="13.9444147"><ele>219.85714285714286</ele><time>2026-05-02T07:26:37.026Z</time></trkpt><trkpt lat="42.277133" lon="13.9443196"><ele>220.57142857142858</ele><time>2026-05-02T07:26:38.026Z</time></trkpt><trkpt lat="42.2771477" lon="13.9442317"><ele>221.28571428571428</ele><time>2026-05-02T07:26:39.026Z</time></trkpt><trkpt lat="42.2771555" lon="13.9441417"><ele>222.0</ele><time>2026-05-02T07:26:40.026Z</time></trkpt><trkpt lat="42.277165" lon="13.9440443"><ele>222.16666666666666</ele><time>2026-05-02T07:26:41.026Z</time></trkpt><trkpt lat="42.2771792" lon="13.9439396"><ele>222.33333333333331</ele><time>2026-05-02T07:26:42.026Z</time></trkpt><trkpt lat="42.2771882" lon="13.943837"><ele>222.5</ele><time>2026-05-02T07:26:43.026Z</time></trkpt><trkpt lat="42.2771866" lon="13.9437364"><ele>222.66666666666666</ele><time>2026-05-02T07:26:44.025Z</time></trkpt><trkpt lat="42.2771746" lon="13.943634"><ele>222.83333333333331</ele><time>2026-05-02T07:26:45.026Z</time></trkpt><trkpt lat="42.2771649" lon="13.9435334"><ele>223.0</ele><time>2026-05-02T07:26:46.026Z</time></trkpt><trkpt lat="42.277151" lon="13.943435"><ele>223.85714285714286</ele><time>2026-05-02T07:26:47.026Z</time></trkpt><trkpt lat="42.2771199" lon="13.9433408"><ele>224.71428571428572</ele><time>2026-05-02T07:26:48.026Z</time></trkpt><trkpt lat="42.2770799" lon="13.9432587"><ele>225.57142857142856</ele><time>2026-05-02T07:26:49.026Z</time></trkpt><trkpt lat="42.2770321" lon="13.9431883"><ele>226.42857142857144</ele><time>2026-05-02T07:26:50.026Z</time></trkpt><trkpt lat="42.27698" lon="13.9431304"><ele>227.2857142857143</ele><time>2026-05-02T07:26:51.026Z</time></trkpt><trkpt lat="42.2769211" lon="13.9430809"><ele>228.14285714285714</ele><time>2026-05-02T07:26:52.026Z</time></trkpt><trkpt lat="42.27686" lon="13.9430451"><ele>229.0</ele><time>2026-05-02T07:26:53.026Z</time></trkpt><trkpt lat="42.27675" lon="13.9429956"><ele>228.99999999999997</ele><time>2026-05-02T07:26:55.026Z</time></trkpt><trkpt lat="42.276625" lon="13.942958"><ele>229.0</ele><time>2026-05-02T07:26:57.026Z</time></trkpt><trkpt lat="42.2765553" lon="13.9429382"><ele>229.0</ele><time>2026-05-02T07:26:58.026Z</time></trkpt><trkpt lat="42.2764855" lon="13.942929"><ele>229.0</ele><time>2026-05-02T07:26:59.026Z</time></trkpt><trkpt lat="42.2764178" lon="13.9429209"><ele>228.99999999999997</ele><time>2026-05-02T07:27:00.026Z</time></trkpt><trkpt lat="42.2763459" lon="13.942901"><ele>229.0</ele><time>2026-05-02T07:27:01.026Z</time></trkpt><trkpt lat="42.2762788" lon="13.9428779"><ele>229.49999999999997</ele><time>2026-05-02T07:27:02.026Z</time></trkpt><trkpt lat="42.2761705" lon="13.9428071"><ele>230.0</ele><time>2026-05-02T07:27:04.026Z</time></trkpt><trkpt lat="42.2761276" lon="13.9427436"><ele>230.5</ele><time>2026-05-02T07:27:05.026Z</time></trkpt><trkpt lat="42.2760963" lon="13.9426664"><ele>231.0</ele><time>2026-05-02T07:27:06.026Z</time></trkpt><trkpt lat="42.2760616" lon="13.9425645"><ele>231.49999999999997</ele><time>2026-05-02T07:27:07.026Z</time></trkpt><trkpt lat="42.2760236" lon="13.9424519"><ele>232.0</ele><time>2026-05-02T07:27:08.026Z</time></trkpt><trkpt lat="42.2759881" lon="13.9423274"><ele>231.99999999999997</ele><time>2026-05-02T07:27:09.026Z</time></trkpt><trkpt lat="42.275953" lon="13.9422107"><ele>232.0</ele><time>2026-05-02T07:27:10.026Z</time></trkpt><trkpt lat="42.2759164" lon="13.9421046"><ele>232.0</ele><time>2026-05-02T07:27:11.026Z</time></trkpt><trkpt lat="42.2758851" lon="13.9420057"><ele>232.0</ele><time>2026-05-02T07:27:12.026Z</time></trkpt><trkpt lat="42.2758573" lon="13.94191"><ele>231.99999999999997</ele><time>2026-05-02T07:27:13.026Z</time></trkpt><trkpt lat="42.2758247" lon="13.9418167"><ele>232.0</ele><time>2026-05-02T07:27:14.026Z</time></trkpt><trkpt lat="42.2757901" lon="13.9417267"><ele>234.16666666666666</ele><time>2026-05-02T07:27:15.026Z</time></trkpt><trkpt lat="42.2757575" lon="13.9416424"><ele>236.33333333333331</ele><time>2026-05-02T07:27:16.026Z</time></trkpt><trkpt lat="42.2757279" lon="13.941567"><ele>238.5</ele><time>2026-05-02T07:27:17.025Z</time></trkpt><trkpt lat="42.275706" lon="13.9413992"><ele>240.66666666666669</ele><time>2026-05-02T07:27:19.026Z</time></trkpt><trkpt lat="42.2756893" lon="13.9412762"><ele>242.83333333333334</ele><time>2026-05-02T07:27:21.025Z</time></trkpt><trkpt lat="42.2756614" lon="13.9411794"><ele>245.0</ele><time>2026-05-02T07:27:59.026Z</time></trkpt><trkpt lat="42.2756334" lon="13.9410892"><ele>245.00000000000003</ele><time>2026-05-02T07:28:01.025Z</time></trkpt><trkpt lat="42.2756103" lon="13.9409406"><ele>245.0</ele><time>2026-05-02T07:28:03.025Z</time></trkpt><trkpt lat="42.2755984" lon="13.9408514"><ele>245.0</ele><time>2026-05-02T07:28:04.026Z</time></trkpt><trkpt lat="42.2755934" lon="13.9407588"><ele>245.0</ele><time>2026-05-02T07:28:05.026Z</time></trkpt><trkpt lat="42.2755931" lon="13.9406133"><ele>245.00000000000003</ele><time>2026-05-02T07:28:07.026Z</time></trkpt><trkpt lat="42.2756023" lon="13.9404959"><ele>245.0</ele><time>2026-05-02T07:28:09.025Z</time></trkpt><trkpt lat="42.2756137" lon="13.9403773"><ele>245.6</ele><time>2026-05-02T07:28:11.026Z</time></trkpt><trkpt lat="42.2756307" lon="13.9402476"><ele>246.2</ele><time>2026-05-02T07:28:13.026Z</time></trkpt><trkpt lat="42.2756437" lon="13.9401402"><ele>246.8</ele><time>2026-05-02T07:28:15.026Z</time></trkpt><trkpt lat="42.2755671" lon="13.9400897"><ele>247.4</ele><time>2026-05-02T07:28:19.026Z</time></trkpt><trkpt lat="42.2754814" lon="13.9401273"><ele>248.0</ele><time>2026-05-02T07:28:21.026Z</time></trkpt><trkpt lat="42.2753657" lon="13.9401875"><ele>245.33333333333334</ele><time>2026-05-02T07:28:23.026Z</time></trkpt><trkpt lat="42.2753025" lon="13.9402203"><ele>242.66666666666669</ele><time>2026-05-02T07:28:24.026Z</time></trkpt><trkpt lat="42.2752346" lon="13.9402606"><ele>240.0</ele><time>2026-05-02T07:28:25.025Z</time></trkpt><trkpt lat="42.2751679" lon="13.940307"><ele>237.33333333333331</ele><time>2026-05-02T07:28:26.026Z</time></trkpt><trkpt lat="42.2751028" lon="13.9403587"><ele>234.66666666666666</ele><time>2026-05-02T07:28:27.026Z</time></trkpt><trkpt lat="42.2750296" lon="13.9404126"><ele>232.0</ele><time>2026-05-02T07:28:28.026Z</time></trkpt><trkpt lat="42.274952" lon="13.9404604"><ele>232.0</ele><time>2026-05-02T07:28:29.026Z</time></trkpt><trkpt lat="42.2748728" lon="13.940516"><ele>232.0</ele><time>2026-05-02T07:28:30.026Z</time></trkpt><trkpt lat="42.2747891" lon="13.9405701"><ele>232.0</ele><time>2026-05-02T07:28:31.025Z</time></trkpt><trkpt lat="42.274706" lon="13.940613"><ele>232.0</ele><time>2026-05-02T07:28:32.026Z</time></trkpt><trkpt lat="42.2746205" lon="13.9406551"><ele>232.0</ele><time>2026-05-02T07:28:33.026Z</time></trkpt><trkpt lat="42.2745364" lon="13.9406947"><ele>230.0</ele><time>2026-05-02T07:28:34.026Z</time></trkpt><trkpt lat="42.2744504" lon="13.9407312"><ele>228.0</ele><time>2026-05-02T07:28:35.026Z</time></trkpt><trkpt lat="42.2743628" lon="13.9407648"><ele>226.0</ele><time>2026-05-02T07:28:36.026Z</time></trkpt><trkpt lat="42.2742739" lon="13.9407906"><ele>224.0</ele><time>2026-05-02T07:28:37.026Z</time></trkpt><trkpt lat="42.2741861" lon="13.9408066"><ele>222.0</ele><time>2026-05-02T07:28:38.026Z</time></trkpt><trkpt lat="42.2740971" lon="13.9408156"><ele>222.0</ele><time>2026-05-02T07:28:39.026Z</time></trkpt><trkpt lat="42.2740078" lon="13.9408067"><ele>222.0</ele><time>2026-05-02T07:28:40.026Z</time></trkpt><trkpt lat="42.2739165" lon="13.9407843"><ele>222.0</ele><time>2026-05-02T07:28:41.026Z</time></trkpt><trkpt lat="42.2738244" lon="13.9407601"><ele>222.0</ele><time>2026-05-02T07:28:42.026Z</time></trkpt><trkpt lat="42.2737313" lon="13.9407357"><ele>222.0</ele><time>2026-05-02T07:28:43.026Z</time></trkpt><trkpt lat="42.2736387" lon="13.9407113"><ele>219.2</ele><time>2026-05-02T07:28:44.026Z</time></trkpt><trkpt lat="42.273545" lon="13.9406855"><ele>216.39999999999998</ele><time>2026-05-02T07:28:45.025Z</time></trkpt><trkpt lat="42.2734513" lon="13.9406622"><ele>213.60000000000002</ele><time>2026-05-02T07:28:46.026Z</time></trkpt><trkpt lat="42.2733568" lon="13.9406408"><ele>210.8</ele><time>2026-05-02T07:28:47.026Z</time></trkpt><trkpt lat="42.2732558" lon="13.9406224"><ele>208.0</ele><time>2026-05-02T07:28:48.025Z</time></trkpt><trkpt lat="42.2731529" lon="13.9406034"><ele>205.8</ele><time>2026-05-02T07:28:49.025Z</time></trkpt><trkpt lat="42.2730485" lon="13.9405791"><ele>203.60000000000002</ele><time>2026-05-02T07:28:50.026Z</time></trkpt><trkpt lat="42.2729435" lon="13.9405562"><ele>201.39999999999998</ele><time>2026-05-02T07:28:51.025Z</time></trkpt><trkpt lat="42.2728392" lon="13.9405359"><ele>199.2</ele><time>2026-05-02T07:28:52.026Z</time></trkpt><trkpt lat="42.2727422" lon="13.9405195"><ele>197.0</ele><time>2026-05-02T07:28:53.026Z</time></trkpt><trkpt lat="42.2726512" lon="13.9405065"><ele>197.0</ele><time>2026-05-02T07:28:54.026Z</time></trkpt><trkpt lat="42.2725662" lon="13.9404962"><ele>197.0</ele><time>2026-05-02T07:28:55.026Z</time></trkpt><trkpt lat="42.2724969" lon="13.9404831"><ele>197.0</ele><time>2026-05-02T07:28:56.026Z</time></trkpt><trkpt lat="42.272407" lon="13.9404289"><ele>197.0</ele><time>2026-05-02T07:28:58.026Z</time></trkpt><trkpt lat="42.2723983" lon="13.9403104"><ele>197.0</ele><time>2026-05-02T07:29:00.026Z</time></trkpt><trkpt lat="42.2724711" lon="13.940187"><ele>197.00000000000003</ele><time>2026-05-02T07:29:02.026Z</time></trkpt><trkpt lat="42.2725301" lon="13.9401152"><ele>197.0</ele><time>2026-05-02T07:29:03.026Z</time></trkpt><trkpt lat="42.2725858" lon="13.9400387"><ele>197.0</ele><time>2026-05-02T07:29:04.025Z</time></trkpt><trkpt lat="42.2726425" lon="13.9399657"><ele>197.0</ele><time>2026-05-02T07:29:05.026Z</time></trkpt><trkpt lat="42.272703" lon="13.9398898"><ele>197.00000000000003</ele><time>2026-05-02T07:29:06.026Z</time></trkpt><trkpt lat="42.2727633" lon="13.9398135"><ele>197.0</ele><time>2026-05-02T07:29:07.026Z</time></trkpt><trkpt lat="42.2728213" lon="13.9397435"><ele>196.85714285714286</ele><time>2026-05-02T07:29:08.026Z</time></trkpt><trkpt lat="42.2728666" lon="13.9396797"><ele>196.71428571428572</ele><time>2026-05-02T07:29:09.026Z</time></trkpt><trkpt lat="42.2729047" lon="13.9396104"><ele>196.57142857142856</ele><time>2026-05-02T07:29:10.025Z</time></trkpt><trkpt lat="42.2729347" lon="13.9395311"><ele>196.42857142857144</ele><time>2026-05-02T07:29:11.026Z</time></trkpt><trkpt lat="42.2729466" lon="13.9394432"><ele>196.28571428571428</ele><time>2026-05-02T07:29:12.026Z</time></trkpt><trkpt lat="42.2729399" lon="13.9393526"><ele>196.14285714285714</ele><time>2026-05-02T07:29:13.026Z</time></trkpt><trkpt lat="42.2729184" lon="13.9392623"><ele>196.0</ele><time>2026-05-02T07:29:14.026Z</time></trkpt><trkpt lat="42.2728871" lon="13.9391833"><ele>195.0</ele><time>2026-05-02T07:29:15.026Z</time></trkpt><trkpt lat="42.272848" lon="13.9391089"><ele>194.0</ele><time>2026-05-02T07:29:16.026Z</time></trkpt><trkpt lat="42.2728029" lon="13.9390343"><ele>193.0</ele><time>2026-05-02T07:29:17.026Z</time></trkpt><trkpt lat="42.2727547" lon="13.938959"><ele>192.0</ele><time>2026-05-02T07:29:18.026Z</time></trkpt><trkpt lat="42.2727039" lon="13.9388855"><ele>191.0</ele><time>2026-05-02T07:29:19.026Z</time></trkpt><trkpt lat="42.2726507" lon="13.93881"><ele>190.0</ele><time>2026-05-02T07:29:20.026Z</time></trkpt><trkpt lat="42.272596" lon="13.9387345"><ele>189.0</ele><time>2026-05-02T07:29:21.026Z</time></trkpt><trkpt lat="42.2725416" lon="13.9386701"><ele>189.0</ele><time>2026-05-02T07:29:22.025Z</time></trkpt><trkpt lat="42.2724849" lon="13.9386268"><ele>189.0</ele><time>2026-05-02T07:29:23.026Z</time></trkpt><trkpt lat="42.2724184" lon="13.9385838"><ele>189.0</ele><time>2026-05-02T07:29:24.026Z</time></trkpt><trkpt lat="42.2723488" lon="13.9385438"><ele>189.0</ele><time>2026-05-02T07:29:25.026Z</time></trkpt><trkpt lat="42.2722745" lon="13.9385049"><ele>189.0</ele><time>2026-05-02T07:29:26.026Z</time></trkpt><trkpt lat="42.2721975" lon="13.9384705"><ele>189.0</ele><time>2026-05-02T07:29:27.026Z</time></trkpt><trkpt lat="42.2721161" lon="13.9384423"><ele>188.0</ele><time>2026-05-02T07:29:28.026Z</time></trkpt><trkpt lat="42.2720361" lon="13.9384206"><ele>187.0</ele><time>2026-05-02T07:29:29.026Z</time></trkpt><trkpt lat="42.2719678" lon="13.9384078"><ele>186.0</ele><time>2026-05-02T07:29:30.025Z</time></trkpt><trkpt lat="42.2718565" lon="13.9384013"><ele>185.0</ele><time>2026-05-02T07:29:32.026Z</time></trkpt><trkpt lat="42.2717756" lon="13.9383482"><ele>184.0</ele><time>2026-05-02T07:29:34.026Z</time></trkpt><trkpt lat="42.2717345" lon="13.938257"><ele>183.0</ele><time>2026-05-02T07:29:36.026Z</time></trkpt><trkpt lat="42.2717177" lon="13.938119"><ele>181.2</ele><time>2026-05-02T07:29:38.026Z</time></trkpt><trkpt lat="42.2716709" lon="13.9379893"><ele>179.4</ele><time>2026-05-02T07:29:40.026Z</time></trkpt><trkpt lat="42.2715858" lon="13.9378933"><ele>177.6</ele><time>2026-05-02T07:29:42.026Z</time></trkpt><trkpt lat="42.2714676" lon="13.9378646"><ele>175.79999999999998</ele><time>2026-05-02T07:29:44.026Z</time></trkpt><trkpt lat="42.2714016" lon="13.9378566"><ele>174.0</ele><time>2026-05-02T07:29:45.026Z</time></trkpt><trkpt lat="42.2713336" lon="13.9378494"><ele>173.16666666666666</ele><time>2026-05-02T07:29:46.026Z</time></trkpt><trkpt lat="42.2712609" lon="13.9378623"><ele>172.33333333333334</ele><time>2026-05-02T07:29:47.026Z</time></trkpt><trkpt lat="42.2711897" lon="13.9378973"><ele>171.5</ele><time>2026-05-02T07:29:48.025Z</time></trkpt><trkpt lat="42.2711221" lon="13.9379551"><ele>170.66666666666669</ele><time>2026-05-02T07:29:49.026Z</time></trkpt><trkpt lat="42.2710617" lon="13.9380312"><ele>169.83333333333334</ele><time>2026-05-02T07:29:50.026Z</time></trkpt><trkpt lat="42.2710124" lon="13.9381199"><ele>169.0</ele><time>2026-05-02T07:29:51.026Z</time></trkpt><trkpt lat="42.2709701" lon="13.9382162"><ele>169.0</ele><time>2026-05-02T07:29:52.025Z</time></trkpt><trkpt lat="42.2709319" lon="13.9383311"><ele>169.0</ele><time>2026-05-02T07:29:53.026Z</time></trkpt><trkpt lat="42.2708993" lon="13.9384523"><ele>169.0</ele><time>2026-05-02T07:29:54.026Z</time></trkpt><trkpt lat="42.2708653" lon="13.9385744"><ele>169.0</ele><time>2026-05-02T07:29:55.026Z</time></trkpt><trkpt lat="42.2708311" lon="13.9386961"><ele>169.0</ele><time>2026-05-02T07:29:56.026Z</time></trkpt><trkpt lat="42.2708017" lon="13.9388125"><ele>169.39999999999998</ele><time>2026-05-02T07:29:57.026Z</time></trkpt><trkpt lat="42.2707715" lon="13.9389226"><ele>169.8</ele><time>2026-05-02T07:29:58.026Z</time></trkpt><trkpt lat="42.2707427" lon="13.9390369"><ele>170.2</ele><time>2026-05-02T07:29:59.026Z</time></trkpt><trkpt lat="42.2707127" lon="13.939163"><ele>170.60000000000002</ele><time>2026-05-02T07:30:00.026Z</time></trkpt><trkpt lat="42.2706896" lon="13.9393065"><ele>171.0</ele><time>2026-05-02T07:30:01.026Z</time></trkpt><trkpt lat="42.27067" lon="13.9394459"><ele>171.20000000000002</ele><time>2026-05-02T07:30:02.025Z</time></trkpt><trkpt lat="42.2706461" lon="13.9395837"><ele>171.4</ele><time>2026-05-02T07:30:03.026Z</time></trkpt><trkpt lat="42.2706124" lon="13.9397188"><ele>171.6</ele><time>2026-05-02T07:30:04.026Z</time></trkpt><trkpt lat="42.270569" lon="13.9398525"><ele>171.8</ele><time>2026-05-02T07:30:05.026Z</time></trkpt><trkpt lat="42.2705175" lon="13.9399833"><ele>172.0</ele><time>2026-05-02T07:30:06.026Z</time></trkpt><trkpt lat="42.2704683" lon="13.9401166"><ele>169.0</ele><time>2026-05-02T07:30:07.025Z</time></trkpt><trkpt lat="42.270422" lon="13.9402493"><ele>166.0</ele><time>2026-05-02T07:30:08.026Z</time></trkpt><trkpt lat="42.2703745" lon="13.9403819"><ele>163.0</ele><time>2026-05-02T07:30:09.025Z</time></trkpt><trkpt lat="42.2703279" lon="13.9405073"><ele>160.0</ele><time>2026-05-02T07:30:10.026Z</time></trkpt><trkpt lat="42.2702878" lon="13.9406263"><ele>157.0</ele><time>2026-05-02T07:30:11.026Z</time></trkpt><trkpt lat="42.2702483" lon="13.9407437"><ele>157.0</ele><time>2026-05-02T07:30:12.026Z</time></trkpt><trkpt lat="42.2702079" lon="13.9408641"><ele>157.0</ele><time>2026-05-02T07:30:13.026Z</time></trkpt><trkpt lat="42.2701697" lon="13.9409883"><ele>157.0</ele><time>2026-05-02T07:30:14.026Z</time></trkpt><trkpt lat="42.2701394" lon="13.9410859"><ele>157.0</ele><time>2026-05-02T07:30:15.026Z</time></trkpt><trkpt lat="42.2701052" lon="13.9411622"><ele>157.0</ele><time>2026-05-02T07:30:16.026Z</time></trkpt><trkpt lat="42.2700664" lon="13.9412344"><ele>157.0</ele><time>2026-05-02T07:30:17.026Z</time></trkpt><trkpt lat="42.2700145" lon="13.9413072"><ele>157.0</ele><time>2026-05-02T07:30:18.026Z</time></trkpt><trkpt lat="42.2699235" lon="13.9414378"><ele>157.0</ele><time>2026-05-02T07:30:20.026Z</time></trkpt><trkpt lat="42.2699081" lon="13.9416202"><ele>157.0</ele><time>2026-05-02T07:30:22.026Z</time></trkpt><trkpt lat="42.2699135" lon="13.9417525"><ele>157.0</ele><time>2026-05-02T07:30:23.026Z</time></trkpt><trkpt lat="42.2699151" lon="13.9418607"><ele>157.0</ele><time>2026-05-02T07:30:24.026Z</time></trkpt><trkpt lat="42.2699419" lon="13.9419623"><ele>156.42857142857142</ele><time>2026-05-02T07:30:25.026Z</time></trkpt><trkpt lat="42.2699352" lon="13.9420656"><ele>155.85714285714286</ele><time>2026-05-02T07:30:26.025Z</time></trkpt><trkpt lat="42.2699075" lon="13.9421557"><ele>155.28571428571428</ele><time>2026-05-02T07:30:27.026Z</time></trkpt><trkpt lat="42.2698592" lon="13.9422176"><ele>154.71428571428572</ele><time>2026-05-02T07:30:28.026Z</time></trkpt><trkpt lat="42.2698024" lon="13.9422803"><ele>154.14285714285714</ele><time>2026-05-02T07:30:29.026Z</time></trkpt><trkpt lat="42.2697362" lon="13.9423309"><ele>153.57142857142856</ele><time>2026-05-02T07:30:30.025Z</time></trkpt><trkpt lat="42.2696599" lon="13.9423667"><ele>153.0</ele><time>2026-05-02T07:30:31.026Z</time></trkpt><trkpt lat="42.269582" lon="13.9424014"><ele>152.20000000000002</ele><time>2026-05-02T07:30:32.026Z</time></trkpt><trkpt lat="42.2694897" lon="13.9424372"><ele>151.4</ele><time>2026-05-02T07:30:33.026Z</time></trkpt><trkpt lat="42.2693983" lon="13.9424705"><ele>150.60000000000002</ele><time>2026-05-02T07:30:34.026Z</time></trkpt><trkpt lat="42.2693037" lon="13.9424993"><ele>149.8</ele><time>2026-05-02T07:30:35.026Z</time></trkpt><trkpt lat="42.2692006" lon="13.9425332"><ele>149.0</ele><time>2026-05-02T07:30:36.026Z</time></trkpt><trkpt lat="42.2691005" lon="13.9425695"><ele>149.0</ele><time>2026-05-02T07:30:37.025Z</time></trkpt><trkpt lat="42.2690079" lon="13.9425933"><ele>149.0</ele><time>2026-05-02T07:30:38.026Z</time></trkpt><trkpt lat="42.2689251" lon="13.9426183"><ele>149.0</ele><time>2026-05-02T07:30:39.026Z</time></trkpt><trkpt lat="42.2688591" lon="13.942643"><ele>149.0</ele><time>2026-05-02T07:30:40.025Z</time></trkpt><trkpt lat="42.2687605" lon="13.9426807"><ele>149.0</ele><time>2026-05-02T07:30:42.026Z</time></trkpt><trkpt lat="42.2686963" lon="13.9426969"><ele>149.0</ele><time>2026-05-02T07:30:44.026Z</time></trkpt><trkpt lat="42.2686227" lon="13.9426969"><ele>148.83333333333331</ele><time>2026-05-02T07:30:46.026Z</time></trkpt><trkpt lat="42.2685183" lon="13.9426743"><ele>148.66666666666666</ele><time>2026-05-02T07:30:48.026Z</time></trkpt><trkpt lat="42.2684015" lon="13.9426294"><ele>148.5</ele><time>2026-05-02T07:30:50.026Z</time></trkpt><trkpt lat="42.2683438" lon="13.9425936"><ele>148.33333333333334</ele><time>2026-05-02T07:30:51.026Z</time></trkpt><trkpt lat="42.2682803" lon="13.9425433"><ele>148.16666666666669</ele><time>2026-05-02T07:30:52.026Z</time></trkpt><trkpt lat="42.2682202" lon="13.9424767"><ele>148.0</ele><time>2026-05-02T07:30:53.026Z</time></trkpt><trkpt lat="42.2681719" lon="13.9424154"><ele>150.20000000000002</ele><time>2026-05-02T07:30:54.026Z</time></trkpt><trkpt lat="42.2680747" lon="13.942329"><ele>152.4</ele><time>2026-05-02T07:30:56.026Z</time></trkpt><trkpt lat="42.2679652" lon="13.9423195"><ele>154.60000000000002</ele><time>2026-05-02T07:30:58.025Z</time></trkpt><trkpt lat="42.2678586" lon="13.9423255"><ele>156.8</ele><time>2026-05-02T07:31:00.026Z</time></trkpt><trkpt lat="42.2677715" lon="13.9422979"><ele>159.0</ele><time>2026-05-02T07:31:02.026Z</time></trkpt><trkpt lat="42.2677155" lon="13.9421951"><ele>159.0</ele><time>2026-05-02T07:31:04.026Z</time></trkpt><trkpt lat="42.2676911" lon="13.9420401"><ele>159.0</ele><time>2026-05-02T07:31:06.026Z</time></trkpt><trkpt lat="42.2676851" lon="13.9419142"><ele>159.0</ele><time>2026-05-02T07:31:08.026Z</time></trkpt><trkpt lat="42.2676569" lon="13.9417862"><ele>159.0</ele><time>2026-05-02T07:31:10.025Z</time></trkpt><trkpt lat="42.2676101" lon="13.9416528"><ele>159.0</ele><time>2026-05-02T07:31:12.026Z</time></trkpt><trkpt lat="42.2675584" lon="13.941512"><ele>158.83333333333334</ele><time>2026-05-02T07:31:14.026Z</time></trkpt><trkpt lat="42.2674993" lon="13.9413731"><ele>158.66666666666666</ele><time>2026-05-02T07:31:16.026Z</time></trkpt><trkpt lat="42.2674575" lon="13.9413066"><ele>158.5</ele><time>2026-05-02T07:31:17.026Z</time></trkpt><trkpt lat="42.2674092" lon="13.9412382"><ele>158.33333333333331</ele><time>2026-05-02T07:31:18.026Z</time></trkpt><trkpt lat="42.2673625" lon="13.9411656"><ele>158.16666666666666</ele><time>2026-05-02T07:31:19.026Z</time></trkpt><trkpt lat="42.2673187" lon="13.9410827"><ele>158.0</ele><time>2026-05-02T07:31:20.026Z</time></trkpt><trkpt lat="42.267275" lon="13.9410048"><ele>160.5</ele><time>2026-05-02T07:31:21.026Z</time></trkpt><trkpt lat="42.2672282" lon="13.940924"><ele>163.0</ele><time>2026-05-02T07:31:22.026Z</time></trkpt><trkpt lat="42.2671829" lon="13.9408405"><ele>165.5</ele><time>2026-05-02T07:31:23.026Z</time></trkpt><trkpt lat="42.2671423" lon="13.9407538"><ele>168.0</ele><time>2026-05-02T07:31:24.026Z</time></trkpt><trkpt lat="42.2670998" lon="13.9406653"><ele>170.5</ele><time>2026-05-02T07:31:25.026Z</time></trkpt><trkpt lat="42.2670547" lon="13.9405758"><ele>173.0</ele><time>2026-05-02T07:31:26.026Z</time></trkpt><trkpt lat="42.2670132" lon="13.9404922"><ele>173.2</ele><time>2026-05-02T07:31:27.026Z</time></trkpt><trkpt lat="42.2669798" lon="13.9404082"><ele>173.4</ele><time>2026-05-02T07:31:28.025Z</time></trkpt><trkpt lat="42.2669509" lon="13.9403237"><ele>173.6</ele><time>2026-05-02T07:31:29.026Z</time></trkpt><trkpt lat="42.2668853" lon="13.9401926"><ele>173.79999999999998</ele><time>2026-05-02T07:31:31.025Z</time></trkpt><trkpt lat="42.2667885" lon="13.9401614"><ele>174.0</ele><time>2026-05-02T07:31:33.026Z</time></trkpt><trkpt lat="42.2667197" lon="13.9402613"><ele>174.0</ele><time>2026-05-02T07:31:35.026Z</time></trkpt><trkpt lat="42.266699" lon="13.9403462"><ele>174.0</ele><time>2026-05-02T07:31:36.026Z</time></trkpt><trkpt lat="42.266674" lon="13.9404356"><ele>174.0</ele><time>2026-05-02T07:31:37.026Z</time></trkpt><trkpt lat="42.2666399" lon="13.9405395"><ele>174.0</ele><time>2026-05-02T07:31:38.026Z</time></trkpt><trkpt lat="42.2666042" lon="13.9406364"><ele>174.0</ele><time>2026-05-02T07:31:39.026Z</time></trkpt><trkpt lat="42.2665679" lon="13.9407447"><ele>174.0</ele><time>2026-05-02T07:31:40.026Z</time></trkpt><trkpt lat="42.2665329" lon="13.9408532"><ele>173.83333333333334</ele><time>2026-05-02T07:31:41.026Z</time></trkpt><trkpt lat="42.2664982" lon="13.9409635"><ele>173.66666666666666</ele><time>2026-05-02T07:31:42.026Z</time></trkpt><trkpt lat="42.2664672" lon="13.9410651"><ele>173.5</ele><time>2026-05-02T07:31:43.026Z</time></trkpt><trkpt lat="42.2664356" lon="13.9411721"><ele>173.33333333333331</ele><time>2026-05-02T07:31:44.026Z</time></trkpt><trkpt lat="42.2664041" lon="13.9412771"><ele>173.16666666666666</ele><time>2026-05-02T07:31:45.026Z</time></trkpt><trkpt lat="42.2663714" lon="13.9413916"><ele>173.0</ele><time>2026-05-02T07:31:46.026Z</time></trkpt><trkpt lat="42.2663451" lon="13.9415061"><ele>176.33333333333331</ele><time>2026-05-02T07:31:47.026Z</time></trkpt><trkpt lat="42.2663424" lon="13.941615"><ele>179.66666666666666</ele><time>2026-05-02T07:31:48.026Z</time></trkpt><trkpt lat="42.2663525" lon="13.9417349"><ele>183.0</ele><time>2026-05-02T07:31:49.026Z</time></trkpt><trkpt lat="42.266372" lon="13.9418562"><ele>186.33333333333331</ele><time>2026-05-02T07:31:50.025Z</time></trkpt><trkpt lat="42.2663872" lon="13.9419809"><ele>189.66666666666666</ele><time>2026-05-02T07:31:51.026Z</time></trkpt><trkpt lat="42.2664049" lon="13.9421057"><ele>193.0</ele><time>2026-05-02T07:31:52.026Z</time></trkpt><trkpt lat="42.2664231" lon="13.9422392"><ele>193.8</ele><time>2026-05-02T07:31:53.026Z</time></trkpt><trkpt lat="42.2664411" lon="13.9423743"><ele>194.60000000000002</ele><time>2026-05-02T07:31:54.026Z</time></trkpt><trkpt lat="42.2664565" lon="13.9425069"><ele>195.39999999999998</ele><time>2026-05-02T07:31:55.025Z</time></trkpt><trkpt lat="42.2664744" lon="13.9426348"><ele>196.2</ele><time>2026-05-02T07:31:56.026Z</time></trkpt><trkpt lat="42.2664932" lon="13.9427563"><ele>197.0</ele><time>2026-05-02T07:31:57.026Z</time></trkpt><trkpt lat="42.2665086" lon="13.9428766"><ele>196.83333333333334</ele><time>2026-05-02T07:31:58.026Z</time></trkpt><trkpt lat="42.266522" lon="13.9429853"><ele>196.66666666666669</ele><time>2026-05-02T07:31:59.026Z</time></trkpt><trkpt lat="42.2665306" lon="13.9430753"><ele>196.5</ele><time>2026-05-02T07:32:00.026Z</time></trkpt><trkpt lat="42.2665376" lon="13.9432006"><ele>196.33333333333331</ele><time>2026-05-02T07:32:02.026Z</time></trkpt><trkpt lat="42.2664841" lon="13.9432914"><ele>196.16666666666666</ele><time>2026-05-02T07:32:05.026Z</time></trkpt><trkpt lat="42.2663693" lon="13.9432999"><ele>196.0</ele><time>2026-05-02T07:32:22.026Z</time></trkpt><trkpt lat="42.2663026" lon="13.9433011"><ele>196.0</ele><time>2026-05-02T07:32:23.026Z</time></trkpt><trkpt lat="42.266232" lon="13.9433045"><ele>196.0</ele><time>2026-05-02T07:32:24.026Z</time></trkpt><trkpt lat="42.2661579" lon="13.9433156"><ele>196.0</ele><time>2026-05-02T07:32:25.026Z</time></trkpt><trkpt lat="42.2660837" lon="13.9433276"><ele>196.0</ele><time>2026-05-02T07:32:26.025Z</time></trkpt><trkpt lat="42.2660144" lon="13.9433306"><ele>196.0</ele><time>2026-05-02T07:32:27.026Z</time></trkpt><trkpt lat="42.2659438" lon="13.9433376"><ele>196.0</ele><time>2026-05-02T07:32:28.026Z</time></trkpt><trkpt lat="42.2658711" lon="13.9433366"><ele>196.0</ele><time>2026-05-02T07:32:29.026Z</time></trkpt><trkpt lat="42.2658009" lon="13.9433327"><ele>195.99999999999997</ele><time>2026-05-02T07:32:30.026Z</time></trkpt><trkpt lat="42.2657359" lon="13.9433125"><ele>196.0</ele><time>2026-05-02T07:32:31.026Z</time></trkpt><trkpt lat="42.2656244" lon="13.9432329"><ele>196.0</ele><time>2026-05-02T07:32:33.025Z</time></trkpt><trkpt lat="42.265566" lon="13.9431783"><ele>196.0</ele><time>2026-05-02T07:32:34.026Z</time></trkpt><trkpt lat="42.2655081" lon="13.9431197"><ele>195.99999999999997</ele><time>2026-05-02T07:32:35.025Z</time></trkpt><trkpt lat="42.2654528" lon="13.9430596"><ele>196.0</ele><time>2026-05-02T07:32:36.026Z</time></trkpt><trkpt lat="42.2654021" lon="13.9429951"><ele>195.42857142857142</ele><time>2026-05-02T07:32:37.026Z</time></trkpt><trkpt lat="42.2653618" lon="13.9429164"><ele>194.85714285714286</ele><time>2026-05-02T07:32:38.026Z</time></trkpt><trkpt lat="42.2653295" lon="13.942833"><ele>194.28571428571428</ele><time>2026-05-02T07:32:39.026Z</time></trkpt><trkpt lat="42.265298" lon="13.9427429"><ele>193.71428571428572</ele><time>2026-05-02T07:32:40.026Z</time></trkpt><trkpt lat="42.2652604" lon="13.9426541"><ele>193.14285714285714</ele><time>2026-05-02T07:32:41.026Z</time></trkpt><trkpt lat="42.2652242" lon="13.9425671"><ele>192.57142857142856</ele><time>2026-05-02T07:32:42.026Z</time></trkpt><trkpt lat="42.2651902" lon="13.9424813"><ele>192.0</ele><time>2026-05-02T07:32:43.026Z</time></trkpt><trkpt lat="42.2651568" lon="13.9423997"><ele>194.14285714285714</ele><time>2026-05-02T07:32:44.026Z</time></trkpt><trkpt lat="42.2651242" lon="13.9423114"><ele>196.28571428571428</ele><time>2026-05-02T07:32:45.026Z</time></trkpt><trkpt lat="42.2650915" lon="13.942232"><ele>198.42857142857144</ele><time>2026-05-02T07:32:46.026Z</time></trkpt><trkpt lat="42.2650584" lon="13.9421461"><ele>200.57142857142856</ele><time>2026-05-02T07:32:47.026Z</time></trkpt><trkpt lat="42.2650218" lon="13.9420587"><ele>202.71428571428572</ele><time>2026-05-02T07:32:48.026Z</time></trkpt><trkpt lat="42.2649937" lon="13.9419814"><ele>204.85714285714286</ele><time>2026-05-02T07:32:49.026Z</time></trkpt><trkpt lat="42.2649622" lon="13.9419064"><ele>207.0</ele><time>2026-05-02T07:32:50.026Z</time></trkpt><trkpt lat="42.2649235" lon="13.9418264"><ele>207.00000000000003</ele><time>2026-05-02T07:32:51.026Z</time></trkpt><trkpt lat="42.2648879" lon="13.94175"><ele>207.0</ele><time>2026-05-02T07:32:52.026Z</time></trkpt><trkpt lat="42.264852" lon="13.9416707"><ele>207.0</ele><time>2026-05-02T07:32:53.026Z</time></trkpt><trkpt lat="42.2648174" lon="13.9415847"><ele>207.0</ele><time>2026-05-02T07:32:54.026Z</time></trkpt><trkpt lat="42.2647888" lon="13.941488"><ele>207.0</ele><time>2026-05-02T07:32:55.026Z</time></trkpt><trkpt lat="42.2647668" lon="13.9413871"><ele>207.00000000000003</ele><time>2026-05-02T07:32:56.026Z</time></trkpt><trkpt lat="42.264752" lon="13.9412927"><ele>207.0</ele><time>2026-05-02T07:32:57.026Z</time></trkpt><trkpt lat="42.2647397" lon="13.9412033"><ele>207.5</ele><time>2026-05-02T07:32:58.026Z</time></trkpt><trkpt lat="42.26474" lon="13.9410355"><ele>208.0</ele><time>2026-05-02T07:33:00.026Z</time></trkpt><trkpt lat="42.2647307" lon="13.940943"><ele>208.5</ele><time>2026-05-02T07:33:01.026Z</time></trkpt><trkpt lat="42.2647185" lon="13.9408466"><ele>209.0</ele><time>2026-05-02T07:33:02.026Z</time></trkpt><trkpt lat="42.2647005" lon="13.9407494"><ele>209.5</ele><time>2026-05-02T07:33:03.025Z</time></trkpt><trkpt lat="42.2646815" lon="13.9406483"><ele>210.0</ele><time>2026-05-02T07:33:04.026Z</time></trkpt><trkpt lat="42.2646609" lon="13.9405461"><ele>212.4</ele><time>2026-05-02T07:33:05.026Z</time></trkpt><trkpt lat="42.2646369" lon="13.9404411"><ele>214.8</ele><time>2026-05-02T07:33:06.025Z</time></trkpt><trkpt lat="42.2646137" lon="13.9403231"><ele>217.2</ele><time>2026-05-02T07:33:07.026Z</time></trkpt><trkpt lat="42.2645916" lon="13.9402115"><ele>219.6</ele><time>2026-05-02T07:33:08.026Z</time></trkpt><trkpt lat="42.2645716" lon="13.9400775"><ele>222.0</ele><time>2026-05-02T07:33:09.026Z</time></trkpt><trkpt lat="42.2645579" lon="13.9399325"><ele>222.83333333333334</ele><time>2026-05-02T07:33:10.026Z</time></trkpt><trkpt lat="42.2645428" lon="13.9398246"><ele>223.66666666666669</ele><time>2026-05-02T07:33:11.026Z</time></trkpt><trkpt lat="42.2645278" lon="13.9397165"><ele>224.5</ele><time>2026-05-02T07:33:12.026Z</time></trkpt><trkpt lat="42.2645133" lon="13.9396119"><ele>225.33333333333334</ele><time>2026-05-02T07:33:13.025Z</time></trkpt><trkpt lat="42.2644937" lon="13.939512"><ele>226.16666666666669</ele><time>2026-05-02T07:33:14.026Z</time></trkpt><trkpt lat="42.2644606" lon="13.9394234"><ele>227.0</ele><time>2026-05-02T07:33:15.026Z</time></trkpt><trkpt lat="42.2644243" lon="13.9393318"><ele>227.0</ele><time>2026-05-02T07:33:16.026Z</time></trkpt><trkpt lat="42.2643929" lon="13.9392404"><ele>227.00000000000003</ele><time>2026-05-02T07:33:17.026Z</time></trkpt><trkpt lat="42.2643654" lon="13.9391487"><ele>227.0</ele><time>2026-05-02T07:33:18.026Z</time></trkpt><trkpt lat="42.2643348" lon="13.9390637"><ele>227.0</ele><time>2026-05-02T07:33:19.026Z</time></trkpt><trkpt lat="42.2642739" lon="13.9389843"><ele>227.00000000000003</ele><time>2026-05-02T07:33:20.026Z</time></trkpt><trkpt lat="42.2642248" lon="13.9389094"><ele>227.0</ele><time>2026-05-02T07:33:21.026Z</time></trkpt><trkpt lat="42.2641762" lon="13.9388375"><ele>227.0</ele><time>2026-05-02T07:33:22.026Z</time></trkpt><trkpt lat="42.2641262" lon="13.9387657"><ele>225.66666666666669</ele><time>2026-05-02T07:33:23.026Z</time></trkpt><trkpt lat="42.2640723" lon="13.9386855"><ele>224.33333333333334</ele><time>2026-05-02T07:33:24.026Z</time></trkpt><trkpt lat="42.2640154" lon="13.9386022"><ele>223.0</ele><time>2026-05-02T07:33:25.026Z</time></trkpt><trkpt lat="42.2639516" lon="13.9385217"><ele>221.66666666666669</ele><time>2026-05-02T07:33:26.026Z</time></trkpt><trkpt lat="42.2638832" lon="13.938441"><ele>220.33333333333334</ele><time>2026-05-02T07:33:27.026Z</time></trkpt><trkpt lat="42.2638119" lon="13.9383606"><ele>219.0</ele><time>2026-05-02T07:33:28.026Z</time></trkpt><trkpt lat="42.2637482" lon="13.9382693"><ele>223.0</ele><time>2026-05-02T07:33:29.025Z</time></trkpt><trkpt lat="42.2636891" lon="13.9381768"><ele>226.99999999999997</ele><time>2026-05-02T07:33:30.026Z</time></trkpt><trkpt lat="42.2636337" lon="13.93808"><ele>230.99999999999997</ele><time>2026-05-02T07:33:31.026Z</time></trkpt><trkpt lat="42.263581" lon="13.9379794"><ele>235.0</ele><time>2026-05-02T07:33:32.026Z</time></trkpt><trkpt lat="42.2635311" lon="13.9378745"><ele>239.0</ele><time>2026-05-02T07:33:33.025Z</time></trkpt><trkpt lat="42.2634842" lon="13.9377626"><ele>239.0</ele><time>2026-05-02T07:33:34.026Z</time></trkpt><trkpt lat="42.2634408" lon="13.9376427"><ele>238.99999999999997</ele><time>2026-05-02T07:33:35.026Z</time></trkpt><trkpt lat="42.2633992" lon="13.9375215"><ele>238.99999999999997</ele><time>2026-05-02T07:33:36.026Z</time></trkpt><trkpt lat="42.2633619" lon="13.9373969"><ele>239.0</ele><time>2026-05-02T07:33:37.026Z</time></trkpt><trkpt lat="42.2633342" lon="13.9372671"><ele>239.0</ele><time>2026-05-02T07:33:38.026Z</time></trkpt><trkpt lat="42.263314" lon="13.9371393"><ele>242.16666666666669</ele><time>2026-05-02T07:33:39.025Z</time></trkpt><trkpt lat="42.263295" lon="13.9370123"><ele>245.33333333333334</ele><time>2026-05-02T07:33:40.026Z</time></trkpt><trkpt lat="42.2632741" lon="13.9368917"><ele>248.5</ele><time>2026-05-02T07:33:41.026Z</time></trkpt><trkpt lat="42.263251" lon="13.936783"><ele>251.66666666666669</ele><time>2026-05-02T07:33:42.026Z</time></trkpt><trkpt lat="42.2632191" lon="13.9366818"><ele>254.83333333333334</ele><time>2026-05-02T07:33:43.025Z</time></trkpt><trkpt lat="42.2631804" lon="13.9365923"><ele>258.0</ele><time>2026-05-02T07:33:44.026Z</time></trkpt><trkpt lat="42.2631289" lon="13.9365229"><ele>259.1666666666667</ele><time>2026-05-02T07:33:45.026Z</time></trkpt><trkpt lat="42.2630667" lon="13.936475"><ele>260.3333333333333</ele><time>2026-05-02T07:33:46.026Z</time></trkpt><trkpt lat="42.262994" lon="13.9364533"><ele>261.5</ele><time>2026-05-02T07:33:47.026Z</time></trkpt><trkpt lat="42.2629161" lon="13.9364434"><ele>262.66666666666663</ele><time>2026-05-02T07:33:48.026Z</time></trkpt><trkpt lat="42.2628344" lon="13.9364314"><ele>263.8333333333333</ele><time>2026-05-02T07:33:49.026Z</time></trkpt><trkpt lat="42.2627637" lon="13.936406"><ele>265.0</ele><time>2026-05-02T07:33:50.026Z</time></trkpt><trkpt lat="42.2626993" lon="13.9363598"><ele>265.0</ele><time>2026-05-02T07:33:51.026Z</time></trkpt><trkpt lat="42.2626403" lon="13.9363092"><ele>265.0</ele><time>2026-05-02T07:33:52.025Z</time></trkpt><trkpt lat="42.2625839" lon="13.9362493"><ele>265.0</ele><time>2026-05-02T07:33:53.026Z</time></trkpt><trkpt lat="42.2625311" lon="13.9361741"><ele>265.0</ele><time>2026-05-02T07:33:54.025Z</time></trkpt><trkpt lat="42.262478" lon="13.9360965"><ele>265.0</ele><time>2026-05-02T07:33:55.026Z</time></trkpt><trkpt lat="42.2624241" lon="13.9360201"><ele>265.0</ele><time>2026-05-02T07:33:56.026Z</time></trkpt><trkpt lat="42.2623661" lon="13.9359447"><ele>266.66666666666663</ele><time>2026-05-02T07:33:57.026Z</time></trkpt><trkpt lat="42.2623039" lon="13.9358729"><ele>268.3333333333333</ele><time>2026-05-02T07:33:58.026Z</time></trkpt><trkpt lat="42.2622445" lon="13.9358035"><ele>270.0</ele><time>2026-05-02T07:33:59.026Z</time></trkpt><trkpt lat="42.2621879" lon="13.935734"><ele>271.6666666666667</ele><time>2026-05-02T07:34:00.026Z</time></trkpt><trkpt lat="42.2621384" lon="13.9356578"><ele>273.33333333333337</ele><time>2026-05-02T07:34:01.026Z</time></trkpt><trkpt lat="42.2621001" lon="13.9355714"><ele>275.0</ele><time>2026-05-02T07:34:02.026Z</time></trkpt><trkpt lat="42.2620817" lon="13.9354829"><ele>275.0</ele><time>2026-05-02T07:34:03.026Z</time></trkpt><trkpt lat="42.262087" lon="13.9353946"><ele>275.0</ele><time>2026-05-02T07:34:04.026Z</time></trkpt><trkpt lat="42.2620869" lon="13.935301"><ele>275.0</ele><time>2026-05-02T07:34:05.026Z</time></trkpt><trkpt lat="42.2620956" lon="13.9351538"><ele>275.0</ele><time>2026-05-02T07:34:06.026Z</time></trkpt><trkpt lat="42.2620941" lon="13.9350395"><ele>275.0</ele><time>2026-05-02T07:34:07.026Z</time></trkpt><trkpt lat="42.2620919" lon="13.934919"><ele>275.0</ele><time>2026-05-02T07:34:08.026Z</time></trkpt><trkpt lat="42.2620944" lon="13.934794"><ele>276.1666666666667</ele><time>2026-05-02T07:34:09.026Z</time></trkpt><trkpt lat="42.2620985" lon="13.9346663"><ele>277.33333333333337</ele><time>2026-05-02T07:34:10.025Z</time></trkpt><trkpt lat="42.2620976" lon="13.9345397"><ele>278.5</ele><time>2026-05-02T07:34:11.026Z</time></trkpt><trkpt lat="42.2620976" lon="13.9344286"><ele>279.6666666666667</ele><time>2026-05-02T07:34:12.025Z</time></trkpt><trkpt lat="42.2620987" lon="13.93433"><ele>280.8333333333333</ele><time>2026-05-02T07:34:13.026Z</time></trkpt><trkpt lat="42.2620912" lon="13.9342425"><ele>282.0</ele><time>2026-05-02T07:34:14.026Z</time></trkpt><trkpt lat="42.2620548" lon="13.9341314"><ele>283.1666666666667</ele><time>2026-05-02T07:34:16.026Z</time></trkpt><trkpt lat="42.2619734" lon="13.9340807"><ele>284.3333333333333</ele><time>2026-05-02T07:34:19.026Z</time></trkpt><trkpt lat="42.2619054" lon="13.9340947"><ele>285.5</ele><time>2026-05-02T07:34:20.026Z</time></trkpt><trkpt lat="42.2618283" lon="13.9341021"><ele>286.66666666666663</ele><time>2026-05-02T07:34:21.026Z</time></trkpt><trkpt lat="42.2617352" lon="13.9340995"><ele>287.8333333333333</ele><time>2026-05-02T07:34:22.026Z</time></trkpt><trkpt lat="42.261634" lon="13.9340632"><ele>289.0</ele><time>2026-05-02T07:34:23.026Z</time></trkpt><trkpt lat="42.2615193" lon="13.9340134"><ele>287.25</ele><time>2026-05-02T07:34:24.026Z</time></trkpt><trkpt lat="42.2613911" lon="13.9339599"><ele>285.5</ele><time>2026-05-02T07:34:25.025Z</time></trkpt><trkpt lat="42.2612585" lon="13.9338958"><ele>283.75</ele><time>2026-05-02T07:34:26.026Z</time></trkpt><trkpt lat="42.261122" lon="13.9338357"><ele>282.0</ele><time>2026-05-02T07:34:27.026Z</time></trkpt><trkpt lat="42.2609964" lon="13.933774"><ele>282.0</ele><time>2026-05-02T07:34:28.026Z</time></trkpt><trkpt lat="42.2608806" lon="13.9337189"><ele>282.0</ele><time>2026-05-02T07:34:29.026Z</time></trkpt><trkpt lat="42.2607692" lon="13.9336639"><ele>282.0</ele><time>2026-05-02T07:34:30.026Z</time></trkpt><trkpt lat="42.2606635" lon="13.9336072"><ele>282.0</ele><time>2026-05-02T07:34:31.026Z</time></trkpt><trkpt lat="42.2605554" lon="13.933561"><ele>282.4</ele><time>2026-05-02T07:34:32.026Z</time></trkpt><trkpt lat="42.260445" lon="13.933539"><ele>282.79999999999995</ele><time>2026-05-02T07:34:33.026Z</time></trkpt><trkpt lat="42.2603332" lon="13.9335399"><ele>283.2</ele><time>2026-05-02T07:34:34.026Z</time></trkpt><trkpt lat="42.260229" lon="13.9335498"><ele>283.59999999999997</ele><time>2026-05-02T07:34:35.026Z</time></trkpt><trkpt lat="42.2601209" lon="13.9335582"><ele>284.0</ele><time>2026-05-02T07:34:36.026Z</time></trkpt><trkpt lat="42.2600148" lon="13.9335628"><ele>284.0</ele><time>2026-05-02T07:34:37.026Z</time></trkpt><trkpt lat="42.2599063" lon="13.9335653"><ele>284.0</ele><time>2026-05-02T07:34:38.025Z</time></trkpt><trkpt lat="42.2597982" lon="13.9335668"><ele>284.0</ele><time>2026-05-02T07:34:39.026Z</time></trkpt><trkpt lat="42.2596891" lon="13.9335737"><ele>284.0</ele><time>2026-05-02T07:34:40.026Z</time></trkpt><trkpt lat="42.2595894" lon="13.9335555"><ele>284.0</ele><time>2026-05-02T07:34:41.026Z</time></trkpt><trkpt lat="42.2594975" lon="13.9335158"><ele>283.0</ele><time>2026-05-02T07:34:42.026Z</time></trkpt><trkpt lat="42.259406" lon="13.9334586"><ele>282.0</ele><time>2026-05-02T07:34:43.026Z</time></trkpt><trkpt lat="42.2593079" lon="13.9333924"><ele>281.0</ele><time>2026-05-02T07:34:44.026Z</time></trkpt><trkpt lat="42.2592074" lon="13.933316"><ele>280.0</ele><time>2026-05-02T07:34:45.026Z</time></trkpt><trkpt lat="42.2590989" lon="13.9332423"><ele>279.0</ele><time>2026-05-02T07:34:46.026Z</time></trkpt><trkpt lat="42.2589906" lon="13.9331792"><ele>282.0</ele><time>2026-05-02T07:34:47.026Z</time></trkpt><trkpt lat="42.2588829" lon="13.9331293"><ele>285.0</ele><time>2026-05-02T07:34:48.026Z</time></trkpt><trkpt lat="42.2587753" lon="13.9330964"><ele>288.0</ele><time>2026-05-02T07:34:49.025Z</time></trkpt><trkpt lat="42.25867" lon="13.9330804"><ele>291.0</ele><time>2026-05-02T07:34:50.026Z</time></trkpt><trkpt lat="42.2585623" lon="13.9330844"><ele>294.0</ele><time>2026-05-02T07:34:51.026Z</time></trkpt><trkpt lat="42.2584653" lon="13.9330956"><ele>294.0</ele><time>2026-05-02T07:34:52.026Z</time></trkpt><trkpt lat="42.2583805" lon="13.9331072"><ele>294.0</ele><time>2026-05-02T07:34:53.026Z</time></trkpt><trkpt lat="42.2583059" lon="13.9331194"><ele>294.0</ele><time>2026-05-02T07:34:54.026Z</time></trkpt><trkpt lat="42.2582268" lon="13.9331335"><ele>294.0</ele><time>2026-05-02T07:34:55.025Z</time></trkpt><trkpt lat="42.2581451" lon="13.9331319"><ele>294.0</ele><time>2026-05-02T07:34:56.026Z</time></trkpt><trkpt lat="42.2580493" lon="13.9331277"><ele>294.0</ele><time>2026-05-02T07:34:57.025Z</time></trkpt><trkpt lat="42.2579426" lon="13.9331198"><ele>295.0</ele><time>2026-05-02T07:34:58.026Z</time></trkpt><trkpt lat="42.2578349" lon="13.933103"><ele>296.0</ele><time>2026-05-02T07:34:59.026Z</time></trkpt><trkpt lat="42.2577281" lon="13.933094"><ele>297.0</ele><time>2026-05-02T07:35:00.026Z</time></trkpt><trkpt lat="42.2576244" lon="13.9331124"><ele>298.0</ele><time>2026-05-02T07:35:01.025Z</time></trkpt><trkpt lat="42.2575105" lon="13.9331503"><ele>299.0</ele><time>2026-05-02T07:35:02.026Z</time></trkpt><trkpt lat="42.2573932" lon="13.9331787"><ele>300.0</ele><time>2026-05-02T07:35:03.025Z</time></trkpt><trkpt lat="42.2572813" lon="13.9332003"><ele>301.0</ele><time>2026-05-02T07:35:04.026Z</time></trkpt><trkpt lat="42.2571723" lon="13.9332171"><ele>302.0</ele><time>2026-05-02T07:35:05.026Z</time></trkpt><trkpt lat="42.2570739" lon="13.933242"><ele>303.0</ele><time>2026-05-02T07:35:06.026Z</time></trkpt><trkpt lat="42.2569786" lon="13.9332877"><ele>304.0</ele><time>2026-05-02T07:35:07.026Z</time></trkpt><trkpt lat="42.2568793" lon="13.9333222"><ele>304.0</ele><time>2026-05-02T07:35:08.025Z</time></trkpt><trkpt lat="42.2567777" lon="13.9333405"><ele>304.0</ele><time>2026-05-02T07:35:09.025Z</time></trkpt><trkpt lat="42.2566709" lon="13.9333402"><ele>304.0</ele><time>2026-05-02T07:35:10.026Z</time></trkpt><trkpt lat="42.2565633" lon="13.9333254"><ele>304.0</ele><time>2026-05-02T07:35:11.026Z</time></trkpt><trkpt lat="42.2564568" lon="13.9332997"><ele>304.0</ele><time>2026-05-02T07:35:12.026Z</time></trkpt><trkpt lat="42.2563498" lon="13.9332615"><ele>303.8</ele><time>2026-05-02T07:35:13.026Z</time></trkpt><trkpt lat="42.2562398" lon="13.9332172"><ele>303.59999999999997</ele><time>2026-05-02T07:35:14.025Z</time></trkpt><trkpt lat="42.2561314" lon="13.9331758"><ele>303.4</ele><time>2026-05-02T07:35:15.025Z</time></trkpt><trkpt lat="42.2560398" lon="13.9331404"><ele>303.2</ele><time>2026-05-02T07:35:16.026Z</time></trkpt><trkpt lat="42.2559558" lon="13.9331099"><ele>303.0</ele><time>2026-05-02T07:35:17.026Z</time></trkpt><trkpt lat="42.2558719" lon="13.9330796"><ele>303.0</ele><time>2026-05-02T07:35:18.026Z</time></trkpt><trkpt lat="42.2557922" lon="13.933037"><ele>303.0</ele><time>2026-05-02T07:35:19.026Z</time></trkpt><trkpt lat="42.2557279" lon="13.9329771"><ele>303.0</ele><time>2026-05-02T07:35:20.026Z</time></trkpt><trkpt lat="42.2556844" lon="13.9328925"><ele>303.0</ele><time>2026-05-02T07:35:21.026Z</time></trkpt><trkpt lat="42.2556616" lon="13.9327745"><ele>303.0</ele><time>2026-05-02T07:35:22.026Z</time></trkpt><trkpt lat="42.2556548" lon="13.9326349"><ele>303.0</ele><time>2026-05-02T07:35:23.026Z</time></trkpt><trkpt lat="42.2556494" lon="13.932484"><ele>303.4</ele><time>2026-05-02T07:35:24.026Z</time></trkpt><trkpt lat="42.2556254" lon="13.9323505"><ele>303.8</ele><time>2026-05-02T07:35:25.026Z</time></trkpt><trkpt lat="42.2555797" lon="13.9322298"><ele>304.2</ele><time>2026-05-02T07:35:26.025Z</time></trkpt><trkpt lat="42.2555204" lon="13.9321133"><ele>304.6</ele><time>2026-05-02T07:35:27.026Z</time></trkpt><trkpt lat="42.2554543" lon="13.9320008"><ele>305.0</ele><time>2026-05-02T07:35:28.026Z</time></trkpt><trkpt lat="42.2553852" lon="13.9318981"><ele>303.2</ele><time>2026-05-02T07:35:29.026Z</time></trkpt><trkpt lat="42.2553041" lon="13.9318193"><ele>301.4</ele><time>2026-05-02T07:35:30.026Z</time></trkpt><trkpt lat="42.2552116" lon="13.9317686"><ele>299.6</ele><time>2026-05-02T07:35:31.026Z</time></trkpt><trkpt lat="42.2551076" lon="13.931736"><ele>297.8</ele><time>2026-05-02T07:35:32.026Z</time></trkpt><trkpt lat="42.2550019" lon="13.9317064"><ele>296.0</ele><time>2026-05-02T07:35:33.025Z</time></trkpt><trkpt lat="42.2549087" lon="13.9316619"><ele>296.0</ele><time>2026-05-02T07:35:34.026Z</time></trkpt><trkpt lat="42.2548373" lon="13.9315965"><ele>296.0</ele><time>2026-05-02T07:35:35.026Z</time></trkpt><trkpt lat="42.2547804" lon="13.931525"><ele>296.0</ele><time>2026-05-02T07:35:36.025Z</time></trkpt><trkpt lat="42.2547227" lon="13.9314792"><ele>296.0</ele><time>2026-05-02T07:35:37.026Z</time></trkpt><trkpt lat="42.2545906" lon="13.9314639"><ele>296.0</ele><time>2026-05-02T07:35:39.026Z</time></trkpt><trkpt lat="42.2545056" lon="13.931486"><ele>295.0</ele><time>2026-05-02T07:35:40.026Z</time></trkpt><trkpt lat="42.2544069" lon="13.9315156"><ele>294.0</ele><time>2026-05-02T07:35:41.026Z</time></trkpt><trkpt lat="42.2542974" lon="13.9315534"><ele>293.0</ele><time>2026-05-02T07:35:42.026Z</time></trkpt><trkpt lat="42.2541922" lon="13.9315827"><ele>292.0</ele><time>2026-05-02T07:35:43.026Z</time></trkpt><trkpt lat="42.2540856" lon="13.9316042"><ele>291.0</ele><time>2026-05-02T07:35:44.026Z</time></trkpt><trkpt lat="42.2539816" lon="13.9316099"><ele>290.40000000000003</ele><time>2026-05-02T07:35:45.026Z</time></trkpt><trkpt lat="42.2538809" lon="13.9316166"><ele>289.8</ele><time>2026-05-02T07:35:46.026Z</time></trkpt><trkpt lat="42.2537793" lon="13.9316191"><ele>289.20000000000005</ele><time>2026-05-02T07:35:47.026Z</time></trkpt><trkpt lat="42.2536811" lon="13.9315952"><ele>288.6</ele><time>2026-05-02T07:35:48.026Z</time></trkpt><trkpt lat="42.2535914" lon="13.9315484"><ele>288.0</ele><time>2026-05-02T07:35:49.025Z</time></trkpt><trkpt lat="42.2534976" lon="13.9314785"><ele>288.0</ele><time>2026-05-02T07:35:50.026Z</time></trkpt><trkpt lat="42.2533987" lon="13.9314099"><ele>288.0</ele><time>2026-05-02T07:35:51.026Z</time></trkpt><trkpt lat="42.2532983" lon="13.9313498"><ele>288.0</ele><time>2026-05-02T07:35:52.026Z</time></trkpt><trkpt lat="42.2531986" lon="13.9312996"><ele>288.0</ele><time>2026-05-02T07:35:53.026Z</time></trkpt><trkpt lat="42.2530966" lon="13.9312578"><ele>288.0</ele><time>2026-05-02T07:35:54.026Z</time></trkpt><trkpt lat="42.2529969" lon="13.9312258"><ele>286.8</ele><time>2026-05-02T07:35:55.026Z</time></trkpt><trkpt lat="42.2529002" lon="13.9311926"><ele>285.6</ele><time>2026-05-02T07:35:56.026Z</time></trkpt><trkpt lat="42.2528014" lon="13.9311677"><ele>284.4</ele><time>2026-05-02T07:35:57.026Z</time></trkpt><trkpt lat="42.2526997" lon="13.9311492"><ele>283.2</ele><time>2026-05-02T07:35:58.025Z</time></trkpt><trkpt lat="42.2526042" lon="13.9311304"><ele>282.0</ele><time>2026-05-02T07:35:59.026Z</time></trkpt><trkpt lat="42.2525185" lon="13.9311026"><ele>282.0</ele><time>2026-05-02T07:36:00.025Z</time></trkpt><trkpt lat="42.2524432" lon="13.9310603"><ele>282.0</ele><time>2026-05-02T07:36:01.026Z</time></trkpt><trkpt lat="42.2523827" lon="13.9310053"><ele>282.0</ele><time>2026-05-02T07:36:02.026Z</time></trkpt><trkpt lat="42.2523398" lon="13.9309318"><ele>282.0</ele><time>2026-05-02T07:36:03.026Z</time></trkpt><trkpt lat="42.2523144" lon="13.9308354"><ele>282.0</ele><time>2026-05-02T07:36:04.026Z</time></trkpt><trkpt lat="42.2523029" lon="13.9307362"><ele>282.0</ele><time>2026-05-02T07:36:05.026Z</time></trkpt><trkpt lat="42.2522905" lon="13.9306339"><ele>280.8333333333333</ele><time>2026-05-02T07:36:06.026Z</time></trkpt><trkpt lat="42.2522693" lon="13.9305283"><ele>279.6666666666667</ele><time>2026-05-02T07:36:07.026Z</time></trkpt><trkpt lat="42.2522345" lon="13.9304221"><ele>278.5</ele><time>2026-05-02T07:36:08.026Z</time></trkpt><trkpt lat="42.2521875" lon="13.9303176"><ele>277.33333333333337</ele><time>2026-05-02T07:36:09.026Z</time></trkpt><trkpt lat="42.2521282" lon="13.9302183"><ele>276.1666666666667</ele><time>2026-05-02T07:36:10.026Z</time></trkpt><trkpt lat="42.2520647" lon="13.9301211"><ele>275.0</ele><time>2026-05-02T07:36:11.025Z</time></trkpt><trkpt lat="42.2520095" lon="13.9300488"><ele>275.0</ele><time>2026-05-02T07:36:12.026Z</time></trkpt><trkpt lat="42.2519522" lon="13.9299928"><ele>275.0</ele><time>2026-05-02T07:36:13.025Z</time></trkpt><trkpt lat="42.2518809" lon="13.9299558"><ele>275.0</ele><time>2026-05-02T07:36:14.026Z</time></trkpt><trkpt lat="42.2518029" lon="13.9299302"><ele>275.0</ele><time>2026-05-02T07:36:15.026Z</time></trkpt><trkpt lat="42.2517213" lon="13.9299059"><ele>275.0</ele><time>2026-05-02T07:36:16.026Z</time></trkpt><trkpt lat="42.2516375" lon="13.9298849"><ele>275.0</ele><time>2026-05-02T07:36:17.026Z</time></trkpt><trkpt lat="42.251552" lon="13.9298614"><ele>275.0</ele><time>2026-05-02T07:36:18.026Z</time></trkpt><trkpt lat="42.2514726" lon="13.9298306"><ele>275.0</ele><time>2026-05-02T07:36:19.025Z</time></trkpt><trkpt lat="42.251397" lon="13.92978"><ele>275.0</ele><time>2026-05-02T07:36:20.026Z</time></trkpt><trkpt lat="42.2513339" lon="13.9297199"><ele>275.0</ele><time>2026-05-02T07:36:21.026Z</time></trkpt><trkpt lat="42.2512747" lon="13.9296819"><ele>275.0</ele><time>2026-05-02T07:36:22.026Z</time></trkpt><trkpt lat="42.251212" lon="13.9296735"><ele>275.0</ele><time>2026-05-02T07:36:23.026Z</time></trkpt><trkpt lat="42.2511138" lon="13.9297557"><ele>270.25</ele><time>2026-05-02T07:36:25.026Z</time></trkpt><trkpt lat="42.2510289" lon="13.9298624"><ele>265.5</ele><time>2026-05-02T07:36:27.026Z</time></trkpt><trkpt lat="42.250931" lon="13.9298258"><ele>260.75</ele><time>2026-05-02T07:36:29.026Z</time></trkpt><trkpt lat="42.2509157" lon="13.9296868"><ele>256.0</ele><time>2026-05-02T07:36:31.026Z</time></trkpt><trkpt lat="42.2509871" lon="13.9295392"><ele>255.99999999999997</ele><time>2026-05-02T07:36:33.026Z</time></trkpt><trkpt lat="42.2510297" lon="13.9294474"><ele>256.0</ele><time>2026-05-02T07:36:34.026Z</time></trkpt><trkpt lat="42.2510651" lon="13.9293402"><ele>256.0</ele><time>2026-05-02T07:36:35.025Z</time></trkpt><trkpt lat="42.2511016" lon="13.9292244"><ele>256.0</ele><time>2026-05-02T07:36:36.026Z</time></trkpt><trkpt lat="42.2511382" lon="13.9291166"><ele>255.99999999999997</ele><time>2026-05-02T07:36:37.026Z</time></trkpt><trkpt lat="42.2511635" lon="13.92903"><ele>256.0</ele><time>2026-05-02T07:36:38.026Z</time></trkpt><trkpt lat="42.2511701" lon="13.9289245"><ele>255.99999999999997</ele><time>2026-05-02T07:36:40.026Z</time></trkpt><trkpt lat="42.2511056" lon="13.9289033"><ele>256.0</ele><time>2026-05-02T07:36:43.026Z</time></trkpt><trkpt lat="42.2510477" lon="13.9290055"><ele>256.0</ele><time>2026-05-02T07:36:45.026Z</time></trkpt><trkpt lat="42.2510166" lon="13.9290979"><ele>256.0</ele><time>2026-05-02T07:36:46.026Z</time></trkpt><trkpt lat="42.2509657" lon="13.9291904"><ele>255.99999999999997</ele><time>2026-05-02T07:36:47.026Z</time></trkpt><trkpt lat="42.2508924" lon="13.9292757"><ele>256.0</ele><time>2026-05-02T07:36:48.026Z</time></trkpt><trkpt lat="42.2508087" lon="13.9293527"><ele>256.0</ele><time>2026-05-02T07:36:49.026Z</time></trkpt><trkpt lat="42.2507316" lon="13.9294368"><ele>256.0</ele><time>2026-05-02T07:36:50.025Z</time></trkpt><trkpt lat="42.25066" lon="13.9295483"><ele>256.0</ele><time>2026-05-02T07:36:51.026Z</time></trkpt><trkpt lat="42.2506006" lon="13.9296828"><ele>256.0</ele><time>2026-05-02T07:36:52.026Z</time></trkpt><trkpt lat="42.2505572" lon="13.9298302"><ele>256.0</ele><time>2026-05-02T07:36:53.025Z</time></trkpt><trkpt lat="42.2505433" lon="13.9299869"><ele>254.25</ele><time>2026-05-02T07:36:54.026Z</time></trkpt><trkpt lat="42.2505565" lon="13.9301402"><ele>252.5</ele><time>2026-05-02T07:36:55.026Z</time></trkpt><trkpt lat="42.2505944" lon="13.9302862"><ele>250.75</ele><time>2026-05-02T07:36:56.026Z</time></trkpt><trkpt lat="42.2506509" lon="13.9304271"><ele>249.0</ele><time>2026-05-02T07:36:57.026Z</time></trkpt><trkpt lat="42.2507188" lon="13.9305587"><ele>249.0</ele><time>2026-05-02T07:36:58.025Z</time></trkpt><trkpt lat="42.2507739" lon="13.9307017"><ele>249.0</ele><time>2026-05-02T07:36:59.026Z</time></trkpt><trkpt lat="42.250792" lon="13.9308672"><ele>249.0</ele><time>2026-05-02T07:37:00.026Z</time></trkpt><trkpt lat="42.2507897" lon="13.9310332"><ele>249.0</ele><time>2026-05-02T07:37:01.026Z</time></trkpt><trkpt lat="42.2507714" lon="13.9312005"><ele>249.25</ele><time>2026-05-02T07:37:02.026Z</time></trkpt><trkpt lat="42.2507375" lon="13.9313675"><ele>249.5</ele><time>2026-05-02T07:37:03.026Z</time></trkpt><trkpt lat="42.2506905" lon="13.931533"><ele>249.75</ele><time>2026-05-02T07:37:04.025Z</time></trkpt><trkpt lat="42.2506303" lon="13.9316893"><ele>250.0</ele><time>2026-05-02T07:37:05.026Z</time></trkpt><trkpt lat="42.2505715" lon="13.9318356"><ele>243.75</ele><time>2026-05-02T07:37:06.026Z</time></trkpt><trkpt lat="42.2505153" lon="13.9319821"><ele>237.5</ele><time>2026-05-02T07:37:07.026Z</time></trkpt><trkpt lat="42.2504606" lon="13.9321233"><ele>231.25</ele><time>2026-05-02T07:37:08.026Z</time></trkpt><trkpt lat="42.2504076" lon="13.9322627"><ele>225.0</ele><time>2026-05-02T07:37:09.026Z</time></trkpt><trkpt lat="42.2503703" lon="13.9324042"><ele>225.0</ele><time>2026-05-02T07:37:10.026Z</time></trkpt><trkpt lat="42.2503463" lon="13.9325379"><ele>225.0</ele><time>2026-05-02T07:37:11.026Z</time></trkpt><trkpt lat="42.2503291" lon="13.9326356"><ele>225.0</ele><time>2026-05-02T07:37:12.026Z</time></trkpt><trkpt lat="42.2502578" lon="13.9327528"><ele>225.0</ele><time>2026-05-02T07:37:14.026Z</time></trkpt><trkpt lat="42.2501749" lon="13.932689"><ele>225.0</ele><time>2026-05-02T07:37:16.026Z</time></trkpt><trkpt lat="42.2501836" lon="13.9324994"><ele>225.0</ele><time>2026-05-02T07:37:18.026Z</time></trkpt><trkpt lat="42.2502076" lon="13.9323662"><ele>225.0</ele><time>2026-05-02T07:37:19.026Z</time></trkpt><trkpt lat="42.2502314" lon="13.932208"><ele>225.0</ele><time>2026-05-02T07:37:20.026Z</time></trkpt><trkpt lat="42.2502518" lon="13.9320267"><ele>225.0</ele><time>2026-05-02T07:37:21.026Z</time></trkpt><trkpt lat="42.2502582" lon="13.9318464"><ele>224.5</ele><time>2026-05-02T07:37:22.025Z</time></trkpt><trkpt lat="42.2502423" lon="13.9316724"><ele>224.0</ele><time>2026-05-02T07:37:23.025Z</time></trkpt><trkpt lat="42.2502033" lon="13.9314972"><ele>223.5</ele><time>2026-05-02T07:37:24.026Z</time></trkpt><trkpt lat="42.2501488" lon="13.9313278"><ele>223.0</ele><time>2026-05-02T07:37:25.026Z</time></trkpt><trkpt lat="42.2500891" lon="13.9311738"><ele>223.0</ele><time>2026-05-02T07:37:26.026Z</time></trkpt><trkpt lat="42.2500209" lon="13.9310473"><ele>223.0</ele><time>2026-05-02T07:37:27.026Z</time></trkpt><trkpt lat="42.2499376" lon="13.9309558"><ele>223.0</ele><time>2026-05-02T07:37:28.026Z</time></trkpt><trkpt lat="42.2498343" lon="13.9308963"><ele>223.0</ele><time>2026-05-02T07:37:29.026Z</time></trkpt><trkpt lat="42.2497148" lon="13.9308649"><ele>221.0</ele><time>2026-05-02T07:37:30.025Z</time></trkpt><trkpt lat="42.2495855" lon="13.9308488"><ele>219.0</ele><time>2026-05-02T07:37:31.026Z</time></trkpt><trkpt lat="42.249465" lon="13.9308244"><ele>217.0</ele><time>2026-05-02T07:37:32.026Z</time></trkpt><trkpt lat="42.2493513" lon="13.9307997"><ele>215.0</ele><time>2026-05-02T07:37:33.026Z</time></trkpt><trkpt lat="42.2492506" lon="13.9307656"><ele>215.00000000000003</ele><time>2026-05-02T07:37:34.026Z</time></trkpt><trkpt lat="42.2491675" lon="13.9307095"><ele>215.0</ele><time>2026-05-02T07:37:35.026Z</time></trkpt><trkpt lat="42.2491122" lon="13.930636"><ele>215.0</ele><time>2026-05-02T07:37:36.026Z</time></trkpt><trkpt lat="42.2490739" lon="13.9305518"><ele>215.0</ele><time>2026-05-02T07:37:37.026Z</time></trkpt><trkpt lat="42.2490438" lon="13.9304583"><ele>215.00000000000003</ele><time>2026-05-02T07:37:38.026Z</time></trkpt><trkpt lat="42.249021" lon="13.9303581"><ele>215.0</ele><time>2026-05-02T07:37:39.026Z</time></trkpt><trkpt lat="42.2490078" lon="13.9302549"><ele>215.0</ele><time>2026-05-02T07:37:40.026Z</time></trkpt><trkpt lat="42.2490112" lon="13.9301486"><ele>215.0</ele><time>2026-05-02T07:37:41.026Z</time></trkpt><trkpt lat="42.2490387" lon="13.9300443"><ele>215.0</ele><time>2026-05-02T07:37:42.026Z</time></trkpt><trkpt lat="42.2490879" lon="13.9299459"><ele>215.0</ele><time>2026-05-02T07:37:43.026Z</time></trkpt><trkpt lat="42.2491557" lon="13.9298479"><ele>215.0</ele><time>2026-05-02T07:37:44.026Z</time></trkpt><trkpt lat="42.2492372" lon="13.9297484"><ele>214.6</ele><time>2026-05-02T07:37:45.026Z</time></trkpt><trkpt lat="42.2493226" lon="13.9296441"><ele>214.2</ele><time>2026-05-02T07:37:46.026Z</time></trkpt><trkpt lat="42.2493934" lon="13.92954"><ele>213.8</ele><time>2026-05-02T07:37:47.026Z</time></trkpt><trkpt lat="42.2494366" lon="13.9294203"><ele>213.4</ele><time>2026-05-02T07:37:48.026Z</time></trkpt><trkpt lat="42.2494522" lon="13.9292857"><ele>213.0</ele><time>2026-05-02T07:37:49.026Z</time></trkpt><trkpt lat="42.2494443" lon="13.9291511"><ele>212.0</ele><time>2026-05-02T07:37:50.026Z</time></trkpt><trkpt lat="42.2494162" lon="13.9290203"><ele>211.0</ele><time>2026-05-02T07:37:51.026Z</time></trkpt><trkpt lat="42.2493648" lon="13.9289049"><ele>210.0</ele><time>2026-05-02T07:37:52.026Z</time></trkpt><trkpt lat="42.2492913" lon="13.9288032"><ele>209.0</ele><time>2026-05-02T07:37:53.026Z</time></trkpt><trkpt lat="42.249198" lon="13.9287173"><ele>208.0</ele><time>2026-05-02T07:37:54.026Z</time></trkpt><trkpt lat="42.2490907" lon="13.9286423"><ele>208.0</ele><time>2026-05-02T07:37:55.025Z</time></trkpt><trkpt lat="42.2489787" lon="13.928562"><ele>208.0</ele><time>2026-05-02T07:37:56.026Z</time></trkpt><trkpt lat="42.2488626" lon="13.9284794"><ele>208.0</ele><time>2026-05-02T07:37:57.025Z</time></trkpt><trkpt lat="42.2487415" lon="13.9283962"><ele>208.0</ele><time>2026-05-02T07:37:58.026Z</time></trkpt><trkpt lat="42.2486145" lon="13.9283064"><ele>207.0</ele><time>2026-05-02T07:37:59.025Z</time></trkpt><trkpt lat="42.2484835" lon="13.9282173"><ele>206.0</ele><time>2026-05-02T07:38:00.026Z</time></trkpt><trkpt lat="42.2483554" lon="13.9281247"><ele>205.0</ele><time>2026-05-02T07:38:01.026Z</time></trkpt><trkpt lat="42.2482345" lon="13.9280313"><ele>204.0</ele><time>2026-05-02T07:38:02.026Z</time></trkpt><trkpt lat="42.248121" lon="13.9279254"><ele>202.25</ele><time>2026-05-02T07:38:03.026Z</time></trkpt><trkpt lat="42.2480177" lon="13.9278041"><ele>200.5</ele><time>2026-05-02T07:38:04.026Z</time></trkpt><trkpt lat="42.2479226" lon="13.927672"><ele>198.75</ele><time>2026-05-02T07:38:05.026Z</time></trkpt><trkpt lat="42.2478334" lon="13.927552"><ele>197.0</ele><time>2026-05-02T07:38:06.026Z</time></trkpt><trkpt lat="42.2477549" lon="13.927447"><ele>197.00000000000003</ele><time>2026-05-02T07:38:07.025Z</time></trkpt><trkpt lat="42.247681" lon="13.9273715"><ele>197.0</ele><time>2026-05-02T07:38:08.026Z</time></trkpt><trkpt lat="42.2476118" lon="13.9273311"><ele>197.0</ele><time>2026-05-02T07:38:09.026Z</time></trkpt><trkpt lat="42.2475469" lon="13.9273248"><ele>197.0</ele><time>2026-05-02T07:38:10.026Z</time></trkpt><trkpt lat="42.247473" lon="13.9273234"><ele>197.00000000000003</ele><time>2026-05-02T07:38:11.026Z</time></trkpt><trkpt lat="42.2473899" lon="13.9273268"><ele>197.0</ele><time>2026-05-02T07:38:12.026Z</time></trkpt><trkpt lat="42.247296" lon="13.9273423"><ele>194.0</ele><time>2026-05-02T07:38:13.025Z</time></trkpt><trkpt lat="42.2471967" lon="13.9273726"><ele>191.0</ele><time>2026-05-02T07:38:14.026Z</time></trkpt><trkpt lat="42.2471007" lon="13.9274275"><ele>188.0</ele><time>2026-05-02T07:38:15.025Z</time></trkpt><trkpt lat="42.2470149" lon="13.9275009"><ele>185.0</ele><time>2026-05-02T07:38:16.026Z</time></trkpt><trkpt lat="42.2469515" lon="13.927583"><ele>182.0</ele><time>2026-05-02T07:38:17.026Z</time></trkpt><trkpt lat="42.2469113" lon="13.9276741"><ele>181.39999999999998</ele><time>2026-05-02T07:38:18.026Z</time></trkpt><trkpt lat="42.2468986" lon="13.9277765"><ele>180.79999999999998</ele><time>2026-05-02T07:38:19.026Z</time></trkpt><trkpt lat="42.2469195" lon="13.9278831"><ele>180.2</ele><time>2026-05-02T07:38:20.026Z</time></trkpt><trkpt lat="42.2469863" lon="13.9279613"><ele>179.6</ele><time>2026-05-02T07:38:21.025Z</time></trkpt><trkpt lat="42.2470737" lon="13.9280235"><ele>179.0</ele><time>2026-05-02T07:38:22.026Z</time></trkpt><trkpt lat="42.2471758" lon="13.9280767"><ele>179.0</ele><time>2026-05-02T07:38:23.026Z</time></trkpt><trkpt lat="42.2472761" lon="13.9281308"><ele>179.0</ele><time>2026-05-02T07:38:24.026Z</time></trkpt><trkpt lat="42.2473557" lon="13.9281902"><ele>179.0</ele><time>2026-05-02T07:38:25.026Z</time></trkpt><trkpt lat="42.2474239" lon="13.9282716"><ele>179.0</ele><time>2026-05-02T07:38:26.026Z</time></trkpt><trkpt lat="42.2474813" lon="13.928374"><ele>179.0</ele><time>2026-05-02T07:38:27.026Z</time></trkpt><trkpt lat="42.2475211" lon="13.9285011"><ele>178.79999999999998</ele><time>2026-05-02T07:38:28.026Z</time></trkpt><trkpt lat="42.2475357" lon="13.9286341"><ele>178.6</ele><time>2026-05-02T07:38:29.026Z</time></trkpt><trkpt lat="42.2475312" lon="13.9287752"><ele>178.4</ele><time>2026-05-02T07:38:30.026Z</time></trkpt><trkpt lat="42.2475054" lon="13.9289313"><ele>178.2</ele><time>2026-05-02T07:38:31.026Z</time></trkpt><trkpt lat="42.2474793" lon="13.9290956"><ele>178.0</ele><time>2026-05-02T07:38:32.026Z</time></trkpt><trkpt lat="42.2474582" lon="13.9292546"><ele>178.0</ele><time>2026-05-02T07:38:33.026Z</time></trkpt><trkpt lat="42.2474355" lon="13.9294069"><ele>178.0</ele><time>2026-05-02T07:38:34.026Z</time></trkpt><trkpt lat="42.2474137" lon="13.9295291"><ele>178.0</ele><time>2026-05-02T07:38:35.026Z</time></trkpt><trkpt lat="42.2473763" lon="13.9296207"><ele>178.0</ele><time>2026-05-02T07:38:36.026Z</time></trkpt><trkpt lat="42.2473201" lon="13.9296713"><ele>178.0</ele><time>2026-05-02T07:38:37.026Z</time></trkpt><trkpt lat="42.2472475" lon="13.9296756"><ele>178.0</ele><time>2026-05-02T07:38:38.026Z</time></trkpt><trkpt lat="42.2471676" lon="13.9296428"><ele>176.8</ele><time>2026-05-02T07:38:39.026Z</time></trkpt><trkpt lat="42.2470858" lon="13.9295892"><ele>175.60000000000002</ele><time>2026-05-02T07:38:40.026Z</time></trkpt><trkpt lat="42.2470124" lon="13.929513"><ele>174.39999999999998</ele><time>2026-05-02T07:38:41.026Z</time></trkpt><trkpt lat="42.246958" lon="13.9294095"><ele>173.2</ele><time>2026-05-02T07:38:42.026Z</time></trkpt><trkpt lat="42.2469214" lon="13.9292828"><ele>172.0</ele><time>2026-05-02T07:38:43.026Z</time></trkpt><trkpt lat="42.2468819" lon="13.9291473"><ele>172.0</ele><time>2026-05-02T07:38:44.026Z</time></trkpt><trkpt lat="42.2468372" lon="13.9290041"><ele>172.0</ele><time>2026-05-02T07:38:45.026Z</time></trkpt><trkpt lat="42.2467849" lon="13.9288719"><ele>172.0</ele><time>2026-05-02T07:38:46.026Z</time></trkpt><trkpt lat="42.2467136" lon="13.9287482"><ele>172.0</ele><time>2026-05-02T07:38:47.026Z</time></trkpt><trkpt lat="42.2466328" lon="13.9286265"><ele>172.0</ele><time>2026-05-02T07:38:48.026Z</time></trkpt><trkpt lat="42.2465521" lon="13.9284978"><ele>172.0</ele><time>2026-05-02T07:38:49.026Z</time></trkpt><trkpt lat="42.2464773" lon="13.9283725"><ele>172.0</ele><time>2026-05-02T07:38:50.026Z</time></trkpt><trkpt lat="42.2464" lon="13.928242"><ele>172.0</ele><time>2026-05-02T07:38:51.026Z</time></trkpt><trkpt lat="42.2463232" lon="13.9281147"><ele>169.8</ele><time>2026-05-02T07:38:52.025Z</time></trkpt><trkpt lat="42.2462516" lon="13.9279915"><ele>167.6</ele><time>2026-05-02T07:38:53.026Z</time></trkpt><trkpt lat="42.2462047" lon="13.92786"><ele>165.4</ele><time>2026-05-02T07:38:54.026Z</time></trkpt><trkpt lat="42.2461863" lon="13.9277143"><ele>163.20000000000002</ele><time>2026-05-02T07:38:55.026Z</time></trkpt><trkpt lat="42.2461933" lon="13.9275579"><ele>161.0</ele><time>2026-05-02T07:38:56.026Z</time></trkpt><trkpt lat="42.2462109" lon="13.9273936"><ele>161.0</ele><time>2026-05-02T07:38:57.026Z</time></trkpt><trkpt lat="42.2462168" lon="13.9272409"><ele>161.0</ele><time>2026-05-02T07:38:58.026Z</time></trkpt><trkpt lat="42.2462219" lon="13.9271015"><ele>161.0</ele><time>2026-05-02T07:38:59.026Z</time></trkpt><trkpt lat="42.2462129" lon="13.9269881"><ele>161.0</ele><time>2026-05-02T07:39:00.026Z</time></trkpt><trkpt lat="42.2461813" lon="13.9268939"><ele>161.0</ele><time>2026-05-02T07:39:01.026Z</time></trkpt><trkpt lat="42.2461285" lon="13.9268284"><ele>161.0</ele><time>2026-05-02T07:39:02.025Z</time></trkpt><trkpt lat="42.2460554" lon="13.9268049"><ele>161.0</ele><time>2026-05-02T07:39:03.026Z</time></trkpt><trkpt lat="42.2459764" lon="13.9268062"><ele>161.0</ele><time>2026-05-02T07:39:04.026Z</time></trkpt><trkpt lat="42.2458929" lon="13.926818"><ele>161.0</ele><time>2026-05-02T07:39:05.026Z</time></trkpt><trkpt lat="42.2457991" lon="13.9268236"><ele>161.0</ele><time>2026-05-02T07:39:06.026Z</time></trkpt><trkpt lat="42.2457008" lon="13.9268299"><ele>161.0</ele><time>2026-05-02T07:39:07.026Z</time></trkpt><trkpt lat="42.2456008" lon="13.9268319"><ele>162.20000000000002</ele><time>2026-05-02T07:39:08.026Z</time></trkpt><trkpt lat="42.2454938" lon="13.9268378"><ele>163.4</ele><time>2026-05-02T07:39:09.025Z</time></trkpt><trkpt lat="42.2453812" lon="13.9268443"><ele>164.6</ele><time>2026-05-02T07:39:10.026Z</time></trkpt><trkpt lat="42.2452688" lon="13.9268544"><ele>165.8</ele><time>2026-05-02T07:39:11.026Z</time></trkpt><trkpt lat="42.245156" lon="13.926868"><ele>167.0</ele><time>2026-05-02T07:39:12.026Z</time></trkpt><trkpt lat="42.2450402" lon="13.9268866"><ele>167.0</ele><time>2026-05-02T07:39:13.025Z</time></trkpt><trkpt lat="42.2449387" lon="13.9269113"><ele>167.0</ele><time>2026-05-02T07:39:14.026Z</time></trkpt><trkpt lat="42.2448488" lon="13.9269362"><ele>167.0</ele><time>2026-05-02T07:39:15.026Z</time></trkpt><trkpt lat="42.2447625" lon="13.9269548"><ele>167.0</ele><time>2026-05-02T07:39:16.026Z</time></trkpt><trkpt lat="42.2446843" lon="13.926975"><ele>167.0</ele><time>2026-05-02T07:39:17.025Z</time></trkpt><trkpt lat="42.2446165" lon="13.9270042"><ele>167.0</ele><time>2026-05-02T07:39:18.026Z</time></trkpt><trkpt lat="42.2445445" lon="13.9271066"><ele>169.2</ele><time>2026-05-02T07:39:20.026Z</time></trkpt><trkpt lat="42.2445121" lon="13.9272191"><ele>171.39999999999998</ele><time>2026-05-02T07:39:22.026Z</time></trkpt><trkpt lat="42.2444905" lon="13.927355"><ele>173.60000000000002</ele><time>2026-05-02T07:39:24.026Z</time></trkpt><trkpt lat="42.2444758" lon="13.9275229"><ele>175.8</ele><time>2026-05-02T07:39:26.026Z</time></trkpt><trkpt lat="42.2444545" lon="13.9276734"><ele>178.0</ele><time>2026-05-02T07:39:28.026Z</time></trkpt><trkpt lat="42.2444357" lon="13.9278317"><ele>178.0</ele><time>2026-05-02T07:39:30.026Z</time></trkpt><trkpt lat="42.2443995" lon="13.927969"><ele>178.0</ele><time>2026-05-02T07:39:32.026Z</time></trkpt><trkpt lat="42.2443847" lon="13.928054"><ele>178.0</ele><time>2026-05-02T07:39:34.026Z</time></trkpt><trkpt lat="42.2444526" lon="13.9280121"><ele>178.0</ele><time>2026-05-02T07:39:38.026Z</time></trkpt><trkpt lat="42.2444635" lon="13.9278587"><ele>178.0</ele><time>2026-05-02T07:39:40.026Z</time></trkpt><trkpt lat="42.2444707" lon="13.9277572"><ele>178.0</ele><time>2026-05-02T07:39:41.026Z</time></trkpt><trkpt lat="42.2444852" lon="13.9276419"><ele>179.4</ele><time>2026-05-02T07:39:42.026Z</time></trkpt><trkpt lat="42.2444981" lon="13.9275105"><ele>180.8</ele><time>2026-05-02T07:39:43.026Z</time></trkpt><trkpt lat="42.2445093" lon="13.9273656"><ele>182.2</ele><time>2026-05-02T07:39:44.026Z</time></trkpt><trkpt lat="42.2445291" lon="13.9272309"><ele>183.6</ele><time>2026-05-02T07:39:45.026Z</time></trkpt><trkpt lat="42.2445492" lon="13.927114"><ele>185.0</ele><time>2026-05-02T07:39:46.026Z</time></trkpt><trkpt lat="42.2445683" lon="13.9270018"><ele>185.0</ele><time>2026-05-02T07:39:47.026Z</time></trkpt><trkpt lat="42.2445879" lon="13.9269096"><ele>185.0</ele><time>2026-05-02T07:39:48.026Z</time></trkpt><trkpt lat="42.2446233" lon="13.9267887"><ele>185.0</ele><time>2026-05-02T07:39:50.026Z</time></trkpt><trkpt lat="42.2446608" lon="13.9266941"><ele>185.0</ele><time>2026-05-02T07:39:53.026Z</time></trkpt><trkpt lat="42.244705" lon="13.9266202"><ele>185.0</ele><time>2026-05-02T07:39:55.026Z</time></trkpt><trkpt lat="42.2447652" lon="13.926501"><ele>185.0</ele><time>2026-05-02T07:39:57.026Z</time></trkpt><trkpt lat="42.2448077" lon="13.9263823"><ele>186.33333333333331</ele><time>2026-05-02T07:39:59.026Z</time></trkpt><trkpt lat="42.2448266" lon="13.9262992"><ele>187.66666666666666</ele><time>2026-05-02T07:40:01.026Z</time></trkpt><trkpt lat="42.2448908" lon="13.9263101"><ele>189.0</ele><time>2026-05-02T07:41:33.026Z</time></trkpt><trkpt lat="42.2448707" lon="13.9263916"><ele>190.33333333333331</ele><time>2026-05-02T07:42:37.026Z</time></trkpt><trkpt lat="42.2448267" lon="13.9264724"><ele>191.66666666666666</ele><time>2026-05-02T07:42:57.026Z</time></trkpt><trkpt lat="42.244775" lon="13.9265691"><ele>193.0</ele><time>2026-05-02T07:43:09.026Z</time></trkpt><trkpt lat="42.2448068" lon="13.9263823"><ele>192.99999999999997</ele><time>2026-05-02T07:43:12.038Z</time></trkpt><trkpt lat="42.2447749" lon="13.9264631"><ele>193.0</ele><time>2026-05-02T07:43:17.027Z</time></trkpt><trkpt lat="42.2447388" lon="13.9266115"><ele>193.0</ele><time>2026-05-02T07:43:18.027Z</time></trkpt><trkpt lat="42.2446913" lon="13.9266895"><ele>193.0</ele><time>2026-05-02T07:43:23.027Z</time></trkpt><trkpt lat="42.2446717" lon="13.9267775"><ele>192.99999999999997</ele><time>2026-05-02T07:43:28.03Z</time></trkpt><trkpt lat="42.2446496" lon="13.9268596"><ele>193.0</ele><time>2026-05-02T07:43:33.021Z</time></trkpt><trkpt lat="42.2446045" lon="13.9269288"><ele>191.85714285714286</ele><time>2026-05-02T07:43:38.026Z</time></trkpt><trkpt lat="42.2445467" lon="13.9269957"><ele>190.71428571428572</ele><time>2026-05-02T07:43:44.018Z</time></trkpt><trkpt lat="42.2445248" lon="13.9270795"><ele>189.57142857142856</ele><time>2026-05-02T07:43:50.027Z</time></trkpt><trkpt lat="42.2444974" lon="13.9271631"><ele>188.42857142857144</ele><time>2026-05-02T07:43:56.025Z</time></trkpt><trkpt lat="42.2444696" lon="13.9272426"><ele>187.28571428571428</ele><time>2026-05-02T07:44:03.025Z</time></trkpt><trkpt lat="42.2444802" lon="13.9273324"><ele>186.14285714285714</ele><time>2026-05-02T07:44:10.029Z</time></trkpt><trkpt lat="42.2444672" lon="13.9274189"><ele>185.0</ele><time>2026-05-02T07:44:15.951Z</time></trkpt><trkpt lat="42.2444519" lon="13.9275201"><ele>183.99999999999997</ele><time>2026-05-02T07:44:23.015Z</time></trkpt><trkpt lat="42.24444" lon="13.9276183"><ele>183.0</ele><time>2026-05-02T07:44:29.028Z</time></trkpt><trkpt lat="42.244428" lon="13.9277072"><ele>182.0</ele><time>2026-05-02T07:44:35.025Z</time></trkpt><trkpt lat="42.2444139" lon="13.9277934"><ele>181.0</ele><time>2026-05-02T07:44:42.021Z</time></trkpt><trkpt lat="42.2444025" lon="13.9278778"><ele>180.0</ele><time>2026-05-02T07:44:48.029Z</time></trkpt><trkpt lat="42.2444096" lon="13.9279763"><ele>178.99999999999997</ele><time>2026-05-02T07:44:55.024Z</time></trkpt><trkpt lat="42.2444324" lon="13.9280564"><ele>178.0</ele><time>2026-05-02T07:45:01.059Z</time></trkpt><trkpt lat="42.244413" lon="13.9281496"><ele>177.99999999999997</ele><time>2026-05-02T07:45:10.023Z</time></trkpt><trkpt lat="42.2444395" lon="13.9282471"><ele>178.0</ele><time>2026-05-02T07:45:16.028Z</time></trkpt><trkpt lat="42.244454" lon="13.9283332"><ele>178.0</ele><time>2026-05-02T07:45:22.079Z</time></trkpt><trkpt lat="42.2444668" lon="13.9284299"><ele>178.0</ele><time>2026-05-02T07:45:29.022Z</time></trkpt><trkpt lat="42.2444985" lon="13.9285178"><ele>178.0</ele><time>2026-05-02T07:45:35.02Z</time></trkpt><trkpt lat="42.244565" lon="13.9285039"><ele>177.99999999999997</ele><time>2026-05-02T07:45:42.025Z</time></trkpt><trkpt lat="42.2446196" lon="13.9284388"><ele>178.0</ele><time>2026-05-02T07:45:48.021Z</time></trkpt><trkpt lat="42.2446851" lon="13.9284018"><ele>177.7142857142857</ele><time>2026-05-02T07:45:55.013Z</time></trkpt><trkpt lat="42.2447516" lon="13.9284015"><ele>177.42857142857142</ele><time>2026-05-02T07:46:03.017Z</time></trkpt><trkpt lat="42.2447039" lon="13.9285066"><ele>177.14285714285714</ele><time>2026-05-02T07:47:21.022Z</time></trkpt><trkpt lat="42.2446411" lon="13.9285267"><ele>176.85714285714283</ele><time>2026-05-02T07:49:22.026Z</time></trkpt><trkpt lat="42.2446844" lon="13.9284486"><ele>176.57142857142856</ele><time>2026-05-02T07:52:31.098Z</time></trkpt><trkpt lat="42.2447313" lon="13.9285215"><ele>176.28571428571428</ele><time>2026-05-02T07:52:40.026Z</time></trkpt><trkpt lat="42.2446669" lon="13.9285344"><ele>176.0</ele><time>2026-05-02T07:52:55.978Z</time></trkpt><trkpt lat="42.2446051" lon="13.9285752"><ele>176.0</ele><time>2026-05-02T07:53:00.941Z</time></trkpt><trkpt lat="42.2445451" lon="13.9286087"><ele>176.0</ele><time>2026-05-02T07:53:07.259Z</time></trkpt><trkpt lat="42.2444826" lon="13.9286442"><ele>176.0</ele><time>2026-05-02T07:53:18.026Z</time></trkpt><trkpt lat="42.2444409" lon="13.9285105"><ele>176.0</ele><time>2026-05-02T07:53:31.026Z</time></trkpt><trkpt lat="42.2443757" lon="13.9284888"><ele>176.0</ele><time>2026-05-02T07:54:14.026Z</time></trkpt><trkpt lat="42.2443217" lon="13.9284021"><ele>176.0</ele><time>2026-05-02T07:54:21.026Z</time></trkpt><trkpt lat="42.2443222" lon="13.9283076"><ele>176.33333333333331</ele><time>2026-05-02T07:54:26.659Z</time></trkpt><trkpt lat="42.2443644" lon="13.9281956"><ele>176.66666666666666</ele><time>2026-05-02T07:54:32.064Z</time></trkpt><trkpt lat="42.244373" lon="13.9280928"><ele>177.0</ele><time>2026-05-02T07:54:36.026Z</time></trkpt><trkpt lat="42.2443897" lon="13.9279945"><ele>177.33333333333334</ele><time>2026-05-02T07:54:41.026Z</time></trkpt><trkpt lat="42.244399" lon="13.9279055"><ele>177.66666666666669</ele><time>2026-05-02T07:54:45.141Z</time></trkpt><trkpt lat="42.2444204" lon="13.9278024"><ele>178.0</ele><time>2026-05-02T07:54:51.189Z</time></trkpt><trkpt lat="42.2444283" lon="13.9277166"><ele>177.99999999999997</ele><time>2026-05-02T07:54:57.66Z</time></trkpt><trkpt lat="42.2444436" lon="13.9276197"><ele>178.0</ele><time>2026-05-02T07:55:05.025Z</time></trkpt><trkpt lat="42.2444565" lon="13.9275205"><ele>178.0</ele><time>2026-05-02T07:55:13.229Z</time></trkpt><trkpt lat="42.2444685" lon="13.9274296"><ele>178.0</ele><time>2026-05-02T07:55:19.026Z</time></trkpt><trkpt lat="42.2444826" lon="13.9273224"><ele>178.0</ele><time>2026-05-02T07:55:25.026Z</time></trkpt><trkpt lat="42.2445115" lon="13.9272461"><ele>177.99999999999997</ele><time>2026-05-02T07:55:32.026Z</time></trkpt><trkpt lat="42.2445281" lon="13.9271555"><ele>178.0</ele><time>2026-05-02T07:55:39.139Z</time></trkpt><trkpt lat="42.2445519" lon="13.9270729"><ele>178.99999999999997</ele><time>2026-05-02T07:55:45.256Z</time></trkpt><trkpt lat="42.2445358" lon="13.9269605"><ele>180.0</ele><time>2026-05-02T07:55:52.209Z</time></trkpt><trkpt lat="42.2445695" lon="13.9268858"><ele>181.0</ele><time>2026-05-02T07:55:59.026Z</time></trkpt><trkpt lat="42.2445919" lon="13.9268015"><ele>182.0</ele><time>2026-05-02T07:56:05.025Z</time></trkpt><trkpt lat="42.2446241" lon="13.9267205"><ele>183.0</ele><time>2026-05-02T07:56:10.979Z</time></trkpt><trkpt lat="42.2446573" lon="13.926639"><ele>183.99999999999997</ele><time>2026-05-02T07:56:18.439Z</time></trkpt><trkpt lat="42.2446789" lon="13.9265499"><ele>185.0</ele><time>2026-05-02T07:56:26.026Z</time></trkpt><trkpt lat="42.244731" lon="13.9264823"><ele>186.14285714285714</ele><time>2026-05-02T07:57:51.026Z</time></trkpt><trkpt lat="42.2447591" lon="13.9264002"><ele>187.28571428571428</ele><time>2026-05-02T07:57:53.025Z</time></trkpt><trkpt lat="42.2447951" lon="13.9263272"><ele>188.42857142857144</ele><time>2026-05-02T07:57:58.979Z</time></trkpt><trkpt lat="42.24482" lon="13.9262414"><ele>189.57142857142856</ele><time>2026-05-02T07:58:09.026Z</time></trkpt><trkpt lat="42.2448672" lon="13.926305"><ele>190.71428571428572</ele><time>2026-05-02T07:59:03.04Z</time></trkpt><trkpt lat="42.2448026" lon="13.9263798"><ele>191.85714285714286</ele><time>2026-05-02T08:08:57.021Z</time></trkpt><trkpt lat="42.2447848" lon="13.926485"><ele>193.0</ele><time>2026-05-02T08:09:00.021Z</time></trkpt><trkpt lat="42.2447657" lon="13.9265703"><ele>193.00000000000003</ele><time>2026-05-02T08:09:04.021Z</time></trkpt><trkpt lat="42.2447338" lon="13.9266495"><ele>193.0</ele><time>2026-05-02T08:09:29.021Z</time></trkpt><trkpt lat="42.2447055" lon="13.9267274"><ele>193.0</ele><time>2026-05-02T08:09:32.021Z</time></trkpt><trkpt lat="42.2446567" lon="13.9268011"><ele>193.0</ele><time>2026-05-02T08:09:37.02Z</time></trkpt><trkpt lat="42.2446298" lon="13.9268812"><ele>193.0</ele><time>2026-05-02T08:09:41.021Z</time></trkpt><trkpt lat="42.2445988" lon="13.926984"><ele>193.00000000000003</ele><time>2026-05-02T08:10:01.021Z</time></trkpt><trkpt lat="42.2445732" lon="13.9270972"><ele>193.0</ele><time>2026-05-02T08:10:05.02Z</time></trkpt><trkpt lat="42.2445263" lon="13.9271913"><ele>191.66666666666666</ele><time>2026-05-02T08:10:07.021Z</time></trkpt><trkpt lat="42.244502" lon="13.9273234"><ele>190.33333333333331</ele><time>2026-05-02T08:10:09.021Z</time></trkpt><trkpt lat="42.2444887" lon="13.927444"><ele>189.0</ele><time>2026-05-02T08:10:11.021Z</time></trkpt><trkpt lat="42.2444803" lon="13.9275311"><ele>187.66666666666666</ele><time>2026-05-02T08:10:13.021Z</time></trkpt><trkpt lat="42.2444652" lon="13.9276352"><ele>186.33333333333331</ele><time>2026-05-02T08:10:15.021Z</time></trkpt><trkpt lat="42.2444508" lon="13.9277559"><ele>185.0</ele><time>2026-05-02T08:10:17.02Z</time></trkpt><trkpt lat="42.2444322" lon="13.9278559"><ele>183.83333333333331</ele><time>2026-05-02T08:10:20.021Z</time></trkpt><trkpt lat="42.2444051" lon="13.9279538"><ele>182.66666666666666</ele><time>2026-05-02T08:10:23.021Z</time></trkpt><trkpt lat="42.2443696" lon="13.9280607"><ele>181.5</ele><time>2026-05-02T08:10:25.021Z</time></trkpt><trkpt lat="42.2443226" lon="13.928151"><ele>180.33333333333334</ele><time>2026-05-02T08:10:27.021Z</time></trkpt><trkpt lat="42.2442649" lon="13.9282166"><ele>179.16666666666669</ele><time>2026-05-02T08:10:30.02Z</time></trkpt><trkpt lat="42.2442007" lon="13.9282631"><ele>178.0</ele><time>2026-05-02T08:10:33.021Z</time></trkpt><trkpt lat="42.2441118" lon="13.928303"><ele>178.0</ele><time>2026-05-02T08:10:36.021Z</time></trkpt><trkpt lat="42.2440477" lon="13.9283286"><ele>178.0</ele><time>2026-05-02T08:10:39.021Z</time></trkpt><trkpt lat="42.2439808" lon="13.9283578"><ele>178.0</ele><time>2026-05-02T08:11:00.02Z</time></trkpt><trkpt lat="42.2438784" lon="13.9283813"><ele>178.0</ele><time>2026-05-02T08:11:02.021Z</time></trkpt><trkpt lat="42.2438109" lon="13.9283834"><ele>178.0</ele><time>2026-05-02T08:11:03.021Z</time></trkpt><trkpt lat="42.2437385" lon="13.9283794"><ele>178.0</ele><time>2026-05-02T08:11:04.021Z</time></trkpt><trkpt lat="42.2436678" lon="13.9283595"><ele>178.5</ele><time>2026-05-02T08:11:05.021Z</time></trkpt><trkpt lat="42.2435977" lon="13.9283141"><ele>179.0</ele><time>2026-05-02T08:11:06.021Z</time></trkpt><trkpt lat="42.2435326" lon="13.9282528"><ele>179.5</ele><time>2026-05-02T08:11:07.021Z</time></trkpt><trkpt lat="42.2434707" lon="13.9281819"><ele>180.0</ele><time>2026-05-02T08:11:08.021Z</time></trkpt><trkpt lat="42.2434106" lon="13.9281"><ele>180.5</ele><time>2026-05-02T08:11:09.021Z</time></trkpt><trkpt lat="42.243348" lon="13.9280256"><ele>181.0</ele><time>2026-05-02T08:11:10.02Z</time></trkpt><trkpt lat="42.2432848" lon="13.927937"><ele>181.0</ele><time>2026-05-02T08:11:11.021Z</time></trkpt><trkpt lat="42.2432191" lon="13.927851"><ele>181.0</ele><time>2026-05-02T08:11:12.021Z</time></trkpt><trkpt lat="42.2431547" lon="13.9277622"><ele>181.0</ele><time>2026-05-02T08:11:13.021Z</time></trkpt><trkpt lat="42.2430884" lon="13.9276686"><ele>181.0</ele><time>2026-05-02T08:11:14.021Z</time></trkpt><trkpt lat="42.2430193" lon="13.9275751"><ele>181.0</ele><time>2026-05-02T08:11:15.021Z</time></trkpt><trkpt lat="42.2429479" lon="13.9274798"><ele>181.8</ele><time>2026-05-02T08:11:16.021Z</time></trkpt><trkpt lat="42.2428742" lon="13.9273844"><ele>182.60000000000002</ele><time>2026-05-02T08:11:17.021Z</time></trkpt><trkpt lat="42.2427973" lon="13.9272839"><ele>183.4</ele><time>2026-05-02T08:11:18.021Z</time></trkpt><trkpt lat="42.2427188" lon="13.9271838"><ele>184.2</ele><time>2026-05-02T08:11:19.021Z</time></trkpt><trkpt lat="42.242638" lon="13.9270842"><ele>185.0</ele><time>2026-05-02T08:11:20.021Z</time></trkpt><trkpt lat="42.2425618" lon="13.9269812"><ele>185.0</ele><time>2026-05-02T08:11:21.021Z</time></trkpt><trkpt lat="42.2424893" lon="13.9268833"><ele>185.0</ele><time>2026-05-02T08:11:22.021Z</time></trkpt><trkpt lat="42.2424201" lon="13.9267984"><ele>185.0</ele><time>2026-05-02T08:11:23.021Z</time></trkpt><trkpt lat="42.2423613" lon="13.926725"><ele>185.0</ele><time>2026-05-02T08:11:24.021Z</time></trkpt><trkpt lat="42.2422956" lon="13.9266465"><ele>185.0</ele><time>2026-05-02T08:11:26.021Z</time></trkpt><trkpt lat="42.242229" lon="13.9266979"><ele>185.0</ele><time>2026-05-02T08:11:29.021Z</time></trkpt><trkpt lat="42.242169" lon="13.9267977"><ele>185.33333333333331</ele><time>2026-05-02T08:11:31.02Z</time></trkpt><trkpt lat="42.2420888" lon="13.9269126"><ele>185.66666666666666</ele><time>2026-05-02T08:11:33.021Z</time></trkpt><trkpt lat="42.2420424" lon="13.9269783"><ele>186.0</ele><time>2026-05-02T08:11:34.021Z</time></trkpt><trkpt lat="42.24199" lon="13.927046"><ele>186.33333333333334</ele><time>2026-05-02T08:11:35.021Z</time></trkpt><trkpt lat="42.2419405" lon="13.9271143"><ele>186.66666666666669</ele><time>2026-05-02T08:11:36.021Z</time></trkpt><trkpt lat="42.2418972" lon="13.9271799"><ele>187.0</ele><time>2026-05-02T08:11:37.021Z</time></trkpt><trkpt lat="42.2418423" lon="13.9272357"><ele>187.0</ele><time>2026-05-02T08:11:38.021Z</time></trkpt><trkpt lat="42.2417955" lon="13.9273011"><ele>187.0</ele><time>2026-05-02T08:11:39.021Z</time></trkpt><trkpt lat="42.2417088" lon="13.9274204"><ele>187.0</ele><time>2026-05-02T08:11:41.021Z</time></trkpt><trkpt lat="42.2416372" lon="13.9274984"><ele>187.0</ele><time>2026-05-02T08:11:43.021Z</time></trkpt><trkpt lat="42.2415772" lon="13.9275589"><ele>187.0</ele><time>2026-05-02T08:11:46.021Z</time></trkpt><trkpt lat="42.241557" lon="13.9276859"><ele>186.83333333333334</ele><time>2026-05-02T08:11:52.021Z</time></trkpt><trkpt lat="42.2415933" lon="13.9278352"><ele>186.66666666666669</ele><time>2026-05-02T08:11:54.021Z</time></trkpt><trkpt lat="42.2416166" lon="13.9279298"><ele>186.5</ele><time>2026-05-02T08:11:55.021Z</time></trkpt><trkpt lat="42.2416423" lon="13.9280327"><ele>186.33333333333334</ele><time>2026-05-02T08:11:56.02Z</time></trkpt><trkpt lat="42.2416684" lon="13.9281388"><ele>186.16666666666666</ele><time>2026-05-02T08:11:57.021Z</time></trkpt><trkpt lat="42.2416948" lon="13.9282414"><ele>186.0</ele><time>2026-05-02T08:11:58.021Z</time></trkpt><trkpt lat="42.2417212" lon="13.9283458"><ele>185.42857142857144</ele><time>2026-05-02T08:11:59.021Z</time></trkpt><trkpt lat="42.2417498" lon="13.928442"><ele>184.85714285714286</ele><time>2026-05-02T08:12:00.021Z</time></trkpt><trkpt lat="42.2417764" lon="13.9285341"><ele>184.28571428571428</ele><time>2026-05-02T08:12:01.02Z</time></trkpt><trkpt lat="42.2417997" lon="13.9286224"><ele>183.71428571428572</ele><time>2026-05-02T08:12:02.021Z</time></trkpt><trkpt lat="42.2418176" lon="13.9287088"><ele>183.14285714285714</ele><time>2026-05-02T08:12:03.021Z</time></trkpt><trkpt lat="42.2418364" lon="13.928795"><ele>182.57142857142858</ele><time>2026-05-02T08:12:04.021Z</time></trkpt><trkpt lat="42.2418586" lon="13.9288812"><ele>182.0</ele><time>2026-05-02T08:12:05.021Z</time></trkpt><trkpt lat="42.2418796" lon="13.9289653"><ele>182.0</ele><time>2026-05-02T08:12:06.021Z</time></trkpt><trkpt lat="42.2419036" lon="13.9290506"><ele>182.0</ele><time>2026-05-02T08:12:07.021Z</time></trkpt><trkpt lat="42.2419265" lon="13.9291362"><ele>182.0</ele><time>2026-05-02T08:12:08.021Z</time></trkpt><trkpt lat="42.2419484" lon="13.9292253"><ele>182.0</ele><time>2026-05-02T08:12:09.021Z</time></trkpt><trkpt lat="42.2419691" lon="13.9293124"><ele>182.0</ele><time>2026-05-02T08:12:10.021Z</time></trkpt><trkpt lat="42.2419894" lon="13.9294042"><ele>182.0</ele><time>2026-05-02T08:12:11.021Z</time></trkpt><trkpt lat="42.2420125" lon="13.9294933"><ele>182.0</ele><time>2026-05-02T08:12:12.021Z</time></trkpt><trkpt lat="42.2420349" lon="13.9295851"><ele>182.0</ele><time>2026-05-02T08:12:13.021Z</time></trkpt><trkpt lat="42.2420541" lon="13.9296752"><ele>182.0</ele><time>2026-05-02T08:12:14.021Z</time></trkpt><trkpt lat="42.2420815" lon="13.9297646"><ele>182.0</ele><time>2026-05-02T08:12:15.02Z</time></trkpt><trkpt lat="42.2421018" lon="13.9298581"><ele>182.0</ele><time>2026-05-02T08:12:16.021Z</time></trkpt><trkpt lat="42.2421248" lon="13.9299516"><ele>182.0</ele><time>2026-05-02T08:12:17.021Z</time></trkpt><trkpt lat="42.2421461" lon="13.9300433"><ele>182.0</ele><time>2026-05-02T08:12:18.021Z</time></trkpt><trkpt lat="42.242168" lon="13.9301373"><ele>182.0</ele><time>2026-05-02T08:12:19.021Z</time></trkpt><trkpt lat="42.2421897" lon="13.9302369"><ele>182.0</ele><time>2026-05-02T08:12:20.021Z</time></trkpt><trkpt lat="42.2422135" lon="13.9303353"><ele>182.0</ele><time>2026-05-02T08:12:21.021Z</time></trkpt><trkpt lat="42.2422403" lon="13.9304354"><ele>182.0</ele><time>2026-05-02T08:12:22.02Z</time></trkpt><trkpt lat="42.242268" lon="13.930537"><ele>182.0</ele><time>2026-05-02T08:12:23.021Z</time></trkpt><trkpt lat="42.2422946" lon="13.9306415"><ele>182.0</ele><time>2026-05-02T08:12:24.021Z</time></trkpt><trkpt lat="42.2423234" lon="13.9307452"><ele>182.0</ele><time>2026-05-02T08:12:25.021Z</time></trkpt><trkpt lat="42.2423486" lon="13.9308546"><ele>181.83333333333331</ele><time>2026-05-02T08:12:26.021Z</time></trkpt><trkpt lat="42.2423671" lon="13.9309449"><ele>181.66666666666666</ele><time>2026-05-02T08:12:27.02Z</time></trkpt><trkpt lat="42.2423881" lon="13.9310301"><ele>181.5</ele><time>2026-05-02T08:12:28.02Z</time></trkpt><trkpt lat="42.2424115" lon="13.931118"><ele>181.33333333333334</ele><time>2026-05-02T08:12:29.021Z</time></trkpt><trkpt lat="42.2424343" lon="13.9312022"><ele>181.16666666666669</ele><time>2026-05-02T08:12:30.021Z</time></trkpt><trkpt lat="42.2424749" lon="13.9313459"><ele>181.0</ele><time>2026-05-02T08:12:32.021Z</time></trkpt><trkpt lat="42.2425113" lon="13.9314906"><ele>181.0</ele><time>2026-05-02T08:12:34.021Z</time></trkpt><trkpt lat="42.2425357" lon="13.9315697"><ele>181.0</ele><time>2026-05-02T08:12:35.021Z</time></trkpt><trkpt lat="42.2425762" lon="13.9317251"><ele>181.0</ele><time>2026-05-02T08:12:37.021Z</time></trkpt><trkpt lat="42.2426149" lon="13.9318675"><ele>181.0</ele><time>2026-05-02T08:12:39.021Z</time></trkpt><trkpt lat="42.2426476" lon="13.9320218"><ele>181.0</ele><time>2026-05-02T08:12:41.02Z</time></trkpt><trkpt lat="42.2426859" lon="13.9321807"><ele>180.60000000000002</ele><time>2026-05-02T08:12:43.021Z</time></trkpt><trkpt lat="42.2427093" lon="13.9322648"><ele>180.2</ele><time>2026-05-02T08:12:44.021Z</time></trkpt><trkpt lat="42.2427308" lon="13.9323485"><ele>179.8</ele><time>2026-05-02T08:12:45.021Z</time></trkpt><trkpt lat="42.2427747" lon="13.9325077"><ele>179.39999999999998</ele><time>2026-05-02T08:12:47.021Z</time></trkpt><trkpt lat="42.2428141" lon="13.9326659"><ele>179.0</ele><time>2026-05-02T08:12:49.021Z</time></trkpt><trkpt lat="42.2428566" lon="13.9328235"><ele>178.66666666666666</ele><time>2026-05-02T08:12:51.02Z</time></trkpt><trkpt lat="42.2428755" lon="13.9329058"><ele>178.33333333333331</ele><time>2026-05-02T08:12:52.021Z</time></trkpt><trkpt lat="42.2428952" lon="13.9329876"><ele>178.0</ele><time>2026-05-02T08:12:53.021Z</time></trkpt><trkpt lat="42.2429295" lon="13.933157"><ele>177.66666666666666</ele><time>2026-05-02T08:12:55.021Z</time></trkpt><trkpt lat="42.2429532" lon="13.9332493"><ele>177.33333333333334</ele><time>2026-05-02T08:12:56.021Z</time></trkpt><trkpt lat="42.2429686" lon="13.9333422"><ele>177.0</ele><time>2026-05-02T08:12:57.021Z</time></trkpt><trkpt lat="42.2429905" lon="13.9334403"><ele>176.66666666666666</ele><time>2026-05-02T08:12:58.02Z</time></trkpt><trkpt lat="42.2430156" lon="13.9335419"><ele>176.33333333333334</ele><time>2026-05-02T08:12:59.021Z</time></trkpt><trkpt lat="42.2430418" lon="13.9336474"><ele>176.0</ele><time>2026-05-02T08:13:00.021Z</time></trkpt><trkpt lat="42.2430695" lon="13.9337516"><ele>175.66666666666669</ele><time>2026-05-02T08:13:01.021Z</time></trkpt><trkpt lat="42.2430927" lon="13.9338525"><ele>175.33333333333334</ele><time>2026-05-02T08:13:02.02Z</time></trkpt><trkpt lat="42.2431208" lon="13.9339471"><ele>175.0</ele><time>2026-05-02T08:13:03.021Z</time></trkpt><trkpt lat="42.24315" lon="13.9340419"><ele>174.28571428571428</ele><time>2026-05-02T08:13:04.021Z</time></trkpt><trkpt lat="42.2431723" lon="13.9341389"><ele>173.57142857142856</ele><time>2026-05-02T08:13:05.021Z</time></trkpt><trkpt lat="42.2431915" lon="13.9342327"><ele>172.85714285714286</ele><time>2026-05-02T08:13:06.021Z</time></trkpt><trkpt lat="42.243212" lon="13.9343291"><ele>172.14285714285714</ele><time>2026-05-02T08:13:07.021Z</time></trkpt><trkpt lat="42.2432373" lon="13.9344224"><ele>171.42857142857142</ele><time>2026-05-02T08:13:08.021Z</time></trkpt><trkpt lat="42.2432605" lon="13.9345141"><ele>170.71428571428572</ele><time>2026-05-02T08:13:09.021Z</time></trkpt><trkpt lat="42.2432848" lon="13.9346088"><ele>170.0</ele><time>2026-05-02T08:13:10.021Z</time></trkpt><trkpt lat="42.2433083" lon="13.934702"><ele>169.83333333333331</ele><time>2026-05-02T08:13:11.021Z</time></trkpt><trkpt lat="42.2433315" lon="13.9347958"><ele>169.66666666666666</ele><time>2026-05-02T08:13:12.021Z</time></trkpt><trkpt lat="42.2433589" lon="13.9348874"><ele>169.5</ele><time>2026-05-02T08:13:13.021Z</time></trkpt><trkpt lat="42.2433912" lon="13.9349811"><ele>169.33333333333334</ele><time>2026-05-02T08:13:14.02Z</time></trkpt><trkpt lat="42.2434219" lon="13.9350834"><ele>169.16666666666669</ele><time>2026-05-02T08:13:15.021Z</time></trkpt><trkpt lat="42.2434483" lon="13.9351924"><ele>169.0</ele><time>2026-05-02T08:13:16.021Z</time></trkpt><trkpt lat="42.2434762" lon="13.9353053"><ele>168.6</ele><time>2026-05-02T08:13:17.021Z</time></trkpt><trkpt lat="42.243502" lon="13.9354293"><ele>168.2</ele><time>2026-05-02T08:13:18.021Z</time></trkpt><trkpt lat="42.2435318" lon="13.9355572"><ele>167.79999999999998</ele><time>2026-05-02T08:13:19.02Z</time></trkpt><trkpt lat="42.2435622" lon="13.9356896"><ele>167.39999999999998</ele><time>2026-05-02T08:13:20.02Z</time></trkpt><trkpt lat="42.2435922" lon="13.9358265"><ele>167.0</ele><time>2026-05-02T08:13:21.021Z</time></trkpt><trkpt lat="42.2436263" lon="13.935962"><ele>166.6</ele><time>2026-05-02T08:13:22.02Z</time></trkpt><trkpt lat="42.2436615" lon="13.9360971"><ele>166.2</ele><time>2026-05-02T08:13:23.021Z</time></trkpt><trkpt lat="42.2436925" lon="13.9362354"><ele>165.8</ele><time>2026-05-02T08:13:24.021Z</time></trkpt><trkpt lat="42.2437274" lon="13.9363747"><ele>165.4</ele><time>2026-05-02T08:13:25.021Z</time></trkpt><trkpt lat="42.2437656" lon="13.9365098"><ele>165.0</ele><time>2026-05-02T08:13:26.021Z</time></trkpt><trkpt lat="42.2437981" lon="13.9366381"><ele>165.0</ele><time>2026-05-02T08:13:27.021Z</time></trkpt><trkpt lat="42.2438306" lon="13.9367578"><ele>165.0</ele><time>2026-05-02T08:13:28.021Z</time></trkpt><trkpt lat="42.2438684" lon="13.9368617"><ele>165.0</ele><time>2026-05-02T08:13:29.021Z</time></trkpt><trkpt lat="42.243914" lon="13.9369338"><ele>165.0</ele><time>2026-05-02T08:13:30.021Z</time></trkpt><trkpt lat="42.2440308" lon="13.9369682"><ele>165.0</ele><time>2026-05-02T08:13:32.021Z</time></trkpt><trkpt lat="42.2441345" lon="13.9368694"><ele>164.5</ele><time>2026-05-02T08:13:34.021Z</time></trkpt><trkpt lat="42.2441734" lon="13.9367904"><ele>164.0</ele><time>2026-05-02T08:13:35.021Z</time></trkpt><trkpt lat="42.2442124" lon="13.9367005"><ele>163.5</ele><time>2026-05-02T08:13:36.021Z</time></trkpt><trkpt lat="42.2442552" lon="13.9366053"><ele>163.0</ele><time>2026-05-02T08:13:37.021Z</time></trkpt><trkpt lat="42.2442994" lon="13.9365003"><ele>162.5</ele><time>2026-05-02T08:13:38.02Z</time></trkpt><trkpt lat="42.2443461" lon="13.9363875"><ele>162.0</ele><time>2026-05-02T08:13:39.021Z</time></trkpt><trkpt lat="42.2443958" lon="13.9362675"><ele>162.0</ele><time>2026-05-02T08:13:40.02Z</time></trkpt><trkpt lat="42.2444414" lon="13.9361439"><ele>162.0</ele><time>2026-05-02T08:13:41.021Z</time></trkpt><trkpt lat="42.2444774" lon="13.9360285"><ele>162.0</ele><time>2026-05-02T08:13:42.021Z</time></trkpt><trkpt lat="42.2445082" lon="13.9359146"><ele>162.0</ele><time>2026-05-02T08:13:43.021Z</time></trkpt><trkpt lat="42.2445426" lon="13.935795"><ele>162.0</ele><time>2026-05-02T08:13:44.021Z</time></trkpt><trkpt lat="42.2445735" lon="13.9356764"><ele>161.66666666666666</ele><time>2026-05-02T08:13:45.021Z</time></trkpt><trkpt lat="42.2446025" lon="13.9355671"><ele>161.33333333333334</ele><time>2026-05-02T08:13:46.021Z</time></trkpt><trkpt lat="42.2446269" lon="13.9354691"><ele>161.0</ele><time>2026-05-02T08:13:47.021Z</time></trkpt><trkpt lat="42.2446494" lon="13.9353674"><ele>160.66666666666669</ele><time>2026-05-02T08:13:48.021Z</time></trkpt><trkpt lat="42.2446756" lon="13.9352682"><ele>160.33333333333334</ele><time>2026-05-02T08:13:49.021Z</time></trkpt><trkpt lat="42.2447004" lon="13.9351692"><ele>160.0</ele><time>2026-05-02T08:13:50.021Z</time></trkpt><trkpt lat="42.2448124" lon="13.9350945"><ele>160.0</ele><time>2026-05-02T08:13:53.021Z</time></trkpt><trkpt lat="42.2449031" lon="13.9352367"><ele>160.0</ele><time>2026-05-02T08:13:54.02Z</time></trkpt><trkpt lat="42.2449605" lon="13.9352783"><ele>160.0</ele><time>2026-05-02T08:13:55.021Z</time></trkpt><trkpt lat="42.2450119" lon="13.935427"><ele>160.0</ele><time>2026-05-02T08:13:57.021Z</time></trkpt><trkpt lat="42.2450512" lon="13.935521"><ele>160.0</ele><time>2026-05-02T08:13:58.021Z</time></trkpt><trkpt lat="42.2450904" lon="13.9356278"><ele>160.0</ele><time>2026-05-02T08:13:59.021Z</time></trkpt><trkpt lat="42.2451328" lon="13.9357492"><ele>160.0</ele><time>2026-05-02T08:14:00.021Z</time></trkpt><trkpt lat="42.2451704" lon="13.9358659"><ele>160.0</ele><time>2026-05-02T08:14:01.021Z</time></trkpt><trkpt lat="42.2452078" lon="13.9359802"><ele>160.0</ele><time>2026-05-02T08:14:02.021Z</time></trkpt><trkpt lat="42.2452427" lon="13.9360884"><ele>160.0</ele><time>2026-05-02T08:14:03.021Z</time></trkpt><trkpt lat="42.2452776" lon="13.9361943"><ele>159.5</ele><time>2026-05-02T08:14:04.021Z</time></trkpt><trkpt lat="42.2453099" lon="13.9362978"><ele>159.0</ele><time>2026-05-02T08:14:05.021Z</time></trkpt><trkpt lat="42.2453426" lon="13.9363984"><ele>158.5</ele><time>2026-05-02T08:14:06.02Z</time></trkpt><trkpt lat="42.2453765" lon="13.936498"><ele>158.0</ele><time>2026-05-02T08:14:07.02Z</time></trkpt><trkpt lat="42.2454116" lon="13.9365901"><ele>157.5</ele><time>2026-05-02T08:14:08.021Z</time></trkpt><trkpt lat="42.2454452" lon="13.9366794"><ele>157.0</ele><time>2026-05-02T08:14:09.021Z</time></trkpt><trkpt lat="42.245476" lon="13.9367662"><ele>156.66666666666669</ele><time>2026-05-02T08:14:10.021Z</time></trkpt><trkpt lat="42.2455219" lon="13.9369072"><ele>156.33333333333334</ele><time>2026-05-02T08:14:12.021Z</time></trkpt><trkpt lat="42.2455476" lon="13.937"><ele>156.0</ele><time>2026-05-02T08:14:14.021Z</time></trkpt><trkpt lat="42.2455778" lon="13.9371022"><ele>155.66666666666666</ele><time>2026-05-02T08:14:17.02Z</time></trkpt><trkpt lat="42.2456025" lon="13.9372011"><ele>155.33333333333331</ele><time>2026-05-02T08:14:20.021Z</time></trkpt><trkpt lat="42.245607" lon="13.9370747"><ele>155.0</ele><time>2026-05-02T08:15:01.021Z</time></trkpt><trkpt lat="42.2455582" lon="13.9369498"><ele>155.0</ele><time>2026-05-02T08:15:03.021Z</time></trkpt><trkpt lat="42.2454997" lon="13.9367957"><ele>155.0</ele><time>2026-05-02T08:15:05.021Z</time></trkpt><trkpt lat="42.2454672" lon="13.9367048"><ele>155.0</ele><time>2026-05-02T08:15:06.021Z</time></trkpt><trkpt lat="42.2454338" lon="13.9366056"><ele>155.0</ele><time>2026-05-02T08:15:07.021Z</time></trkpt><trkpt lat="42.245397" lon="13.936501"><ele>155.0</ele><time>2026-05-02T08:15:08.021Z</time></trkpt><trkpt lat="42.2453579" lon="13.9363905"><ele>155.4</ele><time>2026-05-02T08:15:09.021Z</time></trkpt><trkpt lat="42.2453184" lon="13.9362728"><ele>155.8</ele><time>2026-05-02T08:15:10.021Z</time></trkpt><trkpt lat="42.2452791" lon="13.9361485"><ele>156.2</ele><time>2026-05-02T08:15:11.021Z</time></trkpt><trkpt lat="42.2452365" lon="13.9360211"><ele>156.6</ele><time>2026-05-02T08:15:12.021Z</time></trkpt><trkpt lat="42.245194" lon="13.9358894"><ele>157.0</ele><time>2026-05-02T08:15:13.021Z</time></trkpt><trkpt lat="42.2451504" lon="13.9357595"><ele>157.5</ele><time>2026-05-02T08:15:14.021Z</time></trkpt><trkpt lat="42.245109" lon="13.9356419"><ele>158.0</ele><time>2026-05-02T08:15:15.021Z</time></trkpt><trkpt lat="42.2450718" lon="13.9355403"><ele>158.5</ele><time>2026-05-02T08:15:16.02Z</time></trkpt><trkpt lat="42.2450403" lon="13.935452"><ele>159.0</ele><time>2026-05-02T08:15:17.021Z</time></trkpt><trkpt lat="42.245012" lon="13.9353742"><ele>159.5</ele><time>2026-05-02T08:15:18.02Z</time></trkpt><trkpt lat="42.2449688" lon="13.9352541"><ele>160.0</ele><time>2026-05-02T08:15:20.021Z</time></trkpt><trkpt lat="42.2449121" lon="13.9351707"><ele>160.0</ele><time>2026-05-02T08:15:22.021Z</time></trkpt><trkpt lat="42.2448151" lon="13.9351303"><ele>160.0</ele><time>2026-05-02T08:15:24.02Z</time></trkpt><trkpt lat="42.2447218" lon="13.9351092"><ele>160.0</ele><time>2026-05-02T08:15:26.021Z</time></trkpt><trkpt lat="42.2446095" lon="13.9351649"><ele>160.0</ele><time>2026-05-02T08:15:28.02Z</time></trkpt><trkpt lat="42.2445466" lon="13.9352412"><ele>160.0</ele><time>2026-05-02T08:15:29.021Z</time></trkpt><trkpt lat="42.2445318" lon="13.9353807"><ele>160.4</ele><time>2026-05-02T08:15:30.021Z</time></trkpt><trkpt lat="42.2445365" lon="13.9355712"><ele>160.8</ele><time>2026-05-02T08:15:31.021Z</time></trkpt><trkpt lat="42.2445185" lon="13.9356964"><ele>161.2</ele><time>2026-05-02T08:15:32.02Z</time></trkpt><trkpt lat="42.2444882" lon="13.9358239"><ele>161.6</ele><time>2026-05-02T08:15:33.02Z</time></trkpt><trkpt lat="42.2444596" lon="13.9359413"><ele>162.0</ele><time>2026-05-02T08:15:34.021Z</time></trkpt><trkpt lat="42.2444442" lon="13.9360339"><ele>162.0</ele><time>2026-05-02T08:15:35.021Z</time></trkpt><trkpt lat="42.2444113" lon="13.9361267"><ele>162.0</ele><time>2026-05-02T08:15:36.021Z</time></trkpt><trkpt lat="42.2443741" lon="13.9362264"><ele>162.0</ele><time>2026-05-02T08:15:37.021Z</time></trkpt><trkpt lat="42.244331" lon="13.9363349"><ele>162.0</ele><time>2026-05-02T08:15:38.021Z</time></trkpt><trkpt lat="42.2442839" lon="13.9364538"><ele>162.0</ele><time>2026-05-02T08:15:39.021Z</time></trkpt><trkpt lat="42.244242" lon="13.9365549"><ele>162.0</ele><time>2026-05-02T08:15:40.02Z</time></trkpt><trkpt lat="42.2442003" lon="13.936653"><ele>161.66666666666666</ele><time>2026-05-02T08:15:41.021Z</time></trkpt><trkpt lat="42.244156" lon="13.9367484"><ele>161.33333333333334</ele><time>2026-05-02T08:15:42.021Z</time></trkpt><trkpt lat="42.2441228" lon="13.9368287"><ele>161.0</ele><time>2026-05-02T08:15:43.021Z</time></trkpt><trkpt lat="42.2440716" lon="13.9368984"><ele>160.66666666666669</ele><time>2026-05-02T08:15:44.021Z</time></trkpt><trkpt lat="42.2440116" lon="13.9369291"><ele>160.33333333333334</ele><time>2026-05-02T08:15:45.02Z</time></trkpt><trkpt lat="42.2439045" lon="13.9368883"><ele>160.0</ele><time>2026-05-02T08:15:47.021Z</time></trkpt><trkpt lat="42.2438611" lon="13.9368238"><ele>160.83333333333334</ele><time>2026-05-02T08:15:48.021Z</time></trkpt><trkpt lat="42.2438298" lon="13.9367363"><ele>161.66666666666669</ele><time>2026-05-02T08:15:49.02Z</time></trkpt><trkpt lat="42.243803" lon="13.936636"><ele>162.5</ele><time>2026-05-02T08:15:50.021Z</time></trkpt><trkpt lat="42.2437757" lon="13.9365296"><ele>163.33333333333334</ele><time>2026-05-02T08:15:51.02Z</time></trkpt><trkpt lat="42.2437452" lon="13.9364096"><ele>164.16666666666666</ele><time>2026-05-02T08:15:52.021Z</time></trkpt><trkpt lat="42.2437158" lon="13.9362839"><ele>165.0</ele><time>2026-05-02T08:15:53.021Z</time></trkpt><trkpt lat="42.2436829" lon="13.9361509"><ele>165.0</ele><time>2026-05-02T08:15:54.021Z</time></trkpt><trkpt lat="42.2436487" lon="13.9360119"><ele>165.0</ele><time>2026-05-02T08:15:55.021Z</time></trkpt><trkpt lat="42.2436116" lon="13.9358688"><ele>165.0</ele><time>2026-05-02T08:15:56.021Z</time></trkpt><trkpt lat="42.2435771" lon="13.9357224"><ele>165.0</ele><time>2026-05-02T08:15:57.021Z</time></trkpt><trkpt lat="42.2435398" lon="13.9355706"><ele>165.4</ele><time>2026-05-02T08:15:58.021Z</time></trkpt><trkpt lat="42.2435049" lon="13.935417"><ele>165.8</ele><time>2026-05-02T08:15:59.021Z</time></trkpt><trkpt lat="42.2434709" lon="13.9352709"><ele>166.2</ele><time>2026-05-02T08:16:00.021Z</time></trkpt><trkpt lat="42.2434348" lon="13.9351359"><ele>166.6</ele><time>2026-05-02T08:16:01.021Z</time></trkpt><trkpt lat="42.2434033" lon="13.9350065"><ele>167.0</ele><time>2026-05-02T08:16:02.021Z</time></trkpt><trkpt lat="42.2433691" lon="13.9348908"><ele>167.33333333333331</ele><time>2026-05-02T08:16:03.021Z</time></trkpt><trkpt lat="42.2433419" lon="13.9347778"><ele>167.66666666666666</ele><time>2026-05-02T08:16:04.021Z</time></trkpt><trkpt lat="42.2433213" lon="13.9346852"><ele>168.0</ele><time>2026-05-02T08:16:05.021Z</time></trkpt><trkpt lat="42.2432885" lon="13.9345388"><ele>168.33333333333334</ele><time>2026-05-02T08:16:07.021Z</time></trkpt><trkpt lat="42.2432469" lon="13.9344304"><ele>168.66666666666669</ele><time>2026-05-02T08:16:09.021Z</time></trkpt><trkpt lat="42.2432138" lon="13.9343265"><ele>169.0</ele><time>2026-05-02T08:16:11.021Z</time></trkpt><trkpt lat="42.2431783" lon="13.9341873"><ele>169.14285714285714</ele><time>2026-05-02T08:16:13.021Z</time></trkpt><trkpt lat="42.2431552" lon="13.9341044"><ele>169.28571428571428</ele><time>2026-05-02T08:16:14.021Z</time></trkpt><trkpt lat="42.2431297" lon="13.9340041"><ele>169.42857142857144</ele><time>2026-05-02T08:16:15.021Z</time></trkpt><trkpt lat="42.2431075" lon="13.9338926"><ele>169.57142857142856</ele><time>2026-05-02T08:16:16.02Z</time></trkpt><trkpt lat="42.2430869" lon="13.9337884"><ele>169.7142857142857</ele><time>2026-05-02T08:16:17.021Z</time></trkpt><trkpt lat="42.2430655" lon="13.9337035"><ele>169.85714285714286</ele><time>2026-05-02T08:16:18.021Z</time></trkpt><trkpt lat="42.2430384" lon="13.9336219"><ele>170.0</ele><time>2026-05-02T08:16:19.021Z</time></trkpt><trkpt lat="42.2430036" lon="13.9335058"><ele>171.75</ele><time>2026-05-02T08:16:20.021Z</time></trkpt><trkpt lat="42.2429615" lon="13.9333586"><ele>173.5</ele><time>2026-05-02T08:16:21.021Z</time></trkpt><trkpt lat="42.2429206" lon="13.9331902"><ele>175.25</ele><time>2026-05-02T08:16:22.021Z</time></trkpt><trkpt lat="42.2428805" lon="13.933029"><ele>177.0</ele><time>2026-05-02T08:16:23.021Z</time></trkpt><trkpt lat="42.2428427" lon="13.9328777"><ele>177.0</ele><time>2026-05-02T08:16:24.021Z</time></trkpt><trkpt lat="42.2428073" lon="13.9327278"><ele>177.0</ele><time>2026-05-02T08:16:25.021Z</time></trkpt><trkpt lat="42.2427736" lon="13.9325749"><ele>177.0</ele><time>2026-05-02T08:16:26.021Z</time></trkpt><trkpt lat="42.2427404" lon="13.9324209"><ele>177.0</ele><time>2026-05-02T08:16:27.021Z</time></trkpt><trkpt lat="42.242703" lon="13.9322667"><ele>177.5</ele><time>2026-05-02T08:16:28.02Z</time></trkpt><trkpt lat="42.2426621" lon="13.9321093"><ele>178.0</ele><time>2026-05-02T08:16:29.021Z</time></trkpt><trkpt lat="42.2426233" lon="13.9319507"><ele>178.5</ele><time>2026-05-02T08:16:30.021Z</time></trkpt><trkpt lat="42.2425807" lon="13.9317905"><ele>179.0</ele><time>2026-05-02T08:16:31.021Z</time></trkpt><trkpt lat="42.2425379" lon="13.9316285"><ele>179.5</ele><time>2026-05-02T08:16:32.021Z</time></trkpt><trkpt lat="42.2424979" lon="13.9314642"><ele>180.0</ele><time>2026-05-02T08:16:33.021Z</time></trkpt><trkpt lat="42.242456" lon="13.9312972"><ele>180.5</ele><time>2026-05-02T08:16:34.021Z</time></trkpt><trkpt lat="42.2424179" lon="13.9311233"><ele>181.0</ele><time>2026-05-02T08:16:35.021Z</time></trkpt><trkpt lat="42.2423774" lon="13.9309534"><ele>181.25</ele><time>2026-05-02T08:16:36.021Z</time></trkpt><trkpt lat="42.2423393" lon="13.9307878"><ele>181.5</ele><time>2026-05-02T08:16:37.02Z</time></trkpt><trkpt lat="42.2423008" lon="13.9306293"><ele>181.75</ele><time>2026-05-02T08:16:38.02Z</time></trkpt><trkpt lat="42.2422631" lon="13.9304726"><ele>182.0</ele><time>2026-05-02T08:16:39.021Z</time></trkpt><trkpt lat="42.2422243" lon="13.930316"><ele>182.0</ele><time>2026-05-02T08:16:40.021Z</time></trkpt><trkpt lat="42.242185" lon="13.9301597"><ele>182.0</ele><time>2026-05-02T08:16:41.021Z</time></trkpt><trkpt lat="42.2421467" lon="13.9300023"><ele>182.0</ele><time>2026-05-02T08:16:42.02Z</time></trkpt><trkpt lat="42.2421066" lon="13.9298537"><ele>182.0</ele><time>2026-05-02T08:16:43.02Z</time></trkpt><trkpt lat="42.2420662" lon="13.9297031"><ele>182.0</ele><time>2026-05-02T08:16:44.021Z</time></trkpt><trkpt lat="42.2420297" lon="13.9295507"><ele>182.0</ele><time>2026-05-02T08:16:45.02Z</time></trkpt><trkpt lat="42.2419888" lon="13.9294008"><ele>182.0</ele><time>2026-05-02T08:16:46.021Z</time></trkpt><trkpt lat="42.2419523" lon="13.9292511"><ele>182.0</ele><time>2026-05-02T08:16:47.021Z</time></trkpt><trkpt lat="42.2419151" lon="13.929103"><ele>182.0</ele><time>2026-05-02T08:16:48.02Z</time></trkpt><trkpt lat="42.2418772" lon="13.928962"><ele>182.0</ele><time>2026-05-02T08:16:49.021Z</time></trkpt><trkpt lat="42.2418384" lon="13.9288308"><ele>182.0</ele><time>2026-05-02T08:16:50.021Z</time></trkpt><trkpt lat="42.241801" lon="13.9286981"><ele>182.0</ele><time>2026-05-02T08:16:51.021Z</time></trkpt><trkpt lat="42.241763" lon="13.9285636"><ele>182.0</ele><time>2026-05-02T08:16:52.021Z</time></trkpt><trkpt lat="42.2417275" lon="13.9284257"><ele>183.0</ele><time>2026-05-02T08:16:53.021Z</time></trkpt><trkpt lat="42.2416946" lon="13.9282771"><ele>184.0</ele><time>2026-05-02T08:16:54.021Z</time></trkpt><trkpt lat="42.2416577" lon="13.9281284"><ele>185.0</ele><time>2026-05-02T08:16:55.021Z</time></trkpt><trkpt lat="42.2416192" lon="13.9279764"><ele>186.0</ele><time>2026-05-02T08:16:56.021Z</time></trkpt><trkpt lat="42.2415878" lon="13.9278366"><ele>186.0</ele><time>2026-05-02T08:16:57.021Z</time></trkpt><trkpt lat="42.2415551" lon="13.9277033"><ele>186.0</ele><time>2026-05-02T08:16:58.021Z</time></trkpt><trkpt lat="42.2415299" lon="13.9275769"><ele>186.0</ele><time>2026-05-02T08:16:59.021Z</time></trkpt><trkpt lat="42.2414963" lon="13.9274617"><ele>186.0</ele><time>2026-05-02T08:17:00.02Z</time></trkpt><trkpt lat="42.2414673" lon="13.9273475"><ele>186.0</ele><time>2026-05-02T08:17:01.021Z</time></trkpt><trkpt lat="42.241439" lon="13.9272378"><ele>186.0</ele><time>2026-05-02T08:17:02.02Z</time></trkpt><trkpt lat="42.2414142" lon="13.9271314"><ele>186.0</ele><time>2026-05-02T08:17:03.021Z</time></trkpt><trkpt lat="42.2413919" lon="13.9270276"><ele>186.0</ele><time>2026-05-02T08:17:04.02Z</time></trkpt><trkpt lat="42.2413691" lon="13.9269324"><ele>186.0</ele><time>2026-05-02T08:17:05.021Z</time></trkpt><trkpt lat="42.2413466" lon="13.9268441"><ele>186.0</ele><time>2026-05-02T08:17:06.021Z</time></trkpt><trkpt lat="42.2413079" lon="13.9267132"><ele>186.0</ele><time>2026-05-02T08:17:08.02Z</time></trkpt><trkpt lat="42.24129" lon="13.9266285"><ele>186.16666666666666</ele><time>2026-05-02T08:17:11.02Z</time></trkpt><trkpt lat="42.2412545" lon="13.9265379"><ele>186.33333333333334</ele><time>2026-05-02T08:17:56.021Z</time></trkpt><trkpt lat="42.2412487" lon="13.9264283"><ele>186.5</ele><time>2026-05-02T08:17:58.02Z</time></trkpt><trkpt lat="42.241332" lon="13.9263577"><ele>186.66666666666669</ele><time>2026-05-02T08:18:00.02Z</time></trkpt><trkpt lat="42.2413965" lon="13.9263548"><ele>186.83333333333334</ele><time>2026-05-02T08:18:01.021Z</time></trkpt><trkpt lat="42.2414685" lon="13.9263685"><ele>187.0</ele><time>2026-05-02T08:18:02.021Z</time></trkpt><trkpt lat="42.2415561" lon="13.9263799"><ele>187.0</ele><time>2026-05-02T08:18:03.021Z</time></trkpt><trkpt lat="42.2416516" lon="13.9263884"><ele>187.0</ele><time>2026-05-02T08:18:04.02Z</time></trkpt><trkpt lat="42.241755" lon="13.926399"><ele>187.0</ele><time>2026-05-02T08:18:05.02Z</time></trkpt><trkpt lat="42.2418614" lon="13.9264208"><ele>187.0</ele><time>2026-05-02T08:18:06.021Z</time></trkpt><trkpt lat="42.2419564" lon="13.926452"><ele>187.0</ele><time>2026-05-02T08:18:07.021Z</time></trkpt><trkpt lat="42.2420512" lon="13.9264919"><ele>187.0</ele><time>2026-05-02T08:18:08.021Z</time></trkpt><trkpt lat="42.2421437" lon="13.9265472"><ele>187.0</ele><time>2026-05-02T08:18:09.021Z</time></trkpt><trkpt lat="42.2422328" lon="13.926617"><ele>187.0</ele><time>2026-05-02T08:18:10.02Z</time></trkpt><trkpt lat="42.2423179" lon="13.9267007"><ele>187.0</ele><time>2026-05-02T08:18:11.021Z</time></trkpt><trkpt lat="42.2424012" lon="13.9267932"><ele>187.0</ele><time>2026-05-02T08:18:12.021Z</time></trkpt><trkpt lat="42.2424856" lon="13.9268939"><ele>186.5</ele><time>2026-05-02T08:18:13.021Z</time></trkpt><trkpt lat="42.242565" lon="13.926999"><ele>186.0</ele><time>2026-05-02T08:18:14.021Z</time></trkpt><trkpt lat="42.2426483" lon="13.9271067"><ele>185.5</ele><time>2026-05-02T08:18:15.021Z</time></trkpt><trkpt lat="42.2427302" lon="13.9272082"><ele>185.0</ele><time>2026-05-02T08:18:16.021Z</time></trkpt><trkpt lat="42.2428119" lon="13.9273122"><ele>185.0</ele><time>2026-05-02T08:18:17.021Z</time></trkpt><trkpt lat="42.242891" lon="13.9274175"><ele>185.0</ele><time>2026-05-02T08:18:18.021Z</time></trkpt><trkpt lat="42.2429745" lon="13.9275266"><ele>185.0</ele><time>2026-05-02T08:18:19.021Z</time></trkpt><trkpt lat="42.2430519" lon="13.9276319"><ele>185.0</ele><time>2026-05-02T08:18:20.021Z</time></trkpt><trkpt lat="42.2431256" lon="13.9277312"><ele>185.0</ele><time>2026-05-02T08:18:21.021Z</time></trkpt><trkpt lat="42.2431916" lon="13.9278194"><ele>184.33333333333331</ele><time>2026-05-02T08:18:22.021Z</time></trkpt><trkpt lat="42.2432574" lon="13.9279029"><ele>183.66666666666666</ele><time>2026-05-02T08:18:23.021Z</time></trkpt><trkpt lat="42.243326" lon="13.9279789"><ele>183.0</ele><time>2026-05-02T08:18:24.021Z</time></trkpt><trkpt lat="42.243388" lon="13.9280571"><ele>182.33333333333334</ele><time>2026-05-02T08:18:25.021Z</time></trkpt><trkpt lat="42.2434406" lon="13.92814"><ele>181.66666666666669</ele><time>2026-05-02T08:18:26.021Z</time></trkpt><trkpt lat="42.2434965" lon="13.9282204"><ele>181.0</ele><time>2026-05-02T08:18:27.021Z</time></trkpt><trkpt lat="42.2435585" lon="13.928297"><ele>181.0</ele><time>2026-05-02T08:18:28.02Z</time></trkpt><trkpt lat="42.2436313" lon="13.9283475"><ele>181.0</ele><time>2026-05-02T08:18:29.021Z</time></trkpt><trkpt lat="42.2437075" lon="13.9283873"><ele>181.0</ele><time>2026-05-02T08:18:30.021Z</time></trkpt><trkpt lat="42.2437845" lon="13.9284064"><ele>181.0</ele><time>2026-05-02T08:18:31.021Z</time></trkpt><trkpt lat="42.2438608" lon="13.9284068"><ele>181.0</ele><time>2026-05-02T08:18:32.021Z</time></trkpt><trkpt lat="42.2439344" lon="13.9283933"><ele>181.0</ele><time>2026-05-02T08:18:33.021Z</time></trkpt><trkpt lat="42.2440046" lon="13.9283694"><ele>180.4</ele><time>2026-05-02T08:18:34.021Z</time></trkpt><trkpt lat="42.2440714" lon="13.9283406"><ele>179.8</ele><time>2026-05-02T08:18:35.021Z</time></trkpt><trkpt lat="42.2441323" lon="13.9283117"><ele>179.20000000000002</ele><time>2026-05-02T08:18:36.021Z</time></trkpt><trkpt lat="42.2442255" lon="13.9282562"><ele>178.60000000000002</ele><time>2026-05-02T08:18:38.021Z</time></trkpt><trkpt lat="42.244305" lon="13.9281628"><ele>178.0</ele><time>2026-05-02T08:18:40.021Z</time></trkpt><trkpt lat="42.244375" lon="13.9280386"><ele>178.0</ele><time>2026-05-02T08:18:42.021Z</time></trkpt><trkpt lat="42.244411" lon="13.9279557"><ele>178.0</ele><time>2026-05-02T08:18:43.021Z</time></trkpt><trkpt lat="42.2444409" lon="13.9278583"><ele>178.0</ele><time>2026-05-02T08:18:44.02Z</time></trkpt><trkpt lat="42.2444611" lon="13.9277539"><ele>178.0</ele><time>2026-05-02T08:18:45.021Z</time></trkpt><trkpt lat="42.2444742" lon="13.9276377"><ele>178.0</ele><time>2026-05-02T08:18:46.02Z</time></trkpt><trkpt lat="42.2444869" lon="13.9275163"><ele>178.0</ele><time>2026-05-02T08:18:47.021Z</time></trkpt><trkpt lat="42.2444968" lon="13.9274043"><ele>179.16666666666669</ele><time>2026-05-02T08:18:48.021Z</time></trkpt><trkpt lat="42.2445119" lon="13.9273032"><ele>180.33333333333334</ele><time>2026-05-02T08:18:49.021Z</time></trkpt><trkpt lat="42.2445353" lon="13.9272063"><ele>181.5</ele><time>2026-05-02T08:18:50.021Z</time></trkpt><trkpt lat="42.2445684" lon="13.9271223"><ele>182.66666666666666</ele><time>2026-05-02T08:18:51.02Z</time></trkpt><trkpt lat="42.2446213" lon="13.927053"><ele>183.83333333333331</ele><time>2026-05-02T08:18:52.021Z</time></trkpt><trkpt lat="42.2446984" lon="13.9269992"><ele>185.0</ele><time>2026-05-02T08:18:53.021Z</time></trkpt><trkpt lat="42.2447893" lon="13.9269608"><ele>180.5</ele><time>2026-05-02T08:18:54.021Z</time></trkpt><trkpt lat="42.2448905" lon="13.9269272"><ele>176.0</ele><time>2026-05-02T08:18:55.021Z</time></trkpt><trkpt lat="42.2450048" lon="13.9269003"><ele>171.5</ele><time>2026-05-02T08:18:56.021Z</time></trkpt><trkpt lat="42.2451239" lon="13.9268835"><ele>167.0</ele><time>2026-05-02T08:18:57.021Z</time></trkpt><trkpt lat="42.2452355" lon="13.926874"><ele>167.0</ele><time>2026-05-02T08:18:58.02Z</time></trkpt><trkpt lat="42.2453425" lon="13.9268651"><ele>167.0</ele><time>2026-05-02T08:18:59.021Z</time></trkpt><trkpt lat="42.2454397" lon="13.9268594"><ele>167.0</ele><time>2026-05-02T08:19:00.02Z</time></trkpt><trkpt lat="42.2455301" lon="13.9268538"><ele>167.0</ele><time>2026-05-02T08:19:01.021Z</time></trkpt><trkpt lat="42.2456108" lon="13.9268507"><ele>167.0</ele><time>2026-05-02T08:19:02.021Z</time></trkpt><trkpt lat="42.2456752" lon="13.9268504"><ele>167.0</ele><time>2026-05-02T08:19:03.02Z</time></trkpt><trkpt lat="42.2457447" lon="13.926844"><ele>166.14285714285714</ele><time>2026-05-02T08:19:04.021Z</time></trkpt><trkpt lat="42.245817" lon="13.9268384"><ele>165.28571428571428</ele><time>2026-05-02T08:19:05.021Z</time></trkpt><trkpt lat="42.2458864" lon="13.9268339"><ele>164.42857142857144</ele><time>2026-05-02T08:19:06.021Z</time></trkpt><trkpt lat="42.2459575" lon="13.9268397"><ele>163.57142857142856</ele><time>2026-05-02T08:19:07.021Z</time></trkpt><trkpt lat="42.2460269" lon="13.9268494"><ele>162.71428571428572</ele><time>2026-05-02T08:19:08.021Z</time></trkpt><trkpt lat="42.2461173" lon="13.9268544"><ele>161.85714285714286</ele><time>2026-05-02T08:19:10.021Z</time></trkpt><trkpt lat="42.2461625" lon="13.9267875"><ele>161.0</ele><time>2026-05-02T08:19:12.021Z</time></trkpt><trkpt lat="42.2461753" lon="13.9266797"><ele>160.8</ele><time>2026-05-02T08:19:15.021Z</time></trkpt><trkpt lat="42.2461215" lon="13.926627"><ele>160.60000000000002</ele><time>2026-05-02T08:19:18.021Z</time></trkpt><trkpt lat="42.2460298" lon="13.9266237"><ele>160.4</ele><time>2026-05-02T08:19:20.021Z</time></trkpt><trkpt lat="42.2459091" lon="13.9266196"><ele>160.2</ele><time>2026-05-02T08:19:22.021Z</time></trkpt><trkpt lat="42.2457929" lon="13.9266022"><ele>160.0</ele><time>2026-05-02T08:19:24.02Z</time></trkpt><trkpt lat="42.2457066" lon="13.9265429"><ele>160.0</ele><time>2026-05-02T08:19:26.02Z</time></trkpt><trkpt lat="42.2456637" lon="13.9264489"><ele>160.0</ele><time>2026-05-02T08:19:28.021Z</time></trkpt><trkpt lat="42.2456307" lon="13.9263267"><ele>160.0</ele><time>2026-05-02T08:19:30.02Z</time></trkpt><trkpt lat="42.2456192" lon="13.9261749"><ele>160.0</ele><time>2026-05-02T08:19:32.021Z</time></trkpt><trkpt lat="42.2456156" lon="13.9260818"><ele>160.0</ele><time>2026-05-02T08:19:33.021Z</time></trkpt><trkpt lat="42.2456121" lon="13.9259773"><ele>160.0</ele><time>2026-05-02T08:19:34.021Z</time></trkpt><trkpt lat="42.2456071" lon="13.9258681"><ele>162.0</ele><time>2026-05-02T08:19:35.021Z</time></trkpt><trkpt lat="42.2456024" lon="13.9257554"><ele>164.0</ele><time>2026-05-02T08:19:36.021Z</time></trkpt><trkpt lat="42.2455997" lon="13.9256376"><ele>166.0</ele><time>2026-05-02T08:19:37.021Z</time></trkpt><trkpt lat="42.2455941" lon="13.9255203"><ele>168.0</ele><time>2026-05-02T08:19:38.02Z</time></trkpt><trkpt lat="42.2455902" lon="13.9254025"><ele>170.0</ele><time>2026-05-02T08:19:39.021Z</time></trkpt><trkpt lat="42.2455972" lon="13.9252818"><ele>172.0</ele><time>2026-05-02T08:19:40.021Z</time></trkpt><trkpt lat="42.2456136" lon="13.9251604"><ele>170.39999999999998</ele><time>2026-05-02T08:19:41.021Z</time></trkpt><trkpt lat="42.2456348" lon="13.925036"><ele>168.79999999999998</ele><time>2026-05-02T08:19:42.021Z</time></trkpt><trkpt lat="42.2456585" lon="13.9249108"><ele>167.2</ele><time>2026-05-02T08:19:43.021Z</time></trkpt><trkpt lat="42.2456843" lon="13.9247852"><ele>165.6</ele><time>2026-05-02T08:19:44.02Z</time></trkpt><trkpt lat="42.2457127" lon="13.9246618"><ele>164.0</ele><time>2026-05-02T08:19:45.021Z</time></trkpt><trkpt lat="42.2457396" lon="13.9245494"><ele>164.0</ele><time>2026-05-02T08:19:46.021Z</time></trkpt><trkpt lat="42.2457757" lon="13.9244527"><ele>164.0</ele><time>2026-05-02T08:19:47.021Z</time></trkpt><trkpt lat="42.2458264" lon="13.9243624"><ele>164.0</ele><time>2026-05-02T08:19:48.021Z</time></trkpt><trkpt lat="42.2458885" lon="13.9242718"><ele>164.0</ele><time>2026-05-02T08:19:49.021Z</time></trkpt><trkpt lat="42.2459492" lon="13.9241813"><ele>164.0</ele><time>2026-05-02T08:19:50.021Z</time></trkpt><trkpt lat="42.2460044" lon="13.9240842"><ele>164.0</ele><time>2026-05-02T08:19:51.021Z</time></trkpt><trkpt lat="42.2460543" lon="13.9239816"><ele>164.0</ele><time>2026-05-02T08:19:52.021Z</time></trkpt><trkpt lat="42.2460966" lon="13.9238788"><ele>164.0</ele><time>2026-05-02T08:19:53.021Z</time></trkpt><trkpt lat="42.246127" lon="13.9237611"><ele>164.0</ele><time>2026-05-02T08:19:54.021Z</time></trkpt><trkpt lat="42.2461406" lon="13.9236333"><ele>164.0</ele><time>2026-05-02T08:19:55.021Z</time></trkpt><trkpt lat="42.2461421" lon="13.9235003"><ele>164.0</ele><time>2026-05-02T08:19:56.02Z</time></trkpt><trkpt lat="42.2461425" lon="13.9233606"><ele>164.39999999999998</ele><time>2026-05-02T08:19:57.021Z</time></trkpt><trkpt lat="42.246143" lon="13.9232199"><ele>164.8</ele><time>2026-05-02T08:19:58.021Z</time></trkpt><trkpt lat="42.246143" lon="13.9230731"><ele>165.2</ele><time>2026-05-02T08:19:59.021Z</time></trkpt><trkpt lat="42.2461355" lon="13.922923"><ele>165.60000000000002</ele><time>2026-05-02T08:20:00.021Z</time></trkpt><trkpt lat="42.2461317" lon="13.9227695"><ele>166.0</ele><time>2026-05-02T08:20:01.021Z</time></trkpt><trkpt lat="42.2461275" lon="13.9226091"><ele>166.20000000000002</ele><time>2026-05-02T08:20:02.021Z</time></trkpt><trkpt lat="42.2461222" lon="13.9224466"><ele>166.4</ele><time>2026-05-02T08:20:03.021Z</time></trkpt><trkpt lat="42.2461189" lon="13.9222892"><ele>166.6</ele><time>2026-05-02T08:20:04.021Z</time></trkpt><trkpt lat="42.2461163" lon="13.9221431"><ele>166.8</ele><time>2026-05-02T08:20:05.02Z</time></trkpt><trkpt lat="42.2461086" lon="13.9220093"><ele>167.0</ele><time>2026-05-02T08:20:06.021Z</time></trkpt><trkpt lat="42.2460863" lon="13.9218806"><ele>167.0</ele><time>2026-05-02T08:20:07.021Z</time></trkpt><trkpt lat="42.2460555" lon="13.9217494"><ele>167.0</ele><time>2026-05-02T08:20:08.021Z</time></trkpt><trkpt lat="42.2460138" lon="13.9216132"><ele>167.0</ele><time>2026-05-02T08:20:09.021Z</time></trkpt><trkpt lat="42.2459731" lon="13.9214788"><ele>167.0</ele><time>2026-05-02T08:20:10.021Z</time></trkpt><trkpt lat="42.2459406" lon="13.9213413"><ele>167.0</ele><time>2026-05-02T08:20:11.021Z</time></trkpt><trkpt lat="42.2459115" lon="13.9212042"><ele>167.39999999999998</ele><time>2026-05-02T08:20:12.021Z</time></trkpt><trkpt lat="42.2458821" lon="13.9210701"><ele>167.79999999999998</ele><time>2026-05-02T08:20:13.02Z</time></trkpt><trkpt lat="42.2458425" lon="13.9209415"><ele>168.2</ele><time>2026-05-02T08:20:14.021Z</time></trkpt><trkpt lat="42.2457878" lon="13.9208178"><ele>168.6</ele><time>2026-05-02T08:20:15.021Z</time></trkpt><trkpt lat="42.2457239" lon="13.9206985"><ele>169.0</ele><time>2026-05-02T08:20:16.02Z</time></trkpt><trkpt lat="42.2456592" lon="13.9205828"><ele>170.6</ele><time>2026-05-02T08:20:17.021Z</time></trkpt><trkpt lat="42.245597" lon="13.9204678"><ele>172.2</ele><time>2026-05-02T08:20:18.021Z</time></trkpt><trkpt lat="42.2455433" lon="13.920357"><ele>173.79999999999998</ele><time>2026-05-02T08:20:19.021Z</time></trkpt><trkpt lat="42.2455089" lon="13.920242"><ele>175.39999999999998</ele><time>2026-05-02T08:20:20.021Z</time></trkpt><trkpt lat="42.2454955" lon="13.9201165"><ele>177.0</ele><time>2026-05-02T08:20:21.021Z</time></trkpt><trkpt lat="42.2454854" lon="13.9199857"><ele>177.0</ele><time>2026-05-02T08:20:22.021Z</time></trkpt><trkpt lat="42.2454621" lon="13.9198673"><ele>177.0</ele><time>2026-05-02T08:20:23.021Z</time></trkpt><trkpt lat="42.2454181" lon="13.9197605"><ele>177.0</ele><time>2026-05-02T08:20:24.021Z</time></trkpt><trkpt lat="42.2453628" lon="13.919657"><ele>177.0</ele><time>2026-05-02T08:20:25.021Z</time></trkpt><trkpt lat="42.2453143" lon="13.9195502"><ele>177.0</ele><time>2026-05-02T08:20:26.021Z</time></trkpt><trkpt lat="42.2452806" lon="13.9194341"><ele>177.0</ele><time>2026-05-02T08:20:27.021Z</time></trkpt><trkpt lat="42.245258" lon="13.9193107"><ele>177.0</ele><time>2026-05-02T08:20:28.021Z</time></trkpt><trkpt lat="42.2452464" lon="13.9191807"><ele>177.0</ele><time>2026-05-02T08:20:29.021Z</time></trkpt><trkpt lat="42.2452547" lon="13.9190442"><ele>177.0</ele><time>2026-05-02T08:20:30.021Z</time></trkpt><trkpt lat="42.2452762" lon="13.918905"><ele>177.0</ele><time>2026-05-02T08:20:31.021Z</time></trkpt><trkpt lat="42.2452968" lon="13.9187609"><ele>176.6</ele><time>2026-05-02T08:20:32.021Z</time></trkpt><trkpt lat="42.2453166" lon="13.9186139"><ele>176.2</ele><time>2026-05-02T08:20:33.021Z</time></trkpt><trkpt lat="42.2453482" lon="13.918468"><ele>175.8</ele><time>2026-05-02T08:20:34.021Z</time></trkpt><trkpt lat="42.245383" lon="13.9183263"><ele>175.4</ele><time>2026-05-02T08:20:35.021Z</time></trkpt><trkpt lat="42.2454115" lon="13.9181889"><ele>175.0</ele><time>2026-05-02T08:20:36.021Z</time></trkpt><trkpt lat="42.2454326" lon="13.918052"><ele>174.8</ele><time>2026-05-02T08:20:37.021Z</time></trkpt><trkpt lat="42.2454444" lon="13.917921"><ele>174.6</ele><time>2026-05-02T08:20:38.021Z</time></trkpt><trkpt lat="42.2454404" lon="13.9177933"><ele>174.39999999999998</ele><time>2026-05-02T08:20:39.021Z</time></trkpt><trkpt lat="42.2454202" lon="13.917671"><ele>174.2</ele><time>2026-05-02T08:20:40.021Z</time></trkpt><trkpt lat="42.2453831" lon="13.9175566"><ele>174.0</ele><time>2026-05-02T08:20:41.021Z</time></trkpt><trkpt lat="42.2453336" lon="13.9174433"><ele>174.0</ele><time>2026-05-02T08:20:42.021Z</time></trkpt><trkpt lat="42.2452754" lon="13.9173329"><ele>174.0</ele><time>2026-05-02T08:20:43.021Z</time></trkpt><trkpt lat="42.2452078" lon="13.9172313"><ele>174.0</ele><time>2026-05-02T08:20:44.021Z</time></trkpt><trkpt lat="42.2451359" lon="13.9171336"><ele>174.0</ele><time>2026-05-02T08:20:45.021Z</time></trkpt><trkpt lat="42.2450682" lon="13.9170381"><ele>174.0</ele><time>2026-05-02T08:20:46.021Z</time></trkpt><trkpt lat="42.2450074" lon="13.9169381"><ele>174.0</ele><time>2026-05-02T08:20:47.021Z</time></trkpt><trkpt lat="42.2449553" lon="13.9168294"><ele>174.0</ele><time>2026-05-02T08:20:48.02Z</time></trkpt><trkpt lat="42.2449068" lon="13.9167184"><ele>174.0</ele><time>2026-05-02T08:20:49.021Z</time></trkpt><trkpt lat="42.2448662" lon="13.9166076"><ele>174.0</ele><time>2026-05-02T08:20:50.021Z</time></trkpt><trkpt lat="42.2448264" lon="13.9165016"><ele>174.0</ele><time>2026-05-02T08:20:51.021Z</time></trkpt><trkpt lat="42.2447712" lon="13.9164221"><ele>174.83333333333334</ele><time>2026-05-02T08:20:52.021Z</time></trkpt><trkpt lat="42.2447049" lon="13.9163776"><ele>175.66666666666666</ele><time>2026-05-02T08:20:53.02Z</time></trkpt><trkpt lat="42.2446332" lon="13.9163595"><ele>176.5</ele><time>2026-05-02T08:20:54.021Z</time></trkpt><trkpt lat="42.2445668" lon="13.9163542"><ele>177.33333333333331</ele><time>2026-05-02T08:20:55.021Z</time></trkpt><trkpt lat="42.2445039" lon="13.9163476"><ele>178.16666666666666</ele><time>2026-05-02T08:20:56.021Z</time></trkpt><trkpt lat="42.2444177" lon="13.9163112"><ele>179.0</ele><time>2026-05-02T08:20:58.021Z</time></trkpt><trkpt lat="42.2443453" lon="13.9162385"><ele>179.0</ele><time>2026-05-02T08:21:00.021Z</time></trkpt><trkpt lat="42.2442896" lon="13.9161252"><ele>179.0</ele><time>2026-05-02T08:21:02.021Z</time></trkpt><trkpt lat="42.2442525" lon="13.9159799"><ele>179.0</ele><time>2026-05-02T08:21:04.021Z</time></trkpt><trkpt lat="42.2442337" lon="13.9158975"><ele>179.0</ele><time>2026-05-02T08:21:05.021Z</time></trkpt><trkpt lat="42.2442145" lon="13.9158032"><ele>179.0</ele><time>2026-05-02T08:21:06.021Z</time></trkpt><trkpt lat="42.2441912" lon="13.915704"><ele>179.0</ele><time>2026-05-02T08:21:07.02Z</time></trkpt><trkpt lat="42.2441563" lon="13.9156045"><ele>179.2</ele><time>2026-05-02T08:21:08.021Z</time></trkpt><trkpt lat="42.2441153" lon="13.9155124"><ele>179.39999999999998</ele><time>2026-05-02T08:21:09.02Z</time></trkpt><trkpt lat="42.2440767" lon="13.9154336"><ele>179.6</ele><time>2026-05-02T08:21:10.021Z</time></trkpt><trkpt lat="42.2440414" lon="13.9153607"><ele>179.8</ele><time>2026-05-02T08:21:11.021Z</time></trkpt><trkpt lat="42.2439605" lon="13.9152478"><ele>180.0</ele><time>2026-05-02T08:21:13.021Z</time></trkpt><trkpt lat="42.2438428" lon="13.915182"><ele>180.5</ele><time>2026-05-02T08:21:15.02Z</time></trkpt><trkpt lat="42.2437786" lon="13.915146"><ele>181.0</ele><time>2026-05-02T08:21:16.021Z</time></trkpt><trkpt lat="42.2437188" lon="13.9150966"><ele>181.5</ele><time>2026-05-02T08:21:17.021Z</time></trkpt><trkpt lat="42.2436595" lon="13.9150312"><ele>182.0</ele><time>2026-05-02T08:21:18.021Z</time></trkpt><trkpt lat="42.2435997" lon="13.9149513"><ele>182.5</ele><time>2026-05-02T08:21:19.021Z</time></trkpt><trkpt lat="42.2435407" lon="13.9148594"><ele>183.0</ele><time>2026-05-02T08:21:20.02Z</time></trkpt><trkpt lat="42.2434786" lon="13.9147612"><ele>183.60000000000002</ele><time>2026-05-02T08:21:21.021Z</time></trkpt><trkpt lat="42.2434123" lon="13.9146701"><ele>184.20000000000002</ele><time>2026-05-02T08:21:22.021Z</time></trkpt><trkpt lat="42.2433504" lon="13.9145988"><ele>184.8</ele><time>2026-05-02T08:21:23.021Z</time></trkpt><trkpt lat="42.2432846" lon="13.9145013"><ele>185.4</ele><time>2026-05-02T08:21:25.021Z</time></trkpt><trkpt lat="42.2432612" lon="13.9143412"><ele>186.0</ele><time>2026-05-02T08:21:27.021Z</time></trkpt><trkpt lat="42.2432503" lon="13.9142333"><ele>187.0</ele><time>2026-05-02T08:21:28.021Z</time></trkpt><trkpt lat="42.2432316" lon="13.9141135"><ele>188.0</ele><time>2026-05-02T08:21:29.02Z</time></trkpt><trkpt lat="42.2432109" lon="13.9139803"><ele>189.0</ele><time>2026-05-02T08:21:30.02Z</time></trkpt><trkpt lat="42.2431972" lon="13.9138403"><ele>190.0</ele><time>2026-05-02T08:21:31.021Z</time></trkpt><trkpt lat="42.2431862" lon="13.9136949"><ele>191.0</ele><time>2026-05-02T08:21:32.021Z</time></trkpt><trkpt lat="42.2431719" lon="13.9135586"><ele>191.0</ele><time>2026-05-02T08:21:33.021Z</time></trkpt><trkpt lat="42.2431525" lon="13.9134393"><ele>191.0</ele><time>2026-05-02T08:21:34.02Z</time></trkpt><trkpt lat="42.2431278" lon="13.9133363"><ele>191.0</ele><time>2026-05-02T08:21:35.021Z</time></trkpt><trkpt lat="42.2430999" lon="13.9132401"><ele>191.0</ele><time>2026-05-02T08:21:36.021Z</time></trkpt><trkpt lat="42.2430689" lon="13.9131397"><ele>191.0</ele><time>2026-05-02T08:21:37.021Z</time></trkpt><trkpt lat="42.2430281" lon="13.9130405"><ele>191.0</ele><time>2026-05-02T08:21:38.021Z</time></trkpt><trkpt lat="42.2429781" lon="13.9129384"><ele>191.0</ele><time>2026-05-02T08:21:39.021Z</time></trkpt><trkpt lat="42.2429094" lon="13.9128471"><ele>191.0</ele><time>2026-05-02T08:21:40.021Z</time></trkpt><trkpt lat="42.24285" lon="13.9127474"><ele>191.0</ele><time>2026-05-02T08:21:41.021Z</time></trkpt><trkpt lat="42.242804" lon="13.9126449"><ele>191.0</ele><time>2026-05-02T08:21:42.02Z</time></trkpt><trkpt lat="42.2427659" lon="13.9125288"><ele>191.0</ele><time>2026-05-02T08:21:43.021Z</time></trkpt><trkpt lat="42.2427271" lon="13.912405"><ele>191.16666666666666</ele><time>2026-05-02T08:21:44.021Z</time></trkpt><trkpt lat="42.2426834" lon="13.9122968"><ele>191.33333333333331</ele><time>2026-05-02T08:21:45.02Z</time></trkpt><trkpt lat="42.242643" lon="13.9122231"><ele>191.5</ele><time>2026-05-02T08:21:46.021Z</time></trkpt><trkpt lat="42.2425935" lon="13.9121441"><ele>191.66666666666666</ele><time>2026-05-02T08:21:48.021Z</time></trkpt><trkpt lat="42.2425286" lon="13.9121021"><ele>191.83333333333334</ele><time>2026-05-02T08:21:51.02Z</time></trkpt><trkpt lat="42.2424501" lon="13.9121599"><ele>192.0</ele><time>2026-05-02T08:21:53.021Z</time></trkpt><trkpt lat="42.2423978" lon="13.9122288"><ele>192.0</ele><time>2026-05-02T08:21:54.021Z</time></trkpt><trkpt lat="42.2423368" lon="13.9123096"><ele>192.0</ele><time>2026-05-02T08:21:55.021Z</time></trkpt><trkpt lat="42.2422697" lon="13.9123941"><ele>192.0</ele><time>2026-05-02T08:21:56.021Z</time></trkpt><trkpt lat="42.242202" lon="13.9124788"><ele>192.0</ele><time>2026-05-02T08:21:57.021Z</time></trkpt><trkpt lat="42.2421467" lon="13.9125664"><ele>192.0</ele><time>2026-05-02T08:21:58.02Z</time></trkpt><trkpt lat="42.242106" lon="13.9126794"><ele>192.0</ele><time>2026-05-02T08:21:59.021Z</time></trkpt><trkpt lat="42.2420786" lon="13.9128187"><ele>195.0</ele><time>2026-05-02T08:22:00.021Z</time></trkpt><trkpt lat="42.2420577" lon="13.9129603"><ele>198.0</ele><time>2026-05-02T08:22:01.021Z</time></trkpt><trkpt lat="42.2420343" lon="13.9131149"><ele>201.0</ele><time>2026-05-02T08:22:02.021Z</time></trkpt><trkpt lat="42.2420001" lon="13.9132837"><ele>204.0</ele><time>2026-05-02T08:22:03.021Z</time></trkpt><trkpt lat="42.2419652" lon="13.9134635"><ele>204.0</ele><time>2026-05-02T08:22:04.02Z</time></trkpt><trkpt lat="42.2419311" lon="13.9136401"><ele>204.0</ele><time>2026-05-02T08:22:05.021Z</time></trkpt><trkpt lat="42.2419096" lon="13.9137972"><ele>204.0</ele><time>2026-05-02T08:22:06.021Z</time></trkpt><trkpt lat="42.2418941" lon="13.9139545"><ele>204.0</ele><time>2026-05-02T08:22:07.021Z</time></trkpt><trkpt lat="42.2418926" lon="13.914099"><ele>203.66666666666666</ele><time>2026-05-02T08:22:08.02Z</time></trkpt><trkpt lat="42.2418988" lon="13.9142442"><ele>203.33333333333331</ele><time>2026-05-02T08:22:09.021Z</time></trkpt><trkpt lat="42.2419065" lon="13.9143761"><ele>203.0</ele><time>2026-05-02T08:22:10.021Z</time></trkpt><trkpt lat="42.2419049" lon="13.9144737"><ele>202.66666666666666</ele><time>2026-05-02T08:22:11.021Z</time></trkpt><trkpt lat="42.2418847" lon="13.914569"><ele>202.33333333333331</ele><time>2026-05-02T08:22:12.021Z</time></trkpt><trkpt lat="42.2418438" lon="13.9146653"><ele>202.0</ele><time>2026-05-02T08:22:13.021Z</time></trkpt><trkpt lat="42.2417935" lon="13.914752"><ele>201.99999999999997</ele><time>2026-05-02T08:22:14.021Z</time></trkpt><trkpt lat="42.241745" lon="13.9148266"><ele>202.0</ele><time>2026-05-02T08:22:15.021Z</time></trkpt><trkpt lat="42.2417008" lon="13.9148887"><ele>202.0</ele><time>2026-05-02T08:22:16.021Z</time></trkpt><trkpt lat="42.2416057" lon="13.914931"><ele>202.0</ele><time>2026-05-02T08:22:18.021Z</time></trkpt><trkpt lat="42.2415251" lon="13.9148139"><ele>201.99999999999997</ele><time>2026-05-02T08:22:20.021Z</time></trkpt><trkpt lat="42.2414848" lon="13.9147198"><ele>202.0</ele><time>2026-05-02T08:22:21.021Z</time></trkpt><trkpt lat="42.2414383" lon="13.9146206"><ele>203.99999999999997</ele><time>2026-05-02T08:22:22.02Z</time></trkpt><trkpt lat="42.2413824" lon="13.9145302"><ele>206.0</ele><time>2026-05-02T08:22:23.021Z</time></trkpt><trkpt lat="42.2413355" lon="13.9144569"><ele>208.0</ele><time>2026-05-02T08:22:24.021Z</time></trkpt><trkpt lat="42.2412752" lon="13.9144012"><ele>210.0</ele><time>2026-05-02T08:22:25.021Z</time></trkpt><trkpt lat="42.2412172" lon="13.9143248"><ele>211.99999999999997</ele><time>2026-05-02T08:22:26.02Z</time></trkpt><trkpt lat="42.2411723" lon="13.9142424"><ele>214.0</ele><time>2026-05-02T08:22:27.02Z</time></trkpt><trkpt lat="42.2411373" lon="13.9141"><ele>215.0</ele><time>2026-05-02T08:22:28.02Z</time></trkpt><trkpt lat="42.2410933" lon="13.9139341"><ele>216.0</ele><time>2026-05-02T08:22:29.02Z</time></trkpt><trkpt lat="42.2410519" lon="13.9137591"><ele>217.0</ele><time>2026-05-02T08:22:30.021Z</time></trkpt><trkpt lat="42.2410103" lon="13.9135996"><ele>218.0</ele><time>2026-05-02T08:22:31.021Z</time></trkpt><trkpt lat="42.2409658" lon="13.9134656"><ele>220.25</ele><time>2026-05-02T08:22:32.021Z</time></trkpt><trkpt lat="42.2409208" lon="13.9133515"><ele>222.5</ele><time>2026-05-02T08:22:33.021Z</time></trkpt><trkpt lat="42.2408637" lon="13.9132165"><ele>224.75</ele><time>2026-05-02T08:22:34.021Z</time></trkpt><trkpt lat="42.2407973" lon="13.9130919"><ele>227.0</ele><time>2026-05-02T08:22:35.021Z</time></trkpt><trkpt lat="42.2407187" lon="13.9129514"><ele>227.0</ele><time>2026-05-02T08:22:36.021Z</time></trkpt><trkpt lat="42.2406546" lon="13.9128262"><ele>227.0</ele><time>2026-05-02T08:22:37.02Z</time></trkpt><trkpt lat="42.2405842" lon="13.9127215"><ele>227.0</ele><time>2026-05-02T08:22:38.021Z</time></trkpt><trkpt lat="42.2405105" lon="13.9126355"><ele>227.0</ele><time>2026-05-02T08:22:39.021Z</time></trkpt><trkpt lat="42.2404248" lon="13.9125611"><ele>227.0</ele><time>2026-05-02T08:22:40.021Z</time></trkpt><trkpt lat="42.2403476" lon="13.9124742"><ele>229.2</ele><time>2026-05-02T08:22:41.021Z</time></trkpt><trkpt lat="42.2402703" lon="13.9123862"><ele>231.39999999999998</ele><time>2026-05-02T08:22:42.021Z</time></trkpt><trkpt lat="42.2401917" lon="13.912273"><ele>233.60000000000002</ele><time>2026-05-02T08:22:43.021Z</time></trkpt><trkpt lat="42.2401166" lon="13.9121711"><ele>235.8</ele><time>2026-05-02T08:22:44.021Z</time></trkpt><trkpt lat="42.2400495" lon="13.9120768"><ele>238.0</ele><time>2026-05-02T08:22:45.021Z</time></trkpt><trkpt lat="42.2399855" lon="13.911987"><ele>237.99999999999997</ele><time>2026-05-02T08:22:46.021Z</time></trkpt><trkpt lat="42.2399234" lon="13.9118964"><ele>238.0</ele><time>2026-05-02T08:22:47.021Z</time></trkpt><trkpt lat="42.239869" lon="13.911838"><ele>238.0</ele><time>2026-05-02T08:22:48.02Z</time></trkpt><trkpt lat="42.2398306" lon="13.9117343"><ele>238.0</ele><time>2026-05-02T08:22:51.021Z</time></trkpt><trkpt lat="42.2397975" lon="13.9116359"><ele>237.99999999999997</ele><time>2026-05-02T08:22:53.021Z</time></trkpt><trkpt lat="42.2397556" lon="13.9115198"><ele>238.0</ele><time>2026-05-02T08:22:55.02Z</time></trkpt><trkpt lat="42.2397214" lon="13.9113778"><ele>240.2</ele><time>2026-05-02T08:22:57.02Z</time></trkpt><trkpt lat="42.2396786" lon="13.9112302"><ele>242.4</ele><time>2026-05-02T08:22:59.021Z</time></trkpt><trkpt lat="42.239633" lon="13.9110836"><ele>244.59999999999997</ele><time>2026-05-02T08:23:01.02Z</time></trkpt><trkpt lat="42.2396053" lon="13.9110026"><ele>246.79999999999998</ele><time>2026-05-02T08:23:02.021Z</time></trkpt><trkpt lat="42.2395754" lon="13.9109245"><ele>249.0</ele><time>2026-05-02T08:23:03.02Z</time></trkpt><trkpt lat="42.2395168" lon="13.9108036"><ele>249.2</ele><time>2026-05-02T08:23:05.021Z</time></trkpt><trkpt lat="42.2394303" lon="13.9106848"><ele>249.39999999999998</ele><time>2026-05-02T08:23:07.021Z</time></trkpt><trkpt lat="42.2393363" lon="13.9105883"><ele>249.6</ele><time>2026-05-02T08:23:09.021Z</time></trkpt><trkpt lat="42.2392843" lon="13.9105377"><ele>249.8</ele><time>2026-05-02T08:23:10.02Z</time></trkpt><trkpt lat="42.2392029" lon="13.9104082"><ele>250.0</ele><time>2026-05-02T08:23:12.021Z</time></trkpt><trkpt lat="42.2391628" lon="13.9103301"><ele>250.0</ele><time>2026-05-02T08:23:13.021Z</time></trkpt><trkpt lat="42.2390812" lon="13.9102027"><ele>250.0</ele><time>2026-05-02T08:23:15.02Z</time></trkpt><trkpt lat="42.2389986" lon="13.9100833"><ele>250.0</ele><time>2026-05-02T08:23:17.021Z</time></trkpt><trkpt lat="42.2389137" lon="13.9099638"><ele>250.0</ele><time>2026-05-02T08:23:19.021Z</time></trkpt><trkpt lat="42.2388305" lon="13.9098646"><ele>253.75</ele><time>2026-05-02T08:23:21.021Z</time></trkpt><trkpt lat="42.2387394" lon="13.9097743"><ele>257.5</ele><time>2026-05-02T08:23:23.021Z</time></trkpt><trkpt lat="42.2386284" lon="13.9097051"><ele>261.25</ele><time>2026-05-02T08:23:25.021Z</time></trkpt><trkpt lat="42.2385241" lon="13.9096251"><ele>265.0</ele><time>2026-05-02T08:23:27.021Z</time></trkpt><trkpt lat="42.2384208" lon="13.9095288"><ele>265.0</ele><time>2026-05-02T08:23:29.021Z</time></trkpt><trkpt lat="42.238372" lon="13.9094736"><ele>265.0</ele><time>2026-05-02T08:23:30.021Z</time></trkpt><trkpt lat="42.2383232" lon="13.9094145"><ele>265.0</ele><time>2026-05-02T08:23:31.02Z</time></trkpt><trkpt lat="42.2382769" lon="13.9093485"><ele>265.0</ele><time>2026-05-02T08:23:32.021Z</time></trkpt><trkpt lat="42.2381876" lon="13.9092485"><ele>265.0</ele><time>2026-05-02T08:23:34.021Z</time></trkpt><trkpt lat="42.2380862" lon="13.909166"><ele>265.0</ele><time>2026-05-02T08:23:36.02Z</time></trkpt><trkpt lat="42.2380221" lon="13.909137"><ele>267.2</ele><time>2026-05-02T08:23:37.021Z</time></trkpt><trkpt lat="42.2379059" lon="13.909123"><ele>269.4</ele><time>2026-05-02T08:23:39.021Z</time></trkpt><trkpt lat="42.2377979" lon="13.9091492"><ele>271.6</ele><time>2026-05-02T08:23:41.021Z</time></trkpt><trkpt lat="42.2377277" lon="13.9091593"><ele>273.8</ele><time>2026-05-02T08:23:43.021Z</time></trkpt><trkpt lat="42.2376638" lon="13.9090843"><ele>276.0</ele><time>2026-05-02T08:23:46.021Z</time></trkpt><trkpt lat="42.2376244" lon="13.9089466"><ele>276.0</ele><time>2026-05-02T08:23:48.021Z</time></trkpt><trkpt lat="42.2375879" lon="13.908857"><ele>276.0</ele><time>2026-05-02T08:23:49.021Z</time></trkpt><trkpt lat="42.2375481" lon="13.908757"><ele>276.0</ele><time>2026-05-02T08:23:50.021Z</time></trkpt><trkpt lat="42.2375098" lon="13.9086589"><ele>276.0</ele><time>2026-05-02T08:23:51.021Z</time></trkpt><trkpt lat="42.2374761" lon="13.9085636"><ele>276.0</ele><time>2026-05-02T08:23:52.021Z</time></trkpt><trkpt lat="42.2374436" lon="13.9084617"><ele>276.0</ele><time>2026-05-02T08:23:53.021Z</time></trkpt><trkpt lat="42.2374077" lon="13.9083696"><ele>276.5</ele><time>2026-05-02T08:23:54.021Z</time></trkpt><trkpt lat="42.2373686" lon="13.9082851"><ele>277.0</ele><time>2026-05-02T08:23:55.021Z</time></trkpt><trkpt lat="42.2373302" lon="13.9082053"><ele>277.5</ele><time>2026-05-02T08:23:56.021Z</time></trkpt><trkpt lat="42.2372917" lon="13.9081143"><ele>278.0</ele><time>2026-05-02T08:23:57.021Z</time></trkpt><trkpt lat="42.2372502" lon="13.9080159"><ele>278.5</ele><time>2026-05-02T08:23:58.02Z</time></trkpt><trkpt lat="42.2372023" lon="13.9079169"><ele>279.0</ele><time>2026-05-02T08:23:59.021Z</time></trkpt><trkpt lat="42.237151" lon="13.9078128"><ele>279.0</ele><time>2026-05-02T08:24:00.021Z</time></trkpt><trkpt lat="42.237098" lon="13.9077096"><ele>279.0</ele><time>2026-05-02T08:24:01.021Z</time></trkpt><trkpt lat="42.2370487" lon="13.9076071"><ele>279.0</ele><time>2026-05-02T08:24:02.021Z</time></trkpt><trkpt lat="42.2370021" lon="13.9075101"><ele>279.0</ele><time>2026-05-02T08:24:03.021Z</time></trkpt><trkpt lat="42.2369548" lon="13.9074233"><ele>279.0</ele><time>2026-05-02T08:24:04.021Z</time></trkpt><trkpt lat="42.2369081" lon="13.9073339"><ele>279.0</ele><time>2026-05-02T08:24:05.021Z</time></trkpt><trkpt lat="42.2368675" lon="13.9072409"><ele>278.99999999999994</ele><time>2026-05-02T08:24:06.021Z</time></trkpt><trkpt lat="42.236837" lon="13.9071482"><ele>279.0</ele><time>2026-05-02T08:24:07.021Z</time></trkpt><trkpt lat="42.2368092" lon="13.9070628"><ele>279.0</ele><time>2026-05-02T08:24:08.02Z</time></trkpt><trkpt lat="42.2367789" lon="13.9069803"><ele>279.0</ele><time>2026-05-02T08:24:09.021Z</time></trkpt><trkpt lat="42.2367456" lon="13.9068971"><ele>279.0</ele><time>2026-05-02T08:24:10.021Z</time></trkpt><trkpt lat="42.2367079" lon="13.9068182"><ele>278.99999999999994</ele><time>2026-05-02T08:24:11.021Z</time></trkpt><trkpt lat="42.2366646" lon="13.9067408"><ele>279.0</ele><time>2026-05-02T08:24:12.021Z</time></trkpt><trkpt lat="42.2366152" lon="13.9066652"><ele>278.5</ele><time>2026-05-02T08:24:13.021Z</time></trkpt><trkpt lat="42.236561" lon="13.9065898"><ele>278.0</ele><time>2026-05-02T08:24:14.021Z</time></trkpt><trkpt lat="42.236502" lon="13.9065159"><ele>277.5</ele><time>2026-05-02T08:24:15.021Z</time></trkpt><trkpt lat="42.2364436" lon="13.9064447"><ele>277.0</ele><time>2026-05-02T08:24:16.021Z</time></trkpt><trkpt lat="42.2363931" lon="13.9063869"><ele>276.5</ele><time>2026-05-02T08:24:17.021Z</time></trkpt><trkpt lat="42.2363307" lon="13.9062993"><ele>276.0</ele><time>2026-05-02T08:24:19.021Z</time></trkpt><trkpt lat="42.2362834" lon="13.906162"><ele>276.0</ele><time>2026-05-02T08:24:21.021Z</time></trkpt><trkpt lat="42.2362454" lon="13.906045"><ele>276.0</ele><time>2026-05-02T08:24:22.02Z</time></trkpt><trkpt lat="42.2362005" lon="13.9058819"><ele>276.0</ele><time>2026-05-02T08:24:23.021Z</time></trkpt><trkpt lat="42.2361464" lon="13.9056794"><ele>276.0</ele><time>2026-05-02T08:24:24.021Z</time></trkpt><trkpt lat="42.2360753" lon="13.905459"><ele>280.0</ele><time>2026-05-02T08:24:25.02Z</time></trkpt><trkpt lat="42.2359864" lon="13.9052266"><ele>284.0</ele><time>2026-05-02T08:24:26.021Z</time></trkpt><trkpt lat="42.2358844" lon="13.9049832"><ele>288.0</ele><time>2026-05-02T08:24:27.021Z</time></trkpt><trkpt lat="42.2357773" lon="13.9047378"><ele>287.3333333333333</ele><time>2026-05-02T08:24:28.021Z</time></trkpt><trkpt lat="42.2356798" lon="13.9045201"><ele>286.66666666666663</ele><time>2026-05-02T08:24:29.021Z</time></trkpt><trkpt lat="42.2355939" lon="13.9043234"><ele>286.0</ele><time>2026-05-02T08:24:30.02Z</time></trkpt><trkpt lat="42.2355189" lon="13.9041528"><ele>287.75</ele><time>2026-05-02T08:24:31.021Z</time></trkpt><trkpt lat="42.2354513" lon="13.9039907"><ele>289.5</ele><time>2026-05-02T08:24:32.021Z</time></trkpt><trkpt lat="42.235406" lon="13.9038285"><ele>291.25</ele><time>2026-05-02T08:24:33.021Z</time></trkpt><trkpt lat="42.2353755" lon="13.9036628"><ele>293.0</ele><time>2026-05-02T08:24:34.02Z</time></trkpt><trkpt lat="42.2353498" lon="13.9034965"><ele>293.4</ele><time>2026-05-02T08:24:35.021Z</time></trkpt><trkpt lat="42.2353246" lon="13.9033381"><ele>293.8</ele><time>2026-05-02T08:24:36.021Z</time></trkpt><trkpt lat="42.2352952" lon="13.9031837"><ele>294.2</ele><time>2026-05-02T08:24:37.021Z</time></trkpt><trkpt lat="42.2352699" lon="13.9030401"><ele>294.6</ele><time>2026-05-02T08:24:38.021Z</time></trkpt><trkpt lat="42.2352498" lon="13.902917"><ele>295.0</ele><time>2026-05-02T08:24:39.021Z</time></trkpt><trkpt lat="42.2352795" lon="13.9027624"><ele>295.0</ele><time>2026-05-02T08:24:41.021Z</time></trkpt><trkpt lat="42.2353789" lon="13.9027428"><ele>295.0</ele><time>2026-05-02T08:24:43.021Z</time></trkpt><trkpt lat="42.2354076" lon="13.9028309"><ele>295.0</ele><time>2026-05-02T08:24:44.021Z</time></trkpt><trkpt lat="42.2354343" lon="13.9029279"><ele>295.0</ele><time>2026-05-02T08:24:45.021Z</time></trkpt><trkpt lat="42.2354532" lon="13.9030532"><ele>295.0</ele><time>2026-05-02T08:24:46.02Z</time></trkpt><trkpt lat="42.2354812" lon="13.9031963"><ele>295.0</ele><time>2026-05-02T08:24:47.021Z</time></trkpt><trkpt lat="42.235517" lon="13.9033581"><ele>295.0</ele><time>2026-05-02T08:24:48.021Z</time></trkpt><trkpt lat="42.2355659" lon="13.9035199"><ele>295.0</ele><time>2026-05-02T08:24:49.021Z</time></trkpt><trkpt lat="42.2356192" lon="13.9036618"><ele>295.0</ele><time>2026-05-02T08:24:50.021Z</time></trkpt><trkpt lat="42.235673" lon="13.9037742"><ele>296.16666666666663</ele><time>2026-05-02T08:24:51.021Z</time></trkpt><trkpt lat="42.2357351" lon="13.9038481"><ele>297.3333333333333</ele><time>2026-05-02T08:24:52.021Z</time></trkpt><trkpt lat="42.2358062" lon="13.903871"><ele>298.5</ele><time>2026-05-02T08:24:53.021Z</time></trkpt><trkpt lat="42.2358664" lon="13.9038337"><ele>299.6666666666667</ele><time>2026-05-02T08:24:54.021Z</time></trkpt><trkpt lat="42.2359051" lon="13.9037629"><ele>300.83333333333337</ele><time>2026-05-02T08:24:55.021Z</time></trkpt><trkpt lat="42.235914" lon="13.9036618"><ele>302.0</ele><time>2026-05-02T08:24:56.021Z</time></trkpt><trkpt lat="42.2359005" lon="13.9035021"><ele>303.5</ele><time>2026-05-02T08:24:57.021Z</time></trkpt><trkpt lat="42.2358909" lon="13.9033249"><ele>305.0</ele><time>2026-05-02T08:24:58.021Z</time></trkpt><trkpt lat="42.2358768" lon="13.9031296"><ele>306.5</ele><time>2026-05-02T08:24:59.021Z</time></trkpt><trkpt lat="42.2358624" lon="13.9029199"><ele>308.0</ele><time>2026-05-02T08:25:00.021Z</time></trkpt><trkpt lat="42.2358475" lon="13.902706"><ele>310.0</ele><time>2026-05-02T08:25:01.02Z</time></trkpt><trkpt lat="42.2358356" lon="13.9025003"><ele>312.0</ele><time>2026-05-02T08:25:02.021Z</time></trkpt><trkpt lat="42.2358214" lon="13.9023006"><ele>314.0</ele><time>2026-05-02T08:25:03.02Z</time></trkpt><trkpt lat="42.2358082" lon="13.9021111"><ele>316.0</ele><time>2026-05-02T08:25:04.021Z</time></trkpt><trkpt lat="42.2357925" lon="13.9019331"><ele>316.0</ele><time>2026-05-02T08:25:05.021Z</time></trkpt><trkpt lat="42.2357741" lon="13.9017658"><ele>316.0</ele><time>2026-05-02T08:25:06.02Z</time></trkpt><trkpt lat="42.2357551" lon="13.9016019"><ele>316.0</ele><time>2026-05-02T08:25:07.021Z</time></trkpt><trkpt lat="42.2357394" lon="13.9014403"><ele>316.0</ele><time>2026-05-02T08:25:08.02Z</time></trkpt><trkpt lat="42.2357292" lon="13.901284"><ele>317.5</ele><time>2026-05-02T08:25:09.021Z</time></trkpt><trkpt lat="42.2357206" lon="13.9011303"><ele>319.0</ele><time>2026-05-02T08:25:10.021Z</time></trkpt><trkpt lat="42.2357097" lon="13.9009799"><ele>320.5</ele><time>2026-05-02T08:25:11.021Z</time></trkpt><trkpt lat="42.235699" lon="13.9008266"><ele>322.0</ele><time>2026-05-02T08:25:12.021Z</time></trkpt><trkpt lat="42.2356894" lon="13.9006712"><ele>323.75</ele><time>2026-05-02T08:25:13.021Z</time></trkpt><trkpt lat="42.2356841" lon="13.9005138"><ele>325.5</ele><time>2026-05-02T08:25:14.021Z</time></trkpt><trkpt lat="42.2356793" lon="13.9003482"><ele>327.25</ele><time>2026-05-02T08:25:15.021Z</time></trkpt><trkpt lat="42.2356776" lon="13.9001844"><ele>329.0</ele><time>2026-05-02T08:25:16.021Z</time></trkpt><trkpt lat="42.2356765" lon="13.9000253"><ele>329.6</ele><time>2026-05-02T08:25:17.021Z</time></trkpt><trkpt lat="42.2356821" lon="13.899876"><ele>330.2</ele><time>2026-05-02T08:25:18.021Z</time></trkpt><trkpt lat="42.2356984" lon="13.8997308"><ele>330.8</ele><time>2026-05-02T08:25:19.021Z</time></trkpt><trkpt lat="42.2357186" lon="13.8995885"><ele>331.40000000000003</ele><time>2026-05-02T08:25:20.021Z</time></trkpt><trkpt lat="42.2357393" lon="13.8994485"><ele>332.0</ele><time>2026-05-02T08:25:21.02Z</time></trkpt><trkpt lat="42.2357479" lon="13.8993104"><ele>333.6</ele><time>2026-05-02T08:25:22.021Z</time></trkpt><trkpt lat="42.2357432" lon="13.8991662"><ele>335.20000000000005</ele><time>2026-05-02T08:25:23.02Z</time></trkpt><trkpt lat="42.235736" lon="13.89902"><ele>336.8</ele><time>2026-05-02T08:25:24.02Z</time></trkpt><trkpt lat="42.2357331" lon="13.8988764"><ele>338.4</ele><time>2026-05-02T08:25:25.02Z</time></trkpt><trkpt lat="42.2357296" lon="13.8987363"><ele>340.0</ele><time>2026-05-02T08:25:26.02Z</time></trkpt><trkpt lat="42.2357302" lon="13.8985944"><ele>340.0</ele><time>2026-05-02T08:25:27.021Z</time></trkpt><trkpt lat="42.2357321" lon="13.898456"><ele>340.0</ele><time>2026-05-02T08:25:28.021Z</time></trkpt><trkpt lat="42.2357275" lon="13.8983221"><ele>340.0</ele><time>2026-05-02T08:25:29.021Z</time></trkpt><trkpt lat="42.2357157" lon="13.8981924"><ele>340.0</ele><time>2026-05-02T08:25:30.021Z</time></trkpt><trkpt lat="42.2357025" lon="13.8980714"><ele>340.0</ele><time>2026-05-02T08:25:31.021Z</time></trkpt><trkpt lat="42.2356656" lon="13.8979291"><ele>341.6</ele><time>2026-05-02T08:25:32.021Z</time></trkpt><trkpt lat="42.2356623" lon="13.897787"><ele>343.2</ele><time>2026-05-02T08:25:33.021Z</time></trkpt><trkpt lat="42.2356723" lon="13.8976375"><ele>344.79999999999995</ele><time>2026-05-02T08:25:34.021Z</time></trkpt><trkpt lat="42.2356872" lon="13.8974853"><ele>346.4</ele><time>2026-05-02T08:25:35.021Z</time></trkpt><trkpt lat="42.2357107" lon="13.897332"><ele>348.0</ele><time>2026-05-02T08:25:36.021Z</time></trkpt><trkpt lat="42.2357398" lon="13.8971772"><ele>349.25</ele><time>2026-05-02T08:25:37.021Z</time></trkpt><trkpt lat="42.235769" lon="13.8970238"><ele>350.5</ele><time>2026-05-02T08:25:38.02Z</time></trkpt><trkpt lat="42.2358" lon="13.8968734"><ele>351.75</ele><time>2026-05-02T08:25:39.021Z</time></trkpt><trkpt lat="42.2358378" lon="13.8967325"><ele>353.0</ele><time>2026-05-02T08:25:40.021Z</time></trkpt><trkpt lat="42.2358645" lon="13.8965857"><ele>353.0</ele><time>2026-05-02T08:25:41.021Z</time></trkpt><trkpt lat="42.2358912" lon="13.8964306"><ele>353.0</ele><time>2026-05-02T08:25:42.021Z</time></trkpt><trkpt lat="42.235913" lon="13.8962713"><ele>353.0</ele><time>2026-05-02T08:25:43.021Z</time></trkpt><trkpt lat="42.2359314" lon="13.8961089"><ele>353.0</ele><time>2026-05-02T08:25:44.02Z</time></trkpt><trkpt lat="42.2359494" lon="13.8959475"><ele>352.2</ele><time>2026-05-02T08:25:45.021Z</time></trkpt><trkpt lat="42.2359634" lon="13.8957971"><ele>351.4</ele><time>2026-05-02T08:25:46.021Z</time></trkpt><trkpt lat="42.2359891" lon="13.8956501"><ele>350.59999999999997</ele><time>2026-05-02T08:25:47.021Z</time></trkpt><trkpt lat="42.2360178" lon="13.8955098"><ele>349.79999999999995</ele><time>2026-05-02T08:25:48.021Z</time></trkpt><trkpt lat="42.2360441" lon="13.895358"><ele>349.0</ele><time>2026-05-02T08:25:49.021Z</time></trkpt><trkpt lat="42.2360614" lon="13.8951992"><ele>348.6</ele><time>2026-05-02T08:25:50.021Z</time></trkpt><trkpt lat="42.2360773" lon="13.895035"><ele>348.2</ele><time>2026-05-02T08:25:51.021Z</time></trkpt><trkpt lat="42.2360906" lon="13.8948807"><ele>347.8</ele><time>2026-05-02T08:25:52.021Z</time></trkpt><trkpt lat="42.2361011" lon="13.8947504"><ele>347.40000000000003</ele><time>2026-05-02T08:25:53.021Z</time></trkpt><trkpt lat="42.2361096" lon="13.8946468"><ele>347.0</ele><time>2026-05-02T08:25:54.021Z</time></trkpt><trkpt lat="42.2361182" lon="13.8945514"><ele>347.0</ele><time>2026-05-02T08:25:55.021Z</time></trkpt><trkpt lat="42.2361336" lon="13.8944556"><ele>347.0</ele><time>2026-05-02T08:25:56.021Z</time></trkpt><trkpt lat="42.2361625" lon="13.8943636"><ele>347.0</ele><time>2026-05-02T08:25:57.021Z</time></trkpt><trkpt lat="42.236201" lon="13.894276"><ele>347.0</ele><time>2026-05-02T08:25:58.02Z</time></trkpt><trkpt lat="42.2362368" lon="13.894185"><ele>347.0</ele><time>2026-05-02T08:25:59.021Z</time></trkpt><trkpt lat="42.2362594" lon="13.894082"><ele>347.0</ele><time>2026-05-02T08:26:00.021Z</time></trkpt><trkpt lat="42.2362669" lon="13.8939666"><ele>346.83333333333337</ele><time>2026-05-02T08:26:01.02Z</time></trkpt><trkpt lat="42.2362652" lon="13.8938552"><ele>346.6666666666667</ele><time>2026-05-02T08:26:02.021Z</time></trkpt><trkpt lat="42.2362647" lon="13.8937436"><ele>346.5</ele><time>2026-05-02T08:26:03.021Z</time></trkpt><trkpt lat="42.2362663" lon="13.8936303"><ele>346.3333333333333</ele><time>2026-05-02T08:26:04.02Z</time></trkpt><trkpt lat="42.2362602" lon="13.893525"><ele>346.16666666666663</ele><time>2026-05-02T08:26:05.021Z</time></trkpt><trkpt lat="42.2362532" lon="13.8934067"><ele>346.0</ele><time>2026-05-02T08:26:06.021Z</time></trkpt><trkpt lat="42.2362445" lon="13.8932766"><ele>346.0</ele><time>2026-05-02T08:26:07.021Z</time></trkpt><trkpt lat="42.2362416" lon="13.8931293"><ele>346.0</ele><time>2026-05-02T08:26:08.02Z</time></trkpt><trkpt lat="42.2362392" lon="13.8929673"><ele>346.0</ele><time>2026-05-02T08:26:09.021Z</time></trkpt><trkpt lat="42.2362325" lon="13.8927912"><ele>346.0</ele><time>2026-05-02T08:26:10.021Z</time></trkpt><trkpt lat="42.2362254" lon="13.892608"><ele>347.5</ele><time>2026-05-02T08:26:11.021Z</time></trkpt><trkpt lat="42.2362137" lon="13.8924175"><ele>349.0</ele><time>2026-05-02T08:26:12.021Z</time></trkpt><trkpt lat="42.2361908" lon="13.8922218"><ele>350.5</ele><time>2026-05-02T08:26:13.021Z</time></trkpt><trkpt lat="42.2361528" lon="13.8920226"><ele>352.0</ele><time>2026-05-02T08:26:14.021Z</time></trkpt><trkpt lat="42.2361017" lon="13.8918229"><ele>354.66666666666663</ele><time>2026-05-02T08:26:15.021Z</time></trkpt><trkpt lat="42.2360373" lon="13.8916275"><ele>357.3333333333333</ele><time>2026-05-02T08:26:16.021Z</time></trkpt><trkpt lat="42.2359586" lon="13.8914427"><ele>360.0</ele><time>2026-05-02T08:26:17.021Z</time></trkpt><trkpt lat="42.235879" lon="13.8912765"><ele>360.0</ele><time>2026-05-02T08:26:18.021Z</time></trkpt><trkpt lat="42.2358133" lon="13.8911108"><ele>360.0</ele><time>2026-05-02T08:26:19.021Z</time></trkpt><trkpt lat="42.2357636" lon="13.8909235"><ele>360.0</ele><time>2026-05-02T08:26:20.021Z</time></trkpt><trkpt lat="42.2357272" lon="13.8907214"><ele>360.0</ele><time>2026-05-02T08:26:21.02Z</time></trkpt><trkpt lat="42.2357027" lon="13.8905042"><ele>362.0</ele><time>2026-05-02T08:26:22.021Z</time></trkpt><trkpt lat="42.2356783" lon="13.8902845"><ele>364.0</ele><time>2026-05-02T08:26:23.02Z</time></trkpt><trkpt lat="42.2356368" lon="13.8900708"><ele>366.0</ele><time>2026-05-02T08:26:24.02Z</time></trkpt><trkpt lat="42.2355674" lon="13.8898715"><ele>366.0</ele><time>2026-05-02T08:26:25.021Z</time></trkpt><trkpt lat="42.2354828" lon="13.8896823"><ele>366.0</ele><time>2026-05-02T08:26:26.021Z</time></trkpt><trkpt lat="42.2353949" lon="13.8894955"><ele>366.0</ele><time>2026-05-02T08:26:27.021Z</time></trkpt><trkpt lat="42.235307" lon="13.8893063"><ele>369.3333333333333</ele><time>2026-05-02T08:26:28.021Z</time></trkpt><trkpt lat="42.2352216" lon="13.8891164"><ele>372.66666666666663</ele><time>2026-05-02T08:26:29.021Z</time></trkpt><trkpt lat="42.2351363" lon="13.888927"><ele>376.0</ele><time>2026-05-02T08:26:30.021Z</time></trkpt><trkpt lat="42.2350414" lon="13.8887451"><ele>376.0</ele><time>2026-05-02T08:26:31.021Z</time></trkpt><trkpt lat="42.2349377" lon="13.8885714"><ele>376.0</ele><time>2026-05-02T08:26:32.021Z</time></trkpt><trkpt lat="42.2348325" lon="13.8883996"><ele>376.0</ele><time>2026-05-02T08:26:33.021Z</time></trkpt><trkpt lat="42.2347266" lon="13.8882276"><ele>378.0</ele><time>2026-05-02T08:26:34.021Z</time></trkpt><trkpt lat="42.2346195" lon="13.8880529"><ele>380.0</ele><time>2026-05-02T08:26:35.021Z</time></trkpt><trkpt lat="42.2345132" lon="13.8878764"><ele>382.0</ele><time>2026-05-02T08:26:36.021Z</time></trkpt><trkpt lat="42.2344079" lon="13.8876985"><ele>388.3333333333333</ele><time>2026-05-02T08:26:37.021Z</time></trkpt><trkpt lat="42.2343026" lon="13.8875234"><ele>394.66666666666663</ele><time>2026-05-02T08:26:38.021Z</time></trkpt><trkpt lat="42.2341963" lon="13.887351"><ele>401.0</ele><time>2026-05-02T08:26:39.021Z</time></trkpt><trkpt lat="42.2340909" lon="13.8871784"><ele>401.0</ele><time>2026-05-02T08:26:40.021Z</time></trkpt><trkpt lat="42.2339882" lon="13.8870113"><ele>401.0</ele><time>2026-05-02T08:26:41.021Z</time></trkpt><trkpt lat="42.2338807" lon="13.8868621"><ele>401.0</ele><time>2026-05-02T08:26:42.021Z</time></trkpt><trkpt lat="42.2337672" lon="13.88675"><ele>401.20000000000005</ele><time>2026-05-02T08:26:43.021Z</time></trkpt><trkpt lat="42.2336601" lon="13.8866718"><ele>401.40000000000003</ele><time>2026-05-02T08:26:44.021Z</time></trkpt><trkpt lat="42.2335702" lon="13.8865988"><ele>401.6</ele><time>2026-05-02T08:26:45.021Z</time></trkpt><trkpt lat="42.2335101" lon="13.8865117"><ele>401.8</ele><time>2026-05-02T08:26:46.021Z</time></trkpt><trkpt lat="42.2334894" lon="13.8864179"><ele>402.0</ele><time>2026-05-02T08:26:47.021Z</time></trkpt><trkpt lat="42.2335062" lon="13.8863278"><ele>402.0</ele><time>2026-05-02T08:26:48.021Z</time></trkpt><trkpt lat="42.2335524" lon="13.8862626"><ele>402.0</ele><time>2026-05-02T08:26:49.021Z</time></trkpt><trkpt lat="42.2336222" lon="13.8862403"><ele>402.0</ele><time>2026-05-02T08:26:50.021Z</time></trkpt><trkpt lat="42.2337071" lon="13.8862638"><ele>402.0</ele><time>2026-05-02T08:26:51.021Z</time></trkpt><trkpt lat="42.2338085" lon="13.8863249"><ele>402.0</ele><time>2026-05-02T08:26:52.021Z</time></trkpt><trkpt lat="42.2339217" lon="13.8864099"><ele>401.75</ele><time>2026-05-02T08:26:53.021Z</time></trkpt><trkpt lat="42.2340449" lon="13.8865198"><ele>401.5</ele><time>2026-05-02T08:26:54.021Z</time></trkpt><trkpt lat="42.2341601" lon="13.8866507"><ele>401.25</ele><time>2026-05-02T08:26:55.021Z</time></trkpt><trkpt lat="42.2342559" lon="13.886776"><ele>401.0</ele><time>2026-05-02T08:26:56.021Z</time></trkpt><trkpt lat="42.234346" lon="13.886891"><ele>400.99999999999994</ele><time>2026-05-02T08:26:57.021Z</time></trkpt><trkpt lat="42.234431" lon="13.8869809"><ele>401.0</ele><time>2026-05-02T08:26:58.021Z</time></trkpt><trkpt lat="42.2345139" lon="13.8870239"><ele>401.0</ele><time>2026-05-02T08:26:59.021Z</time></trkpt><trkpt lat="42.234589" lon="13.887017"><ele>401.0</ele><time>2026-05-02T08:27:00.021Z</time></trkpt><trkpt lat="42.2346512" lon="13.8869636"><ele>400.99999999999994</ele><time>2026-05-02T08:27:01.021Z</time></trkpt><trkpt lat="42.23468" lon="13.8868742"><ele>401.0</ele><time>2026-05-02T08:27:02.021Z</time></trkpt><trkpt lat="42.2346677" lon="13.8867663"><ele>405.0</ele><time>2026-05-02T08:27:03.021Z</time></trkpt><trkpt lat="42.2346172" lon="13.8866486"><ele>409.0</ele><time>2026-05-02T08:27:04.02Z</time></trkpt><trkpt lat="42.2345311" lon="13.8865368"><ele>413.0</ele><time>2026-05-02T08:27:05.021Z</time></trkpt><trkpt lat="42.2344288" lon="13.886416"><ele>417.0</ele><time>2026-05-02T08:27:06.021Z</time></trkpt><trkpt lat="42.2343292" lon="13.8862729"><ele>417.0</ele><time>2026-05-02T08:27:07.02Z</time></trkpt><trkpt lat="42.2342381" lon="13.8861058"><ele>417.0</ele><time>2026-05-02T08:27:08.021Z</time></trkpt><trkpt lat="42.2341484" lon="13.8859199"><ele>417.0</ele><time>2026-05-02T08:27:09.02Z</time></trkpt><trkpt lat="42.234073" lon="13.8857222"><ele>416.0</ele><time>2026-05-02T08:27:10.021Z</time></trkpt><trkpt lat="42.2340166" lon="13.8855007"><ele>415.0</ele><time>2026-05-02T08:27:11.021Z</time></trkpt><trkpt lat="42.2339694" lon="13.8852507"><ele>414.0</ele><time>2026-05-02T08:27:12.021Z</time></trkpt><trkpt lat="42.2339288" lon="13.8849791"><ele>418.66666666666663</ele><time>2026-05-02T08:27:13.021Z</time></trkpt><trkpt lat="42.2338873" lon="13.8846912"><ele>423.3333333333333</ele><time>2026-05-02T08:27:14.021Z</time></trkpt><trkpt lat="42.2338397" lon="13.8843871"><ele>428.0</ele><time>2026-05-02T08:27:15.021Z</time></trkpt><trkpt lat="42.2337829" lon="13.884076"><ele>433.66666666666663</ele><time>2026-05-02T08:27:16.021Z</time></trkpt><trkpt lat="42.2337244" lon="13.8837919"><ele>439.33333333333337</ele><time>2026-05-02T08:27:17.021Z</time></trkpt><trkpt lat="42.2336681" lon="13.8835336"><ele>445.0</ele><time>2026-05-02T08:27:18.021Z</time></trkpt><trkpt lat="42.2336207" lon="13.8832981"><ele>450.33333333333337</ele><time>2026-05-02T08:27:19.021Z</time></trkpt><trkpt lat="42.2335819" lon="13.8830837"><ele>455.66666666666663</ele><time>2026-05-02T08:27:20.021Z</time></trkpt><trkpt lat="42.2335611" lon="13.8828869"><ele>461.0</ele><time>2026-05-02T08:27:21.021Z</time></trkpt><trkpt lat="42.2335607" lon="13.8826986"><ele>464.5</ele><time>2026-05-02T08:27:22.021Z</time></trkpt><trkpt lat="42.2335709" lon="13.882508"><ele>468.0</ele><time>2026-05-02T08:27:23.021Z</time></trkpt><trkpt lat="42.233587" lon="13.88231"><ele>471.5</ele><time>2026-05-02T08:27:24.021Z</time></trkpt><trkpt lat="42.2336097" lon="13.882106"><ele>475.0</ele><time>2026-05-02T08:27:25.021Z</time></trkpt><trkpt lat="42.2336313" lon="13.8818927"><ele>476.0</ele><time>2026-05-02T08:27:26.021Z</time></trkpt><trkpt lat="42.2336533" lon="13.8816889"><ele>477.0</ele><time>2026-05-02T08:27:27.021Z</time></trkpt><trkpt lat="42.2336845" lon="13.8815004"><ele>478.0</ele><time>2026-05-02T08:27:28.021Z</time></trkpt><trkpt lat="42.2337201" lon="13.8813089"><ele>479.0</ele><time>2026-05-02T08:27:29.021Z</time></trkpt><trkpt lat="42.2337584" lon="13.881123"><ele>479.0</ele><time>2026-05-02T08:27:30.021Z</time></trkpt><trkpt lat="42.2337988" lon="13.8809374"><ele>479.0</ele><time>2026-05-02T08:27:31.021Z</time></trkpt><trkpt lat="42.233826" lon="13.8807458"><ele>479.0</ele><time>2026-05-02T08:27:32.02Z</time></trkpt><trkpt lat="42.2338356" lon="13.8805434"><ele>479.0</ele><time>2026-05-02T08:27:33.02Z</time></trkpt><trkpt lat="42.2338179" lon="13.8803303"><ele>478.75</ele><time>2026-05-02T08:27:34.021Z</time></trkpt><trkpt lat="42.2337821" lon="13.8801214"><ele>478.5</ele><time>2026-05-02T08:27:35.021Z</time></trkpt><trkpt lat="42.2337446" lon="13.8799314"><ele>478.25</ele><time>2026-05-02T08:27:36.021Z</time></trkpt><trkpt lat="42.2337132" lon="13.8797586"><ele>478.0</ele><time>2026-05-02T08:27:37.021Z</time></trkpt><trkpt lat="42.233694" lon="13.879583"><ele>477.33333333333337</ele><time>2026-05-02T08:27:38.021Z</time></trkpt><trkpt lat="42.2337005" lon="13.8793943"><ele>476.66666666666663</ele><time>2026-05-02T08:27:39.021Z</time></trkpt><trkpt lat="42.2337312" lon="13.8792013"><ele>476.0</ele><time>2026-05-02T08:27:40.021Z</time></trkpt><trkpt lat="42.2337834" lon="13.8789906"><ele>475.66666666666663</ele><time>2026-05-02T08:27:41.021Z</time></trkpt><trkpt lat="42.2338355" lon="13.8787659"><ele>475.33333333333337</ele><time>2026-05-02T08:27:42.021Z</time></trkpt><trkpt lat="42.2338823" lon="13.8785339"><ele>475.0</ele><time>2026-05-02T08:27:43.021Z</time></trkpt><trkpt lat="42.2339278" lon="13.8783121"><ele>474.6666666666667</ele><time>2026-05-02T08:27:44.021Z</time></trkpt><trkpt lat="42.2339677" lon="13.8780985"><ele>474.33333333333337</ele><time>2026-05-02T08:27:45.02Z</time></trkpt><trkpt lat="42.2340057" lon="13.8778863"><ele>474.0</ele><time>2026-05-02T08:27:46.021Z</time></trkpt><trkpt lat="42.2340395" lon="13.8776684"><ele>470.66666666666663</ele><time>2026-05-02T08:27:47.021Z</time></trkpt><trkpt lat="42.2340691" lon="13.8774483"><ele>467.3333333333333</ele><time>2026-05-02T08:27:48.021Z</time></trkpt><trkpt lat="42.2340889" lon="13.8772318"><ele>464.0</ele><time>2026-05-02T08:27:49.021Z</time></trkpt><trkpt lat="42.2341026" lon="13.8770258"><ele>464.0</ele><time>2026-05-02T08:27:50.021Z</time></trkpt><trkpt lat="42.2341181" lon="13.8768311"><ele>464.0</ele><time>2026-05-02T08:27:51.02Z</time></trkpt><trkpt lat="42.2341437" lon="13.876648"><ele>464.0</ele><time>2026-05-02T08:27:52.021Z</time></trkpt><trkpt lat="42.2341873" lon="13.8764724"><ele>464.0</ele><time>2026-05-02T08:27:53.021Z</time></trkpt><trkpt lat="42.2342473" lon="13.8763007"><ele>464.66666666666663</ele><time>2026-05-02T08:27:54.021Z</time></trkpt><trkpt lat="42.2343219" lon="13.8761318"><ele>465.33333333333337</ele><time>2026-05-02T08:27:55.02Z</time></trkpt><trkpt lat="42.2344113" lon="13.8759599"><ele>466.0</ele><time>2026-05-02T08:27:56.021Z</time></trkpt><trkpt lat="42.2345136" lon="13.8757878"><ele>463.33333333333337</ele><time>2026-05-02T08:27:57.021Z</time></trkpt><trkpt lat="42.2346301" lon="13.8756106"><ele>460.66666666666663</ele><time>2026-05-02T08:27:58.021Z</time></trkpt><trkpt lat="42.234753" lon="13.8754355"><ele>458.0</ele><time>2026-05-02T08:27:59.021Z</time></trkpt><trkpt lat="42.2348897" lon="13.8752713"><ele>458.0</ele><time>2026-05-02T08:28:00.021Z</time></trkpt><trkpt lat="42.2350291" lon="13.8751274"><ele>458.0</ele><time>2026-05-02T08:28:01.021Z</time></trkpt><trkpt lat="42.2351709" lon="13.8749971"><ele>458.0</ele><time>2026-05-02T08:28:02.021Z</time></trkpt><trkpt lat="42.2353077" lon="13.8748845"><ele>456.0</ele><time>2026-05-02T08:28:03.021Z</time></trkpt><trkpt lat="42.2354378" lon="13.8747697"><ele>454.0</ele><time>2026-05-02T08:28:04.021Z</time></trkpt><trkpt lat="42.235544" lon="13.8746543"><ele>452.0</ele><time>2026-05-02T08:28:05.021Z</time></trkpt><trkpt lat="42.2356255" lon="13.8745486"><ele>450.0</ele><time>2026-05-02T08:28:06.02Z</time></trkpt><trkpt lat="42.2356816" lon="13.8744472"><ele>450.0</ele><time>2026-05-02T08:28:07.021Z</time></trkpt><trkpt lat="42.2357033" lon="13.8743387"><ele>450.0</ele><time>2026-05-02T08:28:08.021Z</time></trkpt><trkpt lat="42.2356886" lon="13.8742276"><ele>450.0</ele><time>2026-05-02T08:28:09.021Z</time></trkpt><trkpt lat="42.235671" lon="13.8741162"><ele>450.0</ele><time>2026-05-02T08:28:10.021Z</time></trkpt><trkpt lat="42.2355567" lon="13.8740417"><ele>450.0</ele><time>2026-05-02T08:28:11.021Z</time></trkpt><trkpt lat="42.2354799" lon="13.8739439"><ele>454.5</ele><time>2026-05-02T08:28:12.02Z</time></trkpt><trkpt lat="42.2354116" lon="13.8738352"><ele>459.0</ele><time>2026-05-02T08:28:13.021Z</time></trkpt><trkpt lat="42.2353718" lon="13.8737379"><ele>463.5</ele><time>2026-05-02T08:28:14.021Z</time></trkpt><trkpt lat="42.2353632" lon="13.8736326"><ele>468.0</ele><time>2026-05-02T08:28:15.02Z</time></trkpt><trkpt lat="42.2353901" lon="13.8735333"><ele>472.5</ele><time>2026-05-02T08:28:16.021Z</time></trkpt><trkpt lat="42.2354454" lon="13.8734275"><ele>477.0</ele><time>2026-05-02T08:28:17.021Z</time></trkpt><trkpt lat="42.235509" lon="13.8733203"><ele>477.0</ele><time>2026-05-02T08:28:18.021Z</time></trkpt><trkpt lat="42.2355872" lon="13.873241"><ele>477.0</ele><time>2026-05-02T08:28:19.021Z</time></trkpt><trkpt lat="42.2356888" lon="13.8732017"><ele>477.0</ele><time>2026-05-02T08:28:20.021Z</time></trkpt><trkpt lat="42.2358075" lon="13.8731963"><ele>477.0</ele><time>2026-05-02T08:28:21.021Z</time></trkpt><trkpt lat="42.2359412" lon="13.8732259"><ele>471.66666666666663</ele><time>2026-05-02T08:28:22.021Z</time></trkpt><trkpt lat="42.2360888" lon="13.8732722"><ele>466.3333333333333</ele><time>2026-05-02T08:28:23.021Z</time></trkpt><trkpt lat="42.2362409" lon="13.8733272"><ele>461.0</ele><time>2026-05-02T08:28:24.021Z</time></trkpt><trkpt lat="42.2364063" lon="13.8733705"><ele>461.3333333333333</ele><time>2026-05-02T08:28:25.021Z</time></trkpt><trkpt lat="42.2365726" lon="13.8733929"><ele>461.66666666666663</ele><time>2026-05-02T08:28:26.021Z</time></trkpt><trkpt lat="42.2367436" lon="13.873394"><ele>462.0</ele><time>2026-05-02T08:28:27.021Z</time></trkpt><trkpt lat="42.2369164" lon="13.873364"><ele>462.0</ele><time>2026-05-02T08:28:28.021Z</time></trkpt><trkpt lat="42.2370808" lon="13.8733004"><ele>462.0</ele><time>2026-05-02T08:28:29.021Z</time></trkpt><trkpt lat="42.2372363" lon="13.8732137"><ele>462.0</ele><time>2026-05-02T08:28:30.021Z</time></trkpt><trkpt lat="42.2373833" lon="13.8730991"><ele>460.75</ele><time>2026-05-02T08:28:31.021Z</time></trkpt><trkpt lat="42.2375217" lon="13.872989"><ele>459.5</ele><time>2026-05-02T08:28:32.021Z</time></trkpt><trkpt lat="42.2376439" lon="13.8728827"><ele>458.25</ele><time>2026-05-02T08:28:33.021Z</time></trkpt><trkpt lat="42.237731" lon="13.8727419"><ele>457.0</ele><time>2026-05-02T08:28:34.021Z</time></trkpt><trkpt lat="42.2378035" lon="13.8725578"><ele>462.33333333333337</ele><time>2026-05-02T08:28:35.021Z</time></trkpt><trkpt lat="42.2378639" lon="13.8723499"><ele>467.66666666666663</ele><time>2026-05-02T08:28:36.021Z</time></trkpt><trkpt lat="42.237933" lon="13.8721385"><ele>473.0</ele><time>2026-05-02T08:28:37.021Z</time></trkpt><trkpt lat="42.2379982" lon="13.8719575"><ele>473.0</ele><time>2026-05-02T08:28:38.021Z</time></trkpt><trkpt lat="42.238062" lon="13.8718015"><ele>473.0</ele><time>2026-05-02T08:28:39.021Z</time></trkpt><trkpt lat="42.2381208" lon="13.8716568"><ele>473.0</ele><time>2026-05-02T08:28:40.021Z</time></trkpt><trkpt lat="42.2381805" lon="13.8715216"><ele>473.0</ele><time>2026-05-02T08:28:41.021Z</time></trkpt><trkpt lat="42.2382473" lon="13.8714033"><ele>473.2</ele><time>2026-05-02T08:28:42.021Z</time></trkpt><trkpt lat="42.2383191" lon="13.8712942"><ele>473.4</ele><time>2026-05-02T08:28:43.021Z</time></trkpt><trkpt lat="42.2383867" lon="13.8711893"><ele>473.59999999999997</ele><time>2026-05-02T08:28:44.021Z</time></trkpt><trkpt lat="42.2384547" lon="13.8710901"><ele>473.79999999999995</ele><time>2026-05-02T08:28:45.02Z</time></trkpt><trkpt lat="42.2385203" lon="13.8709984"><ele>474.0</ele><time>2026-05-02T08:28:46.021Z</time></trkpt><trkpt lat="42.2385819" lon="13.8709162"><ele>477.2</ele><time>2026-05-02T08:28:47.021Z</time></trkpt><trkpt lat="42.2386331" lon="13.8708429"><ele>480.4</ele><time>2026-05-02T08:28:48.021Z</time></trkpt><trkpt lat="42.2387002" lon="13.8707492"><ele>483.6</ele><time>2026-05-02T08:28:50.02Z</time></trkpt><trkpt lat="42.2387267" lon="13.8706604"><ele>486.8</ele><time>2026-05-02T08:28:52.021Z</time></trkpt><trkpt lat="42.2386462" lon="13.8706095"><ele>490.0</ele><time>2026-05-02T08:28:54.021Z</time></trkpt><trkpt lat="42.238512" lon="13.8706411"><ele>490.0</ele><time>2026-05-02T08:28:56.021Z</time></trkpt><trkpt lat="42.2384245" lon="13.870662"><ele>490.0</ele><time>2026-05-02T08:28:57.021Z</time></trkpt><trkpt lat="42.2383255" lon="13.870678"><ele>490.0</ele><time>2026-05-02T08:28:58.021Z</time></trkpt><trkpt lat="42.2382148" lon="13.8706978"><ele>490.0</ele><time>2026-05-02T08:28:59.02Z</time></trkpt><trkpt lat="42.238096" lon="13.8707209"><ele>490.0</ele><time>2026-05-02T08:29:00.021Z</time></trkpt><trkpt lat="42.2379824" lon="13.8707628"><ele>489.33333333333337</ele><time>2026-05-02T08:29:01.02Z</time></trkpt><trkpt lat="42.237883" lon="13.8708364"><ele>488.6666666666667</ele><time>2026-05-02T08:29:02.02Z</time></trkpt><trkpt lat="42.2378012" lon="13.8709091"><ele>488.0</ele><time>2026-05-02T08:29:03.021Z</time></trkpt><trkpt lat="42.2377205" lon="13.8709586"><ele>487.33333333333337</ele><time>2026-05-02T08:29:04.021Z</time></trkpt><trkpt lat="42.2376437" lon="13.8709868"><ele>486.6666666666667</ele><time>2026-05-02T08:29:05.021Z</time></trkpt><trkpt lat="42.2375802" lon="13.870984"><ele>486.0</ele><time>2026-05-02T08:29:06.021Z</time></trkpt><trkpt lat="42.237523" lon="13.8708854"><ele>488.8</ele><time>2026-05-02T08:29:08.02Z</time></trkpt><trkpt lat="42.2375751" lon="13.8707331"><ele>491.6</ele><time>2026-05-02T08:29:10.021Z</time></trkpt><trkpt lat="42.2376292" lon="13.8706503"><ele>494.4</ele><time>2026-05-02T08:29:11.02Z</time></trkpt><trkpt lat="42.2376903" lon="13.8705609"><ele>497.2</ele><time>2026-05-02T08:29:12.021Z</time></trkpt><trkpt lat="42.2377557" lon="13.8704622"><ele>500.0</ele><time>2026-05-02T08:29:13.021Z</time></trkpt><trkpt lat="42.2378243" lon="13.8703573"><ele>499.99999999999994</ele><time>2026-05-02T08:29:14.021Z</time></trkpt><trkpt lat="42.2378939" lon="13.8702492"><ele>500.0</ele><time>2026-05-02T08:29:15.021Z</time></trkpt><trkpt lat="42.2379512" lon="13.8701606"><ele>500.0</ele><time>2026-05-02T08:29:16.021Z</time></trkpt><trkpt lat="42.2379921" lon="13.8700819"><ele>500.0</ele><time>2026-05-02T08:29:17.021Z</time></trkpt><trkpt lat="42.2380221" lon="13.869989"><ele>499.99999999999994</ele><time>2026-05-02T08:29:18.021Z</time></trkpt><trkpt lat="42.2380468" lon="13.8699061"><ele>500.0</ele><time>2026-05-02T08:29:19.021Z</time></trkpt><trkpt lat="42.2379728" lon="13.8698567"><ele>503.0</ele><time>2026-05-02T08:29:20.021Z</time></trkpt><trkpt lat="42.2379022" lon="13.8697898"><ele>506.0</ele><time>2026-05-02T08:29:21.021Z</time></trkpt><trkpt lat="42.2378197" lon="13.8697401"><ele>509.0</ele><time>2026-05-02T08:29:22.021Z</time></trkpt><trkpt lat="42.2377201" lon="13.8696987"><ele>512.0</ele><time>2026-05-02T08:29:23.021Z</time></trkpt><trkpt lat="42.2376077" lon="13.8696537"><ele>515.0</ele><time>2026-05-02T08:29:24.021Z</time></trkpt><trkpt lat="42.2374838" lon="13.8695884"><ele>515.0</ele><time>2026-05-02T08:29:25.021Z</time></trkpt><trkpt lat="42.2373531" lon="13.8694928"><ele>515.0</ele><time>2026-05-02T08:29:26.021Z</time></trkpt><trkpt lat="42.2372096" lon="13.8694023"><ele>515.0</ele><time>2026-05-02T08:29:27.021Z</time></trkpt><trkpt lat="42.2370515" lon="13.8693231"><ele>521.3333333333333</ele><time>2026-05-02T08:29:28.021Z</time></trkpt><trkpt lat="42.2368968" lon="13.869225"><ele>527.6666666666666</ele><time>2026-05-02T08:29:29.021Z</time></trkpt><trkpt lat="42.2367517" lon="13.8691312"><ele>534.0</ele><time>2026-05-02T08:29:30.021Z</time></trkpt><trkpt lat="42.2366278" lon="13.869041"><ele>534.0</ele><time>2026-05-02T08:29:31.021Z</time></trkpt><trkpt lat="42.2365144" lon="13.8689566"><ele>534.0</ele><time>2026-05-02T08:29:32.021Z</time></trkpt><trkpt lat="42.2364126" lon="13.8688798"><ele>534.0</ele><time>2026-05-02T08:29:33.021Z</time></trkpt><trkpt lat="42.2363244" lon="13.8688132"><ele>534.0</ele><time>2026-05-02T08:29:34.021Z</time></trkpt><trkpt lat="42.2362504" lon="13.8687437"><ele>534.0</ele><time>2026-05-02T08:29:35.021Z</time></trkpt><trkpt lat="42.2362177" lon="13.868659"><ele>534.8</ele><time>2026-05-02T08:29:36.021Z</time></trkpt><trkpt lat="42.2362545" lon="13.8685079"><ele>535.5999999999999</ele><time>2026-05-02T08:29:38.021Z</time></trkpt><trkpt lat="42.2363159" lon="13.8684502"><ele>536.4</ele><time>2026-05-02T08:29:39.021Z</time></trkpt><trkpt lat="42.2364004" lon="13.8684108"><ele>537.1999999999999</ele><time>2026-05-02T08:29:40.021Z</time></trkpt><trkpt lat="42.2365005" lon="13.8683697"><ele>538.0</ele><time>2026-05-02T08:29:41.021Z</time></trkpt><trkpt lat="42.2366054" lon="13.8683186"><ele>540.4</ele><time>2026-05-02T08:29:42.021Z</time></trkpt><trkpt lat="42.2367157" lon="13.8682577"><ele>542.8</ele><time>2026-05-02T08:29:43.021Z</time></trkpt><trkpt lat="42.2368256" lon="13.868201"><ele>545.2</ele><time>2026-05-02T08:29:44.021Z</time></trkpt><trkpt lat="42.2369093" lon="13.8681585"><ele>547.6</ele><time>2026-05-02T08:29:45.021Z</time></trkpt><trkpt lat="42.2369784" lon="13.8681255"><ele>550.0</ele><time>2026-05-02T08:29:46.021Z</time></trkpt><trkpt lat="42.2370576" lon="13.8680357"><ele>550.0</ele><time>2026-05-02T08:29:48.021Z</time></trkpt><trkpt lat="42.2370231" lon="13.8679109"><ele>550.0</ele><time>2026-05-02T08:29:50.021Z</time></trkpt><trkpt lat="42.2369593" lon="13.8678613"><ele>550.0</ele><time>2026-05-02T08:29:51.02Z</time></trkpt><trkpt lat="42.2368842" lon="13.8678196"><ele>550.0</ele><time>2026-05-02T08:29:52.021Z</time></trkpt><trkpt lat="42.2367939" lon="13.8677684"><ele>550.0</ele><time>2026-05-02T08:29:53.021Z</time></trkpt><trkpt lat="42.2366992" lon="13.8677044"><ele>550.0</ele><time>2026-05-02T08:29:54.021Z</time></trkpt><trkpt lat="42.2365971" lon="13.8676178"><ele>550.0</ele><time>2026-05-02T08:29:55.021Z</time></trkpt><trkpt lat="42.2365096" lon="13.8675115"><ele>550.0</ele><time>2026-05-02T08:29:56.021Z</time></trkpt><trkpt lat="42.2364342" lon="13.867384"><ele>550.0</ele><time>2026-05-02T08:29:57.02Z</time></trkpt><trkpt lat="42.2363671" lon="13.8672305"><ele>551.4</ele><time>2026-05-02T08:29:58.02Z</time></trkpt><trkpt lat="42.2363075" lon="13.8670765"><ele>552.8</ele><time>2026-05-02T08:29:59.021Z</time></trkpt><trkpt lat="42.2362476" lon="13.8669422"><ele>554.2</ele><time>2026-05-02T08:30:00.021Z</time></trkpt><trkpt lat="42.236188" lon="13.8668781"><ele>555.6</ele><time>2026-05-02T08:30:01.021Z</time></trkpt><trkpt lat="42.2361131" lon="13.8667845"><ele>557.0</ele><time>2026-05-02T08:30:02.021Z</time></trkpt><trkpt lat="42.2360291" lon="13.866711"><ele>557.0</ele><time>2026-05-02T08:30:03.021Z</time></trkpt><trkpt lat="42.2359286" lon="13.866726"><ele>557.0</ele><time>2026-05-02T08:30:04.021Z</time></trkpt><trkpt lat="42.2358217" lon="13.8667516"><ele>557.0</ele><time>2026-05-02T08:30:05.021Z</time></trkpt><trkpt lat="42.2357002" lon="13.866841"><ele>557.0</ele><time>2026-05-02T08:30:06.021Z</time></trkpt><trkpt lat="42.2356089" lon="13.8668679"><ele>557.0</ele><time>2026-05-02T08:30:07.021Z</time></trkpt><trkpt lat="42.235528" lon="13.8668721"><ele>556.1666666666666</ele><time>2026-05-02T08:30:08.021Z</time></trkpt><trkpt lat="42.2354622" lon="13.866851"><ele>555.3333333333333</ele><time>2026-05-02T08:30:09.021Z</time></trkpt><trkpt lat="42.235415" lon="13.8667389"><ele>554.5</ele><time>2026-05-02T08:30:11.021Z</time></trkpt><trkpt lat="42.2354945" lon="13.8666498"><ele>553.6666666666666</ele><time>2026-05-02T08:30:13.021Z</time></trkpt><trkpt lat="42.2355548" lon="13.8666091"><ele>552.8333333333334</ele><time>2026-05-02T08:30:14.02Z</time></trkpt><trkpt lat="42.2356327" lon="13.8665386"><ele>552.0</ele><time>2026-05-02T08:30:16.021Z</time></trkpt><trkpt lat="42.2355641" lon="13.866455"><ele>556.8000000000001</ele><time>2026-05-02T08:30:19.021Z</time></trkpt><trkpt lat="42.2354345" lon="13.8664319"><ele>561.6</ele><time>2026-05-02T08:30:21.021Z</time></trkpt><trkpt lat="42.2353667" lon="13.8663888"><ele>566.4000000000001</ele><time>2026-05-02T08:30:22.02Z</time></trkpt><trkpt lat="42.2353059" lon="13.8663171"><ele>571.2</ele><time>2026-05-02T08:30:23.021Z</time></trkpt><trkpt lat="42.2352503" lon="13.866233"><ele>576.0</ele><time>2026-05-02T08:30:24.021Z</time></trkpt><trkpt lat="42.2351932" lon="13.8661411"><ele>576.0</ele><time>2026-05-02T08:30:25.021Z</time></trkpt><trkpt lat="42.235132" lon="13.8660403"><ele>576.0</ele><time>2026-05-02T08:30:26.021Z</time></trkpt><trkpt lat="42.235072" lon="13.8659302"><ele>576.0</ele><time>2026-05-02T08:30:27.021Z</time></trkpt><trkpt lat="42.2350127" lon="13.8658103"><ele>576.0</ele><time>2026-05-02T08:30:28.021Z</time></trkpt><trkpt lat="42.2349452" lon="13.8656838"><ele>576.0</ele><time>2026-05-02T08:30:29.021Z</time></trkpt><trkpt lat="42.2348752" lon="13.8655654"><ele>575.0</ele><time>2026-05-02T08:30:30.021Z</time></trkpt><trkpt lat="42.2348013" lon="13.8654616"><ele>574.0</ele><time>2026-05-02T08:30:31.021Z</time></trkpt><trkpt lat="42.2347173" lon="13.8653726"><ele>573.0</ele><time>2026-05-02T08:30:32.02Z</time></trkpt><trkpt lat="42.2346328" lon="13.8652946"><ele>572.0</ele><time>2026-05-02T08:30:33.02Z</time></trkpt><trkpt lat="42.2345584" lon="13.8652177"><ele>571.0</ele><time>2026-05-02T08:30:34.021Z</time></trkpt><trkpt lat="42.2344973" lon="13.8651306"><ele>574.6</ele><time>2026-05-02T08:30:35.021Z</time></trkpt><trkpt lat="42.2344453" lon="13.8650247"><ele>578.2</ele><time>2026-05-02T08:30:36.02Z</time></trkpt><trkpt lat="42.234396" lon="13.8649109"><ele>581.8</ele><time>2026-05-02T08:30:37.021Z</time></trkpt><trkpt lat="42.2343482" lon="13.864779"><ele>585.4</ele><time>2026-05-02T08:30:38.021Z</time></trkpt><trkpt lat="42.234287" lon="13.8646535"><ele>589.0</ele><time>2026-05-02T08:30:39.021Z</time></trkpt><trkpt lat="42.2342162" lon="13.8645381"><ele>589.0</ele><time>2026-05-02T08:30:40.021Z</time></trkpt><trkpt lat="42.2341478" lon="13.8644235"><ele>589.0</ele><time>2026-05-02T08:30:41.02Z</time></trkpt><trkpt lat="42.2340956" lon="13.864293"><ele>589.0</ele><time>2026-05-02T08:30:42.021Z</time></trkpt><trkpt lat="42.2340529" lon="13.8641529"><ele>589.0</ele><time>2026-05-02T08:30:43.021Z</time></trkpt><trkpt lat="42.234006" lon="13.8640138"><ele>589.0</ele><time>2026-05-02T08:30:44.021Z</time></trkpt><trkpt lat="42.2339564" lon="13.8638748"><ele>588.75</ele><time>2026-05-02T08:30:45.021Z</time></trkpt><trkpt lat="42.2339065" lon="13.8637321"><ele>588.5</ele><time>2026-05-02T08:30:46.021Z</time></trkpt><trkpt lat="42.2338601" lon="13.8635965"><ele>588.25</ele><time>2026-05-02T08:30:47.021Z</time></trkpt><trkpt lat="42.2338023" lon="13.863472"><ele>588.0</ele><time>2026-05-02T08:30:48.021Z</time></trkpt><trkpt lat="42.2337261" lon="13.8633562"><ele>591.5</ele><time>2026-05-02T08:30:49.02Z</time></trkpt><trkpt lat="42.2336477" lon="13.8632407"><ele>595.0</ele><time>2026-05-02T08:30:50.021Z</time></trkpt><trkpt lat="42.2335715" lon="13.8631172"><ele>598.5</ele><time>2026-05-02T08:30:51.021Z</time></trkpt><trkpt lat="42.2334844" lon="13.8629895"><ele>602.0</ele><time>2026-05-02T08:30:52.021Z</time></trkpt><trkpt lat="42.2333845" lon="13.8628717"><ele>602.0</ele><time>2026-05-02T08:30:53.021Z</time></trkpt><trkpt lat="42.2332797" lon="13.8627528"><ele>602.0</ele><time>2026-05-02T08:30:54.021Z</time></trkpt><trkpt lat="42.2331844" lon="13.8626418"><ele>602.0</ele><time>2026-05-02T08:30:55.021Z</time></trkpt><trkpt lat="42.2330977" lon="13.8625432"><ele>602.0</ele><time>2026-05-02T08:30:56.021Z</time></trkpt><trkpt lat="42.2330177" lon="13.862451"><ele>602.0</ele><time>2026-05-02T08:30:57.021Z</time></trkpt><trkpt lat="42.2329555" lon="13.8623456"><ele>602.0</ele><time>2026-05-02T08:30:58.021Z</time></trkpt><trkpt lat="42.2329066" lon="13.8622213"><ele>602.0</ele><time>2026-05-02T08:30:59.021Z</time></trkpt><trkpt lat="42.2328636" lon="13.8620862"><ele>602.0</ele><time>2026-05-02T08:31:00.02Z</time></trkpt><trkpt lat="42.2328176" lon="13.8619491"><ele>602.0</ele><time>2026-05-02T08:31:01.021Z</time></trkpt><trkpt lat="42.2327711" lon="13.8618049"><ele>605.75</ele><time>2026-05-02T08:31:02.021Z</time></trkpt><trkpt lat="42.2327276" lon="13.8616537"><ele>609.5</ele><time>2026-05-02T08:31:03.021Z</time></trkpt><trkpt lat="42.2326757" lon="13.8615039"><ele>613.25</ele><time>2026-05-02T08:31:04.021Z</time></trkpt><trkpt lat="42.2326245" lon="13.8613662"><ele>617.0</ele><time>2026-05-02T08:31:05.021Z</time></trkpt><trkpt lat="42.2325689" lon="13.8612397"><ele>617.0</ele><time>2026-05-02T08:31:06.021Z</time></trkpt><trkpt lat="42.232516" lon="13.8611174"><ele>617.0</ele><time>2026-05-02T08:31:07.02Z</time></trkpt><trkpt lat="42.2324767" lon="13.8610185"><ele>617.0</ele><time>2026-05-02T08:31:08.021Z</time></trkpt><trkpt lat="42.232435" lon="13.8608552"><ele>617.0</ele><time>2026-05-02T08:31:10.021Z</time></trkpt><trkpt lat="42.2324174" lon="13.8607632"><ele>617.0</ele><time>2026-05-02T08:31:11.021Z</time></trkpt><trkpt lat="42.2324036" lon="13.8606539"><ele>618.3333333333333</ele><time>2026-05-02T08:31:12.021Z</time></trkpt><trkpt lat="42.2323919" lon="13.8605392"><ele>619.6666666666666</ele><time>2026-05-02T08:31:13.02Z</time></trkpt><trkpt lat="42.2323838" lon="13.8604239"><ele>621.0</ele><time>2026-05-02T08:31:14.021Z</time></trkpt><trkpt lat="42.232387" lon="13.8603071"><ele>622.3333333333334</ele><time>2026-05-02T08:31:15.021Z</time></trkpt><trkpt lat="42.2323971" lon="13.8601975"><ele>623.6666666666667</ele><time>2026-05-02T08:31:16.021Z</time></trkpt><trkpt lat="42.2324076" lon="13.8601098"><ele>625.0</ele><time>2026-05-02T08:31:17.021Z</time></trkpt><trkpt lat="42.2323989" lon="13.860025"><ele>626.0</ele><time>2026-05-02T08:31:18.021Z</time></trkpt><trkpt lat="42.2323282" lon="13.8599076"><ele>627.0</ele><time>2026-05-02T08:31:20.021Z</time></trkpt><trkpt lat="42.2322209" lon="13.8598687"><ele>628.0</ele><time>2026-05-02T08:31:22.021Z</time></trkpt><trkpt lat="42.2321558" lon="13.85987"><ele>629.0</ele><time>2026-05-02T08:31:23.02Z</time></trkpt><trkpt lat="42.2320843" lon="13.8598756"><ele>630.0</ele><time>2026-05-02T08:31:24.021Z</time></trkpt><trkpt lat="42.2320079" lon="13.8598652"><ele>631.0</ele><time>2026-05-02T08:31:25.021Z</time></trkpt><trkpt lat="42.2319234" lon="13.8598359"><ele>631.5</ele><time>2026-05-02T08:31:26.021Z</time></trkpt><trkpt lat="42.231845" lon="13.8597987"><ele>632.0</ele><time>2026-05-02T08:31:27.021Z</time></trkpt><trkpt lat="42.2317701" lon="13.8597804"><ele>632.5</ele><time>2026-05-02T08:31:28.021Z</time></trkpt><trkpt lat="42.2316936" lon="13.8597843"><ele>633.0</ele><time>2026-05-02T08:31:29.02Z</time></trkpt><trkpt lat="42.2316153" lon="13.8598001"><ele>633.5</ele><time>2026-05-02T08:31:30.021Z</time></trkpt><trkpt lat="42.2315266" lon="13.8598195"><ele>634.0</ele><time>2026-05-02T08:31:31.021Z</time></trkpt><trkpt lat="42.2314353" lon="13.8598658"><ele>635.4285714285714</ele><time>2026-05-02T08:31:32.021Z</time></trkpt><trkpt lat="42.2313526" lon="13.8599218"><ele>636.8571428571429</ele><time>2026-05-02T08:31:33.021Z</time></trkpt><trkpt lat="42.2312811" lon="13.8599626"><ele>638.2857142857142</ele><time>2026-05-02T08:31:34.021Z</time></trkpt><trkpt lat="42.2312143" lon="13.8599882"><ele>639.7142857142858</ele><time>2026-05-02T08:31:35.021Z</time></trkpt><trkpt lat="42.2311428" lon="13.8600071"><ele>641.1428571428571</ele><time>2026-05-02T08:31:36.021Z</time></trkpt><trkpt lat="42.2310773" lon="13.860001"><ele>642.5714285714286</ele><time>2026-05-02T08:31:37.02Z</time></trkpt><trkpt lat="42.2310209" lon="13.859963"><ele>644.0</ele><time>2026-05-02T08:31:38.021Z</time></trkpt><trkpt lat="42.2309767" lon="13.859897"><ele>644.0</ele><time>2026-05-02T08:31:39.021Z</time></trkpt><trkpt lat="42.2309301" lon="13.8597745"><ele>644.0</ele><time>2026-05-02T08:31:41.021Z</time></trkpt><trkpt lat="42.230891" lon="13.859706"><ele>644.0</ele><time>2026-05-02T08:31:43.021Z</time></trkpt><trkpt lat="42.2308148" lon="13.8596316"><ele>644.0</ele><time>2026-05-02T08:31:46.021Z</time></trkpt><trkpt lat="42.2307548" lon="13.8595744"><ele>644.0</ele><time>2026-05-02T08:31:48.021Z</time></trkpt><trkpt lat="42.2306891" lon="13.8595424"><ele>644.0</ele><time>2026-05-02T08:31:50.021Z</time></trkpt><trkpt lat="42.2306067" lon="13.8595081"><ele>644.5</ele><time>2026-05-02T08:31:52.021Z</time></trkpt><trkpt lat="42.2305392" lon="13.8594689"><ele>645.0</ele><time>2026-05-02T08:31:54.02Z</time></trkpt><trkpt lat="42.2304595" lon="13.8594143"><ele>645.5</ele><time>2026-05-02T08:31:57.021Z</time></trkpt><trkpt lat="42.2304014" lon="13.8593388"><ele>646.0</ele><time>2026-05-02T08:31:59.021Z</time></trkpt><trkpt lat="42.2303337" lon="13.8592801"><ele>646.5</ele><time>2026-05-02T08:32:01.021Z</time></trkpt><trkpt lat="42.2302531" lon="13.8592175"><ele>647.0</ele><time>2026-05-02T08:32:03.021Z</time></trkpt><trkpt lat="42.2301579" lon="13.8591505"><ele>649.5</ele><time>2026-05-02T08:32:05.021Z</time></trkpt><trkpt lat="42.2300898" lon="13.8590927"><ele>652.0</ele><time>2026-05-02T08:32:07.021Z</time></trkpt><trkpt lat="42.2300147" lon="13.8590516"><ele>654.5</ele><time>2026-05-02T08:32:09.021Z</time></trkpt><trkpt lat="42.2299477" lon="13.8590041"><ele>657.0</ele><time>2026-05-02T08:32:11.02Z</time></trkpt><trkpt lat="42.2298856" lon="13.8589464"><ele>659.5</ele><time>2026-05-02T08:32:14.021Z</time></trkpt><trkpt lat="42.2298057" lon="13.858935"><ele>662.0</ele><time>2026-05-02T08:32:17.021Z</time></trkpt><trkpt lat="42.2297053" lon="13.8589316"><ele>664.2</ele><time>2026-05-02T08:32:19.02Z</time></trkpt><trkpt lat="42.2296069" lon="13.8588954"><ele>666.4000000000001</ele><time>2026-05-02T08:32:21.021Z</time></trkpt><trkpt lat="42.2295119" lon="13.8588614"><ele>668.5999999999999</ele><time>2026-05-02T08:32:23.021Z</time></trkpt><trkpt lat="42.2294083" lon="13.8588095"><ele>670.8</ele><time>2026-05-02T08:32:25.021Z</time></trkpt><trkpt lat="42.2293335" lon="13.8587554"><ele>673.0</ele><time>2026-05-02T08:32:27.021Z</time></trkpt><trkpt lat="42.2292895" lon="13.8586818"><ele>673.0</ele><time>2026-05-02T08:32:29.021Z</time></trkpt><trkpt lat="42.2292357" lon="13.858596"><ele>673.0</ele><time>2026-05-02T08:32:31.021Z</time></trkpt><trkpt lat="42.2291914" lon="13.8584979"><ele>673.0</ele><time>2026-05-02T08:32:33.021Z</time></trkpt><trkpt lat="42.2291334" lon="13.858386"><ele>673.0</ele><time>2026-05-02T08:32:35.021Z</time></trkpt><trkpt lat="42.2290801" lon="13.8582895"><ele>673.0</ele><time>2026-05-02T08:32:37.021Z</time></trkpt><trkpt lat="42.2290078" lon="13.858151"><ele>676.0</ele><time>2026-05-02T08:32:39.02Z</time></trkpt><trkpt lat="42.2289645" lon="13.8580846"><ele>679.0</ele><time>2026-05-02T08:32:40.021Z</time></trkpt><trkpt lat="42.2289174" lon="13.8580146"><ele>682.0</ele><time>2026-05-02T08:32:41.021Z</time></trkpt><trkpt lat="42.2288599" lon="13.8579415"><ele>685.0</ele><time>2026-05-02T08:32:42.021Z</time></trkpt><trkpt lat="42.2288068" lon="13.857885"><ele>688.0</ele><time>2026-05-02T08:32:43.021Z</time></trkpt><trkpt lat="42.2287427" lon="13.8578282"><ele>691.0</ele><time>2026-05-02T08:32:44.02Z</time></trkpt><trkpt lat="42.2286749" lon="13.8577727"><ele>694.0</ele><time>2026-05-02T08:32:45.021Z</time></trkpt><trkpt lat="42.2286079" lon="13.8577167"><ele>694.0</ele><time>2026-05-02T08:32:46.021Z</time></trkpt><trkpt lat="42.2285489" lon="13.8576856"><ele>694.0</ele><time>2026-05-02T08:32:47.021Z</time></trkpt><trkpt lat="42.228439" lon="13.8576697"><ele>694.0</ele><time>2026-05-02T08:32:49.021Z</time></trkpt><trkpt lat="42.2283279" lon="13.8577403"><ele>694.0</ele><time>2026-05-02T08:32:51.021Z</time></trkpt><trkpt lat="42.2282271" lon="13.8577474"><ele>694.0</ele><time>2026-05-02T08:32:53.021Z</time></trkpt><trkpt lat="42.2281268" lon="13.8576847"><ele>702.25</ele><time>2026-05-02T08:32:55.021Z</time></trkpt><trkpt lat="42.2280199" lon="13.8576017"><ele>710.5</ele><time>2026-05-02T08:32:57.021Z</time></trkpt><trkpt lat="42.2279218" lon="13.8575231"><ele>718.75</ele><time>2026-05-02T08:32:59.021Z</time></trkpt><trkpt lat="42.2278368" lon="13.8574123"><ele>727.0</ele><time>2026-05-02T08:33:01.021Z</time></trkpt><trkpt lat="42.2277521" lon="13.8572956"><ele>727.0</ele><time>2026-05-02T08:33:03.021Z</time></trkpt><trkpt lat="42.2277101" lon="13.85723"><ele>727.0</ele><time>2026-05-02T08:33:04.021Z</time></trkpt><trkpt lat="42.2276591" lon="13.8571385"><ele>727.0</ele><time>2026-05-02T08:33:05.021Z</time></trkpt><trkpt lat="42.2276177" lon="13.8570292"><ele>727.0</ele><time>2026-05-02T08:33:06.021Z</time></trkpt><trkpt lat="42.2275897" lon="13.8569291"><ele>727.0</ele><time>2026-05-02T08:33:07.021Z</time></trkpt><trkpt lat="42.2275114" lon="13.856793"><ele>727.0</ele><time>2026-05-02T08:33:09.021Z</time></trkpt><trkpt lat="42.2274563" lon="13.8567507"><ele>727.7142857142857</ele><time>2026-05-02T08:33:10.021Z</time></trkpt><trkpt lat="42.2273799" lon="13.8567183"><ele>728.4285714285714</ele><time>2026-05-02T08:33:11.021Z</time></trkpt><trkpt lat="42.2273036" lon="13.8567121"><ele>729.1428571428571</ele><time>2026-05-02T08:33:12.021Z</time></trkpt><trkpt lat="42.2272227" lon="13.8567164"><ele>729.8571428571429</ele><time>2026-05-02T08:33:13.02Z</time></trkpt><trkpt lat="42.2271531" lon="13.8567261"><ele>730.5714285714287</ele><time>2026-05-02T08:33:14.021Z</time></trkpt><trkpt lat="42.2270906" lon="13.8567159"><ele>731.2857142857143</ele><time>2026-05-02T08:33:15.021Z</time></trkpt><trkpt lat="42.2270226" lon="13.8566861"><ele>732.0</ele><time>2026-05-02T08:33:16.021Z</time></trkpt><trkpt lat="42.2269554" lon="13.8566447"><ele>735.5</ele><time>2026-05-02T08:33:17.021Z</time></trkpt><trkpt lat="42.2268877" lon="13.8565948"><ele>739.0</ele><time>2026-05-02T08:33:18.021Z</time></trkpt><trkpt lat="42.2268104" lon="13.8565333"><ele>742.5</ele><time>2026-05-02T08:33:19.021Z</time></trkpt><trkpt lat="42.2267262" lon="13.8564596"><ele>746.0</ele><time>2026-05-02T08:33:20.021Z</time></trkpt><trkpt lat="42.2266576" lon="13.8563857"><ele>749.5</ele><time>2026-05-02T08:33:21.021Z</time></trkpt><trkpt lat="42.226616" lon="13.8563139"><ele>753.0</ele><time>2026-05-02T08:33:22.021Z</time></trkpt><trkpt lat="42.2265835" lon="13.8562296"><ele>753.0</ele><time>2026-05-02T08:33:23.021Z</time></trkpt><trkpt lat="42.2265462" lon="13.8561344"><ele>753.0</ele><time>2026-05-02T08:33:24.02Z</time></trkpt><trkpt lat="42.2265013" lon="13.856041"><ele>753.0</ele><time>2026-05-02T08:33:25.021Z</time></trkpt><trkpt lat="42.2264442" lon="13.8559493"><ele>753.0</ele><time>2026-05-02T08:33:26.02Z</time></trkpt><trkpt lat="42.2263795" lon="13.8558611"><ele>753.0</ele><time>2026-05-02T08:33:27.021Z</time></trkpt><trkpt lat="42.2263143" lon="13.8557783"><ele>753.0</ele><time>2026-05-02T08:33:28.021Z</time></trkpt><trkpt lat="42.2262634" lon="13.8557025"><ele>755.6666666666666</ele><time>2026-05-02T08:33:29.02Z</time></trkpt><trkpt lat="42.2262201" lon="13.8556319"><ele>758.3333333333333</ele><time>2026-05-02T08:33:30.021Z</time></trkpt><trkpt lat="42.2261714" lon="13.8555644"><ele>761.0</ele><time>2026-05-02T08:33:31.021Z</time></trkpt><trkpt lat="42.2261126" lon="13.8554982"><ele>763.6666666666666</ele><time>2026-05-02T08:33:32.02Z</time></trkpt><trkpt lat="42.2260449" lon="13.8554347"><ele>766.3333333333333</ele><time>2026-05-02T08:33:33.021Z</time></trkpt><trkpt lat="42.225975" lon="13.8553807"><ele>769.0</ele><time>2026-05-02T08:33:34.021Z</time></trkpt><trkpt lat="42.2259066" lon="13.8553407"><ele>768.9999999999999</ele><time>2026-05-02T08:33:35.02Z</time></trkpt><trkpt lat="42.2258336" lon="13.8553114"><ele>769.0</ele><time>2026-05-02T08:33:36.021Z</time></trkpt><trkpt lat="42.2257552" lon="13.8552912"><ele>769.0</ele><time>2026-05-02T08:33:37.021Z</time></trkpt><trkpt lat="42.2256799" lon="13.855275"><ele>769.0</ele><time>2026-05-02T08:33:38.021Z</time></trkpt><trkpt lat="42.2256126" lon="13.8552622"><ele>768.9999999999999</ele><time>2026-05-02T08:33:39.021Z</time></trkpt><trkpt lat="42.2254967" lon="13.8552366"><ele>769.0</ele><time>2026-05-02T08:33:41.021Z</time></trkpt><trkpt lat="42.225438" lon="13.8551801"><ele>771.0</ele><time>2026-05-02T08:33:43.02Z</time></trkpt><trkpt lat="42.2254005" lon="13.8550839"><ele>773.0</ele><time>2026-05-02T08:33:45.021Z</time></trkpt><trkpt lat="42.2253663" lon="13.8549904"><ele>775.0</ele><time>2026-05-02T08:33:47.021Z</time></trkpt><trkpt lat="42.2253344" lon="13.8549037"><ele>777.0</ele><time>2026-05-02T08:33:49.021Z</time></trkpt><trkpt lat="42.2253025" lon="13.8548214"><ele>779.0</ele><time>2026-05-02T08:33:51.021Z</time></trkpt><trkpt lat="42.2252723" lon="13.854729"><ele>781.0</ele><time>2026-05-02T08:33:54.021Z</time></trkpt><trkpt lat="42.2252405" lon="13.8546508"><ele>783.0</ele><time>2026-05-02T08:35:33.021Z</time></trkpt><trkpt lat="42.2252183" lon="13.8545697"><ele>783.0</ele><time>2026-05-02T08:35:55.021Z</time></trkpt><trkpt lat="42.2251873" lon="13.8544919"><ele>783.0</ele><time>2026-05-02T08:36:14.021Z</time></trkpt><trkpt lat="42.2251604" lon="13.8544055"><ele>783.0</ele><time>2026-05-02T08:37:49.021Z</time></trkpt><trkpt lat="42.2251211" lon="13.8543153"><ele>783.0</ele><time>2026-05-02T08:37:52.021Z</time></trkpt><trkpt lat="42.2250946" lon="13.8542215"><ele>783.0</ele><time>2026-05-02T08:37:54.021Z</time></trkpt><trkpt lat="42.2250519" lon="13.8540922"><ele>783.0</ele><time>2026-05-02T08:37:56.021Z</time></trkpt><trkpt lat="42.2250262" lon="13.8540034"><ele>784.0</ele><time>2026-05-02T08:44:38.025Z</time></trkpt><trkpt lat="42.2250164" lon="13.8538955"><ele>785.0</ele><time>2026-05-02T08:44:42.025Z</time></trkpt><trkpt lat="42.2250089" lon="13.8538104"><ele>786.0</ele><time>2026-05-02T08:44:44.025Z</time></trkpt><trkpt lat="42.2249934" lon="13.8537144"><ele>787.0</ele><time>2026-05-02T08:44:46.025Z</time></trkpt><trkpt lat="42.2249781" lon="13.8536214"><ele>788.0</ele><time>2026-05-02T08:44:48.025Z</time></trkpt><trkpt lat="42.2249807" lon="13.8535131"><ele>789.0</ele><time>2026-05-02T08:44:52.025Z</time></trkpt><trkpt lat="42.2249968" lon="13.8533856"><ele>789.1666666666666</ele><time>2026-05-02T08:44:55.025Z</time></trkpt><trkpt lat="42.2250256" lon="13.8532686"><ele>789.3333333333333</ele><time>2026-05-02T08:44:57.025Z</time></trkpt><trkpt lat="42.2250775" lon="13.8531097"><ele>789.5</ele><time>2026-05-02T08:44:59.025Z</time></trkpt><trkpt lat="42.2251131" lon="13.8530258"><ele>789.6666666666666</ele><time>2026-05-02T08:45:00.025Z</time></trkpt><trkpt lat="42.2251515" lon="13.8529422"><ele>789.8333333333333</ele><time>2026-05-02T08:45:01.024Z</time></trkpt><trkpt lat="42.2251929" lon="13.8528557"><ele>790.0</ele><time>2026-05-02T08:45:02.025Z</time></trkpt><trkpt lat="42.2252387" lon="13.8527677"><ele>789.9999999999999</ele><time>2026-05-02T08:45:03.025Z</time></trkpt><trkpt lat="42.225292" lon="13.8526848"><ele>790.0</ele><time>2026-05-02T08:45:04.025Z</time></trkpt><trkpt lat="42.2253519" lon="13.8526133"><ele>790.0</ele><time>2026-05-02T08:45:05.024Z</time></trkpt><trkpt lat="42.2254126" lon="13.852544"><ele>790.0</ele><time>2026-05-02T08:45:06.025Z</time></trkpt><trkpt lat="42.2254646" lon="13.8524673"><ele>789.9999999999999</ele><time>2026-05-02T08:45:07.025Z</time></trkpt><trkpt lat="42.2255027" lon="13.8523826"><ele>790.0</ele><time>2026-05-02T08:45:08.025Z</time></trkpt><trkpt lat="42.2255295" lon="13.8522943"><ele>790.3333333333333</ele><time>2026-05-02T08:45:09.024Z</time></trkpt><trkpt lat="42.2255551" lon="13.8522074"><ele>790.6666666666666</ele><time>2026-05-02T08:45:10.025Z</time></trkpt><trkpt lat="42.2255736" lon="13.852115"><ele>791.0</ele><time>2026-05-02T08:45:11.025Z</time></trkpt><trkpt lat="42.2255871" lon="13.8520092"><ele>791.3333333333333</ele><time>2026-05-02T08:45:12.024Z</time></trkpt><trkpt lat="42.2255951" lon="13.8519042"><ele>791.6666666666666</ele><time>2026-05-02T08:45:13.025Z</time></trkpt><trkpt lat="42.2256041" lon="13.8518013"><ele>792.0</ele><time>2026-05-02T08:45:14.025Z</time></trkpt><trkpt lat="42.2256158" lon="13.8516908"><ele>794.1666666666666</ele><time>2026-05-02T08:45:15.025Z</time></trkpt><trkpt lat="42.2256259" lon="13.8515842"><ele>796.3333333333333</ele><time>2026-05-02T08:45:16.025Z</time></trkpt><trkpt lat="42.2256339" lon="13.8514809"><ele>798.5</ele><time>2026-05-02T08:45:17.025Z</time></trkpt><trkpt lat="42.225642" lon="13.8513818"><ele>800.6666666666666</ele><time>2026-05-02T08:45:18.025Z</time></trkpt><trkpt lat="42.2256483" lon="13.8512853"><ele>802.8333333333333</ele><time>2026-05-02T08:45:19.025Z</time></trkpt><trkpt lat="42.2256497" lon="13.851186"><ele>805.0</ele><time>2026-05-02T08:45:20.025Z</time></trkpt><trkpt lat="42.2256512" lon="13.8510847"><ele>806.4999999999999</ele><time>2026-05-02T08:45:21.025Z</time></trkpt><trkpt lat="42.2256496" lon="13.8509791"><ele>808.0</ele><time>2026-05-02T08:45:22.025Z</time></trkpt><trkpt lat="42.2256411" lon="13.8508748"><ele>809.5</ele><time>2026-05-02T08:45:23.025Z</time></trkpt><trkpt lat="42.2256301" lon="13.8507675"><ele>811.0</ele><time>2026-05-02T08:45:24.024Z</time></trkpt><trkpt lat="42.2256184" lon="13.8506567"><ele>812.4999999999999</ele><time>2026-05-02T08:45:25.025Z</time></trkpt><trkpt lat="42.2256065" lon="13.850552"><ele>814.0</ele><time>2026-05-02T08:45:26.025Z</time></trkpt><trkpt lat="42.2255971" lon="13.8504464"><ele>815.1666666666666</ele><time>2026-05-02T08:45:27.025Z</time></trkpt><trkpt lat="42.225587" lon="13.850337"><ele>816.3333333333333</ele><time>2026-05-02T08:45:28.025Z</time></trkpt><trkpt lat="42.2255785" lon="13.8502228"><ele>817.5</ele><time>2026-05-02T08:45:29.025Z</time></trkpt><trkpt lat="42.2255679" lon="13.8501149"><ele>818.6666666666667</ele><time>2026-05-02T08:45:30.025Z</time></trkpt><trkpt lat="42.2255616" lon="13.850012"><ele>819.8333333333334</ele><time>2026-05-02T08:45:31.025Z</time></trkpt><trkpt lat="42.2255508" lon="13.8499213"><ele>821.0</ele><time>2026-05-02T08:45:32.025Z</time></trkpt><trkpt lat="42.2255343" lon="13.8498309"><ele>824.4</ele><time>2026-05-02T08:45:33.025Z</time></trkpt><trkpt lat="42.2255134" lon="13.84974"><ele>827.8</ele><time>2026-05-02T08:45:34.025Z</time></trkpt><trkpt lat="42.2254952" lon="13.8496537"><ele>831.1999999999999</ele><time>2026-05-02T08:45:35.025Z</time></trkpt><trkpt lat="42.2254854" lon="13.8495102"><ele>834.5999999999999</ele><time>2026-05-02T08:45:37.025Z</time></trkpt><trkpt lat="42.2255331" lon="13.849394"><ele>838.0</ele><time>2026-05-02T08:45:39.025Z</time></trkpt><trkpt lat="42.2256305" lon="13.8493281"><ele>840.1666666666666</ele><time>2026-05-02T08:45:41.025Z</time></trkpt><trkpt lat="42.225755" lon="13.8492986"><ele>842.3333333333333</ele><time>2026-05-02T08:45:43.025Z</time></trkpt><trkpt lat="42.2258262" lon="13.8492776"><ele>844.5</ele><time>2026-05-02T08:45:44.024Z</time></trkpt><trkpt lat="42.2258897" lon="13.8492429"><ele>846.6666666666667</ele><time>2026-05-02T08:45:45.024Z</time></trkpt><trkpt lat="42.2259579" lon="13.849208"><ele>848.8333333333334</ele><time>2026-05-02T08:45:46.025Z</time></trkpt><trkpt lat="42.2260369" lon="13.8491786"><ele>851.0</ele><time>2026-05-02T08:45:47.025Z</time></trkpt><trkpt lat="42.2261192" lon="13.8491443"><ele>854.1666666666667</ele><time>2026-05-02T08:45:48.025Z</time></trkpt><trkpt lat="42.2262028" lon="13.8491289"><ele>857.3333333333334</ele><time>2026-05-02T08:45:49.024Z</time></trkpt><trkpt lat="42.2262838" lon="13.8491132"><ele>860.5</ele><time>2026-05-02T08:45:50.025Z</time></trkpt><trkpt lat="42.2263463" lon="13.8491009"><ele>863.6666666666667</ele><time>2026-05-02T08:45:51.025Z</time></trkpt><trkpt lat="42.2264334" lon="13.84909"><ele>866.8333333333334</ele><time>2026-05-02T08:45:53.024Z</time></trkpt><trkpt lat="42.2265176" lon="13.8490563"><ele>870.0</ele><time>2026-05-02T08:46:12.025Z</time></trkpt><trkpt lat="42.2266042" lon="13.8490341"><ele>870.0</ele><time>2026-05-02T08:46:14.024Z</time></trkpt><trkpt lat="42.226722" lon="13.8490182"><ele>870.0</ele><time>2026-05-02T08:46:16.025Z</time></trkpt><trkpt lat="42.2267937" lon="13.8490045"><ele>870.0</ele><time>2026-05-02T08:46:17.025Z</time></trkpt><trkpt lat="42.2268677" lon="13.8489914"><ele>870.0</ele><time>2026-05-02T08:46:18.025Z</time></trkpt><trkpt lat="42.2269533" lon="13.8489681"><ele>870.0</ele><time>2026-05-02T08:46:19.025Z</time></trkpt><trkpt lat="42.227032" lon="13.8489544"><ele>870.0</ele><time>2026-05-02T08:46:20.025Z</time></trkpt><trkpt lat="42.2271136" lon="13.8489398"><ele>870.0</ele><time>2026-05-02T08:46:21.024Z</time></trkpt><trkpt lat="42.2271837" lon="13.8489086"><ele>870.0</ele><time>2026-05-02T08:46:22.025Z</time></trkpt><trkpt lat="42.2272601" lon="13.8488838"><ele>870.0</ele><time>2026-05-02T08:46:23.025Z</time></trkpt><trkpt lat="42.2273994" lon="13.848849"><ele>870.0</ele><time>2026-05-02T08:46:25.024Z</time></trkpt><trkpt lat="42.2274784" lon="13.8488258"><ele>870.0</ele><time>2026-05-02T08:46:26.025Z</time></trkpt><trkpt lat="42.2275534" lon="13.8488281"><ele>868.2</ele><time>2026-05-02T08:46:27.025Z</time></trkpt><trkpt lat="42.2276334" lon="13.8488238"><ele>866.4</ele><time>2026-05-02T08:46:28.025Z</time></trkpt><trkpt lat="42.2277146" lon="13.8488512"><ele>864.5999999999999</ele><time>2026-05-02T08:46:29.025Z</time></trkpt><trkpt lat="42.2278048" lon="13.8488657"><ele>862.8</ele><time>2026-05-02T08:46:30.025Z</time></trkpt><trkpt lat="42.2278821" lon="13.8488813"><ele>861.0</ele><time>2026-05-02T08:46:31.025Z</time></trkpt><trkpt lat="42.2280098" lon="13.8489412"><ele>863.0</ele><time>2026-05-02T08:46:33.025Z</time></trkpt><trkpt lat="42.2281477" lon="13.8489342"><ele>864.9999999999999</ele><time>2026-05-02T08:46:34.024Z</time></trkpt><trkpt lat="42.228226" lon="13.8489602"><ele>866.9999999999999</ele><time>2026-05-02T08:46:35.025Z</time></trkpt><trkpt lat="42.2282982" lon="13.8489756"><ele>869.0</ele><time>2026-05-02T08:46:36.025Z</time></trkpt><trkpt lat="42.2283786" lon="13.8489694"><ele>871.0</ele><time>2026-05-02T08:46:37.024Z</time></trkpt><trkpt lat="42.2285025" lon="13.848955"><ele>870.9999999999999</ele><time>2026-05-02T08:46:39.025Z</time></trkpt><trkpt lat="42.2285788" lon="13.8489078"><ele>871.0</ele><time>2026-05-02T08:46:40.025Z</time></trkpt><trkpt lat="42.2286545" lon="13.8488877"><ele>871.0</ele><time>2026-05-02T08:46:41.025Z</time></trkpt><trkpt lat="42.2287452" lon="13.8489005"><ele>871.0</ele><time>2026-05-02T08:46:42.024Z</time></trkpt><trkpt lat="42.2288267" lon="13.8489214"><ele>870.9999999999999</ele><time>2026-05-02T08:46:43.025Z</time></trkpt><trkpt lat="42.2289134" lon="13.848961"><ele>871.0</ele><time>2026-05-02T08:46:44.025Z</time></trkpt><trkpt lat="42.228997" lon="13.8489958"><ele>872.8333333333333</ele><time>2026-05-02T08:46:45.025Z</time></trkpt><trkpt lat="42.2290948" lon="13.8490569"><ele>874.6666666666666</ele><time>2026-05-02T08:46:46.024Z</time></trkpt><trkpt lat="42.22918" lon="13.8491059"><ele>876.5</ele><time>2026-05-02T08:46:47.025Z</time></trkpt><trkpt lat="42.2292543" lon="13.8491646"><ele>878.3333333333333</ele><time>2026-05-02T08:46:48.024Z</time></trkpt><trkpt lat="42.2293237" lon="13.8492273"><ele>880.1666666666666</ele><time>2026-05-02T08:46:49.025Z</time></trkpt><trkpt lat="42.22939" lon="13.8492833"><ele>882.0</ele><time>2026-05-02T08:46:50.025Z</time></trkpt><trkpt lat="42.2294565" lon="13.8493203"><ele>882.0</ele><time>2026-05-02T08:46:51.025Z</time></trkpt><trkpt lat="42.2295237" lon="13.8493238"><ele>882.0</ele><time>2026-05-02T08:46:52.024Z</time></trkpt><trkpt lat="42.2296487" lon="13.8492725"><ele>882.0</ele><time>2026-05-02T08:46:54.025Z</time></trkpt><trkpt lat="42.2297175" lon="13.8492361"><ele>882.0</ele><time>2026-05-02T08:46:55.025Z</time></trkpt><trkpt lat="42.2297936" lon="13.8491962"><ele>882.0</ele><time>2026-05-02T08:46:56.025Z</time></trkpt><trkpt lat="42.2298672" lon="13.8491569"><ele>882.0</ele><time>2026-05-02T08:46:57.025Z</time></trkpt><trkpt lat="42.2299571" lon="13.8491065"><ele>882.8</ele><time>2026-05-02T08:46:58.025Z</time></trkpt><trkpt lat="42.2300522" lon="13.8490407"><ele>883.6</ele><time>2026-05-02T08:46:59.024Z</time></trkpt><trkpt lat="42.230134" lon="13.8489953"><ele>884.3999999999999</ele><time>2026-05-02T08:47:00.025Z</time></trkpt><trkpt lat="42.2302244" lon="13.8489412"><ele>885.1999999999999</ele><time>2026-05-02T08:47:01.025Z</time></trkpt><trkpt lat="42.230314" lon="13.8489031"><ele>886.0</ele><time>2026-05-02T08:47:02.024Z</time></trkpt><trkpt lat="42.2304253" lon="13.8488616"><ele>886.0</ele><time>2026-05-02T08:47:03.025Z</time></trkpt><trkpt lat="42.2305156" lon="13.8488182"><ele>885.9999999999999</ele><time>2026-05-02T08:47:04.025Z</time></trkpt><trkpt lat="42.2306099" lon="13.848775"><ele>885.9999999999999</ele><time>2026-05-02T08:47:05.024Z</time></trkpt><trkpt lat="42.2306985" lon="13.8487462"><ele>886.0</ele><time>2026-05-02T08:47:06.024Z</time></trkpt><trkpt lat="42.2308011" lon="13.8486978"><ele>886.0</ele><time>2026-05-02T08:47:07.024Z</time></trkpt><trkpt lat="42.2308811" lon="13.848666"><ele>886.0</ele><time>2026-05-02T08:47:08.025Z</time></trkpt><trkpt lat="42.2309825" lon="13.8486272"><ele>885.9999999999999</ele><time>2026-05-02T08:47:09.025Z</time></trkpt><trkpt lat="42.2310715" lon="13.8485928"><ele>885.9999999999999</ele><time>2026-05-02T08:47:10.025Z</time></trkpt><trkpt lat="42.2311602" lon="13.8485516"><ele>886.0</ele><time>2026-05-02T08:47:11.025Z</time></trkpt><trkpt lat="42.2312438" lon="13.848512"><ele>886.0</ele><time>2026-05-02T08:47:12.025Z</time></trkpt><trkpt lat="42.2313361" lon="13.8484581"><ele>890.0</ele><time>2026-05-02T08:47:13.024Z</time></trkpt><trkpt lat="42.2314311" lon="13.8484273"><ele>893.9999999999999</ele><time>2026-05-02T08:47:14.025Z</time></trkpt><trkpt lat="42.2315329" lon="13.8483942"><ele>897.9999999999999</ele><time>2026-05-02T08:47:15.025Z</time></trkpt><trkpt lat="42.2316364" lon="13.8483728"><ele>902.0</ele><time>2026-05-02T08:47:16.024Z</time></trkpt><trkpt lat="42.2317372" lon="13.8483617"><ele>906.0</ele><time>2026-05-02T08:47:17.025Z</time></trkpt><trkpt lat="42.2318194" lon="13.8483434"><ele>906.0</ele><time>2026-05-02T08:47:18.025Z</time></trkpt><trkpt lat="42.2318969" lon="13.848329"><ele>905.9999999999999</ele><time>2026-05-02T08:47:19.025Z</time></trkpt><trkpt lat="42.2319956" lon="13.8483032"><ele>905.9999999999999</ele><time>2026-05-02T08:47:21.024Z</time></trkpt><trkpt lat="42.2320816" lon="13.848221"><ele>906.0</ele><time>2026-05-02T08:47:23.025Z</time></trkpt><trkpt lat="42.2321715" lon="13.8481142"><ele>906.0</ele><time>2026-05-02T08:47:25.025Z</time></trkpt><trkpt lat="42.2322874" lon="13.8480451"><ele>905.8333333333334</ele><time>2026-05-02T08:47:27.025Z</time></trkpt><trkpt lat="42.2324019" lon="13.8480326"><ele>905.6666666666667</ele><time>2026-05-02T08:47:29.025Z</time></trkpt><trkpt lat="42.2324661" lon="13.8480335"><ele>905.5</ele><time>2026-05-02T08:47:30.025Z</time></trkpt><trkpt lat="42.2325454" lon="13.848035"><ele>905.3333333333334</ele><time>2026-05-02T08:47:32.024Z</time></trkpt><trkpt lat="42.2325335" lon="13.8479367"><ele>905.1666666666667</ele><time>2026-05-02T08:47:39.024Z</time></trkpt><trkpt lat="42.2324374" lon="13.8478495"><ele>905.0</ele><time>2026-05-02T08:47:41.025Z</time></trkpt><trkpt lat="42.2323776" lon="13.8477942"><ele>905.1666666666667</ele><time>2026-05-02T08:47:42.025Z</time></trkpt><trkpt lat="42.2323061" lon="13.8477382"><ele>905.3333333333334</ele><time>2026-05-02T08:47:43.025Z</time></trkpt><trkpt lat="42.2322296" lon="13.8476876"><ele>905.5</ele><time>2026-05-02T08:47:44.025Z</time></trkpt><trkpt lat="42.2321732" lon="13.847637"><ele>905.6666666666667</ele><time>2026-05-02T08:47:45.025Z</time></trkpt><trkpt lat="42.2320662" lon="13.8475413"><ele>905.8333333333334</ele><time>2026-05-02T08:47:47.025Z</time></trkpt><trkpt lat="42.2320063" lon="13.8474893"><ele>906.0</ele><time>2026-05-02T08:47:48.025Z</time></trkpt><trkpt lat="42.2319424" lon="13.8474367"><ele>910.1666666666666</ele><time>2026-05-02T08:47:49.024Z</time></trkpt><trkpt lat="42.2318742" lon="13.8473799"><ele>914.3333333333333</ele><time>2026-05-02T08:47:50.025Z</time></trkpt><trkpt lat="42.231798" lon="13.8473274"><ele>918.5</ele><time>2026-05-02T08:47:51.025Z</time></trkpt><trkpt lat="42.2317237" lon="13.8472905"><ele>922.6666666666666</ele><time>2026-05-02T08:47:52.025Z</time></trkpt><trkpt lat="42.2316459" lon="13.8472614"><ele>926.8333333333333</ele><time>2026-05-02T08:47:53.025Z</time></trkpt><trkpt lat="42.2315694" lon="13.8472835"><ele>931.0</ele><time>2026-05-02T08:47:54.025Z</time></trkpt><trkpt lat="42.2314917" lon="13.8472596"><ele>930.9999999999999</ele><time>2026-05-02T08:47:55.025Z</time></trkpt><trkpt lat="42.2314227" lon="13.8472308"><ele>931.0</ele><time>2026-05-02T08:47:56.025Z</time></trkpt><trkpt lat="42.2313522" lon="13.8471894"><ele>931.0</ele><time>2026-05-02T08:47:57.024Z</time></trkpt><trkpt lat="42.2312894" lon="13.8471428"><ele>931.0</ele><time>2026-05-02T08:47:58.025Z</time></trkpt><trkpt lat="42.2312222" lon="13.8470763"><ele>930.9999999999999</ele><time>2026-05-02T08:48:00.025Z</time></trkpt><trkpt lat="42.2311489" lon="13.8470252"><ele>931.0</ele><time>2026-05-02T08:48:02.025Z</time></trkpt><trkpt lat="42.2310824" lon="13.8469743"><ele>930.9999999999999</ele><time>2026-05-02T08:48:03.025Z</time></trkpt><trkpt lat="42.2309594" lon="13.8469452"><ele>931.0</ele><time>2026-05-02T08:48:05.025Z</time></trkpt><trkpt lat="42.2308958" lon="13.8469452"><ele>931.0</ele><time>2026-05-02T08:48:06.025Z</time></trkpt><trkpt lat="42.2307807" lon="13.8469871"><ele>931.0</ele><time>2026-05-02T08:48:08.025Z</time></trkpt><trkpt lat="42.2307185" lon="13.8470037"><ele>930.9999999999999</ele><time>2026-05-02T08:48:10.024Z</time></trkpt><trkpt lat="42.2306561" lon="13.8470413"><ele>931.0</ele><time>2026-05-02T08:48:38.025Z</time></trkpt><trkpt lat="42.2305908" lon="13.8470734"><ele>931.4999999999999</ele><time>2026-05-02T08:49:41.025Z</time></trkpt><trkpt lat="42.2305077" lon="13.8470899"><ele>932.0</ele><time>2026-05-02T08:49:43.025Z</time></trkpt><trkpt lat="42.2304006" lon="13.8471154"><ele>932.5</ele><time>2026-05-02T08:49:45.025Z</time></trkpt><trkpt lat="42.2303327" lon="13.8471387"><ele>933.0</ele><time>2026-05-02T08:49:46.024Z</time></trkpt><trkpt lat="42.2302597" lon="13.8471685"><ele>933.4999999999999</ele><time>2026-05-02T08:49:47.025Z</time></trkpt><trkpt lat="42.2301727" lon="13.8472001"><ele>934.0</ele><time>2026-05-02T08:49:48.025Z</time></trkpt><trkpt lat="42.2300807" lon="13.8472327"><ele>934.0</ele><time>2026-05-02T08:49:49.025Z</time></trkpt><trkpt lat="42.229984" lon="13.8472754"><ele>934.0000000000001</ele><time>2026-05-02T08:49:50.025Z</time></trkpt><trkpt lat="42.2298862" lon="13.8473211"><ele>934.0000000000001</ele><time>2026-05-02T08:49:51.025Z</time></trkpt><trkpt lat="42.2297887" lon="13.8473642"><ele>934.0</ele><time>2026-05-02T08:49:52.025Z</time></trkpt><trkpt lat="42.2296847" lon="13.847414"><ele>934.0</ele><time>2026-05-02T08:49:53.025Z</time></trkpt><trkpt lat="42.2295785" lon="13.847461"><ele>935.2</ele><time>2026-05-02T08:49:54.025Z</time></trkpt><trkpt lat="42.2294726" lon="13.8475082"><ele>936.4000000000001</ele><time>2026-05-02T08:49:55.025Z</time></trkpt><trkpt lat="42.2293663" lon="13.8475521"><ele>937.6</ele><time>2026-05-02T08:49:56.024Z</time></trkpt><trkpt lat="42.2292615" lon="13.8475834"><ele>938.8</ele><time>2026-05-02T08:49:57.025Z</time></trkpt><trkpt lat="42.2291579" lon="13.8476009"><ele>940.0</ele><time>2026-05-02T08:49:58.025Z</time></trkpt><trkpt lat="42.2290504" lon="13.8476222"><ele>933.2</ele><time>2026-05-02T08:49:59.025Z</time></trkpt><trkpt lat="42.2289412" lon="13.8476437"><ele>926.4</ele><time>2026-05-02T08:50:00.025Z</time></trkpt><trkpt lat="42.2288383" lon="13.847671"><ele>919.5999999999999</ele><time>2026-05-02T08:50:01.025Z</time></trkpt><trkpt lat="42.2287354" lon="13.8477016"><ele>912.8</ele><time>2026-05-02T08:50:02.024Z</time></trkpt><trkpt lat="42.2286358" lon="13.8477336"><ele>906.0</ele><time>2026-05-02T08:50:03.024Z</time></trkpt><trkpt lat="42.2285336" lon="13.8477569"><ele>906.0</ele><time>2026-05-02T08:50:04.025Z</time></trkpt><trkpt lat="42.2284299" lon="13.847771"><ele>905.9999999999999</ele><time>2026-05-02T08:50:05.025Z</time></trkpt><trkpt lat="42.2283255" lon="13.8477873"><ele>905.9999999999999</ele><time>2026-05-02T08:50:06.025Z</time></trkpt><trkpt lat="42.2282188" lon="13.8478005"><ele>906.0</ele><time>2026-05-02T08:50:07.024Z</time></trkpt><trkpt lat="42.2281138" lon="13.8478112"><ele>906.0</ele><time>2026-05-02T08:50:08.025Z</time></trkpt><trkpt lat="42.2280105" lon="13.8478145"><ele>904.8</ele><time>2026-05-02T08:50:09.025Z</time></trkpt><trkpt lat="42.2279164" lon="13.8478224"><ele>903.5999999999999</ele><time>2026-05-02T08:50:10.025Z</time></trkpt><trkpt lat="42.2278169" lon="13.8478292"><ele>902.4</ele><time>2026-05-02T08:50:11.025Z</time></trkpt><trkpt lat="42.2277235" lon="13.8478097"><ele>901.2</ele><time>2026-05-02T08:50:12.024Z</time></trkpt><trkpt lat="42.2276176" lon="13.8477946"><ele>900.0</ele><time>2026-05-02T08:50:13.025Z</time></trkpt><trkpt lat="42.2275051" lon="13.8477934"><ele>900.0</ele><time>2026-05-02T08:50:14.025Z</time></trkpt><trkpt lat="42.2273852" lon="13.8477863"><ele>900.0</ele><time>2026-05-02T08:50:15.024Z</time></trkpt><trkpt lat="42.22727" lon="13.8477907"><ele>900.0</ele><time>2026-05-02T08:50:16.024Z</time></trkpt><trkpt lat="42.2271419" lon="13.8477911"><ele>900.0</ele><time>2026-05-02T08:50:17.025Z</time></trkpt><trkpt lat="42.2270074" lon="13.8477759"><ele>900.75</ele><time>2026-05-02T08:50:18.025Z</time></trkpt><trkpt lat="42.2268797" lon="13.8477918"><ele>901.5</ele><time>2026-05-02T08:50:19.025Z</time></trkpt><trkpt lat="42.226745" lon="13.8478044"><ele>902.25</ele><time>2026-05-02T08:50:20.025Z</time></trkpt><trkpt lat="42.2266053" lon="13.8478132"><ele>903.0</ele><time>2026-05-02T08:50:21.025Z</time></trkpt><trkpt lat="42.2264706" lon="13.8478068"><ele>903.5</ele><time>2026-05-02T08:50:22.024Z</time></trkpt><trkpt lat="42.2263296" lon="13.8478087"><ele>904.0</ele><time>2026-05-02T08:50:23.024Z</time></trkpt><trkpt lat="42.2261884" lon="13.8478093"><ele>904.5</ele><time>2026-05-02T08:50:24.025Z</time></trkpt><trkpt lat="42.2260598" lon="13.8478073"><ele>905.0</ele><time>2026-05-02T08:50:25.025Z</time></trkpt><trkpt lat="42.2259424" lon="13.84781"><ele>905.0</ele><time>2026-05-02T08:50:26.025Z</time></trkpt><trkpt lat="42.2258305" lon="13.8478084"><ele>905.0</ele><time>2026-05-02T08:50:27.025Z</time></trkpt><trkpt lat="42.2257253" lon="13.8477892"><ele>905.0</ele><time>2026-05-02T08:50:28.025Z</time></trkpt><trkpt lat="42.2256251" lon="13.8477622"><ele>905.0</ele><time>2026-05-02T08:50:29.025Z</time></trkpt><trkpt lat="42.2255298" lon="13.8477287"><ele>905.0</ele><time>2026-05-02T08:50:30.025Z</time></trkpt><trkpt lat="42.2254419" lon="13.8476835"><ele>908.0</ele><time>2026-05-02T08:50:31.025Z</time></trkpt><trkpt lat="42.2253541" lon="13.8476213"><ele>911.0</ele><time>2026-05-02T08:50:32.025Z</time></trkpt><trkpt lat="42.2252599" lon="13.847566"><ele>914.0</ele><time>2026-05-02T08:50:33.025Z</time></trkpt><trkpt lat="42.2251588" lon="13.8475172"><ele>917.0</ele><time>2026-05-02T08:50:34.025Z</time></trkpt><trkpt lat="42.2250539" lon="13.847474"><ele>920.0</ele><time>2026-05-02T08:50:35.024Z</time></trkpt><trkpt lat="42.2249493" lon="13.8474295"><ele>920.0</ele><time>2026-05-02T08:50:36.025Z</time></trkpt><trkpt lat="42.2248524" lon="13.8473846"><ele>920.0</ele><time>2026-05-02T08:50:37.025Z</time></trkpt><trkpt lat="42.2247704" lon="13.8473372"><ele>920.0</ele><time>2026-05-02T08:50:38.025Z</time></trkpt><trkpt lat="42.2247106" lon="13.8472877"><ele>920.0</ele><time>2026-05-02T08:50:39.025Z</time></trkpt><trkpt lat="42.2246478" lon="13.8471481"><ele>920.0</ele><time>2026-05-02T08:50:41.025Z</time></trkpt><trkpt lat="42.224633" lon="13.8470563"><ele>920.0000000000001</ele><time>2026-05-02T08:50:42.025Z</time></trkpt><trkpt lat="42.2246271" lon="13.8469575"><ele>920.0</ele><time>2026-05-02T08:50:43.025Z</time></trkpt><trkpt lat="42.2246331" lon="13.8468579"><ele>920.0</ele><time>2026-05-02T08:50:44.025Z</time></trkpt><trkpt lat="42.224656" lon="13.8467558"><ele>920.0</ele><time>2026-05-02T08:50:45.025Z</time></trkpt><trkpt lat="42.2247083" lon="13.8466679"><ele>920.0000000000001</ele><time>2026-05-02T08:50:46.025Z</time></trkpt><trkpt lat="42.2247645" lon="13.8465821"><ele>920.0</ele><time>2026-05-02T08:50:47.025Z</time></trkpt><trkpt lat="42.2248302" lon="13.8464886"><ele>923.4</ele><time>2026-05-02T08:50:48.025Z</time></trkpt><trkpt lat="42.2248984" lon="13.8463891"><ele>926.8</ele><time>2026-05-02T08:50:49.025Z</time></trkpt><trkpt lat="42.224969" lon="13.8462857"><ele>930.2</ele><time>2026-05-02T08:50:50.025Z</time></trkpt><trkpt lat="42.2250482" lon="13.8461905"><ele>933.6</ele><time>2026-05-02T08:50:51.025Z</time></trkpt><trkpt lat="42.2251316" lon="13.846103"><ele>937.0</ele><time>2026-05-02T08:50:52.025Z</time></trkpt><trkpt lat="42.2252241" lon="13.8460245"><ele>939.75</ele><time>2026-05-02T08:50:53.025Z</time></trkpt><trkpt lat="42.2253211" lon="13.8459562"><ele>942.5</ele><time>2026-05-02T08:50:54.025Z</time></trkpt><trkpt lat="42.225423" lon="13.8458853"><ele>945.25</ele><time>2026-05-02T08:50:55.025Z</time></trkpt><trkpt lat="42.225524" lon="13.8458081"><ele>948.0</ele><time>2026-05-02T08:50:56.024Z</time></trkpt><trkpt lat="42.2256361" lon="13.8457327"><ele>948.5</ele><time>2026-05-02T08:50:57.025Z</time></trkpt><trkpt lat="42.2257522" lon="13.8456555"><ele>949.0</ele><time>2026-05-02T08:50:58.025Z</time></trkpt><trkpt lat="42.2258621" lon="13.8455814"><ele>949.5</ele><time>2026-05-02T08:50:59.025Z</time></trkpt><trkpt lat="42.2259628" lon="13.8454943"><ele>950.0</ele><time>2026-05-02T08:51:00.025Z</time></trkpt><trkpt lat="42.2260682" lon="13.8453973"><ele>950.0</ele><time>2026-05-02T08:51:01.024Z</time></trkpt><trkpt lat="42.2261708" lon="13.8452944"><ele>950.0</ele><time>2026-05-02T08:51:02.025Z</time></trkpt><trkpt lat="42.2262793" lon="13.8451831"><ele>950.0</ele><time>2026-05-02T08:51:03.025Z</time></trkpt><trkpt lat="42.2263909" lon="13.8450761"><ele>950.0</ele><time>2026-05-02T08:51:04.025Z</time></trkpt><trkpt lat="42.2265013" lon="13.8449668"><ele>953.5</ele><time>2026-05-02T08:51:05.024Z</time></trkpt><trkpt lat="42.2266095" lon="13.8448622"><ele>957.0</ele><time>2026-05-02T08:51:06.025Z</time></trkpt><trkpt lat="42.2267206" lon="13.8447643"><ele>960.5</ele><time>2026-05-02T08:51:07.025Z</time></trkpt><trkpt lat="42.2268352" lon="13.844673"><ele>964.0</ele><time>2026-05-02T08:51:08.025Z</time></trkpt><trkpt lat="42.226951" lon="13.8445803"><ele>964.0</ele><time>2026-05-02T08:51:09.025Z</time></trkpt><trkpt lat="42.227069" lon="13.8444879"><ele>964.0</ele><time>2026-05-02T08:51:10.025Z</time></trkpt><trkpt lat="42.2271835" lon="13.8443969"><ele>964.0</ele><time>2026-05-02T08:51:11.025Z</time></trkpt><trkpt lat="42.227282" lon="13.8443191"><ele>964.0</ele><time>2026-05-02T08:51:12.025Z</time></trkpt><trkpt lat="42.2273659" lon="13.8442578"><ele>966.4999999999999</ele><time>2026-05-02T08:51:13.025Z</time></trkpt><trkpt lat="42.2274373" lon="13.8442067"><ele>969.0</ele><time>2026-05-02T08:51:14.025Z</time></trkpt><trkpt lat="42.227498" lon="13.8441634"><ele>971.5</ele><time>2026-05-02T08:51:15.025Z</time></trkpt><trkpt lat="42.2275543" lon="13.8441209"><ele>974.0</ele><time>2026-05-02T08:51:16.025Z</time></trkpt><trkpt lat="42.2276336" lon="13.8440192"><ele>976.4999999999999</ele><time>2026-05-02T08:51:18.025Z</time></trkpt><trkpt lat="42.2276626" lon="13.8438938"><ele>979.0</ele><time>2026-05-02T08:51:20.025Z</time></trkpt><trkpt lat="42.2276105" lon="13.8437924"><ele>978.9999999999999</ele><time>2026-05-02T08:51:22.025Z</time></trkpt><trkpt lat="42.2275188" lon="13.8437434"><ele>979.0</ele><time>2026-05-02T08:51:24.025Z</time></trkpt><trkpt lat="42.2274543" lon="13.84375"><ele>979.0</ele><time>2026-05-02T08:51:25.025Z</time></trkpt><trkpt lat="42.2273863" lon="13.8437656"><ele>979.0</ele><time>2026-05-02T08:51:26.025Z</time></trkpt><trkpt lat="42.2273182" lon="13.8437881"><ele>978.9999999999999</ele><time>2026-05-02T08:51:27.025Z</time></trkpt><trkpt lat="42.2272459" lon="13.8438031"><ele>979.0</ele><time>2026-05-02T08:51:28.024Z</time></trkpt><trkpt lat="42.2271684" lon="13.8438119"><ele>979.9999999999999</ele><time>2026-05-02T08:51:29.025Z</time></trkpt><trkpt lat="42.2270806" lon="13.8438133"><ele>981.0</ele><time>2026-05-02T08:51:30.025Z</time></trkpt><trkpt lat="42.2269881" lon="13.8438124"><ele>982.0</ele><time>2026-05-02T08:51:31.025Z</time></trkpt><trkpt lat="42.2269002" lon="13.8438096"><ele>983.0</ele><time>2026-05-02T08:51:32.024Z</time></trkpt><trkpt lat="42.2268275" lon="13.8438099"><ele>983.9999999999999</ele><time>2026-05-02T08:51:33.025Z</time></trkpt><trkpt lat="42.2267644" lon="13.8438025"><ele>985.0</ele><time>2026-05-02T08:51:34.025Z</time></trkpt><trkpt lat="42.2266741" lon="13.8437949"><ele>984.9999999999999</ele><time>2026-05-02T08:51:36.025Z</time></trkpt><trkpt lat="42.2266144" lon="13.8437456"><ele>985.0</ele><time>2026-05-02T08:51:39.025Z</time></trkpt><trkpt lat="42.2265924" lon="13.8438328"><ele>985.0</ele><time>2026-05-02T08:52:26.025Z</time></trkpt><trkpt lat="42.2265253" lon="13.8439025"><ele>985.0</ele><time>2026-05-02T08:52:28.025Z</time></trkpt><trkpt lat="42.2264069" lon="13.8439512"><ele>984.9999999999999</ele><time>2026-05-02T08:52:30.025Z</time></trkpt><trkpt lat="42.2263354" lon="13.8439833"><ele>985.0</ele><time>2026-05-02T08:52:31.025Z</time></trkpt><trkpt lat="42.2262538" lon="13.8440219"><ele>986.0</ele><time>2026-05-02T08:52:32.025Z</time></trkpt><trkpt lat="42.2261625" lon="13.8440606"><ele>987.0</ele><time>2026-05-02T08:52:33.025Z</time></trkpt><trkpt lat="42.2260651" lon="13.844104"><ele>988.0</ele><time>2026-05-02T08:52:34.025Z</time></trkpt><trkpt lat="42.2259556" lon="13.8441405"><ele>989.0</ele><time>2026-05-02T08:52:35.024Z</time></trkpt><trkpt lat="42.225847" lon="13.8441953"><ele>990.0</ele><time>2026-05-02T08:52:36.024Z</time></trkpt><trkpt lat="42.2257416" lon="13.8442458"><ele>988.6</ele><time>2026-05-02T08:52:37.025Z</time></trkpt><trkpt lat="42.2256356" lon="13.8442859"><ele>987.2</ele><time>2026-05-02T08:52:38.025Z</time></trkpt><trkpt lat="42.225542" lon="13.8443463"><ele>985.8</ele><time>2026-05-02T08:52:39.025Z</time></trkpt><trkpt lat="42.2254611" lon="13.8444027"><ele>984.4</ele><time>2026-05-02T08:52:40.025Z</time></trkpt><trkpt lat="42.2253944" lon="13.8444577"><ele>983.0</ele><time>2026-05-02T08:52:41.025Z</time></trkpt><trkpt lat="42.225328" lon="13.8445047"><ele>981.1666666666667</ele><time>2026-05-02T08:52:42.025Z</time></trkpt><trkpt lat="42.2252543" lon="13.8445393"><ele>979.3333333333334</ele><time>2026-05-02T08:52:43.025Z</time></trkpt><trkpt lat="42.2251775" lon="13.8445683"><ele>977.5</ele><time>2026-05-02T08:52:44.025Z</time></trkpt><trkpt lat="42.2251011" lon="13.8445822"><ele>975.6666666666667</ele><time>2026-05-02T08:52:45.025Z</time></trkpt><trkpt lat="42.2250179" lon="13.8445884"><ele>973.8333333333334</ele><time>2026-05-02T08:52:46.024Z</time></trkpt><trkpt lat="42.2249255" lon="13.8445951"><ele>972.0</ele><time>2026-05-02T08:52:47.025Z</time></trkpt><trkpt lat="42.2248318" lon="13.8445935"><ele>970.1666666666666</ele><time>2026-05-02T08:52:48.025Z</time></trkpt><trkpt lat="42.2247568" lon="13.8445946"><ele>968.3333333333333</ele><time>2026-05-02T08:52:49.025Z</time></trkpt><trkpt lat="42.2246596" lon="13.8445299"><ele>966.5</ele><time>2026-05-02T08:52:51.025Z</time></trkpt><trkpt lat="42.2245996" lon="13.8444151"><ele>964.6666666666666</ele><time>2026-05-02T08:52:53.025Z</time></trkpt><trkpt lat="42.2245946" lon="13.8443299"><ele>962.8333333333333</ele><time>2026-05-02T08:52:54.025Z</time></trkpt><trkpt lat="42.2246087" lon="13.8442431"><ele>961.0</ele><time>2026-05-02T08:52:55.025Z</time></trkpt><trkpt lat="42.2246433" lon="13.8441404"><ele>959.75</ele><time>2026-05-02T08:52:56.025Z</time></trkpt><trkpt lat="42.2246903" lon="13.8440166"><ele>958.5</ele><time>2026-05-02T08:52:57.025Z</time></trkpt><trkpt lat="42.2247432" lon="13.8438785"><ele>957.25</ele><time>2026-05-02T08:52:58.024Z</time></trkpt><trkpt lat="42.2247942" lon="13.843736"><ele>956.0</ele><time>2026-05-02T08:52:59.025Z</time></trkpt><trkpt lat="42.224844" lon="13.8435952"><ele>959.75</ele><time>2026-05-02T08:53:00.025Z</time></trkpt><trkpt lat="42.2248999" lon="13.8434635"><ele>963.5</ele><time>2026-05-02T08:53:01.024Z</time></trkpt><trkpt lat="42.224967" lon="13.8433331"><ele>967.25</ele><time>2026-05-02T08:53:02.024Z</time></trkpt><trkpt lat="42.2250459" lon="13.8432212"><ele>971.0</ele><time>2026-05-02T08:53:03.025Z</time></trkpt><trkpt lat="42.2251369" lon="13.8431124"><ele>971.0</ele><time>2026-05-02T08:53:04.025Z</time></trkpt><trkpt lat="42.2252277" lon="13.8429971"><ele>971.0</ele><time>2026-05-02T08:53:05.024Z</time></trkpt><trkpt lat="42.2253198" lon="13.8428689"><ele>971.0</ele><time>2026-05-02T08:53:06.025Z</time></trkpt><trkpt lat="42.2254082" lon="13.8427407"><ele>971.0</ele><time>2026-05-02T08:53:07.025Z</time></trkpt><trkpt lat="42.2254962" lon="13.8426185"><ele>970.25</ele><time>2026-05-02T08:53:08.024Z</time></trkpt><trkpt lat="42.2255837" lon="13.8424973"><ele>969.5</ele><time>2026-05-02T08:53:09.024Z</time></trkpt><trkpt lat="42.2256711" lon="13.8423918"><ele>968.75</ele><time>2026-05-02T08:53:10.025Z</time></trkpt><trkpt lat="42.2257582" lon="13.8422947"><ele>968.0</ele><time>2026-05-02T08:53:11.025Z</time></trkpt><trkpt lat="42.2258512" lon="13.8422203"><ele>968.0</ele><time>2026-05-02T08:53:12.025Z</time></trkpt><trkpt lat="42.225954" lon="13.8421594"><ele>968.0</ele><time>2026-05-02T08:53:13.025Z</time></trkpt><trkpt lat="42.2260576" lon="13.8421098"><ele>968.0</ele><time>2026-05-02T08:53:14.025Z</time></trkpt><trkpt lat="42.2261483" lon="13.8420827"><ele>968.0</ele><time>2026-05-02T08:53:15.025Z</time></trkpt><trkpt lat="42.2262405" lon="13.8420746"><ele>968.0</ele><time>2026-05-02T08:53:16.025Z</time></trkpt><trkpt lat="42.2263462" lon="13.8420756"><ele>968.0</ele><time>2026-05-02T08:53:17.025Z</time></trkpt><trkpt lat="42.2264663" lon="13.8420836"><ele>968.0</ele><time>2026-05-02T08:53:18.024Z</time></trkpt><trkpt lat="42.2266023" lon="13.8420762"><ele>968.0</ele><time>2026-05-02T08:53:19.025Z</time></trkpt><trkpt lat="42.2267398" lon="13.8420589"><ele>968.0</ele><time>2026-05-02T08:53:20.025Z</time></trkpt><trkpt lat="42.2268752" lon="13.8420463"><ele>969.0</ele><time>2026-05-02T08:53:21.025Z</time></trkpt><trkpt lat="42.2270106" lon="13.8420362"><ele>970.0</ele><time>2026-05-02T08:53:22.025Z</time></trkpt><trkpt lat="42.2271434" lon="13.8420211"><ele>971.0</ele><time>2026-05-02T08:53:23.024Z</time></trkpt><trkpt lat="42.2272707" lon="13.84201"><ele>972.0</ele><time>2026-05-02T08:53:24.025Z</time></trkpt><trkpt lat="42.2274013" lon="13.8419972"><ele>970.0</ele><time>2026-05-02T08:53:25.025Z</time></trkpt><trkpt lat="42.2275303" lon="13.8419845"><ele>968.0</ele><time>2026-05-02T08:53:26.025Z</time></trkpt><trkpt lat="42.2276607" lon="13.8419685"><ele>966.0</ele><time>2026-05-02T08:53:27.025Z</time></trkpt><trkpt lat="42.2277749" lon="13.8419544"><ele>964.0</ele><time>2026-05-02T08:53:28.025Z</time></trkpt><trkpt lat="42.2278926" lon="13.8419257"><ele>964.0</ele><time>2026-05-02T08:53:29.025Z</time></trkpt><trkpt lat="42.2280155" lon="13.8418802"><ele>964.0</ele><time>2026-05-02T08:53:30.025Z</time></trkpt><trkpt lat="42.2281367" lon="13.8418363"><ele>964.0</ele><time>2026-05-02T08:53:31.025Z</time></trkpt><trkpt lat="42.2282521" lon="13.8417932"><ele>964.0</ele><time>2026-05-02T08:53:32.025Z</time></trkpt><trkpt lat="42.2283504" lon="13.8417434"><ele>957.6</ele><time>2026-05-02T08:53:33.025Z</time></trkpt><trkpt lat="42.2284383" lon="13.8416889"><ele>951.2</ele><time>2026-05-02T08:53:34.025Z</time></trkpt><trkpt lat="42.2285137" lon="13.841633"><ele>944.8000000000001</ele><time>2026-05-02T08:53:35.025Z</time></trkpt><trkpt lat="42.2285784" lon="13.8415472"><ele>938.4000000000001</ele><time>2026-05-02T08:53:36.025Z</time></trkpt><trkpt lat="42.2286404" lon="13.8414429"><ele>932.0</ele><time>2026-05-02T08:53:37.025Z</time></trkpt><trkpt lat="42.2286996" lon="13.8413087"><ele>932.0</ele><time>2026-05-02T08:53:38.025Z</time></trkpt><trkpt lat="42.2287634" lon="13.8411598"><ele>932.0</ele><time>2026-05-02T08:53:39.025Z</time></trkpt><trkpt lat="42.228828" lon="13.8409922"><ele>932.0</ele><time>2026-05-02T08:53:40.025Z</time></trkpt><trkpt lat="42.2288929" lon="13.8408101"><ele>932.0</ele><time>2026-05-02T08:53:41.025Z</time></trkpt><trkpt lat="42.2289575" lon="13.8406153"><ele>933.25</ele><time>2026-05-02T08:53:42.025Z</time></trkpt><trkpt lat="42.2290181" lon="13.8404267"><ele>934.5</ele><time>2026-05-02T08:53:43.025Z</time></trkpt><trkpt lat="42.2290798" lon="13.8402516"><ele>935.75</ele><time>2026-05-02T08:53:44.025Z</time></trkpt><trkpt lat="42.2291511" lon="13.8400732"><ele>937.0</ele><time>2026-05-02T08:53:45.025Z</time></trkpt><trkpt lat="42.2292276" lon="13.8398911"><ele>931.25</ele><time>2026-05-02T08:53:46.025Z</time></trkpt><trkpt lat="42.2292984" lon="13.8397254"><ele>925.5</ele><time>2026-05-02T08:53:47.025Z</time></trkpt><trkpt lat="42.22937" lon="13.8395744"><ele>919.75</ele><time>2026-05-02T08:53:48.025Z</time></trkpt><trkpt lat="42.2294527" lon="13.8394272"><ele>914.0</ele><time>2026-05-02T08:53:49.025Z</time></trkpt><trkpt lat="42.2295472" lon="13.8392816"><ele>919.3333333333334</ele><time>2026-05-02T08:53:50.025Z</time></trkpt><trkpt lat="42.2296522" lon="13.8391241"><ele>924.6666666666667</ele><time>2026-05-02T08:53:51.025Z</time></trkpt><trkpt lat="42.229758" lon="13.8389528"><ele>930.0</ele><time>2026-05-02T08:53:52.025Z</time></trkpt><trkpt lat="42.2298609" lon="13.8387805"><ele>930.0</ele><time>2026-05-02T08:53:53.025Z</time></trkpt><trkpt lat="42.2299581" lon="13.8386129"><ele>930.0</ele><time>2026-05-02T08:53:54.025Z</time></trkpt><trkpt lat="42.2300444" lon="13.8384446"><ele>930.0</ele><time>2026-05-02T08:53:55.025Z</time></trkpt><trkpt lat="42.2301173" lon="13.8382753"><ele>923.2</ele><time>2026-05-02T08:53:56.024Z</time></trkpt><trkpt lat="42.230186" lon="13.8381332"><ele>916.4</ele><time>2026-05-02T08:53:57.025Z</time></trkpt><trkpt lat="42.2302478" lon="13.8380197"><ele>909.5999999999999</ele><time>2026-05-02T08:53:58.025Z</time></trkpt><trkpt lat="42.2303156" lon="13.8379133"><ele>902.8</ele><time>2026-05-02T08:53:59.025Z</time></trkpt><trkpt lat="42.2303935" lon="13.8378155"><ele>896.0</ele><time>2026-05-02T08:54:00.024Z</time></trkpt><trkpt lat="42.2304869" lon="13.8377242"><ele>896.0</ele><time>2026-05-02T08:54:01.024Z</time></trkpt><trkpt lat="42.2305855" lon="13.8376455"><ele>895.9999999999999</ele><time>2026-05-02T08:54:02.025Z</time></trkpt><trkpt lat="42.2306822" lon="13.8375716"><ele>895.9999999999999</ele><time>2026-05-02T08:54:03.024Z</time></trkpt><trkpt lat="42.2307721" lon="13.8374999"><ele>896.0</ele><time>2026-05-02T08:54:04.025Z</time></trkpt><trkpt lat="42.2308566" lon="13.8374442"><ele>896.0</ele><time>2026-05-02T08:54:05.025Z</time></trkpt><trkpt lat="42.2309291" lon="13.837396"><ele>894.5</ele><time>2026-05-02T08:54:06.025Z</time></trkpt><trkpt lat="42.2310154" lon="13.8373474"><ele>893.0</ele><time>2026-05-02T08:54:07.025Z</time></trkpt><trkpt lat="42.2311133" lon="13.8373054"><ele>891.5</ele><time>2026-05-02T08:54:08.025Z</time></trkpt><trkpt lat="42.23124" lon="13.8372658"><ele>890.0</ele><time>2026-05-02T08:54:09.025Z</time></trkpt><trkpt lat="42.2313731" lon="13.8372299"><ele>892.5</ele><time>2026-05-02T08:54:10.025Z</time></trkpt><trkpt lat="42.2315187" lon="13.8371904"><ele>895.0</ele><time>2026-05-02T08:54:11.024Z</time></trkpt><trkpt lat="42.2316543" lon="13.8371642"><ele>897.5</ele><time>2026-05-02T08:54:12.025Z</time></trkpt><trkpt lat="42.2317884" lon="13.8371343"><ele>900.0</ele><time>2026-05-02T08:54:13.025Z</time></trkpt><trkpt lat="42.2319175" lon="13.8371061"><ele>900.0</ele><time>2026-05-02T08:54:14.024Z</time></trkpt><trkpt lat="42.2320422" lon="13.8370852"><ele>900.0</ele><time>2026-05-02T08:54:15.025Z</time></trkpt><trkpt lat="42.2321595" lon="13.8370824"><ele>900.0</ele><time>2026-05-02T08:54:16.025Z</time></trkpt><trkpt lat="42.2322583" lon="13.8370976"><ele>900.0</ele><time>2026-05-02T08:54:17.025Z</time></trkpt><trkpt lat="42.2323398" lon="13.837111"><ele>900.0</ele><time>2026-05-02T08:54:18.024Z</time></trkpt><trkpt lat="42.2324474" lon="13.8371244"><ele>900.0</ele><time>2026-05-02T08:54:20.025Z</time></trkpt><trkpt lat="42.2324923" lon="13.8370375"><ele>900.0</ele><time>2026-05-02T08:54:23.025Z</time></trkpt><trkpt lat="42.2324031" lon="13.8369822"><ele>900.0</ele><time>2026-05-02T08:54:25.025Z</time></trkpt><trkpt lat="42.2323321" lon="13.8369559"><ele>900.0</ele><time>2026-05-02T08:54:26.025Z</time></trkpt><trkpt lat="42.2322504" lon="13.8369246"><ele>900.0</ele><time>2026-05-02T08:54:27.025Z</time></trkpt><trkpt lat="42.2321591" lon="13.8368928"><ele>900.0</ele><time>2026-05-02T08:54:28.025Z</time></trkpt><trkpt lat="42.232057" lon="13.8368685"><ele>900.0</ele><time>2026-05-02T08:54:29.025Z</time></trkpt><trkpt lat="42.2319445" lon="13.8368392"><ele>900.0</ele><time>2026-05-02T08:54:30.025Z</time></trkpt><trkpt lat="42.2318196" lon="13.8368023"><ele>900.0</ele><time>2026-05-02T08:54:31.025Z</time></trkpt><trkpt lat="42.231687" lon="13.8367708"><ele>900.0</ele><time>2026-05-02T08:54:32.025Z</time></trkpt><trkpt lat="42.2315577" lon="13.8367395"><ele>888.25</ele><time>2026-05-02T08:54:33.025Z</time></trkpt><trkpt lat="42.2314333" lon="13.8367049"><ele>876.5</ele><time>2026-05-02T08:54:34.025Z</time></trkpt><trkpt lat="42.2313184" lon="13.8366752"><ele>864.75</ele><time>2026-05-02T08:54:35.024Z</time></trkpt><trkpt lat="42.2311932" lon="13.8366511"><ele>853.0</ele><time>2026-05-02T08:54:36.024Z</time></trkpt><trkpt lat="42.2310802" lon="13.8366394"><ele>853.0</ele><time>2026-05-02T08:54:37.025Z</time></trkpt><trkpt lat="42.2309634" lon="13.8366373"><ele>853.0</ele><time>2026-05-02T08:54:38.025Z</time></trkpt><trkpt lat="42.2308456" lon="13.8366614"><ele>853.0</ele><time>2026-05-02T08:54:39.025Z</time></trkpt><trkpt lat="42.2307258" lon="13.8367021"><ele>853.0</ele><time>2026-05-02T08:54:40.025Z</time></trkpt><trkpt lat="42.2306002" lon="13.8367622"><ele>855.5</ele><time>2026-05-02T08:54:41.025Z</time></trkpt><trkpt lat="42.2304624" lon="13.8368347"><ele>858.0</ele><time>2026-05-02T08:54:42.025Z</time></trkpt><trkpt lat="42.2303207" lon="13.836908"><ele>860.5</ele><time>2026-05-02T08:54:43.025Z</time></trkpt><trkpt lat="42.2301901" lon="13.8369821"><ele>863.0</ele><time>2026-05-02T08:54:44.025Z</time></trkpt><trkpt lat="42.230053" lon="13.8370558"><ele>863.0</ele><time>2026-05-02T08:54:45.025Z</time></trkpt><trkpt lat="42.2299165" lon="13.8371297"><ele>863.0</ele><time>2026-05-02T08:54:46.024Z</time></trkpt><trkpt lat="42.2297793" lon="13.8372079"><ele>863.0</ele><time>2026-05-02T08:54:47.025Z</time></trkpt><trkpt lat="42.2296514" lon="13.8372753"><ele>863.0</ele><time>2026-05-02T08:54:48.025Z</time></trkpt><trkpt lat="42.2295183" lon="13.8373348"><ele>856.75</ele><time>2026-05-02T08:54:49.025Z</time></trkpt><trkpt lat="42.2293932" lon="13.8374084"><ele>850.5</ele><time>2026-05-02T08:54:50.025Z</time></trkpt><trkpt lat="42.2292649" lon="13.8374687"><ele>844.25</ele><time>2026-05-02T08:54:51.025Z</time></trkpt><trkpt lat="42.2291335" lon="13.8375344"><ele>838.0</ele><time>2026-05-02T08:54:52.025Z</time></trkpt><trkpt lat="42.2290083" lon="13.8376039"><ele>841.2</ele><time>2026-05-02T08:54:53.025Z</time></trkpt><trkpt lat="42.2288923" lon="13.8376663"><ele>844.4</ele><time>2026-05-02T08:54:54.025Z</time></trkpt><trkpt lat="42.2287897" lon="13.8377254"><ele>847.6000000000001</ele><time>2026-05-02T08:54:55.025Z</time></trkpt><trkpt lat="42.2287094" lon="13.8377755"><ele>850.8000000000001</ele><time>2026-05-02T08:54:56.025Z</time></trkpt><trkpt lat="42.2286337" lon="13.8378166"><ele>854.0</ele><time>2026-05-02T08:54:57.025Z</time></trkpt><trkpt lat="42.2285413" lon="13.8378628"><ele>854.0000000000001</ele><time>2026-05-02T08:54:59.024Z</time></trkpt><trkpt lat="42.2285038" lon="13.8377723"><ele>854.0</ele><time>2026-05-02T08:55:02.024Z</time></trkpt><trkpt lat="42.2285755" lon="13.8376959"><ele>854.0</ele><time>2026-05-02T08:55:04.025Z</time></trkpt><trkpt lat="42.2286417" lon="13.8376499"><ele>854.0</ele><time>2026-05-02T08:55:05.025Z</time></trkpt><trkpt lat="42.2287172" lon="13.8375867"><ele>854.0000000000001</ele><time>2026-05-02T08:55:06.024Z</time></trkpt><trkpt lat="42.2287975" lon="13.8375052"><ele>854.0</ele><time>2026-05-02T08:55:07.024Z</time></trkpt><trkpt lat="42.2288882" lon="13.8374153"><ele>850.0</ele><time>2026-05-02T08:55:08.025Z</time></trkpt><trkpt lat="42.2289857" lon="13.8373184"><ele>846.0</ele><time>2026-05-02T08:55:09.025Z</time></trkpt><trkpt lat="42.2290874" lon="13.8372161"><ele>842.0</ele><time>2026-05-02T08:55:10.025Z</time></trkpt><trkpt lat="42.2291982" lon="13.8371168"><ele>838.0</ele><time>2026-05-02T08:55:11.025Z</time></trkpt><trkpt lat="42.229301" lon="13.8370325"><ele>838.0</ele><time>2026-05-02T08:55:12.025Z</time></trkpt><trkpt lat="42.2293957" lon="13.8369518"><ele>838.0</ele><time>2026-05-02T08:55:13.025Z</time></trkpt><trkpt lat="42.22949" lon="13.8368626"><ele>838.0</ele><time>2026-05-02T08:55:14.025Z</time></trkpt><trkpt lat="42.2295859" lon="13.8367584"><ele>838.0</ele><time>2026-05-02T08:55:15.025Z</time></trkpt><trkpt lat="42.2296813" lon="13.8366377"><ele>836.0</ele><time>2026-05-02T08:55:16.025Z</time></trkpt><trkpt lat="42.2297834" lon="13.8365123"><ele>834.0</ele><time>2026-05-02T08:55:17.025Z</time></trkpt><trkpt lat="42.2298886" lon="13.83638"><ele>832.0</ele><time>2026-05-02T08:55:18.025Z</time></trkpt><trkpt lat="42.229994" lon="13.8362543"><ele>830.0</ele><time>2026-05-02T08:55:19.025Z</time></trkpt><trkpt lat="42.2300979" lon="13.8361315"><ele>830.0</ele><time>2026-05-02T08:55:20.025Z</time></trkpt><trkpt lat="42.2302138" lon="13.8360111"><ele>830.0</ele><time>2026-05-02T08:55:21.024Z</time></trkpt><trkpt lat="42.2303281" lon="13.8358936"><ele>830.0</ele><time>2026-05-02T08:55:22.025Z</time></trkpt><trkpt lat="42.2304419" lon="13.8357813"><ele>830.0</ele><time>2026-05-02T08:55:23.024Z</time></trkpt><trkpt lat="42.2305492" lon="13.8356805"><ele>827.75</ele><time>2026-05-02T08:55:24.025Z</time></trkpt><trkpt lat="42.2306484" lon="13.8355903"><ele>825.5</ele><time>2026-05-02T08:55:25.025Z</time></trkpt><trkpt lat="42.2307491" lon="13.8355111"><ele>823.25</ele><time>2026-05-02T08:55:26.025Z</time></trkpt><trkpt lat="42.2308514" lon="13.8354437"><ele>821.0</ele><time>2026-05-02T08:55:27.025Z</time></trkpt><trkpt lat="42.2309546" lon="13.8353813"><ele>821.0</ele><time>2026-05-02T08:55:28.025Z</time></trkpt><trkpt lat="42.2310601" lon="13.8353316"><ele>821.0</ele><time>2026-05-02T08:55:29.025Z</time></trkpt><trkpt lat="42.231171" lon="13.8352941"><ele>821.0</ele><time>2026-05-02T08:55:30.025Z</time></trkpt><trkpt lat="42.2312892" lon="13.8352642"><ele>821.0</ele><time>2026-05-02T08:55:31.025Z</time></trkpt><trkpt lat="42.2314109" lon="13.835234"><ele>823.0</ele><time>2026-05-02T08:55:32.025Z</time></trkpt><trkpt lat="42.2315322" lon="13.8352066"><ele>825.0</ele><time>2026-05-02T08:55:33.024Z</time></trkpt><trkpt lat="42.2316412" lon="13.8351851"><ele>827.0</ele><time>2026-05-02T08:55:34.025Z</time></trkpt><trkpt lat="42.2317302" lon="13.8351639"><ele>829.0</ele><time>2026-05-02T08:55:35.025Z</time></trkpt><trkpt lat="42.231803" lon="13.8351532"><ele>831.0</ele><time>2026-05-02T08:55:36.025Z</time></trkpt><trkpt lat="42.2318994" lon="13.8351287"><ele>826.3333333333334</ele><time>2026-05-02T08:55:38.025Z</time></trkpt><trkpt lat="42.2319267" lon="13.8350427"><ele>821.6666666666667</ele><time>2026-05-02T08:55:40.025Z</time></trkpt><trkpt lat="42.231853" lon="13.8349898"><ele>817.0</ele><time>2026-05-02T08:55:42.025Z</time></trkpt><trkpt lat="42.2317887" lon="13.834991"><ele>812.3333333333334</ele><time>2026-05-02T08:55:43.025Z</time></trkpt><trkpt lat="42.2317027" lon="13.8349932"><ele>807.6666666666667</ele><time>2026-05-02T08:55:44.025Z</time></trkpt><trkpt lat="42.2316041" lon="13.8349971"><ele>803.0</ele><time>2026-05-02T08:55:45.025Z</time></trkpt><trkpt lat="42.2314885" lon="13.8349902"><ele>800.25</ele><time>2026-05-02T08:55:46.025Z</time></trkpt><trkpt lat="42.2313664" lon="13.8349634"><ele>797.5</ele><time>2026-05-02T08:55:47.025Z</time></trkpt><trkpt lat="42.2312556" lon="13.8349208"><ele>794.75</ele><time>2026-05-02T08:55:48.025Z</time></trkpt><trkpt lat="42.2311546" lon="13.8348939"><ele>792.0</ele><time>2026-05-02T08:55:49.024Z</time></trkpt><trkpt lat="42.2310428" lon="13.8348602"><ele>792.0</ele><time>2026-05-02T08:55:50.025Z</time></trkpt><trkpt lat="42.2309447" lon="13.8348779"><ele>792.0</ele><time>2026-05-02T08:55:51.024Z</time></trkpt><trkpt lat="42.2308297" lon="13.8349135"><ele>792.0</ele><time>2026-05-02T08:55:52.025Z</time></trkpt><trkpt lat="42.2307125" lon="13.8349495"><ele>792.0</ele><time>2026-05-02T08:55:53.024Z</time></trkpt><trkpt lat="42.2305783" lon="13.8349791"><ele>794.0</ele><time>2026-05-02T08:55:54.025Z</time></trkpt><trkpt lat="42.2304356" lon="13.8350154"><ele>796.0</ele><time>2026-05-02T08:55:55.025Z</time></trkpt><trkpt lat="42.2302928" lon="13.835052"><ele>798.0</ele><time>2026-05-02T08:55:56.025Z</time></trkpt><trkpt lat="42.2301573" lon="13.8350965"><ele>800.0</ele><time>2026-05-02T08:55:57.025Z</time></trkpt><trkpt lat="42.2300304" lon="13.8351382"><ele>800.0</ele><time>2026-05-02T08:55:58.025Z</time></trkpt><trkpt lat="42.2299044" lon="13.8351821"><ele>800.0</ele><time>2026-05-02T08:55:59.025Z</time></trkpt><trkpt lat="42.2297812" lon="13.8352314"><ele>800.0</ele><time>2026-05-02T08:56:00.025Z</time></trkpt><trkpt lat="42.2296625" lon="13.8352813"><ele>800.0</ele><time>2026-05-02T08:56:01.024Z</time></trkpt><trkpt lat="42.2295392" lon="13.8353374"><ele>795.0</ele><time>2026-05-02T08:56:02.024Z</time></trkpt><trkpt lat="42.2294156" lon="13.8353973"><ele>790.0</ele><time>2026-05-02T08:56:03.025Z</time></trkpt><trkpt lat="42.2292975" lon="13.8354584"><ele>785.0</ele><time>2026-05-02T08:56:04.024Z</time></trkpt><trkpt lat="42.2291816" lon="13.8355344"><ele>780.0</ele><time>2026-05-02T08:56:05.025Z</time></trkpt><trkpt lat="42.2290696" lon="13.835614"><ele>777.25</ele><time>2026-05-02T08:56:06.025Z</time></trkpt><trkpt lat="42.2289627" lon="13.8356981"><ele>774.5</ele><time>2026-05-02T08:56:07.024Z</time></trkpt><trkpt lat="42.2288567" lon="13.8357744"><ele>771.75</ele><time>2026-05-02T08:56:08.025Z</time></trkpt><trkpt lat="42.2287501" lon="13.8358364"><ele>769.0</ele><time>2026-05-02T08:56:09.024Z</time></trkpt><trkpt lat="42.2286496" lon="13.8358947"><ele>768.9999999999999</ele><time>2026-05-02T08:56:10.024Z</time></trkpt><trkpt lat="42.2285472" lon="13.8359599"><ele>769.0</ele><time>2026-05-02T08:56:11.025Z</time></trkpt><trkpt lat="42.2284586" lon="13.8360122"><ele>769.0</ele><time>2026-05-02T08:56:12.025Z</time></trkpt><trkpt lat="42.2283849" lon="13.8360459"><ele>769.0</ele><time>2026-05-02T08:56:13.025Z</time></trkpt><trkpt lat="42.2283175" lon="13.8360578"><ele>768.9999999999999</ele><time>2026-05-02T08:56:14.025Z</time></trkpt><trkpt lat="42.2282413" lon="13.8360494"><ele>769.0</ele><time>2026-05-02T08:56:15.024Z</time></trkpt><trkpt lat="42.2281629" lon="13.836013"><ele>769.8000000000001</ele><time>2026-05-02T08:56:16.025Z</time></trkpt><trkpt lat="42.2280828" lon="13.8359581"><ele>770.6</ele><time>2026-05-02T08:56:17.024Z</time></trkpt><trkpt lat="42.2279921" lon="13.8358958"><ele>771.4</ele><time>2026-05-02T08:56:18.024Z</time></trkpt><trkpt lat="42.2278918" lon="13.8358321"><ele>772.2</ele><time>2026-05-02T08:56:19.025Z</time></trkpt><trkpt lat="42.227781" lon="13.8357606"><ele>773.0</ele><time>2026-05-02T08:56:20.025Z</time></trkpt><trkpt lat="42.2276707" lon="13.8356838"><ele>773.0</ele><time>2026-05-02T08:56:21.025Z</time></trkpt><trkpt lat="42.2275594" lon="13.8356136"><ele>773.0</ele><time>2026-05-02T08:56:22.025Z</time></trkpt><trkpt lat="42.2274507" lon="13.8355455"><ele>773.0</ele><time>2026-05-02T08:56:23.025Z</time></trkpt><trkpt lat="42.227347" lon="13.8354895"><ele>773.0</ele><time>2026-05-02T08:56:24.025Z</time></trkpt><trkpt lat="42.2272477" lon="13.8354376"><ele>772.1666666666667</ele><time>2026-05-02T08:56:25.025Z</time></trkpt><trkpt lat="42.2271573" lon="13.835402"><ele>771.3333333333334</ele><time>2026-05-02T08:56:26.025Z</time></trkpt><trkpt lat="42.2270699" lon="13.8353751"><ele>770.5</ele><time>2026-05-02T08:56:27.025Z</time></trkpt><trkpt lat="42.2269884" lon="13.8353654"><ele>769.6666666666667</ele><time>2026-05-02T08:56:28.025Z</time></trkpt><trkpt lat="42.2269115" lon="13.8353702"><ele>768.8333333333334</ele><time>2026-05-02T08:56:29.025Z</time></trkpt><trkpt lat="42.2268315" lon="13.8353785"><ele>768.0</ele><time>2026-05-02T08:56:30.025Z</time></trkpt><trkpt lat="42.2267442" lon="13.8353979"><ele>768.0</ele><time>2026-05-02T08:56:31.025Z</time></trkpt><trkpt lat="42.2266497" lon="13.8354182"><ele>768.0</ele><time>2026-05-02T08:56:32.025Z</time></trkpt><trkpt lat="42.2265558" lon="13.8354446"><ele>768.0</ele><time>2026-05-02T08:56:33.025Z</time></trkpt><trkpt lat="42.2264651" lon="13.8354708"><ele>768.0</ele><time>2026-05-02T08:56:34.025Z</time></trkpt><trkpt lat="42.2263914" lon="13.8355055"><ele>768.0</ele><time>2026-05-02T08:56:35.025Z</time></trkpt><trkpt lat="42.2263014" lon="13.8355401"><ele>764.4</ele><time>2026-05-02T08:56:36.025Z</time></trkpt><trkpt lat="42.2262141" lon="13.8355723"><ele>760.8</ele><time>2026-05-02T08:56:37.024Z</time></trkpt><trkpt lat="42.2261301" lon="13.8356081"><ele>757.2</ele><time>2026-05-02T08:56:38.025Z</time></trkpt><trkpt lat="42.2260449" lon="13.8356366"><ele>753.6</ele><time>2026-05-02T08:56:39.025Z</time></trkpt><trkpt lat="42.2259593" lon="13.8356658"><ele>750.0</ele><time>2026-05-02T08:56:40.024Z</time></trkpt><trkpt lat="42.2258687" lon="13.8357076"><ele>750.0</ele><time>2026-05-02T08:56:41.025Z</time></trkpt><trkpt lat="42.2257746" lon="13.835761"><ele>750.0</ele><time>2026-05-02T08:56:42.024Z</time></trkpt><trkpt lat="42.2256772" lon="13.835815"><ele>750.0</ele><time>2026-05-02T08:56:43.025Z</time></trkpt><trkpt lat="42.2255838" lon="13.8358713"><ele>750.0</ele><time>2026-05-02T08:56:44.025Z</time></trkpt><trkpt lat="42.2254984" lon="13.8359272"><ele>750.0</ele><time>2026-05-02T08:56:45.025Z</time></trkpt><trkpt lat="42.2254147" lon="13.8359928"><ele>748.0</ele><time>2026-05-02T08:56:46.025Z</time></trkpt><trkpt lat="42.2253226" lon="13.8360811"><ele>746.0</ele><time>2026-05-02T08:56:47.024Z</time></trkpt><trkpt lat="42.2252242" lon="13.836175"><ele>744.0</ele><time>2026-05-02T08:56:48.025Z</time></trkpt><trkpt lat="42.2251238" lon="13.8362641"><ele>742.0</ele><time>2026-05-02T08:56:49.025Z</time></trkpt><trkpt lat="42.22502" lon="13.8363524"><ele>742.0</ele><time>2026-05-02T08:56:50.025Z</time></trkpt><trkpt lat="42.2249146" lon="13.8364383"><ele>742.0</ele><time>2026-05-02T08:56:51.025Z</time></trkpt><trkpt lat="42.2248155" lon="13.8365209"><ele>742.0</ele><time>2026-05-02T08:56:52.025Z</time></trkpt><trkpt lat="42.2247215" lon="13.8366065"><ele>742.0</ele><time>2026-05-02T08:56:53.025Z</time></trkpt><trkpt lat="42.2246392" lon="13.8367008"><ele>738.4000000000001</ele><time>2026-05-02T08:56:54.025Z</time></trkpt><trkpt lat="42.2245673" lon="13.8368114"><ele>734.8000000000001</ele><time>2026-05-02T08:56:55.025Z</time></trkpt><trkpt lat="42.2245007" lon="13.8369443"><ele>731.2</ele><time>2026-05-02T08:56:56.025Z</time></trkpt><trkpt lat="42.2244342" lon="13.8370689"><ele>727.6</ele><time>2026-05-02T08:56:57.025Z</time></trkpt><trkpt lat="42.2243725" lon="13.8371798"><ele>724.0</ele><time>2026-05-02T08:56:58.025Z</time></trkpt><trkpt lat="42.2243097" lon="13.8372846"><ele>724.0</ele><time>2026-05-02T08:56:59.025Z</time></trkpt><trkpt lat="42.2242412" lon="13.8373939"><ele>724.0</ele><time>2026-05-02T08:57:00.025Z</time></trkpt><trkpt lat="42.2241707" lon="13.8375119"><ele>724.0</ele><time>2026-05-02T08:57:01.025Z</time></trkpt><trkpt lat="42.2241043" lon="13.8376423"><ele>724.0</ele><time>2026-05-02T08:57:02.025Z</time></trkpt><trkpt lat="42.224042" lon="13.8377825"><ele>720.6</ele><time>2026-05-02T08:57:03.025Z</time></trkpt><trkpt lat="42.2239791" lon="13.8379165"><ele>717.2</ele><time>2026-05-02T08:57:04.024Z</time></trkpt><trkpt lat="42.2239147" lon="13.8380303"><ele>713.8000000000001</ele><time>2026-05-02T08:57:05.025Z</time></trkpt><trkpt lat="42.2238514" lon="13.8381236"><ele>710.4000000000001</ele><time>2026-05-02T08:57:06.025Z</time></trkpt><trkpt lat="42.2237835" lon="13.8382047"><ele>707.0</ele><time>2026-05-02T08:57:07.025Z</time></trkpt><trkpt lat="42.2237104" lon="13.8382834"><ele>707.0</ele><time>2026-05-02T08:57:08.025Z</time></trkpt><trkpt lat="42.2236319" lon="13.8383495"><ele>707.0</ele><time>2026-05-02T08:57:09.025Z</time></trkpt><trkpt lat="42.223549" lon="13.83841"><ele>707.0</ele><time>2026-05-02T08:57:10.025Z</time></trkpt><trkpt lat="42.2234593" lon="13.8384711"><ele>707.0</ele><time>2026-05-02T08:57:11.025Z</time></trkpt><trkpt lat="42.2233632" lon="13.8385302"><ele>707.0</ele><time>2026-05-02T08:57:12.025Z</time></trkpt><trkpt lat="42.2232663" lon="13.8385759"><ele>707.75</ele><time>2026-05-02T08:57:13.025Z</time></trkpt><trkpt lat="42.2231641" lon="13.838623"><ele>708.5</ele><time>2026-05-02T08:57:14.024Z</time></trkpt><trkpt lat="42.2230521" lon="13.8386727"><ele>709.25</ele><time>2026-05-02T08:57:15.024Z</time></trkpt><trkpt lat="42.222937" lon="13.8387146"><ele>710.0</ele><time>2026-05-02T08:57:16.025Z</time></trkpt><trkpt lat="42.222824" lon="13.8387554"><ele>710.0</ele><time>2026-05-02T08:57:17.024Z</time></trkpt><trkpt lat="42.222709" lon="13.8388029"><ele>710.0</ele><time>2026-05-02T08:57:18.025Z</time></trkpt><trkpt lat="42.2225964" lon="13.8388565"><ele>710.0</ele><time>2026-05-02T08:57:19.025Z</time></trkpt><trkpt lat="42.2224878" lon="13.8389102"><ele>710.0</ele><time>2026-05-02T08:57:20.025Z</time></trkpt><trkpt lat="42.2223906" lon="13.8389681"><ele>708.6666666666666</ele><time>2026-05-02T08:57:21.025Z</time></trkpt><trkpt lat="42.2223075" lon="13.8390327"><ele>707.3333333333333</ele><time>2026-05-02T08:57:22.025Z</time></trkpt><trkpt lat="42.2222328" lon="13.8391004"><ele>706.0</ele><time>2026-05-02T08:57:23.025Z</time></trkpt><trkpt lat="42.2221747" lon="13.8391683"><ele>704.6666666666666</ele><time>2026-05-02T08:57:24.025Z</time></trkpt><trkpt lat="42.2221342" lon="13.8392351"><ele>703.3333333333334</ele><time>2026-05-02T08:57:25.024Z</time></trkpt><trkpt lat="42.2220484" lon="13.8393282"><ele>702.0</ele><time>2026-05-02T08:57:27.025Z</time></trkpt><trkpt lat="42.2219595" lon="13.8392824"><ele>698.6</ele><time>2026-05-02T08:57:29.025Z</time></trkpt><trkpt lat="42.2219545" lon="13.8391244"><ele>695.2</ele><time>2026-05-02T08:57:31.025Z</time></trkpt><trkpt lat="42.2219874" lon="13.8390325"><ele>691.8</ele><time>2026-05-02T08:57:32.025Z</time></trkpt><trkpt lat="42.2220269" lon="13.8389223"><ele>688.4</ele><time>2026-05-02T08:57:33.025Z</time></trkpt><trkpt lat="42.2220756" lon="13.8388007"><ele>685.0</ele><time>2026-05-02T08:57:34.025Z</time></trkpt><trkpt lat="42.2221289" lon="13.8386664"><ele>685.0</ele><time>2026-05-02T08:57:35.025Z</time></trkpt><trkpt lat="42.222187" lon="13.8385324"><ele>685.0</ele><time>2026-05-02T08:57:36.025Z</time></trkpt><trkpt lat="42.2222544" lon="13.8384045"><ele>685.0</ele><time>2026-05-02T08:57:37.025Z</time></trkpt><trkpt lat="42.2223358" lon="13.8382834"><ele>685.0</ele><time>2026-05-02T08:57:38.025Z</time></trkpt><trkpt lat="42.2224212" lon="13.8381669"><ele>687.25</ele><time>2026-05-02T08:57:39.025Z</time></trkpt><trkpt lat="42.222506" lon="13.8380519"><ele>689.5</ele><time>2026-05-02T08:57:40.024Z</time></trkpt><trkpt lat="42.2225944" lon="13.8379379"><ele>691.75</ele><time>2026-05-02T08:57:41.025Z</time></trkpt><trkpt lat="42.222684" lon="13.8378293"><ele>694.0</ele><time>2026-05-02T08:57:42.025Z</time></trkpt><trkpt lat="42.2227595" lon="13.8377291"><ele>689.2</ele><time>2026-05-02T08:57:43.024Z</time></trkpt><trkpt lat="42.2228258" lon="13.8376207"><ele>684.4000000000001</ele><time>2026-05-02T08:57:44.025Z</time></trkpt><trkpt lat="42.222879" lon="13.8375177"><ele>679.6</ele><time>2026-05-02T08:57:45.025Z</time></trkpt><trkpt lat="42.2229267" lon="13.8374039"><ele>674.8</ele><time>2026-05-02T08:57:46.025Z</time></trkpt><trkpt lat="42.2229638" lon="13.8372785"><ele>670.0</ele><time>2026-05-02T08:57:47.025Z</time></trkpt><trkpt lat="42.2229979" lon="13.8371339"><ele>670.0</ele><time>2026-05-02T08:57:48.025Z</time></trkpt><trkpt lat="42.2230281" lon="13.8369808"><ele>670.0</ele><time>2026-05-02T08:57:49.025Z</time></trkpt><trkpt lat="42.2230503" lon="13.8368295"><ele>670.0</ele><time>2026-05-02T08:57:50.025Z</time></trkpt><trkpt lat="42.223064" lon="13.8366785"><ele>670.0</ele><time>2026-05-02T08:57:51.025Z</time></trkpt><trkpt lat="42.2230692" lon="13.8365414"><ele>670.0</ele><time>2026-05-02T08:57:52.025Z</time></trkpt><trkpt lat="42.2230718" lon="13.8364166"><ele>667.6</ele><time>2026-05-02T08:57:53.025Z</time></trkpt><trkpt lat="42.2230702" lon="13.8363042"><ele>665.2</ele><time>2026-05-02T08:57:54.025Z</time></trkpt><trkpt lat="42.2230713" lon="13.8362122"><ele>662.8</ele><time>2026-05-02T08:57:55.025Z</time></trkpt><trkpt lat="42.223071" lon="13.8360667"><ele>660.4</ele><time>2026-05-02T08:57:57.025Z</time></trkpt><trkpt lat="42.223" lon="13.8360211"><ele>658.0</ele><time>2026-05-02T08:57:59.024Z</time></trkpt><trkpt lat="42.2228841" lon="13.8360956"><ele>658.0</ele><time>2026-05-02T08:58:01.024Z</time></trkpt><trkpt lat="42.2228541" lon="13.8362155"><ele>658.0</ele><time>2026-05-02T08:58:02.025Z</time></trkpt><trkpt lat="42.2228007" lon="13.8363165"><ele>658.0</ele><time>2026-05-02T08:58:03.025Z</time></trkpt><trkpt lat="42.2227447" lon="13.8364305"><ele>658.0</ele><time>2026-05-02T08:58:04.025Z</time></trkpt><trkpt lat="42.2226894" lon="13.8365495"><ele>658.0</ele><time>2026-05-02T08:58:05.025Z</time></trkpt><trkpt lat="42.222628" lon="13.8366494"><ele>658.0</ele><time>2026-05-02T08:58:06.025Z</time></trkpt><trkpt lat="42.2225632" lon="13.8367314"><ele>658.0</ele><time>2026-05-02T08:58:07.025Z</time></trkpt><trkpt lat="42.2224865" lon="13.8368014"><ele>658.0</ele><time>2026-05-02T08:58:08.025Z</time></trkpt><trkpt lat="42.222404" lon="13.8368593"><ele>658.0</ele><time>2026-05-02T08:58:09.024Z</time></trkpt><trkpt lat="42.2223085" lon="13.8369209"><ele>658.0</ele><time>2026-05-02T08:58:10.025Z</time></trkpt><trkpt lat="42.2222085" lon="13.8369805"><ele>657.75</ele><time>2026-05-02T08:58:11.024Z</time></trkpt><trkpt lat="42.2221056" lon="13.8370434"><ele>657.5</ele><time>2026-05-02T08:58:12.025Z</time></trkpt><trkpt lat="42.2219966" lon="13.8371081"><ele>657.25</ele><time>2026-05-02T08:58:13.025Z</time></trkpt><trkpt lat="42.2218895" lon="13.837172"><ele>657.0</ele><time>2026-05-02T08:58:14.025Z</time></trkpt><trkpt lat="42.2217799" lon="13.8372357"><ele>657.0</ele><time>2026-05-02T08:58:15.025Z</time></trkpt><trkpt lat="42.2216734" lon="13.8372974"><ele>657.0</ele><time>2026-05-02T08:58:16.025Z</time></trkpt><trkpt lat="42.2215741" lon="13.8373508"><ele>657.0</ele><time>2026-05-02T08:58:17.025Z</time></trkpt><trkpt lat="42.2214791" lon="13.8374028"><ele>657.0</ele><time>2026-05-02T08:58:18.025Z</time></trkpt><trkpt lat="42.2214" lon="13.8374472"><ele>657.0</ele><time>2026-05-02T08:58:19.025Z</time></trkpt><trkpt lat="42.2213408" lon="13.8374821"><ele>652.3333333333334</ele><time>2026-05-02T08:58:20.025Z</time></trkpt><trkpt lat="42.2212541" lon="13.8375231"><ele>647.6666666666666</ele><time>2026-05-02T08:58:22.025Z</time></trkpt><trkpt lat="42.2211931" lon="13.8374652"><ele>643.0</ele><time>2026-05-02T08:58:24.025Z</time></trkpt><trkpt lat="42.2212259" lon="13.8373492"><ele>638.3333333333333</ele><time>2026-05-02T08:58:26.024Z</time></trkpt><trkpt lat="42.2212777" lon="13.8372829"><ele>633.6666666666666</ele><time>2026-05-02T08:58:27.025Z</time></trkpt><trkpt lat="42.2213578" lon="13.8372044"><ele>629.0</ele><time>2026-05-02T08:58:28.025Z</time></trkpt><trkpt lat="42.2214474" lon="13.8371081"><ele>632.0</ele><time>2026-05-02T08:58:29.025Z</time></trkpt><trkpt lat="42.22154" lon="13.8369953"><ele>635.0</ele><time>2026-05-02T08:58:30.024Z</time></trkpt><trkpt lat="42.2216304" lon="13.8368776"><ele>638.0</ele><time>2026-05-02T08:58:31.025Z</time></trkpt><trkpt lat="42.2217188" lon="13.8367561"><ele>641.0</ele><time>2026-05-02T08:58:32.025Z</time></trkpt><trkpt lat="42.2218044" lon="13.8366292"><ele>641.0</ele><time>2026-05-02T08:58:33.025Z</time></trkpt><trkpt lat="42.2218787" lon="13.8364945"><ele>641.0</ele><time>2026-05-02T08:58:34.025Z</time></trkpt><trkpt lat="42.2219385" lon="13.836375"><ele>641.0</ele><time>2026-05-02T08:58:35.025Z</time></trkpt><trkpt lat="42.2219871" lon="13.8362719"><ele>641.0</ele><time>2026-05-02T08:58:36.024Z</time></trkpt><trkpt lat="42.2220326" lon="13.8361895"><ele>641.0</ele><time>2026-05-02T08:58:37.025Z</time></trkpt><trkpt lat="42.2220908" lon="13.8360633"><ele>641.0</ele><time>2026-05-02T08:58:39.025Z</time></trkpt><trkpt lat="42.2220526" lon="13.8359692"><ele>641.0</ele><time>2026-05-02T08:58:41.024Z</time></trkpt><trkpt lat="42.2219368" lon="13.8359722"><ele>641.0</ele><time>2026-05-02T08:58:43.025Z</time></trkpt><trkpt lat="42.2218868" lon="13.8360874"><ele>641.0</ele><time>2026-05-02T08:58:44.025Z</time></trkpt><trkpt lat="42.2218162" lon="13.8361844"><ele>641.0</ele><time>2026-05-02T08:58:45.025Z</time></trkpt><trkpt lat="42.2217307" lon="13.8362786"><ele>641.0</ele><time>2026-05-02T08:58:46.024Z</time></trkpt><trkpt lat="42.2216257" lon="13.8363805"><ele>641.0</ele><time>2026-05-02T08:58:47.025Z</time></trkpt><trkpt lat="42.2215154" lon="13.8364839"><ele>641.0</ele><time>2026-05-02T08:58:48.025Z</time></trkpt><trkpt lat="42.2214094" lon="13.8365757"><ele>641.0</ele><time>2026-05-02T08:58:49.025Z</time></trkpt><trkpt lat="42.2213023" lon="13.8366563"><ele>638.0</ele><time>2026-05-02T08:58:50.025Z</time></trkpt><trkpt lat="42.2211989" lon="13.8367316"><ele>635.0</ele><time>2026-05-02T08:58:51.025Z</time></trkpt><trkpt lat="42.2210983" lon="13.8368065"><ele>632.0</ele><time>2026-05-02T08:58:52.025Z</time></trkpt><trkpt lat="42.2209991" lon="13.8368869"><ele>629.0</ele><time>2026-05-02T08:58:53.025Z</time></trkpt><trkpt lat="42.2209137" lon="13.8369775"><ele>629.0</ele><time>2026-05-02T08:58:54.024Z</time></trkpt><trkpt lat="42.2208362" lon="13.8370898"><ele>629.0</ele><time>2026-05-02T08:58:55.025Z</time></trkpt><trkpt lat="42.2207596" lon="13.8372037"><ele>629.0</ele><time>2026-05-02T08:58:56.025Z</time></trkpt><trkpt lat="42.2206823" lon="13.8373227"><ele>629.0</ele><time>2026-05-02T08:58:57.025Z</time></trkpt><trkpt lat="42.220605" lon="13.837451"><ele>618.25</ele><time>2026-05-02T08:58:58.024Z</time></trkpt><trkpt lat="42.2205353" lon="13.8375897"><ele>607.5</ele><time>2026-05-02T08:58:59.025Z</time></trkpt><trkpt lat="42.2204803" lon="13.8377417"><ele>596.75</ele><time>2026-05-02T08:59:00.025Z</time></trkpt><trkpt lat="42.2204264" lon="13.8379011"><ele>586.0</ele><time>2026-05-02T08:59:01.024Z</time></trkpt><trkpt lat="42.2203768" lon="13.8380623"><ele>586.0</ele><time>2026-05-02T08:59:02.024Z</time></trkpt><trkpt lat="42.220333" lon="13.8382184"><ele>586.0</ele><time>2026-05-02T08:59:03.024Z</time></trkpt><trkpt lat="42.2202955" lon="13.8383626"><ele>586.0</ele><time>2026-05-02T08:59:04.025Z</time></trkpt><trkpt lat="42.2202757" lon="13.838494"><ele>586.0</ele><time>2026-05-02T08:59:05.025Z</time></trkpt><trkpt lat="42.2202742" lon="13.8386157"><ele>586.0</ele><time>2026-05-02T08:59:06.025Z</time></trkpt><trkpt lat="42.220287" lon="13.8387397"><ele>588.1666666666667</ele><time>2026-05-02T08:59:07.024Z</time></trkpt><trkpt lat="42.2202925" lon="13.8388606"><ele>590.3333333333334</ele><time>2026-05-02T08:59:08.025Z</time></trkpt><trkpt lat="42.2202462" lon="13.838963"><ele>592.5</ele><time>2026-05-02T08:59:09.025Z</time></trkpt><trkpt lat="42.2202138" lon="13.8390478"><ele>594.6666666666666</ele><time>2026-05-02T08:59:10.025Z</time></trkpt><trkpt lat="42.2201604" lon="13.8391232"><ele>596.8333333333333</ele><time>2026-05-02T08:59:11.025Z</time></trkpt><trkpt lat="42.2201107" lon="13.8392129"><ele>599.0</ele><time>2026-05-02T08:59:12.025Z</time></trkpt><trkpt lat="42.2200516" lon="13.839314"><ele>603.6</ele><time>2026-05-02T08:59:13.025Z</time></trkpt><trkpt lat="42.2199867" lon="13.83943"><ele>608.2</ele><time>2026-05-02T08:59:14.024Z</time></trkpt><trkpt lat="42.2199123" lon="13.8395429"><ele>612.8000000000001</ele><time>2026-05-02T08:59:15.025Z</time></trkpt><trkpt lat="42.2198407" lon="13.8396458"><ele>617.4</ele><time>2026-05-02T08:59:16.025Z</time></trkpt><trkpt lat="42.2197602" lon="13.8397569"><ele>622.0</ele><time>2026-05-02T08:59:17.025Z</time></trkpt><trkpt lat="42.2196792" lon="13.8398609"><ele>618.0</ele><time>2026-05-02T08:59:18.024Z</time></trkpt><trkpt lat="42.2195996" lon="13.8399607"><ele>614.0</ele><time>2026-05-02T08:59:19.025Z</time></trkpt><trkpt lat="42.2195266" lon="13.8400589"><ele>610.0</ele><time>2026-05-02T08:59:20.025Z</time></trkpt><trkpt lat="42.2194635" lon="13.8401582"><ele>606.0</ele><time>2026-05-02T08:59:21.025Z</time></trkpt><trkpt lat="42.2193901" lon="13.8402638"><ele>602.0</ele><time>2026-05-02T08:59:22.024Z</time></trkpt><trkpt lat="42.2193214" lon="13.840364"><ele>602.0</ele><time>2026-05-02T08:59:23.025Z</time></trkpt><trkpt lat="42.2192639" lon="13.8404536"><ele>602.0</ele><time>2026-05-02T08:59:24.024Z</time></trkpt><trkpt lat="42.2192205" lon="13.8405226"><ele>602.0</ele><time>2026-05-02T08:59:25.025Z</time></trkpt><trkpt lat="42.2191584" lon="13.8406404"><ele>602.0</ele><time>2026-05-02T08:59:27.025Z</time></trkpt><trkpt lat="42.2190787" lon="13.8406522"><ele>602.0</ele><time>2026-05-02T08:59:29.025Z</time></trkpt><trkpt lat="42.2190391" lon="13.8405389"><ele>602.0</ele><time>2026-05-02T08:59:31.024Z</time></trkpt><trkpt lat="42.2191081" lon="13.8403882"><ele>602.0</ele><time>2026-05-02T08:59:33.025Z</time></trkpt><trkpt lat="42.2191594" lon="13.8402936"><ele>602.0</ele><time>2026-05-02T08:59:34.025Z</time></trkpt><trkpt lat="42.2192125" lon="13.8401786"><ele>602.0</ele><time>2026-05-02T08:59:35.025Z</time></trkpt><trkpt lat="42.2192693" lon="13.8400442"><ele>602.0</ele><time>2026-05-02T08:59:36.025Z</time></trkpt><trkpt lat="42.2193229" lon="13.8398969"><ele>602.0</ele><time>2026-05-02T08:59:37.025Z</time></trkpt><trkpt lat="42.2193794" lon="13.8397477"><ele>594.75</ele><time>2026-05-02T08:59:38.025Z</time></trkpt><trkpt lat="42.2194355" lon="13.8395967"><ele>587.5</ele><time>2026-05-02T08:59:39.025Z</time></trkpt><trkpt lat="42.2194919" lon="13.8394488"><ele>580.25</ele><time>2026-05-02T08:59:40.024Z</time></trkpt><trkpt lat="42.2195507" lon="13.8392996"><ele>573.0</ele><time>2026-05-02T08:59:41.024Z</time></trkpt><trkpt lat="42.2196121" lon="13.8391553"><ele>569.6666666666666</ele><time>2026-05-02T08:59:42.025Z</time></trkpt><trkpt lat="42.219669" lon="13.8390317"><ele>566.3333333333334</ele><time>2026-05-02T08:59:43.025Z</time></trkpt><trkpt lat="42.2197148" lon="13.8389272"><ele>563.0</ele><time>2026-05-02T08:59:44.025Z</time></trkpt><trkpt lat="42.2197448" lon="13.8388257"><ele>559.6666666666667</ele><time>2026-05-02T08:59:45.024Z</time></trkpt><trkpt lat="42.2197508" lon="13.8387196"><ele>556.3333333333334</ele><time>2026-05-02T08:59:46.025Z</time></trkpt><trkpt lat="42.2197429" lon="13.8386059"><ele>553.0</ele><time>2026-05-02T08:59:47.025Z</time></trkpt><trkpt lat="42.2197204" lon="13.8384754"><ele>548.25</ele><time>2026-05-02T08:59:48.025Z</time></trkpt><trkpt lat="42.2196985" lon="13.8383323"><ele>543.5</ele><time>2026-05-02T08:59:49.024Z</time></trkpt><trkpt lat="42.2196874" lon="13.8381843"><ele>538.75</ele><time>2026-05-02T08:59:50.025Z</time></trkpt><trkpt lat="42.2196743" lon="13.8380226"><ele>534.0</ele><time>2026-05-02T08:59:51.025Z</time></trkpt><trkpt lat="42.2196678" lon="13.8378548"><ele>534.0</ele><time>2026-05-02T08:59:52.025Z</time></trkpt><trkpt lat="42.2196644" lon="13.8376852"><ele>534.0</ele><time>2026-05-02T08:59:53.025Z</time></trkpt><trkpt lat="42.2196678" lon="13.8375224"><ele>534.0</ele><time>2026-05-02T08:59:54.024Z</time></trkpt><trkpt lat="42.2196782" lon="13.8373577"><ele>534.0</ele><time>2026-05-02T08:59:55.025Z</time></trkpt><trkpt lat="42.2196982" lon="13.8371894"><ele>531.75</ele><time>2026-05-02T08:59:56.025Z</time></trkpt><trkpt lat="42.2197239" lon="13.83702"><ele>529.5</ele><time>2026-05-02T08:59:57.025Z</time></trkpt><trkpt lat="42.2197508" lon="13.8368594"><ele>527.25</ele><time>2026-05-02T08:59:58.025Z</time></trkpt><trkpt lat="42.2197862" lon="13.8367017"><ele>525.0</ele><time>2026-05-02T08:59:59.025Z</time></trkpt><trkpt lat="42.2198328" lon="13.83655"><ele>532.2</ele><time>2026-05-02T09:00:00.025Z</time></trkpt><trkpt lat="42.2198862" lon="13.8363994"><ele>539.4</ele><time>2026-05-02T09:00:01.025Z</time></trkpt><trkpt lat="42.2199379" lon="13.836261"><ele>546.6</ele><time>2026-05-02T09:00:02.025Z</time></trkpt><trkpt lat="42.2199868" lon="13.8361423"><ele>553.8</ele><time>2026-05-02T09:00:03.025Z</time></trkpt><trkpt lat="42.2200342" lon="13.8360535"><ele>561.0</ele><time>2026-05-02T09:00:04.025Z</time></trkpt><trkpt lat="42.2200818" lon="13.8359878"><ele>561.0</ele><time>2026-05-02T09:00:05.025Z</time></trkpt><trkpt lat="42.2201468" lon="13.8358937"><ele>561.0</ele><time>2026-05-02T09:00:07.024Z</time></trkpt><trkpt lat="42.2201194" lon="13.8358056"><ele>561.0</ele><time>2026-05-02T09:00:09.025Z</time></trkpt><trkpt lat="42.220059" lon="13.835843"><ele>561.0</ele><time>2026-05-02T09:00:10.024Z</time></trkpt><trkpt lat="42.2199438" lon="13.8359615"><ele>561.0</ele><time>2026-05-02T09:00:12.025Z</time></trkpt><trkpt lat="42.219874" lon="13.836049"><ele>548.5</ele><time>2026-05-02T09:00:13.024Z</time></trkpt><trkpt lat="42.2197943" lon="13.8361625"><ele>536.0</ele><time>2026-05-02T09:00:14.025Z</time></trkpt><trkpt lat="42.2197139" lon="13.8362883"><ele>523.5</ele><time>2026-05-02T09:00:15.025Z</time></trkpt><trkpt lat="42.2196326" lon="13.8364286"><ele>511.0</ele><time>2026-05-02T09:00:16.025Z</time></trkpt><trkpt lat="42.2195514" lon="13.8365744"><ele>511.0</ele><time>2026-05-02T09:00:17.025Z</time></trkpt><trkpt lat="42.2194684" lon="13.8367288"><ele>511.0</ele><time>2026-05-02T09:00:18.025Z</time></trkpt><trkpt lat="42.2193898" lon="13.8368912"><ele>511.0</ele><time>2026-05-02T09:00:19.024Z</time></trkpt><trkpt lat="42.2193136" lon="13.8370611"><ele>511.0</ele><time>2026-05-02T09:00:20.025Z</time></trkpt><trkpt lat="42.2192369" lon="13.8372407"><ele>514.5</ele><time>2026-05-02T09:00:21.025Z</time></trkpt><trkpt lat="42.2191683" lon="13.8374057"><ele>518.0</ele><time>2026-05-02T09:00:22.025Z</time></trkpt><trkpt lat="42.2191121" lon="13.8375638"><ele>521.5</ele><time>2026-05-02T09:00:23.025Z</time></trkpt><trkpt lat="42.2190715" lon="13.8377307"><ele>525.0</ele><time>2026-05-02T09:00:24.025Z</time></trkpt><trkpt lat="42.2190419" lon="13.8378977"><ele>526.8</ele><time>2026-05-02T09:00:25.025Z</time></trkpt><trkpt lat="42.2190201" lon="13.838063"><ele>528.6</ele><time>2026-05-02T09:00:26.025Z</time></trkpt><trkpt lat="42.2190019" lon="13.8382184"><ele>530.4</ele><time>2026-05-02T09:00:27.025Z</time></trkpt><trkpt lat="42.2189798" lon="13.8383437"><ele>532.2</ele><time>2026-05-02T09:00:28.025Z</time></trkpt><trkpt lat="42.2189524" lon="13.8384441"><ele>534.0</ele><time>2026-05-02T09:00:29.025Z</time></trkpt><trkpt lat="42.2189091" lon="13.8385109"><ele>528.2</ele><time>2026-05-02T09:00:30.025Z</time></trkpt><trkpt lat="42.2188475" lon="13.8385762"><ele>522.4</ele><time>2026-05-02T09:00:31.025Z</time></trkpt><trkpt lat="42.2187687" lon="13.8386513"><ele>516.6</ele><time>2026-05-02T09:00:32.025Z</time></trkpt><trkpt lat="42.2186814" lon="13.8387279"><ele>510.8</ele><time>2026-05-02T09:00:33.025Z</time></trkpt><trkpt lat="42.2185854" lon="13.8388319"><ele>505.0</ele><time>2026-05-02T09:00:34.025Z</time></trkpt><trkpt lat="42.2184908" lon="13.8389508"><ele>505.0</ele><time>2026-05-02T09:00:35.025Z</time></trkpt><trkpt lat="42.2183999" lon="13.8390673"><ele>505.0</ele><time>2026-05-02T09:00:36.025Z</time></trkpt><trkpt lat="42.2183087" lon="13.8391839"><ele>505.0</ele><time>2026-05-02T09:00:37.025Z</time></trkpt><trkpt lat="42.2182147" lon="13.8393027"><ele>505.0</ele><time>2026-05-02T09:00:38.024Z</time></trkpt><trkpt lat="42.2181225" lon="13.8394166"><ele>501.5</ele><time>2026-05-02T09:00:39.025Z</time></trkpt><trkpt lat="42.218031" lon="13.8395307"><ele>498.0</ele><time>2026-05-02T09:00:40.025Z</time></trkpt><trkpt lat="42.2179404" lon="13.8396464"><ele>494.5</ele><time>2026-05-02T09:00:41.024Z</time></trkpt><trkpt lat="42.217844" lon="13.8397561"><ele>491.0</ele><time>2026-05-02T09:00:42.025Z</time></trkpt><trkpt lat="42.2177491" lon="13.8398612"><ele>491.0</ele><time>2026-05-02T09:00:43.025Z</time></trkpt><trkpt lat="42.2176521" lon="13.8399617"><ele>491.0</ele><time>2026-05-02T09:00:44.025Z</time></trkpt><trkpt lat="42.2175446" lon="13.840065"><ele>491.0</ele><time>2026-05-02T09:00:45.025Z</time></trkpt><trkpt lat="42.2174435" lon="13.840159"><ele>491.0</ele><time>2026-05-02T09:00:46.025Z</time></trkpt><trkpt lat="42.2173395" lon="13.840257"><ele>488.25</ele><time>2026-05-02T09:00:47.025Z</time></trkpt><trkpt lat="42.2172369" lon="13.840351"><ele>485.5</ele><time>2026-05-02T09:00:48.024Z</time></trkpt><trkpt lat="42.2171364" lon="13.8404439"><ele>482.75</ele><time>2026-05-02T09:00:49.025Z</time></trkpt><trkpt lat="42.217032" lon="13.8405289"><ele>480.0</ele><time>2026-05-02T09:00:50.025Z</time></trkpt><trkpt lat="42.2169237" lon="13.84061"><ele>480.0</ele><time>2026-05-02T09:00:51.024Z</time></trkpt><trkpt lat="42.2168149" lon="13.8406787"><ele>480.0</ele><time>2026-05-02T09:00:52.025Z</time></trkpt><trkpt lat="42.2167224" lon="13.840738"><ele>480.0</ele><time>2026-05-02T09:00:53.025Z</time></trkpt><trkpt lat="42.2166318" lon="13.8407956"><ele>480.0</ele><time>2026-05-02T09:00:54.025Z</time></trkpt><trkpt lat="42.2165373" lon="13.8408485"><ele>480.0</ele><time>2026-05-02T09:00:55.025Z</time></trkpt><trkpt lat="42.2164487" lon="13.8409036"><ele>478.0</ele><time>2026-05-02T09:00:56.025Z</time></trkpt><trkpt lat="42.2163583" lon="13.840956"><ele>476.0</ele><time>2026-05-02T09:00:57.024Z</time></trkpt><trkpt lat="42.2162692" lon="13.8410135"><ele>474.0</ele><time>2026-05-02T09:00:58.024Z</time></trkpt><trkpt lat="42.2161781" lon="13.8410687"><ele>472.0</ele><time>2026-05-02T09:00:59.025Z</time></trkpt><trkpt lat="42.2160864" lon="13.8411229"><ele>470.0</ele><time>2026-05-02T09:01:00.024Z</time></trkpt><trkpt lat="42.2159978" lon="13.8411719"><ele>469.99999999999994</ele><time>2026-05-02T09:01:01.024Z</time></trkpt><trkpt lat="42.2159044" lon="13.8412155"><ele>470.0</ele><time>2026-05-02T09:01:02.025Z</time></trkpt><trkpt lat="42.2158114" lon="13.8412534"><ele>470.0</ele><time>2026-05-02T09:01:03.025Z</time></trkpt><trkpt lat="42.215726" lon="13.8412879"><ele>470.0</ele><time>2026-05-02T09:01:04.025Z</time></trkpt><trkpt lat="42.2156419" lon="13.8413012"><ele>469.99999999999994</ele><time>2026-05-02T09:01:05.025Z</time></trkpt><trkpt lat="42.2155624" lon="13.8413046"><ele>470.0</ele><time>2026-05-02T09:01:06.025Z</time></trkpt><trkpt lat="42.2154967" lon="13.8412816"><ele>465.6</ele><time>2026-05-02T09:01:07.024Z</time></trkpt><trkpt lat="42.2154352" lon="13.8412313"><ele>461.2</ele><time>2026-05-02T09:01:08.024Z</time></trkpt><trkpt lat="42.2153792" lon="13.8411472"><ele>456.79999999999995</ele><time>2026-05-02T09:01:09.025Z</time></trkpt><trkpt lat="42.2153282" lon="13.8410291"><ele>452.4</ele><time>2026-05-02T09:01:10.025Z</time></trkpt><trkpt lat="42.2152776" lon="13.8408992"><ele>448.0</ele><time>2026-05-02T09:01:11.025Z</time></trkpt><trkpt lat="42.215231" lon="13.8407723"><ele>446.59999999999997</ele><time>2026-05-02T09:01:12.024Z</time></trkpt><trkpt lat="42.2151854" lon="13.8406549"><ele>445.19999999999993</ele><time>2026-05-02T09:01:13.025Z</time></trkpt><trkpt lat="42.2151491" lon="13.8405463"><ele>443.8</ele><time>2026-05-02T09:01:14.025Z</time></trkpt><trkpt lat="42.2151366" lon="13.8403831"><ele>442.4</ele><time>2026-05-02T09:01:16.025Z</time></trkpt><trkpt lat="42.2151731" lon="13.8402967"><ele>441.0</ele><time>2026-05-02T09:01:17.025Z</time></trkpt><trkpt lat="42.2152414" lon="13.8402149"><ele>441.0</ele><time>2026-05-02T09:01:18.025Z</time></trkpt><trkpt lat="42.2153325" lon="13.8401337"><ele>441.0</ele><time>2026-05-02T09:01:19.025Z</time></trkpt><trkpt lat="42.2154326" lon="13.8400445"><ele>441.0</ele><time>2026-05-02T09:01:20.025Z</time></trkpt><trkpt lat="42.215531" lon="13.8399533"><ele>441.0</ele><time>2026-05-02T09:01:21.025Z</time></trkpt><trkpt lat="42.2156251" lon="13.8398647"><ele>442.0</ele><time>2026-05-02T09:01:22.025Z</time></trkpt><trkpt lat="42.2157148" lon="13.8397785"><ele>443.0</ele><time>2026-05-02T09:01:23.024Z</time></trkpt><trkpt lat="42.2157851" lon="13.8396826"><ele>444.0</ele><time>2026-05-02T09:01:24.025Z</time></trkpt><trkpt lat="42.2158434" lon="13.8395802"><ele>445.0</ele><time>2026-05-02T09:01:25.025Z</time></trkpt><trkpt lat="42.2158999" lon="13.8394596"><ele>446.0</ele><time>2026-05-02T09:01:26.025Z</time></trkpt><trkpt lat="42.215962" lon="13.8393241"><ele>443.0</ele><time>2026-05-02T09:01:27.025Z</time></trkpt><trkpt lat="42.2160249" lon="13.8391763"><ele>440.0</ele><time>2026-05-02T09:01:28.025Z</time></trkpt><trkpt lat="42.2160841" lon="13.8390262"><ele>437.0</ele><time>2026-05-02T09:01:29.025Z</time></trkpt><trkpt lat="42.2161398" lon="13.8388709"><ele>434.0</ele><time>2026-05-02T09:01:30.025Z</time></trkpt><trkpt lat="42.2161912" lon="13.8387158"><ele>434.0</ele><time>2026-05-02T09:01:31.025Z</time></trkpt><trkpt lat="42.2162448" lon="13.8385592"><ele>434.0</ele><time>2026-05-02T09:01:32.025Z</time></trkpt><trkpt lat="42.2162965" lon="13.8383942"><ele>434.0</ele><time>2026-05-02T09:01:33.025Z</time></trkpt><trkpt lat="42.2163437" lon="13.838224"><ele>434.0</ele><time>2026-05-02T09:01:34.025Z</time></trkpt><trkpt lat="42.2163857" lon="13.8380446"><ele>431.25</ele><time>2026-05-02T09:01:35.025Z</time></trkpt><trkpt lat="42.2164333" lon="13.8378628"><ele>428.5</ele><time>2026-05-02T09:01:36.025Z</time></trkpt><trkpt lat="42.2164778" lon="13.8376743"><ele>425.75</ele><time>2026-05-02T09:01:37.025Z</time></trkpt><trkpt lat="42.216522" lon="13.8374855"><ele>423.0</ele><time>2026-05-02T09:01:38.024Z</time></trkpt><trkpt lat="42.2165637" lon="13.8372964"><ele>423.0</ele><time>2026-05-02T09:01:39.025Z</time></trkpt><trkpt lat="42.2166066" lon="13.8371129"><ele>423.0</ele><time>2026-05-02T09:01:40.025Z</time></trkpt><trkpt lat="42.2166455" lon="13.8369402"><ele>423.0</ele><time>2026-05-02T09:01:41.025Z</time></trkpt><trkpt lat="42.2166847" lon="13.8367633"><ele>423.0</ele><time>2026-05-02T09:01:42.025Z</time></trkpt><trkpt lat="42.2167371" lon="13.8365932"><ele>420.0</ele><time>2026-05-02T09:01:43.024Z</time></trkpt><trkpt lat="42.2167965" lon="13.8364238"><ele>417.0</ele><time>2026-05-02T09:01:44.025Z</time></trkpt><trkpt lat="42.2168587" lon="13.8362519"><ele>414.0</ele><time>2026-05-02T09:01:45.025Z</time></trkpt><trkpt lat="42.2169286" lon="13.8360866"><ele>411.0</ele><time>2026-05-02T09:01:46.025Z</time></trkpt><trkpt lat="42.217009" lon="13.8359186"><ele>411.0</ele><time>2026-05-02T09:01:47.025Z</time></trkpt><trkpt lat="42.2170947" lon="13.8357595"><ele>411.0</ele><time>2026-05-02T09:01:48.024Z</time></trkpt><trkpt lat="42.2171774" lon="13.8356123"><ele>411.0</ele><time>2026-05-02T09:01:49.025Z</time></trkpt><trkpt lat="42.217264" lon="13.8354714"><ele>411.0</ele><time>2026-05-02T09:01:50.025Z</time></trkpt><trkpt lat="42.2173424" lon="13.8353445"><ele>411.0</ele><time>2026-05-02T09:01:51.025Z</time></trkpt><trkpt lat="42.217415" lon="13.8352286"><ele>411.0</ele><time>2026-05-02T09:01:52.025Z</time></trkpt><trkpt lat="42.2174796" lon="13.8351147"><ele>411.0</ele><time>2026-05-02T09:01:53.025Z</time></trkpt><trkpt lat="42.2175281" lon="13.8350054"><ele>411.0</ele><time>2026-05-02T09:01:54.025Z</time></trkpt><trkpt lat="42.2175545" lon="13.8348874"><ele>411.0</ele><time>2026-05-02T09:01:55.025Z</time></trkpt><trkpt lat="42.2175621" lon="13.8347493"><ele>408.0</ele><time>2026-05-02T09:01:56.025Z</time></trkpt><trkpt lat="42.2175496" lon="13.8345875"><ele>405.0</ele><time>2026-05-02T09:01:57.025Z</time></trkpt><trkpt lat="42.2175274" lon="13.834414"><ele>402.0</ele><time>2026-05-02T09:01:58.024Z</time></trkpt><trkpt lat="42.2175084" lon="13.8342253"><ele>399.0</ele><time>2026-05-02T09:01:59.025Z</time></trkpt><trkpt lat="42.2174871" lon="13.8340324"><ele>397.0</ele><time>2026-05-02T09:02:00.025Z</time></trkpt><trkpt lat="42.2174644" lon="13.8338412"><ele>395.0</ele><time>2026-05-02T09:02:01.025Z</time></trkpt><trkpt lat="42.2174426" lon="13.8336483"><ele>393.0</ele><time>2026-05-02T09:02:02.024Z</time></trkpt><trkpt lat="42.2174227" lon="13.8334659"><ele>391.0</ele><time>2026-05-02T09:02:03.025Z</time></trkpt><trkpt lat="42.2174063" lon="13.8332901"><ele>389.0</ele><time>2026-05-02T09:02:04.025Z</time></trkpt><trkpt lat="42.2173994" lon="13.833118"><ele>387.0</ele><time>2026-05-02T09:02:05.025Z</time></trkpt><trkpt lat="42.2174043" lon="13.8329496"><ele>385.0</ele><time>2026-05-02T09:02:06.024Z</time></trkpt><trkpt lat="42.217414" lon="13.8327787"><ele>383.0</ele><time>2026-05-02T09:02:07.025Z</time></trkpt><trkpt lat="42.2174275" lon="13.8326091"><ele>381.25</ele><time>2026-05-02T09:02:08.025Z</time></trkpt><trkpt lat="42.2174375" lon="13.8324423"><ele>379.5</ele><time>2026-05-02T09:02:09.025Z</time></trkpt><trkpt lat="42.2174493" lon="13.832268"><ele>377.75</ele><time>2026-05-02T09:02:10.025Z</time></trkpt><trkpt lat="42.2174655" lon="13.8320951"><ele>376.0</ele><time>2026-05-02T09:02:11.025Z</time></trkpt><trkpt lat="42.2174809" lon="13.8319233"><ele>375.0</ele><time>2026-05-02T09:02:12.025Z</time></trkpt><trkpt lat="42.2174972" lon="13.8317485"><ele>374.0</ele><time>2026-05-02T09:02:13.025Z</time></trkpt><trkpt lat="42.217512" lon="13.8315767"><ele>373.0</ele><time>2026-05-02T09:02:14.025Z</time></trkpt><trkpt lat="42.2175358" lon="13.8314079"><ele>372.0</ele><time>2026-05-02T09:02:15.025Z</time></trkpt><trkpt lat="42.217564" lon="13.831234"><ele>372.0</ele><time>2026-05-02T09:02:16.025Z</time></trkpt><trkpt lat="42.2176034" lon="13.8310669"><ele>372.0</ele><time>2026-05-02T09:02:17.025Z</time></trkpt><trkpt lat="42.2176479" lon="13.8309103"><ele>372.0</ele><time>2026-05-02T09:02:18.025Z</time></trkpt><trkpt lat="42.2176925" lon="13.8307555"><ele>372.0</ele><time>2026-05-02T09:02:19.025Z</time></trkpt><trkpt lat="42.2177376" lon="13.8306043"><ele>371.25</ele><time>2026-05-02T09:02:20.025Z</time></trkpt><trkpt lat="42.2177873" lon="13.8304594"><ele>370.5</ele><time>2026-05-02T09:02:21.024Z</time></trkpt><trkpt lat="42.2178459" lon="13.8303192"><ele>369.75</ele><time>2026-05-02T09:02:22.025Z</time></trkpt><trkpt lat="42.2178981" lon="13.8301785"><ele>369.0</ele><time>2026-05-02T09:02:23.025Z</time></trkpt><trkpt lat="42.2179423" lon="13.8300358"><ele>367.75</ele><time>2026-05-02T09:02:24.024Z</time></trkpt><trkpt lat="42.2179806" lon="13.8298873"><ele>366.5</ele><time>2026-05-02T09:02:25.025Z</time></trkpt><trkpt lat="42.2180053" lon="13.8297353"><ele>365.25</ele><time>2026-05-02T09:02:26.025Z</time></trkpt><trkpt lat="42.2180161" lon="13.8295733"><ele>364.0</ele><time>2026-05-02T09:02:27.025Z</time></trkpt><trkpt lat="42.2180103" lon="13.8294065"><ele>363.25</ele><time>2026-05-02T09:02:28.025Z</time></trkpt><trkpt lat="42.2179984" lon="13.8292428"><ele>362.5</ele><time>2026-05-02T09:02:29.024Z</time></trkpt><trkpt lat="42.2179841" lon="13.8290727"><ele>361.75</ele><time>2026-05-02T09:02:30.025Z</time></trkpt><trkpt lat="42.2179697" lon="13.8288973"><ele>361.0</ele><time>2026-05-02T09:02:31.025Z</time></trkpt><trkpt lat="42.2179543" lon="13.8287163"><ele>361.0</ele><time>2026-05-02T09:02:32.024Z</time></trkpt><trkpt lat="42.2179371" lon="13.8285401"><ele>361.0</ele><time>2026-05-02T09:02:33.024Z</time></trkpt><trkpt lat="42.2179204" lon="13.8283603"><ele>361.0</ele><time>2026-05-02T09:02:34.024Z</time></trkpt><trkpt lat="42.2179064" lon="13.8281861"><ele>361.0</ele><time>2026-05-02T09:02:35.025Z</time></trkpt><trkpt lat="42.2178925" lon="13.8280089"><ele>359.75</ele><time>2026-05-02T09:02:36.025Z</time></trkpt><trkpt lat="42.2178778" lon="13.8278348"><ele>358.5</ele><time>2026-05-02T09:02:37.025Z</time></trkpt><trkpt lat="42.2178698" lon="13.8276588"><ele>357.25</ele><time>2026-05-02T09:02:38.025Z</time></trkpt><trkpt lat="42.217862" lon="13.8275"><ele>356.0</ele><time>2026-05-02T09:02:39.025Z</time></trkpt><trkpt lat="42.2178581" lon="13.8273476"><ele>354.6</ele><time>2026-05-02T09:02:40.024Z</time></trkpt><trkpt lat="42.217854" lon="13.8272063"><ele>353.20000000000005</ele><time>2026-05-02T09:02:41.025Z</time></trkpt><trkpt lat="42.2178521" lon="13.8270783"><ele>351.79999999999995</ele><time>2026-05-02T09:02:42.025Z</time></trkpt><trkpt lat="42.2178476" lon="13.8269783"><ele>350.4</ele><time>2026-05-02T09:02:43.025Z</time></trkpt><trkpt lat="42.2177941" lon="13.8268223"><ele>349.0</ele><time>2026-05-02T09:02:45.025Z</time></trkpt><trkpt lat="42.217742" lon="13.8267625"><ele>347.8333333333333</ele><time>2026-05-02T09:02:46.025Z</time></trkpt><trkpt lat="42.2176752" lon="13.8267113"><ele>346.66666666666663</ele><time>2026-05-02T09:02:47.025Z</time></trkpt><trkpt lat="42.2176068" lon="13.826658"><ele>345.5</ele><time>2026-05-02T09:02:48.025Z</time></trkpt><trkpt lat="42.2175344" lon="13.8266099"><ele>344.3333333333333</ele><time>2026-05-02T09:02:49.024Z</time></trkpt><trkpt lat="42.2174662" lon="13.826565"><ele>343.1666666666667</ele><time>2026-05-02T09:02:50.025Z</time></trkpt><trkpt lat="42.21741" lon="13.8265195"><ele>342.0</ele><time>2026-05-02T09:02:51.025Z</time></trkpt><trkpt lat="42.2173443" lon="13.8264134"><ele>342.0</ele><time>2026-05-02T09:02:53.025Z</time></trkpt><trkpt lat="42.2173768" lon="13.8262324"><ele>342.0</ele><time>2026-05-02T09:02:55.025Z</time></trkpt><trkpt lat="42.2174364" lon="13.8261294"><ele>342.0</ele><time>2026-05-02T09:02:56.024Z</time></trkpt><trkpt lat="42.2175127" lon="13.8260244"><ele>342.0</ele><time>2026-05-02T09:02:57.025Z</time></trkpt><trkpt lat="42.2175811" lon="13.8259165"><ele>342.0</ele><time>2026-05-02T09:02:58.025Z</time></trkpt><trkpt lat="42.2176405" lon="13.8258219"><ele>340.1666666666667</ele><time>2026-05-02T09:02:59.025Z</time></trkpt><trkpt lat="42.217682" lon="13.8257468"><ele>338.3333333333333</ele><time>2026-05-02T09:03:00.025Z</time></trkpt><trkpt lat="42.2177212" lon="13.8256526"><ele>336.5</ele><time>2026-05-02T09:03:02.025Z</time></trkpt><trkpt lat="42.217745" lon="13.8255528"><ele>334.66666666666663</ele><time>2026-05-02T09:03:05.025Z</time></trkpt><trkpt lat="42.2177374" lon="13.8254203"><ele>332.8333333333333</ele><time>2026-05-02T09:03:09.025Z</time></trkpt><trkpt lat="42.2177063" lon="13.8253125"><ele>331.0</ele><time>2026-05-02T09:03:11.024Z</time></trkpt><trkpt lat="42.2176346" lon="13.8252246"><ele>331.0</ele><time>2026-05-02T09:03:13.025Z</time></trkpt><trkpt lat="42.2175271" lon="13.8251831"><ele>331.0</ele><time>2026-05-02T09:03:15.025Z</time></trkpt><trkpt lat="42.2174168" lon="13.8251581"><ele>331.0</ele><time>2026-05-02T09:03:17.024Z</time></trkpt><trkpt lat="42.217308" lon="13.8251332"><ele>331.0</ele><time>2026-05-02T09:03:19.025Z</time></trkpt><trkpt lat="42.2172228" lon="13.8251172"><ele>331.0</ele><time>2026-05-02T09:03:21.025Z</time></trkpt><trkpt lat="42.2171637" lon="13.8250734"><ele>329.5</ele><time>2026-05-02T09:03:23.025Z</time></trkpt><trkpt lat="42.217098" lon="13.8249999"><ele>328.0</ele><time>2026-05-02T09:03:25.024Z</time></trkpt><trkpt lat="42.2170078" lon="13.8248865"><ele>326.5</ele><time>2026-05-02T09:03:27.025Z</time></trkpt><trkpt lat="42.2169666" lon="13.8248136"><ele>325.0</ele><time>2026-05-02T09:03:28.025Z</time></trkpt><trkpt lat="42.2169234" lon="13.8247313"><ele>323.5</ele><time>2026-05-02T09:03:29.025Z</time></trkpt><trkpt lat="42.2168855" lon="13.8246414"><ele>322.0</ele><time>2026-05-02T09:03:30.025Z</time></trkpt><trkpt lat="42.2168489" lon="13.8245456"><ele>322.0</ele><time>2026-05-02T09:03:31.025Z</time></trkpt><trkpt lat="42.2168124" lon="13.8244597"><ele>322.0</ele><time>2026-05-02T09:03:32.024Z</time></trkpt><trkpt lat="42.2167781" lon="13.82437"><ele>322.0</ele><time>2026-05-02T09:03:33.025Z</time></trkpt><trkpt lat="42.2167445" lon="13.824287"><ele>322.0</ele><time>2026-05-02T09:03:34.024Z</time></trkpt><trkpt lat="42.2167101" lon="13.8242058"><ele>322.0</ele><time>2026-05-02T09:03:35.025Z</time></trkpt><trkpt lat="42.2166766" lon="13.8241192"><ele>322.0</ele><time>2026-05-02T09:03:36.025Z</time></trkpt><trkpt lat="42.2166401" lon="13.8240327"><ele>322.0</ele><time>2026-05-02T09:03:37.025Z</time></trkpt><trkpt lat="42.2166008" lon="13.8239488"><ele>321.5</ele><time>2026-05-02T09:03:38.024Z</time></trkpt><trkpt lat="42.2165662" lon="13.8238548"><ele>321.0</ele><time>2026-05-02T09:03:39.025Z</time></trkpt><trkpt lat="42.2165256" lon="13.8237567"><ele>320.5</ele><time>2026-05-02T09:03:40.025Z</time></trkpt><trkpt lat="42.2164813" lon="13.8236542"><ele>320.0</ele><time>2026-05-02T09:03:41.025Z</time></trkpt><trkpt lat="42.2164359" lon="13.8235492"><ele>319.5</ele><time>2026-05-02T09:03:42.025Z</time></trkpt><trkpt lat="42.2163846" lon="13.8234362"><ele>319.0</ele><time>2026-05-02T09:03:43.025Z</time></trkpt><trkpt lat="42.2163339" lon="13.8233193"><ele>318.0</ele><time>2026-05-02T09:03:44.025Z</time></trkpt><trkpt lat="42.21629" lon="13.8232055"><ele>317.0</ele><time>2026-05-02T09:03:45.025Z</time></trkpt><trkpt lat="42.2162466" lon="13.8230942"><ele>316.0</ele><time>2026-05-02T09:03:46.025Z</time></trkpt><trkpt lat="42.2162049" lon="13.8229898"><ele>315.0</ele><time>2026-05-02T09:03:47.024Z</time></trkpt><trkpt lat="42.2161654" lon="13.8228925"><ele>314.0</ele><time>2026-05-02T09:03:48.025Z</time></trkpt><trkpt lat="42.2161232" lon="13.8227935"><ele>313.0</ele><time>2026-05-02T09:03:49.025Z</time></trkpt><trkpt lat="42.2160798" lon="13.8226991"><ele>313.3333333333333</ele><time>2026-05-02T09:03:50.025Z</time></trkpt><trkpt lat="42.2160385" lon="13.8225974"><ele>313.66666666666663</ele><time>2026-05-02T09:03:51.025Z</time></trkpt><trkpt lat="42.215994" lon="13.8225031"><ele>314.0</ele><time>2026-05-02T09:03:52.025Z</time></trkpt><trkpt lat="42.2159322" lon="13.8224202"><ele>314.3333333333333</ele><time>2026-05-02T09:03:53.025Z</time></trkpt><trkpt lat="42.2158511" lon="13.822359"><ele>314.6666666666667</ele><time>2026-05-02T09:03:54.025Z</time></trkpt><trkpt lat="42.2157576" lon="13.8223249"><ele>315.0</ele><time>2026-05-02T09:03:55.025Z</time></trkpt><trkpt lat="42.2156583" lon="13.8223084"><ele>315.4</ele><time>2026-05-02T09:03:56.025Z</time></trkpt><trkpt lat="42.2155605" lon="13.8223168"><ele>315.8</ele><time>2026-05-02T09:03:57.025Z</time></trkpt><trkpt lat="42.2154689" lon="13.822339"><ele>316.2</ele><time>2026-05-02T09:03:58.025Z</time></trkpt><trkpt lat="42.2153833" lon="13.8223715"><ele>316.6</ele><time>2026-05-02T09:03:59.025Z</time></trkpt><trkpt lat="42.2153061" lon="13.8224181"><ele>317.0</ele><time>2026-05-02T09:04:00.025Z</time></trkpt><trkpt lat="42.2152255" lon="13.8224572"><ele>317.0</ele><time>2026-05-02T09:04:01.024Z</time></trkpt><trkpt lat="42.2151637" lon="13.8224896"><ele>317.0</ele><time>2026-05-02T09:04:02.025Z</time></trkpt><trkpt lat="42.2150705" lon="13.82254"><ele>317.0</ele><time>2026-05-02T09:04:04.025Z</time></trkpt><trkpt lat="42.2149948" lon="13.8225852"><ele>317.0</ele><time>2026-05-02T09:04:06.025Z</time></trkpt><trkpt lat="42.2149184" lon="13.8226383"><ele>317.0</ele><time>2026-05-02T09:04:08.025Z</time></trkpt><trkpt lat="42.21483" lon="13.8227049"><ele>317.0</ele><time>2026-05-02T09:04:10.025Z</time></trkpt><trkpt lat="42.2147162" lon="13.8227653"><ele>317.0</ele><time>2026-05-02T09:04:12.025Z</time></trkpt><trkpt lat="42.2146036" lon="13.8227932"><ele>317.0</ele><time>2026-05-02T09:04:14.025Z</time></trkpt><trkpt lat="42.2144912" lon="13.8227924"><ele>317.0</ele><time>2026-05-02T09:04:16.025Z</time></trkpt><trkpt lat="42.2143927" lon="13.8227529"><ele>317.0</ele><time>2026-05-02T09:04:18.024Z</time></trkpt><trkpt lat="42.2143208" lon="13.8226887"><ele>317.0</ele><time>2026-05-02T09:04:20.025Z</time></trkpt><trkpt lat="42.214259" lon="13.8226242"><ele>317.0</ele><time>2026-05-02T09:04:22.025Z</time></trkpt><trkpt lat="42.2141928" lon="13.8225314"><ele>317.0</ele><time>2026-05-02T09:04:24.025Z</time></trkpt><trkpt lat="42.2141305" lon="13.8224258"><ele>317.0</ele><time>2026-05-02T09:04:26.025Z</time></trkpt><trkpt lat="42.2140865" lon="13.8223287"><ele>317.0</ele><time>2026-05-02T09:04:28.025Z</time></trkpt><trkpt lat="42.2140519" lon="13.8222144"><ele>317.0</ele><time>2026-05-02T09:04:30.025Z</time></trkpt><trkpt lat="42.2140402" lon="13.8221065"><ele>317.0</ele><time>2026-05-02T09:04:32.025Z</time></trkpt><trkpt lat="42.2140803" lon="13.8220095"><ele>317.0</ele><time>2026-05-02T09:04:34.025Z</time></trkpt><trkpt lat="42.2141766" lon="13.8219056"><ele>317.0</ele><time>2026-05-02T09:04:36.025Z</time></trkpt><trkpt lat="42.214232" lon="13.8218409"><ele>317.0</ele><time>2026-05-02T09:04:37.024Z</time></trkpt><trkpt lat="42.2142923" lon="13.8217703"><ele>317.0</ele><time>2026-05-02T09:04:38.025Z</time></trkpt><trkpt lat="42.2143568" lon="13.8216896"><ele>317.0</ele><time>2026-05-02T09:04:39.025Z</time></trkpt><trkpt lat="42.2144255" lon="13.8216053"><ele>317.4</ele><time>2026-05-02T09:04:40.025Z</time></trkpt><trkpt lat="42.2144952" lon="13.82151"><ele>317.79999999999995</ele><time>2026-05-02T09:04:41.025Z</time></trkpt><trkpt lat="42.2145667" lon="13.8214084"><ele>318.2</ele><time>2026-05-02T09:04:42.025Z</time></trkpt><trkpt lat="42.2146408" lon="13.8212984"><ele>318.59999999999997</ele><time>2026-05-02T09:04:43.025Z</time></trkpt><trkpt lat="42.2147087" lon="13.8211989"><ele>319.0</ele><time>2026-05-02T09:04:44.025Z</time></trkpt><trkpt lat="42.2147613" lon="13.8211151"><ele>319.0</ele><time>2026-05-02T09:04:45.025Z</time></trkpt><trkpt lat="42.2148039" lon="13.8210521"><ele>319.0</ele><time>2026-05-02T09:04:46.025Z</time></trkpt><trkpt lat="42.2148746" lon="13.8209497"><ele>319.0</ele><time>2026-05-02T09:04:48.025Z</time></trkpt><trkpt lat="42.2149323" lon="13.8208475"><ele>319.0</ele><time>2026-05-02T09:04:50.025Z</time></trkpt><trkpt lat="42.2149561" lon="13.8207328"><ele>319.0</ele><time>2026-05-02T09:04:52.025Z</time></trkpt><trkpt lat="42.2149375" lon="13.8206359"><ele>319.0</ele><time>2026-05-02T09:04:54.025Z</time></trkpt><trkpt lat="42.2149123" lon="13.8205341"><ele>319.0</ele><time>2026-05-02T09:04:56.025Z</time></trkpt><trkpt lat="42.2149042" lon="13.8204414"><ele>319.0</ele><time>2026-05-02T09:04:59.025Z</time></trkpt><trkpt lat="42.2148633" lon="13.8203259"><ele>319.0</ele><time>2026-05-02T09:05:05.024Z</time></trkpt><trkpt lat="42.2149" lon="13.8202081"><ele>319.0</ele><time>2026-05-02T09:05:07.025Z</time></trkpt><trkpt lat="42.2149677" lon="13.8201583"><ele>319.0</ele><time>2026-05-02T09:05:09.025Z</time></trkpt><trkpt lat="42.2150404" lon="13.8201624"><ele>319.0</ele><time>2026-05-02T09:13:40.025Z</time></trkpt><trkpt lat="42.2151019" lon="13.8201981"><ele>319.0</ele><time>2026-05-02T09:13:43.025Z</time></trkpt><trkpt lat="42.2151729" lon="13.8202681"><ele>319.0</ele><time>2026-05-02T09:13:46.025Z</time></trkpt><trkpt lat="42.2152299" lon="13.8203087"><ele>319.0</ele><time>2026-05-02T09:13:49.025Z</time></trkpt><trkpt lat="42.2153304" lon="13.8202472"><ele>319.0</ele><time>2026-05-02T09:13:53.025Z</time></trkpt><trkpt lat="42.215382" lon="13.8201871"><ele>319.0</ele><time>2026-05-02T09:13:54.025Z</time></trkpt><trkpt lat="42.2154456" lon="13.8201058"><ele>319.0</ele><time>2026-05-02T09:13:55.025Z</time></trkpt><trkpt lat="42.2155121" lon="13.8200061"><ele>319.0</ele><time>2026-05-02T09:13:56.025Z</time></trkpt><trkpt lat="42.2155855" lon="13.819891"><ele>319.0</ele><time>2026-05-02T09:13:57.025Z</time></trkpt><trkpt lat="42.2156666" lon="13.8197734"><ele>319.0</ele><time>2026-05-02T09:13:58.025Z</time></trkpt><trkpt lat="42.2157542" lon="13.8196514"><ele>319.0</ele><time>2026-05-02T09:13:59.024Z</time></trkpt><trkpt lat="42.2158315" lon="13.8195348"><ele>319.0</ele><time>2026-05-02T09:14:00.024Z</time></trkpt><trkpt lat="42.2159065" lon="13.8194296"><ele>319.0</ele><time>2026-05-02T09:14:01.024Z</time></trkpt><trkpt lat="42.215978" lon="13.8193297"><ele>319.0</ele><time>2026-05-02T09:14:02.025Z</time></trkpt><trkpt lat="42.2160424" lon="13.8192339"><ele>319.0</ele><time>2026-05-02T09:14:03.025Z</time></trkpt><trkpt lat="42.2160938" lon="13.8191532"><ele>319.0</ele><time>2026-05-02T09:14:04.025Z</time></trkpt><trkpt lat="42.2161403" lon="13.8190746"><ele>319.16666666666663</ele><time>2026-05-02T09:14:05.025Z</time></trkpt><trkpt lat="42.2161737" lon="13.8189864"><ele>319.3333333333333</ele><time>2026-05-02T09:14:06.025Z</time></trkpt><trkpt lat="42.2161994" lon="13.8188875"><ele>319.5</ele><time>2026-05-02T09:14:07.025Z</time></trkpt><trkpt lat="42.2162064" lon="13.8187863"><ele>319.6666666666667</ele><time>2026-05-02T09:14:08.025Z</time></trkpt><trkpt lat="42.2161997" lon="13.8186738"><ele>319.83333333333337</ele><time>2026-05-02T09:14:09.025Z</time></trkpt><trkpt lat="42.2161895" lon="13.8185614"><ele>320.0</ele><time>2026-05-02T09:14:10.025Z</time></trkpt><trkpt lat="42.2161948" lon="13.8184637"><ele>319.6666666666667</ele><time>2026-05-02T09:14:11.025Z</time></trkpt><trkpt lat="42.2162191" lon="13.8183803"><ele>319.33333333333337</ele><time>2026-05-02T09:14:12.025Z</time></trkpt><trkpt lat="42.2162551" lon="13.8183008"><ele>319.0</ele><time>2026-05-02T09:14:13.025Z</time></trkpt><trkpt lat="42.216308" lon="13.8182292"><ele>318.6666666666667</ele><time>2026-05-02T09:14:14.025Z</time></trkpt><trkpt lat="42.2163767" lon="13.8181518"><ele>318.3333333333333</ele><time>2026-05-02T09:14:15.025Z</time></trkpt><trkpt lat="42.216453" lon="13.8180704"><ele>318.0</ele><time>2026-05-02T09:14:16.025Z</time></trkpt><trkpt lat="42.2165386" lon="13.8179871"><ele>318.0</ele><time>2026-05-02T09:14:17.024Z</time></trkpt><trkpt lat="42.2166315" lon="13.8178942"><ele>318.0</ele><time>2026-05-02T09:14:18.024Z</time></trkpt><trkpt lat="42.2167338" lon="13.817804"><ele>318.0</ele><time>2026-05-02T09:14:19.025Z</time></trkpt><trkpt lat="42.2168475" lon="13.8177172"><ele>318.0</ele><time>2026-05-02T09:14:20.025Z</time></trkpt><trkpt lat="42.2169713" lon="13.8176366"><ele>318.25</ele><time>2026-05-02T09:14:21.025Z</time></trkpt><trkpt lat="42.2170983" lon="13.8175637"><ele>318.5</ele><time>2026-05-02T09:14:22.025Z</time></trkpt><trkpt lat="42.2172325" lon="13.8175"><ele>318.75</ele><time>2026-05-02T09:14:23.025Z</time></trkpt><trkpt lat="42.2173763" lon="13.8174415"><ele>319.0</ele><time>2026-05-02T09:14:24.025Z</time></trkpt><trkpt lat="42.2175288" lon="13.817399"><ele>319.0</ele><time>2026-05-02T09:14:25.025Z</time></trkpt><trkpt lat="42.2176832" lon="13.8173657"><ele>319.0</ele><time>2026-05-02T09:14:26.025Z</time></trkpt><trkpt lat="42.2178394" lon="13.8173324"><ele>319.0</ele><time>2026-05-02T09:14:27.025Z</time></trkpt><trkpt lat="42.2180003" lon="13.8173025"><ele>318.66666666666663</ele><time>2026-05-02T09:14:28.025Z</time></trkpt><trkpt lat="42.2181633" lon="13.8172699"><ele>318.3333333333333</ele><time>2026-05-02T09:14:29.025Z</time></trkpt><trkpt lat="42.2183277" lon="13.8172349"><ele>318.0</ele><time>2026-05-02T09:14:30.025Z</time></trkpt><trkpt lat="42.2184944" lon="13.8172014"><ele>318.0</ele><time>2026-05-02T09:14:31.025Z</time></trkpt><trkpt lat="42.2186601" lon="13.8171705"><ele>318.0</ele><time>2026-05-02T09:14:32.024Z</time></trkpt><trkpt lat="42.2188266" lon="13.8171388"><ele>318.0</ele><time>2026-05-02T09:14:33.025Z</time></trkpt><trkpt lat="42.2189975" lon="13.8171088"><ele>318.3333333333333</ele><time>2026-05-02T09:14:34.024Z</time></trkpt><trkpt lat="42.219176" lon="13.817084"><ele>318.66666666666663</ele><time>2026-05-02T09:14:35.024Z</time></trkpt><trkpt lat="42.2193495" lon="13.8170586"><ele>319.0</ele><time>2026-05-02T09:14:36.025Z</time></trkpt><trkpt lat="42.2195213" lon="13.8170377"><ele>319.0</ele><time>2026-05-02T09:14:37.025Z</time></trkpt><trkpt lat="42.2196964" lon="13.8170299"><ele>319.0</ele><time>2026-05-02T09:14:38.025Z</time></trkpt><trkpt lat="42.2198766" lon="13.8170385"><ele>319.0</ele><time>2026-05-02T09:14:39.025Z</time></trkpt><trkpt lat="42.2200567" lon="13.8170673"><ele>318.66666666666663</ele><time>2026-05-02T09:14:40.025Z</time></trkpt><trkpt lat="42.2202392" lon="13.8171078"><ele>318.3333333333333</ele><time>2026-05-02T09:14:41.025Z</time></trkpt><trkpt lat="42.220421" lon="13.8171573"><ele>318.0</ele><time>2026-05-02T09:14:42.025Z</time></trkpt><trkpt lat="42.2206029" lon="13.817204"><ele>317.6666666666667</ele><time>2026-05-02T09:14:43.025Z</time></trkpt><trkpt lat="42.2207786" lon="13.8172583"><ele>317.33333333333337</ele><time>2026-05-02T09:14:44.024Z</time></trkpt><trkpt lat="42.2209537" lon="13.8173122"><ele>317.0</ele><time>2026-05-02T09:14:45.025Z</time></trkpt><trkpt lat="42.2211305" lon="13.8173614"><ele>317.0</ele><time>2026-05-02T09:14:46.024Z</time></trkpt><trkpt lat="42.2213076" lon="13.8174052"><ele>317.0</ele><time>2026-05-02T09:14:47.025Z</time></trkpt><trkpt lat="42.2214884" lon="13.8174399"><ele>317.0</ele><time>2026-05-02T09:14:48.025Z</time></trkpt><trkpt lat="42.2216696" lon="13.8174596"><ele>317.0</ele><time>2026-05-02T09:14:49.025Z</time></trkpt><trkpt lat="42.2218509" lon="13.8174629"><ele>317.0</ele><time>2026-05-02T09:14:50.025Z</time></trkpt><trkpt lat="42.2220336" lon="13.8174516"><ele>317.0</ele><time>2026-05-02T09:14:51.024Z</time></trkpt><trkpt lat="42.2222155" lon="13.8174216"><ele>318.0</ele><time>2026-05-02T09:14:52.025Z</time></trkpt><trkpt lat="42.2223938" lon="13.8173696"><ele>319.0</ele><time>2026-05-02T09:14:53.025Z</time></trkpt><trkpt lat="42.2225689" lon="13.8173032"><ele>320.0</ele><time>2026-05-02T09:14:54.025Z</time></trkpt><trkpt lat="42.2227391" lon="13.8172254"><ele>320.0</ele><time>2026-05-02T09:14:55.024Z</time></trkpt><trkpt lat="42.2229114" lon="13.8171375"><ele>320.0</ele><time>2026-05-02T09:14:56.024Z</time></trkpt><trkpt lat="42.2230766" lon="13.8170389"><ele>320.0</ele><time>2026-05-02T09:14:57.025Z</time></trkpt><trkpt lat="42.2232391" lon="13.816925"><ele>320.33333333333337</ele><time>2026-05-02T09:14:58.025Z</time></trkpt><trkpt lat="42.2234" lon="13.8168058"><ele>320.6666666666667</ele><time>2026-05-02T09:14:59.025Z</time></trkpt><trkpt lat="42.2235559" lon="13.8166797"><ele>321.0</ele><time>2026-05-02T09:15:00.025Z</time></trkpt><trkpt lat="42.223712" lon="13.8165545"><ele>321.0</ele><time>2026-05-02T09:15:01.025Z</time></trkpt><trkpt lat="42.2238657" lon="13.8164249"><ele>321.0</ele><time>2026-05-02T09:15:02.025Z</time></trkpt><trkpt lat="42.2240213" lon="13.8162966"><ele>321.0</ele><time>2026-05-02T09:15:03.025Z</time></trkpt><trkpt lat="42.2241766" lon="13.8161667"><ele>320.6666666666667</ele><time>2026-05-02T09:15:04.025Z</time></trkpt><trkpt lat="42.2243259" lon="13.8160415"><ele>320.33333333333337</ele><time>2026-05-02T09:15:05.025Z</time></trkpt><trkpt lat="42.2244859" lon="13.8159153"><ele>320.0</ele><time>2026-05-02T09:15:06.025Z</time></trkpt><trkpt lat="42.2246461" lon="13.8157958"><ele>320.0</ele><time>2026-05-02T09:15:07.024Z</time></trkpt><trkpt lat="42.2248071" lon="13.8156827"><ele>320.0</ele><time>2026-05-02T09:15:08.025Z</time></trkpt><trkpt lat="42.2249715" lon="13.8155874"><ele>320.0</ele><time>2026-05-02T09:15:09.025Z</time></trkpt><trkpt lat="42.2251434" lon="13.8155058"><ele>319.0</ele><time>2026-05-02T09:15:10.024Z</time></trkpt><trkpt lat="42.225321" lon="13.8154361"><ele>318.0</ele><time>2026-05-02T09:15:11.025Z</time></trkpt><trkpt lat="42.2255012" lon="13.8153759"><ele>317.0</ele><time>2026-05-02T09:15:12.025Z</time></trkpt><trkpt lat="42.2256853" lon="13.8153257"><ele>317.0</ele><time>2026-05-02T09:15:13.025Z</time></trkpt><trkpt lat="42.2258739" lon="13.8152751"><ele>317.0</ele><time>2026-05-02T09:15:14.025Z</time></trkpt><trkpt lat="42.2260611" lon="13.8152234"><ele>317.0</ele><time>2026-05-02T09:15:15.025Z</time></trkpt><trkpt lat="42.2262448" lon="13.8151729"><ele>319.0</ele><time>2026-05-02T09:15:16.024Z</time></trkpt><trkpt lat="42.2264205" lon="13.8151264"><ele>321.0</ele><time>2026-05-02T09:15:17.025Z</time></trkpt><trkpt lat="42.2265894" lon="13.815083"><ele>323.0</ele><time>2026-05-02T09:15:18.025Z</time></trkpt><trkpt lat="42.2267501" lon="13.8150426"><ele>323.0</ele><time>2026-05-02T09:15:19.025Z</time></trkpt><trkpt lat="42.2269101" lon="13.8150067"><ele>323.0</ele><time>2026-05-02T09:15:20.025Z</time></trkpt><trkpt lat="42.2270683" lon="13.8149715"><ele>323.0</ele><time>2026-05-02T09:15:21.025Z</time></trkpt><trkpt lat="42.2272192" lon="13.8149398"><ele>321.6666666666667</ele><time>2026-05-02T09:15:22.024Z</time></trkpt><trkpt lat="42.2273698" lon="13.8149159"><ele>320.3333333333333</ele><time>2026-05-02T09:15:23.024Z</time></trkpt><trkpt lat="42.227519" lon="13.8148907"><ele>319.0</ele><time>2026-05-02T09:15:24.025Z</time></trkpt><trkpt lat="42.2276664" lon="13.8148709"><ele>319.0</ele><time>2026-05-02T09:15:25.025Z</time></trkpt><trkpt lat="42.2278053" lon="13.8148548"><ele>319.0</ele><time>2026-05-02T09:15:26.025Z</time></trkpt><trkpt lat="42.2279397" lon="13.8148392"><ele>319.0</ele><time>2026-05-02T09:15:27.025Z</time></trkpt><trkpt lat="42.2280554" lon="13.8148234"><ele>319.0</ele><time>2026-05-02T09:15:28.025Z</time></trkpt><trkpt lat="42.2281641" lon="13.8148122"><ele>319.0</ele><time>2026-05-02T09:15:29.025Z</time></trkpt><trkpt lat="42.2282653" lon="13.8148036"><ele>319.0</ele><time>2026-05-02T09:15:30.025Z</time></trkpt><trkpt lat="42.2283575" lon="13.8148009"><ele>319.0</ele><time>2026-05-02T09:15:31.025Z</time></trkpt><trkpt lat="42.2284429" lon="13.8147905"><ele>319.0</ele><time>2026-05-02T09:15:32.025Z</time></trkpt><trkpt lat="42.2285264" lon="13.814792"><ele>319.0</ele><time>2026-05-02T09:15:33.025Z</time></trkpt><trkpt lat="42.2286077" lon="13.8148052"><ele>319.0</ele><time>2026-05-02T09:15:34.025Z</time></trkpt><trkpt lat="42.2286796" lon="13.8148219"><ele>319.0</ele><time>2026-05-02T09:15:35.025Z</time></trkpt><trkpt lat="42.2287492" lon="13.8148406"><ele>319.0</ele><time>2026-05-02T09:15:36.025Z</time></trkpt><trkpt lat="42.2288129" lon="13.8148626"><ele>319.0</ele><time>2026-05-02T09:15:37.024Z</time></trkpt><trkpt lat="42.2288795" lon="13.8148923"><ele>319.0</ele><time>2026-05-02T09:15:38.025Z</time></trkpt><trkpt lat="42.2289431" lon="13.8149264"><ele>319.0</ele><time>2026-05-02T09:15:39.024Z</time></trkpt><trkpt lat="42.229008" lon="13.8149606"><ele>319.0</ele><time>2026-05-02T09:15:40.025Z</time></trkpt><trkpt lat="42.2290781" lon="13.8149938"><ele>319.0</ele><time>2026-05-02T09:15:41.025Z</time></trkpt><trkpt lat="42.2291473" lon="13.8150285"><ele>318.8333333333333</ele><time>2026-05-02T09:15:42.025Z</time></trkpt><trkpt lat="42.2292131" lon="13.8150642"><ele>318.66666666666663</ele><time>2026-05-02T09:15:43.025Z</time></trkpt><trkpt lat="42.2292757" lon="13.8150952"><ele>318.5</ele><time>2026-05-02T09:15:44.024Z</time></trkpt><trkpt lat="42.229378" lon="13.815136"><ele>318.3333333333333</ele><time>2026-05-02T09:15:46.025Z</time></trkpt><trkpt lat="42.2294554" lon="13.8151929"><ele>318.1666666666667</ele><time>2026-05-02T09:15:48.025Z</time></trkpt><trkpt lat="42.2295138" lon="13.8152446"><ele>318.0</ele><time>2026-05-02T09:15:50.025Z</time></trkpt><trkpt lat="42.229577" lon="13.8153201"><ele>318.0</ele><time>2026-05-02T09:15:52.025Z</time></trkpt><trkpt lat="42.2296494" lon="13.8154294"><ele>318.0</ele><time>2026-05-02T09:15:54.024Z</time></trkpt><trkpt lat="42.2297205" lon="13.8155565"><ele>318.0</ele><time>2026-05-02T09:15:56.024Z</time></trkpt><trkpt lat="42.2297931" lon="13.8156853"><ele>318.0</ele><time>2026-05-02T09:15:58.025Z</time></trkpt><trkpt lat="42.2298619" lon="13.8158073"><ele>318.0</ele><time>2026-05-02T09:16:00.025Z</time></trkpt><trkpt lat="42.2299191" lon="13.8159363"><ele>318.0</ele><time>2026-05-02T09:16:02.025Z</time></trkpt><trkpt lat="42.2299298" lon="13.8160941"><ele>318.0</ele><time>2026-05-02T09:16:04.025Z</time></trkpt><trkpt lat="42.2299176" lon="13.816252"><ele>318.0</ele><time>2026-05-02T09:16:06.025Z</time></trkpt><trkpt lat="42.2299106" lon="13.8163375"><ele>318.0</ele><time>2026-05-02T09:16:07.025Z</time></trkpt><trkpt lat="42.2298975" lon="13.8165063"><ele>317.6</ele><time>2026-05-02T09:16:09.025Z</time></trkpt><trkpt lat="42.2299088" lon="13.8166694"><ele>317.20000000000005</ele><time>2026-05-02T09:16:11.025Z</time></trkpt><trkpt lat="42.2299328" lon="13.8168454"><ele>316.8</ele><time>2026-05-02T09:16:13.025Z</time></trkpt><trkpt lat="42.229944" lon="13.8169399"><ele>316.40000000000003</ele><time>2026-05-02T09:16:14.025Z</time></trkpt><trkpt lat="42.2299575" lon="13.8170307"><ele>316.0</ele><time>2026-05-02T09:16:15.025Z</time></trkpt><trkpt lat="42.2299728" lon="13.8171258"><ele>315.8</ele><time>2026-05-02T09:16:16.025Z</time></trkpt><trkpt lat="42.2299854" lon="13.8172346"><ele>315.6</ele><time>2026-05-02T09:16:17.025Z</time></trkpt><trkpt lat="42.2299968" lon="13.817348"><ele>315.4</ele><time>2026-05-02T09:16:18.025Z</time></trkpt><trkpt lat="42.2300069" lon="13.8174738"><ele>315.2</ele><time>2026-05-02T09:16:19.025Z</time></trkpt><trkpt lat="42.230016" lon="13.8175986"><ele>315.0</ele><time>2026-05-02T09:16:20.025Z</time></trkpt><trkpt lat="42.2300281" lon="13.8177287"><ele>315.0</ele><time>2026-05-02T09:16:21.025Z</time></trkpt><trkpt lat="42.2300394" lon="13.8178605"><ele>315.0</ele><time>2026-05-02T09:16:22.025Z</time></trkpt><trkpt lat="42.2300495" lon="13.8179927"><ele>315.0</ele><time>2026-05-02T09:16:23.024Z</time></trkpt><trkpt lat="42.2300599" lon="13.8181257"><ele>315.0</ele><time>2026-05-02T09:16:24.025Z</time></trkpt><trkpt lat="42.2300684" lon="13.8182547"><ele>315.0</ele><time>2026-05-02T09:16:25.025Z</time></trkpt><trkpt lat="42.2300803" lon="13.8183906"><ele>315.0</ele><time>2026-05-02T09:16:26.025Z</time></trkpt><trkpt lat="42.2300922" lon="13.818527"><ele>315.0</ele><time>2026-05-02T09:16:27.025Z</time></trkpt><trkpt lat="42.2300927" lon="13.8186613"><ele>315.0</ele><time>2026-05-02T09:16:28.025Z</time></trkpt><trkpt lat="42.2300965" lon="13.8187968"><ele>315.0</ele><time>2026-05-02T09:16:29.025Z</time></trkpt><trkpt lat="42.2301006" lon="13.8189308"><ele>315.0</ele><time>2026-05-02T09:16:30.025Z</time></trkpt><trkpt lat="42.2300978" lon="13.8190658"><ele>315.0</ele><time>2026-05-02T09:16:31.025Z</time></trkpt><trkpt lat="42.2301027" lon="13.8192013"><ele>315.0</ele><time>2026-05-02T09:16:32.025Z</time></trkpt><trkpt lat="42.2301103" lon="13.8193287"><ele>315.0</ele><time>2026-05-02T09:16:33.025Z</time></trkpt><trkpt lat="42.2301141" lon="13.8194375"><ele>315.0</ele><time>2026-05-02T09:16:34.025Z</time></trkpt><trkpt lat="42.2301285" lon="13.8195707"><ele>315.0</ele><time>2026-05-02T09:16:36.024Z</time></trkpt><trkpt lat="42.23018" lon="13.8196557"><ele>315.5</ele><time>2026-05-02T09:16:39.025Z</time></trkpt><trkpt lat="42.2302436" lon="13.8196838"><ele>316.0</ele><time>2026-05-02T09:16:42.025Z</time></trkpt><trkpt lat="42.2303374" lon="13.8196559"><ele>316.5</ele><time>2026-05-02T09:17:37.025Z</time></trkpt><trkpt lat="42.2304364" lon="13.819631"><ele>317.0</ele><time>2026-05-02T09:17:39.025Z</time></trkpt><trkpt lat="42.2305062" lon="13.8196219"><ele>317.5</ele><time>2026-05-02T09:17:40.025Z</time></trkpt><trkpt lat="42.2305789" lon="13.8196106"><ele>318.0</ele><time>2026-05-02T09:17:41.025Z</time></trkpt><trkpt lat="42.230658" lon="13.8196051"><ele>319.1666666666667</ele><time>2026-05-02T09:17:42.024Z</time></trkpt><trkpt lat="42.2307446" lon="13.8196"><ele>320.3333333333333</ele><time>2026-05-02T09:17:43.025Z</time></trkpt><trkpt lat="42.2308295" lon="13.8195925"><ele>321.5</ele><time>2026-05-02T09:17:44.025Z</time></trkpt><trkpt lat="42.2309077" lon="13.8195796"><ele>322.66666666666663</ele><time>2026-05-02T09:17:45.025Z</time></trkpt><trkpt lat="42.2309733" lon="13.8195597"><ele>323.8333333333333</ele><time>2026-05-02T09:17:46.025Z</time></trkpt><trkpt lat="42.2310603" lon="13.819528"><ele>325.0</ele><time>2026-05-02T09:17:48.025Z</time></trkpt><trkpt lat="42.2311234" lon="13.8194979"><ele>325.0</ele><time>2026-05-02T09:17:50.024Z</time></trkpt><trkpt lat="42.2312025" lon="13.8194513"><ele>325.0</ele><time>2026-05-02T09:17:53.025Z</time></trkpt><trkpt lat="42.2312805" lon="13.8193977"><ele>325.0</ele><time>2026-05-02T09:17:56.025Z</time></trkpt><trkpt lat="42.2313611" lon="13.8193372"><ele>325.0</ele><time>2026-05-02T09:17:59.025Z</time></trkpt><trkpt lat="42.2314206" lon="13.8192992"><ele>325.0</ele><time>2026-05-02T09:18:01.025Z</time></trkpt><trkpt lat="42.2314911" lon="13.8192611"><ele>325.0</ele><time>2026-05-02T09:18:03.025Z</time></trkpt><trkpt lat="42.2315703" lon="13.8192109"><ele>324.16666666666663</ele><time>2026-05-02T09:18:05.025Z</time></trkpt><trkpt lat="42.2316674" lon="13.8191654"><ele>323.3333333333333</ele><time>2026-05-02T09:18:07.025Z</time></trkpt><trkpt lat="42.2317807" lon="13.819132"><ele>322.5</ele><time>2026-05-02T09:18:09.025Z</time></trkpt><trkpt lat="42.2318444" lon="13.8191188"><ele>321.6666666666667</ele><time>2026-05-02T09:18:10.025Z</time></trkpt><trkpt lat="42.2319132" lon="13.8191112"><ele>320.83333333333337</ele><time>2026-05-02T09:18:11.025Z</time></trkpt><trkpt lat="42.2319907" lon="13.8191027"><ele>320.0</ele><time>2026-05-02T09:18:12.025Z</time></trkpt><trkpt lat="42.232073" lon="13.8190899"><ele>320.0</ele><time>2026-05-02T09:18:13.025Z</time></trkpt><trkpt lat="42.2321597" lon="13.8190791"><ele>320.0</ele><time>2026-05-02T09:18:14.025Z</time></trkpt><trkpt lat="42.232252" lon="13.8190775"><ele>320.0</ele><time>2026-05-02T09:18:15.024Z</time></trkpt><trkpt lat="42.2323523" lon="13.8190716"><ele>320.0</ele><time>2026-05-02T09:18:16.025Z</time></trkpt><trkpt lat="42.2324565" lon="13.8190685"><ele>320.0</ele><time>2026-05-02T09:18:17.025Z</time></trkpt><trkpt lat="42.2325632" lon="13.8190665"><ele>320.2</ele><time>2026-05-02T09:18:18.025Z</time></trkpt><trkpt lat="42.2326677" lon="13.8190605"><ele>320.4</ele><time>2026-05-02T09:18:19.025Z</time></trkpt><trkpt lat="42.2327637" lon="13.8190399"><ele>320.6</ele><time>2026-05-02T09:18:20.024Z</time></trkpt><trkpt lat="42.2328613" lon="13.8190209"><ele>320.8</ele><time>2026-05-02T09:18:21.025Z</time></trkpt><trkpt lat="42.2329565" lon="13.8189872"><ele>321.0</ele><time>2026-05-02T09:18:22.024Z</time></trkpt><trkpt lat="42.2330507" lon="13.8189476"><ele>323.0</ele><time>2026-05-02T09:18:23.025Z</time></trkpt><trkpt lat="42.2331479" lon="13.8189037"><ele>325.0</ele><time>2026-05-02T09:18:24.024Z</time></trkpt><trkpt lat="42.2332378" lon="13.8188599"><ele>327.0</ele><time>2026-05-02T09:18:25.025Z</time></trkpt><trkpt lat="42.2333277" lon="13.8188209"><ele>329.0</ele><time>2026-05-02T09:18:26.025Z</time></trkpt><trkpt lat="42.2334166" lon="13.8187795"><ele>331.0</ele><time>2026-05-02T09:18:27.025Z</time></trkpt><trkpt lat="42.2335022" lon="13.8187359"><ele>331.0</ele><time>2026-05-02T09:18:28.025Z</time></trkpt><trkpt lat="42.2335845" lon="13.8186956"><ele>331.0</ele><time>2026-05-02T09:18:29.025Z</time></trkpt><trkpt lat="42.2336542" lon="13.818647"><ele>331.0</ele><time>2026-05-02T09:18:30.025Z</time></trkpt><trkpt lat="42.2337208" lon="13.8185987"><ele>331.0</ele><time>2026-05-02T09:18:31.025Z</time></trkpt><trkpt lat="42.2337969" lon="13.8185553"><ele>331.0</ele><time>2026-05-02T09:18:32.024Z</time></trkpt><trkpt lat="42.2338621" lon="13.8185086"><ele>331.0</ele><time>2026-05-02T09:18:33.025Z</time></trkpt><trkpt lat="42.2339255" lon="13.8184704"><ele>330.16666666666663</ele><time>2026-05-02T09:18:34.025Z</time></trkpt><trkpt lat="42.2339925" lon="13.8184323"><ele>329.3333333333333</ele><time>2026-05-02T09:18:35.025Z</time></trkpt><trkpt lat="42.2340568" lon="13.8183937"><ele>328.5</ele><time>2026-05-02T09:18:36.025Z</time></trkpt><trkpt lat="42.2341152" lon="13.8183497"><ele>327.6666666666667</ele><time>2026-05-02T09:18:37.025Z</time></trkpt><trkpt lat="42.2342222" lon="13.8182799"><ele>326.83333333333337</ele><time>2026-05-02T09:18:39.025Z</time></trkpt><trkpt lat="42.234313" lon="13.8182047"><ele>326.0</ele><time>2026-05-02T09:18:41.025Z</time></trkpt><trkpt lat="42.2344145" lon="13.8181254"><ele>326.0</ele><time>2026-05-02T09:18:43.025Z</time></trkpt><trkpt lat="42.2345064" lon="13.8180344"><ele>326.0</ele><time>2026-05-02T09:18:45.024Z</time></trkpt><trkpt lat="42.2345865" lon="13.8179405"><ele>326.0</ele><time>2026-05-02T09:18:47.025Z</time></trkpt><trkpt lat="42.2346631" lon="13.8178363"><ele>326.0</ele><time>2026-05-02T09:18:49.025Z</time></trkpt><trkpt lat="42.2347429" lon="13.8177262"><ele>326.0</ele><time>2026-05-02T09:18:51.025Z</time></trkpt><trkpt lat="42.2348152" lon="13.8176165"><ele>325.0</ele><time>2026-05-02T09:18:53.025Z</time></trkpt><trkpt lat="42.2348783" lon="13.8174978"><ele>324.0</ele><time>2026-05-02T09:18:55.025Z</time></trkpt><trkpt lat="42.2349489" lon="13.817381"><ele>323.0</ele><time>2026-05-02T09:18:57.025Z</time></trkpt><trkpt lat="42.2350159" lon="13.817261"><ele>322.0</ele><time>2026-05-02T09:18:59.025Z</time></trkpt><trkpt lat="42.2350856" lon="13.8171326"><ele>321.0</ele><time>2026-05-02T09:19:01.025Z</time></trkpt><trkpt lat="42.2351476" lon="13.8169999"><ele>321.0</ele><time>2026-05-02T09:19:03.025Z</time></trkpt><trkpt lat="42.2352024" lon="13.8168631"><ele>321.0</ele><time>2026-05-02T09:19:05.025Z</time></trkpt><trkpt lat="42.2352633" lon="13.8167248"><ele>321.0</ele><time>2026-05-02T09:19:07.025Z</time></trkpt><trkpt lat="42.2353126" lon="13.8166011"><ele>321.0</ele><time>2026-05-02T09:19:09.025Z</time></trkpt><trkpt lat="42.2353735" lon="13.8164931"><ele>321.0</ele><time>2026-05-02T09:19:11.025Z</time></trkpt><trkpt lat="42.2354518" lon="13.816414"><ele>321.1428571428571</ele><time>2026-05-02T09:19:13.025Z</time></trkpt><trkpt lat="42.2355144" lon="13.816356"><ele>321.2857142857143</ele><time>2026-05-02T09:19:15.024Z</time></trkpt><trkpt lat="42.2355814" lon="13.8163012"><ele>321.42857142857144</ele><time>2026-05-02T09:19:17.025Z</time></trkpt><trkpt lat="42.2356568" lon="13.8162523"><ele>321.57142857142856</ele><time>2026-05-02T09:19:19.025Z</time></trkpt><trkpt lat="42.2357242" lon="13.8162187"><ele>321.7142857142857</ele><time>2026-05-02T09:19:21.025Z</time></trkpt><trkpt lat="42.2357916" lon="13.8162022"><ele>321.85714285714283</ele><time>2026-05-02T09:19:24.024Z</time></trkpt><trkpt lat="42.2358573" lon="13.816188"><ele>322.0</ele><time>2026-05-02T09:20:06.025Z</time></trkpt><trkpt lat="42.2359207" lon="13.8162064"><ele>322.0</ele><time>2026-05-02T09:20:08.025Z</time></trkpt><trkpt lat="42.2360233" lon="13.8162508"><ele>322.0</ele><time>2026-05-02T09:20:10.025Z</time></trkpt><trkpt lat="42.2361027" lon="13.8163338"><ele>322.0</ele><time>2026-05-02T09:20:11.025Z</time></trkpt><trkpt lat="42.2361812" lon="13.8164063"><ele>322.0</ele><time>2026-05-02T09:20:12.025Z</time></trkpt><trkpt lat="42.2362623" lon="13.8164706"><ele>322.0</ele><time>2026-05-02T09:20:13.025Z</time></trkpt><trkpt lat="42.2363352" lon="13.816535"><ele>322.0</ele><time>2026-05-02T09:20:14.025Z</time></trkpt><trkpt lat="42.2364053" lon="13.8165863"><ele>322.0</ele><time>2026-05-02T09:20:15.025Z</time></trkpt><trkpt lat="42.2364764" lon="13.8166309"><ele>322.0</ele><time>2026-05-02T09:20:16.025Z</time></trkpt><trkpt lat="42.2365518" lon="13.8166698"><ele>322.0</ele><time>2026-05-02T09:20:17.025Z</time></trkpt><trkpt lat="42.2366242" lon="13.8167036"><ele>322.0</ele><time>2026-05-02T09:20:18.025Z</time></trkpt><trkpt lat="42.2366992" lon="13.81673"><ele>322.0</ele><time>2026-05-02T09:20:19.025Z</time></trkpt><trkpt lat="42.2367737" lon="13.816746"><ele>321.66666666666663</ele><time>2026-05-02T09:20:20.025Z</time></trkpt><trkpt lat="42.2368491" lon="13.8167556"><ele>321.3333333333333</ele><time>2026-05-02T09:20:21.025Z</time></trkpt><trkpt lat="42.236929" lon="13.816763"><ele>321.0</ele><time>2026-05-02T09:20:22.024Z</time></trkpt><trkpt lat="42.2370113" lon="13.8167608"><ele>320.6666666666667</ele><time>2026-05-02T09:20:23.025Z</time></trkpt><trkpt lat="42.2370939" lon="13.816744"><ele>320.33333333333337</ele><time>2026-05-02T09:20:24.025Z</time></trkpt><trkpt lat="42.2371832" lon="13.8167194"><ele>320.0</ele><time>2026-05-02T09:20:25.025Z</time></trkpt><trkpt lat="42.2372702" lon="13.816683"><ele>319.8</ele><time>2026-05-02T09:20:26.025Z</time></trkpt><trkpt lat="42.2373596" lon="13.8166453"><ele>319.6</ele><time>2026-05-02T09:20:27.025Z</time></trkpt><trkpt lat="42.2374497" lon="13.8166072"><ele>319.4</ele><time>2026-05-02T09:20:28.025Z</time></trkpt><trkpt lat="42.2375419" lon="13.8165647"><ele>319.2</ele><time>2026-05-02T09:20:29.025Z</time></trkpt><trkpt lat="42.2376332" lon="13.8165211"><ele>319.0</ele><time>2026-05-02T09:20:30.025Z</time></trkpt><trkpt lat="42.2377257" lon="13.8164762"><ele>319.0</ele><time>2026-05-02T09:20:31.025Z</time></trkpt><trkpt lat="42.2378131" lon="13.8164291"><ele>319.0</ele><time>2026-05-02T09:20:32.024Z</time></trkpt><trkpt lat="42.2379002" lon="13.81638"><ele>319.0</ele><time>2026-05-02T09:20:33.025Z</time></trkpt><trkpt lat="42.237986" lon="13.816333"><ele>319.0</ele><time>2026-05-02T09:20:34.025Z</time></trkpt><trkpt lat="42.2380711" lon="13.8162866"><ele>319.0</ele><time>2026-05-02T09:20:35.025Z</time></trkpt><trkpt lat="42.238158" lon="13.8162431"><ele>319.0</ele><time>2026-05-02T09:20:36.025Z</time></trkpt><trkpt lat="42.23824" lon="13.8162017"><ele>319.0</ele><time>2026-05-02T09:20:37.025Z</time></trkpt><trkpt lat="42.2383262" lon="13.8161632"><ele>319.0</ele><time>2026-05-02T09:20:38.025Z</time></trkpt><trkpt lat="42.2384133" lon="13.8161282"><ele>319.0</ele><time>2026-05-02T09:20:39.025Z</time></trkpt><trkpt lat="42.2384991" lon="13.8160993"><ele>319.0</ele><time>2026-05-02T09:20:40.025Z</time></trkpt><trkpt lat="42.2385862" lon="13.8160883"><ele>319.0</ele><time>2026-05-02T09:20:41.025Z</time></trkpt><trkpt lat="42.2386726" lon="13.8160924"><ele>319.0</ele><time>2026-05-02T09:20:42.025Z</time></trkpt><trkpt lat="42.238757" lon="13.8161023"><ele>319.0</ele><time>2026-05-02T09:20:43.025Z</time></trkpt><trkpt lat="42.2388482" lon="13.8161155"><ele>319.0</ele><time>2026-05-02T09:20:44.025Z</time></trkpt><trkpt lat="42.2389392" lon="13.8161246"><ele>319.0</ele><time>2026-05-02T09:20:45.025Z</time></trkpt><trkpt lat="42.2390218" lon="13.8161411"><ele>319.0</ele><time>2026-05-02T09:20:46.025Z</time></trkpt><trkpt lat="42.2390992" lon="13.8161579"><ele>319.0</ele><time>2026-05-02T09:20:47.025Z</time></trkpt><trkpt lat="42.2391713" lon="13.8161721"><ele>319.79999999999995</ele><time>2026-05-02T09:20:48.025Z</time></trkpt><trkpt lat="42.2392343" lon="13.8161866"><ele>320.59999999999997</ele><time>2026-05-02T09:20:49.025Z</time></trkpt><trkpt lat="42.2393326" lon="13.8162434"><ele>321.4</ele><time>2026-05-02T09:20:51.025Z</time></trkpt><trkpt lat="42.2393994" lon="13.8163543"><ele>322.2</ele><time>2026-05-02T09:20:53.025Z</time></trkpt><trkpt lat="42.2394626" lon="13.8164656"><ele>323.0</ele><time>2026-05-02T09:20:55.024Z</time></trkpt><trkpt lat="42.2395666" lon="13.8164986"><ele>323.0</ele><time>2026-05-02T09:20:57.025Z</time></trkpt><trkpt lat="42.2396315" lon="13.8164996"><ele>323.0</ele><time>2026-05-02T09:20:58.025Z</time></trkpt><trkpt lat="42.2397124" lon="13.8164889"><ele>323.0</ele><time>2026-05-02T09:20:59.025Z</time></trkpt><trkpt lat="42.2397999" lon="13.8164649"><ele>323.0</ele><time>2026-05-02T09:21:00.024Z</time></trkpt><trkpt lat="42.239887" lon="13.8164251"><ele>323.0</ele><time>2026-05-02T09:21:01.025Z</time></trkpt><trkpt lat="42.2399775" lon="13.8163811"><ele>323.0</ele><time>2026-05-02T09:21:02.025Z</time></trkpt><trkpt lat="42.2400695" lon="13.8163424"><ele>323.79999999999995</ele><time>2026-05-02T09:21:03.024Z</time></trkpt><trkpt lat="42.2401556" lon="13.8163412"><ele>324.6</ele><time>2026-05-02T09:21:04.025Z</time></trkpt><trkpt lat="42.2402522" lon="13.8163357"><ele>325.4</ele><time>2026-05-02T09:21:05.025Z</time></trkpt><trkpt lat="42.2403509" lon="13.8163306"><ele>326.20000000000005</ele><time>2026-05-02T09:21:06.025Z</time></trkpt><trkpt lat="42.2404538" lon="13.816325"><ele>327.0</ele><time>2026-05-02T09:21:07.025Z</time></trkpt><trkpt lat="42.2405549" lon="13.81632"><ele>327.40000000000003</ele><time>2026-05-02T09:21:08.025Z</time></trkpt><trkpt lat="42.2406535" lon="13.8163201"><ele>327.8</ele><time>2026-05-02T09:21:09.025Z</time></trkpt><trkpt lat="42.2407544" lon="13.8163164"><ele>328.2</ele><time>2026-05-02T09:21:10.025Z</time></trkpt><trkpt lat="42.240862" lon="13.8163151"><ele>328.6</ele><time>2026-05-02T09:21:11.024Z</time></trkpt><trkpt lat="42.2409717" lon="13.8163012"><ele>329.0</ele><time>2026-05-02T09:21:12.024Z</time></trkpt><trkpt lat="42.2410697" lon="13.8162808"><ele>329.0</ele><time>2026-05-02T09:21:13.025Z</time></trkpt><trkpt lat="42.2411623" lon="13.816268"><ele>329.0</ele><time>2026-05-02T09:21:14.024Z</time></trkpt><trkpt lat="42.2412453" lon="13.8162351"><ele>329.0</ele><time>2026-05-02T09:21:15.025Z</time></trkpt><trkpt lat="42.2413366" lon="13.8162058"><ele>329.0</ele><time>2026-05-02T09:21:16.025Z</time></trkpt><trkpt lat="42.2414166" lon="13.816151"><ele>329.0</ele><time>2026-05-02T09:21:17.024Z</time></trkpt><trkpt lat="42.2414879" lon="13.816068"><ele>327.6666666666667</ele><time>2026-05-02T09:21:18.025Z</time></trkpt><trkpt lat="42.2415557" lon="13.8159751"><ele>326.33333333333337</ele><time>2026-05-02T09:21:19.025Z</time></trkpt><trkpt lat="42.2416075" lon="13.8158891"><ele>325.0</ele><time>2026-05-02T09:21:20.025Z</time></trkpt><trkpt lat="42.2416402" lon="13.8157988"><ele>323.6666666666667</ele><time>2026-05-02T09:21:21.025Z</time></trkpt><trkpt lat="42.2416475" lon="13.8157049"><ele>322.3333333333333</ele><time>2026-05-02T09:21:22.025Z</time></trkpt><trkpt lat="42.2416458" lon="13.8155994"><ele>321.0</ele><time>2026-05-02T09:21:23.025Z</time></trkpt><trkpt lat="42.2416584" lon="13.8154873"><ele>321.0</ele><time>2026-05-02T09:21:24.025Z</time></trkpt><trkpt lat="42.2416845" lon="13.8153703"><ele>321.0</ele><time>2026-05-02T09:21:25.025Z</time></trkpt><trkpt lat="42.2417169" lon="13.8152533"><ele>321.0</ele><time>2026-05-02T09:21:26.025Z</time></trkpt><trkpt lat="42.2417482" lon="13.8151476"><ele>321.0</ele><time>2026-05-02T09:21:27.025Z</time></trkpt><trkpt lat="42.2417795" lon="13.8150445"><ele>321.0</ele><time>2026-05-02T09:21:28.025Z</time></trkpt><trkpt lat="42.2418087" lon="13.8149465"><ele>321.0</ele><time>2026-05-02T09:21:29.025Z</time></trkpt><trkpt lat="42.2418376" lon="13.8148479"><ele>320.6</ele><time>2026-05-02T09:21:30.025Z</time></trkpt><trkpt lat="42.2418618" lon="13.814764"><ele>320.20000000000005</ele><time>2026-05-02T09:21:31.024Z</time></trkpt><trkpt lat="42.2419157" lon="13.8146352"><ele>319.79999999999995</ele><time>2026-05-02T09:21:33.025Z</time></trkpt><trkpt lat="42.2419855" lon="13.8145488"><ele>319.4</ele><time>2026-05-02T09:21:35.025Z</time></trkpt><trkpt lat="42.2420978" lon="13.8145124"><ele>319.0</ele><time>2026-05-02T09:21:37.025Z</time></trkpt><trkpt lat="42.2421683" lon="13.8145111"><ele>319.0</ele><time>2026-05-02T09:21:38.025Z</time></trkpt><trkpt lat="42.2422784" lon="13.814463"><ele>319.0</ele><time>2026-05-02T09:21:40.025Z</time></trkpt><trkpt lat="42.2423483" lon="13.8144062"><ele>319.0</ele><time>2026-05-02T09:21:41.025Z</time></trkpt><trkpt lat="42.2424123" lon="13.8143471"><ele>319.0</ele><time>2026-05-02T09:21:42.025Z</time></trkpt><trkpt lat="42.24248" lon="13.8142854"><ele>319.0</ele><time>2026-05-02T09:21:43.025Z</time></trkpt><trkpt lat="42.2425396" lon="13.8142173"><ele>319.0</ele><time>2026-05-02T09:21:44.025Z</time></trkpt><trkpt lat="42.2426088" lon="13.8141518"><ele>319.16666666666663</ele><time>2026-05-02T09:21:45.025Z</time></trkpt><trkpt lat="42.2426792" lon="13.8140828"><ele>319.3333333333333</ele><time>2026-05-02T09:21:46.025Z</time></trkpt><trkpt lat="42.2427449" lon="13.814014"><ele>319.5</ele><time>2026-05-02T09:21:47.025Z</time></trkpt><trkpt lat="42.2428192" lon="13.8139401"><ele>319.6666666666667</ele><time>2026-05-02T09:21:48.024Z</time></trkpt><trkpt lat="42.2428869" lon="13.8138642"><ele>319.83333333333337</ele><time>2026-05-02T09:21:49.025Z</time></trkpt><trkpt lat="42.2429558" lon="13.8137867"><ele>320.0</ele><time>2026-05-02T09:21:50.025Z</time></trkpt><trkpt lat="42.2430229" lon="13.813709"><ele>320.0</ele><time>2026-05-02T09:21:51.025Z</time></trkpt><trkpt lat="42.2430837" lon="13.8136256"><ele>320.0</ele><time>2026-05-02T09:21:52.025Z</time></trkpt><trkpt lat="42.243143" lon="13.8135403"><ele>320.0</ele><time>2026-05-02T09:21:53.025Z</time></trkpt><trkpt lat="42.2432031" lon="13.8134591"><ele>320.0</ele><time>2026-05-02T09:21:54.025Z</time></trkpt><trkpt lat="42.2432638" lon="13.8133833"><ele>320.0</ele><time>2026-05-02T09:21:55.025Z</time></trkpt><trkpt lat="42.2433235" lon="13.8133147"><ele>320.0</ele><time>2026-05-02T09:21:56.025Z</time></trkpt><trkpt lat="42.2433845" lon="13.813237"><ele>320.83333333333337</ele><time>2026-05-02T09:21:57.024Z</time></trkpt><trkpt lat="42.2434504" lon="13.8131652"><ele>321.6666666666667</ele><time>2026-05-02T09:21:58.025Z</time></trkpt><trkpt lat="42.2435148" lon="13.8130906"><ele>322.5</ele><time>2026-05-02T09:21:59.025Z</time></trkpt><trkpt lat="42.2435866" lon="13.8130326"><ele>323.3333333333333</ele><time>2026-05-02T09:22:00.025Z</time></trkpt><trkpt lat="42.2436498" lon="13.8129797"><ele>324.16666666666663</ele><time>2026-05-02T09:22:01.025Z</time></trkpt><trkpt lat="42.2437234" lon="13.8129421"><ele>325.0</ele><time>2026-05-02T09:22:02.025Z</time></trkpt><trkpt lat="42.243795" lon="13.8129239"><ele>325.0</ele><time>2026-05-02T09:22:03.025Z</time></trkpt><trkpt lat="42.2438732" lon="13.812903"><ele>325.0</ele><time>2026-05-02T09:22:04.025Z</time></trkpt><trkpt lat="42.2439567" lon="13.8128683"><ele>325.0</ele><time>2026-05-02T09:22:05.025Z</time></trkpt><trkpt lat="42.2440403" lon="13.812829"><ele>325.0</ele><time>2026-05-02T09:22:06.025Z</time></trkpt><trkpt lat="42.2441186" lon="13.8127832"><ele>325.0</ele><time>2026-05-02T09:22:07.025Z</time></trkpt><trkpt lat="42.2441901" lon="13.8127369"><ele>325.0</ele><time>2026-05-02T09:22:08.025Z</time></trkpt><trkpt lat="42.2442723" lon="13.8126958"><ele>324.3333333333333</ele><time>2026-05-02T09:22:09.025Z</time></trkpt><trkpt lat="42.2443548" lon="13.8126695"><ele>323.66666666666663</ele><time>2026-05-02T09:22:10.025Z</time></trkpt><trkpt lat="42.2444379" lon="13.8126489"><ele>323.0</ele><time>2026-05-02T09:22:11.025Z</time></trkpt><trkpt lat="42.2445216" lon="13.8126324"><ele>322.3333333333333</ele><time>2026-05-02T09:22:12.025Z</time></trkpt><trkpt lat="42.2446014" lon="13.8126129"><ele>321.6666666666667</ele><time>2026-05-02T09:22:13.025Z</time></trkpt><trkpt lat="42.244678" lon="13.8125761"><ele>321.0</ele><time>2026-05-02T09:22:14.025Z</time></trkpt><trkpt lat="42.2447494" lon="13.8125278"><ele>322.1666666666667</ele><time>2026-05-02T09:22:15.024Z</time></trkpt><trkpt lat="42.2448138" lon="13.812479"><ele>323.3333333333333</ele><time>2026-05-02T09:22:16.024Z</time></trkpt><trkpt lat="42.2448734" lon="13.8124162"><ele>324.5</ele><time>2026-05-02T09:22:17.024Z</time></trkpt><trkpt lat="42.2449258" lon="13.8123366"><ele>325.66666666666663</ele><time>2026-05-02T09:22:18.025Z</time></trkpt><trkpt lat="42.2449707" lon="13.8122669"><ele>326.8333333333333</ele><time>2026-05-02T09:22:19.024Z</time></trkpt><trkpt lat="42.2450093" lon="13.8121674"><ele>328.0</ele><time>2026-05-02T09:22:20.025Z</time></trkpt><trkpt lat="42.2450278" lon="13.8120675"><ele>327.99999999999994</ele><time>2026-05-02T09:22:21.025Z</time></trkpt><trkpt lat="42.2450422" lon="13.8119756"><ele>328.0</ele><time>2026-05-02T09:22:22.025Z</time></trkpt><trkpt lat="42.2450613" lon="13.811879"><ele>328.0</ele><time>2026-05-02T09:22:23.025Z</time></trkpt><trkpt lat="42.2450826" lon="13.8117799"><ele>328.0</ele><time>2026-05-02T09:22:24.025Z</time></trkpt><trkpt lat="42.2451108" lon="13.8116824"><ele>328.0</ele><time>2026-05-02T09:22:25.025Z</time></trkpt><trkpt lat="42.2451454" lon="13.811601"><ele>327.99999999999994</ele><time>2026-05-02T09:22:26.025Z</time></trkpt><trkpt lat="42.2451859" lon="13.8115174"><ele>328.0</ele><time>2026-05-02T09:22:27.025Z</time></trkpt><trkpt lat="42.2452378" lon="13.8114431"><ele>327.3333333333333</ele><time>2026-05-02T09:22:28.024Z</time></trkpt><trkpt lat="42.2452971" lon="13.8113751"><ele>326.66666666666663</ele><time>2026-05-02T09:22:29.025Z</time></trkpt><trkpt lat="42.2453581" lon="13.8113131"><ele>326.0</ele><time>2026-05-02T09:22:30.025Z</time></trkpt><trkpt lat="42.2454244" lon="13.8112463"><ele>325.3333333333333</ele><time>2026-05-02T09:22:31.025Z</time></trkpt><trkpt lat="42.2454951" lon="13.8111807"><ele>324.6666666666667</ele><time>2026-05-02T09:22:32.025Z</time></trkpt><trkpt lat="42.2455552" lon="13.8111117"><ele>324.0</ele><time>2026-05-02T09:22:33.025Z</time></trkpt><trkpt lat="42.2456117" lon="13.8110385"><ele>324.2</ele><time>2026-05-02T09:22:34.025Z</time></trkpt><trkpt lat="42.2456535" lon="13.8109657"><ele>324.4</ele><time>2026-05-02T09:22:35.025Z</time></trkpt><trkpt lat="42.2457436" lon="13.810839"><ele>324.6</ele><time>2026-05-02T09:22:37.025Z</time></trkpt><trkpt lat="42.2458173" lon="13.8107368"><ele>324.8</ele><time>2026-05-02T09:22:39.025Z</time></trkpt><trkpt lat="42.2458846" lon="13.8106543"><ele>325.0</ele><time>2026-05-02T09:22:41.025Z</time></trkpt><trkpt lat="42.2459701" lon="13.810578"><ele>325.0</ele><time>2026-05-02T09:22:43.024Z</time></trkpt><trkpt lat="42.2460423" lon="13.8104983"><ele>325.0</ele><time>2026-05-02T09:22:45.025Z</time></trkpt><trkpt lat="42.2461004" lon="13.8104042"><ele>325.0</ele><time>2026-05-02T09:22:47.025Z</time></trkpt><trkpt lat="42.2461643" lon="13.8103076"><ele>325.0</ele><time>2026-05-02T09:22:49.025Z</time></trkpt><trkpt lat="42.2462307" lon="13.8102213"><ele>325.0</ele><time>2026-05-02T09:22:51.025Z</time></trkpt><trkpt lat="42.2462916" lon="13.8101372"><ele>325.0</ele><time>2026-05-02T09:22:53.025Z</time></trkpt><trkpt lat="42.2463405" lon="13.810044"><ele>325.0</ele><time>2026-05-02T09:22:55.024Z</time></trkpt><trkpt lat="42.2463819" lon="13.8099426"><ele>325.0</ele><time>2026-05-02T09:22:57.025Z</time></trkpt><trkpt lat="42.2464162" lon="13.8098448"><ele>325.0</ele><time>2026-05-02T09:22:59.025Z</time></trkpt><trkpt lat="42.2464417" lon="13.8097358"><ele>325.0</ele><time>2026-05-02T09:23:01.025Z</time></trkpt><trkpt lat="42.2464764" lon="13.8096348"><ele>325.0</ele><time>2026-05-02T09:23:03.025Z</time></trkpt><trkpt lat="42.2465032" lon="13.8095354"><ele>325.0</ele><time>2026-05-02T09:23:05.025Z</time></trkpt><trkpt lat="42.2465391" lon="13.8094231"><ele>325.0</ele><time>2026-05-02T09:23:08.025Z</time></trkpt><trkpt lat="42.2465736" lon="13.8093426"><ele>325.0</ele><time>2026-05-02T09:23:26.025Z</time></trkpt><trkpt lat="42.2466013" lon="13.8092434"><ele>325.0</ele><time>2026-05-02T09:23:29.024Z</time></trkpt><trkpt lat="42.246621" lon="13.8091541"><ele>325.0</ele><time>2026-05-02T09:23:31.025Z</time></trkpt><trkpt lat="42.2466421" lon="13.8090605"><ele>325.0</ele><time>2026-05-02T09:23:33.025Z</time></trkpt><trkpt lat="42.2466695" lon="13.8089597"><ele>325.0</ele><time>2026-05-02T09:23:35.024Z</time></trkpt><trkpt lat="42.2466988" lon="13.8088569"><ele>325.0</ele><time>2026-05-02T09:23:37.024Z</time></trkpt><trkpt lat="42.2467274" lon="13.8087516"><ele>325.0</ele><time>2026-05-02T09:23:39.024Z</time></trkpt><trkpt lat="42.246757" lon="13.8086471"><ele>325.0</ele><time>2026-05-02T09:23:41.025Z</time></trkpt><trkpt lat="42.2467865" lon="13.8085386"><ele>325.0</ele><time>2026-05-02T09:23:43.025Z</time></trkpt><trkpt lat="42.2468099" lon="13.8084148"><ele>325.0</ele><time>2026-05-02T09:23:45.025Z</time></trkpt><trkpt lat="42.2468245" lon="13.8082795"><ele>325.0</ele><time>2026-05-02T09:23:47.025Z</time></trkpt><trkpt lat="42.2468575" lon="13.8081566"><ele>325.0</ele><time>2026-05-02T09:23:49.025Z</time></trkpt><trkpt lat="42.2469158" lon="13.8080392"><ele>325.0</ele><time>2026-05-02T09:23:51.025Z</time></trkpt><trkpt lat="42.2469996" lon="13.8079131"><ele>325.0</ele><time>2026-05-02T09:23:53.025Z</time></trkpt><trkpt lat="42.2470441" lon="13.8078508"><ele>325.0</ele><time>2026-05-02T09:23:54.024Z</time></trkpt><trkpt lat="42.2471404" lon="13.8077523"><ele>325.0</ele><time>2026-05-02T09:23:56.025Z</time></trkpt><trkpt lat="42.2472274" lon="13.8076632"><ele>325.0</ele><time>2026-05-02T09:23:58.025Z</time></trkpt><trkpt lat="42.2472981" lon="13.8075934"><ele>325.0</ele><time>2026-05-02T09:24:00.024Z</time></trkpt><trkpt lat="42.2473615" lon="13.8075396"><ele>325.0</ele><time>2026-05-02T09:24:02.025Z</time></trkpt><trkpt lat="42.247439" lon="13.8074777"><ele>325.0</ele><time>2026-05-02T09:24:05.025Z</time></trkpt><trkpt lat="42.2474969" lon="13.8074249"><ele>325.0</ele><time>2026-05-02T09:24:09.025Z</time></trkpt><trkpt lat="42.2475554" lon="13.8073749"><ele>325.16666666666663</ele><time>2026-05-02T09:24:16.025Z</time></trkpt><trkpt lat="42.2476072" lon="13.8073004"><ele>325.3333333333333</ele><time>2026-05-02T09:24:20.025Z</time></trkpt><trkpt lat="42.2476475" lon="13.8072339"><ele>325.5</ele><time>2026-05-02T09:24:22.025Z</time></trkpt><trkpt lat="42.2476872" lon="13.8071391"><ele>325.6666666666667</ele><time>2026-05-02T09:24:24.025Z</time></trkpt><trkpt lat="42.2477233" lon="13.8070066"><ele>325.83333333333337</ele><time>2026-05-02T09:24:26.025Z</time></trkpt><trkpt lat="42.2477453" lon="13.8068417"><ele>326.0</ele><time>2026-05-02T09:24:28.025Z</time></trkpt><trkpt lat="42.2477557" lon="13.8067524"><ele>326.0</ele><time>2026-05-02T09:24:29.025Z</time></trkpt><trkpt lat="42.2477721" lon="13.8066658"><ele>326.0</ele><time>2026-05-02T09:24:30.025Z</time></trkpt><trkpt lat="42.2478126" lon="13.8065156"><ele>326.0</ele><time>2026-05-02T09:24:32.024Z</time></trkpt><trkpt lat="42.2478655" lon="13.8063801"><ele>326.0</ele><time>2026-05-02T09:24:34.025Z</time></trkpt><trkpt lat="42.2479395" lon="13.8062491"><ele>326.0</ele><time>2026-05-02T09:24:36.024Z</time></trkpt><trkpt lat="42.2480105" lon="13.8061096"><ele>326.33333333333337</ele><time>2026-05-02T09:24:38.025Z</time></trkpt><trkpt lat="42.2480775" lon="13.8059701"><ele>326.6666666666667</ele><time>2026-05-02T09:24:40.025Z</time></trkpt><trkpt lat="42.248142" lon="13.8058347"><ele>327.0</ele><time>2026-05-02T09:24:42.024Z</time></trkpt><trkpt lat="42.2481829" lon="13.8057684"><ele>327.3333333333333</ele><time>2026-05-02T09:24:43.025Z</time></trkpt><trkpt lat="42.2482261" lon="13.8056986"><ele>327.66666666666663</ele><time>2026-05-02T09:24:44.025Z</time></trkpt><trkpt lat="42.2482697" lon="13.8056223"><ele>328.0</ele><time>2026-05-02T09:24:45.025Z</time></trkpt><trkpt lat="42.2483131" lon="13.8055447"><ele>329.16666666666663</ele><time>2026-05-02T09:24:46.025Z</time></trkpt><trkpt lat="42.2483578" lon="13.8054753"><ele>330.3333333333333</ele><time>2026-05-02T09:24:47.025Z</time></trkpt><trkpt lat="42.2484068" lon="13.8054207"><ele>331.5</ele><time>2026-05-02T09:24:48.025Z</time></trkpt><trkpt lat="42.2485132" lon="13.8053273"><ele>332.6666666666667</ele><time>2026-05-02T09:24:50.025Z</time></trkpt><trkpt lat="42.2485737" lon="13.8052899"><ele>333.83333333333337</ele><time>2026-05-02T09:24:51.024Z</time></trkpt><trkpt lat="42.2486368" lon="13.8052555"><ele>335.0</ele><time>2026-05-02T09:24:52.025Z</time></trkpt><trkpt lat="42.2487084" lon="13.8052378"><ele>334.99999999999994</ele><time>2026-05-02T09:24:53.024Z</time></trkpt><trkpt lat="42.2487837" lon="13.8052247"><ele>335.0</ele><time>2026-05-02T09:24:54.025Z</time></trkpt><trkpt lat="42.2488603" lon="13.8052118"><ele>335.0</ele><time>2026-05-02T09:24:55.025Z</time></trkpt><trkpt lat="42.2489322" lon="13.8051906"><ele>335.0</ele><time>2026-05-02T09:24:56.025Z</time></trkpt><trkpt lat="42.2489978" lon="13.80516"><ele>335.0</ele><time>2026-05-02T09:24:57.025Z</time></trkpt><trkpt lat="42.24906" lon="13.8051196"><ele>334.99999999999994</ele><time>2026-05-02T09:24:58.025Z</time></trkpt><trkpt lat="42.2491217" lon="13.8050653"><ele>335.0</ele><time>2026-05-02T09:24:59.025Z</time></trkpt><trkpt lat="42.2491797" lon="13.805002"><ele>335.4</ele><time>2026-05-02T09:25:00.025Z</time></trkpt><trkpt lat="42.2492365" lon="13.8049316"><ele>335.8</ele><time>2026-05-02T09:25:01.025Z</time></trkpt><trkpt lat="42.2492882" lon="13.8048609"><ele>336.20000000000005</ele><time>2026-05-02T09:25:02.025Z</time></trkpt><trkpt lat="42.249367" lon="13.8047755"><ele>336.6</ele><time>2026-05-02T09:25:04.025Z</time></trkpt><trkpt lat="42.2494444" lon="13.8047962"><ele>337.0</ele><time>2026-05-02T09:25:06.025Z</time></trkpt><trkpt lat="42.249553" lon="13.8048937"><ele>337.0</ele><time>2026-05-02T09:25:08.024Z</time></trkpt><trkpt lat="42.249619" lon="13.8049535"><ele>337.0</ele><time>2026-05-02T09:25:09.025Z</time></trkpt><trkpt lat="42.2496975" lon="13.8049998"><ele>337.0</ele><time>2026-05-02T09:25:10.024Z</time></trkpt><trkpt lat="42.2497845" lon="13.8050296"><ele>337.0</ele><time>2026-05-02T09:25:11.025Z</time></trkpt><trkpt lat="42.2498743" lon="13.8050408"><ele>337.0</ele><time>2026-05-02T09:25:12.025Z</time></trkpt><trkpt lat="42.2499723" lon="13.805037"><ele>337.0</ele><time>2026-05-02T09:25:13.024Z</time></trkpt><trkpt lat="42.2500725" lon="13.805029"><ele>337.40000000000003</ele><time>2026-05-02T09:25:14.025Z</time></trkpt><trkpt lat="42.2501734" lon="13.8050191"><ele>337.8</ele><time>2026-05-02T09:25:15.025Z</time></trkpt><trkpt lat="42.2502724" lon="13.8050118"><ele>338.2</ele><time>2026-05-02T09:25:16.024Z</time></trkpt><trkpt lat="42.250377" lon="13.8049974"><ele>338.6</ele><time>2026-05-02T09:25:17.025Z</time></trkpt><trkpt lat="42.2504838" lon="13.8049876"><ele>339.0</ele><time>2026-05-02T09:25:18.025Z</time></trkpt><trkpt lat="42.250595" lon="13.804979"><ele>341.0</ele><time>2026-05-02T09:25:19.025Z</time></trkpt><trkpt lat="42.2507025" lon="13.8049708"><ele>343.0</ele><time>2026-05-02T09:25:20.025Z</time></trkpt><trkpt lat="42.2507972" lon="13.8049655"><ele>345.0</ele><time>2026-05-02T09:25:21.025Z</time></trkpt><trkpt lat="42.2508896" lon="13.8049681"><ele>347.0</ele><time>2026-05-02T09:25:22.025Z</time></trkpt><trkpt lat="42.2509772" lon="13.8049889"><ele>349.0</ele><time>2026-05-02T09:25:23.024Z</time></trkpt><trkpt lat="42.2510546" lon="13.8050587"><ele>349.0</ele><time>2026-05-02T09:25:24.025Z</time></trkpt><trkpt lat="42.2511193" lon="13.8051426"><ele>349.0</ele><time>2026-05-02T09:25:25.024Z</time></trkpt><trkpt lat="42.2511656" lon="13.805256"><ele>349.0</ele><time>2026-05-02T09:25:26.025Z</time></trkpt><trkpt lat="42.2511937" lon="13.8053915"><ele>349.0</ele><time>2026-05-02T09:25:27.024Z</time></trkpt><trkpt lat="42.2512067" lon="13.8055405"><ele>349.0</ele><time>2026-05-02T09:25:28.025Z</time></trkpt><trkpt lat="42.2512202" lon="13.8056923"><ele>349.0</ele><time>2026-05-02T09:25:29.025Z</time></trkpt><trkpt lat="42.2512429" lon="13.8058464"><ele>349.0</ele><time>2026-05-02T09:25:30.025Z</time></trkpt><trkpt lat="42.2512756" lon="13.8060014"><ele>349.0</ele><time>2026-05-02T09:25:31.025Z</time></trkpt><trkpt lat="42.2513212" lon="13.8061528"><ele>349.0</ele><time>2026-05-02T09:25:32.025Z</time></trkpt><trkpt lat="42.2513836" lon="13.8062994"><ele>349.0</ele><time>2026-05-02T09:25:33.024Z</time></trkpt><trkpt lat="42.2514485" lon="13.806451"><ele>349.0</ele><time>2026-05-02T09:25:34.025Z</time></trkpt><trkpt lat="42.2515164" lon="13.8066051"><ele>349.0</ele><time>2026-05-02T09:25:35.025Z</time></trkpt><trkpt lat="42.2515853" lon="13.8067651"><ele>349.0</ele><time>2026-05-02T09:25:36.025Z</time></trkpt><trkpt lat="42.2516593" lon="13.8069274"><ele>351.0</ele><time>2026-05-02T09:25:37.025Z</time></trkpt><trkpt lat="42.2517316" lon="13.8070929"><ele>353.0</ele><time>2026-05-02T09:25:38.025Z</time></trkpt><trkpt lat="42.2518035" lon="13.8072595"><ele>355.0</ele><time>2026-05-02T09:25:39.024Z</time></trkpt><trkpt lat="42.251879" lon="13.8074238"><ele>357.0</ele><time>2026-05-02T09:25:40.025Z</time></trkpt><trkpt lat="42.2519533" lon="13.8075823"><ele>357.0</ele><time>2026-05-02T09:25:41.024Z</time></trkpt><trkpt lat="42.2520304" lon="13.8077435"><ele>357.0</ele><time>2026-05-02T09:25:42.024Z</time></trkpt><trkpt lat="42.2521077" lon="13.8079013"><ele>357.0</ele><time>2026-05-02T09:25:43.025Z</time></trkpt><trkpt lat="42.2521877" lon="13.8080606"><ele>357.0</ele><time>2026-05-02T09:25:44.025Z</time></trkpt><trkpt lat="42.2522734" lon="13.8082139"><ele>359.25</ele><time>2026-05-02T09:25:45.025Z</time></trkpt><trkpt lat="42.2523602" lon="13.8083635"><ele>361.5</ele><time>2026-05-02T09:25:46.025Z</time></trkpt><trkpt lat="42.2524443" lon="13.8085005"><ele>363.75</ele><time>2026-05-02T09:25:47.025Z</time></trkpt><trkpt lat="42.2525178" lon="13.8086206"><ele>366.0</ele><time>2026-05-02T09:25:48.025Z</time></trkpt><trkpt lat="42.2525821" lon="13.8087321"><ele>366.0</ele><time>2026-05-02T09:25:49.025Z</time></trkpt><trkpt lat="42.2526311" lon="13.8088288"><ele>366.0</ele><time>2026-05-02T09:25:50.025Z</time></trkpt><trkpt lat="42.2526714" lon="13.8089139"><ele>366.0</ele><time>2026-05-02T09:25:51.025Z</time></trkpt><trkpt lat="42.2527036" lon="13.8090028"><ele>366.0</ele><time>2026-05-02T09:25:52.025Z</time></trkpt><trkpt lat="42.2527407" lon="13.8091009"><ele>366.0</ele><time>2026-05-02T09:25:53.024Z</time></trkpt><trkpt lat="42.2528013" lon="13.8092045"><ele>366.0</ele><time>2026-05-02T09:25:54.025Z</time></trkpt><trkpt lat="42.2528815" lon="13.8093356"><ele>366.5</ele><time>2026-05-02T09:25:55.025Z</time></trkpt><trkpt lat="42.2529711" lon="13.8094662"><ele>367.0</ele><time>2026-05-02T09:25:56.025Z</time></trkpt><trkpt lat="42.2530808" lon="13.8095878"><ele>367.5</ele><time>2026-05-02T09:25:57.025Z</time></trkpt><trkpt lat="42.2531905" lon="13.8097143"><ele>368.0</ele><time>2026-05-02T09:25:58.025Z</time></trkpt><trkpt lat="42.2532975" lon="13.8098491"><ele>369.5</ele><time>2026-05-02T09:25:59.025Z</time></trkpt><trkpt lat="42.2534077" lon="13.8099759"><ele>371.0</ele><time>2026-05-02T09:26:00.025Z</time></trkpt><trkpt lat="42.2535265" lon="13.8100864"><ele>372.5</ele><time>2026-05-02T09:26:01.025Z</time></trkpt><trkpt lat="42.2536451" lon="13.8101922"><ele>374.0</ele><time>2026-05-02T09:26:02.025Z</time></trkpt><trkpt lat="42.2537581" lon="13.8103138"><ele>374.0</ele><time>2026-05-02T09:26:03.025Z</time></trkpt><trkpt lat="42.2538589" lon="13.8104513"><ele>374.0</ele><time>2026-05-02T09:26:04.025Z</time></trkpt><trkpt lat="42.2539567" lon="13.8105906"><ele>374.0</ele><time>2026-05-02T09:26:05.025Z</time></trkpt><trkpt lat="42.2540639" lon="13.8107195"><ele>374.0</ele><time>2026-05-02T09:26:06.025Z</time></trkpt><trkpt lat="42.2541735" lon="13.8108373"><ele>375.5</ele><time>2026-05-02T09:26:07.025Z</time></trkpt><trkpt lat="42.2542703" lon="13.8109376"><ele>377.0</ele><time>2026-05-02T09:26:08.024Z</time></trkpt><trkpt lat="42.2543647" lon="13.8110484"><ele>378.5</ele><time>2026-05-02T09:26:09.025Z</time></trkpt><trkpt lat="42.2544479" lon="13.8111791"><ele>380.0</ele><time>2026-05-02T09:26:10.024Z</time></trkpt><trkpt lat="42.2545137" lon="13.8113138"><ele>380.1666666666667</ele><time>2026-05-02T09:26:11.024Z</time></trkpt><trkpt lat="42.2545683" lon="13.8114317"><ele>380.33333333333337</ele><time>2026-05-02T09:26:12.025Z</time></trkpt><trkpt lat="42.2546001" lon="13.8115392"><ele>380.5</ele><time>2026-05-02T09:26:13.025Z</time></trkpt><trkpt lat="42.2546174" lon="13.8116331"><ele>380.6666666666667</ele><time>2026-05-02T09:26:14.025Z</time></trkpt><trkpt lat="42.2546555" lon="13.8117498"><ele>380.8333333333333</ele><time>2026-05-02T09:26:16.025Z</time></trkpt><trkpt lat="42.254723" lon="13.8117816"><ele>381.0</ele><time>2026-05-02T09:26:18.025Z</time></trkpt><trkpt lat="42.2547858" lon="13.8117121"><ele>382.3333333333333</ele><time>2026-05-02T09:26:20.025Z</time></trkpt><trkpt lat="42.2548276" lon="13.8116364"><ele>383.66666666666663</ele><time>2026-05-02T09:26:21.025Z</time></trkpt><trkpt lat="42.254882" lon="13.8115601"><ele>385.0</ele><time>2026-05-02T09:26:22.025Z</time></trkpt><trkpt lat="42.2549383" lon="13.8114767"><ele>386.3333333333333</ele><time>2026-05-02T09:26:23.024Z</time></trkpt><trkpt lat="42.2549941" lon="13.8113778"><ele>387.66666666666663</ele><time>2026-05-02T09:26:24.024Z</time></trkpt><trkpt lat="42.2550563" lon="13.8112754"><ele>389.0</ele><time>2026-05-02T09:26:25.025Z</time></trkpt><trkpt lat="42.2551141" lon="13.8111683"><ele>389.0</ele><time>2026-05-02T09:26:26.025Z</time></trkpt><trkpt lat="42.2551698" lon="13.8110609"><ele>389.0</ele><time>2026-05-02T09:26:27.025Z</time></trkpt><trkpt lat="42.2552151" lon="13.8109515"><ele>389.0</ele><time>2026-05-02T09:26:28.025Z</time></trkpt><trkpt lat="42.2552617" lon="13.8108398"><ele>389.0</ele><time>2026-05-02T09:26:29.025Z</time></trkpt><trkpt lat="42.2553008" lon="13.8107303"><ele>389.0</ele><time>2026-05-02T09:26:30.024Z</time></trkpt><trkpt lat="42.2553374" lon="13.8106246"><ele>388.79999999999995</ele><time>2026-05-02T09:26:31.025Z</time></trkpt><trkpt lat="42.255382" lon="13.8105258"><ele>388.59999999999997</ele><time>2026-05-02T09:26:32.025Z</time></trkpt><trkpt lat="42.2554378" lon="13.8104228"><ele>388.4</ele><time>2026-05-02T09:26:33.025Z</time></trkpt><trkpt lat="42.2555039" lon="13.8103163"><ele>388.2</ele><time>2026-05-02T09:26:34.025Z</time></trkpt><trkpt lat="42.2555816" lon="13.810209"><ele>388.0</ele><time>2026-05-02T09:26:35.024Z</time></trkpt><trkpt lat="42.2556614" lon="13.8101061"><ele>388.0</ele><time>2026-05-02T09:26:36.025Z</time></trkpt><trkpt lat="42.2557354" lon="13.8100054"><ele>388.0</ele><time>2026-05-02T09:26:37.025Z</time></trkpt><trkpt lat="42.2558014" lon="13.8098965"><ele>388.0</ele><time>2026-05-02T09:26:38.025Z</time></trkpt><trkpt lat="42.2558613" lon="13.8097726"><ele>388.0</ele><time>2026-05-02T09:26:39.025Z</time></trkpt><trkpt lat="42.2559276" lon="13.8096439"><ele>388.0</ele><time>2026-05-02T09:26:40.025Z</time></trkpt><trkpt lat="42.2559975" lon="13.8095203"><ele>388.0</ele><time>2026-05-02T09:26:41.025Z</time></trkpt><trkpt lat="42.2560647" lon="13.8093965"><ele>388.0</ele><time>2026-05-02T09:26:42.025Z</time></trkpt><trkpt lat="42.2561293" lon="13.8092751"><ele>388.0</ele><time>2026-05-02T09:26:43.025Z</time></trkpt><trkpt lat="42.2561956" lon="13.8091605"><ele>388.0</ele><time>2026-05-02T09:26:44.025Z</time></trkpt><trkpt lat="42.2562647" lon="13.8090584"><ele>388.0</ele><time>2026-05-02T09:26:45.025Z</time></trkpt><trkpt lat="42.2563444" lon="13.8089741"><ele>387.79999999999995</ele><time>2026-05-02T09:26:46.025Z</time></trkpt><trkpt lat="42.2564272" lon="13.8088923"><ele>387.6</ele><time>2026-05-02T09:26:47.025Z</time></trkpt><trkpt lat="42.2564975" lon="13.8088085"><ele>387.4</ele><time>2026-05-02T09:26:48.025Z</time></trkpt><trkpt lat="42.2565619" lon="13.8087268"><ele>387.20000000000005</ele><time>2026-05-02T09:26:49.024Z</time></trkpt><trkpt lat="42.2566293" lon="13.808652"><ele>387.0</ele><time>2026-05-02T09:26:50.024Z</time></trkpt><trkpt lat="42.2567059" lon="13.8085924"><ele>387.0</ele><time>2026-05-02T09:26:51.024Z</time></trkpt><trkpt lat="42.2567913" lon="13.8085534"><ele>387.0</ele><time>2026-05-02T09:26:52.025Z</time></trkpt><trkpt lat="42.2568789" lon="13.8085272"><ele>387.0</ele><time>2026-05-02T09:26:53.025Z</time></trkpt><trkpt lat="42.2569664" lon="13.8084839"><ele>387.0</ele><time>2026-05-02T09:26:54.025Z</time></trkpt><trkpt lat="42.2570532" lon="13.8084091"><ele>387.0</ele><time>2026-05-02T09:26:55.025Z</time></trkpt><trkpt lat="42.2571408" lon="13.8083219"><ele>386.25</ele><time>2026-05-02T09:26:56.025Z</time></trkpt><trkpt lat="42.2572325" lon="13.8082403"><ele>385.5</ele><time>2026-05-02T09:26:57.025Z</time></trkpt><trkpt lat="42.2573316" lon="13.8081611"><ele>384.75</ele><time>2026-05-02T09:26:58.025Z</time></trkpt><trkpt lat="42.257434" lon="13.8080827"><ele>384.0</ele><time>2026-05-02T09:26:59.024Z</time></trkpt><trkpt lat="42.2575382" lon="13.8080096"><ele>384.0</ele><time>2026-05-02T09:27:00.025Z</time></trkpt><trkpt lat="42.2576379" lon="13.8079326"><ele>384.0</ele><time>2026-05-02T09:27:01.025Z</time></trkpt><trkpt lat="42.2577391" lon="13.8078436"><ele>384.0</ele><time>2026-05-02T09:27:02.025Z</time></trkpt><trkpt lat="42.2578418" lon="13.8077493"><ele>384.0</ele><time>2026-05-02T09:27:03.025Z</time></trkpt><trkpt lat="42.257938" lon="13.8076591"><ele>382.5</ele><time>2026-05-02T09:27:04.025Z</time></trkpt><trkpt lat="42.2580313" lon="13.807569"><ele>381.0</ele><time>2026-05-02T09:27:05.025Z</time></trkpt><trkpt lat="42.2581268" lon="13.8074816"><ele>379.5</ele><time>2026-05-02T09:27:06.025Z</time></trkpt><trkpt lat="42.2582316" lon="13.8074111"><ele>378.0</ele><time>2026-05-02T09:27:07.025Z</time></trkpt><trkpt lat="42.2583445" lon="13.8073608"><ele>378.0</ele><time>2026-05-02T09:27:08.025Z</time></trkpt><trkpt lat="42.2584588" lon="13.8073246"><ele>378.0</ele><time>2026-05-02T09:27:09.024Z</time></trkpt><trkpt lat="42.2585731" lon="13.8072928"><ele>378.0</ele><time>2026-05-02T09:27:10.025Z</time></trkpt><trkpt lat="42.2586847" lon="13.8072642"><ele>378.0</ele><time>2026-05-02T09:27:11.025Z</time></trkpt><trkpt lat="42.2587983" lon="13.8072194"><ele>378.0</ele><time>2026-05-02T09:27:12.025Z</time></trkpt><trkpt lat="42.2589084" lon="13.8071709"><ele>378.0</ele><time>2026-05-02T09:27:13.025Z</time></trkpt><trkpt lat="42.2590189" lon="13.8071201"><ele>378.0</ele><time>2026-05-02T09:27:14.025Z</time></trkpt><trkpt lat="42.2591321" lon="13.8070568"><ele>378.0</ele><time>2026-05-02T09:27:15.025Z</time></trkpt><trkpt lat="42.25924" lon="13.8069868"><ele>377.75</ele><time>2026-05-02T09:27:16.025Z</time></trkpt><trkpt lat="42.259348" lon="13.8069121"><ele>377.5</ele><time>2026-05-02T09:27:17.025Z</time></trkpt><trkpt lat="42.2594567" lon="13.8068369"><ele>377.25</ele><time>2026-05-02T09:27:18.025Z</time></trkpt><trkpt lat="42.2595703" lon="13.80677"><ele>377.0</ele><time>2026-05-02T09:27:19.025Z</time></trkpt><trkpt lat="42.2596902" lon="13.8067078"><ele>377.0</ele><time>2026-05-02T09:27:20.024Z</time></trkpt><trkpt lat="42.2598113" lon="13.8066487"><ele>377.0</ele><time>2026-05-02T09:27:21.025Z</time></trkpt><trkpt lat="42.2599302" lon="13.8065868"><ele>377.0</ele><time>2026-05-02T09:27:22.025Z</time></trkpt><trkpt lat="42.2600534" lon="13.8065144"><ele>377.0</ele><time>2026-05-02T09:27:23.025Z</time></trkpt><trkpt lat="42.2601714" lon="13.8064316"><ele>377.0</ele><time>2026-05-02T09:27:24.025Z</time></trkpt><trkpt lat="42.2602859" lon="13.806341"><ele>377.0</ele><time>2026-05-02T09:27:25.025Z</time></trkpt><trkpt lat="42.2603997" lon="13.8062528"><ele>377.0</ele><time>2026-05-02T09:27:26.025Z</time></trkpt><trkpt lat="42.2605215" lon="13.8061588"><ele>377.0</ele><time>2026-05-02T09:27:27.024Z</time></trkpt><trkpt lat="42.2606355" lon="13.8060731"><ele>376.5</ele><time>2026-05-02T09:27:28.025Z</time></trkpt><trkpt lat="42.2607437" lon="13.8059936"><ele>376.0</ele><time>2026-05-02T09:27:29.025Z</time></trkpt><trkpt lat="42.2608319" lon="13.8059352"><ele>375.5</ele><time>2026-05-02T09:27:30.024Z</time></trkpt><trkpt lat="42.2609031" lon="13.8058827"><ele>375.0</ele><time>2026-05-02T09:27:31.024Z</time></trkpt><trkpt lat="42.2609588" lon="13.8058334"><ele>374.5</ele><time>2026-05-02T09:27:32.025Z</time></trkpt><trkpt lat="42.2610114" lon="13.8057707"><ele>374.0</ele><time>2026-05-02T09:27:33.025Z</time></trkpt><trkpt lat="42.2611067" lon="13.8056678"><ele>374.0</ele><time>2026-05-02T09:27:35.025Z</time></trkpt><trkpt lat="42.2611786" lon="13.8056271"><ele>374.0</ele><time>2026-05-02T09:27:36.024Z</time></trkpt><trkpt lat="42.2612625" lon="13.8055915"><ele>374.0</ele><time>2026-05-02T09:27:37.025Z</time></trkpt><trkpt lat="42.2613593" lon="13.8055517"><ele>374.0</ele><time>2026-05-02T09:27:38.025Z</time></trkpt><trkpt lat="42.2614593" lon="13.8055125"><ele>374.0</ele><time>2026-05-02T09:27:39.025Z</time></trkpt><trkpt lat="42.2615627" lon="13.8054725"><ele>373.25</ele><time>2026-05-02T09:27:40.025Z</time></trkpt><trkpt lat="42.2616789" lon="13.8054277"><ele>372.5</ele><time>2026-05-02T09:27:41.025Z</time></trkpt><trkpt lat="42.2617967" lon="13.8053785"><ele>371.75</ele><time>2026-05-02T09:27:42.025Z</time></trkpt><trkpt lat="42.2619132" lon="13.8053303"><ele>371.0</ele><time>2026-05-02T09:27:43.024Z</time></trkpt><trkpt lat="42.2620234" lon="13.8052889"><ele>371.0</ele><time>2026-05-02T09:27:44.025Z</time></trkpt><trkpt lat="42.2621175" lon="13.8052555"><ele>371.0</ele><time>2026-05-02T09:27:45.025Z</time></trkpt><trkpt lat="42.2621935" lon="13.8052387"><ele>371.0</ele><time>2026-05-02T09:27:46.025Z</time></trkpt><trkpt lat="42.2623048" lon="13.8052506"><ele>371.0</ele><time>2026-05-02T09:27:48.025Z</time></trkpt><trkpt lat="42.2624108" lon="13.8052888"><ele>371.0</ele><time>2026-05-02T09:27:50.025Z</time></trkpt><trkpt lat="42.2624755" lon="13.8053049"><ele>370.8</ele><time>2026-05-02T09:27:51.024Z</time></trkpt><trkpt lat="42.262544" lon="13.8053151"><ele>370.6</ele><time>2026-05-02T09:27:52.025Z</time></trkpt><trkpt lat="42.2626539" lon="13.8052597"><ele>370.4</ele><time>2026-05-02T09:27:53.025Z</time></trkpt><trkpt lat="42.2627566" lon="13.8052267"><ele>370.2</ele><time>2026-05-02T09:27:54.025Z</time></trkpt><trkpt lat="42.2628682" lon="13.8051977"><ele>370.0</ele><time>2026-05-02T09:27:55.025Z</time></trkpt><trkpt lat="42.2629905" lon="13.8051666"><ele>368.75</ele><time>2026-05-02T09:27:56.025Z</time></trkpt><trkpt lat="42.2631145" lon="13.8051381"><ele>367.5</ele><time>2026-05-02T09:27:57.024Z</time></trkpt><trkpt lat="42.2632442" lon="13.8051108"><ele>366.25</ele><time>2026-05-02T09:27:58.025Z</time></trkpt><trkpt lat="42.2633701" lon="13.8050889"><ele>365.0</ele><time>2026-05-02T09:27:59.025Z</time></trkpt><trkpt lat="42.2634996" lon="13.8050675"><ele>365.0</ele><time>2026-05-02T09:28:00.025Z</time></trkpt><trkpt lat="42.2636304" lon="13.8050482"><ele>365.0</ele><time>2026-05-02T09:28:01.025Z</time></trkpt><trkpt lat="42.2637632" lon="13.8050303"><ele>365.0</ele><time>2026-05-02T09:28:02.025Z</time></trkpt><trkpt lat="42.2638874" lon="13.8050155"><ele>365.0</ele><time>2026-05-02T09:28:03.025Z</time></trkpt><trkpt lat="42.2640149" lon="13.8050044"><ele>364.25</ele><time>2026-05-02T09:28:04.024Z</time></trkpt><trkpt lat="42.2641421" lon="13.8050009"><ele>363.5</ele><time>2026-05-02T09:28:05.025Z</time></trkpt><trkpt lat="42.264268" lon="13.8049948"><ele>362.75</ele><time>2026-05-02T09:28:06.024Z</time></trkpt><trkpt lat="42.264396" lon="13.8049853"><ele>362.0</ele><time>2026-05-02T09:28:07.024Z</time></trkpt><trkpt lat="42.2645294" lon="13.8049655"><ele>362.0</ele><time>2026-05-02T09:28:08.025Z</time></trkpt><trkpt lat="42.2646665" lon="13.8049427"><ele>362.0</ele><time>2026-05-02T09:28:09.025Z</time></trkpt><trkpt lat="42.2648062" lon="13.8049166"><ele>362.0</ele><time>2026-05-02T09:28:10.025Z</time></trkpt><trkpt lat="42.2649458" lon="13.8048838"><ele>362.0</ele><time>2026-05-02T09:28:11.024Z</time></trkpt><trkpt lat="42.2650858" lon="13.8048427"><ele>360.6666666666667</ele><time>2026-05-02T09:28:12.025Z</time></trkpt><trkpt lat="42.2652343" lon="13.8047931"><ele>359.3333333333333</ele><time>2026-05-02T09:28:13.025Z</time></trkpt><trkpt lat="42.2653774" lon="13.8047409"><ele>358.0</ele><time>2026-05-02T09:28:14.025Z</time></trkpt><trkpt lat="42.2655231" lon="13.8046902"><ele>357.5</ele><time>2026-05-02T09:28:15.025Z</time></trkpt><trkpt lat="42.2656605" lon="13.8046334"><ele>357.0</ele><time>2026-05-02T09:28:16.025Z</time></trkpt><trkpt lat="42.2657918" lon="13.8045848"><ele>356.5</ele><time>2026-05-02T09:28:17.025Z</time></trkpt><trkpt lat="42.2659245" lon="13.8045336"><ele>356.0</ele><time>2026-05-02T09:28:18.025Z</time></trkpt><trkpt lat="42.2660423" lon="13.8044957"><ele>356.0</ele><time>2026-05-02T09:28:19.024Z</time></trkpt><trkpt lat="42.2661548" lon="13.8044591"><ele>356.0</ele><time>2026-05-02T09:28:20.025Z</time></trkpt><trkpt lat="42.2662696" lon="13.8044001"><ele>356.0</ele><time>2026-05-02T09:28:21.025Z</time></trkpt><trkpt lat="42.2663834" lon="13.8043185"><ele>356.0</ele><time>2026-05-02T09:28:22.025Z</time></trkpt><trkpt lat="42.2664993" lon="13.8042235"><ele>355.75</ele><time>2026-05-02T09:28:23.024Z</time></trkpt><trkpt lat="42.2666111" lon="13.8041275"><ele>355.5</ele><time>2026-05-02T09:28:24.025Z</time></trkpt><trkpt lat="42.2667191" lon="13.8040272"><ele>355.25</ele><time>2026-05-02T09:28:25.025Z</time></trkpt><trkpt lat="42.2668137" lon="13.8039167"><ele>355.0</ele><time>2026-05-02T09:28:26.025Z</time></trkpt><trkpt lat="42.2668869" lon="13.8038033"><ele>355.0</ele><time>2026-05-02T09:28:27.025Z</time></trkpt><trkpt lat="42.2669499" lon="13.8036707"><ele>355.0</ele><time>2026-05-02T09:28:28.025Z</time></trkpt><trkpt lat="42.2669862" lon="13.8035251"><ele>355.0</ele><time>2026-05-02T09:28:29.025Z</time></trkpt><trkpt lat="42.2670173" lon="13.8033884"><ele>355.0</ele><time>2026-05-02T09:28:30.025Z</time></trkpt><trkpt lat="42.2670607" lon="13.8032617"><ele>355.0</ele><time>2026-05-02T09:28:31.025Z</time></trkpt><trkpt lat="42.2671216" lon="13.8031435"><ele>355.4</ele><time>2026-05-02T09:28:32.025Z</time></trkpt><trkpt lat="42.2671943" lon="13.8030393"><ele>355.8</ele><time>2026-05-02T09:28:33.024Z</time></trkpt><trkpt lat="42.2672647" lon="13.8029374"><ele>356.20000000000005</ele><time>2026-05-02T09:28:34.025Z</time></trkpt><trkpt lat="42.2673249" lon="13.8028431"><ele>356.6</ele><time>2026-05-02T09:28:35.024Z</time></trkpt><trkpt lat="42.2673733" lon="13.8027736"><ele>357.0</ele><time>2026-05-02T09:28:36.025Z</time></trkpt><trkpt lat="42.267426" lon="13.8026903"><ele>356.5</ele><time>2026-05-02T09:28:38.025Z</time></trkpt><trkpt lat="42.2674541" lon="13.8026102"><ele>356.0</ele><time>2026-05-02T09:28:40.025Z</time></trkpt><trkpt lat="42.2675068" lon="13.8024789"><ele>355.5</ele><time>2026-05-02T09:28:42.025Z</time></trkpt><trkpt lat="42.267559" lon="13.8024097"><ele>355.0</ele><time>2026-05-02T09:28:43.024Z</time></trkpt><trkpt lat="42.2676113" lon="13.8023294"><ele>354.5</ele><time>2026-05-02T09:28:44.024Z</time></trkpt><trkpt lat="42.2676684" lon="13.8022504"><ele>354.0</ele><time>2026-05-02T09:28:45.025Z</time></trkpt><trkpt lat="42.2677168" lon="13.8021857"><ele>354.0</ele><time>2026-05-02T09:28:46.025Z</time></trkpt><trkpt lat="42.2677863" lon="13.8020809"><ele>354.0</ele><time>2026-05-02T09:28:48.025Z</time></trkpt><trkpt lat="42.2678548" lon="13.8020055"><ele>354.0</ele><time>2026-05-02T09:28:50.024Z</time></trkpt><trkpt lat="42.2679242" lon="13.8019258"><ele>354.0</ele><time>2026-05-02T09:28:52.025Z</time></trkpt><trkpt lat="42.2679998" lon="13.8018401"><ele>354.0</ele><time>2026-05-02T09:28:54.025Z</time></trkpt><trkpt lat="42.2680806" lon="13.8017499"><ele>353.79999999999995</ele><time>2026-05-02T09:28:56.025Z</time></trkpt><trkpt lat="42.2681631" lon="13.8016593"><ele>353.59999999999997</ele><time>2026-05-02T09:28:58.024Z</time></trkpt><trkpt lat="42.2682451" lon="13.8015686"><ele>353.4</ele><time>2026-05-02T09:29:00.025Z</time></trkpt><trkpt lat="42.2683284" lon="13.801478"><ele>353.2</ele><time>2026-05-02T09:29:02.025Z</time></trkpt><trkpt lat="42.2684085" lon="13.8013858"><ele>353.0</ele><time>2026-05-02T09:29:04.025Z</time></trkpt><trkpt lat="42.2684966" lon="13.8012877"><ele>353.0</ele><time>2026-05-02T09:29:06.025Z</time></trkpt><trkpt lat="42.2685838" lon="13.8011898"><ele>353.0</ele><time>2026-05-02T09:29:08.025Z</time></trkpt><trkpt lat="42.2686738" lon="13.8010954"><ele>353.0</ele><time>2026-05-02T09:29:10.025Z</time></trkpt><trkpt lat="42.2687647" lon="13.8009993"><ele>353.0</ele><time>2026-05-02T09:29:12.025Z</time></trkpt><trkpt lat="42.2688647" lon="13.8009028"><ele>352.83333333333337</ele><time>2026-05-02T09:29:14.025Z</time></trkpt><trkpt lat="42.2689593" lon="13.800815"><ele>352.6666666666667</ele><time>2026-05-02T09:29:16.025Z</time></trkpt><trkpt lat="42.2690654" lon="13.8007313"><ele>352.5</ele><time>2026-05-02T09:29:18.025Z</time></trkpt><trkpt lat="42.2691259" lon="13.8006966"><ele>352.3333333333333</ele><time>2026-05-02T09:29:19.025Z</time></trkpt><trkpt lat="42.2691862" lon="13.8006586"><ele>352.16666666666663</ele><time>2026-05-02T09:29:20.025Z</time></trkpt><trkpt lat="42.2692469" lon="13.8006262"><ele>352.0</ele><time>2026-05-02T09:29:21.025Z</time></trkpt><trkpt lat="42.269369" lon="13.8005863"><ele>352.0</ele><time>2026-05-02T09:29:23.025Z</time></trkpt><trkpt lat="42.2694879" lon="13.8005381"><ele>352.0</ele><time>2026-05-02T09:29:25.025Z</time></trkpt><trkpt lat="42.269547" lon="13.8005079"><ele>352.0</ele><time>2026-05-02T09:29:26.024Z</time></trkpt><trkpt lat="42.2696466" lon="13.8004205"><ele>352.0</ele><time>2026-05-02T09:29:28.025Z</time></trkpt><trkpt lat="42.2697002" lon="13.8003681"><ele>352.0</ele><time>2026-05-02T09:29:29.025Z</time></trkpt><trkpt lat="42.2697558" lon="13.8003123"><ele>352.0</ele><time>2026-05-02T09:29:30.025Z</time></trkpt><trkpt lat="42.2698125" lon="13.8002517"><ele>352.0</ele><time>2026-05-02T09:29:31.025Z</time></trkpt><trkpt lat="42.2698717" lon="13.8001809"><ele>352.0</ele><time>2026-05-02T09:29:32.024Z</time></trkpt><trkpt lat="42.2699285" lon="13.8001105"><ele>352.0</ele><time>2026-05-02T09:29:33.025Z</time></trkpt><trkpt lat="42.2699808" lon="13.8000492"><ele>352.0</ele><time>2026-05-02T09:29:34.025Z</time></trkpt><trkpt lat="42.2700344" lon="13.7999862"><ele>352.0</ele><time>2026-05-02T09:29:35.025Z</time></trkpt><trkpt lat="42.2700852" lon="13.7999296"><ele>352.0</ele><time>2026-05-02T09:29:36.025Z</time></trkpt><trkpt lat="42.2701374" lon="13.7998707"><ele>352.0</ele><time>2026-05-02T09:29:37.025Z</time></trkpt><trkpt lat="42.2702421" lon="13.7997766"><ele>351.6</ele><time>2026-05-02T09:29:39.024Z</time></trkpt><trkpt lat="42.2702968" lon="13.7997342"><ele>351.20000000000005</ele><time>2026-05-02T09:29:40.025Z</time></trkpt><trkpt lat="42.2703992" lon="13.7996536"><ele>350.8</ele><time>2026-05-02T09:29:42.025Z</time></trkpt><trkpt lat="42.2704988" lon="13.7995787"><ele>350.4</ele><time>2026-05-02T09:29:44.025Z</time></trkpt><trkpt lat="42.2706053" lon="13.799509"><ele>350.0</ele><time>2026-05-02T09:29:46.025Z</time></trkpt><trkpt lat="42.2707208" lon="13.7994578"><ele>350.0</ele><time>2026-05-02T09:29:48.025Z</time></trkpt><trkpt lat="42.2708383" lon="13.7994221"><ele>350.0</ele><time>2026-05-02T09:29:50.025Z</time></trkpt><trkpt lat="42.2709625" lon="13.7993761"><ele>350.0</ele><time>2026-05-02T09:29:52.025Z</time></trkpt><trkpt lat="42.2710805" lon="13.7993385"><ele>350.0</ele><time>2026-05-02T09:29:54.025Z</time></trkpt><trkpt lat="42.2711408" lon="13.7993092"><ele>350.0</ele><time>2026-05-02T09:29:55.025Z</time></trkpt><trkpt lat="42.2712449" lon="13.7992638"><ele>349.6</ele><time>2026-05-02T09:29:57.025Z</time></trkpt><trkpt lat="42.271357" lon="13.7992147"><ele>349.2</ele><time>2026-05-02T09:29:59.024Z</time></trkpt><trkpt lat="42.2714181" lon="13.7991683"><ele>348.79999999999995</ele><time>2026-05-02T09:30:00.025Z</time></trkpt><trkpt lat="42.2715202" lon="13.7991132"><ele>348.4</ele><time>2026-05-02T09:30:02.025Z</time></trkpt><trkpt lat="42.2715818" lon="13.7990837"><ele>348.0</ele><time>2026-05-02T09:30:03.024Z</time></trkpt><trkpt lat="42.2716951" lon="13.7990223"><ele>348.0</ele><time>2026-05-02T09:30:05.025Z</time></trkpt><trkpt lat="42.2718143" lon="13.7989729"><ele>348.0</ele><time>2026-05-02T09:30:07.025Z</time></trkpt><trkpt lat="42.2718752" lon="13.7989502"><ele>348.0</ele><time>2026-05-02T09:30:08.025Z</time></trkpt><trkpt lat="42.2719323" lon="13.7989084"><ele>348.0</ele><time>2026-05-02T09:30:09.025Z</time></trkpt><trkpt lat="42.2720388" lon="13.7988426"><ele>348.0</ele><time>2026-05-02T09:30:11.025Z</time></trkpt><trkpt lat="42.2721492" lon="13.7987855"><ele>348.0</ele><time>2026-05-02T09:30:13.025Z</time></trkpt><trkpt lat="42.272255" lon="13.7986993"><ele>348.0</ele><time>2026-05-02T09:30:15.025Z</time></trkpt><trkpt lat="42.2723512" lon="13.7986179"><ele>348.0</ele><time>2026-05-02T09:30:17.025Z</time></trkpt><trkpt lat="42.2724529" lon="13.7985292"><ele>348.0</ele><time>2026-05-02T09:30:19.025Z</time></trkpt><trkpt lat="42.2725463" lon="13.7984572"><ele>347.79999999999995</ele><time>2026-05-02T09:30:21.024Z</time></trkpt><trkpt lat="42.2726521" lon="13.798384"><ele>347.6</ele><time>2026-05-02T09:30:23.025Z</time></trkpt><trkpt lat="42.2727189" lon="13.7983556"><ele>347.4</ele><time>2026-05-02T09:30:24.025Z</time></trkpt><trkpt lat="42.2728271" lon="13.7982663"><ele>347.20000000000005</ele><time>2026-05-02T09:30:26.025Z</time></trkpt><trkpt lat="42.2728797" lon="13.7982183"><ele>347.0</ele><time>2026-05-02T09:30:27.025Z</time></trkpt><trkpt lat="42.2729811" lon="13.798131"><ele>347.0</ele><time>2026-05-02T09:30:29.025Z</time></trkpt><trkpt lat="42.273043" lon="13.7980932"><ele>347.0</ele><time>2026-05-02T09:30:30.025Z</time></trkpt><trkpt lat="42.2731087" lon="13.7980579"><ele>347.0</ele><time>2026-05-02T09:30:31.025Z</time></trkpt><trkpt lat="42.273178" lon="13.7980235"><ele>347.0</ele><time>2026-05-02T09:30:32.025Z</time></trkpt><trkpt lat="42.2732438" lon="13.7979853"><ele>347.0</ele><time>2026-05-02T09:30:33.024Z</time></trkpt><trkpt lat="42.2733118" lon="13.7979493"><ele>347.0</ele><time>2026-05-02T09:30:34.025Z</time></trkpt><trkpt lat="42.2733804" lon="13.7979132"><ele>347.0</ele><time>2026-05-02T09:30:35.024Z</time></trkpt><trkpt lat="42.2734485" lon="13.7978589"><ele>346.6666666666667</ele><time>2026-05-02T09:30:36.025Z</time></trkpt><trkpt lat="42.27352" lon="13.7978078"><ele>346.33333333333337</ele><time>2026-05-02T09:30:37.025Z</time></trkpt><trkpt lat="42.2735888" lon="13.7977555"><ele>346.0</ele><time>2026-05-02T09:30:38.025Z</time></trkpt><trkpt lat="42.2736618" lon="13.7977057"><ele>345.6666666666667</ele><time>2026-05-02T09:30:39.025Z</time></trkpt><trkpt lat="42.2737384" lon="13.7976502"><ele>345.3333333333333</ele><time>2026-05-02T09:30:40.024Z</time></trkpt><trkpt lat="42.2738174" lon="13.7975911"><ele>345.0</ele><time>2026-05-02T09:30:41.025Z</time></trkpt><trkpt lat="42.2739019" lon="13.7975278"><ele>345.4</ele><time>2026-05-02T09:30:42.025Z</time></trkpt><trkpt lat="42.2739974" lon="13.7974577"><ele>345.8</ele><time>2026-05-02T09:30:43.025Z</time></trkpt><trkpt lat="42.2740922" lon="13.7973902"><ele>346.20000000000005</ele><time>2026-05-02T09:30:44.025Z</time></trkpt><trkpt lat="42.2741672" lon="13.797329"><ele>346.6</ele><time>2026-05-02T09:30:45.025Z</time></trkpt><trkpt lat="42.2742369" lon="13.7972635"><ele>347.0</ele><time>2026-05-02T09:30:46.025Z</time></trkpt><trkpt lat="42.2743063" lon="13.7971807"><ele>347.0</ele><time>2026-05-02T09:30:47.025Z</time></trkpt><trkpt lat="42.2743814" lon="13.7970926"><ele>347.0</ele><time>2026-05-02T09:30:48.024Z</time></trkpt><trkpt lat="42.2744695" lon="13.7970134"><ele>347.0</ele><time>2026-05-02T09:30:49.025Z</time></trkpt><trkpt lat="42.2745659" lon="13.7969423"><ele>347.0</ele><time>2026-05-02T09:30:50.025Z</time></trkpt><trkpt lat="42.2746584" lon="13.7968795"><ele>347.0</ele><time>2026-05-02T09:30:51.025Z</time></trkpt><trkpt lat="42.2747497" lon="13.79682"><ele>347.0</ele><time>2026-05-02T09:30:52.025Z</time></trkpt><trkpt lat="42.2748486" lon="13.7967542"><ele>347.0</ele><time>2026-05-02T09:30:53.024Z</time></trkpt><trkpt lat="42.2749477" lon="13.7966886"><ele>347.0</ele><time>2026-05-02T09:30:54.025Z</time></trkpt><trkpt lat="42.2750277" lon="13.7966299"><ele>347.0</ele><time>2026-05-02T09:30:55.025Z</time></trkpt><trkpt lat="42.2750928" lon="13.7965738"><ele>347.0</ele><time>2026-05-02T09:30:56.025Z</time></trkpt><trkpt lat="42.2751521" lon="13.7965005"><ele>347.0</ele><time>2026-05-02T09:30:57.025Z</time></trkpt><trkpt lat="42.2752139" lon="13.79642"><ele>347.0</ele><time>2026-05-02T09:30:58.025Z</time></trkpt><trkpt lat="42.2752797" lon="13.7963539"><ele>347.0</ele><time>2026-05-02T09:30:59.024Z</time></trkpt><trkpt lat="42.2753557" lon="13.7962997"><ele>347.0</ele><time>2026-05-02T09:31:00.025Z</time></trkpt><trkpt lat="42.2754449" lon="13.7962586"><ele>347.0</ele><time>2026-05-02T09:31:01.025Z</time></trkpt><trkpt lat="42.2755334" lon="13.7962292"><ele>347.0</ele><time>2026-05-02T09:31:02.025Z</time></trkpt><trkpt lat="42.2756106" lon="13.7962033"><ele>347.0</ele><time>2026-05-02T09:31:03.025Z</time></trkpt><trkpt lat="42.2756814" lon="13.7961732"><ele>347.0</ele><time>2026-05-02T09:31:04.025Z</time></trkpt><trkpt lat="42.2757525" lon="13.7961209"><ele>347.0</ele><time>2026-05-02T09:31:05.025Z</time></trkpt><trkpt lat="42.2758307" lon="13.7960424"><ele>347.0</ele><time>2026-05-02T09:31:06.025Z</time></trkpt><trkpt lat="42.2759158" lon="13.7959602"><ele>347.0</ele><time>2026-05-02T09:31:07.025Z</time></trkpt><trkpt lat="42.2760065" lon="13.7958745"><ele>347.0</ele><time>2026-05-02T09:31:08.025Z</time></trkpt><trkpt lat="42.2760992" lon="13.795777"><ele>347.0</ele><time>2026-05-02T09:31:09.024Z</time></trkpt><trkpt lat="42.2761868" lon="13.7956738"><ele>347.0</ele><time>2026-05-02T09:31:10.025Z</time></trkpt><trkpt lat="42.2762657" lon="13.795578"><ele>347.0</ele><time>2026-05-02T09:31:11.024Z</time></trkpt><trkpt lat="42.2763435" lon="13.7954915"><ele>347.0</ele><time>2026-05-02T09:31:12.025Z</time></trkpt><trkpt lat="42.2764255" lon="13.7954214"><ele>348.8</ele><time>2026-05-02T09:31:13.025Z</time></trkpt><trkpt lat="42.2765141" lon="13.7953573"><ele>350.6</ele><time>2026-05-02T09:31:14.025Z</time></trkpt><trkpt lat="42.2766028" lon="13.7953101"><ele>352.40000000000003</ele><time>2026-05-02T09:31:15.025Z</time></trkpt><trkpt lat="42.276703" lon="13.7952607"><ele>354.20000000000005</ele><time>2026-05-02T09:31:16.025Z</time></trkpt><trkpt lat="42.2768064" lon="13.795214"><ele>356.0</ele><time>2026-05-02T09:31:17.025Z</time></trkpt><trkpt lat="42.2769113" lon="13.7951809"><ele>354.6</ele><time>2026-05-02T09:31:18.025Z</time></trkpt><trkpt lat="42.2770123" lon="13.7951549"><ele>353.20000000000005</ele><time>2026-05-02T09:31:19.025Z</time></trkpt><trkpt lat="42.2771174" lon="13.7951333"><ele>351.79999999999995</ele><time>2026-05-02T09:31:20.025Z</time></trkpt><trkpt lat="42.2772251" lon="13.7951249"><ele>350.4</ele><time>2026-05-02T09:31:21.025Z</time></trkpt><trkpt lat="42.2773261" lon="13.7951159"><ele>349.0</ele><time>2026-05-02T09:31:22.025Z</time></trkpt><trkpt lat="42.2774227" lon="13.7950947"><ele>349.0</ele><time>2026-05-02T09:31:23.025Z</time></trkpt><trkpt lat="42.2775155" lon="13.7950772"><ele>349.0</ele><time>2026-05-02T09:31:24.024Z</time></trkpt><trkpt lat="42.2776096" lon="13.7950733"><ele>349.0</ele><time>2026-05-02T09:31:25.025Z</time></trkpt><trkpt lat="42.2777089" lon="13.795081"><ele>349.0</ele><time>2026-05-02T09:31:26.025Z</time></trkpt><trkpt lat="42.2778069" lon="13.7950937"><ele>349.0</ele><time>2026-05-02T09:31:27.024Z</time></trkpt><trkpt lat="42.2779055" lon="13.7951178"><ele>349.0</ele><time>2026-05-02T09:31:28.025Z</time></trkpt><trkpt lat="42.2780106" lon="13.7951497"><ele>349.0</ele><time>2026-05-02T09:31:29.024Z</time></trkpt><trkpt lat="42.2781239" lon="13.7951828"><ele>349.0</ele><time>2026-05-02T09:31:30.025Z</time></trkpt><trkpt lat="42.2782387" lon="13.795216"><ele>349.0</ele><time>2026-05-02T09:31:31.024Z</time></trkpt><trkpt lat="42.2783544" lon="13.7952411"><ele>350.2</ele><time>2026-05-02T09:31:32.025Z</time></trkpt><trkpt lat="42.2784695" lon="13.7952677"><ele>351.4</ele><time>2026-05-02T09:31:33.025Z</time></trkpt><trkpt lat="42.2785823" lon="13.7952863"><ele>352.6</ele><time>2026-05-02T09:31:34.025Z</time></trkpt><trkpt lat="42.2786788" lon="13.7952975"><ele>353.8</ele><time>2026-05-02T09:31:35.025Z</time></trkpt><trkpt lat="42.2787655" lon="13.7952901"><ele>355.0</ele><time>2026-05-02T09:31:36.024Z</time></trkpt><trkpt lat="42.278851" lon="13.7952658"><ele>354.4</ele><time>2026-05-02T09:31:37.025Z</time></trkpt><trkpt lat="42.2789408" lon="13.7952336"><ele>353.8</ele><time>2026-05-02T09:31:38.025Z</time></trkpt><trkpt lat="42.2790345" lon="13.7952097"><ele>353.20000000000005</ele><time>2026-05-02T09:31:39.025Z</time></trkpt><trkpt lat="42.279129" lon="13.7951947"><ele>352.6</ele><time>2026-05-02T09:31:40.025Z</time></trkpt><trkpt lat="42.2792249" lon="13.7951665"><ele>352.0</ele><time>2026-05-02T09:31:41.025Z</time></trkpt><trkpt lat="42.2793148" lon="13.7951366"><ele>350.3333333333333</ele><time>2026-05-02T09:31:42.025Z</time></trkpt><trkpt lat="42.2794012" lon="13.7950916"><ele>348.66666666666663</ele><time>2026-05-02T09:31:43.025Z</time></trkpt><trkpt lat="42.2794791" lon="13.7950319"><ele>347.0</ele><time>2026-05-02T09:31:44.025Z</time></trkpt><trkpt lat="42.2795501" lon="13.7949737"><ele>345.3333333333333</ele><time>2026-05-02T09:31:45.025Z</time></trkpt><trkpt lat="42.2796156" lon="13.794919"><ele>343.6666666666667</ele><time>2026-05-02T09:31:46.025Z</time></trkpt><trkpt lat="42.2796839" lon="13.7948604"><ele>342.0</ele><time>2026-05-02T09:31:47.025Z</time></trkpt><trkpt lat="42.2797632" lon="13.7947902"><ele>342.0</ele><time>2026-05-02T09:31:48.025Z</time></trkpt><trkpt lat="42.2798476" lon="13.7947111"><ele>342.0</ele><time>2026-05-02T09:31:49.025Z</time></trkpt><trkpt lat="42.2799416" lon="13.7946236"><ele>342.0</ele><time>2026-05-02T09:31:50.025Z</time></trkpt><trkpt lat="42.2800457" lon="13.7945312"><ele>342.0</ele><time>2026-05-02T09:31:51.025Z</time></trkpt><trkpt lat="42.2801565" lon="13.7944338"><ele>342.0</ele><time>2026-05-02T09:31:52.025Z</time></trkpt><trkpt lat="42.280275" lon="13.7943276"><ele>342.0</ele><time>2026-05-02T09:31:53.025Z</time></trkpt><trkpt lat="42.2803972" lon="13.7942161"><ele>342.0</ele><time>2026-05-02T09:31:54.025Z</time></trkpt><trkpt lat="42.2805301" lon="13.7940982"><ele>342.0</ele><time>2026-05-02T09:31:55.025Z</time></trkpt><trkpt lat="42.2806719" lon="13.7939801"><ele>342.0</ele><time>2026-05-02T09:31:56.025Z</time></trkpt><trkpt lat="42.2808265" lon="13.7938733"><ele>342.0</ele><time>2026-05-02T09:31:57.024Z</time></trkpt><trkpt lat="42.2809835" lon="13.7937911"><ele>342.0</ele><time>2026-05-02T09:31:58.025Z</time></trkpt><trkpt lat="42.2811295" lon="13.7937186"><ele>342.0</ele><time>2026-05-02T09:31:59.025Z</time></trkpt><trkpt lat="42.2812625" lon="13.7936506"><ele>342.0</ele><time>2026-05-02T09:32:00.025Z</time></trkpt><trkpt lat="42.2813805" lon="13.7935876"><ele>342.0</ele><time>2026-05-02T09:32:01.024Z</time></trkpt><trkpt lat="42.2814871" lon="13.7935242"><ele>342.0</ele><time>2026-05-02T09:32:02.025Z</time></trkpt><trkpt lat="42.2815862" lon="13.7934623"><ele>342.0</ele><time>2026-05-02T09:32:03.025Z</time></trkpt><trkpt lat="42.2816808" lon="13.7933984"><ele>342.0</ele><time>2026-05-02T09:32:04.025Z</time></trkpt><trkpt lat="42.2817769" lon="13.793331"><ele>342.0</ele><time>2026-05-02T09:32:05.025Z</time></trkpt><trkpt lat="42.2818742" lon="13.7932586"><ele>342.0</ele><time>2026-05-02T09:32:06.024Z</time></trkpt><trkpt lat="42.2819712" lon="13.7931779"><ele>342.0</ele><time>2026-05-02T09:32:07.024Z</time></trkpt><trkpt lat="42.2820706" lon="13.7930973"><ele>342.0</ele><time>2026-05-02T09:32:08.025Z</time></trkpt><trkpt lat="42.2821701" lon="13.7930068"><ele>342.0</ele><time>2026-05-02T09:32:09.025Z</time></trkpt><trkpt lat="42.2822689" lon="13.7929086"><ele>342.0</ele><time>2026-05-02T09:32:10.025Z</time></trkpt><trkpt lat="42.2823668" lon="13.7927959"><ele>342.0</ele><time>2026-05-02T09:32:11.025Z</time></trkpt><trkpt lat="42.2824519" lon="13.7926741"><ele>342.20000000000005</ele><time>2026-05-02T09:32:12.025Z</time></trkpt><trkpt lat="42.2825291" lon="13.7925392"><ele>342.4</ele><time>2026-05-02T09:32:13.025Z</time></trkpt><trkpt lat="42.2825787" lon="13.7924086"><ele>342.6</ele><time>2026-05-02T09:32:14.024Z</time></trkpt><trkpt lat="42.2826" lon="13.7922805"><ele>342.79999999999995</ele><time>2026-05-02T09:32:15.025Z</time></trkpt><trkpt lat="42.2825965" lon="13.7921399"><ele>343.0</ele><time>2026-05-02T09:32:16.025Z</time></trkpt><trkpt lat="42.2825624" lon="13.7919905"><ele>343.0</ele><time>2026-05-02T09:32:17.024Z</time></trkpt><trkpt lat="42.2825186" lon="13.791855"><ele>343.0</ele><time>2026-05-02T09:32:18.025Z</time></trkpt><trkpt lat="42.2824831" lon="13.7917417"><ele>343.0</ele><time>2026-05-02T09:32:19.024Z</time></trkpt><trkpt lat="42.2824622" lon="13.7916594"><ele>343.0</ele><time>2026-05-02T09:32:20.025Z</time></trkpt><trkpt lat="42.2824335" lon="13.7915716"><ele>343.0</ele><time>2026-05-02T09:32:22.024Z</time></trkpt><trkpt lat="42.2824476" lon="13.7916719"><ele>343.0</ele><time>2026-05-02T09:32:49.024Z</time></trkpt><trkpt lat="42.2824984" lon="13.7918011"><ele>343.0</ele><time>2026-05-02T09:32:51.024Z</time></trkpt><trkpt lat="42.282542" lon="13.7919616"><ele>343.0</ele><time>2026-05-02T09:32:53.025Z</time></trkpt><trkpt lat="42.2825774" lon="13.7920832"><ele>343.0</ele><time>2026-05-02T09:32:55.025Z</time></trkpt><trkpt lat="42.2826435" lon="13.7921411"><ele>343.0</ele><time>2026-05-02T09:32:57.025Z</time></trkpt><trkpt lat="42.2827536" lon="13.7921156"><ele>343.0</ele><time>2026-05-02T09:32:59.025Z</time></trkpt><trkpt lat="42.2828169" lon="13.7920608"><ele>343.0</ele><time>2026-05-02T09:33:00.024Z</time></trkpt><trkpt lat="42.2828883" lon="13.7919847"><ele>343.0</ele><time>2026-05-02T09:33:01.025Z</time></trkpt><trkpt lat="42.2829696" lon="13.7919042"><ele>343.0</ele><time>2026-05-02T09:33:02.025Z</time></trkpt><trkpt lat="42.2830601" lon="13.7918206"><ele>343.0</ele><time>2026-05-02T09:33:03.025Z</time></trkpt><trkpt lat="42.2831587" lon="13.791735"><ele>343.0</ele><time>2026-05-02T09:33:04.025Z</time></trkpt><trkpt lat="42.2832605" lon="13.7916508"><ele>343.79999999999995</ele><time>2026-05-02T09:33:05.025Z</time></trkpt><trkpt lat="42.2833609" lon="13.7915648"><ele>344.6</ele><time>2026-05-02T09:33:06.024Z</time></trkpt><trkpt lat="42.2834496" lon="13.7914902"><ele>345.4</ele><time>2026-05-02T09:33:07.025Z</time></trkpt><trkpt lat="42.2835265" lon="13.7914272"><ele>346.20000000000005</ele><time>2026-05-02T09:33:08.024Z</time></trkpt><trkpt lat="42.2835929" lon="13.7913745"><ele>347.0</ele><time>2026-05-02T09:33:09.024Z</time></trkpt><trkpt lat="42.2836511" lon="13.7913335"><ele>347.0</ele><time>2026-05-02T09:33:10.025Z</time></trkpt><trkpt lat="42.2837129" lon="13.7912423"><ele>347.0</ele><time>2026-05-02T09:33:12.025Z</time></trkpt><trkpt lat="42.2836742" lon="13.7911496"><ele>347.0</ele><time>2026-05-02T09:33:14.025Z</time></trkpt><trkpt lat="42.2835694" lon="13.7910413"><ele>347.0</ele><time>2026-05-02T09:33:16.024Z</time></trkpt><trkpt lat="42.2834941" lon="13.7909679"><ele>347.0</ele><time>2026-05-02T09:33:17.025Z</time></trkpt><trkpt lat="42.2834115" lon="13.7908823"><ele>347.20000000000005</ele><time>2026-05-02T09:33:18.025Z</time></trkpt><trkpt lat="42.2833226" lon="13.7907741"><ele>347.4</ele><time>2026-05-02T09:33:19.025Z</time></trkpt><trkpt lat="42.2832362" lon="13.7906641"><ele>347.6</ele><time>2026-05-02T09:33:20.024Z</time></trkpt><trkpt lat="42.2831603" lon="13.7905582"><ele>347.79999999999995</ele><time>2026-05-02T09:33:21.025Z</time></trkpt><trkpt lat="42.2830975" lon="13.7904672"><ele>348.0</ele><time>2026-05-02T09:33:22.025Z</time></trkpt><trkpt lat="42.2830575" lon="13.7903914"><ele>348.0</ele><time>2026-05-02T09:33:23.025Z</time></trkpt><trkpt lat="42.283041" lon="13.7902151"><ele>348.0</ele><time>2026-05-02T09:33:25.025Z</time></trkpt><trkpt lat="42.2830521" lon="13.7901039"><ele>348.0</ele><time>2026-05-02T09:33:26.025Z</time></trkpt><trkpt lat="42.2830584" lon="13.7899933"><ele>348.0</ele><time>2026-05-02T09:33:27.025Z</time></trkpt><trkpt lat="42.2830656" lon="13.7899008"><ele>348.0</ele><time>2026-05-02T09:33:28.025Z</time></trkpt><trkpt lat="42.2831025" lon="13.7897556"><ele>348.0</ele><time>2026-05-02T09:33:30.025Z</time></trkpt><trkpt lat="42.2831476" lon="13.7895925"><ele>348.0</ele><time>2026-05-02T09:33:32.025Z</time></trkpt><trkpt lat="42.2831668" lon="13.7895024"><ele>348.0</ele><time>2026-05-02T09:33:33.025Z</time></trkpt><trkpt lat="42.283194" lon="13.7893548"><ele>348.0</ele><time>2026-05-02T09:33:35.025Z</time></trkpt><trkpt lat="42.2832156" lon="13.7892367"><ele>348.0</ele><time>2026-05-02T09:33:37.025Z</time></trkpt><trkpt lat="42.2832272" lon="13.7891206"><ele>347.4</ele><time>2026-05-02T09:33:39.025Z</time></trkpt><trkpt lat="42.2832544" lon="13.7890217"><ele>346.79999999999995</ele><time>2026-05-02T09:33:41.025Z</time></trkpt><trkpt lat="42.2832861" lon="13.7888976"><ele>346.2</ele><time>2026-05-02T09:33:43.025Z</time></trkpt><trkpt lat="42.28332" lon="13.7887473"><ele>345.6</ele><time>2026-05-02T09:33:45.025Z</time></trkpt><trkpt lat="42.283349" lon="13.7885967"><ele>345.0</ele><time>2026-05-02T09:33:47.025Z</time></trkpt><trkpt lat="42.2833701" lon="13.7884354"><ele>344.42857142857144</ele><time>2026-05-02T09:33:49.025Z</time></trkpt><trkpt lat="42.2833754" lon="13.7883491"><ele>343.85714285714283</ele><time>2026-05-02T09:33:50.025Z</time></trkpt><trkpt lat="42.2833767" lon="13.7882545"><ele>343.2857142857143</ele><time>2026-05-02T09:33:51.025Z</time></trkpt><trkpt lat="42.2833719" lon="13.7881567"><ele>342.7142857142857</ele><time>2026-05-02T09:33:52.024Z</time></trkpt><trkpt lat="42.2833586" lon="13.7880602"><ele>342.14285714285717</ele><time>2026-05-02T09:33:53.025Z</time></trkpt><trkpt lat="42.2833366" lon="13.787959"><ele>341.57142857142856</ele><time>2026-05-02T09:33:54.025Z</time></trkpt><trkpt lat="42.2833055" lon="13.7878464"><ele>341.0</ele><time>2026-05-02T09:33:55.025Z</time></trkpt><trkpt lat="42.2832651" lon="13.787737"><ele>341.0</ele><time>2026-05-02T09:33:56.024Z</time></trkpt><trkpt lat="42.2832163" lon="13.787635"><ele>341.0</ele><time>2026-05-02T09:33:57.025Z</time></trkpt><trkpt lat="42.2831623" lon="13.7875337"><ele>341.0</ele><time>2026-05-02T09:33:58.025Z</time></trkpt><trkpt lat="42.2831025" lon="13.7874325"><ele>341.0</ele><time>2026-05-02T09:33:59.025Z</time></trkpt><trkpt lat="42.2830404" lon="13.787324"><ele>341.0</ele><time>2026-05-02T09:34:00.025Z</time></trkpt><trkpt lat="42.2829753" lon="13.787202"><ele>341.0</ele><time>2026-05-02T09:34:01.025Z</time></trkpt><trkpt lat="42.2829102" lon="13.7870775"><ele>341.0</ele><time>2026-05-02T09:34:02.025Z</time></trkpt><trkpt lat="42.2828443" lon="13.7869485"><ele>341.0</ele><time>2026-05-02T09:34:03.024Z</time></trkpt><trkpt lat="42.2827797" lon="13.786813"><ele>341.0</ele><time>2026-05-02T09:34:04.025Z</time></trkpt><trkpt lat="42.2827159" lon="13.7866646"><ele>341.0</ele><time>2026-05-02T09:34:05.025Z</time></trkpt><trkpt lat="42.2826548" lon="13.7865071"><ele>341.0</ele><time>2026-05-02T09:34:06.025Z</time></trkpt><trkpt lat="42.2825945" lon="13.7863407"><ele>341.0</ele><time>2026-05-02T09:34:07.025Z</time></trkpt><trkpt lat="42.2825357" lon="13.7861713"><ele>341.0</ele><time>2026-05-02T09:34:08.025Z</time></trkpt><trkpt lat="42.2824796" lon="13.7859971"><ele>340.75</ele><time>2026-05-02T09:34:09.025Z</time></trkpt><trkpt lat="42.2824157" lon="13.7858244"><ele>340.5</ele><time>2026-05-02T09:34:10.025Z</time></trkpt><trkpt lat="42.2823589" lon="13.7856488"><ele>340.25</ele><time>2026-05-02T09:34:11.025Z</time></trkpt><trkpt lat="42.2823111" lon="13.7854662"><ele>340.0</ele><time>2026-05-02T09:34:12.025Z</time></trkpt><trkpt lat="42.2822655" lon="13.7852762"><ele>340.0</ele><time>2026-05-02T09:34:13.024Z</time></trkpt><trkpt lat="42.2822153" lon="13.7850943"><ele>340.0</ele><time>2026-05-02T09:34:14.025Z</time></trkpt><trkpt lat="42.2821569" lon="13.7848934"><ele>340.0</ele><time>2026-05-02T09:34:15.025Z</time></trkpt><trkpt lat="42.2821046" lon="13.7846856"><ele>340.0</ele><time>2026-05-02T09:34:16.025Z</time></trkpt><trkpt lat="42.2820582" lon="13.7844926"><ele>340.0</ele><time>2026-05-02T09:34:17.025Z</time></trkpt><trkpt lat="42.2820094" lon="13.7842918"><ele>340.0</ele><time>2026-05-02T09:34:18.025Z</time></trkpt><trkpt lat="42.2819616" lon="13.784088"><ele>340.0</ele><time>2026-05-02T09:34:19.025Z</time></trkpt><trkpt lat="42.281911" lon="13.7838815"><ele>340.0</ele><time>2026-05-02T09:34:20.025Z</time></trkpt><trkpt lat="42.2818577" lon="13.7836723"><ele>340.0</ele><time>2026-05-02T09:34:21.025Z</time></trkpt><trkpt lat="42.2818067" lon="13.7834654"><ele>339.66666666666663</ele><time>2026-05-02T09:34:22.025Z</time></trkpt><trkpt lat="42.2817469" lon="13.7832579"><ele>339.3333333333333</ele><time>2026-05-02T09:34:23.025Z</time></trkpt><trkpt lat="42.2816808" lon="13.7830517"><ele>339.0</ele><time>2026-05-02T09:34:24.024Z</time></trkpt><trkpt lat="42.2816143" lon="13.7828488"><ele>340.0</ele><time>2026-05-02T09:34:25.024Z</time></trkpt><trkpt lat="42.2815427" lon="13.782653"><ele>341.0</ele><time>2026-05-02T09:34:26.025Z</time></trkpt><trkpt lat="42.2814702" lon="13.7824623"><ele>342.0</ele><time>2026-05-02T09:34:27.025Z</time></trkpt><trkpt lat="42.2814003" lon="13.7822587"><ele>342.0</ele><time>2026-05-02T09:34:28.025Z</time></trkpt><trkpt lat="42.2813328" lon="13.7820534"><ele>342.0</ele><time>2026-05-02T09:34:29.024Z</time></trkpt><trkpt lat="42.2812669" lon="13.7818584"><ele>342.0</ele><time>2026-05-02T09:34:30.025Z</time></trkpt><trkpt lat="42.2812019" lon="13.7816656"><ele>342.0</ele><time>2026-05-02T09:34:31.025Z</time></trkpt><trkpt lat="42.2811372" lon="13.7814704"><ele>342.0</ele><time>2026-05-02T09:34:32.024Z</time></trkpt><trkpt lat="42.2810722" lon="13.7812777"><ele>342.0</ele><time>2026-05-02T09:34:33.025Z</time></trkpt><trkpt lat="42.2810178" lon="13.7810863"><ele>341.75</ele><time>2026-05-02T09:34:34.024Z</time></trkpt><trkpt lat="42.2809659" lon="13.7808928"><ele>341.5</ele><time>2026-05-02T09:34:35.025Z</time></trkpt><trkpt lat="42.2809171" lon="13.7807035"><ele>341.25</ele><time>2026-05-02T09:34:36.025Z</time></trkpt><trkpt lat="42.28087" lon="13.7805141"><ele>341.0</ele><time>2026-05-02T09:34:37.024Z</time></trkpt><trkpt lat="42.2808274" lon="13.780332"><ele>341.75</ele><time>2026-05-02T09:34:38.025Z</time></trkpt><trkpt lat="42.2807905" lon="13.7801577"><ele>342.5</ele><time>2026-05-02T09:34:39.025Z</time></trkpt><trkpt lat="42.2807393" lon="13.7799916"><ele>343.25</ele><time>2026-05-02T09:34:40.025Z</time></trkpt><trkpt lat="42.2806838" lon="13.7798231"><ele>344.0</ele><time>2026-05-02T09:34:41.025Z</time></trkpt><trkpt lat="42.2806228" lon="13.7796574"><ele>344.0</ele><time>2026-05-02T09:34:42.025Z</time></trkpt><trkpt lat="42.28056" lon="13.7795046"><ele>344.0</ele><time>2026-05-02T09:34:43.025Z</time></trkpt><trkpt lat="42.2805014" lon="13.7793479"><ele>344.0</ele><time>2026-05-02T09:34:44.025Z</time></trkpt><trkpt lat="42.2804538" lon="13.7791958"><ele>344.0</ele><time>2026-05-02T09:34:45.025Z</time></trkpt><trkpt lat="42.2804192" lon="13.7790409"><ele>344.25</ele><time>2026-05-02T09:34:46.025Z</time></trkpt><trkpt lat="42.2803909" lon="13.7788765"><ele>344.5</ele><time>2026-05-02T09:34:47.025Z</time></trkpt><trkpt lat="42.2803656" lon="13.7787037"><ele>344.75</ele><time>2026-05-02T09:34:48.024Z</time></trkpt><trkpt lat="42.2803394" lon="13.7785241"><ele>345.0</ele><time>2026-05-02T09:34:49.025Z</time></trkpt><trkpt lat="42.28032" lon="13.7783383"><ele>345.0</ele><time>2026-05-02T09:34:50.025Z</time></trkpt><trkpt lat="42.2802981" lon="13.7781433"><ele>345.0</ele><time>2026-05-02T09:34:51.025Z</time></trkpt><trkpt lat="42.2802761" lon="13.7779502"><ele>345.0</ele><time>2026-05-02T09:34:52.025Z</time></trkpt><trkpt lat="42.2802506" lon="13.7777574"><ele>345.0</ele><time>2026-05-02T09:34:53.024Z</time></trkpt><trkpt lat="42.2802251" lon="13.7775718"><ele>345.25</ele><time>2026-05-02T09:34:54.025Z</time></trkpt><trkpt lat="42.2801976" lon="13.7773867"><ele>345.5</ele><time>2026-05-02T09:34:55.025Z</time></trkpt><trkpt lat="42.2801705" lon="13.7771983"><ele>345.75</ele><time>2026-05-02T09:34:56.025Z</time></trkpt><trkpt lat="42.2801338" lon="13.7770122"><ele>346.0</ele><time>2026-05-02T09:34:57.025Z</time></trkpt><trkpt lat="42.280095" lon="13.7768231"><ele>346.0</ele><time>2026-05-02T09:34:58.025Z</time></trkpt><trkpt lat="42.280059" lon="13.7766329"><ele>346.0</ele><time>2026-05-02T09:34:59.024Z</time></trkpt><trkpt lat="42.2800286" lon="13.7764462"><ele>346.0</ele><time>2026-05-02T09:35:00.025Z</time></trkpt><trkpt lat="42.2800053" lon="13.7762631"><ele>346.0</ele><time>2026-05-02T09:35:01.025Z</time></trkpt><trkpt lat="42.2799825" lon="13.7760799"><ele>346.20000000000005</ele><time>2026-05-02T09:35:02.025Z</time></trkpt><trkpt lat="42.2799663" lon="13.7759046"><ele>346.40000000000003</ele><time>2026-05-02T09:35:03.025Z</time></trkpt><trkpt lat="42.2799607" lon="13.7757529"><ele>346.6</ele><time>2026-05-02T09:35:04.025Z</time></trkpt><trkpt lat="42.2799626" lon="13.7756275"><ele>346.8</ele><time>2026-05-02T09:35:05.025Z</time></trkpt><trkpt lat="42.2799673" lon="13.7755391"><ele>347.0</ele><time>2026-05-02T09:35:06.025Z</time></trkpt><trkpt lat="42.2800094" lon="13.7754187"><ele>347.0</ele><time>2026-05-02T09:35:08.025Z</time></trkpt><trkpt lat="42.2801028" lon="13.7753468"><ele>347.0</ele><time>2026-05-02T09:35:10.025Z</time></trkpt><trkpt lat="42.280179" lon="13.7752961"><ele>347.0</ele><time>2026-05-02T09:35:11.025Z</time></trkpt><trkpt lat="42.2802764" lon="13.7752308"><ele>347.0</ele><time>2026-05-02T09:35:12.024Z</time></trkpt><trkpt lat="42.2803798" lon="13.7751587"><ele>347.0</ele><time>2026-05-02T09:35:13.025Z</time></trkpt><trkpt lat="42.2804905" lon="13.7750825"><ele>347.0</ele><time>2026-05-02T09:35:14.024Z</time></trkpt><trkpt lat="42.2806088" lon="13.7750023"><ele>347.0</ele><time>2026-05-02T09:35:15.025Z</time></trkpt><trkpt lat="42.2807145" lon="13.7749317"><ele>347.0</ele><time>2026-05-02T09:35:16.025Z</time></trkpt><trkpt lat="42.2808168" lon="13.7748637"><ele>347.0</ele><time>2026-05-02T09:35:17.025Z</time></trkpt><trkpt lat="42.2809142" lon="13.7747963"><ele>347.0</ele><time>2026-05-02T09:35:18.024Z</time></trkpt><trkpt lat="42.2810079" lon="13.7747319"><ele>347.0</ele><time>2026-05-02T09:35:19.025Z</time></trkpt><trkpt lat="42.2810953" lon="13.7746753"><ele>347.0</ele><time>2026-05-02T09:35:20.025Z</time></trkpt><trkpt lat="42.28118" lon="13.7746215"><ele>347.0</ele><time>2026-05-02T09:35:21.025Z</time></trkpt><trkpt lat="42.2812629" lon="13.7745714"><ele>347.0</ele><time>2026-05-02T09:35:22.025Z</time></trkpt><trkpt lat="42.2813437" lon="13.774524"><ele>347.0</ele><time>2026-05-02T09:35:23.025Z</time></trkpt><trkpt lat="42.2814075" lon="13.7744873"><ele>347.0</ele><time>2026-05-02T09:35:24.025Z</time></trkpt><trkpt lat="42.281496" lon="13.7744294"><ele>347.0</ele><time>2026-05-02T09:35:26.025Z</time></trkpt><trkpt lat="42.2815373" lon="13.7743524"><ele>347.0</ele><time>2026-05-02T09:35:51.025Z</time></trkpt><trkpt lat="42.2814838" lon="13.7742241"><ele>347.0</ele><time>2026-05-02T09:35:54.025Z</time></trkpt><trkpt lat="42.281436" lon="13.7741587"><ele>347.0</ele><time>2026-05-02T09:35:55.024Z</time></trkpt><trkpt lat="42.2813773" lon="13.7740848"><ele>347.8</ele><time>2026-05-02T09:35:56.025Z</time></trkpt><trkpt lat="42.2813097" lon="13.7740036"><ele>348.6</ele><time>2026-05-02T09:35:57.025Z</time></trkpt><trkpt lat="42.2812373" lon="13.7739149"><ele>349.40000000000003</ele><time>2026-05-02T09:35:58.024Z</time></trkpt><trkpt lat="42.2811586" lon="13.7738232"><ele>350.20000000000005</ele><time>2026-05-02T09:35:59.024Z</time></trkpt><trkpt lat="42.2810779" lon="13.7737259"><ele>351.0</ele><time>2026-05-02T09:36:00.025Z</time></trkpt><trkpt lat="42.2809946" lon="13.7736171"><ele>352.75</ele><time>2026-05-02T09:36:01.025Z</time></trkpt><trkpt lat="42.2809126" lon="13.7734989"><ele>354.5</ele><time>2026-05-02T09:36:02.024Z</time></trkpt><trkpt lat="42.280837" lon="13.7733708"><ele>356.25</ele><time>2026-05-02T09:36:03.025Z</time></trkpt><trkpt lat="42.2807627" lon="13.7732312"><ele>358.0</ele><time>2026-05-02T09:36:04.025Z</time></trkpt><trkpt lat="42.2806887" lon="13.7730884"><ele>358.0</ele><time>2026-05-02T09:36:05.025Z</time></trkpt><trkpt lat="42.2806146" lon="13.7729436"><ele>358.0</ele><time>2026-05-02T09:36:06.025Z</time></trkpt><trkpt lat="42.2805392" lon="13.7727984"><ele>358.0</ele><time>2026-05-02T09:36:07.025Z</time></trkpt><trkpt lat="42.2804606" lon="13.7726546"><ele>358.0</ele><time>2026-05-02T09:36:08.025Z</time></trkpt><trkpt lat="42.2803875" lon="13.7725173"><ele>357.4</ele><time>2026-05-02T09:36:09.025Z</time></trkpt><trkpt lat="42.2803209" lon="13.7723927"><ele>356.79999999999995</ele><time>2026-05-02T09:36:10.024Z</time></trkpt><trkpt lat="42.2802507" lon="13.7722767"><ele>356.2</ele><time>2026-05-02T09:36:11.025Z</time></trkpt><trkpt lat="42.2801666" lon="13.7721919"><ele>355.6</ele><time>2026-05-02T09:36:12.025Z</time></trkpt><trkpt lat="42.2800665" lon="13.772126"><ele>355.0</ele><time>2026-05-02T09:36:13.025Z</time></trkpt><trkpt lat="42.2799675" lon="13.7720542"><ele>355.0</ele><time>2026-05-02T09:36:14.025Z</time></trkpt><trkpt lat="42.279874" lon="13.7719743"><ele>355.0</ele><time>2026-05-02T09:36:15.025Z</time></trkpt><trkpt lat="42.2797924" lon="13.7718819"><ele>355.0</ele><time>2026-05-02T09:36:16.025Z</time></trkpt><trkpt lat="42.279718" lon="13.7717902"><ele>355.0</ele><time>2026-05-02T09:36:17.025Z</time></trkpt><trkpt lat="42.2796597" lon="13.771681"><ele>355.0</ele><time>2026-05-02T09:36:18.025Z</time></trkpt><trkpt lat="42.2796077" lon="13.7715571"><ele>355.4</ele><time>2026-05-02T09:36:19.025Z</time></trkpt><trkpt lat="42.2795563" lon="13.7714254"><ele>355.8</ele><time>2026-05-02T09:36:20.024Z</time></trkpt><trkpt lat="42.2795073" lon="13.7712974"><ele>356.20000000000005</ele><time>2026-05-02T09:36:21.025Z</time></trkpt><trkpt lat="42.279462" lon="13.7711556"><ele>356.6</ele><time>2026-05-02T09:36:22.025Z</time></trkpt><trkpt lat="42.279414" lon="13.7710154"><ele>357.0</ele><time>2026-05-02T09:36:23.025Z</time></trkpt><trkpt lat="42.279366" lon="13.7708798"><ele>357.40000000000003</ele><time>2026-05-02T09:36:24.025Z</time></trkpt><trkpt lat="42.2793167" lon="13.7707453"><ele>357.8</ele><time>2026-05-02T09:36:25.025Z</time></trkpt><trkpt lat="42.2792705" lon="13.7706111"><ele>358.2</ele><time>2026-05-02T09:36:26.025Z</time></trkpt><trkpt lat="42.2792227" lon="13.77048"><ele>358.6</ele><time>2026-05-02T09:36:27.025Z</time></trkpt><trkpt lat="42.2791756" lon="13.770346"><ele>359.0</ele><time>2026-05-02T09:36:28.024Z</time></trkpt><trkpt lat="42.279125" lon="13.7702074"><ele>359.2</ele><time>2026-05-02T09:36:29.025Z</time></trkpt><trkpt lat="42.2790783" lon="13.7700778"><ele>359.4</ele><time>2026-05-02T09:36:30.025Z</time></trkpt><trkpt lat="42.2790318" lon="13.7699451"><ele>359.6</ele><time>2026-05-02T09:36:31.025Z</time></trkpt><trkpt lat="42.2789875" lon="13.7698182"><ele>359.8</ele><time>2026-05-02T09:36:32.025Z</time></trkpt><trkpt lat="42.2789488" lon="13.7696959"><ele>360.0</ele><time>2026-05-02T09:36:33.025Z</time></trkpt><trkpt lat="42.2789142" lon="13.7695914"><ele>360.0</ele><time>2026-05-02T09:36:34.025Z</time></trkpt><trkpt lat="42.2788852" lon="13.7695055"><ele>360.0</ele><time>2026-05-02T09:36:35.025Z</time></trkpt><trkpt lat="42.2788778" lon="13.769383"><ele>360.0</ele><time>2026-05-02T09:36:37.025Z</time></trkpt><trkpt lat="42.2789327" lon="13.7692782"><ele>360.0</ele><time>2026-05-02T09:36:39.025Z</time></trkpt><trkpt lat="42.2790284" lon="13.7691858"><ele>360.0</ele><time>2026-05-02T09:36:41.025Z</time></trkpt><trkpt lat="42.2790894" lon="13.7691417"><ele>360.0</ele><time>2026-05-02T09:36:42.024Z</time></trkpt><trkpt lat="42.2791612" lon="13.7690933"><ele>360.6</ele><time>2026-05-02T09:36:43.025Z</time></trkpt><trkpt lat="42.2792382" lon="13.7690356"><ele>361.2</ele><time>2026-05-02T09:36:44.024Z</time></trkpt><trkpt lat="42.2793192" lon="13.7689724"><ele>361.79999999999995</ele><time>2026-05-02T09:36:45.024Z</time></trkpt><trkpt lat="42.2794001" lon="13.7689073"><ele>362.4</ele><time>2026-05-02T09:36:46.025Z</time></trkpt><trkpt lat="42.2794922" lon="13.7688357"><ele>363.0</ele><time>2026-05-02T09:36:47.025Z</time></trkpt><trkpt lat="42.2795883" lon="13.7687607"><ele>363.0</ele><time>2026-05-02T09:36:48.025Z</time></trkpt><trkpt lat="42.2796957" lon="13.7686801"><ele>363.0</ele><time>2026-05-02T09:36:49.024Z</time></trkpt><trkpt lat="42.2798023" lon="13.7686015"><ele>363.0</ele><time>2026-05-02T09:36:50.025Z</time></trkpt><trkpt lat="42.2799139" lon="13.7685113"><ele>363.0</ele><time>2026-05-02T09:36:51.025Z</time></trkpt><trkpt lat="42.2800232" lon="13.7684058"><ele>364.0</ele><time>2026-05-02T09:36:52.025Z</time></trkpt><trkpt lat="42.2801238" lon="13.7682837"><ele>365.0</ele><time>2026-05-02T09:36:53.025Z</time></trkpt><trkpt lat="42.2802197" lon="13.7681447"><ele>366.0</ele><time>2026-05-02T09:36:54.025Z</time></trkpt><trkpt lat="42.2803164" lon="13.7680088"><ele>367.0</ele><time>2026-05-02T09:36:55.025Z</time></trkpt><trkpt lat="42.2804257" lon="13.7678715"><ele>367.0</ele><time>2026-05-02T09:36:56.025Z</time></trkpt><trkpt lat="42.2805399" lon="13.7677368"><ele>367.0</ele><time>2026-05-02T09:36:57.024Z</time></trkpt><trkpt lat="42.2806588" lon="13.7676086"><ele>367.0</ele><time>2026-05-02T09:36:58.025Z</time></trkpt><trkpt lat="42.2807822" lon="13.7674852"><ele>368.3333333333333</ele><time>2026-05-02T09:36:59.025Z</time></trkpt><trkpt lat="42.2809089" lon="13.7673674"><ele>369.6666666666667</ele><time>2026-05-02T09:37:00.024Z</time></trkpt><trkpt lat="42.2810371" lon="13.7672529"><ele>371.0</ele><time>2026-05-02T09:37:01.025Z</time></trkpt><trkpt lat="42.2811652" lon="13.7671382"><ele>371.0</ele><time>2026-05-02T09:37:02.025Z</time></trkpt><trkpt lat="42.2812904" lon="13.7670257"><ele>371.0</ele><time>2026-05-02T09:37:03.025Z</time></trkpt><trkpt lat="42.2814089" lon="13.7669218"><ele>371.0</ele><time>2026-05-02T09:37:04.025Z</time></trkpt><trkpt lat="42.2815227" lon="13.7668172"><ele>371.0</ele><time>2026-05-02T09:37:05.025Z</time></trkpt><trkpt lat="42.2816288" lon="13.7667111"><ele>372.25</ele><time>2026-05-02T09:37:06.025Z</time></trkpt><trkpt lat="42.2817271" lon="13.7666039"><ele>373.5</ele><time>2026-05-02T09:37:07.025Z</time></trkpt><trkpt lat="42.2818145" lon="13.7664898"><ele>374.75</ele><time>2026-05-02T09:37:08.025Z</time></trkpt><trkpt lat="42.2818984" lon="13.7663675"><ele>376.0</ele><time>2026-05-02T09:37:09.025Z</time></trkpt><trkpt lat="42.2819782" lon="13.7662383"><ele>376.0</ele><time>2026-05-02T09:37:10.025Z</time></trkpt><trkpt lat="42.2820583" lon="13.7661061"><ele>376.0</ele><time>2026-05-02T09:37:11.025Z</time></trkpt><trkpt lat="42.2821414" lon="13.7659757"><ele>376.0</ele><time>2026-05-02T09:37:12.025Z</time></trkpt><trkpt lat="42.2822268" lon="13.7658434"><ele>376.0</ele><time>2026-05-02T09:37:13.025Z</time></trkpt><trkpt lat="42.2823118" lon="13.765711"><ele>377.0</ele><time>2026-05-02T09:37:14.025Z</time></trkpt><trkpt lat="42.2823952" lon="13.7655797"><ele>378.0</ele><time>2026-05-02T09:37:15.025Z</time></trkpt><trkpt lat="42.2824805" lon="13.765451"><ele>379.0</ele><time>2026-05-02T09:37:16.024Z</time></trkpt><trkpt lat="42.28257" lon="13.7653218"><ele>380.0</ele><time>2026-05-02T09:37:17.024Z</time></trkpt><trkpt lat="42.2826537" lon="13.7651914"><ele>381.0</ele><time>2026-05-02T09:37:18.025Z</time></trkpt><trkpt lat="42.2827393" lon="13.7650621"><ele>382.0</ele><time>2026-05-02T09:37:19.025Z</time></trkpt><trkpt lat="42.2828244" lon="13.764933"><ele>383.0</ele><time>2026-05-02T09:37:20.025Z</time></trkpt><trkpt lat="42.2829081" lon="13.7648075"><ele>384.0</ele><time>2026-05-02T09:37:21.025Z</time></trkpt><trkpt lat="42.2829916" lon="13.7646839"><ele>384.0</ele><time>2026-05-02T09:37:22.025Z</time></trkpt><trkpt lat="42.2830729" lon="13.7645643"><ele>384.0</ele><time>2026-05-02T09:37:23.025Z</time></trkpt><trkpt lat="42.2831513" lon="13.7644479"><ele>384.0</ele><time>2026-05-02T09:37:24.025Z</time></trkpt><trkpt lat="42.2832238" lon="13.7643366"><ele>384.0</ele><time>2026-05-02T09:37:25.025Z</time></trkpt><trkpt lat="42.283284" lon="13.7642356"><ele>384.0</ele><time>2026-05-02T09:37:26.025Z</time></trkpt><trkpt lat="42.283349" lon="13.7641318"><ele>384.5</ele><time>2026-05-02T09:37:27.025Z</time></trkpt><trkpt lat="42.2834071" lon="13.7640415"><ele>385.0</ele><time>2026-05-02T09:37:28.024Z</time></trkpt><trkpt lat="42.28346" lon="13.7639692"><ele>385.5</ele><time>2026-05-02T09:37:29.025Z</time></trkpt><trkpt lat="42.2835289" lon="13.7638674"><ele>386.0</ele><time>2026-05-02T09:37:31.025Z</time></trkpt><trkpt lat="42.2835476" lon="13.7637785"><ele>386.5</ele><time>2026-05-02T09:37:40.025Z</time></trkpt><trkpt lat="42.2834841" lon="13.7637555"><ele>387.0</ele><time>2026-05-02T09:37:42.025Z</time></trkpt><trkpt lat="42.28337" lon="13.7637415"><ele>387.0</ele><time>2026-05-02T09:37:44.025Z</time></trkpt><trkpt lat="42.2833037" lon="13.763739"><ele>387.0</ele><time>2026-05-02T09:37:45.025Z</time></trkpt><trkpt lat="42.2832275" lon="13.7637334"><ele>387.0</ele><time>2026-05-02T09:37:46.025Z</time></trkpt><trkpt lat="42.2831457" lon="13.7637248"><ele>387.0</ele><time>2026-05-02T09:37:47.025Z</time></trkpt><trkpt lat="42.2830661" lon="13.7637146"><ele>387.0</ele><time>2026-05-02T09:37:48.025Z</time></trkpt><trkpt lat="42.2829902" lon="13.7637105"><ele>387.0</ele><time>2026-05-02T09:37:49.025Z</time></trkpt><trkpt lat="42.2829252" lon="13.763714"><ele>387.0</ele><time>2026-05-02T09:37:50.025Z</time></trkpt><trkpt lat="42.282835" lon="13.7637491"><ele>387.57142857142856</ele><time>2026-05-02T09:37:52.024Z</time></trkpt><trkpt lat="42.2827686" lon="13.7637749"><ele>388.14285714285717</ele><time>2026-05-02T09:37:55.025Z</time></trkpt><trkpt lat="42.2827016" lon="13.7637545"><ele>388.71428571428567</ele><time>2026-05-02T09:38:22.025Z</time></trkpt><trkpt lat="42.2826273" lon="13.7637253"><ele>389.2857142857143</ele><time>2026-05-02T09:38:25.025Z</time></trkpt><trkpt lat="42.282561" lon="13.7636964"><ele>389.85714285714283</ele><time>2026-05-02T09:38:27.025Z</time></trkpt><trkpt lat="42.2824884" lon="13.7636585"><ele>390.4285714285714</ele><time>2026-05-02T09:38:29.025Z</time></trkpt><trkpt lat="42.2824274" lon="13.7636236"><ele>391.0</ele><time>2026-05-02T09:39:09.025Z</time></trkpt><trkpt lat="42.282362" lon="13.7635871"><ele>390.99999999999994</ele><time>2026-05-02T09:39:26.059Z</time></trkpt><trkpt lat="42.2822955" lon="13.7635712"><ele>391.0</ele><time>2026-05-02T09:39:33.025Z</time></trkpt><trkpt lat="42.2823589" lon="13.7635891"><ele>391.0</ele><time>2026-05-02T09:43:17.024Z</time></trkpt><trkpt lat="42.2824175" lon="13.7636207"><ele>391.0</ele><time>2026-05-02T09:44:18.025Z</time></trkpt><trkpt lat="42.2824743" lon="13.7636619"><ele>391.0</ele><time>2026-05-02T09:46:01.025Z</time></trkpt><trkpt lat="42.2824617" lon="13.7637475"><ele>390.99999999999994</ele><time>2026-05-02T09:46:51.025Z</time></trkpt><trkpt lat="42.2824762" lon="13.7638318"><ele>391.0</ele><time>2026-05-02T09:46:53.024Z</time></trkpt><trkpt lat="42.2825332" lon="13.7639016"><ele>391.0</ele><time>2026-05-02T09:46:55.025Z</time></trkpt><trkpt lat="42.2825456" lon="13.7640256"><ele>391.0</ele><time>2026-05-02T09:46:58.025Z</time></trkpt><trkpt lat="42.2824423" lon="13.7641326"><ele>391.0</ele><time>2026-05-02T09:47:00.025Z</time></trkpt><trkpt lat="42.2823687" lon="13.7642035"><ele>391.0</ele><time>2026-05-02T09:47:01.025Z</time></trkpt><trkpt lat="42.2822776" lon="13.7642774"><ele>391.0</ele><time>2026-05-02T09:47:02.025Z</time></trkpt><trkpt lat="42.2821759" lon="13.7643598"><ele>392.5</ele><time>2026-05-02T09:47:03.024Z</time></trkpt><trkpt lat="42.2820696" lon="13.7644573"><ele>394.0</ele><time>2026-05-02T09:47:04.025Z</time></trkpt><trkpt lat="42.2819582" lon="13.7645695"><ele>395.5</ele><time>2026-05-02T09:47:05.025Z</time></trkpt><trkpt lat="42.2818477" lon="13.7647012"><ele>397.0</ele><time>2026-05-02T09:47:06.025Z</time></trkpt><trkpt lat="42.2817385" lon="13.7648491"><ele>397.0</ele><time>2026-05-02T09:47:07.025Z</time></trkpt><trkpt lat="42.2816215" lon="13.7650032"><ele>397.0</ele><time>2026-05-02T09:47:08.024Z</time></trkpt><trkpt lat="42.2814986" lon="13.7651553"><ele>397.0</ele><time>2026-05-02T09:47:09.025Z</time></trkpt><trkpt lat="42.2813715" lon="13.7653041"><ele>398.0</ele><time>2026-05-02T09:47:10.025Z</time></trkpt><trkpt lat="42.2812416" lon="13.7654466"><ele>399.0</ele><time>2026-05-02T09:47:11.025Z</time></trkpt><trkpt lat="42.2811268" lon="13.7655671"><ele>400.0</ele><time>2026-05-02T09:47:12.025Z</time></trkpt><trkpt lat="42.2810198" lon="13.7656746"><ele>401.0</ele><time>2026-05-02T09:47:13.025Z</time></trkpt><trkpt lat="42.2809194" lon="13.7657574"><ele>401.0</ele><time>2026-05-02T09:47:14.025Z</time></trkpt><trkpt lat="42.280815" lon="13.7658247"><ele>401.0</ele><time>2026-05-02T09:47:15.025Z</time></trkpt><trkpt lat="42.2807059" lon="13.7658723"><ele>401.0</ele><time>2026-05-02T09:47:16.025Z</time></trkpt><trkpt lat="42.2805903" lon="13.7658995"><ele>401.0</ele><time>2026-05-02T09:47:17.025Z</time></trkpt><trkpt lat="42.2804735" lon="13.7659053"><ele>401.25</ele><time>2026-05-02T09:47:18.025Z</time></trkpt><trkpt lat="42.2803548" lon="13.7658905"><ele>401.5</ele><time>2026-05-02T09:47:19.025Z</time></trkpt><trkpt lat="42.2802353" lon="13.7658609"><ele>401.75</ele><time>2026-05-02T09:47:20.025Z</time></trkpt><trkpt lat="42.2801153" lon="13.765812"><ele>402.0</ele><time>2026-05-02T09:47:21.025Z</time></trkpt><trkpt lat="42.2799988" lon="13.7657469"><ele>402.0</ele><time>2026-05-02T09:47:22.025Z</time></trkpt><trkpt lat="42.2798845" lon="13.7656697"><ele>402.0</ele><time>2026-05-02T09:47:23.025Z</time></trkpt><trkpt lat="42.2797709" lon="13.7655821"><ele>402.0</ele><time>2026-05-02T09:47:24.025Z</time></trkpt><trkpt lat="42.2796621" lon="13.7654887"><ele>402.0</ele><time>2026-05-02T09:47:25.025Z</time></trkpt><trkpt lat="42.2795544" lon="13.7653944"><ele>400.25</ele><time>2026-05-02T09:47:26.025Z</time></trkpt><trkpt lat="42.2794444" lon="13.7652982"><ele>398.5</ele><time>2026-05-02T09:47:27.025Z</time></trkpt><trkpt lat="42.2793348" lon="13.7652016"><ele>396.75</ele><time>2026-05-02T09:47:28.025Z</time></trkpt><trkpt lat="42.2792268" lon="13.7651111"><ele>395.0</ele><time>2026-05-02T09:47:29.025Z</time></trkpt><trkpt lat="42.2791167" lon="13.7650158"><ele>397.5</ele><time>2026-05-02T09:47:30.024Z</time></trkpt><trkpt lat="42.2790079" lon="13.7649136"><ele>400.0</ele><time>2026-05-02T09:47:31.025Z</time></trkpt><trkpt lat="42.2789055" lon="13.7647972"><ele>402.5</ele><time>2026-05-02T09:47:32.025Z</time></trkpt><trkpt lat="42.278811" lon="13.764669"><ele>405.0</ele><time>2026-05-02T09:47:33.024Z</time></trkpt><trkpt lat="42.2787118" lon="13.7645543"><ele>405.0</ele><time>2026-05-02T09:47:34.025Z</time></trkpt><trkpt lat="42.2786052" lon="13.7644888"><ele>405.0</ele><time>2026-05-02T09:47:35.025Z</time></trkpt><trkpt lat="42.2784894" lon="13.7644584"><ele>405.0</ele><time>2026-05-02T09:47:36.025Z</time></trkpt><trkpt lat="42.2783695" lon="13.7644471"><ele>405.0</ele><time>2026-05-02T09:47:37.025Z</time></trkpt><trkpt lat="42.2782536" lon="13.7644358"><ele>405.0</ele><time>2026-05-02T09:47:38.024Z</time></trkpt><trkpt lat="42.2781447" lon="13.7644285"><ele>405.0</ele><time>2026-05-02T09:47:39.025Z</time></trkpt><trkpt lat="42.2780357" lon="13.7644077"><ele>405.0</ele><time>2026-05-02T09:47:40.025Z</time></trkpt><trkpt lat="42.2779269" lon="13.7643731"><ele>405.0</ele><time>2026-05-02T09:47:41.024Z</time></trkpt><trkpt lat="42.2778189" lon="13.7643238"><ele>405.0</ele><time>2026-05-02T09:47:42.025Z</time></trkpt><trkpt lat="42.2777072" lon="13.7642641"><ele>410.25</ele><time>2026-05-02T09:47:43.025Z</time></trkpt><trkpt lat="42.2775902" lon="13.7642096"><ele>415.5</ele><time>2026-05-02T09:47:44.025Z</time></trkpt><trkpt lat="42.2774651" lon="13.7641791"><ele>420.75</ele><time>2026-05-02T09:47:45.025Z</time></trkpt><trkpt lat="42.2773358" lon="13.7641885"><ele>426.0</ele><time>2026-05-02T09:47:46.025Z</time></trkpt><trkpt lat="42.2772089" lon="13.7642167"><ele>427.25</ele><time>2026-05-02T09:47:47.025Z</time></trkpt><trkpt lat="42.27708" lon="13.7642493"><ele>428.5</ele><time>2026-05-02T09:47:48.025Z</time></trkpt><trkpt lat="42.2769479" lon="13.764268"><ele>429.75</ele><time>2026-05-02T09:47:49.025Z</time></trkpt><trkpt lat="42.276814" lon="13.7642753"><ele>431.0</ele><time>2026-05-02T09:47:50.025Z</time></trkpt><trkpt lat="42.2766783" lon="13.7642769"><ele>431.0</ele><time>2026-05-02T09:47:51.025Z</time></trkpt><trkpt lat="42.2765389" lon="13.7642723"><ele>431.0</ele><time>2026-05-02T09:47:52.025Z</time></trkpt><trkpt lat="42.2763999" lon="13.7642693"><ele>431.0</ele><time>2026-05-02T09:47:53.024Z</time></trkpt><trkpt lat="42.2762755" lon="13.7642702"><ele>431.0</ele><time>2026-05-02T09:47:54.025Z</time></trkpt><trkpt lat="42.2761589" lon="13.7642728"><ele>431.6</ele><time>2026-05-02T09:47:55.024Z</time></trkpt><trkpt lat="42.2760488" lon="13.7642927"><ele>432.20000000000005</ele><time>2026-05-02T09:47:56.025Z</time></trkpt><trkpt lat="42.2759457" lon="13.7643388"><ele>432.79999999999995</ele><time>2026-05-02T09:47:57.025Z</time></trkpt><trkpt lat="42.2758511" lon="13.7643822"><ele>433.4</ele><time>2026-05-02T09:47:58.025Z</time></trkpt><trkpt lat="42.275775" lon="13.7644294"><ele>434.0</ele><time>2026-05-02T09:47:59.025Z</time></trkpt><trkpt lat="42.2757178" lon="13.7644952"><ele>433.99999999999994</ele><time>2026-05-02T09:48:00.025Z</time></trkpt><trkpt lat="42.2756826" lon="13.7645837"><ele>434.0</ele><time>2026-05-02T09:48:01.025Z</time></trkpt><trkpt lat="42.2756704" lon="13.7646929"><ele>434.0</ele><time>2026-05-02T09:48:02.025Z</time></trkpt><trkpt lat="42.2756875" lon="13.7648054"><ele>434.0</ele><time>2026-05-02T09:48:03.025Z</time></trkpt><trkpt lat="42.2757377" lon="13.7649039"><ele>433.99999999999994</ele><time>2026-05-02T09:48:04.025Z</time></trkpt><trkpt lat="42.2758099" lon="13.7649962"><ele>434.0</ele><time>2026-05-02T09:48:05.025Z</time></trkpt><trkpt lat="42.2758906" lon="13.7650868"><ele>434.0</ele><time>2026-05-02T09:48:06.025Z</time></trkpt><trkpt lat="42.2759787" lon="13.7651866"><ele>434.0</ele><time>2026-05-02T09:48:07.025Z</time></trkpt><trkpt lat="42.2760625" lon="13.7653042"><ele>434.0</ele><time>2026-05-02T09:48:08.024Z</time></trkpt><trkpt lat="42.2761423" lon="13.7654341"><ele>434.0</ele><time>2026-05-02T09:48:09.025Z</time></trkpt><trkpt lat="42.276217" lon="13.7655729"><ele>437.25</ele><time>2026-05-02T09:48:10.025Z</time></trkpt><trkpt lat="42.2762776" lon="13.7657232"><ele>440.5</ele><time>2026-05-02T09:48:11.025Z</time></trkpt><trkpt lat="42.2763198" lon="13.7658844"><ele>443.75</ele><time>2026-05-02T09:48:12.025Z</time></trkpt><trkpt lat="42.2763441" lon="13.7660496"><ele>447.0</ele><time>2026-05-02T09:48:13.025Z</time></trkpt><trkpt lat="42.2763505" lon="13.7662181"><ele>447.0</ele><time>2026-05-02T09:48:14.025Z</time></trkpt><trkpt lat="42.2763353" lon="13.766384"><ele>447.0</ele><time>2026-05-02T09:48:15.025Z</time></trkpt><trkpt lat="42.2762921" lon="13.7665399"><ele>447.0</ele><time>2026-05-02T09:48:16.025Z</time></trkpt><trkpt lat="42.2762281" lon="13.7666826"><ele>447.0</ele><time>2026-05-02T09:48:17.025Z</time></trkpt><trkpt lat="42.2761457" lon="13.7668054"><ele>442.25</ele><time>2026-05-02T09:48:18.025Z</time></trkpt><trkpt lat="42.2760467" lon="13.7669113"><ele>437.5</ele><time>2026-05-02T09:48:19.025Z</time></trkpt><trkpt lat="42.2759396" lon="13.7670072"><ele>432.75</ele><time>2026-05-02T09:48:20.025Z</time></trkpt><trkpt lat="42.275825" lon="13.7671053"><ele>428.0</ele><time>2026-05-02T09:48:21.025Z</time></trkpt><trkpt lat="42.2757053" lon="13.7672033"><ele>434.25</ele><time>2026-05-02T09:48:22.025Z</time></trkpt><trkpt lat="42.2755816" lon="13.7672969"><ele>440.5</ele><time>2026-05-02T09:48:23.024Z</time></trkpt><trkpt lat="42.2754527" lon="13.7673938"><ele>446.75</ele><time>2026-05-02T09:48:24.025Z</time></trkpt><trkpt lat="42.2753215" lon="13.7674885"><ele>453.0</ele><time>2026-05-02T09:48:25.025Z</time></trkpt><trkpt lat="42.2751868" lon="13.7675777"><ele>453.0</ele><time>2026-05-02T09:48:26.024Z</time></trkpt><trkpt lat="42.2750473" lon="13.7676661"><ele>453.0</ele><time>2026-05-02T09:48:27.025Z</time></trkpt><trkpt lat="42.2749139" lon="13.767744"><ele>453.0</ele><time>2026-05-02T09:48:28.025Z</time></trkpt><trkpt lat="42.2747857" lon="13.7677983"><ele>453.0</ele><time>2026-05-02T09:48:29.024Z</time></trkpt><trkpt lat="42.2746521" lon="13.7678315"><ele>447.5</ele><time>2026-05-02T09:48:30.025Z</time></trkpt><trkpt lat="42.274517" lon="13.7678473"><ele>442.0</ele><time>2026-05-02T09:48:31.025Z</time></trkpt><trkpt lat="42.2743813" lon="13.7678445"><ele>436.5</ele><time>2026-05-02T09:48:32.025Z</time></trkpt><trkpt lat="42.2742435" lon="13.7678305"><ele>431.0</ele><time>2026-05-02T09:48:33.024Z</time></trkpt><trkpt lat="42.2741059" lon="13.7678096"><ele>431.0</ele><time>2026-05-02T09:48:34.024Z</time></trkpt><trkpt lat="42.2739693" lon="13.7677744"><ele>431.0</ele><time>2026-05-02T09:48:35.022Z</time></trkpt><trkpt lat="42.2738463" lon="13.7677291"><ele>431.0</ele><time>2026-05-02T09:48:36.024Z</time></trkpt><trkpt lat="42.2737376" lon="13.767665"><ele>431.0</ele><time>2026-05-02T09:48:37.025Z</time></trkpt><trkpt lat="42.2736383" lon="13.7675703"><ele>436.0</ele><time>2026-05-02T09:48:38.025Z</time></trkpt><trkpt lat="42.273548" lon="13.7674545"><ele>441.0</ele><time>2026-05-02T09:48:39.025Z</time></trkpt><trkpt lat="42.2734579" lon="13.7673297"><ele>446.0</ele><time>2026-05-02T09:48:40.025Z</time></trkpt><trkpt lat="42.2733668" lon="13.7672063"><ele>451.0</ele><time>2026-05-02T09:48:41.025Z</time></trkpt><trkpt lat="42.2732777" lon="13.7671032"><ele>451.0</ele><time>2026-05-02T09:48:42.025Z</time></trkpt><trkpt lat="42.2731825" lon="13.7670338"><ele>451.0</ele><time>2026-05-02T09:48:43.025Z</time></trkpt><trkpt lat="42.2730846" lon="13.7670082"><ele>451.0</ele><time>2026-05-02T09:48:44.025Z</time></trkpt><trkpt lat="42.2729838" lon="13.7670295"><ele>451.0</ele><time>2026-05-02T09:48:45.025Z</time></trkpt><trkpt lat="42.2728909" lon="13.7670983"><ele>451.0</ele><time>2026-05-02T09:48:46.025Z</time></trkpt><trkpt lat="42.2728034" lon="13.7671984"><ele>453.0</ele><time>2026-05-02T09:48:47.025Z</time></trkpt><trkpt lat="42.2727128" lon="13.7672984"><ele>455.0</ele><time>2026-05-02T09:48:48.025Z</time></trkpt><trkpt lat="42.2726155" lon="13.7673756"><ele>457.0</ele><time>2026-05-02T09:48:49.025Z</time></trkpt><trkpt lat="42.2725089" lon="13.7674338"><ele>459.0</ele><time>2026-05-02T09:48:50.025Z</time></trkpt><trkpt lat="42.2723949" lon="13.7674873"><ele>459.0</ele><time>2026-05-02T09:48:51.025Z</time></trkpt><trkpt lat="42.2722783" lon="13.7675386"><ele>459.0</ele><time>2026-05-02T09:48:52.025Z</time></trkpt><trkpt lat="42.2721587" lon="13.7675865"><ele>459.0</ele><time>2026-05-02T09:48:53.025Z</time></trkpt><trkpt lat="42.2720353" lon="13.767634"><ele>459.0</ele><time>2026-05-02T09:48:54.025Z</time></trkpt><trkpt lat="42.2719099" lon="13.7676793"><ele>456.25</ele><time>2026-05-02T09:48:55.025Z</time></trkpt><trkpt lat="42.2717789" lon="13.7677157"><ele>453.5</ele><time>2026-05-02T09:48:56.024Z</time></trkpt><trkpt lat="42.2716438" lon="13.7677354"><ele>450.75</ele><time>2026-05-02T09:48:57.024Z</time></trkpt><trkpt lat="42.2715052" lon="13.7677381"><ele>448.0</ele><time>2026-05-02T09:48:58.025Z</time></trkpt><trkpt lat="42.2713646" lon="13.767736"><ele>448.0</ele><time>2026-05-02T09:48:59.025Z</time></trkpt><trkpt lat="42.2712222" lon="13.767733"><ele>448.0</ele><time>2026-05-02T09:49:00.025Z</time></trkpt><trkpt lat="42.2710796" lon="13.7677341"><ele>448.0</ele><time>2026-05-02T09:49:01.025Z</time></trkpt><trkpt lat="42.2709392" lon="13.7677399"><ele>448.0</ele><time>2026-05-02T09:49:02.025Z</time></trkpt><trkpt lat="42.2708062" lon="13.7677488"><ele>448.0</ele><time>2026-05-02T09:49:03.024Z</time></trkpt><trkpt lat="42.2706801" lon="13.7677609"><ele>448.0</ele><time>2026-05-02T09:49:04.025Z</time></trkpt><trkpt lat="42.270559" lon="13.7677677"><ele>448.0</ele><time>2026-05-02T09:49:05.025Z</time></trkpt><trkpt lat="42.2704406" lon="13.7677682"><ele>448.0</ele><time>2026-05-02T09:49:06.025Z</time></trkpt><trkpt lat="42.2703256" lon="13.7677541"><ele>448.0</ele><time>2026-05-02T09:49:07.025Z</time></trkpt><trkpt lat="42.2702125" lon="13.7677287"><ele>448.0</ele><time>2026-05-02T09:49:08.025Z</time></trkpt><trkpt lat="42.2700974" lon="13.7676966"><ele>448.0</ele><time>2026-05-02T09:49:09.025Z</time></trkpt><trkpt lat="42.2699849" lon="13.7676621"><ele>448.0</ele><time>2026-05-02T09:49:10.025Z</time></trkpt><trkpt lat="42.2698763" lon="13.7676171"><ele>450.0</ele><time>2026-05-02T09:49:11.025Z</time></trkpt><trkpt lat="42.2697783" lon="13.7675484"><ele>451.99999999999994</ele><time>2026-05-02T09:49:12.025Z</time></trkpt><trkpt lat="42.2696885" lon="13.7674627"><ele>453.99999999999994</ele><time>2026-05-02T09:49:13.024Z</time></trkpt><trkpt lat="42.269601" lon="13.7673651"><ele>456.0</ele><time>2026-05-02T09:49:14.025Z</time></trkpt><trkpt lat="42.2695132" lon="13.7672658"><ele>458.0</ele><time>2026-05-02T09:49:15.025Z</time></trkpt><trkpt lat="42.269429" lon="13.7671629"><ele>458.0</ele><time>2026-05-02T09:49:16.025Z</time></trkpt><trkpt lat="42.2693517" lon="13.7670521"><ele>457.99999999999994</ele><time>2026-05-02T09:49:17.025Z</time></trkpt><trkpt lat="42.2692799" lon="13.7669328"><ele>457.99999999999994</ele><time>2026-05-02T09:49:18.025Z</time></trkpt><trkpt lat="42.2692201" lon="13.7668067"><ele>458.0</ele><time>2026-05-02T09:49:19.025Z</time></trkpt><trkpt lat="42.2691831" lon="13.7666775"><ele>458.0</ele><time>2026-05-02T09:49:20.025Z</time></trkpt><trkpt lat="42.2691773" lon="13.7665442"><ele>460.79999999999995</ele><time>2026-05-02T09:49:21.025Z</time></trkpt><trkpt lat="42.2692018" lon="13.766417"><ele>463.59999999999997</ele><time>2026-05-02T09:49:22.025Z</time></trkpt><trkpt lat="42.2692567" lon="13.7663077"><ele>466.40000000000003</ele><time>2026-05-02T09:49:23.025Z</time></trkpt><trkpt lat="42.2693212" lon="13.7662059"><ele>469.20000000000005</ele><time>2026-05-02T09:49:24.025Z</time></trkpt><trkpt lat="42.26939" lon="13.7661027"><ele>472.0</ele><time>2026-05-02T09:49:25.025Z</time></trkpt><trkpt lat="42.2694492" lon="13.7659926"><ele>472.0</ele><time>2026-05-02T09:49:26.025Z</time></trkpt><trkpt lat="42.2695047" lon="13.7658703"><ele>472.00000000000006</ele><time>2026-05-02T09:49:27.025Z</time></trkpt><trkpt lat="42.2695537" lon="13.7657429"><ele>472.00000000000006</ele><time>2026-05-02T09:49:28.025Z</time></trkpt><trkpt lat="42.2695972" lon="13.7656084"><ele>472.0</ele><time>2026-05-02T09:49:29.025Z</time></trkpt><trkpt lat="42.2696347" lon="13.7654681"><ele>472.0</ele><time>2026-05-02T09:49:30.025Z</time></trkpt><trkpt lat="42.2696653" lon="13.7653231"><ele>473.0</ele><time>2026-05-02T09:49:31.025Z</time></trkpt><trkpt lat="42.2696954" lon="13.7651735"><ele>474.0</ele><time>2026-05-02T09:49:32.024Z</time></trkpt><trkpt lat="42.2697305" lon="13.7650216"><ele>475.0</ele><time>2026-05-02T09:49:33.025Z</time></trkpt><trkpt lat="42.2697688" lon="13.7648672"><ele>476.0</ele><time>2026-05-02T09:49:34.025Z</time></trkpt><trkpt lat="42.2698121" lon="13.7647146"><ele>480.0</ele><time>2026-05-02T09:49:35.025Z</time></trkpt><trkpt lat="42.269856" lon="13.7645581"><ele>484.0</ele><time>2026-05-02T09:49:36.025Z</time></trkpt><trkpt lat="42.2698958" lon="13.7643979"><ele>488.0</ele><time>2026-05-02T09:49:37.025Z</time></trkpt><trkpt lat="42.269919" lon="13.7642319"><ele>492.0</ele><time>2026-05-02T09:49:38.025Z</time></trkpt><trkpt lat="42.2699284" lon="13.7640641"><ele>492.0</ele><time>2026-05-02T09:49:39.025Z</time></trkpt><trkpt lat="42.2699282" lon="13.7639025"><ele>492.0</ele><time>2026-05-02T09:49:40.025Z</time></trkpt><trkpt lat="42.2699197" lon="13.7637513"><ele>492.0</ele><time>2026-05-02T09:49:41.024Z</time></trkpt><trkpt lat="42.2698866" lon="13.7636106"><ele>492.0</ele><time>2026-05-02T09:49:42.025Z</time></trkpt><trkpt lat="42.2698257" lon="13.7634713"><ele>492.0</ele><time>2026-05-02T09:49:43.025Z</time></trkpt><trkpt lat="42.2697686" lon="13.7633332"><ele>492.00000000000006</ele><time>2026-05-02T09:49:44.025Z</time></trkpt><trkpt lat="42.2697338" lon="13.7631938"><ele>492.00000000000006</ele><time>2026-05-02T09:49:45.025Z</time></trkpt><trkpt lat="42.269719" lon="13.7630496"><ele>492.0</ele><time>2026-05-02T09:49:46.025Z</time></trkpt><trkpt lat="42.2697171" lon="13.7629082"><ele>492.0</ele><time>2026-05-02T09:49:47.025Z</time></trkpt><trkpt lat="42.2697183" lon="13.7627794"><ele>493.28571428571433</ele><time>2026-05-02T09:49:48.024Z</time></trkpt><trkpt lat="42.2697109" lon="13.7626753"><ele>494.57142857142856</ele><time>2026-05-02T09:49:49.025Z</time></trkpt><trkpt lat="42.2696849" lon="13.7625951"><ele>495.8571428571429</ele><time>2026-05-02T09:49:50.025Z</time></trkpt><trkpt lat="42.2696389" lon="13.7625342"><ele>497.14285714285717</ele><time>2026-05-02T09:49:51.025Z</time></trkpt><trkpt lat="42.2695768" lon="13.7625068"><ele>498.42857142857144</ele><time>2026-05-02T09:49:52.025Z</time></trkpt><trkpt lat="42.2695084" lon="13.7625191"><ele>499.7142857142857</ele><time>2026-05-02T09:49:53.025Z</time></trkpt><trkpt lat="42.2694366" lon="13.7625772"><ele>501.0</ele><time>2026-05-02T09:49:54.025Z</time></trkpt><trkpt lat="42.2693668" lon="13.7626401"><ele>499.20000000000005</ele><time>2026-05-02T09:49:55.024Z</time></trkpt><trkpt lat="42.2692894" lon="13.7627136"><ele>497.40000000000003</ele><time>2026-05-02T09:49:56.025Z</time></trkpt><trkpt lat="42.2692118" lon="13.7627926"><ele>495.6</ele><time>2026-05-02T09:49:57.025Z</time></trkpt><trkpt lat="42.2691318" lon="13.7628733"><ele>493.8</ele><time>2026-05-02T09:49:58.025Z</time></trkpt><trkpt lat="42.269058" lon="13.762948"><ele>492.0</ele><time>2026-05-02T09:49:59.025Z</time></trkpt><trkpt lat="42.2689947" lon="13.7630082"><ele>495.5</ele><time>2026-05-02T09:50:00.025Z</time></trkpt><trkpt lat="42.2689057" lon="13.7631031"><ele>499.0</ele><time>2026-05-02T09:50:02.025Z</time></trkpt><trkpt lat="42.2688311" lon="13.7632004"><ele>502.5</ele><time>2026-05-02T09:50:04.025Z</time></trkpt><trkpt lat="42.2687473" lon="13.7633106"><ele>506.0</ele><time>2026-05-02T09:50:06.024Z</time></trkpt><trkpt lat="42.268673" lon="13.763435"><ele>504.75</ele><time>2026-05-02T09:50:08.025Z</time></trkpt><trkpt lat="42.2686094" lon="13.7635492"><ele>503.5</ele><time>2026-05-02T09:50:10.024Z</time></trkpt><trkpt lat="42.2685405" lon="13.7636748"><ele>502.25</ele><time>2026-05-02T09:50:12.025Z</time></trkpt><trkpt lat="42.2684667" lon="13.763814"><ele>501.0</ele><time>2026-05-02T09:50:14.025Z</time></trkpt><trkpt lat="42.2683951" lon="13.7639198"><ele>501.0</ele><time>2026-05-02T09:50:16.025Z</time></trkpt><trkpt lat="42.2684757" lon="13.7638421"><ele>501.0</ele><time>2026-05-02T09:50:27.024Z</time></trkpt><trkpt lat="42.2685452" lon="13.7637182"><ele>501.0</ele><time>2026-05-02T09:50:29.025Z</time></trkpt><trkpt lat="42.2685848" lon="13.7636423"><ele>501.0</ele><time>2026-05-02T09:50:30.025Z</time></trkpt><trkpt lat="42.2686274" lon="13.7635522"><ele>501.0</ele><time>2026-05-02T09:50:31.025Z</time></trkpt><trkpt lat="42.2686758" lon="13.7634586"><ele>501.0</ele><time>2026-05-02T09:50:32.024Z</time></trkpt><trkpt lat="42.2687353" lon="13.7633696"><ele>501.8333333333333</ele><time>2026-05-02T09:50:33.025Z</time></trkpt><trkpt lat="42.2688002" lon="13.7632812"><ele>502.66666666666663</ele><time>2026-05-02T09:50:34.025Z</time></trkpt><trkpt lat="42.268864" lon="13.7631975"><ele>503.5</ele><time>2026-05-02T09:50:35.025Z</time></trkpt><trkpt lat="42.268925" lon="13.7631172"><ele>504.3333333333333</ele><time>2026-05-02T09:50:36.025Z</time></trkpt><trkpt lat="42.2689858" lon="13.7630424"><ele>505.16666666666663</ele><time>2026-05-02T09:50:37.025Z</time></trkpt><trkpt lat="42.269042" lon="13.7629762"><ele>506.0</ele><time>2026-05-02T09:50:38.025Z</time></trkpt><trkpt lat="42.2690968" lon="13.7629164"><ele>505.16666666666663</ele><time>2026-05-02T09:50:39.025Z</time></trkpt><trkpt lat="42.2691536" lon="13.7628612"><ele>504.3333333333333</ele><time>2026-05-02T09:50:40.025Z</time></trkpt><trkpt lat="42.2692037" lon="13.7628075"><ele>503.5</ele><time>2026-05-02T09:50:41.024Z</time></trkpt><trkpt lat="42.269295" lon="13.7627155"><ele>502.66666666666663</ele><time>2026-05-02T09:50:43.025Z</time></trkpt><trkpt lat="42.2693671" lon="13.7626431"><ele>501.8333333333333</ele><time>2026-05-02T09:50:45.025Z</time></trkpt><trkpt lat="42.2694214" lon="13.7625876"><ele>501.0</ele><time>2026-05-02T09:50:47.025Z</time></trkpt><trkpt lat="42.2694901" lon="13.7625318"><ele>501.0</ele><time>2026-05-02T09:50:51.025Z</time></trkpt><trkpt lat="42.2695616" lon="13.7625231"><ele>501.0</ele><time>2026-05-02T09:50:54.025Z</time></trkpt><trkpt lat="42.2696372" lon="13.7625515"><ele>501.0</ele><time>2026-05-02T09:50:57.025Z</time></trkpt><trkpt lat="42.2696853" lon="13.7626529"><ele>501.0</ele><time>2026-05-02T09:51:00.025Z</time></trkpt><trkpt lat="42.2696876" lon="13.7627483"><ele>501.0</ele><time>2026-05-02T09:51:02.025Z</time></trkpt><trkpt lat="42.2696989" lon="13.7628494"><ele>501.0</ele><time>2026-05-02T09:51:18.025Z</time></trkpt><trkpt lat="42.269703" lon="13.7629963"><ele>500.1666666666667</ele><time>2026-05-02T09:51:21.024Z</time></trkpt><trkpt lat="42.269707" lon="13.763149"><ele>499.33333333333337</ele><time>2026-05-02T09:51:23.025Z</time></trkpt><trkpt lat="42.2697311" lon="13.7632772"><ele>498.5</ele><time>2026-05-02T09:51:25.024Z</time></trkpt><trkpt lat="42.2697655" lon="13.7633826"><ele>497.6666666666667</ele><time>2026-05-02T09:51:27.025Z</time></trkpt><trkpt lat="42.2697894" lon="13.7634705"><ele>496.83333333333337</ele><time>2026-05-02T09:51:30.025Z</time></trkpt><trkpt lat="42.2698062" lon="13.7633728"><ele>496.0</ele><time>2026-05-02T09:52:08.025Z</time></trkpt><trkpt lat="42.2697652" lon="13.7633065"><ele>495.33333333333337</ele><time>2026-05-02T09:52:10.025Z</time></trkpt><trkpt lat="42.2697295" lon="13.7631943"><ele>494.6666666666667</ele><time>2026-05-02T09:52:12.025Z</time></trkpt><trkpt lat="42.2697182" lon="13.7630392"><ele>494.0</ele><time>2026-05-02T09:52:14.024Z</time></trkpt><trkpt lat="42.2697206" lon="13.7629513"><ele>493.33333333333337</ele><time>2026-05-02T09:52:15.025Z</time></trkpt><trkpt lat="42.2697259" lon="13.7628589"><ele>492.6666666666667</ele><time>2026-05-02T09:52:16.025Z</time></trkpt><trkpt lat="42.2697257" lon="13.7627629"><ele>492.0</ele><time>2026-05-02T09:52:17.025Z</time></trkpt><trkpt lat="42.269718" lon="13.7626695"><ele>493.8</ele><time>2026-05-02T09:52:18.025Z</time></trkpt><trkpt lat="42.2696971" lon="13.7625882"><ele>495.6</ele><time>2026-05-02T09:52:19.025Z</time></trkpt><trkpt lat="42.2696076" lon="13.7625029"><ele>497.40000000000003</ele><time>2026-05-02T09:52:21.025Z</time></trkpt><trkpt lat="42.2694904" lon="13.762523"><ele>499.20000000000005</ele><time>2026-05-02T09:52:23.025Z</time></trkpt><trkpt lat="42.2693871" lon="13.7626027"><ele>501.0</ele><time>2026-05-02T09:52:25.025Z</time></trkpt><trkpt lat="42.2693143" lon="13.7626899"><ele>501.0</ele><time>2026-05-02T09:52:27.025Z</time></trkpt><trkpt lat="42.269248" lon="13.7627411"><ele>501.0</ele><time>2026-05-02T09:52:29.024Z</time></trkpt><trkpt lat="42.2691843" lon="13.7627759"><ele>501.0</ele><time>2026-05-02T09:52:31.025Z</time></trkpt><trkpt lat="42.2692238" lon="13.7626915"><ele>501.0</ele><time>2026-05-02T09:52:40.025Z</time></trkpt><trkpt lat="42.2692576" lon="13.7625591"><ele>501.0</ele><time>2026-05-02T09:52:42.025Z</time></trkpt><trkpt lat="42.2693113" lon="13.7623939"><ele>501.0</ele><time>2026-05-02T09:52:44.025Z</time></trkpt><trkpt lat="42.2693455" lon="13.7622869"><ele>501.0</ele><time>2026-05-02T09:52:45.024Z</time></trkpt><trkpt lat="42.2693828" lon="13.7621773"><ele>501.0</ele><time>2026-05-02T09:52:46.025Z</time></trkpt><trkpt lat="42.2694129" lon="13.7620898"><ele>501.0</ele><time>2026-05-02T09:52:47.025Z</time></trkpt><trkpt lat="42.2694409" lon="13.7620127"><ele>501.0</ele><time>2026-05-02T09:52:48.025Z</time></trkpt><trkpt lat="42.2695007" lon="13.7618973"><ele>501.0</ele><time>2026-05-02T09:52:50.025Z</time></trkpt><trkpt lat="42.2695993" lon="13.761828"><ele>501.0</ele><time>2026-05-02T09:52:52.025Z</time></trkpt><trkpt lat="42.269689" lon="13.7618489"><ele>501.0</ele><time>2026-05-02T09:52:53.025Z</time></trkpt><trkpt lat="42.2697693" lon="13.7618679"><ele>501.0</ele><time>2026-05-02T09:52:54.024Z</time></trkpt><trkpt lat="42.2698567" lon="13.7618952"><ele>501.0</ele><time>2026-05-02T09:52:55.025Z</time></trkpt><trkpt lat="42.2699239" lon="13.7620565"><ele>501.0</ele><time>2026-05-02T09:52:56.025Z</time></trkpt><trkpt lat="42.2700027" lon="13.7621526"><ele>501.1666666666667</ele><time>2026-05-02T09:52:57.025Z</time></trkpt><trkpt lat="42.2700604" lon="13.7622464"><ele>501.33333333333337</ele><time>2026-05-02T09:52:58.025Z</time></trkpt><trkpt lat="42.2701266" lon="13.7622977"><ele>501.5</ele><time>2026-05-02T09:52:59.024Z</time></trkpt><trkpt lat="42.2701916" lon="13.7623348"><ele>501.6666666666667</ele><time>2026-05-02T09:53:00.025Z</time></trkpt><trkpt lat="42.2702649" lon="13.7623416"><ele>501.83333333333337</ele><time>2026-05-02T09:53:01.024Z</time></trkpt><trkpt lat="42.2703372" lon="13.7623538"><ele>502.0</ele><time>2026-05-02T09:53:02.025Z</time></trkpt><trkpt lat="42.2704116" lon="13.7623616"><ele>502.00000000000006</ele><time>2026-05-02T09:53:03.024Z</time></trkpt><trkpt lat="42.270476" lon="13.7623568"><ele>502.0</ele><time>2026-05-02T09:53:04.025Z</time></trkpt><trkpt lat="42.2705496" lon="13.7623394"><ele>502.0</ele><time>2026-05-02T09:53:05.025Z</time></trkpt><trkpt lat="42.2706252" lon="13.7623108"><ele>502.0</ele><time>2026-05-02T09:53:06.025Z</time></trkpt><trkpt lat="42.270687" lon="13.7622808"><ele>502.00000000000006</ele><time>2026-05-02T09:53:07.025Z</time></trkpt><trkpt lat="42.2707705" lon="13.7622396"><ele>502.0</ele><time>2026-05-02T09:53:09.025Z</time></trkpt><trkpt lat="42.2700604" lon="13.7622464"><ele>501.99999999999994</ele><time>2026-05-02T09:52:58.025Z</time></trkpt><trkpt lat="42.2701266" lon="13.7622977"><ele>502.0</ele><time>2026-05-02T09:52:59.024Z</time></trkpt><trkpt lat="42.2701916" lon="13.7623348"><ele>501.99999999999994</ele><time>2026-05-02T09:53:00.025Z</time></trkpt><trkpt lat="42.2702649" lon="13.7623416"><ele>501.99999999999994</ele><time>2026-05-02T09:53:01.024Z</time></trkpt><trkpt lat="42.2703372" lon="13.7623538"><ele>502.0</ele><time>2026-05-02T09:53:02.025Z</time></trkpt><trkpt lat="42.2704116" lon="13.7623616"><ele>501.99999999999994</ele><time>2026-05-02T09:53:03.024Z</time></trkpt><trkpt lat="42.270476" lon="13.7623568"><ele>501.99999999999994</ele><time>2026-05-02T09:53:04.025Z</time></trkpt><trkpt lat="42.2705496" lon="13.7623394"><ele>504.0</ele><time>2026-05-02T09:53:05.025Z</time></trkpt><trkpt lat="42.2706252" lon="13.7623108"><ele>506.00000000000006</ele><time>2026-05-02T09:53:06.025Z</time></trkpt><trkpt lat="42.270687" lon="13.7622808"><ele>508.00000000000006</ele><time>2026-05-02T09:53:07.025Z</time></trkpt><trkpt lat="42.2707705" lon="13.7622396"><ele>510.0</ele><time>2026-05-02T09:53:09.025Z</time></trkpt><trkpt lat="42.2708468" lon="13.7621675"><ele>512.0</ele><time>2026-05-02T09:53:54.025Z</time></trkpt><trkpt lat="42.2709753" lon="13.762108"><ele>512.0</ele><time>2026-05-02T09:53:56.025Z</time></trkpt><trkpt lat="42.271063" lon="13.7620828"><ele>512.0</ele><time>2026-05-02T09:53:57.025Z</time></trkpt><trkpt lat="42.2711658" lon="13.7620595"><ele>512.0</ele><time>2026-05-02T09:53:58.025Z</time></trkpt><trkpt lat="42.2712781" lon="13.7620283"><ele>512.0</ele><time>2026-05-02T09:53:59.025Z</time></trkpt><trkpt lat="42.2713985" lon="13.7619884"><ele>512.0</ele><time>2026-05-02T09:54:00.025Z</time></trkpt><trkpt lat="42.2715247" lon="13.7619401"><ele>513.0</ele><time>2026-05-02T09:54:01.025Z</time></trkpt><trkpt lat="42.2716554" lon="13.7618855"><ele>514.0</ele><time>2026-05-02T09:54:02.025Z</time></trkpt><trkpt lat="42.2717938" lon="13.761834"><ele>515.0</ele><time>2026-05-02T09:54:03.025Z</time></trkpt><trkpt lat="42.2719347" lon="13.7617873"><ele>516.0</ele><time>2026-05-02T09:54:04.025Z</time></trkpt><trkpt lat="42.2720735" lon="13.7617557"><ele>516.0</ele><time>2026-05-02T09:54:05.025Z</time></trkpt><trkpt lat="42.2722109" lon="13.761738"><ele>516.0</ele><time>2026-05-02T09:54:06.025Z</time></trkpt><trkpt lat="42.2723554" lon="13.7617153"><ele>516.0</ele><time>2026-05-02T09:54:07.025Z</time></trkpt><trkpt lat="42.2725082" lon="13.7616765"><ele>516.0</ele><time>2026-05-02T09:54:08.025Z</time></trkpt><trkpt lat="42.2726648" lon="13.7616326"><ele>516.0</ele><time>2026-05-02T09:54:09.025Z</time></trkpt><trkpt lat="42.2728301" lon="13.7615714"><ele>516.0</ele><time>2026-05-02T09:54:10.025Z</time></trkpt><trkpt lat="42.2729987" lon="13.761506"><ele>516.0</ele><time>2026-05-02T09:54:11.025Z</time></trkpt><trkpt lat="42.2731606" lon="13.7614449"><ele>513.6666666666666</ele><time>2026-05-02T09:54:12.025Z</time></trkpt><trkpt lat="42.2733163" lon="13.7613924"><ele>511.3333333333333</ele><time>2026-05-02T09:54:13.025Z</time></trkpt><trkpt lat="42.2734629" lon="13.7613501"><ele>509.0</ele><time>2026-05-02T09:54:14.025Z</time></trkpt><trkpt lat="42.2736021" lon="13.7613164"><ele>509.0</ele><time>2026-05-02T09:54:15.025Z</time></trkpt><trkpt lat="42.2737365" lon="13.7612854"><ele>509.0</ele><time>2026-05-02T09:54:16.025Z</time></trkpt><trkpt lat="42.273863" lon="13.7612485"><ele>509.0</ele><time>2026-05-02T09:54:17.025Z</time></trkpt><trkpt lat="42.2739812" lon="13.7612099"><ele>509.0</ele><time>2026-05-02T09:54:18.025Z</time></trkpt><trkpt lat="42.2740873" lon="13.7611535"><ele>509.0</ele><time>2026-05-02T09:54:19.025Z</time></trkpt><trkpt lat="42.2741808" lon="13.7610762"><ele>509.0</ele><time>2026-05-02T09:54:20.025Z</time></trkpt><trkpt lat="42.274254" lon="13.761001"><ele>509.0</ele><time>2026-05-02T09:54:21.025Z</time></trkpt><trkpt lat="42.2743143" lon="13.7609292"><ele>509.0</ele><time>2026-05-02T09:54:22.025Z</time></trkpt><trkpt lat="42.2743763" lon="13.7608486"><ele>509.0</ele><time>2026-05-02T09:54:23.025Z</time></trkpt><trkpt lat="42.274448" lon="13.7607595"><ele>509.25</ele><time>2026-05-02T09:54:24.025Z</time></trkpt><trkpt lat="42.2745274" lon="13.7606612"><ele>509.5</ele><time>2026-05-02T09:54:25.025Z</time></trkpt><trkpt lat="42.274618" lon="13.7605494"><ele>509.75</ele><time>2026-05-02T09:54:26.025Z</time></trkpt><trkpt lat="42.2747158" lon="13.7604236"><ele>510.0</ele><time>2026-05-02T09:54:27.025Z</time></trkpt><trkpt lat="42.2748182" lon="13.7602859"><ele>508.25</ele><time>2026-05-02T09:54:28.025Z</time></trkpt><trkpt lat="42.2749163" lon="13.7601506"><ele>506.5</ele><time>2026-05-02T09:54:29.025Z</time></trkpt><trkpt lat="42.2750167" lon="13.7600121"><ele>504.75</ele><time>2026-05-02T09:54:30.024Z</time></trkpt><trkpt lat="42.2751147" lon="13.7598745"><ele>503.0</ele><time>2026-05-02T09:54:31.025Z</time></trkpt><trkpt lat="42.2752103" lon="13.7597336"><ele>503.0</ele><time>2026-05-02T09:54:32.025Z</time></trkpt><trkpt lat="42.2752972" lon="13.7595913"><ele>503.0</ele><time>2026-05-02T09:54:33.025Z</time></trkpt><trkpt lat="42.2753794" lon="13.7594517"><ele>503.0</ele><time>2026-05-02T09:54:34.025Z</time></trkpt><trkpt lat="42.2754606" lon="13.7593181"><ele>503.0</ele><time>2026-05-02T09:54:35.025Z</time></trkpt><trkpt lat="42.2755393" lon="13.7591944"><ele>500.99999999999994</ele><time>2026-05-02T09:54:36.024Z</time></trkpt><trkpt lat="42.275616" lon="13.7590816"><ele>499.0</ele><time>2026-05-02T09:54:37.025Z</time></trkpt><trkpt lat="42.2756827" lon="13.7589917"><ele>497.0</ele><time>2026-05-02T09:54:38.025Z</time></trkpt><trkpt lat="42.2757409" lon="13.7589174"><ele>495.0</ele><time>2026-05-02T09:54:39.024Z</time></trkpt><trkpt lat="42.2757894" lon="13.7588554"><ele>492.99999999999994</ele><time>2026-05-02T09:54:40.024Z</time></trkpt><trkpt lat="42.2758504" lon="13.7587815"><ele>491.0</ele><time>2026-05-02T09:54:42.025Z</time></trkpt><trkpt lat="42.2759035" lon="13.7587142"><ele>490.99999999999994</ele><time>2026-05-02T09:55:16.025Z</time></trkpt><trkpt lat="42.2758732" lon="13.7586304"><ele>491.0</ele><time>2026-05-02T09:55:21.025Z</time></trkpt><trkpt lat="42.2757872" lon="13.7586354"><ele>491.0</ele><time>2026-05-02T09:55:24.025Z</time></trkpt><trkpt lat="42.2757154" lon="13.7586538"><ele>491.0</ele><time>2026-05-02T09:55:26.025Z</time></trkpt><trkpt lat="42.2756291" lon="13.7586741"><ele>490.99999999999994</ele><time>2026-05-02T09:55:28.025Z</time></trkpt><trkpt lat="42.2755315" lon="13.7586923"><ele>491.0</ele><time>2026-05-02T09:55:30.025Z</time></trkpt><trkpt lat="42.275438" lon="13.758722"><ele>494.75</ele><time>2026-05-02T09:55:32.024Z</time></trkpt><trkpt lat="42.2753297" lon="13.7587502"><ele>498.5</ele><time>2026-05-02T09:55:34.025Z</time></trkpt><trkpt lat="42.2752236" lon="13.7587711"><ele>502.25</ele><time>2026-05-02T09:55:36.025Z</time></trkpt><trkpt lat="42.2751115" lon="13.7587973"><ele>506.0</ele><time>2026-05-02T09:55:38.025Z</time></trkpt><trkpt lat="42.2749926" lon="13.7588202"><ele>505.99999999999994</ele><time>2026-05-02T09:55:40.02Z</time></trkpt><trkpt lat="42.2748711" lon="13.7588414"><ele>506.0</ele><time>2026-05-02T09:55:42.025Z</time></trkpt><trkpt lat="42.2747437" lon="13.7588615"><ele>506.0</ele><time>2026-05-02T09:55:44.025Z</time></trkpt><trkpt lat="42.2746784" lon="13.7588788"><ele>506.0</ele><time>2026-05-02T09:55:45.025Z</time></trkpt><trkpt lat="42.274614" lon="13.7589001"><ele>505.99999999999994</ele><time>2026-05-02T09:55:46.024Z</time></trkpt><trkpt lat="42.2745511" lon="13.7589251"><ele>506.0</ele><time>2026-05-02T09:55:47.025Z</time></trkpt><trkpt lat="42.2744889" lon="13.7589452"><ele>507.49999999999994</ele><time>2026-05-02T09:55:48.025Z</time></trkpt><trkpt lat="42.2744238" lon="13.7589569"><ele>509.0</ele><time>2026-05-02T09:55:49.025Z</time></trkpt><trkpt lat="42.2743601" lon="13.758964"><ele>510.5</ele><time>2026-05-02T09:55:50.025Z</time></trkpt><trkpt lat="42.2742777" lon="13.7589734"><ele>512.0</ele><time>2026-05-02T09:55:52.025Z</time></trkpt><trkpt lat="42.2741944" lon="13.7590107"><ele>513.5</ele><time>2026-05-02T09:55:55.024Z</time></trkpt><trkpt lat="42.2741278" lon="13.7590445"><ele>515.0</ele><time>2026-05-02T09:55:57.022Z</time></trkpt><trkpt lat="42.2740394" lon="13.7591081"><ele>515.0</ele><time>2026-05-02T09:56:00.024Z</time></trkpt><trkpt lat="42.2739794" lon="13.7591755"><ele>515.0</ele><time>2026-05-02T09:56:02.024Z</time></trkpt><trkpt lat="42.273963" lon="13.7592891"><ele>515.0</ele><time>2026-05-02T09:56:14.025Z</time></trkpt><trkpt lat="42.2739366" lon="13.7594109"><ele>515.0</ele><time>2026-05-02T09:56:16.025Z</time></trkpt><trkpt lat="42.2738897" lon="13.7595258"><ele>515.0</ele><time>2026-05-02T09:56:18.025Z</time></trkpt><trkpt lat="42.2738351" lon="13.7596363"><ele>516.8</ele><time>2026-05-02T09:56:20.025Z</time></trkpt><trkpt lat="42.2737801" lon="13.7597122"><ele>518.6</ele><time>2026-05-02T09:56:22.025Z</time></trkpt><trkpt lat="42.2737056" lon="13.7597714"><ele>520.4</ele><time>2026-05-02T09:56:24.025Z</time></trkpt><trkpt lat="42.2736131" lon="13.759804"><ele>522.2</ele><time>2026-05-02T09:56:26.025Z</time></trkpt><trkpt lat="42.2734913" lon="13.7597467"><ele>524.0</ele><time>2026-05-02T09:56:28.025Z</time></trkpt><trkpt lat="42.2734031" lon="13.7597214"><ele>524.0</ele><time>2026-05-02T09:56:29.025Z</time></trkpt><trkpt lat="42.2733033" lon="13.7597276"><ele>524.0</ele><time>2026-05-02T09:56:30.025Z</time></trkpt><trkpt lat="42.2732021" lon="13.7597542"><ele>524.0</ele><time>2026-05-02T09:56:31.024Z</time></trkpt><trkpt lat="42.2731095" lon="13.7597833"><ele>524.0</ele><time>2026-05-02T09:56:32.025Z</time></trkpt><trkpt lat="42.2730225" lon="13.7598025"><ele>524.0</ele><time>2026-05-02T09:56:33.025Z</time></trkpt><trkpt lat="42.2729366" lon="13.7598023"><ele>524.6</ele><time>2026-05-02T09:56:34.025Z</time></trkpt><trkpt lat="42.2728494" lon="13.7597822"><ele>525.2</ele><time>2026-05-02T09:56:35.025Z</time></trkpt><trkpt lat="42.2727584" lon="13.7597427"><ele>525.8000000000001</ele><time>2026-05-02T09:56:36.025Z</time></trkpt><trkpt lat="42.2726643" lon="13.7597004"><ele>526.4</ele><time>2026-05-02T09:56:37.025Z</time></trkpt><trkpt lat="42.272565" lon="13.759656"><ele>527.0</ele><time>2026-05-02T09:56:38.025Z</time></trkpt><trkpt lat="42.2724619" lon="13.7596059"><ele>527.0</ele><time>2026-05-02T09:56:39.025Z</time></trkpt><trkpt lat="42.272357" lon="13.7595583"><ele>527.0</ele><time>2026-05-02T09:56:40.025Z</time></trkpt><trkpt lat="42.2722543" lon="13.7595127"><ele>527.0</ele><time>2026-05-02T09:56:41.025Z</time></trkpt><trkpt lat="42.2721581" lon="13.7594662"><ele>527.0</ele><time>2026-05-02T09:56:42.024Z</time></trkpt><trkpt lat="42.2720702" lon="13.7594056"><ele>527.0</ele><time>2026-05-02T09:56:43.025Z</time></trkpt><trkpt lat="42.2719979" lon="13.7593203"><ele>528.2</ele><time>2026-05-02T09:56:44.025Z</time></trkpt><trkpt lat="42.2719489" lon="13.7592118"><ele>529.4000000000001</ele><time>2026-05-02T09:56:45.025Z</time></trkpt><trkpt lat="42.2719107" lon="13.7590916"><ele>530.5999999999999</ele><time>2026-05-02T09:56:46.025Z</time></trkpt><trkpt lat="42.2718513" lon="13.7589828"><ele>531.8</ele><time>2026-05-02T09:56:47.025Z</time></trkpt><trkpt lat="42.2717622" lon="13.7589013"><ele>533.0</ele><time>2026-05-02T09:56:48.025Z</time></trkpt><trkpt lat="42.2716549" lon="13.75884"><ele>533.0</ele><time>2026-05-02T09:56:49.025Z</time></trkpt><trkpt lat="42.2715372" lon="13.7587923"><ele>533.0</ele><time>2026-05-02T09:56:50.025Z</time></trkpt><trkpt lat="42.2714108" lon="13.7587587"><ele>533.0</ele><time>2026-05-02T09:56:51.025Z</time></trkpt><trkpt lat="42.2712737" lon="13.7587381"><ele>533.0</ele><time>2026-05-02T09:56:52.024Z</time></trkpt><trkpt lat="42.2711315" lon="13.7587246"><ele>532.3333333333333</ele><time>2026-05-02T09:56:53.025Z</time></trkpt><trkpt lat="42.2709833" lon="13.7587179"><ele>531.6666666666666</ele><time>2026-05-02T09:56:54.025Z</time></trkpt><trkpt lat="42.270831" lon="13.7587142"><ele>531.0</ele><time>2026-05-02T09:56:55.025Z</time></trkpt><trkpt lat="42.2706776" lon="13.7587211"><ele>531.25</ele><time>2026-05-02T09:56:56.024Z</time></trkpt><trkpt lat="42.2705235" lon="13.7587355"><ele>531.5</ele><time>2026-05-02T09:56:57.025Z</time></trkpt><trkpt lat="42.2703743" lon="13.7587555"><ele>531.75</ele><time>2026-05-02T09:56:58.025Z</time></trkpt><trkpt lat="42.2702354" lon="13.7587782"><ele>532.0</ele><time>2026-05-02T09:56:59.025Z</time></trkpt><trkpt lat="42.2701012" lon="13.7588064"><ele>532.0</ele><time>2026-05-02T09:57:00.025Z</time></trkpt><trkpt lat="42.2699694" lon="13.7588445"><ele>532.0</ele><time>2026-05-02T09:57:01.025Z</time></trkpt><trkpt lat="42.2698375" lon="13.7588971"><ele>532.0</ele><time>2026-05-02T09:57:02.025Z</time></trkpt><trkpt lat="42.2697077" lon="13.7589653"><ele>532.0</ele><time>2026-05-02T09:57:03.024Z</time></trkpt><trkpt lat="42.2695789" lon="13.759027"><ele>532.2</ele><time>2026-05-02T09:57:04.025Z</time></trkpt><trkpt lat="42.269459" lon="13.7590927"><ele>532.4000000000001</ele><time>2026-05-02T09:57:05.025Z</time></trkpt><trkpt lat="42.2693525" lon="13.7591429"><ele>532.5999999999999</ele><time>2026-05-02T09:57:06.025Z</time></trkpt><trkpt lat="42.2692605" lon="13.7591847"><ele>532.8</ele><time>2026-05-02T09:57:07.025Z</time></trkpt><trkpt lat="42.2691861" lon="13.7592173"><ele>533.0</ele><time>2026-05-02T09:57:08.025Z</time></trkpt><trkpt lat="42.2691182" lon="13.7592479"><ele>533.0</ele><time>2026-05-02T09:57:09.024Z</time></trkpt><trkpt lat="42.2690548" lon="13.7592704"><ele>533.0</ele><time>2026-05-02T09:57:10.025Z</time></trkpt><trkpt lat="42.2689474" lon="13.7593149"><ele>533.0</ele><time>2026-05-02T09:57:12.025Z</time></trkpt><trkpt lat="42.2688618" lon="13.7593489"><ele>533.0</ele><time>2026-05-02T09:57:14.024Z</time></trkpt><trkpt lat="42.2688134" lon="13.7594097"><ele>533.0</ele><time>2026-05-02T09:57:33.024Z</time></trkpt><trkpt lat="42.2687395" lon="13.7594333"><ele>533.0</ele><time>2026-05-02T09:57:37.025Z</time></trkpt><trkpt lat="42.2686836" lon="13.7594787"><ele>534.0</ele><time>2026-05-02T09:57:40.025Z</time></trkpt><trkpt lat="42.2686467" lon="13.7595505"><ele>535.0</ele><time>2026-05-02T09:57:42.025Z</time></trkpt><trkpt lat="42.2686023" lon="13.7596631"><ele>536.0</ele><time>2026-05-02T09:57:44.025Z</time></trkpt><trkpt lat="42.2685472" lon="13.7597959"><ele>537.0</ele><time>2026-05-02T09:57:46.025Z</time></trkpt><trkpt lat="42.2684782" lon="13.7599296"><ele>538.0</ele><time>2026-05-02T09:57:48.024Z</time></trkpt><trkpt lat="42.2684389" lon="13.7600009"><ele>538.0</ele><time>2026-05-02T09:57:49.025Z</time></trkpt><trkpt lat="42.2683998" lon="13.7600733"><ele>538.0</ele><time>2026-05-02T09:57:50.025Z</time></trkpt><trkpt lat="42.2683585" lon="13.760144"><ele>538.0</ele><time>2026-05-02T09:57:51.025Z</time></trkpt><trkpt lat="42.2683123" lon="13.7602122"><ele>538.0</ele><time>2026-05-02T09:57:52.024Z</time></trkpt><trkpt lat="42.2682625" lon="13.7602791"><ele>538.0</ele><time>2026-05-02T09:57:53.025Z</time></trkpt><trkpt lat="42.2682089" lon="13.760347"><ele>538.0</ele><time>2026-05-02T09:57:54.025Z</time></trkpt><trkpt lat="42.2681527" lon="13.7604142"><ele>538.0</ele><time>2026-05-02T09:57:55.025Z</time></trkpt><trkpt lat="42.2680938" lon="13.7604826"><ele>538.6666666666667</ele><time>2026-05-02T09:57:56.025Z</time></trkpt><trkpt lat="42.2680361" lon="13.7605491"><ele>539.3333333333334</ele><time>2026-05-02T09:57:57.025Z</time></trkpt><trkpt lat="42.2679802" lon="13.760618"><ele>540.0</ele><time>2026-05-02T09:57:58.025Z</time></trkpt><trkpt lat="42.2679242" lon="13.7606923"><ele>540.6666666666666</ele><time>2026-05-02T09:57:59.025Z</time></trkpt><trkpt lat="42.2678696" lon="13.7607682"><ele>541.3333333333333</ele><time>2026-05-02T09:58:00.024Z</time></trkpt><trkpt lat="42.2678168" lon="13.7608385"><ele>542.0</ele><time>2026-05-02T09:58:01.024Z</time></trkpt><trkpt lat="42.2677606" lon="13.7609074"><ele>542.0</ele><time>2026-05-02T09:58:02.025Z</time></trkpt><trkpt lat="42.2677007" lon="13.7609882"><ele>542.0</ele><time>2026-05-02T09:58:03.025Z</time></trkpt><trkpt lat="42.2676441" lon="13.76107"><ele>542.0</ele><time>2026-05-02T09:58:04.025Z</time></trkpt><trkpt lat="42.2675895" lon="13.7611505"><ele>542.0</ele><time>2026-05-02T09:58:05.024Z</time></trkpt><trkpt lat="42.2675368" lon="13.7612392"><ele>542.0</ele><time>2026-05-02T09:58:06.025Z</time></trkpt><trkpt lat="42.2674923" lon="13.76133"><ele>542.0</ele><time>2026-05-02T09:58:07.024Z</time></trkpt><trkpt lat="42.2674465" lon="13.7614183"><ele>541.8333333333333</ele><time>2026-05-02T09:58:08.025Z</time></trkpt><trkpt lat="42.2673929" lon="13.7615004"><ele>541.6666666666666</ele><time>2026-05-02T09:58:09.025Z</time></trkpt><trkpt lat="42.267331" lon="13.7615748"><ele>541.5</ele><time>2026-05-02T09:58:10.023Z</time></trkpt><trkpt lat="42.2672589" lon="13.7616334"><ele>541.3333333333334</ele><time>2026-05-02T09:58:11.024Z</time></trkpt><trkpt lat="42.2671813" lon="13.7616842"><ele>541.1666666666667</ele><time>2026-05-02T09:58:12.024Z</time></trkpt><trkpt lat="42.2671107" lon="13.7617351"><ele>541.0</ele><time>2026-05-02T09:58:13.024Z</time></trkpt><trkpt lat="42.2670482" lon="13.7617887"><ele>540.8</ele><time>2026-05-02T09:58:14.024Z</time></trkpt><trkpt lat="42.2669949" lon="13.7618527"><ele>540.6</ele><time>2026-05-02T09:58:15.025Z</time></trkpt><trkpt lat="42.266944" lon="13.7619376"><ele>540.4</ele><time>2026-05-02T09:58:16.025Z</time></trkpt><trkpt lat="42.2668934" lon="13.7620456"><ele>540.2</ele><time>2026-05-02T09:58:17.025Z</time></trkpt><trkpt lat="42.2668455" lon="13.7621721"><ele>540.0</ele><time>2026-05-02T09:58:18.025Z</time></trkpt><trkpt lat="42.2667893" lon="13.7622996"><ele>540.6</ele><time>2026-05-02T09:58:19.024Z</time></trkpt><trkpt lat="42.2667247" lon="13.7624235"><ele>541.2</ele><time>2026-05-02T09:58:20.022Z</time></trkpt><trkpt lat="42.2666515" lon="13.7625346"><ele>541.8</ele><time>2026-05-02T09:58:21.025Z</time></trkpt><trkpt lat="42.2665674" lon="13.7626212"><ele>542.4</ele><time>2026-05-02T09:58:22.025Z</time></trkpt><trkpt lat="42.2664762" lon="13.7626997"><ele>543.0</ele><time>2026-05-02T09:58:23.025Z</time></trkpt><trkpt lat="42.2663936" lon="13.7627988"><ele>545.4</ele><time>2026-05-02T09:58:24.025Z</time></trkpt><trkpt lat="42.2663152" lon="13.7629061"><ele>547.8</ele><time>2026-05-02T09:58:25.025Z</time></trkpt><trkpt lat="42.266224" lon="13.7629882"><ele>550.2</ele><time>2026-05-02T09:58:26.025Z</time></trkpt><trkpt lat="42.2661243" lon="13.7630454"><ele>552.6</ele><time>2026-05-02T09:58:27.024Z</time></trkpt><trkpt lat="42.2660207" lon="13.7630864"><ele>555.0</ele><time>2026-05-02T09:58:28.025Z</time></trkpt><trkpt lat="42.265907" lon="13.763121"><ele>555.0</ele><time>2026-05-02T09:58:29.025Z</time></trkpt><trkpt lat="42.2657939" lon="13.7631493"><ele>555.0</ele><time>2026-05-02T09:58:30.024Z</time></trkpt><trkpt lat="42.265688" lon="13.7631854"><ele>555.0</ele><time>2026-05-02T09:58:31.025Z</time></trkpt><trkpt lat="42.2655897" lon="13.76324"><ele>555.0</ele><time>2026-05-02T09:58:32.025Z</time></trkpt><trkpt lat="42.2654972" lon="13.7632991"><ele>555.0</ele><time>2026-05-02T09:58:33.025Z</time></trkpt><trkpt lat="42.2654075" lon="13.7633527"><ele>556.6</ele><time>2026-05-02T09:58:34.025Z</time></trkpt><trkpt lat="42.2653073" lon="13.7633876"><ele>558.2</ele><time>2026-05-02T09:58:35.024Z</time></trkpt><trkpt lat="42.2651951" lon="13.7633994"><ele>559.8</ele><time>2026-05-02T09:58:36.025Z</time></trkpt><trkpt lat="42.2650789" lon="13.7633896"><ele>561.4</ele><time>2026-05-02T09:58:37.024Z</time></trkpt><trkpt lat="42.2649636" lon="13.7633706"><ele>563.0</ele><time>2026-05-02T09:58:38.025Z</time></trkpt><trkpt lat="42.2648492" lon="13.7633605"><ele>563.25</ele><time>2026-05-02T09:58:39.025Z</time></trkpt><trkpt lat="42.2647361" lon="13.763362"><ele>563.5</ele><time>2026-05-02T09:58:40.025Z</time></trkpt><trkpt lat="42.2646118" lon="13.7633775"><ele>563.75</ele><time>2026-05-02T09:58:41.024Z</time></trkpt><trkpt lat="42.2644834" lon="13.7634216"><ele>564.0</ele><time>2026-05-02T09:58:42.025Z</time></trkpt><trkpt lat="42.2643515" lon="13.7634795"><ele>567.25</ele><time>2026-05-02T09:58:43.025Z</time></trkpt><trkpt lat="42.2642159" lon="13.7635479"><ele>570.5</ele><time>2026-05-02T09:58:44.024Z</time></trkpt><trkpt lat="42.2640781" lon="13.7636283"><ele>573.75</ele><time>2026-05-02T09:58:45.025Z</time></trkpt><trkpt lat="42.2639402" lon="13.76372"><ele>577.0</ele><time>2026-05-02T09:58:46.025Z</time></trkpt><trkpt lat="42.2638054" lon="13.7638226"><ele>577.0</ele><time>2026-05-02T09:58:47.023Z</time></trkpt><trkpt lat="42.2636675" lon="13.7639328"><ele>577.0</ele><time>2026-05-02T09:58:48.025Z</time></trkpt><trkpt lat="42.2635233" lon="13.7640453"><ele>577.0</ele><time>2026-05-02T09:58:49.025Z</time></trkpt><trkpt lat="42.2633769" lon="13.7641549"><ele>577.0</ele><time>2026-05-02T09:58:50.025Z</time></trkpt><trkpt lat="42.2632263" lon="13.7642568"><ele>577.0</ele><time>2026-05-02T09:58:51.025Z</time></trkpt><trkpt lat="42.2630818" lon="13.7643536"><ele>577.0</ele><time>2026-05-02T09:58:52.025Z</time></trkpt><trkpt lat="42.2629412" lon="13.764451"><ele>580.75</ele><time>2026-05-02T09:58:53.025Z</time></trkpt><trkpt lat="42.2628088" lon="13.7645337"><ele>584.5</ele><time>2026-05-02T09:58:54.025Z</time></trkpt><trkpt lat="42.2626776" lon="13.7645869"><ele>588.25</ele><time>2026-05-02T09:58:55.025Z</time></trkpt><trkpt lat="42.2625375" lon="13.7646186"><ele>592.0</ele><time>2026-05-02T09:58:56.024Z</time></trkpt><trkpt lat="42.2623882" lon="13.7646494"><ele>592.3333333333334</ele><time>2026-05-02T09:58:57.025Z</time></trkpt><trkpt lat="42.2622369" lon="13.7646976"><ele>592.6666666666666</ele><time>2026-05-02T09:58:58.025Z</time></trkpt><trkpt lat="42.2620845" lon="13.7647541"><ele>593.0</ele><time>2026-05-02T09:58:59.025Z</time></trkpt><trkpt lat="42.2619299" lon="13.7648187"><ele>593.0</ele><time>2026-05-02T09:59:00.025Z</time></trkpt><trkpt lat="42.2617728" lon="13.7648797"><ele>593.0</ele><time>2026-05-02T09:59:01.024Z</time></trkpt><trkpt lat="42.2616088" lon="13.7649263"><ele>593.0</ele><time>2026-05-02T09:59:02.025Z</time></trkpt><trkpt lat="42.2614413" lon="13.7649692"><ele>591.0</ele><time>2026-05-02T09:59:03.025Z</time></trkpt><trkpt lat="42.2612745" lon="13.7650152"><ele>589.0</ele><time>2026-05-02T09:59:04.023Z</time></trkpt><trkpt lat="42.2611071" lon="13.765059"><ele>587.0</ele><time>2026-05-02T09:59:05.025Z</time></trkpt><trkpt lat="42.2609542" lon="13.765098"><ele>587.0</ele><time>2026-05-02T09:59:06.025Z</time></trkpt><trkpt lat="42.2608063" lon="13.7651425"><ele>587.0</ele><time>2026-05-02T09:59:07.025Z</time></trkpt><trkpt lat="42.2606584" lon="13.7652021"><ele>587.0</ele><time>2026-05-02T09:59:08.025Z</time></trkpt><trkpt lat="42.2605095" lon="13.7652626"><ele>593.0</ele><time>2026-05-02T09:59:09.025Z</time></trkpt><trkpt lat="42.2603614" lon="13.7653195"><ele>599.0</ele><time>2026-05-02T09:59:10.025Z</time></trkpt><trkpt lat="42.2602171" lon="13.7653843"><ele>605.0</ele><time>2026-05-02T09:59:11.025Z</time></trkpt><trkpt lat="42.2600818" lon="13.7654453"><ele>611.0</ele><time>2026-05-02T09:59:12.024Z</time></trkpt><trkpt lat="42.2599568" lon="13.7655034"><ele>611.0</ele><time>2026-05-02T09:59:13.025Z</time></trkpt><trkpt lat="42.259847" lon="13.7655583"><ele>611.0</ele><time>2026-05-02T09:59:14.025Z</time></trkpt><trkpt lat="42.2597422" lon="13.7656059"><ele>611.0</ele><time>2026-05-02T09:59:15.024Z</time></trkpt><trkpt lat="42.2596368" lon="13.7656444"><ele>611.0</ele><time>2026-05-02T09:59:16.025Z</time></trkpt><trkpt lat="42.2595381" lon="13.7656528"><ele>611.0</ele><time>2026-05-02T09:59:17.025Z</time></trkpt><trkpt lat="42.2594356" lon="13.7656408"><ele>610.5</ele><time>2026-05-02T09:59:18.025Z</time></trkpt><trkpt lat="42.2593248" lon="13.7656128"><ele>610.0</ele><time>2026-05-02T09:59:19.024Z</time></trkpt><trkpt lat="42.2592092" lon="13.7655727"><ele>609.5</ele><time>2026-05-02T09:59:20.025Z</time></trkpt><trkpt lat="42.2590866" lon="13.7655323"><ele>609.0</ele><time>2026-05-02T09:59:21.025Z</time></trkpt><trkpt lat="42.2589575" lon="13.7654972"><ele>608.75</ele><time>2026-05-02T09:59:22.025Z</time></trkpt><trkpt lat="42.2588218" lon="13.7654667"><ele>608.5</ele><time>2026-05-02T09:59:23.025Z</time></trkpt><trkpt lat="42.2586921" lon="13.7654383"><ele>608.25</ele><time>2026-05-02T09:59:24.025Z</time></trkpt><trkpt lat="42.2585762" lon="13.7654163"><ele>608.0</ele><time>2026-05-02T09:59:25.025Z</time></trkpt><trkpt lat="42.2584759" lon="13.7653971"><ele>608.0</ele><time>2026-05-02T09:59:26.025Z</time></trkpt><trkpt lat="42.2583877" lon="13.7653746"><ele>608.0</ele><time>2026-05-02T09:59:27.022Z</time></trkpt><trkpt lat="42.2583109" lon="13.7653535"><ele>608.0</ele><time>2026-05-02T09:59:28.025Z</time></trkpt><trkpt lat="42.258238" lon="13.765332"><ele>608.0</ele><time>2026-05-02T09:59:29.025Z</time></trkpt><trkpt lat="42.258159" lon="13.7653029"><ele>608.0</ele><time>2026-05-02T09:59:30.025Z</time></trkpt><trkpt lat="42.2580765" lon="13.76526"><ele>608.0</ele><time>2026-05-02T09:59:31.025Z</time></trkpt><trkpt lat="42.2579962" lon="13.7652158"><ele>609.3333333333333</ele><time>2026-05-02T09:59:32.025Z</time></trkpt><trkpt lat="42.2579163" lon="13.7651656"><ele>610.6666666666666</ele><time>2026-05-02T09:59:33.025Z</time></trkpt><trkpt lat="42.2578366" lon="13.7651218"><ele>612.0</ele><time>2026-05-02T09:59:34.025Z</time></trkpt><trkpt lat="42.2577607" lon="13.7650751"><ele>613.3333333333334</ele><time>2026-05-02T09:59:35.024Z</time></trkpt><trkpt lat="42.257675" lon="13.7650282"><ele>614.6666666666667</ele><time>2026-05-02T09:59:36.025Z</time></trkpt><trkpt lat="42.2575886" lon="13.7649879"><ele>616.0</ele><time>2026-05-02T09:59:37.025Z</time></trkpt><trkpt lat="42.2575052" lon="13.7649514"><ele>616.0</ele><time>2026-05-02T09:59:38.024Z</time></trkpt><trkpt lat="42.2574255" lon="13.7649169"><ele>616.0</ele><time>2026-05-02T09:59:39.025Z</time></trkpt><trkpt lat="42.257344" lon="13.7648805"><ele>616.0</ele><time>2026-05-02T09:59:40.025Z</time></trkpt><trkpt lat="42.257269" lon="13.764841"><ele>616.0</ele><time>2026-05-02T09:59:41.025Z</time></trkpt><trkpt lat="42.2571958" lon="13.7648012"><ele>616.0</ele><time>2026-05-02T09:59:42.024Z</time></trkpt><trkpt lat="42.2571304" lon="13.7647593"><ele>616.0</ele><time>2026-05-02T09:59:43.025Z</time></trkpt><trkpt lat="42.2570647" lon="13.7647207"><ele>616.5714285714286</ele><time>2026-05-02T09:59:44.025Z</time></trkpt><trkpt lat="42.2569974" lon="13.7646862"><ele>617.1428571428571</ele><time>2026-05-02T09:59:45.024Z</time></trkpt><trkpt lat="42.2569305" lon="13.7646712"><ele>617.7142857142858</ele><time>2026-05-02T09:59:46.025Z</time></trkpt><trkpt lat="42.2568642" lon="13.7646846"><ele>618.2857142857142</ele><time>2026-05-02T09:59:47.025Z</time></trkpt><trkpt lat="42.2567925" lon="13.7647078"><ele>618.8571428571429</ele><time>2026-05-02T09:59:48.024Z</time></trkpt><trkpt lat="42.2567167" lon="13.7647339"><ele>619.4285714285714</ele><time>2026-05-02T09:59:49.025Z</time></trkpt><trkpt lat="42.256642" lon="13.7647586"><ele>620.0</ele><time>2026-05-02T09:59:50.025Z</time></trkpt><trkpt lat="42.2565632" lon="13.7647789"><ele>620.0</ele><time>2026-05-02T09:59:51.025Z</time></trkpt><trkpt lat="42.2564841" lon="13.7647897"><ele>620.0</ele><time>2026-05-02T09:59:52.025Z</time></trkpt><trkpt lat="42.2564031" lon="13.7647901"><ele>620.0</ele><time>2026-05-02T09:59:53.025Z</time></trkpt><trkpt lat="42.2563247" lon="13.76479"><ele>620.0</ele><time>2026-05-02T09:59:54.025Z</time></trkpt><trkpt lat="42.2562519" lon="13.7647973"><ele>620.0</ele><time>2026-05-02T09:59:55.025Z</time></trkpt><trkpt lat="42.2561763" lon="13.7647951"><ele>620.0</ele><time>2026-05-02T09:59:56.024Z</time></trkpt><trkpt lat="42.2560928" lon="13.7647852"><ele>621.6</ele><time>2026-05-02T09:59:57.024Z</time></trkpt><trkpt lat="42.2560027" lon="13.7647724"><ele>623.2</ele><time>2026-05-02T09:59:58.024Z</time></trkpt><trkpt lat="42.2559118" lon="13.764757"><ele>624.8</ele><time>2026-05-02T09:59:59.024Z</time></trkpt><trkpt lat="42.2558184" lon="13.7647389"><ele>626.4</ele><time>2026-05-02T10:00:00.024Z</time></trkpt><trkpt lat="42.2557229" lon="13.7647247"><ele>628.0</ele><time>2026-05-02T10:00:01.025Z</time></trkpt><trkpt lat="42.2556302" lon="13.7647164"><ele>628.8333333333334</ele><time>2026-05-02T10:00:02.025Z</time></trkpt><trkpt lat="42.2555504" lon="13.7647012"><ele>629.6666666666667</ele><time>2026-05-02T10:00:03.024Z</time></trkpt><trkpt lat="42.2554684" lon="13.7646867"><ele>630.5</ele><time>2026-05-02T10:00:04.024Z</time></trkpt><trkpt lat="42.2553843" lon="13.7646665"><ele>631.3333333333334</ele><time>2026-05-02T10:00:05.025Z</time></trkpt><trkpt lat="42.2553012" lon="13.7646309"><ele>632.1666666666666</ele><time>2026-05-02T10:00:06.025Z</time></trkpt><trkpt lat="42.2552181" lon="13.7645817"><ele>633.0</ele><time>2026-05-02T10:00:07.025Z</time></trkpt><trkpt lat="42.2551328" lon="13.764542"><ele>633.0</ele><time>2026-05-02T10:00:08.025Z</time></trkpt><trkpt lat="42.2550486" lon="13.7645334"><ele>633.0</ele><time>2026-05-02T10:00:09.025Z</time></trkpt><trkpt lat="42.2549672" lon="13.764558"><ele>633.0</ele><time>2026-05-02T10:00:10.025Z</time></trkpt><trkpt lat="42.254887" lon="13.7645864"><ele>633.0</ele><time>2026-05-02T10:00:11.025Z</time></trkpt><trkpt lat="42.2548037" lon="13.7645939"><ele>633.0</ele><time>2026-05-02T10:00:12.025Z</time></trkpt><trkpt lat="42.2547173" lon="13.7645816"><ele>633.0</ele><time>2026-05-02T10:00:13.025Z</time></trkpt><trkpt lat="42.2546306" lon="13.7645564"><ele>634.8333333333334</ele><time>2026-05-02T10:00:14.025Z</time></trkpt><trkpt lat="42.2545444" lon="13.7645292"><ele>636.6666666666666</ele><time>2026-05-02T10:00:15.025Z</time></trkpt><trkpt lat="42.2544546" lon="13.7645127"><ele>638.5</ele><time>2026-05-02T10:00:16.025Z</time></trkpt><trkpt lat="42.2543623" lon="13.764506"><ele>640.3333333333333</ele><time>2026-05-02T10:00:17.025Z</time></trkpt><trkpt lat="42.254272" lon="13.7645007"><ele>642.1666666666666</ele><time>2026-05-02T10:00:18.025Z</time></trkpt><trkpt lat="42.2541854" lon="13.764495"><ele>644.0</ele><time>2026-05-02T10:00:19.025Z</time></trkpt><trkpt lat="42.2541013" lon="13.7644788"><ele>644.0</ele><time>2026-05-02T10:00:20.025Z</time></trkpt><trkpt lat="42.2540192" lon="13.7644603"><ele>644.0</ele><time>2026-05-02T10:00:21.025Z</time></trkpt><trkpt lat="42.2539391" lon="13.7644353"><ele>644.0</ele><time>2026-05-02T10:00:22.025Z</time></trkpt><trkpt lat="42.2538573" lon="13.7643954"><ele>644.0</ele><time>2026-05-02T10:00:23.024Z</time></trkpt><trkpt lat="42.2537737" lon="13.7643565"><ele>644.0</ele><time>2026-05-02T10:00:24.025Z</time></trkpt><trkpt lat="42.2536956" lon="13.7643135"><ele>644.0</ele><time>2026-05-02T10:00:25.025Z</time></trkpt><trkpt lat="42.2536266" lon="13.7642569"><ele>645.4000000000001</ele><time>2026-05-02T10:00:26.024Z</time></trkpt><trkpt lat="42.2535672" lon="13.7641856"><ele>646.8</ele><time>2026-05-02T10:00:27.025Z</time></trkpt><trkpt lat="42.2535156" lon="13.7640938"><ele>648.2</ele><time>2026-05-02T10:00:28.024Z</time></trkpt><trkpt lat="42.2534647" lon="13.7639875"><ele>649.5999999999999</ele><time>2026-05-02T10:00:29.024Z</time></trkpt><trkpt lat="42.2534046" lon="13.7638811"><ele>651.0</ele><time>2026-05-02T10:00:30.025Z</time></trkpt><trkpt lat="42.2533408" lon="13.7637838"><ele>651.0</ele><time>2026-05-02T10:00:31.025Z</time></trkpt><trkpt lat="42.2532769" lon="13.7637001"><ele>651.0</ele><time>2026-05-02T10:00:32.024Z</time></trkpt><trkpt lat="42.2532088" lon="13.7636385"><ele>651.0</ele><time>2026-05-02T10:00:33.025Z</time></trkpt><trkpt lat="42.2531309" lon="13.7635947"><ele>651.0</ele><time>2026-05-02T10:00:34.025Z</time></trkpt><trkpt lat="42.2530441" lon="13.7635595"><ele>651.0</ele><time>2026-05-02T10:00:35.025Z</time></trkpt><trkpt lat="42.2529514" lon="13.7635293"><ele>651.0</ele><time>2026-05-02T10:00:36.025Z</time></trkpt><trkpt lat="42.2528564" lon="13.7634989"><ele>652.4</ele><time>2026-05-02T10:00:37.025Z</time></trkpt><trkpt lat="42.2527582" lon="13.7634703"><ele>653.8</ele><time>2026-05-02T10:00:38.025Z</time></trkpt><trkpt lat="42.2526585" lon="13.7634543"><ele>655.1999999999999</ele><time>2026-05-02T10:00:39.025Z</time></trkpt><trkpt lat="42.2525626" lon="13.7634453"><ele>656.5999999999999</ele><time>2026-05-02T10:00:40.025Z</time></trkpt><trkpt lat="42.2524712" lon="13.7634329"><ele>658.0</ele><time>2026-05-02T10:00:41.025Z</time></trkpt><trkpt lat="42.2523813" lon="13.7634099"><ele>658.0</ele><time>2026-05-02T10:00:42.025Z</time></trkpt><trkpt lat="42.2522941" lon="13.7633827"><ele>658.0</ele><time>2026-05-02T10:00:43.025Z</time></trkpt><trkpt lat="42.2522087" lon="13.763353"><ele>658.0</ele><time>2026-05-02T10:00:44.025Z</time></trkpt><trkpt lat="42.2521269" lon="13.7633106"><ele>658.0</ele><time>2026-05-02T10:00:45.025Z</time></trkpt><trkpt lat="42.2520495" lon="13.7632611"><ele>658.0</ele><time>2026-05-02T10:00:46.023Z</time></trkpt><trkpt lat="42.2519739" lon="13.7632112"><ele>658.0</ele><time>2026-05-02T10:00:47.023Z</time></trkpt><trkpt lat="42.2519093" lon="13.7631579"><ele>657.5</ele><time>2026-05-02T10:00:48.025Z</time></trkpt><trkpt lat="42.2518502" lon="13.7630956"><ele>657.0</ele><time>2026-05-02T10:00:49.025Z</time></trkpt><trkpt lat="42.2517956" lon="13.7630258"><ele>656.5</ele><time>2026-05-02T10:00:50.025Z</time></trkpt><trkpt lat="42.2517463" lon="13.7629499"><ele>656.0</ele><time>2026-05-02T10:00:51.025Z</time></trkpt><trkpt lat="42.2516941" lon="13.7628663"><ele>655.5</ele><time>2026-05-02T10:00:52.025Z</time></trkpt><trkpt lat="42.2516312" lon="13.7627824"><ele>655.0</ele><time>2026-05-02T10:00:53.025Z</time></trkpt><trkpt lat="42.2515581" lon="13.7627094"><ele>658.6</ele><time>2026-05-02T10:00:54.025Z</time></trkpt><trkpt lat="42.2514799" lon="13.7626459"><ele>662.2</ele><time>2026-05-02T10:00:55.025Z</time></trkpt><trkpt lat="42.2514027" lon="13.7625774"><ele>665.8</ele><time>2026-05-02T10:00:56.025Z</time></trkpt><trkpt lat="42.2513276" lon="13.762507"><ele>669.4</ele><time>2026-05-02T10:00:57.025Z</time></trkpt><trkpt lat="42.2512515" lon="13.7624395"><ele>673.0</ele><time>2026-05-02T10:00:58.025Z</time></trkpt><trkpt lat="42.2511756" lon="13.7623754"><ele>673.0</ele><time>2026-05-02T10:00:59.025Z</time></trkpt><trkpt lat="42.2511012" lon="13.7623224"><ele>673.0</ele><time>2026-05-02T10:01:00.025Z</time></trkpt><trkpt lat="42.2510279" lon="13.7622803"><ele>673.0</ele><time>2026-05-02T10:01:01.025Z</time></trkpt><trkpt lat="42.2509594" lon="13.7622533"><ele>673.0</ele><time>2026-05-02T10:01:02.025Z</time></trkpt><trkpt lat="42.2508931" lon="13.7622329"><ele>673.0</ele><time>2026-05-02T10:01:03.025Z</time></trkpt><trkpt lat="42.2508262" lon="13.7622151"><ele>673.0</ele><time>2026-05-02T10:01:04.025Z</time></trkpt><trkpt lat="42.2507556" lon="13.7622204"><ele>673.0</ele><time>2026-05-02T10:01:05.024Z</time></trkpt><trkpt lat="42.2506667" lon="13.7623231"><ele>673.0</ele><time>2026-05-02T10:01:07.024Z</time></trkpt><trkpt lat="42.2506439" lon="13.7624041"><ele>673.0</ele><time>2026-05-02T10:01:08.025Z</time></trkpt><trkpt lat="42.250616" lon="13.7624869"><ele>673.0</ele><time>2026-05-02T10:01:09.025Z</time></trkpt><trkpt lat="42.2505704" lon="13.7625533"><ele>673.0</ele><time>2026-05-02T10:01:10.025Z</time></trkpt><trkpt lat="42.2505088" lon="13.7626079"><ele>673.0</ele><time>2026-05-02T10:01:11.025Z</time></trkpt><trkpt lat="42.250435" lon="13.7626549"><ele>673.0</ele><time>2026-05-02T10:01:12.025Z</time></trkpt><trkpt lat="42.2503494" lon="13.7626894"><ele>673.0</ele><time>2026-05-02T10:01:13.025Z</time></trkpt><trkpt lat="42.2502539" lon="13.7627105"><ele>672.2</ele><time>2026-05-02T10:01:14.024Z</time></trkpt><trkpt lat="42.2501523" lon="13.7627252"><ele>671.4</ele><time>2026-05-02T10:01:15.025Z</time></trkpt><trkpt lat="42.2500508" lon="13.7627478"><ele>670.6</ele><time>2026-05-02T10:01:16.025Z</time></trkpt><trkpt lat="42.2499511" lon="13.7627767"><ele>669.8000000000001</ele><time>2026-05-02T10:01:17.025Z</time></trkpt><trkpt lat="42.2498577" lon="13.7628108"><ele>669.0</ele><time>2026-05-02T10:01:18.025Z</time></trkpt><trkpt lat="42.2497764" lon="13.7628493"><ele>671.5</ele><time>2026-05-02T10:01:19.025Z</time></trkpt><trkpt lat="42.2497078" lon="13.7628924"><ele>674.0</ele><time>2026-05-02T10:01:20.024Z</time></trkpt><trkpt lat="42.2496462" lon="13.7629498"><ele>676.5</ele><time>2026-05-02T10:01:21.024Z</time></trkpt><trkpt lat="42.249582" lon="13.763015"><ele>679.0</ele><time>2026-05-02T10:01:22.021Z</time></trkpt><trkpt lat="42.2495156" lon="13.7630847"><ele>681.5</ele><time>2026-05-02T10:01:23.025Z</time></trkpt><trkpt lat="42.2494491" lon="13.7631604"><ele>684.0</ele><time>2026-05-02T10:01:24.025Z</time></trkpt><trkpt lat="42.2493791" lon="13.7632327"><ele>684.0</ele><time>2026-05-02T10:01:25.025Z</time></trkpt><trkpt lat="42.2493034" lon="13.763297"><ele>684.0</ele><time>2026-05-02T10:01:26.024Z</time></trkpt><trkpt lat="42.249224" lon="13.7633473"><ele>684.0</ele><time>2026-05-02T10:01:27.025Z</time></trkpt><trkpt lat="42.2491409" lon="13.7633911"><ele>684.0</ele><time>2026-05-02T10:01:28.025Z</time></trkpt><trkpt lat="42.2490547" lon="13.7634405"><ele>684.0</ele><time>2026-05-02T10:01:29.025Z</time></trkpt><trkpt lat="42.2489679" lon="13.7634948"><ele>684.8000000000001</ele><time>2026-05-02T10:01:30.025Z</time></trkpt><trkpt lat="42.2488824" lon="13.763551"><ele>685.6</ele><time>2026-05-02T10:01:31.025Z</time></trkpt><trkpt lat="42.2488019" lon="13.7636094"><ele>686.4</ele><time>2026-05-02T10:01:32.025Z</time></trkpt><trkpt lat="42.248724" lon="13.7636787"><ele>687.2</ele><time>2026-05-02T10:01:33.024Z</time></trkpt><trkpt lat="42.2486517" lon="13.7637489"><ele>688.0</ele><time>2026-05-02T10:01:34.025Z</time></trkpt><trkpt lat="42.2485842" lon="13.763818"><ele>688.0</ele><time>2026-05-02T10:01:35.025Z</time></trkpt><trkpt lat="42.2485189" lon="13.7638842"><ele>688.0</ele><time>2026-05-02T10:01:36.024Z</time></trkpt><trkpt lat="42.2484608" lon="13.7639489"><ele>688.0</ele><time>2026-05-02T10:01:37.025Z</time></trkpt><trkpt lat="42.2484012" lon="13.7640202"><ele>688.0</ele><time>2026-05-02T10:01:38.025Z</time></trkpt><trkpt lat="42.2483318" lon="13.7640992"><ele>688.0</ele><time>2026-05-02T10:01:39.025Z</time></trkpt><trkpt lat="42.2482632" lon="13.764176"><ele>688.0</ele><time>2026-05-02T10:01:40.025Z</time></trkpt><trkpt lat="42.2482004" lon="13.7642547"><ele>688.0</ele><time>2026-05-02T10:01:41.025Z</time></trkpt><trkpt lat="42.2481368" lon="13.7643326"><ele>688.0</ele><time>2026-05-02T10:01:42.025Z</time></trkpt><trkpt lat="42.2480725" lon="13.7644012"><ele>688.0</ele><time>2026-05-02T10:01:43.024Z</time></trkpt><trkpt lat="42.248014" lon="13.7644668"><ele>688.0</ele><time>2026-05-02T10:01:44.025Z</time></trkpt><trkpt lat="42.2479604" lon="13.7645289"><ele>688.0</ele><time>2026-05-02T10:01:45.025Z</time></trkpt><trkpt lat="42.2479092" lon="13.7645879"><ele>688.0</ele><time>2026-05-02T10:01:46.025Z</time></trkpt><trkpt lat="42.2478564" lon="13.7646489"><ele>689.3333333333334</ele><time>2026-05-02T10:01:47.025Z</time></trkpt><trkpt lat="42.2478101" lon="13.7647178"><ele>690.6666666666667</ele><time>2026-05-02T10:01:48.024Z</time></trkpt><trkpt lat="42.2477705" lon="13.7647959"><ele>692.0</ele><time>2026-05-02T10:01:49.025Z</time></trkpt><trkpt lat="42.2477331" lon="13.76488"><ele>693.3333333333334</ele><time>2026-05-02T10:01:50.025Z</time></trkpt><trkpt lat="42.2476995" lon="13.7649632"><ele>694.6666666666666</ele><time>2026-05-02T10:01:51.025Z</time></trkpt><trkpt lat="42.2476624" lon="13.7650352"><ele>696.0</ele><time>2026-05-02T10:01:52.025Z</time></trkpt><trkpt lat="42.2475671" lon="13.7651359"><ele>696.3333333333334</ele><time>2026-05-02T10:01:54.024Z</time></trkpt><trkpt lat="42.2474662" lon="13.7652308"><ele>696.6666666666666</ele><time>2026-05-02T10:01:56.025Z</time></trkpt><trkpt lat="42.247403" lon="13.7652826"><ele>697.0</ele><time>2026-05-02T10:01:57.024Z</time></trkpt><trkpt lat="42.2473351" lon="13.7653335"><ele>697.3333333333333</ele><time>2026-05-02T10:01:58.025Z</time></trkpt><trkpt lat="42.2472663" lon="13.7653794"><ele>697.6666666666666</ele><time>2026-05-02T10:01:59.025Z</time></trkpt><trkpt lat="42.2472021" lon="13.7654253"><ele>698.0</ele><time>2026-05-02T10:02:00.024Z</time></trkpt><trkpt lat="42.2470884" lon="13.7654815"><ele>700.8</ele><time>2026-05-02T10:02:02.025Z</time></trkpt><trkpt lat="42.2469864" lon="13.7655121"><ele>703.5999999999999</ele><time>2026-05-02T10:02:04.025Z</time></trkpt><trkpt lat="42.2469095" lon="13.7655704"><ele>706.4000000000001</ele><time>2026-05-02T10:02:06.025Z</time></trkpt><trkpt lat="42.2468317" lon="13.7656337"><ele>709.2</ele><time>2026-05-02T10:02:08.025Z</time></trkpt><trkpt lat="42.2467455" lon="13.7656963"><ele>712.0</ele><time>2026-05-02T10:02:10.025Z</time></trkpt><trkpt lat="42.2466615" lon="13.7657356"><ele>712.0</ele><time>2026-05-02T10:02:12.025Z</time></trkpt><trkpt lat="42.2466036" lon="13.7658017"><ele>712.0</ele><time>2026-05-02T10:02:14.025Z</time></trkpt><trkpt lat="42.2465323" lon="13.7658591"><ele>712.0</ele><time>2026-05-02T10:02:16.025Z</time></trkpt><trkpt lat="42.2464479" lon="13.7659307"><ele>712.0</ele><time>2026-05-02T10:02:18.025Z</time></trkpt><trkpt lat="42.2463805" lon="13.7660393"><ele>712.0</ele><time>2026-05-02T10:02:20.025Z</time></trkpt><trkpt lat="42.2463075" lon="13.7661557"><ele>713.6</ele><time>2026-05-02T10:02:22.025Z</time></trkpt><trkpt lat="42.2462407" lon="13.7662578"><ele>715.2</ele><time>2026-05-02T10:02:24.025Z</time></trkpt><trkpt lat="42.2461677" lon="13.7663416"><ele>716.8</ele><time>2026-05-02T10:02:26.025Z</time></trkpt><trkpt lat="42.2460899" lon="13.7664528"><ele>718.4</ele><time>2026-05-02T10:02:28.024Z</time></trkpt><trkpt lat="42.2460074" lon="13.7665228"><ele>720.0</ele><time>2026-05-02T10:02:30.025Z</time></trkpt><trkpt lat="42.2459219" lon="13.7665442"><ele>720.0</ele><time>2026-05-02T10:02:32.025Z</time></trkpt><trkpt lat="42.2458291" lon="13.7665504"><ele>720.0</ele><time>2026-05-02T10:02:34.025Z</time></trkpt><trkpt lat="42.2457356" lon="13.7665878"><ele>720.0</ele><time>2026-05-02T10:02:36.025Z</time></trkpt><trkpt lat="42.2456268" lon="13.7666239"><ele>720.0</ele><time>2026-05-02T10:02:38.025Z</time></trkpt><trkpt lat="42.2455256" lon="13.7666774"><ele>720.0</ele><time>2026-05-02T10:02:40.025Z</time></trkpt><trkpt lat="42.2454365" lon="13.7667491"><ele>719.8333333333334</ele><time>2026-05-02T10:02:42.025Z</time></trkpt><trkpt lat="42.2453332" lon="13.766795"><ele>719.6666666666666</ele><time>2026-05-02T10:02:44.025Z</time></trkpt><trkpt lat="42.2452307" lon="13.7668372"><ele>719.5</ele><time>2026-05-02T10:02:46.024Z</time></trkpt><trkpt lat="42.2451675" lon="13.7668505"><ele>719.3333333333333</ele><time>2026-05-02T10:02:47.025Z</time></trkpt><trkpt lat="42.2450996" lon="13.7668658"><ele>719.1666666666666</ele><time>2026-05-02T10:02:48.025Z</time></trkpt><trkpt lat="42.245034" lon="13.7668851"><ele>719.0</ele><time>2026-05-02T10:02:49.024Z</time></trkpt><trkpt lat="42.2449687" lon="13.7669036"><ele>718.9999999999999</ele><time>2026-05-02T10:02:50.025Z</time></trkpt><trkpt lat="42.2449047" lon="13.7669247"><ele>719.0</ele><time>2026-05-02T10:02:51.025Z</time></trkpt><trkpt lat="42.2448376" lon="13.7669518"><ele>719.0</ele><time>2026-05-02T10:02:52.025Z</time></trkpt><trkpt lat="42.2447652" lon="13.7669783"><ele>719.0</ele><time>2026-05-02T10:02:53.025Z</time></trkpt><trkpt lat="42.2446891" lon="13.7670035"><ele>719.0</ele><time>2026-05-02T10:02:54.024Z</time></trkpt><trkpt lat="42.2446134" lon="13.7670232"><ele>718.9999999999999</ele><time>2026-05-02T10:02:55.025Z</time></trkpt><trkpt lat="42.2445368" lon="13.7670418"><ele>719.0</ele><time>2026-05-02T10:02:56.025Z</time></trkpt><trkpt lat="42.2444618" lon="13.7670588"><ele>720.6666666666666</ele><time>2026-05-02T10:02:57.025Z</time></trkpt><trkpt lat="42.2443936" lon="13.7670694"><ele>722.3333333333333</ele><time>2026-05-02T10:02:58.025Z</time></trkpt><trkpt lat="42.2443284" lon="13.7670725"><ele>724.0</ele><time>2026-05-02T10:02:59.025Z</time></trkpt><trkpt lat="42.2442637" lon="13.7670721"><ele>725.6666666666666</ele><time>2026-05-02T10:03:00.025Z</time></trkpt><trkpt lat="42.2441414" lon="13.7670981"><ele>727.3333333333334</ele><time>2026-05-02T10:03:02.025Z</time></trkpt><trkpt lat="42.2440211" lon="13.7671313"><ele>729.0</ele><time>2026-05-02T10:03:04.024Z</time></trkpt><trkpt lat="42.2439097" lon="13.7671503"><ele>732.0</ele><time>2026-05-02T10:03:06.025Z</time></trkpt><trkpt lat="42.2438204" lon="13.76719"><ele>735.0</ele><time>2026-05-02T10:03:08.025Z</time></trkpt><trkpt lat="42.2437307" lon="13.7672189"><ele>738.0</ele><time>2026-05-02T10:03:10.024Z</time></trkpt><trkpt lat="42.243634" lon="13.7672475"><ele>741.0</ele><time>2026-05-02T10:03:12.025Z</time></trkpt><trkpt lat="42.2435285" lon="13.7672584"><ele>744.0</ele><time>2026-05-02T10:03:14.025Z</time></trkpt><trkpt lat="42.2434096" lon="13.7672602"><ele>744.0</ele><time>2026-05-02T10:03:16.024Z</time></trkpt><trkpt lat="42.2432864" lon="13.7672899"><ele>744.0</ele><time>2026-05-02T10:03:18.025Z</time></trkpt><trkpt lat="42.243171" lon="13.7673418"><ele>744.0</ele><time>2026-05-02T10:03:20.025Z</time></trkpt><trkpt lat="42.2431045" lon="13.7673391"><ele>744.0</ele><time>2026-05-02T10:03:21.025Z</time></trkpt><trkpt lat="42.2430387" lon="13.7673431"><ele>744.0</ele><time>2026-05-02T10:03:22.025Z</time></trkpt><trkpt lat="42.2429731" lon="13.7673553"><ele>744.0</ele><time>2026-05-02T10:03:23.025Z</time></trkpt><trkpt lat="42.2429005" lon="13.7673592"><ele>746.1666666666666</ele><time>2026-05-02T10:03:24.025Z</time></trkpt><trkpt lat="42.2428297" lon="13.7673648"><ele>748.3333333333334</ele><time>2026-05-02T10:03:25.025Z</time></trkpt><trkpt lat="42.2427573" lon="13.7673655"><ele>750.5</ele><time>2026-05-02T10:03:26.025Z</time></trkpt><trkpt lat="42.2426756" lon="13.7673901"><ele>752.6666666666667</ele><time>2026-05-02T10:03:27.025Z</time></trkpt><trkpt lat="42.2425984" lon="13.7674106"><ele>754.8333333333334</ele><time>2026-05-02T10:03:28.025Z</time></trkpt><trkpt lat="42.2425217" lon="13.7674262"><ele>757.0</ele><time>2026-05-02T10:03:29.025Z</time></trkpt><trkpt lat="42.2424501" lon="13.7674535"><ele>757.0</ele><time>2026-05-02T10:03:30.022Z</time></trkpt><trkpt lat="42.2423833" lon="13.767479"><ele>757.0</ele><time>2026-05-02T10:03:31.025Z</time></trkpt><trkpt lat="42.2423124" lon="13.7675071"><ele>757.0</ele><time>2026-05-02T10:03:32.025Z</time></trkpt><trkpt lat="42.2422319" lon="13.7675295"><ele>757.0</ele><time>2026-05-02T10:03:33.025Z</time></trkpt><trkpt lat="42.242151" lon="13.7675479"><ele>757.0</ele><time>2026-05-02T10:03:34.025Z</time></trkpt><trkpt lat="42.2420791" lon="13.7675802"><ele>757.0</ele><time>2026-05-02T10:03:35.025Z</time></trkpt><trkpt lat="42.2420093" lon="13.7676334"><ele>757.0</ele><time>2026-05-02T10:03:36.025Z</time></trkpt><trkpt lat="42.2419375" lon="13.7676795"><ele>757.0</ele><time>2026-05-02T10:03:37.025Z</time></trkpt><trkpt lat="42.2418649" lon="13.7677234"><ele>757.0</ele><time>2026-05-02T10:03:38.025Z</time></trkpt><trkpt lat="42.2417953" lon="13.7677774"><ele>757.0</ele><time>2026-05-02T10:03:39.023Z</time></trkpt><trkpt lat="42.2417269" lon="13.7678381"><ele>757.0</ele><time>2026-05-02T10:03:40.025Z</time></trkpt><trkpt lat="42.2416572" lon="13.7679083"><ele>757.0</ele><time>2026-05-02T10:03:41.025Z</time></trkpt><trkpt lat="42.2415859" lon="13.767987"><ele>757.0</ele><time>2026-05-02T10:03:42.025Z</time></trkpt><trkpt lat="42.241517" lon="13.7680766"><ele>757.0</ele><time>2026-05-02T10:03:43.025Z</time></trkpt><trkpt lat="42.2414516" lon="13.7681724"><ele>757.0</ele><time>2026-05-02T10:03:44.025Z</time></trkpt><trkpt lat="42.2413904" lon="13.7682753"><ele>757.0</ele><time>2026-05-02T10:03:45.025Z</time></trkpt><trkpt lat="42.2413336" lon="13.7683798"><ele>757.0</ele><time>2026-05-02T10:03:46.025Z</time></trkpt><trkpt lat="42.2412768" lon="13.768477"><ele>760.0</ele><time>2026-05-02T10:03:47.025Z</time></trkpt><trkpt lat="42.24122" lon="13.768562"><ele>763.0</ele><time>2026-05-02T10:03:48.025Z</time></trkpt><trkpt lat="42.2411625" lon="13.7686423"><ele>766.0</ele><time>2026-05-02T10:03:49.025Z</time></trkpt><trkpt lat="42.2411063" lon="13.7687239"><ele>769.0</ele><time>2026-05-02T10:03:50.025Z</time></trkpt><trkpt lat="42.2410505" lon="13.7688088"><ele>771.9999999999999</ele><time>2026-05-02T10:03:51.024Z</time></trkpt><trkpt lat="42.2409969" lon="13.7688911"><ele>775.0</ele><time>2026-05-02T10:03:52.025Z</time></trkpt><trkpt lat="42.2409493" lon="13.7689746"><ele>774.9999999999999</ele><time>2026-05-02T10:03:53.025Z</time></trkpt><trkpt lat="42.2409125" lon="13.7690681"><ele>775.0</ele><time>2026-05-02T10:03:54.023Z</time></trkpt><trkpt lat="42.2408807" lon="13.7691597"><ele>775.0</ele><time>2026-05-02T10:03:55.025Z</time></trkpt><trkpt lat="42.240844" lon="13.7692377"><ele>775.0</ele><time>2026-05-02T10:03:56.023Z</time></trkpt><trkpt lat="42.2407608" lon="13.769348"><ele>774.9999999999999</ele><time>2026-05-02T10:03:58.025Z</time></trkpt><trkpt lat="42.2406994" lon="13.7693898"><ele>775.0</ele><time>2026-05-02T10:10:44.014Z</time></trkpt><trkpt lat="42.2406287" lon="13.7693892"><ele>773.9999999999999</ele><time>2026-05-02T10:10:58.013Z</time></trkpt><trkpt lat="42.2405637" lon="13.7693734"><ele>773.0</ele><time>2026-05-02T10:11:05.014Z</time></trkpt><trkpt lat="42.2405039" lon="13.7693453"><ele>772.0</ele><time>2026-05-02T10:11:10.014Z</time></trkpt><trkpt lat="42.2404279" lon="13.7693001"><ele>771.0</ele><time>2026-05-02T10:11:12.013Z</time></trkpt><trkpt lat="42.2403307" lon="13.7692571"><ele>769.9999999999999</ele><time>2026-05-02T10:11:14.013Z</time></trkpt><trkpt lat="42.2402197" lon="13.7692382"><ele>769.0</ele><time>2026-05-02T10:11:16.014Z</time></trkpt><trkpt lat="42.2401016" lon="13.7692232"><ele>773.0</ele><time>2026-05-02T10:11:18.014Z</time></trkpt><trkpt lat="42.2399786" lon="13.7692082"><ele>777.0</ele><time>2026-05-02T10:11:20.014Z</time></trkpt><trkpt lat="42.2399154" lon="13.7692115"><ele>781.0</ele><time>2026-05-02T10:11:21.014Z</time></trkpt><trkpt lat="42.239785" lon="13.7691961"><ele>785.0</ele><time>2026-05-02T10:11:23.014Z</time></trkpt><trkpt lat="42.2397181" lon="13.7691818"><ele>789.0</ele><time>2026-05-02T10:11:24.014Z</time></trkpt><trkpt lat="42.2396521" lon="13.7691615"><ele>791.6666666666666</ele><time>2026-05-02T10:11:25.014Z</time></trkpt><trkpt lat="42.2395852" lon="13.7691357"><ele>794.3333333333333</ele><time>2026-05-02T10:11:26.014Z</time></trkpt><trkpt lat="42.2395151" lon="13.7691109"><ele>797.0</ele><time>2026-05-02T10:11:27.013Z</time></trkpt><trkpt lat="42.2394491" lon="13.7691043"><ele>799.6666666666666</ele><time>2026-05-02T10:11:28.014Z</time></trkpt><trkpt lat="42.2393349" lon="13.7691422"><ele>802.3333333333333</ele><time>2026-05-02T10:11:30.014Z</time></trkpt><trkpt lat="42.2392508" lon="13.7692394"><ele>805.0</ele><time>2026-05-02T10:11:32.014Z</time></trkpt><trkpt lat="42.2391536" lon="13.7693048"><ele>804.8</ele><time>2026-05-02T10:11:34.013Z</time></trkpt><trkpt lat="42.2390567" lon="13.7693728"><ele>804.6</ele><time>2026-05-02T10:11:36.013Z</time></trkpt><trkpt lat="42.2389557" lon="13.7694098"><ele>804.4000000000001</ele><time>2026-05-02T10:11:38.014Z</time></trkpt><trkpt lat="42.238848" lon="13.7694308"><ele>804.2</ele><time>2026-05-02T10:11:40.014Z</time></trkpt><trkpt lat="42.238726" lon="13.7694355"><ele>804.0</ele><time>2026-05-02T10:11:42.013Z</time></trkpt><trkpt lat="42.2386081" lon="13.7694337"><ele>804.0</ele><time>2026-05-02T10:11:44.014Z</time></trkpt><trkpt lat="42.238542" lon="13.7694448"><ele>804.0</ele><time>2026-05-02T10:11:45.014Z</time></trkpt><trkpt lat="42.2384241" lon="13.7694702"><ele>804.0</ele><time>2026-05-02T10:11:47.014Z</time></trkpt><trkpt lat="42.2383601" lon="13.7694975"><ele>804.0</ele><time>2026-05-02T10:11:48.014Z</time></trkpt><trkpt lat="42.2382915" lon="13.769534"><ele>804.0</ele><time>2026-05-02T10:11:49.014Z</time></trkpt><trkpt lat="42.2382173" lon="13.7695615"><ele>804.0</ele><time>2026-05-02T10:11:50.014Z</time></trkpt><trkpt lat="42.2381456" lon="13.7695915"><ele>806.4285714285714</ele><time>2026-05-02T10:11:51.013Z</time></trkpt><trkpt lat="42.2380817" lon="13.7696295"><ele>808.8571428571429</ele><time>2026-05-02T10:11:52.014Z</time></trkpt><trkpt lat="42.2380154" lon="13.769678"><ele>811.2857142857143</ele><time>2026-05-02T10:11:53.013Z</time></trkpt><trkpt lat="42.2379544" lon="13.7697157"><ele>813.7142857142858</ele><time>2026-05-02T10:11:54.014Z</time></trkpt><trkpt lat="42.2378916" lon="13.7697577"><ele>816.1428571428571</ele><time>2026-05-02T10:11:55.014Z</time></trkpt><trkpt lat="42.237829" lon="13.7697955"><ele>818.5714285714287</ele><time>2026-05-02T10:11:56.014Z</time></trkpt><trkpt lat="42.2377647" lon="13.7698326"><ele>821.0</ele><time>2026-05-02T10:11:57.014Z</time></trkpt><trkpt lat="42.237696" lon="13.7698638"><ele>821.0000000000001</ele><time>2026-05-02T10:11:58.014Z</time></trkpt><trkpt lat="42.2376237" lon="13.7698892"><ele>821.0</ele><time>2026-05-02T10:11:59.014Z</time></trkpt><trkpt lat="42.2375486" lon="13.7699134"><ele>821.0</ele><time>2026-05-02T10:12:00.014Z</time></trkpt><trkpt lat="42.2374749" lon="13.7699348"><ele>821.0</ele><time>2026-05-02T10:12:01.014Z</time></trkpt><trkpt lat="42.2374026" lon="13.769947"><ele>821.0000000000001</ele><time>2026-05-02T10:12:02.014Z</time></trkpt><trkpt lat="42.2373403" lon="13.7699631"><ele>821.0</ele><time>2026-05-02T10:12:03.014Z</time></trkpt><trkpt lat="42.2372283" lon="13.7699833"><ele>822.4</ele><time>2026-05-02T10:12:05.013Z</time></trkpt><trkpt lat="42.2371201" lon="13.7700309"><ele>823.8</ele><time>2026-05-02T10:12:07.014Z</time></trkpt><trkpt lat="42.2370224" lon="13.7701161"><ele>825.1999999999999</ele><time>2026-05-02T10:12:09.014Z</time></trkpt><trkpt lat="42.2369385" lon="13.7702197"><ele>826.5999999999999</ele><time>2026-05-02T10:12:11.013Z</time></trkpt><trkpt lat="42.2368726" lon="13.7703183"><ele>828.0</ele><time>2026-05-02T10:12:13.014Z</time></trkpt><trkpt lat="42.2367885" lon="13.7703929"><ele>828.0</ele><time>2026-05-02T10:12:15.014Z</time></trkpt><trkpt lat="42.2366961" lon="13.7704511"><ele>828.0</ele><time>2026-05-02T10:12:17.014Z</time></trkpt><trkpt lat="42.2365889" lon="13.7705012"><ele>828.0</ele><time>2026-05-02T10:12:19.014Z</time></trkpt><trkpt lat="42.2365248" lon="13.770526"><ele>828.0</ele><time>2026-05-02T10:12:20.014Z</time></trkpt><trkpt lat="42.2364579" lon="13.7705454"><ele>828.0</ele><time>2026-05-02T10:12:21.014Z</time></trkpt><trkpt lat="42.2363827" lon="13.7705633"><ele>828.0</ele><time>2026-05-02T10:12:22.014Z</time></trkpt><trkpt lat="42.2362993" lon="13.7705808"><ele>829.1666666666666</ele><time>2026-05-02T10:12:23.014Z</time></trkpt><trkpt lat="42.2362147" lon="13.7705998"><ele>830.3333333333333</ele><time>2026-05-02T10:12:24.014Z</time></trkpt><trkpt lat="42.2361377" lon="13.7706174"><ele>831.5</ele><time>2026-05-02T10:12:25.014Z</time></trkpt><trkpt lat="42.2360449" lon="13.7706392"><ele>832.6666666666666</ele><time>2026-05-02T10:12:27.013Z</time></trkpt><trkpt lat="42.2359457" lon="13.7706996"><ele>833.8333333333333</ele><time>2026-05-02T10:12:30.014Z</time></trkpt><trkpt lat="42.2358899" lon="13.7707584"><ele>835.0</ele><time>2026-05-02T10:12:32.014Z</time></trkpt><trkpt lat="42.235864" lon="13.770836"><ele>834.9999999999999</ele><time>2026-05-02T10:12:48.014Z</time></trkpt><trkpt lat="42.2358854" lon="13.7709273"><ele>835.0</ele><time>2026-05-02T10:12:52.013Z</time></trkpt><trkpt lat="42.2358428" lon="13.7709999"><ele>835.0</ele><time>2026-05-02T10:13:01.014Z</time></trkpt><trkpt lat="42.2358686" lon="13.7711"><ele>835.0</ele><time>2026-05-02T10:13:06.014Z</time></trkpt><trkpt lat="42.2358749" lon="13.7712251"><ele>834.9999999999999</ele><time>2026-05-02T10:13:09.014Z</time></trkpt><trkpt lat="42.235884" lon="13.7713399"><ele>835.0</ele><time>2026-05-02T10:13:11.014Z</time></trkpt><trkpt lat="42.2358932" lon="13.771462"><ele>834.8</ele><time>2026-05-02T10:13:13.014Z</time></trkpt><trkpt lat="42.2358999" lon="13.771592"><ele>834.6</ele><time>2026-05-02T10:13:15.014Z</time></trkpt><trkpt lat="42.2358955" lon="13.7717195"><ele>834.4000000000001</ele><time>2026-05-02T10:13:17.014Z</time></trkpt><trkpt lat="42.2358631" lon="13.7718587"><ele>834.2</ele><time>2026-05-02T10:13:19.014Z</time></trkpt><trkpt lat="42.2358309" lon="13.771986"><ele>834.0</ele><time>2026-05-02T10:13:21.014Z</time></trkpt><trkpt lat="42.2357872" lon="13.7720955"><ele>834.0</ele><time>2026-05-02T10:13:23.014Z</time></trkpt><trkpt lat="42.2357321" lon="13.7721897"><ele>834.0</ele><time>2026-05-02T10:13:25.014Z</time></trkpt><trkpt lat="42.2356784" lon="13.7722824"><ele>834.0</ele><time>2026-05-02T10:13:27.014Z</time></trkpt><trkpt lat="42.2356055" lon="13.7723963"><ele>834.0</ele><time>2026-05-02T10:13:29.013Z</time></trkpt><trkpt lat="42.2355457" lon="13.7725167"><ele>834.0</ele><time>2026-05-02T10:13:31.014Z</time></trkpt><trkpt lat="42.2354864" lon="13.7726516"><ele>835.0</ele><time>2026-05-02T10:13:33.014Z</time></trkpt><trkpt lat="42.2354015" lon="13.7727759"><ele>836.0</ele><time>2026-05-02T10:13:35.014Z</time></trkpt><trkpt lat="42.2353489" lon="13.7728308"><ele>837.0</ele><time>2026-05-02T10:13:36.014Z</time></trkpt><trkpt lat="42.2352904" lon="13.7728873"><ele>838.0</ele><time>2026-05-02T10:13:37.014Z</time></trkpt><trkpt lat="42.2352397" lon="13.7729451"><ele>839.0</ele><time>2026-05-02T10:13:38.014Z</time></trkpt><trkpt lat="42.2351918" lon="13.7730078"><ele>840.0</ele><time>2026-05-02T10:13:39.014Z</time></trkpt><trkpt lat="42.2351461" lon="13.7730751"><ele>840.0</ele><time>2026-05-02T10:13:40.014Z</time></trkpt><trkpt lat="42.2351069" lon="13.7731452"><ele>840.0</ele><time>2026-05-02T10:13:41.014Z</time></trkpt><trkpt lat="42.2350744" lon="13.7732206"><ele>840.0</ele><time>2026-05-02T10:13:42.014Z</time></trkpt><trkpt lat="42.2350473" lon="13.7732986"><ele>840.0</ele><time>2026-05-02T10:13:43.014Z</time></trkpt><trkpt lat="42.2350288" lon="13.7734601"><ele>840.0</ele><time>2026-05-02T10:13:45.013Z</time></trkpt><trkpt lat="42.2350423" lon="13.7735511"><ele>840.0</ele><time>2026-05-02T10:13:46.014Z</time></trkpt><trkpt lat="42.2350566" lon="13.7736523"><ele>840.5714285714286</ele><time>2026-05-02T10:13:47.014Z</time></trkpt><trkpt lat="42.2350727" lon="13.7737482"><ele>841.1428571428571</ele><time>2026-05-02T10:13:48.014Z</time></trkpt><trkpt lat="42.235095" lon="13.7738367"><ele>841.7142857142858</ele><time>2026-05-02T10:13:49.014Z</time></trkpt><trkpt lat="42.2351254" lon="13.7739121"><ele>842.2857142857142</ele><time>2026-05-02T10:13:50.014Z</time></trkpt><trkpt lat="42.2351776" lon="13.7739779"><ele>842.8571428571429</ele><time>2026-05-02T10:13:51.013Z</time></trkpt><trkpt lat="42.235224" lon="13.7740469"><ele>843.4285714285714</ele><time>2026-05-02T10:13:52.014Z</time></trkpt><trkpt lat="42.2352846" lon="13.7741074"><ele>844.0</ele><time>2026-05-02T10:13:53.013Z</time></trkpt><trkpt lat="42.2353384" lon="13.7741707"><ele>844.0</ele><time>2026-05-02T10:13:54.014Z</time></trkpt><trkpt lat="42.2353788" lon="13.7742364"><ele>844.0</ele><time>2026-05-02T10:13:55.013Z</time></trkpt><trkpt lat="42.2354276" lon="13.7743609"><ele>844.0</ele><time>2026-05-02T10:13:57.014Z</time></trkpt><trkpt lat="42.2354602" lon="13.7745528"><ele>844.0</ele><time>2026-05-02T10:13:59.014Z</time></trkpt><trkpt lat="42.2354779" lon="13.7746613"><ele>844.0</ele><time>2026-05-02T10:14:00.013Z</time></trkpt><trkpt lat="42.2354939" lon="13.774769"><ele>843.6666666666666</ele><time>2026-05-02T10:14:01.013Z</time></trkpt><trkpt lat="42.2355045" lon="13.7748777"><ele>843.3333333333333</ele><time>2026-05-02T10:14:02.014Z</time></trkpt><trkpt lat="42.2355029" lon="13.7749925"><ele>843.0</ele><time>2026-05-02T10:14:03.013Z</time></trkpt><trkpt lat="42.2355016" lon="13.7751098"><ele>842.6666666666667</ele><time>2026-05-02T10:14:04.014Z</time></trkpt><trkpt lat="42.2354863" lon="13.7752224"><ele>842.3333333333334</ele><time>2026-05-02T10:14:05.014Z</time></trkpt><trkpt lat="42.2354722" lon="13.775327"><ele>842.0</ele><time>2026-05-02T10:14:06.014Z</time></trkpt><trkpt lat="42.2354558" lon="13.7754274"><ele>842.0000000000001</ele><time>2026-05-02T10:14:07.014Z</time></trkpt><trkpt lat="42.235434" lon="13.7755297"><ele>842.0</ele><time>2026-05-02T10:14:08.014Z</time></trkpt><trkpt lat="42.2354037" lon="13.7756232"><ele>842.0</ele><time>2026-05-02T10:14:09.014Z</time></trkpt><trkpt lat="42.2353688" lon="13.7757168"><ele>842.0</ele><time>2026-05-02T10:14:10.014Z</time></trkpt><trkpt lat="42.2353174" lon="13.7757973"><ele>842.0000000000001</ele><time>2026-05-02T10:14:11.014Z</time></trkpt><trkpt lat="42.235272" lon="13.7758791"><ele>842.0</ele><time>2026-05-02T10:14:12.014Z</time></trkpt><trkpt lat="42.2352204" lon="13.775951"><ele>842.0000000000001</ele><time>2026-05-02T10:14:13.013Z</time></trkpt><trkpt lat="42.2351559" lon="13.7760075"><ele>842.0</ele><time>2026-05-02T10:14:14.014Z</time></trkpt><trkpt lat="42.235086" lon="13.7760504"><ele>842.0</ele><time>2026-05-02T10:14:15.014Z</time></trkpt><trkpt lat="42.23501" lon="13.776084"><ele>842.0</ele><time>2026-05-02T10:14:16.014Z</time></trkpt><trkpt lat="42.2349257" lon="13.7761056"><ele>842.0000000000001</ele><time>2026-05-02T10:14:17.014Z</time></trkpt><trkpt lat="42.2348385" lon="13.7761325"><ele>842.0</ele><time>2026-05-02T10:14:18.013Z</time></trkpt><trkpt lat="42.2347526" lon="13.7761613"><ele>844.0</ele><time>2026-05-02T10:14:19.014Z</time></trkpt><trkpt lat="42.2346718" lon="13.7761836"><ele>846.0</ele><time>2026-05-02T10:14:20.014Z</time></trkpt><trkpt lat="42.2345921" lon="13.7762014"><ele>848.0</ele><time>2026-05-02T10:14:21.014Z</time></trkpt><trkpt lat="42.2345239" lon="13.7762238"><ele>850.0</ele><time>2026-05-02T10:14:22.014Z</time></trkpt><trkpt lat="42.2344289" lon="13.7763248"><ele>852.0</ele><time>2026-05-02T10:14:24.014Z</time></trkpt><trkpt lat="42.2343942" lon="13.7764473"><ele>852.0</ele><time>2026-05-02T10:14:26.014Z</time></trkpt><trkpt lat="42.2344132" lon="13.7765969"><ele>852.0</ele><time>2026-05-02T10:14:28.014Z</time></trkpt><trkpt lat="42.2344763" lon="13.7767173"><ele>852.0</ele><time>2026-05-02T10:14:30.014Z</time></trkpt><trkpt lat="42.2345148" lon="13.7767872"><ele>852.0</ele><time>2026-05-02T10:14:31.014Z</time></trkpt><trkpt lat="42.234554" lon="13.776865"><ele>852.0</ele><time>2026-05-02T10:14:32.014Z</time></trkpt><trkpt lat="42.2345974" lon="13.7769542"><ele>852.0</ele><time>2026-05-02T10:14:33.014Z</time></trkpt><trkpt lat="42.2346402" lon="13.7770447"><ele>852.8571428571428</ele><time>2026-05-02T10:14:34.013Z</time></trkpt><trkpt lat="42.2346901" lon="13.7771199"><ele>853.7142857142857</ele><time>2026-05-02T10:14:35.014Z</time></trkpt><trkpt lat="42.2347385" lon="13.7771871"><ele>854.5714285714286</ele><time>2026-05-02T10:14:36.014Z</time></trkpt><trkpt lat="42.2347855" lon="13.7772506"><ele>855.4285714285713</ele><time>2026-05-02T10:14:37.014Z</time></trkpt><trkpt lat="42.2348384" lon="13.7773179"><ele>856.2857142857143</ele><time>2026-05-02T10:14:38.013Z</time></trkpt><trkpt lat="42.234892" lon="13.7773914"><ele>857.1428571428571</ele><time>2026-05-02T10:14:39.013Z</time></trkpt><trkpt lat="42.2349462" lon="13.7774659"><ele>858.0</ele><time>2026-05-02T10:14:40.014Z</time></trkpt><trkpt lat="42.2350043" lon="13.7775441"><ele>856.6666666666666</ele><time>2026-05-02T10:14:41.013Z</time></trkpt><trkpt lat="42.2350634" lon="13.7776231"><ele>855.3333333333333</ele><time>2026-05-02T10:14:42.013Z</time></trkpt><trkpt lat="42.2351224" lon="13.7776988"><ele>854.0</ele><time>2026-05-02T10:14:43.013Z</time></trkpt><trkpt lat="42.2351765" lon="13.7777741"><ele>852.6666666666666</ele><time>2026-05-02T10:14:44.013Z</time></trkpt><trkpt lat="42.2352252" lon="13.7778526"><ele>851.3333333333333</ele><time>2026-05-02T10:14:45.014Z</time></trkpt><trkpt lat="42.2352649" lon="13.7779348"><ele>850.0</ele><time>2026-05-02T10:14:46.014Z</time></trkpt><trkpt lat="42.2352949" lon="13.7780223"><ele>849.9999999999999</ele><time>2026-05-02T10:14:47.014Z</time></trkpt><trkpt lat="42.2353136" lon="13.7781141"><ele>850.0</ele><time>2026-05-02T10:14:48.014Z</time></trkpt><trkpt lat="42.2353196" lon="13.7782144"><ele>850.0</ele><time>2026-05-02T10:14:49.014Z</time></trkpt><trkpt lat="42.2353179" lon="13.7783215"><ele>850.0</ele><time>2026-05-02T10:14:50.014Z</time></trkpt><trkpt lat="42.2353127" lon="13.7784308"><ele>849.9999999999999</ele><time>2026-05-02T10:14:51.014Z</time></trkpt><trkpt lat="42.2353032" lon="13.778538"><ele>850.0</ele><time>2026-05-02T10:14:52.014Z</time></trkpt><trkpt lat="42.2352837" lon="13.7786356"><ele>849.8571428571429</ele><time>2026-05-02T10:14:53.014Z</time></trkpt><trkpt lat="42.2352579" lon="13.7787248"><ele>849.7142857142857</ele><time>2026-05-02T10:14:54.014Z</time></trkpt><trkpt lat="42.2352262" lon="13.7788113"><ele>849.5714285714287</ele><time>2026-05-02T10:14:55.014Z</time></trkpt><trkpt lat="42.2351904" lon="13.7788914"><ele>849.4285714285714</ele><time>2026-05-02T10:14:56.013Z</time></trkpt><trkpt lat="42.2351396" lon="13.7789679"><ele>849.2857142857143</ele><time>2026-05-02T10:14:57.013Z</time></trkpt><trkpt lat="42.2350835" lon="13.7790409"><ele>849.1428571428572</ele><time>2026-05-02T10:14:58.014Z</time></trkpt><trkpt lat="42.2350259" lon="13.7791145"><ele>849.0</ele><time>2026-05-02T10:14:59.013Z</time></trkpt><trkpt lat="42.2349657" lon="13.7791887"><ele>849.0</ele><time>2026-05-02T10:15:00.014Z</time></trkpt><trkpt lat="42.2349017" lon="13.7792622"><ele>849.0</ele><time>2026-05-02T10:15:01.014Z</time></trkpt><trkpt lat="42.23483" lon="13.7793359"><ele>849.0</ele><time>2026-05-02T10:15:02.014Z</time></trkpt><trkpt lat="42.2347531" lon="13.77941"><ele>849.0</ele><time>2026-05-02T10:15:03.014Z</time></trkpt><trkpt lat="42.2346745" lon="13.7794788"><ele>849.0</ele><time>2026-05-02T10:15:04.014Z</time></trkpt><trkpt lat="42.2345944" lon="13.7795446"><ele>848.8333333333334</ele><time>2026-05-02T10:15:05.014Z</time></trkpt><trkpt lat="42.2345176" lon="13.7796105"><ele>848.6666666666667</ele><time>2026-05-02T10:15:06.014Z</time></trkpt><trkpt lat="42.2344414" lon="13.7796769"><ele>848.5</ele><time>2026-05-02T10:15:07.014Z</time></trkpt><trkpt lat="42.2343671" lon="13.7797426"><ele>848.3333333333334</ele><time>2026-05-02T10:15:08.014Z</time></trkpt><trkpt lat="42.2342979" lon="13.7798001"><ele>848.1666666666667</ele><time>2026-05-02T10:15:09.014Z</time></trkpt><trkpt lat="42.2342308" lon="13.7798438"><ele>848.0</ele><time>2026-05-02T10:15:10.014Z</time></trkpt><trkpt lat="42.2341648" lon="13.779877"><ele>848.0000000000001</ele><time>2026-05-02T10:15:11.014Z</time></trkpt><trkpt lat="42.2340994" lon="13.7799075"><ele>848.0</ele><time>2026-05-02T10:15:12.014Z</time></trkpt><trkpt lat="42.2340373" lon="13.7799384"><ele>848.0</ele><time>2026-05-02T10:15:13.014Z</time></trkpt><trkpt lat="42.2339424" lon="13.7800163"><ele>848.0</ele><time>2026-05-02T10:15:15.014Z</time></trkpt><trkpt lat="42.2339007" lon="13.7801243"><ele>848.0000000000001</ele><time>2026-05-02T10:15:17.014Z</time></trkpt><trkpt lat="42.2339194" lon="13.7802346"><ele>848.0</ele><time>2026-05-02T10:15:19.014Z</time></trkpt><trkpt lat="42.2339705" lon="13.7803684"><ele>847.2857142857143</ele><time>2026-05-02T10:15:21.013Z</time></trkpt><trkpt lat="42.233995" lon="13.7804487"><ele>846.5714285714286</ele><time>2026-05-02T10:15:22.014Z</time></trkpt><trkpt lat="42.2340123" lon="13.7805324"><ele>845.8571428571429</ele><time>2026-05-02T10:15:23.013Z</time></trkpt><trkpt lat="42.2340256" lon="13.7806174"><ele>845.1428571428571</ele><time>2026-05-02T10:15:24.014Z</time></trkpt><trkpt lat="42.2340305" lon="13.7807039"><ele>844.4285714285713</ele><time>2026-05-02T10:15:25.014Z</time></trkpt><trkpt lat="42.234028" lon="13.7807917"><ele>843.7142857142857</ele><time>2026-05-02T10:15:26.014Z</time></trkpt><trkpt lat="42.2340234" lon="13.7808804"><ele>843.0</ele><time>2026-05-02T10:15:27.014Z</time></trkpt><trkpt lat="42.234021" lon="13.7809716"><ele>842.6666666666666</ele><time>2026-05-02T10:15:28.014Z</time></trkpt><trkpt lat="42.2340184" lon="13.7810644"><ele>842.3333333333333</ele><time>2026-05-02T10:15:29.014Z</time></trkpt><trkpt lat="42.2340155" lon="13.7811623"><ele>842.0</ele><time>2026-05-02T10:15:30.013Z</time></trkpt><trkpt lat="42.2340135" lon="13.781264"><ele>841.6666666666666</ele><time>2026-05-02T10:15:31.014Z</time></trkpt><trkpt lat="42.2340166" lon="13.7813667"><ele>841.3333333333333</ele><time>2026-05-02T10:15:32.014Z</time></trkpt><trkpt lat="42.2340256" lon="13.7814641"><ele>841.0</ele><time>2026-05-02T10:15:33.014Z</time></trkpt><trkpt lat="42.2340417" lon="13.7816099"><ele>841.0</ele><time>2026-05-02T10:15:35.014Z</time></trkpt><trkpt lat="42.2340466" lon="13.7816967"><ele>841.0</ele><time>2026-05-02T10:16:05.014Z</time></trkpt><trkpt lat="42.2339744" lon="13.781682"><ele>841.0</ele><time>2026-05-02T10:16:52.014Z</time></trkpt><trkpt lat="42.233936" lon="13.7815789"><ele>841.0</ele><time>2026-05-02T10:16:54.014Z</time></trkpt><trkpt lat="42.2338801" lon="13.7814304"><ele>841.0</ele><time>2026-05-02T10:16:56.014Z</time></trkpt><trkpt lat="42.233819" lon="13.7812928"><ele>841.4999999999999</ele><time>2026-05-02T10:16:58.014Z</time></trkpt><trkpt lat="42.2337411" lon="13.781149"><ele>842.0</ele><time>2026-05-02T10:17:00.014Z</time></trkpt><trkpt lat="42.233699" lon="13.7810684"><ele>842.5</ele><time>2026-05-02T10:17:01.014Z</time></trkpt><trkpt lat="42.23365" lon="13.7809893"><ele>843.0</ele><time>2026-05-02T10:17:02.014Z</time></trkpt><trkpt lat="42.2336043" lon="13.7809185"><ele>843.4999999999999</ele><time>2026-05-02T10:17:03.014Z</time></trkpt><trkpt lat="42.2335545" lon="13.7808403"><ele>844.0</ele><time>2026-05-02T10:17:04.014Z</time></trkpt><trkpt lat="42.2335018" lon="13.7807597"><ele>845.8333333333333</ele><time>2026-05-02T10:17:05.014Z</time></trkpt><trkpt lat="42.2334458" lon="13.7806806"><ele>847.6666666666666</ele><time>2026-05-02T10:17:06.014Z</time></trkpt><trkpt lat="42.2333858" lon="13.7806031"><ele>849.5</ele><time>2026-05-02T10:17:07.014Z</time></trkpt><trkpt lat="42.2333224" lon="13.7805331"><ele>851.3333333333333</ele><time>2026-05-02T10:17:08.014Z</time></trkpt><trkpt lat="42.2332627" lon="13.7804702"><ele>853.1666666666666</ele><time>2026-05-02T10:17:09.014Z</time></trkpt><trkpt lat="42.2332047" lon="13.7804008"><ele>855.0</ele><time>2026-05-02T10:17:10.014Z</time></trkpt><trkpt lat="42.2331515" lon="13.7803241"><ele>856.5</ele><time>2026-05-02T10:17:11.014Z</time></trkpt><trkpt lat="42.2331034" lon="13.780244"><ele>858.0</ele><time>2026-05-02T10:17:12.014Z</time></trkpt><trkpt lat="42.2330609" lon="13.7801738"><ele>859.5</ele><time>2026-05-02T10:17:13.013Z</time></trkpt><trkpt lat="42.23302" lon="13.780104"><ele>861.0</ele><time>2026-05-02T10:17:14.014Z</time></trkpt><trkpt lat="42.2329812" lon="13.780034"><ele>862.5</ele><time>2026-05-02T10:17:15.013Z</time></trkpt><trkpt lat="42.2329026" lon="13.779914"><ele>864.0</ele><time>2026-05-02T10:17:17.013Z</time></trkpt><trkpt lat="42.2328183" lon="13.7798148"><ele>865.6</ele><time>2026-05-02T10:17:19.014Z</time></trkpt><trkpt lat="42.2327343" lon="13.7797218"><ele>867.2</ele><time>2026-05-02T10:17:21.013Z</time></trkpt><trkpt lat="42.2326562" lon="13.7796345"><ele>868.8000000000001</ele><time>2026-05-02T10:17:23.013Z</time></trkpt><trkpt lat="42.2325682" lon="13.7795626"><ele>870.4000000000001</ele><time>2026-05-02T10:17:25.014Z</time></trkpt><trkpt lat="42.232478" lon="13.7795133"><ele>872.0</ele><time>2026-05-02T10:17:27.014Z</time></trkpt><trkpt lat="42.2323862" lon="13.7794731"><ele>873.5000000000001</ele><time>2026-05-02T10:17:29.014Z</time></trkpt><trkpt lat="42.2322675" lon="13.7794278"><ele>875.0</ele><time>2026-05-02T10:17:31.013Z</time></trkpt><trkpt lat="42.2322037" lon="13.7794071"><ele>876.5</ele><time>2026-05-02T10:17:32.014Z</time></trkpt><trkpt lat="42.232138" lon="13.7793809"><ele>878.0</ele><time>2026-05-02T10:17:33.014Z</time></trkpt><trkpt lat="42.2320673" lon="13.7793554"><ele>879.5000000000001</ele><time>2026-05-02T10:17:34.014Z</time></trkpt><trkpt lat="42.2319971" lon="13.7793282"><ele>881.0</ele><time>2026-05-02T10:17:35.013Z</time></trkpt><trkpt lat="42.2319245" lon="13.7793046"><ele>882.0000000000001</ele><time>2026-05-02T10:17:36.014Z</time></trkpt><trkpt lat="42.2318516" lon="13.7792762"><ele>883.0</ele><time>2026-05-02T10:17:37.014Z</time></trkpt><trkpt lat="42.2317809" lon="13.7792431"><ele>884.0</ele><time>2026-05-02T10:17:38.014Z</time></trkpt><trkpt lat="42.2317126" lon="13.7792011"><ele>885.0</ele><time>2026-05-02T10:17:39.014Z</time></trkpt><trkpt lat="42.2316449" lon="13.7791488"><ele>886.0000000000001</ele><time>2026-05-02T10:17:40.014Z</time></trkpt><trkpt lat="42.2315783" lon="13.7790909"><ele>887.0</ele><time>2026-05-02T10:17:41.014Z</time></trkpt><trkpt lat="42.2315158" lon="13.7790402"><ele>888.4000000000001</ele><time>2026-05-02T10:17:42.014Z</time></trkpt><trkpt lat="42.2314156" lon="13.778957"><ele>889.8000000000001</ele><time>2026-05-02T10:17:44.014Z</time></trkpt><trkpt lat="42.2313289" lon="13.7788547"><ele>891.2</ele><time>2026-05-02T10:17:46.014Z</time></trkpt><trkpt lat="42.2312579" lon="13.7787508"><ele>892.6</ele><time>2026-05-02T10:17:48.014Z</time></trkpt><trkpt lat="42.2311818" lon="13.7786413"><ele>894.0</ele><time>2026-05-02T10:17:50.013Z</time></trkpt><trkpt lat="42.2310804" lon="13.7785563"><ele>894.0</ele><time>2026-05-02T10:17:52.013Z</time></trkpt><trkpt lat="42.2309567" lon="13.7785575"><ele>894.0000000000001</ele><time>2026-05-02T10:17:54.014Z</time></trkpt><trkpt lat="42.230895" lon="13.7785782"><ele>894.0000000000001</ele><time>2026-05-02T10:17:55.014Z</time></trkpt><trkpt lat="42.2308315" lon="13.7785803"><ele>894.0</ele><time>2026-05-02T10:17:56.014Z</time></trkpt><trkpt lat="42.2307097" lon="13.7785311"><ele>894.0</ele><time>2026-05-02T10:17:58.014Z</time></trkpt><trkpt lat="42.2306426" lon="13.7784882"><ele>897.3333333333334</ele><time>2026-05-02T10:17:59.014Z</time></trkpt><trkpt lat="42.2305716" lon="13.7784477"><ele>900.6666666666667</ele><time>2026-05-02T10:18:00.013Z</time></trkpt><trkpt lat="42.230499" lon="13.7784126"><ele>904.0</ele><time>2026-05-02T10:18:01.014Z</time></trkpt><trkpt lat="42.230427" lon="13.7783784"><ele>907.3333333333334</ele><time>2026-05-02T10:18:02.014Z</time></trkpt><trkpt lat="42.2303528" lon="13.7783435"><ele>910.6666666666667</ele><time>2026-05-02T10:18:03.014Z</time></trkpt><trkpt lat="42.2302846" lon="13.7783195"><ele>914.0</ele><time>2026-05-02T10:18:04.014Z</time></trkpt><trkpt lat="42.2302123" lon="13.7783087"><ele>914.0000000000001</ele><time>2026-05-02T10:18:05.014Z</time></trkpt><trkpt lat="42.2301365" lon="13.7783147"><ele>914.0</ele><time>2026-05-02T10:18:06.014Z</time></trkpt><trkpt lat="42.230065" lon="13.7783178"><ele>914.0</ele><time>2026-05-02T10:18:07.014Z</time></trkpt><trkpt lat="42.2300002" lon="13.7783065"><ele>914.0</ele><time>2026-05-02T10:18:08.014Z</time></trkpt><trkpt lat="42.2299369" lon="13.7782794"><ele>914.0000000000001</ele><time>2026-05-02T10:18:09.014Z</time></trkpt><trkpt lat="42.2298223" lon="13.778192"><ele>914.0</ele><time>2026-05-02T10:18:11.013Z</time></trkpt><trkpt lat="42.229758" lon="13.7781495"><ele>914.5000000000001</ele><time>2026-05-02T10:18:12.013Z</time></trkpt><trkpt lat="42.2296966" lon="13.7781042"><ele>915.0</ele><time>2026-05-02T10:18:13.013Z</time></trkpt><trkpt lat="42.2296336" lon="13.7780607"><ele>915.5</ele><time>2026-05-02T10:18:14.014Z</time></trkpt><trkpt lat="42.2295709" lon="13.7780139"><ele>916.0</ele><time>2026-05-02T10:18:15.014Z</time></trkpt><trkpt lat="42.229503" lon="13.7779709"><ele>916.5000000000001</ele><time>2026-05-02T10:18:16.013Z</time></trkpt><trkpt lat="42.2294421" lon="13.7779339"><ele>917.0</ele><time>2026-05-02T10:18:17.014Z</time></trkpt><trkpt lat="42.2293374" lon="13.7779008"><ele>917.0</ele><time>2026-05-02T10:18:19.014Z</time></trkpt><trkpt lat="42.229244" lon="13.7779564"><ele>917.0</ele><time>2026-05-02T10:18:21.014Z</time></trkpt><trkpt lat="42.2291347" lon="13.7779948"><ele>917.0</ele><time>2026-05-02T10:18:23.013Z</time></trkpt><trkpt lat="42.2290042" lon="13.7779955"><ele>917.0</ele><time>2026-05-02T10:18:25.014Z</time></trkpt><trkpt lat="42.2288856" lon="13.7779453"><ele>917.1666666666667</ele><time>2026-05-02T10:18:27.014Z</time></trkpt><trkpt lat="42.2288316" lon="13.7778968"><ele>917.3333333333334</ele><time>2026-05-02T10:18:28.014Z</time></trkpt><trkpt lat="42.2287842" lon="13.7778339"><ele>917.5</ele><time>2026-05-02T10:18:29.014Z</time></trkpt><trkpt lat="42.2287382" lon="13.7777643"><ele>917.6666666666667</ele><time>2026-05-02T10:18:30.014Z</time></trkpt><trkpt lat="42.2286994" lon="13.7776942"><ele>917.8333333333334</ele><time>2026-05-02T10:18:31.014Z</time></trkpt><trkpt lat="42.2286291" lon="13.7775857"><ele>918.0</ele><time>2026-05-02T10:18:33.014Z</time></trkpt><trkpt lat="42.2285404" lon="13.7775239"><ele>918.0</ele><time>2026-05-02T10:18:35.014Z</time></trkpt><trkpt lat="42.2284253" lon="13.7774939"><ele>918.0</ele><time>2026-05-02T10:18:37.014Z</time></trkpt><trkpt lat="42.2283555" lon="13.7775009"><ele>918.0</ele><time>2026-05-02T10:18:38.014Z</time></trkpt><trkpt lat="42.2282784" lon="13.7775107"><ele>918.0</ele><time>2026-05-02T10:18:39.014Z</time></trkpt><trkpt lat="42.2281934" lon="13.7775205"><ele>918.0</ele><time>2026-05-02T10:18:40.013Z</time></trkpt><trkpt lat="42.2281054" lon="13.7775395"><ele>918.0</ele><time>2026-05-02T10:18:41.014Z</time></trkpt><trkpt lat="42.2280226" lon="13.7775692"><ele>918.0</ele><time>2026-05-02T10:18:42.014Z</time></trkpt><trkpt lat="42.227939" lon="13.7776074"><ele>918.0</ele><time>2026-05-02T10:18:43.014Z</time></trkpt><trkpt lat="42.2278581" lon="13.7776529"><ele>918.0</ele><time>2026-05-02T10:18:44.014Z</time></trkpt><trkpt lat="42.227777" lon="13.7777074"><ele>918.0</ele><time>2026-05-02T10:18:45.013Z</time></trkpt><trkpt lat="42.2277" lon="13.7777735"><ele>918.0</ele><time>2026-05-02T10:18:46.014Z</time></trkpt><trkpt lat="42.2276244" lon="13.7778465"><ele>918.2</ele><time>2026-05-02T10:18:47.014Z</time></trkpt><trkpt lat="42.2275481" lon="13.7779148"><ele>918.4</ele><time>2026-05-02T10:18:48.014Z</time></trkpt><trkpt lat="42.227475" lon="13.777982"><ele>918.6000000000001</ele><time>2026-05-02T10:18:49.014Z</time></trkpt><trkpt lat="42.2273994" lon="13.7780505"><ele>918.8000000000001</ele><time>2026-05-02T10:18:50.014Z</time></trkpt><trkpt lat="42.2273218" lon="13.7781239"><ele>919.0</ele><time>2026-05-02T10:18:51.014Z</time></trkpt><trkpt lat="42.2272395" lon="13.778205"><ele>919.0</ele><time>2026-05-02T10:18:52.014Z</time></trkpt><trkpt lat="42.2271518" lon="13.7782876"><ele>919.0</ele><time>2026-05-02T10:18:53.014Z</time></trkpt><trkpt lat="42.2270605" lon="13.7783744"><ele>919.0</ele><time>2026-05-02T10:18:54.014Z</time></trkpt><trkpt lat="42.2269632" lon="13.7784609"><ele>919.0</ele><time>2026-05-02T10:18:55.014Z</time></trkpt><trkpt lat="42.2268596" lon="13.7785497"><ele>919.5</ele><time>2026-05-02T10:18:56.013Z</time></trkpt><trkpt lat="42.2267551" lon="13.7786376"><ele>920.0</ele><time>2026-05-02T10:18:57.014Z</time></trkpt><trkpt lat="42.2266523" lon="13.7787253"><ele>920.5</ele><time>2026-05-02T10:18:58.014Z</time></trkpt><trkpt lat="42.2265497" lon="13.7788122"><ele>921.0</ele><time>2026-05-02T10:18:59.014Z</time></trkpt><trkpt lat="42.2264544" lon="13.7789001"><ele>918.5</ele><time>2026-05-02T10:19:00.014Z</time></trkpt><trkpt lat="42.2263631" lon="13.7789964"><ele>916.0</ele><time>2026-05-02T10:19:01.014Z</time></trkpt><trkpt lat="42.2262747" lon="13.7790977"><ele>913.5</ele><time>2026-05-02T10:19:02.014Z</time></trkpt><trkpt lat="42.2261875" lon="13.7792024"><ele>911.0</ele><time>2026-05-02T10:19:03.014Z</time></trkpt><trkpt lat="42.2261039" lon="13.7793067"><ele>912.1999999999999</ele><time>2026-05-02T10:19:04.014Z</time></trkpt><trkpt lat="42.2260259" lon="13.779411"><ele>913.3999999999999</ele><time>2026-05-02T10:19:05.013Z</time></trkpt><trkpt lat="42.2259538" lon="13.7795183"><ele>914.6</ele><time>2026-05-02T10:19:06.014Z</time></trkpt><trkpt lat="42.2258842" lon="13.7796317"><ele>915.8</ele><time>2026-05-02T10:19:07.013Z</time></trkpt><trkpt lat="42.2258141" lon="13.779745"><ele>917.0</ele><time>2026-05-02T10:19:08.013Z</time></trkpt><trkpt lat="42.2257428" lon="13.7798553"><ele>917.0</ele><time>2026-05-02T10:19:09.014Z</time></trkpt><trkpt lat="42.225667" lon="13.7799623"><ele>917.0</ele><time>2026-05-02T10:19:10.014Z</time></trkpt><trkpt lat="42.2255892" lon="13.7800708"><ele>917.0</ele><time>2026-05-02T10:19:11.014Z</time></trkpt><trkpt lat="42.2255143" lon="13.7801832"><ele>917.0</ele><time>2026-05-02T10:19:12.014Z</time></trkpt><trkpt lat="42.225443" lon="13.7802984"><ele>917.0</ele><time>2026-05-02T10:19:13.013Z</time></trkpt><trkpt lat="42.2253758" lon="13.7804161"><ele>915.0</ele><time>2026-05-02T10:19:14.014Z</time></trkpt><trkpt lat="42.2253126" lon="13.7805364"><ele>913.0</ele><time>2026-05-02T10:19:15.014Z</time></trkpt><trkpt lat="42.2252514" lon="13.7806568"><ele>911.0</ele><time>2026-05-02T10:19:16.014Z</time></trkpt><trkpt lat="42.2251912" lon="13.780776"><ele>909.0</ele><time>2026-05-02T10:19:17.014Z</time></trkpt><trkpt lat="42.2251262" lon="13.7808892"><ele>907.0</ele><time>2026-05-02T10:19:18.014Z</time></trkpt><trkpt lat="42.2250563" lon="13.7809886"><ele>907.3333333333333</ele><time>2026-05-02T10:19:19.013Z</time></trkpt><trkpt lat="42.2249861" lon="13.7810726"><ele>907.6666666666666</ele><time>2026-05-02T10:19:20.014Z</time></trkpt><trkpt lat="42.22492" lon="13.7811531"><ele>908.0</ele><time>2026-05-02T10:19:21.014Z</time></trkpt><trkpt lat="42.224858" lon="13.7812345"><ele>908.3333333333333</ele><time>2026-05-02T10:19:22.014Z</time></trkpt><trkpt lat="42.224807" lon="13.7813063"><ele>908.6666666666666</ele><time>2026-05-02T10:19:23.014Z</time></trkpt><trkpt lat="42.2247646" lon="13.7813704"><ele>909.0</ele><time>2026-05-02T10:19:24.014Z</time></trkpt><trkpt lat="42.2247261" lon="13.7814438"><ele>905.5</ele><time>2026-05-02T10:19:25.014Z</time></trkpt><trkpt lat="42.2246959" lon="13.7815331"><ele>902.0</ele><time>2026-05-02T10:19:26.014Z</time></trkpt><trkpt lat="42.2246739" lon="13.7816333"><ele>898.5</ele><time>2026-05-02T10:19:27.014Z</time></trkpt><trkpt lat="42.2246524" lon="13.7817368"><ele>895.0</ele><time>2026-05-02T10:19:28.014Z</time></trkpt><trkpt lat="42.2246302" lon="13.7818475"><ele>891.5</ele><time>2026-05-02T10:19:29.014Z</time></trkpt><trkpt lat="42.2245962" lon="13.7819606"><ele>888.0</ele><time>2026-05-02T10:19:30.014Z</time></trkpt><trkpt lat="42.2245444" lon="13.7820663"><ele>887.6666666666666</ele><time>2026-05-02T10:19:31.013Z</time></trkpt><trkpt lat="42.2244889" lon="13.7821661"><ele>887.3333333333333</ele><time>2026-05-02T10:19:32.014Z</time></trkpt><trkpt lat="42.2244401" lon="13.7822651"><ele>887.0</ele><time>2026-05-02T10:19:33.013Z</time></trkpt><trkpt lat="42.2244002" lon="13.7823655"><ele>886.6666666666666</ele><time>2026-05-02T10:19:34.014Z</time></trkpt><trkpt lat="42.2243687" lon="13.7824632"><ele>886.3333333333333</ele><time>2026-05-02T10:19:35.014Z</time></trkpt><trkpt lat="42.224343" lon="13.7825606"><ele>886.0</ele><time>2026-05-02T10:19:36.014Z</time></trkpt><trkpt lat="42.2243239" lon="13.7826545"><ele>884.8333333333333</ele><time>2026-05-02T10:19:37.014Z</time></trkpt><trkpt lat="42.2243129" lon="13.7827504"><ele>883.6666666666666</ele><time>2026-05-02T10:19:38.014Z</time></trkpt><trkpt lat="42.2243102" lon="13.7828405"><ele>882.5</ele><time>2026-05-02T10:19:39.014Z</time></trkpt><trkpt lat="42.2242905" lon="13.782959"><ele>881.3333333333333</ele><time>2026-05-02T10:19:41.014Z</time></trkpt><trkpt lat="42.2242145" lon="13.7829533"><ele>880.1666666666666</ele><time>2026-05-02T10:19:43.014Z</time></trkpt><trkpt lat="42.2241353" lon="13.7828439"><ele>879.0</ele><time>2026-05-02T10:19:45.014Z</time></trkpt><trkpt lat="42.2240903" lon="13.7827545"><ele>880.4000000000001</ele><time>2026-05-02T10:19:46.014Z</time></trkpt><trkpt lat="42.2240407" lon="13.7826497"><ele>881.8000000000001</ele><time>2026-05-02T10:19:47.014Z</time></trkpt><trkpt lat="42.2239915" lon="13.7825382"><ele>883.1999999999999</ele><time>2026-05-02T10:19:48.013Z</time></trkpt><trkpt lat="42.2239493" lon="13.7824245"><ele>884.5999999999999</ele><time>2026-05-02T10:19:49.014Z</time></trkpt><trkpt lat="42.2239101" lon="13.7823083"><ele>886.0</ele><time>2026-05-02T10:19:50.014Z</time></trkpt><trkpt lat="42.2238733" lon="13.7822004"><ele>881.3333333333333</ele><time>2026-05-02T10:19:51.014Z</time></trkpt><trkpt lat="42.2238396" lon="13.7821136"><ele>876.6666666666666</ele><time>2026-05-02T10:19:52.013Z</time></trkpt><trkpt lat="42.22381" lon="13.782038"><ele>872.0</ele><time>2026-05-02T10:19:53.014Z</time></trkpt><trkpt lat="42.2237658" lon="13.7819341"><ele>867.3333333333333</ele><time>2026-05-02T10:19:55.014Z</time></trkpt><trkpt lat="42.2236796" lon="13.7819499"><ele>862.6666666666666</ele><time>2026-05-02T10:19:58.014Z</time></trkpt><trkpt lat="42.223657" lon="13.7820711"><ele>858.0</ele><time>2026-05-02T10:20:00.014Z</time></trkpt><trkpt lat="42.223647" lon="13.7821672"><ele>858.0</ele><time>2026-05-02T10:20:01.014Z</time></trkpt><trkpt lat="42.2236319" lon="13.7822717"><ele>858.0</ele><time>2026-05-02T10:20:02.014Z</time></trkpt><trkpt lat="42.2236157" lon="13.7823742"><ele>858.0</ele><time>2026-05-02T10:20:03.013Z</time></trkpt><trkpt lat="42.2236014" lon="13.7824713"><ele>858.0</ele><time>2026-05-02T10:20:04.014Z</time></trkpt><trkpt lat="42.223581" lon="13.7826019"><ele>858.0</ele><time>2026-05-02T10:20:06.014Z</time></trkpt><trkpt lat="42.2234954" lon="13.7825938"><ele>858.0</ele><time>2026-05-02T10:20:09.013Z</time></trkpt><trkpt lat="42.2234468" lon="13.7824794"><ele>858.0</ele><time>2026-05-02T10:20:11.013Z</time></trkpt><trkpt lat="42.2234108" lon="13.7823982"><ele>858.0</ele><time>2026-05-02T10:20:12.014Z</time></trkpt><trkpt lat="42.2233604" lon="13.7822515"><ele>858.0</ele><time>2026-05-02T10:20:14.013Z</time></trkpt><trkpt lat="42.2233239" lon="13.7821162"><ele>858.0</ele><time>2026-05-02T10:20:16.014Z</time></trkpt><trkpt lat="42.2232698" lon="13.7820441"><ele>858.0</ele><time>2026-05-02T10:20:18.013Z</time></trkpt><trkpt lat="42.2231872" lon="13.7820845"><ele>857.0</ele><time>2026-05-02T10:20:20.014Z</time></trkpt><trkpt lat="42.2231379" lon="13.7821584"><ele>856.0</ele><time>2026-05-02T10:20:21.014Z</time></trkpt><trkpt lat="42.2230804" lon="13.7822446"><ele>855.0</ele><time>2026-05-02T10:20:22.014Z</time></trkpt><trkpt lat="42.2230178" lon="13.7823299"><ele>854.0</ele><time>2026-05-02T10:20:23.014Z</time></trkpt><trkpt lat="42.2229494" lon="13.7824118"><ele>853.0</ele><time>2026-05-02T10:20:24.013Z</time></trkpt><trkpt lat="42.2228864" lon="13.782478"><ele>852.0</ele><time>2026-05-02T10:20:25.013Z</time></trkpt><trkpt lat="42.2228231" lon="13.7824842"><ele>852.0</ele><time>2026-05-02T10:20:26.014Z</time></trkpt><trkpt lat="42.2227522" lon="13.7824734"><ele>852.0</ele><time>2026-05-02T10:20:27.013Z</time></trkpt><trkpt lat="42.2226905" lon="13.7824305"><ele>852.0</ele><time>2026-05-02T10:20:28.014Z</time></trkpt><trkpt lat="42.2226169" lon="13.7823356"><ele>852.0</ele><time>2026-05-02T10:20:30.014Z</time></trkpt><trkpt lat="42.2225467" lon="13.7822671"><ele>852.0</ele><time>2026-05-02T10:20:32.014Z</time></trkpt><trkpt lat="42.222479" lon="13.7822093"><ele>852.0</ele><time>2026-05-02T10:20:34.014Z</time></trkpt><trkpt lat="42.2224231" lon="13.7821671"><ele>852.0</ele><time>2026-05-02T10:20:36.014Z</time></trkpt><trkpt lat="42.2223525" lon="13.7821042"><ele>852.0</ele><time>2026-05-02T10:20:38.013Z</time></trkpt><trkpt lat="42.2222725" lon="13.7820103"><ele>852.0</ele><time>2026-05-02T10:20:40.013Z</time></trkpt><trkpt lat="42.2221759" lon="13.781896"><ele>852.0</ele><time>2026-05-02T10:20:42.014Z</time></trkpt><trkpt lat="42.2221199" lon="13.7818377"><ele>852.0</ele><time>2026-05-02T10:20:43.013Z</time></trkpt><trkpt lat="42.2220669" lon="13.781774"><ele>852.8333333333334</ele><time>2026-05-02T10:20:44.014Z</time></trkpt><trkpt lat="42.2220183" lon="13.7816998"><ele>853.6666666666667</ele><time>2026-05-02T10:20:45.014Z</time></trkpt><trkpt lat="42.2219727" lon="13.7816113"><ele>854.5</ele><time>2026-05-02T10:20:46.014Z</time></trkpt><trkpt lat="42.2219352" lon="13.7815191"><ele>855.3333333333334</ele><time>2026-05-02T10:20:47.014Z</time></trkpt><trkpt lat="42.2219052" lon="13.7814237"><ele>856.1666666666667</ele><time>2026-05-02T10:20:48.014Z</time></trkpt><trkpt lat="42.221873" lon="13.7813286"><ele>857.0</ele><time>2026-05-02T10:20:49.013Z</time></trkpt><trkpt lat="42.2218394" lon="13.7812317"><ele>857.0000000000001</ele><time>2026-05-02T10:20:50.014Z</time></trkpt><trkpt lat="42.2218097" lon="13.7811278"><ele>857.0</ele><time>2026-05-02T10:20:51.014Z</time></trkpt><trkpt lat="42.2217805" lon="13.781023"><ele>857.0</ele><time>2026-05-02T10:20:52.014Z</time></trkpt><trkpt lat="42.2217552" lon="13.7809152"><ele>857.0</ele><time>2026-05-02T10:20:53.014Z</time></trkpt><trkpt lat="42.2217333" lon="13.7808008"><ele>857.0000000000001</ele><time>2026-05-02T10:20:54.014Z</time></trkpt><trkpt lat="42.221707" lon="13.7806888"><ele>857.0</ele><time>2026-05-02T10:20:55.014Z</time></trkpt><trkpt lat="42.2216748" lon="13.7805783"><ele>856.4285714285714</ele><time>2026-05-02T10:20:56.014Z</time></trkpt><trkpt lat="42.221644" lon="13.7804783"><ele>855.8571428571429</ele><time>2026-05-02T10:20:57.014Z</time></trkpt><trkpt lat="42.2216186" lon="13.7803879"><ele>855.2857142857142</ele><time>2026-05-02T10:20:58.014Z</time></trkpt><trkpt lat="42.2215889" lon="13.7802997"><ele>854.7142857142858</ele><time>2026-05-02T10:20:59.014Z</time></trkpt><trkpt lat="42.2215566" lon="13.7802124"><ele>854.1428571428572</ele><time>2026-05-02T10:21:00.013Z</time></trkpt><trkpt lat="42.2215245" lon="13.7801275"><ele>853.5714285714286</ele><time>2026-05-02T10:21:01.014Z</time></trkpt><trkpt lat="42.2214954" lon="13.7800432"><ele>853.0</ele><time>2026-05-02T10:21:02.014Z</time></trkpt><trkpt lat="42.2214672" lon="13.7799639"><ele>850.0</ele><time>2026-05-02T10:21:03.014Z</time></trkpt><trkpt lat="42.2214205" lon="13.7798403"><ele>847.0</ele><time>2026-05-02T10:21:05.014Z</time></trkpt><trkpt lat="42.221362" lon="13.7797679"><ele>844.0</ele><time>2026-05-02T10:21:07.013Z</time></trkpt><trkpt lat="42.2212938" lon="13.7797628"><ele>841.0</ele><time>2026-05-02T10:21:09.014Z</time></trkpt><trkpt lat="42.221205" lon="13.7798193"><ele>838.0</ele><time>2026-05-02T10:21:11.013Z</time></trkpt><trkpt lat="42.2211018" lon="13.7799184"><ele>837.9999999999999</ele><time>2026-05-02T10:21:13.013Z</time></trkpt><trkpt lat="42.2210462" lon="13.7799674"><ele>838.0</ele><time>2026-05-02T10:21:14.014Z</time></trkpt><trkpt lat="42.2209853" lon="13.7800102"><ele>838.0</ele><time>2026-05-02T10:21:15.014Z</time></trkpt><trkpt lat="42.2209188" lon="13.7800601"><ele>838.0</ele><time>2026-05-02T10:21:16.014Z</time></trkpt><trkpt lat="42.22085" lon="13.7801214"><ele>837.9999999999999</ele><time>2026-05-02T10:21:17.014Z</time></trkpt><trkpt lat="42.2207768" lon="13.7801822"><ele>838.0</ele><time>2026-05-02T10:21:18.014Z</time></trkpt><trkpt lat="42.2206924" lon="13.780243"><ele>837.8</ele><time>2026-05-02T10:21:19.014Z</time></trkpt><trkpt lat="42.220611" lon="13.7803077"><ele>837.5999999999999</ele><time>2026-05-02T10:21:20.013Z</time></trkpt><trkpt lat="42.2205256" lon="13.7803693"><ele>837.4000000000001</ele><time>2026-05-02T10:21:21.014Z</time></trkpt><trkpt lat="42.2204387" lon="13.7804225"><ele>837.2</ele><time>2026-05-02T10:21:22.014Z</time></trkpt><trkpt lat="42.2203512" lon="13.7804626"><ele>837.0</ele><time>2026-05-02T10:21:23.014Z</time></trkpt><trkpt lat="42.2202666" lon="13.7804836"><ele>837.0</ele><time>2026-05-02T10:21:24.014Z</time></trkpt><trkpt lat="42.220183" lon="13.7804976"><ele>837.0</ele><time>2026-05-02T10:21:25.014Z</time></trkpt><trkpt lat="42.2200978" lon="13.7804984"><ele>837.0</ele><time>2026-05-02T10:21:26.014Z</time></trkpt><trkpt lat="42.2200096" lon="13.7804823"><ele>837.0</ele><time>2026-05-02T10:21:27.014Z</time></trkpt><trkpt lat="42.2199142" lon="13.7804656"><ele>837.0</ele><time>2026-05-02T10:21:28.014Z</time></trkpt><trkpt lat="42.219823" lon="13.7804353"><ele>837.0</ele><time>2026-05-02T10:21:29.014Z</time></trkpt><trkpt lat="42.2197374" lon="13.7804038"><ele>835.5</ele><time>2026-05-02T10:21:30.014Z</time></trkpt><trkpt lat="42.2196631" lon="13.7803714"><ele>834.0</ele><time>2026-05-02T10:21:31.014Z</time></trkpt><trkpt lat="42.2195962" lon="13.7803427"><ele>832.5</ele><time>2026-05-02T10:21:32.014Z</time></trkpt><trkpt lat="42.2195296" lon="13.7802919"><ele>831.0</ele><time>2026-05-02T10:21:33.014Z</time></trkpt><trkpt lat="42.2194632" lon="13.780227"><ele>829.5</ele><time>2026-05-02T10:21:34.014Z</time></trkpt><trkpt lat="42.2193992" lon="13.7801504"><ele>828.0</ele><time>2026-05-02T10:21:35.014Z</time></trkpt><trkpt lat="42.2193378" lon="13.7800712"><ele>824.8571428571429</ele><time>2026-05-02T10:21:36.014Z</time></trkpt><trkpt lat="42.2192814" lon="13.7799944"><ele>821.7142857142858</ele><time>2026-05-02T10:21:37.014Z</time></trkpt><trkpt lat="42.2192304" lon="13.779927"><ele>818.5714285714287</ele><time>2026-05-02T10:21:38.014Z</time></trkpt><trkpt lat="42.2191813" lon="13.7798642"><ele>815.4285714285714</ele><time>2026-05-02T10:21:39.013Z</time></trkpt><trkpt lat="42.2191323" lon="13.7798061"><ele>812.2857142857142</ele><time>2026-05-02T10:21:40.014Z</time></trkpt><trkpt lat="42.2190737" lon="13.7797514"><ele>809.1428571428572</ele><time>2026-05-02T10:21:41.014Z</time></trkpt><trkpt lat="42.2190053" lon="13.7796978"><ele>806.0</ele><time>2026-05-02T10:21:42.013Z</time></trkpt><trkpt lat="42.2189312" lon="13.779656"><ele>803.1999999999999</ele><time>2026-05-02T10:21:43.014Z</time></trkpt><trkpt lat="42.2188448" lon="13.7796261"><ele>800.4</ele><time>2026-05-02T10:21:44.013Z</time></trkpt><trkpt lat="42.218748" lon="13.7796161"><ele>797.6</ele><time>2026-05-02T10:21:45.014Z</time></trkpt><trkpt lat="42.2186471" lon="13.7796285"><ele>794.8</ele><time>2026-05-02T10:21:46.014Z</time></trkpt><trkpt lat="42.2185469" lon="13.7796619"><ele>792.0</ele><time>2026-05-02T10:21:47.014Z</time></trkpt><trkpt lat="42.2184476" lon="13.7797036"><ele>792.0</ele><time>2026-05-02T10:21:48.014Z</time></trkpt><trkpt lat="42.218346" lon="13.7797505"><ele>792.0</ele><time>2026-05-02T10:21:49.014Z</time></trkpt><trkpt lat="42.2182406" lon="13.7797912"><ele>792.0</ele><time>2026-05-02T10:21:50.014Z</time></trkpt><trkpt lat="42.2181298" lon="13.779835"><ele>792.0</ele><time>2026-05-02T10:21:51.014Z</time></trkpt><trkpt lat="42.2180313" lon="13.7798745"><ele>792.0</ele><time>2026-05-02T10:21:52.014Z</time></trkpt><trkpt lat="42.217934" lon="13.779907"><ele>791.0</ele><time>2026-05-02T10:21:53.014Z</time></trkpt><trkpt lat="42.2178536" lon="13.7799146"><ele>790.0</ele><time>2026-05-02T10:21:54.014Z</time></trkpt><trkpt lat="42.2177724" lon="13.7799163"><ele>789.0</ele><time>2026-05-02T10:21:55.014Z</time></trkpt><trkpt lat="42.2176946" lon="13.7798888"><ele>788.0</ele><time>2026-05-02T10:21:56.013Z</time></trkpt><trkpt lat="42.2176239" lon="13.7798314"><ele>787.0</ele><time>2026-05-02T10:21:57.014Z</time></trkpt><trkpt lat="42.2175626" lon="13.7797458"><ele>786.0</ele><time>2026-05-02T10:21:58.014Z</time></trkpt><trkpt lat="42.2175157" lon="13.7796469"><ele>786.0</ele><time>2026-05-02T10:21:59.014Z</time></trkpt><trkpt lat="42.2174915" lon="13.7795162"><ele>786.0</ele><time>2026-05-02T10:22:00.014Z</time></trkpt><trkpt lat="42.2174711" lon="13.7793792"><ele>786.0</ele><time>2026-05-02T10:22:01.014Z</time></trkpt><trkpt lat="42.2174495" lon="13.779229"><ele>786.0</ele><time>2026-05-02T10:22:02.014Z</time></trkpt><trkpt lat="42.2174263" lon="13.7790816"><ele>786.0</ele><time>2026-05-02T10:22:03.014Z</time></trkpt><trkpt lat="42.2173987" lon="13.778946"><ele>783.0</ele><time>2026-05-02T10:22:04.014Z</time></trkpt><trkpt lat="42.217354" lon="13.7788118"><ele>780.0</ele><time>2026-05-02T10:22:05.014Z</time></trkpt><trkpt lat="42.2173039" lon="13.7786731"><ele>777.0</ele><time>2026-05-02T10:22:06.014Z</time></trkpt><trkpt lat="42.2172481" lon="13.7785209"><ele>774.0</ele><time>2026-05-02T10:22:07.014Z</time></trkpt><trkpt lat="42.2171855" lon="13.77837"><ele>769.5</ele><time>2026-05-02T10:22:08.013Z</time></trkpt><trkpt lat="42.2171203" lon="13.7782171"><ele>765.0</ele><time>2026-05-02T10:22:09.014Z</time></trkpt><trkpt lat="42.2170625" lon="13.7780707"><ele>760.5</ele><time>2026-05-02T10:22:10.014Z</time></trkpt><trkpt lat="42.2170083" lon="13.7779415"><ele>756.0</ele><time>2026-05-02T10:22:11.014Z</time></trkpt><trkpt lat="42.2169586" lon="13.7778304"><ele>756.0</ele><time>2026-05-02T10:22:12.013Z</time></trkpt><trkpt lat="42.2168973" lon="13.7777321"><ele>756.0</ele><time>2026-05-02T10:22:13.014Z</time></trkpt><trkpt lat="42.2168201" lon="13.7776481"><ele>756.0</ele><time>2026-05-02T10:22:14.014Z</time></trkpt><trkpt lat="42.2167266" lon="13.777575"><ele>756.0</ele><time>2026-05-02T10:22:15.014Z</time></trkpt><trkpt lat="42.2166213" lon="13.7775133"><ele>756.0</ele><time>2026-05-02T10:22:16.014Z</time></trkpt><trkpt lat="42.2165043" lon="13.7774507"><ele>749.25</ele><time>2026-05-02T10:22:17.014Z</time></trkpt><trkpt lat="42.2163804" lon="13.7773852"><ele>742.5</ele><time>2026-05-02T10:22:18.014Z</time></trkpt><trkpt lat="42.2162476" lon="13.7773077"><ele>735.75</ele><time>2026-05-02T10:22:19.013Z</time></trkpt><trkpt lat="42.2161084" lon="13.7772184"><ele>729.0</ele><time>2026-05-02T10:22:20.014Z</time></trkpt><trkpt lat="42.2159665" lon="13.7771223"><ele>729.0</ele><time>2026-05-02T10:22:21.013Z</time></trkpt><trkpt lat="42.2158302" lon="13.7770325"><ele>729.0</ele><time>2026-05-02T10:22:22.013Z</time></trkpt><trkpt lat="42.2156987" lon="13.7769525"><ele>729.0</ele><time>2026-05-02T10:22:23.014Z</time></trkpt><trkpt lat="42.2155767" lon="13.7768838"><ele>729.0</ele><time>2026-05-02T10:22:24.014Z</time></trkpt><trkpt lat="42.2154655" lon="13.7768279"><ele>725.0</ele><time>2026-05-02T10:22:25.014Z</time></trkpt><trkpt lat="42.2153583" lon="13.7767806"><ele>721.0</ele><time>2026-05-02T10:22:26.014Z</time></trkpt><trkpt lat="42.2152547" lon="13.7767518"><ele>717.0</ele><time>2026-05-02T10:22:27.014Z</time></trkpt><trkpt lat="42.2151573" lon="13.7767333"><ele>713.0</ele><time>2026-05-02T10:22:28.014Z</time></trkpt><trkpt lat="42.2150732" lon="13.7767336"><ele>709.0</ele><time>2026-05-02T10:22:29.014Z</time></trkpt><trkpt lat="42.215005" lon="13.7767597"><ele>709.0</ele><time>2026-05-02T10:22:30.014Z</time></trkpt><trkpt lat="42.2149501" lon="13.7768231"><ele>709.0</ele><time>2026-05-02T10:22:31.014Z</time></trkpt><trkpt lat="42.2149154" lon="13.7769137"><ele>709.0</ele><time>2026-05-02T10:22:32.013Z</time></trkpt><trkpt lat="42.2148894" lon="13.7770006"><ele>709.0</ele><time>2026-05-02T10:22:33.014Z</time></trkpt><trkpt lat="42.2148432" lon="13.777097"><ele>709.0</ele><time>2026-05-02T10:22:35.014Z</time></trkpt><trkpt lat="42.214769" lon="13.7770881"><ele>709.0</ele><time>2026-05-02T10:22:38.014Z</time></trkpt><trkpt lat="42.2147656" lon="13.7769879"><ele>709.0</ele><time>2026-05-02T10:22:40.014Z</time></trkpt><trkpt lat="42.2148244" lon="13.7768326"><ele>709.0</ele><time>2026-05-02T10:22:42.014Z</time></trkpt><trkpt lat="42.2148609" lon="13.7767351"><ele>709.0</ele><time>2026-05-02T10:22:43.014Z</time></trkpt><trkpt lat="42.2148844" lon="13.7766532"><ele>709.0</ele><time>2026-05-02T10:22:44.013Z</time></trkpt><trkpt lat="42.2149239" lon="13.7765037"><ele>709.0</ele><time>2026-05-02T10:22:46.014Z</time></trkpt><trkpt lat="42.2148725" lon="13.7763926"><ele>707.4000000000001</ele><time>2026-05-02T10:22:48.014Z</time></trkpt><trkpt lat="42.2147633" lon="13.7764275"><ele>705.8</ele><time>2026-05-02T10:22:50.014Z</time></trkpt><trkpt lat="42.2147126" lon="13.7765052"><ele>704.2</ele><time>2026-05-02T10:22:51.014Z</time></trkpt><trkpt lat="42.2146641" lon="13.7766138"><ele>702.5999999999999</ele><time>2026-05-02T10:22:52.014Z</time></trkpt><trkpt lat="42.2146129" lon="13.7767348"><ele>701.0</ele><time>2026-05-02T10:22:53.014Z</time></trkpt><trkpt lat="42.2145557" lon="13.7768677"><ele>701.0</ele><time>2026-05-02T10:22:54.013Z</time></trkpt><trkpt lat="42.2144951" lon="13.7770059"><ele>701.0</ele><time>2026-05-02T10:22:55.014Z</time></trkpt><trkpt lat="42.2144374" lon="13.7771388"><ele>701.0</ele><time>2026-05-02T10:22:56.014Z</time></trkpt><trkpt lat="42.214386" lon="13.7772667"><ele>701.0</ele><time>2026-05-02T10:22:57.014Z</time></trkpt><trkpt lat="42.2143448" lon="13.7773665"><ele>701.0</ele><time>2026-05-02T10:22:58.014Z</time></trkpt><trkpt lat="42.2143034" lon="13.7774458"><ele>701.0</ele><time>2026-05-02T10:22:59.013Z</time></trkpt><trkpt lat="42.2141998" lon="13.7774945"><ele>701.0</ele><time>2026-05-02T10:23:01.014Z</time></trkpt><trkpt lat="42.214152" lon="13.7773743"><ele>701.0</ele><time>2026-05-02T10:23:03.013Z</time></trkpt><trkpt lat="42.2141656" lon="13.7772851"><ele>701.0</ele><time>2026-05-02T10:23:04.014Z</time></trkpt><trkpt lat="42.2141921" lon="13.7771786"><ele>701.0</ele><time>2026-05-02T10:23:05.014Z</time></trkpt><trkpt lat="42.2142254" lon="13.7770584"><ele>701.0</ele><time>2026-05-02T10:23:06.014Z</time></trkpt><trkpt lat="42.2142568" lon="13.7769192"><ele>701.0</ele><time>2026-05-02T10:23:07.013Z</time></trkpt><trkpt lat="42.2142929" lon="13.7767679"><ele>701.0</ele><time>2026-05-02T10:23:08.013Z</time></trkpt><trkpt lat="42.2143336" lon="13.7766036"><ele>701.0</ele><time>2026-05-02T10:23:09.014Z</time></trkpt><trkpt lat="42.2143753" lon="13.7764577"><ele>700.1666666666666</ele><time>2026-05-02T10:23:10.014Z</time></trkpt><trkpt lat="42.2144167" lon="13.7763309"><ele>699.3333333333333</ele><time>2026-05-02T10:23:11.014Z</time></trkpt><trkpt lat="42.2144564" lon="13.7762225"><ele>698.5</ele><time>2026-05-02T10:23:12.013Z</time></trkpt><trkpt lat="42.2144989" lon="13.7761281"><ele>697.6666666666666</ele><time>2026-05-02T10:23:13.013Z</time></trkpt><trkpt lat="42.2145391" lon="13.7760386"><ele>696.8333333333334</ele><time>2026-05-02T10:23:14.014Z</time></trkpt><trkpt lat="42.2145796" lon="13.7759459"><ele>696.0</ele><time>2026-05-02T10:23:15.014Z</time></trkpt><trkpt lat="42.2146244" lon="13.7758585"><ele>696.5</ele><time>2026-05-02T10:23:16.013Z</time></trkpt><trkpt lat="42.214669" lon="13.7757853"><ele>697.0</ele><time>2026-05-02T10:23:17.014Z</time></trkpt><trkpt lat="42.2147611" lon="13.7756755"><ele>697.5</ele><time>2026-05-02T10:23:19.014Z</time></trkpt><trkpt lat="42.2148236" lon="13.7755898"><ele>698.0</ele><time>2026-05-02T10:23:21.014Z</time></trkpt><trkpt lat="42.2147522" lon="13.7756245"><ele>698.5</ele><time>2026-05-02T10:23:28.014Z</time></trkpt><trkpt lat="42.2147115" lon="13.7756922"><ele>699.0</ele><time>2026-05-02T10:23:29.014Z</time></trkpt><trkpt lat="42.2146662" lon="13.7757749"><ele>698.4000000000001</ele><time>2026-05-02T10:23:30.014Z</time></trkpt><trkpt lat="42.2146123" lon="13.7758681"><ele>697.8</ele><time>2026-05-02T10:23:31.014Z</time></trkpt><trkpt lat="42.2145555" lon="13.7759723"><ele>697.2</ele><time>2026-05-02T10:23:32.014Z</time></trkpt><trkpt lat="42.2145017" lon="13.776086"><ele>696.5999999999999</ele><time>2026-05-02T10:23:33.013Z</time></trkpt><trkpt lat="42.2144584" lon="13.7761771"><ele>696.0</ele><time>2026-05-02T10:23:34.013Z</time></trkpt><trkpt lat="42.2143989" lon="13.7763018"><ele>696.0</ele><time>2026-05-02T10:23:36.013Z</time></trkpt><trkpt lat="42.2143528" lon="13.7764144"><ele>696.0</ele><time>2026-05-02T10:23:38.013Z</time></trkpt><trkpt lat="42.2142878" lon="13.7765162"><ele>696.0</ele><time>2026-05-02T10:23:40.014Z</time></trkpt><trkpt lat="42.2142101" lon="13.7766165"><ele>696.0</ele><time>2026-05-02T10:23:42.014Z</time></trkpt><trkpt lat="42.21413" lon="13.7766956"><ele>696.0</ele><time>2026-05-02T10:23:44.014Z</time></trkpt><trkpt lat="42.2140342" lon="13.7767419"><ele>695.0</ele><time>2026-05-02T10:23:46.014Z</time></trkpt><trkpt lat="42.2139195" lon="13.7767457"><ele>694.0</ele><time>2026-05-02T10:23:48.014Z</time></trkpt><trkpt lat="42.2137929" lon="13.7767519"><ele>693.0</ele><time>2026-05-02T10:23:50.014Z</time></trkpt><trkpt lat="42.2137262" lon="13.7767501"><ele>692.0</ele><time>2026-05-02T10:23:51.014Z</time></trkpt><trkpt lat="42.2136595" lon="13.7767491"><ele>691.0</ele><time>2026-05-02T10:23:52.014Z</time></trkpt><trkpt lat="42.2135924" lon="13.7767305"><ele>690.0</ele><time>2026-05-02T10:23:53.014Z</time></trkpt><trkpt lat="42.2135226" lon="13.7767037"><ele>690.0</ele><time>2026-05-02T10:23:54.014Z</time></trkpt><trkpt lat="42.2134531" lon="13.7766697"><ele>690.0</ele><time>2026-05-02T10:23:55.014Z</time></trkpt><trkpt lat="42.2133811" lon="13.7766222"><ele>690.0</ele><time>2026-05-02T10:23:56.014Z</time></trkpt><trkpt lat="42.2133127" lon="13.7765713"><ele>690.0</ele><time>2026-05-02T10:23:57.014Z</time></trkpt><trkpt lat="42.2132471" lon="13.7765173"><ele>690.0</ele><time>2026-05-02T10:23:58.014Z</time></trkpt><trkpt lat="42.213182" lon="13.776465"><ele>690.0</ele><time>2026-05-02T10:23:59.014Z</time></trkpt><trkpt lat="42.213121" lon="13.7764132"><ele>690.0</ele><time>2026-05-02T10:24:00.014Z</time></trkpt><trkpt lat="42.2130617" lon="13.776383"><ele>690.0</ele><time>2026-05-02T10:24:01.014Z</time></trkpt><trkpt lat="42.2129418" lon="13.7763724"><ele>690.0</ele><time>2026-05-02T10:24:03.014Z</time></trkpt><trkpt lat="42.2128764" lon="13.7763852"><ele>690.0</ele><time>2026-05-02T10:24:04.014Z</time></trkpt><trkpt lat="42.2128127" lon="13.7764114"><ele>690.0</ele><time>2026-05-02T10:24:05.014Z</time></trkpt><trkpt lat="42.2127518" lon="13.7764625"><ele>690.0</ele><time>2026-05-02T10:24:06.014Z</time></trkpt><trkpt lat="42.212691" lon="13.7765231"><ele>690.0</ele><time>2026-05-02T10:24:07.014Z</time></trkpt><trkpt lat="42.2126266" lon="13.7765919"><ele>690.0</ele><time>2026-05-02T10:24:08.014Z</time></trkpt><trkpt lat="42.2125607" lon="13.7766697"><ele>690.0</ele><time>2026-05-02T10:24:09.014Z</time></trkpt><trkpt lat="42.2124892" lon="13.7767559"><ele>690.0</ele><time>2026-05-02T10:24:10.013Z</time></trkpt><trkpt lat="42.2124177" lon="13.776837"><ele>690.0</ele><time>2026-05-02T10:24:11.014Z</time></trkpt><trkpt lat="42.2123468" lon="13.7769046"><ele>690.0</ele><time>2026-05-02T10:24:12.014Z</time></trkpt><trkpt lat="42.2122721" lon="13.7769642"><ele>688.6666666666666</ele><time>2026-05-02T10:24:13.014Z</time></trkpt><trkpt lat="42.212196" lon="13.7770237"><ele>687.3333333333334</ele><time>2026-05-02T10:24:14.013Z</time></trkpt><trkpt lat="42.2121176" lon="13.7770856"><ele>686.0</ele><time>2026-05-02T10:24:15.014Z</time></trkpt><trkpt lat="42.2120418" lon="13.7771486"><ele>684.6666666666667</ele><time>2026-05-02T10:24:16.014Z</time></trkpt><trkpt lat="42.2119634" lon="13.7772"><ele>683.3333333333334</ele><time>2026-05-02T10:24:17.014Z</time></trkpt><trkpt lat="42.2118776" lon="13.7772244"><ele>682.0</ele><time>2026-05-02T10:24:18.014Z</time></trkpt><trkpt lat="42.2117831" lon="13.7772179"><ele>682.0</ele><time>2026-05-02T10:24:19.014Z</time></trkpt><trkpt lat="42.2116877" lon="13.777197"><ele>682.0</ele><time>2026-05-02T10:24:20.014Z</time></trkpt><trkpt lat="42.2116003" lon="13.7771674"><ele>682.0</ele><time>2026-05-02T10:24:21.014Z</time></trkpt><trkpt lat="42.2115171" lon="13.7771238"><ele>682.0</ele><time>2026-05-02T10:24:22.014Z</time></trkpt><trkpt lat="42.2114326" lon="13.7770618"><ele>682.0</ele><time>2026-05-02T10:24:23.014Z</time></trkpt><trkpt lat="42.2113495" lon="13.7769791"><ele>681.8</ele><time>2026-05-02T10:24:24.013Z</time></trkpt><trkpt lat="42.211268" lon="13.7768866"><ele>681.6</ele><time>2026-05-02T10:24:25.014Z</time></trkpt><trkpt lat="42.2111873" lon="13.7767953"><ele>681.4</ele><time>2026-05-02T10:24:26.014Z</time></trkpt><trkpt lat="42.2111087" lon="13.7767069"><ele>681.1999999999999</ele><time>2026-05-02T10:24:27.014Z</time></trkpt><trkpt lat="42.2110302" lon="13.7766185"><ele>681.0</ele><time>2026-05-02T10:24:28.014Z</time></trkpt><trkpt lat="42.2109544" lon="13.7765338"><ele>681.0</ele><time>2026-05-02T10:24:29.014Z</time></trkpt><trkpt lat="42.2108825" lon="13.7764483"><ele>681.0</ele><time>2026-05-02T10:24:30.014Z</time></trkpt><trkpt lat="42.2108144" lon="13.7763615"><ele>681.0</ele><time>2026-05-02T10:24:31.013Z</time></trkpt><trkpt lat="42.2107453" lon="13.7762799"><ele>681.0</ele><time>2026-05-02T10:24:32.014Z</time></trkpt><trkpt lat="42.2106673" lon="13.7762092"><ele>681.0</ele><time>2026-05-02T10:24:33.014Z</time></trkpt><trkpt lat="42.2105759" lon="13.7761447"><ele>680.5999999999999</ele><time>2026-05-02T10:24:34.014Z</time></trkpt><trkpt lat="42.2104736" lon="13.7760939"><ele>680.2</ele><time>2026-05-02T10:24:35.014Z</time></trkpt><trkpt lat="42.2103673" lon="13.7760513"><ele>679.8</ele><time>2026-05-02T10:24:36.013Z</time></trkpt><trkpt lat="42.2102611" lon="13.7760028"><ele>679.4000000000001</ele><time>2026-05-02T10:24:37.014Z</time></trkpt><trkpt lat="42.210153" lon="13.7759477"><ele>679.0</ele><time>2026-05-02T10:24:38.014Z</time></trkpt><trkpt lat="42.210042" lon="13.7758895"><ele>679.0</ele><time>2026-05-02T10:24:39.014Z</time></trkpt><trkpt lat="42.2099319" lon="13.7758363"><ele>679.0</ele><time>2026-05-02T10:24:40.014Z</time></trkpt><trkpt lat="42.2098219" lon="13.7757887"><ele>679.0</ele><time>2026-05-02T10:24:41.014Z</time></trkpt><trkpt lat="42.2097099" lon="13.775744"><ele>679.0</ele><time>2026-05-02T10:24:42.014Z</time></trkpt><trkpt lat="42.209597" lon="13.7756988"><ele>679.0</ele><time>2026-05-02T10:24:43.014Z</time></trkpt><trkpt lat="42.2094835" lon="13.7756508"><ele>679.0</ele><time>2026-05-02T10:24:44.014Z</time></trkpt><trkpt lat="42.2093709" lon="13.7756083"><ele>679.0</ele><time>2026-05-02T10:24:45.014Z</time></trkpt><trkpt lat="42.2092585" lon="13.7755719"><ele>679.0</ele><time>2026-05-02T10:24:46.014Z</time></trkpt><trkpt lat="42.209146" lon="13.7755402"><ele>679.0</ele><time>2026-05-02T10:24:47.014Z</time></trkpt><trkpt lat="42.209037" lon="13.7755184"><ele>679.0</ele><time>2026-05-02T10:24:48.014Z</time></trkpt><trkpt lat="42.2089323" lon="13.7755171"><ele>679.0</ele><time>2026-05-02T10:24:49.014Z</time></trkpt><trkpt lat="42.2088334" lon="13.775537"><ele>679.0</ele><time>2026-05-02T10:24:50.014Z</time></trkpt><trkpt lat="42.2087382" lon="13.7755697"><ele>679.0</ele><time>2026-05-02T10:24:51.014Z</time></trkpt><trkpt lat="42.2086461" lon="13.7756024"><ele>678.8333333333334</ele><time>2026-05-02T10:24:52.014Z</time></trkpt><trkpt lat="42.2085693" lon="13.7756272"><ele>678.6666666666667</ele><time>2026-05-02T10:24:53.014Z</time></trkpt><trkpt lat="42.2085049" lon="13.7756389"><ele>678.5</ele><time>2026-05-02T10:24:54.013Z</time></trkpt><trkpt lat="42.2084398" lon="13.7756305"><ele>678.3333333333334</ele><time>2026-05-02T10:24:55.014Z</time></trkpt><trkpt lat="42.2083706" lon="13.775595"><ele>678.1666666666666</ele><time>2026-05-02T10:24:56.014Z</time></trkpt><trkpt lat="42.2082949" lon="13.7755345"><ele>678.0</ele><time>2026-05-02T10:24:57.014Z</time></trkpt><trkpt lat="42.2082139" lon="13.775459"><ele>678.0</ele><time>2026-05-02T10:24:58.013Z</time></trkpt><trkpt lat="42.2081255" lon="13.7753843"><ele>678.0</ele><time>2026-05-02T10:24:59.014Z</time></trkpt><trkpt lat="42.2080308" lon="13.7753073"><ele>678.0</ele><time>2026-05-02T10:25:00.014Z</time></trkpt><trkpt lat="42.2079308" lon="13.7752218"><ele>678.0</ele><time>2026-05-02T10:25:01.014Z</time></trkpt><trkpt lat="42.2078238" lon="13.7751306"><ele>678.0</ele><time>2026-05-02T10:25:02.014Z</time></trkpt><trkpt lat="42.2077152" lon="13.7750342"><ele>678.0</ele><time>2026-05-02T10:25:03.014Z</time></trkpt><trkpt lat="42.2076139" lon="13.7749386"><ele>678.0</ele><time>2026-05-02T10:25:04.013Z</time></trkpt><trkpt lat="42.2075204" lon="13.7748462"><ele>678.0</ele><time>2026-05-02T10:25:05.014Z</time></trkpt><trkpt lat="42.2074372" lon="13.7747612"><ele>678.0</ele><time>2026-05-02T10:25:06.014Z</time></trkpt><trkpt lat="42.2073696" lon="13.7746921"><ele>678.0</ele><time>2026-05-02T10:25:07.014Z</time></trkpt><trkpt lat="42.2073188" lon="13.7746402"><ele>678.0</ele><time>2026-05-02T10:25:08.014Z</time></trkpt><trkpt lat="42.2072635" lon="13.7745855"><ele>678.0</ele><time>2026-05-02T10:25:10.014Z</time></trkpt><trkpt lat="42.2071949" lon="13.7745363"><ele>678.0</ele><time>2026-05-02T10:25:13.014Z</time></trkpt><trkpt lat="42.2070898" lon="13.7745602"><ele>678.0</ele><time>2026-05-02T10:25:15.014Z</time></trkpt><trkpt lat="42.2070199" lon="13.7745972"><ele>678.5999999999999</ele><time>2026-05-02T10:25:16.014Z</time></trkpt><trkpt lat="42.2069423" lon="13.7746418"><ele>679.1999999999999</ele><time>2026-05-02T10:25:17.013Z</time></trkpt><trkpt lat="42.2068571" lon="13.7746906"><ele>679.8</ele><time>2026-05-02T10:25:18.014Z</time></trkpt><trkpt lat="42.2067631" lon="13.7747388"><ele>680.4</ele><time>2026-05-02T10:25:19.014Z</time></trkpt><trkpt lat="42.2066612" lon="13.7747944"><ele>681.0</ele><time>2026-05-02T10:25:20.014Z</time></trkpt><trkpt lat="42.2065507" lon="13.7748538"><ele>681.0</ele><time>2026-05-02T10:25:21.014Z</time></trkpt><trkpt lat="42.2064315" lon="13.7749193"><ele>681.0</ele><time>2026-05-02T10:25:22.014Z</time></trkpt><trkpt lat="42.2063002" lon="13.7749866"><ele>681.0</ele><time>2026-05-02T10:25:23.014Z</time></trkpt><trkpt lat="42.2061654" lon="13.7750572"><ele>681.0</ele><time>2026-05-02T10:25:24.014Z</time></trkpt><trkpt lat="42.2060251" lon="13.7751383"><ele>681.0</ele><time>2026-05-02T10:25:25.014Z</time></trkpt><trkpt lat="42.2058792" lon="13.7752277"><ele>681.0</ele><time>2026-05-02T10:25:26.014Z</time></trkpt><trkpt lat="42.2057246" lon="13.7753134"><ele>681.0</ele><time>2026-05-02T10:25:27.014Z</time></trkpt><trkpt lat="42.2055669" lon="13.7754011"><ele>682.0</ele><time>2026-05-02T10:25:28.014Z</time></trkpt><trkpt lat="42.2054035" lon="13.775488"><ele>683.0</ele><time>2026-05-02T10:25:29.013Z</time></trkpt><trkpt lat="42.2052378" lon="13.7755811"><ele>684.0</ele><time>2026-05-02T10:25:30.014Z</time></trkpt><trkpt lat="42.2050712" lon="13.7756791"><ele>684.0</ele><time>2026-05-02T10:25:31.014Z</time></trkpt><trkpt lat="42.2049077" lon="13.7757752"><ele>684.0</ele><time>2026-05-02T10:25:32.014Z</time></trkpt><trkpt lat="42.2047413" lon="13.7758688"><ele>684.0</ele><time>2026-05-02T10:25:33.013Z</time></trkpt><trkpt lat="42.2045732" lon="13.7759607"><ele>684.3333333333334</ele><time>2026-05-02T10:25:34.014Z</time></trkpt><trkpt lat="42.2044056" lon="13.7760537"><ele>684.6666666666667</ele><time>2026-05-02T10:25:35.014Z</time></trkpt><trkpt lat="42.2042427" lon="13.7761501"><ele>685.0</ele><time>2026-05-02T10:25:36.014Z</time></trkpt><trkpt lat="42.2040774" lon="13.7762446"><ele>686.6666666666667</ele><time>2026-05-02T10:25:37.014Z</time></trkpt><trkpt lat="42.2039111" lon="13.7763407"><ele>688.3333333333334</ele><time>2026-05-02T10:25:38.014Z</time></trkpt><trkpt lat="42.2037471" lon="13.7764356"><ele>690.0</ele><time>2026-05-02T10:25:39.014Z</time></trkpt><trkpt lat="42.2035907" lon="13.7765253"><ele>690.0</ele><time>2026-05-02T10:25:40.014Z</time></trkpt><trkpt lat="42.2034377" lon="13.7766099"><ele>690.0</ele><time>2026-05-02T10:25:41.014Z</time></trkpt><trkpt lat="42.2032842" lon="13.7766956"><ele>690.0</ele><time>2026-05-02T10:25:42.014Z</time></trkpt><trkpt lat="42.2031295" lon="13.7767821"><ele>694.6666666666666</ele><time>2026-05-02T10:25:43.014Z</time></trkpt><trkpt lat="42.2029741" lon="13.7768662"><ele>699.3333333333333</ele><time>2026-05-02T10:25:44.014Z</time></trkpt><trkpt lat="42.2028267" lon="13.7769513"><ele>704.0</ele><time>2026-05-02T10:25:45.014Z</time></trkpt><trkpt lat="42.2026922" lon="13.7770274"><ele>704.0</ele><time>2026-05-02T10:25:46.013Z</time></trkpt><trkpt lat="42.2025694" lon="13.7770904"><ele>704.0</ele><time>2026-05-02T10:25:47.014Z</time></trkpt><trkpt lat="42.2024633" lon="13.7771603"><ele>704.0</ele><time>2026-05-02T10:25:48.013Z</time></trkpt><trkpt lat="42.2023771" lon="13.7772575"><ele>704.0</ele><time>2026-05-02T10:25:49.014Z</time></trkpt><trkpt lat="42.2023069" lon="13.7773951"><ele>703.25</ele><time>2026-05-02T10:25:50.014Z</time></trkpt><trkpt lat="42.2022554" lon="13.7775637"><ele>702.5</ele><time>2026-05-02T10:25:51.013Z</time></trkpt><trkpt lat="42.2022191" lon="13.7777569"><ele>701.75</ele><time>2026-05-02T10:25:52.013Z</time></trkpt><trkpt lat="42.2021791" lon="13.7779641"><ele>701.0</ele><time>2026-05-02T10:25:53.014Z</time></trkpt><trkpt lat="42.2021362" lon="13.7781703"><ele>701.0</ele><time>2026-05-02T10:25:54.014Z</time></trkpt><trkpt lat="42.2020922" lon="13.7783818"><ele>701.0</ele><time>2026-05-02T10:25:55.014Z</time></trkpt><trkpt lat="42.2020475" lon="13.7785994"><ele>701.0</ele><time>2026-05-02T10:25:56.014Z</time></trkpt><trkpt lat="42.2020001" lon="13.7788194"><ele>703.0</ele><time>2026-05-02T10:25:57.014Z</time></trkpt><trkpt lat="42.2019547" lon="13.7790466"><ele>705.0</ele><time>2026-05-02T10:25:58.013Z</time></trkpt><trkpt lat="42.2019048" lon="13.7792708"><ele>707.0</ele><time>2026-05-02T10:25:59.014Z</time></trkpt><trkpt lat="42.2018546" lon="13.7794964"><ele>710.0</ele><time>2026-05-02T10:26:00.014Z</time></trkpt><trkpt lat="42.2018071" lon="13.7797202"><ele>713.0</ele><time>2026-05-02T10:26:01.014Z</time></trkpt><trkpt lat="42.2017638" lon="13.7799425"><ele>716.0</ele><time>2026-05-02T10:26:02.014Z</time></trkpt><trkpt lat="42.201726" lon="13.7801635"><ele>718.0</ele><time>2026-05-02T10:26:03.014Z</time></trkpt><trkpt lat="42.2016986" lon="13.7803843"><ele>720.0</ele><time>2026-05-02T10:26:04.014Z</time></trkpt><trkpt lat="42.2016823" lon="13.7806088"><ele>722.0</ele><time>2026-05-02T10:26:05.014Z</time></trkpt><trkpt lat="42.2016765" lon="13.7808348"><ele>723.3333333333333</ele><time>2026-05-02T10:26:06.014Z</time></trkpt><trkpt lat="42.2016773" lon="13.7810629"><ele>724.6666666666666</ele><time>2026-05-02T10:26:07.014Z</time></trkpt><trkpt lat="42.201688" lon="13.7812916"><ele>726.0</ele><time>2026-05-02T10:26:08.013Z</time></trkpt><trkpt lat="42.2017047" lon="13.7815185"><ele>726.0</ele><time>2026-05-02T10:26:09.014Z</time></trkpt><trkpt lat="42.2017176" lon="13.7817434"><ele>726.0</ele><time>2026-05-02T10:26:10.014Z</time></trkpt><trkpt lat="42.2017123" lon="13.7819629"><ele>726.0</ele><time>2026-05-02T10:26:11.014Z</time></trkpt><trkpt lat="42.2016802" lon="13.7821744"><ele>728.0</ele><time>2026-05-02T10:26:12.014Z</time></trkpt><trkpt lat="42.2016248" lon="13.7823827"><ele>730.0</ele><time>2026-05-02T10:26:13.014Z</time></trkpt><trkpt lat="42.201556" lon="13.7825864"><ele>732.0</ele><time>2026-05-02T10:26:14.014Z</time></trkpt><trkpt lat="42.2014839" lon="13.7827934"><ele>732.0</ele><time>2026-05-02T10:26:15.013Z</time></trkpt><trkpt lat="42.2014079" lon="13.7829998"><ele>732.0</ele><time>2026-05-02T10:26:16.014Z</time></trkpt><trkpt lat="42.2013299" lon="13.7832064"><ele>732.0</ele><time>2026-05-02T10:26:17.013Z</time></trkpt><trkpt lat="42.2012479" lon="13.7834088"><ele>737.0</ele><time>2026-05-02T10:26:18.014Z</time></trkpt><trkpt lat="42.2011636" lon="13.7836056"><ele>742.0</ele><time>2026-05-02T10:26:19.014Z</time></trkpt><trkpt lat="42.2010787" lon="13.7837985"><ele>747.0</ele><time>2026-05-02T10:26:20.014Z</time></trkpt><trkpt lat="42.2009925" lon="13.7839855"><ele>747.0</ele><time>2026-05-02T10:26:21.013Z</time></trkpt><trkpt lat="42.2009049" lon="13.7841683"><ele>747.0</ele><time>2026-05-02T10:26:22.014Z</time></trkpt><trkpt lat="42.2008178" lon="13.7843457"><ele>747.0</ele><time>2026-05-02T10:26:23.014Z</time></trkpt><trkpt lat="42.2007273" lon="13.7845178"><ele>749.25</ele><time>2026-05-02T10:26:24.013Z</time></trkpt><trkpt lat="42.2006386" lon="13.7846721"><ele>751.5</ele><time>2026-05-02T10:26:25.014Z</time></trkpt><trkpt lat="42.2005545" lon="13.7848057"><ele>753.75</ele><time>2026-05-02T10:26:26.013Z</time></trkpt><trkpt lat="42.200478" lon="13.7849181"><ele>756.0</ele><time>2026-05-02T10:26:27.014Z</time></trkpt><trkpt lat="42.2004072" lon="13.7850274"><ele>756.0</ele><time>2026-05-02T10:26:28.014Z</time></trkpt><trkpt lat="42.2003491" lon="13.7851237"><ele>756.0</ele><time>2026-05-02T10:26:29.013Z</time></trkpt><trkpt lat="42.2002982" lon="13.7851752"><ele>756.0</ele><time>2026-05-02T10:26:30.013Z</time></trkpt><trkpt lat="42.2001894" lon="13.7851606"><ele>756.0</ele><time>2026-05-02T10:26:32.014Z</time></trkpt><trkpt lat="42.2001343" lon="13.7850256"><ele>756.0</ele><time>2026-05-02T10:26:34.014Z</time></trkpt><trkpt lat="42.2001253" lon="13.7849163"><ele>756.0</ele><time>2026-05-02T10:26:35.014Z</time></trkpt><trkpt lat="42.2001231" lon="13.7847778"><ele>756.0</ele><time>2026-05-02T10:26:36.014Z</time></trkpt><trkpt lat="42.2000999" lon="13.7846234"><ele>756.0</ele><time>2026-05-02T10:26:37.013Z</time></trkpt><trkpt lat="42.200057" lon="13.7844561"><ele>756.0</ele><time>2026-05-02T10:26:38.014Z</time></trkpt><trkpt lat="42.1999974" lon="13.7842802"><ele>755.6666666666666</ele><time>2026-05-02T10:26:39.014Z</time></trkpt><trkpt lat="42.1999241" lon="13.7840989"><ele>755.3333333333333</ele><time>2026-05-02T10:26:40.014Z</time></trkpt><trkpt lat="42.1998498" lon="13.7839111"><ele>755.0</ele><time>2026-05-02T10:26:41.014Z</time></trkpt><trkpt lat="42.1997987" lon="13.7837305"><ele>758.25</ele><time>2026-05-02T10:26:42.013Z</time></trkpt><trkpt lat="42.1997763" lon="13.7835584"><ele>761.5</ele><time>2026-05-02T10:26:43.014Z</time></trkpt><trkpt lat="42.1997646" lon="13.7834046"><ele>764.75</ele><time>2026-05-02T10:26:44.014Z</time></trkpt><trkpt lat="42.1997308" lon="13.7832666"><ele>768.0</ele><time>2026-05-02T10:26:45.014Z</time></trkpt><trkpt lat="42.1996626" lon="13.7831454"><ele>768.0</ele><time>2026-05-02T10:26:46.014Z</time></trkpt><trkpt lat="42.1995652" lon="13.7830436"><ele>768.0</ele><time>2026-05-02T10:26:47.014Z</time></trkpt><trkpt lat="42.1994472" lon="13.7829632"><ele>768.0</ele><time>2026-05-02T10:26:48.013Z</time></trkpt><trkpt lat="42.1993211" lon="13.7828951"><ele>768.0</ele><time>2026-05-02T10:26:49.014Z</time></trkpt><trkpt lat="42.1991791" lon="13.7828793"><ele>768.0</ele><time>2026-05-02T10:26:50.014Z</time></trkpt><trkpt lat="42.1990279" lon="13.7828851"><ele>768.0</ele><time>2026-05-02T10:26:51.014Z</time></trkpt><trkpt lat="42.1988752" lon="13.7828711"><ele>768.0</ele><time>2026-05-02T10:26:52.014Z</time></trkpt><trkpt lat="42.1987217" lon="13.782828"><ele>769.6666666666667</ele><time>2026-05-02T10:26:53.014Z</time></trkpt><trkpt lat="42.1985673" lon="13.7827698"><ele>771.3333333333334</ele><time>2026-05-02T10:26:54.014Z</time></trkpt><trkpt lat="42.1984048" lon="13.7827248"><ele>773.0</ele><time>2026-05-02T10:26:55.014Z</time></trkpt><trkpt lat="42.1982365" lon="13.7827065"><ele>774.3333333333334</ele><time>2026-05-02T10:26:56.014Z</time></trkpt><trkpt lat="42.1980649" lon="13.782711"><ele>775.6666666666667</ele><time>2026-05-02T10:26:57.014Z</time></trkpt><trkpt lat="42.1978944" lon="13.7827216"><ele>777.0</ele><time>2026-05-02T10:26:58.014Z</time></trkpt><trkpt lat="42.1977267" lon="13.7827374"><ele>777.0</ele><time>2026-05-02T10:26:59.014Z</time></trkpt><trkpt lat="42.1975737" lon="13.7827502"><ele>777.0</ele><time>2026-05-02T10:27:00.014Z</time></trkpt><trkpt lat="42.1974224" lon="13.782735"><ele>777.0</ele><time>2026-05-02T10:27:01.014Z</time></trkpt><trkpt lat="42.1972745" lon="13.7826983"><ele>776.25</ele><time>2026-05-02T10:27:02.014Z</time></trkpt><trkpt lat="42.1971442" lon="13.7826292"><ele>775.5</ele><time>2026-05-02T10:27:03.014Z</time></trkpt><trkpt lat="42.1970292" lon="13.7825269"><ele>774.75</ele><time>2026-05-02T10:27:04.014Z</time></trkpt><trkpt lat="42.196933" lon="13.7823913"><ele>774.0</ele><time>2026-05-02T10:27:05.014Z</time></trkpt><trkpt lat="42.1968459" lon="13.7822564"><ele>774.0</ele><time>2026-05-02T10:27:06.014Z</time></trkpt><trkpt lat="42.196742" lon="13.7821439"><ele>774.0</ele><time>2026-05-02T10:27:07.014Z</time></trkpt><trkpt lat="42.1966153" lon="13.7820633"><ele>774.0</ele><time>2026-05-02T10:27:08.014Z</time></trkpt><trkpt lat="42.1964725" lon="13.7820071"><ele>774.0</ele><time>2026-05-02T10:27:09.014Z</time></trkpt><trkpt lat="42.1963167" lon="13.7819713"><ele>778.0</ele><time>2026-05-02T10:27:10.014Z</time></trkpt><trkpt lat="42.1961597" lon="13.7819317"><ele>782.0</ele><time>2026-05-02T10:27:11.014Z</time></trkpt><trkpt lat="42.1959961" lon="13.7818947"><ele>786.0</ele><time>2026-05-02T10:27:12.014Z</time></trkpt><trkpt lat="42.1958295" lon="13.7818613"><ele>784.3333333333333</ele><time>2026-05-02T10:27:13.014Z</time></trkpt><trkpt lat="42.1956602" lon="13.7818206"><ele>782.6666666666666</ele><time>2026-05-02T10:27:14.014Z</time></trkpt><trkpt lat="42.1954916" lon="13.7817816"><ele>781.0</ele><time>2026-05-02T10:27:15.013Z</time></trkpt><trkpt lat="42.1953223" lon="13.7817468"><ele>781.0</ele><time>2026-05-02T10:27:16.014Z</time></trkpt><trkpt lat="42.1951632" lon="13.7817233"><ele>781.0</ele><time>2026-05-02T10:27:17.014Z</time></trkpt><trkpt lat="42.1950041" lon="13.7817156"><ele>781.0</ele><time>2026-05-02T10:27:18.014Z</time></trkpt><trkpt lat="42.1948424" lon="13.7817254"><ele>783.0</ele><time>2026-05-02T10:27:19.014Z</time></trkpt><trkpt lat="42.1946815" lon="13.7817466"><ele>785.0</ele><time>2026-05-02T10:27:20.014Z</time></trkpt><trkpt lat="42.1945315" lon="13.7817402"><ele>787.0</ele><time>2026-05-02T10:27:21.014Z</time></trkpt><trkpt lat="42.1943827" lon="13.7817011"><ele>787.0</ele><time>2026-05-02T10:27:22.014Z</time></trkpt><trkpt lat="42.1942496" lon="13.7816314"><ele>787.0</ele><time>2026-05-02T10:27:23.014Z</time></trkpt><trkpt lat="42.1941451" lon="13.7815293"><ele>787.0</ele><time>2026-05-02T10:27:24.014Z</time></trkpt><trkpt lat="42.1940667" lon="13.7813938"><ele>787.0</ele><time>2026-05-02T10:27:25.014Z</time></trkpt><trkpt lat="42.1940153" lon="13.7812257"><ele>791.6666666666666</ele><time>2026-05-02T10:27:26.014Z</time></trkpt><trkpt lat="42.1939865" lon="13.7810253"><ele>796.3333333333333</ele><time>2026-05-02T10:27:27.014Z</time></trkpt><trkpt lat="42.1939703" lon="13.7808021"><ele>801.0</ele><time>2026-05-02T10:27:28.013Z</time></trkpt><trkpt lat="42.1939689" lon="13.7805605"><ele>802.3333333333333</ele><time>2026-05-02T10:27:29.014Z</time></trkpt><trkpt lat="42.1939919" lon="13.7803075"><ele>803.6666666666666</ele><time>2026-05-02T10:27:30.013Z</time></trkpt><trkpt lat="42.1940358" lon="13.7800491"><ele>805.0</ele><time>2026-05-02T10:27:31.014Z</time></trkpt><trkpt lat="42.1940807" lon="13.7798095"><ele>802.0</ele><time>2026-05-02T10:27:32.014Z</time></trkpt><trkpt lat="42.1941241" lon="13.7795826"><ele>799.0</ele><time>2026-05-02T10:27:33.014Z</time></trkpt><trkpt lat="42.194159" lon="13.7793599"><ele>796.0</ele><time>2026-05-02T10:27:34.014Z</time></trkpt><trkpt lat="42.1941675" lon="13.7791326"><ele>796.0</ele><time>2026-05-02T10:27:35.013Z</time></trkpt><trkpt lat="42.1941481" lon="13.7788991"><ele>796.0</ele><time>2026-05-02T10:27:36.014Z</time></trkpt><trkpt lat="42.1941212" lon="13.7786569"><ele>796.0</ele><time>2026-05-02T10:27:37.014Z</time></trkpt><trkpt lat="42.1941152" lon="13.7784078"><ele>799.0</ele><time>2026-05-02T10:27:38.014Z</time></trkpt><trkpt lat="42.1941278" lon="13.7781547"><ele>802.0</ele><time>2026-05-02T10:27:39.014Z</time></trkpt><trkpt lat="42.1941493" lon="13.7779014"><ele>805.0</ele><time>2026-05-02T10:27:40.014Z</time></trkpt><trkpt lat="42.19418" lon="13.7776464"><ele>808.3333333333333</ele><time>2026-05-02T10:27:41.014Z</time></trkpt><trkpt lat="42.1942227" lon="13.7773894"><ele>811.6666666666667</ele><time>2026-05-02T10:27:42.013Z</time></trkpt><trkpt lat="42.1942778" lon="13.777134"><ele>815.0</ele><time>2026-05-02T10:27:43.014Z</time></trkpt><trkpt lat="42.1943531" lon="13.7768885"><ele>817.6666666666667</ele><time>2026-05-02T10:27:44.014Z</time></trkpt><trkpt lat="42.194447" lon="13.7766557"><ele>820.3333333333333</ele><time>2026-05-02T10:27:45.013Z</time></trkpt><trkpt lat="42.1945482" lon="13.7764277"><ele>823.0</ele><time>2026-05-02T10:27:46.014Z</time></trkpt><trkpt lat="42.1946363" lon="13.7761971"><ele>820.3333333333333</ele><time>2026-05-02T10:27:47.013Z</time></trkpt><trkpt lat="42.1947048" lon="13.7759839"><ele>817.6666666666667</ele><time>2026-05-02T10:27:48.014Z</time></trkpt><trkpt lat="42.1947815" lon="13.7757773"><ele>815.0</ele><time>2026-05-02T10:27:49.014Z</time></trkpt><trkpt lat="42.1948842" lon="13.7755911"><ele>815.0</ele><time>2026-05-02T10:27:50.013Z</time></trkpt><trkpt lat="42.195005" lon="13.7754188"><ele>815.0</ele><time>2026-05-02T10:27:51.014Z</time></trkpt><trkpt lat="42.1951287" lon="13.7752427"><ele>815.0</ele><time>2026-05-02T10:27:52.014Z</time></trkpt><trkpt lat="42.1952482" lon="13.7750566"><ele>818.6666666666667</ele><time>2026-05-02T10:27:53.013Z</time></trkpt><trkpt lat="42.195363" lon="13.774862"><ele>822.3333333333333</ele><time>2026-05-02T10:27:54.014Z</time></trkpt><trkpt lat="42.1954772" lon="13.7746605"><ele>826.0</ele><time>2026-05-02T10:27:55.014Z</time></trkpt><trkpt lat="42.1955922" lon="13.7744615"><ele>827.0</ele><time>2026-05-02T10:27:56.013Z</time></trkpt><trkpt lat="42.1956944" lon="13.7742831"><ele>828.0</ele><time>2026-05-02T10:27:57.014Z</time></trkpt><trkpt lat="42.1957878" lon="13.7741211"><ele>829.0</ele><time>2026-05-02T10:27:58.014Z</time></trkpt><trkpt lat="42.1958723" lon="13.7739761"><ele>829.0</ele><time>2026-05-02T10:27:59.014Z</time></trkpt><trkpt lat="42.1959539" lon="13.7738314"><ele>829.0</ele><time>2026-05-02T10:28:00.014Z</time></trkpt><trkpt lat="42.1960118" lon="13.7736606"><ele>829.0</ele><time>2026-05-02T10:28:01.014Z</time></trkpt><trkpt lat="42.1960415" lon="13.7734586"><ele>829.0</ele><time>2026-05-02T10:28:02.014Z</time></trkpt><trkpt lat="42.1960428" lon="13.7732347"><ele>832.6666666666666</ele><time>2026-05-02T10:28:03.014Z</time></trkpt><trkpt lat="42.1960399" lon="13.7730018"><ele>836.3333333333333</ele><time>2026-05-02T10:28:04.014Z</time></trkpt><trkpt lat="42.1960512" lon="13.7727646"><ele>840.0</ele><time>2026-05-02T10:28:05.013Z</time></trkpt><trkpt lat="42.1960732" lon="13.7725207"><ele>841.0</ele><time>2026-05-02T10:28:06.014Z</time></trkpt><trkpt lat="42.1961081" lon="13.7722825"><ele>842.0</ele><time>2026-05-02T10:28:07.014Z</time></trkpt><trkpt lat="42.1961314" lon="13.7720553"><ele>843.0</ele><time>2026-05-02T10:28:08.014Z</time></trkpt><trkpt lat="42.196134" lon="13.7718534"><ele>843.0</ele><time>2026-05-02T10:28:09.014Z</time></trkpt><trkpt lat="42.1961202" lon="13.7716915"><ele>843.0</ele><time>2026-05-02T10:28:10.014Z</time></trkpt><trkpt lat="42.1960787" lon="13.7715679"><ele>843.0</ele><time>2026-05-02T10:28:11.014Z</time></trkpt><trkpt lat="42.1959994" lon="13.7714744"><ele>843.0</ele><time>2026-05-02T10:28:12.013Z</time></trkpt><trkpt lat="42.1958915" lon="13.7714057"><ele>843.0</ele><time>2026-05-02T10:28:13.014Z</time></trkpt><trkpt lat="42.1957609" lon="13.7713675"><ele>845.75</ele><time>2026-05-02T10:28:14.014Z</time></trkpt><trkpt lat="42.195611" lon="13.7713618"><ele>848.5</ele><time>2026-05-02T10:28:15.014Z</time></trkpt><trkpt lat="42.1954564" lon="13.7713724"><ele>851.25</ele><time>2026-05-02T10:28:16.014Z</time></trkpt><trkpt lat="42.195322" lon="13.7713846"><ele>854.0</ele><time>2026-05-02T10:28:17.014Z</time></trkpt><trkpt lat="42.1951875" lon="13.7713785"><ele>854.0</ele><time>2026-05-02T10:28:18.014Z</time></trkpt><trkpt lat="42.1950693" lon="13.7713304"><ele>854.0</ele><time>2026-05-02T10:28:19.014Z</time></trkpt><trkpt lat="42.1949836" lon="13.7712362"><ele>854.0</ele><time>2026-05-02T10:28:20.014Z</time></trkpt><trkpt lat="42.1949323" lon="13.7711126"><ele>854.0</ele><time>2026-05-02T10:28:21.014Z</time></trkpt><trkpt lat="42.1949062" lon="13.7709566"><ele>853.0</ele><time>2026-05-02T10:28:22.014Z</time></trkpt><trkpt lat="42.1948854" lon="13.7707845"><ele>852.0</ele><time>2026-05-02T10:28:23.014Z</time></trkpt><trkpt lat="42.1948525" lon="13.7705911"><ele>851.0</ele><time>2026-05-02T10:28:24.014Z</time></trkpt><trkpt lat="42.194795" lon="13.770394"><ele>850.0</ele><time>2026-05-02T10:28:25.013Z</time></trkpt><trkpt lat="42.1947167" lon="13.7701983"><ele>852.75</ele><time>2026-05-02T10:28:26.014Z</time></trkpt><trkpt lat="42.1946366" lon="13.770015"><ele>855.5</ele><time>2026-05-02T10:28:27.014Z</time></trkpt><trkpt lat="42.1945693" lon="13.7698569"><ele>858.25</ele><time>2026-05-02T10:28:28.014Z</time></trkpt><trkpt lat="42.1945006" lon="13.769732"><ele>861.0</ele><time>2026-05-02T10:28:29.014Z</time></trkpt><trkpt lat="42.1944122" lon="13.7696397"><ele>861.0</ele><time>2026-05-02T10:28:30.014Z</time></trkpt><trkpt lat="42.1942989" lon="13.7695853"><ele>861.0</ele><time>2026-05-02T10:28:31.013Z</time></trkpt><trkpt lat="42.1941637" lon="13.769584"><ele>861.0</ele><time>2026-05-02T10:28:32.014Z</time></trkpt><trkpt lat="42.1940085" lon="13.7696179"><ele>861.0</ele><time>2026-05-02T10:28:33.014Z</time></trkpt><trkpt lat="42.1938351" lon="13.7696537"><ele>864.3333333333333</ele><time>2026-05-02T10:28:34.014Z</time></trkpt><trkpt lat="42.1936509" lon="13.7696558"><ele>867.6666666666666</ele><time>2026-05-02T10:28:35.014Z</time></trkpt><trkpt lat="42.1934644" lon="13.7696309"><ele>871.0</ele><time>2026-05-02T10:28:36.014Z</time></trkpt><trkpt lat="42.1932725" lon="13.7696065"><ele>872.0</ele><time>2026-05-02T10:28:37.014Z</time></trkpt><trkpt lat="42.1930731" lon="13.7695975"><ele>873.0</ele><time>2026-05-02T10:28:38.014Z</time></trkpt><trkpt lat="42.192872" lon="13.7695929"><ele>874.0</ele><time>2026-05-02T10:28:39.014Z</time></trkpt><trkpt lat="42.1926708" lon="13.7695725"><ele>874.0</ele><time>2026-05-02T10:28:40.014Z</time></trkpt><trkpt lat="42.1924838" lon="13.7695299"><ele>874.0</ele><time>2026-05-02T10:28:41.014Z</time></trkpt><trkpt lat="42.1923186" lon="13.7694766"><ele>874.0</ele><time>2026-05-02T10:28:42.014Z</time></trkpt><trkpt lat="42.1921584" lon="13.7694307"><ele>873.6666666666666</ele><time>2026-05-02T10:28:43.014Z</time></trkpt><trkpt lat="42.191987" lon="13.769411"><ele>873.3333333333333</ele><time>2026-05-02T10:28:44.013Z</time></trkpt><trkpt lat="42.1918099" lon="13.7694076"><ele>873.0</ele><time>2026-05-02T10:28:45.014Z</time></trkpt><trkpt lat="42.1916536" lon="13.7693988"><ele>873.0</ele><time>2026-05-02T10:28:46.014Z</time></trkpt><trkpt lat="42.1915155" lon="13.7693805"><ele>873.0</ele><time>2026-05-02T10:28:47.014Z</time></trkpt><trkpt lat="42.1913945" lon="13.7693433"><ele>873.0</ele><time>2026-05-02T10:28:48.014Z</time></trkpt><trkpt lat="42.1912935" lon="13.7692692"><ele>873.0</ele><time>2026-05-02T10:28:49.014Z</time></trkpt><trkpt lat="42.1912052" lon="13.7691635"><ele>872.8</ele><time>2026-05-02T10:28:50.014Z</time></trkpt><trkpt lat="42.1911286" lon="13.7690384"><ele>872.5999999999999</ele><time>2026-05-02T10:28:51.014Z</time></trkpt><trkpt lat="42.19106" lon="13.768927"><ele>872.4000000000001</ele><time>2026-05-02T10:28:52.014Z</time></trkpt><trkpt lat="42.1909968" lon="13.7688471"><ele>872.2</ele><time>2026-05-02T10:28:53.014Z</time></trkpt><trkpt lat="42.1909423" lon="13.7687957"><ele>872.0</ele><time>2026-05-02T10:28:54.014Z</time></trkpt><trkpt lat="42.19087" lon="13.768712"><ele>872.0000000000001</ele><time>2026-05-02T10:28:56.013Z</time></trkpt><trkpt lat="42.1908742" lon="13.7686132"><ele>872.0</ele><time>2026-05-02T10:28:58.014Z</time></trkpt><trkpt lat="42.1909246" lon="13.7685592"><ele>872.0</ele><time>2026-05-02T10:29:00.014Z</time></trkpt><trkpt lat="42.191025" lon="13.7685108"><ele>872.0</ele><time>2026-05-02T10:29:02.014Z</time></trkpt><trkpt lat="42.1910793" lon="13.7684655"><ele>872.0000000000001</ele><time>2026-05-02T10:29:03.014Z</time></trkpt><trkpt lat="42.1911353" lon="13.7683988"><ele>872.0</ele><time>2026-05-02T10:29:04.014Z</time></trkpt><trkpt lat="42.1911846" lon="13.7683155"><ele>872.1666666666667</ele><time>2026-05-02T10:29:05.014Z</time></trkpt><trkpt lat="42.1912364" lon="13.7682318"><ele>872.3333333333334</ele><time>2026-05-02T10:29:06.014Z</time></trkpt><trkpt lat="42.1912878" lon="13.7681463"><ele>872.5</ele><time>2026-05-02T10:29:07.014Z</time></trkpt><trkpt lat="42.191343" lon="13.7680564"><ele>872.6666666666667</ele><time>2026-05-02T10:29:08.014Z</time></trkpt><trkpt lat="42.1914016" lon="13.7679668"><ele>872.8333333333334</ele><time>2026-05-02T10:29:09.014Z</time></trkpt><trkpt lat="42.1914604" lon="13.7678828"><ele>873.0</ele><time>2026-05-02T10:29:10.014Z</time></trkpt><trkpt lat="42.1915194" lon="13.7678139"><ele>872.9999999999999</ele><time>2026-05-02T10:29:11.014Z</time></trkpt><trkpt lat="42.1915761" lon="13.7677548"><ele>873.0</ele><time>2026-05-02T10:29:12.013Z</time></trkpt><trkpt lat="42.1916315" lon="13.7677008"><ele>873.0</ele><time>2026-05-02T10:29:13.013Z</time></trkpt><trkpt lat="42.1916849" lon="13.7676543"><ele>873.0</ele><time>2026-05-02T10:29:14.014Z</time></trkpt><trkpt lat="42.1917365" lon="13.7675941"><ele>873.0</ele><time>2026-05-02T10:29:15.014Z</time></trkpt><trkpt lat="42.1917835" lon="13.7675212"><ele>872.9999999999999</ele><time>2026-05-02T10:29:16.014Z</time></trkpt><trkpt lat="42.1918263" lon="13.7674364"><ele>873.0</ele><time>2026-05-02T10:29:17.013Z</time></trkpt><trkpt lat="42.191865" lon="13.7673503"><ele>875.5</ele><time>2026-05-02T10:29:18.014Z</time></trkpt><trkpt lat="42.1919024" lon="13.7672649"><ele>878.0</ele><time>2026-05-02T10:29:19.014Z</time></trkpt><trkpt lat="42.1919373" lon="13.7671831"><ele>880.5</ele><time>2026-05-02T10:29:20.014Z</time></trkpt><trkpt lat="42.1919779" lon="13.7670211"><ele>883.0</ele><time>2026-05-02T10:29:22.014Z</time></trkpt><trkpt lat="42.1920011" lon="13.7669349"><ele>885.5</ele><time>2026-05-02T10:29:23.014Z</time></trkpt><trkpt lat="42.1920305" lon="13.7668521"><ele>888.0</ele><time>2026-05-02T10:29:24.014Z</time></trkpt><trkpt lat="42.1920658" lon="13.7667697"><ele>889.0</ele><time>2026-05-02T10:29:25.014Z</time></trkpt><trkpt lat="42.1921037" lon="13.7666801"><ele>890.0</ele><time>2026-05-02T10:29:26.013Z</time></trkpt><trkpt lat="42.1921446" lon="13.7665975"><ele>891.0</ele><time>2026-05-02T10:29:27.014Z</time></trkpt><trkpt lat="42.1921884" lon="13.7665148"><ele>892.0</ele><time>2026-05-02T10:29:28.014Z</time></trkpt><trkpt lat="42.1922254" lon="13.7664386"><ele>893.0</ele><time>2026-05-02T10:29:29.014Z</time></trkpt><trkpt lat="42.1923055" lon="13.7663125"><ele>894.0</ele><time>2026-05-02T10:29:31.014Z</time></trkpt><trkpt lat="42.1923857" lon="13.7661938"><ele>894.0</ele><time>2026-05-02T10:29:33.014Z</time></trkpt><trkpt lat="42.1924269" lon="13.7661165"><ele>894.0</ele><time>2026-05-02T10:29:34.014Z</time></trkpt><trkpt lat="42.1924765" lon="13.7660344"><ele>894.0</ele><time>2026-05-02T10:29:35.014Z</time></trkpt><trkpt lat="42.192534" lon="13.7659423"><ele>894.0</ele><time>2026-05-02T10:29:36.014Z</time></trkpt><trkpt lat="42.1925986" lon="13.7658441"><ele>894.0</ele><time>2026-05-02T10:29:37.013Z</time></trkpt><trkpt lat="42.1926702" lon="13.7657447"><ele>894.0</ele><time>2026-05-02T10:29:38.013Z</time></trkpt><trkpt lat="42.192746" lon="13.7656485"><ele>896.4000000000001</ele><time>2026-05-02T10:29:39.014Z</time></trkpt><trkpt lat="42.1928173" lon="13.7655504"><ele>898.8000000000001</ele><time>2026-05-02T10:29:40.014Z</time></trkpt><trkpt lat="42.1928867" lon="13.7654535"><ele>901.1999999999999</ele><time>2026-05-02T10:29:41.014Z</time></trkpt><trkpt lat="42.1929582" lon="13.7653567"><ele>903.5999999999999</ele><time>2026-05-02T10:29:42.014Z</time></trkpt><trkpt lat="42.1930323" lon="13.7652592"><ele>906.0</ele><time>2026-05-02T10:29:43.014Z</time></trkpt><trkpt lat="42.1931046" lon="13.7651641"><ele>906.5999999999999</ele><time>2026-05-02T10:29:44.014Z</time></trkpt><trkpt lat="42.1931733" lon="13.7650615"><ele>907.1999999999999</ele><time>2026-05-02T10:29:45.014Z</time></trkpt><trkpt lat="42.1932355" lon="13.7649543"><ele>907.8000000000001</ele><time>2026-05-02T10:29:46.014Z</time></trkpt><trkpt lat="42.1932931" lon="13.7648554"><ele>908.4000000000001</ele><time>2026-05-02T10:29:47.014Z</time></trkpt><trkpt lat="42.1933548" lon="13.7647622"><ele>909.0</ele><time>2026-05-02T10:29:48.014Z</time></trkpt><trkpt lat="42.193421" lon="13.7646766"><ele>909.0</ele><time>2026-05-02T10:29:49.014Z</time></trkpt><trkpt lat="42.1934932" lon="13.7645975"><ele>909.0</ele><time>2026-05-02T10:29:50.014Z</time></trkpt><trkpt lat="42.1935647" lon="13.7645246"><ele>909.0</ele><time>2026-05-02T10:29:51.013Z</time></trkpt><trkpt lat="42.1936372" lon="13.7644674"><ele>909.0</ele><time>2026-05-02T10:29:52.014Z</time></trkpt><trkpt lat="42.193719" lon="13.7644275"><ele>909.0</ele><time>2026-05-02T10:29:53.014Z</time></trkpt><trkpt lat="42.1938032" lon="13.7643976"><ele>909.0</ele><time>2026-05-02T10:29:54.014Z</time></trkpt><trkpt lat="42.1938822" lon="13.7643614"><ele>909.8000000000001</ele><time>2026-05-02T10:29:55.014Z</time></trkpt><trkpt lat="42.193952" lon="13.7643061"><ele>910.6000000000001</ele><time>2026-05-02T10:29:56.014Z</time></trkpt><trkpt lat="42.1940121" lon="13.7642213"><ele>911.4</ele><time>2026-05-02T10:29:57.014Z</time></trkpt><trkpt lat="42.1940652" lon="13.7641063"><ele>912.2</ele><time>2026-05-02T10:29:58.014Z</time></trkpt><trkpt lat="42.1941156" lon="13.7639796"><ele>913.0</ele><time>2026-05-02T10:29:59.014Z</time></trkpt><trkpt lat="42.1941652" lon="13.7638564"><ele>913.0</ele><time>2026-05-02T10:30:00.014Z</time></trkpt><trkpt lat="42.1942112" lon="13.7637352"><ele>913.0</ele><time>2026-05-02T10:30:01.013Z</time></trkpt><trkpt lat="42.1942557" lon="13.7636242"><ele>913.0</ele><time>2026-05-02T10:30:02.014Z</time></trkpt><trkpt lat="42.194306" lon="13.7635225"><ele>913.0</ele><time>2026-05-02T10:30:03.014Z</time></trkpt><trkpt lat="42.1943693" lon="13.7634243"><ele>913.0</ele><time>2026-05-02T10:30:04.014Z</time></trkpt><trkpt lat="42.1944421" lon="13.7633291"><ele>915.4</ele><time>2026-05-02T10:30:05.014Z</time></trkpt><trkpt lat="42.1945149" lon="13.763226"><ele>917.8</ele><time>2026-05-02T10:30:06.014Z</time></trkpt><trkpt lat="42.1945816" lon="13.7631223"><ele>920.2</ele><time>2026-05-02T10:30:07.014Z</time></trkpt><trkpt lat="42.1946439" lon="13.7630316"><ele>922.6</ele><time>2026-05-02T10:30:08.014Z</time></trkpt><trkpt lat="42.1947068" lon="13.7629492"><ele>925.0</ele><time>2026-05-02T10:30:09.014Z</time></trkpt><trkpt lat="42.1947746" lon="13.7628789"><ele>924.4</ele><time>2026-05-02T10:30:10.014Z</time></trkpt><trkpt lat="42.1948532" lon="13.7628233"><ele>923.8</ele><time>2026-05-02T10:30:11.014Z</time></trkpt><trkpt lat="42.1949404" lon="13.7627718"><ele>923.2</ele><time>2026-05-02T10:30:12.014Z</time></trkpt><trkpt lat="42.1950276" lon="13.7627243"><ele>922.6</ele><time>2026-05-02T10:30:13.013Z</time></trkpt><trkpt lat="42.1951145" lon="13.7626855"><ele>922.0</ele><time>2026-05-02T10:30:14.014Z</time></trkpt><trkpt lat="42.1952023" lon="13.7626522"><ele>922.0</ele><time>2026-05-02T10:30:15.014Z</time></trkpt><trkpt lat="42.1952894" lon="13.762614"><ele>922.0</ele><time>2026-05-02T10:30:16.013Z</time></trkpt><trkpt lat="42.1953727" lon="13.7625584"><ele>922.0</ele><time>2026-05-02T10:30:17.014Z</time></trkpt><trkpt lat="42.1954487" lon="13.762481"><ele>922.0</ele><time>2026-05-02T10:30:18.014Z</time></trkpt><trkpt lat="42.1955191" lon="13.7623798"><ele>922.0</ele><time>2026-05-02T10:30:19.014Z</time></trkpt><trkpt lat="42.1955867" lon="13.7622689"><ele>921.9999999999999</ele><time>2026-05-02T10:30:20.014Z</time></trkpt><trkpt lat="42.1956489" lon="13.7621648"><ele>922.0</ele><time>2026-05-02T10:30:21.014Z</time></trkpt><trkpt lat="42.1957016" lon="13.7620703"><ele>922.0</ele><time>2026-05-02T10:30:22.014Z</time></trkpt><trkpt lat="42.1957473" lon="13.7619788"><ele>922.0</ele><time>2026-05-02T10:30:23.014Z</time></trkpt><trkpt lat="42.1957935" lon="13.7618816"><ele>921.9999999999999</ele><time>2026-05-02T10:30:24.014Z</time></trkpt><trkpt lat="42.1958395" lon="13.7617824"><ele>922.0</ele><time>2026-05-02T10:30:25.014Z</time></trkpt><trkpt lat="42.1958797" lon="13.7616857"><ele>921.9999999999999</ele><time>2026-05-02T10:30:26.013Z</time></trkpt><trkpt lat="42.1959223" lon="13.7615893"><ele>922.0</ele><time>2026-05-02T10:30:27.014Z</time></trkpt><trkpt lat="42.195972" lon="13.7614907"><ele>922.0</ele><time>2026-05-02T10:30:28.014Z</time></trkpt><trkpt lat="42.1960206" lon="13.7614079"><ele>922.0</ele><time>2026-05-02T10:30:29.013Z</time></trkpt><trkpt lat="42.1960764" lon="13.7613206"><ele>921.9999999999999</ele><time>2026-05-02T10:30:31.014Z</time></trkpt><trkpt lat="42.1961344" lon="13.7612425"><ele>922.0</ele><time>2026-05-02T10:30:33.014Z</time></trkpt><trkpt lat="42.1961974" lon="13.7611555"><ele>923.4999999999999</ele><time>2026-05-02T10:30:35.014Z</time></trkpt><trkpt lat="42.1962762" lon="13.7610301"><ele>925.0</ele><time>2026-05-02T10:30:37.014Z</time></trkpt><trkpt lat="42.1963175" lon="13.7609598"><ele>926.5</ele><time>2026-05-02T10:30:38.014Z</time></trkpt><trkpt lat="42.1963561" lon="13.7608812"><ele>928.0</ele><time>2026-05-02T10:30:39.014Z</time></trkpt><trkpt lat="42.196395" lon="13.7608043"><ele>929.4999999999999</ele><time>2026-05-02T10:30:40.014Z</time></trkpt><trkpt lat="42.1964351" lon="13.7607248"><ele>931.0</ele><time>2026-05-02T10:30:41.014Z</time></trkpt><trkpt lat="42.1964743" lon="13.7606336"><ele>930.9999999999999</ele><time>2026-05-02T10:30:42.014Z</time></trkpt><trkpt lat="42.1965163" lon="13.7605462"><ele>931.0</ele><time>2026-05-02T10:30:43.014Z</time></trkpt><trkpt lat="42.1965661" lon="13.7604607"><ele>931.0</ele><time>2026-05-02T10:30:44.014Z</time></trkpt><trkpt lat="42.1966181" lon="13.7603738"><ele>931.0</ele><time>2026-05-02T10:30:45.014Z</time></trkpt><trkpt lat="42.1966625" lon="13.760276"><ele>930.9999999999999</ele><time>2026-05-02T10:30:46.014Z</time></trkpt><trkpt lat="42.1967033" lon="13.7601787"><ele>931.0</ele><time>2026-05-02T10:30:47.014Z</time></trkpt><trkpt lat="42.1967476" lon="13.7600829"><ele>930.9999999999999</ele><time>2026-05-02T10:30:48.014Z</time></trkpt><trkpt lat="42.196791" lon="13.7599801"><ele>931.0</ele><time>2026-05-02T10:30:49.014Z</time></trkpt><trkpt lat="42.1968335" lon="13.7598816"><ele>931.0</ele><time>2026-05-02T10:30:50.014Z</time></trkpt><trkpt lat="42.1968769" lon="13.7597871"><ele>931.0</ele><time>2026-05-02T10:30:51.014Z</time></trkpt><trkpt lat="42.1969103" lon="13.7596965"><ele>930.9999999999999</ele><time>2026-05-02T10:30:52.014Z</time></trkpt><trkpt lat="42.1969277" lon="13.7595955"><ele>931.0</ele><time>2026-05-02T10:30:53.014Z</time></trkpt><trkpt lat="42.1969377" lon="13.7594747"><ele>932.0</ele><time>2026-05-02T10:30:54.014Z</time></trkpt><trkpt lat="42.196937" lon="13.7593471"><ele>932.9999999999999</ele><time>2026-05-02T10:30:55.014Z</time></trkpt><trkpt lat="42.1969288" lon="13.7592172"><ele>933.9999999999999</ele><time>2026-05-02T10:30:56.014Z</time></trkpt><trkpt lat="42.1969168" lon="13.7590986"><ele>935.0</ele><time>2026-05-02T10:30:57.014Z</time></trkpt><trkpt lat="42.1969008" lon="13.7589793"><ele>936.0</ele><time>2026-05-02T10:30:58.014Z</time></trkpt><trkpt lat="42.1968832" lon="13.7588635"><ele>936.0</ele><time>2026-05-02T10:30:59.014Z</time></trkpt><trkpt lat="42.1968651" lon="13.7587461"><ele>936.0</ele><time>2026-05-02T10:31:00.014Z</time></trkpt><trkpt lat="42.1968493" lon="13.7586363"><ele>936.0</ele><time>2026-05-02T10:31:01.014Z</time></trkpt><trkpt lat="42.1968435" lon="13.7585364"><ele>936.0</ele><time>2026-05-02T10:31:02.014Z</time></trkpt><trkpt lat="42.1968532" lon="13.758433"><ele>936.0</ele><time>2026-05-02T10:31:03.013Z</time></trkpt><trkpt lat="42.1968748" lon="13.7583334"><ele>936.0</ele><time>2026-05-02T10:31:04.014Z</time></trkpt><trkpt lat="42.1969052" lon="13.7582353"><ele>936.3333333333334</ele><time>2026-05-02T10:31:05.013Z</time></trkpt><trkpt lat="42.1969414" lon="13.7581346"><ele>936.6666666666667</ele><time>2026-05-02T10:31:06.014Z</time></trkpt><trkpt lat="42.196978" lon="13.7580297"><ele>937.0</ele><time>2026-05-02T10:31:07.013Z</time></trkpt><trkpt lat="42.1970172" lon="13.7579299"><ele>937.3333333333334</ele><time>2026-05-02T10:31:08.014Z</time></trkpt><trkpt lat="42.1970667" lon="13.7578391"><ele>937.6666666666667</ele><time>2026-05-02T10:31:09.013Z</time></trkpt><trkpt lat="42.1971211" lon="13.757748"><ele>938.0</ele><time>2026-05-02T10:31:10.014Z</time></trkpt><trkpt lat="42.1971717" lon="13.7576589"><ele>939.3333333333334</ele><time>2026-05-02T10:31:11.014Z</time></trkpt><trkpt lat="42.1972139" lon="13.7575654"><ele>940.6666666666667</ele><time>2026-05-02T10:31:12.014Z</time></trkpt><trkpt lat="42.1972468" lon="13.7574609"><ele>942.0</ele><time>2026-05-02T10:31:13.014Z</time></trkpt><trkpt lat="42.1972629" lon="13.7573523"><ele>943.3333333333333</ele><time>2026-05-02T10:31:14.014Z</time></trkpt><trkpt lat="42.1972586" lon="13.7572402"><ele>944.6666666666666</ele><time>2026-05-02T10:31:15.014Z</time></trkpt><trkpt lat="42.1972393" lon="13.7571244"><ele>946.0</ele><time>2026-05-02T10:31:16.014Z</time></trkpt><trkpt lat="42.1972139" lon="13.7570062"><ele>945.9999999999999</ele><time>2026-05-02T10:31:17.014Z</time></trkpt><trkpt lat="42.197189" lon="13.756896"><ele>946.0</ele><time>2026-05-02T10:31:18.014Z</time></trkpt><trkpt lat="42.1971632" lon="13.7567935"><ele>946.0</ele><time>2026-05-02T10:31:19.013Z</time></trkpt><trkpt lat="42.1971443" lon="13.7566912"><ele>946.0</ele><time>2026-05-02T10:31:20.014Z</time></trkpt><trkpt lat="42.1971401" lon="13.756589"><ele>945.9999999999999</ele><time>2026-05-02T10:31:21.014Z</time></trkpt><trkpt lat="42.1971461" lon="13.7564839"><ele>946.0</ele><time>2026-05-02T10:31:22.014Z</time></trkpt><trkpt lat="42.1971537" lon="13.7563789"><ele>946.9999999999999</ele><time>2026-05-02T10:31:23.014Z</time></trkpt><trkpt lat="42.197155" lon="13.7562792"><ele>948.0</ele><time>2026-05-02T10:31:24.014Z</time></trkpt><trkpt lat="42.1971514" lon="13.7561785"><ele>949.0</ele><time>2026-05-02T10:31:25.013Z</time></trkpt><trkpt lat="42.1971469" lon="13.7560905"><ele>950.0</ele><time>2026-05-02T10:31:26.014Z</time></trkpt><trkpt lat="42.1971411" lon="13.7559971"><ele>950.9999999999999</ele><time>2026-05-02T10:31:28.013Z</time></trkpt><trkpt lat="42.197156" lon="13.7559086"><ele>952.0</ele><time>2026-05-02T10:32:50.014Z</time></trkpt><trkpt lat="42.1971534" lon="13.7557716"><ele>953.8</ele><time>2026-05-02T10:32:53.014Z</time></trkpt><trkpt lat="42.1971275" lon="13.7556348"><ele>955.6</ele><time>2026-05-02T10:32:55.014Z</time></trkpt><trkpt lat="42.1971107" lon="13.7554982"><ele>957.3999999999999</ele><time>2026-05-02T10:32:57.014Z</time></trkpt><trkpt lat="42.1970903" lon="13.7553709"><ele>959.1999999999999</ele><time>2026-05-02T10:32:59.013Z</time></trkpt><trkpt lat="42.1970696" lon="13.7552643"><ele>961.0</ele><time>2026-05-02T10:33:01.014Z</time></trkpt><trkpt lat="42.1970445" lon="13.7551629"><ele>963.0</ele><time>2026-05-02T10:33:03.013Z</time></trkpt><trkpt lat="42.1970168" lon="13.755068"><ele>964.9999999999999</ele><time>2026-05-02T10:33:05.013Z</time></trkpt><trkpt lat="42.1969599" lon="13.754927"><ele>966.9999999999999</ele><time>2026-05-02T10:33:08.014Z</time></trkpt><trkpt lat="42.196948" lon="13.7547804"><ele>969.0</ele><time>2026-05-02T10:33:10.014Z</time></trkpt><trkpt lat="42.1969308" lon="13.7546597"><ele>971.0</ele><time>2026-05-02T10:33:12.014Z</time></trkpt><trkpt lat="42.1969132" lon="13.754553"><ele>971.0000000000001</ele><time>2026-05-02T10:33:14.014Z</time></trkpt><trkpt lat="42.1969126" lon="13.7544486"><ele>971.0</ele><time>2026-05-02T10:33:16.014Z</time></trkpt><trkpt lat="42.1968998" lon="13.7543588"><ele>971.0</ele><time>2026-05-02T10:33:18.014Z</time></trkpt><trkpt lat="42.1968638" lon="13.7542392"><ele>971.0</ele><time>2026-05-02T10:33:21.014Z</time></trkpt><trkpt lat="42.1968404" lon="13.7541151"><ele>971.0000000000001</ele><time>2026-05-02T10:33:23.014Z</time></trkpt><trkpt lat="42.1967689" lon="13.7540139"><ele>971.0</ele><time>2026-05-02T10:33:25.014Z</time></trkpt><trkpt lat="42.1966933" lon="13.7539508"><ele>973.1999999999999</ele><time>2026-05-02T10:33:27.014Z</time></trkpt><trkpt lat="42.1966222" lon="13.7539007"><ele>975.3999999999999</ele><time>2026-05-02T10:33:29.014Z</time></trkpt><trkpt lat="42.1965658" lon="13.7537935"><ele>977.6</ele><time>2026-05-02T10:33:31.013Z</time></trkpt><trkpt lat="42.1965218" lon="13.7536784"><ele>979.8</ele><time>2026-05-02T10:33:33.014Z</time></trkpt><trkpt lat="42.1965115" lon="13.7535549"><ele>982.0</ele><time>2026-05-02T10:33:35.014Z</time></trkpt><trkpt lat="42.19654" lon="13.7534083"><ele>983.5714285714286</ele><time>2026-05-02T10:33:37.014Z</time></trkpt><trkpt lat="42.1965684" lon="13.7533229"><ele>985.1428571428571</ele><time>2026-05-02T10:33:38.014Z</time></trkpt><trkpt lat="42.1965985" lon="13.7532347"><ele>986.7142857142857</ele><time>2026-05-02T10:33:39.014Z</time></trkpt><trkpt lat="42.1966344" lon="13.7531578"><ele>988.2857142857142</ele><time>2026-05-02T10:33:40.014Z</time></trkpt><trkpt lat="42.1966839" lon="13.7531005"><ele>989.8571428571429</ele><time>2026-05-02T10:33:41.014Z</time></trkpt><trkpt lat="42.1967484" lon="13.7530634"><ele>991.4285714285713</ele><time>2026-05-02T10:33:42.013Z</time></trkpt><trkpt lat="42.1968189" lon="13.7530373"><ele>993.0</ele><time>2026-05-02T10:33:43.014Z</time></trkpt><trkpt lat="42.1968857" lon="13.7530155"><ele>993.0</ele><time>2026-05-02T10:33:44.013Z</time></trkpt><trkpt lat="42.1969974" lon="13.7529473"><ele>993.0</ele><time>2026-05-02T10:33:46.014Z</time></trkpt><trkpt lat="42.1970526" lon="13.7528905"><ele>993.0</ele><time>2026-05-02T10:33:47.014Z</time></trkpt><trkpt lat="42.197111" lon="13.7528255"><ele>993.0</ele><time>2026-05-02T10:33:48.014Z</time></trkpt><trkpt lat="42.1971665" lon="13.7527445"><ele>993.0</ele><time>2026-05-02T10:33:49.014Z</time></trkpt><trkpt lat="42.197215" lon="13.7526511"><ele>993.0</ele><time>2026-05-02T10:33:50.014Z</time></trkpt><trkpt lat="42.1972591" lon="13.7525552"><ele>994.0</ele><time>2026-05-02T10:33:51.013Z</time></trkpt><trkpt lat="42.1973034" lon="13.7524557"><ele>995.0</ele><time>2026-05-02T10:33:52.014Z</time></trkpt><trkpt lat="42.1973489" lon="13.7523546"><ele>996.0</ele><time>2026-05-02T10:33:53.014Z</time></trkpt><trkpt lat="42.1973883" lon="13.7522562"><ele>997.0</ele><time>2026-05-02T10:33:54.014Z</time></trkpt><trkpt lat="42.1974206" lon="13.752159"><ele>998.0</ele><time>2026-05-02T10:33:55.014Z</time></trkpt><trkpt lat="42.1974531" lon="13.752067"><ele>999.0</ele><time>2026-05-02T10:33:56.014Z</time></trkpt><trkpt lat="42.197488" lon="13.7519803"><ele>999.0</ele><time>2026-05-02T10:33:57.014Z</time></trkpt><trkpt lat="42.1975273" lon="13.7518993"><ele>999.0</ele><time>2026-05-02T10:33:58.014Z</time></trkpt><trkpt lat="42.1975791" lon="13.7518204"><ele>999.0</ele><time>2026-05-02T10:33:59.014Z</time></trkpt><trkpt lat="42.1976389" lon="13.7517415"><ele>999.0</ele><time>2026-05-02T10:34:00.014Z</time></trkpt><trkpt lat="42.1976965" lon="13.7516652"><ele>999.0</ele><time>2026-05-02T10:34:01.014Z</time></trkpt><trkpt lat="42.1977559" lon="13.7515859"><ele>999.0</ele><time>2026-05-02T10:34:02.013Z</time></trkpt><trkpt lat="42.1978216" lon="13.7515031"><ele>1001.4000000000001</ele><time>2026-05-02T10:34:03.014Z</time></trkpt><trkpt lat="42.1978897" lon="13.7514224"><ele>1003.8000000000001</ele><time>2026-05-02T10:34:04.013Z</time></trkpt><trkpt lat="42.1979574" lon="13.7513443"><ele>1006.1999999999999</ele><time>2026-05-02T10:34:05.013Z</time></trkpt><trkpt lat="42.1980216" lon="13.7512617"><ele>1008.5999999999999</ele><time>2026-05-02T10:34:06.013Z</time></trkpt><trkpt lat="42.1980827" lon="13.7511689"><ele>1011.0</ele><time>2026-05-02T10:34:07.014Z</time></trkpt><trkpt lat="42.1981404" lon="13.7510704"><ele>1012.6666666666666</ele><time>2026-05-02T10:34:08.014Z</time></trkpt><trkpt lat="42.1982017" lon="13.7509693"><ele>1014.3333333333333</ele><time>2026-05-02T10:34:09.013Z</time></trkpt><trkpt lat="42.1982694" lon="13.7508715"><ele>1016.0</ele><time>2026-05-02T10:34:10.014Z</time></trkpt><trkpt lat="42.1983333" lon="13.7507854"><ele>1017.6666666666666</ele><time>2026-05-02T10:34:11.014Z</time></trkpt><trkpt lat="42.1983925" lon="13.750709"><ele>1019.3333333333333</ele><time>2026-05-02T10:34:12.014Z</time></trkpt><trkpt lat="42.1984476" lon="13.7506357"><ele>1021.0</ele><time>2026-05-02T10:34:13.013Z</time></trkpt><trkpt lat="42.198501" lon="13.7505536"><ele>1020.9999999999999</ele><time>2026-05-02T10:34:14.014Z</time></trkpt><trkpt lat="42.1985569" lon="13.7504735"><ele>1021.0</ele><time>2026-05-02T10:34:15.013Z</time></trkpt><trkpt lat="42.1986107" lon="13.7503991"><ele>1021.0</ele><time>2026-05-02T10:34:16.014Z</time></trkpt><trkpt lat="42.1986564" lon="13.7503244"><ele>1021.0</ele><time>2026-05-02T10:34:17.014Z</time></trkpt><trkpt lat="42.1986973" lon="13.7502549"><ele>1020.9999999999999</ele><time>2026-05-02T10:34:18.014Z</time></trkpt><trkpt lat="42.1987463" lon="13.7501096"><ele>1021.0</ele><time>2026-05-02T10:34:20.013Z</time></trkpt><trkpt lat="42.1987535" lon="13.7500213"><ele>1022.8333333333333</ele><time>2026-05-02T10:34:21.014Z</time></trkpt><trkpt lat="42.1987541" lon="13.7499338"><ele>1024.6666666666665</ele><time>2026-05-02T10:34:22.014Z</time></trkpt><trkpt lat="42.1987573" lon="13.749844"><ele>1026.5</ele><time>2026-05-02T10:34:23.014Z</time></trkpt><trkpt lat="42.1987682" lon="13.7496799"><ele>1028.3333333333333</ele><time>2026-05-02T10:34:25.014Z</time></trkpt><trkpt lat="42.1987601" lon="13.749595"><ele>1030.1666666666667</ele><time>2026-05-02T10:34:26.013Z</time></trkpt><trkpt lat="42.1987431" lon="13.749503"><ele>1032.0</ele><time>2026-05-02T10:34:27.014Z</time></trkpt><trkpt lat="42.198726" lon="13.7494188"><ele>1032.7142857142856</ele><time>2026-05-02T10:34:28.014Z</time></trkpt><trkpt lat="42.198713" lon="13.7493293"><ele>1033.4285714285713</ele><time>2026-05-02T10:34:29.014Z</time></trkpt><trkpt lat="42.1987061" lon="13.7492377"><ele>1034.142857142857</ele><time>2026-05-02T10:34:30.014Z</time></trkpt><trkpt lat="42.1987028" lon="13.749142"><ele>1034.8571428571427</ele><time>2026-05-02T10:34:31.014Z</time></trkpt><trkpt lat="42.1987044" lon="13.7490526"><ele>1035.5714285714284</ele><time>2026-05-02T10:34:32.014Z</time></trkpt><trkpt lat="42.1986966" lon="13.7489585"><ele>1036.2857142857142</ele><time>2026-05-02T10:34:33.014Z</time></trkpt><trkpt lat="42.1986778" lon="13.7488564"><ele>1037.0</ele><time>2026-05-02T10:34:34.014Z</time></trkpt><trkpt lat="42.1986542" lon="13.7487523"><ele>1037.0</ele><time>2026-05-02T10:34:35.014Z</time></trkpt><trkpt lat="42.1986396" lon="13.7486463"><ele>1037.0</ele><time>2026-05-02T10:34:36.014Z</time></trkpt><trkpt lat="42.1986427" lon="13.7485382"><ele>1037.0</ele><time>2026-05-02T10:34:37.014Z</time></trkpt><trkpt lat="42.1986574" lon="13.748426"><ele>1037.0</ele><time>2026-05-02T10:34:38.014Z</time></trkpt><trkpt lat="42.1986713" lon="13.7483066"><ele>1037.0</ele><time>2026-05-02T10:34:39.014Z</time></trkpt><trkpt lat="42.1986783" lon="13.7481763"><ele>1037.0</ele><time>2026-05-02T10:34:40.014Z</time></trkpt><trkpt lat="42.1986824" lon="13.7480414"><ele>1037.4</ele><time>2026-05-02T10:34:41.014Z</time></trkpt><trkpt lat="42.1986845" lon="13.7479105"><ele>1037.8000000000002</ele><time>2026-05-02T10:34:42.013Z</time></trkpt><trkpt lat="42.1986859" lon="13.7477831"><ele>1038.2</ele><time>2026-05-02T10:34:43.014Z</time></trkpt><trkpt lat="42.1986876" lon="13.7476594"><ele>1038.6000000000001</ele><time>2026-05-02T10:34:44.014Z</time></trkpt><trkpt lat="42.1986893" lon="13.7475362"><ele>1039.0</ele><time>2026-05-02T10:34:45.014Z</time></trkpt><trkpt lat="42.1986922" lon="13.747415"><ele>1040.1666666666665</ele><time>2026-05-02T10:34:46.014Z</time></trkpt><trkpt lat="42.1986967" lon="13.7473012"><ele>1041.3333333333333</ele><time>2026-05-02T10:34:47.014Z</time></trkpt><trkpt lat="42.1987042" lon="13.7471944"><ele>1042.5</ele><time>2026-05-02T10:34:48.013Z</time></trkpt><trkpt lat="42.198728" lon="13.7470947"><ele>1043.6666666666667</ele><time>2026-05-02T10:34:49.013Z</time></trkpt><trkpt lat="42.1987622" lon="13.7469977"><ele>1044.8333333333335</ele><time>2026-05-02T10:34:50.014Z</time></trkpt><trkpt lat="42.1987977" lon="13.7468964"><ele>1046.0</ele><time>2026-05-02T10:34:51.014Z</time></trkpt><trkpt lat="42.198824" lon="13.7467868"><ele>1047.1666666666667</ele><time>2026-05-02T10:34:52.014Z</time></trkpt><trkpt lat="42.1988363" lon="13.7466685"><ele>1048.3333333333335</ele><time>2026-05-02T10:34:53.014Z</time></trkpt><trkpt lat="42.1988373" lon="13.7465459"><ele>1049.5</ele><time>2026-05-02T10:34:54.013Z</time></trkpt><trkpt lat="42.1988356" lon="13.7464291"><ele>1050.6666666666667</ele><time>2026-05-02T10:34:55.014Z</time></trkpt><trkpt lat="42.1988379" lon="13.7463196"><ele>1051.8333333333333</ele><time>2026-05-02T10:34:56.014Z</time></trkpt><trkpt lat="42.1988436" lon="13.7462171"><ele>1053.0</ele><time>2026-05-02T10:34:57.014Z</time></trkpt><trkpt lat="42.1988555" lon="13.7461184"><ele>1053.6666666666667</ele><time>2026-05-02T10:34:58.014Z</time></trkpt><trkpt lat="42.1988779" lon="13.7460172"><ele>1054.3333333333333</ele><time>2026-05-02T10:34:59.014Z</time></trkpt><trkpt lat="42.1989087" lon="13.7459105"><ele>1055.0</ele><time>2026-05-02T10:35:00.014Z</time></trkpt><trkpt lat="42.1989396" lon="13.745798"><ele>1055.6666666666665</ele><time>2026-05-02T10:35:01.014Z</time></trkpt><trkpt lat="42.1989681" lon="13.7456814"><ele>1056.3333333333333</ele><time>2026-05-02T10:35:02.014Z</time></trkpt><trkpt lat="42.1989939" lon="13.7455693"><ele>1057.0</ele><time>2026-05-02T10:35:03.014Z</time></trkpt><trkpt lat="42.1990221" lon="13.745466"><ele>1057.0</ele><time>2026-05-02T10:35:04.013Z</time></trkpt><trkpt lat="42.1990616" lon="13.74537"><ele>1057.0</ele><time>2026-05-02T10:35:05.014Z</time></trkpt><trkpt lat="42.1991162" lon="13.7452823"><ele>1057.0</ele><time>2026-05-02T10:35:06.014Z</time></trkpt><trkpt lat="42.1991832" lon="13.7451947"><ele>1057.0</ele><time>2026-05-02T10:35:07.014Z</time></trkpt><trkpt lat="42.1992503" lon="13.7450966"><ele>1057.0</ele><time>2026-05-02T10:35:08.014Z</time></trkpt><trkpt lat="42.1993057" lon="13.7449815"><ele>1057.3333333333333</ele><time>2026-05-02T10:35:09.014Z</time></trkpt><trkpt lat="42.19935" lon="13.7448627"><ele>1057.6666666666665</ele><time>2026-05-02T10:35:10.014Z</time></trkpt><trkpt lat="42.1993878" lon="13.7447495"><ele>1058.0</ele><time>2026-05-02T10:35:11.013Z</time></trkpt><trkpt lat="42.1994168" lon="13.7446501"><ele>1058.3333333333333</ele><time>2026-05-02T10:35:12.014Z</time></trkpt><trkpt lat="42.1994436" lon="13.7445628"><ele>1058.6666666666667</ele><time>2026-05-02T10:35:13.014Z</time></trkpt><trkpt lat="42.1994795" lon="13.7444848"><ele>1059.0</ele><time>2026-05-02T10:35:14.013Z</time></trkpt><trkpt lat="42.1995629" lon="13.7443668"><ele>1059.6666666666667</ele><time>2026-05-02T10:35:16.014Z</time></trkpt><trkpt lat="42.1996178" lon="13.7443209"><ele>1060.3333333333333</ele><time>2026-05-02T10:35:17.014Z</time></trkpt><trkpt lat="42.199684" lon="13.7442846"><ele>1061.0</ele><time>2026-05-02T10:35:18.014Z</time></trkpt><trkpt lat="42.1997477" lon="13.7442554"><ele>1061.6666666666665</ele><time>2026-05-02T10:35:19.014Z</time></trkpt><trkpt lat="42.1998637" lon="13.7441903"><ele>1062.3333333333333</ele><time>2026-05-02T10:35:21.014Z</time></trkpt><trkpt lat="42.1999288" lon="13.7441518"><ele>1063.0</ele><time>2026-05-02T10:35:22.014Z</time></trkpt><trkpt lat="42.199994" lon="13.7441185"><ele>1061.0</ele><time>2026-05-02T10:35:23.014Z</time></trkpt><trkpt lat="42.2000579" lon="13.7440852"><ele>1059.0</ele><time>2026-05-02T10:35:24.014Z</time></trkpt><trkpt lat="42.2001201" lon="13.744045"><ele>1057.0</ele><time>2026-05-02T10:35:25.013Z</time></trkpt><trkpt lat="42.2001798" lon="13.7440034"><ele>1055.0</ele><time>2026-05-02T10:35:26.013Z</time></trkpt><trkpt lat="42.2002798" lon="13.7439054"><ele>1053.0</ele><time>2026-05-02T10:35:28.014Z</time></trkpt><trkpt lat="42.2003236" lon="13.7438429"><ele>1051.0</ele><time>2026-05-02T10:35:29.014Z</time></trkpt><trkpt lat="42.2003648" lon="13.7437774"><ele>1051.0</ele><time>2026-05-02T10:35:30.014Z</time></trkpt><trkpt lat="42.2004354" lon="13.7436335"><ele>1051.0</ele><time>2026-05-02T10:35:32.014Z</time></trkpt><trkpt lat="42.2004719" lon="13.7435546"><ele>1051.0</ele><time>2026-05-02T10:35:33.014Z</time></trkpt><trkpt lat="42.20051" lon="13.7434732"><ele>1051.0</ele><time>2026-05-02T10:35:34.014Z</time></trkpt><trkpt lat="42.2005475" lon="13.7433918"><ele>1051.0</ele><time>2026-05-02T10:35:35.014Z</time></trkpt><trkpt lat="42.2005821" lon="13.7433124"><ele>1051.0</ele><time>2026-05-02T10:35:36.013Z</time></trkpt><trkpt lat="42.2006117" lon="13.7432374"><ele>1052.0</ele><time>2026-05-02T10:35:37.014Z</time></trkpt><trkpt lat="42.2006596" lon="13.7430954"><ele>1053.0</ele><time>2026-05-02T10:35:39.014Z</time></trkpt><trkpt lat="42.2007149" lon="13.7429495"><ele>1054.0</ele><time>2026-05-02T10:35:41.014Z</time></trkpt><trkpt lat="42.2007498" lon="13.7428738"><ele>1055.0</ele><time>2026-05-02T10:35:42.014Z</time></trkpt><trkpt lat="42.2007949" lon="13.742796"><ele>1056.0</ele><time>2026-05-02T10:35:43.014Z</time></trkpt><trkpt lat="42.2008416" lon="13.7427191"><ele>1053.0</ele><time>2026-05-02T10:35:44.014Z</time></trkpt><trkpt lat="42.2008855" lon="13.7426413"><ele>1050.0</ele><time>2026-05-02T10:35:45.013Z</time></trkpt><trkpt lat="42.2009258" lon="13.7425635"><ele>1047.0</ele><time>2026-05-02T10:35:46.014Z</time></trkpt><trkpt lat="42.2009651" lon="13.7424853"><ele>1044.0</ele><time>2026-05-02T10:35:47.014Z</time></trkpt><trkpt lat="42.2010131" lon="13.7424031"><ele>1041.0</ele><time>2026-05-02T10:35:48.013Z</time></trkpt><trkpt lat="42.2010672" lon="13.7423212"><ele>1038.0</ele><time>2026-05-02T10:35:49.013Z</time></trkpt><trkpt lat="42.2011229" lon="13.7422381"><ele>1038.0</ele><time>2026-05-02T10:35:50.013Z</time></trkpt><trkpt lat="42.2011905" lon="13.7421624"><ele>1038.0</ele><time>2026-05-02T10:35:51.014Z</time></trkpt><trkpt lat="42.2012618" lon="13.7420853"><ele>1038.0</ele><time>2026-05-02T10:35:52.014Z</time></trkpt><trkpt lat="42.2013285" lon="13.742004"><ele>1038.0</ele><time>2026-05-02T10:35:53.013Z</time></trkpt><trkpt lat="42.2013893" lon="13.7419198"><ele>1038.0</ele><time>2026-05-02T10:35:54.013Z</time></trkpt><trkpt lat="42.2014443" lon="13.74184"><ele>1038.0</ele><time>2026-05-02T10:35:55.014Z</time></trkpt><trkpt lat="42.2015008" lon="13.7417586"><ele>1035.6666666666667</ele><time>2026-05-02T10:35:56.014Z</time></trkpt><trkpt lat="42.2015521" lon="13.741675"><ele>1033.3333333333333</ele><time>2026-05-02T10:35:57.014Z</time></trkpt><trkpt lat="42.2016" lon="13.7415929"><ele>1031.0</ele><time>2026-05-02T10:35:58.013Z</time></trkpt><trkpt lat="42.2016626" lon="13.7415051"><ele>1028.6666666666665</ele><time>2026-05-02T10:35:59.014Z</time></trkpt><trkpt lat="42.2017322" lon="13.7414284"><ele>1026.3333333333333</ele><time>2026-05-02T10:36:00.014Z</time></trkpt><trkpt lat="42.2018059" lon="13.7413628"><ele>1024.0</ele><time>2026-05-02T10:36:01.014Z</time></trkpt><trkpt lat="42.2018824" lon="13.7413112"><ele>1024.0</ele><time>2026-05-02T10:36:02.014Z</time></trkpt><trkpt lat="42.2019622" lon="13.7412685"><ele>1024.0</ele><time>2026-05-02T10:36:03.013Z</time></trkpt><trkpt lat="42.2020464" lon="13.7412415"><ele>1024.0</ele><time>2026-05-02T10:36:04.014Z</time></trkpt><trkpt lat="42.2021278" lon="13.7412244"><ele>1024.0</ele><time>2026-05-02T10:36:05.014Z</time></trkpt><trkpt lat="42.2022179" lon="13.7412094"><ele>1024.0</ele><time>2026-05-02T10:36:06.014Z</time></trkpt><trkpt lat="42.2023273" lon="13.7411975"><ele>1019.0</ele><time>2026-05-02T10:36:07.013Z</time></trkpt><trkpt lat="42.202431" lon="13.7411788"><ele>1014.0000000000001</ele><time>2026-05-02T10:36:08.014Z</time></trkpt><trkpt lat="42.2025305" lon="13.7411598"><ele>1009.0000000000001</ele><time>2026-05-02T10:36:09.014Z</time></trkpt><trkpt lat="42.2026351" lon="13.7411364"><ele>1004.0</ele><time>2026-05-02T10:36:10.014Z</time></trkpt><trkpt lat="42.2027361" lon="13.7411148"><ele>999.0</ele><time>2026-05-02T10:36:11.014Z</time></trkpt><trkpt lat="42.2028316" lon="13.7410769"><ele>1000.4000000000001</ele><time>2026-05-02T10:36:12.013Z</time></trkpt><trkpt lat="42.2029323" lon="13.7410389"><ele>1001.8000000000001</ele><time>2026-05-02T10:36:13.013Z</time></trkpt><trkpt lat="42.2030349" lon="13.7410124"><ele>1003.1999999999999</ele><time>2026-05-02T10:36:14.014Z</time></trkpt><trkpt lat="42.2031334" lon="13.7410019"><ele>1004.5999999999999</ele><time>2026-05-02T10:36:15.014Z</time></trkpt><trkpt lat="42.2032185" lon="13.740982"><ele>1006.0</ele><time>2026-05-02T10:36:16.014Z</time></trkpt><trkpt lat="42.203305" lon="13.7409552"><ele>1006.0</ele><time>2026-05-02T10:36:17.014Z</time></trkpt><trkpt lat="42.2033958" lon="13.7409279"><ele>1005.9999999999999</ele><time>2026-05-02T10:36:18.014Z</time></trkpt><trkpt lat="42.2034726" lon="13.7409018"><ele>1005.9999999999999</ele><time>2026-05-02T10:36:19.014Z</time></trkpt><trkpt lat="42.2035691" lon="13.7408475"><ele>1006.0</ele><time>2026-05-02T10:36:21.014Z</time></trkpt><trkpt lat="42.2036333" lon="13.7407509"><ele>1006.0</ele><time>2026-05-02T10:36:23.014Z</time></trkpt><trkpt lat="42.2037035" lon="13.740594"><ele>1005.9999999999999</ele><time>2026-05-02T10:36:25.014Z</time></trkpt><trkpt lat="42.2037566" lon="13.7405042"><ele>1006.0</ele><time>2026-05-02T10:36:26.014Z</time></trkpt><trkpt lat="42.2038017" lon="13.7404124"><ele>1006.0</ele><time>2026-05-02T10:36:27.014Z</time></trkpt><trkpt lat="42.2038509" lon="13.7403235"><ele>1006.0</ele><time>2026-05-02T10:36:28.014Z</time></trkpt><trkpt lat="42.2039026" lon="13.7402389"><ele>1005.9999999999999</ele><time>2026-05-02T10:36:29.014Z</time></trkpt><trkpt lat="42.203954" lon="13.7401548"><ele>1006.0</ele><time>2026-05-02T10:36:30.014Z</time></trkpt><trkpt lat="42.2040077" lon="13.740078"><ele>1004.9999999999999</ele><time>2026-05-02T10:36:31.013Z</time></trkpt><trkpt lat="42.2040714" lon="13.7400126"><ele>1004.0</ele><time>2026-05-02T10:36:32.013Z</time></trkpt><trkpt lat="42.2041508" lon="13.739955"><ele>1003.0</ele><time>2026-05-02T10:36:33.014Z</time></trkpt><trkpt lat="42.2042264" lon="13.7398879"><ele>1002.0</ele><time>2026-05-02T10:36:34.014Z</time></trkpt><trkpt lat="42.2042987" lon="13.7398188"><ele>1000.9999999999999</ele><time>2026-05-02T10:36:35.014Z</time></trkpt><trkpt lat="42.2043715" lon="13.7397502"><ele>1000.0</ele><time>2026-05-02T10:36:36.013Z</time></trkpt><trkpt lat="42.204449" lon="13.7396871"><ele>1000.0</ele><time>2026-05-02T10:36:37.014Z</time></trkpt><trkpt lat="42.2045301" lon="13.7396384"><ele>1000.0</ele><time>2026-05-02T10:36:38.014Z</time></trkpt><trkpt lat="42.2046152" lon="13.7395925"><ele>1000.0</ele><time>2026-05-02T10:36:39.014Z</time></trkpt><trkpt lat="42.2047138" lon="13.7395606"><ele>1000.0</ele><time>2026-05-02T10:36:40.014Z</time></trkpt><trkpt lat="42.2048124" lon="13.7395358"><ele>1000.0</ele><time>2026-05-02T10:36:41.013Z</time></trkpt><trkpt lat="42.2048964" lon="13.7395124"><ele>998.4285714285713</ele><time>2026-05-02T10:36:42.014Z</time></trkpt><trkpt lat="42.2049629" lon="13.7395044"><ele>996.8571428571429</ele><time>2026-05-02T10:36:43.014Z</time></trkpt><trkpt lat="42.2050278" lon="13.7394682"><ele>995.2857142857142</ele><time>2026-05-02T10:36:44.013Z</time></trkpt><trkpt lat="42.205084" lon="13.7393857"><ele>993.7142857142857</ele><time>2026-05-02T10:36:45.013Z</time></trkpt><trkpt lat="42.2051178" lon="13.7393038"><ele>992.1428571428571</ele><time>2026-05-02T10:36:46.014Z</time></trkpt><trkpt lat="42.2051499" lon="13.7392233"><ele>990.5714285714286</ele><time>2026-05-02T10:36:47.014Z</time></trkpt><trkpt lat="42.2051927" lon="13.7391421"><ele>989.0</ele><time>2026-05-02T10:36:48.014Z</time></trkpt><trkpt lat="42.2052361" lon="13.7390759"><ele>989.0000000000001</ele><time>2026-05-02T10:36:49.014Z</time></trkpt><trkpt lat="42.2052846" lon="13.739019"><ele>989.0</ele><time>2026-05-02T10:36:50.014Z</time></trkpt><trkpt lat="42.2053602" lon="13.7389933"><ele>989.0</ele><time>2026-05-02T10:36:51.014Z</time></trkpt><trkpt lat="42.2054563" lon="13.7389791"><ele>989.0</ele><time>2026-05-02T10:36:52.014Z</time></trkpt><trkpt lat="42.205545" lon="13.7389606"><ele>989.0000000000001</ele><time>2026-05-02T10:36:53.014Z</time></trkpt><trkpt lat="42.2056302" lon="13.7389411"><ele>989.0</ele><time>2026-05-02T10:36:54.014Z</time></trkpt><trkpt lat="42.2057147" lon="13.7389378"><ele>987.8333333333334</ele><time>2026-05-02T10:36:55.014Z</time></trkpt><trkpt lat="42.2057906" lon="13.7389202"><ele>986.6666666666667</ele><time>2026-05-02T10:36:56.013Z</time></trkpt><trkpt lat="42.2058674" lon="13.7388762"><ele>985.5</ele><time>2026-05-02T10:36:57.014Z</time></trkpt><trkpt lat="42.2059447" lon="13.7388303"><ele>984.3333333333333</ele><time>2026-05-02T10:36:58.014Z</time></trkpt><trkpt lat="42.2060209" lon="13.7387836"><ele>983.1666666666666</ele><time>2026-05-02T10:36:59.014Z</time></trkpt><trkpt lat="42.2060934" lon="13.7387321"><ele>982.0</ele><time>2026-05-02T10:37:00.014Z</time></trkpt><trkpt lat="42.2061618" lon="13.7386881"><ele>981.9999999999999</ele><time>2026-05-02T10:37:01.014Z</time></trkpt><trkpt lat="42.2062335" lon="13.7386758"><ele>982.0</ele><time>2026-05-02T10:37:02.014Z</time></trkpt><trkpt lat="42.2063075" lon="13.7386956"><ele>982.0</ele><time>2026-05-02T10:37:03.013Z</time></trkpt><trkpt lat="42.2063956" lon="13.7387291"><ele>982.0</ele><time>2026-05-02T10:37:04.014Z</time></trkpt><trkpt lat="42.2064856" lon="13.7387657"><ele>981.9999999999999</ele><time>2026-05-02T10:37:05.014Z</time></trkpt><trkpt lat="42.2065845" lon="13.7387958"><ele>982.0</ele><time>2026-05-02T10:37:06.014Z</time></trkpt><trkpt lat="42.2066937" lon="13.7388052"><ele>981.9999999999999</ele><time>2026-05-02T10:37:07.014Z</time></trkpt><trkpt lat="42.2068" lon="13.7388035"><ele>982.0</ele><time>2026-05-02T10:37:08.013Z</time></trkpt><trkpt lat="42.2068927" lon="13.7388118"><ele>982.0</ele><time>2026-05-02T10:37:09.014Z</time></trkpt><trkpt lat="42.2069769" lon="13.738819"><ele>982.0</ele><time>2026-05-02T10:37:10.013Z</time></trkpt><trkpt lat="42.2070547" lon="13.7388127"><ele>981.9999999999999</ele><time>2026-05-02T10:37:11.014Z</time></trkpt><trkpt lat="42.2071231" lon="13.7388012"><ele>982.0</ele><time>2026-05-02T10:37:12.014Z</time></trkpt><trkpt lat="42.2071886" lon="13.7387814"><ele>981.9999999999999</ele><time>2026-05-02T10:37:13.014Z</time></trkpt><trkpt lat="42.2072609" lon="13.7387398"><ele>982.0</ele><time>2026-05-02T10:37:14.014Z</time></trkpt><trkpt lat="42.207333" lon="13.7386871"><ele>982.0</ele><time>2026-05-02T10:37:15.014Z</time></trkpt><trkpt lat="42.2073978" lon="13.7386352"><ele>982.0</ele><time>2026-05-02T10:37:16.014Z</time></trkpt><trkpt lat="42.2074581" lon="13.7385708"><ele>981.9999999999999</ele><time>2026-05-02T10:37:17.014Z</time></trkpt><trkpt lat="42.2075219" lon="13.7384922"><ele>982.0</ele><time>2026-05-02T10:37:18.013Z</time></trkpt><trkpt lat="42.2075834" lon="13.7384057"><ele>983.8333333333333</ele><time>2026-05-02T10:37:19.014Z</time></trkpt><trkpt lat="42.2076366" lon="13.7383194"><ele>985.6666666666666</ele><time>2026-05-02T10:37:20.014Z</time></trkpt><trkpt lat="42.2076895" lon="13.7382321"><ele>987.5</ele><time>2026-05-02T10:37:21.013Z</time></trkpt><trkpt lat="42.207745" lon="13.7381481"><ele>989.3333333333333</ele><time>2026-05-02T10:37:22.014Z</time></trkpt><trkpt lat="42.2078035" lon="13.7380686"><ele>991.1666666666666</ele><time>2026-05-02T10:37:23.014Z</time></trkpt><trkpt lat="42.2078698" lon="13.7379963"><ele>993.0</ele><time>2026-05-02T10:37:24.014Z</time></trkpt><trkpt lat="42.207948" lon="13.7379325"><ele>993.0</ele><time>2026-05-02T10:37:25.014Z</time></trkpt><trkpt lat="42.2080297" lon="13.7378703"><ele>993.0</ele><time>2026-05-02T10:37:26.014Z</time></trkpt><trkpt lat="42.2081164" lon="13.7378033"><ele>993.0</ele><time>2026-05-02T10:37:27.014Z</time></trkpt><trkpt lat="42.2082075" lon="13.7377331"><ele>993.0</ele><time>2026-05-02T10:37:28.014Z</time></trkpt><trkpt lat="42.2082978" lon="13.7376695"><ele>993.0</ele><time>2026-05-02T10:37:29.014Z</time></trkpt><trkpt lat="42.2083853" lon="13.7376239"><ele>993.8</ele><time>2026-05-02T10:37:30.014Z</time></trkpt><trkpt lat="42.2084726" lon="13.7375883"><ele>994.5999999999999</ele><time>2026-05-02T10:37:31.014Z</time></trkpt><trkpt lat="42.2085589" lon="13.7375493"><ele>995.4000000000001</ele><time>2026-05-02T10:37:32.014Z</time></trkpt><trkpt lat="42.2086468" lon="13.7375068"><ele>996.2</ele><time>2026-05-02T10:37:33.014Z</time></trkpt><trkpt lat="42.2087359" lon="13.7374636"><ele>997.0</ele><time>2026-05-02T10:37:34.014Z</time></trkpt><trkpt lat="42.2088259" lon="13.7374174"><ele>997.0</ele><time>2026-05-02T10:37:35.014Z</time></trkpt><trkpt lat="42.2089208" lon="13.7373701"><ele>997.0</ele><time>2026-05-02T10:37:36.014Z</time></trkpt><trkpt lat="42.2090174" lon="13.7373241"><ele>997.0</ele><time>2026-05-02T10:37:37.014Z</time></trkpt><trkpt lat="42.2091085" lon="13.7372798"><ele>997.0</ele><time>2026-05-02T10:37:38.014Z</time></trkpt><trkpt lat="42.2091956" lon="13.7372414"><ele>997.0</ele><time>2026-05-02T10:37:39.014Z</time></trkpt><trkpt lat="42.2092819" lon="13.7372038"><ele>994.2</ele><time>2026-05-02T10:37:40.014Z</time></trkpt><trkpt lat="42.2093613" lon="13.7371626"><ele>991.4000000000001</ele><time>2026-05-02T10:37:41.013Z</time></trkpt><trkpt lat="42.2094285" lon="13.7371268"><ele>988.5999999999999</ele><time>2026-05-02T10:37:42.013Z</time></trkpt><trkpt lat="42.2095313" lon="13.737073"><ele>985.8</ele><time>2026-05-02T10:37:44.014Z</time></trkpt><trkpt lat="42.2096021" lon="13.737011"><ele>983.0</ele><time>2026-05-02T10:37:46.014Z</time></trkpt><trkpt lat="42.2096599" lon="13.7368958"><ele>983.142857142857</ele><time>2026-05-02T10:37:48.014Z</time></trkpt><trkpt lat="42.2097057" lon="13.736824"><ele>983.2857142857142</ele><time>2026-05-02T10:37:49.013Z</time></trkpt><trkpt lat="42.2097637" lon="13.7367634"><ele>983.4285714285714</ele><time>2026-05-02T10:37:50.014Z</time></trkpt><trkpt lat="42.2098228" lon="13.7367133"><ele>983.5714285714286</ele><time>2026-05-02T10:37:51.014Z</time></trkpt><trkpt lat="42.2098808" lon="13.7366607"><ele>983.7142857142858</ele><time>2026-05-02T10:37:52.014Z</time></trkpt><trkpt lat="42.2099384" lon="13.7366041"><ele>983.857142857143</ele><time>2026-05-02T10:37:53.014Z</time></trkpt><trkpt lat="42.2099997" lon="13.7365433"><ele>984.0000000000001</ele><time>2026-05-02T10:37:54.014Z</time></trkpt><trkpt lat="42.2100626" lon="13.7364778"><ele>984.0</ele><time>2026-05-02T10:37:55.014Z</time></trkpt><trkpt lat="42.2101246" lon="13.7364127"><ele>984.0</ele><time>2026-05-02T10:37:56.013Z</time></trkpt><trkpt lat="42.2101909" lon="13.736351"><ele>984.0</ele><time>2026-05-02T10:37:57.014Z</time></trkpt><trkpt lat="42.2102625" lon="13.7362941"><ele>984.0</ele><time>2026-05-02T10:37:58.014Z</time></trkpt><trkpt lat="42.2103248" lon="13.7362552"><ele>984.0</ele><time>2026-05-02T10:37:59.014Z</time></trkpt><trkpt lat="42.2103874" lon="13.7361995"><ele>984.0</ele><time>2026-05-02T10:38:01.014Z</time></trkpt><trkpt lat="42.2103798" lon="13.7361084"><ele>984.0</ele><time>2026-05-02T10:38:04.014Z</time></trkpt><trkpt lat="42.2102851" lon="13.7360566"><ele>984.0</ele><time>2026-05-02T10:38:07.014Z</time></trkpt><trkpt lat="42.2101766" lon="13.7360096"><ele>984.0</ele><time>2026-05-02T10:38:09.014Z</time></trkpt><trkpt lat="42.2101146" lon="13.7359608"><ele>984.0</ele><time>2026-05-02T10:38:10.014Z</time></trkpt><trkpt lat="42.2100477" lon="13.7359061"><ele>984.0</ele><time>2026-05-02T10:38:11.014Z</time></trkpt><trkpt lat="42.2099795" lon="13.7358562"><ele>984.0</ele><time>2026-05-02T10:38:12.013Z</time></trkpt><trkpt lat="42.2099123" lon="13.7358052"><ele>985.1666666666666</ele><time>2026-05-02T10:38:13.014Z</time></trkpt><trkpt lat="42.2098469" lon="13.7357471"><ele>986.3333333333333</ele><time>2026-05-02T10:38:14.014Z</time></trkpt><trkpt lat="42.2097811" lon="13.7356824"><ele>987.5</ele><time>2026-05-02T10:38:15.014Z</time></trkpt><trkpt lat="42.2097112" lon="13.7356164"><ele>988.6666666666666</ele><time>2026-05-02T10:38:16.014Z</time></trkpt><trkpt lat="42.2096409" lon="13.7355519"><ele>989.8333333333333</ele><time>2026-05-02T10:38:17.014Z</time></trkpt><trkpt lat="42.2095788" lon="13.7354824"><ele>991.0</ele><time>2026-05-02T10:38:18.014Z</time></trkpt><trkpt lat="42.2095237" lon="13.7354039"><ele>993.6666666666666</ele><time>2026-05-02T10:38:19.014Z</time></trkpt><trkpt lat="42.2094701" lon="13.7353243"><ele>996.3333333333333</ele><time>2026-05-02T10:38:20.014Z</time></trkpt><trkpt lat="42.2094143" lon="13.73525"><ele>999.0</ele><time>2026-05-02T10:38:21.014Z</time></trkpt><trkpt lat="42.2093521" lon="13.7351862"><ele>1001.6666666666667</ele><time>2026-05-02T10:38:22.014Z</time></trkpt><trkpt lat="42.2092835" lon="13.7351398"><ele>1004.3333333333334</ele><time>2026-05-02T10:38:23.013Z</time></trkpt><trkpt lat="42.2092094" lon="13.7351082"><ele>1007.0</ele><time>2026-05-02T10:38:24.014Z</time></trkpt><trkpt lat="42.2091331" lon="13.735092"><ele>1007.0000000000001</ele><time>2026-05-02T10:38:25.014Z</time></trkpt><trkpt lat="42.2090546" lon="13.7350851"><ele>1007.0</ele><time>2026-05-02T10:38:26.014Z</time></trkpt><trkpt lat="42.2089748" lon="13.7350782"><ele>1007.0</ele><time>2026-05-02T10:38:27.014Z</time></trkpt><trkpt lat="42.2088942" lon="13.7350719"><ele>1007.0</ele><time>2026-05-02T10:38:28.013Z</time></trkpt><trkpt lat="42.2088102" lon="13.7350701"><ele>1007.0000000000001</ele><time>2026-05-02T10:38:29.014Z</time></trkpt><trkpt lat="42.2087269" lon="13.7350779"><ele>1007.0</ele><time>2026-05-02T10:38:30.014Z</time></trkpt><trkpt lat="42.2086443" lon="13.7350951"><ele>1010.8</ele><time>2026-05-02T10:38:31.013Z</time></trkpt><trkpt lat="42.2085566" lon="13.7351215"><ele>1014.6</ele><time>2026-05-02T10:38:32.013Z</time></trkpt><trkpt lat="42.2084678" lon="13.7351547"><ele>1018.3999999999999</ele><time>2026-05-02T10:38:33.013Z</time></trkpt><trkpt lat="42.2083832" lon="13.735204"><ele>1022.1999999999999</ele><time>2026-05-02T10:38:34.014Z</time></trkpt><trkpt lat="42.2083071" lon="13.7352673"><ele>1026.0</ele><time>2026-05-02T10:38:35.014Z</time></trkpt><trkpt lat="42.2082384" lon="13.7353482"><ele>1026.0</ele><time>2026-05-02T10:38:36.014Z</time></trkpt><trkpt lat="42.2081767" lon="13.7354438"><ele>1026.0</ele><time>2026-05-02T10:38:37.014Z</time></trkpt><trkpt lat="42.2081234" lon="13.7355584"><ele>1026.0</ele><time>2026-05-02T10:38:38.014Z</time></trkpt><trkpt lat="42.2080795" lon="13.7356859"><ele>1026.0</ele><time>2026-05-02T10:38:39.013Z</time></trkpt><trkpt lat="42.20804" lon="13.7358169"><ele>1026.0</ele><time>2026-05-02T10:38:40.013Z</time></trkpt><trkpt lat="42.2079927" lon="13.7359468"><ele>1028.8</ele><time>2026-05-02T10:38:41.014Z</time></trkpt><trkpt lat="42.2079332" lon="13.7360709"><ele>1031.6</ele><time>2026-05-02T10:38:42.014Z</time></trkpt><trkpt lat="42.2078685" lon="13.7361933"><ele>1034.4</ele><time>2026-05-02T10:38:43.014Z</time></trkpt><trkpt lat="42.2078077" lon="13.7363164"><ele>1037.2</ele><time>2026-05-02T10:38:44.014Z</time></trkpt><trkpt lat="42.2077446" lon="13.73643"><ele>1040.0</ele><time>2026-05-02T10:38:45.014Z</time></trkpt><trkpt lat="42.2076763" lon="13.7365278"><ele>1040.0</ele><time>2026-05-02T10:38:46.014Z</time></trkpt><trkpt lat="42.2076089" lon="13.7366151"><ele>1040.0</ele><time>2026-05-02T10:38:47.014Z</time></trkpt><trkpt lat="42.2075418" lon="13.7366995"><ele>1040.0</ele><time>2026-05-02T10:38:48.014Z</time></trkpt><trkpt lat="42.2074698" lon="13.7367764"><ele>1040.0</ele><time>2026-05-02T10:38:49.014Z</time></trkpt><trkpt lat="42.2073939" lon="13.736846"><ele>1040.0</ele><time>2026-05-02T10:38:50.014Z</time></trkpt><trkpt lat="42.20732" lon="13.736908"><ele>1040.1666666666667</ele><time>2026-05-02T10:38:51.013Z</time></trkpt><trkpt lat="42.2072493" lon="13.736953"><ele>1040.3333333333335</ele><time>2026-05-02T10:38:52.014Z</time></trkpt><trkpt lat="42.2071849" lon="13.7369756"><ele>1040.5</ele><time>2026-05-02T10:38:53.014Z</time></trkpt><trkpt lat="42.2070739" lon="13.7369406"><ele>1040.6666666666667</ele><time>2026-05-02T10:38:55.013Z</time></trkpt><trkpt lat="42.2070084" lon="13.7368135"><ele>1040.8333333333333</ele><time>2026-05-02T10:38:57.014Z</time></trkpt><trkpt lat="42.2069845" lon="13.7367242"><ele>1041.0</ele><time>2026-05-02T10:38:58.014Z</time></trkpt><trkpt lat="42.2069599" lon="13.7366273"><ele>1041.0</ele><time>2026-05-02T10:38:59.013Z</time></trkpt><trkpt lat="42.2069344" lon="13.7365269"><ele>1041.0</ele><time>2026-05-02T10:39:00.013Z</time></trkpt><trkpt lat="42.2069085" lon="13.7364208"><ele>1041.0</ele><time>2026-05-02T10:39:01.013Z</time></trkpt><trkpt lat="42.2068822" lon="13.7363095"><ele>1041.0</ele><time>2026-05-02T10:39:02.014Z</time></trkpt><trkpt lat="42.2068546" lon="13.7361929"><ele>1041.0</ele><time>2026-05-02T10:39:03.014Z</time></trkpt><trkpt lat="42.2068274" lon="13.7360786"><ele>1041.0</ele><time>2026-05-02T10:39:04.014Z</time></trkpt><trkpt lat="42.2068072" lon="13.7359688"><ele>1043.0</ele><time>2026-05-02T10:39:05.014Z</time></trkpt><trkpt lat="42.2068017" lon="13.7358579"><ele>1045.0</ele><time>2026-05-02T10:39:06.014Z</time></trkpt><trkpt lat="42.2068076" lon="13.7357448"><ele>1047.0</ele><time>2026-05-02T10:39:07.014Z</time></trkpt><trkpt lat="42.2068104" lon="13.7356297"><ele>1049.0</ele><time>2026-05-02T10:39:08.014Z</time></trkpt><trkpt lat="42.2067981" lon="13.7355187"><ele>1051.0</ele><time>2026-05-02T10:39:09.014Z</time></trkpt><trkpt lat="42.206763" lon="13.7354175"><ele>1053.0</ele><time>2026-05-02T10:39:10.014Z</time></trkpt><trkpt lat="42.2067128" lon="13.7353268"><ele>1053.0</ele><time>2026-05-02T10:39:11.014Z</time></trkpt><trkpt lat="42.2066622" lon="13.7352433"><ele>1053.0</ele><time>2026-05-02T10:39:12.013Z</time></trkpt><trkpt lat="42.206626" lon="13.735167"><ele>1053.0</ele><time>2026-05-02T10:39:13.014Z</time></trkpt><trkpt lat="42.2066027" lon="13.7350809"><ele>1053.0</ele><time>2026-05-02T10:39:14.014Z</time></trkpt><trkpt lat="42.2065816" lon="13.7349804"><ele>1053.0</ele><time>2026-05-02T10:39:15.014Z</time></trkpt><trkpt lat="42.2065608" lon="13.7348781"><ele>1053.0</ele><time>2026-05-02T10:39:16.014Z</time></trkpt><trkpt lat="42.2065466" lon="13.7347715"><ele>1055.4</ele><time>2026-05-02T10:39:17.014Z</time></trkpt><trkpt lat="42.2065426" lon="13.7346543"><ele>1057.8</ele><time>2026-05-02T10:39:18.014Z</time></trkpt><trkpt lat="42.2065468" lon="13.7345313"><ele>1060.2</ele><time>2026-05-02T10:39:19.014Z</time></trkpt><trkpt lat="42.2065579" lon="13.7344089"><ele>1062.6</ele><time>2026-05-02T10:39:20.014Z</time></trkpt><trkpt lat="42.2065738" lon="13.7342869"><ele>1065.0</ele><time>2026-05-02T10:39:21.013Z</time></trkpt><trkpt lat="42.2065932" lon="13.7341583"><ele>1066.1666666666667</ele><time>2026-05-02T10:39:22.014Z</time></trkpt><trkpt lat="42.2066123" lon="13.7340237"><ele>1067.3333333333333</ele><time>2026-05-02T10:39:23.014Z</time></trkpt><trkpt lat="42.2066308" lon="13.7338918"><ele>1068.5</ele><time>2026-05-02T10:39:24.014Z</time></trkpt><trkpt lat="42.2066444" lon="13.7337759"><ele>1069.6666666666665</ele><time>2026-05-02T10:39:25.014Z</time></trkpt><trkpt lat="42.2066467" lon="13.733672"><ele>1070.8333333333333</ele><time>2026-05-02T10:39:26.014Z</time></trkpt><trkpt lat="42.2066382" lon="13.7335634"><ele>1072.0</ele><time>2026-05-02T10:39:27.014Z</time></trkpt><trkpt lat="42.2066197" lon="13.7334451"><ele>1073.3333333333333</ele><time>2026-05-02T10:39:28.013Z</time></trkpt><trkpt lat="42.2065921" lon="13.7333321"><ele>1074.6666666666665</ele><time>2026-05-02T10:39:29.014Z</time></trkpt><trkpt lat="42.2065549" lon="13.7332257"><ele>1076.0</ele><time>2026-05-02T10:39:30.013Z</time></trkpt><trkpt lat="42.2065116" lon="13.733119"><ele>1077.3333333333333</ele><time>2026-05-02T10:39:31.014Z</time></trkpt><trkpt lat="42.2064671" lon="13.7330124"><ele>1078.6666666666667</ele><time>2026-05-02T10:39:32.013Z</time></trkpt><trkpt lat="42.2064262" lon="13.7329135"><ele>1080.0</ele><time>2026-05-02T10:39:33.014Z</time></trkpt><trkpt lat="42.2063852" lon="13.7328206"><ele>1081.3333333333333</ele><time>2026-05-02T10:39:34.014Z</time></trkpt><trkpt lat="42.2063382" lon="13.7327334"><ele>1082.6666666666667</ele><time>2026-05-02T10:39:35.014Z</time></trkpt><trkpt lat="42.2062811" lon="13.7326614"><ele>1084.0</ele><time>2026-05-02T10:39:36.014Z</time></trkpt><trkpt lat="42.2062219" lon="13.7325973"><ele>1085.3333333333335</ele><time>2026-05-02T10:39:37.014Z</time></trkpt><trkpt lat="42.2061728" lon="13.7325262"><ele>1086.6666666666667</ele><time>2026-05-02T10:39:38.014Z</time></trkpt><trkpt lat="42.2061395" lon="13.7324427"><ele>1088.0</ele><time>2026-05-02T10:39:39.013Z</time></trkpt><trkpt lat="42.2061192" lon="13.7323457"><ele>1089.1666666666667</ele><time>2026-05-02T10:39:40.013Z</time></trkpt><trkpt lat="42.2061058" lon="13.7322427"><ele>1090.3333333333335</ele><time>2026-05-02T10:39:41.014Z</time></trkpt><trkpt lat="42.2060961" lon="13.7321424"><ele>1091.5</ele><time>2026-05-02T10:39:42.014Z</time></trkpt><trkpt lat="42.20609" lon="13.7320394"><ele>1092.6666666666667</ele><time>2026-05-02T10:39:43.014Z</time></trkpt><trkpt lat="42.2060844" lon="13.7319326"><ele>1093.8333333333333</ele><time>2026-05-02T10:39:44.014Z</time></trkpt><trkpt lat="42.2060796" lon="13.7318249"><ele>1095.0</ele><time>2026-05-02T10:39:45.013Z</time></trkpt><trkpt lat="42.2060736" lon="13.7317162"><ele>1097.1666666666667</ele><time>2026-05-02T10:39:46.014Z</time></trkpt><trkpt lat="42.2060628" lon="13.7316068"><ele>1099.3333333333333</ele><time>2026-05-02T10:39:47.014Z</time></trkpt><trkpt lat="42.2060467" lon="13.7315011"><ele>1101.5</ele><time>2026-05-02T10:39:48.014Z</time></trkpt><trkpt lat="42.2060222" lon="13.7313991"><ele>1103.6666666666665</ele><time>2026-05-02T10:39:49.014Z</time></trkpt><trkpt lat="42.2059924" lon="13.7313023"><ele>1105.8333333333333</ele><time>2026-05-02T10:39:50.014Z</time></trkpt><trkpt lat="42.2059575" lon="13.7312165"><ele>1108.0</ele><time>2026-05-02T10:39:51.014Z</time></trkpt><trkpt lat="42.2059254" lon="13.7311397"><ele>1110.2</ele><time>2026-05-02T10:39:52.014Z</time></trkpt><trkpt lat="42.2058699" lon="13.7310007"><ele>1112.4</ele><time>2026-05-02T10:39:54.013Z</time></trkpt><trkpt lat="42.2058096" lon="13.7308546"><ele>1114.6000000000001</ele><time>2026-05-02T10:39:56.014Z</time></trkpt><trkpt lat="42.2057774" lon="13.730695"><ele>1116.8</ele><time>2026-05-02T10:39:58.014Z</time></trkpt><trkpt lat="42.2057554" lon="13.7306134"><ele>1119.0</ele><time>2026-05-02T10:39:59.014Z</time></trkpt><trkpt lat="42.2057276" lon="13.7305313"><ele>1119.0</ele><time>2026-05-02T10:40:00.014Z</time></trkpt><trkpt lat="42.2056926" lon="13.7304513"><ele>1119.0</ele><time>2026-05-02T10:40:01.014Z</time></trkpt><trkpt lat="42.2056456" lon="13.7303802"><ele>1119.0</ele><time>2026-05-02T10:40:02.014Z</time></trkpt><trkpt lat="42.2055946" lon="13.730302"><ele>1119.0</ele><time>2026-05-02T10:40:03.014Z</time></trkpt><trkpt lat="42.2055608" lon="13.7302022"><ele>1119.0</ele><time>2026-05-02T10:40:04.013Z</time></trkpt><trkpt lat="42.2055373" lon="13.7300961"><ele>1119.0</ele><time>2026-05-02T10:40:05.014Z</time></trkpt><trkpt lat="42.2055094" lon="13.7300025"><ele>1121.6000000000001</ele><time>2026-05-02T10:40:06.013Z</time></trkpt><trkpt lat="42.2054624" lon="13.7299164"><ele>1124.2</ele><time>2026-05-02T10:40:07.014Z</time></trkpt><trkpt lat="42.2053969" lon="13.7298223"><ele>1126.8000000000002</ele><time>2026-05-02T10:40:08.014Z</time></trkpt><trkpt lat="42.2053224" lon="13.7297244"><ele>1129.4</ele><time>2026-05-02T10:40:09.014Z</time></trkpt><trkpt lat="42.2052486" lon="13.7296215"><ele>1132.0</ele><time>2026-05-02T10:40:10.014Z</time></trkpt><trkpt lat="42.2051908" lon="13.7295125"><ele>1132.0</ele><time>2026-05-02T10:40:11.014Z</time></trkpt><trkpt lat="42.2051414" lon="13.7294092"><ele>1132.0</ele><time>2026-05-02T10:40:12.014Z</time></trkpt><trkpt lat="42.2050824" lon="13.7293145"><ele>1132.0</ele><time>2026-05-02T10:40:13.014Z</time></trkpt><trkpt lat="42.2050208" lon="13.7292297"><ele>1132.0</ele><time>2026-05-02T10:40:14.014Z</time></trkpt><trkpt lat="42.2049656" lon="13.7291566"><ele>1132.0</ele><time>2026-05-02T10:40:15.014Z</time></trkpt><trkpt lat="42.2048906" lon="13.7290586"><ele>1131.5</ele><time>2026-05-02T10:40:17.014Z</time></trkpt><trkpt lat="42.2048383" lon="13.7289944"><ele>1131.0</ele><time>2026-05-02T10:40:20.014Z</time></trkpt><trkpt lat="42.2047535" lon="13.7289717"><ele>1130.5</ele><time>2026-05-02T10:40:23.014Z</time></trkpt><trkpt lat="42.2046552" lon="13.7289389"><ele>1130.0</ele><time>2026-05-02T10:40:25.014Z</time></trkpt><trkpt lat="42.2045896" lon="13.7289129"><ele>1129.5</ele><time>2026-05-02T10:40:26.014Z</time></trkpt><trkpt lat="42.2045247" lon="13.7288806"><ele>1129.0</ele><time>2026-05-02T10:40:27.014Z</time></trkpt><trkpt lat="42.2044107" lon="13.72882"><ele>1128.6000000000001</ele><time>2026-05-02T10:40:29.014Z</time></trkpt><trkpt lat="42.2043012" lon="13.7287656"><ele>1128.2</ele><time>2026-05-02T10:40:31.014Z</time></trkpt><trkpt lat="42.2041912" lon="13.7286961"><ele>1127.8000000000002</ele><time>2026-05-02T10:40:33.014Z</time></trkpt><trkpt lat="42.2041343" lon="13.7286441"><ele>1127.4</ele><time>2026-05-02T10:40:34.014Z</time></trkpt><trkpt lat="42.2040756" lon="13.7285951"><ele>1127.0</ele><time>2026-05-02T10:40:35.013Z</time></trkpt><trkpt lat="42.2040095" lon="13.7285387"><ele>1127.6666666666667</ele><time>2026-05-02T10:40:36.014Z</time></trkpt><trkpt lat="42.2039472" lon="13.7284711"><ele>1128.3333333333335</ele><time>2026-05-02T10:40:37.014Z</time></trkpt><trkpt lat="42.2038927" lon="13.7284234"><ele>1129.0</ele><time>2026-05-02T10:40:38.014Z</time></trkpt><trkpt lat="42.203775" lon="13.7283971"><ele>1129.6666666666667</ele><time>2026-05-02T10:40:40.014Z</time></trkpt><trkpt lat="42.2037105" lon="13.7284054"><ele>1130.3333333333333</ele><time>2026-05-02T10:40:41.013Z</time></trkpt><trkpt lat="42.2036392" lon="13.7284352"><ele>1131.0</ele><time>2026-05-02T10:40:42.014Z</time></trkpt><trkpt lat="42.2035608" lon="13.7284674"><ele>1131.0</ele><time>2026-05-02T10:40:43.014Z</time></trkpt><trkpt lat="42.2034731" lon="13.7284959"><ele>1131.0</ele><time>2026-05-02T10:40:44.014Z</time></trkpt><trkpt lat="42.2033843" lon="13.728526"><ele>1131.0</ele><time>2026-05-02T10:40:45.014Z</time></trkpt><trkpt lat="42.2033034" lon="13.7285584"><ele>1131.0</ele><time>2026-05-02T10:40:46.014Z</time></trkpt><trkpt lat="42.2032226" lon="13.7285857"><ele>1131.0</ele><time>2026-05-02T10:40:47.014Z</time></trkpt><trkpt lat="42.2031294" lon="13.7285914"><ele>1131.0</ele><time>2026-05-02T10:40:48.014Z</time></trkpt><trkpt lat="42.2030223" lon="13.7285848"><ele>1133.5</ele><time>2026-05-02T10:40:49.014Z</time></trkpt><trkpt lat="42.2029055" lon="13.7285863"><ele>1136.0</ele><time>2026-05-02T10:40:50.014Z</time></trkpt><trkpt lat="42.2027822" lon="13.7286037"><ele>1138.5</ele><time>2026-05-02T10:40:51.014Z</time></trkpt><trkpt lat="42.2026549" lon="13.7286271"><ele>1141.0</ele><time>2026-05-02T10:40:52.014Z</time></trkpt><trkpt lat="42.2025255" lon="13.7286475"><ele>1141.0</ele><time>2026-05-02T10:40:53.014Z</time></trkpt><trkpt lat="42.2024063" lon="13.7286547"><ele>1141.0</ele><time>2026-05-02T10:40:54.014Z</time></trkpt><trkpt lat="42.2023004" lon="13.7286389"><ele>1141.0</ele><time>2026-05-02T10:40:55.014Z</time></trkpt><trkpt lat="42.2021959" lon="13.7286014"><ele>1141.0</ele><time>2026-05-02T10:40:56.014Z</time></trkpt><trkpt lat="42.2020937" lon="13.7285536"><ele>1141.0</ele><time>2026-05-02T10:40:57.014Z</time></trkpt><trkpt lat="42.2020002" lon="13.7285174"><ele>1140.2</ele><time>2026-05-02T10:40:58.014Z</time></trkpt><trkpt lat="42.2019082" lon="13.7285033"><ele>1139.3999999999999</ele><time>2026-05-02T10:40:59.014Z</time></trkpt><trkpt lat="42.2018142" lon="13.7285073"><ele>1138.6</ele><time>2026-05-02T10:41:00.014Z</time></trkpt><trkpt lat="42.2017248" lon="13.7285219"><ele>1137.8</ele><time>2026-05-02T10:41:01.013Z</time></trkpt><trkpt lat="42.2016308" lon="13.728541"><ele>1137.0</ele><time>2026-05-02T10:41:02.014Z</time></trkpt><trkpt lat="42.20153" lon="13.7285587"><ele>1137.8</ele><time>2026-05-02T10:41:03.014Z</time></trkpt><trkpt lat="42.2014262" lon="13.7285759"><ele>1138.6</ele><time>2026-05-02T10:41:04.014Z</time></trkpt><trkpt lat="42.2013337" lon="13.7285916"><ele>1139.3999999999999</ele><time>2026-05-02T10:41:05.014Z</time></trkpt><trkpt lat="42.2012624" lon="13.7286032"><ele>1140.2</ele><time>2026-05-02T10:41:06.014Z</time></trkpt><trkpt lat="42.2011458" lon="13.7286203"><ele>1141.0</ele><time>2026-05-02T10:41:08.014Z</time></trkpt><trkpt lat="42.2010446" lon="13.7286165"><ele>1141.0</ele><time>2026-05-02T10:41:10.013Z</time></trkpt><trkpt lat="42.2009464" lon="13.7286099"><ele>1141.0</ele><time>2026-05-02T10:41:12.014Z</time></trkpt><trkpt lat="42.2008262" lon="13.7286041"><ele>1141.0</ele><time>2026-05-02T10:41:14.014Z</time></trkpt><trkpt lat="42.2007122" lon="13.7285849"><ele>1141.0</ele><time>2026-05-02T10:41:16.014Z</time></trkpt><trkpt lat="42.2006329" lon="13.7285175"><ele>1141.0</ele><time>2026-05-02T10:41:18.014Z</time></trkpt><trkpt lat="42.2005316" lon="13.7284451"><ele>1138.2857142857142</ele><time>2026-05-02T10:41:20.014Z</time></trkpt><trkpt lat="42.2004755" lon="13.7283996"><ele>1135.5714285714284</ele><time>2026-05-02T10:41:21.014Z</time></trkpt><trkpt lat="42.2004223" lon="13.7283405"><ele>1132.857142857143</ele><time>2026-05-02T10:41:22.014Z</time></trkpt><trkpt lat="42.2003792" lon="13.7282635"><ele>1130.142857142857</ele><time>2026-05-02T10:41:23.014Z</time></trkpt><trkpt lat="42.2003434" lon="13.7281785"><ele>1127.4285714285713</ele><time>2026-05-02T10:41:24.014Z</time></trkpt><trkpt lat="42.2003072" lon="13.7280938"><ele>1124.7142857142858</ele><time>2026-05-02T10:41:25.014Z</time></trkpt><trkpt lat="42.2002672" lon="13.7280052"><ele>1122.0</ele><time>2026-05-02T10:41:26.014Z</time></trkpt><trkpt lat="42.200221" lon="13.7279164"><ele>1122.0</ele><time>2026-05-02T10:41:27.014Z</time></trkpt><trkpt lat="42.2001589" lon="13.7278377"><ele>1122.0</ele><time>2026-05-02T10:41:28.014Z</time></trkpt><trkpt lat="42.2000871" lon="13.7277685"><ele>1122.0</ele><time>2026-05-02T10:41:29.014Z</time></trkpt><trkpt lat="42.2000129" lon="13.7277015"><ele>1122.0</ele><time>2026-05-02T10:41:30.014Z</time></trkpt><trkpt lat="42.1999376" lon="13.7276368"><ele>1122.0</ele><time>2026-05-02T10:41:31.014Z</time></trkpt><trkpt lat="42.199861" lon="13.7275795"><ele>1122.0</ele><time>2026-05-02T10:41:32.014Z</time></trkpt><trkpt lat="42.1997854" lon="13.7275298"><ele>1120.0</ele><time>2026-05-02T10:41:33.014Z</time></trkpt><trkpt lat="42.1997162" lon="13.7274861"><ele>1118.0</ele><time>2026-05-02T10:41:34.014Z</time></trkpt><trkpt lat="42.1996566" lon="13.7274405"><ele>1116.0</ele><time>2026-05-02T10:41:35.014Z</time></trkpt><trkpt lat="42.1996075" lon="13.7273847"><ele>1114.0</ele><time>2026-05-02T10:41:36.014Z</time></trkpt><trkpt lat="42.1995715" lon="13.7273116"><ele>1112.0</ele><time>2026-05-02T10:41:37.014Z</time></trkpt><trkpt lat="42.1995415" lon="13.7272292"><ele>1110.0</ele><time>2026-05-02T10:41:38.013Z</time></trkpt><trkpt lat="42.1994955" lon="13.7271633"><ele>1108.0</ele><time>2026-05-02T10:41:39.014Z</time></trkpt><trkpt lat="42.1994298" lon="13.727123"><ele>1108.0</ele><time>2026-05-02T10:41:40.014Z</time></trkpt><trkpt lat="42.1993591" lon="13.7270927"><ele>1108.0</ele><time>2026-05-02T10:41:41.014Z</time></trkpt><trkpt lat="42.1992866" lon="13.7270592"><ele>1108.0</ele><time>2026-05-02T10:41:42.014Z</time></trkpt><trkpt lat="42.1992088" lon="13.7270314"><ele>1108.0</ele><time>2026-05-02T10:41:43.014Z</time></trkpt><trkpt lat="42.1991286" lon="13.7270253"><ele>1108.0</ele><time>2026-05-02T10:41:44.014Z</time></trkpt><trkpt lat="42.1990564" lon="13.7270331"><ele>1108.0</ele><time>2026-05-02T10:41:45.014Z</time></trkpt><trkpt lat="42.1989433" lon="13.7270506"><ele>1107.6666666666665</ele><time>2026-05-02T10:41:47.014Z</time></trkpt><trkpt lat="42.1988749" lon="13.7270516"><ele>1107.3333333333333</ele><time>2026-05-02T10:41:48.014Z</time></trkpt><trkpt lat="42.1987998" lon="13.7270397"><ele>1107.0</ele><time>2026-05-02T10:41:49.014Z</time></trkpt><trkpt lat="42.1987232" lon="13.7270057"><ele>1106.6666666666667</ele><time>2026-05-02T10:41:50.014Z</time></trkpt><trkpt lat="42.1986509" lon="13.7269503"><ele>1106.3333333333335</ele><time>2026-05-02T10:41:51.014Z</time></trkpt><trkpt lat="42.1985842" lon="13.7268933"><ele>1106.0</ele><time>2026-05-02T10:41:52.014Z</time></trkpt><trkpt lat="42.1985188" lon="13.7268456"><ele>1104.1666666666667</ele><time>2026-05-02T10:41:53.014Z</time></trkpt><trkpt lat="42.1984518" lon="13.7268009"><ele>1102.3333333333335</ele><time>2026-05-02T10:41:54.014Z</time></trkpt><trkpt lat="42.1983806" lon="13.7267588"><ele>1100.5</ele><time>2026-05-02T10:41:55.014Z</time></trkpt><trkpt lat="42.19831" lon="13.7267204"><ele>1098.6666666666667</ele><time>2026-05-02T10:41:56.014Z</time></trkpt><trkpt lat="42.1982448" lon="13.7266844"><ele>1096.8333333333333</ele><time>2026-05-02T10:41:57.014Z</time></trkpt><trkpt lat="42.198145" lon="13.7266364"><ele>1095.0</ele><time>2026-05-02T10:41:59.014Z</time></trkpt><trkpt lat="42.198057" lon="13.7265915"><ele>1093.8</ele><time>2026-05-02T10:42:01.014Z</time></trkpt><trkpt lat="42.1979936" lon="13.7265074"><ele>1092.6</ele><time>2026-05-02T10:42:03.014Z</time></trkpt><trkpt lat="42.1979322" lon="13.7264015"><ele>1091.4</ele><time>2026-05-02T10:42:05.014Z</time></trkpt><trkpt lat="42.1978252" lon="13.7263729"><ele>1090.2</ele><time>2026-05-02T10:42:07.014Z</time></trkpt><trkpt lat="42.1977192" lon="13.726472"><ele>1089.0</ele><time>2026-05-02T10:42:09.013Z</time></trkpt><trkpt lat="42.1976812" lon="13.7265429"><ele>1089.0</ele><time>2026-05-02T10:42:10.014Z</time></trkpt><trkpt lat="42.1976434" lon="13.7266799"><ele>1089.0</ele><time>2026-05-02T10:42:12.014Z</time></trkpt><trkpt lat="42.1975981" lon="13.7268246"><ele>1089.0</ele><time>2026-05-02T10:42:14.014Z</time></trkpt><trkpt lat="42.1975" lon="13.7269238"><ele>1089.0</ele><time>2026-05-02T10:42:16.014Z</time></trkpt><trkpt lat="42.1974361" lon="13.7269675"><ele>1089.0</ele><time>2026-05-02T10:42:17.013Z</time></trkpt><trkpt lat="42.1973625" lon="13.7270067"><ele>1087.8</ele><time>2026-05-02T10:42:18.014Z</time></trkpt><trkpt lat="42.1972781" lon="13.7270367"><ele>1086.6000000000001</ele><time>2026-05-02T10:42:19.014Z</time></trkpt><trkpt lat="42.1971859" lon="13.7270594"><ele>1085.4</ele><time>2026-05-02T10:42:20.014Z</time></trkpt><trkpt lat="42.1970907" lon="13.7270848"><ele>1084.2</ele><time>2026-05-02T10:42:21.013Z</time></trkpt><trkpt lat="42.1969969" lon="13.727119"><ele>1083.0</ele><time>2026-05-02T10:42:22.014Z</time></trkpt><trkpt lat="42.1969073" lon="13.7271557"><ele>1083.0</ele><time>2026-05-02T10:42:23.013Z</time></trkpt><trkpt lat="42.1968317" lon="13.7271875"><ele>1083.0</ele><time>2026-05-02T10:42:24.014Z</time></trkpt><trkpt lat="42.1967643" lon="13.7272117"><ele>1083.0</ele><time>2026-05-02T10:42:25.014Z</time></trkpt><trkpt lat="42.1967006" lon="13.7272337"><ele>1083.0</ele><time>2026-05-02T10:42:26.013Z</time></trkpt><trkpt lat="42.1965936" lon="13.7272781"><ele>1083.0</ele><time>2026-05-02T10:42:28.014Z</time></trkpt><trkpt lat="42.1965096" lon="13.7273225"><ele>1083.0</ele><time>2026-05-02T10:42:30.014Z</time></trkpt><trkpt lat="42.1964308" lon="13.72728"><ele>1082.8333333333333</ele><time>2026-05-02T10:42:33.014Z</time></trkpt><trkpt lat="42.1964103" lon="13.7271744"><ele>1082.6666666666667</ele><time>2026-05-02T10:42:35.013Z</time></trkpt><trkpt lat="42.1964169" lon="13.7270094"><ele>1082.5</ele><time>2026-05-02T10:42:37.014Z</time></trkpt><trkpt lat="42.196432" lon="13.7269124"><ele>1082.3333333333335</ele><time>2026-05-02T10:42:38.014Z</time></trkpt><trkpt lat="42.1964472" lon="13.7268122"><ele>1082.1666666666667</ele><time>2026-05-02T10:42:39.014Z</time></trkpt><trkpt lat="42.1964667" lon="13.7267066"><ele>1082.0</ele><time>2026-05-02T10:42:40.014Z</time></trkpt><trkpt lat="42.1964931" lon="13.7266015"><ele>1083.0</ele><time>2026-05-02T10:42:41.013Z</time></trkpt><trkpt lat="42.1965182" lon="13.7264924"><ele>1084.0</ele><time>2026-05-02T10:42:42.014Z</time></trkpt><trkpt lat="42.1965352" lon="13.7263792"><ele>1085.0</ele><time>2026-05-02T10:42:43.014Z</time></trkpt><trkpt lat="42.1965447" lon="13.7262662"><ele>1086.0</ele><time>2026-05-02T10:42:44.014Z</time></trkpt><trkpt lat="42.1965564" lon="13.7261578"><ele>1087.0</ele><time>2026-05-02T10:42:45.014Z</time></trkpt><trkpt lat="42.1965805" lon="13.7260556"><ele>1088.0</ele><time>2026-05-02T10:42:46.014Z</time></trkpt><trkpt lat="42.19661" lon="13.7259615"><ele>1088.8333333333335</ele><time>2026-05-02T10:42:47.014Z</time></trkpt><trkpt lat="42.1966603" lon="13.7258868"><ele>1089.6666666666667</ele><time>2026-05-02T10:42:48.014Z</time></trkpt><trkpt lat="42.1967191" lon="13.7258273"><ele>1090.5</ele><time>2026-05-02T10:42:49.014Z</time></trkpt><trkpt lat="42.1967878" lon="13.7257795"><ele>1091.3333333333333</ele><time>2026-05-02T10:42:50.013Z</time></trkpt><trkpt lat="42.1968589" lon="13.7257462"><ele>1092.1666666666665</ele><time>2026-05-02T10:42:51.014Z</time></trkpt><trkpt lat="42.1969534" lon="13.7256675"><ele>1093.0</ele><time>2026-05-02T10:42:53.014Z</time></trkpt><trkpt lat="42.1970171" lon="13.7255396"><ele>1093.0</ele><time>2026-05-02T10:42:55.014Z</time></trkpt><trkpt lat="42.1970391" lon="13.7254227"><ele>1093.0</ele><time>2026-05-02T10:42:57.014Z</time></trkpt><trkpt lat="42.1970277" lon="13.7253198"><ele>1093.0</ele><time>2026-05-02T10:42:59.014Z</time></trkpt><trkpt lat="42.1970108" lon="13.7251747"><ele>1093.0</ele><time>2026-05-02T10:43:01.014Z</time></trkpt><trkpt lat="42.1970125" lon="13.7250763"><ele>1093.0</ele><time>2026-05-02T10:43:02.014Z</time></trkpt><trkpt lat="42.1970278" lon="13.7249654"><ele>1093.0</ele><time>2026-05-02T10:43:03.014Z</time></trkpt><trkpt lat="42.1970539" lon="13.7248466"><ele>1093.2</ele><time>2026-05-02T10:43:04.014Z</time></trkpt><trkpt lat="42.1970792" lon="13.7247152"><ele>1093.4</ele><time>2026-05-02T10:43:05.014Z</time></trkpt><trkpt lat="42.1970928" lon="13.7245735"><ele>1093.6000000000001</ele><time>2026-05-02T10:43:06.014Z</time></trkpt><trkpt lat="42.1970938" lon="13.7244326"><ele>1093.8</ele><time>2026-05-02T10:43:07.014Z</time></trkpt><trkpt lat="42.1970895" lon="13.7242998"><ele>1094.0</ele><time>2026-05-02T10:43:08.014Z</time></trkpt><trkpt lat="42.1970843" lon="13.7241756"><ele>1095.0</ele><time>2026-05-02T10:43:09.014Z</time></trkpt><trkpt lat="42.1970767" lon="13.7240594"><ele>1096.0</ele><time>2026-05-02T10:43:10.013Z</time></trkpt><trkpt lat="42.1970626" lon="13.7239563"><ele>1097.0</ele><time>2026-05-02T10:43:11.014Z</time></trkpt><trkpt lat="42.1970426" lon="13.7238702"><ele>1098.0</ele><time>2026-05-02T10:43:12.014Z</time></trkpt><trkpt lat="42.1970073" lon="13.7237224"><ele>1099.0</ele><time>2026-05-02T10:43:14.014Z</time></trkpt><trkpt lat="42.1970044" lon="13.7236371"><ele>1100.0</ele><time>2026-05-02T10:43:15.014Z</time></trkpt><trkpt lat="42.1970076" lon="13.7235358"><ele>1100.0</ele><time>2026-05-02T10:43:16.014Z</time></trkpt><trkpt lat="42.1970231" lon="13.7234302"><ele>1100.0</ele><time>2026-05-02T10:43:17.014Z</time></trkpt><trkpt lat="42.1970463" lon="13.7233209"><ele>1100.0</ele><time>2026-05-02T10:43:18.014Z</time></trkpt><trkpt lat="42.1970664" lon="13.7232072"><ele>1100.0</ele><time>2026-05-02T10:43:19.013Z</time></trkpt><trkpt lat="42.1970833" lon="13.7230912"><ele>1100.0</ele><time>2026-05-02T10:43:20.014Z</time></trkpt><trkpt lat="42.1971053" lon="13.7229712"><ele>1100.0</ele><time>2026-05-02T10:43:21.014Z</time></trkpt><trkpt lat="42.1971366" lon="13.7228454"><ele>1100.0</ele><time>2026-05-02T10:43:22.014Z</time></trkpt><trkpt lat="42.1971852" lon="13.7227151"><ele>1100.0</ele><time>2026-05-02T10:43:23.014Z</time></trkpt><trkpt lat="42.1972407" lon="13.7225849"><ele>1100.0</ele><time>2026-05-02T10:43:24.014Z</time></trkpt><trkpt lat="42.1972959" lon="13.722458"><ele>1100.0</ele><time>2026-05-02T10:43:25.014Z</time></trkpt><trkpt lat="42.1973522" lon="13.7223329"><ele>1100.0</ele><time>2026-05-02T10:43:26.014Z</time></trkpt><trkpt lat="42.197407" lon="13.7222056"><ele>1098.6</ele><time>2026-05-02T10:43:27.014Z</time></trkpt><trkpt lat="42.197457" lon="13.7220753"><ele>1097.2</ele><time>2026-05-02T10:43:28.014Z</time></trkpt><trkpt lat="42.1975043" lon="13.7219496"><ele>1095.8</ele><time>2026-05-02T10:43:29.014Z</time></trkpt><trkpt lat="42.1975488" lon="13.7218447"><ele>1094.4</ele><time>2026-05-02T10:43:30.014Z</time></trkpt><trkpt lat="42.1975953" lon="13.7217643"><ele>1093.0</ele><time>2026-05-02T10:43:31.013Z</time></trkpt><trkpt lat="42.1976504" lon="13.7217027"><ele>1092.8</ele><time>2026-05-02T10:43:32.014Z</time></trkpt><trkpt lat="42.1977196" lon="13.7216522"><ele>1092.6</ele><time>2026-05-02T10:43:33.014Z</time></trkpt><trkpt lat="42.1978015" lon="13.7215987"><ele>1092.4</ele><time>2026-05-02T10:43:34.013Z</time></trkpt><trkpt lat="42.1978881" lon="13.7215333"><ele>1092.2</ele><time>2026-05-02T10:43:35.013Z</time></trkpt><trkpt lat="42.197971" lon="13.7214565"><ele>1092.0</ele><time>2026-05-02T10:43:36.014Z</time></trkpt><trkpt lat="42.1980463" lon="13.7213694"><ele>1092.0</ele><time>2026-05-02T10:43:37.014Z</time></trkpt><trkpt lat="42.1981166" lon="13.7212891"><ele>1092.0</ele><time>2026-05-02T10:43:38.014Z</time></trkpt><trkpt lat="42.1981813" lon="13.7212158"><ele>1092.0</ele><time>2026-05-02T10:43:39.013Z</time></trkpt><trkpt lat="42.1982371" lon="13.7211491"><ele>1092.0</ele><time>2026-05-02T10:43:40.014Z</time></trkpt><trkpt lat="42.1982871" lon="13.7210903"><ele>1092.0</ele><time>2026-05-02T10:43:41.014Z</time></trkpt><trkpt lat="42.198381" lon="13.7209897"><ele>1092.0</ele><time>2026-05-02T10:43:43.014Z</time></trkpt><trkpt lat="42.1984854" lon="13.7208777"><ele>1089.4</ele><time>2026-05-02T10:43:45.014Z</time></trkpt><trkpt lat="42.1985504" lon="13.7208073"><ele>1086.8000000000002</ele><time>2026-05-02T10:43:46.014Z</time></trkpt><trkpt lat="42.1986199" lon="13.7207382"><ele>1084.2</ele><time>2026-05-02T10:43:47.014Z</time></trkpt><trkpt lat="42.1986983" lon="13.7206622"><ele>1081.6000000000001</ele><time>2026-05-02T10:43:48.014Z</time></trkpt><trkpt lat="42.1987854" lon="13.7205857"><ele>1079.0</ele><time>2026-05-02T10:43:49.014Z</time></trkpt><trkpt lat="42.1988775" lon="13.7205091"><ele>1079.0</ele><time>2026-05-02T10:43:50.014Z</time></trkpt><trkpt lat="42.1989669" lon="13.720434"><ele>1079.0</ele><time>2026-05-02T10:43:51.013Z</time></trkpt><trkpt lat="42.1990508" lon="13.720369"><ele>1079.0</ele><time>2026-05-02T10:43:52.014Z</time></trkpt><trkpt lat="42.1991264" lon="13.7203033"><ele>1079.0</ele><time>2026-05-02T10:43:53.014Z</time></trkpt><trkpt lat="42.1991958" lon="13.720245"><ele>1079.0</ele><time>2026-05-02T10:43:54.014Z</time></trkpt><trkpt lat="42.1992515" lon="13.7201918"><ele>1079.0</ele><time>2026-05-02T10:43:55.014Z</time></trkpt><trkpt lat="42.1993389" lon="13.7201181"><ele>1076.5</ele><time>2026-05-02T10:43:57.014Z</time></trkpt><trkpt lat="42.1993885" lon="13.7200622"><ele>1074.0</ele><time>2026-05-02T10:43:59.014Z</time></trkpt><trkpt lat="42.199413" lon="13.7199796"><ele>1071.5</ele><time>2026-05-02T10:44:01.014Z</time></trkpt><trkpt lat="42.1994418" lon="13.7198366"><ele>1069.0</ele><time>2026-05-02T10:44:03.013Z</time></trkpt><trkpt lat="42.1994679" lon="13.7197325"><ele>1066.5</ele><time>2026-05-02T10:44:04.014Z</time></trkpt><trkpt lat="42.1995072" lon="13.7196312"><ele>1064.0</ele><time>2026-05-02T10:44:05.014Z</time></trkpt><trkpt lat="42.1995489" lon="13.7195315"><ele>1064.0</ele><time>2026-05-02T10:44:06.014Z</time></trkpt><trkpt lat="42.1995931" lon="13.7194372"><ele>1064.0</ele><time>2026-05-02T10:44:07.014Z</time></trkpt><trkpt lat="42.1996363" lon="13.7193364"><ele>1064.0</ele><time>2026-05-02T10:44:08.014Z</time></trkpt><trkpt lat="42.1996609" lon="13.7192133"><ele>1064.0</ele><time>2026-05-02T10:44:09.014Z</time></trkpt><trkpt lat="42.1996953" lon="13.7191072"><ele>1064.0</ele><time>2026-05-02T10:44:10.014Z</time></trkpt><trkpt lat="42.1997339" lon="13.719008"><ele>1064.0</ele><time>2026-05-02T10:44:11.014Z</time></trkpt><trkpt lat="42.1997733" lon="13.7189176"><ele>1064.8333333333335</ele><time>2026-05-02T10:44:12.014Z</time></trkpt><trkpt lat="42.1998302" lon="13.7188303"><ele>1065.6666666666667</ele><time>2026-05-02T10:44:13.013Z</time></trkpt><trkpt lat="42.1998835" lon="13.7187507"><ele>1066.5</ele><time>2026-05-02T10:44:14.014Z</time></trkpt><trkpt lat="42.1999403" lon="13.7186638"><ele>1067.3333333333333</ele><time>2026-05-02T10:44:15.014Z</time></trkpt><trkpt lat="42.1999961" lon="13.7185699"><ele>1068.1666666666665</ele><time>2026-05-02T10:44:16.014Z</time></trkpt><trkpt lat="42.2000492" lon="13.7184661"><ele>1069.0</ele><time>2026-05-02T10:44:17.014Z</time></trkpt><trkpt lat="42.2000978" lon="13.7183624"><ele>1067.3333333333333</ele><time>2026-05-02T10:44:18.014Z</time></trkpt><trkpt lat="42.2001444" lon="13.718263"><ele>1065.6666666666665</ele><time>2026-05-02T10:44:19.014Z</time></trkpt><trkpt lat="42.2001903" lon="13.7181919"><ele>1064.0</ele><time>2026-05-02T10:44:20.013Z</time></trkpt><trkpt lat="42.2002312" lon="13.718126"><ele>1062.3333333333333</ele><time>2026-05-02T10:44:21.013Z</time></trkpt><trkpt lat="42.2002489" lon="13.718037"><ele>1060.6666666666667</ele><time>2026-05-02T10:44:22.014Z</time></trkpt><trkpt lat="42.2002689" lon="13.7178653"><ele>1059.0</ele><time>2026-05-02T10:44:24.014Z</time></trkpt><trkpt lat="42.2002828" lon="13.7177648"><ele>1058.8333333333333</ele><time>2026-05-02T10:44:25.014Z</time></trkpt><trkpt lat="42.2002807" lon="13.7176647"><ele>1058.6666666666667</ele><time>2026-05-02T10:44:26.014Z</time></trkpt><trkpt lat="42.2002646" lon="13.7175614"><ele>1058.5</ele><time>2026-05-02T10:44:27.014Z</time></trkpt><trkpt lat="42.2002262" lon="13.7174492"><ele>1058.3333333333335</ele><time>2026-05-02T10:44:28.014Z</time></trkpt><trkpt lat="42.2001799" lon="13.7173316"><ele>1058.1666666666667</ele><time>2026-05-02T10:44:29.014Z</time></trkpt><trkpt lat="42.20013" lon="13.7172091"><ele>1058.0</ele><time>2026-05-02T10:44:30.014Z</time></trkpt><trkpt lat="42.2000874" lon="13.7170735"><ele>1058.0</ele><time>2026-05-02T10:44:31.014Z</time></trkpt><trkpt lat="42.2000564" lon="13.7169305"><ele>1058.0</ele><time>2026-05-02T10:44:32.014Z</time></trkpt><trkpt lat="42.200025" lon="13.7167847"><ele>1058.0</ele><time>2026-05-02T10:44:33.014Z</time></trkpt><trkpt lat="42.199991" lon="13.7166441"><ele>1058.0</ele><time>2026-05-02T10:44:34.014Z</time></trkpt><trkpt lat="42.1999593" lon="13.7165188"><ele>1058.0</ele><time>2026-05-02T10:44:35.014Z</time></trkpt><trkpt lat="42.1999456" lon="13.7164021"><ele>1058.2</ele><time>2026-05-02T10:44:36.014Z</time></trkpt><trkpt lat="42.199955" lon="13.7162873"><ele>1058.4</ele><time>2026-05-02T10:44:37.014Z</time></trkpt><trkpt lat="42.1999863" lon="13.7161721"><ele>1058.6000000000001</ele><time>2026-05-02T10:44:38.014Z</time></trkpt><trkpt lat="42.2000367" lon="13.7160459"><ele>1058.8</ele><time>2026-05-02T10:44:39.014Z</time></trkpt><trkpt lat="42.2001009" lon="13.7159164"><ele>1059.0</ele><time>2026-05-02T10:44:40.014Z</time></trkpt><trkpt lat="42.2001643" lon="13.7157938"><ele>1059.2</ele><time>2026-05-02T10:44:41.014Z</time></trkpt><trkpt lat="42.2002117" lon="13.7156757"><ele>1059.4</ele><time>2026-05-02T10:44:42.014Z</time></trkpt><trkpt lat="42.2002426" lon="13.7155592"><ele>1059.6</ele><time>2026-05-02T10:44:43.014Z</time></trkpt><trkpt lat="42.2002642" lon="13.7154372"><ele>1059.8</ele><time>2026-05-02T10:44:44.014Z</time></trkpt><trkpt lat="42.2002847" lon="13.7153041"><ele>1060.0</ele><time>2026-05-02T10:44:45.014Z</time></trkpt><trkpt lat="42.2003014" lon="13.7151634"><ele>1060.1666666666665</ele><time>2026-05-02T10:44:46.014Z</time></trkpt><trkpt lat="42.2003169" lon="13.7150292"><ele>1060.3333333333333</ele><time>2026-05-02T10:44:47.014Z</time></trkpt><trkpt lat="42.2003297" lon="13.7149175"><ele>1060.5</ele><time>2026-05-02T10:44:48.014Z</time></trkpt><trkpt lat="42.200359" lon="13.7148131"><ele>1060.6666666666667</ele><time>2026-05-02T10:44:49.014Z</time></trkpt><trkpt lat="42.2003966" lon="13.7147038"><ele>1060.8333333333335</ele><time>2026-05-02T10:44:50.014Z</time></trkpt><trkpt lat="42.2004318" lon="13.714593"><ele>1061.0</ele><time>2026-05-02T10:44:51.013Z</time></trkpt><trkpt lat="42.2004535" lon="13.714476"><ele>1060.75</ele><time>2026-05-02T10:44:52.014Z</time></trkpt><trkpt lat="42.2004737" lon="13.7143358"><ele>1060.5</ele><time>2026-05-02T10:44:53.014Z</time></trkpt><trkpt lat="42.2005019" lon="13.7141625"><ele>1060.25</ele><time>2026-05-02T10:44:54.014Z</time></trkpt><trkpt lat="42.2005205" lon="13.7140006"><ele>1060.0</ele><time>2026-05-02T10:44:55.014Z</time></trkpt><trkpt lat="42.2005259" lon="13.7138447"><ele>1060.0</ele><time>2026-05-02T10:44:56.014Z</time></trkpt><trkpt lat="42.2005449" lon="13.7136869"><ele>1060.0</ele><time>2026-05-02T10:44:57.014Z</time></trkpt><trkpt lat="42.2005703" lon="13.7135345"><ele>1060.0</ele><time>2026-05-02T10:44:58.013Z</time></trkpt><trkpt lat="42.200597" lon="13.7133815"><ele>1060.0</ele><time>2026-05-02T10:44:59.014Z</time></trkpt><trkpt lat="42.2006236" lon="13.7132309"><ele>1059.4</ele><time>2026-05-02T10:45:00.014Z</time></trkpt><trkpt lat="42.2006639" lon="13.7131044"><ele>1058.8</ele><time>2026-05-02T10:45:01.014Z</time></trkpt><trkpt lat="42.2007109" lon="13.7129852"><ele>1058.2</ele><time>2026-05-02T10:45:02.014Z</time></trkpt><trkpt lat="42.2007707" lon="13.712858"><ele>1057.6</ele><time>2026-05-02T10:45:03.013Z</time></trkpt><trkpt lat="42.2008336" lon="13.7127243"><ele>1057.0</ele><time>2026-05-02T10:45:04.014Z</time></trkpt><trkpt lat="42.2008835" lon="13.7125888"><ele>1052.8</ele><time>2026-05-02T10:45:05.013Z</time></trkpt><trkpt lat="42.2009293" lon="13.7124666"><ele>1048.6</ele><time>2026-05-02T10:45:06.014Z</time></trkpt><trkpt lat="42.2009736" lon="13.712353"><ele>1044.3999999999999</ele><time>2026-05-02T10:45:07.014Z</time></trkpt><trkpt lat="42.2010033" lon="13.7122318"><ele>1040.2</ele><time>2026-05-02T10:45:08.014Z</time></trkpt><trkpt lat="42.2010262" lon="13.7121004"><ele>1036.0</ele><time>2026-05-02T10:45:09.014Z</time></trkpt><trkpt lat="42.2010508" lon="13.7119684"><ele>1035.5</ele><time>2026-05-02T10:45:10.014Z</time></trkpt><trkpt lat="42.2010826" lon="13.7118582"><ele>1035.0</ele><time>2026-05-02T10:45:11.013Z</time></trkpt><trkpt lat="42.2011096" lon="13.711761"><ele>1034.5</ele><time>2026-05-02T10:45:12.014Z</time></trkpt><trkpt lat="42.2011294" lon="13.7116601"><ele>1034.0</ele><time>2026-05-02T10:45:13.014Z</time></trkpt><trkpt lat="42.2011423" lon="13.7115542"><ele>1033.5</ele><time>2026-05-02T10:45:14.014Z</time></trkpt><trkpt lat="42.2011451" lon="13.7114407"><ele>1033.0</ele><time>2026-05-02T10:45:15.014Z</time></trkpt><trkpt lat="42.2011357" lon="13.7113261"><ele>1033.0</ele><time>2026-05-02T10:45:16.014Z</time></trkpt><trkpt lat="42.201118" lon="13.7112079"><ele>1033.0</ele><time>2026-05-02T10:45:17.013Z</time></trkpt><trkpt lat="42.2010987" lon="13.7110747"><ele>1033.0</ele><time>2026-05-02T10:45:18.014Z</time></trkpt><trkpt lat="42.201084" lon="13.7109366"><ele>1033.0</ele><time>2026-05-02T10:45:19.014Z</time></trkpt><trkpt lat="42.201073" lon="13.7108085"><ele>1033.0</ele><time>2026-05-02T10:45:20.014Z</time></trkpt><trkpt lat="42.2010654" lon="13.710688"><ele>1032.3333333333333</ele><time>2026-05-02T10:45:21.014Z</time></trkpt><trkpt lat="42.2010697" lon="13.710565"><ele>1031.6666666666665</ele><time>2026-05-02T10:45:22.014Z</time></trkpt><trkpt lat="42.2010893" lon="13.7104398"><ele>1031.0</ele><time>2026-05-02T10:45:23.014Z</time></trkpt><trkpt lat="42.2011115" lon="13.7103152"><ele>1030.3333333333333</ele><time>2026-05-02T10:45:24.014Z</time></trkpt><trkpt lat="42.2011304" lon="13.710197"><ele>1029.6666666666667</ele><time>2026-05-02T10:45:25.014Z</time></trkpt><trkpt lat="42.2011489" lon="13.7101042"><ele>1029.0</ele><time>2026-05-02T10:45:26.014Z</time></trkpt><trkpt lat="42.2011843" lon="13.7099484"><ele>1028.8</ele><time>2026-05-02T10:45:28.014Z</time></trkpt><trkpt lat="42.2012019" lon="13.7098403"><ele>1028.6000000000001</ele><time>2026-05-02T10:45:29.014Z</time></trkpt><trkpt lat="42.2012183" lon="13.7097247"><ele>1028.4</ele><time>2026-05-02T10:45:30.014Z</time></trkpt><trkpt lat="42.201248" lon="13.7095999"><ele>1028.2</ele><time>2026-05-02T10:45:31.014Z</time></trkpt><trkpt lat="42.2012795" lon="13.7094691"><ele>1028.0</ele><time>2026-05-02T10:45:32.014Z</time></trkpt><trkpt lat="42.2013083" lon="13.7093361"><ele>1028.4</ele><time>2026-05-02T10:45:33.014Z</time></trkpt><trkpt lat="42.2013265" lon="13.7092115"><ele>1028.8</ele><time>2026-05-02T10:45:34.014Z</time></trkpt><trkpt lat="42.20134" lon="13.7090905"><ele>1029.2</ele><time>2026-05-02T10:45:35.013Z</time></trkpt><trkpt lat="42.201358" lon="13.7089741"><ele>1029.6</ele><time>2026-05-02T10:45:36.014Z</time></trkpt><trkpt lat="42.2013847" lon="13.7088657"><ele>1030.0</ele><time>2026-05-02T10:45:37.014Z</time></trkpt><trkpt lat="42.2014209" lon="13.7087505"><ele>1030.0</ele><time>2026-05-02T10:45:38.014Z</time></trkpt><trkpt lat="42.2014584" lon="13.7086245"><ele>1030.0</ele><time>2026-05-02T10:45:39.014Z</time></trkpt><trkpt lat="42.2014898" lon="13.7085044"><ele>1030.0</ele><time>2026-05-02T10:45:40.013Z</time></trkpt><trkpt lat="42.2015168" lon="13.7083946"><ele>1030.0</ele><time>2026-05-02T10:45:41.014Z</time></trkpt><trkpt lat="42.201534" lon="13.7082988"><ele>1030.0</ele><time>2026-05-02T10:45:42.013Z</time></trkpt><trkpt lat="42.2015432" lon="13.7082009"><ele>1030.0</ele><time>2026-05-02T10:45:43.014Z</time></trkpt><trkpt lat="42.201554" lon="13.708085"><ele>1025.2</ele><time>2026-05-02T10:45:44.013Z</time></trkpt><trkpt lat="42.2015663" lon="13.7079753"><ele>1020.4</ele><time>2026-05-02T10:45:45.014Z</time></trkpt><trkpt lat="42.2015782" lon="13.7078715"><ele>1015.5999999999999</ele><time>2026-05-02T10:45:46.014Z</time></trkpt><trkpt lat="42.2015912" lon="13.7077804"><ele>1010.8</ele><time>2026-05-02T10:45:47.014Z</time></trkpt><trkpt lat="42.2016326" lon="13.7076336"><ele>1006.0</ele><time>2026-05-02T10:45:49.014Z</time></trkpt><trkpt lat="42.2016786" lon="13.7074871"><ele>1004.6666666666666</ele><time>2026-05-02T10:45:51.014Z</time></trkpt><trkpt lat="42.201708" lon="13.7073398"><ele>1003.3333333333333</ele><time>2026-05-02T10:45:53.014Z</time></trkpt><trkpt lat="42.2017138" lon="13.7072373"><ele>1002.0</ele><time>2026-05-02T10:45:55.013Z</time></trkpt><trkpt lat="42.2017245" lon="13.7071312"><ele>1000.6666666666667</ele><time>2026-05-02T10:45:57.014Z</time></trkpt><trkpt lat="42.2017444" lon="13.7070356"><ele>999.3333333333334</ele><time>2026-05-02T10:45:59.014Z</time></trkpt><trkpt lat="42.2017813" lon="13.7069268"><ele>998.0</ele><time>2026-05-02T10:46:01.014Z</time></trkpt><trkpt lat="42.201828" lon="13.7068203"><ele>996.8333333333334</ele><time>2026-05-02T10:46:03.014Z</time></trkpt><trkpt lat="42.2018559" lon="13.7067299"><ele>995.6666666666667</ele><time>2026-05-02T10:46:05.014Z</time></trkpt><trkpt lat="42.2018551" lon="13.7066309"><ele>994.5</ele><time>2026-05-02T10:46:07.014Z</time></trkpt><trkpt lat="42.2018363" lon="13.7064848"><ele>993.3333333333333</ele><time>2026-05-02T10:46:09.014Z</time></trkpt><trkpt lat="42.2018186" lon="13.7063496"><ele>992.1666666666666</ele><time>2026-05-02T10:46:11.014Z</time></trkpt><trkpt lat="42.2017839" lon="13.706243"><ele>991.0</ele><time>2026-05-02T10:46:13.014Z</time></trkpt><trkpt lat="42.2017048" lon="13.7061525"><ele>990.9999999999999</ele><time>2026-05-02T10:46:15.014Z</time></trkpt><trkpt lat="42.2016024" lon="13.7061092"><ele>991.0</ele><time>2026-05-02T10:46:17.013Z</time></trkpt><trkpt lat="42.2015303" lon="13.706064"><ele>991.0</ele><time>2026-05-02T10:46:19.014Z</time></trkpt><trkpt lat="42.2015115" lon="13.7059625"><ele>991.0</ele><time>2026-05-02T10:46:21.014Z</time></trkpt><trkpt lat="42.2015265" lon="13.7058437"><ele>990.9999999999999</ele><time>2026-05-02T10:46:23.013Z</time></trkpt><trkpt lat="42.201535" lon="13.7057266"><ele>991.0</ele><time>2026-05-02T10:46:25.014Z</time></trkpt><trkpt lat="42.2015045" lon="13.7056476"><ele>992.1666666666666</ele><time>2026-05-02T10:46:26.014Z</time></trkpt><trkpt lat="42.2014641" lon="13.7055466"><ele>993.3333333333333</ele><time>2026-05-02T10:46:27.013Z</time></trkpt><trkpt lat="42.2014276" lon="13.7054354"><ele>994.5</ele><time>2026-05-02T10:46:28.014Z</time></trkpt><trkpt lat="42.2013918" lon="13.7053201"><ele>995.6666666666667</ele><time>2026-05-02T10:46:29.014Z</time></trkpt><trkpt lat="42.201363" lon="13.7052096"><ele>996.8333333333334</ele><time>2026-05-02T10:46:30.013Z</time></trkpt><trkpt lat="42.2013438" lon="13.7051036"><ele>998.0</ele><time>2026-05-02T10:46:31.014Z</time></trkpt><trkpt lat="42.2013382" lon="13.7049942"><ele>995.1428571428573</ele><time>2026-05-02T10:46:32.014Z</time></trkpt><trkpt lat="42.2013417" lon="13.7048768"><ele>992.2857142857143</ele><time>2026-05-02T10:46:33.014Z</time></trkpt><trkpt lat="42.2013446" lon="13.7047603"><ele>989.4285714285716</ele><time>2026-05-02T10:46:34.014Z</time></trkpt><trkpt lat="42.2013441" lon="13.7046618"><ele>986.5714285714287</ele><time>2026-05-02T10:46:35.014Z</time></trkpt><trkpt lat="42.2013473" lon="13.7045742"><ele>983.7142857142858</ele><time>2026-05-02T10:46:36.013Z</time></trkpt><trkpt lat="42.2013566" lon="13.7044878"><ele>980.8571428571429</ele><time>2026-05-02T10:46:37.014Z</time></trkpt><trkpt lat="42.2013631" lon="13.7044018"><ele>978.0</ele><time>2026-05-02T10:46:38.014Z</time></trkpt><trkpt lat="42.2013661" lon="13.704255"><ele>973.8</ele><time>2026-05-02T10:46:40.014Z</time></trkpt><trkpt lat="42.2013675" lon="13.7041303"><ele>969.5999999999999</ele><time>2026-05-02T10:46:42.014Z</time></trkpt><trkpt lat="42.2013834" lon="13.7039952"><ele>965.4000000000001</ele><time>2026-05-02T10:46:44.014Z</time></trkpt><trkpt lat="42.2014141" lon="13.7038695"><ele>961.2</ele><time>2026-05-02T10:46:46.014Z</time></trkpt><trkpt lat="42.2014414" lon="13.7037528"><ele>957.0</ele><time>2026-05-02T10:46:48.014Z</time></trkpt><trkpt lat="42.2014672" lon="13.7036206"><ele>960.4000000000001</ele><time>2026-05-02T10:46:50.014Z</time></trkpt><trkpt lat="42.2014895" lon="13.7034773"><ele>963.8000000000001</ele><time>2026-05-02T10:46:52.014Z</time></trkpt><trkpt lat="42.2014994" lon="13.7033375"><ele>967.2</ele><time>2026-05-02T10:46:54.014Z</time></trkpt><trkpt lat="42.2015057" lon="13.703225"><ele>970.6</ele><time>2026-05-02T10:46:56.014Z</time></trkpt><trkpt lat="42.2014746" lon="13.7031018"><ele>974.0</ele><time>2026-05-02T10:47:00.014Z</time></trkpt><trkpt lat="42.2014428" lon="13.7030183"><ele>967.8333333333334</ele><time>2026-05-02T10:47:03.014Z</time></trkpt><trkpt lat="42.2013809" lon="13.7029889"><ele>961.6666666666667</ele><time>2026-05-02T10:47:22.014Z</time></trkpt><trkpt lat="42.2013142" lon="13.7029672"><ele>955.5</ele><time>2026-05-02T10:47:24.014Z</time></trkpt><trkpt lat="42.2012338" lon="13.7029416"><ele>949.3333333333333</ele><time>2026-05-02T10:47:26.014Z</time></trkpt><trkpt lat="42.2011518" lon="13.702907"><ele>943.1666666666666</ele><time>2026-05-02T10:47:28.014Z</time></trkpt><trkpt lat="42.2011294" lon="13.7027998"><ele>937.0</ele><time>2026-05-02T10:47:29.014Z</time></trkpt><trkpt lat="42.2011128" lon="13.702678"><ele>937.0</ele><time>2026-05-02T10:47:30.013Z</time></trkpt><trkpt lat="42.2010354" lon="13.7025681"><ele>937.0</ele><time>2026-05-02T10:47:32.014Z</time></trkpt><trkpt lat="42.200947" lon="13.7024675"><ele>937.0</ele><time>2026-05-02T10:47:34.014Z</time></trkpt><trkpt lat="42.2008425" lon="13.7023939"><ele>937.0</ele><time>2026-05-02T10:47:36.014Z</time></trkpt><trkpt lat="42.2007318" lon="13.7023309"><ele>931.0</ele><time>2026-05-02T10:47:38.014Z</time></trkpt><trkpt lat="42.2006243" lon="13.7022906"><ele>925.0</ele><time>2026-05-02T10:47:40.013Z</time></trkpt><trkpt lat="42.2005158" lon="13.7022588"><ele>919.0</ele><time>2026-05-02T10:47:42.014Z</time></trkpt><trkpt lat="42.2004118" lon="13.7022367"><ele>913.0</ele><time>2026-05-02T10:47:44.014Z</time></trkpt><trkpt lat="42.2003167" lon="13.7022344"><ele>907.0</ele><time>2026-05-02T10:47:46.014Z</time></trkpt><trkpt lat="42.2002459" lon="13.7022156"><ele>906.9999999999999</ele><time>2026-05-02T10:47:48.014Z</time></trkpt><trkpt lat="42.200189" lon="13.7021743"><ele>907.0</ele><time>2026-05-02T10:47:50.014Z</time></trkpt><trkpt lat="42.2001581" lon="13.7020858"><ele>907.0</ele><time>2026-05-02T10:47:52.014Z</time></trkpt><trkpt lat="42.2001463" lon="13.7019434"><ele>907.0</ele><time>2026-05-02T10:47:55.014Z</time></trkpt><trkpt lat="42.2001159" lon="13.7018179"><ele>906.9999999999999</ele><time>2026-05-02T10:47:57.014Z</time></trkpt><trkpt lat="42.2000869" lon="13.7017255"><ele>907.0</ele><time>2026-05-02T10:47:59.014Z</time></trkpt><trkpt lat="42.2000555" lon="13.7016404"><ele>907.4999999999999</ele><time>2026-05-02T10:48:01.031Z</time></trkpt><trkpt lat="42.2000194" lon="13.7015409"><ele>908.0</ele><time>2026-05-02T10:48:03.014Z</time></trkpt><trkpt lat="42.1999803" lon="13.7014355"><ele>908.5</ele><time>2026-05-02T10:48:06.014Z</time></trkpt><trkpt lat="42.2000068" lon="13.7013444"><ele>909.0</ele><time>2026-05-02T10:48:08.015Z</time></trkpt><trkpt lat="42.2000439" lon="13.7012488"><ele>909.4999999999999</ele><time>2026-05-02T10:48:10.014Z</time></trkpt><trkpt lat="42.2000493" lon="13.7011358"><ele>910.0</ele><time>2026-05-02T10:48:12.014Z</time></trkpt><trkpt lat="42.2000574" lon="13.7010178"><ele>908.9999999999999</ele><time>2026-05-02T10:48:14.014Z</time></trkpt><trkpt lat="42.2000686" lon="13.7009059"><ele>908.0</ele><time>2026-05-02T10:48:16.014Z</time></trkpt><trkpt lat="42.200084" lon="13.7008038"><ele>907.0</ele><time>2026-05-02T10:48:18.014Z</time></trkpt><trkpt lat="42.2000987" lon="13.700712"><ele>906.0</ele><time>2026-05-02T10:48:20.014Z</time></trkpt><trkpt lat="42.2000886" lon="13.7006214"><ele>904.9999999999999</ele><time>2026-05-02T10:48:21.952Z</time></trkpt><trkpt lat="42.2000413" lon="13.7005149"><ele>904.0</ele><time>2026-05-02T10:48:24.014Z</time></trkpt><trkpt lat="42.2000309" lon="13.7003575"><ele>903.8333333333333</ele><time>2026-05-02T10:48:26.014Z</time></trkpt><trkpt lat="42.2000368" lon="13.7002118"><ele>903.6666666666666</ele><time>2026-05-02T10:48:28.013Z</time></trkpt><trkpt lat="42.2000587" lon="13.7000912"><ele>903.5</ele><time>2026-05-02T10:48:30.014Z</time></trkpt><trkpt lat="42.2000529" lon="13.6999968"><ele>903.3333333333333</ele><time>2026-05-02T10:48:32.014Z</time></trkpt><trkpt lat="42.2000021" lon="13.6999246"><ele>903.1666666666666</ele><time>2026-05-02T10:48:34.014Z</time></trkpt><trkpt lat="42.1999286" lon="13.69987"><ele>903.0</ele><time>2026-05-02T10:48:36.014Z</time></trkpt><trkpt lat="42.1998593" lon="13.6998246"><ele>892.5999999999999</ele><time>2026-05-02T10:48:38.014Z</time></trkpt><trkpt lat="42.1998073" lon="13.6997539"><ele>882.1999999999999</ele><time>2026-05-02T10:48:39.929Z</time></trkpt><trkpt lat="42.1997735" lon="13.6996706"><ele>871.8</ele><time>2026-05-02T10:48:41.013Z</time></trkpt><trkpt lat="42.1997247" lon="13.6995225"><ele>861.4</ele><time>2026-05-02T10:48:43.014Z</time></trkpt><trkpt lat="42.1996878" lon="13.699379"><ele>851.0</ele><time>2026-05-02T10:48:45.014Z</time></trkpt><trkpt lat="42.1996609" lon="13.6992767"><ele>851.0</ele><time>2026-05-02T10:48:47.014Z</time></trkpt><trkpt lat="42.1996164" lon="13.699173"><ele>851.0</ele><time>2026-05-02T10:48:49.014Z</time></trkpt><trkpt lat="42.199552" lon="13.6990492"><ele>851.0</ele><time>2026-05-02T10:48:51.013Z</time></trkpt><trkpt lat="42.1995132" lon="13.6988919"><ele>851.0</ele><time>2026-05-02T10:48:53.014Z</time></trkpt><trkpt lat="42.1995043" lon="13.6987388"><ele>851.0</ele><time>2026-05-02T10:48:55.014Z</time></trkpt><trkpt lat="42.1995102" lon="13.6985889"><ele>851.8</ele><time>2026-05-02T10:48:57.014Z</time></trkpt><trkpt lat="42.1994891" lon="13.6984389"><ele>852.5999999999999</ele><time>2026-05-02T10:48:59.013Z</time></trkpt><trkpt lat="42.1994668" lon="13.6983073"><ele>853.4</ele><time>2026-05-02T10:49:01.014Z</time></trkpt><trkpt lat="42.1994802" lon="13.6981617"><ele>854.2</ele><time>2026-05-02T10:49:03.014Z</time></trkpt><trkpt lat="42.1995035" lon="13.6980066"><ele>855.0</ele><time>2026-05-02T10:49:05.014Z</time></trkpt><trkpt lat="42.1995418" lon="13.6978464"><ele>855.0</ele><time>2026-05-02T10:49:07.014Z</time></trkpt><trkpt lat="42.1995668" lon="13.6977658"><ele>855.0</ele><time>2026-05-02T10:49:08.014Z</time></trkpt><trkpt lat="42.1996118" lon="13.6976406"><ele>855.0</ele><time>2026-05-02T10:49:10.014Z</time></trkpt><trkpt lat="42.1996421" lon="13.6975438"><ele>855.0</ele><time>2026-05-02T10:49:12.014Z</time></trkpt><trkpt lat="42.1996919" lon="13.6974389"><ele>855.0</ele><time>2026-05-02T10:49:14.013Z</time></trkpt><trkpt lat="42.1997548" lon="13.6973491"><ele>855.0</ele><time>2026-05-02T10:49:16.014Z</time></trkpt><trkpt lat="42.1998174" lon="13.6972403"><ele>858.8333333333334</ele><time>2026-05-02T10:49:19.014Z</time></trkpt><trkpt lat="42.1998638" lon="13.6971574"><ele>862.6666666666667</ele><time>2026-05-02T10:49:21.013Z</time></trkpt><trkpt lat="42.1999359" lon="13.697122"><ele>866.5</ele><time>2026-05-02T10:49:23.014Z</time></trkpt><trkpt lat="42.2000167" lon="13.6971051"><ele>870.3333333333334</ele><time>2026-05-02T10:49:25.018Z</time></trkpt><trkpt lat="42.2000936" lon="13.697099"><ele>874.1666666666667</ele><time>2026-05-02T10:49:26.871Z</time></trkpt><trkpt lat="42.2001982" lon="13.6970517"><ele>878.0</ele><time>2026-05-02T10:49:29.014Z</time></trkpt><trkpt lat="42.2002987" lon="13.6969887"><ele>878.0</ele><time>2026-05-02T10:49:31.014Z</time></trkpt><trkpt lat="42.2003906" lon="13.6969709"><ele>878.0</ele><time>2026-05-02T10:49:33.014Z</time></trkpt><trkpt lat="42.2004799" lon="13.696948"><ele>878.0</ele><time>2026-05-02T10:49:35.014Z</time></trkpt><trkpt lat="42.2005834" lon="13.6968873"><ele>878.0</ele><time>2026-05-02T10:49:37.014Z</time></trkpt><trkpt lat="42.200692" lon="13.6968152"><ele>878.0</ele><time>2026-05-02T10:49:39.014Z</time></trkpt><trkpt lat="42.2007812" lon="13.6967492"><ele>875.5000000000001</ele><time>2026-05-02T10:49:41.014Z</time></trkpt><trkpt lat="42.2008358" lon="13.6966823"><ele>873.0</ele><time>2026-05-02T10:49:43.014Z</time></trkpt><trkpt lat="42.2008317" lon="13.6965609"><ele>870.5</ele><time>2026-05-02T10:49:46.014Z</time></trkpt><trkpt lat="42.2007444" lon="13.6965783"><ele>868.0</ele><time>2026-05-02T10:49:50.014Z</time></trkpt><trkpt lat="42.20067" lon="13.6966125"><ele>865.5000000000001</ele><time>2026-05-02T10:49:52.014Z</time></trkpt><trkpt lat="42.200605" lon="13.6965709"><ele>863.0</ele><time>2026-05-02T10:49:54.014Z</time></trkpt><trkpt lat="42.2005618" lon="13.696494"><ele>860.1666666666667</ele><time>2026-05-02T10:49:56.014Z</time></trkpt><trkpt lat="42.2004779" lon="13.6965024"><ele>857.3333333333334</ele><time>2026-05-02T10:49:59.014Z</time></trkpt><trkpt lat="42.2004143" lon="13.6965614"><ele>854.5</ele><time>2026-05-02T10:50:01.014Z</time></trkpt><trkpt lat="42.2003427" lon="13.6965534"><ele>851.6666666666667</ele><time>2026-05-02T10:50:02.886Z</time></trkpt><trkpt lat="42.2002967" lon="13.6964647"><ele>848.8333333333334</ele><time>2026-05-02T10:50:04.014Z</time></trkpt><trkpt lat="42.2002087" lon="13.6963602"><ele>846.0</ele><time>2026-05-02T10:50:06.013Z</time></trkpt><trkpt lat="42.200135" lon="13.6962903"><ele>846.0</ele><time>2026-05-02T10:50:08.013Z</time></trkpt><trkpt lat="42.200067" lon="13.6962661"><ele>846.0</ele><time>2026-05-02T10:50:10.014Z</time></trkpt><trkpt lat="42.1999875" lon="13.6963001"><ele>846.0</ele><time>2026-05-02T10:50:12.014Z</time></trkpt><trkpt lat="42.1999181" lon="13.6963873"><ele>846.0</ele><time>2026-05-02T10:50:14.014Z</time></trkpt><trkpt lat="42.1998148" lon="13.6963941"><ele>846.0</ele><time>2026-05-02T10:50:17.014Z</time></trkpt><trkpt lat="42.1997243" lon="13.6963171"><ele>841.6666666666666</ele><time>2026-05-02T10:50:19.014Z</time></trkpt><trkpt lat="42.1996432" lon="13.6961921"><ele>837.3333333333333</ele><time>2026-05-02T10:50:21.013Z</time></trkpt><trkpt lat="42.1996036" lon="13.6961144"><ele>833.0</ele><time>2026-05-02T10:50:22.014Z</time></trkpt><trkpt lat="42.1995626" lon="13.6960372"><ele>828.6666666666666</ele><time>2026-05-02T10:50:23.014Z</time></trkpt><trkpt lat="42.1995157" lon="13.6959621"><ele>824.3333333333333</ele><time>2026-05-02T10:50:24.013Z</time></trkpt><trkpt lat="42.199467" lon="13.6958872"><ele>820.0</ele><time>2026-05-02T10:50:25.014Z</time></trkpt><trkpt lat="42.1994212" lon="13.6958107"><ele>818.4285714285714</ele><time>2026-05-02T10:50:26.013Z</time></trkpt><trkpt lat="42.1993779" lon="13.6957344"><ele>816.8571428571428</ele><time>2026-05-02T10:50:27.014Z</time></trkpt><trkpt lat="42.1993369" lon="13.6956595"><ele>815.2857142857142</ele><time>2026-05-02T10:50:28.014Z</time></trkpt><trkpt lat="42.1992983" lon="13.6955868"><ele>813.7142857142858</ele><time>2026-05-02T10:50:29.014Z</time></trkpt><trkpt lat="42.199262" lon="13.695511"><ele>812.1428571428571</ele><time>2026-05-02T10:50:30.014Z</time></trkpt><trkpt lat="42.1992334" lon="13.6954316"><ele>810.5714285714286</ele><time>2026-05-02T10:50:31.014Z</time></trkpt><trkpt lat="42.1992092" lon="13.6953439"><ele>809.0</ele><time>2026-05-02T10:50:32.014Z</time></trkpt><trkpt lat="42.1991841" lon="13.6952444"><ele>809.0000000000001</ele><time>2026-05-02T10:50:33.014Z</time></trkpt><trkpt lat="42.1991543" lon="13.6951506"><ele>809.0</ele><time>2026-05-02T10:50:34.014Z</time></trkpt><trkpt lat="42.1991181" lon="13.6950706"><ele>809.0</ele><time>2026-05-02T10:50:35.014Z</time></trkpt><trkpt lat="42.1990437" lon="13.6949605"><ele>809.0</ele><time>2026-05-02T10:50:37.014Z</time></trkpt><trkpt lat="42.1989636" lon="13.6949123"><ele>809.0000000000001</ele><time>2026-05-02T10:50:39.014Z</time></trkpt><trkpt lat="42.1988857" lon="13.6949595"><ele>809.0</ele><time>2026-05-02T10:50:41.014Z</time></trkpt><trkpt lat="42.1988261" lon="13.6950816"><ele>804.6666666666667</ele><time>2026-05-02T10:50:43.014Z</time></trkpt><trkpt lat="42.198799" lon="13.6951645"><ele>800.3333333333334</ele><time>2026-05-02T10:50:44.014Z</time></trkpt><trkpt lat="42.1987654" lon="13.6952427"><ele>796.0</ele><time>2026-05-02T10:50:45.014Z</time></trkpt><trkpt lat="42.198727" lon="13.6953118"><ele>791.6666666666667</ele><time>2026-05-02T10:50:46.014Z</time></trkpt><trkpt lat="42.1986544" lon="13.6954384"><ele>787.3333333333334</ele><time>2026-05-02T10:50:48.014Z</time></trkpt><trkpt lat="42.1986014" lon="13.6955445"><ele>783.0</ele><time>2026-05-02T10:50:50.014Z</time></trkpt><trkpt lat="42.1985275" lon="13.6956048"><ele>783.0</ele><time>2026-05-02T10:50:53.014Z</time></trkpt><trkpt lat="42.1984546" lon="13.6955706"><ele>783.0</ele><time>2026-05-02T10:50:55.014Z</time></trkpt><trkpt lat="42.1983896" lon="13.6955022"><ele>783.0</ele><time>2026-05-02T10:50:57.014Z</time></trkpt><trkpt lat="42.1982689" lon="13.6954661"><ele>783.0</ele><time>2026-05-02T10:50:59.014Z</time></trkpt><trkpt lat="42.1981622" lon="13.6955101"><ele>783.0</ele><time>2026-05-02T10:51:01.014Z</time></trkpt><trkpt lat="42.1980806" lon="13.6956015"><ele>779.2</ele><time>2026-05-02T10:51:03.014Z</time></trkpt><trkpt lat="42.1979987" lon="13.6956764"><ele>775.4</ele><time>2026-05-02T10:51:05.014Z</time></trkpt><trkpt lat="42.1978824" lon="13.6957242"><ele>771.6</ele><time>2026-05-02T10:51:07.014Z</time></trkpt><trkpt lat="42.1978106" lon="13.6957389"><ele>767.8000000000001</ele><time>2026-05-02T10:51:08.014Z</time></trkpt><trkpt lat="42.1977328" lon="13.6957601"><ele>764.0</ele><time>2026-05-02T10:51:09.014Z</time></trkpt><trkpt lat="42.1976426" lon="13.6957836"><ele>764.0</ele><time>2026-05-02T10:51:10.014Z</time></trkpt><trkpt lat="42.1975473" lon="13.6958118"><ele>764.0</ele><time>2026-05-02T10:51:11.014Z</time></trkpt><trkpt lat="42.1974569" lon="13.6958442"><ele>764.0</ele><time>2026-05-02T10:51:12.014Z</time></trkpt><trkpt lat="42.1973778" lon="13.6958698"><ele>764.0</ele><time>2026-05-02T10:51:13.014Z</time></trkpt><trkpt lat="42.1973038" lon="13.6958946"><ele>764.0</ele><time>2026-05-02T10:51:14.014Z</time></trkpt><trkpt lat="42.1971955" lon="13.6959365"><ele>761.0</ele><time>2026-05-02T10:51:16.014Z</time></trkpt><trkpt lat="42.1971212" lon="13.6959558"><ele>758.0</ele><time>2026-05-02T10:51:18.014Z</time></trkpt><trkpt lat="42.1970226" lon="13.6959879"><ele>755.0</ele><time>2026-05-02T10:51:20.014Z</time></trkpt><trkpt lat="42.1969591" lon="13.6960035"><ele>752.0</ele><time>2026-05-02T10:51:21.014Z</time></trkpt><trkpt lat="42.196895" lon="13.6960219"><ele>749.0</ele><time>2026-05-02T10:51:22.014Z</time></trkpt><trkpt lat="42.1968328" lon="13.6960394"><ele>746.0</ele><time>2026-05-02T10:51:23.014Z</time></trkpt><trkpt lat="42.1967167" lon="13.6960738"><ele>745.3333333333333</ele><time>2026-05-02T10:51:25.013Z</time></trkpt><trkpt lat="42.1966237" lon="13.6961189"><ele>744.6666666666666</ele><time>2026-05-02T10:51:27.013Z</time></trkpt><trkpt lat="42.1965573" lon="13.6961781"><ele>744.0</ele><time>2026-05-02T10:51:30.013Z</time></trkpt><trkpt lat="42.1965395" lon="13.6962892"><ele>743.3333333333334</ele><time>2026-05-02T10:51:33.014Z</time></trkpt><trkpt lat="42.1965194" lon="13.6963802"><ele>742.6666666666667</ele><time>2026-05-02T10:51:36.014Z</time></trkpt><trkpt lat="42.1964597" lon="13.6963288"><ele>742.0</ele><time>2026-05-02T10:52:13.014Z</time></trkpt><trkpt lat="42.1964508" lon="13.6962426"><ele>739.6</ele><time>2026-05-02T10:52:16.014Z</time></trkpt><trkpt lat="42.1964583" lon="13.6961055"><ele>737.2</ele><time>2026-05-02T11:52:58.002Z</time></trkpt><trkpt lat="42.1964344" lon="13.6959543"><ele>734.8</ele><time>2026-05-02T11:53:00.003Z</time></trkpt><trkpt lat="42.1964173" lon="13.6958638"><ele>732.4</ele><time>2026-05-02T11:53:01.003Z</time></trkpt><trkpt lat="42.1964003" lon="13.6957726"><ele>730.0</ele><time>2026-05-02T11:53:02.003Z</time></trkpt><trkpt lat="42.1963807" lon="13.6956149"><ele>730.0</ele><time>2026-05-02T11:53:04.003Z</time></trkpt><trkpt lat="42.1963584" lon="13.6955088"><ele>730.0</ele><time>2026-05-02T11:53:06.002Z</time></trkpt><trkpt lat="42.1963387" lon="13.6953708"><ele>730.0</ele><time>2026-05-02T11:53:08.003Z</time></trkpt><trkpt lat="42.1963159" lon="13.6952319"><ele>730.0</ele><time>2026-05-02T11:53:10.003Z</time></trkpt><trkpt lat="42.1962958" lon="13.6950854"><ele>730.0</ele><time>2026-05-02T11:53:12.003Z</time></trkpt><trkpt lat="42.1962854" lon="13.6949995"><ele>730.6</ele><time>2026-05-02T11:53:13.002Z</time></trkpt><trkpt lat="42.1962723" lon="13.6948409"><ele>731.2</ele><time>2026-05-02T11:53:15.003Z</time></trkpt><trkpt lat="42.1962491" lon="13.6947165"><ele>731.8</ele><time>2026-05-02T11:53:17.003Z</time></trkpt><trkpt lat="42.1962364" lon="13.6946206"><ele>732.4</ele><time>2026-05-02T11:53:20.003Z</time></trkpt><trkpt lat="42.1962548" lon="13.6947137"><ele>733.0</ele><time>2026-05-02T11:53:50.003Z</time></trkpt><trkpt lat="42.1962702" lon="13.6948662"><ele>733.0</ele><time>2026-05-02T11:53:52.003Z</time></trkpt><trkpt lat="42.1962834" lon="13.6950397"><ele>733.0</ele><time>2026-05-02T11:53:54.002Z</time></trkpt><trkpt lat="42.1963074" lon="13.6951923"><ele>733.0</ele><time>2026-05-02T11:53:56.003Z</time></trkpt><trkpt lat="42.1963348" lon="13.6953374"><ele>733.0</ele><time>2026-05-02T11:53:58.003Z</time></trkpt><trkpt lat="42.1963472" lon="13.6954522"><ele>733.0</ele><time>2026-05-02T11:54:00.003Z</time></trkpt><trkpt lat="42.1963735" lon="13.6955486"><ele>733.0</ele><time>2026-05-02T11:54:03.003Z</time></trkpt><trkpt lat="42.1964129" lon="13.6954747"><ele>733.0</ele><time>2026-05-02T11:54:08.002Z</time></trkpt><trkpt lat="42.1964067" lon="13.6953589"><ele>733.0</ele><time>2026-05-02T11:54:10.003Z</time></trkpt><trkpt lat="42.1964309" lon="13.6952149"><ele>733.0</ele><time>2026-05-02T11:54:12.003Z</time></trkpt><trkpt lat="42.1964547" lon="13.6951301"><ele>733.0</ele><time>2026-05-02T11:54:13.003Z</time></trkpt><trkpt lat="42.196485" lon="13.6950352"><ele>733.0</ele><time>2026-05-02T11:54:14.003Z</time></trkpt><trkpt lat="42.1965203" lon="13.6949357"><ele>735.1666666666667</ele><time>2026-05-02T11:54:15.003Z</time></trkpt><trkpt lat="42.1965538" lon="13.6948451"><ele>737.3333333333334</ele><time>2026-05-02T11:54:16.003Z</time></trkpt><trkpt lat="42.1966006" lon="13.6947299"><ele>739.5</ele><time>2026-05-02T11:54:18.003Z</time></trkpt><trkpt lat="42.1966041" lon="13.69464"><ele>741.6666666666666</ele><time>2026-05-02T11:55:53.002Z</time></trkpt><trkpt lat="42.1965734" lon="13.6947462"><ele>743.8333333333333</ele><time>2026-05-02T11:56:24.003Z</time></trkpt><trkpt lat="42.1965485" lon="13.6948714"><ele>746.0</ele><time>2026-05-02T11:56:26.003Z</time></trkpt><trkpt lat="42.1965176" lon="13.6949455"><ele>743.8333333333333</ele><time>2026-05-02T11:56:27.003Z</time></trkpt><trkpt lat="42.1964848" lon="13.6950307"><ele>741.6666666666666</ele><time>2026-05-02T11:56:28.003Z</time></trkpt><trkpt lat="42.1964526" lon="13.6951195"><ele>739.5</ele><time>2026-05-02T11:56:29.003Z</time></trkpt><trkpt lat="42.1964271" lon="13.695202"><ele>737.3333333333334</ele><time>2026-05-02T11:56:30.002Z</time></trkpt><trkpt lat="42.1963992" lon="13.6953651"><ele>735.1666666666667</ele><time>2026-05-02T11:56:32.002Z</time></trkpt><trkpt lat="42.1963944" lon="13.6954626"><ele>733.0</ele><time>2026-05-02T11:56:33.003Z</time></trkpt><trkpt lat="42.1963959" lon="13.6955697"><ele>732.5</ele><time>2026-05-02T11:56:34.002Z</time></trkpt><trkpt lat="42.1964015" lon="13.695685"><ele>732.0</ele><time>2026-05-02T11:56:35.003Z</time></trkpt><trkpt lat="42.196411" lon="13.6958053"><ele>731.5</ele><time>2026-05-02T11:56:36.003Z</time></trkpt><trkpt lat="42.196426" lon="13.6959249"><ele>731.0</ele><time>2026-05-02T11:56:37.002Z</time></trkpt><trkpt lat="42.1964416" lon="13.6960386"><ele>730.5</ele><time>2026-05-02T11:56:38.003Z</time></trkpt><trkpt lat="42.1964571" lon="13.6961414"><ele>730.0</ele><time>2026-05-02T11:56:39.003Z</time></trkpt><trkpt lat="42.1964721" lon="13.6962276"><ele>729.8333333333334</ele><time>2026-05-02T11:56:40.003Z</time></trkpt><trkpt lat="42.1965009" lon="13.6963767"><ele>729.6666666666667</ele><time>2026-05-02T11:56:42.003Z</time></trkpt><trkpt lat="42.1965136" lon="13.6965304"><ele>729.5</ele><time>2026-05-02T11:56:44.002Z</time></trkpt><trkpt lat="42.1965098" lon="13.6966189"><ele>729.3333333333334</ele><time>2026-05-02T11:56:45.003Z</time></trkpt><trkpt lat="42.1965012" lon="13.6967126"><ele>729.1666666666666</ele><time>2026-05-02T11:56:46.003Z</time></trkpt><trkpt lat="42.196486" lon="13.6968033"><ele>729.0</ele><time>2026-05-02T11:56:47.003Z</time></trkpt><trkpt lat="42.1964608" lon="13.6969361"><ele>729.0</ele><time>2026-05-02T11:56:49.003Z</time></trkpt><trkpt lat="42.1964339" lon="13.6970138"><ele>729.0</ele><time>2026-05-02T11:56:51.003Z</time></trkpt><trkpt lat="42.196398" lon="13.6971073"><ele>729.0</ele><time>2026-05-02T11:56:53.003Z</time></trkpt><trkpt lat="42.1963745" lon="13.6972361"><ele>729.0</ele><time>2026-05-02T11:56:55.003Z</time></trkpt><trkpt lat="42.1964325" lon="13.6973307"><ele>729.0</ele><time>2026-05-02T11:56:59.003Z</time></trkpt><trkpt lat="42.1965409" lon="13.6973776"><ele>729.0</ele><time>2026-05-02T11:57:01.003Z</time></trkpt><trkpt lat="42.1966072" lon="13.6974119"><ele>729.3333333333334</ele><time>2026-05-02T11:57:02.003Z</time></trkpt><trkpt lat="42.1966768" lon="13.697466"><ele>729.6666666666666</ele><time>2026-05-02T11:57:03.003Z</time></trkpt><trkpt lat="42.196745" lon="13.6975376"><ele>730.0</ele><time>2026-05-02T11:57:04.003Z</time></trkpt><trkpt lat="42.196808" lon="13.6976035"><ele>730.3333333333333</ele><time>2026-05-02T11:57:05.002Z</time></trkpt><trkpt lat="42.1968587" lon="13.697684"><ele>730.6666666666666</ele><time>2026-05-02T11:57:06.003Z</time></trkpt><trkpt lat="42.1968828" lon="13.6977715"><ele>731.0</ele><time>2026-05-02T11:57:07.003Z</time></trkpt><trkpt lat="42.1968813" lon="13.6978739"><ele>731.0</ele><time>2026-05-02T11:57:08.003Z</time></trkpt><trkpt lat="42.1968571" lon="13.6979877"><ele>731.0</ele><time>2026-05-02T11:57:09.003Z</time></trkpt><trkpt lat="42.1968289" lon="13.6981062"><ele>731.0</ele><time>2026-05-02T11:57:10.003Z</time></trkpt><trkpt lat="42.1968064" lon="13.6982377"><ele>731.0</ele><time>2026-05-02T11:57:11.003Z</time></trkpt><trkpt lat="42.1967828" lon="13.6983766"><ele>731.0</ele><time>2026-05-02T11:57:12.003Z</time></trkpt><trkpt lat="42.1967472" lon="13.6985081"><ele>729.4</ele><time>2026-05-02T11:57:13.003Z</time></trkpt><trkpt lat="42.1966848" lon="13.6986161"><ele>727.8</ele><time>2026-05-02T11:57:14.003Z</time></trkpt><trkpt lat="42.1966013" lon="13.6987093"><ele>726.1999999999999</ele><time>2026-05-02T11:57:15.002Z</time></trkpt><trkpt lat="42.1965173" lon="13.6988059"><ele>724.5999999999999</ele><time>2026-05-02T11:57:16.002Z</time></trkpt><trkpt lat="42.1964225" lon="13.6989102"><ele>723.0</ele><time>2026-05-02T11:57:17.003Z</time></trkpt><trkpt lat="42.1963217" lon="13.6990185"><ele>723.0</ele><time>2026-05-02T11:57:18.003Z</time></trkpt><trkpt lat="42.1962144" lon="13.6991321"><ele>723.0</ele><time>2026-05-02T11:57:19.003Z</time></trkpt><trkpt lat="42.1961051" lon="13.6992537"><ele>723.0</ele><time>2026-05-02T11:57:20.003Z</time></trkpt><trkpt lat="42.1959904" lon="13.6993728"><ele>723.0</ele><time>2026-05-02T11:57:21.003Z</time></trkpt><trkpt lat="42.1958731" lon="13.6994884"><ele>723.5</ele><time>2026-05-02T11:57:22.003Z</time></trkpt><trkpt lat="42.1957549" lon="13.6996058"><ele>724.0</ele><time>2026-05-02T11:57:23.003Z</time></trkpt><trkpt lat="42.1956356" lon="13.699717"><ele>724.5</ele><time>2026-05-02T11:57:24.003Z</time></trkpt><trkpt lat="42.1955176" lon="13.6998284"><ele>725.0</ele><time>2026-05-02T11:57:25.003Z</time></trkpt><trkpt lat="42.1954076" lon="13.6999384"><ele>725.0</ele><time>2026-05-02T11:57:26.003Z</time></trkpt><trkpt lat="42.1952951" lon="13.700037"><ele>725.0</ele><time>2026-05-02T11:57:27.003Z</time></trkpt><trkpt lat="42.1951824" lon="13.7001203"><ele>725.0</ele><time>2026-05-02T11:57:28.003Z</time></trkpt><trkpt lat="42.1950712" lon="13.7001943"><ele>725.0</ele><time>2026-05-02T11:57:29.003Z</time></trkpt><trkpt lat="42.1949668" lon="13.7002841"><ele>724.0</ele><time>2026-05-02T11:57:30.003Z</time></trkpt><trkpt lat="42.1948713" lon="13.700397"><ele>723.0</ele><time>2026-05-02T11:57:31.003Z</time></trkpt><trkpt lat="42.194782" lon="13.7005246"><ele>722.0</ele><time>2026-05-02T11:57:32.002Z</time></trkpt><trkpt lat="42.1947054" lon="13.7006702"><ele>721.0</ele><time>2026-05-02T11:57:33.003Z</time></trkpt><trkpt lat="42.1946402" lon="13.7008305"><ele>721.0</ele><time>2026-05-02T11:57:34.003Z</time></trkpt><trkpt lat="42.1945873" lon="13.7010063"><ele>721.0</ele><time>2026-05-02T11:57:35.003Z</time></trkpt><trkpt lat="42.1945479" lon="13.7011954"><ele>721.0</ele><time>2026-05-02T11:57:36.003Z</time></trkpt><trkpt lat="42.1945145" lon="13.7013892"><ele>721.0</ele><time>2026-05-02T11:57:37.003Z</time></trkpt><trkpt lat="42.1944819" lon="13.7015847"><ele>721.5</ele><time>2026-05-02T11:57:38.003Z</time></trkpt><trkpt lat="42.1944413" lon="13.7017773"><ele>722.0</ele><time>2026-05-02T11:57:39.003Z</time></trkpt><trkpt lat="42.1943874" lon="13.7019609"><ele>722.5</ele><time>2026-05-02T11:57:40.003Z</time></trkpt><trkpt lat="42.1943174" lon="13.7021236"><ele>723.0</ele><time>2026-05-02T11:57:41.003Z</time></trkpt><trkpt lat="42.1942309" lon="13.7022659"><ele>721.5</ele><time>2026-05-02T11:57:42.003Z</time></trkpt><trkpt lat="42.1941233" lon="13.7023906"><ele>720.0</ele><time>2026-05-02T11:57:43.003Z</time></trkpt><trkpt lat="42.1940012" lon="13.7024894"><ele>718.5</ele><time>2026-05-02T11:57:44.003Z</time></trkpt><trkpt lat="42.1938682" lon="13.7025737"><ele>717.0</ele><time>2026-05-02T11:57:45.003Z</time></trkpt><trkpt lat="42.1937418" lon="13.7026524"><ele>717.0</ele><time>2026-05-02T11:57:46.003Z</time></trkpt><trkpt lat="42.1936224" lon="13.7027449"><ele>717.0</ele><time>2026-05-02T11:57:47.003Z</time></trkpt><trkpt lat="42.1935137" lon="13.702867"><ele>717.0</ele><time>2026-05-02T11:57:48.003Z</time></trkpt><trkpt lat="42.1934151" lon="13.7030062"><ele>717.0</ele><time>2026-05-02T11:57:49.002Z</time></trkpt><trkpt lat="42.1933211" lon="13.7031495"><ele>717.75</ele><time>2026-05-02T11:57:50.003Z</time></trkpt><trkpt lat="42.1932276" lon="13.7032836"><ele>718.5</ele><time>2026-05-02T11:57:51.002Z</time></trkpt><trkpt lat="42.193122" lon="13.7033994"><ele>719.25</ele><time>2026-05-02T11:57:52.003Z</time></trkpt><trkpt lat="42.1930009" lon="13.7034945"><ele>720.0</ele><time>2026-05-02T11:57:53.003Z</time></trkpt><trkpt lat="42.1928702" lon="13.7035698"><ele>720.25</ele><time>2026-05-02T11:57:54.003Z</time></trkpt><trkpt lat="42.1927331" lon="13.7036366"><ele>720.5</ele><time>2026-05-02T11:57:55.003Z</time></trkpt><trkpt lat="42.192593" lon="13.7037028"><ele>720.75</ele><time>2026-05-02T11:57:56.003Z</time></trkpt><trkpt lat="42.1924496" lon="13.7037661"><ele>721.0</ele><time>2026-05-02T11:57:57.003Z</time></trkpt><trkpt lat="42.1923044" lon="13.7038371"><ele>721.0</ele><time>2026-05-02T11:57:58.003Z</time></trkpt><trkpt lat="42.1921552" lon="13.7039162"><ele>721.0</ele><time>2026-05-02T11:57:59.003Z</time></trkpt><trkpt lat="42.1920056" lon="13.7040007"><ele>721.0</ele><time>2026-05-02T11:58:00.003Z</time></trkpt><trkpt lat="42.1918552" lon="13.7040931"><ele>721.0</ele><time>2026-05-02T11:58:01.003Z</time></trkpt><trkpt lat="42.1917034" lon="13.7041987"><ele>721.0</ele><time>2026-05-02T11:58:02.003Z</time></trkpt><trkpt lat="42.1915541" lon="13.7043132"><ele>721.0</ele><time>2026-05-02T11:58:03.003Z</time></trkpt><trkpt lat="42.191411" lon="13.7044298"><ele>719.75</ele><time>2026-05-02T11:58:04.003Z</time></trkpt><trkpt lat="42.1912906" lon="13.7045341"><ele>718.5</ele><time>2026-05-02T11:58:05.003Z</time></trkpt><trkpt lat="42.1911847" lon="13.7046336"><ele>717.25</ele><time>2026-05-02T11:58:06.003Z</time></trkpt><trkpt lat="42.1910824" lon="13.7047597"><ele>716.0</ele><time>2026-05-02T11:58:07.003Z</time></trkpt><trkpt lat="42.1909938" lon="13.704917"><ele>716.0</ele><time>2026-05-02T11:58:08.003Z</time></trkpt><trkpt lat="42.1909146" lon="13.7050946"><ele>716.0</ele><time>2026-05-02T11:58:09.002Z</time></trkpt><trkpt lat="42.1908281" lon="13.7052715"><ele>716.0</ele><time>2026-05-02T11:58:10.003Z</time></trkpt><trkpt lat="42.1907305" lon="13.7054408"><ele>710.6666666666666</ele><time>2026-05-02T11:58:11.002Z</time></trkpt><trkpt lat="42.1906215" lon="13.7056023"><ele>705.3333333333334</ele><time>2026-05-02T11:58:12.003Z</time></trkpt><trkpt lat="42.1905011" lon="13.7057477"><ele>700.0</ele><time>2026-05-02T11:58:13.003Z</time></trkpt><trkpt lat="42.1903702" lon="13.7058809"><ele>700.0</ele><time>2026-05-02T11:58:14.003Z</time></trkpt><trkpt lat="42.1902382" lon="13.7060073"><ele>700.0</ele><time>2026-05-02T11:58:15.003Z</time></trkpt><trkpt lat="42.1900964" lon="13.7061227"><ele>700.0</ele><time>2026-05-02T11:58:16.003Z</time></trkpt><trkpt lat="42.1899472" lon="13.7062206"><ele>698.3333333333334</ele><time>2026-05-02T11:58:17.003Z</time></trkpt><trkpt lat="42.1897838" lon="13.7062965"><ele>696.6666666666666</ele><time>2026-05-02T11:58:18.003Z</time></trkpt><trkpt lat="42.1896125" lon="13.7063602"><ele>695.0</ele><time>2026-05-02T11:58:19.003Z</time></trkpt><trkpt lat="42.1894352" lon="13.7064173"><ele>695.0</ele><time>2026-05-02T11:58:20.003Z</time></trkpt><trkpt lat="42.1892511" lon="13.706475"><ele>695.0</ele><time>2026-05-02T11:58:21.003Z</time></trkpt><trkpt lat="42.1890652" lon="13.7065355"><ele>695.0</ele><time>2026-05-02T11:58:22.003Z</time></trkpt><trkpt lat="42.1888869" lon="13.7066027"><ele>691.0</ele><time>2026-05-02T11:58:23.003Z</time></trkpt><trkpt lat="42.1887108" lon="13.7066671"><ele>687.0</ele><time>2026-05-02T11:58:24.002Z</time></trkpt><trkpt lat="42.1885434" lon="13.7067225"><ele>683.0</ele><time>2026-05-02T11:58:25.003Z</time></trkpt><trkpt lat="42.1883895" lon="13.7067752"><ele>683.0</ele><time>2026-05-02T11:58:26.003Z</time></trkpt><trkpt lat="42.1882391" lon="13.7068212"><ele>683.0</ele><time>2026-05-02T11:58:27.003Z</time></trkpt><trkpt lat="42.1880875" lon="13.7068647"><ele>683.0</ele><time>2026-05-02T11:58:28.003Z</time></trkpt><trkpt lat="42.1879435" lon="13.7068926"><ele>681.0</ele><time>2026-05-02T11:58:29.003Z</time></trkpt><trkpt lat="42.1878119" lon="13.7069004"><ele>679.0</ele><time>2026-05-02T11:58:30.003Z</time></trkpt><trkpt lat="42.1876841" lon="13.7068862"><ele>677.0</ele><time>2026-05-02T11:58:31.003Z</time></trkpt><trkpt lat="42.1875586" lon="13.7068682"><ele>675.0</ele><time>2026-05-02T11:58:32.003Z</time></trkpt><trkpt lat="42.1874472" lon="13.706841"><ele>675.0</ele><time>2026-05-02T11:58:33.003Z</time></trkpt><trkpt lat="42.1873471" lon="13.7068112"><ele>675.0</ele><time>2026-05-02T11:58:34.003Z</time></trkpt><trkpt lat="42.187257" lon="13.7067805"><ele>675.0</ele><time>2026-05-02T11:58:35.002Z</time></trkpt><trkpt lat="42.1871786" lon="13.7067473"><ele>675.0</ele><time>2026-05-02T11:58:36.002Z</time></trkpt><trkpt lat="42.1871182" lon="13.7067197"><ele>675.0</ele><time>2026-05-02T11:58:37.002Z</time></trkpt><trkpt lat="42.1870349" lon="13.7066884"><ele>675.0</ele><time>2026-05-02T11:58:39.002Z</time></trkpt><trkpt lat="42.1869645" lon="13.7067304"><ele>674.0</ele><time>2026-05-02T11:58:41.003Z</time></trkpt><trkpt lat="42.186969" lon="13.7068708"><ele>673.0</ele><time>2026-05-02T11:58:43.002Z</time></trkpt><trkpt lat="42.1870117" lon="13.706963"><ele>672.0</ele><time>2026-05-02T11:58:44.003Z</time></trkpt><trkpt lat="42.1870783" lon="13.7070545"><ele>671.0</ele><time>2026-05-02T11:58:45.003Z</time></trkpt><trkpt lat="42.1871702" lon="13.7071456"><ele>670.0</ele><time>2026-05-02T11:58:46.003Z</time></trkpt><trkpt lat="42.1872827" lon="13.7072318"><ele>670.0</ele><time>2026-05-02T11:58:47.003Z</time></trkpt><trkpt lat="42.1874058" lon="13.707321"><ele>670.0</ele><time>2026-05-02T11:58:48.003Z</time></trkpt><trkpt lat="42.1875323" lon="13.7074401"><ele>670.0</ele><time>2026-05-02T11:58:49.003Z</time></trkpt><trkpt lat="42.1876555" lon="13.7075825"><ele>670.0</ele><time>2026-05-02T11:58:50.002Z</time></trkpt><trkpt lat="42.1877595" lon="13.7077402"><ele>670.0</ele><time>2026-05-02T11:58:51.002Z</time></trkpt><trkpt lat="42.1878425" lon="13.7079042"><ele>670.0</ele><time>2026-05-02T11:58:52.003Z</time></trkpt><trkpt lat="42.1879059" lon="13.7080817"><ele>668.0</ele><time>2026-05-02T11:58:53.003Z</time></trkpt><trkpt lat="42.1879412" lon="13.7082727"><ele>666.0</ele><time>2026-05-02T11:58:54.003Z</time></trkpt><trkpt lat="42.1879536" lon="13.7084784"><ele>664.0</ele><time>2026-05-02T11:58:55.003Z</time></trkpt><trkpt lat="42.1879353" lon="13.7086932"><ele>664.0</ele><time>2026-05-02T11:58:56.003Z</time></trkpt><trkpt lat="42.1878848" lon="13.7089072"><ele>664.0</ele><time>2026-05-02T11:58:57.003Z</time></trkpt><trkpt lat="42.1878188" lon="13.709105"><ele>664.0</ele><time>2026-05-02T11:58:58.003Z</time></trkpt><trkpt lat="42.1877576" lon="13.7092903"><ele>664.3333333333334</ele><time>2026-05-02T11:58:59.003Z</time></trkpt><trkpt lat="42.18772" lon="13.709476"><ele>664.6666666666666</ele><time>2026-05-02T11:59:00.003Z</time></trkpt><trkpt lat="42.1877061" lon="13.7096797"><ele>665.0</ele><time>2026-05-02T11:59:01.003Z</time></trkpt><trkpt lat="42.1877123" lon="13.7098972"><ele>665.0</ele><time>2026-05-02T11:59:02.003Z</time></trkpt><trkpt lat="42.1877105" lon="13.7101216"><ele>665.0</ele><time>2026-05-02T11:59:03.003Z</time></trkpt><trkpt lat="42.187698" lon="13.7103559"><ele>665.0</ele><time>2026-05-02T11:59:04.003Z</time></trkpt><trkpt lat="42.1876775" lon="13.7105937"><ele>665.0</ele><time>2026-05-02T11:59:05.003Z</time></trkpt><trkpt lat="42.1876463" lon="13.7108297"><ele>665.0</ele><time>2026-05-02T11:59:06.003Z</time></trkpt><trkpt lat="42.1876053" lon="13.7110712"><ele>665.0</ele><time>2026-05-02T11:59:07.002Z</time></trkpt><trkpt lat="42.187559" lon="13.7113146"><ele>665.0</ele><time>2026-05-02T11:59:08.003Z</time></trkpt><trkpt lat="42.1875131" lon="13.7115497"><ele>665.0</ele><time>2026-05-02T11:59:09.003Z</time></trkpt><trkpt lat="42.1874681" lon="13.7117743"><ele>665.0</ele><time>2026-05-02T11:59:10.003Z</time></trkpt><trkpt lat="42.1874246" lon="13.7119889"><ele>667.0</ele><time>2026-05-02T11:59:11.002Z</time></trkpt><trkpt lat="42.1873715" lon="13.7121947"><ele>669.0</ele><time>2026-05-02T11:59:12.003Z</time></trkpt><trkpt lat="42.1872953" lon="13.7123965"><ele>671.0</ele><time>2026-05-02T11:59:13.002Z</time></trkpt><trkpt lat="42.1872075" lon="13.7125956"><ele>665.0</ele><time>2026-05-02T11:59:14.003Z</time></trkpt><trkpt lat="42.1871068" lon="13.7127947"><ele>659.0</ele><time>2026-05-02T11:59:15.003Z</time></trkpt><trkpt lat="42.1870008" lon="13.7129986"><ele>653.0</ele><time>2026-05-02T11:59:16.003Z</time></trkpt><trkpt lat="42.1868941" lon="13.7131987"><ele>653.0</ele><time>2026-05-02T11:59:17.003Z</time></trkpt><trkpt lat="42.186785" lon="13.7133865"><ele>653.0</ele><time>2026-05-02T11:59:18.003Z</time></trkpt><trkpt lat="42.1866681" lon="13.7135518"><ele>653.0</ele><time>2026-05-02T11:59:19.003Z</time></trkpt><trkpt lat="42.1865437" lon="13.7136893"><ele>652.3333333333333</ele><time>2026-05-02T11:59:20.002Z</time></trkpt><trkpt lat="42.1864098" lon="13.7137919"><ele>651.6666666666666</ele><time>2026-05-02T11:59:21.003Z</time></trkpt><trkpt lat="42.186264" lon="13.7138665"><ele>651.0</ele><time>2026-05-02T11:59:22.003Z</time></trkpt><trkpt lat="42.1861148" lon="13.7139238"><ele>651.0</ele><time>2026-05-02T11:59:23.003Z</time></trkpt><trkpt lat="42.185979" lon="13.7139962"><ele>651.0</ele><time>2026-05-02T11:59:24.003Z</time></trkpt><trkpt lat="42.1858443" lon="13.7141011"><ele>651.0</ele><time>2026-05-02T11:59:25.003Z</time></trkpt><trkpt lat="42.1857131" lon="13.7142303"><ele>648.0</ele><time>2026-05-02T11:59:26.003Z</time></trkpt><trkpt lat="42.1855872" lon="13.714378"><ele>645.0</ele><time>2026-05-02T11:59:27.003Z</time></trkpt><trkpt lat="42.1854788" lon="13.7145561"><ele>642.0</ele><time>2026-05-02T11:59:28.003Z</time></trkpt><trkpt lat="42.1853778" lon="13.7147529"><ele>642.0</ele><time>2026-05-02T11:59:29.003Z</time></trkpt><trkpt lat="42.1852831" lon="13.7149648"><ele>642.0</ele><time>2026-05-02T11:59:30.003Z</time></trkpt><trkpt lat="42.18519" lon="13.7151855"><ele>642.0</ele><time>2026-05-02T11:59:31.003Z</time></trkpt><trkpt lat="42.1850987" lon="13.7154064"><ele>640.3333333333334</ele><time>2026-05-02T11:59:32.002Z</time></trkpt><trkpt lat="42.1850035" lon="13.7156089"><ele>638.6666666666667</ele><time>2026-05-02T11:59:33.003Z</time></trkpt><trkpt lat="42.1848985" lon="13.7157872"><ele>637.0</ele><time>2026-05-02T11:59:34.003Z</time></trkpt><trkpt lat="42.1847868" lon="13.7159362"><ele>637.0</ele><time>2026-05-02T11:59:35.003Z</time></trkpt><trkpt lat="42.1846552" lon="13.7160492"><ele>637.0</ele><time>2026-05-02T11:59:36.003Z</time></trkpt><trkpt lat="42.1845145" lon="13.7161349"><ele>637.0</ele><time>2026-05-02T11:59:37.003Z</time></trkpt><trkpt lat="42.1843616" lon="13.7161979"><ele>643.0</ele><time>2026-05-02T11:59:38.003Z</time></trkpt><trkpt lat="42.1842113" lon="13.7162398"><ele>649.0</ele><time>2026-05-02T11:59:39.003Z</time></trkpt><trkpt lat="42.184061" lon="13.7162644"><ele>655.0</ele><time>2026-05-02T11:59:40.002Z</time></trkpt><trkpt lat="42.1839021" lon="13.7162621"><ele>656.0</ele><time>2026-05-02T11:59:41.003Z</time></trkpt><trkpt lat="42.1837329" lon="13.7162224"><ele>657.0</ele><time>2026-05-02T11:59:42.003Z</time></trkpt><trkpt lat="42.1835598" lon="13.7161582"><ele>658.0</ele><time>2026-05-02T11:59:43.003Z</time></trkpt><trkpt lat="42.1833879" lon="13.7160887"><ele>653.3333333333334</ele><time>2026-05-02T11:59:44.003Z</time></trkpt><trkpt lat="42.183219" lon="13.7160143"><ele>648.6666666666666</ele><time>2026-05-02T11:59:45.003Z</time></trkpt><trkpt lat="42.1830556" lon="13.7159353"><ele>644.0</ele><time>2026-05-02T11:59:46.003Z</time></trkpt><trkpt lat="42.1828959" lon="13.7158333"><ele>644.0</ele><time>2026-05-02T11:59:47.003Z</time></trkpt><trkpt lat="42.1827482" lon="13.7157171"><ele>644.0</ele><time>2026-05-02T11:59:48.003Z</time></trkpt><trkpt lat="42.1825899" lon="13.7155799"><ele>644.0</ele><time>2026-05-02T11:59:49.003Z</time></trkpt><trkpt lat="42.182434" lon="13.7154385"><ele>643.6666666666666</ele><time>2026-05-02T11:59:50.003Z</time></trkpt><trkpt lat="42.1822883" lon="13.7152942"><ele>643.3333333333334</ele><time>2026-05-02T11:59:51.003Z</time></trkpt><trkpt lat="42.1821479" lon="13.7151829"><ele>643.0</ele><time>2026-05-02T11:59:52.003Z</time></trkpt><trkpt lat="42.1820164" lon="13.7150814"><ele>640.0</ele><time>2026-05-02T11:59:53.003Z</time></trkpt><trkpt lat="42.1818935" lon="13.7149938"><ele>637.0</ele><time>2026-05-02T11:59:54.003Z</time></trkpt><trkpt lat="42.1817847" lon="13.7149301"><ele>634.0</ele><time>2026-05-02T11:59:55.003Z</time></trkpt><trkpt lat="42.1816758" lon="13.7149013"><ele>631.0</ele><time>2026-05-02T11:59:56.003Z</time></trkpt><trkpt lat="42.1815635" lon="13.7149174"><ele>630.25</ele><time>2026-05-02T11:59:57.003Z</time></trkpt><trkpt lat="42.1814504" lon="13.7149821"><ele>629.5</ele><time>2026-05-02T11:59:58.003Z</time></trkpt><trkpt lat="42.1813326" lon="13.7150976"><ele>628.75</ele><time>2026-05-02T11:59:59.003Z</time></trkpt><trkpt lat="42.1812089" lon="13.715248"><ele>628.0</ele><time>2026-05-02T12:00:00.003Z</time></trkpt><trkpt lat="42.1810692" lon="13.7154136"><ele>628.0</ele><time>2026-05-02T12:00:01.002Z</time></trkpt><trkpt lat="42.1809179" lon="13.7155898"><ele>628.0</ele><time>2026-05-02T12:00:02.003Z</time></trkpt><trkpt lat="42.180776" lon="13.7157596"><ele>628.0</ele><time>2026-05-02T12:00:03.002Z</time></trkpt><trkpt lat="42.1806417" lon="13.7159231"><ele>627.6666666666667</ele><time>2026-05-02T12:00:04.002Z</time></trkpt><trkpt lat="42.1805132" lon="13.7160783"><ele>627.3333333333334</ele><time>2026-05-02T12:00:05.003Z</time></trkpt><trkpt lat="42.1803928" lon="13.7162133"><ele>627.0</ele><time>2026-05-02T12:00:06.003Z</time></trkpt><trkpt lat="42.1802893" lon="13.7163305"><ele>627.0</ele><time>2026-05-02T12:00:07.003Z</time></trkpt><trkpt lat="42.1801978" lon="13.7164389"><ele>627.0</ele><time>2026-05-02T12:00:08.003Z</time></trkpt><trkpt lat="42.1801247" lon="13.7165461"><ele>627.0</ele><time>2026-05-02T12:00:09.003Z</time></trkpt><trkpt lat="42.1800742" lon="13.7166712"><ele>627.0</ele><time>2026-05-02T12:00:10.003Z</time></trkpt><trkpt lat="42.1800491" lon="13.7167953"><ele>627.0</ele><time>2026-05-02T12:00:11.003Z</time></trkpt><trkpt lat="42.1800641" lon="13.7169234"><ele>625.0</ele><time>2026-05-02T12:00:12.003Z</time></trkpt><trkpt lat="42.1801178" lon="13.7170589"><ele>623.0</ele><time>2026-05-02T12:00:13.003Z</time></trkpt><trkpt lat="42.1802118" lon="13.7171992"><ele>621.0</ele><time>2026-05-02T12:00:14.003Z</time></trkpt><trkpt lat="42.1803045" lon="13.7173367"><ele>619.0</ele><time>2026-05-02T12:00:15.003Z</time></trkpt><trkpt lat="42.1804415" lon="13.7174514"><ele>619.0</ele><time>2026-05-02T12:00:16.003Z</time></trkpt><trkpt lat="42.1805404" lon="13.7175562"><ele>619.0</ele><time>2026-05-02T12:00:17.003Z</time></trkpt><trkpt lat="42.1806293" lon="13.7176706"><ele>619.0</ele><time>2026-05-02T12:00:18.003Z</time></trkpt><trkpt lat="42.1806912" lon="13.7177944"><ele>619.0</ele><time>2026-05-02T12:00:19.003Z</time></trkpt><trkpt lat="42.1807178" lon="13.7179282"><ele>618.8</ele><time>2026-05-02T12:00:20.003Z</time></trkpt><trkpt lat="42.1807037" lon="13.7180627"><ele>618.5999999999999</ele><time>2026-05-02T12:00:21.003Z</time></trkpt><trkpt lat="42.1806514" lon="13.718181"><ele>618.4</ele><time>2026-05-02T12:00:22.003Z</time></trkpt><trkpt lat="42.1805637" lon="13.7182739"><ele>618.1999999999999</ele><time>2026-05-02T12:00:23.002Z</time></trkpt><trkpt lat="42.1804433" lon="13.7183527"><ele>618.0</ele><time>2026-05-02T12:00:24.003Z</time></trkpt><trkpt lat="42.1802958" lon="13.7184227"><ele>618.0</ele><time>2026-05-02T12:00:25.003Z</time></trkpt><trkpt lat="42.1801266" lon="13.7185022"><ele>618.0</ele><time>2026-05-02T12:00:26.003Z</time></trkpt><trkpt lat="42.1799449" lon="13.7185899"><ele>618.0</ele><time>2026-05-02T12:00:27.003Z</time></trkpt><trkpt lat="42.1797638" lon="13.7186751"><ele>617.3333333333334</ele><time>2026-05-02T12:00:28.003Z</time></trkpt><trkpt lat="42.1795884" lon="13.7187578"><ele>616.6666666666667</ele><time>2026-05-02T12:00:29.003Z</time></trkpt><trkpt lat="42.1794177" lon="13.7188387"><ele>616.0</ele><time>2026-05-02T12:00:30.003Z</time></trkpt><trkpt lat="42.1792569" lon="13.7189253"><ele>616.0</ele><time>2026-05-02T12:00:31.002Z</time></trkpt><trkpt lat="42.179118" lon="13.7190225"><ele>616.0</ele><time>2026-05-02T12:00:32.003Z</time></trkpt><trkpt lat="42.179002" lon="13.7191393"><ele>616.0</ele><time>2026-05-02T12:00:33.002Z</time></trkpt><trkpt lat="42.1789057" lon="13.7192831"><ele>616.0</ele><time>2026-05-02T12:00:34.003Z</time></trkpt><trkpt lat="42.1788199" lon="13.7194462"><ele>613.6666666666667</ele><time>2026-05-02T12:00:35.003Z</time></trkpt><trkpt lat="42.1787488" lon="13.7196317"><ele>611.3333333333334</ele><time>2026-05-02T12:00:36.003Z</time></trkpt><trkpt lat="42.1786814" lon="13.7198199"><ele>609.0</ele><time>2026-05-02T12:00:37.003Z</time></trkpt><trkpt lat="42.1786206" lon="13.7199922"><ele>609.0</ele><time>2026-05-02T12:00:38.003Z</time></trkpt><trkpt lat="42.1785682" lon="13.7201447"><ele>609.0</ele><time>2026-05-02T12:00:39.003Z</time></trkpt><trkpt lat="42.1785203" lon="13.7202682"><ele>609.0</ele><time>2026-05-02T12:00:40.003Z</time></trkpt><trkpt lat="42.1784587" lon="13.7203575"><ele>609.0</ele><time>2026-05-02T12:00:41.003Z</time></trkpt><trkpt lat="42.1783897" lon="13.7204188"><ele>609.0</ele><time>2026-05-02T12:00:42.003Z</time></trkpt><trkpt lat="42.1782972" lon="13.7204376"><ele>609.75</ele><time>2026-05-02T12:00:43.002Z</time></trkpt><trkpt lat="42.1781956" lon="13.720406"><ele>610.5</ele><time>2026-05-02T12:00:44.003Z</time></trkpt><trkpt lat="42.1780967" lon="13.7203356"><ele>611.25</ele><time>2026-05-02T12:00:45.003Z</time></trkpt><trkpt lat="42.1780094" lon="13.720232"><ele>612.0</ele><time>2026-05-02T12:00:46.003Z</time></trkpt><trkpt lat="42.1779365" lon="13.7200884"><ele>612.3333333333334</ele><time>2026-05-02T12:00:47.003Z</time></trkpt><trkpt lat="42.1778781" lon="13.7199165"><ele>612.6666666666667</ele><time>2026-05-02T12:00:48.003Z</time></trkpt><trkpt lat="42.1778264" lon="13.7197216"><ele>613.0</ele><time>2026-05-02T12:00:49.003Z</time></trkpt><trkpt lat="42.1777772" lon="13.7195182"><ele>611.0</ele><time>2026-05-02T12:00:50.003Z</time></trkpt><trkpt lat="42.1777286" lon="13.7193046"><ele>609.0</ele><time>2026-05-02T12:00:51.003Z</time></trkpt><trkpt lat="42.1776758" lon="13.7190972"><ele>607.0</ele><time>2026-05-02T12:00:52.002Z</time></trkpt><trkpt lat="42.1776101" lon="13.7189028"><ele>607.0</ele><time>2026-05-02T12:00:53.002Z</time></trkpt><trkpt lat="42.1775217" lon="13.7187197"><ele>607.0</ele><time>2026-05-02T12:00:54.003Z</time></trkpt><trkpt lat="42.1774196" lon="13.7185428"><ele>607.0</ele><time>2026-05-02T12:00:55.003Z</time></trkpt><trkpt lat="42.1773124" lon="13.7183781"><ele>605.5</ele><time>2026-05-02T12:00:56.003Z</time></trkpt><trkpt lat="42.1772021" lon="13.7182324"><ele>604.0</ele><time>2026-05-02T12:00:57.003Z</time></trkpt><trkpt lat="42.1770873" lon="13.7181122"><ele>602.5</ele><time>2026-05-02T12:00:58.003Z</time></trkpt><trkpt lat="42.1769756" lon="13.7180227"><ele>601.0</ele><time>2026-05-02T12:00:59.003Z</time></trkpt><trkpt lat="42.1768736" lon="13.7179617"><ele>601.0</ele><time>2026-05-02T12:01:00.003Z</time></trkpt><trkpt lat="42.17677" lon="13.7179359"><ele>601.0</ele><time>2026-05-02T12:01:01.003Z</time></trkpt><trkpt lat="42.1766638" lon="13.7179382"><ele>601.0</ele><time>2026-05-02T12:01:02.003Z</time></trkpt><trkpt lat="42.1765631" lon="13.7179778"><ele>601.0</ele><time>2026-05-02T12:01:03.003Z</time></trkpt><trkpt lat="42.176469" lon="13.7180541"><ele>601.0</ele><time>2026-05-02T12:01:04.003Z</time></trkpt><trkpt lat="42.1763878" lon="13.7181618"><ele>597.0</ele><time>2026-05-02T12:01:05.003Z</time></trkpt><trkpt lat="42.1763274" lon="13.7182972"><ele>593.0</ele><time>2026-05-02T12:01:06.003Z</time></trkpt><trkpt lat="42.176284" lon="13.7184593"><ele>589.0</ele><time>2026-05-02T12:01:07.003Z</time></trkpt><trkpt lat="42.1762534" lon="13.7186339"><ele>585.0</ele><time>2026-05-02T12:01:08.003Z</time></trkpt><trkpt lat="42.1762325" lon="13.7188143"><ele>584.0</ele><time>2026-05-02T12:01:09.003Z</time></trkpt><trkpt lat="42.1762205" lon="13.7190049"><ele>583.0</ele><time>2026-05-02T12:01:10.003Z</time></trkpt><trkpt lat="42.176231" lon="13.7192027"><ele>582.0</ele><time>2026-05-02T12:01:11.003Z</time></trkpt><trkpt lat="42.1762647" lon="13.7194101"><ele>581.0</ele><time>2026-05-02T12:01:12.003Z</time></trkpt><trkpt lat="42.1763117" lon="13.7196222"><ele>581.0</ele><time>2026-05-02T12:01:13.002Z</time></trkpt><trkpt lat="42.1763564" lon="13.7198318"><ele>581.0</ele><time>2026-05-02T12:01:14.003Z</time></trkpt><trkpt lat="42.1763899" lon="13.7200325"><ele>581.0</ele><time>2026-05-02T12:01:15.003Z</time></trkpt><trkpt lat="42.1763966" lon="13.7202228"><ele>582.6666666666666</ele><time>2026-05-02T12:01:16.003Z</time></trkpt><trkpt lat="42.1763694" lon="13.7204104"><ele>584.3333333333334</ele><time>2026-05-02T12:01:17.003Z</time></trkpt><trkpt lat="42.1763236" lon="13.7206072"><ele>586.0</ele><time>2026-05-02T12:01:18.003Z</time></trkpt><trkpt lat="42.1762606" lon="13.7208107"><ele>586.0</ele><time>2026-05-02T12:01:19.003Z</time></trkpt><trkpt lat="42.1761955" lon="13.7210244"><ele>586.0</ele><time>2026-05-02T12:01:20.003Z</time></trkpt><trkpt lat="42.1761329" lon="13.7212324"><ele>586.0</ele><time>2026-05-02T12:01:21.003Z</time></trkpt><trkpt lat="42.1760639" lon="13.7214229"><ele>588.0</ele><time>2026-05-02T12:01:22.003Z</time></trkpt><trkpt lat="42.1759932" lon="13.7215903"><ele>590.0</ele><time>2026-05-02T12:01:23.003Z</time></trkpt><trkpt lat="42.1759101" lon="13.7217215"><ele>592.0</ele><time>2026-05-02T12:01:24.003Z</time></trkpt><trkpt lat="42.1758056" lon="13.7218187"><ele>594.0</ele><time>2026-05-02T12:01:25.003Z</time></trkpt><trkpt lat="42.1756919" lon="13.7218889"><ele>595.6</ele><time>2026-05-02T12:01:26.002Z</time></trkpt><trkpt lat="42.1755681" lon="13.721927"><ele>597.2</ele><time>2026-05-02T12:01:27.002Z</time></trkpt><trkpt lat="42.1754475" lon="13.7219148"><ele>598.8000000000001</ele><time>2026-05-02T12:01:28.002Z</time></trkpt><trkpt lat="42.1753434" lon="13.7218592"><ele>600.4</ele><time>2026-05-02T12:01:29.002Z</time></trkpt><trkpt lat="42.1752781" lon="13.7217815"><ele>602.0</ele><time>2026-05-02T12:01:30.003Z</time></trkpt><trkpt lat="42.1752511" lon="13.7216849"><ele>602.0</ele><time>2026-05-02T12:01:31.003Z</time></trkpt><trkpt lat="42.1752608" lon="13.721575"><ele>602.0</ele><time>2026-05-02T12:01:32.002Z</time></trkpt><trkpt lat="42.1753015" lon="13.7214608"><ele>602.0</ele><time>2026-05-02T12:01:33.003Z</time></trkpt><trkpt lat="42.1753565" lon="13.721336"><ele>602.0</ele><time>2026-05-02T12:01:34.002Z</time></trkpt><trkpt lat="42.176469" lon="13.7180541"><ele>597.75</ele><time>2026-05-02T12:01:04.003Z</time></trkpt><trkpt lat="42.1763878" lon="13.7181618"><ele>593.5</ele><time>2026-05-02T12:01:05.003Z</time></trkpt><trkpt lat="42.1763274" lon="13.7182972"><ele>589.25</ele><time>2026-05-02T12:01:06.003Z</time></trkpt><trkpt lat="42.176284" lon="13.7184593"><ele>585.0</ele><time>2026-05-02T12:01:07.003Z</time></trkpt><trkpt lat="42.1762534" lon="13.7186339"><ele>584.0</ele><time>2026-05-02T12:01:08.003Z</time></trkpt><trkpt lat="42.1762325" lon="13.7188143"><ele>583.0</ele><time>2026-05-02T12:01:09.003Z</time></trkpt><trkpt lat="42.1762205" lon="13.7190049"><ele>582.0</ele><time>2026-05-02T12:01:10.003Z</time></trkpt><trkpt lat="42.176231" lon="13.7192027"><ele>581.0</ele><time>2026-05-02T12:01:11.003Z</time></trkpt><trkpt lat="42.1762647" lon="13.7194101"><ele>581.0</ele><time>2026-05-02T12:01:12.003Z</time></trkpt><trkpt lat="42.1763117" lon="13.7196222"><ele>581.0</ele><time>2026-05-02T12:01:13.002Z</time></trkpt><trkpt lat="42.1763564" lon="13.7198318"><ele>581.0</ele><time>2026-05-02T12:01:14.003Z</time></trkpt><trkpt lat="42.1763899" lon="13.7200325"><ele>581.0</ele><time>2026-05-02T12:01:15.003Z</time></trkpt><trkpt lat="42.1763966" lon="13.7202228"><ele>581.0</ele><time>2026-05-02T12:01:16.003Z</time></trkpt><trkpt lat="42.1763694" lon="13.7204104"><ele>581.0</ele><time>2026-05-02T12:01:17.003Z</time></trkpt><trkpt lat="42.1763236" lon="13.7206072"><ele>581.0</ele><time>2026-05-02T12:01:18.003Z</time></trkpt><trkpt lat="42.1762606" lon="13.7208107"><ele>582.6666666666666</ele><time>2026-05-02T12:01:19.003Z</time></trkpt><trkpt lat="42.1761955" lon="13.7210244"><ele>584.3333333333334</ele><time>2026-05-02T12:01:20.003Z</time></trkpt><trkpt lat="42.1761329" lon="13.7212324"><ele>586.0</ele><time>2026-05-02T12:01:21.003Z</time></trkpt><trkpt lat="42.1760639" lon="13.7214229"><ele>588.0</ele><time>2026-05-02T12:01:22.003Z</time></trkpt><trkpt lat="42.1759932" lon="13.7215903"><ele>590.0</ele><time>2026-05-02T12:01:23.003Z</time></trkpt><trkpt lat="42.1759101" lon="13.7217215"><ele>592.0</ele><time>2026-05-02T12:01:24.003Z</time></trkpt><trkpt lat="42.1758056" lon="13.7218187"><ele>594.0</ele><time>2026-05-02T12:01:25.003Z</time></trkpt><trkpt lat="42.1756919" lon="13.7218889"><ele>595.6</ele><time>2026-05-02T12:01:26.002Z</time></trkpt><trkpt lat="42.1755681" lon="13.721927"><ele>597.2</ele><time>2026-05-02T12:01:27.002Z</time></trkpt><trkpt lat="42.1754475" lon="13.7219148"><ele>598.8000000000001</ele><time>2026-05-02T12:01:28.002Z</time></trkpt><trkpt lat="42.1753434" lon="13.7218592"><ele>600.4</ele><time>2026-05-02T12:01:29.002Z</time></trkpt><trkpt lat="42.1752781" lon="13.7217815"><ele>602.0</ele><time>2026-05-02T12:01:30.003Z</time></trkpt><trkpt lat="42.1752511" lon="13.7216849"><ele>602.0</ele><time>2026-05-02T12:01:31.003Z</time></trkpt><trkpt lat="42.1752608" lon="13.721575"><ele>602.0</ele><time>2026-05-02T12:01:32.002Z</time></trkpt><trkpt lat="42.1753015" lon="13.7214608"><ele>602.0</ele><time>2026-05-02T12:01:33.003Z</time></trkpt><trkpt lat="42.1753565" lon="13.721336"><ele>602.0</ele><time>2026-05-02T12:01:34.002Z</time></trkpt><trkpt lat="42.1754072" lon="13.7211921"><ele>602.0</ele><time>2026-05-02T12:01:35.002Z</time></trkpt><trkpt lat="42.1754309" lon="13.7210247"><ele>601.25</ele><time>2026-05-02T12:01:36.002Z</time></trkpt><trkpt lat="42.1754327" lon="13.7208401"><ele>600.5</ele><time>2026-05-02T12:01:37.003Z</time></trkpt><trkpt lat="42.1754168" lon="13.7206546"><ele>599.75</ele><time>2026-05-02T12:01:38.002Z</time></trkpt><trkpt lat="42.1753874" lon="13.7204886"><ele>599.0</ele><time>2026-05-02T12:01:39.003Z</time></trkpt><trkpt lat="42.1753358" lon="13.7203464"><ele>595.75</ele><time>2026-05-02T12:01:40.003Z</time></trkpt><trkpt lat="42.1752869" lon="13.7202022"><ele>592.5</ele><time>2026-05-02T12:01:41.003Z</time></trkpt><trkpt lat="42.1751929" lon="13.7201193"><ele>589.25</ele><time>2026-05-02T12:01:42.003Z</time></trkpt><trkpt lat="42.1750401" lon="13.7200978"><ele>586.0</ele><time>2026-05-02T12:01:43.003Z</time></trkpt><trkpt lat="42.1749191" lon="13.7200372"><ele>589.0</ele><time>2026-05-02T12:01:44.003Z</time></trkpt><trkpt lat="42.1747757" lon="13.7199567"><ele>592.0</ele><time>2026-05-02T12:01:45.002Z</time></trkpt><trkpt lat="42.1746412" lon="13.7198606"><ele>595.0</ele><time>2026-05-02T12:01:46.003Z</time></trkpt><trkpt lat="42.1745212" lon="13.7197406"><ele>595.0</ele><time>2026-05-02T12:01:47.003Z</time></trkpt><trkpt lat="42.17441" lon="13.7196046"><ele>595.0</ele><time>2026-05-02T12:01:48.002Z</time></trkpt><trkpt lat="42.1743209" lon="13.7194453"><ele>595.0</ele><time>2026-05-02T12:01:49.003Z</time></trkpt><trkpt lat="42.1742395" lon="13.7192865"><ele>595.0</ele><time>2026-05-02T12:01:50.003Z</time></trkpt><trkpt lat="42.1741681" lon="13.7191429"><ele>593.0</ele><time>2026-05-02T12:01:51.002Z</time></trkpt><trkpt lat="42.1741129" lon="13.7190219"><ele>591.0</ele><time>2026-05-02T12:01:52.003Z</time></trkpt><trkpt lat="42.1740604" lon="13.7189245"><ele>589.0</ele><time>2026-05-02T12:01:53.003Z</time></trkpt><trkpt lat="42.1739814" lon="13.7188803"><ele>587.0</ele><time>2026-05-02T12:01:54.003Z</time></trkpt><trkpt lat="42.173892" lon="13.7188905"><ele>585.0</ele><time>2026-05-02T12:01:55.003Z</time></trkpt><trkpt lat="42.1738036" lon="13.7189173"><ele>584.75</ele><time>2026-05-02T12:01:56.002Z</time></trkpt><trkpt lat="42.1737178" lon="13.7190622"><ele>584.5</ele><time>2026-05-02T12:01:57.003Z</time></trkpt><trkpt lat="42.1736243" lon="13.7191892"><ele>584.25</ele><time>2026-05-02T12:01:58.002Z</time></trkpt><trkpt lat="42.1735248" lon="13.7193396"><ele>584.0</ele><time>2026-05-02T12:01:59.003Z</time></trkpt><trkpt lat="42.1734353" lon="13.7194861"><ele>584.0</ele><time>2026-05-02T12:02:00.003Z</time></trkpt><trkpt lat="42.1733619" lon="13.7196375"><ele>584.0</ele><time>2026-05-02T12:02:01.003Z</time></trkpt><trkpt lat="42.1733058" lon="13.7197784"><ele>584.0</ele><time>2026-05-02T12:02:02.003Z</time></trkpt><trkpt lat="42.1732567" lon="13.7198934"><ele>584.0</ele><time>2026-05-02T12:02:03.003Z</time></trkpt><trkpt lat="42.1731936" lon="13.7199848"><ele>584.0</ele><time>2026-05-02T12:02:04.003Z</time></trkpt><trkpt lat="42.173103" lon="13.7200687"><ele>583.5</ele><time>2026-05-02T12:02:05.003Z</time></trkpt><trkpt lat="42.1729813" lon="13.7201248"><ele>583.0</ele><time>2026-05-02T12:02:06.003Z</time></trkpt><trkpt lat="42.1728452" lon="13.7201726"><ele>582.5</ele><time>2026-05-02T12:02:07.003Z</time></trkpt><trkpt lat="42.1726979" lon="13.7202163"><ele>582.0</ele><time>2026-05-02T12:02:08.003Z</time></trkpt><trkpt lat="42.1725667" lon="13.7202606"><ele>582.0</ele><time>2026-05-02T12:02:09.003Z</time></trkpt><trkpt lat="42.1724392" lon="13.7203003"><ele>582.0</ele><time>2026-05-02T12:02:10.003Z</time></trkpt><trkpt lat="42.1723303" lon="13.7203435"><ele>582.0</ele><time>2026-05-02T12:02:11.003Z</time></trkpt><trkpt lat="42.1722378" lon="13.720418"><ele>582.0</ele><time>2026-05-02T12:02:12.003Z</time></trkpt><trkpt lat="42.1721664" lon="13.7205347"><ele>579.5</ele><time>2026-05-02T12:02:13.003Z</time></trkpt><trkpt lat="42.1721198" lon="13.7206915"><ele>577.0</ele><time>2026-05-02T12:02:14.003Z</time></trkpt><trkpt lat="42.1720831" lon="13.7208735"><ele>574.5</ele><time>2026-05-02T12:02:15.002Z</time></trkpt><trkpt lat="42.1720287" lon="13.7210631"><ele>572.0</ele><time>2026-05-02T12:02:16.002Z</time></trkpt><trkpt lat="42.1719453" lon="13.7212519"><ele>572.0</ele><time>2026-05-02T12:02:17.002Z</time></trkpt><trkpt lat="42.1718469" lon="13.7214383"><ele>572.0</ele><time>2026-05-02T12:02:18.003Z</time></trkpt><trkpt lat="42.1717421" lon="13.7216326"><ele>572.0</ele><time>2026-05-02T12:02:19.003Z</time></trkpt><trkpt lat="42.1716439" lon="13.721817"><ele>570.0</ele><time>2026-05-02T12:02:20.003Z</time></trkpt><trkpt lat="42.1715397" lon="13.7219879"><ele>568.0</ele><time>2026-05-02T12:02:21.003Z</time></trkpt><trkpt lat="42.1714241" lon="13.7221381"><ele>566.0</ele><time>2026-05-02T12:02:22.003Z</time></trkpt><trkpt lat="42.1712998" lon="13.7222704"><ele>566.0</ele><time>2026-05-02T12:02:23.003Z</time></trkpt><trkpt lat="42.1711724" lon="13.7224027"><ele>566.0</ele><time>2026-05-02T12:02:24.002Z</time></trkpt><trkpt lat="42.171049" lon="13.7225313"><ele>566.0</ele><time>2026-05-02T12:02:25.002Z</time></trkpt><trkpt lat="42.1709321" lon="13.722663"><ele>568.8</ele><time>2026-05-02T12:02:26.003Z</time></trkpt><trkpt lat="42.1708329" lon="13.7227971"><ele>571.6</ele><time>2026-05-02T12:02:27.003Z</time></trkpt><trkpt lat="42.1707556" lon="13.722918"><ele>574.4</ele><time>2026-05-02T12:02:28.002Z</time></trkpt><trkpt lat="42.1706903" lon="13.7230154"><ele>577.2</ele><time>2026-05-02T12:02:29.002Z</time></trkpt><trkpt lat="42.1706139" lon="13.7230836"><ele>580.0</ele><time>2026-05-02T12:02:30.003Z</time></trkpt><trkpt lat="42.1705317" lon="13.7231031"><ele>580.0</ele><time>2026-05-02T12:02:31.003Z</time></trkpt><trkpt lat="42.1704567" lon="13.7230694"><ele>580.0</ele><time>2026-05-02T12:02:32.003Z</time></trkpt><trkpt lat="42.1703837" lon="13.7229869"><ele>580.0</ele><time>2026-05-02T12:02:33.002Z</time></trkpt><trkpt lat="42.1703185" lon="13.7228772"><ele>580.0</ele><time>2026-05-02T12:02:34.003Z</time></trkpt><trkpt lat="42.1702348" lon="13.7227668"><ele>580.0</ele><time>2026-05-02T12:02:35.003Z</time></trkpt><trkpt lat="42.1701408" lon="13.7226707"><ele>575.5</ele><time>2026-05-02T12:02:36.002Z</time></trkpt><trkpt lat="42.1700132" lon="13.7226021"><ele>571.0</ele><time>2026-05-02T12:02:37.003Z</time></trkpt><trkpt lat="42.169889" lon="13.7225501"><ele>566.5</ele><time>2026-05-02T12:02:38.003Z</time></trkpt><trkpt lat="42.1697655" lon="13.7225303"><ele>562.0</ele><time>2026-05-02T12:02:39.003Z</time></trkpt><trkpt lat="42.1696396" lon="13.7225596"><ele>562.0</ele><time>2026-05-02T12:02:40.003Z</time></trkpt><trkpt lat="42.1695227" lon="13.7225972"><ele>562.0</ele><time>2026-05-02T12:02:41.003Z</time></trkpt><trkpt lat="42.1694053" lon="13.7226156"><ele>562.0</ele><time>2026-05-02T12:02:42.003Z</time></trkpt><trkpt lat="42.1692915" lon="13.7225747"><ele>562.0</ele><time>2026-05-02T12:02:43.003Z</time></trkpt><trkpt lat="42.169177" lon="13.722486"><ele>562.0</ele><time>2026-05-02T12:02:44.003Z</time></trkpt><trkpt lat="42.1690606" lon="13.722366"><ele>562.0</ele><time>2026-05-02T12:02:45.003Z</time></trkpt><trkpt lat="42.168925" lon="13.7222259"><ele>562.0</ele><time>2026-05-02T12:02:46.003Z</time></trkpt><trkpt lat="42.168779" lon="13.7220872"><ele>560.3333333333334</ele><time>2026-05-02T12:02:47.003Z</time></trkpt><trkpt lat="42.168634" lon="13.7219575"><ele>558.6666666666666</ele><time>2026-05-02T12:02:48.003Z</time></trkpt><trkpt lat="42.1684984" lon="13.7218357"><ele>557.0</ele><time>2026-05-02T12:02:49.002Z</time></trkpt><trkpt lat="42.1683655" lon="13.721721"><ele>557.0</ele><time>2026-05-02T12:02:50.003Z</time></trkpt><trkpt lat="42.1682386" lon="13.7216269"><ele>557.0</ele><time>2026-05-02T12:02:51.003Z</time></trkpt><trkpt lat="42.1680996" lon="13.7215613"><ele>557.0</ele><time>2026-05-02T12:02:52.003Z</time></trkpt><trkpt lat="42.1679463" lon="13.721516"><ele>557.0</ele><time>2026-05-02T12:02:53.003Z</time></trkpt><trkpt lat="42.1677813" lon="13.7214827"><ele>557.0</ele><time>2026-05-02T12:02:54.003Z</time></trkpt><trkpt lat="42.1676091" lon="13.7214597"><ele>557.0</ele><time>2026-05-02T12:02:55.003Z</time></trkpt><trkpt lat="42.1674352" lon="13.721447"><ele>557.0</ele><time>2026-05-02T12:02:56.003Z</time></trkpt><trkpt lat="42.1672684" lon="13.7214376"><ele>557.0</ele><time>2026-05-02T12:02:57.003Z</time></trkpt><trkpt lat="42.1671173" lon="13.7214296"><ele>557.0</ele><time>2026-05-02T12:02:58.002Z</time></trkpt><trkpt lat="42.1669794" lon="13.7214235"><ele>557.0</ele><time>2026-05-02T12:02:59.003Z</time></trkpt><trkpt lat="42.1668524" lon="13.7214338"><ele>557.0</ele><time>2026-05-02T12:03:00.003Z</time></trkpt><trkpt lat="42.166733" lon="13.7214799"><ele>557.0</ele><time>2026-05-02T12:03:01.003Z</time></trkpt><trkpt lat="42.1666171" lon="13.7215566"><ele>557.0</ele><time>2026-05-02T12:03:02.003Z</time></trkpt><trkpt lat="42.1665098" lon="13.7216664"><ele>557.0</ele><time>2026-05-02T12:03:03.003Z</time></trkpt><trkpt lat="42.166405" lon="13.7218124"><ele>557.0</ele><time>2026-05-02T12:03:04.003Z</time></trkpt><trkpt lat="42.166307" lon="13.7219955"><ele>551.6666666666666</ele><time>2026-05-02T12:03:05.002Z</time></trkpt><trkpt lat="42.1662079" lon="13.7222031"><ele>546.3333333333334</ele><time>2026-05-02T12:03:06.003Z</time></trkpt><trkpt lat="42.1661095" lon="13.7224111"><ele>541.0</ele><time>2026-05-02T12:03:07.002Z</time></trkpt><trkpt lat="42.1660172" lon="13.7226057"><ele>543.3333333333334</ele><time>2026-05-02T12:03:08.003Z</time></trkpt><trkpt lat="42.1659362" lon="13.7227887"><ele>545.6666666666666</ele><time>2026-05-02T12:03:09.003Z</time></trkpt><trkpt lat="42.1658768" lon="13.7229682"><ele>548.0</ele><time>2026-05-02T12:03:10.003Z</time></trkpt><trkpt lat="42.1658437" lon="13.723174"><ele>548.0</ele><time>2026-05-02T12:03:11.003Z</time></trkpt><trkpt lat="42.1658304" lon="13.7234049"><ele>548.0</ele><time>2026-05-02T12:03:12.003Z</time></trkpt><trkpt lat="42.1658335" lon="13.7236571"><ele>548.0</ele><time>2026-05-02T12:03:13.003Z</time></trkpt><trkpt lat="42.1658387" lon="13.7239292"><ele>548.0</ele><time>2026-05-02T12:03:14.003Z</time></trkpt><trkpt lat="42.1658367" lon="13.7242068"><ele>548.0</ele><time>2026-05-02T12:03:15.003Z</time></trkpt><trkpt lat="42.1658293" lon="13.7244697"><ele>548.0</ele><time>2026-05-02T12:03:16.002Z</time></trkpt><trkpt lat="42.1658117" lon="13.7247198"><ele>549.3333333333333</ele><time>2026-05-02T12:03:17.003Z</time></trkpt><trkpt lat="42.1657805" lon="13.7249578"><ele>550.6666666666666</ele><time>2026-05-02T12:03:18.002Z</time></trkpt><trkpt lat="42.165741" lon="13.7251902"><ele>552.0</ele><time>2026-05-02T12:03:19.003Z</time></trkpt><trkpt lat="42.1657031" lon="13.7254151"><ele>545.3333333333334</ele><time>2026-05-02T12:03:20.002Z</time></trkpt><trkpt lat="42.1656745" lon="13.7256397"><ele>538.6666666666667</ele><time>2026-05-02T12:03:21.003Z</time></trkpt><trkpt lat="42.1656548" lon="13.7258587"><ele>532.0</ele><time>2026-05-02T12:03:22.003Z</time></trkpt><trkpt lat="42.1656328" lon="13.7260562"><ele>537.5</ele><time>2026-05-02T12:03:23.003Z</time></trkpt><trkpt lat="42.1655941" lon="13.726222"><ele>543.0</ele><time>2026-05-02T12:03:24.003Z</time></trkpt><trkpt lat="42.1655305" lon="13.7263583"><ele>548.5</ele><time>2026-05-02T12:03:25.003Z</time></trkpt><trkpt lat="42.1654404" lon="13.7264526"><ele>554.0</ele><time>2026-05-02T12:03:26.002Z</time></trkpt><trkpt lat="42.1653351" lon="13.7264928"><ele>554.0</ele><time>2026-05-02T12:03:27.003Z</time></trkpt><trkpt lat="42.1652094" lon="13.7264922"><ele>554.0</ele><time>2026-05-02T12:03:28.003Z</time></trkpt><trkpt lat="42.165068" lon="13.7264562"><ele>554.0</ele><time>2026-05-02T12:03:29.003Z</time></trkpt><trkpt lat="42.1649177" lon="13.7263982"><ele>554.0</ele><time>2026-05-02T12:03:30.003Z</time></trkpt><trkpt lat="42.1647815" lon="13.7263259"><ele>551.0</ele><time>2026-05-02T12:03:31.002Z</time></trkpt><trkpt lat="42.1646488" lon="13.7262571"><ele>548.0</ele><time>2026-05-02T12:03:32.003Z</time></trkpt><trkpt lat="42.1645178" lon="13.7262328"><ele>545.0</ele><time>2026-05-02T12:03:33.003Z</time></trkpt><trkpt lat="42.1643782" lon="13.7262453"><ele>542.0</ele><time>2026-05-02T12:03:34.003Z</time></trkpt><trkpt lat="42.1642457" lon="13.726301"><ele>542.0</ele><time>2026-05-02T12:03:35.003Z</time></trkpt><trkpt lat="42.1641275" lon="13.7264019"><ele>542.0</ele><time>2026-05-02T12:03:36.003Z</time></trkpt><trkpt lat="42.1640146" lon="13.7265445"><ele>542.0</ele><time>2026-05-02T12:03:37.003Z</time></trkpt><trkpt lat="42.1639094" lon="13.7267214"><ele>537.0</ele><time>2026-05-02T12:03:38.003Z</time></trkpt><trkpt lat="42.163812" lon="13.7269187"><ele>532.0</ele><time>2026-05-02T12:03:39.003Z</time></trkpt><trkpt lat="42.1637271" lon="13.7271418"><ele>527.0</ele><time>2026-05-02T12:03:40.003Z</time></trkpt><trkpt lat="42.1636557" lon="13.7273938"><ele>527.0</ele><time>2026-05-02T12:03:41.003Z</time></trkpt><trkpt lat="42.1635923" lon="13.7276706"><ele>527.0</ele><time>2026-05-02T12:03:42.003Z</time></trkpt><trkpt lat="42.1635327" lon="13.7279612"><ele>527.0</ele><time>2026-05-02T12:03:43.003Z</time></trkpt><trkpt lat="42.1634713" lon="13.7282624"><ele>529.5</ele><time>2026-05-02T12:03:44.003Z</time></trkpt><trkpt lat="42.163409" lon="13.7285751"><ele>532.0</ele><time>2026-05-02T12:03:45.003Z</time></trkpt><trkpt lat="42.1633419" lon="13.7288925"><ele>532.0</ele><time>2026-05-02T12:03:46.003Z</time></trkpt><trkpt lat="42.1632741" lon="13.7292145"><ele>532.0</ele><time>2026-05-02T12:03:47.003Z</time></trkpt><trkpt lat="42.1632081" lon="13.7295443"><ele>524.0</ele><time>2026-05-02T12:03:48.003Z</time></trkpt><trkpt lat="42.1631434" lon="13.7298658"><ele>516.0</ele><time>2026-05-02T12:03:49.003Z</time></trkpt><trkpt lat="42.1630796" lon="13.7301719"><ele>516.3333333333334</ele><time>2026-05-02T12:03:50.002Z</time></trkpt><trkpt lat="42.1630197" lon="13.7304652"><ele>516.6666666666667</ele><time>2026-05-02T12:03:51.003Z</time></trkpt><trkpt lat="42.162964" lon="13.7307467"><ele>517.0</ele><time>2026-05-02T12:03:52.003Z</time></trkpt><trkpt lat="42.1629084" lon="13.7310206"><ele>518.0</ele><time>2026-05-02T12:03:53.003Z</time></trkpt><trkpt lat="42.1628511" lon="13.7312968"><ele>519.0</ele><time>2026-05-02T12:03:54.003Z</time></trkpt><trkpt lat="42.1627933" lon="13.7315717"><ele>520.0</ele><time>2026-05-02T12:03:55.003Z</time></trkpt><trkpt lat="42.1627366" lon="13.7318405"><ele>519.6666666666667</ele><time>2026-05-02T12:03:56.003Z</time></trkpt><trkpt lat="42.1626805" lon="13.7320942"><ele>519.3333333333334</ele><time>2026-05-02T12:03:57.002Z</time></trkpt><trkpt lat="42.1626291" lon="13.7323294"><ele>519.0</ele><time>2026-05-02T12:03:58.003Z</time></trkpt><trkpt lat="42.1625742" lon="13.7325481"><ele>518.0</ele><time>2026-05-02T12:03:59.003Z</time></trkpt><trkpt lat="42.1625033" lon="13.7327462"><ele>517.0</ele><time>2026-05-02T12:04:00.003Z</time></trkpt><trkpt lat="42.1624112" lon="13.7329195"><ele>516.0</ele><time>2026-05-02T12:04:01.003Z</time></trkpt><trkpt lat="42.1622986" lon="13.7330708"><ele>516.0</ele><time>2026-05-02T12:04:02.003Z</time></trkpt><trkpt lat="42.1621634" lon="13.733198"><ele>516.0</ele><time>2026-05-02T12:04:03.002Z</time></trkpt><trkpt lat="42.1620096" lon="13.7333067"><ele>516.0</ele><time>2026-05-02T12:04:04.003Z</time></trkpt><trkpt lat="42.1618345" lon="13.7334019"><ele>516.0</ele><time>2026-05-02T12:04:05.003Z</time></trkpt><trkpt lat="42.1616393" lon="13.7334934"><ele>516.0</ele><time>2026-05-02T12:04:06.003Z</time></trkpt><trkpt lat="42.1614317" lon="13.7335878"><ele>516.0</ele><time>2026-05-02T12:04:07.003Z</time></trkpt><trkpt lat="42.1612132" lon="13.7336884"><ele>517.0</ele><time>2026-05-02T12:04:08.003Z</time></trkpt><trkpt lat="42.1609831" lon="13.7337963"><ele>518.0</ele><time>2026-05-02T12:04:09.002Z</time></trkpt><trkpt lat="42.1607443" lon="13.7339054"><ele>513.5</ele><time>2026-05-02T12:04:10.002Z</time></trkpt><trkpt lat="42.1605125" lon="13.7340096"><ele>509.0</ele><time>2026-05-02T12:04:11.003Z</time></trkpt><trkpt lat="42.1602974" lon="13.7341184"><ele>509.0</ele><time>2026-05-02T12:04:12.003Z</time></trkpt><trkpt lat="42.1600878" lon="13.7342137"><ele>509.0</ele><time>2026-05-02T12:04:13.003Z</time></trkpt><trkpt lat="42.1598851" lon="13.7343087"><ele>509.0</ele><time>2026-05-02T12:04:14.003Z</time></trkpt><trkpt lat="42.1596933" lon="13.7344125"><ele>511.0</ele><time>2026-05-02T12:04:15.003Z</time></trkpt><trkpt lat="42.1595086" lon="13.7345253"><ele>513.0</ele><time>2026-05-02T12:04:16.003Z</time></trkpt><trkpt lat="42.1593333" lon="13.7346386"><ele>515.0</ele><time>2026-05-02T12:04:17.003Z</time></trkpt><trkpt lat="42.1591723" lon="13.7347543"><ele>515.0</ele><time>2026-05-02T12:04:18.003Z</time></trkpt><trkpt lat="42.1590398" lon="13.734854"><ele>515.0</ele><time>2026-05-02T12:04:19.002Z</time></trkpt><trkpt lat="42.1589136" lon="13.7349122"><ele>515.0</ele><time>2026-05-02T12:04:20.003Z</time></trkpt><trkpt lat="42.1587846" lon="13.7349288"><ele>515.0</ele><time>2026-05-02T12:04:21.003Z</time></trkpt><trkpt lat="42.1586457" lon="13.7349054"><ele>513.3333333333333</ele><time>2026-05-02T12:04:22.003Z</time></trkpt><trkpt lat="42.1584836" lon="13.7348555"><ele>511.66666666666663</ele><time>2026-05-02T12:04:23.003Z</time></trkpt><trkpt lat="42.1583114" lon="13.7347953"><ele>510.0</ele><time>2026-05-02T12:04:24.003Z</time></trkpt><trkpt lat="42.1581435" lon="13.7347411"><ele>508.33333333333337</ele><time>2026-05-02T12:04:25.003Z</time></trkpt><trkpt lat="42.1579672" lon="13.7347013"><ele>506.6666666666667</ele><time>2026-05-02T12:04:26.003Z</time></trkpt><trkpt lat="42.1577721" lon="13.7346887"><ele>505.0</ele><time>2026-05-02T12:04:27.003Z</time></trkpt><trkpt lat="42.1575648" lon="13.7347156"><ele>502.5</ele><time>2026-05-02T12:04:28.003Z</time></trkpt><trkpt lat="42.157338" lon="13.7347548"><ele>500.0</ele><time>2026-05-02T12:04:29.003Z</time></trkpt><trkpt lat="42.1571013" lon="13.7347916"><ele>500.0</ele><time>2026-05-02T12:04:30.003Z</time></trkpt><trkpt lat="42.156851" lon="13.7348204"><ele>500.0</ele><time>2026-05-02T12:04:31.002Z</time></trkpt><trkpt lat="42.1565919" lon="13.7348477"><ele>499.0</ele><time>2026-05-02T12:04:32.002Z</time></trkpt><trkpt lat="42.156329" lon="13.7348722"><ele>498.0</ele><time>2026-05-02T12:04:33.003Z</time></trkpt><trkpt lat="42.1560781" lon="13.7348946"><ele>498.0</ele><time>2026-05-02T12:04:34.002Z</time></trkpt><trkpt lat="42.1558344" lon="13.7349104"><ele>498.0</ele><time>2026-05-02T12:04:35.003Z</time></trkpt><trkpt lat="42.155604" lon="13.7349323"><ele>496.66666666666663</ele><time>2026-05-02T12:04:36.003Z</time></trkpt><trkpt lat="42.1553778" lon="13.7349471"><ele>495.3333333333333</ele><time>2026-05-02T12:04:37.003Z</time></trkpt><trkpt lat="42.1551633" lon="13.7349642"><ele>494.0</ele><time>2026-05-02T12:04:38.003Z</time></trkpt><trkpt lat="42.154956" lon="13.734982"><ele>492.3333333333333</ele><time>2026-05-02T12:04:39.002Z</time></trkpt><trkpt lat="42.1547603" lon="13.7350025"><ele>490.66666666666663</ele><time>2026-05-02T12:04:40.003Z</time></trkpt><trkpt lat="42.1545748" lon="13.7350171"><ele>489.0</ele><time>2026-05-02T12:04:41.003Z</time></trkpt><trkpt lat="42.1543992" lon="13.7350254"><ele>489.0</ele><time>2026-05-02T12:04:42.003Z</time></trkpt><trkpt lat="42.1542349" lon="13.7350173"><ele>489.0</ele><time>2026-05-02T12:04:43.003Z</time></trkpt><trkpt lat="42.1540849" lon="13.7349955"><ele>489.0</ele><time>2026-05-02T12:04:44.003Z</time></trkpt><trkpt lat="42.1539437" lon="13.7349499"><ele>489.33333333333337</ele><time>2026-05-02T12:04:45.003Z</time></trkpt><trkpt lat="42.1538156" lon="13.7348713"><ele>489.6666666666667</ele><time>2026-05-02T12:04:46.003Z</time></trkpt><trkpt lat="42.1536896" lon="13.7347524"><ele>490.0</ele><time>2026-05-02T12:04:47.003Z</time></trkpt><trkpt lat="42.1535597" lon="13.7346162"><ele>490.0</ele><time>2026-05-02T12:04:48.003Z</time></trkpt><trkpt lat="42.1534208" lon="13.7344743"><ele>490.0</ele><time>2026-05-02T12:04:49.003Z</time></trkpt><trkpt lat="42.1532647" lon="13.7343454"><ele>490.0</ele><time>2026-05-02T12:04:50.003Z</time></trkpt><trkpt lat="42.1530951" lon="13.7342325"><ele>488.0</ele><time>2026-05-02T12:04:51.003Z</time></trkpt><trkpt lat="42.1529129" lon="13.7341349"><ele>486.0</ele><time>2026-05-02T12:04:52.003Z</time></trkpt><trkpt lat="42.1527217" lon="13.7340551"><ele>484.0</ele><time>2026-05-02T12:04:53.003Z</time></trkpt><trkpt lat="42.1525214" lon="13.7339881"><ele>483.33333333333337</ele><time>2026-05-02T12:04:54.003Z</time></trkpt><trkpt lat="42.1523208" lon="13.7339221"><ele>482.66666666666663</ele><time>2026-05-02T12:04:55.003Z</time></trkpt><trkpt lat="42.1521301" lon="13.7338577"><ele>482.0</ele><time>2026-05-02T12:04:56.003Z</time></trkpt><trkpt lat="42.1519444" lon="13.7338009"><ele>482.0</ele><time>2026-05-02T12:04:57.003Z</time></trkpt><trkpt lat="42.151757" lon="13.7337634"><ele>482.0</ele><time>2026-05-02T12:04:58.003Z</time></trkpt><trkpt lat="42.1515657" lon="13.7337391"><ele>482.0</ele><time>2026-05-02T12:04:59.003Z</time></trkpt><trkpt lat="42.1513818" lon="13.7337156"><ele>482.3333333333333</ele><time>2026-05-02T12:05:00.003Z</time></trkpt><trkpt lat="42.1512023" lon="13.7336925"><ele>482.66666666666663</ele><time>2026-05-02T12:05:01.003Z</time></trkpt><trkpt lat="42.1510198" lon="13.7336906"><ele>483.0</ele><time>2026-05-02T12:05:02.003Z</time></trkpt><trkpt lat="42.1508321" lon="13.7337192"><ele>482.0</ele><time>2026-05-02T12:05:03.003Z</time></trkpt><trkpt lat="42.1506401" lon="13.7337715"><ele>481.0</ele><time>2026-05-02T12:05:04.003Z</time></trkpt><trkpt lat="42.1504435" lon="13.7338504"><ele>480.0</ele><time>2026-05-02T12:05:05.003Z</time></trkpt><trkpt lat="42.1502413" lon="13.7339458"><ele>480.0</ele><time>2026-05-02T12:05:06.003Z</time></trkpt><trkpt lat="42.1500338" lon="13.7340392"><ele>480.0</ele><time>2026-05-02T12:05:07.003Z</time></trkpt><trkpt lat="42.1498198" lon="13.7341242"><ele>480.0</ele><time>2026-05-02T12:05:08.002Z</time></trkpt><trkpt lat="42.1496007" lon="13.7342099"><ele>477.5</ele><time>2026-05-02T12:05:09.002Z</time></trkpt><trkpt lat="42.14938" lon="13.7342979"><ele>475.0</ele><time>2026-05-02T12:05:10.003Z</time></trkpt><trkpt lat="42.1491611" lon="13.73439"><ele>479.0</ele><time>2026-05-02T12:05:11.003Z</time></trkpt><trkpt lat="42.1489466" lon="13.7344819"><ele>483.0</ele><time>2026-05-02T12:05:12.003Z</time></trkpt><trkpt lat="42.1487311" lon="13.7345742"><ele>483.0</ele><time>2026-05-02T12:05:13.002Z</time></trkpt><trkpt lat="42.1485174" lon="13.7346668"><ele>483.0</ele><time>2026-05-02T12:05:14.003Z</time></trkpt><trkpt lat="42.1483085" lon="13.7347598"><ele>483.0</ele><time>2026-05-02T12:05:15.003Z</time></trkpt><trkpt lat="42.1481152" lon="13.7348431"><ele>482.66666666666663</ele><time>2026-05-02T12:05:16.002Z</time></trkpt><trkpt lat="42.1479293" lon="13.734918"><ele>482.3333333333333</ele><time>2026-05-02T12:05:17.003Z</time></trkpt><trkpt lat="42.1477468" lon="13.7349991"><ele>482.0</ele><time>2026-05-02T12:05:18.003Z</time></trkpt><trkpt lat="42.147573" lon="13.7351003"><ele>482.0</ele><time>2026-05-02T12:05:19.003Z</time></trkpt><trkpt lat="42.1474066" lon="13.7352216"><ele>482.0</ele><time>2026-05-02T12:05:20.002Z</time></trkpt><trkpt lat="42.1472441" lon="13.7353541"><ele>482.0</ele><time>2026-05-02T12:05:21.002Z</time></trkpt><trkpt lat="42.1470803" lon="13.735488"><ele>482.0</ele><time>2026-05-02T12:05:22.002Z</time></trkpt><trkpt lat="42.14692" lon="13.7356136"><ele>482.0</ele><time>2026-05-02T12:05:23.002Z</time></trkpt><trkpt lat="42.1467671" lon="13.7357287"><ele>482.0</ele><time>2026-05-02T12:05:24.003Z</time></trkpt><trkpt lat="42.1466292" lon="13.735833"><ele>480.5</ele><time>2026-05-02T12:05:25.002Z</time></trkpt><trkpt lat="42.1465033" lon="13.7359262"><ele>479.0</ele><time>2026-05-02T12:05:26.003Z</time></trkpt><trkpt lat="42.1463929" lon="13.7360213"><ele>477.5</ele><time>2026-05-02T12:05:27.003Z</time></trkpt><trkpt lat="42.1462955" lon="13.7361126"><ele>476.0</ele><time>2026-05-02T12:05:28.003Z</time></trkpt><trkpt lat="42.1462309" lon="13.7362182"><ele>476.0</ele><time>2026-05-02T12:05:29.003Z</time></trkpt><trkpt lat="42.1461989" lon="13.736341"><ele>476.0</ele><time>2026-05-02T12:05:30.002Z</time></trkpt><trkpt lat="42.1461987" lon="13.7364905"><ele>476.0</ele><time>2026-05-02T12:05:31.003Z</time></trkpt><trkpt lat="42.1462141" lon="13.7366585"><ele>476.0</ele><time>2026-05-02T12:05:32.002Z</time></trkpt><trkpt lat="42.1462342" lon="13.7368422"><ele>473.3333333333333</ele><time>2026-05-02T12:05:33.003Z</time></trkpt><trkpt lat="42.1462534" lon="13.7370307"><ele>470.66666666666663</ele><time>2026-05-02T12:05:34.002Z</time></trkpt><trkpt lat="42.1462965" lon="13.7372298"><ele>468.0</ele><time>2026-05-02T12:05:35.003Z</time></trkpt><trkpt lat="42.1463729" lon="13.7374201"><ele>468.0</ele><time>2026-05-02T12:05:36.003Z</time></trkpt><trkpt lat="42.1464715" lon="13.7376041"><ele>468.0</ele><time>2026-05-02T12:05:37.003Z</time></trkpt><trkpt lat="42.1465774" lon="13.7377946"><ele>468.0</ele><time>2026-05-02T12:05:38.003Z</time></trkpt><trkpt lat="42.1466636" lon="13.7379818"><ele>469.75</ele><time>2026-05-02T12:05:39.003Z</time></trkpt><trkpt lat="42.1467197" lon="13.7381522"><ele>471.5</ele><time>2026-05-02T12:05:40.002Z</time></trkpt><trkpt lat="42.1467457" lon="13.7383008"><ele>473.25</ele><time>2026-05-02T12:05:41.002Z</time></trkpt><trkpt lat="42.1467419" lon="13.7384388"><ele>475.0</ele><time>2026-05-02T12:05:42.003Z</time></trkpt><trkpt lat="42.1466999" lon="13.73856"><ele>475.0</ele><time>2026-05-02T12:05:43.003Z</time></trkpt><trkpt lat="42.1466267" lon="13.7386509"><ele>475.0</ele><time>2026-05-02T12:05:44.003Z</time></trkpt><trkpt lat="42.1465379" lon="13.7386941"><ele>475.0</ele><time>2026-05-02T12:05:45.003Z</time></trkpt><trkpt lat="42.1464462" lon="13.7386744"><ele>475.0</ele><time>2026-05-02T12:05:46.002Z</time></trkpt><trkpt lat="42.1463663" lon="13.7386109"><ele>475.0</ele><time>2026-05-02T12:05:47.002Z</time></trkpt><trkpt lat="42.1462818" lon="13.7385081"><ele>474.0</ele><time>2026-05-02T12:05:48.003Z</time></trkpt><trkpt lat="42.1461878" lon="13.7383837"><ele>473.0</ele><time>2026-05-02T12:05:49.002Z</time></trkpt><trkpt lat="42.1460836" lon="13.7382463"><ele>472.0</ele><time>2026-05-02T12:05:50.003Z</time></trkpt><trkpt lat="42.1459667" lon="13.73811"><ele>471.0</ele><time>2026-05-02T12:05:51.003Z</time></trkpt><trkpt lat="42.1458482" lon="13.7379863"><ele>471.0</ele><time>2026-05-02T12:05:52.003Z</time></trkpt><trkpt lat="42.1457153" lon="13.7378902"><ele>471.0</ele><time>2026-05-02T12:05:53.003Z</time></trkpt><trkpt lat="42.1455643" lon="13.7378278"><ele>471.0</ele><time>2026-05-02T12:05:54.003Z</time></trkpt><trkpt lat="42.1453992" lon="13.737786"><ele>471.33333333333337</ele><time>2026-05-02T12:05:55.003Z</time></trkpt><trkpt lat="42.1452277" lon="13.73775"><ele>471.6666666666667</ele><time>2026-05-02T12:05:56.003Z</time></trkpt><trkpt lat="42.1450544" lon="13.7377161"><ele>472.0</ele><time>2026-05-02T12:05:57.003Z</time></trkpt><trkpt lat="42.144896" lon="13.7376848"><ele>469.0</ele><time>2026-05-02T12:05:58.003Z</time></trkpt><trkpt lat="42.144763" lon="13.737671"><ele>466.0</ele><time>2026-05-02T12:05:59.003Z</time></trkpt><trkpt lat="42.1446432" lon="13.7376936"><ele>463.0</ele><time>2026-05-02T12:06:00.003Z</time></trkpt><trkpt lat="42.144531" lon="13.7377664"><ele>460.0</ele><time>2026-05-02T12:06:01.003Z</time></trkpt><trkpt lat="42.1444185" lon="13.7378739"><ele>460.0</ele><time>2026-05-02T12:06:02.002Z</time></trkpt><trkpt lat="42.1443164" lon="13.7380211"><ele>460.0</ele><time>2026-05-02T12:06:03.003Z</time></trkpt><trkpt lat="42.1442286" lon="13.738216"><ele>460.0</ele><time>2026-05-02T12:06:04.003Z</time></trkpt><trkpt lat="42.1441498" lon="13.7384398"><ele>461.6666666666667</ele><time>2026-05-02T12:06:05.003Z</time></trkpt><trkpt lat="42.1440725" lon="13.7386787"><ele>463.33333333333337</ele><time>2026-05-02T12:06:06.003Z</time></trkpt><trkpt lat="42.1439964" lon="13.7389093"><ele>465.0</ele><time>2026-05-02T12:06:07.003Z</time></trkpt><trkpt lat="42.1439198" lon="13.7391306"><ele>460.66666666666663</ele><time>2026-05-02T12:06:08.003Z</time></trkpt><trkpt lat="42.143847" lon="13.7393399"><ele>456.3333333333333</ele><time>2026-05-02T12:06:09.003Z</time></trkpt><trkpt lat="42.1437789" lon="13.7395402"><ele>452.0</ele><time>2026-05-02T12:06:10.003Z</time></trkpt><trkpt lat="42.1437132" lon="13.7397304"><ele>452.0</ele><time>2026-05-02T12:06:11.002Z</time></trkpt><trkpt lat="42.1436503" lon="13.7399093"><ele>452.0</ele><time>2026-05-02T12:06:12.003Z</time></trkpt><trkpt lat="42.1435874" lon="13.7400752"><ele>452.0</ele><time>2026-05-02T12:06:13.002Z</time></trkpt><trkpt lat="42.143525" lon="13.7402216"><ele>452.0</ele><time>2026-05-02T12:06:14.003Z</time></trkpt><trkpt lat="42.1434725" lon="13.740341"><ele>452.49999999999994</ele><time>2026-05-02T12:06:15.003Z</time></trkpt><trkpt lat="42.1434254" lon="13.7404466"><ele>453.0</ele><time>2026-05-02T12:06:16.003Z</time></trkpt><trkpt lat="42.1433819" lon="13.7405481"><ele>453.5</ele><time>2026-05-02T12:06:17.003Z</time></trkpt><trkpt lat="42.1433398" lon="13.7406447"><ele>454.0</ele><time>2026-05-02T12:06:18.002Z</time></trkpt><trkpt lat="42.1432972" lon="13.7407317"><ele>454.49999999999994</ele><time>2026-05-02T12:06:19.002Z</time></trkpt><trkpt lat="42.1432492" lon="13.7408115"><ele>455.0</ele><time>2026-05-02T12:06:20.003Z</time></trkpt><trkpt lat="42.1431973" lon="13.7408897"><ele>454.42857142857144</ele><time>2026-05-02T12:06:21.003Z</time></trkpt><trkpt lat="42.1431457" lon="13.7409567"><ele>453.8571428571429</ele><time>2026-05-02T12:06:22.003Z</time></trkpt><trkpt lat="42.1430994" lon="13.7410186"><ele>453.2857142857143</ele><time>2026-05-02T12:06:23.003Z</time></trkpt><trkpt lat="42.1430483" lon="13.7410857"><ele>452.7142857142857</ele><time>2026-05-02T12:06:24.003Z</time></trkpt><trkpt lat="42.1429987" lon="13.7411581"><ele>452.14285714285717</ele><time>2026-05-02T12:06:25.002Z</time></trkpt><trkpt lat="42.1429527" lon="13.7412275"><ele>451.57142857142856</ele><time>2026-05-02T12:06:26.003Z</time></trkpt><trkpt lat="42.1429118" lon="13.7412935"><ele>451.0</ele><time>2026-05-02T12:06:27.003Z</time></trkpt><trkpt lat="42.1428616" lon="13.7413947"><ele>451.0</ele><time>2026-05-02T12:06:28.003Z</time></trkpt><trkpt lat="42.142787" lon="13.7415251"><ele>451.0</ele><time>2026-05-02T12:06:29.003Z</time></trkpt><trkpt lat="42.142697" lon="13.741675"><ele>451.0</ele><time>2026-05-02T12:06:30.003Z</time></trkpt><trkpt lat="42.1426079" lon="13.7418144"><ele>451.0</ele><time>2026-05-02T12:06:31.003Z</time></trkpt><trkpt lat="42.142527" lon="13.7419406"><ele>451.0</ele><time>2026-05-02T12:06:32.003Z</time></trkpt><trkpt lat="42.1424544" lon="13.7420469"><ele>451.0</ele><time>2026-05-02T12:06:33.003Z</time></trkpt><trkpt lat="42.142397" lon="13.742125"><ele>451.0</ele><time>2026-05-02T12:06:34.002Z</time></trkpt><trkpt lat="42.1423464" lon="13.7421864"><ele>451.0</ele><time>2026-05-02T12:06:35.002Z</time></trkpt><trkpt lat="42.1422238" lon="13.7422426"><ele>451.0</ele><time>2026-05-02T12:06:37.003Z</time></trkpt><trkpt lat="42.1421389" lon="13.7422355"><ele>450.5</ele><time>2026-05-02T12:06:38.003Z</time></trkpt><trkpt lat="42.1420294" lon="13.7422249"><ele>450.0</ele><time>2026-05-02T12:06:39.003Z</time></trkpt><trkpt lat="42.1418975" lon="13.7422199"><ele>449.5</ele><time>2026-05-02T12:06:40.003Z</time></trkpt><trkpt lat="42.1417589" lon="13.7422214"><ele>449.0</ele><time>2026-05-02T12:06:41.003Z</time></trkpt><trkpt lat="42.1416405" lon="13.7422285"><ele>449.0</ele><time>2026-05-02T12:06:42.003Z</time></trkpt><trkpt lat="42.1415268" lon="13.7422089"><ele>449.0</ele><time>2026-05-02T12:06:43.003Z</time></trkpt><trkpt lat="42.1414248" lon="13.7421515"><ele>449.0</ele><time>2026-05-02T12:06:44.002Z</time></trkpt><trkpt lat="42.1413342" lon="13.7420553"><ele>449.0</ele><time>2026-05-02T12:06:45.002Z</time></trkpt><trkpt lat="42.1412601" lon="13.7419313"><ele>449.66666666666663</ele><time>2026-05-02T12:06:46.003Z</time></trkpt><trkpt lat="42.1412078" lon="13.741761"><ele>450.33333333333337</ele><time>2026-05-02T12:06:47.003Z</time></trkpt><trkpt lat="42.1411751" lon="13.7415566"><ele>451.0</ele><time>2026-05-02T12:06:48.003Z</time></trkpt><trkpt lat="42.141148" lon="13.7413155"><ele>451.0</ele><time>2026-05-02T12:06:49.003Z</time></trkpt><trkpt lat="42.1411234" lon="13.741051"><ele>451.0</ele><time>2026-05-02T12:06:50.003Z</time></trkpt><trkpt lat="42.1411019" lon="13.7407743"><ele>451.0</ele><time>2026-05-02T12:06:51.003Z</time></trkpt><trkpt lat="42.1410827" lon="13.7404996"><ele>452.0</ele><time>2026-05-02T12:06:52.002Z</time></trkpt><trkpt lat="42.1410667" lon="13.7402434"><ele>453.0</ele><time>2026-05-02T12:06:53.003Z</time></trkpt><trkpt lat="42.1410376" lon="13.7399939"><ele>454.0</ele><time>2026-05-02T12:06:54.003Z</time></trkpt><trkpt lat="42.1409814" lon="13.7397562"><ele>454.33333333333337</ele><time>2026-05-02T12:06:55.003Z</time></trkpt><trkpt lat="42.140892" lon="13.7395348"><ele>454.66666666666663</ele><time>2026-05-02T12:06:56.003Z</time></trkpt><trkpt lat="42.1407688" lon="13.7393262"><ele>455.0</ele><time>2026-05-02T12:06:57.003Z</time></trkpt><trkpt lat="42.1406266" lon="13.7391309"><ele>455.0</ele><time>2026-05-02T12:06:58.003Z</time></trkpt><trkpt lat="42.1404686" lon="13.7389353"><ele>455.0</ele><time>2026-05-02T12:06:59.003Z</time></trkpt><trkpt lat="42.1403041" lon="13.7387418"><ele>455.0</ele><time>2026-05-02T12:07:00.003Z</time></trkpt><trkpt lat="42.140138" lon="13.7385391"><ele>455.66666666666663</ele><time>2026-05-02T12:07:01.003Z</time></trkpt><trkpt lat="42.1399808" lon="13.7383289"><ele>456.33333333333337</ele><time>2026-05-02T12:07:02.003Z</time></trkpt><trkpt lat="42.1398332" lon="13.7381272"><ele>457.0</ele><time>2026-05-02T12:07:03.003Z</time></trkpt><trkpt lat="42.1396768" lon="13.7379484"><ele>457.0</ele><time>2026-05-02T12:07:04.002Z</time></trkpt><trkpt lat="42.1395128" lon="13.7377936"><ele>457.0</ele><time>2026-05-02T12:07:05.003Z</time></trkpt><trkpt lat="42.1393327" lon="13.737663"><ele>457.0</ele><time>2026-05-02T12:07:06.003Z</time></trkpt><trkpt lat="42.1391433" lon="13.7375571"><ele>462.33333333333337</ele><time>2026-05-02T12:07:07.003Z</time></trkpt><trkpt lat="42.1389637" lon="13.737484"><ele>467.66666666666663</ele><time>2026-05-02T12:07:08.003Z</time></trkpt><trkpt lat="42.1387658" lon="13.737446"><ele>473.0</ele><time>2026-05-02T12:07:09.003Z</time></trkpt><trkpt lat="42.1385634" lon="13.73743"><ele>473.0</ele><time>2026-05-02T12:07:10.002Z</time></trkpt><trkpt lat="42.1383605" lon="13.7374282"><ele>473.0</ele><time>2026-05-02T12:07:11.003Z</time></trkpt><trkpt lat="42.1381789" lon="13.7374249"><ele>473.0</ele><time>2026-05-02T12:07:12.003Z</time></trkpt><trkpt lat="42.138003" lon="13.7374172"><ele>472.3333333333333</ele><time>2026-05-02T12:07:13.003Z</time></trkpt><trkpt lat="42.1378245" lon="13.7373916"><ele>471.66666666666663</ele><time>2026-05-02T12:07:14.003Z</time></trkpt><trkpt lat="42.1376365" lon="13.7373377"><ele>471.0</ele><time>2026-05-02T12:07:15.003Z</time></trkpt><trkpt lat="42.1374452" lon="13.7372589"><ele>469.66666666666663</ele><time>2026-05-02T12:07:16.003Z</time></trkpt><trkpt lat="42.137248" lon="13.7371675"><ele>468.3333333333333</ele><time>2026-05-02T12:07:17.003Z</time></trkpt><trkpt lat="42.1370614" lon="13.7370918"><ele>467.0</ele><time>2026-05-02T12:07:18.002Z</time></trkpt><trkpt lat="42.136871" lon="13.7370427"><ele>467.0</ele><time>2026-05-02T12:07:19.003Z</time></trkpt><trkpt lat="42.1366753" lon="13.7370241"><ele>467.0</ele><time>2026-05-02T12:07:20.003Z</time></trkpt><trkpt lat="42.1364853" lon="13.7370217"><ele>467.0</ele><time>2026-05-02T12:07:21.003Z</time></trkpt><trkpt lat="42.1363136" lon="13.7370176"><ele>467.0</ele><time>2026-05-02T12:07:22.003Z</time></trkpt><trkpt lat="42.1361536" lon="13.7369998"><ele>467.0</ele><time>2026-05-02T12:07:23.003Z</time></trkpt><trkpt lat="42.1360093" lon="13.7369554"><ele>467.0</ele><time>2026-05-02T12:07:24.003Z</time></trkpt><trkpt lat="42.1358883" lon="13.7368653"><ele>467.0</ele><time>2026-05-02T12:07:25.002Z</time></trkpt><trkpt lat="42.1357905" lon="13.7367485"><ele>469.40000000000003</ele><time>2026-05-02T12:07:26.003Z</time></trkpt><trkpt lat="42.1357397" lon="13.7366295"><ele>471.80000000000007</ele><time>2026-05-02T12:07:27.003Z</time></trkpt><trkpt lat="42.1357318" lon="13.7365168"><ele>474.2</ele><time>2026-05-02T12:07:28.003Z</time></trkpt><trkpt lat="42.1357608" lon="13.7363856"><ele>476.6</ele><time>2026-05-02T12:07:29.003Z</time></trkpt><trkpt lat="42.1358125" lon="13.7362249"><ele>479.0</ele><time>2026-05-02T12:07:30.003Z</time></trkpt><trkpt lat="42.135875" lon="13.7360339"><ele>479.3333333333333</ele><time>2026-05-02T12:07:31.003Z</time></trkpt><trkpt lat="42.135935" lon="13.7358328"><ele>479.66666666666663</ele><time>2026-05-02T12:07:32.003Z</time></trkpt><trkpt lat="42.1359731" lon="13.7356243"><ele>480.0</ele><time>2026-05-02T12:07:33.003Z</time></trkpt><trkpt lat="42.1359796" lon="13.7353932"><ele>482.66666666666663</ele><time>2026-05-02T12:07:34.003Z</time></trkpt><trkpt lat="42.1359583" lon="13.735148"><ele>485.3333333333333</ele><time>2026-05-02T12:07:35.003Z</time></trkpt><trkpt lat="42.1359009" lon="13.7349034"><ele>488.0</ele><time>2026-05-02T12:07:36.003Z</time></trkpt><trkpt lat="42.1358126" lon="13.7346574"><ele>483.66666666666663</ele><time>2026-05-02T12:07:37.003Z</time></trkpt><trkpt lat="42.1357047" lon="13.7344111"><ele>479.33333333333337</ele><time>2026-05-02T12:07:38.003Z</time></trkpt><trkpt lat="42.1355711" lon="13.7341767"><ele>475.0</ele><time>2026-05-02T12:07:39.003Z</time></trkpt><trkpt lat="42.1354232" lon="13.7339514"><ele>475.0</ele><time>2026-05-02T12:07:40.003Z</time></trkpt><trkpt lat="42.1352754" lon="13.7337426"><ele>475.0</ele><time>2026-05-02T12:07:41.003Z</time></trkpt><trkpt lat="42.1351146" lon="13.733551"><ele>475.0</ele><time>2026-05-02T12:07:42.003Z</time></trkpt><trkpt lat="42.1349406" lon="13.733377"><ele>476.33333333333337</ele><time>2026-05-02T12:07:43.003Z</time></trkpt><trkpt lat="42.1347703" lon="13.733196"><ele>477.66666666666663</ele><time>2026-05-02T12:07:44.003Z</time></trkpt><trkpt lat="42.1346171" lon="13.7329926"><ele>479.0</ele><time>2026-05-02T12:07:45.003Z</time></trkpt><trkpt lat="42.1344844" lon="13.7327749"><ele>485.66666666666663</ele><time>2026-05-02T12:07:46.002Z</time></trkpt><trkpt lat="42.1343643" lon="13.7325738"><ele>492.33333333333337</ele><time>2026-05-02T12:07:47.003Z</time></trkpt><trkpt lat="42.1342432" lon="13.7324051"><ele>499.0</ele><time>2026-05-02T12:07:48.003Z</time></trkpt><trkpt lat="42.1341162" lon="13.7322751"><ele>495.0</ele><time>2026-05-02T12:07:49.003Z</time></trkpt><trkpt lat="42.1339882" lon="13.7321745"><ele>491.0</ele><time>2026-05-02T12:07:50.003Z</time></trkpt><trkpt lat="42.1338456" lon="13.7321018"><ele>487.0</ele><time>2026-05-02T12:07:51.003Z</time></trkpt><trkpt lat="42.1336983" lon="13.732037"><ele>487.0</ele><time>2026-05-02T12:07:52.003Z</time></trkpt><trkpt lat="42.1335553" lon="13.7319492"><ele>487.0</ele><time>2026-05-02T12:07:53.003Z</time></trkpt><trkpt lat="42.1334274" lon="13.7318392"><ele>487.0</ele><time>2026-05-02T12:07:54.003Z</time></trkpt><trkpt lat="42.1332936" lon="13.7317433"><ele>494.0</ele><time>2026-05-02T12:07:55.003Z</time></trkpt><trkpt lat="42.1331484" lon="13.731679"><ele>501.0</ele><time>2026-05-02T12:07:56.003Z</time></trkpt><trkpt lat="42.1329955" lon="13.7316557"><ele>508.0</ele><time>2026-05-02T12:07:57.003Z</time></trkpt><trkpt lat="42.1328354" lon="13.7316816"><ele>508.0</ele><time>2026-05-02T12:07:58.002Z</time></trkpt><trkpt lat="42.1326694" lon="13.7317381"><ele>508.0</ele><time>2026-05-02T12:07:59.002Z</time></trkpt><trkpt lat="42.1325038" lon="13.7317924"><ele>508.0</ele><time>2026-05-02T12:08:00.003Z</time></trkpt><trkpt lat="42.1323482" lon="13.731821"><ele>507.25</ele><time>2026-05-02T12:08:01.003Z</time></trkpt><trkpt lat="42.132203" lon="13.7318159"><ele>506.5</ele><time>2026-05-02T12:08:02.003Z</time></trkpt><trkpt lat="42.1320747" lon="13.7317628"><ele>505.75</ele><time>2026-05-02T12:08:03.003Z</time></trkpt><trkpt lat="42.1319564" lon="13.7316693"><ele>505.0</ele><time>2026-05-02T12:08:04.003Z</time></trkpt><trkpt lat="42.1318475" lon="13.7315508"><ele>505.0</ele><time>2026-05-02T12:08:05.003Z</time></trkpt><trkpt lat="42.1317377" lon="13.7314254"><ele>505.0</ele><time>2026-05-02T12:08:06.002Z</time></trkpt><trkpt lat="42.1316184" lon="13.7313056"><ele>505.0</ele><time>2026-05-02T12:08:07.003Z</time></trkpt><trkpt lat="42.1314942" lon="13.7312198"><ele>505.0</ele><time>2026-05-02T12:08:08.003Z</time></trkpt><trkpt lat="42.131356" lon="13.7311807"><ele>502.5</ele><time>2026-05-02T12:08:09.003Z</time></trkpt><trkpt lat="42.131216" lon="13.7311788"><ele>500.0</ele><time>2026-05-02T12:08:10.002Z</time></trkpt><trkpt lat="42.1310821" lon="13.73119"><ele>497.5</ele><time>2026-05-02T12:08:11.003Z</time></trkpt><trkpt lat="42.1309705" lon="13.7311755"><ele>495.0</ele><time>2026-05-02T12:08:12.003Z</time></trkpt><trkpt lat="42.1308755" lon="13.7311296"><ele>497.0</ele><time>2026-05-02T12:08:13.003Z</time></trkpt><trkpt lat="42.1308059" lon="13.731056"><ele>499.0</ele><time>2026-05-02T12:08:14.003Z</time></trkpt><trkpt lat="42.1307479" lon="13.7309546"><ele>501.0</ele><time>2026-05-02T12:08:15.003Z</time></trkpt><trkpt lat="42.1306987" lon="13.7308442"><ele>503.0</ele><time>2026-05-02T12:08:16.003Z</time></trkpt><trkpt lat="42.1306301" lon="13.7307333"><ele>505.0</ele><time>2026-05-02T12:08:17.003Z</time></trkpt><trkpt lat="42.1305407" lon="13.7306405"><ele>505.0</ele><time>2026-05-02T12:08:18.003Z</time></trkpt><trkpt lat="42.1304389" lon="13.7305651"><ele>505.0</ele><time>2026-05-02T12:08:19.003Z</time></trkpt><trkpt lat="42.1303455" lon="13.7304925"><ele>505.0</ele><time>2026-05-02T12:08:20.003Z</time></trkpt><trkpt lat="42.1302708" lon="13.7304409"><ele>505.0</ele><time>2026-05-02T12:08:21.003Z</time></trkpt><trkpt lat="42.1302291" lon="13.7303324"><ele>505.0</ele><time>2026-05-02T12:08:22.003Z</time></trkpt><trkpt lat="42.1302077" lon="13.7302198"><ele>504.0</ele><time>2026-05-02T12:08:23.003Z</time></trkpt><trkpt lat="42.1301961" lon="13.7300808"><ele>503.0</ele><time>2026-05-02T12:08:24.003Z</time></trkpt><trkpt lat="42.1302128" lon="13.7299151"><ele>502.0</ele><time>2026-05-02T12:08:25.003Z</time></trkpt><trkpt lat="42.1302296" lon="13.7297161"><ele>501.0</ele><time>2026-05-02T12:08:26.003Z</time></trkpt><trkpt lat="42.1302482" lon="13.7294968"><ele>500.0</ele><time>2026-05-02T12:08:27.003Z</time></trkpt><trkpt lat="42.1302729" lon="13.7292941"><ele>499.0</ele><time>2026-05-02T12:08:28.003Z</time></trkpt><trkpt lat="42.1303147" lon="13.7290992"><ele>498.0</ele><time>2026-05-02T12:08:29.003Z</time></trkpt><trkpt lat="42.1303776" lon="13.7289298"><ele>497.0</ele><time>2026-05-02T12:08:30.003Z</time></trkpt><trkpt lat="42.1304683" lon="13.7287713"><ele>497.0</ele><time>2026-05-02T12:08:31.003Z</time></trkpt><trkpt lat="42.1305816" lon="13.7286092"><ele>497.0</ele><time>2026-05-02T12:08:32.002Z</time></trkpt><trkpt lat="42.1307073" lon="13.7284343"><ele>497.0</ele><time>2026-05-02T12:08:33.003Z</time></trkpt><trkpt lat="42.1308384" lon="13.7282473"><ele>499.0</ele><time>2026-05-02T12:08:34.003Z</time></trkpt><trkpt lat="42.1309661" lon="13.7280649"><ele>501.0</ele><time>2026-05-02T12:08:35.003Z</time></trkpt><trkpt lat="42.131084" lon="13.7278959"><ele>503.0</ele><time>2026-05-02T12:08:36.003Z</time></trkpt><trkpt lat="42.131188" lon="13.7277464"><ele>501.99999999999994</ele><time>2026-05-02T12:08:37.003Z</time></trkpt><trkpt lat="42.131275" lon="13.7276259"><ele>501.0</ele><time>2026-05-02T12:08:38.003Z</time></trkpt><trkpt lat="42.1313406" lon="13.7275246"><ele>500.0</ele><time>2026-05-02T12:08:39.003Z</time></trkpt><trkpt lat="42.1313784" lon="13.7274294"><ele>499.0</ele><time>2026-05-02T12:08:40.003Z</time></trkpt><trkpt lat="42.1313832" lon="13.7273324"><ele>497.99999999999994</ele><time>2026-05-02T12:08:41.003Z</time></trkpt><trkpt lat="42.1313517" lon="13.7272543"><ele>497.0</ele><time>2026-05-02T12:08:42.003Z</time></trkpt><trkpt lat="42.1312915" lon="13.7271995"><ele>497.0</ele><time>2026-05-02T12:08:43.002Z</time></trkpt><trkpt lat="42.1312176" lon="13.7271935"><ele>497.0</ele><time>2026-05-02T12:08:44.003Z</time></trkpt><trkpt lat="42.13113" lon="13.7272418"><ele>497.0</ele><time>2026-05-02T12:08:45.002Z</time></trkpt><trkpt lat="42.1310341" lon="13.727356"><ele>497.0</ele><time>2026-05-02T12:08:46.003Z</time></trkpt><trkpt lat="42.130925" lon="13.7275187"><ele>497.0</ele><time>2026-05-02T12:08:47.003Z</time></trkpt><trkpt lat="42.1308026" lon="13.7276874"><ele>497.0</ele><time>2026-05-02T12:08:48.002Z</time></trkpt><trkpt lat="42.1306672" lon="13.7278712"><ele>497.0</ele><time>2026-05-02T12:08:49.003Z</time></trkpt><trkpt lat="42.1305203" lon="13.7280732"><ele>497.0</ele><time>2026-05-02T12:08:50.003Z</time></trkpt><trkpt lat="42.1303651" lon="13.7282925"><ele>497.0</ele><time>2026-05-02T12:08:51.003Z</time></trkpt><trkpt lat="42.1302253" lon="13.7285118"><ele>497.0</ele><time>2026-05-02T12:08:52.003Z</time></trkpt><trkpt lat="42.1300963" lon="13.7287373"><ele>497.0</ele><time>2026-05-02T12:08:53.003Z</time></trkpt><trkpt lat="42.1299666" lon="13.7289761"><ele>497.0</ele><time>2026-05-02T12:08:54.003Z</time></trkpt><trkpt lat="42.129839" lon="13.7292156"><ele>497.0</ele><time>2026-05-02T12:08:55.002Z</time></trkpt><trkpt lat="42.1297185" lon="13.7294432"><ele>493.66666666666663</ele><time>2026-05-02T12:08:56.003Z</time></trkpt><trkpt lat="42.1296003" lon="13.7296634"><ele>490.33333333333337</ele><time>2026-05-02T12:08:57.003Z</time></trkpt><trkpt lat="42.1294804" lon="13.7298682"><ele>487.0</ele><time>2026-05-02T12:08:58.003Z</time></trkpt><trkpt lat="42.1293529" lon="13.7300661"><ele>485.0</ele><time>2026-05-02T12:08:59.003Z</time></trkpt><trkpt lat="42.1292049" lon="13.7302442"><ele>483.0</ele><time>2026-05-02T12:09:00.002Z</time></trkpt><trkpt lat="42.129045" lon="13.7304015"><ele>481.0</ele><time>2026-05-02T12:09:01.003Z</time></trkpt><trkpt lat="42.1288716" lon="13.7305605"><ele>481.0</ele><time>2026-05-02T12:09:02.003Z</time></trkpt><trkpt lat="42.1286905" lon="13.7307301"><ele>481.0</ele><time>2026-05-02T12:09:03.003Z</time></trkpt><trkpt lat="42.1285208" lon="13.7308926"><ele>481.0</ele><time>2026-05-02T12:09:04.003Z</time></trkpt><trkpt lat="42.1283592" lon="13.7310527"><ele>480.6666666666667</ele><time>2026-05-02T12:09:05.003Z</time></trkpt><trkpt lat="42.1282138" lon="13.7312114"><ele>480.33333333333337</ele><time>2026-05-02T12:09:06.003Z</time></trkpt><trkpt lat="42.1280801" lon="13.7313656"><ele>480.0</ele><time>2026-05-02T12:09:07.003Z</time></trkpt><trkpt lat="42.1279551" lon="13.7315073"><ele>480.0</ele><time>2026-05-02T12:09:08.003Z</time></trkpt><trkpt lat="42.1278387" lon="13.7316389"><ele>480.0</ele><time>2026-05-02T12:09:09.003Z</time></trkpt><trkpt lat="42.1277296" lon="13.7317616"><ele>480.0</ele><time>2026-05-02T12:09:10.003Z</time></trkpt><trkpt lat="42.1276251" lon="13.7318736"><ele>480.0</ele><time>2026-05-02T12:09:11.003Z</time></trkpt><trkpt lat="42.1275204" lon="13.7319728"><ele>481.0</ele><time>2026-05-02T12:09:12.003Z</time></trkpt><trkpt lat="42.1273982" lon="13.7320593"><ele>482.0</ele><time>2026-05-02T12:09:13.003Z</time></trkpt><trkpt lat="42.1272513" lon="13.7321269"><ele>483.0</ele><time>2026-05-02T12:09:14.003Z</time></trkpt><trkpt lat="42.1270926" lon="13.7321858"><ele>480.66666666666663</ele><time>2026-05-02T12:09:15.003Z</time></trkpt><trkpt lat="42.1269241" lon="13.7322691"><ele>478.3333333333333</ele><time>2026-05-02T12:09:16.002Z</time></trkpt><trkpt lat="42.1267515" lon="13.7323781"><ele>476.0</ele><time>2026-05-02T12:09:17.003Z</time></trkpt><trkpt lat="42.1265683" lon="13.7325006"><ele>475.5</ele><time>2026-05-02T12:09:18.003Z</time></trkpt><trkpt lat="42.1263717" lon="13.7326365"><ele>475.0</ele><time>2026-05-02T12:09:19.003Z</time></trkpt><trkpt lat="42.1261632" lon="13.7327803"><ele>474.5</ele><time>2026-05-02T12:09:20.003Z</time></trkpt><trkpt lat="42.125939" lon="13.7329373"><ele>474.0</ele><time>2026-05-02T12:09:21.003Z</time></trkpt><trkpt lat="42.1257027" lon="13.7330991"><ele>475.0</ele><time>2026-05-02T12:09:22.003Z</time></trkpt><trkpt lat="42.1254547" lon="13.7332803"><ele>476.0</ele><time>2026-05-02T12:09:23.002Z</time></trkpt><trkpt lat="42.1251927" lon="13.7334581"><ele>475.0</ele><time>2026-05-02T12:09:24.003Z</time></trkpt><trkpt lat="42.1249327" lon="13.7336275"><ele>474.0</ele><time>2026-05-02T12:09:25.003Z</time></trkpt><trkpt lat="42.1246919" lon="13.7337873"><ele>473.5</ele><time>2026-05-02T12:09:26.003Z</time></trkpt><trkpt lat="42.124458" lon="13.7339456"><ele>473.0</ele><time>2026-05-02T12:09:27.002Z</time></trkpt><trkpt lat="42.1242205" lon="13.734106"><ele>473.5</ele><time>2026-05-02T12:09:28.003Z</time></trkpt><trkpt lat="42.1239865" lon="13.7342701"><ele>474.0</ele><time>2026-05-02T12:09:29.003Z</time></trkpt><trkpt lat="42.123753" lon="13.7344372"><ele>474.0</ele><time>2026-05-02T12:09:30.003Z</time></trkpt><trkpt lat="42.1235287" lon="13.7346016"><ele>474.0</ele><time>2026-05-02T12:09:31.003Z</time></trkpt><trkpt lat="42.1233106" lon="13.7347613"><ele>475.5</ele><time>2026-05-02T12:09:32.003Z</time></trkpt><trkpt lat="42.123094" lon="13.7349103"><ele>477.0</ele><time>2026-05-02T12:09:33.003Z</time></trkpt><trkpt lat="42.1228731" lon="13.7350471"><ele>477.0</ele><time>2026-05-02T12:09:34.003Z</time></trkpt><trkpt lat="42.1226385" lon="13.7351671"><ele>477.0</ele><time>2026-05-02T12:09:35.003Z</time></trkpt><trkpt lat="42.1223896" lon="13.7352734"><ele>477.5</ele><time>2026-05-02T12:09:36.002Z</time></trkpt><trkpt lat="42.1221289" lon="13.7353736"><ele>478.0</ele><time>2026-05-02T12:09:37.002Z</time></trkpt><trkpt lat="42.121861" lon="13.7354766"><ele>478.0</ele><time>2026-05-02T12:09:38.003Z</time></trkpt><trkpt lat="42.121585" lon="13.7355835"><ele>478.0</ele><time>2026-05-02T12:09:39.003Z</time></trkpt><trkpt lat="42.1213087" lon="13.7356897"><ele>479.0</ele><time>2026-05-02T12:09:40.003Z</time></trkpt><trkpt lat="42.1210557" lon="13.7357862"><ele>480.0</ele><time>2026-05-02T12:09:41.002Z</time></trkpt><trkpt lat="42.1208215" lon="13.7358765"><ele>481.66666666666663</ele><time>2026-05-02T12:09:42.003Z</time></trkpt><trkpt lat="42.1206168" lon="13.7359538"><ele>483.3333333333333</ele><time>2026-05-02T12:09:43.003Z</time></trkpt><trkpt lat="42.1204386" lon="13.7360167"><ele>485.0</ele><time>2026-05-02T12:09:44.003Z</time></trkpt><trkpt lat="42.1202737" lon="13.73605"><ele>485.0</ele><time>2026-05-02T12:09:45.003Z</time></trkpt><trkpt lat="42.1201173" lon="13.7360531"><ele>485.0</ele><time>2026-05-02T12:09:46.003Z</time></trkpt><trkpt lat="42.1199728" lon="13.7360154"><ele>485.0</ele><time>2026-05-02T12:09:47.003Z</time></trkpt><trkpt lat="42.1198265" lon="13.7359259"><ele>485.66666666666663</ele><time>2026-05-02T12:09:48.003Z</time></trkpt><trkpt lat="42.1196795" lon="13.7357963"><ele>486.33333333333337</ele><time>2026-05-02T12:09:49.003Z</time></trkpt><trkpt lat="42.1195156" lon="13.7356498"><ele>487.0</ele><time>2026-05-02T12:09:50.003Z</time></trkpt><trkpt lat="42.1193418" lon="13.7355017"><ele>487.0</ele><time>2026-05-02T12:09:51.003Z</time></trkpt><trkpt lat="42.1191734" lon="13.7353725"><ele>487.0</ele><time>2026-05-02T12:09:52.002Z</time></trkpt><trkpt lat="42.1190138" lon="13.73526"><ele>487.0</ele><time>2026-05-02T12:09:53.003Z</time></trkpt><trkpt lat="42.1188697" lon="13.7351579"><ele>487.5</ele><time>2026-05-02T12:09:54.003Z</time></trkpt><trkpt lat="42.1187399" lon="13.7350628"><ele>488.0</ele><time>2026-05-02T12:09:55.003Z</time></trkpt><trkpt lat="42.1186115" lon="13.7349967"><ele>488.5</ele><time>2026-05-02T12:09:56.003Z</time></trkpt><trkpt lat="42.1184795" lon="13.7349756"><ele>489.0</ele><time>2026-05-02T12:09:57.003Z</time></trkpt><trkpt lat="42.1183484" lon="13.735002"><ele>491.0</ele><time>2026-05-02T12:09:58.003Z</time></trkpt><trkpt lat="42.1182082" lon="13.7350703"><ele>493.0</ele><time>2026-05-02T12:09:59.003Z</time></trkpt><trkpt lat="42.1180636" lon="13.7351728"><ele>495.0</ele><time>2026-05-02T12:10:00.003Z</time></trkpt><trkpt lat="42.1179106" lon="13.7352724"><ele>495.0</ele><time>2026-05-02T12:10:01.003Z</time></trkpt><trkpt lat="42.117746" lon="13.7353504"><ele>495.0</ele><time>2026-05-02T12:10:02.003Z</time></trkpt><trkpt lat="42.117582" lon="13.7354268"><ele>495.0</ele><time>2026-05-02T12:10:03.003Z</time></trkpt><trkpt lat="42.117411" lon="13.7354792"><ele>496.66666666666663</ele><time>2026-05-02T12:10:04.002Z</time></trkpt><trkpt lat="42.117183" lon="13.7354339"><ele>498.3333333333333</ele><time>2026-05-02T12:10:05.003Z</time></trkpt><trkpt lat="42.11698" lon="13.7354483"><ele>500.0</ele><time>2026-05-02T12:10:06.002Z</time></trkpt><trkpt lat="42.1167918" lon="13.7354669"><ele>500.0</ele><time>2026-05-02T12:10:07.003Z</time></trkpt><trkpt lat="42.116625" lon="13.7355069"><ele>500.0</ele><time>2026-05-02T12:10:08.003Z</time></trkpt><trkpt lat="42.1164754" lon="13.7355654"><ele>500.0</ele><time>2026-05-02T12:10:09.003Z</time></trkpt><trkpt lat="42.116341" lon="13.7356667"><ele>501.25</ele><time>2026-05-02T12:10:10.003Z</time></trkpt><trkpt lat="42.1162255" lon="13.7357973"><ele>502.5</ele><time>2026-05-02T12:10:11.003Z</time></trkpt><trkpt lat="42.1161526" lon="13.7359489"><ele>503.75</ele><time>2026-05-02T12:10:12.002Z</time></trkpt><trkpt lat="42.1161137" lon="13.7361022"><ele>505.0</ele><time>2026-05-02T12:10:13.003Z</time></trkpt><trkpt lat="42.1161001" lon="13.7362641"><ele>506.25</ele><time>2026-05-02T12:10:14.003Z</time></trkpt><trkpt lat="42.1161231" lon="13.7364322"><ele>507.5</ele><time>2026-05-02T12:10:15.003Z</time></trkpt><trkpt lat="42.1161818" lon="13.7366002"><ele>508.75</ele><time>2026-05-02T12:10:16.002Z</time></trkpt><trkpt lat="42.11627" lon="13.7367616"><ele>510.0</ele><time>2026-05-02T12:10:17.003Z</time></trkpt><trkpt lat="42.116386" lon="13.7369261"><ele>510.33333333333337</ele><time>2026-05-02T12:10:18.003Z</time></trkpt><trkpt lat="42.1165053" lon="13.7370923"><ele>510.6666666666667</ele><time>2026-05-02T12:10:19.003Z</time></trkpt><trkpt lat="42.1166159" lon="13.7372572"><ele>511.0</ele><time>2026-05-02T12:10:20.003Z</time></trkpt><trkpt lat="42.1167082" lon="13.73741"><ele>511.0</ele><time>2026-05-02T12:10:21.002Z</time></trkpt><trkpt lat="42.11679" lon="13.7375685"><ele>511.0</ele><time>2026-05-02T12:10:22.002Z</time></trkpt><trkpt lat="42.1168496" lon="13.7377542"><ele>511.0</ele><time>2026-05-02T12:10:23.003Z</time></trkpt><trkpt lat="42.116881" lon="13.7379537"><ele>511.0</ele><time>2026-05-02T12:10:24.003Z</time></trkpt><trkpt lat="42.1168696" lon="13.7381402"><ele>512.0</ele><time>2026-05-02T12:10:25.003Z</time></trkpt><trkpt lat="42.1168362" lon="13.7383348"><ele>513.0</ele><time>2026-05-02T12:10:26.002Z</time></trkpt><trkpt lat="42.1167879" lon="13.7385413"><ele>514.0</ele><time>2026-05-02T12:10:27.003Z</time></trkpt><trkpt lat="42.116739" lon="13.7387571"><ele>515.0</ele><time>2026-05-02T12:10:28.003Z</time></trkpt><trkpt lat="42.1166825" lon="13.7389754"><ele>516.0</ele><time>2026-05-02T12:10:29.002Z</time></trkpt><trkpt lat="42.1166202" lon="13.7391849"><ele>517.0</ele><time>2026-05-02T12:10:30.003Z</time></trkpt><trkpt lat="42.1165484" lon="13.7393849"><ele>520.6666666666667</ele><time>2026-05-02T12:10:31.003Z</time></trkpt><trkpt lat="42.1164548" lon="13.7395753"><ele>524.3333333333334</ele><time>2026-05-02T12:10:32.003Z</time></trkpt><trkpt lat="42.1163498" lon="13.7397585"><ele>528.0</ele><time>2026-05-02T12:10:33.002Z</time></trkpt><trkpt lat="42.1162316" lon="13.7399438"><ele>528.0</ele><time>2026-05-02T12:10:34.003Z</time></trkpt><trkpt lat="42.1161138" lon="13.7401291"><ele>528.0</ele><time>2026-05-02T12:10:35.003Z</time></trkpt><trkpt lat="42.1160041" lon="13.7403058"><ele>528.0</ele><time>2026-05-02T12:10:36.003Z</time></trkpt><trkpt lat="42.1159054" lon="13.7404771"><ele>527.5</ele><time>2026-05-02T12:10:37.002Z</time></trkpt><trkpt lat="42.1158095" lon="13.7406434"><ele>527.0</ele><time>2026-05-02T12:10:38.002Z</time></trkpt><trkpt lat="42.115728" lon="13.740799"><ele>526.5</ele><time>2026-05-02T12:10:39.003Z</time></trkpt><trkpt lat="42.115657" lon="13.7409479"><ele>526.0</ele><time>2026-05-02T12:10:40.003Z</time></trkpt><trkpt lat="42.1155951" lon="13.7410926"><ele>528.0</ele><time>2026-05-02T12:10:41.003Z</time></trkpt><trkpt lat="42.1155145" lon="13.741219"><ele>530.0</ele><time>2026-05-02T12:10:42.003Z</time></trkpt><trkpt lat="42.1154175" lon="13.741311"><ele>532.0</ele><time>2026-05-02T12:10:43.003Z</time></trkpt><trkpt lat="42.1153066" lon="13.7413674"><ele>534.0</ele><time>2026-05-02T12:10:44.003Z</time></trkpt><trkpt lat="42.1151884" lon="13.7414042"><ele>534.0</ele><time>2026-05-02T12:10:45.003Z</time></trkpt><trkpt lat="42.1150754" lon="13.7414323"><ele>534.0</ele><time>2026-05-02T12:10:46.003Z</time></trkpt><trkpt lat="42.1149759" lon="13.7414593"><ele>534.0</ele><time>2026-05-02T12:10:47.002Z</time></trkpt><trkpt lat="42.1148759" lon="13.7414615"><ele>534.0</ele><time>2026-05-02T12:10:48.002Z</time></trkpt><trkpt lat="42.114774" lon="13.7414284"><ele>534.0</ele><time>2026-05-02T12:10:49.003Z</time></trkpt><trkpt lat="42.1146811" lon="13.7413752"><ele>534.25</ele><time>2026-05-02T12:10:50.003Z</time></trkpt><trkpt lat="42.1145925" lon="13.7412392"><ele>534.5</ele><time>2026-05-02T12:10:51.003Z</time></trkpt><trkpt lat="42.1144763" lon="13.7411148"><ele>534.75</ele><time>2026-05-02T12:10:52.003Z</time></trkpt><trkpt lat="42.1143334" lon="13.7410083"><ele>535.0</ele><time>2026-05-02T12:10:53.003Z</time></trkpt><trkpt lat="42.1141822" lon="13.7409239"><ele>535.3333333333334</ele><time>2026-05-02T12:10:54.002Z</time></trkpt><trkpt lat="42.1140253" lon="13.7408765"><ele>535.6666666666666</ele><time>2026-05-02T12:10:55.003Z</time></trkpt><trkpt lat="42.1138566" lon="13.7408646"><ele>536.0</ele><time>2026-05-02T12:10:56.003Z</time></trkpt><trkpt lat="42.1136748" lon="13.7408719"><ele>536.0</ele><time>2026-05-02T12:10:57.003Z</time></trkpt><trkpt lat="42.1134872" lon="13.7408501"><ele>536.0</ele><time>2026-05-02T12:10:58.003Z</time></trkpt><trkpt lat="42.1133208" lon="13.7408124"><ele>536.0</ele><time>2026-05-02T12:10:59.002Z</time></trkpt><trkpt lat="42.1131699" lon="13.7407689"><ele>534.6666666666666</ele><time>2026-05-02T12:11:00.003Z</time></trkpt><trkpt lat="42.1130215" lon="13.7406953"><ele>533.3333333333334</ele><time>2026-05-02T12:11:01.003Z</time></trkpt><trkpt lat="42.1128641" lon="13.7405778"><ele>532.0</ele><time>2026-05-02T12:11:02.003Z</time></trkpt><trkpt lat="42.1126947" lon="13.7404359"><ele>532.0</ele><time>2026-05-02T12:11:03.002Z</time></trkpt><trkpt lat="42.1125109" lon="13.7402779"><ele>532.0</ele><time>2026-05-02T12:11:04.003Z</time></trkpt><trkpt lat="42.112314" lon="13.7401069"><ele>534.5</ele><time>2026-05-02T12:11:05.003Z</time></trkpt><trkpt lat="42.1121138" lon="13.7399287"><ele>537.0</ele><time>2026-05-02T12:11:06.003Z</time></trkpt><trkpt lat="42.1119026" lon="13.7397606"><ele>537.0</ele><time>2026-05-02T12:11:07.002Z</time></trkpt><trkpt lat="42.1116926" lon="13.7395931"><ele>537.0</ele><time>2026-05-02T12:11:08.003Z</time></trkpt><trkpt lat="42.1114815" lon="13.7394196"><ele>540.5</ele><time>2026-05-02T12:11:09.003Z</time></trkpt><trkpt lat="42.1112792" lon="13.7392452"><ele>544.0</ele><time>2026-05-02T12:11:10.003Z</time></trkpt><trkpt lat="42.1111006" lon="13.7390515"><ele>544.0</ele><time>2026-05-02T12:11:11.003Z</time></trkpt><trkpt lat="42.1109248" lon="13.7388691"><ele>544.0</ele><time>2026-05-02T12:11:12.002Z</time></trkpt><trkpt lat="42.1107556" lon="13.7386669"><ele>544.0</ele><time>2026-05-02T12:11:13.003Z</time></trkpt><trkpt lat="42.1105957" lon="13.7384317"><ele>544.0</ele><time>2026-05-02T12:11:14.003Z</time></trkpt><trkpt lat="42.110436" lon="13.7381784"><ele>544.0</ele><time>2026-05-02T12:11:15.003Z</time></trkpt><trkpt lat="42.110267" lon="13.7379286"><ele>545.5</ele><time>2026-05-02T12:11:16.003Z</time></trkpt><trkpt lat="42.1100844" lon="13.7376844"><ele>547.0</ele><time>2026-05-02T12:11:17.003Z</time></trkpt><trkpt lat="42.1098936" lon="13.7374457"><ele>547.0</ele><time>2026-05-02T12:11:18.003Z</time></trkpt><trkpt lat="42.1097146" lon="13.7372323"><ele>547.0</ele><time>2026-05-02T12:11:19.003Z</time></trkpt><trkpt lat="42.1095566" lon="13.7370371"><ele>549.0</ele><time>2026-05-02T12:11:20.003Z</time></trkpt><trkpt lat="42.1094174" lon="13.7368575"><ele>551.0</ele><time>2026-05-02T12:11:21.003Z</time></trkpt><trkpt lat="42.1093104" lon="13.7366598"><ele>553.0</ele><time>2026-05-02T12:11:22.003Z</time></trkpt><trkpt lat="42.1092266" lon="13.73643"><ele>553.0</ele><time>2026-05-02T12:11:23.003Z</time></trkpt><trkpt lat="42.1091532" lon="13.7361739"><ele>553.0</ele><time>2026-05-02T12:11:24.003Z</time></trkpt><trkpt lat="42.109083" lon="13.7359298"><ele>553.0</ele><time>2026-05-02T12:11:25.003Z</time></trkpt><trkpt lat="42.1089976" lon="13.7357316"><ele>553.0</ele><time>2026-05-02T12:11:26.003Z</time></trkpt><trkpt lat="42.1088936" lon="13.735567"><ele>553.0</ele><time>2026-05-02T12:11:27.003Z</time></trkpt><trkpt lat="42.1087708" lon="13.7354419"><ele>553.0</ele><time>2026-05-02T12:11:28.003Z</time></trkpt><trkpt lat="42.1086167" lon="13.7353417"><ele>553.0</ele><time>2026-05-02T12:11:29.003Z</time></trkpt><trkpt lat="42.1084476" lon="13.7352492"><ele>553.0</ele><time>2026-05-02T12:11:30.003Z</time></trkpt><trkpt lat="42.1082942" lon="13.7351637"><ele>553.0</ele><time>2026-05-02T12:11:31.002Z</time></trkpt><trkpt lat="42.1081607" lon="13.7350681"><ele>554.5</ele><time>2026-05-02T12:11:32.003Z</time></trkpt><trkpt lat="42.1080567" lon="13.7349609"><ele>556.0</ele><time>2026-05-02T12:11:33.003Z</time></trkpt><trkpt lat="42.1079687" lon="13.7348137"><ele>557.5</ele><time>2026-05-02T12:11:34.003Z</time></trkpt><trkpt lat="42.1078864" lon="13.7346192"><ele>559.0</ele><time>2026-05-02T12:11:35.002Z</time></trkpt><trkpt lat="42.1077995" lon="13.7343883"><ele>560.6666666666667</ele><time>2026-05-02T12:11:36.003Z</time></trkpt><trkpt lat="42.1077075" lon="13.7341457"><ele>562.3333333333334</ele><time>2026-05-02T12:11:37.003Z</time></trkpt><trkpt lat="42.1076213" lon="13.7339126"><ele>564.0</ele><time>2026-05-02T12:11:38.003Z</time></trkpt><trkpt lat="42.1075362" lon="13.7336965"><ele>565.3333333333334</ele><time>2026-05-02T12:11:39.003Z</time></trkpt><trkpt lat="42.1074668" lon="13.7334874"><ele>566.6666666666667</ele><time>2026-05-02T12:11:40.003Z</time></trkpt><trkpt lat="42.1074255" lon="13.7332756"><ele>568.0</ele><time>2026-05-02T12:11:41.003Z</time></trkpt><trkpt lat="42.1074102" lon="13.7330376"><ele>568.0</ele><time>2026-05-02T12:11:42.003Z</time></trkpt><trkpt lat="42.1074184" lon="13.7327847"><ele>568.0</ele><time>2026-05-02T12:11:43.002Z</time></trkpt><trkpt lat="42.1074267" lon="13.7325459"><ele>568.0</ele><time>2026-05-02T12:11:44.003Z</time></trkpt><trkpt lat="42.1074078" lon="13.7323194"><ele>568.6666666666667</ele><time>2026-05-02T12:11:45.003Z</time></trkpt><trkpt lat="42.1073574" lon="13.7321027"><ele>569.3333333333334</ele><time>2026-05-02T12:11:46.003Z</time></trkpt><trkpt lat="42.1072694" lon="13.7318872"><ele>570.0</ele><time>2026-05-02T12:11:47.003Z</time></trkpt><trkpt lat="42.107154" lon="13.7316713"><ele>570.0</ele><time>2026-05-02T12:11:48.003Z</time></trkpt><trkpt lat="42.1070293" lon="13.7314458"><ele>570.0</ele><time>2026-05-02T12:11:49.003Z</time></trkpt><trkpt lat="42.1068955" lon="13.7312116"><ele>570.0</ele><time>2026-05-02T12:11:50.003Z</time></trkpt><trkpt lat="42.1067494" lon="13.7309679"><ele>570.5</ele><time>2026-05-02T12:11:51.003Z</time></trkpt><trkpt lat="42.1065943" lon="13.7307318"><ele>571.0</ele><time>2026-05-02T12:11:52.003Z</time></trkpt><trkpt lat="42.1064275" lon="13.7304954"><ele>571.0</ele><time>2026-05-02T12:11:53.003Z</time></trkpt><trkpt lat="42.1062591" lon="13.7302545"><ele>571.0</ele><time>2026-05-02T12:11:54.003Z</time></trkpt><trkpt lat="42.1060879" lon="13.7300188"><ele>572.6666666666667</ele><time>2026-05-02T12:11:55.003Z</time></trkpt><trkpt lat="42.1059312" lon="13.7297999"><ele>574.3333333333334</ele><time>2026-05-02T12:11:56.003Z</time></trkpt><trkpt lat="42.1057831" lon="13.7295901"><ele>576.0</ele><time>2026-05-02T12:11:57.003Z</time></trkpt><trkpt lat="42.1056396" lon="13.7293944"><ele>579.0</ele><time>2026-05-02T12:11:58.003Z</time></trkpt><trkpt lat="42.1055083" lon="13.7292118"><ele>582.0</ele><time>2026-05-02T12:11:59.003Z</time></trkpt><trkpt lat="42.1053872" lon="13.7290397"><ele>585.0</ele><time>2026-05-02T12:12:00.003Z</time></trkpt><trkpt lat="42.1052654" lon="13.7288925"><ele>585.0</ele><time>2026-05-02T12:12:01.003Z</time></trkpt><trkpt lat="42.1051223" lon="13.7287754"><ele>585.0</ele><time>2026-05-02T12:12:02.002Z</time></trkpt><trkpt lat="42.1049639" lon="13.7286833"><ele>585.0</ele><time>2026-05-02T12:12:03.003Z</time></trkpt><trkpt lat="42.1048015" lon="13.7286121"><ele>586.6666666666666</ele><time>2026-05-02T12:12:04.002Z</time></trkpt><trkpt lat="42.1046445" lon="13.7285656"><ele>588.3333333333333</ele><time>2026-05-02T12:12:05.003Z</time></trkpt><trkpt lat="42.1044812" lon="13.7285585"><ele>590.0</ele><time>2026-05-02T12:12:06.003Z</time></trkpt><trkpt lat="42.1043145" lon="13.7286028"><ele>590.0</ele><time>2026-05-02T12:12:07.003Z</time></trkpt><trkpt lat="42.1041417" lon="13.728699"><ele>590.0</ele><time>2026-05-02T12:12:08.003Z</time></trkpt><trkpt lat="42.1039608" lon="13.7288427"><ele>590.0</ele><time>2026-05-02T12:12:09.003Z</time></trkpt><trkpt lat="42.1037701" lon="13.7290046"><ele>601.5</ele><time>2026-05-02T12:12:10.003Z</time></trkpt><trkpt lat="42.1035664" lon="13.7291687"><ele>613.0</ele><time>2026-05-02T12:12:11.003Z</time></trkpt><trkpt lat="42.1033744" lon="13.7293247"><ele>611.0</ele><time>2026-05-02T12:12:12.003Z</time></trkpt><trkpt lat="42.1031868" lon="13.7294575"><ele>609.0</ele><time>2026-05-02T12:12:13.003Z</time></trkpt><trkpt lat="42.1030095" lon="13.7295726"><ele>607.0</ele><time>2026-05-02T12:12:14.003Z</time></trkpt><trkpt lat="42.102858" lon="13.7296962"><ele>607.0</ele><time>2026-05-02T12:12:15.002Z</time></trkpt><trkpt lat="42.1027198" lon="13.7298524"><ele>607.0</ele><time>2026-05-02T12:12:16.003Z</time></trkpt><trkpt lat="42.1025787" lon="13.7300004"><ele>607.0</ele><time>2026-05-02T12:12:17.003Z</time></trkpt><trkpt lat="42.1024176" lon="13.730118"><ele>607.6666666666667</ele><time>2026-05-02T12:12:18.003Z</time></trkpt><trkpt lat="42.1022538" lon="13.7302207"><ele>608.3333333333334</ele><time>2026-05-02T12:12:19.002Z</time></trkpt><trkpt lat="42.1021061" lon="13.7303147"><ele>609.0</ele><time>2026-05-02T12:12:20.003Z</time></trkpt><trkpt lat="42.1019789" lon="13.7304255"><ele>609.0</ele><time>2026-05-02T12:12:21.003Z</time></trkpt><trkpt lat="42.1018701" lon="13.7305763"><ele>609.0</ele><time>2026-05-02T12:12:22.003Z</time></trkpt><trkpt lat="42.101772" lon="13.7307459"><ele>609.0</ele><time>2026-05-02T12:12:23.002Z</time></trkpt><trkpt lat="42.1016602" lon="13.7309068"><ele>609.0</ele><time>2026-05-02T12:12:24.002Z</time></trkpt><trkpt lat="42.1015257" lon="13.7310461"><ele>609.0</ele><time>2026-05-02T12:12:25.003Z</time></trkpt><trkpt lat="42.1013696" lon="13.7311681"><ele>609.0</ele><time>2026-05-02T12:12:26.002Z</time></trkpt><trkpt lat="42.1011975" lon="13.7312773"><ele>609.0</ele><time>2026-05-02T12:12:27.003Z</time></trkpt><trkpt lat="42.1010238" lon="13.7313762"><ele>609.0</ele><time>2026-05-02T12:12:28.003Z</time></trkpt><trkpt lat="42.1008578" lon="13.7314562"><ele>609.0</ele><time>2026-05-02T12:12:29.003Z</time></trkpt><trkpt lat="42.1006778" lon="13.731525"><ele>612.3333333333334</ele><time>2026-05-02T12:12:30.003Z</time></trkpt><trkpt lat="42.1004869" lon="13.7315689"><ele>615.6666666666667</ele><time>2026-05-02T12:12:31.003Z</time></trkpt><trkpt lat="42.10031" lon="13.7315971"><ele>619.0</ele><time>2026-05-02T12:12:32.003Z</time></trkpt><trkpt lat="42.1001513" lon="13.731627"><ele>619.0</ele><time>2026-05-02T12:12:33.003Z</time></trkpt><trkpt lat="42.1000144" lon="13.731687"><ele>619.0</ele><time>2026-05-02T12:12:34.003Z</time></trkpt><trkpt lat="42.0999065" lon="13.7317863"><ele>619.0</ele><time>2026-05-02T12:12:35.003Z</time></trkpt><trkpt lat="42.099826" lon="13.7319253"><ele>619.0</ele><time>2026-05-02T12:12:36.003Z</time></trkpt><trkpt lat="42.0997703" lon="13.7320942"><ele>622.3333333333334</ele><time>2026-05-02T12:12:37.003Z</time></trkpt><trkpt lat="42.099725" lon="13.7322868"><ele>625.6666666666666</ele><time>2026-05-02T12:12:38.003Z</time></trkpt><trkpt lat="42.0996704" lon="13.7324944"><ele>629.0</ele><time>2026-05-02T12:12:39.003Z</time></trkpt><trkpt lat="42.099586" lon="13.7327046"><ele>625.3333333333333</ele><time>2026-05-02T12:12:40.003Z</time></trkpt><trkpt lat="42.0994809" lon="13.7328926"><ele>621.6666666666666</ele><time>2026-05-02T12:12:41.003Z</time></trkpt><trkpt lat="42.0993697" lon="13.7330338"><ele>618.0</ele><time>2026-05-02T12:12:42.002Z</time></trkpt><trkpt lat="42.099264" lon="13.733135"><ele>618.0</ele><time>2026-05-02T12:12:43.003Z</time></trkpt><trkpt lat="42.0991512" lon="13.7331869"><ele>618.0</ele><time>2026-05-02T12:12:44.003Z</time></trkpt><trkpt lat="42.0990349" lon="13.7332384"><ele>618.0</ele><time>2026-05-02T12:12:45.003Z</time></trkpt><trkpt lat="42.0989073" lon="13.7332584"><ele>618.0</ele><time>2026-05-02T12:12:46.003Z</time></trkpt><trkpt lat="42.0987106" lon="13.7331791"><ele>621.0</ele><time>2026-05-02T12:12:47.003Z</time></trkpt><trkpt lat="42.098555" lon="13.7331903"><ele>624.0</ele><time>2026-05-02T12:12:48.003Z</time></trkpt><trkpt lat="42.0983912" lon="13.7332526"><ele>627.0</ele><time>2026-05-02T12:12:49.003Z</time></trkpt><trkpt lat="42.0982198" lon="13.7333356"><ele>628.3333333333334</ele><time>2026-05-02T12:12:50.003Z</time></trkpt><trkpt lat="42.0980546" lon="13.7334218"><ele>629.6666666666667</ele><time>2026-05-02T12:12:51.003Z</time></trkpt><trkpt lat="42.097908" lon="13.7335096"><ele>631.0</ele><time>2026-05-02T12:12:52.003Z</time></trkpt><trkpt lat="42.0977925" lon="13.7336273"><ele>631.0</ele><time>2026-05-02T12:12:53.003Z</time></trkpt><trkpt lat="42.0976985" lon="13.7337797"><ele>631.0</ele><time>2026-05-02T12:12:54.003Z</time></trkpt><trkpt lat="42.0976167" lon="13.7339721"><ele>631.0</ele><time>2026-05-02T12:12:55.003Z</time></trkpt><trkpt lat="42.0975346" lon="13.7341804"><ele>631.0</ele><time>2026-05-02T12:12:56.003Z</time></trkpt><trkpt lat="42.0974512" lon="13.7343863"><ele>631.0</ele><time>2026-05-02T12:12:57.003Z</time></trkpt><trkpt lat="42.0973568" lon="13.7345759"><ele>631.0</ele><time>2026-05-02T12:12:58.002Z</time></trkpt><trkpt lat="42.0972385" lon="13.7347565"><ele>633.3333333333334</ele><time>2026-05-02T12:12:59.002Z</time></trkpt><trkpt lat="42.0970957" lon="13.7349202"><ele>635.6666666666666</ele><time>2026-05-02T12:13:00.003Z</time></trkpt><trkpt lat="42.0969223" lon="13.7350583"><ele>638.0</ele><time>2026-05-02T12:13:01.003Z</time></trkpt><trkpt lat="42.0967538" lon="13.7351876"><ele>635.3333333333333</ele><time>2026-05-02T12:13:02.003Z</time></trkpt><trkpt lat="42.0966032" lon="13.7353218"><ele>632.6666666666666</ele><time>2026-05-02T12:13:03.003Z</time></trkpt><trkpt lat="42.0964634" lon="13.735496"><ele>630.0</ele><time>2026-05-02T12:13:04.003Z</time></trkpt><trkpt lat="42.0963309" lon="13.7357025"><ele>633.3333333333334</ele><time>2026-05-02T12:13:05.003Z</time></trkpt><trkpt lat="42.0961993" lon="13.7359254"><ele>636.6666666666667</ele><time>2026-05-02T12:13:06.003Z</time></trkpt><trkpt lat="42.0960607" lon="13.73615"><ele>640.0</ele><time>2026-05-02T12:13:07.003Z</time></trkpt><trkpt lat="42.0959066" lon="13.7363748"><ele>653.5</ele><time>2026-05-02T12:13:08.003Z</time></trkpt><trkpt lat="42.0957368" lon="13.7365914"><ele>667.0</ele><time>2026-05-02T12:13:09.003Z</time></trkpt><trkpt lat="42.0955613" lon="13.7368109"><ele>661.0</ele><time>2026-05-02T12:13:10.003Z</time></trkpt><trkpt lat="42.0953969" lon="13.7370482"><ele>655.0</ele><time>2026-05-02T12:13:11.003Z</time></trkpt><trkpt lat="42.0952362" lon="13.7373004"><ele>655.0</ele><time>2026-05-02T12:13:12.003Z</time></trkpt><trkpt lat="42.0950866" lon="13.7375637"><ele>655.0</ele><time>2026-05-02T12:13:13.003Z</time></trkpt><trkpt lat="42.0949504" lon="13.7378426"><ele>663.0</ele><time>2026-05-02T12:13:14.003Z</time></trkpt><trkpt lat="42.0948219" lon="13.7381316"><ele>671.0</ele><time>2026-05-02T12:13:15.003Z</time></trkpt><trkpt lat="42.09471" lon="13.7384268"><ele>668.3333333333333</ele><time>2026-05-02T12:13:16.002Z</time></trkpt><trkpt lat="42.0946206" lon="13.7387099"><ele>665.6666666666666</ele><time>2026-05-02T12:13:17.002Z</time></trkpt><trkpt lat="42.0945415" lon="13.7389786"><ele>663.0</ele><time>2026-05-02T12:13:18.003Z</time></trkpt><trkpt lat="42.0944566" lon="13.739226"><ele>659.3333333333334</ele><time>2026-05-02T12:13:19.003Z</time></trkpt><trkpt lat="42.0943556" lon="13.7394562"><ele>655.6666666666667</ele><time>2026-05-02T12:13:20.003Z</time></trkpt><trkpt lat="42.0942294" lon="13.7396645"><ele>652.0</ele><time>2026-05-02T12:13:21.003Z</time></trkpt><trkpt lat="42.0940993" lon="13.7398599"><ele>651.75</ele><time>2026-05-02T12:13:22.003Z</time></trkpt><trkpt lat="42.0939855" lon="13.7400246"><ele>651.5</ele><time>2026-05-02T12:13:23.003Z</time></trkpt><trkpt lat="42.0938848" lon="13.740156"><ele>651.25</ele><time>2026-05-02T12:13:24.003Z</time></trkpt><trkpt lat="42.093762" lon="13.7402489"><ele>651.0</ele><time>2026-05-02T12:13:25.003Z</time></trkpt><trkpt lat="42.0936269" lon="13.7402984"><ele>651.0</ele><time>2026-05-02T12:13:26.002Z</time></trkpt><trkpt lat="42.0934838" lon="13.7403223"><ele>651.0</ele><time>2026-05-02T12:13:27.002Z</time></trkpt><trkpt lat="42.0933355" lon="13.7403338"><ele>651.0</ele><time>2026-05-02T12:13:28.003Z</time></trkpt><trkpt lat="42.0931945" lon="13.7403469"><ele>651.0</ele><time>2026-05-02T12:13:29.003Z</time></trkpt><trkpt lat="42.0930775" lon="13.7404209"><ele>654.0</ele><time>2026-05-02T12:13:30.002Z</time></trkpt><trkpt lat="42.092942" lon="13.7404825"><ele>657.0</ele><time>2026-05-02T12:13:31.003Z</time></trkpt><trkpt lat="42.0928404" lon="13.7405896"><ele>660.0</ele><time>2026-05-02T12:13:32.003Z</time></trkpt><trkpt lat="42.0927234" lon="13.7406928"><ele>663.0</ele><time>2026-05-02T12:13:33.003Z</time></trkpt><trkpt lat="42.092603" lon="13.7407891"><ele>663.0</ele><time>2026-05-02T12:13:34.003Z</time></trkpt><trkpt lat="42.0924398" lon="13.7408193"><ele>663.0</ele><time>2026-05-02T12:13:35.003Z</time></trkpt><trkpt lat="42.0922594" lon="13.7408484"><ele>663.0</ele><time>2026-05-02T12:13:36.002Z</time></trkpt><trkpt lat="42.0920841" lon="13.7408719"><ele>665.0</ele><time>2026-05-02T12:13:37.003Z</time></trkpt><trkpt lat="42.0918636" lon="13.740857"><ele>667.0</ele><time>2026-05-02T12:13:38.003Z</time></trkpt><trkpt lat="42.0916412" lon="13.7408571"><ele>669.0</ele><time>2026-05-02T12:13:39.002Z</time></trkpt><trkpt lat="42.0914332" lon="13.7408572"><ele>671.0</ele><time>2026-05-02T12:13:40.003Z</time></trkpt><trkpt lat="42.0912446" lon="13.7408569"><ele>673.0</ele><time>2026-05-02T12:13:41.002Z</time></trkpt><trkpt lat="42.0910785" lon="13.7408553"><ele>675.0</ele><time>2026-05-02T12:13:42.003Z</time></trkpt><trkpt lat="42.0909344" lon="13.7408576"><ele>675.0</ele><time>2026-05-02T12:13:43.003Z</time></trkpt><trkpt lat="42.0908102" lon="13.7408651"><ele>675.0</ele><time>2026-05-02T12:13:44.003Z</time></trkpt><trkpt lat="42.0906947" lon="13.7408625"><ele>675.0</ele><time>2026-05-02T12:13:45.002Z</time></trkpt><trkpt lat="42.0906099" lon="13.7408247"><ele>675.0</ele><time>2026-05-02T12:13:46.003Z</time></trkpt><trkpt lat="42.0905393" lon="13.7407709"><ele>675.0</ele><time>2026-05-02T12:13:47.003Z</time></trkpt><trkpt lat="42.0905213" lon="13.7406697"><ele>675.0</ele><time>2026-05-02T12:13:48.003Z</time></trkpt><trkpt lat="42.0905581" lon="13.7405746"><ele>675.0</ele><time>2026-05-02T12:13:49.002Z</time></trkpt><trkpt lat="42.0906174" lon="13.740481"><ele>675.0</ele><time>2026-05-02T12:13:50.003Z</time></trkpt><trkpt lat="42.0907156" lon="13.7404"><ele>675.0</ele><time>2026-05-02T12:13:51.003Z</time></trkpt><trkpt lat="42.0908441" lon="13.7403323"><ele>675.0</ele><time>2026-05-02T12:13:52.003Z</time></trkpt><trkpt lat="42.0910007" lon="13.740259"><ele>679.3333333333334</ele><time>2026-05-02T12:13:53.003Z</time></trkpt><trkpt lat="42.091174" lon="13.7401689"><ele>683.6666666666667</ele><time>2026-05-02T12:13:54.003Z</time></trkpt><trkpt lat="42.09136" lon="13.7400608"><ele>688.0</ele><time>2026-05-02T12:13:55.003Z</time></trkpt><trkpt lat="42.09156" lon="13.7399378"><ele>684.0</ele><time>2026-05-02T12:13:56.002Z</time></trkpt><trkpt lat="42.0917718" lon="13.7397935"><ele>680.0</ele><time>2026-05-02T12:13:57.003Z</time></trkpt><trkpt lat="42.0919776" lon="13.7396111"><ele>680.0</ele><time>2026-05-02T12:13:58.003Z</time></trkpt><trkpt lat="42.092184" lon="13.7394095"><ele>680.0</ele><time>2026-05-02T12:13:59.002Z</time></trkpt><trkpt lat="42.092392" lon="13.7391923"><ele>685.5</ele><time>2026-05-02T12:14:00.003Z</time></trkpt><trkpt lat="42.0925948" lon="13.738989"><ele>691.0</ele><time>2026-05-02T12:14:01.003Z</time></trkpt><trkpt lat="42.0927935" lon="13.7388154"><ele>691.0</ele><time>2026-05-02T12:14:02.003Z</time></trkpt><trkpt lat="42.0929807" lon="13.738688"><ele>691.0</ele><time>2026-05-02T12:14:03.002Z</time></trkpt><trkpt lat="42.0931446" lon="13.7385794"><ele>691.0</ele><time>2026-05-02T12:14:04.003Z</time></trkpt><trkpt lat="42.0932828" lon="13.7384663"><ele>692.0</ele><time>2026-05-02T12:14:05.003Z</time></trkpt><trkpt lat="42.0934203" lon="13.7383567"><ele>693.0</ele><time>2026-05-02T12:14:06.003Z</time></trkpt><trkpt lat="42.0934896" lon="13.7381623"><ele>694.0</ele><time>2026-05-02T12:14:07.003Z</time></trkpt><trkpt lat="42.0935851" lon="13.7379601"><ele>694.0</ele><time>2026-05-02T12:14:08.003Z</time></trkpt><trkpt lat="42.0936618" lon="13.7377265"><ele>694.0</ele><time>2026-05-02T12:14:09.003Z</time></trkpt><trkpt lat="42.0937484" lon="13.7374684"><ele>694.0</ele><time>2026-05-02T12:14:10.002Z</time></trkpt><trkpt lat="42.0938279" lon="13.7371998"><ele>705.0</ele><time>2026-05-02T12:14:11.003Z</time></trkpt><trkpt lat="42.0939256" lon="13.736921"><ele>716.0</ele><time>2026-05-02T12:14:12.003Z</time></trkpt><trkpt lat="42.0940135" lon="13.7366188"><ele>715.5</ele><time>2026-05-02T12:14:13.003Z</time></trkpt><trkpt lat="42.0941064" lon="13.7363073"><ele>715.0</ele><time>2026-05-02T12:14:14.003Z</time></trkpt><trkpt lat="42.0942073" lon="13.7359844"><ele>715.0</ele><time>2026-05-02T12:14:15.003Z</time></trkpt><trkpt lat="42.0943159" lon="13.7356556"><ele>715.0</ele><time>2026-05-02T12:14:16.003Z</time></trkpt><trkpt lat="42.0944178" lon="13.735353"><ele>721.3333333333334</ele><time>2026-05-02T12:14:17.003Z</time></trkpt><trkpt lat="42.0945195" lon="13.7350729"><ele>727.6666666666666</ele><time>2026-05-02T12:14:18.003Z</time></trkpt><trkpt lat="42.0946131" lon="13.7348147"><ele>734.0</ele><time>2026-05-02T12:14:19.003Z</time></trkpt><trkpt lat="42.0946949" lon="13.7345924"><ele>734.0</ele><time>2026-05-02T12:14:20.003Z</time></trkpt><trkpt lat="42.0947616" lon="13.7344077"><ele>734.0</ele><time>2026-05-02T12:14:21.003Z</time></trkpt><trkpt lat="42.0948182" lon="13.734245"><ele>734.0</ele><time>2026-05-02T12:14:22.002Z</time></trkpt><trkpt lat="42.0948576" lon="13.7340939"><ele>734.0</ele><time>2026-05-02T12:14:23.003Z</time></trkpt><trkpt lat="42.0948585" lon="13.7339441"><ele>737.5</ele><time>2026-05-02T12:14:24.003Z</time></trkpt><trkpt lat="42.0948242" lon="13.7337874"><ele>741.0</ele><time>2026-05-02T12:14:25.003Z</time></trkpt><trkpt lat="42.0947628" lon="13.7336221"><ele>744.5</ele><time>2026-05-02T12:14:26.003Z</time></trkpt><trkpt lat="42.0947301" lon="13.7334749"><ele>748.0</ele><time>2026-05-02T12:14:27.003Z</time></trkpt><trkpt lat="42.0947366" lon="13.7333442"><ele>749.0</ele><time>2026-05-02T12:14:28.003Z</time></trkpt><trkpt lat="42.0947765" lon="13.7332228"><ele>750.0</ele><time>2026-05-02T12:14:29.003Z</time></trkpt><trkpt lat="42.0948551" lon="13.733121"><ele>751.0</ele><time>2026-05-02T12:14:30.003Z</time></trkpt><trkpt lat="42.0949594" lon="13.7330232"><ele>752.0</ele><time>2026-05-02T12:14:31.003Z</time></trkpt><trkpt lat="42.0950747" lon="13.732907"><ele>747.0</ele><time>2026-05-02T12:14:32.003Z</time></trkpt><trkpt lat="42.0951853" lon="13.732743"><ele>742.0</ele><time>2026-05-02T12:14:33.003Z</time></trkpt><trkpt lat="42.095288" lon="13.7325432"><ele>737.0</ele><time>2026-05-02T12:14:34.002Z</time></trkpt><trkpt lat="42.0953923" lon="13.7323152"><ele>737.0</ele><time>2026-05-02T12:14:35.003Z</time></trkpt><trkpt lat="42.0954992" lon="13.7320639"><ele>737.0</ele><time>2026-05-02T12:14:36.003Z</time></trkpt><trkpt lat="42.0956061" lon="13.7317881"><ele>737.0</ele><time>2026-05-02T12:14:37.003Z</time></trkpt><trkpt lat="42.0957101" lon="13.7314927"><ele>739.5</ele><time>2026-05-02T12:14:38.002Z</time></trkpt><trkpt lat="42.095814" lon="13.7311828"><ele>742.0</ele><time>2026-05-02T12:14:39.002Z</time></trkpt><trkpt lat="42.0959242" lon="13.7308765"><ele>742.0</ele><time>2026-05-02T12:14:40.003Z</time></trkpt><trkpt lat="42.0960386" lon="13.7306036"><ele>742.0</ele><time>2026-05-02T12:14:41.003Z</time></trkpt><trkpt lat="42.096158" lon="13.7303536"><ele>749.0</ele><time>2026-05-02T12:14:42.003Z</time></trkpt><trkpt lat="42.0962874" lon="13.7301213"><ele>756.0</ele><time>2026-05-02T12:14:43.003Z</time></trkpt><trkpt lat="42.0964283" lon="13.7299041"><ele>763.0</ele><time>2026-05-02T12:14:44.003Z</time></trkpt><trkpt lat="42.0965726" lon="13.7297021"><ele>757.6666666666667</ele><time>2026-05-02T12:14:45.003Z</time></trkpt><trkpt lat="42.0967093" lon="13.7295186"><ele>752.3333333333334</ele><time>2026-05-02T12:14:46.003Z</time></trkpt><trkpt lat="42.0968209" lon="13.7292964"><ele>747.0</ele><time>2026-05-02T12:14:47.003Z</time></trkpt><trkpt lat="42.0969208" lon="13.7290476"><ele>747.0</ele><time>2026-05-02T12:14:48.003Z</time></trkpt><trkpt lat="42.0970156" lon="13.7287822"><ele>747.0</ele><time>2026-05-02T12:14:49.003Z</time></trkpt><trkpt lat="42.0971277" lon="13.7285215"><ele>747.0</ele><time>2026-05-02T12:14:50.002Z</time></trkpt><trkpt lat="42.0972581" lon="13.7282705"><ele>749.3333333333334</ele><time>2026-05-02T12:14:51.002Z</time></trkpt><trkpt lat="42.0973944" lon="13.728026"><ele>751.6666666666667</ele><time>2026-05-02T12:14:52.003Z</time></trkpt><trkpt lat="42.0975212" lon="13.7277972"><ele>754.0</ele><time>2026-05-02T12:14:53.002Z</time></trkpt><trkpt lat="42.0976256" lon="13.7275598"><ele>754.0</ele><time>2026-05-02T12:14:54.003Z</time></trkpt><trkpt lat="42.0977169" lon="13.7273029"><ele>754.0</ele><time>2026-05-02T12:14:55.003Z</time></trkpt><trkpt lat="42.0977803" lon="13.7270351"><ele>754.0</ele><time>2026-05-02T12:14:56.003Z</time></trkpt><trkpt lat="42.0978436" lon="13.7267913"><ele>756.75</ele><time>2026-05-02T12:14:57.003Z</time></trkpt><trkpt lat="42.0979088" lon="13.7265845"><ele>759.5</ele><time>2026-05-02T12:14:58.003Z</time></trkpt><trkpt lat="42.0979842" lon="13.726419"><ele>762.25</ele><time>2026-05-02T12:14:59.002Z</time></trkpt><trkpt lat="42.0980625" lon="13.7262893"><ele>765.0</ele><time>2026-05-02T12:15:00.003Z</time></trkpt><trkpt lat="42.0981235" lon="13.726155"><ele>766.75</ele><time>2026-05-02T12:15:01.003Z</time></trkpt><trkpt lat="42.0981441" lon="13.7259845"><ele>768.5</ele><time>2026-05-02T12:15:02.002Z</time></trkpt><trkpt lat="42.0981286" lon="13.7257885"><ele>770.25</ele><time>2026-05-02T12:15:03.003Z</time></trkpt><trkpt lat="42.0981111" lon="13.7255849"><ele>772.0</ele><time>2026-05-02T12:15:04.003Z</time></trkpt><trkpt lat="42.0981264" lon="13.7253895"><ele>774.6666666666666</ele><time>2026-05-02T12:15:05.003Z</time></trkpt><trkpt lat="42.0981717" lon="13.7251777"><ele>777.3333333333333</ele><time>2026-05-02T12:15:06.003Z</time></trkpt><trkpt lat="42.0982406" lon="13.7249649"><ele>780.0</ele><time>2026-05-02T12:15:07.003Z</time></trkpt><trkpt lat="42.0983182" lon="13.7247813"><ele>776.75</ele><time>2026-05-02T12:15:08.003Z</time></trkpt><trkpt lat="42.0984168" lon="13.7246255"><ele>773.5</ele><time>2026-05-02T12:15:09.003Z</time></trkpt><trkpt lat="42.0985385" lon="13.7245073"><ele>770.25</ele><time>2026-05-02T12:15:10.003Z</time></trkpt><trkpt lat="42.0986571" lon="13.7244022"><ele>767.0</ele><time>2026-05-02T12:15:11.003Z</time></trkpt><trkpt lat="42.0987511" lon="13.724276"><ele>767.0</ele><time>2026-05-02T12:15:12.003Z</time></trkpt><trkpt lat="42.0988306" lon="13.7241149"><ele>767.0</ele><time>2026-05-02T12:15:13.003Z</time></trkpt><trkpt lat="42.0988936" lon="13.7239316"><ele>767.0</ele><time>2026-05-02T12:15:14.003Z</time></trkpt><trkpt lat="42.0989427" lon="13.7237454"><ele>767.0</ele><time>2026-05-02T12:15:15.003Z</time></trkpt><trkpt lat="42.0989711" lon="13.7235692"><ele>768.25</ele><time>2026-05-02T12:15:16.003Z</time></trkpt><trkpt lat="42.0989557" lon="13.7233836"><ele>769.5</ele><time>2026-05-02T12:15:17.003Z</time></trkpt><trkpt lat="42.0989134" lon="13.7231931"><ele>770.75</ele><time>2026-05-02T12:15:18.003Z</time></trkpt><trkpt lat="42.0988562" lon="13.7230037"><ele>772.0</ele><time>2026-05-02T12:15:19.003Z</time></trkpt><trkpt lat="42.0987806" lon="13.7228404"><ele>770.0</ele><time>2026-05-02T12:15:20.003Z</time></trkpt><trkpt lat="42.0986748" lon="13.7226994"><ele>768.0</ele><time>2026-05-02T12:15:21.003Z</time></trkpt><trkpt lat="42.0985492" lon="13.7225704"><ele>766.0</ele><time>2026-05-02T12:15:22.002Z</time></trkpt><trkpt lat="42.0984249" lon="13.7224427"><ele>766.0</ele><time>2026-05-02T12:15:23.003Z</time></trkpt><trkpt lat="42.098313" lon="13.7223231"><ele>766.0</ele><time>2026-05-02T12:15:24.003Z</time></trkpt><trkpt lat="42.0982109" lon="13.7222205"><ele>766.0</ele><time>2026-05-02T12:15:25.003Z</time></trkpt><trkpt lat="42.0981041" lon="13.7221435"><ele>766.0</ele><time>2026-05-02T12:15:26.002Z</time></trkpt><trkpt lat="42.0979786" lon="13.7221026"><ele>767.25</ele><time>2026-05-02T12:15:27.003Z</time></trkpt><trkpt lat="42.0978466" lon="13.7221044"><ele>768.5</ele><time>2026-05-02T12:15:28.002Z</time></trkpt><trkpt lat="42.0977198" lon="13.7221302"><ele>769.75</ele><time>2026-05-02T12:15:29.003Z</time></trkpt><trkpt lat="42.0975913" lon="13.7222463"><ele>771.0</ele><time>2026-05-02T12:15:30.003Z</time></trkpt><trkpt lat="42.0974533" lon="13.7223686"><ele>770.3333333333333</ele><time>2026-05-02T12:15:31.002Z</time></trkpt><trkpt lat="42.0972987" lon="13.7224971"><ele>769.6666666666666</ele><time>2026-05-02T12:15:32.003Z</time></trkpt><trkpt lat="42.0971384" lon="13.7226274"><ele>769.0</ele><time>2026-05-02T12:15:33.003Z</time></trkpt><trkpt lat="42.0969665" lon="13.722764"><ele>773.0</ele><time>2026-05-02T12:15:34.003Z</time></trkpt><trkpt lat="42.0967919" lon="13.7229034"><ele>777.0</ele><time>2026-05-02T12:15:35.003Z</time></trkpt><trkpt lat="42.0966306" lon="13.7230329"><ele>781.0</ele><time>2026-05-02T12:15:36.003Z</time></trkpt><trkpt lat="42.0964828" lon="13.7231502"><ele>781.0</ele><time>2026-05-02T12:15:37.003Z</time></trkpt><trkpt lat="42.0963478" lon="13.7232724"><ele>781.0</ele><time>2026-05-02T12:15:38.003Z</time></trkpt><trkpt lat="42.0962173" lon="13.7234298"><ele>781.0</ele><time>2026-05-02T12:15:39.003Z</time></trkpt><trkpt lat="42.0960933" lon="13.7236241"><ele>783.3333333333333</ele><time>2026-05-02T12:15:40.003Z</time></trkpt><trkpt lat="42.0959657" lon="13.7238418"><ele>785.6666666666667</ele><time>2026-05-02T12:15:41.003Z</time></trkpt><trkpt lat="42.0958341" lon="13.7240702"><ele>788.0</ele><time>2026-05-02T12:15:42.002Z</time></trkpt><trkpt lat="42.095712" lon="13.7242791"><ele>790.0</ele><time>2026-05-02T12:15:43.003Z</time></trkpt><trkpt lat="42.0956015" lon="13.7244741"><ele>792.0</ele><time>2026-05-02T12:15:44.003Z</time></trkpt><trkpt lat="42.0955121" lon="13.7246668"><ele>794.0</ele><time>2026-05-02T12:15:45.003Z</time></trkpt><trkpt lat="42.0954548" lon="13.7248532"><ele>794.0</ele><time>2026-05-02T12:15:46.003Z</time></trkpt><trkpt lat="42.0954367" lon="13.7250406"><ele>794.0</ele><time>2026-05-02T12:15:47.003Z</time></trkpt><trkpt lat="42.0954554" lon="13.725248"><ele>794.0</ele><time>2026-05-02T12:15:48.003Z</time></trkpt><trkpt lat="42.095515" lon="13.7254834"><ele>794.6666666666667</ele><time>2026-05-02T12:15:49.003Z</time></trkpt><trkpt lat="42.0955967" lon="13.7257405"><ele>795.3333333333333</ele><time>2026-05-02T12:15:50.003Z</time></trkpt><trkpt lat="42.0956828" lon="13.7260122"><ele>796.0</ele><time>2026-05-02T12:15:51.003Z</time></trkpt><trkpt lat="42.0957629" lon="13.7262972"><ele>796.0</ele><time>2026-05-02T12:15:52.002Z</time></trkpt><trkpt lat="42.095838" lon="13.7265548"><ele>796.0</ele><time>2026-05-02T12:15:53.003Z</time></trkpt><trkpt lat="42.0959046" lon="13.7267982"><ele>796.0</ele><time>2026-05-02T12:15:54.003Z</time></trkpt><trkpt lat="42.0959411" lon="13.7270311"><ele>796.6666666666666</ele><time>2026-05-02T12:15:55.003Z</time></trkpt><trkpt lat="42.0959486" lon="13.7272609"><ele>797.3333333333333</ele><time>2026-05-02T12:15:56.003Z</time></trkpt><trkpt lat="42.0959293" lon="13.7274865"><ele>798.0</ele><time>2026-05-02T12:15:57.003Z</time></trkpt><trkpt lat="42.0958836" lon="13.7277034"><ele>797.6666666666667</ele><time>2026-05-02T12:15:58.002Z</time></trkpt><trkpt lat="42.0958101" lon="13.7279022"><ele>797.3333333333334</ele><time>2026-05-02T12:15:59.003Z</time></trkpt><trkpt lat="42.0957056" lon="13.728048"><ele>797.0</ele><time>2026-05-02T12:16:00.003Z</time></trkpt><trkpt lat="42.0955849" lon="13.7281622"><ele>799.0</ele><time>2026-05-02T12:16:01.003Z</time></trkpt><trkpt lat="42.0954471" lon="13.7282422"><ele>801.0</ele><time>2026-05-02T12:16:02.003Z</time></trkpt><trkpt lat="42.095298" lon="13.7283006"><ele>803.0</ele><time>2026-05-02T12:16:03.003Z</time></trkpt><trkpt lat="42.0951604" lon="13.7283422"><ele>805.0</ele><time>2026-05-02T12:16:04.003Z</time></trkpt><trkpt lat="42.0950202" lon="13.7283549"><ele>807.6666666666666</ele><time>2026-05-02T12:16:05.003Z</time></trkpt><trkpt lat="42.0948688" lon="13.7283263"><ele>810.3333333333333</ele><time>2026-05-02T12:16:06.003Z</time></trkpt><trkpt lat="42.0947051" lon="13.728281"><ele>813.0</ele><time>2026-05-02T12:16:07.003Z</time></trkpt><trkpt lat="42.0945382" lon="13.7282336"><ele>813.0</ele><time>2026-05-02T12:16:08.003Z</time></trkpt><trkpt lat="42.09437" lon="13.7281844"><ele>813.0</ele><time>2026-05-02T12:16:09.003Z</time></trkpt><trkpt lat="42.0942154" lon="13.7281401"><ele>813.0</ele><time>2026-05-02T12:16:10.003Z</time></trkpt><trkpt lat="42.0940661" lon="13.7281166"><ele>814.3333333333333</ele><time>2026-05-02T12:16:11.003Z</time></trkpt><trkpt lat="42.0939067" lon="13.7281308"><ele>815.6666666666666</ele><time>2026-05-02T12:16:12.002Z</time></trkpt><trkpt lat="42.0937426" lon="13.728183"><ele>817.0</ele><time>2026-05-02T12:16:13.002Z</time></trkpt><trkpt lat="42.0935789" lon="13.7282654"><ele>817.0</ele><time>2026-05-02T12:16:14.003Z</time></trkpt><trkpt lat="42.0933034" lon="13.7283919"><ele>817.0</ele><time>2026-05-02T12:16:16.002Z</time></trkpt><trkpt lat="42.0931955" lon="13.7283872"><ele>817.0</ele><time>2026-05-02T12:16:17.003Z</time></trkpt><trkpt lat="42.0930806" lon="13.7283593"><ele>819.5</ele><time>2026-05-02T12:16:18.003Z</time></trkpt><trkpt lat="42.0930177" lon="13.7282302"><ele>822.0</ele><time>2026-05-02T12:16:19.003Z</time></trkpt><trkpt lat="42.0929913" lon="13.7280779"><ele>824.5</ele><time>2026-05-02T12:16:20.003Z</time></trkpt><trkpt lat="42.0930051" lon="13.7279169"><ele>827.0</ele><time>2026-05-02T12:16:21.003Z</time></trkpt><trkpt lat="42.0930537" lon="13.7277584"><ele>830.3333333333334</ele><time>2026-05-02T12:16:22.003Z</time></trkpt><trkpt lat="42.0931145" lon="13.7275932"><ele>833.6666666666667</ele><time>2026-05-02T12:16:23.003Z</time></trkpt><trkpt lat="42.0931762" lon="13.7274086"><ele>837.0</ele><time>2026-05-02T12:16:24.003Z</time></trkpt><trkpt lat="42.0932415" lon="13.7272079"><ele>833.6666666666667</ele><time>2026-05-02T12:16:25.003Z</time></trkpt><trkpt lat="42.0933043" lon="13.7269913"><ele>830.3333333333334</ele><time>2026-05-02T12:16:26.003Z</time></trkpt><trkpt lat="42.0933632" lon="13.7267565"><ele>827.0</ele><time>2026-05-02T12:16:27.002Z</time></trkpt><trkpt lat="42.093414" lon="13.7265106"><ele>827.0</ele><time>2026-05-02T12:16:28.003Z</time></trkpt><trkpt lat="42.0934699" lon="13.7262686"><ele>827.0</ele><time>2026-05-02T12:16:29.003Z</time></trkpt><trkpt lat="42.0935391" lon="13.7260641"><ele>827.0</ele><time>2026-05-02T12:16:30.003Z</time></trkpt><trkpt lat="42.0936316" lon="13.7258875"><ele>830.5</ele><time>2026-05-02T12:16:31.003Z</time></trkpt><trkpt lat="42.0937489" lon="13.7257406"><ele>834.0</ele><time>2026-05-02T12:16:32.002Z</time></trkpt><trkpt lat="42.0938726" lon="13.7256375"><ele>837.5</ele><time>2026-05-02T12:16:33.003Z</time></trkpt><trkpt lat="42.093973" lon="13.7255411"><ele>841.0</ele><time>2026-05-02T12:16:34.003Z</time></trkpt><trkpt lat="42.0940401" lon="13.7254242"><ele>841.0</ele><time>2026-05-02T12:16:35.003Z</time></trkpt><trkpt lat="42.0940697" lon="13.7252902"><ele>841.0</ele><time>2026-05-02T12:16:36.003Z</time></trkpt><trkpt lat="42.0940532" lon="13.7251303"><ele>841.0</ele><time>2026-05-02T12:16:37.003Z</time></trkpt><trkpt lat="42.0939984" lon="13.7249374"><ele>841.0</ele><time>2026-05-02T12:16:38.003Z</time></trkpt><trkpt lat="42.0939184" lon="13.7247135"><ele>842.6666666666666</ele><time>2026-05-02T12:16:39.003Z</time></trkpt><trkpt lat="42.0938127" lon="13.7244707"><ele>844.3333333333333</ele><time>2026-05-02T12:16:40.003Z</time></trkpt><trkpt lat="42.093704" lon="13.7242324"><ele>846.0</ele><time>2026-05-02T12:16:41.002Z</time></trkpt><trkpt lat="42.0936115" lon="13.7240179"><ele>846.0</ele><time>2026-05-02T12:16:42.003Z</time></trkpt><trkpt lat="42.0935414" lon="13.7238326"><ele>846.0</ele><time>2026-05-02T12:16:43.003Z</time></trkpt><trkpt lat="42.0934742" lon="13.7236931"><ele>846.0</ele><time>2026-05-02T12:16:44.003Z</time></trkpt><trkpt lat="42.0933791" lon="13.7235962"><ele>846.0</ele><time>2026-05-02T12:16:45.003Z</time></trkpt><trkpt lat="42.0932544" lon="13.7235419"><ele>848.8</ele><time>2026-05-02T12:16:46.003Z</time></trkpt><trkpt lat="42.0931457" lon="13.7235108"><ele>851.5999999999999</ele><time>2026-05-02T12:16:47.003Z</time></trkpt><trkpt lat="42.0930746" lon="13.7234538"><ele>854.4</ele><time>2026-05-02T12:16:48.002Z</time></trkpt><trkpt lat="42.0930318" lon="13.7233675"><ele>857.2</ele><time>2026-05-02T12:16:49.003Z</time></trkpt><trkpt lat="42.0930236" lon="13.7232625"><ele>860.0</ele><time>2026-05-02T12:16:50.003Z</time></trkpt><trkpt lat="42.0930516" lon="13.7231246"><ele>860.0</ele><time>2026-05-02T12:16:51.003Z</time></trkpt><trkpt lat="42.0931014" lon="13.722964"><ele>860.0</ele><time>2026-05-02T12:16:52.003Z</time></trkpt><trkpt lat="42.0931501" lon="13.7227946"><ele>860.0</ele><time>2026-05-02T12:16:53.003Z</time></trkpt><trkpt lat="42.0931752" lon="13.7226407"><ele>860.0</ele><time>2026-05-02T12:16:54.003Z</time></trkpt><trkpt lat="42.0931602" lon="13.7224913"><ele>861.0</ele><time>2026-05-02T12:16:55.002Z</time></trkpt><trkpt lat="42.0931032" lon="13.7223202"><ele>862.0</ele><time>2026-05-02T12:16:56.003Z</time></trkpt><trkpt lat="42.0930117" lon="13.7221426"><ele>863.0</ele><time>2026-05-02T12:16:57.003Z</time></trkpt><trkpt lat="42.0929186" lon="13.7219372"><ele>861.6666666666667</ele><time>2026-05-02T12:16:58.003Z</time></trkpt><trkpt lat="42.0928511" lon="13.7217023"><ele>860.3333333333333</ele><time>2026-05-02T12:16:59.003Z</time></trkpt><trkpt lat="42.0928014" lon="13.7214683"><ele>859.0</ele><time>2026-05-02T12:17:00.003Z</time></trkpt><trkpt lat="42.0927574" lon="13.7212736"><ele>859.0</ele><time>2026-05-02T12:17:01.002Z</time></trkpt><trkpt lat="42.0927116" lon="13.7211075"><ele>859.0</ele><time>2026-05-02T12:17:02.003Z</time></trkpt><trkpt lat="42.0926486" lon="13.7209706"><ele>859.0</ele><time>2026-05-02T12:17:03.002Z</time></trkpt><trkpt lat="42.0925589" lon="13.7208569"><ele>859.0</ele><time>2026-05-02T12:17:04.003Z</time></trkpt><trkpt lat="42.0924367" lon="13.7207934"><ele>858.6666666666666</ele><time>2026-05-02T12:17:05.003Z</time></trkpt><trkpt lat="42.0922848" lon="13.7207691"><ele>858.3333333333333</ele><time>2026-05-02T12:17:06.003Z</time></trkpt><trkpt lat="42.092111" lon="13.7207841"><ele>858.0</ele><time>2026-05-02T12:17:07.003Z</time></trkpt><trkpt lat="42.0919176" lon="13.7208131"><ele>858.0</ele><time>2026-05-02T12:17:08.003Z</time></trkpt><trkpt lat="42.0917096" lon="13.7208317"><ele>858.0</ele><time>2026-05-02T12:17:09.002Z</time></trkpt><trkpt lat="42.0915021" lon="13.7208127"><ele>858.0</ele><time>2026-05-02T12:17:10.002Z</time></trkpt><trkpt lat="42.0913003" lon="13.7207654"><ele>860.6666666666667</ele><time>2026-05-02T12:17:11.003Z</time></trkpt><trkpt lat="42.0911118" lon="13.7207031"><ele>863.3333333333334</ele><time>2026-05-02T12:17:12.003Z</time></trkpt><trkpt lat="42.0909399" lon="13.7206464"><ele>866.0</ele><time>2026-05-02T12:17:13.002Z</time></trkpt><trkpt lat="42.0907943" lon="13.7205934"><ele>871.0</ele><time>2026-05-02T12:17:14.003Z</time></trkpt><trkpt lat="42.0906694" lon="13.7205126"><ele>876.0</ele><time>2026-05-02T12:17:15.003Z</time></trkpt><trkpt lat="42.0905867" lon="13.7204007"><ele>881.0</ele><time>2026-05-02T12:17:16.003Z</time></trkpt><trkpt lat="42.0905452" lon="13.7202725"><ele>886.0</ele><time>2026-05-02T12:17:17.003Z</time></trkpt><trkpt lat="42.0905359" lon="13.7201193"><ele>886.0</ele><time>2026-05-02T12:17:18.003Z</time></trkpt><trkpt lat="42.0905362" lon="13.7199447"><ele>886.0</ele><time>2026-05-02T12:17:19.003Z</time></trkpt><trkpt lat="42.0905226" lon="13.7197637"><ele>886.0</ele><time>2026-05-02T12:17:20.003Z</time></trkpt><trkpt lat="42.090474" lon="13.7195833"><ele>886.0</ele><time>2026-05-02T12:17:21.003Z</time></trkpt><trkpt lat="42.0903884" lon="13.719408"><ele>884.3333333333333</ele><time>2026-05-02T12:17:22.003Z</time></trkpt><trkpt lat="42.0902867" lon="13.7192232"><ele>882.6666666666667</ele><time>2026-05-02T12:17:23.002Z</time></trkpt><trkpt lat="42.0901854" lon="13.7190281"><ele>881.0</ele><time>2026-05-02T12:17:24.003Z</time></trkpt><trkpt lat="42.0900806" lon="13.7188308"><ele>881.0</ele><time>2026-05-02T12:17:25.003Z</time></trkpt><trkpt lat="42.0899575" lon="13.7186442"><ele>881.0</ele><time>2026-05-02T12:17:26.002Z</time></trkpt><trkpt lat="42.089818" lon="13.7184774"><ele>881.0</ele><time>2026-05-02T12:17:27.002Z</time></trkpt><trkpt lat="42.0896597" lon="13.7183325"><ele>880.6666666666667</ele><time>2026-05-02T12:17:28.003Z</time></trkpt><trkpt lat="42.0894788" lon="13.7182228"><ele>880.3333333333333</ele><time>2026-05-02T12:17:29.003Z</time></trkpt><trkpt lat="42.0892762" lon="13.7181392"><ele>880.0</ele><time>2026-05-02T12:17:30.003Z</time></trkpt><trkpt lat="42.0890673" lon="13.7180631"><ele>884.0</ele><time>2026-05-02T12:17:31.003Z</time></trkpt><trkpt lat="42.0888574" lon="13.7179784"><ele>888.0</ele><time>2026-05-02T12:17:32.003Z</time></trkpt><trkpt lat="42.0886749" lon="13.717871"><ele>892.0</ele><time>2026-05-02T12:17:33.003Z</time></trkpt><trkpt lat="42.0885131" lon="13.71774"><ele>894.3333333333333</ele><time>2026-05-02T12:17:34.003Z</time></trkpt><trkpt lat="42.0883761" lon="13.7175834"><ele>896.6666666666667</ele><time>2026-05-02T12:17:35.003Z</time></trkpt><trkpt lat="42.0882545" lon="13.7174054"><ele>899.0</ele><time>2026-05-02T12:17:36.003Z</time></trkpt><trkpt lat="42.0881447" lon="13.7172123"><ele>899.0</ele><time>2026-05-02T12:17:37.003Z</time></trkpt><trkpt lat="42.0880318" lon="13.7170145"><ele>899.0</ele><time>2026-05-02T12:17:38.003Z</time></trkpt><trkpt lat="42.0879204" lon="13.7168133"><ele>899.0</ele><time>2026-05-02T12:17:39.003Z</time></trkpt><trkpt lat="42.087821" lon="13.7166242"><ele>898.0</ele><time>2026-05-02T12:17:40.003Z</time></trkpt><trkpt lat="42.0877115" lon="13.716445"><ele>897.0</ele><time>2026-05-02T12:17:41.003Z</time></trkpt><trkpt lat="42.0875771" lon="13.7162748"><ele>896.0</ele><time>2026-05-02T12:17:42.003Z</time></trkpt><trkpt lat="42.087425" lon="13.716114"><ele>896.0</ele><time>2026-05-02T12:17:43.002Z</time></trkpt><trkpt lat="42.0872629" lon="13.7159531"><ele>896.0</ele><time>2026-05-02T12:17:44.003Z</time></trkpt><trkpt lat="42.0870993" lon="13.7157883"><ele>896.0</ele><time>2026-05-02T12:17:45.003Z</time></trkpt><trkpt lat="42.0869328" lon="13.7156272"><ele>896.0</ele><time>2026-05-02T12:17:46.003Z</time></trkpt><trkpt lat="42.0867665" lon="13.7154898"><ele>896.0</ele><time>2026-05-02T12:17:47.002Z</time></trkpt><trkpt lat="42.0866016" lon="13.715381"><ele>896.0</ele><time>2026-05-02T12:17:48.003Z</time></trkpt><trkpt lat="42.0864425" lon="13.7152979"><ele>895.75</ele><time>2026-05-02T12:17:49.003Z</time></trkpt><trkpt lat="42.0862985" lon="13.7152302"><ele>895.5</ele><time>2026-05-02T12:17:50.003Z</time></trkpt><trkpt lat="42.0861744" lon="13.7151557"><ele>895.25</ele><time>2026-05-02T12:17:51.003Z</time></trkpt><trkpt lat="42.0860734" lon="13.7150517"><ele>895.0</ele><time>2026-05-02T12:17:52.003Z</time></trkpt><trkpt lat="42.0859975" lon="13.7149109"><ele>895.0</ele><time>2026-05-02T12:17:53.003Z</time></trkpt><trkpt lat="42.0859311" lon="13.7147586"><ele>895.0</ele><time>2026-05-02T12:17:54.003Z</time></trkpt><trkpt lat="42.0858429" lon="13.7146422"><ele>895.0</ele><time>2026-05-02T12:17:55.003Z</time></trkpt><trkpt lat="42.0857277" lon="13.7145659"><ele>895.0</ele><time>2026-05-02T12:17:56.003Z</time></trkpt><trkpt lat="42.085586" lon="13.7145389"><ele>893.3333333333333</ele><time>2026-05-02T12:17:57.003Z</time></trkpt><trkpt lat="42.0854253" lon="13.7145307"><ele>891.6666666666667</ele><time>2026-05-02T12:17:58.003Z</time></trkpt><trkpt lat="42.0852475" lon="13.7145362"><ele>890.0</ele><time>2026-05-02T12:17:59.003Z</time></trkpt><trkpt lat="42.0850715" lon="13.7145331"><ele>888.8</ele><time>2026-05-02T12:18:00.003Z</time></trkpt><trkpt lat="42.0849251" lon="13.7145239"><ele>887.6</ele><time>2026-05-02T12:18:01.003Z</time></trkpt><trkpt lat="42.0848141" lon="13.7145032"><ele>886.4000000000001</ele><time>2026-05-02T12:18:02.003Z</time></trkpt><trkpt lat="42.0847306" lon="13.7144457"><ele>885.2</ele><time>2026-05-02T12:18:03.003Z</time></trkpt><trkpt lat="42.0846744" lon="13.7143474"><ele>884.0</ele><time>2026-05-02T12:18:04.002Z</time></trkpt><trkpt lat="42.0846224" lon="13.7142442"><ele>888.25</ele><time>2026-05-02T12:18:05.003Z</time></trkpt><trkpt lat="42.0846155" lon="13.7140266"><ele>892.5</ele><time>2026-05-02T12:18:06.003Z</time></trkpt><trkpt lat="42.0845772" lon="13.7138631"><ele>896.75</ele><time>2026-05-02T12:18:07.003Z</time></trkpt><trkpt lat="42.084511" lon="13.7137347"><ele>901.0</ele><time>2026-05-02T12:18:08.003Z</time></trkpt><trkpt lat="42.0844203" lon="13.7136476"><ele>901.0</ele><time>2026-05-02T12:18:09.003Z</time></trkpt><trkpt lat="42.0843002" lon="13.7136216"><ele>901.0</ele><time>2026-05-02T12:18:10.003Z</time></trkpt><trkpt lat="42.0841674" lon="13.7136525"><ele>901.0</ele><time>2026-05-02T12:18:11.003Z</time></trkpt><trkpt lat="42.0840053" lon="13.7137151"><ele>901.0</ele><time>2026-05-02T12:18:12.003Z</time></trkpt><trkpt lat="42.083826" lon="13.7137902"><ele>901.6666666666666</ele><time>2026-05-02T12:18:13.003Z</time></trkpt><trkpt lat="42.0836543" lon="13.7138549"><ele>902.3333333333333</ele><time>2026-05-02T12:18:14.002Z</time></trkpt><trkpt lat="42.083495" lon="13.7139141"><ele>903.0</ele><time>2026-05-02T12:18:15.003Z</time></trkpt><trkpt lat="42.0833548" lon="13.7139717"><ele>903.0</ele><time>2026-05-02T12:18:16.003Z</time></trkpt><trkpt lat="42.0832372" lon="13.7140069"><ele>903.0</ele><time>2026-05-02T12:18:17.003Z</time></trkpt><trkpt lat="42.0831302" lon="13.713998"><ele>903.0</ele><time>2026-05-02T12:18:18.003Z</time></trkpt><trkpt lat="42.0830515" lon="13.7139364"><ele>903.0</ele><time>2026-05-02T12:18:19.003Z</time></trkpt><trkpt lat="42.0830013" lon="13.713832"><ele>903.0</ele><time>2026-05-02T12:18:20.003Z</time></trkpt><trkpt lat="42.0829907" lon="13.7136952"><ele>905.5</ele><time>2026-05-02T12:18:21.003Z</time></trkpt><trkpt lat="42.0830052" lon="13.713527"><ele>908.0</ele><time>2026-05-02T12:18:22.003Z</time></trkpt><trkpt lat="42.0830511" lon="13.713331"><ele>910.5</ele><time>2026-05-02T12:18:23.003Z</time></trkpt><trkpt lat="42.0831097" lon="13.713116"><ele>913.0</ele><time>2026-05-02T12:18:24.002Z</time></trkpt><trkpt lat="42.0831595" lon="13.7129222"><ele>914.75</ele><time>2026-05-02T12:18:25.003Z</time></trkpt><trkpt lat="42.0831885" lon="13.7127389"><ele>916.5</ele><time>2026-05-02T12:18:26.002Z</time></trkpt><trkpt lat="42.0831894" lon="13.7125695"><ele>918.25</ele><time>2026-05-02T12:18:27.003Z</time></trkpt><trkpt lat="42.0831574" lon="13.7124299"><ele>920.0</ele><time>2026-05-02T12:18:28.003Z</time></trkpt><trkpt lat="42.0830947" lon="13.7123114"><ele>920.0</ele><time>2026-05-02T12:18:29.002Z</time></trkpt><trkpt lat="42.0830028" lon="13.7122141"><ele>920.0</ele><time>2026-05-02T12:18:30.002Z</time></trkpt><trkpt lat="42.0828741" lon="13.7121391"><ele>920.0</ele><time>2026-05-02T12:18:31.003Z</time></trkpt><trkpt lat="42.0827286" lon="13.7120754"><ele>920.0</ele><time>2026-05-02T12:18:32.003Z</time></trkpt><trkpt lat="42.0825622" lon="13.7120183"><ele>918.0</ele><time>2026-05-02T12:18:33.003Z</time></trkpt><trkpt lat="42.082385" lon="13.7119691"><ele>916.0</ele><time>2026-05-02T12:18:34.003Z</time></trkpt><trkpt lat="42.0822153" lon="13.7119491"><ele>914.0</ele><time>2026-05-02T12:18:35.003Z</time></trkpt><trkpt lat="42.0820567" lon="13.7119576"><ele>914.0</ele><time>2026-05-02T12:18:36.003Z</time></trkpt><trkpt lat="42.0819127" lon="13.7119934"><ele>914.0000000000001</ele><time>2026-05-02T12:18:37.003Z</time></trkpt><trkpt lat="42.0817973" lon="13.7120311"><ele>914.0000000000001</ele><time>2026-05-02T12:18:38.003Z</time></trkpt><trkpt lat="42.0817093" lon="13.712019"><ele>914.0</ele><time>2026-05-02T12:18:39.003Z</time></trkpt><trkpt lat="42.0816329" lon="13.7119661"><ele>914.0</ele><time>2026-05-02T12:18:40.003Z</time></trkpt><trkpt lat="42.081586" lon="13.7118666"><ele>916.0</ele><time>2026-05-02T12:18:41.003Z</time></trkpt><trkpt lat="42.0815776" lon="13.7117414"><ele>918.0</ele><time>2026-05-02T12:18:42.003Z</time></trkpt><trkpt lat="42.0816121" lon="13.7116066"><ele>920.0</ele><time>2026-05-02T12:18:43.003Z</time></trkpt><trkpt lat="42.08168" lon="13.7114671"><ele>922.0</ele><time>2026-05-02T12:18:44.002Z</time></trkpt><trkpt lat="42.0817595" lon="13.7113097"><ele>922.0</ele><time>2026-05-02T12:18:45.002Z</time></trkpt><trkpt lat="42.0818285" lon="13.7111492"><ele>922.0</ele><time>2026-05-02T12:18:46.003Z</time></trkpt><trkpt lat="42.0818788" lon="13.7109708"><ele>922.0</ele><time>2026-05-02T12:18:47.002Z</time></trkpt><trkpt lat="42.0818927" lon="13.7107731"><ele>922.0</ele><time>2026-05-02T12:18:48.003Z</time></trkpt><trkpt lat="42.0818873" lon="13.7105733"><ele>921.75</ele><time>2026-05-02T12:18:49.003Z</time></trkpt><trkpt lat="42.0818941" lon="13.710389"><ele>921.5</ele><time>2026-05-02T12:18:50.003Z</time></trkpt><trkpt lat="42.0819234" lon="13.7102144"><ele>921.25</ele><time>2026-05-02T12:18:51.002Z</time></trkpt><trkpt lat="42.0819858" lon="13.71004"><ele>921.0</ele><time>2026-05-02T12:18:52.003Z</time></trkpt><trkpt lat="42.0820745" lon="13.7098609"><ele>921.6666666666667</ele><time>2026-05-02T12:18:53.003Z</time></trkpt><trkpt lat="42.0821706" lon="13.7096651"><ele>922.3333333333334</ele><time>2026-05-02T12:18:54.003Z</time></trkpt><trkpt lat="42.0822584" lon="13.7094413"><ele>923.0</ele><time>2026-05-02T12:18:55.003Z</time></trkpt><trkpt lat="42.0823383" lon="13.7091893"><ele>925.6666666666667</ele><time>2026-05-02T12:18:56.003Z</time></trkpt><trkpt lat="42.0824184" lon="13.7089185"><ele>928.3333333333333</ele><time>2026-05-02T12:18:57.003Z</time></trkpt><trkpt lat="42.0825012" lon="13.7086344"><ele>931.0</ele><time>2026-05-02T12:18:58.003Z</time></trkpt><trkpt lat="42.0825868" lon="13.7083403"><ele>936.5</ele><time>2026-05-02T12:18:59.003Z</time></trkpt><trkpt lat="42.0826703" lon="13.7080377"><ele>942.0</ele><time>2026-05-02T12:19:00.003Z</time></trkpt><trkpt lat="42.082748" lon="13.7077505"><ele>944.6666666666667</ele><time>2026-05-02T12:19:01.003Z</time></trkpt><trkpt lat="42.0828214" lon="13.7074821"><ele>947.3333333333334</ele><time>2026-05-02T12:19:02.003Z</time></trkpt><trkpt lat="42.0828873" lon="13.7072345"><ele>950.0</ele><time>2026-05-02T12:19:03.002Z</time></trkpt><trkpt lat="42.0829439" lon="13.7070176"><ele>954.75</ele><time>2026-05-02T12:19:04.003Z</time></trkpt><trkpt lat="42.0829878" lon="13.7068337"><ele>959.5</ele><time>2026-05-02T12:19:05.003Z</time></trkpt><trkpt lat="42.0830179" lon="13.7066801"><ele>964.25</ele><time>2026-05-02T12:19:06.003Z</time></trkpt><trkpt lat="42.0830162" lon="13.7065482"><ele>969.0</ele><time>2026-05-02T12:19:07.003Z</time></trkpt><trkpt lat="42.0829794" lon="13.7064319"><ele>969.0</ele><time>2026-05-02T12:19:08.002Z</time></trkpt><trkpt lat="42.0829136" lon="13.7063595"><ele>969.0000000000001</ele><time>2026-05-02T12:19:09.003Z</time></trkpt><trkpt lat="42.0828318" lon="13.7063506"><ele>969.0000000000001</ele><time>2026-05-02T12:19:10.003Z</time></trkpt><trkpt lat="42.0827519" lon="13.7063706"><ele>969.0</ele><time>2026-05-02T12:19:11.003Z</time></trkpt><trkpt lat="42.0826811" lon="13.7065106"><ele>969.0</ele><time>2026-05-02T12:19:12.003Z</time></trkpt><trkpt lat="42.0826006" lon="13.706653"><ele>969.0</ele><time>2026-05-02T12:19:13.003Z</time></trkpt><trkpt lat="42.082503" lon="13.7068379"><ele>969.0</ele><time>2026-05-02T12:19:14.003Z</time></trkpt><trkpt lat="42.0823886" lon="13.7070452"><ele>969.0</ele><time>2026-05-02T12:19:15.003Z</time></trkpt><trkpt lat="42.0822525" lon="13.7072704"><ele>977.5</ele><time>2026-05-02T12:19:16.003Z</time></trkpt><trkpt lat="42.0820948" lon="13.7075127"><ele>986.0</ele><time>2026-05-02T12:19:17.003Z</time></trkpt><trkpt lat="42.0819451" lon="13.7077381"><ele>987.3333333333334</ele><time>2026-05-02T12:19:18.003Z</time></trkpt><trkpt lat="42.0818028" lon="13.7079443"><ele>988.6666666666667</ele><time>2026-05-02T12:19:19.003Z</time></trkpt><trkpt lat="42.0816596" lon="13.7081236"><ele>990.0</ele><time>2026-05-02T12:19:20.003Z</time></trkpt><trkpt lat="42.0815242" lon="13.7082777"><ele>990.0</ele><time>2026-05-02T12:19:21.003Z</time></trkpt><trkpt lat="42.0813734" lon="13.708406"><ele>990.0</ele><time>2026-05-02T12:19:22.003Z</time></trkpt><trkpt lat="42.081194" lon="13.7085245"><ele>990.0</ele><time>2026-05-02T12:19:23.003Z</time></trkpt><trkpt lat="42.0809975" lon="13.7086459"><ele>983.5</ele><time>2026-05-02T12:19:24.003Z</time></trkpt><trkpt lat="42.0807857" lon="13.7087751"><ele>977.0</ele><time>2026-05-02T12:19:25.003Z</time></trkpt><trkpt lat="42.0805574" lon="13.7089075"><ele>977.0</ele><time>2026-05-02T12:19:26.003Z</time></trkpt><trkpt lat="42.08034" lon="13.7090344"><ele>977.0</ele><time>2026-05-02T12:19:27.003Z</time></trkpt><trkpt lat="42.0801393" lon="13.7091518"><ele>977.0</ele><time>2026-05-02T12:19:28.003Z</time></trkpt><trkpt lat="42.0799542" lon="13.70926"><ele>977.0</ele><time>2026-05-02T12:19:29.003Z</time></trkpt><trkpt lat="42.0797931" lon="13.7093561"><ele>977.0</ele><time>2026-05-02T12:19:30.003Z</time></trkpt><trkpt lat="42.079648" lon="13.7094379"><ele>973.25</ele><time>2026-05-02T12:19:31.003Z</time></trkpt><trkpt lat="42.0795145" lon="13.7094936"><ele>969.5</ele><time>2026-05-02T12:19:32.003Z</time></trkpt><trkpt lat="42.0793846" lon="13.7095158"><ele>965.75</ele><time>2026-05-02T12:19:33.003Z</time></trkpt><trkpt lat="42.079251" lon="13.7094903"><ele>962.0</ele><time>2026-05-02T12:19:34.003Z</time></trkpt><trkpt lat="42.0791429" lon="13.7094348"><ele>961.0</ele><time>2026-05-02T12:19:35.003Z</time></trkpt><trkpt lat="42.0790504" lon="13.7093361"><ele>960.0</ele><time>2026-05-02T12:19:36.003Z</time></trkpt><trkpt lat="42.0789586" lon="13.7091928"><ele>959.0</ele><time>2026-05-02T12:19:37.003Z</time></trkpt><trkpt lat="42.0788734" lon="13.7090089"><ele>958.0</ele><time>2026-05-02T12:19:38.003Z</time></trkpt><trkpt lat="42.0787904" lon="13.7088041"><ele>958.0</ele><time>2026-05-02T12:19:39.003Z</time></trkpt><trkpt lat="42.0787159" lon="13.7085795"><ele>958.0</ele><time>2026-05-02T12:19:40.003Z</time></trkpt><trkpt lat="42.0786557" lon="13.7083698"><ele>958.0</ele><time>2026-05-02T12:19:41.002Z</time></trkpt><trkpt lat="42.0786089" lon="13.708159"><ele>963.6666666666666</ele><time>2026-05-02T12:19:42.003Z</time></trkpt><trkpt lat="42.0785691" lon="13.707937"><ele>969.3333333333333</ele><time>2026-05-02T12:19:43.003Z</time></trkpt><trkpt lat="42.0785332" lon="13.7077191"><ele>975.0</ele><time>2026-05-02T12:19:44.002Z</time></trkpt><trkpt lat="42.0785002" lon="13.7075206"><ele>978.5</ele><time>2026-05-02T12:19:45.003Z</time></trkpt><trkpt lat="42.0784736" lon="13.7073356"><ele>982.0</ele><time>2026-05-02T12:19:46.003Z</time></trkpt><trkpt lat="42.0784478" lon="13.7071689"><ele>985.5</ele><time>2026-05-02T12:19:47.003Z</time></trkpt><trkpt lat="42.0784193" lon="13.7070225"><ele>989.0</ele><time>2026-05-02T12:19:48.003Z</time></trkpt><trkpt lat="42.0783762" lon="13.7069054"><ele>991.4000000000001</ele><time>2026-05-02T12:19:49.003Z</time></trkpt><trkpt lat="42.0783178" lon="13.7068203"><ele>993.8000000000001</ele><time>2026-05-02T12:19:50.003Z</time></trkpt><trkpt lat="42.0782371" lon="13.7067746"><ele>996.1999999999999</ele><time>2026-05-02T12:19:51.003Z</time></trkpt><trkpt lat="42.0781504" lon="13.7067653"><ele>998.5999999999999</ele><time>2026-05-02T12:19:52.003Z</time></trkpt><trkpt lat="42.0780681" lon="13.7068082"><ele>1001.0</ele><time>2026-05-02T12:19:53.003Z</time></trkpt><trkpt lat="42.0779896" lon="13.7069635"><ele>1001.0</ele><time>2026-05-02T12:19:54.003Z</time></trkpt><trkpt lat="42.0778989" lon="13.7071258"><ele>1001.0</ele><time>2026-05-02T12:19:55.003Z</time></trkpt><trkpt lat="42.077802" lon="13.707308"><ele>1001.0</ele><time>2026-05-02T12:19:56.003Z</time></trkpt><trkpt lat="42.0777" lon="13.7074805"><ele>1001.0</ele><time>2026-05-02T12:19:57.003Z</time></trkpt><trkpt lat="42.0776087" lon="13.7076333"><ele>1001.0</ele><time>2026-05-02T12:19:58.003Z</time></trkpt><trkpt lat="42.0775234" lon="13.707777"><ele>1001.0</ele><time>2026-05-02T12:19:59.002Z</time></trkpt><trkpt lat="42.0774257" lon="13.7078949"><ele>1001.0</ele><time>2026-05-02T12:20:00.003Z</time></trkpt><trkpt lat="42.0773259" lon="13.7079677"><ele>995.75</ele><time>2026-05-02T12:20:01.002Z</time></trkpt><trkpt lat="42.0772136" lon="13.7079937"><ele>990.5</ele><time>2026-05-02T12:20:02.002Z</time></trkpt><trkpt lat="42.0770814" lon="13.7079802"><ele>985.25</ele><time>2026-05-02T12:20:03.003Z</time></trkpt><trkpt lat="42.0769338" lon="13.7079398"><ele>980.0</ele><time>2026-05-02T12:20:04.003Z</time></trkpt><trkpt lat="42.0767661" lon="13.7078852"><ele>977.6666666666667</ele><time>2026-05-02T12:20:05.002Z</time></trkpt><trkpt lat="42.0765819" lon="13.7078353"><ele>975.3333333333333</ele><time>2026-05-02T12:20:06.003Z</time></trkpt><trkpt lat="42.0763777" lon="13.7077747"><ele>973.0</ele><time>2026-05-02T12:20:07.003Z</time></trkpt><trkpt lat="42.0761585" lon="13.7077076"><ele>980.6666666666666</ele><time>2026-05-02T12:20:08.003Z</time></trkpt><trkpt lat="42.0759519" lon="13.7076427"><ele>988.3333333333333</ele><time>2026-05-02T12:20:09.002Z</time></trkpt><trkpt lat="42.0757652" lon="13.7075759"><ele>996.0</ele><time>2026-05-02T12:20:10.003Z</time></trkpt><trkpt lat="42.0755899" lon="13.7074898"><ele>996.0</ele><time>2026-05-02T12:20:11.003Z</time></trkpt><trkpt lat="42.0754064" lon="13.7073625"><ele>996.0</ele><time>2026-05-02T12:20:12.003Z</time></trkpt><trkpt lat="42.0752246" lon="13.7072083"><ele>996.0</ele><time>2026-05-02T12:20:13.002Z</time></trkpt><trkpt lat="42.0750583" lon="13.7070594"><ele>998.3333333333333</ele><time>2026-05-02T12:20:14.003Z</time></trkpt><trkpt lat="42.0749008" lon="13.7069224"><ele>1000.6666666666666</ele><time>2026-05-02T12:20:15.003Z</time></trkpt><trkpt lat="42.0747458" lon="13.7067733"><ele>1003.0</ele><time>2026-05-02T12:20:16.003Z</time></trkpt><trkpt lat="42.0745902" lon="13.7065978"><ele>1003.0</ele><time>2026-05-02T12:20:17.002Z</time></trkpt><trkpt lat="42.0744308" lon="13.7063943"><ele>1003.0</ele><time>2026-05-02T12:20:18.003Z</time></trkpt><trkpt lat="42.0742705" lon="13.7061706"><ele>1006.6666666666666</ele><time>2026-05-02T12:20:19.003Z</time></trkpt><trkpt lat="42.0741171" lon="13.7059414"><ele>1010.3333333333333</ele><time>2026-05-02T12:20:20.002Z</time></trkpt><trkpt lat="42.0739804" lon="13.7057299"><ele>1014.0</ele><time>2026-05-02T12:20:21.002Z</time></trkpt><trkpt lat="42.0738546" lon="13.7055446"><ele>1014.0</ele><time>2026-05-02T12:20:22.003Z</time></trkpt><trkpt lat="42.0737461" lon="13.7053943"><ele>1014.0</ele><time>2026-05-02T12:20:23.003Z</time></trkpt><trkpt lat="42.0736514" lon="13.70528"><ele>1014.0</ele><time>2026-05-02T12:20:24.003Z</time></trkpt><trkpt lat="42.0735358" lon="13.7052256"><ele>1014.0</ele><time>2026-05-02T12:20:25.003Z</time></trkpt><trkpt lat="42.0734018" lon="13.7052092"><ele>1014.0</ele><time>2026-05-02T12:20:26.003Z</time></trkpt><trkpt lat="42.0732449" lon="13.705223"><ele>1014.0</ele><time>2026-05-02T12:20:27.003Z</time></trkpt><trkpt lat="42.0730632" lon="13.7052434"><ele>1014.0</ele><time>2026-05-02T12:20:28.003Z</time></trkpt><trkpt lat="42.0728564" lon="13.7052617"><ele>1014.0</ele><time>2026-05-02T12:20:29.003Z</time></trkpt><trkpt lat="42.0726263" lon="13.7052783"><ele>1014.0</ele><time>2026-05-02T12:20:30.003Z</time></trkpt><trkpt lat="42.0724073" lon="13.7052943"><ele>1017.6666666666667</ele><time>2026-05-02T12:20:31.003Z</time></trkpt><trkpt lat="42.0722058" lon="13.7053087"><ele>1021.3333333333334</ele><time>2026-05-02T12:20:32.003Z</time></trkpt><trkpt lat="42.0720197" lon="13.7053231"><ele>1025.0</ele><time>2026-05-02T12:20:33.003Z</time></trkpt><trkpt lat="42.0718504" lon="13.7053571"><ele>1025.0</ele><time>2026-05-02T12:20:34.003Z</time></trkpt><trkpt lat="42.0717011" lon="13.7054315"><ele>1025.0</ele><time>2026-05-02T12:20:35.003Z</time></trkpt><trkpt lat="42.0715756" lon="13.7055386"><ele>1025.0</ele><time>2026-05-02T12:20:36.003Z</time></trkpt><trkpt lat="42.0714654" lon="13.7056857"><ele>1024.5</ele><time>2026-05-02T12:20:37.003Z</time></trkpt><trkpt lat="42.0713709" lon="13.7058579"><ele>1024.0</ele><time>2026-05-02T12:20:38.003Z</time></trkpt><trkpt lat="42.0712797" lon="13.7060075"><ele>1023.5</ele><time>2026-05-02T12:20:39.003Z</time></trkpt><trkpt lat="42.071176" lon="13.7061259"><ele>1023.0</ele><time>2026-05-02T12:20:40.003Z</time></trkpt><trkpt lat="42.0710487" lon="13.7062244"><ele>1023.0</ele><time>2026-05-02T12:20:41.002Z</time></trkpt><trkpt lat="42.0708989" lon="13.7062836"><ele>1023.0</ele><time>2026-05-02T12:20:42.003Z</time></trkpt><trkpt lat="42.0707342" lon="13.706313"><ele>1023.0</ele><time>2026-05-02T12:20:43.003Z</time></trkpt><trkpt lat="42.0705699" lon="13.7063256"><ele>1024.0</ele><time>2026-05-02T12:20:44.003Z</time></trkpt><trkpt lat="42.0704255" lon="13.7063253"><ele>1025.0</ele><time>2026-05-02T12:20:45.002Z</time></trkpt><trkpt lat="42.0703121" lon="13.7063061"><ele>1026.0</ele><time>2026-05-02T12:20:46.003Z</time></trkpt><trkpt lat="42.0702277" lon="13.7062589"><ele>1027.0</ele><time>2026-05-02T12:20:47.003Z</time></trkpt><trkpt lat="42.0701729" lon="13.7061783"><ele>1028.0</ele><time>2026-05-02T12:20:48.002Z</time></trkpt><trkpt lat="42.070158" lon="13.706079"><ele>1031.8</ele><time>2026-05-02T12:20:49.002Z</time></trkpt><trkpt lat="42.0701802" lon="13.7059804"><ele>1035.6</ele><time>2026-05-02T12:20:50.003Z</time></trkpt><trkpt lat="42.0702401" lon="13.7058911"><ele>1039.4</ele><time>2026-05-02T12:20:51.003Z</time></trkpt><trkpt lat="42.0703341" lon="13.7058342"><ele>1043.2</ele><time>2026-05-02T12:20:52.003Z</time></trkpt><trkpt lat="42.0704558" lon="13.7058172"><ele>1047.0</ele><time>2026-05-02T12:20:53.003Z</time></trkpt><trkpt lat="42.0705894" lon="13.705834"><ele>1047.0</ele><time>2026-05-02T12:20:54.003Z</time></trkpt><trkpt lat="42.0707264" lon="13.705861"><ele>1047.0</ele><time>2026-05-02T12:20:55.003Z</time></trkpt><trkpt lat="42.0708551" lon="13.7058653"><ele>1047.0</ele><time>2026-05-02T12:20:56.003Z</time></trkpt><trkpt lat="42.0709725" lon="13.7058291"><ele>1047.0</ele><time>2026-05-02T12:20:57.002Z</time></trkpt><trkpt lat="42.0710775" lon="13.7057461"><ele>1045.5</ele><time>2026-05-02T12:20:58.003Z</time></trkpt><trkpt lat="42.0711708" lon="13.705618"><ele>1044.0</ele><time>2026-05-02T12:20:59.002Z</time></trkpt><trkpt lat="42.0712648" lon="13.7054601"><ele>1042.5</ele><time>2026-05-02T12:21:00.003Z</time></trkpt><trkpt lat="42.0713759" lon="13.7052953"><ele>1041.0</ele><time>2026-05-02T12:21:01.002Z</time></trkpt><trkpt lat="42.0715122" lon="13.7051319"><ele>1042.6666666666667</ele><time>2026-05-02T12:21:02.003Z</time></trkpt><trkpt lat="42.0716726" lon="13.7049731"><ele>1044.3333333333335</ele><time>2026-05-02T12:21:03.003Z</time></trkpt><trkpt lat="42.0718461" lon="13.7048111"><ele>1046.0</ele><time>2026-05-02T12:21:04.003Z</time></trkpt><trkpt lat="42.072007" lon="13.7046603"><ele>1046.0</ele><time>2026-05-02T12:21:05.002Z</time></trkpt><trkpt lat="42.0721557" lon="13.7045192"><ele>1046.0</ele><time>2026-05-02T12:21:06.003Z</time></trkpt><trkpt lat="42.0722934" lon="13.7043578"><ele>1046.0</ele><time>2026-05-02T12:21:07.002Z</time></trkpt><trkpt lat="42.0724135" lon="13.7041675"><ele>1047.5</ele><time>2026-05-02T12:21:08.003Z</time></trkpt><trkpt lat="42.0725163" lon="13.7039819"><ele>1049.0</ele><time>2026-05-02T12:21:09.003Z</time></trkpt><trkpt lat="42.0726054" lon="13.7038236"><ele>1050.5</ele><time>2026-05-02T12:21:10.003Z</time></trkpt><trkpt lat="42.0726714" lon="13.7036919"><ele>1052.0</ele><time>2026-05-02T12:21:11.003Z</time></trkpt><trkpt lat="42.0727081" lon="13.7035697"><ele>1054.0</ele><time>2026-05-02T12:21:12.003Z</time></trkpt><trkpt lat="42.0727079" lon="13.7034584"><ele>1056.0</ele><time>2026-05-02T12:21:13.003Z</time></trkpt><trkpt lat="42.0726623" lon="13.7033826"><ele>1058.0</ele><time>2026-05-02T12:21:14.003Z</time></trkpt><trkpt lat="42.072591" lon="13.7033479"><ele>1060.0</ele><time>2026-05-02T12:21:15.003Z</time></trkpt><trkpt lat="42.0725084" lon="13.7033604"><ele>1062.0</ele><time>2026-05-02T12:21:16.003Z</time></trkpt><trkpt lat="42.0724101" lon="13.7034305"><ele>1064.0</ele><time>2026-05-02T12:21:17.003Z</time></trkpt><trkpt lat="42.0723081" lon="13.7035805"><ele>1064.0</ele><time>2026-05-02T12:21:18.003Z</time></trkpt><trkpt lat="42.0721855" lon="13.7037504"><ele>1064.0</ele><time>2026-05-02T12:21:19.003Z</time></trkpt><trkpt lat="42.0720487" lon="13.7039271"><ele>1064.0</ele><time>2026-05-02T12:21:20.002Z</time></trkpt><trkpt lat="42.0719094" lon="13.704091"><ele>1064.0</ele><time>2026-05-02T12:21:21.003Z</time></trkpt><trkpt lat="42.0717756" lon="13.7042272"><ele>1064.0</ele><time>2026-05-02T12:21:22.003Z</time></trkpt><trkpt lat="42.0716357" lon="13.7043294"><ele>1064.0</ele><time>2026-05-02T12:21:23.003Z</time></trkpt><trkpt lat="42.0714885" lon="13.7043813"><ele>1067.3333333333335</ele><time>2026-05-02T12:21:24.003Z</time></trkpt><trkpt lat="42.0713318" lon="13.704393"><ele>1070.6666666666667</ele><time>2026-05-02T12:21:25.003Z</time></trkpt><trkpt lat="42.0711658" lon="13.704381"><ele>1074.0</ele><time>2026-05-02T12:21:26.003Z</time></trkpt><trkpt lat="42.070984" lon="13.7043665"><ele>1074.0</ele><time>2026-05-02T12:21:27.003Z</time></trkpt><trkpt lat="42.0707906" lon="13.7043545"><ele>1074.0</ele><time>2026-05-02T12:21:28.003Z</time></trkpt><trkpt lat="42.0706102" lon="13.7043515"><ele>1074.0</ele><time>2026-05-02T12:21:29.003Z</time></trkpt><trkpt lat="42.0704418" lon="13.7043695"><ele>1072.3333333333333</ele><time>2026-05-02T12:21:30.003Z</time></trkpt><trkpt lat="42.0702796" lon="13.7044347"><ele>1070.6666666666665</ele><time>2026-05-02T12:21:31.003Z</time></trkpt><trkpt lat="42.0701254" lon="13.7045493"><ele>1069.0</ele><time>2026-05-02T12:21:32.003Z</time></trkpt><trkpt lat="42.0699775" lon="13.7047078"><ele>1069.6666666666665</ele><time>2026-05-02T12:21:33.003Z</time></trkpt><trkpt lat="42.0698268" lon="13.7048947"><ele>1070.3333333333333</ele><time>2026-05-02T12:21:34.003Z</time></trkpt><trkpt lat="42.0696778" lon="13.7050779"><ele>1071.0</ele><time>2026-05-02T12:21:35.003Z</time></trkpt><trkpt lat="42.0695228" lon="13.7052516"><ele>1071.0</ele><time>2026-05-02T12:21:36.002Z</time></trkpt><trkpt lat="42.0693507" lon="13.7054019"><ele>1071.0</ele><time>2026-05-02T12:21:37.002Z</time></trkpt><trkpt lat="42.0691715" lon="13.7055333"><ele>1071.0</ele><time>2026-05-02T12:21:38.003Z</time></trkpt><trkpt lat="42.0689836" lon="13.7056489"><ele>1077.0</ele><time>2026-05-02T12:21:39.003Z</time></trkpt><trkpt lat="42.0687869" lon="13.7057474"><ele>1083.0</ele><time>2026-05-02T12:21:40.003Z</time></trkpt><trkpt lat="42.0685835" lon="13.7058221"><ele>1089.0</ele><time>2026-05-02T12:21:41.002Z</time></trkpt><trkpt lat="42.0683736" lon="13.705881"><ele>1093.6666666666667</ele><time>2026-05-02T12:21:42.003Z</time></trkpt><trkpt lat="42.0681559" lon="13.705928"><ele>1098.3333333333335</ele><time>2026-05-02T12:21:43.003Z</time></trkpt><trkpt lat="42.0679342" lon="13.7059742"><ele>1103.0</ele><time>2026-05-02T12:21:44.003Z</time></trkpt><trkpt lat="42.0677034" lon="13.7060157"><ele>1103.0</ele><time>2026-05-02T12:21:45.003Z</time></trkpt><trkpt lat="42.0674677" lon="13.7060449"><ele>1103.0</ele><time>2026-05-02T12:21:46.003Z</time></trkpt><trkpt lat="42.0672273" lon="13.7060591"><ele>1106.0</ele><time>2026-05-02T12:21:47.003Z</time></trkpt><trkpt lat="42.0669862" lon="13.7060624"><ele>1109.0</ele><time>2026-05-02T12:21:48.003Z</time></trkpt><trkpt lat="42.0667618" lon="13.7060672"><ele>1096.0</ele><time>2026-05-02T12:21:49.003Z</time></trkpt><trkpt lat="42.0665336" lon="13.7060924"><ele>1083.0</ele><time>2026-05-02T12:21:50.003Z</time></trkpt><trkpt lat="42.0663087" lon="13.7061382"><ele>1083.0</ele><time>2026-05-02T12:21:51.003Z</time></trkpt><trkpt lat="42.0660992" lon="13.7061943"><ele>1083.0</ele><time>2026-05-02T12:21:52.003Z</time></trkpt><trkpt lat="42.0658992" lon="13.706237"><ele>1083.0</ele><time>2026-05-02T12:21:53.003Z</time></trkpt><trkpt lat="42.0656965" lon="13.7062431"><ele>1086.6666666666667</ele><time>2026-05-02T12:21:54.003Z</time></trkpt><trkpt lat="42.0654842" lon="13.7062198"><ele>1090.3333333333335</ele><time>2026-05-02T12:21:55.003Z</time></trkpt><trkpt lat="42.065265" lon="13.7061876"><ele>1094.0</ele><time>2026-05-02T12:21:56.002Z</time></trkpt><trkpt lat="42.0650367" lon="13.7061584"><ele>1101.3333333333335</ele><time>2026-05-02T12:21:57.003Z</time></trkpt><trkpt lat="42.0648096" lon="13.7061365"><ele>1108.6666666666667</ele><time>2026-05-02T12:21:58.003Z</time></trkpt><trkpt lat="42.0646061" lon="13.7061264"><ele>1116.0</ele><time>2026-05-02T12:21:59.003Z</time></trkpt><trkpt lat="42.064435" lon="13.7061162"><ele>1116.0</ele><time>2026-05-02T12:22:00.003Z</time></trkpt><trkpt lat="42.0642918" lon="13.7061038"><ele>1116.0</ele><time>2026-05-02T12:22:01.003Z</time></trkpt><trkpt lat="42.0641747" lon="13.7060694"><ele>1116.0</ele><time>2026-05-02T12:22:02.003Z</time></trkpt><trkpt lat="42.0640735" lon="13.7060063"><ele>1116.0</ele><time>2026-05-02T12:22:03.003Z</time></trkpt><trkpt lat="42.0639824" lon="13.7059071"><ele>1114.6666666666667</ele><time>2026-05-02T12:22:04.003Z</time></trkpt><trkpt lat="42.0638877" lon="13.7057772"><ele>1113.3333333333335</ele><time>2026-05-02T12:22:05.003Z</time></trkpt><trkpt lat="42.0637855" lon="13.7056214"><ele>1112.0</ele><time>2026-05-02T12:22:06.003Z</time></trkpt><trkpt lat="42.06367" lon="13.7054442"><ele>1112.0</ele><time>2026-05-02T12:22:07.003Z</time></trkpt><trkpt lat="42.0635528" lon="13.7052483"><ele>1112.0</ele><time>2026-05-02T12:22:08.003Z</time></trkpt><trkpt lat="42.0634453" lon="13.7050521"><ele>1112.0</ele><time>2026-05-02T12:22:09.003Z</time></trkpt><trkpt lat="42.0633542" lon="13.7048761"><ele>1102.6666666666667</ele><time>2026-05-02T12:22:10.003Z</time></trkpt><trkpt lat="42.0632789" lon="13.7047046"><ele>1093.3333333333333</ele><time>2026-05-02T12:22:11.003Z</time></trkpt><trkpt lat="42.0632182" lon="13.7045041"><ele>1084.0</ele><time>2026-05-02T12:22:12.003Z</time></trkpt><trkpt lat="42.0631769" lon="13.7042729"><ele>1084.0</ele><time>2026-05-02T12:22:13.003Z</time></trkpt><trkpt lat="42.0631399" lon="13.7040209"><ele>1084.0</ele><time>2026-05-02T12:22:14.002Z</time></trkpt><trkpt lat="42.0630997" lon="13.703779"><ele>1084.0</ele><time>2026-05-02T12:22:15.003Z</time></trkpt><trkpt lat="42.0630454" lon="13.703547"><ele>1087.0</ele><time>2026-05-02T12:22:16.003Z</time></trkpt><trkpt lat="42.0629645" lon="13.703325"><ele>1090.0</ele><time>2026-05-02T12:22:17.003Z</time></trkpt><trkpt lat="42.0628575" lon="13.7031215"><ele>1093.0</ele><time>2026-05-02T12:22:18.003Z</time></trkpt><trkpt lat="42.0627483" lon="13.7029382"><ele>1093.0</ele><time>2026-05-02T12:22:19.002Z</time></trkpt><trkpt lat="42.062653" lon="13.7027734"><ele>1093.0</ele><time>2026-05-02T12:22:20.003Z</time></trkpt><trkpt lat="42.0625819" lon="13.7026011"><ele>1093.0</ele><time>2026-05-02T12:22:21.003Z</time></trkpt><trkpt lat="42.0625399" lon="13.7024137"><ele>1093.0</ele><time>2026-05-02T12:22:22.003Z</time></trkpt><trkpt lat="42.062515" lon="13.7021935"><ele>1083.0</ele><time>2026-05-02T12:22:23.003Z</time></trkpt><trkpt lat="42.0658992" lon="13.706237"><ele>1086.6666666666667</ele><time>2026-05-02T12:21:53.003Z</time></trkpt><trkpt lat="42.0656965" lon="13.7062431"><ele>1090.3333333333335</ele><time>2026-05-02T12:21:54.003Z</time></trkpt><trkpt lat="42.0654842" lon="13.7062198"><ele>1094.0</ele><time>2026-05-02T12:21:55.003Z</time></trkpt><trkpt lat="42.065265" lon="13.7061876"><ele>1094.0</ele><time>2026-05-02T12:21:56.002Z</time></trkpt><trkpt lat="42.0650367" lon="13.7061584"><ele>1094.0</ele><time>2026-05-02T12:21:57.003Z</time></trkpt><trkpt lat="42.0648096" lon="13.7061365"><ele>1101.3333333333335</ele><time>2026-05-02T12:21:58.003Z</time></trkpt><trkpt lat="42.0646061" lon="13.7061264"><ele>1108.6666666666667</ele><time>2026-05-02T12:21:59.003Z</time></trkpt><trkpt lat="42.064435" lon="13.7061162"><ele>1116.0</ele><time>2026-05-02T12:22:00.003Z</time></trkpt><trkpt lat="42.0642918" lon="13.7061038"><ele>1115.0</ele><time>2026-05-02T12:22:01.003Z</time></trkpt><trkpt lat="42.0641747" lon="13.7060694"><ele>1114.0</ele><time>2026-05-02T12:22:02.003Z</time></trkpt><trkpt lat="42.0640735" lon="13.7060063"><ele>1113.0</ele><time>2026-05-02T12:22:03.003Z</time></trkpt><trkpt lat="42.0639824" lon="13.7059071"><ele>1112.0</ele><time>2026-05-02T12:22:04.003Z</time></trkpt><trkpt lat="42.0638877" lon="13.7057772"><ele>1112.0</ele><time>2026-05-02T12:22:05.003Z</time></trkpt><trkpt lat="42.0637855" lon="13.7056214"><ele>1112.0</ele><time>2026-05-02T12:22:06.003Z</time></trkpt><trkpt lat="42.06367" lon="13.7054442"><ele>1112.0</ele><time>2026-05-02T12:22:07.003Z</time></trkpt><trkpt lat="42.0635528" lon="13.7052483"><ele>1109.6666666666667</ele><time>2026-05-02T12:22:08.003Z</time></trkpt><trkpt lat="42.0634453" lon="13.7050521"><ele>1107.3333333333333</ele><time>2026-05-02T12:22:09.003Z</time></trkpt><trkpt lat="42.0633542" lon="13.7048761"><ele>1105.0</ele><time>2026-05-02T12:22:10.003Z</time></trkpt><trkpt lat="42.0632789" lon="13.7047046"><ele>1098.0</ele><time>2026-05-02T12:22:11.003Z</time></trkpt><trkpt lat="42.0632182" lon="13.7045041"><ele>1091.0</ele><time>2026-05-02T12:22:12.003Z</time></trkpt><trkpt lat="42.0631769" lon="13.7042729"><ele>1084.0</ele><time>2026-05-02T12:22:13.003Z</time></trkpt><trkpt lat="42.0631399" lon="13.7040209"><ele>1084.0</ele><time>2026-05-02T12:22:14.002Z</time></trkpt><trkpt lat="42.0630997" lon="13.703779"><ele>1084.0</ele><time>2026-05-02T12:22:15.003Z</time></trkpt><trkpt lat="42.0630454" lon="13.703547"><ele>1084.0</ele><time>2026-05-02T12:22:16.003Z</time></trkpt><trkpt lat="42.0629645" lon="13.703325"><ele>1087.0</ele><time>2026-05-02T12:22:17.003Z</time></trkpt><trkpt lat="42.0628575" lon="13.7031215"><ele>1090.0</ele><time>2026-05-02T12:22:18.003Z</time></trkpt><trkpt lat="42.0627483" lon="13.7029382"><ele>1093.0</ele><time>2026-05-02T12:22:19.002Z</time></trkpt><trkpt lat="42.062653" lon="13.7027734"><ele>1096.3333333333333</ele><time>2026-05-02T12:22:20.003Z</time></trkpt><trkpt lat="42.0625819" lon="13.7026011"><ele>1099.6666666666667</ele><time>2026-05-02T12:22:21.003Z</time></trkpt><trkpt lat="42.0625399" lon="13.7024137"><ele>1103.0</ele><time>2026-05-02T12:22:22.003Z</time></trkpt><trkpt lat="42.062515" lon="13.7021935"><ele>1103.0</ele><time>2026-05-02T12:22:23.003Z</time></trkpt><trkpt lat="42.0625088" lon="13.7019433"><ele>1103.0</ele><time>2026-05-02T12:22:24.003Z</time></trkpt><trkpt lat="42.0625083" lon="13.7016638"><ele>1103.0</ele><time>2026-05-02T12:22:25.003Z</time></trkpt><trkpt lat="42.0625087" lon="13.7013525"><ele>1106.0</ele><time>2026-05-02T12:22:26.003Z</time></trkpt><trkpt lat="42.06251" lon="13.7010071"><ele>1109.0</ele><time>2026-05-02T12:22:27.003Z</time></trkpt><trkpt lat="42.0625103" lon="13.7006403"><ele>1109.0</ele><time>2026-05-02T12:22:28.003Z</time></trkpt><trkpt lat="42.0625057" lon="13.7002836"><ele>1109.0</ele><time>2026-05-02T12:22:29.003Z</time></trkpt><trkpt lat="42.0624989" lon="13.6999366"><ele>1109.5</ele><time>2026-05-02T12:22:30.003Z</time></trkpt><trkpt lat="42.0624901" lon="13.6995834"><ele>1110.0</ele><time>2026-05-02T12:22:31.003Z</time></trkpt><trkpt lat="42.0624819" lon="13.6992261"><ele>1108.5</ele><time>2026-05-02T12:22:32.003Z</time></trkpt><trkpt lat="42.0624823" lon="13.6988661"><ele>1107.0</ele><time>2026-05-02T12:22:33.003Z</time></trkpt><trkpt lat="42.0624896" lon="13.6985039"><ele>1105.5</ele><time>2026-05-02T12:22:34.003Z</time></trkpt><trkpt lat="42.0625" lon="13.6981377"><ele>1104.0</ele><time>2026-05-02T12:22:35.002Z</time></trkpt><trkpt lat="42.0624985" lon="13.6977627"><ele>1103.0</ele><time>2026-05-02T12:22:36.002Z</time></trkpt><trkpt lat="42.0624827" lon="13.6973763"><ele>1102.0</ele><time>2026-05-02T12:22:37.003Z</time></trkpt><trkpt lat="42.0624598" lon="13.6969848"><ele>1090.0</ele><time>2026-05-02T12:22:38.003Z</time></trkpt><trkpt lat="42.0624343" lon="13.6966061"><ele>1078.0</ele><time>2026-05-02T12:22:39.003Z</time></trkpt><trkpt lat="42.0624102" lon="13.6962369"><ele>1076.5</ele><time>2026-05-02T12:22:40.003Z</time></trkpt><trkpt lat="42.0623937" lon="13.6958859"><ele>1075.0</ele><time>2026-05-02T12:22:41.002Z</time></trkpt><trkpt lat="42.0623689" lon="13.6955488"><ele>1075.6666666666665</ele><time>2026-05-02T12:22:42.003Z</time></trkpt><trkpt lat="42.0623465" lon="13.6952362"><ele>1076.3333333333333</ele><time>2026-05-02T12:22:43.003Z</time></trkpt><trkpt lat="42.0623269" lon="13.6949503"><ele>1077.0</ele><time>2026-05-02T12:22:44.003Z</time></trkpt><trkpt lat="42.0623099" lon="13.6946854"><ele>1077.0</ele><time>2026-05-02T12:22:45.003Z</time></trkpt><trkpt lat="42.0622927" lon="13.6944371"><ele>1077.0</ele><time>2026-05-02T12:22:46.003Z</time></trkpt><trkpt lat="42.062272" lon="13.6942151"><ele>1077.0</ele><time>2026-05-02T12:22:47.002Z</time></trkpt><trkpt lat="42.0622371" lon="13.6940025"><ele>1079.3333333333333</ele><time>2026-05-02T12:22:48.003Z</time></trkpt><trkpt lat="42.0621792" lon="13.6937928"><ele>1081.6666666666665</ele><time>2026-05-02T12:22:49.003Z</time></trkpt><trkpt lat="42.0620946" lon="13.6936012"><ele>1084.0</ele><time>2026-05-02T12:22:50.003Z</time></trkpt><trkpt lat="42.0620099" lon="13.6934298"><ele>1086.75</ele><time>2026-05-02T12:22:51.003Z</time></trkpt><trkpt lat="42.0619361" lon="13.6932751"><ele>1089.5</ele><time>2026-05-02T12:22:52.002Z</time></trkpt><trkpt lat="42.0619044" lon="13.6931342"><ele>1092.25</ele><time>2026-05-02T12:22:53.003Z</time></trkpt><trkpt lat="42.0619093" lon="13.6929965"><ele>1095.0</ele><time>2026-05-02T12:22:54.003Z</time></trkpt><trkpt lat="42.0619538" lon="13.692846"><ele>1095.0</ele><time>2026-05-02T12:22:55.003Z</time></trkpt><trkpt lat="42.0620315" lon="13.6926873"><ele>1095.0</ele><time>2026-05-02T12:22:56.003Z</time></trkpt><trkpt lat="42.0621336" lon="13.6925082"><ele>1095.0</ele><time>2026-05-02T12:22:57.003Z</time></trkpt><trkpt lat="42.0622504" lon="13.6923065"><ele>1095.0</ele><time>2026-05-02T12:22:58.003Z</time></trkpt><trkpt lat="42.062383" lon="13.6920834"><ele>1095.0</ele><time>2026-05-02T12:22:59.003Z</time></trkpt><trkpt lat="42.0625291" lon="13.691844"><ele>1095.0</ele><time>2026-05-02T12:23:00.003Z</time></trkpt><trkpt lat="42.0626805" lon="13.691597"><ele>1091.5</ele><time>2026-05-02T12:23:01.003Z</time></trkpt><trkpt lat="42.0628285" lon="13.6913385"><ele>1088.0</ele><time>2026-05-02T12:23:02.003Z</time></trkpt><trkpt lat="42.0629723" lon="13.691052"><ele>1082.5</ele><time>2026-05-02T12:23:03.003Z</time></trkpt><trkpt lat="42.0631102" lon="13.690743"><ele>1077.0</ele><time>2026-05-02T12:23:04.003Z</time></trkpt><trkpt lat="42.0632507" lon="13.6904187"><ele>1081.0</ele><time>2026-05-02T12:23:05.003Z</time></trkpt><trkpt lat="42.0633872" lon="13.690101"><ele>1085.0</ele><time>2026-05-02T12:23:06.003Z</time></trkpt><trkpt lat="42.0635186" lon="13.6897949"><ele>1085.0</ele><time>2026-05-02T12:23:07.003Z</time></trkpt><trkpt lat="42.0636424" lon="13.6895099"><ele>1085.0</ele><time>2026-05-02T12:23:08.003Z</time></trkpt><trkpt lat="42.0637519" lon="13.6892534"><ele>1081.6666666666667</ele><time>2026-05-02T12:23:09.003Z</time></trkpt><trkpt lat="42.063845" lon="13.6890317"><ele>1078.3333333333333</ele><time>2026-05-02T12:23:10.003Z</time></trkpt><trkpt lat="42.0639136" lon="13.6888371"><ele>1075.0</ele><time>2026-05-02T12:23:11.003Z</time></trkpt><trkpt lat="42.0639545" lon="13.6886415"><ele>1073.0</ele><time>2026-05-02T12:23:12.003Z</time></trkpt><trkpt lat="42.0639598" lon="13.6884266"><ele>1071.0</ele><time>2026-05-02T12:23:13.002Z</time></trkpt><trkpt lat="42.0639315" lon="13.6881994"><ele>1069.0</ele><time>2026-05-02T12:23:14.003Z</time></trkpt><trkpt lat="42.0638943" lon="13.6879628"><ele>1068.3333333333333</ele><time>2026-05-02T12:23:15.003Z</time></trkpt><trkpt lat="42.0638689" lon="13.687731"><ele>1067.6666666666667</ele><time>2026-05-02T12:23:16.003Z</time></trkpt><trkpt lat="42.0638645" lon="13.6874983"><ele>1067.0</ele><time>2026-05-02T12:23:17.003Z</time></trkpt><trkpt lat="42.0638848" lon="13.6872521"><ele>1067.0</ele><time>2026-05-02T12:23:18.002Z</time></trkpt><trkpt lat="42.0639321" lon="13.6869991"><ele>1067.0</ele><time>2026-05-02T12:23:19.003Z</time></trkpt><trkpt lat="42.0639951" lon="13.6867385"><ele>1067.0</ele><time>2026-05-02T12:23:20.003Z</time></trkpt><trkpt lat="42.064062" lon="13.6864846"><ele>1068.0</ele><time>2026-05-02T12:23:21.002Z</time></trkpt><trkpt lat="42.0641295" lon="13.6862452"><ele>1069.0</ele><time>2026-05-02T12:23:22.003Z</time></trkpt><trkpt lat="42.0641887" lon="13.6860226"><ele>1070.0</ele><time>2026-05-02T12:23:23.003Z</time></trkpt><trkpt lat="42.0642251" lon="13.6858196"><ele>1070.0</ele><time>2026-05-02T12:23:24.003Z</time></trkpt><trkpt lat="42.0642183" lon="13.685632"><ele>1070.0</ele><time>2026-05-02T12:23:25.003Z</time></trkpt><trkpt lat="42.0641771" lon="13.6854344"><ele>1070.0</ele><time>2026-05-02T12:23:26.003Z</time></trkpt><trkpt lat="42.0641019" lon="13.6852212"><ele>1066.6666666666667</ele><time>2026-05-02T12:23:27.003Z</time></trkpt><trkpt lat="42.0640169" lon="13.6849899"><ele>1063.3333333333333</ele><time>2026-05-02T12:23:28.002Z</time></trkpt><trkpt lat="42.0639297" lon="13.6847467"><ele>1060.0</ele><time>2026-05-02T12:23:29.002Z</time></trkpt><trkpt lat="42.0638476" lon="13.6845171"><ele>1060.0</ele><time>2026-05-02T12:23:30.003Z</time></trkpt><trkpt lat="42.0637675" lon="13.6843044"><ele>1060.0</ele><time>2026-05-02T12:23:31.002Z</time></trkpt><trkpt lat="42.0636733" lon="13.6841054"><ele>1060.0</ele><time>2026-05-02T12:23:32.003Z</time></trkpt><trkpt lat="42.0635507" lon="13.68392"><ele>1060.0</ele><time>2026-05-02T12:23:33.002Z</time></trkpt><trkpt lat="42.0633945" lon="13.6837458"><ele>1060.0</ele><time>2026-05-02T12:23:34.003Z</time></trkpt><trkpt lat="42.0632124" lon="13.6835774"><ele>1060.0</ele><time>2026-05-02T12:23:35.003Z</time></trkpt><trkpt lat="42.0630223" lon="13.6834072"><ele>1059.5</ele><time>2026-05-02T12:23:36.003Z</time></trkpt><trkpt lat="42.0628385" lon="13.6832326"><ele>1059.0</ele><time>2026-05-02T12:23:37.003Z</time></trkpt><trkpt lat="42.0626549" lon="13.6830571"><ele>1059.0</ele><time>2026-05-02T12:23:38.003Z</time></trkpt><trkpt lat="42.0624747" lon="13.6828835"><ele>1059.0</ele><time>2026-05-02T12:23:39.003Z</time></trkpt><trkpt lat="42.0622964" lon="13.6827145"><ele>1059.0</ele><time>2026-05-02T12:23:40.003Z</time></trkpt><trkpt lat="42.0621169" lon="13.682548"><ele>1059.0</ele><time>2026-05-02T12:23:41.003Z</time></trkpt><trkpt lat="42.0619404" lon="13.6823805"><ele>1059.0</ele><time>2026-05-02T12:23:42.002Z</time></trkpt><trkpt lat="42.0617666" lon="13.6822112"><ele>1059.0</ele><time>2026-05-02T12:23:43.003Z</time></trkpt><trkpt lat="42.0615924" lon="13.682038"><ele>1059.6666666666667</ele><time>2026-05-02T12:23:44.003Z</time></trkpt><trkpt lat="42.0614165" lon="13.6818641"><ele>1060.3333333333335</ele><time>2026-05-02T12:23:45.003Z</time></trkpt><trkpt lat="42.0612379" lon="13.6816926"><ele>1061.0</ele><time>2026-05-02T12:23:46.003Z</time></trkpt><trkpt lat="42.0610608" lon="13.681508"><ele>1061.0</ele><time>2026-05-02T12:23:47.003Z</time></trkpt><trkpt lat="42.0608769" lon="13.6813382"><ele>1061.0</ele><time>2026-05-02T12:23:48.003Z</time></trkpt><trkpt lat="42.0606984" lon="13.6811635"><ele>1061.0</ele><time>2026-05-02T12:23:49.003Z</time></trkpt><trkpt lat="42.0605178" lon="13.6809888"><ele>1062.3333333333335</ele><time>2026-05-02T12:23:50.003Z</time></trkpt><trkpt lat="42.0603386" lon="13.6808116"><ele>1063.6666666666667</ele><time>2026-05-02T12:23:51.003Z</time></trkpt><trkpt lat="42.0601622" lon="13.6806282"><ele>1065.0</ele><time>2026-05-02T12:23:52.003Z</time></trkpt><trkpt lat="42.059989" lon="13.6804494"><ele>1065.6666666666667</ele><time>2026-05-02T12:23:53.002Z</time></trkpt><trkpt lat="42.0598258" lon="13.6802627"><ele>1066.3333333333335</ele><time>2026-05-02T12:23:54.003Z</time></trkpt><trkpt lat="42.0596609" lon="13.6800723"><ele>1067.0</ele><time>2026-05-02T12:23:55.003Z</time></trkpt><trkpt lat="42.0594966" lon="13.6798897"><ele>1067.0</ele><time>2026-05-02T12:23:56.003Z</time></trkpt><trkpt lat="42.05933" lon="13.6797166"><ele>1067.0</ele><time>2026-05-02T12:23:57.003Z</time></trkpt><trkpt lat="42.0591743" lon="13.6795637"><ele>1067.0</ele><time>2026-05-02T12:23:58.003Z</time></trkpt><trkpt lat="42.0590366" lon="13.6794377"><ele>1068.0</ele><time>2026-05-02T12:23:59.003Z</time></trkpt><trkpt lat="42.0589069" lon="13.6793307"><ele>1069.0</ele><time>2026-05-02T12:24:00.003Z</time></trkpt><trkpt lat="42.0587863" lon="13.6792501"><ele>1070.0</ele><time>2026-05-02T12:24:01.003Z</time></trkpt><trkpt lat="42.0586669" lon="13.6791651"><ele>1071.0</ele><time>2026-05-02T12:24:02.003Z</time></trkpt><trkpt lat="42.0585637" lon="13.6790564"><ele>1071.0</ele><time>2026-05-02T12:24:03.003Z</time></trkpt><trkpt lat="42.0584716" lon="13.6789164"><ele>1071.0</ele><time>2026-05-02T12:24:04.002Z</time></trkpt><trkpt lat="42.0584032" lon="13.6787475"><ele>1071.0</ele><time>2026-05-02T12:24:05.003Z</time></trkpt><trkpt lat="42.0583473" lon="13.6785604"><ele>1071.0</ele><time>2026-05-02T12:24:06.003Z</time></trkpt><trkpt lat="42.0582974" lon="13.6783612"><ele>1071.5</ele><time>2026-05-02T12:24:07.003Z</time></trkpt><trkpt lat="42.0582618" lon="13.6781697"><ele>1072.0</ele><time>2026-05-02T12:24:08.003Z</time></trkpt><trkpt lat="42.0582527" lon="13.6779905"><ele>1072.5</ele><time>2026-05-02T12:24:09.003Z</time></trkpt><trkpt lat="42.0582695" lon="13.6778228"><ele>1073.0</ele><time>2026-05-02T12:24:10.003Z</time></trkpt><trkpt lat="42.0583234" lon="13.6776513"><ele>1074.3333333333335</ele><time>2026-05-02T12:24:11.002Z</time></trkpt><trkpt lat="42.0584076" lon="13.6774844"><ele>1075.6666666666667</ele><time>2026-05-02T12:24:12.003Z</time></trkpt><trkpt lat="42.0585199" lon="13.6773178"><ele>1077.0</ele><time>2026-05-02T12:24:13.003Z</time></trkpt><trkpt lat="42.0586322" lon="13.6771581"><ele>1077.0</ele><time>2026-05-02T12:24:14.003Z</time></trkpt><trkpt lat="42.0587307" lon="13.6769969"><ele>1077.0</ele><time>2026-05-02T12:24:15.003Z</time></trkpt><trkpt lat="42.0588153" lon="13.6768237"><ele>1077.0</ele><time>2026-05-02T12:24:16.003Z</time></trkpt><trkpt lat="42.0588855" lon="13.6766443"><ele>1076.0</ele><time>2026-05-02T12:24:17.003Z</time></trkpt><trkpt lat="42.0589517" lon="13.6764515"><ele>1075.0</ele><time>2026-05-02T12:24:18.003Z</time></trkpt><trkpt lat="42.0590221" lon="13.6762524"><ele>1074.0</ele><time>2026-05-02T12:24:19.002Z</time></trkpt><trkpt lat="42.0590967" lon="13.676049"><ele>1074.3333333333333</ele><time>2026-05-02T12:24:20.003Z</time></trkpt><trkpt lat="42.0591749" lon="13.6758375"><ele>1074.6666666666665</ele><time>2026-05-02T12:24:21.003Z</time></trkpt><trkpt lat="42.0592594" lon="13.6756128"><ele>1075.0</ele><time>2026-05-02T12:24:22.003Z</time></trkpt><trkpt lat="42.0593462" lon="13.6753802"><ele>1073.3333333333333</ele><time>2026-05-02T12:24:23.003Z</time></trkpt><trkpt lat="42.0594366" lon="13.6751404"><ele>1071.6666666666667</ele><time>2026-05-02T12:24:24.003Z</time></trkpt><trkpt lat="42.0595265" lon="13.6749055"><ele>1070.0</ele><time>2026-05-02T12:24:25.003Z</time></trkpt><trkpt lat="42.0596217" lon="13.6746803"><ele>1070.0</ele><time>2026-05-02T12:24:26.003Z</time></trkpt><trkpt lat="42.059725" lon="13.6744682"><ele>1070.0</ele><time>2026-05-02T12:24:27.003Z</time></trkpt><trkpt lat="42.0598368" lon="13.6742597"><ele>1070.0</ele><time>2026-05-02T12:24:28.003Z</time></trkpt><trkpt lat="42.0599552" lon="13.6740431"><ele>1070.6666666666667</ele><time>2026-05-02T12:24:29.002Z</time></trkpt><trkpt lat="42.0600773" lon="13.6738173"><ele>1071.3333333333333</ele><time>2026-05-02T12:24:30.003Z</time></trkpt><trkpt lat="42.0602012" lon="13.6735815"><ele>1072.0</ele><time>2026-05-02T12:24:31.003Z</time></trkpt><trkpt lat="42.0603259" lon="13.6733394"><ele>1069.0</ele><time>2026-05-02T12:24:32.003Z</time></trkpt><trkpt lat="42.0604541" lon="13.6731066"><ele>1066.0</ele><time>2026-05-02T12:24:33.003Z</time></trkpt><trkpt lat="42.0605724" lon="13.6728846"><ele>1063.0</ele><time>2026-05-02T12:24:34.003Z</time></trkpt><trkpt lat="42.0606895" lon="13.6726595"><ele>1063.3333333333333</ele><time>2026-05-02T12:24:35.002Z</time></trkpt><trkpt lat="42.0607969" lon="13.6724283"><ele>1063.6666666666667</ele><time>2026-05-02T12:24:36.003Z</time></trkpt><trkpt lat="42.0608935" lon="13.6721875"><ele>1064.0</ele><time>2026-05-02T12:24:37.003Z</time></trkpt><trkpt lat="42.0609859" lon="13.671955"><ele>1060.6666666666667</ele><time>2026-05-02T12:24:38.003Z</time></trkpt><trkpt lat="42.0610707" lon="13.6717334"><ele>1057.3333333333333</ele><time>2026-05-02T12:24:39.003Z</time></trkpt><trkpt lat="42.0611416" lon="13.6715266"><ele>1054.0</ele><time>2026-05-02T12:24:40.003Z</time></trkpt><trkpt lat="42.0612034" lon="13.6713259"><ele>1054.0</ele><time>2026-05-02T12:24:41.003Z</time></trkpt><trkpt lat="42.0612503" lon="13.6711285"><ele>1054.0</ele><time>2026-05-02T12:24:42.003Z</time></trkpt><trkpt lat="42.0612878" lon="13.6709328"><ele>1054.0</ele><time>2026-05-02T12:24:43.003Z</time></trkpt><trkpt lat="42.0613387" lon="13.6707523"><ele>1054.0</ele><time>2026-05-02T12:24:44.003Z</time></trkpt><trkpt lat="42.061425" lon="13.6705859"><ele>1053.3333333333333</ele><time>2026-05-02T12:24:45.003Z</time></trkpt><trkpt lat="42.0615279" lon="13.6704205"><ele>1052.6666666666667</ele><time>2026-05-02T12:24:46.002Z</time></trkpt><trkpt lat="42.0616429" lon="13.6702417"><ele>1052.0</ele><time>2026-05-02T12:24:47.003Z</time></trkpt><trkpt lat="42.0617604" lon="13.6700445"><ele>1052.0</ele><time>2026-05-02T12:24:48.002Z</time></trkpt><trkpt lat="42.0618743" lon="13.6698249"><ele>1052.0</ele><time>2026-05-02T12:24:49.002Z</time></trkpt><trkpt lat="42.0619902" lon="13.6695908"><ele>1052.0</ele><time>2026-05-02T12:24:50.003Z</time></trkpt><trkpt lat="42.0621029" lon="13.6693654"><ele>1052.0</ele><time>2026-05-02T12:24:51.003Z</time></trkpt><trkpt lat="42.0622163" lon="13.6691526"><ele>1052.0</ele><time>2026-05-02T12:24:52.002Z</time></trkpt><trkpt lat="42.0623432" lon="13.6689606"><ele>1052.0</ele><time>2026-05-02T12:24:53.003Z</time></trkpt><trkpt lat="42.0624761" lon="13.6687894"><ele>1048.3333333333335</ele><time>2026-05-02T12:24:54.002Z</time></trkpt><trkpt lat="42.0626008" lon="13.6686042"><ele>1044.6666666666667</ele><time>2026-05-02T12:24:55.003Z</time></trkpt><trkpt lat="42.062716" lon="13.6684079"><ele>1041.0</ele><time>2026-05-02T12:24:56.003Z</time></trkpt><trkpt lat="42.0628253" lon="13.668218"><ele>1041.0</ele><time>2026-05-02T12:24:57.003Z</time></trkpt><trkpt lat="42.062918" lon="13.6680497"><ele>1041.0</ele><time>2026-05-02T12:24:58.003Z</time></trkpt><trkpt lat="42.0629997" lon="13.6678945"><ele>1041.0</ele><time>2026-05-02T12:24:59.003Z</time></trkpt><trkpt lat="42.0630641" lon="13.66774"><ele>1041.0</ele><time>2026-05-02T12:25:00.003Z</time></trkpt><trkpt lat="42.0631057" lon="13.6675689"><ele>1038.0</ele><time>2026-05-02T12:25:01.003Z</time></trkpt><trkpt lat="42.0631107" lon="13.6673763"><ele>1035.0</ele><time>2026-05-02T12:25:02.002Z</time></trkpt><trkpt lat="42.0630925" lon="13.6671611"><ele>1032.0</ele><time>2026-05-02T12:25:03.002Z</time></trkpt><trkpt lat="42.0630612" lon="13.6669339"><ele>1030.6666666666667</ele><time>2026-05-02T12:25:04.003Z</time></trkpt><trkpt lat="42.0630277" lon="13.6667083"><ele>1029.3333333333335</ele><time>2026-05-02T12:25:05.003Z</time></trkpt><trkpt lat="42.0630028" lon="13.6664969"><ele>1028.0</ele><time>2026-05-02T12:25:06.003Z</time></trkpt><trkpt lat="42.0629722" lon="13.6662952"><ele>1028.6666666666667</ele><time>2026-05-02T12:25:07.003Z</time></trkpt><trkpt lat="42.0629142" lon="13.6661069"><ele>1029.3333333333333</ele><time>2026-05-02T12:25:08.003Z</time></trkpt><trkpt lat="42.0628265" lon="13.6659348"><ele>1030.0</ele><time>2026-05-02T12:25:09.003Z</time></trkpt><trkpt lat="42.0627251" lon="13.6657679"><ele>1030.0</ele><time>2026-05-02T12:25:10.003Z</time></trkpt><trkpt lat="42.0626202" lon="13.665599"><ele>1030.0</ele><time>2026-05-02T12:25:11.003Z</time></trkpt><trkpt lat="42.062523" lon="13.6654352"><ele>1030.0</ele><time>2026-05-02T12:25:12.003Z</time></trkpt><trkpt lat="42.0624404" lon="13.6652923"><ele>1028.2</ele><time>2026-05-02T12:25:13.003Z</time></trkpt><trkpt lat="42.0623785" lon="13.6651789"><ele>1026.4</ele><time>2026-05-02T12:25:14.003Z</time></trkpt><trkpt lat="42.0623364" lon="13.6650624"><ele>1024.6</ele><time>2026-05-02T12:25:15.002Z</time></trkpt><trkpt lat="42.0623218" lon="13.6649281"><ele>1022.8</ele><time>2026-05-02T12:25:16.003Z</time></trkpt><trkpt lat="42.0623407" lon="13.6647817"><ele>1021.0</ele><time>2026-05-02T12:25:17.003Z</time></trkpt><trkpt lat="42.062393" lon="13.6646204"><ele>1022.25</ele><time>2026-05-02T12:25:18.003Z</time></trkpt><trkpt lat="42.062468" lon="13.664449"><ele>1023.5</ele><time>2026-05-02T12:25:19.003Z</time></trkpt><trkpt lat="42.0625486" lon="13.6642788"><ele>1024.75</ele><time>2026-05-02T12:25:20.003Z</time></trkpt><trkpt lat="42.0626148" lon="13.6641343"><ele>1026.0</ele><time>2026-05-02T12:25:21.003Z</time></trkpt><trkpt lat="42.0626737" lon="13.6640023"><ele>1026.0</ele><time>2026-05-02T12:25:22.003Z</time></trkpt><trkpt lat="42.0627302" lon="13.6638725"><ele>1026.0</ele><time>2026-05-02T12:25:23.003Z</time></trkpt><trkpt lat="42.0627899" lon="13.6637395"><ele>1026.0</ele><time>2026-05-02T12:25:24.003Z</time></trkpt><trkpt lat="42.06286" lon="13.6635952"><ele>1026.0</ele><time>2026-05-02T12:25:25.003Z</time></trkpt><trkpt lat="42.0629393" lon="13.6634447"><ele>1027.3333333333333</ele><time>2026-05-02T12:25:26.003Z</time></trkpt><trkpt lat="42.0630378" lon="13.6632885"><ele>1028.6666666666665</ele><time>2026-05-02T12:25:27.003Z</time></trkpt><trkpt lat="42.0631559" lon="13.6631424"><ele>1030.0</ele><time>2026-05-02T12:25:28.003Z</time></trkpt><trkpt lat="42.063291" lon="13.6630066"><ele>1030.0</ele><time>2026-05-02T12:25:29.003Z</time></trkpt><trkpt lat="42.0634272" lon="13.6628899"><ele>1030.0</ele><time>2026-05-02T12:25:30.003Z</time></trkpt><trkpt lat="42.0635622" lon="13.6627746"><ele>1030.0</ele><time>2026-05-02T12:25:31.003Z</time></trkpt><trkpt lat="42.0636849" lon="13.6626588"><ele>1027.25</ele><time>2026-05-02T12:25:32.003Z</time></trkpt><trkpt lat="42.0637974" lon="13.6625568"><ele>1024.5</ele><time>2026-05-02T12:25:33.003Z</time></trkpt><trkpt lat="42.0639043" lon="13.6624612"><ele>1021.75</ele><time>2026-05-02T12:25:34.002Z</time></trkpt><trkpt lat="42.0640009" lon="13.662359"><ele>1019.0</ele><time>2026-05-02T12:25:35.003Z</time></trkpt><trkpt lat="42.0640846" lon="13.6622394"><ele>1018.75</ele><time>2026-05-02T12:25:36.003Z</time></trkpt><trkpt lat="42.0641501" lon="13.6620937"><ele>1018.5</ele><time>2026-05-02T12:25:37.002Z</time></trkpt><trkpt lat="42.0642011" lon="13.6619305"><ele>1018.25</ele><time>2026-05-02T12:25:38.003Z</time></trkpt><trkpt lat="42.0642319" lon="13.661753"><ele>1018.0</ele><time>2026-05-02T12:25:39.002Z</time></trkpt><trkpt lat="42.0642371" lon="13.6615605"><ele>1018.0</ele><time>2026-05-02T12:25:40.003Z</time></trkpt><trkpt lat="42.0642124" lon="13.6613634"><ele>1018.0</ele><time>2026-05-02T12:25:41.003Z</time></trkpt><trkpt lat="42.0641608" lon="13.6611599"><ele>1018.0</ele><time>2026-05-02T12:25:42.003Z</time></trkpt><trkpt lat="42.0640884" lon="13.6609479"><ele>1015.0</ele><time>2026-05-02T12:25:43.003Z</time></trkpt><trkpt lat="42.064013" lon="13.6607393"><ele>1012.0</ele><time>2026-05-02T12:25:44.003Z</time></trkpt><trkpt lat="42.0639385" lon="13.6605334"><ele>1009.0</ele><time>2026-05-02T12:25:45.003Z</time></trkpt><trkpt lat="42.063872" lon="13.6603314"><ele>1008.3333333333333</ele><time>2026-05-02T12:25:46.002Z</time></trkpt><trkpt lat="42.0638117" lon="13.6601109"><ele>1007.6666666666667</ele><time>2026-05-02T12:25:47.003Z</time></trkpt><trkpt lat="42.0637623" lon="13.6598627"><ele>1007.0</ele><time>2026-05-02T12:25:48.003Z</time></trkpt><trkpt lat="42.0637246" lon="13.6595964"><ele>1006.3333333333334</ele><time>2026-05-02T12:25:49.003Z</time></trkpt><trkpt lat="42.0636853" lon="13.6593112"><ele>1005.6666666666667</ele><time>2026-05-02T12:25:50.003Z</time></trkpt><trkpt lat="42.0636384" lon="13.6590138"><ele>1005.0</ele><time>2026-05-02T12:25:51.003Z</time></trkpt><trkpt lat="42.0635892" lon="13.6587282"><ele>1005.0</ele><time>2026-05-02T12:25:52.003Z</time></trkpt><trkpt lat="42.0635387" lon="13.6584522"><ele>1005.0</ele><time>2026-05-02T12:25:53.003Z</time></trkpt><trkpt lat="42.0634887" lon="13.6581838"><ele>1005.0</ele><time>2026-05-02T12:25:54.003Z</time></trkpt><trkpt lat="42.0634393" lon="13.6579179"><ele>1004.0</ele><time>2026-05-02T12:25:55.003Z</time></trkpt><trkpt lat="42.0633883" lon="13.6576507"><ele>1003.0</ele><time>2026-05-02T12:25:56.003Z</time></trkpt><trkpt lat="42.0633345" lon="13.6573835"><ele>1002.0</ele><time>2026-05-02T12:25:57.003Z</time></trkpt><trkpt lat="42.0632815" lon="13.6571103"><ele>1000.3333333333333</ele><time>2026-05-02T12:25:58.003Z</time></trkpt><trkpt lat="42.0632293" lon="13.6568348"><ele>998.6666666666666</ele><time>2026-05-02T12:25:59.003Z</time></trkpt><trkpt lat="42.0631913" lon="13.6565671"><ele>997.0</ele><time>2026-05-02T12:26:00.003Z</time></trkpt><trkpt lat="42.0631496" lon="13.6563123"><ele>995.3333333333333</ele><time>2026-05-02T12:26:01.003Z</time></trkpt><trkpt lat="42.0631308" lon="13.6560693"><ele>993.6666666666667</ele><time>2026-05-02T12:26:02.003Z</time></trkpt><trkpt lat="42.0631161" lon="13.6558323"><ele>992.0</ele><time>2026-05-02T12:26:03.003Z</time></trkpt><trkpt lat="42.0630895" lon="13.6555822"><ele>992.0</ele><time>2026-05-02T12:26:04.002Z</time></trkpt><trkpt lat="42.0630471" lon="13.6553149"><ele>992.0</ele><time>2026-05-02T12:26:05.002Z</time></trkpt><trkpt lat="42.0629974" lon="13.6550259"><ele>992.0</ele><time>2026-05-02T12:26:06.003Z</time></trkpt><trkpt lat="42.0629431" lon="13.6547206"><ele>989.5</ele><time>2026-05-02T12:26:07.003Z</time></trkpt><trkpt lat="42.0628809" lon="13.654405"><ele>987.0</ele><time>2026-05-02T12:26:08.003Z</time></trkpt><trkpt lat="42.062822" lon="13.6540989"><ele>987.0</ele><time>2026-05-02T12:26:09.002Z</time></trkpt><trkpt lat="42.0627643" lon="13.6537967"><ele>987.0</ele><time>2026-05-02T12:26:10.003Z</time></trkpt><trkpt lat="42.0627061" lon="13.6535032"><ele>985.0</ele><time>2026-05-02T12:26:11.003Z</time></trkpt><trkpt lat="42.0626493" lon="13.6532177"><ele>983.0</ele><time>2026-05-02T12:26:12.003Z</time></trkpt><trkpt lat="42.0625969" lon="13.6529505"><ele>981.0</ele><time>2026-05-02T12:26:13.002Z</time></trkpt><trkpt lat="42.0625432" lon="13.6526999"><ele>980.0</ele><time>2026-05-02T12:26:14.003Z</time></trkpt><trkpt lat="42.062484" lon="13.6524661"><ele>979.0</ele><time>2026-05-02T12:26:15.003Z</time></trkpt><trkpt lat="42.0624085" lon="13.6522426"><ele>978.0</ele><time>2026-05-02T12:26:16.002Z</time></trkpt><trkpt lat="42.0623188" lon="13.6520271"><ele>975.3333333333333</ele><time>2026-05-02T12:26:17.003Z</time></trkpt><trkpt lat="42.0622305" lon="13.6518216"><ele>972.6666666666666</ele><time>2026-05-02T12:26:18.003Z</time></trkpt><trkpt lat="42.0621462" lon="13.65163"><ele>970.0</ele><time>2026-05-02T12:26:19.003Z</time></trkpt><trkpt lat="42.0620669" lon="13.6514524"><ele>970.0</ele><time>2026-05-02T12:26:20.002Z</time></trkpt><trkpt lat="42.0619937" lon="13.651295"><ele>970.0</ele><time>2026-05-02T12:26:21.003Z</time></trkpt><trkpt lat="42.0619382" lon="13.6511493"><ele>970.0</ele><time>2026-05-02T12:26:22.003Z</time></trkpt><trkpt lat="42.0619113" lon="13.6510089"><ele>970.0</ele><time>2026-05-02T12:26:23.003Z</time></trkpt><trkpt lat="42.0619197" lon="13.6508639"><ele>968.75</ele><time>2026-05-02T12:26:24.002Z</time></trkpt><trkpt lat="42.0619626" lon="13.6507291"><ele>967.5</ele><time>2026-05-02T12:26:25.002Z</time></trkpt><trkpt lat="42.0620374" lon="13.6505978"><ele>966.25</ele><time>2026-05-02T12:26:26.002Z</time></trkpt><trkpt lat="42.0621365" lon="13.6504701"><ele>965.0</ele><time>2026-05-02T12:26:27.003Z</time></trkpt><trkpt lat="42.0622498" lon="13.6503378"><ele>965.75</ele><time>2026-05-02T12:26:28.003Z</time></trkpt><trkpt lat="42.0623518" lon="13.6502036"><ele>966.5</ele><time>2026-05-02T12:26:29.003Z</time></trkpt><trkpt lat="42.0624407" lon="13.6500613"><ele>967.25</ele><time>2026-05-02T12:26:30.003Z</time></trkpt><trkpt lat="42.0625025" lon="13.6499035"><ele>968.0</ele><time>2026-05-02T12:26:31.003Z</time></trkpt><trkpt lat="42.0625309" lon="13.6497237"><ele>968.0</ele><time>2026-05-02T12:26:32.003Z</time></trkpt><trkpt lat="42.0625398" lon="13.6495319"><ele>968.0</ele><time>2026-05-02T12:26:33.003Z</time></trkpt><trkpt lat="42.062551" lon="13.6493445"><ele>968.0</ele><time>2026-05-02T12:26:34.003Z</time></trkpt><trkpt lat="42.0625848" lon="13.6491657"><ele>968.0</ele><time>2026-05-02T12:26:35.003Z</time></trkpt><trkpt lat="42.0626454" lon="13.6490011"><ele>966.5</ele><time>2026-05-02T12:26:36.003Z</time></trkpt><trkpt lat="42.0627255" lon="13.6488558"><ele>965.0</ele><time>2026-05-02T12:26:37.003Z</time></trkpt><trkpt lat="42.0628131" lon="13.6487342"><ele>963.5</ele><time>2026-05-02T12:26:38.002Z</time></trkpt><trkpt lat="42.0629101" lon="13.6486438"><ele>962.0</ele><time>2026-05-02T12:26:39.003Z</time></trkpt><trkpt lat="42.0630152" lon="13.6485916"><ele>960.4000000000001</ele><time>2026-05-02T12:26:40.002Z</time></trkpt><trkpt lat="42.0631119" lon="13.6485796"><ele>958.8000000000001</ele><time>2026-05-02T12:26:41.002Z</time></trkpt><trkpt lat="42.0632106" lon="13.6485892"><ele>957.2</ele><time>2026-05-02T12:26:42.003Z</time></trkpt><trkpt lat="42.0633087" lon="13.6485801"><ele>955.6</ele><time>2026-05-02T12:26:43.003Z</time></trkpt><trkpt lat="42.063395" lon="13.6485311"><ele>954.0</ele><time>2026-05-02T12:26:44.003Z</time></trkpt><trkpt lat="42.0634693" lon="13.6484488"><ele>954.0</ele><time>2026-05-02T12:26:45.003Z</time></trkpt><trkpt lat="42.0635271" lon="13.6483273"><ele>954.0</ele><time>2026-05-02T12:26:46.002Z</time></trkpt><trkpt lat="42.0635702" lon="13.6481837"><ele>954.0</ele><time>2026-05-02T12:26:47.003Z</time></trkpt><trkpt lat="42.0635823" lon="13.6480154"><ele>954.0</ele><time>2026-05-02T12:26:48.003Z</time></trkpt><trkpt lat="42.063572" lon="13.6478546"><ele>952.0</ele><time>2026-05-02T12:26:49.003Z</time></trkpt><trkpt lat="42.0635537" lon="13.6476995"><ele>950.0</ele><time>2026-05-02T12:26:50.003Z</time></trkpt><trkpt lat="42.0635401" lon="13.6475476"><ele>948.0</ele><time>2026-05-02T12:26:51.002Z</time></trkpt><trkpt lat="42.0635413" lon="13.6473942"><ele>946.0</ele><time>2026-05-02T12:26:52.003Z</time></trkpt><trkpt lat="42.0635674" lon="13.6472471"><ele>946.0</ele><time>2026-05-02T12:26:53.003Z</time></trkpt><trkpt lat="42.0636158" lon="13.647108"><ele>946.0</ele><time>2026-05-02T12:26:54.002Z</time></trkpt><trkpt lat="42.0636918" lon="13.6469717"><ele>946.0</ele><time>2026-05-02T12:26:55.003Z</time></trkpt><trkpt lat="42.0637914" lon="13.6468345"><ele>946.0</ele><time>2026-05-02T12:26:56.002Z</time></trkpt><trkpt lat="42.0639094" lon="13.6466933"><ele>947.0</ele><time>2026-05-02T12:26:57.003Z</time></trkpt><trkpt lat="42.0640316" lon="13.6465422"><ele>948.0</ele><time>2026-05-02T12:26:58.003Z</time></trkpt><trkpt lat="42.064163" lon="13.6463903"><ele>949.0</ele><time>2026-05-02T12:26:59.003Z</time></trkpt><trkpt lat="42.0642973" lon="13.6462532"><ele>949.0</ele><time>2026-05-02T12:27:00.003Z</time></trkpt><trkpt lat="42.0644354" lon="13.6461306"><ele>949.0</ele><time>2026-05-02T12:27:01.003Z</time></trkpt><trkpt lat="42.0645717" lon="13.6460273"><ele>949.0</ele><time>2026-05-02T12:27:02.002Z</time></trkpt><trkpt lat="42.0646933" lon="13.6459316"><ele>946.8000000000001</ele><time>2026-05-02T12:27:03.003Z</time></trkpt><trkpt lat="42.0647946" lon="13.6458336"><ele>944.6000000000001</ele><time>2026-05-02T12:27:04.003Z</time></trkpt><trkpt lat="42.0648667" lon="13.6457313"><ele>942.4</ele><time>2026-05-02T12:27:05.003Z</time></trkpt><trkpt lat="42.0649145" lon="13.645611"><ele>940.2</ele><time>2026-05-02T12:27:06.003Z</time></trkpt><trkpt lat="42.0649337" lon="13.64547"><ele>938.0</ele><time>2026-05-02T12:27:07.003Z</time></trkpt><trkpt lat="42.0649365" lon="13.6453082"><ele>936.75</ele><time>2026-05-02T12:27:08.003Z</time></trkpt><trkpt lat="42.0649311" lon="13.6451323"><ele>935.5</ele><time>2026-05-02T12:27:09.003Z</time></trkpt><trkpt lat="42.0649202" lon="13.6449423"><ele>934.25</ele><time>2026-05-02T12:27:10.003Z</time></trkpt><trkpt lat="42.064907" lon="13.6447456"><ele>933.0</ele><time>2026-05-02T12:27:11.003Z</time></trkpt><trkpt lat="42.0648984" lon="13.6445579"><ele>933.5</ele><time>2026-05-02T12:27:12.003Z</time></trkpt><trkpt lat="42.0649032" lon="13.6443848"><ele>934.0</ele><time>2026-05-02T12:27:13.003Z</time></trkpt><trkpt lat="42.064926" lon="13.6442298"><ele>934.5</ele><time>2026-05-02T12:27:14.003Z</time></trkpt><trkpt lat="42.0649747" lon="13.6440978"><ele>935.0</ele><time>2026-05-02T12:27:15.003Z</time></trkpt><trkpt lat="42.0650528" lon="13.6439883"><ele>935.0</ele><time>2026-05-02T12:27:16.003Z</time></trkpt><trkpt lat="42.0651547" lon="13.6438988"><ele>935.0</ele><time>2026-05-02T12:27:17.003Z</time></trkpt><trkpt lat="42.065276" lon="13.6438153"><ele>935.0</ele><time>2026-05-02T12:27:18.003Z</time></trkpt><trkpt lat="42.0653939" lon="13.6437082"><ele>935.0</ele><time>2026-05-02T12:27:19.003Z</time></trkpt><trkpt lat="42.0655036" lon="13.6435689"><ele>932.6666666666667</ele><time>2026-05-02T12:27:20.003Z</time></trkpt><trkpt lat="42.0656005" lon="13.6434015"><ele>930.3333333333333</ele><time>2026-05-02T12:27:21.003Z</time></trkpt><trkpt lat="42.0656875" lon="13.6432141"><ele>928.0</ele><time>2026-05-02T12:27:22.003Z</time></trkpt><trkpt lat="42.0657759" lon="13.6430202"><ele>927.0</ele><time>2026-05-02T12:27:23.003Z</time></trkpt><trkpt lat="42.0658826" lon="13.6428315"><ele>926.0</ele><time>2026-05-02T12:27:24.003Z</time></trkpt><trkpt lat="42.0660067" lon="13.6426456"><ele>925.0</ele><time>2026-05-02T12:27:25.003Z</time></trkpt><trkpt lat="42.066137" lon="13.6424487"><ele>925.0</ele><time>2026-05-02T12:27:26.002Z</time></trkpt><trkpt lat="42.0662792" lon="13.6422442"><ele>925.0</ele><time>2026-05-02T12:27:27.002Z</time></trkpt><trkpt lat="42.0664236" lon="13.6420319"><ele>925.0</ele><time>2026-05-02T12:27:28.003Z</time></trkpt><trkpt lat="42.0665658" lon="13.6418187"><ele>924.3333333333333</ele><time>2026-05-02T12:27:29.002Z</time></trkpt><trkpt lat="42.0667078" lon="13.6416177"><ele>923.6666666666667</ele><time>2026-05-02T12:27:30.003Z</time></trkpt><trkpt lat="42.066842" lon="13.6414201"><ele>923.0</ele><time>2026-05-02T12:27:31.002Z</time></trkpt><trkpt lat="42.0669759" lon="13.6412288"><ele>920.0</ele><time>2026-05-02T12:27:32.003Z</time></trkpt><trkpt lat="42.0671119" lon="13.6410302"><ele>917.0</ele><time>2026-05-02T12:27:33.003Z</time></trkpt><trkpt lat="42.0672471" lon="13.640827"><ele>914.0</ele><time>2026-05-02T12:27:34.003Z</time></trkpt><trkpt lat="42.0673788" lon="13.640624"><ele>914.0</ele><time>2026-05-02T12:27:35.003Z</time></trkpt><trkpt lat="42.0675046" lon="13.6404246"><ele>914.0</ele><time>2026-05-02T12:27:36.003Z</time></trkpt><trkpt lat="42.0676203" lon="13.6402228"><ele>914.0</ele><time>2026-05-02T12:27:37.003Z</time></trkpt><trkpt lat="42.0677269" lon="13.6400065"><ele>914.0</ele><time>2026-05-02T12:27:38.003Z</time></trkpt><trkpt lat="42.0678209" lon="13.6397911"><ele>914.0</ele><time>2026-05-02T12:27:39.003Z</time></trkpt><trkpt lat="42.0679036" lon="13.6395758"><ele>914.0</ele><time>2026-05-02T12:27:40.003Z</time></trkpt><trkpt lat="42.0679768" lon="13.6393532"><ele>911.0</ele><time>2026-05-02T12:27:41.002Z</time></trkpt><trkpt lat="42.0680331" lon="13.6391151"><ele>908.0</ele><time>2026-05-02T12:27:42.003Z</time></trkpt><trkpt lat="42.0680826" lon="13.6388642"><ele>905.0</ele><time>2026-05-02T12:27:43.003Z</time></trkpt><trkpt lat="42.0681257" lon="13.6386017"><ele>902.3333333333334</ele><time>2026-05-02T12:27:44.002Z</time></trkpt><trkpt lat="42.0681715" lon="13.6383384"><ele>899.6666666666667</ele><time>2026-05-02T12:27:45.003Z</time></trkpt><trkpt lat="42.0682147" lon="13.6380848"><ele>897.0</ele><time>2026-05-02T12:27:46.003Z</time></trkpt><trkpt lat="42.0682633" lon="13.6378352"><ele>899.0</ele><time>2026-05-02T12:27:47.003Z</time></trkpt><trkpt lat="42.0683191" lon="13.6375916"><ele>901.0</ele><time>2026-05-02T12:27:48.002Z</time></trkpt><trkpt lat="42.0683916" lon="13.6373442"><ele>903.0</ele><time>2026-05-02T12:27:49.003Z</time></trkpt><trkpt lat="42.0684706" lon="13.6370909"><ele>900.3333333333333</ele><time>2026-05-02T12:27:50.003Z</time></trkpt><trkpt lat="42.0685655" lon="13.6368354"><ele>897.6666666666666</ele><time>2026-05-02T12:27:51.003Z</time></trkpt><trkpt lat="42.0686623" lon="13.6365762"><ele>895.0</ele><time>2026-05-02T12:27:52.003Z</time></trkpt><trkpt lat="42.0687561" lon="13.6363134"><ele>892.3333333333333</ele><time>2026-05-02T12:27:53.003Z</time></trkpt><trkpt lat="42.068842" lon="13.6360554"><ele>889.6666666666667</ele><time>2026-05-02T12:27:54.003Z</time></trkpt><trkpt lat="42.0689285" lon="13.6358081"><ele>887.0</ele><time>2026-05-02T12:27:55.002Z</time></trkpt><trkpt lat="42.0690101" lon="13.6355808"><ele>887.0</ele><time>2026-05-02T12:27:56.003Z</time></trkpt><trkpt lat="42.0690873" lon="13.6353683"><ele>887.0</ele><time>2026-05-02T12:27:57.003Z</time></trkpt><trkpt lat="42.0691694" lon="13.6351729"><ele>887.0</ele><time>2026-05-02T12:27:58.003Z</time></trkpt><trkpt lat="42.0692644" lon="13.6349927"><ele>888.6666666666667</ele><time>2026-05-02T12:27:59.003Z</time></trkpt><trkpt lat="42.0693751" lon="13.6348219"><ele>890.3333333333333</ele><time>2026-05-02T12:28:00.003Z</time></trkpt><trkpt lat="42.0694828" lon="13.6346685"><ele>892.0</ele><time>2026-05-02T12:28:01.003Z</time></trkpt><trkpt lat="42.0695712" lon="13.6345349"><ele>891.0</ele><time>2026-05-02T12:28:02.002Z</time></trkpt><trkpt lat="42.0696404" lon="13.6344031"><ele>890.0</ele><time>2026-05-02T12:28:03.003Z</time></trkpt><trkpt lat="42.0696815" lon="13.6342541"><ele>889.0</ele><time>2026-05-02T12:28:04.003Z</time></trkpt><trkpt lat="42.0696888" lon="13.6340855"><ele>888.0</ele><time>2026-05-02T12:28:05.003Z</time></trkpt><trkpt lat="42.0696705" lon="13.6338998"><ele>888.0</ele><time>2026-05-02T12:28:06.003Z</time></trkpt><trkpt lat="42.0696441" lon="13.6337003"><ele>888.0</ele><time>2026-05-02T12:28:07.002Z</time></trkpt><trkpt lat="42.0696144" lon="13.6334992"><ele>888.0</ele><time>2026-05-02T12:28:08.003Z</time></trkpt><trkpt lat="42.0695817" lon="13.6333044"><ele>887.0</ele><time>2026-05-02T12:28:09.003Z</time></trkpt><trkpt lat="42.0695413" lon="13.6331258"><ele>886.0</ele><time>2026-05-02T12:28:10.003Z</time></trkpt><trkpt lat="42.069501" lon="13.6329605"><ele>885.0</ele><time>2026-05-02T12:28:11.003Z</time></trkpt><trkpt lat="42.0694645" lon="13.6328184"><ele>884.0</ele><time>2026-05-02T12:28:12.002Z</time></trkpt><trkpt lat="42.0694287" lon="13.6326784"><ele>883.0000000000001</ele><time>2026-05-02T12:28:13.003Z</time></trkpt><trkpt lat="42.0693908" lon="13.6325408"><ele>882.0</ele><time>2026-05-02T12:28:14.003Z</time></trkpt><trkpt lat="42.0693599" lon="13.6324216"><ele>881.0</ele><time>2026-05-02T12:28:15.002Z</time></trkpt><trkpt lat="42.0693347" lon="13.6323218"><ele>880.0</ele><time>2026-05-02T12:28:16.003Z</time></trkpt><trkpt lat="42.069303" lon="13.6321917"><ele>879.0000000000001</ele><time>2026-05-02T12:28:18.002Z</time></trkpt><trkpt lat="42.0692812" lon="13.6321117"><ele>878.0</ele><time>2026-05-02T12:28:20.003Z</time></trkpt><trkpt lat="42.0692536" lon="13.6320044"><ele>877.2</ele><time>2026-05-02T12:28:22.003Z</time></trkpt><trkpt lat="42.0692223" lon="13.6319016"><ele>876.4</ele><time>2026-05-02T12:28:23.003Z</time></trkpt><trkpt lat="42.0691842" lon="13.6317702"><ele>875.6000000000001</ele><time>2026-05-02T12:28:24.003Z</time></trkpt><trkpt lat="42.0691498" lon="13.631643"><ele>874.8000000000001</ele><time>2026-05-02T12:28:25.003Z</time></trkpt><trkpt lat="42.0691243" lon="13.6315256"><ele>874.0</ele><time>2026-05-02T12:28:26.003Z</time></trkpt><trkpt lat="42.0690939" lon="13.6314074"><ele>874.0</ele><time>2026-05-02T12:28:27.002Z</time></trkpt><trkpt lat="42.0690517" lon="13.6312949"><ele>874.0000000000001</ele><time>2026-05-02T12:28:28.003Z</time></trkpt><trkpt lat="42.0689952" lon="13.6311922"><ele>874.0000000000001</ele><time>2026-05-02T12:28:29.003Z</time></trkpt><trkpt lat="42.0689237" lon="13.6311001"><ele>874.0</ele><time>2026-05-02T12:28:30.003Z</time></trkpt><trkpt lat="42.0688457" lon="13.6310253"><ele>874.0</ele><time>2026-05-02T12:28:31.003Z</time></trkpt><trkpt lat="42.0687595" lon="13.6309676"><ele>872.6</ele><time>2026-05-02T12:28:32.003Z</time></trkpt><trkpt lat="42.0686669" lon="13.6309257"><ele>871.2</ele><time>2026-05-02T12:28:33.003Z</time></trkpt><trkpt lat="42.0685729" lon="13.6309009"><ele>869.8000000000001</ele><time>2026-05-02T12:28:34.002Z</time></trkpt><trkpt lat="42.0684754" lon="13.6309072"><ele>868.4000000000001</ele><time>2026-05-02T12:28:35.003Z</time></trkpt><trkpt lat="42.0683819" lon="13.6309363"><ele>867.0</ele><time>2026-05-02T12:28:36.003Z</time></trkpt><trkpt lat="42.0682887" lon="13.6309839"><ele>867.4000000000001</ele><time>2026-05-02T12:28:37.003Z</time></trkpt><trkpt lat="42.0681982" lon="13.631042"><ele>867.8000000000001</ele><time>2026-05-02T12:28:38.003Z</time></trkpt><trkpt lat="42.0681088" lon="13.6311084"><ele>868.2</ele><time>2026-05-02T12:28:39.003Z</time></trkpt><trkpt lat="42.0680204" lon="13.6311704"><ele>868.6</ele><time>2026-05-02T12:28:40.003Z</time></trkpt><trkpt lat="42.0679307" lon="13.6312249"><ele>869.0</ele><time>2026-05-02T12:28:41.003Z</time></trkpt><trkpt lat="42.0678363" lon="13.631275"><ele>869.0</ele><time>2026-05-02T12:28:42.003Z</time></trkpt><trkpt lat="42.0677393" lon="13.6313169"><ele>869.0000000000001</ele><time>2026-05-02T12:28:43.003Z</time></trkpt><trkpt lat="42.0676412" lon="13.631354"><ele>869.0000000000001</ele><time>2026-05-02T12:28:44.003Z</time></trkpt><trkpt lat="42.0675394" lon="13.6313852"><ele>869.0</ele><time>2026-05-02T12:28:45.003Z</time></trkpt><trkpt lat="42.0674389" lon="13.6314164"><ele>869.0</ele><time>2026-05-02T12:28:46.003Z</time></trkpt><trkpt lat="42.0673402" lon="13.6314519"><ele>868.0</ele><time>2026-05-02T12:28:47.002Z</time></trkpt><trkpt lat="42.0672397" lon="13.6314847"><ele>867.0000000000001</ele><time>2026-05-02T12:28:48.003Z</time></trkpt><trkpt lat="42.0671384" lon="13.6315178"><ele>866.0000000000001</ele><time>2026-05-02T12:28:49.003Z</time></trkpt><trkpt lat="42.0670368" lon="13.6315504"><ele>865.0</ele><time>2026-05-02T12:28:50.003Z</time></trkpt><trkpt lat="42.0669344" lon="13.6315746"><ele>864.0</ele><time>2026-05-02T12:28:51.003Z</time></trkpt><trkpt lat="42.0668321" lon="13.6316"><ele>864.0</ele><time>2026-05-02T12:28:52.003Z</time></trkpt><trkpt lat="42.0667302" lon="13.6316369"><ele>864.0000000000001</ele><time>2026-05-02T12:28:53.002Z</time></trkpt><trkpt lat="42.0666275" lon="13.6316666"><ele>864.0000000000001</ele><time>2026-05-02T12:28:54.003Z</time></trkpt><trkpt lat="42.0665247" lon="13.6316923"><ele>864.0</ele><time>2026-05-02T12:28:55.003Z</time></trkpt><trkpt lat="42.0664211" lon="13.6317223"><ele>864.0</ele><time>2026-05-02T12:28:56.002Z</time></trkpt><trkpt lat="42.0663198" lon="13.6317444"><ele>863.0</ele><time>2026-05-02T12:28:57.003Z</time></trkpt><trkpt lat="42.0662215" lon="13.6317368"><ele>862.0000000000001</ele><time>2026-05-02T12:28:58.003Z</time></trkpt><trkpt lat="42.0661295" lon="13.6316905"><ele>861.0000000000001</ele><time>2026-05-02T12:28:59.003Z</time></trkpt><trkpt lat="42.0660461" lon="13.6316135"><ele>860.0</ele><time>2026-05-02T12:29:00.003Z</time></trkpt><trkpt lat="42.0659722" lon="13.631502"><ele>859.0</ele><time>2026-05-02T12:29:01.003Z</time></trkpt><trkpt lat="42.0658988" lon="13.6313715"><ele>859.0</ele><time>2026-05-02T12:29:02.003Z</time></trkpt><trkpt lat="42.0658237" lon="13.6312328"><ele>859.0</ele><time>2026-05-02T12:29:03.003Z</time></trkpt><trkpt lat="42.0657469" lon="13.6310844"><ele>859.0</ele><time>2026-05-02T12:29:04.003Z</time></trkpt><trkpt lat="42.0656721" lon="13.6309336"><ele>859.0</ele><time>2026-05-02T12:29:05.003Z</time></trkpt><trkpt lat="42.0655984" lon="13.6307862"><ele>856.5</ele><time>2026-05-02T12:29:06.003Z</time></trkpt><trkpt lat="42.0655234" lon="13.6306374"><ele>854.0</ele><time>2026-05-02T12:29:07.002Z</time></trkpt><trkpt lat="42.065446" lon="13.6304914"><ele>851.5</ele><time>2026-05-02T12:29:08.003Z</time></trkpt><trkpt lat="42.0653686" lon="13.6303456"><ele>849.0</ele><time>2026-05-02T12:29:09.003Z</time></trkpt><trkpt lat="42.0652902" lon="13.6301998"><ele>848.75</ele><time>2026-05-02T12:29:10.002Z</time></trkpt><trkpt lat="42.0652173" lon="13.6300563"><ele>848.5</ele><time>2026-05-02T12:29:11.003Z</time></trkpt><trkpt lat="42.0651421" lon="13.6299085"><ele>848.25</ele><time>2026-05-02T12:29:12.003Z</time></trkpt><trkpt lat="42.0650681" lon="13.6297633"><ele>848.0</ele><time>2026-05-02T12:29:13.003Z</time></trkpt><trkpt lat="42.0649952" lon="13.6296154"><ele>847.25</ele><time>2026-05-02T12:29:14.003Z</time></trkpt><trkpt lat="42.0649212" lon="13.629475"><ele>846.5</ele><time>2026-05-02T12:29:15.003Z</time></trkpt><trkpt lat="42.0648493" lon="13.6293335"><ele>845.75</ele><time>2026-05-02T12:29:16.003Z</time></trkpt><trkpt lat="42.0647775" lon="13.6291966"><ele>845.0</ele><time>2026-05-02T12:29:17.003Z</time></trkpt><trkpt lat="42.0647092" lon="13.6290605"><ele>845.0</ele><time>2026-05-02T12:29:18.003Z</time></trkpt><trkpt lat="42.0646421" lon="13.6289258"><ele>845.0</ele><time>2026-05-02T12:29:19.003Z</time></trkpt><trkpt lat="42.0645728" lon="13.6287934"><ele>845.0</ele><time>2026-05-02T12:29:20.002Z</time></trkpt><trkpt lat="42.064498" lon="13.6286747"><ele>845.0</ele><time>2026-05-02T12:29:21.003Z</time></trkpt><trkpt lat="42.0644121" lon="13.6285724"><ele>845.25</ele><time>2026-05-02T12:29:22.003Z</time></trkpt><trkpt lat="42.064313" lon="13.6284933"><ele>845.5</ele><time>2026-05-02T12:29:23.003Z</time></trkpt><trkpt lat="42.0642098" lon="13.6284336"><ele>845.75</ele><time>2026-05-02T12:29:24.003Z</time></trkpt><trkpt lat="42.0641039" lon="13.6283812"><ele>846.0</ele><time>2026-05-02T12:29:25.003Z</time></trkpt><trkpt lat="42.0639964" lon="13.628332"><ele>845.5999999999999</ele><time>2026-05-02T12:29:26.003Z</time></trkpt><trkpt lat="42.0638929" lon="13.6282787"><ele>845.2</ele><time>2026-05-02T12:29:27.003Z</time></trkpt><trkpt lat="42.0637881" lon="13.6282251"><ele>844.8</ele><time>2026-05-02T12:29:28.003Z</time></trkpt><trkpt lat="42.0636859" lon="13.6281696"><ele>844.4000000000001</ele><time>2026-05-02T12:29:29.003Z</time></trkpt><trkpt lat="42.0635862" lon="13.628124"><ele>844.0</ele><time>2026-05-02T12:29:30.003Z</time></trkpt><trkpt lat="42.0634862" lon="13.6280706"><ele>844.0</ele><time>2026-05-02T12:29:31.003Z</time></trkpt><trkpt lat="42.0633883" lon="13.6280225"><ele>844.0</ele><time>2026-05-02T12:29:32.003Z</time></trkpt><trkpt lat="42.0632881" lon="13.6279738"><ele>844.0</ele><time>2026-05-02T12:29:33.003Z</time></trkpt><trkpt lat="42.0631936" lon="13.6279261"><ele>844.0</ele><time>2026-05-02T12:29:34.003Z</time></trkpt><trkpt lat="42.0630993" lon="13.6278801"><ele>844.0</ele><time>2026-05-02T12:29:35.003Z</time></trkpt><trkpt lat="42.0630039" lon="13.6278322"><ele>843.8000000000001</ele><time>2026-05-02T12:29:36.003Z</time></trkpt><trkpt lat="42.0629139" lon="13.6277884"><ele>843.6</ele><time>2026-05-02T12:29:37.003Z</time></trkpt><trkpt lat="42.0628233" lon="13.6277395"><ele>843.4</ele><time>2026-05-02T12:29:38.003Z</time></trkpt><trkpt lat="42.0627362" lon="13.6276972"><ele>843.2</ele><time>2026-05-02T12:29:39.002Z</time></trkpt><trkpt lat="42.0626458" lon="13.6276501"><ele>843.0</ele><time>2026-05-02T12:29:40.003Z</time></trkpt><trkpt lat="42.0625578" lon="13.6276052"><ele>843.0</ele><time>2026-05-02T12:29:41.003Z</time></trkpt><trkpt lat="42.0624673" lon="13.6275684"><ele>843.0</ele><time>2026-05-02T12:29:42.003Z</time></trkpt><trkpt lat="42.0623775" lon="13.6275235"><ele>843.0</ele><time>2026-05-02T12:29:43.003Z</time></trkpt><trkpt lat="42.062289" lon="13.6274831"><ele>843.0</ele><time>2026-05-02T12:29:44.003Z</time></trkpt><trkpt lat="42.0622012" lon="13.6274352"><ele>843.0</ele><time>2026-05-02T12:29:45.003Z</time></trkpt><trkpt lat="42.0621146" lon="13.6273895"><ele>842.5999999999999</ele><time>2026-05-02T12:29:46.003Z</time></trkpt><trkpt lat="42.0620306" lon="13.6273461"><ele>842.1999999999999</ele><time>2026-05-02T12:29:47.003Z</time></trkpt><trkpt lat="42.0619488" lon="13.627298"><ele>841.8</ele><time>2026-05-02T12:29:48.003Z</time></trkpt><trkpt lat="42.0618633" lon="13.6272565"><ele>841.4</ele><time>2026-05-02T12:29:49.002Z</time></trkpt><trkpt lat="42.0617738" lon="13.627217"><ele>841.0</ele><time>2026-05-02T12:29:50.003Z</time></trkpt><trkpt lat="42.0616885" lon="13.6271814"><ele>840.6666666666666</ele><time>2026-05-02T12:29:51.003Z</time></trkpt><trkpt lat="42.0616097" lon="13.627139"><ele>840.3333333333333</ele><time>2026-05-02T12:29:52.003Z</time></trkpt><trkpt lat="42.0615377" lon="13.6271043"><ele>840.0</ele><time>2026-05-02T12:29:53.002Z</time></trkpt><trkpt lat="42.061473" lon="13.627071"><ele>839.6666666666667</ele><time>2026-05-02T12:29:54.003Z</time></trkpt><trkpt lat="42.0613662" lon="13.6270209"><ele>839.3333333333334</ele><time>2026-05-02T12:29:56.003Z</time></trkpt><trkpt lat="42.0612766" lon="13.6269748"><ele>839.0</ele><time>2026-05-02T12:29:58.003Z</time></trkpt><trkpt lat="42.0612028" lon="13.6269373"><ele>838.8333333333334</ele><time>2026-05-02T12:30:00.003Z</time></trkpt><trkpt lat="42.0611262" lon="13.6269032"><ele>838.6666666666667</ele><time>2026-05-02T12:30:02.002Z</time></trkpt><trkpt lat="42.0610494" lon="13.6268716"><ele>838.5</ele><time>2026-05-02T12:30:04.002Z</time></trkpt><trkpt lat="42.0609794" lon="13.6268407"><ele>838.3333333333333</ele><time>2026-05-02T12:30:06.003Z</time></trkpt><trkpt lat="42.0609159" lon="13.6268088"><ele>838.1666666666666</ele><time>2026-05-02T12:30:08.003Z</time></trkpt><trkpt lat="42.0608528" lon="13.6267797"><ele>838.0</ele><time>2026-05-02T12:30:10.003Z</time></trkpt><trkpt lat="42.0607687" lon="13.6267458"><ele>837.2</ele><time>2026-05-02T12:30:12.003Z</time></trkpt><trkpt lat="42.060677" lon="13.6266935"><ele>836.4</ele><time>2026-05-02T12:30:14.003Z</time></trkpt><trkpt lat="42.0605687" lon="13.6266356"><ele>835.6</ele><time>2026-05-02T12:30:16.002Z</time></trkpt><trkpt lat="42.0604621" lon="13.626588"><ele>834.8000000000001</ele><time>2026-05-02T12:30:18.002Z</time></trkpt><trkpt lat="42.060354" lon="13.6265372"><ele>834.0</ele><time>2026-05-02T12:30:20.003Z</time></trkpt><trkpt lat="42.0602506" lon="13.6264789"><ele>834.0</ele><time>2026-05-02T12:30:22.003Z</time></trkpt><trkpt lat="42.060142" lon="13.6264311"><ele>834.0</ele><time>2026-05-02T12:30:24.003Z</time></trkpt><trkpt lat="42.0600323" lon="13.6263763"><ele>834.0</ele><time>2026-05-02T12:30:26.002Z</time></trkpt><trkpt lat="42.0599693" lon="13.6263445"><ele>834.0</ele><time>2026-05-02T12:30:27.002Z</time></trkpt><trkpt lat="42.0598948" lon="13.6263077"><ele>834.0</ele><time>2026-05-02T12:30:28.003Z</time></trkpt><trkpt lat="42.0598088" lon="13.6262646"><ele>833.75</ele><time>2026-05-02T12:30:29.003Z</time></trkpt><trkpt lat="42.0597138" lon="13.6262173"><ele>833.5</ele><time>2026-05-02T12:30:30.003Z</time></trkpt><trkpt lat="42.0596122" lon="13.6261634"><ele>833.25</ele><time>2026-05-02T12:30:31.003Z</time></trkpt><trkpt lat="42.0594985" lon="13.6261119"><ele>833.0</ele><time>2026-05-02T12:30:32.003Z</time></trkpt><trkpt lat="42.0593771" lon="13.626051"><ele>833.0</ele><time>2026-05-02T12:30:33.003Z</time></trkpt><trkpt lat="42.0592506" lon="13.6259901"><ele>833.0</ele><time>2026-05-02T12:30:34.003Z</time></trkpt><trkpt lat="42.0591187" lon="13.6259237"><ele>833.0</ele><time>2026-05-02T12:30:35.003Z</time></trkpt><trkpt lat="42.0589836" lon="13.6258553"><ele>833.0</ele><time>2026-05-02T12:30:36.003Z</time></trkpt><trkpt lat="42.0588508" lon="13.6257909"><ele>832.25</ele><time>2026-05-02T12:30:37.003Z</time></trkpt><trkpt lat="42.058718" lon="13.6257282"><ele>831.5</ele><time>2026-05-02T12:30:38.003Z</time></trkpt><trkpt lat="42.0585868" lon="13.6256613"><ele>830.75</ele><time>2026-05-02T12:30:39.003Z</time></trkpt><trkpt lat="42.0584595" lon="13.6255842"><ele>830.0</ele><time>2026-05-02T12:30:40.002Z</time></trkpt><trkpt lat="42.058334" lon="13.6254955"><ele>828.5</ele><time>2026-05-02T12:30:41.003Z</time></trkpt><trkpt lat="42.0582163" lon="13.6253823"><ele>827.0</ele><time>2026-05-02T12:30:42.003Z</time></trkpt><trkpt lat="42.0581102" lon="13.6252474"><ele>825.5</ele><time>2026-05-02T12:30:43.003Z</time></trkpt><trkpt lat="42.0580043" lon="13.6251045"><ele>824.0</ele><time>2026-05-02T12:30:44.002Z</time></trkpt><trkpt lat="42.0579009" lon="13.624965"><ele>824.0</ele><time>2026-05-02T12:30:45.003Z</time></trkpt><trkpt lat="42.0577866" lon="13.6248422"><ele>824.0</ele><time>2026-05-02T12:30:46.002Z</time></trkpt><trkpt lat="42.0576508" lon="13.6247585"><ele>824.0</ele><time>2026-05-02T12:30:47.003Z</time></trkpt><trkpt lat="42.0575017" lon="13.6246853"><ele>823.0</ele><time>2026-05-02T12:30:48.003Z</time></trkpt><trkpt lat="42.0573481" lon="13.624614"><ele>822.0</ele><time>2026-05-02T12:30:49.003Z</time></trkpt><trkpt lat="42.0571846" lon="13.6245412"><ele>821.0</ele><time>2026-05-02T12:30:50.002Z</time></trkpt><trkpt lat="42.05702" lon="13.624472"><ele>821.0</ele><time>2026-05-02T12:30:51.002Z</time></trkpt><trkpt lat="42.0568558" lon="13.6244048"><ele>821.0</ele><time>2026-05-02T12:30:52.003Z</time></trkpt><trkpt lat="42.0566943" lon="13.6243375"><ele>821.0</ele><time>2026-05-02T12:30:53.003Z</time></trkpt><trkpt lat="42.0565314" lon="13.6242725"><ele>818.3333333333334</ele><time>2026-05-02T12:30:54.003Z</time></trkpt><trkpt lat="42.0563744" lon="13.6242128"><ele>815.6666666666667</ele><time>2026-05-02T12:30:55.002Z</time></trkpt><trkpt lat="42.0562214" lon="13.6241613"><ele>813.0</ele><time>2026-05-02T12:30:56.003Z</time></trkpt><trkpt lat="42.0560707" lon="13.6241201"><ele>813.0</ele><time>2026-05-02T12:30:57.003Z</time></trkpt><trkpt lat="42.0559244" lon="13.6240914"><ele>813.0</ele><time>2026-05-02T12:30:58.003Z</time></trkpt><trkpt lat="42.0557797" lon="13.6240721"><ele>813.0</ele><time>2026-05-02T12:30:59.003Z</time></trkpt><trkpt lat="42.0556321" lon="13.6240655"><ele>813.0</ele><time>2026-05-02T12:31:00.003Z</time></trkpt><trkpt lat="42.0554814" lon="13.6240789"><ele>812.3333333333333</ele><time>2026-05-02T12:31:01.003Z</time></trkpt><trkpt lat="42.0553299" lon="13.6241109"><ele>811.6666666666666</ele><time>2026-05-02T12:31:02.003Z</time></trkpt><trkpt lat="42.0551775" lon="13.624156"><ele>811.0</ele><time>2026-05-02T12:31:03.003Z</time></trkpt><trkpt lat="42.0550264" lon="13.6242101"><ele>810.5</ele><time>2026-05-02T12:31:04.003Z</time></trkpt><trkpt lat="42.0548826" lon="13.6242722"><ele>810.0</ele><time>2026-05-02T12:31:05.003Z</time></trkpt><trkpt lat="42.054743" lon="13.6243421"><ele>809.5</ele><time>2026-05-02T12:31:06.003Z</time></trkpt><trkpt lat="42.0546062" lon="13.6244102"><ele>809.0</ele><time>2026-05-02T12:31:07.003Z</time></trkpt><trkpt lat="42.0544752" lon="13.6244728"><ele>808.4000000000001</ele><time>2026-05-02T12:31:08.003Z</time></trkpt><trkpt lat="42.0543575" lon="13.6245219"><ele>807.8</ele><time>2026-05-02T12:31:09.002Z</time></trkpt><trkpt lat="42.054248" lon="13.6245456"><ele>807.2</ele><time>2026-05-02T12:31:10.003Z</time></trkpt><trkpt lat="42.0541474" lon="13.6245239"><ele>806.5999999999999</ele><time>2026-05-02T12:31:11.002Z</time></trkpt><trkpt lat="42.0540512" lon="13.6244602"><ele>806.0</ele><time>2026-05-02T12:31:12.003Z</time></trkpt><trkpt lat="42.0539644" lon="13.6243624"><ele>804.5999999999999</ele><time>2026-05-02T12:31:13.003Z</time></trkpt><trkpt lat="42.0538843" lon="13.6242491"><ele>803.2</ele><time>2026-05-02T12:31:14.003Z</time></trkpt><trkpt lat="42.0538278" lon="13.6241289"><ele>801.8</ele><time>2026-05-02T12:31:15.003Z</time></trkpt><trkpt lat="42.0538047" lon="13.6239917"><ele>800.4000000000001</ele><time>2026-05-02T12:31:16.003Z</time></trkpt><trkpt lat="42.0538168" lon="13.6238392"><ele>799.0</ele><time>2026-05-02T12:31:17.003Z</time></trkpt><trkpt lat="42.0538679" lon="13.623672"><ele>796.6666666666666</ele><time>2026-05-02T12:31:18.003Z</time></trkpt><trkpt lat="42.0539469" lon="13.6234957"><ele>794.3333333333333</ele><time>2026-05-02T12:31:19.003Z</time></trkpt><trkpt lat="42.0540455" lon="13.6233109"><ele>792.0</ele><time>2026-05-02T12:31:20.003Z</time></trkpt><trkpt lat="42.0541534" lon="13.6231264"><ele>794.3333333333333</ele><time>2026-05-02T12:31:21.003Z</time></trkpt><trkpt lat="42.0542545" lon="13.6229503"><ele>796.6666666666666</ele><time>2026-05-02T12:31:22.003Z</time></trkpt><trkpt lat="42.0543442" lon="13.6227667"><ele>799.0</ele><time>2026-05-02T12:31:23.003Z</time></trkpt><trkpt lat="42.0544184" lon="13.6225668"><ele>799.0</ele><time>2026-05-02T12:31:24.003Z</time></trkpt><trkpt lat="42.0544734" lon="13.6223558"><ele>799.0</ele><time>2026-05-02T12:31:25.003Z</time></trkpt><trkpt lat="42.0545135" lon="13.6221342"><ele>799.0</ele><time>2026-05-02T12:31:26.003Z</time></trkpt><trkpt lat="42.0545486" lon="13.6219031"><ele>797.3333333333333</ele><time>2026-05-02T12:31:27.003Z</time></trkpt><trkpt lat="42.0545738" lon="13.6216646"><ele>795.6666666666667</ele><time>2026-05-02T12:31:28.002Z</time></trkpt><trkpt lat="42.0545905" lon="13.6214195"><ele>794.0</ele><time>2026-05-02T12:31:29.003Z</time></trkpt><trkpt lat="42.0546024" lon="13.6211703"><ele>793.0</ele><time>2026-05-02T12:31:30.003Z</time></trkpt><trkpt lat="42.0546109" lon="13.6209224"><ele>792.0</ele><time>2026-05-02T12:31:31.003Z</time></trkpt><trkpt lat="42.054619" lon="13.6206814"><ele>791.0</ele><time>2026-05-02T12:31:32.003Z</time></trkpt><trkpt lat="42.0546258" lon="13.6204449"><ele>789.3333333333334</ele><time>2026-05-02T12:31:33.003Z</time></trkpt><trkpt lat="42.0546341" lon="13.6202189"><ele>787.6666666666667</ele><time>2026-05-02T12:31:34.003Z</time></trkpt><trkpt lat="42.0546436" lon="13.62"><ele>786.0</ele><time>2026-05-02T12:31:35.003Z</time></trkpt><trkpt lat="42.0546584" lon="13.6198016"><ele>786.0</ele><time>2026-05-02T12:31:36.003Z</time></trkpt><trkpt lat="42.0546956" lon="13.6196277"><ele>786.0</ele><time>2026-05-02T12:31:37.003Z</time></trkpt><trkpt lat="42.0547685" lon="13.6194731"><ele>786.0</ele><time>2026-05-02T12:31:38.003Z</time></trkpt><trkpt lat="42.0548677" lon="13.6193389"><ele>786.0</ele><time>2026-05-02T12:31:39.003Z</time></trkpt><trkpt lat="42.054981" lon="13.6192235"><ele>787.5</ele><time>2026-05-02T12:31:40.003Z</time></trkpt><trkpt lat="42.0550935" lon="13.6191248"><ele>789.0</ele><time>2026-05-02T12:31:41.003Z</time></trkpt><trkpt lat="42.0551851" lon="13.6190236"><ele>790.5</ele><time>2026-05-02T12:31:42.003Z</time></trkpt><trkpt lat="42.0552471" lon="13.6188892"><ele>792.0</ele><time>2026-05-02T12:31:43.003Z</time></trkpt><trkpt lat="42.0552759" lon="13.6187388"><ele>790.75</ele><time>2026-05-02T12:31:44.003Z</time></trkpt><trkpt lat="42.055272" lon="13.6185774"><ele>789.5</ele><time>2026-05-02T12:31:45.003Z</time></trkpt><trkpt lat="42.0552424" lon="13.6184018"><ele>788.25</ele><time>2026-05-02T12:31:46.003Z</time></trkpt><trkpt lat="42.0551986" lon="13.6182135"><ele>787.0</ele><time>2026-05-02T12:31:47.003Z</time></trkpt><trkpt lat="42.055153" lon="13.6180124"><ele>786.3333333333333</ele><time>2026-05-02T12:31:48.003Z</time></trkpt><trkpt lat="42.0551052" lon="13.6177952"><ele>785.6666666666667</ele><time>2026-05-02T12:31:49.003Z</time></trkpt><trkpt lat="42.0550569" lon="13.6175683"><ele>785.0</ele><time>2026-05-02T12:31:50.003Z</time></trkpt><trkpt lat="42.055009" lon="13.6173485"><ele>785.0</ele><time>2026-05-02T12:31:51.002Z</time></trkpt><trkpt lat="42.0549583" lon="13.6171319"><ele>785.0</ele><time>2026-05-02T12:31:52.003Z</time></trkpt><trkpt lat="42.0549076" lon="13.6169177"><ele>785.0</ele><time>2026-05-02T12:31:53.003Z</time></trkpt><trkpt lat="42.0548637" lon="13.6167065"><ele>782.75</ele><time>2026-05-02T12:31:54.003Z</time></trkpt><trkpt lat="42.0548218" lon="13.6165009"><ele>780.5</ele><time>2026-05-02T12:31:55.003Z</time></trkpt><trkpt lat="42.0547816" lon="13.6163095"><ele>778.25</ele><time>2026-05-02T12:31:56.003Z</time></trkpt><trkpt lat="42.0547452" lon="13.6161369"><ele>776.0</ele><time>2026-05-02T12:31:57.003Z</time></trkpt><trkpt lat="42.0547234" lon="13.6159681"><ele>777.0</ele><time>2026-05-02T12:31:58.003Z</time></trkpt><trkpt lat="42.0547361" lon="13.6158078"><ele>778.0</ele><time>2026-05-02T12:31:59.002Z</time></trkpt><trkpt lat="42.0547846" lon="13.6156637"><ele>779.0</ele><time>2026-05-02T12:32:00.003Z</time></trkpt><trkpt lat="42.0548676" lon="13.615534"><ele>780.0</ele><time>2026-05-02T12:32:01.003Z</time></trkpt><trkpt lat="42.0549783" lon="13.6154228"><ele>777.6666666666667</ele><time>2026-05-02T12:32:02.003Z</time></trkpt><trkpt lat="42.0550944" lon="13.615307"><ele>775.3333333333334</ele><time>2026-05-02T12:32:03.003Z</time></trkpt><trkpt lat="42.055194" lon="13.6151569"><ele>773.0</ele><time>2026-05-02T12:32:04.003Z</time></trkpt><trkpt lat="42.0552819" lon="13.6149832"><ele>773.0</ele><time>2026-05-02T12:32:05.003Z</time></trkpt><trkpt lat="42.0553534" lon="13.6147903"><ele>773.0</ele><time>2026-05-02T12:32:06.003Z</time></trkpt><trkpt lat="42.055408" lon="13.614578"><ele>773.0</ele><time>2026-05-02T12:32:07.003Z</time></trkpt><trkpt lat="42.0554416" lon="13.6143487"><ele>771.3333333333334</ele><time>2026-05-02T12:32:08.003Z</time></trkpt><trkpt lat="42.0554468" lon="13.6141121"><ele>769.6666666666667</ele><time>2026-05-02T12:32:09.003Z</time></trkpt><trkpt lat="42.0554243" lon="13.6138828"><ele>768.0</ele><time>2026-05-02T12:32:10.003Z</time></trkpt><trkpt lat="42.0553813" lon="13.6136636"><ele>768.0</ele><time>2026-05-02T12:32:11.003Z</time></trkpt><trkpt lat="42.0553236" lon="13.6134565"><ele>768.0</ele><time>2026-05-02T12:32:12.003Z</time></trkpt><trkpt lat="42.0552741" lon="13.613278"><ele>768.0</ele><time>2026-05-02T12:32:13.002Z</time></trkpt><trkpt lat="42.0552416" lon="13.6131295"><ele>768.0</ele><time>2026-05-02T12:32:14.003Z</time></trkpt><trkpt lat="42.0552368" lon="13.6129989"><ele>768.0</ele><time>2026-05-02T12:32:15.003Z</time></trkpt><trkpt lat="42.0552714" lon="13.6128806"><ele>768.0</ele><time>2026-05-02T12:32:16.003Z</time></trkpt><trkpt lat="42.0553327" lon="13.612788"><ele>768.0</ele><time>2026-05-02T12:32:17.003Z</time></trkpt><trkpt lat="42.055417" lon="13.6127269"><ele>768.0</ele><time>2026-05-02T12:32:18.003Z</time></trkpt><trkpt lat="42.0555179" lon="13.6127022"><ele>768.0</ele><time>2026-05-02T12:32:19.002Z</time></trkpt><trkpt lat="42.0556332" lon="13.612704"><ele>767.25</ele><time>2026-05-02T12:32:20.002Z</time></trkpt><trkpt lat="42.0557545" lon="13.6127164"><ele>766.5</ele><time>2026-05-02T12:32:21.003Z</time></trkpt><trkpt lat="42.055886" lon="13.6127214"><ele>765.75</ele><time>2026-05-02T12:32:22.003Z</time></trkpt><trkpt lat="42.0560239" lon="13.6127155"><ele>765.0</ele><time>2026-05-02T12:32:23.003Z</time></trkpt><trkpt lat="42.0561686" lon="13.6126926"><ele>765.0</ele><time>2026-05-02T12:32:24.003Z</time></trkpt><trkpt lat="42.0563191" lon="13.6126591"><ele>765.0</ele><time>2026-05-02T12:32:25.003Z</time></trkpt><trkpt lat="42.0564727" lon="13.6126261"><ele>765.0</ele><time>2026-05-02T12:32:26.003Z</time></trkpt><trkpt lat="42.0566246" lon="13.6125903"><ele>765.0</ele><time>2026-05-02T12:32:27.003Z</time></trkpt><trkpt lat="42.0567772" lon="13.6125539"><ele>765.0</ele><time>2026-05-02T12:32:28.002Z</time></trkpt><trkpt lat="42.0569324" lon="13.6125173"><ele>765.0</ele><time>2026-05-02T12:32:29.003Z</time></trkpt><trkpt lat="42.0570972" lon="13.6124814"><ele>765.0</ele><time>2026-05-02T12:32:30.003Z</time></trkpt><trkpt lat="42.0572655" lon="13.6124479"><ele>765.0</ele><time>2026-05-02T12:32:31.003Z</time></trkpt><trkpt lat="42.0574394" lon="13.6124361"><ele>765.0</ele><time>2026-05-02T12:32:32.003Z</time></trkpt><trkpt lat="42.0576147" lon="13.6124276"><ele>765.0</ele><time>2026-05-02T12:32:33.003Z</time></trkpt><trkpt lat="42.0577895" lon="13.6124337"><ele>765.0</ele><time>2026-05-02T12:32:34.003Z</time></trkpt><trkpt lat="42.0579584" lon="13.6124581"><ele>765.0</ele><time>2026-05-02T12:32:35.002Z</time></trkpt><trkpt lat="42.0581261" lon="13.6125093"><ele>765.0</ele><time>2026-05-02T12:32:36.003Z</time></trkpt><trkpt lat="42.0582751" lon="13.6125873"><ele>765.0</ele><time>2026-05-02T12:32:37.003Z</time></trkpt><trkpt lat="42.0584107" lon="13.6126966"><ele>765.0</ele><time>2026-05-02T12:32:38.002Z</time></trkpt><trkpt lat="42.0585403" lon="13.6128326"><ele>765.0</ele><time>2026-05-02T12:32:39.003Z</time></trkpt><trkpt lat="42.0586717" lon="13.6129684"><ele>765.0</ele><time>2026-05-02T12:32:40.003Z</time></trkpt><trkpt lat="42.0587995" lon="13.6131024"><ele>765.0</ele><time>2026-05-02T12:32:41.002Z</time></trkpt><trkpt lat="42.0589193" lon="13.6132229"><ele>765.0</ele><time>2026-05-02T12:32:42.003Z</time></trkpt><trkpt lat="42.059028" lon="13.6133212"><ele>765.0</ele><time>2026-05-02T12:32:43.003Z</time></trkpt><trkpt lat="42.0591337" lon="13.6133942"><ele>765.0</ele><time>2026-05-02T12:32:44.003Z</time></trkpt><trkpt lat="42.0592379" lon="13.6134331"><ele>765.0</ele><time>2026-05-02T12:32:45.003Z</time></trkpt><trkpt lat="42.0593388" lon="13.6134287"><ele>764.0</ele><time>2026-05-02T12:32:46.003Z</time></trkpt><trkpt lat="42.0594362" lon="13.613371"><ele>763.0</ele><time>2026-05-02T12:32:47.003Z</time></trkpt><trkpt lat="42.0595128" lon="13.6132738"><ele>762.0</ele><time>2026-05-02T12:32:48.003Z</time></trkpt><trkpt lat="42.0595653" lon="13.6131425"><ele>761.0</ele><time>2026-05-02T12:32:49.003Z</time></trkpt><trkpt lat="42.0595662" lon="13.6129851"><ele>760.0</ele><time>2026-05-02T12:32:50.003Z</time></trkpt><trkpt lat="42.0595422" lon="13.6128163"><ele>758.6666666666667</ele><time>2026-05-02T12:32:51.002Z</time></trkpt><trkpt lat="42.0594977" lon="13.6126281"><ele>757.3333333333334</ele><time>2026-05-02T12:32:52.003Z</time></trkpt><trkpt lat="42.0594423" lon="13.612422"><ele>756.0</ele><time>2026-05-02T12:32:53.003Z</time></trkpt><trkpt lat="42.0593779" lon="13.6122038"><ele>755.6666666666666</ele><time>2026-05-02T12:32:54.002Z</time></trkpt><trkpt lat="42.0593027" lon="13.6119766"><ele>755.3333333333333</ele><time>2026-05-02T12:32:55.003Z</time></trkpt><trkpt lat="42.0592077" lon="13.6117502"><ele>755.0</ele><time>2026-05-02T12:32:56.003Z</time></trkpt><trkpt lat="42.0590857" lon="13.611528"><ele>753.6666666666666</ele><time>2026-05-02T12:32:57.003Z</time></trkpt><trkpt lat="42.0589481" lon="13.611313"><ele>752.3333333333334</ele><time>2026-05-02T12:32:58.003Z</time></trkpt><trkpt lat="42.0588034" lon="13.6110892"><ele>751.0</ele><time>2026-05-02T12:32:59.003Z</time></trkpt><trkpt lat="42.0586617" lon="13.6108675"><ele>751.0</ele><time>2026-05-02T12:33:00.002Z</time></trkpt><trkpt lat="42.0585259" lon="13.6106605"><ele>751.0</ele><time>2026-05-02T12:33:01.003Z</time></trkpt><trkpt lat="42.0583936" lon="13.6104689"><ele>751.0</ele><time>2026-05-02T12:33:02.003Z</time></trkpt><trkpt lat="42.0582558" lon="13.6102953"><ele>750.0</ele><time>2026-05-02T12:33:03.003Z</time></trkpt><trkpt lat="42.0581178" lon="13.6101353"><ele>749.0</ele><time>2026-05-02T12:33:04.003Z</time></trkpt><trkpt lat="42.0579958" lon="13.6099835"><ele>748.0</ele><time>2026-05-02T12:33:05.003Z</time></trkpt><trkpt lat="42.0578946" lon="13.6098636"><ele>748.0</ele><time>2026-05-02T12:33:06.003Z</time></trkpt><trkpt lat="42.0578073" lon="13.6097613"><ele>748.0</ele><time>2026-05-02T12:33:07.003Z</time></trkpt><trkpt lat="42.0577388" lon="13.6096868"><ele>748.0</ele><time>2026-05-02T12:33:08.003Z</time></trkpt><trkpt lat="42.0576817" lon="13.6096149"><ele>748.0</ele><time>2026-05-02T12:33:10.003Z</time></trkpt><trkpt lat="42.0576227" lon="13.6095722"><ele>748.0</ele><time>2026-05-02T12:33:45.003Z</time></trkpt><trkpt lat="42.0575256" lon="13.6094568"><ele>749.0</ele><time>2026-05-02T12:33:47.003Z</time></trkpt><trkpt lat="42.0574603" lon="13.6093803"><ele>750.0</ele><time>2026-05-02T12:33:48.003Z</time></trkpt><trkpt lat="42.0573839" lon="13.6092876"><ele>751.0</ele><time>2026-05-02T12:33:49.003Z</time></trkpt><trkpt lat="42.057296" lon="13.6091802"><ele>752.0</ele><time>2026-05-02T12:33:50.002Z</time></trkpt><trkpt lat="42.0571969" lon="13.60906"><ele>753.0</ele><time>2026-05-02T12:33:51.003Z</time></trkpt><trkpt lat="42.0570885" lon="13.6089303"><ele>752.0</ele><time>2026-05-02T12:33:52.003Z</time></trkpt><trkpt lat="42.056971" lon="13.6087901"><ele>751.0</ele><time>2026-05-02T12:33:53.003Z</time></trkpt><trkpt lat="42.0568428" lon="13.6086422"><ele>750.0</ele><time>2026-05-02T12:33:54.003Z</time></trkpt><trkpt lat="42.0567068" lon="13.6084796"><ele>747.6666666666666</ele><time>2026-05-02T12:33:55.003Z</time></trkpt><trkpt lat="42.0565674" lon="13.6083068"><ele>745.3333333333333</ele><time>2026-05-02T12:33:56.003Z</time></trkpt><trkpt lat="42.0564172" lon="13.6081306"><ele>743.0</ele><time>2026-05-02T12:33:57.003Z</time></trkpt><trkpt lat="42.056271" lon="13.607957"><ele>744.3333333333333</ele><time>2026-05-02T12:33:58.002Z</time></trkpt><trkpt lat="42.0561279" lon="13.6077887"><ele>745.6666666666666</ele><time>2026-05-02T12:33:59.003Z</time></trkpt><trkpt lat="42.0559861" lon="13.6076318"><ele>747.0</ele><time>2026-05-02T12:34:00.003Z</time></trkpt><trkpt lat="42.055847" lon="13.6074803"><ele>745.0</ele><time>2026-05-02T12:34:01.003Z</time></trkpt><trkpt lat="42.0557091" lon="13.6073382"><ele>743.0</ele><time>2026-05-02T12:34:02.003Z</time></trkpt><trkpt lat="42.0555845" lon="13.6072155"><ele>741.0</ele><time>2026-05-02T12:34:03.003Z</time></trkpt><trkpt lat="42.0554731" lon="13.6071089"><ele>741.0</ele><time>2026-05-02T12:34:04.003Z</time></trkpt><trkpt lat="42.0553758" lon="13.6070101"><ele>741.0</ele><time>2026-05-02T12:34:05.003Z</time></trkpt><trkpt lat="42.0552985" lon="13.6069027"><ele>741.0</ele><time>2026-05-02T12:34:06.003Z</time></trkpt><trkpt lat="42.055244" lon="13.6067744"><ele>741.0</ele><time>2026-05-02T12:34:07.003Z</time></trkpt><trkpt lat="42.0552247" lon="13.606628"><ele>741.0</ele><time>2026-05-02T12:34:08.002Z</time></trkpt><trkpt lat="42.0552368" lon="13.60647"><ele>741.0</ele><time>2026-05-02T12:34:09.003Z</time></trkpt><trkpt lat="42.0552714" lon="13.606297"><ele>741.0</ele><time>2026-05-02T12:34:10.002Z</time></trkpt><trkpt lat="42.0553244" lon="13.6061214"><ele>741.0</ele><time>2026-05-02T12:34:11.003Z</time></trkpt><trkpt lat="42.0553952" lon="13.6059372"><ele>740.6666666666666</ele><time>2026-05-02T12:34:12.003Z</time></trkpt><trkpt lat="42.0554833" lon="13.605754"><ele>740.3333333333333</ele><time>2026-05-02T12:34:13.003Z</time></trkpt><trkpt lat="42.0555791" lon="13.6055716"><ele>740.0</ele><time>2026-05-02T12:34:14.002Z</time></trkpt><trkpt lat="42.0556741" lon="13.6053904"><ele>740.3333333333333</ele><time>2026-05-02T12:34:15.003Z</time></trkpt><trkpt lat="42.0557713" lon="13.6052044"><ele>740.6666666666666</ele><time>2026-05-02T12:34:16.003Z</time></trkpt><trkpt lat="42.0558669" lon="13.6050207"><ele>741.0</ele><time>2026-05-02T12:34:17.003Z</time></trkpt><trkpt lat="42.0559657" lon="13.6048446"><ele>741.0</ele><time>2026-05-02T12:34:18.002Z</time></trkpt><trkpt lat="42.0560656" lon="13.6046729"><ele>741.0</ele><time>2026-05-02T12:34:19.003Z</time></trkpt><trkpt lat="42.0561633" lon="13.6045036"><ele>741.0</ele><time>2026-05-02T12:34:20.002Z</time></trkpt><trkpt lat="42.0562545" lon="13.6043397"><ele>740.0</ele><time>2026-05-02T12:34:21.003Z</time></trkpt><trkpt lat="42.0563439" lon="13.6041808"><ele>739.0</ele><time>2026-05-02T12:34:22.003Z</time></trkpt><trkpt lat="42.0564293" lon="13.6040277"><ele>738.0</ele><time>2026-05-02T12:34:23.002Z</time></trkpt><trkpt lat="42.0565079" lon="13.6038802"><ele>737.0</ele><time>2026-05-02T12:34:24.003Z</time></trkpt><trkpt lat="42.0565868" lon="13.6037386"><ele>737.5</ele><time>2026-05-02T12:34:25.003Z</time></trkpt><trkpt lat="42.0566641" lon="13.6035974"><ele>738.0</ele><time>2026-05-02T12:34:26.003Z</time></trkpt><trkpt lat="42.0567402" lon="13.6034618"><ele>738.5</ele><time>2026-05-02T12:34:27.003Z</time></trkpt><trkpt lat="42.0568074" lon="13.6033378"><ele>739.0</ele><time>2026-05-02T12:34:28.003Z</time></trkpt><trkpt lat="42.0568635" lon="13.6032323"><ele>739.0</ele><time>2026-05-02T12:34:29.003Z</time></trkpt><trkpt lat="42.0569073" lon="13.6031457"><ele>739.0</ele><time>2026-05-02T12:34:30.002Z</time></trkpt><trkpt lat="42.0569426" lon="13.6030743"><ele>739.0</ele><time>2026-05-02T12:34:31.003Z</time></trkpt><trkpt lat="42.056994" lon="13.6029595"><ele>739.0</ele><time>2026-05-02T12:34:33.003Z</time></trkpt><trkpt lat="42.057026" lon="13.6028816"><ele>739.0</ele><time>2026-05-02T12:34:35.003Z</time></trkpt><trkpt lat="42.0570736" lon="13.6028172"><ele>739.0</ele><time>2026-05-02T12:35:02.002Z</time></trkpt><trkpt lat="42.057177" lon="13.6028064"><ele>739.0</ele><time>2026-05-02T12:35:04.003Z</time></trkpt><trkpt lat="42.057244" lon="13.6028306"><ele>739.0</ele><time>2026-05-02T12:35:05.003Z</time></trkpt><trkpt lat="42.0573173" lon="13.6028631"><ele>739.0</ele><time>2026-05-02T12:35:06.003Z</time></trkpt><trkpt lat="42.0573999" lon="13.6029044"><ele>739.0</ele><time>2026-05-02T12:35:07.003Z</time></trkpt><trkpt lat="42.0574933" lon="13.6029443"><ele>739.0</ele><time>2026-05-02T12:35:08.002Z</time></trkpt><trkpt lat="42.057594" lon="13.6029865"><ele>739.0</ele><time>2026-05-02T12:35:09.003Z</time></trkpt><trkpt lat="42.0577034" lon="13.6030288"><ele>739.75</ele><time>2026-05-02T12:35:10.003Z</time></trkpt><trkpt lat="42.0578198" lon="13.6030763"><ele>740.5</ele><time>2026-05-02T12:35:11.003Z</time></trkpt><trkpt lat="42.0579438" lon="13.6031276"><ele>741.25</ele><time>2026-05-02T12:35:12.003Z</time></trkpt><trkpt lat="42.0580745" lon="13.6031847"><ele>742.0</ele><time>2026-05-02T12:35:13.003Z</time></trkpt><trkpt lat="42.0582091" lon="13.6032432"><ele>743.6666666666667</ele><time>2026-05-02T12:35:14.003Z</time></trkpt><trkpt lat="42.0583502" lon="13.6033058"><ele>745.3333333333334</ele><time>2026-05-02T12:35:15.003Z</time></trkpt><trkpt lat="42.0584946" lon="13.6033692"><ele>747.0</ele><time>2026-05-02T12:35:16.003Z</time></trkpt><trkpt lat="42.0586391" lon="13.6034349"><ele>747.0</ele><time>2026-05-02T12:35:17.003Z</time></trkpt><trkpt lat="42.0587841" lon="13.6035018"><ele>747.0</ele><time>2026-05-02T12:35:18.003Z</time></trkpt><trkpt lat="42.0589322" lon="13.6035686"><ele>747.0</ele><time>2026-05-02T12:35:19.002Z</time></trkpt><trkpt lat="42.0590766" lon="13.6036409"><ele>748.75</ele><time>2026-05-02T12:35:20.003Z</time></trkpt><trkpt lat="42.0592154" lon="13.6037169"><ele>750.5</ele><time>2026-05-02T12:35:21.003Z</time></trkpt><trkpt lat="42.0593538" lon="13.6037846"><ele>752.25</ele><time>2026-05-02T12:35:22.003Z</time></trkpt><trkpt lat="42.0594935" lon="13.6038467"><ele>754.0</ele><time>2026-05-02T12:35:23.003Z</time></trkpt><trkpt lat="42.0596315" lon="13.6039083"><ele>754.0</ele><time>2026-05-02T12:35:24.003Z</time></trkpt><trkpt lat="42.0597698" lon="13.6039715"><ele>754.0</ele><time>2026-05-02T12:35:25.003Z</time></trkpt><trkpt lat="42.0599098" lon="13.604036"><ele>754.0</ele><time>2026-05-02T12:35:26.003Z</time></trkpt><trkpt lat="42.0600485" lon="13.6040999"><ele>754.0</ele><time>2026-05-02T12:35:27.003Z</time></trkpt><trkpt lat="42.0601921" lon="13.6041608"><ele>753.6666666666667</ele><time>2026-05-02T12:35:28.003Z</time></trkpt><trkpt lat="42.0603359" lon="13.6042139"><ele>753.3333333333334</ele><time>2026-05-02T12:35:29.003Z</time></trkpt><trkpt lat="42.0604818" lon="13.6042557"><ele>753.0</ele><time>2026-05-02T12:35:30.003Z</time></trkpt><trkpt lat="42.0606336" lon="13.6042951"><ele>754.0</ele><time>2026-05-02T12:35:31.003Z</time></trkpt><trkpt lat="42.0607859" lon="13.6043302"><ele>755.0</ele><time>2026-05-02T12:35:32.003Z</time></trkpt><trkpt lat="42.060937" lon="13.6043583"><ele>756.0</ele><time>2026-05-02T12:35:33.002Z</time></trkpt><trkpt lat="42.0610904" lon="13.6043785"><ele>756.0</ele><time>2026-05-02T12:35:34.002Z</time></trkpt><trkpt lat="42.061243" lon="13.604398"><ele>756.0</ele><time>2026-05-02T12:35:35.002Z</time></trkpt><trkpt lat="42.061388" lon="13.6044296"><ele>756.0</ele><time>2026-05-02T12:35:36.003Z</time></trkpt><trkpt lat="42.0615334" lon="13.6044633"><ele>756.0</ele><time>2026-05-02T12:35:37.003Z</time></trkpt><trkpt lat="42.061675" lon="13.604498"><ele>757.25</ele><time>2026-05-02T12:35:38.003Z</time></trkpt><trkpt lat="42.0618125" lon="13.6045375"><ele>758.5</ele><time>2026-05-02T12:35:39.002Z</time></trkpt><trkpt lat="42.061944" lon="13.6045763"><ele>759.75</ele><time>2026-05-02T12:35:40.003Z</time></trkpt><trkpt lat="42.0620648" lon="13.6046091"><ele>761.0</ele><time>2026-05-02T12:35:41.003Z</time></trkpt><trkpt lat="42.0621773" lon="13.604638"><ele>761.0</ele><time>2026-05-02T12:35:42.003Z</time></trkpt><trkpt lat="42.0622861" lon="13.6046661"><ele>761.0</ele><time>2026-05-02T12:35:43.002Z</time></trkpt><trkpt lat="42.0623907" lon="13.6047061"><ele>761.0</ele><time>2026-05-02T12:35:44.003Z</time></trkpt><trkpt lat="42.0624858" lon="13.6047345"><ele>761.0</ele><time>2026-05-02T12:35:45.003Z</time></trkpt><trkpt lat="42.0625646" lon="13.6047214"><ele>761.0</ele><time>2026-05-02T12:35:46.003Z</time></trkpt><trkpt lat="42.0626272" lon="13.6046746"><ele>762.3333333333333</ele><time>2026-05-02T12:35:47.003Z</time></trkpt><trkpt lat="42.062665" lon="13.6046001"><ele>763.6666666666666</ele><time>2026-05-02T12:35:48.003Z</time></trkpt><trkpt lat="42.0626715" lon="13.6045109"><ele>765.0</ele><time>2026-05-02T12:35:49.003Z</time></trkpt><trkpt lat="42.062649" lon="13.6044045"><ele>766.3333333333333</ele><time>2026-05-02T12:35:50.003Z</time></trkpt><trkpt lat="42.0626108" lon="13.6042875"><ele>767.6666666666666</ele><time>2026-05-02T12:35:51.003Z</time></trkpt><trkpt lat="42.0625672" lon="13.6041544"><ele>769.0</ele><time>2026-05-02T12:35:52.003Z</time></trkpt><trkpt lat="42.0625187" lon="13.6040142"><ele>769.25</ele><time>2026-05-02T12:35:53.003Z</time></trkpt><trkpt lat="42.062466" lon="13.6038632"><ele>769.5</ele><time>2026-05-02T12:35:54.003Z</time></trkpt><trkpt lat="42.0624129" lon="13.6037047"><ele>769.75</ele><time>2026-05-02T12:35:55.003Z</time></trkpt><trkpt lat="42.0623561" lon="13.6035401"><ele>770.0</ele><time>2026-05-02T12:35:56.003Z</time></trkpt><trkpt lat="42.062304" lon="13.6033655"><ele>769.75</ele><time>2026-05-02T12:35:57.003Z</time></trkpt><trkpt lat="42.0622484" lon="13.6031854"><ele>769.5</ele><time>2026-05-02T12:35:58.003Z</time></trkpt><trkpt lat="42.0621902" lon="13.603006"><ele>769.25</ele><time>2026-05-02T12:35:59.002Z</time></trkpt><trkpt lat="42.0621293" lon="13.6028219"><ele>769.0</ele><time>2026-05-02T12:36:00.003Z</time></trkpt><trkpt lat="42.0620606" lon="13.6026415"><ele>769.0</ele><time>2026-05-02T12:36:01.002Z</time></trkpt><trkpt lat="42.0619813" lon="13.6024645"><ele>769.0</ele><time>2026-05-02T12:36:02.003Z</time></trkpt><trkpt lat="42.0618946" lon="13.6022903"><ele>769.0</ele><time>2026-05-02T12:36:03.003Z</time></trkpt><trkpt lat="42.0617961" lon="13.6021174"><ele>768.5</ele><time>2026-05-02T12:36:04.003Z</time></trkpt><trkpt lat="42.0616968" lon="13.601951"><ele>768.0</ele><time>2026-05-02T12:36:05.002Z</time></trkpt><trkpt lat="42.0616004" lon="13.6017992"><ele>767.5</ele><time>2026-05-02T12:36:06.003Z</time></trkpt><trkpt lat="42.0615133" lon="13.6016546"><ele>767.0</ele><time>2026-05-02T12:36:07.003Z</time></trkpt><trkpt lat="42.0614373" lon="13.60153"><ele>767.0</ele><time>2026-05-02T12:36:08.003Z</time></trkpt><trkpt lat="42.0613678" lon="13.6014181"><ele>767.0</ele><time>2026-05-02T12:36:09.003Z</time></trkpt><trkpt lat="42.061321" lon="13.601315"><ele>767.0</ele><time>2026-05-02T12:36:10.002Z</time></trkpt><trkpt lat="42.0612948" lon="13.601223"><ele>767.0</ele><time>2026-05-02T12:36:11.003Z</time></trkpt><trkpt lat="42.061288" lon="13.6011338"><ele>767.0</ele><time>2026-05-02T12:36:12.003Z</time></trkpt><trkpt lat="42.0613045" lon="13.6010514"><ele>767.0</ele><time>2026-05-02T12:36:13.003Z</time></trkpt><trkpt lat="42.0613337" lon="13.6009753"><ele>768.0</ele><time>2026-05-02T12:36:14.003Z</time></trkpt><trkpt lat="42.0613719" lon="13.600895"><ele>769.0</ele><time>2026-05-02T12:36:15.003Z</time></trkpt><trkpt lat="42.06141" lon="13.6008018"><ele>770.0</ele><time>2026-05-02T12:36:16.003Z</time></trkpt><trkpt lat="42.0614431" lon="13.600699"><ele>771.0</ele><time>2026-05-02T12:36:17.003Z</time></trkpt><trkpt lat="42.061471" lon="13.6005803"><ele>772.0000000000001</ele><time>2026-05-02T12:36:18.003Z</time></trkpt><trkpt lat="42.0614969" lon="13.6004574"><ele>773.0</ele><time>2026-05-02T12:36:19.003Z</time></trkpt><trkpt lat="42.0615302" lon="13.6003258"><ele>773.0</ele><time>2026-05-02T12:36:20.003Z</time></trkpt><trkpt lat="42.0615747" lon="13.6001954"><ele>773.0</ele><time>2026-05-02T12:36:21.003Z</time></trkpt><trkpt lat="42.0616239" lon="13.600064"><ele>773.0</ele><time>2026-05-02T12:36:22.002Z</time></trkpt><trkpt lat="42.0616705" lon="13.5999321"><ele>773.0</ele><time>2026-05-02T12:36:23.002Z</time></trkpt><trkpt lat="42.0617184" lon="13.5998108"><ele>773.0</ele><time>2026-05-02T12:36:24.003Z</time></trkpt><trkpt lat="42.061767" lon="13.599697"><ele>774.8333333333334</ele><time>2026-05-02T12:36:25.003Z</time></trkpt><trkpt lat="42.0618185" lon="13.599603"><ele>776.6666666666667</ele><time>2026-05-02T12:36:26.003Z</time></trkpt><trkpt lat="42.0618759" lon="13.5995168"><ele>778.5</ele><time>2026-05-02T12:36:27.003Z</time></trkpt><trkpt lat="42.0619472" lon="13.5994519"><ele>780.3333333333333</ele><time>2026-05-02T12:36:28.003Z</time></trkpt><trkpt lat="42.0620284" lon="13.5994124"><ele>782.1666666666666</ele><time>2026-05-02T12:36:29.003Z</time></trkpt><trkpt lat="42.0621073" lon="13.5994007"><ele>784.0</ele><time>2026-05-02T12:36:30.003Z</time></trkpt><trkpt lat="42.0621854" lon="13.5994201"><ele>783.9999999999999</ele><time>2026-05-02T12:36:31.003Z</time></trkpt><trkpt lat="42.0622526" lon="13.5994593"><ele>784.0</ele><time>2026-05-02T12:36:32.003Z</time></trkpt><trkpt lat="42.0623168" lon="13.5995115"><ele>784.0</ele><time>2026-05-02T12:36:33.003Z</time></trkpt><trkpt lat="42.0623742" lon="13.5995783"><ele>784.0</ele><time>2026-05-02T12:36:34.002Z</time></trkpt><trkpt lat="42.0624364" lon="13.5996554"><ele>783.9999999999999</ele><time>2026-05-02T12:36:35.003Z</time></trkpt><trkpt lat="42.0625005" lon="13.599733"><ele>784.0</ele><time>2026-05-02T12:36:36.003Z</time></trkpt><trkpt lat="42.0625678" lon="13.599817"><ele>786.8000000000001</ele><time>2026-05-02T12:36:37.003Z</time></trkpt><trkpt lat="42.0626345" lon="13.5999045"><ele>789.6</ele><time>2026-05-02T12:36:38.003Z</time></trkpt><trkpt lat="42.0627049" lon="13.5999933"><ele>792.4</ele><time>2026-05-02T12:36:39.003Z</time></trkpt><trkpt lat="42.062777" lon="13.6000795"><ele>795.2</ele><time>2026-05-02T12:36:40.003Z</time></trkpt><trkpt lat="42.0628421" lon="13.6001594"><ele>798.0</ele><time>2026-05-02T12:36:41.003Z</time></trkpt><trkpt lat="42.0629045" lon="13.6002242"><ele>798.0</ele><time>2026-05-02T12:36:42.003Z</time></trkpt><trkpt lat="42.0629765" lon="13.600274"><ele>798.0</ele><time>2026-05-02T12:36:43.003Z</time></trkpt><trkpt lat="42.0630548" lon="13.6003151"><ele>798.0</ele><time>2026-05-02T12:36:44.003Z</time></trkpt><trkpt lat="42.0631385" lon="13.6003473"><ele>798.0</ele><time>2026-05-02T12:36:45.003Z</time></trkpt><trkpt lat="42.0632247" lon="13.6003799"><ele>798.0</ele><time>2026-05-02T12:36:46.003Z</time></trkpt><trkpt lat="42.0633147" lon="13.6004143"><ele>798.0</ele><time>2026-05-02T12:36:47.003Z</time></trkpt><trkpt lat="42.0634081" lon="13.6004476"><ele>799.2</ele><time>2026-05-02T12:36:48.003Z</time></trkpt><trkpt lat="42.0635008" lon="13.6004911"><ele>800.4</ele><time>2026-05-02T12:36:49.003Z</time></trkpt><trkpt lat="42.0635945" lon="13.6005418"><ele>801.6</ele><time>2026-05-02T12:36:50.003Z</time></trkpt><trkpt lat="42.063683" lon="13.600591"><ele>802.8000000000001</ele><time>2026-05-02T12:36:51.003Z</time></trkpt><trkpt lat="42.0637755" lon="13.6006468"><ele>804.0</ele><time>2026-05-02T12:36:52.003Z</time></trkpt><trkpt lat="42.0638665" lon="13.6006822"><ele>804.0</ele><time>2026-05-02T12:36:53.003Z</time></trkpt><trkpt lat="42.0639448" lon="13.6007265"><ele>804.0</ele><time>2026-05-02T12:36:54.002Z</time></trkpt><trkpt lat="42.0640147" lon="13.600779"><ele>804.0</ele><time>2026-05-02T12:36:55.003Z</time></trkpt><trkpt lat="42.0641158" lon="13.6008366"><ele>804.0</ele><time>2026-05-02T12:36:57.003Z</time></trkpt><trkpt lat="42.064184" lon="13.6008504"><ele>804.0</ele><time>2026-05-02T12:36:59.003Z</time></trkpt><trkpt lat="42.0642233" lon="13.6007483"><ele>804.0</ele><time>2026-05-02T12:37:01.003Z</time></trkpt><trkpt lat="42.0642475" lon="13.6006103"><ele>805.2</ele><time>2026-05-02T12:37:03.002Z</time></trkpt><trkpt lat="42.0642771" lon="13.6004534"><ele>806.4000000000001</ele><time>2026-05-02T12:37:05.003Z</time></trkpt><trkpt lat="42.0642995" lon="13.600307"><ele>807.6</ele><time>2026-05-02T12:37:07.003Z</time></trkpt><trkpt lat="42.0643085" lon="13.6002153"><ele>808.8</ele><time>2026-05-02T12:37:09.003Z</time></trkpt><trkpt lat="42.0642946" lon="13.6001292"><ele>810.0</ele><time>2026-05-02T12:37:21.003Z</time></trkpt><trkpt lat="42.0641947" lon="13.6000937"><ele>810.0</ele><time>2026-05-02T12:37:23.003Z</time></trkpt><trkpt lat="42.0641212" lon="13.600077"><ele>810.0</ele><time>2026-05-02T12:37:24.002Z</time></trkpt><trkpt lat="42.0640507" lon="13.6000524"><ele>810.0</ele><time>2026-05-02T12:37:25.003Z</time></trkpt><trkpt lat="42.0639771" lon="13.6000291"><ele>810.0</ele><time>2026-05-02T12:37:26.002Z</time></trkpt><trkpt lat="42.0639076" lon="13.6000104"><ele>810.0</ele><time>2026-05-02T12:37:27.002Z</time></trkpt><trkpt lat="42.0638033" lon="13.5999772"><ele>810.0</ele><time>2026-05-02T12:37:29.003Z</time></trkpt><trkpt lat="42.0637436" lon="13.5999394"><ele>810.0</ele><time>2026-05-02T12:37:31.003Z</time></trkpt><trkpt lat="42.063723" lon="13.5998353"><ele>810.0</ele><time>2026-05-02T12:37:34.003Z</time></trkpt><trkpt lat="42.0637762" lon="13.5997596"><ele>810.0</ele><time>2026-05-02T12:37:52.003Z</time></trkpt><trkpt lat="42.0638672" lon="13.5997597"><ele>810.0</ele><time>2026-05-02T12:37:54.003Z</time></trkpt><trkpt lat="42.0639783" lon="13.5997954"><ele>810.0</ele><time>2026-05-02T12:37:56.003Z</time></trkpt><trkpt lat="42.0640406" lon="13.5998215"><ele>810.0</ele><time>2026-05-02T12:37:57.003Z</time></trkpt><trkpt lat="42.0641213" lon="13.5998742"><ele>810.0</ele><time>2026-05-02T12:37:59.003Z</time></trkpt><trkpt lat="42.0641438" lon="13.5999749"><ele>810.0</ele><time>2026-05-02T12:38:01.003Z</time></trkpt><trkpt lat="42.0641201" lon="13.6000587"><ele>810.0</ele><time>2026-05-02T12:38:04.002Z</time></trkpt><trkpt lat="42.0641808" lon="13.6001336"><ele>810.0</ele><time>2026-05-02T12:38:09.003Z</time></trkpt><trkpt lat="42.0643126" lon="13.6001601"><ele>810.0</ele><time>2026-05-02T12:38:11.002Z</time></trkpt><trkpt lat="42.0643988" lon="13.600161"><ele>810.0</ele><time>2026-05-02T12:38:12.003Z</time></trkpt><trkpt lat="42.0645002" lon="13.6001606"><ele>810.0</ele><time>2026-05-02T12:38:13.003Z</time></trkpt><trkpt lat="42.06461" lon="13.6001569"><ele>810.0</ele><time>2026-05-02T12:38:14.003Z</time></trkpt><trkpt lat="42.0647278" lon="13.6001518"><ele>810.0</ele><time>2026-05-02T12:38:15.003Z</time></trkpt><trkpt lat="42.0648534" lon="13.6001498"><ele>810.0</ele><time>2026-05-02T12:38:16.003Z</time></trkpt><trkpt lat="42.0649833" lon="13.6001478"><ele>812.25</ele><time>2026-05-02T12:38:17.003Z</time></trkpt><trkpt lat="42.0651178" lon="13.6001563"><ele>814.5</ele><time>2026-05-02T12:38:18.003Z</time></trkpt><trkpt lat="42.065254" lon="13.6001661"><ele>816.75</ele><time>2026-05-02T12:38:19.003Z</time></trkpt><trkpt lat="42.0653896" lon="13.6001759"><ele>819.0</ele><time>2026-05-02T12:38:20.002Z</time></trkpt><trkpt lat="42.0655179" lon="13.6001863"><ele>819.0</ele><time>2026-05-02T12:38:21.003Z</time></trkpt><trkpt lat="42.0656346" lon="13.6001979"><ele>819.0</ele><time>2026-05-02T12:38:22.003Z</time></trkpt><trkpt lat="42.0657383" lon="13.6002084"><ele>819.0</ele><time>2026-05-02T12:38:23.003Z</time></trkpt><trkpt lat="42.0658221" lon="13.6002175"><ele>819.0</ele><time>2026-05-02T12:38:24.003Z</time></trkpt><trkpt lat="42.0659024" lon="13.6002271"><ele>819.0</ele><time>2026-05-02T12:38:25.003Z</time></trkpt><trkpt lat="42.0659761" lon="13.6002333"><ele>820.5</ele><time>2026-05-02T12:38:26.003Z</time></trkpt><trkpt lat="42.0660427" lon="13.6002349"><ele>822.0</ele><time>2026-05-02T12:38:27.003Z</time></trkpt><trkpt lat="42.0661182" lon="13.6002413"><ele>823.5</ele><time>2026-05-02T12:38:29.003Z</time></trkpt><trkpt lat="42.0661585" lon="13.600309"><ele>825.0</ele><time>2026-05-02T12:38:41.003Z</time></trkpt><trkpt lat="42.0661342" lon="13.6004517"><ele>826.5</ele><time>2026-05-02T12:38:43.003Z</time></trkpt><trkpt lat="42.0660904" lon="13.600573"><ele>828.0</ele><time>2026-05-02T12:38:45.002Z</time></trkpt><trkpt lat="42.066069" lon="13.6006528"><ele>828.0</ele><time>2026-05-02T12:38:47.002Z</time></trkpt><trkpt lat="42.0660624" lon="13.6008122"><ele>828.0</ele><time>2026-05-02T12:39:00.003Z</time></trkpt><trkpt lat="42.066059" lon="13.6009043"><ele>828.0</ele><time>2026-05-02T12:39:01.003Z</time></trkpt><trkpt lat="42.066054" lon="13.601021"><ele>828.0</ele><time>2026-05-02T12:39:02.003Z</time></trkpt><trkpt lat="42.0660509" lon="13.6011538"><ele>828.0</ele><time>2026-05-02T12:39:03.003Z</time></trkpt><trkpt lat="42.0660489" lon="13.6012981"><ele>828.0</ele><time>2026-05-02T12:39:04.002Z</time></trkpt><trkpt lat="42.0660407" lon="13.6014533"><ele>828.0</ele><time>2026-05-02T12:39:05.002Z</time></trkpt><trkpt lat="42.0660205" lon="13.6016167"><ele>828.0</ele><time>2026-05-02T12:39:06.003Z</time></trkpt><trkpt lat="42.0659844" lon="13.6017825"><ele>828.0</ele><time>2026-05-02T12:39:07.002Z</time></trkpt><trkpt lat="42.065943" lon="13.6019488"><ele>828.5</ele><time>2026-05-02T12:39:08.003Z</time></trkpt><trkpt lat="42.0659053" lon="13.6021028"><ele>829.0</ele><time>2026-05-02T12:39:09.003Z</time></trkpt><trkpt lat="42.0658802" lon="13.6022193"><ele>829.5</ele><time>2026-05-02T12:39:10.003Z</time></trkpt><trkpt lat="42.0658636" lon="13.6023027"><ele>830.0</ele><time>2026-05-02T12:39:11.003Z</time></trkpt><trkpt lat="42.0658423" lon="13.6024179"><ele>830.5</ele><time>2026-05-02T12:39:13.002Z</time></trkpt><trkpt lat="42.0658764" lon="13.6025231"><ele>831.0</ele><time>2026-05-02T12:39:42.003Z</time></trkpt><trkpt lat="42.065996" lon="13.6025111"><ele>831.0</ele><time>2026-05-02T12:39:44.003Z</time></trkpt><trkpt lat="42.0660701" lon="13.6024849"><ele>831.0</ele><time>2026-05-02T12:39:45.003Z</time></trkpt><trkpt lat="42.066152" lon="13.6024488"><ele>831.0</ele><time>2026-05-02T12:39:46.003Z</time></trkpt><trkpt lat="42.0662383" lon="13.6024053"><ele>831.0</ele><time>2026-05-02T12:39:47.003Z</time></trkpt><trkpt lat="42.0663151" lon="13.6023501"><ele>831.0</ele><time>2026-05-02T12:39:48.002Z</time></trkpt><trkpt lat="42.0663692" lon="13.6022745"><ele>831.0</ele><time>2026-05-02T12:39:49.003Z</time></trkpt><trkpt lat="42.0663943" lon="13.6021777"><ele>831.0</ele><time>2026-05-02T12:39:50.003Z</time></trkpt><trkpt lat="42.0664163" lon="13.6020666"><ele>831.0</ele><time>2026-05-02T12:39:51.003Z</time></trkpt><trkpt lat="42.0664403" lon="13.601948"><ele>831.0</ele><time>2026-05-02T12:39:52.003Z</time></trkpt><trkpt lat="42.0664817" lon="13.6018365"><ele>831.0</ele><time>2026-05-02T12:39:53.002Z</time></trkpt><trkpt lat="42.0665416" lon="13.6017252"><ele>831.0</ele><time>2026-05-02T12:39:54.003Z</time></trkpt><trkpt lat="42.0666104" lon="13.6016101"><ele>833.5</ele><time>2026-05-02T12:39:55.003Z</time></trkpt><trkpt lat="42.0666842" lon="13.601488"><ele>836.0</ele><time>2026-05-02T12:39:56.003Z</time></trkpt><trkpt lat="42.0667675" lon="13.6013676"><ele>838.5</ele><time>2026-05-02T12:39:57.002Z</time></trkpt><trkpt lat="42.0668621" lon="13.6012515"><ele>841.0</ele><time>2026-05-02T12:39:58.003Z</time></trkpt><trkpt lat="42.0669657" lon="13.6011491"><ele>840.9999999999999</ele><time>2026-05-02T12:39:59.003Z</time></trkpt><trkpt lat="42.0670655" lon="13.60107"><ele>841.0</ele><time>2026-05-02T12:40:00.003Z</time></trkpt><trkpt lat="42.0671517" lon="13.6010088"><ele>841.0</ele><time>2026-05-02T12:40:01.003Z</time></trkpt><trkpt lat="42.0672149" lon="13.6009712"><ele>841.0</ele><time>2026-05-02T12:40:02.003Z</time></trkpt><trkpt lat="42.0672828" lon="13.600937"><ele>840.9999999999999</ele><time>2026-05-02T12:40:04.003Z</time></trkpt><trkpt lat="42.0673637" lon="13.600894"><ele>841.0</ele><time>2026-05-02T12:40:25.003Z</time></trkpt><trkpt lat="42.0674392" lon="13.6008297"><ele>843.0</ele><time>2026-05-02T12:41:01.003Z</time></trkpt><trkpt lat="42.0675028" lon="13.6007957"><ele>845.0</ele><time>2026-05-02T12:41:02.003Z</time></trkpt><trkpt lat="42.0675808" lon="13.600754"><ele>847.0</ele><time>2026-05-02T12:41:03.003Z</time></trkpt><trkpt lat="42.0676685" lon="13.6007081"><ele>849.0</ele><time>2026-05-02T12:41:04.003Z</time></trkpt><trkpt lat="42.0677675" lon="13.6006623"><ele>851.0</ele><time>2026-05-02T12:41:05.003Z</time></trkpt><trkpt lat="42.0678765" lon="13.6006123"><ele>851.0</ele><time>2026-05-02T12:41:06.003Z</time></trkpt><trkpt lat="42.0679959" lon="13.6005669"><ele>851.0</ele><time>2026-05-02T12:41:07.003Z</time></trkpt><trkpt lat="42.0681185" lon="13.600516"><ele>851.0</ele><time>2026-05-02T12:41:08.003Z</time></trkpt><trkpt lat="42.0682412" lon="13.600473"><ele>851.0</ele><time>2026-05-02T12:41:08.991Z</time></trkpt><trkpt lat="42.0683819" lon="13.6004284"><ele>851.25</ele><time>2026-05-02T12:41:09.988Z</time></trkpt><trkpt lat="42.0685161" lon="13.6003926"><ele>851.5</ele><time>2026-05-02T12:41:10.995Z</time></trkpt><trkpt lat="42.0686462" lon="13.6003589"><ele>851.75</ele><time>2026-05-02T12:41:11.986Z</time></trkpt><trkpt lat="42.0687932" lon="13.6003155"><ele>852.0</ele><time>2026-05-02T12:41:12.995Z</time></trkpt><trkpt lat="42.068933" lon="13.6002682"><ele>853.25</ele><time>2026-05-02T12:41:13.992Z</time></trkpt><trkpt lat="42.0690748" lon="13.6002074"><ele>854.5</ele><time>2026-05-02T12:41:14.992Z</time></trkpt><trkpt lat="42.0692139" lon="13.6001364"><ele>855.75</ele><time>2026-05-02T12:41:15.992Z</time></trkpt><trkpt lat="42.0693468" lon="13.6000481"><ele>857.0</ele><time>2026-05-02T12:41:16.992Z</time></trkpt><trkpt lat="42.0694825" lon="13.5999499"><ele>858.5</ele><time>2026-05-02T12:41:17.992Z</time></trkpt><trkpt lat="42.0696141" lon="13.5998658"><ele>860.0</ele><time>2026-05-02T12:41:18.992Z</time></trkpt><trkpt lat="42.0697421" lon="13.5998085"><ele>861.5</ele><time>2026-05-02T12:41:19.992Z</time></trkpt><trkpt lat="42.0698937" lon="13.5997719"><ele>863.0</ele><time>2026-05-02T12:41:20.992Z</time></trkpt><trkpt lat="42.0700342" lon="13.5997567"><ele>865.3333333333334</ele><time>2026-05-02T12:41:21.992Z</time></trkpt><trkpt lat="42.0701977" lon="13.5997428"><ele>867.6666666666667</ele><time>2026-05-02T12:41:22.992Z</time></trkpt><trkpt lat="42.0703573" lon="13.5997212"><ele>870.0</ele><time>2026-05-02T12:41:23.992Z</time></trkpt><trkpt lat="42.0705072" lon="13.5996854"><ele>870.0</ele><time>2026-05-02T12:41:24.992Z</time></trkpt><trkpt lat="42.0706794" lon="13.5996308"><ele>870.0</ele><time>2026-05-02T12:41:25.992Z</time></trkpt><trkpt lat="42.0708445" lon="13.5995686"><ele>870.0</ele><time>2026-05-02T12:41:27.002Z</time></trkpt><trkpt lat="42.0710153" lon="13.5994969"><ele>872.0</ele><time>2026-05-02T12:41:28.003Z</time></trkpt><trkpt lat="42.0711848" lon="13.5994188"><ele>874.0</ele><time>2026-05-02T12:41:29.003Z</time></trkpt><trkpt lat="42.0713565" lon="13.5993448"><ele>876.0</ele><time>2026-05-02T12:41:30.003Z</time></trkpt><trkpt lat="42.0715279" lon="13.5992675"><ele>878.3333333333333</ele><time>2026-05-02T12:41:31.003Z</time></trkpt><trkpt lat="42.0717002" lon="13.5991937"><ele>880.6666666666666</ele><time>2026-05-02T12:41:32.002Z</time></trkpt><trkpt lat="42.0718723" lon="13.599123"><ele>883.0</ele><time>2026-05-02T12:41:33.003Z</time></trkpt><trkpt lat="42.0720381" lon="13.5990453"><ele>883.0</ele><time>2026-05-02T12:41:34.003Z</time></trkpt><trkpt lat="42.0722046" lon="13.598968"><ele>883.0</ele><time>2026-05-02T12:41:35.003Z</time></trkpt><trkpt lat="42.0723725" lon="13.5988939"><ele>883.0</ele><time>2026-05-02T12:41:36.003Z</time></trkpt><trkpt lat="42.072538" lon="13.5988177"><ele>885.3333333333333</ele><time>2026-05-02T12:41:37.003Z</time></trkpt><trkpt lat="42.0727058" lon="13.5987466"><ele>887.6666666666667</ele><time>2026-05-02T12:41:38.003Z</time></trkpt><trkpt lat="42.0728709" lon="13.5986769"><ele>890.0</ele><time>2026-05-02T12:41:39.003Z</time></trkpt><trkpt lat="42.0730299" lon="13.5986026"><ele>892.0</ele><time>2026-05-02T12:41:40.003Z</time></trkpt><trkpt lat="42.0731916" lon="13.5985344"><ele>894.0</ele><time>2026-05-02T12:41:41.003Z</time></trkpt><trkpt lat="42.0733512" lon="13.598464"><ele>896.0</ele><time>2026-05-02T12:41:42.003Z</time></trkpt><trkpt lat="42.0735102" lon="13.5983904"><ele>898.6666666666667</ele><time>2026-05-02T12:41:43.003Z</time></trkpt><trkpt lat="42.0736661" lon="13.5983147"><ele>901.3333333333333</ele><time>2026-05-02T12:41:44.003Z</time></trkpt><trkpt lat="42.0738194" lon="13.5982469"><ele>904.0</ele><time>2026-05-02T12:41:45.003Z</time></trkpt><trkpt lat="42.0739762" lon="13.5981962"><ele>907.0</ele><time>2026-05-02T12:41:46.003Z</time></trkpt><trkpt lat="42.0741357" lon="13.5981673"><ele>910.0</ele><time>2026-05-02T12:41:47Z</time></trkpt><trkpt lat="42.0742959" lon="13.5981515"><ele>913.0</ele><time>2026-05-02T12:41:47.995Z</time></trkpt><trkpt lat="42.0744466" lon="13.5981509"><ele>913.0</ele><time>2026-05-02T12:41:48.989Z</time></trkpt><trkpt lat="42.0746186" lon="13.5981575"><ele>913.0</ele><time>2026-05-02T12:41:49.985Z</time></trkpt><trkpt lat="42.0747774" lon="13.5981658"><ele>913.0</ele><time>2026-05-02T12:41:51.004Z</time></trkpt><trkpt lat="42.0749354" lon="13.5981767"><ele>916.6666666666666</ele><time>2026-05-02T12:41:51.987Z</time></trkpt><trkpt lat="42.0750922" lon="13.5981882"><ele>920.3333333333333</ele><time>2026-05-02T12:41:52.988Z</time></trkpt><trkpt lat="42.0752415" lon="13.5981973"><ele>924.0</ele><time>2026-05-02T12:41:53.988Z</time></trkpt><trkpt lat="42.0754089" lon="13.598208"><ele>924.0</ele><time>2026-05-02T12:41:54.988Z</time></trkpt><trkpt lat="42.0755678" lon="13.5982183"><ele>924.0</ele><time>2026-05-02T12:41:56.003Z</time></trkpt><trkpt lat="42.0757284" lon="13.5982225"><ele>924.0</ele><time>2026-05-02T12:41:57.003Z</time></trkpt><trkpt lat="42.0758893" lon="13.5982187"><ele>926.5</ele><time>2026-05-02T12:41:58.003Z</time></trkpt><trkpt lat="42.0760451" lon="13.5981953"><ele>929.0</ele><time>2026-05-02T12:41:59.002Z</time></trkpt><trkpt lat="42.0761894" lon="13.5981591"><ele>931.5</ele><time>2026-05-02T12:42:00.003Z</time></trkpt><trkpt lat="42.0763091" lon="13.5981091"><ele>934.0</ele><time>2026-05-02T12:42:01.003Z</time></trkpt><trkpt lat="42.0764109" lon="13.5980287"><ele>934.0</ele><time>2026-05-02T12:42:02.003Z</time></trkpt><trkpt lat="42.0765041" lon="13.597907"><ele>934.0</ele><time>2026-05-02T12:42:03.003Z</time></trkpt><trkpt lat="42.0765918" lon="13.597756"><ele>934.0</ele><time>2026-05-02T12:42:03.995Z</time></trkpt><trkpt lat="42.0766671" lon="13.5976222"><ele>934.0</ele><time>2026-05-02T12:42:04.987Z</time></trkpt><trkpt lat="42.0767516" lon="13.597495"><ele>936.8000000000001</ele><time>2026-05-02T12:42:05.984Z</time></trkpt><trkpt lat="42.0768362" lon="13.5974042"><ele>939.6000000000001</ele><time>2026-05-02T12:42:06.995Z</time></trkpt><trkpt lat="42.076928" lon="13.5973445"><ele>942.4</ele><time>2026-05-02T12:42:07.991Z</time></trkpt><trkpt lat="42.077036" lon="13.5973117"><ele>945.2</ele><time>2026-05-02T12:42:08.988Z</time></trkpt><trkpt lat="42.0771251" lon="13.5973242"><ele>948.0</ele><time>2026-05-02T12:42:09.988Z</time></trkpt><trkpt lat="42.0772058" lon="13.5973837"><ele>948.0</ele><time>2026-05-02T12:42:10.988Z</time></trkpt><trkpt lat="42.0772695" lon="13.5974893"><ele>948.0</ele><time>2026-05-02T12:42:11.988Z</time></trkpt><trkpt lat="42.0773134" lon="13.5976114"><ele>948.0</ele><time>2026-05-02T12:42:12.987Z</time></trkpt><trkpt lat="42.0773597" lon="13.5977599"><ele>948.0</ele><time>2026-05-02T12:42:13.988Z</time></trkpt><trkpt lat="42.0774045" lon="13.5978831"><ele>948.0</ele><time>2026-05-02T12:42:14.987Z</time></trkpt><trkpt lat="42.0774525" lon="13.5979685"><ele>949.4</ele><time>2026-05-02T12:42:15.987Z</time></trkpt><trkpt lat="42.0775174" lon="13.598018"><ele>950.8</ele><time>2026-05-02T12:42:16.987Z</time></trkpt><trkpt lat="42.077628" lon="13.5979637"><ele>952.2</ele><time>2026-05-02T12:42:18.988Z</time></trkpt><trkpt lat="42.0776516" lon="13.5978774"><ele>953.6</ele><time>2026-05-02T12:42:19.988Z</time></trkpt><trkpt lat="42.0776392" lon="13.5977672"><ele>955.0</ele><time>2026-05-02T12:42:20.988Z</time></trkpt><trkpt lat="42.0775957" lon="13.5976313"><ele>955.25</ele><time>2026-05-02T12:42:21.988Z</time></trkpt><trkpt lat="42.0775316" lon="13.5974803"><ele>955.5</ele><time>2026-05-02T12:42:22.988Z</time></trkpt><trkpt lat="42.0774642" lon="13.5973222"><ele>955.75</ele><time>2026-05-02T12:42:23.988Z</time></trkpt><trkpt lat="42.0773909" lon="13.59714"><ele>956.0</ele><time>2026-05-02T12:42:24.988Z</time></trkpt><trkpt lat="42.0773164" lon="13.5969472"><ele>956.0</ele><time>2026-05-02T12:42:25.988Z</time></trkpt><trkpt lat="42.0772388" lon="13.596744"><ele>956.0</ele><time>2026-05-02T12:42:26.988Z</time></trkpt><trkpt lat="42.0771626" lon="13.5965364"><ele>956.0</ele><time>2026-05-02T12:42:27.988Z</time></trkpt><trkpt lat="42.0771102" lon="13.5963734"><ele>956.0</ele><time>2026-05-02T12:42:28.988Z</time></trkpt><trkpt lat="42.0770822" lon="13.5962138"><ele>956.0</ele><time>2026-05-02T12:42:29.988Z</time></trkpt><trkpt lat="42.0770896" lon="13.5960521"><ele>956.0</ele><time>2026-05-02T12:42:30.988Z</time></trkpt><trkpt lat="42.0771254" lon="13.5959171"><ele>956.0</ele><time>2026-05-02T12:42:31.987Z</time></trkpt><trkpt lat="42.077186" lon="13.5957748"><ele>955.75</ele><time>2026-05-02T12:42:32.988Z</time></trkpt><trkpt lat="42.0772728" lon="13.5956261"><ele>955.5</ele><time>2026-05-02T12:42:33.988Z</time></trkpt><trkpt lat="42.0773664" lon="13.5954991"><ele>955.25</ele><time>2026-05-02T12:42:34.988Z</time></trkpt><trkpt lat="42.0774883" lon="13.595355"><ele>955.0</ele><time>2026-05-02T12:42:35.988Z</time></trkpt><trkpt lat="42.0776052" lon="13.5952244"><ele>959.6666666666666</ele><time>2026-05-02T12:42:36.988Z</time></trkpt><trkpt lat="42.0777402" lon="13.5950731"><ele>964.3333333333333</ele><time>2026-05-02T12:42:37.987Z</time></trkpt><trkpt lat="42.0778743" lon="13.5949129"><ele>969.0</ele><time>2026-05-02T12:42:39.003Z</time></trkpt><trkpt lat="42.077997" lon="13.5947929"><ele>969.0</ele><time>2026-05-02T12:42:40.003Z</time></trkpt><trkpt lat="42.0781153" lon="13.5947092"><ele>969.0</ele><time>2026-05-02T12:42:41.003Z</time></trkpt><trkpt lat="42.0782127" lon="13.5946288"><ele>969.0</ele><time>2026-05-02T12:42:42.003Z</time></trkpt><trkpt lat="42.0782865" lon="13.5945204"><ele>969.0</ele><time>2026-05-02T12:42:43.003Z</time></trkpt><trkpt lat="42.0783347" lon="13.5944092"><ele>972.4000000000001</ele><time>2026-05-02T12:42:44.003Z</time></trkpt><trkpt lat="42.0783435" lon="13.5942792"><ele>975.8000000000001</ele><time>2026-05-02T12:42:45.003Z</time></trkpt><trkpt lat="42.0783249" lon="13.594142"><ele>979.1999999999999</ele><time>2026-05-02T12:42:46.003Z</time></trkpt><trkpt lat="42.0783051" lon="13.5940081"><ele>982.5999999999999</ele><time>2026-05-02T12:42:47.003Z</time></trkpt><trkpt lat="42.0783136" lon="13.593883"><ele>986.0</ele><time>2026-05-02T12:42:48.003Z</time></trkpt><trkpt lat="42.078358" lon="13.5937584"><ele>983.5</ele><time>2026-05-02T12:42:49.003Z</time></trkpt><trkpt lat="42.0784326" lon="13.5936475"><ele>981.0</ele><time>2026-05-02T12:42:50.002Z</time></trkpt><trkpt lat="42.0785254" lon="13.5935357"><ele>978.5</ele><time>2026-05-02T12:42:51.003Z</time></trkpt><trkpt lat="42.0786315" lon="13.5934199"><ele>976.0</ele><time>2026-05-02T12:42:52.002Z</time></trkpt><trkpt lat="42.0787471" lon="13.5933026"><ele>976.0</ele><time>2026-05-02T12:42:53.003Z</time></trkpt><trkpt lat="42.0788646" lon="13.5931826"><ele>976.0</ele><time>2026-05-02T12:42:54.002Z</time></trkpt><trkpt lat="42.0789886" lon="13.5930608"><ele>976.0</ele><time>2026-05-02T12:42:55.003Z</time></trkpt><trkpt lat="42.0791181" lon="13.5929432"><ele>980.6666666666666</ele><time>2026-05-02T12:42:56.003Z</time></trkpt><trkpt lat="42.0792507" lon="13.5928313"><ele>985.3333333333333</ele><time>2026-05-02T12:42:57.002Z</time></trkpt><trkpt lat="42.0793775" lon="13.5927227"><ele>990.0</ele><time>2026-05-02T12:42:58.003Z</time></trkpt><trkpt lat="42.0794976" lon="13.5926129"><ele>990.0</ele><time>2026-05-02T12:42:59.003Z</time></trkpt><trkpt lat="42.0796119" lon="13.5925018"><ele>990.0</ele><time>2026-05-02T12:43:00.003Z</time></trkpt><trkpt lat="42.0797232" lon="13.5923963"><ele>990.0</ele><time>2026-05-02T12:43:01.003Z</time></trkpt><trkpt lat="42.0798289" lon="13.5922999"><ele>990.0</ele><time>2026-05-02T12:43:02.003Z</time></trkpt><trkpt lat="42.0799292" lon="13.5922112"><ele>992.8</ele><time>2026-05-02T12:43:03.002Z</time></trkpt><trkpt lat="42.0800272" lon="13.5921268"><ele>995.6</ele><time>2026-05-02T12:43:04.003Z</time></trkpt><trkpt lat="42.0801222" lon="13.5920468"><ele>998.4000000000001</ele><time>2026-05-02T12:43:05.002Z</time></trkpt><trkpt lat="42.0802124" lon="13.5919725"><ele>1001.2</ele><time>2026-05-02T12:43:06.003Z</time></trkpt><trkpt lat="42.0802996" lon="13.5919023"><ele>1004.0</ele><time>2026-05-02T12:43:07.002Z</time></trkpt><trkpt lat="42.0803861" lon="13.5918342"><ele>1004.0000000000001</ele><time>2026-05-02T12:43:08.002Z</time></trkpt><trkpt lat="42.0804677" lon="13.5917674"><ele>1004.0</ele><time>2026-05-02T12:43:09.002Z</time></trkpt><trkpt lat="42.0805469" lon="13.591699"><ele>1004.0</ele><time>2026-05-02T12:43:10.003Z</time></trkpt><trkpt lat="42.0806147" lon="13.5916281"><ele>1004.0</ele><time>2026-05-02T12:43:11.003Z</time></trkpt><trkpt lat="42.0806729" lon="13.5915536"><ele>1004.0000000000001</ele><time>2026-05-02T12:43:12.003Z</time></trkpt><trkpt lat="42.0807079" lon="13.5914718"><ele>1004.0</ele><time>2026-05-02T12:43:13.003Z</time></trkpt><trkpt lat="42.0807641" lon="13.5913894"><ele>1005.7142857142856</ele><time>2026-05-02T12:43:25.003Z</time></trkpt><trkpt lat="42.0808436" lon="13.5914009"><ele>1007.4285714285713</ele><time>2026-05-02T12:43:27.002Z</time></trkpt><trkpt lat="42.0809218" lon="13.5914227"><ele>1009.1428571428571</ele><time>2026-05-02T12:43:29.002Z</time></trkpt><trkpt lat="42.0809859" lon="13.5914493"><ele>1010.8571428571428</ele><time>2026-05-02T12:43:31.003Z</time></trkpt><trkpt lat="42.0810472" lon="13.5914254"><ele>1012.5714285714284</ele><time>2026-05-02T12:43:39.003Z</time></trkpt><trkpt lat="42.0809855" lon="13.5913966"><ele>1014.2857142857143</ele><time>2026-05-02T12:45:19.003Z</time></trkpt><trkpt lat="42.080921" lon="13.5914064"><ele>1016.0</ele><time>2026-05-02T12:45:21.003Z</time></trkpt><trkpt lat="42.0808516" lon="13.5914016"><ele>1016.0</ele><time>2026-05-02T12:45:23.003Z</time></trkpt><trkpt lat="42.0807856" lon="13.5913628"><ele>1015.9999999999999</ele><time>2026-05-02T12:45:26.003Z</time></trkpt><trkpt lat="42.0807517" lon="13.5912697"><ele>1015.9999999999999</ele><time>2026-05-02T12:45:41.003Z</time></trkpt><trkpt lat="42.0807702" lon="13.5911613"><ele>1016.0</ele><time>2026-05-02T12:45:43.003Z</time></trkpt><trkpt lat="42.0807418" lon="13.5910259"><ele>1016.0</ele><time>2026-05-02T12:45:45.003Z</time></trkpt><trkpt lat="42.0806486" lon="13.5909072"><ele>1015.0</ele><time>2026-05-02T12:45:47.003Z</time></trkpt><trkpt lat="42.080588" lon="13.5908521"><ele>1014.0</ele><time>2026-05-02T12:45:48.003Z</time></trkpt><trkpt lat="42.0805208" lon="13.590794"><ele>1013.0</ele><time>2026-05-02T12:45:49.003Z</time></trkpt><trkpt lat="42.0804544" lon="13.5907354"><ele>1012.0</ele><time>2026-05-02T12:45:50.003Z</time></trkpt><trkpt lat="42.0804009" lon="13.5906882"><ele>1011.0</ele><time>2026-05-02T12:45:51.003Z</time></trkpt><trkpt lat="42.0803437" lon="13.5906347"><ele>1010.0</ele><time>2026-05-02T12:45:53.003Z</time></trkpt><trkpt lat="42.0802845" lon="13.590574"><ele>1009.0</ele><time>2026-05-02T12:46:02.003Z</time></trkpt><trkpt lat="42.0803295" lon="13.5906485"><ele>1009.0</ele><time>2026-05-02T12:46:20.003Z</time></trkpt><trkpt lat="42.0804116" lon="13.5906996"><ele>1009.0000000000001</ele><time>2026-05-02T12:46:22.003Z</time></trkpt><trkpt lat="42.0804935" lon="13.5907623"><ele>1009.0000000000001</ele><time>2026-05-02T12:46:24.003Z</time></trkpt><trkpt lat="42.0805768" lon="13.590839"><ele>1009.0</ele><time>2026-05-02T12:46:26.002Z</time></trkpt><trkpt lat="42.0806591" lon="13.5909209"><ele>1009.0</ele><time>2026-05-02T12:46:28.003Z</time></trkpt><trkpt lat="42.0807253" lon="13.591002"><ele>1008.9999999999999</ele><time>2026-05-02T12:46:30.002Z</time></trkpt><trkpt lat="42.0807684" lon="13.5910893"><ele>1009.0</ele><time>2026-05-02T12:46:32.003Z</time></trkpt><trkpt lat="42.0807828" lon="13.5912057"><ele>1009.0</ele><time>2026-05-02T12:46:35.003Z</time></trkpt><trkpt lat="42.0807261" lon="13.5912909"><ele>1009.0</ele><time>2026-05-02T12:46:38.003Z</time></trkpt><trkpt lat="42.0806582" lon="13.591269"><ele>1008.9999999999999</ele><time>2026-05-02T12:46:40.002Z</time></trkpt><trkpt lat="42.0806019" lon="13.5912017"><ele>1009.0</ele><time>2026-05-02T12:46:42.003Z</time></trkpt><trkpt lat="42.0805286" lon="13.5911397"><ele>1008.9999999999999</ele><time>2026-05-02T12:46:44.003Z</time></trkpt><trkpt lat="42.0804715" lon="13.5910982"><ele>1009.0</ele><time>2026-05-02T12:46:46.003Z</time></trkpt><trkpt lat="42.0803885" lon="13.5910383"><ele>1009.0</ele><time>2026-05-02T12:46:49.003Z</time></trkpt><trkpt lat="42.0803159" lon="13.5909971"><ele>1009.0</ele><time>2026-05-02T12:46:51.003Z</time></trkpt><trkpt lat="42.0802124" lon="13.5909087"><ele>1008.9999999999999</ele><time>2026-05-02T12:46:53.003Z</time></trkpt><trkpt lat="42.0801492" lon="13.5908587"><ele>1009.0</ele><time>2026-05-02T12:46:54.003Z</time></trkpt><trkpt lat="42.0800784" lon="13.5908047"><ele>1008.9999999999999</ele><time>2026-05-02T12:46:55.002Z</time></trkpt><trkpt lat="42.0800055" lon="13.5907456"><ele>1009.0</ele><time>2026-05-02T12:46:56.003Z</time></trkpt><trkpt lat="42.0799362" lon="13.590687"><ele>1009.0</ele><time>2026-05-02T12:46:57.003Z</time></trkpt><trkpt lat="42.0798725" lon="13.5906362"><ele>1009.0</ele><time>2026-05-02T12:46:58.003Z</time></trkpt><trkpt lat="42.0798105" lon="13.5905776"><ele>1008.9999999999999</ele><time>2026-05-02T12:46:59.003Z</time></trkpt><trkpt lat="42.0797588" lon="13.5905106"><ele>1009.0</ele><time>2026-05-02T12:47:00.003Z</time></trkpt><trkpt lat="42.0797169" lon="13.5904311"><ele>1004.1666666666666</ele><time>2026-05-02T12:47:01.003Z</time></trkpt><trkpt lat="42.0796931" lon="13.5903395"><ele>999.3333333333333</ele><time>2026-05-02T12:47:02.003Z</time></trkpt><trkpt lat="42.0796799" lon="13.590252"><ele>994.5</ele><time>2026-05-02T12:47:03.002Z</time></trkpt><trkpt lat="42.0796737" lon="13.5901643"><ele>989.6666666666667</ele><time>2026-05-02T12:47:04.003Z</time></trkpt><trkpt lat="42.0796704" lon="13.5900111"><ele>984.8333333333334</ele><time>2026-05-02T12:47:06.003Z</time></trkpt><trkpt lat="42.0796976" lon="13.5898431"><ele>980.0</ele><time>2026-05-02T12:47:08.003Z</time></trkpt><trkpt lat="42.0797214" lon="13.5897548"><ele>980.0000000000001</ele><time>2026-05-02T12:47:09.002Z</time></trkpt><trkpt lat="42.0797547" lon="13.5896786"><ele>980.0</ele><time>2026-05-02T12:47:10.002Z</time></trkpt><trkpt lat="42.0798021" lon="13.5895727"><ele>980.0</ele><time>2026-05-02T12:47:12.003Z</time></trkpt><trkpt lat="42.0798407" lon="13.5894795"><ele>980.0</ele><time>2026-05-02T12:47:14.003Z</time></trkpt><trkpt lat="42.0798976" lon="13.5893361"><ele>980.0000000000001</ele><time>2026-05-02T12:47:16.003Z</time></trkpt><trkpt lat="42.0799362" lon="13.5892512"><ele>980.0</ele><time>2026-05-02T12:47:17.003Z</time></trkpt><trkpt lat="42.0799774" lon="13.5891644"><ele>983.3333333333334</ele><time>2026-05-02T12:47:18.003Z</time></trkpt><trkpt lat="42.080026" lon="13.5890882"><ele>986.6666666666667</ele><time>2026-05-02T12:47:19.003Z</time></trkpt><trkpt lat="42.080086" lon="13.5890244"><ele>990.0</ele><time>2026-05-02T12:47:20.003Z</time></trkpt><trkpt lat="42.0801565" lon="13.5889697"><ele>993.3333333333333</ele><time>2026-05-02T12:47:21.003Z</time></trkpt><trkpt lat="42.080232" lon="13.5889128"><ele>996.6666666666666</ele><time>2026-05-02T12:47:22.003Z</time></trkpt><trkpt lat="42.080314" lon="13.5888466"><ele>1000.0</ele><time>2026-05-02T12:47:23.003Z</time></trkpt><trkpt lat="42.0804013" lon="13.5887816"><ele>1000.0</ele><time>2026-05-02T12:47:24.003Z</time></trkpt><trkpt lat="42.0804857" lon="13.5887135"><ele>1000.0</ele><time>2026-05-02T12:47:25.003Z</time></trkpt><trkpt lat="42.0805587" lon="13.5886554"><ele>1000.0</ele><time>2026-05-02T12:47:26.003Z</time></trkpt><trkpt lat="42.0806203" lon="13.5886105"><ele>1000.0</ele><time>2026-05-02T12:47:27.002Z</time></trkpt><trkpt lat="42.0807268" lon="13.5885574"><ele>1000.0</ele><time>2026-05-02T12:47:29.003Z</time></trkpt><trkpt lat="42.0808331" lon="13.5885575"><ele>999.1666666666666</ele><time>2026-05-02T12:47:31.003Z</time></trkpt><trkpt lat="42.0808986" lon="13.5885662"><ele>998.3333333333333</ele><time>2026-05-02T12:47:33.003Z</time></trkpt><trkpt lat="42.0809871" lon="13.5885874"><ele>997.5</ele><time>2026-05-02T12:47:35.003Z</time></trkpt><trkpt lat="42.0811017" lon="13.5886313"><ele>996.6666666666667</ele><time>2026-05-02T12:47:37.003Z</time></trkpt><trkpt lat="42.0811638" lon="13.5886587"><ele>995.8333333333334</ele><time>2026-05-02T12:47:38.003Z</time></trkpt><trkpt lat="42.0812532" lon="13.5887056"><ele>995.0</ele><time>2026-05-02T12:47:40.003Z</time></trkpt><trkpt lat="42.0813137" lon="13.5887336"><ele>995.0000000000001</ele><time>2026-05-02T12:47:42.003Z</time></trkpt><trkpt lat="42.0813633" lon="13.588617"><ele>995.0</ele><time>2026-05-02T12:47:55.003Z</time></trkpt><trkpt lat="42.0813507" lon="13.5884793"><ele>995.0</ele><time>2026-05-02T12:47:57.002Z</time></trkpt><trkpt lat="42.0813181" lon="13.5883687"><ele>995.0</ele><time>2026-05-02T12:47:59.003Z</time></trkpt><trkpt lat="42.0813344" lon="13.5882822"><ele>995.0000000000001</ele><time>2026-05-02T12:48:01.003Z</time></trkpt><trkpt lat="42.0812929" lon="13.5882181"><ele>995.0</ele><time>2026-05-02T12:48:05.003Z</time></trkpt><trkpt lat="42.0812832" lon="13.5883246"><ele>995.0</ele><time>2026-05-02T12:48:07.003Z</time></trkpt><trkpt lat="42.0813446" lon="13.5884824"><ele>995.0</ele><time>2026-05-02T12:48:09.003Z</time></trkpt><trkpt lat="42.0813605" lon="13.5886134"><ele>995.0</ele><time>2026-05-02T12:48:11.003Z</time></trkpt><trkpt lat="42.0813745" lon="13.5887138"><ele>995.0</ele><time>2026-05-02T12:48:13.003Z</time></trkpt><trkpt lat="42.0814443" lon="13.5887884"><ele>995.0</ele><time>2026-05-02T12:48:15.003Z</time></trkpt><trkpt lat="42.0815426" lon="13.5888467"><ele>997.0</ele><time>2026-05-02T12:48:17.003Z</time></trkpt><trkpt lat="42.081658" lon="13.5889055"><ele>999.0</ele><time>2026-05-02T12:48:19.003Z</time></trkpt><trkpt lat="42.0817572" lon="13.5889483"><ele>1001.0</ele><time>2026-05-02T12:48:21.002Z</time></trkpt><trkpt lat="42.0818368" lon="13.5889729"><ele>1003.0</ele><time>2026-05-02T12:50:09.002Z</time></trkpt><trkpt lat="42.0819025" lon="13.589007"><ele>1005.0</ele><time>2026-05-02T12:50:11.003Z</time></trkpt><trkpt lat="42.0820077" lon="13.5890378"><ele>1005.0</ele><time>2026-05-02T12:50:13.003Z</time></trkpt><trkpt lat="42.0821203" lon="13.5890715"><ele>1005.0</ele><time>2026-05-02T12:50:15.003Z</time></trkpt><trkpt lat="42.0821824" lon="13.5890983"><ele>1005.0</ele><time>2026-05-02T12:50:16.003Z</time></trkpt><trkpt lat="42.0822438" lon="13.5891279"><ele>1005.0</ele><time>2026-05-02T12:50:17.002Z</time></trkpt><trkpt lat="42.0823328" lon="13.5891556"><ele>1005.0</ele><time>2026-05-02T12:50:19.003Z</time></trkpt><trkpt lat="42.0823944" lon="13.5890699"><ele>1005.0</ele><time>2026-05-02T12:50:23.003Z</time></trkpt><trkpt lat="42.0824183" lon="13.5889476"><ele>1005.5</ele><time>2026-05-02T12:50:25.003Z</time></trkpt><trkpt lat="42.082435" lon="13.5888237"><ele>1006.0</ele><time>2026-05-02T12:50:27.003Z</time></trkpt><trkpt lat="42.0824663" lon="13.5887309"><ele>1006.5</ele><time>2026-05-02T12:50:30.003Z</time></trkpt><trkpt lat="42.0825316" lon="13.5886759"><ele>1007.0</ele><time>2026-05-02T12:50:38.003Z</time></trkpt><trkpt lat="42.0826084" lon="13.5886784"><ele>1007.5</ele><time>2026-05-02T12:50:40.003Z</time></trkpt><trkpt lat="42.0827024" lon="13.588701"><ele>1008.0</ele><time>2026-05-02T12:50:42.003Z</time></trkpt><trkpt lat="42.082797" lon="13.5887263"><ele>1008.0</ele><time>2026-05-02T12:50:44.002Z</time></trkpt><trkpt lat="42.0829119" lon="13.5887591"><ele>1008.0</ele><time>2026-05-02T12:50:46.003Z</time></trkpt><trkpt lat="42.0830244" lon="13.5887869"><ele>1008.0</ele><time>2026-05-02T12:50:48.003Z</time></trkpt><trkpt lat="42.083141" lon="13.5888031"><ele>1008.0</ele><time>2026-05-02T12:50:50.003Z</time></trkpt><trkpt lat="42.0832612" lon="13.5888235"><ele>1006.7142857142858</ele><time>2026-05-02T12:50:52.003Z</time></trkpt><trkpt lat="42.0833258" lon="13.5888335"><ele>1005.4285714285714</ele><time>2026-05-02T12:50:53.003Z</time></trkpt><trkpt lat="42.0833894" lon="13.5888379"><ele>1004.1428571428571</ele><time>2026-05-02T12:50:54.003Z</time></trkpt><trkpt lat="42.0834547" lon="13.5888392"><ele>1002.8571428571429</ele><time>2026-05-02T12:50:55.003Z</time></trkpt><trkpt lat="42.0835203" lon="13.5888368"><ele>1001.5714285714287</ele><time>2026-05-02T12:50:56.003Z</time></trkpt><trkpt lat="42.0835857" lon="13.5888355"><ele>1000.2857142857143</ele><time>2026-05-02T12:50:57.003Z</time></trkpt><trkpt lat="42.083651" lon="13.5888364"><ele>999.0</ele><time>2026-05-02T12:50:58.003Z</time></trkpt><trkpt lat="42.0837145" lon="13.5888383"><ele>999.0</ele><time>2026-05-02T12:50:59.003Z</time></trkpt><trkpt lat="42.0838406" lon="13.5888482"><ele>999.0</ele><time>2026-05-02T12:51:01.003Z</time></trkpt><trkpt lat="42.0839639" lon="13.5888652"><ele>999.0</ele><time>2026-05-02T12:51:03.003Z</time></trkpt><trkpt lat="42.0840697" lon="13.5888605"><ele>999.0</ele><time>2026-05-02T12:51:05.003Z</time></trkpt><trkpt lat="42.0841722" lon="13.5888352"><ele>996.5</ele><time>2026-05-02T12:51:07.003Z</time></trkpt><trkpt lat="42.0842778" lon="13.5888248"><ele>994.0</ele><time>2026-05-02T12:51:09.003Z</time></trkpt><trkpt lat="42.0843916" lon="13.5888202"><ele>991.5</ele><time>2026-05-02T12:51:11.003Z</time></trkpt><trkpt lat="42.0845169" lon="13.5888017"><ele>989.0</ele><time>2026-05-02T12:51:13.003Z</time></trkpt><trkpt lat="42.0846294" lon="13.5887878"><ele>989.0</ele><time>2026-05-02T12:51:15.003Z</time></trkpt><trkpt lat="42.0847179" lon="13.5887913"><ele>989.0000000000001</ele><time>2026-05-02T12:51:17.003Z</time></trkpt><trkpt lat="42.0847952" lon="13.5887299"><ele>989.0000000000001</ele><time>2026-05-02T12:51:20.003Z</time></trkpt><trkpt lat="42.0847518" lon="13.5886173"><ele>989.0</ele><time>2026-05-02T12:51:23.003Z</time></trkpt><trkpt lat="42.0846504" lon="13.5886312"><ele>989.0</ele><time>2026-05-02T12:51:25.003Z</time></trkpt><trkpt lat="42.0845257" lon="13.5886284"><ele>985.5000000000001</ele><time>2026-05-02T12:51:27.002Z</time></trkpt><trkpt lat="42.0844634" lon="13.5885862"><ele>982.0</ele><time>2026-05-02T12:51:28.003Z</time></trkpt><trkpt lat="42.0844039" lon="13.5885242"><ele>978.5</ele><time>2026-05-02T12:51:29.003Z</time></trkpt><trkpt lat="42.084341" lon="13.5884649"><ele>975.0</ele><time>2026-05-02T12:51:30.003Z</time></trkpt><trkpt lat="42.084278" lon="13.5884098"><ele>971.5000000000001</ele><time>2026-05-02T12:51:31.003Z</time></trkpt><trkpt lat="42.0842029" lon="13.58833"><ele>968.0</ele><time>2026-05-02T12:51:33.002Z</time></trkpt><trkpt lat="42.0841545" lon="13.5882306"><ele>968.0</ele><time>2026-05-02T12:51:36.002Z</time></trkpt><trkpt lat="42.084142" lon="13.5881312"><ele>967.9999999999999</ele><time>2026-05-02T12:51:39.003Z</time></trkpt><trkpt lat="42.0841677" lon="13.5880503"><ele>968.0</ele><time>2026-05-02T12:51:41.003Z</time></trkpt><trkpt lat="42.08422" lon="13.5879935"><ele>968.0</ele><time>2026-05-02T12:51:43.003Z</time></trkpt><trkpt lat="42.0842883" lon="13.5879569"><ele>967.9999999999999</ele><time>2026-05-02T12:51:45.003Z</time></trkpt><trkpt lat="42.0843529" lon="13.5879157"><ele>968.0</ele><time>2026-05-02T12:51:47.003Z</time></trkpt><trkpt lat="42.0844062" lon="13.5878679"><ele>968.0</ele><time>2026-05-02T12:51:49.003Z</time></trkpt><trkpt lat="42.0844533" lon="13.5878114"><ele>965.8333333333334</ele><time>2026-05-02T12:51:53.003Z</time></trkpt><trkpt lat="42.0845036" lon="13.5877246"><ele>963.6666666666667</ele><time>2026-05-02T12:55:11.003Z</time></trkpt><trkpt lat="42.0845412" lon="13.5876467"><ele>961.5</ele><time>2026-05-02T12:55:13.003Z</time></trkpt><trkpt lat="42.0845856" lon="13.5875706"><ele>959.3333333333333</ele><time>2026-05-02T12:55:15.003Z</time></trkpt><trkpt lat="42.0846363" lon="13.5874972"><ele>957.1666666666666</ele><time>2026-05-02T12:55:17.003Z</time></trkpt><trkpt lat="42.0846941" lon="13.5874238"><ele>955.0</ele><time>2026-05-02T12:55:19.003Z</time></trkpt><trkpt lat="42.0847645" lon="13.5873499"><ele>955.0</ele><time>2026-05-02T12:55:21.002Z</time></trkpt><trkpt lat="42.0848349" lon="13.5872646"><ele>955.0</ele><time>2026-05-02T12:55:23.003Z</time></trkpt><trkpt lat="42.0849391" lon="13.5871804"><ele>955.0</ele><time>2026-05-02T12:55:25.003Z</time></trkpt><trkpt lat="42.0850428" lon="13.5871199"><ele>955.0</ele><time>2026-05-02T12:55:27.003Z</time></trkpt><trkpt lat="42.0851437" lon="13.5870823"><ele>955.0</ele><time>2026-05-02T12:55:29.003Z</time></trkpt><trkpt lat="42.0852429" lon="13.5870566"><ele>954.2</ele><time>2026-05-02T12:55:31.003Z</time></trkpt><trkpt lat="42.0853449" lon="13.5870219"><ele>953.4</ele><time>2026-05-02T12:55:33.002Z</time></trkpt><trkpt lat="42.0854245" lon="13.5869587"><ele>952.5999999999999</ele><time>2026-05-02T12:55:35.003Z</time></trkpt><trkpt lat="42.085493" lon="13.5868642"><ele>951.8</ele><time>2026-05-02T12:55:37.003Z</time></trkpt><trkpt lat="42.0855273" lon="13.5867304"><ele>951.0</ele><time>2026-05-02T12:55:39.003Z</time></trkpt><trkpt lat="42.085497" lon="13.5865866"><ele>950.0</ele><time>2026-05-02T12:55:41.002Z</time></trkpt><trkpt lat="42.08546" lon="13.5865128"><ele>949.0</ele><time>2026-05-02T12:55:42.002Z</time></trkpt><trkpt lat="42.0854257" lon="13.5864289"><ele>948.0</ele><time>2026-05-02T12:55:43.003Z</time></trkpt><trkpt lat="42.0854002" lon="13.5863351"><ele>947.0</ele><time>2026-05-02T12:55:44.003Z</time></trkpt><trkpt lat="42.0853786" lon="13.5862361"><ele>946.0</ele><time>2026-05-02T12:55:45.003Z</time></trkpt><trkpt lat="42.0853619" lon="13.5861486"><ele>945.0</ele><time>2026-05-02T12:55:46.003Z</time></trkpt><trkpt lat="42.0853398" lon="13.5859952"><ele>944.8333333333334</ele><time>2026-05-02T12:55:48.003Z</time></trkpt><trkpt lat="42.0853507" lon="13.5858313"><ele>944.6666666666667</ele><time>2026-05-02T12:55:50.003Z</time></trkpt><trkpt lat="42.0853701" lon="13.5857477"><ele>944.5</ele><time>2026-05-02T12:55:51.003Z</time></trkpt><trkpt lat="42.0853949" lon="13.5856673"><ele>944.3333333333334</ele><time>2026-05-02T12:55:52.003Z</time></trkpt><trkpt lat="42.0854287" lon="13.5855886"><ele>944.1666666666667</ele><time>2026-05-02T12:55:53.003Z</time></trkpt><trkpt lat="42.0854625" lon="13.5855097"><ele>944.0</ele><time>2026-05-02T12:55:54.003Z</time></trkpt><trkpt lat="42.0854923" lon="13.5854237"><ele>943.6666666666667</ele><time>2026-05-02T12:55:55.003Z</time></trkpt><trkpt lat="42.085521" lon="13.5853326"><ele>943.3333333333334</ele><time>2026-05-02T12:55:56.003Z</time></trkpt><trkpt lat="42.085555" lon="13.5852469"><ele>943.0</ele><time>2026-05-02T12:55:57.003Z</time></trkpt><trkpt lat="42.0855906" lon="13.5851507"><ele>942.6666666666667</ele><time>2026-05-02T12:55:58.003Z</time></trkpt><trkpt lat="42.0856297" lon="13.5850456"><ele>942.3333333333334</ele><time>2026-05-02T12:55:59.003Z</time></trkpt><trkpt lat="42.0856706" lon="13.5849326"><ele>942.0</ele><time>2026-05-02T12:56:00.003Z</time></trkpt><trkpt lat="42.0857163" lon="13.5848177"><ele>942.0</ele><time>2026-05-02T12:56:01.003Z</time></trkpt><trkpt lat="42.0857583" lon="13.5847115"><ele>942.0</ele><time>2026-05-02T12:56:02.003Z</time></trkpt><trkpt lat="42.0857945" lon="13.5846257"><ele>942.0</ele><time>2026-05-02T12:56:03.002Z</time></trkpt><trkpt lat="42.0858586" lon="13.5845219"><ele>942.0</ele><time>2026-05-02T12:56:05.003Z</time></trkpt><trkpt lat="42.0859485" lon="13.5844163"><ele>942.0</ele><time>2026-05-02T12:56:07.003Z</time></trkpt><trkpt lat="42.0859973" lon="13.5843627"><ele>942.0</ele><time>2026-05-02T12:56:08.003Z</time></trkpt><trkpt lat="42.0860642" lon="13.5843272"><ele>946.4000000000001</ele><time>2026-05-02T12:56:10.003Z</time></trkpt><trkpt lat="42.086128" lon="13.5842786"><ele>950.8000000000001</ele><time>2026-05-02T12:56:13.003Z</time></trkpt><trkpt lat="42.0861204" lon="13.584171"><ele>955.2</ele><time>2026-05-02T12:56:15.002Z</time></trkpt><trkpt lat="42.0860817" lon="13.5840009"><ele>959.6</ele><time>2026-05-02T12:56:17.003Z</time></trkpt><trkpt lat="42.0860532" lon="13.5838802"><ele>964.0</ele><time>2026-05-02T12:56:18.003Z</time></trkpt><trkpt lat="42.0860233" lon="13.5837462"><ele>964.75</ele><time>2026-05-02T12:56:19.003Z</time></trkpt><trkpt lat="42.0859876" lon="13.5836035"><ele>965.5</ele><time>2026-05-02T12:56:20.003Z</time></trkpt><trkpt lat="42.0859411" lon="13.5834653"><ele>966.25</ele><time>2026-05-02T12:56:21.003Z</time></trkpt><trkpt lat="42.0858818" lon="13.5833337"><ele>967.0</ele><time>2026-05-02T12:56:22.003Z</time></trkpt><trkpt lat="42.0858157" lon="13.583201"><ele>965.25</ele><time>2026-05-02T12:56:23.003Z</time></trkpt><trkpt lat="42.0857454" lon="13.5830674"><ele>963.5</ele><time>2026-05-02T12:56:24.003Z</time></trkpt><trkpt lat="42.0856759" lon="13.5829312"><ele>961.75</ele><time>2026-05-02T12:56:25.003Z</time></trkpt><trkpt lat="42.0856092" lon="13.5827997"><ele>960.0</ele><time>2026-05-02T12:56:26.002Z</time></trkpt><trkpt lat="42.0855482" lon="13.5826733"><ele>960.0</ele><time>2026-05-02T12:56:27.003Z</time></trkpt><trkpt lat="42.085498" lon="13.5825226"><ele>960.0</ele><time>2026-05-02T12:56:28.003Z</time></trkpt><trkpt lat="42.0854495" lon="13.5823669"><ele>960.0</ele><time>2026-05-02T12:56:29.002Z</time></trkpt><trkpt lat="42.0854009" lon="13.582208"><ele>960.0</ele><time>2026-05-02T12:56:30.003Z</time></trkpt><trkpt lat="42.0853587" lon="13.582041"><ele>962.25</ele><time>2026-05-02T12:56:31.003Z</time></trkpt><trkpt lat="42.0853087" lon="13.581875"><ele>964.5</ele><time>2026-05-02T12:56:32.003Z</time></trkpt><trkpt lat="42.0852493" lon="13.581713"><ele>966.75</ele><time>2026-05-02T12:56:33.003Z</time></trkpt><trkpt lat="42.0851941" lon="13.5815576"><ele>969.0</ele><time>2026-05-02T12:56:34.003Z</time></trkpt><trkpt lat="42.0851383" lon="13.581404"><ele>969.0</ele><time>2026-05-02T12:56:35.003Z</time></trkpt><trkpt lat="42.0850885" lon="13.5812537"><ele>969.0000000000001</ele><time>2026-05-02T12:56:36.003Z</time></trkpt><trkpt lat="42.0850466" lon="13.5811211"><ele>969.0000000000001</ele><time>2026-05-02T12:56:37.003Z</time></trkpt><trkpt lat="42.0850076" lon="13.5809924"><ele>969.0</ele><time>2026-05-02T12:56:38.003Z</time></trkpt><trkpt lat="42.084969" lon="13.5808581"><ele>969.0</ele><time>2026-05-02T12:56:39.003Z</time></trkpt><trkpt lat="42.0849337" lon="13.5807354"><ele>970.0</ele><time>2026-05-02T12:56:40.003Z</time></trkpt><trkpt lat="42.0849059" lon="13.5806421"><ele>971.0</ele><time>2026-05-02T12:56:41.003Z</time></trkpt><trkpt lat="42.0848747" lon="13.5805216"><ele>972.0</ele><time>2026-05-02T12:56:43.003Z</time></trkpt><trkpt lat="42.0848517" lon="13.5804179"><ele>973.0</ele><time>2026-05-02T12:56:46.003Z</time></trkpt><trkpt lat="42.0848556" lon="13.5803314"><ele>974.0</ele><time>2026-05-02T12:56:48.003Z</time></trkpt><trkpt lat="42.0848386" lon="13.5802214"><ele>975.0</ele><time>2026-05-02T12:56:50.003Z</time></trkpt><trkpt lat="42.0848304" lon="13.5800978"><ele>975.5</ele><time>2026-05-02T12:56:52.003Z</time></trkpt><trkpt lat="42.0848311" lon="13.5799662"><ele>976.0</ele><time>2026-05-02T12:56:54.003Z</time></trkpt><trkpt lat="42.0848493" lon="13.5798433"><ele>976.5</ele><time>2026-05-02T12:56:56.003Z</time></trkpt><trkpt lat="42.0848772" lon="13.579734"><ele>977.0</ele><time>2026-05-02T12:56:58.003Z</time></trkpt><trkpt lat="42.084912" lon="13.5796419"><ele>977.5</ele><time>2026-05-02T12:57:00.003Z</time></trkpt><trkpt lat="42.0849604" lon="13.5795495"><ele>978.0</ele><time>2026-05-02T12:57:02.003Z</time></trkpt><trkpt lat="42.085012" lon="13.5794469"><ele>975.2</ele><time>2026-05-02T12:57:04.003Z</time></trkpt><trkpt lat="42.0850588" lon="13.5793697"><ele>972.4</ele><time>2026-05-02T12:57:06.003Z</time></trkpt><trkpt lat="42.0851163" lon="13.5792968"><ele>969.6000000000001</ele><time>2026-05-02T12:57:08.002Z</time></trkpt><trkpt lat="42.085183" lon="13.5792044"><ele>966.8000000000001</ele><time>2026-05-02T12:57:10.002Z</time></trkpt><trkpt lat="42.0852614" lon="13.5791027"><ele>964.0</ele><time>2026-05-02T12:57:12.003Z</time></trkpt><trkpt lat="42.0853436" lon="13.5790084"><ele>964.0</ele><time>2026-05-02T12:57:14.003Z</time></trkpt><trkpt lat="42.0854096" lon="13.5789183"><ele>964.0000000000001</ele><time>2026-05-02T12:57:16.003Z</time></trkpt><trkpt lat="42.085477" lon="13.5788039"><ele>964.0000000000001</ele><time>2026-05-02T12:57:18.003Z</time></trkpt><trkpt lat="42.0855528" lon="13.5786907"><ele>964.0</ele><time>2026-05-02T12:57:20.002Z</time></trkpt><trkpt lat="42.0856281" lon="13.5785699"><ele>964.0</ele><time>2026-05-02T12:57:22.003Z</time></trkpt><trkpt lat="42.0857031" lon="13.5784545"><ele>963.6</ele><time>2026-05-02T12:57:24.003Z</time></trkpt><trkpt lat="42.0857604" lon="13.5783256"><ele>963.2</ele><time>2026-05-02T12:57:26.003Z</time></trkpt><trkpt lat="42.0858241" lon="13.5781964"><ele>962.8000000000001</ele><time>2026-05-02T12:57:28.002Z</time></trkpt><trkpt lat="42.0858837" lon="13.578071"><ele>962.4000000000001</ele><time>2026-05-02T12:57:30.002Z</time></trkpt><trkpt lat="42.0859288" lon="13.5779362"><ele>962.0</ele><time>2026-05-02T12:57:32.002Z</time></trkpt><trkpt lat="42.085956" lon="13.5778215"><ele>959.0</ele><time>2026-05-02T12:57:34.003Z</time></trkpt><trkpt lat="42.0859835" lon="13.5777141"><ele>956.0</ele><time>2026-05-02T12:57:36.002Z</time></trkpt><trkpt lat="42.0860259" lon="13.577607"><ele>953.0</ele><time>2026-05-02T12:57:38.003Z</time></trkpt><trkpt lat="42.0860731" lon="13.577487"><ele>950.0</ele><time>2026-05-02T12:57:40.002Z</time></trkpt><trkpt lat="42.0861089" lon="13.577352"><ele>947.0</ele><time>2026-05-02T12:57:42.003Z</time></trkpt><trkpt lat="42.0861051" lon="13.5772257"><ele>947.0000000000001</ele><time>2026-05-02T12:57:44.003Z</time></trkpt><trkpt lat="42.0860623" lon="13.5771527"><ele>947.0</ele><time>2026-05-02T12:57:46.003Z</time></trkpt><trkpt lat="42.0859921" lon="13.5771293"><ele>947.0</ele><time>2026-05-02T12:57:48.003Z</time></trkpt><trkpt lat="42.0859125" lon="13.577097"><ele>947.0</ele><time>2026-05-02T12:57:50.003Z</time></trkpt><trkpt lat="42.0858354" lon="13.5770954"><ele>947.0000000000001</ele><time>2026-05-02T12:57:53.009Z</time></trkpt><trkpt lat="42.0857531" lon="13.5771141"><ele>947.0</ele><time>2026-05-02T12:58:02.002Z</time></trkpt><trkpt lat="42.0856739" lon="13.5771835"><ele>944.6666666666667</ele><time>2026-05-02T12:58:06.002Z</time></trkpt><trkpt lat="42.0856138" lon="13.577252"><ele>942.3333333333334</ele><time>2026-05-02T12:58:08.002Z</time></trkpt><trkpt lat="42.0855452" lon="13.5772538"><ele>940.0</ele><time>2026-05-02T12:58:14.003Z</time></trkpt><trkpt lat="42.0854633" lon="13.5772463"><ele>937.6666666666667</ele><time>2026-05-02T12:58:19.003Z</time></trkpt><trkpt lat="42.0853959" lon="13.5772566"><ele>935.3333333333334</ele><time>2026-05-02T12:58:21.003Z</time></trkpt><trkpt lat="42.0853246" lon="13.5772721"><ele>933.0</ele><time>2026-05-02T12:58:22.903Z</time></trkpt><trkpt lat="42.0852311" lon="13.5773151"><ele>933.0</ele><time>2026-05-02T12:58:25.005Z</time></trkpt><trkpt lat="42.0851638" lon="13.5773539"><ele>933.0</ele><time>2026-05-02T12:58:27.011Z</time></trkpt><trkpt lat="42.0850983" lon="13.5773657"><ele>933.0</ele><time>2026-05-02T12:58:27.95Z</time></trkpt><trkpt lat="42.0850117" lon="13.5773383"><ele>933.0</ele><time>2026-05-02T12:58:30.003Z</time></trkpt><trkpt lat="42.0849664" lon="13.5772366"><ele>933.0</ele><time>2026-05-02T12:58:32.003Z</time></trkpt><trkpt lat="42.0849662" lon="13.5771435"><ele>933.0</ele><time>2026-05-02T12:58:35.003Z</time></trkpt><trkpt lat="42.0849963" lon="13.5770613"><ele>930.5</ele><time>2026-05-02T12:58:52.003Z</time></trkpt><trkpt lat="42.0850388" lon="13.5769897"><ele>928.0</ele><time>2026-05-02T12:58:54.003Z</time></trkpt><trkpt lat="42.0851009" lon="13.5769178"><ele>925.5</ele><time>2026-05-02T12:58:57.003Z</time></trkpt><trkpt lat="42.0851757" lon="13.5768414"><ele>923.0</ele><time>2026-05-02T12:59:00.003Z</time></trkpt><trkpt lat="42.0852371" lon="13.5767753"><ele>920.5</ele><time>2026-05-02T12:59:02.003Z</time></trkpt><trkpt lat="42.085294" lon="13.5767164"><ele>918.0</ele><time>2026-05-02T12:59:04.003Z</time></trkpt><trkpt lat="42.0853384" lon="13.5766487"><ele>918.0</ele><time>2026-05-02T12:59:06.003Z</time></trkpt><trkpt lat="42.0853784" lon="13.5765651"><ele>918.0</ele><time>2026-05-02T12:59:07.945Z</time></trkpt><trkpt lat="42.0854238" lon="13.5764831"><ele>918.0</ele><time>2026-05-02T12:59:10.002Z</time></trkpt><trkpt lat="42.0853525" lon="13.576418"><ele>918.0</ele><time>2026-05-02T12:59:13.003Z</time></trkpt><trkpt lat="42.0852749" lon="13.5764321"><ele>918.0</ele><time>2026-05-02T12:59:16.004Z</time></trkpt><trkpt lat="42.0852057" lon="13.5764794"><ele>918.0</ele><time>2026-05-02T12:59:18.003Z</time></trkpt><trkpt lat="42.0851257" lon="13.5764816"><ele>918.0</ele><time>2026-05-02T12:59:20.003Z</time></trkpt><trkpt lat="42.0850141" lon="13.5764171"><ele>918.0</ele><time>2026-05-02T12:59:22.003Z</time></trkpt><trkpt lat="42.0849536" lon="13.57638"><ele>918.0</ele><time>2026-05-02T12:59:23.003Z</time></trkpt><trkpt lat="42.0848905" lon="13.5763493"><ele>918.0</ele><time>2026-05-02T12:59:24.003Z</time></trkpt><trkpt lat="42.0847978" lon="13.576315"><ele>918.0</ele><time>2026-05-02T12:59:26.003Z</time></trkpt><trkpt lat="42.0847119" lon="13.5762797"><ele>918.0</ele><time>2026-05-02T12:59:28.003Z</time></trkpt><trkpt lat="42.0846088" lon="13.576241"><ele>916.8333333333334</ele><time>2026-05-02T12:59:30.003Z</time></trkpt><trkpt lat="42.0845386" lon="13.5762304"><ele>915.6666666666667</ele><time>2026-05-02T12:59:32.003Z</time></trkpt><trkpt lat="42.0844574" lon="13.5762239"><ele>914.5</ele><time>2026-05-02T12:59:35.003Z</time></trkpt><trkpt lat="42.0843769" lon="13.5762221"><ele>913.3333333333334</ele><time>2026-05-02T12:59:37.006Z</time></trkpt><trkpt lat="42.084292" lon="13.5762034"><ele>912.1666666666667</ele><time>2026-05-02T12:59:39.003Z</time></trkpt><trkpt lat="42.0842211" lon="13.5761712"><ele>911.0</ele><time>2026-05-02T12:59:41.003Z</time></trkpt><trkpt lat="42.084148" lon="13.5761486"><ele>908.4285714285714</ele><time>2026-05-02T12:59:44.003Z</time></trkpt><trkpt lat="42.084081" lon="13.5761362"><ele>905.8571428571428</ele><time>2026-05-02T12:59:48.002Z</time></trkpt><trkpt lat="42.0840174" lon="13.5761188"><ele>903.2857142857142</ele><time>2026-05-02T12:59:54.003Z</time></trkpt><trkpt lat="42.0839458" lon="13.5760985"><ele>900.7142857142858</ele><time>2026-05-02T13:00:00.003Z</time></trkpt><trkpt lat="42.0838663" lon="13.5760884"><ele>898.1428571428571</ele><time>2026-05-02T13:00:03.003Z</time></trkpt><trkpt lat="42.0837902" lon="13.5760963"><ele>895.5714285714286</ele><time>2026-05-02T13:00:05.003Z</time></trkpt><trkpt lat="42.0837251" lon="13.5761006"><ele>893.0</ele><time>2026-05-02T13:00:07.003Z</time></trkpt><trkpt lat="42.0836358" lon="13.576066"><ele>893.0</ele><time>2026-05-02T13:00:09.002Z</time></trkpt><trkpt lat="42.0835733" lon="13.576017"><ele>893.0</ele><time>2026-05-02T13:00:11.006Z</time></trkpt><trkpt lat="42.0835129" lon="13.5759443"><ele>893.0</ele><time>2026-05-02T13:00:12.942Z</time></trkpt><trkpt lat="42.0834651" lon="13.575874"><ele>893.0</ele><time>2026-05-02T13:00:15.003Z</time></trkpt><trkpt lat="42.0834144" lon="13.575804"><ele>893.0</ele><time>2026-05-02T13:00:17.003Z</time></trkpt><trkpt lat="42.0833721" lon="13.5757257"><ele>893.0</ele><time>2026-05-02T13:00:19.003Z</time></trkpt><trkpt lat="42.0833365" lon="13.5756404"><ele>893.0</ele><time>2026-05-02T13:00:20.96Z</time></trkpt><trkpt lat="42.0832747" lon="13.5755283"><ele>894.4</ele><time>2026-05-02T13:00:22.923Z</time></trkpt><trkpt lat="42.0832255" lon="13.5754294"><ele>895.8</ele><time>2026-05-02T13:00:25.003Z</time></trkpt><trkpt lat="42.0831603" lon="13.5753251"><ele>897.2</ele><time>2026-05-02T13:00:27.003Z</time></trkpt><trkpt lat="42.0831158" lon="13.5752174"><ele>898.6</ele><time>2026-05-02T13:00:29.003Z</time></trkpt><trkpt lat="42.0830774" lon="13.5750654"><ele>900.0</ele><time>2026-05-02T13:00:31.003Z</time></trkpt><trkpt lat="42.0830425" lon="13.5749393"><ele>896.25</ele><time>2026-05-02T13:00:33.003Z</time></trkpt><trkpt lat="42.0830018" lon="13.5748085"><ele>892.5</ele><time>2026-05-02T13:00:35.003Z</time></trkpt><trkpt lat="42.0829571" lon="13.5746795"><ele>888.75</ele><time>2026-05-02T13:00:37.003Z</time></trkpt><trkpt lat="42.082905" lon="13.5745396"><ele>885.0</ele><time>2026-05-02T13:00:39.003Z</time></trkpt><trkpt lat="42.0828307" lon="13.5744042"><ele>883.8</ele><time>2026-05-02T13:00:41.003Z</time></trkpt><trkpt lat="42.0827635" lon="13.5742698"><ele>882.6</ele><time>2026-05-02T13:00:43.003Z</time></trkpt><trkpt lat="42.0827166" lon="13.5741762"><ele>881.4000000000001</ele><time>2026-05-02T13:00:45.003Z</time></trkpt><trkpt lat="42.0826703" lon="13.574102"><ele>880.2</ele><time>2026-05-02T13:00:47.003Z</time></trkpt><trkpt lat="42.0826327" lon="13.5740138"><ele>879.0</ele><time>2026-05-02T13:00:49.003Z</time></trkpt><trkpt lat="42.0825745" lon="13.5738882"><ele>879.0</ele><time>2026-05-02T13:00:51.003Z</time></trkpt><trkpt lat="42.0825373" lon="13.5738178"><ele>879.0</ele><time>2026-05-02T13:00:52.003Z</time></trkpt><trkpt lat="42.0824982" lon="13.5737422"><ele>879.0</ele><time>2026-05-02T13:00:53.002Z</time></trkpt><trkpt lat="42.0824562" lon="13.5736647"><ele>879.0</ele><time>2026-05-02T13:00:54.003Z</time></trkpt><trkpt lat="42.0824175" lon="13.5735956"><ele>879.0</ele><time>2026-05-02T13:00:55.003Z</time></trkpt><trkpt lat="42.0823526" lon="13.5734836"><ele>879.0</ele><time>2026-05-02T13:00:57.003Z</time></trkpt><trkpt lat="42.082313" lon="13.5734168"><ele>879.0</ele><time>2026-05-02T13:00:59.023Z</time></trkpt><trkpt lat="42.08225" lon="13.5733068"><ele>878.3333333333334</ele><time>2026-05-02T13:01:01.002Z</time></trkpt><trkpt lat="42.0822053" lon="13.5732182"><ele>877.6666666666667</ele><time>2026-05-02T13:01:03.003Z</time></trkpt><trkpt lat="42.0821549" lon="13.5731673"><ele>877.0</ele><time>2026-05-02T13:01:05.003Z</time></trkpt><trkpt lat="42.0820978" lon="13.5731119"><ele>876.3333333333334</ele><time>2026-05-02T13:01:07.003Z</time></trkpt><trkpt lat="42.0820332" lon="13.5730528"><ele>875.6666666666667</ele><time>2026-05-02T13:01:09.003Z</time></trkpt><trkpt lat="42.0819586" lon="13.5730044"><ele>875.0</ele><time>2026-05-02T13:01:11.003Z</time></trkpt><trkpt lat="42.0818606" lon="13.5729338"><ele>874.6</ele><time>2026-05-02T13:01:13.003Z</time></trkpt><trkpt lat="42.0817889" lon="13.5728484"><ele>874.2</ele><time>2026-05-02T13:01:15.003Z</time></trkpt><trkpt lat="42.0817173" lon="13.5727383"><ele>873.8</ele><time>2026-05-02T13:01:17.003Z</time></trkpt><trkpt lat="42.0816542" lon="13.5726156"><ele>873.4</ele><time>2026-05-02T13:01:19.003Z</time></trkpt><trkpt lat="42.0815926" lon="13.5725117"><ele>873.0</ele><time>2026-05-02T13:01:21.002Z</time></trkpt><trkpt lat="42.0815511" lon="13.5724008"><ele>873.0</ele><time>2026-05-02T13:01:23.003Z</time></trkpt><trkpt lat="42.0815031" lon="13.5722964"><ele>873.0</ele><time>2026-05-02T13:01:25.003Z</time></trkpt><trkpt lat="42.0814341" lon="13.572228"><ele>873.0</ele><time>2026-05-02T13:01:27.003Z</time></trkpt><trkpt lat="42.0814251" lon="13.5720825"><ele>873.0</ele><time>2026-05-02T13:01:30.003Z</time></trkpt><trkpt lat="42.0814571" lon="13.5720036"><ele>873.0</ele><time>2026-05-02T13:01:32.003Z</time></trkpt><trkpt lat="42.0814845" lon="13.5719209"><ele>873.0</ele><time>2026-05-02T13:01:34.003Z</time></trkpt><trkpt lat="42.081483" lon="13.5718242"><ele>871.4</ele><time>2026-05-02T13:01:36.003Z</time></trkpt><trkpt lat="42.0814156" lon="13.5717216"><ele>869.8</ele><time>2026-05-02T13:01:38.003Z</time></trkpt><trkpt lat="42.0813267" lon="13.5716185"><ele>868.2</ele><time>2026-05-02T13:01:40.003Z</time></trkpt><trkpt lat="42.0812377" lon="13.571513"><ele>866.6</ele><time>2026-05-02T13:01:42.003Z</time></trkpt><trkpt lat="42.0811586" lon="13.571466"><ele>865.0</ele><time>2026-05-02T13:01:44.003Z</time></trkpt><trkpt lat="42.0810873" lon="13.5714036"><ele>864.9999999999999</ele><time>2026-05-02T13:01:46.003Z</time></trkpt><trkpt lat="42.0810195" lon="13.571343"><ele>865.0</ele><time>2026-05-02T13:01:48.003Z</time></trkpt><trkpt lat="42.0809569" lon="13.5712858"><ele>865.0</ele><time>2026-05-02T13:01:50.003Z</time></trkpt><trkpt lat="42.0809041" lon="13.5712215"><ele>865.0</ele><time>2026-05-02T13:01:52.003Z</time></trkpt><trkpt lat="42.0808435" lon="13.5711419"><ele>864.9999999999999</ele><time>2026-05-02T13:01:54.003Z</time></trkpt><trkpt lat="42.0807814" lon="13.5710577"><ele>865.0</ele><time>2026-05-02T13:01:56.003Z</time></trkpt><trkpt lat="42.0807668" lon="13.5709744"><ele>866.9999999999999</ele><time>2026-05-02T13:01:57.003Z</time></trkpt><trkpt lat="42.080719" lon="13.5708225"><ele>869.0</ele><time>2026-05-02T13:01:59.003Z</time></trkpt><trkpt lat="42.0806846" lon="13.5707388"><ele>871.0</ele><time>2026-05-02T13:02:00.003Z</time></trkpt><trkpt lat="42.0806493" lon="13.5706416"><ele>873.0</ele><time>2026-05-02T13:02:01.003Z</time></trkpt><trkpt lat="42.0806115" lon="13.5705461"><ele>874.9999999999999</ele><time>2026-05-02T13:02:02.003Z</time></trkpt><trkpt lat="42.0805723" lon="13.5704558"><ele>877.0</ele><time>2026-05-02T13:02:03.002Z</time></trkpt><trkpt lat="42.0805343" lon="13.5703701"><ele>875.4999999999999</ele><time>2026-05-02T13:02:04.003Z</time></trkpt><trkpt lat="42.0804977" lon="13.5702825"><ele>874.0</ele><time>2026-05-02T13:02:05.003Z</time></trkpt><trkpt lat="42.0804627" lon="13.5701725"><ele>872.5</ele><time>2026-05-02T13:02:06.003Z</time></trkpt><trkpt lat="42.0804374" lon="13.5700619"><ele>871.0</ele><time>2026-05-02T13:02:07.003Z</time></trkpt><trkpt lat="42.0804143" lon="13.5699601"><ele>869.4999999999999</ele><time>2026-05-02T13:02:08.003Z</time></trkpt><trkpt lat="42.0803929" lon="13.5698667"><ele>868.0</ele><time>2026-05-02T13:02:09.003Z</time></trkpt><trkpt lat="42.0803677" lon="13.5697798"><ele>868.0</ele><time>2026-05-02T13:02:10.003Z</time></trkpt><trkpt lat="42.0803503" lon="13.5696951"><ele>868.0</ele><time>2026-05-02T13:02:11.002Z</time></trkpt><trkpt lat="42.0803395" lon="13.5696109"><ele>868.0</ele><time>2026-05-02T13:02:12.003Z</time></trkpt><trkpt lat="42.0803231" lon="13.5694522"><ele>868.0</ele><time>2026-05-02T13:02:14.002Z</time></trkpt><trkpt lat="42.0803234" lon="13.5693029"><ele>868.0</ele><time>2026-05-02T13:02:16.003Z</time></trkpt><trkpt lat="42.0802961" lon="13.5691638"><ele>866.1666666666666</ele><time>2026-05-02T13:02:18.003Z</time></trkpt><trkpt lat="42.0802369" lon="13.5690117"><ele>864.3333333333333</ele><time>2026-05-02T13:02:20.002Z</time></trkpt><trkpt lat="42.0801993" lon="13.5689309"><ele>862.5</ele><time>2026-05-02T13:02:21.003Z</time></trkpt><trkpt lat="42.0801632" lon="13.5688459"><ele>860.6666666666667</ele><time>2026-05-02T13:02:22.003Z</time></trkpt><trkpt lat="42.0801292" lon="13.568757"><ele>858.8333333333334</ele><time>2026-05-02T13:02:23.003Z</time></trkpt><trkpt lat="42.0800977" lon="13.5686665"><ele>857.0</ele><time>2026-05-02T13:02:24.002Z</time></trkpt><trkpt lat="42.0800672" lon="13.5685724"><ele>854.8333333333334</ele><time>2026-05-02T13:02:25.003Z</time></trkpt><trkpt lat="42.0800397" lon="13.5684689"><ele>852.6666666666667</ele><time>2026-05-02T13:02:26.003Z</time></trkpt><trkpt lat="42.0800256" lon="13.5683504"><ele>850.5</ele><time>2026-05-02T13:02:27.002Z</time></trkpt><trkpt lat="42.0800128" lon="13.5682417"><ele>848.3333333333333</ele><time>2026-05-02T13:02:28.003Z</time></trkpt><trkpt lat="42.080004" lon="13.5681358"><ele>846.1666666666666</ele><time>2026-05-02T13:02:29.003Z</time></trkpt><trkpt lat="42.0799999" lon="13.5680364"><ele>844.0</ele><time>2026-05-02T13:02:30.003Z</time></trkpt><trkpt lat="42.080008" lon="13.567937"><ele>842.6666666666666</ele><time>2026-05-02T13:02:31.003Z</time></trkpt><trkpt lat="42.0800178" lon="13.5678422"><ele>841.3333333333333</ele><time>2026-05-02T13:02:32.003Z</time></trkpt><trkpt lat="42.0800488" lon="13.5677474"><ele>840.0</ele><time>2026-05-02T13:02:33.003Z</time></trkpt><trkpt lat="42.0800654" lon="13.5676455"><ele>838.6666666666667</ele><time>2026-05-02T13:02:34.002Z</time></trkpt><trkpt lat="42.0800827" lon="13.5675473"><ele>837.3333333333334</ele><time>2026-05-02T13:02:35.003Z</time></trkpt><trkpt lat="42.0801155" lon="13.5674647"><ele>836.0</ele><time>2026-05-02T13:02:36.003Z</time></trkpt><trkpt lat="42.0801603" lon="13.5673714"><ele>836.0000000000001</ele><time>2026-05-02T13:02:37.003Z</time></trkpt><trkpt lat="42.0802146" lon="13.5672758"><ele>836.0</ele><time>2026-05-02T13:02:38.003Z</time></trkpt><trkpt lat="42.0802775" lon="13.5671842"><ele>836.0</ele><time>2026-05-02T13:02:39.003Z</time></trkpt><trkpt lat="42.0803389" lon="13.5670992"><ele>836.0</ele><time>2026-05-02T13:02:40.003Z</time></trkpt><trkpt lat="42.0803983" lon="13.5670161"><ele>836.0000000000001</ele><time>2026-05-02T13:02:41.002Z</time></trkpt><trkpt lat="42.0804591" lon="13.566942"><ele>836.0</ele><time>2026-05-02T13:02:42.003Z</time></trkpt><trkpt lat="42.0805102" lon="13.5668867"><ele>836.4</ele><time>2026-05-02T13:02:43.003Z</time></trkpt><trkpt lat="42.0805715" lon="13.5667951"><ele>836.8</ele><time>2026-05-02T13:02:45.003Z</time></trkpt><trkpt lat="42.0805765" lon="13.5666722"><ele>837.1999999999999</ele><time>2026-05-02T13:02:47.003Z</time></trkpt><trkpt lat="42.0805454" lon="13.5665506"><ele>837.5999999999999</ele><time>2026-05-02T13:02:49.003Z</time></trkpt><trkpt lat="42.0804843" lon="13.5664162"><ele>838.0</ele><time>2026-05-02T13:02:51.003Z</time></trkpt><trkpt lat="42.0804634" lon="13.5663356"><ele>837.9999999999999</ele><time>2026-05-02T13:02:52.002Z</time></trkpt><trkpt lat="42.0804543" lon="13.5661764"><ele>838.0</ele><time>2026-05-02T13:02:54.003Z</time></trkpt><trkpt lat="42.080458" lon="13.5660185"><ele>838.0</ele><time>2026-05-02T13:02:56.003Z</time></trkpt><trkpt lat="42.0804393" lon="13.565931"><ele>838.0</ele><time>2026-05-02T13:04:05.003Z</time></trkpt><trkpt lat="42.0804293" lon="13.5658464"><ele>837.9999999999999</ele><time>2026-05-02T13:16:32.003Z</time></trkpt><trkpt lat="42.0804166" lon="13.5657575"><ele>838.0</ele><time>2026-05-02T13:16:34.003Z</time></trkpt><trkpt lat="42.0803887" lon="13.565627"><ele>838.0</ele><time>2026-05-02T13:16:36.003Z</time></trkpt><trkpt lat="42.0803245" lon="13.5654642"><ele>838.0</ele><time>2026-05-02T13:16:38.003Z</time></trkpt><trkpt lat="42.0802867" lon="13.5653669"><ele>838.0</ele><time>2026-05-02T13:16:39.003Z</time></trkpt><trkpt lat="42.0802437" lon="13.5652668"><ele>838.0</ele><time>2026-05-02T13:16:40.003Z</time></trkpt><trkpt lat="42.0802138" lon="13.5651665"><ele>838.0</ele><time>2026-05-02T13:16:41.003Z</time></trkpt><trkpt lat="42.0801817" lon="13.5650692"><ele>835.9999999999999</ele><time>2026-05-02T13:16:42.003Z</time></trkpt><trkpt lat="42.0801498" lon="13.5649735"><ele>834.0</ele><time>2026-05-02T13:16:43.003Z</time></trkpt><trkpt lat="42.0801189" lon="13.5648753"><ele>832.0</ele><time>2026-05-02T13:16:44.003Z</time></trkpt><trkpt lat="42.0800844" lon="13.5647774"><ele>830.0</ele><time>2026-05-02T13:16:45.003Z</time></trkpt><trkpt lat="42.080056" lon="13.5646807"><ele>827.9999999999999</ele><time>2026-05-02T13:16:46.003Z</time></trkpt><trkpt lat="42.0800362" lon="13.5645832"><ele>826.0</ele><time>2026-05-02T13:16:47.003Z</time></trkpt><trkpt lat="42.0800275" lon="13.5644763"><ele>824.4</ele><time>2026-05-02T13:16:48.003Z</time></trkpt><trkpt lat="42.0800257" lon="13.5643585"><ele>822.8</ele><time>2026-05-02T13:16:49.002Z</time></trkpt><trkpt lat="42.0800233" lon="13.5642298"><ele>821.1999999999999</ele><time>2026-05-02T13:16:50.003Z</time></trkpt><trkpt lat="42.0800217" lon="13.5641012"><ele>819.5999999999999</ele><time>2026-05-02T13:16:51.002Z</time></trkpt><trkpt lat="42.0800192" lon="13.5639771"><ele>818.0</ele><time>2026-05-02T13:16:52.003Z</time></trkpt><trkpt lat="42.0800154" lon="13.5638431"><ele>818.0</ele><time>2026-05-02T13:16:53.003Z</time></trkpt><trkpt lat="42.0800118" lon="13.5637026"><ele>818.0</ele><time>2026-05-02T13:16:54.003Z</time></trkpt><trkpt lat="42.080009" lon="13.5635593"><ele>818.0</ele><time>2026-05-02T13:16:55.003Z</time></trkpt><trkpt lat="42.0800009" lon="13.5634336"><ele>818.0</ele><time>2026-05-02T13:16:56.003Z</time></trkpt><trkpt lat="42.0799918" lon="13.5633264"><ele>818.0</ele><time>2026-05-02T13:16:57.003Z</time></trkpt><trkpt lat="42.0799866" lon="13.5632307"><ele>817.8333333333334</ele><time>2026-05-02T13:16:58.003Z</time></trkpt><trkpt lat="42.079989" lon="13.5631343"><ele>817.6666666666667</ele><time>2026-05-02T13:16:59.003Z</time></trkpt><trkpt lat="42.0799912" lon="13.5630419"><ele>817.5</ele><time>2026-05-02T13:17:00.003Z</time></trkpt><trkpt lat="42.0800021" lon="13.5629454"><ele>817.3333333333333</ele><time>2026-05-02T13:17:01.003Z</time></trkpt><trkpt lat="42.0800164" lon="13.5628526"><ele>817.1666666666666</ele><time>2026-05-02T13:17:02.003Z</time></trkpt><trkpt lat="42.0800455" lon="13.5627104"><ele>817.0</ele><time>2026-05-02T13:17:04.003Z</time></trkpt><trkpt lat="42.080051" lon="13.5625795"><ele>814.75</ele><time>2026-05-02T13:17:06.002Z</time></trkpt><trkpt lat="42.0800204" lon="13.5624405"><ele>812.5</ele><time>2026-05-02T13:17:08.003Z</time></trkpt><trkpt lat="42.0799668" lon="13.5623013"><ele>810.25</ele><time>2026-05-02T13:17:10.003Z</time></trkpt><trkpt lat="42.0799105" lon="13.5621738"><ele>808.0</ele><time>2026-05-02T13:17:12.003Z</time></trkpt><trkpt lat="42.0798623" lon="13.5620231"><ele>811.1666666666666</ele><time>2026-05-02T13:17:14.003Z</time></trkpt><trkpt lat="42.0798481" lon="13.5619348"><ele>814.3333333333333</ele><time>2026-05-02T13:17:15.003Z</time></trkpt><trkpt lat="42.0798408" lon="13.5618334"><ele>817.5</ele><time>2026-05-02T13:17:16.003Z</time></trkpt><trkpt lat="42.0798409" lon="13.5617147"><ele>820.6666666666667</ele><time>2026-05-02T13:17:17.003Z</time></trkpt><trkpt lat="42.0798444" lon="13.5615903"><ele>823.8333333333334</ele><time>2026-05-02T13:17:18.003Z</time></trkpt><trkpt lat="42.0798563" lon="13.5614757"><ele>827.0</ele><time>2026-05-02T13:17:19.003Z</time></trkpt><trkpt lat="42.0798841" lon="13.5613774"><ele>827.0000000000001</ele><time>2026-05-02T13:17:20.003Z</time></trkpt><trkpt lat="42.0799238" lon="13.5612954"><ele>827.0</ele><time>2026-05-02T13:17:21.003Z</time></trkpt><trkpt lat="42.0799723" lon="13.5612168"><ele>827.0</ele><time>2026-05-02T13:17:22.002Z</time></trkpt><trkpt lat="42.0800255" lon="13.5611391"><ele>827.0</ele><time>2026-05-02T13:17:23.003Z</time></trkpt><trkpt lat="42.0800687" lon="13.5610686"><ele>827.0000000000001</ele><time>2026-05-02T13:17:24.003Z</time></trkpt><trkpt lat="42.0801178" lon="13.5609248"><ele>827.0</ele><time>2026-05-02T13:17:26.003Z</time></trkpt><trkpt lat="42.0801167" lon="13.5607594"><ele>823.5000000000001</ele><time>2026-05-02T13:17:28.003Z</time></trkpt><trkpt lat="42.080096" lon="13.5606612"><ele>820.0</ele><time>2026-05-02T13:17:29.002Z</time></trkpt><trkpt lat="42.0800678" lon="13.560555"><ele>816.5</ele><time>2026-05-02T13:17:30.002Z</time></trkpt><trkpt lat="42.0800321" lon="13.5604457"><ele>813.0</ele><time>2026-05-02T13:17:31.003Z</time></trkpt><trkpt lat="42.0799916" lon="13.5603332"><ele>809.5000000000001</ele><time>2026-05-02T13:17:32.003Z</time></trkpt><trkpt lat="42.0799502" lon="13.5602201"><ele>806.0</ele><time>2026-05-02T13:17:33.003Z</time></trkpt><trkpt lat="42.0799139" lon="13.560126"><ele>806.0000000000001</ele><time>2026-05-02T13:17:34.003Z</time></trkpt><trkpt lat="42.0798798" lon="13.5600533"><ele>806.0</ele><time>2026-05-02T13:17:35.003Z</time></trkpt><trkpt lat="42.0797992" lon="13.5599206"><ele>806.0</ele><time>2026-05-02T13:17:37.003Z</time></trkpt><trkpt lat="42.0797532" lon="13.5598507"><ele>806.0</ele><time>2026-05-02T13:17:38.003Z</time></trkpt><trkpt lat="42.0797099" lon="13.5597789"><ele>806.0000000000001</ele><time>2026-05-02T13:17:39.003Z</time></trkpt><trkpt lat="42.0796696" lon="13.5597048"><ele>806.0</ele><time>2026-05-02T13:17:40.003Z</time></trkpt><trkpt lat="42.0796311" lon="13.5596298"><ele>806.0</ele><time>2026-05-02T13:17:41.003Z</time></trkpt><trkpt lat="42.0795938" lon="13.5595533"><ele>806.0</ele><time>2026-05-02T13:17:42.002Z</time></trkpt><trkpt lat="42.0795556" lon="13.5594771"><ele>806.0</ele><time>2026-05-02T13:17:43.003Z</time></trkpt><trkpt lat="42.0795156" lon="13.5594022"><ele>806.0</ele><time>2026-05-02T13:17:44.003Z</time></trkpt><trkpt lat="42.0794772" lon="13.559326"><ele>806.0</ele><time>2026-05-02T13:17:45.002Z</time></trkpt><trkpt lat="42.0794388" lon="13.5592472"><ele>806.0</ele><time>2026-05-02T13:17:46.003Z</time></trkpt><trkpt lat="42.0793983" lon="13.5591608"><ele>806.0</ele><time>2026-05-02T13:17:47.002Z</time></trkpt><trkpt lat="42.0793578" lon="13.5590636"><ele>802.3333333333334</ele><time>2026-05-02T13:17:48.003Z</time></trkpt><trkpt lat="42.0793173" lon="13.5589658"><ele>798.6666666666667</ele><time>2026-05-02T13:17:49.003Z</time></trkpt><trkpt lat="42.0792705" lon="13.5588738"><ele>795.0</ele><time>2026-05-02T13:17:50.003Z</time></trkpt><trkpt lat="42.0792158" lon="13.5587775"><ele>791.3333333333333</ele><time>2026-05-02T13:17:51.003Z</time></trkpt><trkpt lat="42.0791562" lon="13.5586825"><ele>787.6666666666666</ele><time>2026-05-02T13:17:52.003Z</time></trkpt><trkpt lat="42.0790939" lon="13.5585858"><ele>784.0</ele><time>2026-05-02T13:17:53.003Z</time></trkpt><trkpt lat="42.0790314" lon="13.5584847"><ele>784.0</ele><time>2026-05-02T13:17:54.003Z</time></trkpt><trkpt lat="42.0789688" lon="13.558381"><ele>784.0</ele><time>2026-05-02T13:17:55.003Z</time></trkpt><trkpt lat="42.0789096" lon="13.5582702"><ele>784.0</ele><time>2026-05-02T13:17:56.003Z</time></trkpt><trkpt lat="42.0788564" lon="13.5581612"><ele>784.0</ele><time>2026-05-02T13:17:57.003Z</time></trkpt><trkpt lat="42.0788088" lon="13.5580588"><ele>784.0</ele><time>2026-05-02T13:17:58.003Z</time></trkpt><trkpt lat="42.0787594" lon="13.5579539"><ele>780.0</ele><time>2026-05-02T13:17:59.002Z</time></trkpt><trkpt lat="42.0787088" lon="13.5578451"><ele>776.0</ele><time>2026-05-02T13:18:00.003Z</time></trkpt><trkpt lat="42.0786597" lon="13.5577321"><ele>772.0</ele><time>2026-05-02T13:18:01.002Z</time></trkpt><trkpt lat="42.0786134" lon="13.5576142"><ele>768.0</ele><time>2026-05-02T13:18:02.003Z</time></trkpt><trkpt lat="42.0785674" lon="13.5574937"><ele>764.0</ele><time>2026-05-02T13:18:03.003Z</time></trkpt><trkpt lat="42.078515" lon="13.5573706"><ele>764.0</ele><time>2026-05-02T13:18:04.002Z</time></trkpt><trkpt lat="42.0784592" lon="13.5572453"><ele>764.0</ele><time>2026-05-02T13:18:05.003Z</time></trkpt><trkpt lat="42.0784058" lon="13.5571262"><ele>764.0</ele><time>2026-05-02T13:18:06.003Z</time></trkpt><trkpt lat="42.078362" lon="13.55703"><ele>764.0</ele><time>2026-05-02T13:18:07.003Z</time></trkpt><trkpt lat="42.0783273" lon="13.5569569"><ele>764.0</ele><time>2026-05-02T13:18:08.003Z</time></trkpt><trkpt lat="42.0782936" lon="13.5568834"><ele>764.0</ele><time>2026-05-02T13:18:09.002Z</time></trkpt><trkpt lat="42.0782402" lon="13.5567343"><ele>765.5</ele><time>2026-05-02T13:18:11.003Z</time></trkpt><trkpt lat="42.0782225" lon="13.5566518"><ele>767.0</ele><time>2026-05-02T13:18:12.003Z</time></trkpt><trkpt lat="42.0782089" lon="13.5565584"><ele>768.5</ele><time>2026-05-02T13:18:13.003Z</time></trkpt><trkpt lat="42.0781947" lon="13.5564563"><ele>770.0</ele><time>2026-05-02T13:18:14.002Z</time></trkpt><trkpt lat="42.0781762" lon="13.5563454"><ele>771.5000000000001</ele><time>2026-05-02T13:18:15.003Z</time></trkpt><trkpt lat="42.0781567" lon="13.5562291"><ele>773.0</ele><time>2026-05-02T13:18:16.003Z</time></trkpt><trkpt lat="42.0781371" lon="13.5561217"><ele>773.0000000000001</ele><time>2026-05-02T13:18:17.003Z</time></trkpt><trkpt lat="42.0781137" lon="13.5560219"><ele>773.0</ele><time>2026-05-02T13:18:18.003Z</time></trkpt><trkpt lat="42.0780751" lon="13.5559229"><ele>773.0</ele><time>2026-05-02T13:18:19.003Z</time></trkpt><trkpt lat="42.0780253" lon="13.5558311"><ele>773.0</ele><time>2026-05-02T13:18:20.003Z</time></trkpt><trkpt lat="42.0779774" lon="13.555748"><ele>773.0000000000001</ele><time>2026-05-02T13:18:21.002Z</time></trkpt><trkpt lat="42.0779339" lon="13.5556652"><ele>773.0</ele><time>2026-05-02T13:18:22.003Z</time></trkpt><trkpt lat="42.07789" lon="13.5555713"><ele>773.0</ele><time>2026-05-02T13:18:23.003Z</time></trkpt><trkpt lat="42.0778507" lon="13.5554667"><ele>773.0</ele><time>2026-05-02T13:18:24.003Z</time></trkpt><trkpt lat="42.0778261" lon="13.5553715"><ele>773.0</ele><time>2026-05-02T13:18:25.003Z</time></trkpt><trkpt lat="42.077818" lon="13.555207"><ele>773.0</ele><time>2026-05-02T13:18:27.003Z</time></trkpt><trkpt lat="42.0778388" lon="13.5550536"><ele>773.0</ele><time>2026-05-02T13:18:29.003Z</time></trkpt><trkpt lat="42.0778142" lon="13.5548969"><ele>770.5000000000001</ele><time>2026-05-02T13:18:31.003Z</time></trkpt><trkpt lat="42.0777847" lon="13.5548092"><ele>768.0</ele><time>2026-05-02T13:18:32.003Z</time></trkpt><trkpt lat="42.0777476" lon="13.5547181"><ele>765.5</ele><time>2026-05-02T13:18:33.002Z</time></trkpt><trkpt lat="42.0776997" lon="13.5546266"><ele>763.0</ele><time>2026-05-02T13:18:34.003Z</time></trkpt><trkpt lat="42.0776458" lon="13.5545364"><ele>760.5</ele><time>2026-05-02T13:18:35.003Z</time></trkpt><trkpt lat="42.0775833" lon="13.5544564"><ele>758.0</ele><time>2026-05-02T13:18:36.003Z</time></trkpt><trkpt lat="42.0775142" lon="13.5543881"><ele>758.6666666666666</ele><time>2026-05-02T13:18:37.003Z</time></trkpt><trkpt lat="42.0774385" lon="13.5543179"><ele>759.3333333333333</ele><time>2026-05-02T13:18:38.003Z</time></trkpt><trkpt lat="42.0773635" lon="13.5542547"><ele>760.0</ele><time>2026-05-02T13:18:39.003Z</time></trkpt><trkpt lat="42.0772977" lon="13.5541966"><ele>760.6666666666666</ele><time>2026-05-02T13:18:40.003Z</time></trkpt><trkpt lat="42.0772384" lon="13.5541206"><ele>761.3333333333334</ele><time>2026-05-02T13:18:41.003Z</time></trkpt><trkpt lat="42.0771897" lon="13.5540201"><ele>762.0</ele><time>2026-05-02T13:18:42.003Z</time></trkpt><trkpt lat="42.0771578" lon="13.5539176"><ele>762.0</ele><time>2026-05-02T13:18:43.003Z</time></trkpt><trkpt lat="42.0771367" lon="13.5538195"><ele>762.0</ele><time>2026-05-02T13:18:44.003Z</time></trkpt><trkpt lat="42.077119" lon="13.5537225"><ele>762.0</ele><time>2026-05-02T13:18:45.003Z</time></trkpt><trkpt lat="42.077091" lon="13.5536399"><ele>762.0</ele><time>2026-05-02T13:18:46.003Z</time></trkpt><trkpt lat="42.0770274" lon="13.5535192"><ele>762.0</ele><time>2026-05-02T13:18:48.002Z</time></trkpt><trkpt lat="42.0770141" lon="13.5534138"><ele>762.0</ele><time>2026-05-02T13:18:50.003Z</time></trkpt><trkpt lat="42.0770697" lon="13.5533725"><ele>759.0</ele><time>2026-05-02T13:18:52.003Z</time></trkpt><trkpt lat="42.0771987" lon="13.5533364"><ele>756.0</ele><time>2026-05-02T13:18:54.003Z</time></trkpt><trkpt lat="42.0772912" lon="13.5532949"><ele>753.0</ele><time>2026-05-02T13:18:55.003Z</time></trkpt><trkpt lat="42.0773889" lon="13.5532464"><ele>750.0</ele><time>2026-05-02T13:18:56.003Z</time></trkpt><trkpt lat="42.0774743" lon="13.5531836"><ele>747.0</ele><time>2026-05-02T13:18:57.002Z</time></trkpt><trkpt lat="42.0775298" lon="13.5530776"><ele>747.0</ele><time>2026-05-02T13:18:58.002Z</time></trkpt><trkpt lat="42.0775637" lon="13.5529444"><ele>747.0</ele><time>2026-05-02T13:18:59.003Z</time></trkpt><trkpt lat="42.0775727" lon="13.5527973"><ele>747.0</ele><time>2026-05-02T13:19:00.003Z</time></trkpt><trkpt lat="42.0775493" lon="13.5526474"><ele>747.0</ele><time>2026-05-02T13:19:01.003Z</time></trkpt><trkpt lat="42.0775049" lon="13.5524981"><ele>747.0</ele><time>2026-05-02T13:19:02.002Z</time></trkpt><trkpt lat="42.0774613" lon="13.5523443"><ele>747.0</ele><time>2026-05-02T13:19:03.002Z</time></trkpt><trkpt lat="42.0774222" lon="13.5521991"><ele>747.0</ele><time>2026-05-02T13:19:04.002Z</time></trkpt><trkpt lat="42.0773855" lon="13.5520714"><ele>747.0</ele><time>2026-05-02T13:19:05.003Z</time></trkpt><trkpt lat="42.0773512" lon="13.5519623"><ele>747.0</ele><time>2026-05-02T13:19:06.002Z</time></trkpt><trkpt lat="42.0773186" lon="13.5518581"><ele>747.0</ele><time>2026-05-02T13:19:07.002Z</time></trkpt><trkpt lat="42.0772859" lon="13.5517473"><ele>747.0</ele><time>2026-05-02T13:19:08.003Z</time></trkpt><trkpt lat="42.0772473" lon="13.5516292"><ele>747.0</ele><time>2026-05-02T13:19:09.003Z</time></trkpt><trkpt lat="42.077192" lon="13.5515098"><ele>747.0</ele><time>2026-05-02T13:19:10.003Z</time></trkpt><trkpt lat="42.0771231" lon="13.5513934"><ele>747.0</ele><time>2026-05-02T13:19:11.003Z</time></trkpt><trkpt lat="42.0770397" lon="13.5512831"><ele>747.0</ele><time>2026-05-02T13:19:12.003Z</time></trkpt><trkpt lat="42.0769416" lon="13.5511825"><ele>745.5</ele><time>2026-05-02T13:19:13.003Z</time></trkpt><trkpt lat="42.0768337" lon="13.5510937"><ele>744.0</ele><time>2026-05-02T13:19:14.003Z</time></trkpt><trkpt lat="42.0767295" lon="13.5510142"><ele>742.5</ele><time>2026-05-02T13:19:15.003Z</time></trkpt><trkpt lat="42.0766395" lon="13.5509331"><ele>741.0</ele><time>2026-05-02T13:19:16.003Z</time></trkpt><trkpt lat="42.076578" lon="13.5508353"><ele>741.0</ele><time>2026-05-02T13:19:17.003Z</time></trkpt><trkpt lat="42.0765522" lon="13.5507191"><ele>741.0</ele><time>2026-05-02T13:19:18.003Z</time></trkpt><trkpt lat="42.0765626" lon="13.5506022"><ele>741.0</ele><time>2026-05-02T13:19:19.003Z</time></trkpt><trkpt lat="42.0766002" lon="13.5504977"><ele>741.0</ele><time>2026-05-02T13:19:20.003Z</time></trkpt><trkpt lat="42.0766643" lon="13.5504146"><ele>741.0</ele><time>2026-05-02T13:19:21.003Z</time></trkpt><trkpt lat="42.076748" lon="13.5503584"><ele>741.0</ele><time>2026-05-02T13:19:22.003Z</time></trkpt><trkpt lat="42.0768423" lon="13.5503165"><ele>742.8</ele><time>2026-05-02T13:19:23.003Z</time></trkpt><trkpt lat="42.0769401" lon="13.5502804"><ele>744.5999999999999</ele><time>2026-05-02T13:19:24.003Z</time></trkpt><trkpt lat="42.0770421" lon="13.5502421"><ele>746.4</ele><time>2026-05-02T13:19:25.002Z</time></trkpt><trkpt lat="42.0771431" lon="13.5501991"><ele>748.2</ele><time>2026-05-02T13:19:26.003Z</time></trkpt><trkpt lat="42.0772464" lon="13.5501528"><ele>750.0</ele><time>2026-05-02T13:19:27.003Z</time></trkpt><trkpt lat="42.0773541" lon="13.5501069"><ele>753.25</ele><time>2026-05-02T13:19:28.003Z</time></trkpt><trkpt lat="42.0774656" lon="13.5500592"><ele>756.5</ele><time>2026-05-02T13:19:29.003Z</time></trkpt><trkpt lat="42.0775814" lon="13.5500112"><ele>759.75</ele><time>2026-05-02T13:19:30.003Z</time></trkpt><trkpt lat="42.0776938" lon="13.5499561"><ele>763.0</ele><time>2026-05-02T13:19:31.003Z</time></trkpt><trkpt lat="42.0777943" lon="13.5498942"><ele>763.0</ele><time>2026-05-02T13:19:32.003Z</time></trkpt><trkpt lat="42.0778751" lon="13.549814"><ele>763.0</ele><time>2026-05-02T13:19:33.003Z</time></trkpt><trkpt lat="42.0779408" lon="13.5497148"><ele>763.0</ele><time>2026-05-02T13:19:34.003Z</time></trkpt><trkpt lat="42.0779982" lon="13.5496063"><ele>763.0</ele><time>2026-05-02T13:19:35.003Z</time></trkpt><trkpt lat="42.0780392" lon="13.5494723"><ele>763.0</ele><time>2026-05-02T13:19:36.003Z</time></trkpt><trkpt lat="42.0780679" lon="13.5493213"><ele>759.75</ele><time>2026-05-02T13:19:37.003Z</time></trkpt><trkpt lat="42.0781001" lon="13.5491631"><ele>756.5</ele><time>2026-05-02T13:19:38.003Z</time></trkpt><trkpt lat="42.0781439" lon="13.5490089"><ele>753.25</ele><time>2026-05-02T13:19:39.002Z</time></trkpt><trkpt lat="42.0781916" lon="13.5488744"><ele>750.0</ele><time>2026-05-02T13:19:40.002Z</time></trkpt><trkpt lat="42.0782536" lon="13.5487596"><ele>753.0</ele><time>2026-05-02T13:19:41.003Z</time></trkpt><trkpt lat="42.078336" lon="13.5486641"><ele>756.0</ele><time>2026-05-02T13:19:42.003Z</time></trkpt><trkpt lat="42.0784363" lon="13.5485943"><ele>759.0</ele><time>2026-05-02T13:19:43.002Z</time></trkpt><trkpt lat="42.0785499" lon="13.5485466"><ele>762.0</ele><time>2026-05-02T13:19:44.003Z</time></trkpt><trkpt lat="42.0786711" lon="13.5485073"><ele>762.0</ele><time>2026-05-02T13:19:45.003Z</time></trkpt><trkpt lat="42.0788001" lon="13.5484794"><ele>762.0</ele><time>2026-05-02T13:19:46.003Z</time></trkpt><trkpt lat="42.0789335" lon="13.5484567"><ele>762.0</ele><time>2026-05-02T13:19:47.003Z</time></trkpt><trkpt lat="42.0790721" lon="13.5484239"><ele>762.0</ele><time>2026-05-02T13:19:48.003Z</time></trkpt><trkpt lat="42.0792128" lon="13.5483964"><ele>765.25</ele><time>2026-05-02T13:19:49.003Z</time></trkpt><trkpt lat="42.0793513" lon="13.5483703"><ele>768.5</ele><time>2026-05-02T13:19:50.003Z</time></trkpt><trkpt lat="42.0794727" lon="13.5483487"><ele>771.75</ele><time>2026-05-02T13:19:51.003Z</time></trkpt><trkpt lat="42.0795836" lon="13.5483256"><ele>775.0</ele><time>2026-05-02T13:19:52.003Z</time></trkpt><trkpt lat="42.0796892" lon="13.5483041"><ele>775.0</ele><time>2026-05-02T13:19:53.003Z</time></trkpt><trkpt lat="42.0797827" lon="13.5482811"><ele>775.0</ele><time>2026-05-02T13:19:54.003Z</time></trkpt><trkpt lat="42.0798695" lon="13.5482576"><ele>775.0</ele><time>2026-05-02T13:19:55.003Z</time></trkpt><trkpt lat="42.0799619" lon="13.5482465"><ele>775.0</ele><time>2026-05-02T13:19:56.003Z</time></trkpt><trkpt lat="42.0800548" lon="13.5482314"><ele>775.0</ele><time>2026-05-02T13:19:57.003Z</time></trkpt><trkpt lat="42.0801508" lon="13.5482167"><ele>775.6666666666666</ele><time>2026-05-02T13:19:58.003Z</time></trkpt><trkpt lat="42.0802449" lon="13.5481944"><ele>776.3333333333333</ele><time>2026-05-02T13:19:59.003Z</time></trkpt><trkpt lat="42.0803257" lon="13.5481801"><ele>777.0</ele><time>2026-05-02T13:20:00.003Z</time></trkpt><trkpt lat="42.080397" lon="13.5481852"><ele>777.6666666666667</ele><time>2026-05-02T13:20:01.003Z</time></trkpt><trkpt lat="42.0805007" lon="13.5482523"><ele>778.3333333333334</ele><time>2026-05-02T13:20:03.003Z</time></trkpt><trkpt lat="42.0805475" lon="13.5483383"><ele>779.0</ele><time>2026-05-02T13:20:05.003Z</time></trkpt><trkpt lat="42.0806123" lon="13.548423"><ele>779.0000000000001</ele><time>2026-05-02T13:20:12.002Z</time></trkpt><trkpt lat="42.0806759" lon="13.5483797"><ele>779.0</ele><time>2026-05-02T13:20:14.003Z</time></trkpt><trkpt lat="42.0807799" lon="13.548284"><ele>779.0</ele><time>2026-05-02T13:20:16.003Z</time></trkpt><trkpt lat="42.0808452" lon="13.5482132"><ele>779.0</ele><time>2026-05-02T13:20:17.003Z</time></trkpt><trkpt lat="42.0809098" lon="13.5481431"><ele>779.0000000000001</ele><time>2026-05-02T13:20:18.003Z</time></trkpt><trkpt lat="42.080971" lon="13.5480761"><ele>779.0</ele><time>2026-05-02T13:20:19.002Z</time></trkpt><trkpt lat="42.0810297" lon="13.5480111"><ele>780.0000000000001</ele><time>2026-05-02T13:20:20.003Z</time></trkpt><trkpt lat="42.0810885" lon="13.5479502"><ele>781.0</ele><time>2026-05-02T13:20:21.003Z</time></trkpt><trkpt lat="42.0811482" lon="13.5478883"><ele>782.0</ele><time>2026-05-02T13:20:22.002Z</time></trkpt><trkpt lat="42.0812135" lon="13.547819"><ele>783.0</ele><time>2026-05-02T13:20:23.003Z</time></trkpt><trkpt lat="42.0812872" lon="13.5477454"><ele>784.0000000000001</ele><time>2026-05-02T13:20:24.003Z</time></trkpt><trkpt lat="42.0813689" lon="13.5476648"><ele>785.0</ele><time>2026-05-02T13:20:25.003Z</time></trkpt><trkpt lat="42.0814517" lon="13.5475807"><ele>782.6</ele><time>2026-05-02T13:20:26.003Z</time></trkpt><trkpt lat="42.0815376" lon="13.547508"><ele>780.2</ele><time>2026-05-02T13:20:27.002Z</time></trkpt><trkpt lat="42.0816286" lon="13.547449"><ele>777.8</ele><time>2026-05-02T13:20:28.003Z</time></trkpt><trkpt lat="42.081721" lon="13.5474008"><ele>775.4</ele><time>2026-05-02T13:20:29.003Z</time></trkpt><trkpt lat="42.0818137" lon="13.547363"><ele>773.0</ele><time>2026-05-02T13:20:30.003Z</time></trkpt><trkpt lat="42.0819044" lon="13.5473245"><ele>773.0</ele><time>2026-05-02T13:20:31.003Z</time></trkpt><trkpt lat="42.0819937" lon="13.5472799"><ele>773.0</ele><time>2026-05-02T13:20:32.003Z</time></trkpt><trkpt lat="42.0820842" lon="13.5472303"><ele>773.0</ele><time>2026-05-02T13:20:33.003Z</time></trkpt><trkpt lat="42.0821627" lon="13.5471712"><ele>773.0</ele><time>2026-05-02T13:20:34.003Z</time></trkpt><trkpt lat="42.0822275" lon="13.5470919"><ele>773.0</ele><time>2026-05-02T13:20:35.003Z</time></trkpt><trkpt lat="42.0822836" lon="13.5469972"><ele>773.5999999999999</ele><time>2026-05-02T13:20:36.003Z</time></trkpt><trkpt lat="42.0823306" lon="13.5468927"><ele>774.1999999999999</ele><time>2026-05-02T13:20:37.003Z</time></trkpt><trkpt lat="42.0823727" lon="13.5467806"><ele>774.8</ele><time>2026-05-02T13:20:38.003Z</time></trkpt><trkpt lat="42.0824119" lon="13.5466611"><ele>775.4</ele><time>2026-05-02T13:20:39.003Z</time></trkpt><trkpt lat="42.0824451" lon="13.5465349"><ele>776.0</ele><time>2026-05-02T13:20:40.003Z</time></trkpt><trkpt lat="42.0824779" lon="13.5464088"><ele>776.0</ele><time>2026-05-02T13:20:41.003Z</time></trkpt><trkpt lat="42.0825051" lon="13.546281"><ele>776.0</ele><time>2026-05-02T13:20:42.003Z</time></trkpt><trkpt lat="42.0825274" lon="13.546146"><ele>776.0</ele><time>2026-05-02T13:20:43.002Z</time></trkpt><trkpt lat="42.0825468" lon="13.5460045"><ele>776.0</ele><time>2026-05-02T13:20:44.003Z</time></trkpt><trkpt lat="42.08256" lon="13.5458653"><ele>776.0</ele><time>2026-05-02T13:20:45.003Z</time></trkpt><trkpt lat="42.0825629" lon="13.5457172"><ele>774.8</ele><time>2026-05-02T13:20:46.002Z</time></trkpt><trkpt lat="42.0825605" lon="13.545576"><ele>773.5999999999999</ele><time>2026-05-02T13:20:47.002Z</time></trkpt><trkpt lat="42.0825501" lon="13.5454377"><ele>772.4</ele><time>2026-05-02T13:20:48.003Z</time></trkpt><trkpt lat="42.0825308" lon="13.5452998"><ele>771.2</ele><time>2026-05-02T13:20:49.003Z</time></trkpt><trkpt lat="42.0825045" lon="13.5451667"><ele>770.0</ele><time>2026-05-02T13:20:50.003Z</time></trkpt><trkpt lat="42.0824792" lon="13.5450326"><ele>769.6</ele><time>2026-05-02T13:20:51.003Z</time></trkpt><trkpt lat="42.0824554" lon="13.5448971"><ele>769.2</ele><time>2026-05-02T13:20:52.002Z</time></trkpt><trkpt lat="42.0824315" lon="13.544762"><ele>768.8</ele><time>2026-05-02T13:20:53.003Z</time></trkpt><trkpt lat="42.0824052" lon="13.5446294"><ele>768.4</ele><time>2026-05-02T13:20:54.003Z</time></trkpt><trkpt lat="42.0823825" lon="13.5444937"><ele>768.0</ele><time>2026-05-02T13:20:55.003Z</time></trkpt><trkpt lat="42.082359" lon="13.5443662"><ele>765.6666666666666</ele><time>2026-05-02T13:20:56.003Z</time></trkpt><trkpt lat="42.082349" lon="13.5442329"><ele>763.3333333333334</ele><time>2026-05-02T13:20:57.003Z</time></trkpt><trkpt lat="42.0823501" lon="13.5441134"><ele>761.0</ele><time>2026-05-02T13:20:58.003Z</time></trkpt><trkpt lat="42.0823568" lon="13.5440026"><ele>758.6666666666667</ele><time>2026-05-02T13:20:59.003Z</time></trkpt><trkpt lat="42.0823631" lon="13.5438968"><ele>756.3333333333334</ele><time>2026-05-02T13:21:00.003Z</time></trkpt><trkpt lat="42.0823661" lon="13.5438014"><ele>754.0</ele><time>2026-05-02T13:21:01.003Z</time></trkpt><trkpt lat="42.082342" lon="13.5436451"><ele>753.5</ele><time>2026-05-02T13:21:03.002Z</time></trkpt><trkpt lat="42.0822754" lon="13.5435552"><ele>753.0</ele><time>2026-05-02T13:21:05.002Z</time></trkpt><trkpt lat="42.0822146" lon="13.5435326"><ele>752.5</ele><time>2026-05-02T13:21:06.003Z</time></trkpt><trkpt lat="42.0821415" lon="13.5435225"><ele>752.0</ele><time>2026-05-02T13:21:07.003Z</time></trkpt><trkpt lat="42.0820598" lon="13.5435181"><ele>751.5</ele><time>2026-05-02T13:21:08.003Z</time></trkpt><trkpt lat="42.0819673" lon="13.5435146"><ele>751.0</ele><time>2026-05-02T13:21:09.003Z</time></trkpt><trkpt lat="42.0818661" lon="13.5435076"><ele>751.0</ele><time>2026-05-02T13:21:10.002Z</time></trkpt><trkpt lat="42.0817608" lon="13.5435021"><ele>751.0</ele><time>2026-05-02T13:21:11.003Z</time></trkpt><trkpt lat="42.0816515" lon="13.5435037"><ele>751.0</ele><time>2026-05-02T13:21:12.003Z</time></trkpt><trkpt lat="42.0815412" lon="13.5434998"><ele>751.0</ele><time>2026-05-02T13:21:13.003Z</time></trkpt><trkpt lat="42.081427" lon="13.543501"><ele>751.0</ele><time>2026-05-02T13:21:14.002Z</time></trkpt><trkpt lat="42.0813076" lon="13.5434957"><ele>750.0</ele><time>2026-05-02T13:21:15.003Z</time></trkpt><trkpt lat="42.0811897" lon="13.5434915"><ele>749.0</ele><time>2026-05-02T13:21:16.003Z</time></trkpt><trkpt lat="42.0810686" lon="13.5434877"><ele>748.0</ele><time>2026-05-02T13:21:17.003Z</time></trkpt><trkpt lat="42.0809507" lon="13.5434844"><ele>747.0</ele><time>2026-05-02T13:21:18.003Z</time></trkpt><trkpt lat="42.0808326" lon="13.5434869"><ele>746.4000000000001</ele><time>2026-05-02T13:21:19.002Z</time></trkpt><trkpt lat="42.0807194" lon="13.5434954"><ele>745.8000000000001</ele><time>2026-05-02T13:21:20.003Z</time></trkpt><trkpt lat="42.0806087" lon="13.5435024"><ele>745.2</ele><time>2026-05-02T13:21:21.003Z</time></trkpt><trkpt lat="42.0805023" lon="13.5435057"><ele>744.6</ele><time>2026-05-02T13:21:22.003Z</time></trkpt><trkpt lat="42.0804006" lon="13.5435037"><ele>744.0</ele><time>2026-05-02T13:21:23.003Z</time></trkpt><trkpt lat="42.0803083" lon="13.5435019"><ele>744.0</ele><time>2026-05-02T13:21:24.003Z</time></trkpt><trkpt lat="42.0802234" lon="13.5434965"><ele>744.0</ele><time>2026-05-02T13:21:25.002Z</time></trkpt><trkpt lat="42.0801431" lon="13.5434938"><ele>744.0</ele><time>2026-05-02T13:21:26.003Z</time></trkpt><trkpt lat="42.0800677" lon="13.5434911"><ele>744.0</ele><time>2026-05-02T13:21:27.003Z</time></trkpt><trkpt lat="42.0799974" lon="13.5434921"><ele>744.0</ele><time>2026-05-02T13:21:28.003Z</time></trkpt><trkpt lat="42.0798899" lon="13.5434833"><ele>744.0</ele><time>2026-05-02T13:21:30.003Z</time></trkpt><trkpt lat="42.0798093" lon="13.5434377"><ele>743.4000000000001</ele><time>2026-05-02T13:21:32.002Z</time></trkpt><trkpt lat="42.0797496" lon="13.5433061"><ele>742.8</ele><time>2026-05-02T13:21:34.003Z</time></trkpt><trkpt lat="42.079719" lon="13.5432191"><ele>742.2</ele><time>2026-05-02T13:21:35.003Z</time></trkpt><trkpt lat="42.0796632" lon="13.5430733"><ele>741.5999999999999</ele><time>2026-05-02T13:21:37.003Z</time></trkpt><trkpt lat="42.079598" lon="13.5429313"><ele>741.0</ele><time>2026-05-02T13:21:39.003Z</time></trkpt><trkpt lat="42.0795716" lon="13.5427954"><ele>741.0</ele><time>2026-05-02T13:21:41.003Z</time></trkpt><trkpt lat="42.0796122" lon="13.5426928"><ele>741.0</ele><time>2026-05-02T13:21:43.003Z</time></trkpt><trkpt lat="42.0796781" lon="13.542657"><ele>741.0</ele><time>2026-05-02T13:21:45.003Z</time></trkpt><trkpt lat="42.0796117" lon="13.5426848"><ele>741.0</ele><time>2026-05-02T13:22:00.003Z</time></trkpt><trkpt lat="42.0795382" lon="13.5426727"><ele>741.0</ele><time>2026-05-02T13:22:03.003Z</time></trkpt><trkpt lat="42.0794979" lon="13.5425388"><ele>741.0</ele><time>2026-05-02T13:22:06.003Z</time></trkpt><trkpt lat="42.0794723" lon="13.5424535"><ele>741.0</ele><time>2026-05-02T13:22:08.003Z</time></trkpt><trkpt lat="42.0794285" lon="13.5423876"><ele>741.0</ele><time>2026-05-02T13:22:11.003Z</time></trkpt><trkpt lat="42.0794078" lon="13.5424847"><ele>741.0</ele><time>2026-05-02T13:22:15.003Z</time></trkpt><trkpt lat="42.0794828" lon="13.5425465"><ele>741.0</ele><time>2026-05-02T13:22:17.003Z</time></trkpt><trkpt lat="42.0795266" lon="13.5426602"><ele>741.0</ele><time>2026-05-02T13:22:19.003Z</time></trkpt><trkpt lat="42.0795344" lon="13.5427634"><ele>741.0</ele><time>2026-05-02T13:22:21.003Z</time></trkpt><trkpt lat="42.0795004" lon="13.5428524"><ele>741.0</ele><time>2026-05-02T13:22:23.003Z</time></trkpt><trkpt lat="42.0794119" lon="13.5428766"><ele>741.0</ele><time>2026-05-02T13:22:25.003Z</time></trkpt><trkpt lat="42.0793467" lon="13.5428574"><ele>741.0</ele><time>2026-05-02T13:22:26.003Z</time></trkpt><trkpt lat="42.0792737" lon="13.5428283"><ele>741.0</ele><time>2026-05-02T13:22:27.002Z</time></trkpt><trkpt lat="42.0791918" lon="13.5427959"><ele>741.0</ele><time>2026-05-02T13:22:28.003Z</time></trkpt><trkpt lat="42.0791" lon="13.5427551"><ele>741.0</ele><time>2026-05-02T13:22:29.003Z</time></trkpt><trkpt lat="42.0790048" lon="13.5426999"><ele>740.4</ele><time>2026-05-02T13:22:30.003Z</time></trkpt><trkpt lat="42.0789174" lon="13.542626"><ele>739.8</ele><time>2026-05-02T13:22:31.003Z</time></trkpt><trkpt lat="42.0788391" lon="13.5425299"><ele>739.1999999999999</ele><time>2026-05-02T13:22:32.002Z</time></trkpt><trkpt lat="42.0787716" lon="13.5424292"><ele>738.5999999999999</ele><time>2026-05-02T13:22:33.003Z</time></trkpt><trkpt lat="42.0787016" lon="13.5423335"><ele>738.0</ele><time>2026-05-02T13:22:34.003Z</time></trkpt><trkpt lat="42.078628" lon="13.5422406"><ele>738.0</ele><time>2026-05-02T13:22:35.003Z</time></trkpt><trkpt lat="42.0785588" lon="13.5421573"><ele>738.0</ele><time>2026-05-02T13:22:36.003Z</time></trkpt><trkpt lat="42.0785028" lon="13.5420864"><ele>738.0</ele><time>2026-05-02T13:22:37.003Z</time></trkpt><trkpt lat="42.0784515" lon="13.5420229"><ele>738.0</ele><time>2026-05-02T13:22:38.003Z</time></trkpt><trkpt lat="42.078365" lon="13.5419017"><ele>738.0</ele><time>2026-05-02T13:22:40.003Z</time></trkpt><trkpt lat="42.07833" lon="13.54176"><ele>738.4</ele><time>2026-05-02T13:22:42.002Z</time></trkpt><trkpt lat="42.078373" lon="13.5416259"><ele>738.8</ele><time>2026-05-02T13:22:44.003Z</time></trkpt><trkpt lat="42.0784169" lon="13.5414858"><ele>739.2</ele><time>2026-05-02T13:22:46.003Z</time></trkpt><trkpt lat="42.0783605" lon="13.5413485"><ele>739.6</ele><time>2026-05-02T13:22:48.003Z</time></trkpt><trkpt lat="42.0783289" lon="13.5412415"><ele>740.0</ele><time>2026-05-02T13:22:50.003Z</time></trkpt><trkpt lat="42.0783736" lon="13.5411299"><ele>740.4</ele><time>2026-05-02T13:22:52.003Z</time></trkpt><trkpt lat="42.0783879" lon="13.5410241"><ele>740.8</ele><time>2026-05-02T13:22:54.002Z</time></trkpt><trkpt lat="42.0783153" lon="13.5408855"><ele>741.2</ele><time>2026-05-02T13:22:56.003Z</time></trkpt><trkpt lat="42.0782706" lon="13.540792"><ele>741.6</ele><time>2026-05-02T13:22:57.003Z</time></trkpt><trkpt lat="42.0782126" lon="13.5406856"><ele>742.0</ele><time>2026-05-02T13:22:58.003Z</time></trkpt><trkpt lat="42.0781516" lon="13.540576"><ele>740.5</ele><time>2026-05-02T13:22:59.003Z</time></trkpt><trkpt lat="42.0780982" lon="13.5404873"><ele>739.0</ele><time>2026-05-02T13:23:00.003Z</time></trkpt><trkpt lat="42.0780478" lon="13.5404082"><ele>737.5</ele><time>2026-05-02T13:23:01.003Z</time></trkpt><trkpt lat="42.0780049" lon="13.5403365"><ele>736.0</ele><time>2026-05-02T13:23:02.003Z</time></trkpt><trkpt lat="42.0779771" lon="13.5402042"><ele>734.5</ele><time>2026-05-02T13:23:04.002Z</time></trkpt><trkpt lat="42.0780315" lon="13.5400806"><ele>733.0</ele><time>2026-05-02T13:23:06.003Z</time></trkpt><trkpt lat="42.078121" lon="13.5399938"><ele>733.0</ele><time>2026-05-02T13:23:08.003Z</time></trkpt><trkpt lat="42.0781888" lon="13.5399508"><ele>733.0</ele><time>2026-05-02T13:23:10.003Z</time></trkpt><trkpt lat="42.0782503" lon="13.5398812"><ele>733.0</ele><time>2026-05-02T13:23:31.003Z</time></trkpt><trkpt lat="42.0783135" lon="13.5398841"><ele>733.0</ele><time>2026-05-02T13:23:40.003Z</time></trkpt><trkpt lat="42.0783531" lon="13.5399759"><ele>733.0</ele><time>2026-05-02T13:23:48.003Z</time></trkpt><trkpt lat="42.0784181" lon="13.5399799"><ele>733.0</ele><time>2026-05-02T13:23:51.002Z</time></trkpt><trkpt lat="42.078517" lon="13.5399647"><ele>735.0</ele><time>2026-05-02T13:23:54.003Z</time></trkpt><trkpt lat="42.0786202" lon="13.5399617"><ele>737.0</ele><time>2026-05-02T13:23:56.002Z</time></trkpt><trkpt lat="42.0787515" lon="13.539958"><ele>739.0</ele><time>2026-05-02T13:23:58.003Z</time></trkpt><trkpt lat="42.0788185" lon="13.5399552"><ele>741.0</ele><time>2026-05-02T13:23:59.002Z</time></trkpt><trkpt lat="42.0789344" lon="13.5399472"><ele>743.0</ele><time>2026-05-02T13:24:01.002Z</time></trkpt><trkpt lat="42.0790253" lon="13.5399475"><ele>743.0</ele><time>2026-05-02T13:24:03.003Z</time></trkpt><trkpt lat="42.0790829" lon="13.5399818"><ele>743.0</ele><time>2026-05-02T13:24:05.003Z</time></trkpt><trkpt lat="42.0791198" lon="13.5400688"><ele>743.0</ele><time>2026-05-02T13:24:07.003Z</time></trkpt><trkpt lat="42.0791527" lon="13.5401758"><ele>743.0</ele><time>2026-05-02T13:24:09.002Z</time></trkpt><trkpt lat="42.0792077" lon="13.5402954"><ele>743.0</ele><time>2026-05-02T13:24:11.003Z</time></trkpt><trkpt lat="42.0792757" lon="13.5403396"><ele>743.0</ele><time>2026-05-02T13:24:13.002Z</time></trkpt><trkpt lat="42.0793621" lon="13.5403143"><ele>743.0</ele><time>2026-05-02T13:24:15.003Z</time></trkpt><trkpt lat="42.0794492" lon="13.5402981"><ele>743.0</ele><time>2026-05-02T13:24:17.003Z</time></trkpt><trkpt lat="42.0795294" lon="13.5402826"><ele>743.0</ele><time>2026-05-02T13:24:20.003Z</time></trkpt><trkpt lat="42.0795842" lon="13.5403425"><ele>743.0</ele><time>2026-05-02T13:24:23.003Z</time></trkpt><trkpt lat="42.0795927" lon="13.5404364"><ele>743.0</ele><time>2026-05-02T13:24:25.003Z</time></trkpt><trkpt lat="42.0796203" lon="13.5405681"><ele>743.0</ele><time>2026-05-02T13:24:27.003Z</time></trkpt><trkpt lat="42.0796486" lon="13.5406501"><ele>743.0</ele><time>2026-05-02T13:24:28.003Z</time></trkpt><trkpt lat="42.0796863" lon="13.5407356"><ele>743.0</ele><time>2026-05-02T13:24:29.002Z</time></trkpt><trkpt lat="42.0797402" lon="13.5408226"><ele>743.0</ele><time>2026-05-02T13:24:30.003Z</time></trkpt><trkpt lat="42.0798137" lon="13.5408962"><ele>743.0</ele><time>2026-05-02T13:24:31.002Z</time></trkpt><trkpt lat="42.0799043" lon="13.5409547"><ele>743.0</ele><time>2026-05-02T13:24:32.002Z</time></trkpt><trkpt lat="42.0800074" lon="13.5409956"><ele>743.25</ele><time>2026-05-02T13:24:33.003Z</time></trkpt><trkpt lat="42.0801214" lon="13.5410267"><ele>743.5</ele><time>2026-05-02T13:24:34.003Z</time></trkpt><trkpt lat="42.0802429" lon="13.5410431"><ele>743.75</ele><time>2026-05-02T13:24:35.003Z</time></trkpt><trkpt lat="42.0803703" lon="13.5410431"><ele>744.0</ele><time>2026-05-02T13:24:36.003Z</time></trkpt><trkpt lat="42.080502" lon="13.5410354"><ele>744.0</ele><time>2026-05-02T13:24:37.003Z</time></trkpt><trkpt lat="42.0806364" lon="13.541033"><ele>744.0</ele><time>2026-05-02T13:24:38.003Z</time></trkpt><trkpt lat="42.0807738" lon="13.5410311"><ele>744.0</ele><time>2026-05-02T13:24:39.003Z</time></trkpt><trkpt lat="42.0809149" lon="13.5410297"><ele>744.0</ele><time>2026-05-02T13:24:40.003Z</time></trkpt><trkpt lat="42.0810585" lon="13.5410301"><ele>744.25</ele><time>2026-05-02T13:24:41.003Z</time></trkpt><trkpt lat="42.0811998" lon="13.5410315"><ele>744.5</ele><time>2026-05-02T13:24:42.003Z</time></trkpt><trkpt lat="42.0813369" lon="13.5410469"><ele>744.75</ele><time>2026-05-02T13:24:43.003Z</time></trkpt><trkpt lat="42.0814691" lon="13.5410728"><ele>745.0</ele><time>2026-05-02T13:24:44.002Z</time></trkpt><trkpt lat="42.0815958" lon="13.5411091"><ele>745.25</ele><time>2026-05-02T13:24:45.003Z</time></trkpt><trkpt lat="42.0817106" lon="13.5411553"><ele>745.5</ele><time>2026-05-02T13:24:46.003Z</time></trkpt><trkpt lat="42.081815" lon="13.5412167"><ele>745.75</ele><time>2026-05-02T13:24:47.003Z</time></trkpt><trkpt lat="42.0819078" lon="13.5413007"><ele>746.0</ele><time>2026-05-02T13:24:48.003Z</time></trkpt><trkpt lat="42.0819889" lon="13.541404"><ele>746.0</ele><time>2026-05-02T13:24:49.003Z</time></trkpt><trkpt lat="42.0820622" lon="13.5415197"><ele>746.0</ele><time>2026-05-02T13:24:50.002Z</time></trkpt><trkpt lat="42.0821307" lon="13.5416525"><ele>746.0</ele><time>2026-05-02T13:24:51.002Z</time></trkpt><trkpt lat="42.0821963" lon="13.541796"><ele>746.0</ele><time>2026-05-02T13:24:52.003Z</time></trkpt><trkpt lat="42.0822607" lon="13.5419389"><ele>746.1999999999999</ele><time>2026-05-02T13:24:53.003Z</time></trkpt><trkpt lat="42.0823114" lon="13.5420674"><ele>746.4</ele><time>2026-05-02T13:24:54.003Z</time></trkpt><trkpt lat="42.0823585" lon="13.5421879"><ele>746.6</ele><time>2026-05-02T13:24:55.003Z</time></trkpt><trkpt lat="42.0824004" lon="13.5422909"><ele>746.8</ele><time>2026-05-02T13:24:56.003Z</time></trkpt><trkpt lat="42.0824394" lon="13.5423791"><ele>747.0</ele><time>2026-05-02T13:24:57.003Z</time></trkpt><trkpt lat="42.0824921" lon="13.5425031"><ele>748.0</ele><time>2026-05-02T13:24:59.003Z</time></trkpt><trkpt lat="42.0825344" lon="13.5425862"><ele>749.0</ele><time>2026-05-02T13:25:02.003Z</time></trkpt><trkpt lat="42.0826054" lon="13.5426382"><ele>750.0</ele><time>2026-05-02T13:25:04.003Z</time></trkpt><trkpt lat="42.0827201" lon="13.542609"><ele>751.0</ele><time>2026-05-02T13:25:06.003Z</time></trkpt><trkpt lat="42.0827679" lon="13.5425499"><ele>752.0</ele><time>2026-05-02T13:25:07.002Z</time></trkpt><trkpt lat="42.0828103" lon="13.542471"><ele>753.0</ele><time>2026-05-02T13:25:08.003Z</time></trkpt><trkpt lat="42.0828437" lon="13.5423813"><ele>753.0</ele><time>2026-05-02T13:25:09.003Z</time></trkpt><trkpt lat="42.082874" lon="13.5422972"><ele>753.0</ele><time>2026-05-02T13:25:10.003Z</time></trkpt><trkpt lat="42.0829259" lon="13.5421586"><ele>753.0</ele><time>2026-05-02T13:25:12.002Z</time></trkpt><trkpt lat="42.0829716" lon="13.5420318"><ele>753.0</ele><time>2026-05-02T13:25:14.003Z</time></trkpt><trkpt lat="42.0830106" lon="13.5418975"><ele>753.0</ele><time>2026-05-02T13:25:16.003Z</time></trkpt><trkpt lat="42.0830593" lon="13.5417743"><ele>752.3333333333334</ele><time>2026-05-02T13:25:18.003Z</time></trkpt><trkpt lat="42.0831103" lon="13.5416874"><ele>751.6666666666666</ele><time>2026-05-02T13:25:20.002Z</time></trkpt><trkpt lat="42.0831314" lon="13.541581"><ele>751.0</ele><time>2026-05-02T13:25:23.003Z</time></trkpt><trkpt lat="42.0830675" lon="13.5415847"><ele>750.3333333333333</ele><time>2026-05-02T13:25:26.003Z</time></trkpt><trkpt lat="42.0830471" lon="13.5416929"><ele>749.6666666666666</ele><time>2026-05-02T13:25:28.003Z</time></trkpt><trkpt lat="42.0830197" lon="13.5417696"><ele>749.0</ele><time>2026-05-02T13:25:29.003Z</time></trkpt><trkpt lat="42.0829916" lon="13.5418674"><ele>749.0</ele><time>2026-05-02T13:25:30.003Z</time></trkpt><trkpt lat="42.0829568" lon="13.541979"><ele>749.0</ele><time>2026-05-02T13:25:31.003Z</time></trkpt><trkpt lat="42.0829159" lon="13.5420999"><ele>749.0</ele><time>2026-05-02T13:25:32.003Z</time></trkpt><trkpt lat="42.0828693" lon="13.5422279"><ele>749.0</ele><time>2026-05-02T13:25:33.003Z</time></trkpt><trkpt lat="42.082823" lon="13.542345"><ele>749.0</ele><time>2026-05-02T13:25:34.002Z</time></trkpt><trkpt lat="42.082781" lon="13.5424412"><ele>748.7142857142857</ele><time>2026-05-02T13:25:35.003Z</time></trkpt><trkpt lat="42.0827356" lon="13.5425206"><ele>748.4285714285714</ele><time>2026-05-02T13:25:36.003Z</time></trkpt><trkpt lat="42.0826813" lon="13.5425765"><ele>748.1428571428571</ele><time>2026-05-02T13:25:37.002Z</time></trkpt><trkpt lat="42.082622" lon="13.5426214"><ele>747.8571428571429</ele><time>2026-05-02T13:25:38.003Z</time></trkpt><trkpt lat="42.0825564" lon="13.5426666"><ele>747.5714285714286</ele><time>2026-05-02T13:25:39.003Z</time></trkpt><trkpt lat="42.0824966" lon="13.542705"><ele>747.2857142857142</ele><time>2026-05-02T13:25:40.003Z</time></trkpt><trkpt lat="42.0824203" lon="13.5427562"><ele>747.0</ele><time>2026-05-02T13:25:42.003Z</time></trkpt><trkpt lat="42.0823655" lon="13.5428517"><ele>747.6666666666666</ele><time>2026-05-02T13:25:44.003Z</time></trkpt><trkpt lat="42.0823324" lon="13.5429832"><ele>748.3333333333334</ele><time>2026-05-02T13:25:46.002Z</time></trkpt><trkpt lat="42.082321" lon="13.5430972"><ele>749.0</ele><time>2026-05-02T13:25:48.003Z</time></trkpt><trkpt lat="42.0823176" lon="13.5431862"><ele>749.6666666666667</ele><time>2026-05-02T13:25:50.003Z</time></trkpt><trkpt lat="42.0823268" lon="13.5432854"><ele>750.3333333333334</ele><time>2026-05-02T13:25:53.003Z</time></trkpt><trkpt lat="42.0823903" lon="13.543331"><ele>751.0</ele><time>2026-05-02T13:25:58.003Z</time></trkpt><trkpt lat="42.0824619" lon="13.5432191"><ele>753.0</ele><time>2026-05-02T13:26:00.003Z</time></trkpt><trkpt lat="42.0825475" lon="13.5430915"><ele>755.0</ele><time>2026-05-02T13:26:02.002Z</time></trkpt><trkpt lat="42.0826018" lon="13.5430277"><ele>757.0</ele><time>2026-05-02T13:26:03.003Z</time></trkpt><trkpt lat="42.0827071" lon="13.5429663"><ele>759.0</ele><time>2026-05-02T13:26:05.003Z</time></trkpt><trkpt lat="42.0828278" lon="13.5429803"><ele>761.0</ele><time>2026-05-02T13:26:07.003Z</time></trkpt><trkpt lat="42.0829004" lon="13.5429944"><ele>761.0</ele><time>2026-05-02T13:26:08.003Z</time></trkpt><trkpt lat="42.0829799" lon="13.5430129"><ele>761.0</ele><time>2026-05-02T13:26:09.003Z</time></trkpt><trkpt lat="42.083067" lon="13.5430295"><ele>761.0</ele><time>2026-05-02T13:26:10.003Z</time></trkpt><trkpt lat="42.0831605" lon="13.5430467"><ele>761.0</ele><time>2026-05-02T13:26:11.003Z</time></trkpt><trkpt lat="42.0832532" lon="13.5430608"><ele>761.0</ele><time>2026-05-02T13:26:12.003Z</time></trkpt><trkpt lat="42.0833365" lon="13.5430702"><ele>761.0</ele><time>2026-05-02T13:26:13.003Z</time></trkpt><trkpt lat="42.0834125" lon="13.5430742"><ele>763.6666666666666</ele><time>2026-05-02T13:26:14.003Z</time></trkpt><trkpt lat="42.0834785" lon="13.5430811"><ele>766.3333333333333</ele><time>2026-05-02T13:26:15.002Z</time></trkpt><trkpt lat="42.083581" lon="13.5430859"><ele>769.0</ele><time>2026-05-02T13:26:17.002Z</time></trkpt><trkpt lat="42.0836529" lon="13.5430847"><ele>771.6666666666666</ele><time>2026-05-02T13:26:19.003Z</time></trkpt><trkpt lat="42.0837455" lon="13.5430831"><ele>774.3333333333334</ele><time>2026-05-02T13:26:21.003Z</time></trkpt><trkpt lat="42.083811" lon="13.543073"><ele>777.0</ele><time>2026-05-02T13:26:22.003Z</time></trkpt><trkpt lat="42.0838833" lon="13.5430526"><ele>777.0</ele><time>2026-05-02T13:26:23.003Z</time></trkpt><trkpt lat="42.0839662" lon="13.5430229"><ele>777.0</ele><time>2026-05-02T13:26:24.003Z</time></trkpt><trkpt lat="42.0840574" lon="13.5429883"><ele>777.0</ele><time>2026-05-02T13:26:25.003Z</time></trkpt><trkpt lat="42.0841544" lon="13.5429567"><ele>777.0</ele><time>2026-05-02T13:26:26.003Z</time></trkpt><trkpt lat="42.0842644" lon="13.5429376"><ele>777.0</ele><time>2026-05-02T13:26:27.002Z</time></trkpt><trkpt lat="42.0843806" lon="13.542935"><ele>779.25</ele><time>2026-05-02T13:26:28.003Z</time></trkpt><trkpt lat="42.0845012" lon="13.5429462"><ele>781.5</ele><time>2026-05-02T13:26:29.002Z</time></trkpt><trkpt lat="42.0846304" lon="13.5429585"><ele>783.75</ele><time>2026-05-02T13:26:30.003Z</time></trkpt><trkpt lat="42.0847611" lon="13.5429709"><ele>786.0</ele><time>2026-05-02T13:26:31.003Z</time></trkpt><trkpt lat="42.0848926" lon="13.5429818"><ele>787.8</ele><time>2026-05-02T13:26:32.003Z</time></trkpt><trkpt lat="42.0850121" lon="13.5429898"><ele>789.5999999999999</ele><time>2026-05-02T13:26:33.002Z</time></trkpt><trkpt lat="42.0851211" lon="13.543005"><ele>791.4</ele><time>2026-05-02T13:26:34.002Z</time></trkpt><trkpt lat="42.0852225" lon="13.5430351"><ele>793.2</ele><time>2026-05-02T13:26:35.003Z</time></trkpt><trkpt lat="42.0853179" lon="13.5430802"><ele>795.0</ele><time>2026-05-02T13:26:36.003Z</time></trkpt><trkpt lat="42.0854169" lon="13.5431305"><ele>795.0</ele><time>2026-05-02T13:26:37.002Z</time></trkpt><trkpt lat="42.0855154" lon="13.5431851"><ele>795.0</ele><time>2026-05-02T13:26:38.003Z</time></trkpt><trkpt lat="42.0856169" lon="13.5432457"><ele>795.0</ele><time>2026-05-02T13:26:39.003Z</time></trkpt><trkpt lat="42.0857205" lon="13.5432974"><ele>795.0</ele><time>2026-05-02T13:26:40.003Z</time></trkpt><trkpt lat="42.0858231" lon="13.5433468"><ele>795.0</ele><time>2026-05-02T13:26:41.003Z</time></trkpt><trkpt lat="42.0859194" lon="13.5433941"><ele>794.8</ele><time>2026-05-02T13:26:42.003Z</time></trkpt><trkpt lat="42.0860098" lon="13.5434363"><ele>794.6</ele><time>2026-05-02T13:26:43.002Z</time></trkpt><trkpt lat="42.0861019" lon="13.5434642"><ele>794.4000000000001</ele><time>2026-05-02T13:26:44.003Z</time></trkpt><trkpt lat="42.0861959" lon="13.5434749"><ele>794.2</ele><time>2026-05-02T13:26:45.003Z</time></trkpt><trkpt lat="42.0862939" lon="13.5434923"><ele>794.0</ele><time>2026-05-02T13:26:46.003Z</time></trkpt><trkpt lat="42.0863992" lon="13.5435121"><ele>794.0</ele><time>2026-05-02T13:26:47.003Z</time></trkpt><trkpt lat="42.0865085" lon="13.5435416"><ele>794.0</ele><time>2026-05-02T13:26:48.003Z</time></trkpt><trkpt lat="42.0866174" lon="13.543569"><ele>794.0</ele><time>2026-05-02T13:26:49.003Z</time></trkpt><trkpt lat="42.0867289" lon="13.5435828"><ele>794.0</ele><time>2026-05-02T13:26:50.003Z</time></trkpt><trkpt lat="42.086839" lon="13.5435796"><ele>794.0</ele><time>2026-05-02T13:26:51.003Z</time></trkpt><trkpt lat="42.0869428" lon="13.5435547"><ele>793.6</ele><time>2026-05-02T13:26:52.003Z</time></trkpt><trkpt lat="42.087041" lon="13.5435058"><ele>793.2</ele><time>2026-05-02T13:26:53.003Z</time></trkpt><trkpt lat="42.0871349" lon="13.5434257"><ele>792.8000000000001</ele><time>2026-05-02T13:26:54.003Z</time></trkpt><trkpt lat="42.0872255" lon="13.5433359"><ele>792.4000000000001</ele><time>2026-05-02T13:26:55.002Z</time></trkpt><trkpt lat="42.0873001" lon="13.5432315"><ele>792.0</ele><time>2026-05-02T13:26:56.003Z</time></trkpt><trkpt lat="42.0873634" lon="13.5431318"><ele>792.0</ele><time>2026-05-02T13:26:57.003Z</time></trkpt><trkpt lat="42.0874047" lon="13.5430605"><ele>792.0</ele><time>2026-05-02T13:26:58.002Z</time></trkpt><trkpt lat="42.0874805" lon="13.5429365"><ele>792.0</ele><time>2026-05-02T13:27:00.003Z</time></trkpt><trkpt lat="42.0875214" lon="13.5428663"><ele>792.0</ele><time>2026-05-02T13:27:01.003Z</time></trkpt><trkpt lat="42.0875582" lon="13.542787"><ele>792.0</ele><time>2026-05-02T13:27:02.003Z</time></trkpt><trkpt lat="42.0876124" lon="13.5426863"><ele>792.0</ele><time>2026-05-02T13:27:04.002Z</time></trkpt><trkpt lat="42.0876874" lon="13.5426482"><ele>792.0</ele><time>2026-05-02T13:27:09.003Z</time></trkpt><trkpt lat="42.0877365" lon="13.5425403"><ele>792.0</ele><time>2026-05-02T13:27:11.002Z</time></trkpt><trkpt lat="42.0877733" lon="13.5424595"><ele>792.0</ele><time>2026-05-02T13:27:12.003Z</time></trkpt><trkpt lat="42.087826" lon="13.5423734"><ele>792.0</ele><time>2026-05-02T13:27:13.003Z</time></trkpt><trkpt lat="42.0878928" lon="13.5422837"><ele>792.0</ele><time>2026-05-02T13:27:14.003Z</time></trkpt><trkpt lat="42.087973" lon="13.5421973"><ele>792.0</ele><time>2026-05-02T13:27:15.002Z</time></trkpt><trkpt lat="42.0880697" lon="13.5421242"><ele>792.0</ele><time>2026-05-02T13:27:16.002Z</time></trkpt><trkpt lat="42.0881748" lon="13.5420563"><ele>792.0</ele><time>2026-05-02T13:27:17.003Z</time></trkpt><trkpt lat="42.0882781" lon="13.5419927"><ele>792.0</ele><time>2026-05-02T13:27:18.003Z</time></trkpt><trkpt lat="42.0883793" lon="13.5419294"><ele>792.0</ele><time>2026-05-02T13:27:19.003Z</time></trkpt><trkpt lat="42.0884768" lon="13.5418683"><ele>792.0</ele><time>2026-05-02T13:27:20.003Z</time></trkpt><trkpt lat="42.0885616" lon="13.5418123"><ele>792.5</ele><time>2026-05-02T13:27:21.003Z</time></trkpt><trkpt lat="42.088621" lon="13.5417482"><ele>793.0</ele><time>2026-05-02T13:27:22.003Z</time></trkpt><trkpt lat="42.0886613" lon="13.5416639"><ele>793.5</ele><time>2026-05-02T13:27:23.003Z</time></trkpt><trkpt lat="42.0886831" lon="13.5415681"><ele>794.0</ele><time>2026-05-02T13:27:24.003Z</time></trkpt><trkpt lat="42.0886837" lon="13.5414578"><ele>794.5</ele><time>2026-05-02T13:27:25.003Z</time></trkpt><trkpt lat="42.0886756" lon="13.5413381"><ele>795.0</ele><time>2026-05-02T13:27:26.003Z</time></trkpt><trkpt lat="42.088649" lon="13.5412085"><ele>795.0</ele><time>2026-05-02T13:27:27.002Z</time></trkpt><trkpt lat="42.0886022" lon="13.5410774"><ele>795.0</ele><time>2026-05-02T13:27:28.003Z</time></trkpt><trkpt lat="42.0885366" lon="13.5409527"><ele>795.0</ele><time>2026-05-02T13:27:29.003Z</time></trkpt><trkpt lat="42.0884645" lon="13.5408287"><ele>795.0</ele><time>2026-05-02T13:27:30.002Z</time></trkpt><trkpt lat="42.0883994" lon="13.5407048"><ele>795.0</ele><time>2026-05-02T13:27:31.003Z</time></trkpt><trkpt lat="42.0883511" lon="13.54058"><ele>795.0</ele><time>2026-05-02T13:27:32.003Z</time></trkpt><trkpt lat="42.088317" lon="13.5404388"><ele>795.0</ele><time>2026-05-02T13:27:33.003Z</time></trkpt><trkpt lat="42.0882988" lon="13.5402908"><ele>795.0</ele><time>2026-05-02T13:27:34.003Z</time></trkpt><trkpt lat="42.0882952" lon="13.5401265"><ele>795.0</ele><time>2026-05-02T13:27:35.003Z</time></trkpt><trkpt lat="42.0882961" lon="13.539966"><ele>794.8</ele><time>2026-05-02T13:27:36.003Z</time></trkpt><trkpt lat="42.0882998" lon="13.5398137"><ele>794.6</ele><time>2026-05-02T13:27:37.003Z</time></trkpt><trkpt lat="42.0883078" lon="13.5396838"><ele>794.4000000000001</ele><time>2026-05-02T13:27:38.002Z</time></trkpt><trkpt lat="42.088318" lon="13.5395592"><ele>794.2</ele><time>2026-05-02T13:27:39.002Z</time></trkpt><trkpt lat="42.0883302" lon="13.5394386"><ele>794.0</ele><time>2026-05-02T13:27:40.003Z</time></trkpt><trkpt lat="42.0883441" lon="13.5393128"><ele>794.0000000000001</ele><time>2026-05-02T13:27:41.003Z</time></trkpt><trkpt lat="42.0883563" lon="13.5391908"><ele>794.0</ele><time>2026-05-02T13:27:42.003Z</time></trkpt><trkpt lat="42.0883653" lon="13.539077"><ele>794.0</ele><time>2026-05-02T13:27:43.003Z</time></trkpt><trkpt lat="42.0883669" lon="13.5389709"><ele>794.0</ele><time>2026-05-02T13:27:44.003Z</time></trkpt><trkpt lat="42.0883585" lon="13.5388749"><ele>794.0000000000001</ele><time>2026-05-02T13:27:45.003Z</time></trkpt><trkpt lat="42.0883386" lon="13.538738"><ele>794.0</ele><time>2026-05-02T13:27:47.003Z</time></trkpt><trkpt lat="42.0883507" lon="13.5386269"><ele>794.0</ele><time>2026-05-02T13:27:50.003Z</time></trkpt><trkpt lat="42.0884388" lon="13.5385732"><ele>794.0</ele><time>2026-05-02T13:27:53.002Z</time></trkpt><trkpt lat="42.0885468" lon="13.5385124"><ele>794.0</ele><time>2026-05-02T13:27:55.003Z</time></trkpt><trkpt lat="42.088628" lon="13.5384713"><ele>794.0</ele><time>2026-05-02T13:27:56.003Z</time></trkpt><trkpt lat="42.0887164" lon="13.5384241"><ele>794.0</ele><time>2026-05-02T13:27:57.003Z</time></trkpt><trkpt lat="42.0887988" lon="13.5383755"><ele>794.0000000000001</ele><time>2026-05-02T13:27:58.003Z</time></trkpt><trkpt lat="42.0888611" lon="13.5383352"><ele>794.0</ele><time>2026-05-02T13:27:59.003Z</time></trkpt><trkpt lat="42.0889123" lon="13.5382725"><ele>794.0</ele><time>2026-05-02T13:28:00.003Z</time></trkpt><trkpt lat="42.0889602" lon="13.5381833"><ele>794.0</ele><time>2026-05-02T13:28:01.003Z</time></trkpt><trkpt lat="42.0890101" lon="13.5380777"><ele>794.0000000000001</ele><time>2026-05-02T13:28:02.003Z</time></trkpt><trkpt lat="42.0890659" lon="13.5379598"><ele>794.0</ele><time>2026-05-02T13:28:03.003Z</time></trkpt><trkpt lat="42.0891334" lon="13.5378346"><ele>796.25</ele><time>2026-05-02T13:28:04.003Z</time></trkpt><trkpt lat="42.0892096" lon="13.5377008"><ele>798.5</ele><time>2026-05-02T13:28:05.003Z</time></trkpt><trkpt lat="42.0892979" lon="13.5375786"><ele>800.75</ele><time>2026-05-02T13:28:06.002Z</time></trkpt><trkpt lat="42.089401" lon="13.5374655"><ele>803.0</ele><time>2026-05-02T13:28:07.003Z</time></trkpt><trkpt lat="42.089505" lon="13.5373536"><ele>803.0</ele><time>2026-05-02T13:28:08.003Z</time></trkpt><trkpt lat="42.0896101" lon="13.5372359"><ele>803.0</ele><time>2026-05-02T13:28:09.003Z</time></trkpt><trkpt lat="42.0897161" lon="13.5371154"><ele>803.0</ele><time>2026-05-02T13:28:10.003Z</time></trkpt><trkpt lat="42.0898165" lon="13.5370011"><ele>803.0</ele><time>2026-05-02T13:28:11.003Z</time></trkpt><trkpt lat="42.0899092" lon="13.5368916"><ele>804.8</ele><time>2026-05-02T13:28:12.003Z</time></trkpt><trkpt lat="42.0899973" lon="13.5367801"><ele>806.5999999999999</ele><time>2026-05-02T13:28:13.002Z</time></trkpt><trkpt lat="42.0900813" lon="13.5366752"><ele>808.4000000000001</ele><time>2026-05-02T13:28:14.003Z</time></trkpt><trkpt lat="42.0901541" lon="13.5365896"><ele>810.2</ele><time>2026-05-02T13:28:15.003Z</time></trkpt><trkpt lat="42.0902125" lon="13.5365151"><ele>812.0</ele><time>2026-05-02T13:28:16.002Z</time></trkpt><trkpt lat="42.0902553" lon="13.5364379"><ele>812.0000000000001</ele><time>2026-05-02T13:28:17.003Z</time></trkpt><trkpt lat="42.090285" lon="13.5363583"><ele>812.0</ele><time>2026-05-02T13:28:18.003Z</time></trkpt><trkpt lat="42.0902955" lon="13.5362724"><ele>812.0</ele><time>2026-05-02T13:28:19.003Z</time></trkpt><trkpt lat="42.0902885" lon="13.5361719"><ele>812.0</ele><time>2026-05-02T13:28:20.003Z</time></trkpt><trkpt lat="42.09027" lon="13.5360552"><ele>812.0000000000001</ele><time>2026-05-02T13:28:21.003Z</time></trkpt><trkpt lat="42.0902477" lon="13.5359253"><ele>812.0</ele><time>2026-05-02T13:28:22.003Z</time></trkpt><trkpt lat="42.0902234" lon="13.5357925"><ele>811.2</ele><time>2026-05-02T13:28:23.003Z</time></trkpt><trkpt lat="42.090205" lon="13.5356597"><ele>810.4000000000001</ele><time>2026-05-02T13:28:24.003Z</time></trkpt><trkpt lat="42.090197" lon="13.5355279"><ele>809.5999999999999</ele><time>2026-05-02T13:28:25.003Z</time></trkpt><trkpt lat="42.0902008" lon="13.5353998"><ele>808.8</ele><time>2026-05-02T13:28:26.003Z</time></trkpt><trkpt lat="42.090211" lon="13.5352846"><ele>808.0</ele><time>2026-05-02T13:28:27.003Z</time></trkpt><trkpt lat="42.0902249" lon="13.5351828"><ele>808.0</ele><time>2026-05-02T13:28:28.002Z</time></trkpt><trkpt lat="42.0902403" lon="13.5350916"><ele>808.0</ele><time>2026-05-02T13:28:29.003Z</time></trkpt><trkpt lat="42.0902523" lon="13.5350055"><ele>808.0</ele><time>2026-05-02T13:28:30.003Z</time></trkpt><trkpt lat="42.0902604" lon="13.53492"><ele>808.0</ele><time>2026-05-02T13:28:31.003Z</time></trkpt><trkpt lat="42.0902705" lon="13.534835"><ele>808.0</ele><time>2026-05-02T13:28:32.003Z</time></trkpt><trkpt lat="42.0902783" lon="13.5347391"><ele>808.0</ele><time>2026-05-02T13:28:33.003Z</time></trkpt><trkpt lat="42.0902934" lon="13.5346393"><ele>808.0</ele><time>2026-05-02T13:28:34.003Z</time></trkpt><trkpt lat="42.0903281" lon="13.5345344"><ele>808.0</ele><time>2026-05-02T13:28:35.002Z</time></trkpt><trkpt lat="42.0903789" lon="13.5344296"><ele>808.0</ele><time>2026-05-02T13:28:36.003Z</time></trkpt><trkpt lat="42.0904398" lon="13.5343308"><ele>808.0</ele><time>2026-05-02T13:28:37.003Z</time></trkpt><trkpt lat="42.0905082" lon="13.5342294"><ele>808.0</ele><time>2026-05-02T13:28:38.003Z</time></trkpt><trkpt lat="42.0905769" lon="13.5341169"><ele>808.0</ele><time>2026-05-02T13:28:39.003Z</time></trkpt><trkpt lat="42.0906479" lon="13.5339998"><ele>808.0</ele><time>2026-05-02T13:28:40.003Z</time></trkpt><trkpt lat="42.0907194" lon="13.533872"><ele>808.0</ele><time>2026-05-02T13:28:41.003Z</time></trkpt><trkpt lat="42.0907941" lon="13.533739"><ele>808.0</ele><time>2026-05-02T13:28:42.002Z</time></trkpt><trkpt lat="42.0908693" lon="13.5335981"><ele>808.0</ele><time>2026-05-02T13:28:43.003Z</time></trkpt><trkpt lat="42.0909424" lon="13.533449"><ele>809.5</ele><time>2026-05-02T13:28:44.003Z</time></trkpt><trkpt lat="42.0910166" lon="13.5332977"><ele>811.0</ele><time>2026-05-02T13:28:45.003Z</time></trkpt><trkpt lat="42.0910838" lon="13.5331513"><ele>812.5</ele><time>2026-05-02T13:28:46.003Z</time></trkpt><trkpt lat="42.0911449" lon="13.5330109"><ele>814.0</ele><time>2026-05-02T13:28:47.003Z</time></trkpt><trkpt lat="42.0912126" lon="13.5328813"><ele>814.25</ele><time>2026-05-02T13:28:48.003Z</time></trkpt><trkpt lat="42.091293" lon="13.532765"><ele>814.5</ele><time>2026-05-02T13:28:49.003Z</time></trkpt><trkpt lat="42.0913839" lon="13.5326496"><ele>814.75</ele><time>2026-05-02T13:28:50.003Z</time></trkpt><trkpt lat="42.0914799" lon="13.5325302"><ele>815.0</ele><time>2026-05-02T13:28:51.003Z</time></trkpt><trkpt lat="42.0915779" lon="13.5324018"><ele>816.25</ele><time>2026-05-02T13:28:52.003Z</time></trkpt><trkpt lat="42.0916723" lon="13.5322685"><ele>817.5</ele><time>2026-05-02T13:28:53.002Z</time></trkpt><trkpt lat="42.0917578" lon="13.5321245"><ele>818.75</ele><time>2026-05-02T13:28:54.003Z</time></trkpt><trkpt lat="42.0918311" lon="13.531974"><ele>820.0</ele><time>2026-05-02T13:28:55.002Z</time></trkpt><trkpt lat="42.0918935" lon="13.5318192"><ele>820.0</ele><time>2026-05-02T13:28:56.003Z</time></trkpt><trkpt lat="42.0919469" lon="13.5316594"><ele>820.0</ele><time>2026-05-02T13:28:57.003Z</time></trkpt><trkpt lat="42.0919904" lon="13.5314947"><ele>820.0</ele><time>2026-05-02T13:28:58.003Z</time></trkpt><trkpt lat="42.0920286" lon="13.5313271"><ele>820.0</ele><time>2026-05-02T13:28:59.003Z</time></trkpt><trkpt lat="42.092066" lon="13.5311571"><ele>819.5</ele><time>2026-05-02T13:29:00.003Z</time></trkpt><trkpt lat="42.0921031" lon="13.5309857"><ele>819.0</ele><time>2026-05-02T13:29:01.003Z</time></trkpt><trkpt lat="42.0921459" lon="13.5308143"><ele>818.5</ele><time>2026-05-02T13:29:02.003Z</time></trkpt><trkpt lat="42.0921945" lon="13.5306399"><ele>818.0</ele><time>2026-05-02T13:29:03.003Z</time></trkpt><trkpt lat="42.0922471" lon="13.5304682"><ele>817.75</ele><time>2026-05-02T13:29:04.003Z</time></trkpt><trkpt lat="42.0923026" lon="13.5302937"><ele>817.5</ele><time>2026-05-02T13:29:05.003Z</time></trkpt><trkpt lat="42.0923668" lon="13.5301215"><ele>817.25</ele><time>2026-05-02T13:29:06.003Z</time></trkpt><trkpt lat="42.0924359" lon="13.5299485"><ele>817.0</ele><time>2026-05-02T13:29:07.003Z</time></trkpt><trkpt lat="42.0925052" lon="13.5297729"><ele>819.0</ele><time>2026-05-02T13:29:08.002Z</time></trkpt><trkpt lat="42.0925764" lon="13.5295984"><ele>821.0</ele><time>2026-05-02T13:29:09.003Z</time></trkpt><trkpt lat="42.0926435" lon="13.5294382"><ele>823.0</ele><time>2026-05-02T13:29:10.003Z</time></trkpt><trkpt lat="42.0927052" lon="13.5292811"><ele>825.0</ele><time>2026-05-02T13:29:11.003Z</time></trkpt><trkpt lat="42.0927617" lon="13.5291211"><ele>825.0</ele><time>2026-05-02T13:29:12.003Z</time></trkpt><trkpt lat="42.0928155" lon="13.5289569"><ele>825.0</ele><time>2026-05-02T13:29:13.003Z</time></trkpt><trkpt lat="42.0928686" lon="13.5287962"><ele>825.0</ele><time>2026-05-02T13:29:14.003Z</time></trkpt><trkpt lat="42.0929246" lon="13.5286438"><ele>825.0</ele><time>2026-05-02T13:29:15.003Z</time></trkpt><trkpt lat="42.0929785" lon="13.5285044"><ele>824.2</ele><time>2026-05-02T13:29:16.002Z</time></trkpt><trkpt lat="42.0930271" lon="13.5283819"><ele>823.4</ele><time>2026-05-02T13:29:17.003Z</time></trkpt><trkpt lat="42.0930752" lon="13.5282835"><ele>822.5999999999999</ele><time>2026-05-02T13:29:18.003Z</time></trkpt><trkpt lat="42.0931346" lon="13.5281948"><ele>821.8</ele><time>2026-05-02T13:29:19.003Z</time></trkpt><trkpt lat="42.0931966" lon="13.5281093"><ele>821.0</ele><time>2026-05-02T13:29:20.002Z</time></trkpt><trkpt lat="42.0932642" lon="13.5280281"><ele>822.1666666666667</ele><time>2026-05-02T13:29:21.002Z</time></trkpt><trkpt lat="42.0933344" lon="13.5279505"><ele>823.3333333333334</ele><time>2026-05-02T13:29:22.003Z</time></trkpt><trkpt lat="42.0933986" lon="13.52788"><ele>824.5</ele><time>2026-05-02T13:29:23.003Z</time></trkpt><trkpt lat="42.0934577" lon="13.5278218"><ele>825.6666666666667</ele><time>2026-05-02T13:29:24.003Z</time></trkpt><trkpt lat="42.0935409" lon="13.5277433"><ele>826.8333333333334</ele><time>2026-05-02T13:29:26.003Z</time></trkpt><trkpt lat="42.0936019" lon="13.5276948"><ele>828.0</ele><time>2026-05-02T13:29:33.003Z</time></trkpt><trkpt lat="42.0936613" lon="13.527657"><ele>828.0</ele><time>2026-05-02T13:29:36.003Z</time></trkpt><trkpt lat="42.0937317" lon="13.5276163"><ele>828.0</ele><time>2026-05-02T13:29:38.003Z</time></trkpt><trkpt lat="42.0938063" lon="13.5275432"><ele>828.0</ele><time>2026-05-02T13:29:40.003Z</time></trkpt><trkpt lat="42.0938663" lon="13.5274891"><ele>828.0</ele><time>2026-05-02T13:29:43.003Z</time></trkpt><trkpt lat="42.0938479" lon="13.527393"><ele>828.0</ele><time>2026-05-02T13:29:57.003Z</time></trkpt><trkpt lat="42.0938624" lon="13.5272787"><ele>828.0</ele><time>2026-05-02T13:30:00.002Z</time></trkpt><trkpt lat="42.0938772" lon="13.5271518"><ele>827.5999999999999</ele><time>2026-05-02T13:30:03.003Z</time></trkpt><trkpt lat="42.0938872" lon="13.5270293"><ele>827.1999999999999</ele><time>2026-05-02T13:30:05.003Z</time></trkpt><trkpt lat="42.0939026" lon="13.5268793"><ele>826.8</ele><time>2026-05-02T13:30:07.003Z</time></trkpt><trkpt lat="42.0939248" lon="13.5267295"><ele>826.4</ele><time>2026-05-02T13:30:09.003Z</time></trkpt><trkpt lat="42.0939626" lon="13.5265603"><ele>826.0</ele><time>2026-05-02T13:30:11.003Z</time></trkpt><trkpt lat="42.0939817" lon="13.5264746"><ele>826.0</ele><time>2026-05-02T13:30:12.003Z</time></trkpt><trkpt lat="42.0940093" lon="13.5263236"><ele>826.0</ele><time>2026-05-02T13:30:14.003Z</time></trkpt><trkpt lat="42.0940288" lon="13.5261733"><ele>826.0</ele><time>2026-05-02T13:30:16.003Z</time></trkpt><trkpt lat="42.0940501" lon="13.5260247"><ele>826.0</ele><time>2026-05-02T13:30:18.003Z</time></trkpt><trkpt lat="42.0940841" lon="13.5258893"><ele>826.0</ele><time>2026-05-02T13:30:20.003Z</time></trkpt><trkpt lat="42.0941206" lon="13.5257715"><ele>827.0</ele><time>2026-05-02T13:30:22.003Z</time></trkpt><trkpt lat="42.0941654" lon="13.5256575"><ele>828.0</ele><time>2026-05-02T13:30:24.003Z</time></trkpt><trkpt lat="42.0941969" lon="13.5255528"><ele>829.0</ele><time>2026-05-02T13:30:26.003Z</time></trkpt><trkpt lat="42.0942034" lon="13.525443"><ele>830.0</ele><time>2026-05-02T13:30:28.002Z</time></trkpt><trkpt lat="42.0942292" lon="13.5253125"><ele>831.0</ele><time>2026-05-02T13:30:30.002Z</time></trkpt><trkpt lat="42.0943008" lon="13.5251812"><ele>828.6666666666666</ele><time>2026-05-02T13:30:32.003Z</time></trkpt><trkpt lat="42.0943541" lon="13.5251192"><ele>826.3333333333333</ele><time>2026-05-02T13:30:33.003Z</time></trkpt><trkpt lat="42.0944043" lon="13.5250592"><ele>824.0</ele><time>2026-05-02T13:30:34.003Z</time></trkpt><trkpt lat="42.0944876" lon="13.5249546"><ele>821.6666666666666</ele><time>2026-05-02T13:30:36.003Z</time></trkpt><trkpt lat="42.0945619" lon="13.5248702"><ele>819.3333333333333</ele><time>2026-05-02T13:30:38.003Z</time></trkpt><trkpt lat="42.0946326" lon="13.5247916"><ele>817.0</ele><time>2026-05-02T13:30:40.003Z</time></trkpt><trkpt lat="42.0947086" lon="13.5247093"><ele>817.0</ele><time>2026-05-02T13:30:42.002Z</time></trkpt><trkpt lat="42.0947866" lon="13.524626"><ele>817.0</ele><time>2026-05-02T13:30:44.003Z</time></trkpt><trkpt lat="42.094863" lon="13.5245322"><ele>817.0</ele><time>2026-05-02T13:30:46.003Z</time></trkpt><trkpt lat="42.0949536" lon="13.5244522"><ele>817.0</ele><time>2026-05-02T13:30:48.003Z</time></trkpt><trkpt lat="42.0950643" lon="13.5243703"><ele>817.0</ele><time>2026-05-02T13:30:50.003Z</time></trkpt><trkpt lat="42.0951232" lon="13.5243212"><ele>817.5714285714286</ele><time>2026-05-02T13:30:51.003Z</time></trkpt><trkpt lat="42.09518" lon="13.5242754"><ele>818.1428571428571</ele><time>2026-05-02T13:30:52.003Z</time></trkpt><trkpt lat="42.095238" lon="13.5242259"><ele>818.7142857142858</ele><time>2026-05-02T13:30:53.002Z</time></trkpt><trkpt lat="42.0952944" lon="13.5241692"><ele>819.2857142857142</ele><time>2026-05-02T13:30:54.003Z</time></trkpt><trkpt lat="42.0953477" lon="13.5241088"><ele>819.8571428571429</ele><time>2026-05-02T13:30:55.003Z</time></trkpt><trkpt lat="42.0953977" lon="13.5240498"><ele>820.4285714285714</ele><time>2026-05-02T13:30:56.003Z</time></trkpt><trkpt lat="42.0954538" lon="13.5239911"><ele>821.0</ele><time>2026-05-02T13:30:57.003Z</time></trkpt><trkpt lat="42.0955144" lon="13.5239345"><ele>821.0000000000001</ele><time>2026-05-02T13:30:58.003Z</time></trkpt><trkpt lat="42.0955718" lon="13.5238862"><ele>821.0</ele><time>2026-05-02T13:30:59.003Z</time></trkpt><trkpt lat="42.0956583" lon="13.5237857"><ele>821.0</ele><time>2026-05-02T13:31:01.003Z</time></trkpt><trkpt lat="42.0957216" lon="13.5236523"><ele>821.0</ele><time>2026-05-02T13:31:03.003Z</time></trkpt><trkpt lat="42.0957521" lon="13.5235738"><ele>821.0000000000001</ele><time>2026-05-02T13:31:04.002Z</time></trkpt><trkpt lat="42.0957771" lon="13.5234933"><ele>821.0</ele><time>2026-05-02T13:31:05.003Z</time></trkpt><trkpt lat="42.0958006" lon="13.5234053"><ele>822.1428571428572</ele><time>2026-05-02T13:31:06.003Z</time></trkpt><trkpt lat="42.0958205" lon="13.5233119"><ele>823.2857142857143</ele><time>2026-05-02T13:31:07.002Z</time></trkpt><trkpt lat="42.0958375" lon="13.5232227"><ele>824.4285714285714</ele><time>2026-05-02T13:31:08.003Z</time></trkpt><trkpt lat="42.0958648" lon="13.5231371"><ele>825.5714285714287</ele><time>2026-05-02T13:31:09.003Z</time></trkpt><trkpt lat="42.0959006" lon="13.5230514"><ele>826.7142857142857</ele><time>2026-05-02T13:31:10.002Z</time></trkpt><trkpt lat="42.0959343" lon="13.5229617"><ele>827.8571428571429</ele><time>2026-05-02T13:31:11.003Z</time></trkpt><trkpt lat="42.0959672" lon="13.5228709"><ele>829.0</ele><time>2026-05-02T13:31:12.003Z</time></trkpt><trkpt lat="42.0959975" lon="13.5227845"><ele>829.8000000000001</ele><time>2026-05-02T13:31:13.003Z</time></trkpt><trkpt lat="42.0960392" lon="13.5226299"><ele>830.6</ele><time>2026-05-02T13:31:15.003Z</time></trkpt><trkpt lat="42.0960922" lon="13.5225116"><ele>831.4</ele><time>2026-05-02T13:31:17.003Z</time></trkpt><trkpt lat="42.0961251" lon="13.5224092"><ele>832.2</ele><time>2026-05-02T13:31:19.003Z</time></trkpt><trkpt lat="42.0961465" lon="13.5222889"><ele>833.0</ele><time>2026-05-02T13:31:21.003Z</time></trkpt><trkpt lat="42.0962046" lon="13.5221896"><ele>833.0000000000001</ele><time>2026-05-02T13:31:23.003Z</time></trkpt><trkpt lat="42.0962653" lon="13.5220884"><ele>833.0</ele><time>2026-05-02T13:31:25.003Z</time></trkpt><trkpt lat="42.096325" lon="13.5219851"><ele>833.0</ele><time>2026-05-02T13:31:27.003Z</time></trkpt><trkpt lat="42.0963873" lon="13.5219038"><ele>833.0</ele><time>2026-05-02T13:31:29.003Z</time></trkpt><trkpt lat="42.0964309" lon="13.5218292"><ele>833.0000000000001</ele><time>2026-05-02T13:31:32.003Z</time></trkpt><trkpt lat="42.096344" lon="13.5218292"><ele>833.0</ele><time>2026-05-02T13:32:32.003Z</time></trkpt><trkpt lat="42.0962824" lon="13.5218006"><ele>833.1428571428571</ele><time>2026-05-02T13:32:36.003Z</time></trkpt><trkpt lat="42.0962872" lon="13.5217152"><ele>833.2857142857142</ele><time>2026-05-02T13:36:10.997Z</time></trkpt><trkpt lat="42.0963091" lon="13.5216222"><ele>833.4285714285714</ele><time>2026-05-02T13:36:17.997Z</time></trkpt><trkpt lat="42.096327" lon="13.5215191"><ele>833.5714285714286</ele><time>2026-05-02T13:36:22.997Z</time></trkpt><trkpt lat="42.0963498" lon="13.5214208"><ele>833.7142857142857</ele><time>2026-05-02T13:36:25.997Z</time></trkpt><trkpt lat="42.0963616" lon="13.5213205"><ele>833.8571428571429</ele><time>2026-05-02T13:36:27.997Z</time></trkpt><trkpt lat="42.0963796" lon="13.5212359"><ele>834.0</ele><time>2026-05-02T13:36:29.997Z</time></trkpt><trkpt lat="42.0964089" lon="13.5211495"><ele>834.0</ele><time>2026-05-02T13:36:32.997Z</time></trkpt><trkpt lat="42.0964331" lon="13.5210678"><ele>834.0</ele><time>2026-05-02T13:37:50.997Z</time></trkpt><trkpt lat="42.096486" lon="13.5209814"><ele>834.0</ele><time>2026-05-02T13:37:53.997Z</time></trkpt><trkpt lat="42.0965429" lon="13.5208969"><ele>834.0</ele><time>2026-05-02T13:37:55.997Z</time></trkpt><trkpt lat="42.096624" lon="13.5208014"><ele>834.0</ele><time>2026-05-02T13:37:57.997Z</time></trkpt><trkpt lat="42.096706" lon="13.5206844"><ele>835.3333333333334</ele><time>2026-05-02T13:37:59.997Z</time></trkpt><trkpt lat="42.0967477" lon="13.5206194"><ele>836.6666666666667</ele><time>2026-05-02T13:38:00.997Z</time></trkpt><trkpt lat="42.0967896" lon="13.5205541"><ele>838.0</ele><time>2026-05-02T13:38:01.997Z</time></trkpt><trkpt lat="42.0968313" lon="13.5204851"><ele>839.3333333333334</ele><time>2026-05-02T13:38:02.997Z</time></trkpt><trkpt lat="42.0969062" lon="13.5203786"><ele>840.6666666666667</ele><time>2026-05-02T13:38:04.997Z</time></trkpt><trkpt lat="42.0969882" lon="13.520273"><ele>842.0</ele><time>2026-05-02T13:38:06.997Z</time></trkpt><trkpt lat="42.0970927" lon="13.5201855"><ele>842.0000000000001</ele><time>2026-05-02T13:38:08.997Z</time></trkpt><trkpt lat="42.097155" lon="13.5201467"><ele>842.0</ele><time>2026-05-02T13:38:09.997Z</time></trkpt><trkpt lat="42.0972198" lon="13.520117"><ele>842.0</ele><time>2026-05-02T13:38:10.997Z</time></trkpt><trkpt lat="42.0972822" lon="13.5200931"><ele>842.0</ele><time>2026-05-02T13:38:11.997Z</time></trkpt><trkpt lat="42.0973815" lon="13.5200614"><ele>842.0000000000001</ele><time>2026-05-02T13:38:13.997Z</time></trkpt><trkpt lat="42.097422" lon="13.519975"><ele>842.0</ele><time>2026-05-02T13:38:16.996Z</time></trkpt><trkpt lat="42.0974143" lon="13.5198741"><ele>842.0000000000001</ele><time>2026-05-02T13:38:18.997Z</time></trkpt><trkpt lat="42.0973692" lon="13.5197702"><ele>842.0</ele><time>2026-05-02T13:38:20.997Z</time></trkpt><trkpt lat="42.0973344" lon="13.5196527"><ele>842.0</ele><time>2026-05-02T13:38:22.997Z</time></trkpt><trkpt lat="42.0973237" lon="13.5195295"><ele>842.0</ele><time>2026-05-02T13:38:24.997Z</time></trkpt><trkpt lat="42.0973423" lon="13.5194372"><ele>842.0000000000001</ele><time>2026-05-02T13:38:27.991Z</time></trkpt><trkpt lat="42.0973205" lon="13.5193426"><ele>842.0</ele><time>2026-05-02T13:38:33.005Z</time></trkpt><trkpt lat="42.0972573" lon="13.5192821"><ele>844.1666666666667</ele><time>2026-05-02T13:43:36.998Z</time></trkpt><trkpt lat="42.0971969" lon="13.5191777"><ele>846.3333333333334</ele><time>2026-05-02T13:43:39.998Z</time></trkpt><trkpt lat="42.0971873" lon="13.5190469"><ele>848.5</ele><time>2026-05-02T13:43:41.998Z</time></trkpt><trkpt lat="42.0971872" lon="13.5189552"><ele>850.6666666666667</ele><time>2026-05-02T14:07:57.992Z</time></trkpt><trkpt lat="42.097204" lon="13.5188619"><ele>852.8333333333334</ele><time>2026-05-02T14:08:00.991Z</time></trkpt><trkpt lat="42.0972267" lon="13.5187774"><ele>855.0</ele><time>2026-05-02T14:08:10.992Z</time></trkpt><trkpt lat="42.0972514" lon="13.5186815"><ele>857.8</ele><time>2026-05-02T14:08:14.992Z</time></trkpt><trkpt lat="42.0972867" lon="13.5185538"><ele>860.6</ele><time>2026-05-02T14:08:21.992Z</time></trkpt><trkpt lat="42.0973287" lon="13.5184236"><ele>863.4000000000001</ele><time>2026-05-02T14:08:23.992Z</time></trkpt><trkpt lat="42.0973781" lon="13.5182866"><ele>866.2</ele><time>2026-05-02T14:08:25.992Z</time></trkpt><trkpt lat="42.0974311" lon="13.5181492"><ele>869.0</ele><time>2026-05-02T14:08:27.992Z</time></trkpt><trkpt lat="42.0974962" lon="13.5180137"><ele>870.1666666666667</ele><time>2026-05-02T14:08:29.992Z</time></trkpt><trkpt lat="42.0975721" lon="13.5178756"><ele>871.3333333333334</ele><time>2026-05-02T14:08:31.992Z</time></trkpt><trkpt lat="42.0976013" lon="13.5177966"><ele>872.5</ele><time>2026-05-02T14:08:32.992Z</time></trkpt><trkpt lat="42.097634" lon="13.5177224"><ele>873.6666666666667</ele><time>2026-05-02T14:08:33.992Z</time></trkpt><trkpt lat="42.0977099" lon="13.51759"><ele>874.8333333333334</ele><time>2026-05-02T14:08:35.992Z</time></trkpt><trkpt lat="42.09775" lon="13.5175188"><ele>876.0</ele><time>2026-05-02T14:08:36.992Z</time></trkpt><trkpt lat="42.0977908" lon="13.5174387"><ele>876.0</ele><time>2026-05-02T14:08:37.992Z</time></trkpt><trkpt lat="42.097831" lon="13.5173647"><ele>876.0</ele><time>2026-05-02T14:08:38.992Z</time></trkpt><trkpt lat="42.0978598" lon="13.5172811"><ele>876.0</ele><time>2026-05-02T14:08:39.992Z</time></trkpt><trkpt lat="42.0978875" lon="13.5172004"><ele>876.0</ele><time>2026-05-02T14:08:40.992Z</time></trkpt><trkpt lat="42.0979156" lon="13.5171172"><ele>876.0</ele><time>2026-05-02T14:08:41.992Z</time></trkpt><trkpt lat="42.0979563" lon="13.5169614"><ele>876.0</ele><time>2026-05-02T14:08:43.992Z</time></trkpt><trkpt lat="42.0979711" lon="13.5168781"><ele>876.0</ele><time>2026-05-02T14:08:44.992Z</time></trkpt><trkpt lat="42.0979827" lon="13.5167892"><ele>876.0</ele><time>2026-05-02T14:08:45.992Z</time></trkpt><trkpt lat="42.0979924" lon="13.516697"><ele>876.0</ele><time>2026-05-02T14:08:46.992Z</time></trkpt><trkpt lat="42.0980175" lon="13.5166105"><ele>876.0</ele><time>2026-05-02T14:08:47.992Z</time></trkpt><trkpt lat="42.0980381" lon="13.5165215"><ele>876.0</ele><time>2026-05-02T14:08:48.992Z</time></trkpt><trkpt lat="42.0980561" lon="13.5164346"><ele>876.0</ele><time>2026-05-02T14:08:49.992Z</time></trkpt><trkpt lat="42.0980729" lon="13.5163425"><ele>876.0</ele><time>2026-05-02T14:08:50.992Z</time></trkpt><trkpt lat="42.0980929" lon="13.516244"><ele>877.5999999999999</ele><time>2026-05-02T14:08:51.992Z</time></trkpt><trkpt lat="42.098115" lon="13.5161466"><ele>879.1999999999999</ele><time>2026-05-02T14:08:52.992Z</time></trkpt><trkpt lat="42.0981386" lon="13.5160493"><ele>880.8000000000001</ele><time>2026-05-02T14:08:53.992Z</time></trkpt><trkpt lat="42.0981917" lon="13.5159039"><ele>882.4000000000001</ele><time>2026-05-02T14:08:55.991Z</time></trkpt><trkpt lat="42.0982722" lon="13.5157753"><ele>884.0</ele><time>2026-05-02T14:08:57.991Z</time></trkpt><trkpt lat="42.0983196" lon="13.5157091"><ele>886.6666666666667</ele><time>2026-05-02T14:08:58.992Z</time></trkpt><trkpt lat="42.0983635" lon="13.5156429"><ele>889.3333333333334</ele><time>2026-05-02T14:08:59.992Z</time></trkpt><trkpt lat="42.0984117" lon="13.5155665"><ele>892.0</ele><time>2026-05-02T14:09:00.991Z</time></trkpt><trkpt lat="42.0984519" lon="13.5154873"><ele>894.6666666666667</ele><time>2026-05-02T14:09:01.992Z</time></trkpt><trkpt lat="42.0984904" lon="13.5154073"><ele>897.3333333333334</ele><time>2026-05-02T14:09:02.992Z</time></trkpt><trkpt lat="42.0985651" lon="13.5152761"><ele>900.0</ele><time>2026-05-02T14:09:04.992Z</time></trkpt><trkpt lat="42.0986043" lon="13.5152041"><ele>900.8333333333334</ele><time>2026-05-02T14:09:05.992Z</time></trkpt><trkpt lat="42.098643" lon="13.5151248"><ele>901.6666666666667</ele><time>2026-05-02T14:09:06.992Z</time></trkpt><trkpt lat="42.0986858" lon="13.5150395"><ele>902.5</ele><time>2026-05-02T14:09:07.992Z</time></trkpt><trkpt lat="42.0987276" lon="13.5149541"><ele>903.3333333333334</ele><time>2026-05-02T14:09:08.992Z</time></trkpt><trkpt lat="42.0987759" lon="13.5148619"><ele>904.1666666666667</ele><time>2026-05-02T14:09:09.992Z</time></trkpt><trkpt lat="42.0988231" lon="13.5147641"><ele>905.0</ele><time>2026-05-02T14:09:10.992Z</time></trkpt><trkpt lat="42.0988667" lon="13.5146656"><ele>905.0</ele><time>2026-05-02T14:09:11.991Z</time></trkpt><trkpt lat="42.0988981" lon="13.5145747"><ele>905.0</ele><time>2026-05-02T14:09:12.992Z</time></trkpt><trkpt lat="42.0989227" lon="13.5144955"><ele>905.0</ele><time>2026-05-02T14:09:13.991Z</time></trkpt><trkpt lat="42.0989495" lon="13.5143813"><ele>905.0</ele><time>2026-05-02T14:09:15.992Z</time></trkpt><trkpt lat="42.0988995" lon="13.5142609"><ele>905.0</ele><time>2026-05-02T14:09:18.992Z</time></trkpt><trkpt lat="42.0988196" lon="13.5141234"><ele>906.0</ele><time>2026-05-02T14:09:20.992Z</time></trkpt><trkpt lat="42.0987809" lon="13.5140252"><ele>907.0</ele><time>2026-05-02T14:09:21.992Z</time></trkpt><trkpt lat="42.0987424" lon="13.5139091"><ele>908.0</ele><time>2026-05-02T14:09:22.992Z</time></trkpt><trkpt lat="42.0987018" lon="13.5137819"><ele>909.0</ele><time>2026-05-02T14:09:23.992Z</time></trkpt><trkpt lat="42.0986566" lon="13.5136507"><ele>910.0</ele><time>2026-05-02T14:09:24.992Z</time></trkpt><trkpt lat="42.0986193" lon="13.5135315"><ele>911.8333333333333</ele><time>2026-05-02T14:09:25.991Z</time></trkpt><trkpt lat="42.0985914" lon="13.5134298"><ele>913.6666666666666</ele><time>2026-05-02T14:09:26.992Z</time></trkpt><trkpt lat="42.0985701" lon="13.5133379"><ele>915.5</ele><time>2026-05-02T14:09:27.991Z</time></trkpt><trkpt lat="42.0985587" lon="13.5132481"><ele>917.3333333333333</ele><time>2026-05-02T14:09:28.992Z</time></trkpt><trkpt lat="42.0985552" lon="13.513148"><ele>919.1666666666666</ele><time>2026-05-02T14:09:29.992Z</time></trkpt><trkpt lat="42.0985475" lon="13.5130391"><ele>921.0</ele><time>2026-05-02T14:09:30.991Z</time></trkpt><trkpt lat="42.0985256" lon="13.5129428"><ele>921.6666666666666</ele><time>2026-05-02T14:09:31.992Z</time></trkpt><trkpt lat="42.0984972" lon="13.5128431"><ele>922.3333333333333</ele><time>2026-05-02T14:09:32.991Z</time></trkpt><trkpt lat="42.0984656" lon="13.5127422"><ele>923.0</ele><time>2026-05-02T14:09:33.991Z</time></trkpt><trkpt lat="42.0984407" lon="13.5126408"><ele>923.6666666666666</ele><time>2026-05-02T14:09:34.992Z</time></trkpt><trkpt lat="42.0984257" lon="13.5125304"><ele>924.3333333333333</ele><time>2026-05-02T14:09:35.992Z</time></trkpt><trkpt lat="42.098416" lon="13.5124153"><ele>925.0</ele><time>2026-05-02T14:09:36.992Z</time></trkpt><trkpt lat="42.0984064" lon="13.512296"><ele>924.9999999999999</ele><time>2026-05-02T14:09:37.991Z</time></trkpt><trkpt lat="42.0984004" lon="13.5121769"><ele>925.0</ele><time>2026-05-02T14:09:38.992Z</time></trkpt><trkpt lat="42.0984001" lon="13.5120592"><ele>925.0</ele><time>2026-05-02T14:09:39.992Z</time></trkpt><trkpt lat="42.0984087" lon="13.5119424"><ele>925.0</ele><time>2026-05-02T14:09:40.992Z</time></trkpt><trkpt lat="42.0984211" lon="13.5118249"><ele>924.9999999999999</ele><time>2026-05-02T14:09:41.992Z</time></trkpt><trkpt lat="42.0984375" lon="13.5117064"><ele>925.0</ele><time>2026-05-02T14:09:42.991Z</time></trkpt><trkpt lat="42.0984456" lon="13.5115899"><ele>925.6666666666666</ele><time>2026-05-02T14:09:43.992Z</time></trkpt><trkpt lat="42.0984432" lon="13.5114782"><ele>926.3333333333333</ele><time>2026-05-02T14:09:44.992Z</time></trkpt><trkpt lat="42.0984247" lon="13.5113765"><ele>927.0</ele><time>2026-05-02T14:09:45.992Z</time></trkpt><trkpt lat="42.0983916" lon="13.5112726"><ele>927.6666666666667</ele><time>2026-05-02T14:09:46.992Z</time></trkpt><trkpt lat="42.0983379" lon="13.5111734"><ele>928.3333333333334</ele><time>2026-05-02T14:09:47.992Z</time></trkpt><trkpt lat="42.098277" lon="13.5110783"><ele>929.0</ele><time>2026-05-02T14:09:48.992Z</time></trkpt><trkpt lat="42.0982223" lon="13.5109921"><ele>926.1666666666667</ele><time>2026-05-02T14:09:49.991Z</time></trkpt><trkpt lat="42.0981791" lon="13.5109168"><ele>923.3333333333334</ele><time>2026-05-02T14:09:50.992Z</time></trkpt><trkpt lat="42.0981408" lon="13.510836"><ele>920.5</ele><time>2026-05-02T14:09:51.992Z</time></trkpt><trkpt lat="42.0981112" lon="13.5107441"><ele>917.6666666666667</ele><time>2026-05-02T14:09:52.992Z</time></trkpt><trkpt lat="42.0980818" lon="13.5106439"><ele>914.8333333333334</ele><time>2026-05-02T14:09:53.992Z</time></trkpt><trkpt lat="42.0980535" lon="13.510542"><ele>912.0</ele><time>2026-05-02T14:09:54.992Z</time></trkpt><trkpt lat="42.0980171" lon="13.5104357"><ele>912.0</ele><time>2026-05-02T14:09:55.992Z</time></trkpt><trkpt lat="42.0979718" lon="13.5103339"><ele>912.0</ele><time>2026-05-02T14:09:56.992Z</time></trkpt><trkpt lat="42.0979267" lon="13.5102321"><ele>912.0</ele><time>2026-05-02T14:09:57.992Z</time></trkpt><trkpt lat="42.0978796" lon="13.510134"><ele>912.0</ele><time>2026-05-02T14:09:58.992Z</time></trkpt><trkpt lat="42.0978334" lon="13.510037"><ele>912.0</ele><time>2026-05-02T14:09:59.992Z</time></trkpt><trkpt lat="42.0977913" lon="13.5099459"><ele>912.0</ele><time>2026-05-02T14:10:00.992Z</time></trkpt><trkpt lat="42.0977547" lon="13.5098578"><ele>912.0</ele><time>2026-05-02T14:10:01.992Z</time></trkpt><trkpt lat="42.0977199" lon="13.5097642"><ele>911.9999999999999</ele><time>2026-05-02T14:10:02.992Z</time></trkpt><trkpt lat="42.0976865" lon="13.5096606"><ele>912.0</ele><time>2026-05-02T14:10:03.991Z</time></trkpt><trkpt lat="42.0976586" lon="13.5095606"><ele>912.0</ele><time>2026-05-02T14:10:04.992Z</time></trkpt><trkpt lat="42.0976401" lon="13.5094708"><ele>911.9999999999999</ele><time>2026-05-02T14:10:05.992Z</time></trkpt><trkpt lat="42.0976353" lon="13.509384"><ele>912.0</ele><time>2026-05-02T14:10:06.992Z</time></trkpt><trkpt lat="42.0976426" lon="13.5092961"><ele>912.0</ele><time>2026-05-02T14:10:07.992Z</time></trkpt><trkpt lat="42.0976712" lon="13.5092046"><ele>912.0</ele><time>2026-05-02T14:10:08.992Z</time></trkpt><trkpt lat="42.0976981" lon="13.5090981"><ele>912.0</ele><time>2026-05-02T14:10:09.992Z</time></trkpt><trkpt lat="42.0977262" lon="13.5089793"><ele>912.0</ele><time>2026-05-02T14:10:10.992Z</time></trkpt><trkpt lat="42.097751" lon="13.5088475"><ele>912.0</ele><time>2026-05-02T14:10:11.992Z</time></trkpt><trkpt lat="42.0977713" lon="13.5087044"><ele>912.0</ele><time>2026-05-02T14:10:12.992Z</time></trkpt><trkpt lat="42.0977858" lon="13.508557"><ele>912.0</ele><time>2026-05-02T14:10:13.992Z</time></trkpt><trkpt lat="42.0977964" lon="13.508404"><ele>912.0</ele><time>2026-05-02T14:10:14.992Z</time></trkpt><trkpt lat="42.0978059" lon="13.508256"><ele>912.0</ele><time>2026-05-02T14:10:15.992Z</time></trkpt><trkpt lat="42.0978206" lon="13.5081111"><ele>912.0</ele><time>2026-05-02T14:10:16.992Z</time></trkpt><trkpt lat="42.0978409" lon="13.5079675"><ele>912.0</ele><time>2026-05-02T14:10:17.992Z</time></trkpt><trkpt lat="42.097866" lon="13.507827"><ele>912.1666666666666</ele><time>2026-05-02T14:10:18.992Z</time></trkpt><trkpt lat="42.0978925" lon="13.507693"><ele>912.3333333333333</ele><time>2026-05-02T14:10:19.992Z</time></trkpt><trkpt lat="42.0979146" lon="13.5075758"><ele>912.5</ele><time>2026-05-02T14:10:20.991Z</time></trkpt><trkpt lat="42.0979432" lon="13.5074715"><ele>912.6666666666666</ele><time>2026-05-02T14:10:21.992Z</time></trkpt><trkpt lat="42.097985" lon="13.5073744"><ele>912.8333333333333</ele><time>2026-05-02T14:10:22.992Z</time></trkpt><trkpt lat="42.09804" lon="13.5072909"><ele>913.0</ele><time>2026-05-02T14:10:23.992Z</time></trkpt><trkpt lat="42.0981059" lon="13.5072148"><ele>913.0</ele><time>2026-05-02T14:10:24.992Z</time></trkpt><trkpt lat="42.0981815" lon="13.50714"><ele>913.0</ele><time>2026-05-02T14:10:25.992Z</time></trkpt><trkpt lat="42.0982554" lon="13.5070596"><ele>913.0</ele><time>2026-05-02T14:10:26.991Z</time></trkpt><trkpt lat="42.0983266" lon="13.5069717"><ele>913.0</ele><time>2026-05-02T14:10:27.992Z</time></trkpt><trkpt lat="42.0983931" lon="13.506878"><ele>913.0</ele><time>2026-05-02T14:10:28.991Z</time></trkpt><trkpt lat="42.0984555" lon="13.5067909"><ele>913.3333333333333</ele><time>2026-05-02T14:10:29.992Z</time></trkpt><trkpt lat="42.0985073" lon="13.506706"><ele>913.6666666666666</ele><time>2026-05-02T14:10:30.992Z</time></trkpt><trkpt lat="42.0985564" lon="13.5066159"><ele>914.0</ele><time>2026-05-02T14:10:31.992Z</time></trkpt><trkpt lat="42.0985744" lon="13.5064832"><ele>914.3333333333333</ele><time>2026-05-02T14:10:32.992Z</time></trkpt><trkpt lat="42.0986047" lon="13.5063666"><ele>914.6666666666666</ele><time>2026-05-02T14:10:33.992Z</time></trkpt><trkpt lat="42.098634" lon="13.5062474"><ele>915.0</ele><time>2026-05-02T14:10:34.991Z</time></trkpt><trkpt lat="42.0986693" lon="13.5061252"><ele>915.0</ele><time>2026-05-02T14:10:35.992Z</time></trkpt><trkpt lat="42.0987007" lon="13.5060057"><ele>915.0</ele><time>2026-05-02T14:10:36.992Z</time></trkpt><trkpt lat="42.0987353" lon="13.505884"><ele>915.0</ele><time>2026-05-02T14:10:37.991Z</time></trkpt><trkpt lat="42.0987647" lon="13.505765"><ele>915.0</ele><time>2026-05-02T14:10:38.992Z</time></trkpt><trkpt lat="42.0988014" lon="13.5056543"><ele>915.0</ele><time>2026-05-02T14:10:39.992Z</time></trkpt><trkpt lat="42.0988461" lon="13.505544"><ele>915.0</ele><time>2026-05-02T14:10:40.992Z</time></trkpt><trkpt lat="42.0988918" lon="13.5054399"><ele>915.0</ele><time>2026-05-02T14:10:41.991Z</time></trkpt><trkpt lat="42.0989546" lon="13.5053432"><ele>915.0</ele><time>2026-05-02T14:10:42.992Z</time></trkpt><trkpt lat="42.0990099" lon="13.5052452"><ele>915.0</ele><time>2026-05-02T14:10:43.992Z</time></trkpt><trkpt lat="42.0990697" lon="13.5051499"><ele>915.0</ele><time>2026-05-02T14:10:44.992Z</time></trkpt><trkpt lat="42.0991343" lon="13.5050638"><ele>917.2</ele><time>2026-05-02T14:10:45.992Z</time></trkpt><trkpt lat="42.0992009" lon="13.5049851"><ele>919.4</ele><time>2026-05-02T14:10:46.992Z</time></trkpt><trkpt lat="42.0992663" lon="13.5049026"><ele>921.5999999999999</ele><time>2026-05-02T14:10:47.992Z</time></trkpt><trkpt lat="42.0993275" lon="13.5048135"><ele>923.8</ele><time>2026-05-02T14:10:48.991Z</time></trkpt><trkpt lat="42.0993887" lon="13.504709"><ele>926.0</ele><time>2026-05-02T14:10:49.992Z</time></trkpt><trkpt lat="42.0994505" lon="13.504593"><ele>927.25</ele><time>2026-05-02T14:10:50.992Z</time></trkpt><trkpt lat="42.0995155" lon="13.504468"><ele>928.5</ele><time>2026-05-02T14:10:51.991Z</time></trkpt><trkpt lat="42.0995823" lon="13.5043346"><ele>929.75</ele><time>2026-05-02T14:10:52.992Z</time></trkpt><trkpt lat="42.099652" lon="13.5041933"><ele>931.0</ele><time>2026-05-02T14:10:53.992Z</time></trkpt><trkpt lat="42.0997192" lon="13.5040564"><ele>931.0</ele><time>2026-05-02T14:10:54.992Z</time></trkpt><trkpt lat="42.0997852" lon="13.5039221"><ele>931.0</ele><time>2026-05-02T14:10:55.992Z</time></trkpt><trkpt lat="42.099849" lon="13.5037819"><ele>931.0</ele><time>2026-05-02T14:10:56.992Z</time></trkpt><trkpt lat="42.0999146" lon="13.503642"><ele>931.0</ele><time>2026-05-02T14:10:57.991Z</time></trkpt><trkpt lat="42.0999803" lon="13.5035018"><ele>931.5</ele><time>2026-05-02T14:10:58.992Z</time></trkpt><trkpt lat="42.1000446" lon="13.5033585"><ele>932.0</ele><time>2026-05-02T14:10:59.992Z</time></trkpt><trkpt lat="42.1001066" lon="13.5032135"><ele>932.5</ele><time>2026-05-02T14:11:00.992Z</time></trkpt><trkpt lat="42.100169" lon="13.5030726"><ele>933.0</ele><time>2026-05-02T14:11:01.992Z</time></trkpt><trkpt lat="42.1002356" lon="13.502934"><ele>935.5</ele><time>2026-05-02T14:11:02.991Z</time></trkpt><trkpt lat="42.1003072" lon="13.5027984"><ele>938.0</ele><time>2026-05-02T14:11:03.991Z</time></trkpt><trkpt lat="42.1003792" lon="13.5026666"><ele>940.5</ele><time>2026-05-02T14:11:04.991Z</time></trkpt><trkpt lat="42.1004508" lon="13.5025414"><ele>943.0</ele><time>2026-05-02T14:11:05.991Z</time></trkpt><trkpt lat="42.1005188" lon="13.5024215"><ele>943.0</ele><time>2026-05-02T14:11:06.992Z</time></trkpt><trkpt lat="42.1005885" lon="13.5023086"><ele>943.0</ele><time>2026-05-02T14:11:07.992Z</time></trkpt><trkpt lat="42.1006619" lon="13.5022007"><ele>943.0</ele><time>2026-05-02T14:11:08.992Z</time></trkpt><trkpt lat="42.1007392" lon="13.5020974"><ele>943.0</ele><time>2026-05-02T14:11:09.992Z</time></trkpt><trkpt lat="42.1008198" lon="13.5019991"><ele>943.0</ele><time>2026-05-02T14:11:10.991Z</time></trkpt><trkpt lat="42.1009011" lon="13.5019062"><ele>944.0</ele><time>2026-05-02T14:11:11.992Z</time></trkpt><trkpt lat="42.1009828" lon="13.501814"><ele>945.0</ele><time>2026-05-02T14:11:12.992Z</time></trkpt><trkpt lat="42.1010614" lon="13.5017151"><ele>946.0</ele><time>2026-05-02T14:11:13.991Z</time></trkpt><trkpt lat="42.1011304" lon="13.5016123"><ele>947.0</ele><time>2026-05-02T14:11:14.992Z</time></trkpt><trkpt lat="42.1011923" lon="13.5015102"><ele>948.0</ele><time>2026-05-02T14:11:15.991Z</time></trkpt><trkpt lat="42.1012484" lon="13.501414"><ele>948.0</ele><time>2026-05-02T14:11:16.992Z</time></trkpt><trkpt lat="42.1012966" lon="13.5013282"><ele>948.0</ele><time>2026-05-02T14:11:17.992Z</time></trkpt><trkpt lat="42.1013346" lon="13.501253"><ele>948.0</ele><time>2026-05-02T14:11:18.992Z</time></trkpt><trkpt lat="42.1013995" lon="13.5011389"><ele>948.0</ele><time>2026-05-02T14:11:20.992Z</time></trkpt><trkpt lat="42.1014757" lon="13.5010791"><ele>948.0</ele><time>2026-05-02T14:11:22.992Z</time></trkpt><trkpt lat="42.1015522" lon="13.5011448"><ele>948.0</ele><time>2026-05-02T14:11:24.991Z</time></trkpt><trkpt lat="42.1015813" lon="13.5012223"><ele>949.25</ele><time>2026-05-02T14:11:25.992Z</time></trkpt><trkpt lat="42.1016048" lon="13.5013443"><ele>950.5</ele><time>2026-05-02T14:11:26.992Z</time></trkpt><trkpt lat="42.101629" lon="13.5014934"><ele>951.75</ele><time>2026-05-02T14:11:27.992Z</time></trkpt><trkpt lat="42.1016623" lon="13.501654"><ele>953.0</ele><time>2026-05-02T14:11:28.992Z</time></trkpt><trkpt lat="42.1016988" lon="13.5018249"><ele>953.0</ele><time>2026-05-02T14:11:29.992Z</time></trkpt><trkpt lat="42.1017461" lon="13.5019926"><ele>953.0</ele><time>2026-05-02T14:11:30.992Z</time></trkpt><trkpt lat="42.1017972" lon="13.5021338"><ele>953.0</ele><time>2026-05-02T14:11:31.992Z</time></trkpt><trkpt lat="42.1018336" lon="13.502285"><ele>953.0</ele><time>2026-05-02T14:11:32.992Z</time></trkpt><trkpt lat="42.1018728" lon="13.5024155"><ele>951.6666666666667</ele><time>2026-05-02T14:11:33.992Z</time></trkpt><trkpt lat="42.1019077" lon="13.502532"><ele>950.3333333333334</ele><time>2026-05-02T14:11:34.992Z</time></trkpt><trkpt lat="42.1019492" lon="13.5026354"><ele>949.0</ele><time>2026-05-02T14:11:35.992Z</time></trkpt><trkpt lat="42.1019973" lon="13.5027466"><ele>947.6666666666667</ele><time>2026-05-02T14:11:36.992Z</time></trkpt><trkpt lat="42.1020581" lon="13.5028387"><ele>946.3333333333334</ele><time>2026-05-02T14:11:37.992Z</time></trkpt><trkpt lat="42.1021031" lon="13.5029243"><ele>945.0</ele><time>2026-05-02T14:11:38.992Z</time></trkpt><trkpt lat="42.1021561" lon="13.502979"><ele>944.0</ele><time>2026-05-02T14:11:39.992Z</time></trkpt><trkpt lat="42.1021945" lon="13.5031171"><ele>943.0</ele><time>2026-05-02T14:11:41.992Z</time></trkpt><trkpt lat="42.1021686" lon="13.5032815"><ele>942.0</ele><time>2026-05-02T14:11:43.992Z</time></trkpt><trkpt lat="42.102137" lon="13.5033873"><ele>941.0</ele><time>2026-05-02T14:11:44.992Z</time></trkpt><trkpt lat="42.1021052" lon="13.5035113"><ele>940.0</ele><time>2026-05-02T14:11:45.992Z</time></trkpt><trkpt lat="42.1020398" lon="13.503637"><ele>938.75</ele><time>2026-05-02T14:11:46.992Z</time></trkpt><trkpt lat="42.1019858" lon="13.5037695"><ele>937.5</ele><time>2026-05-02T14:11:47.992Z</time></trkpt><trkpt lat="42.1019039" lon="13.5039522"><ele>936.25</ele><time>2026-05-02T14:11:48.992Z</time></trkpt><trkpt lat="42.1018244" lon="13.5041203"><ele>935.0</ele><time>2026-05-02T14:11:49.992Z</time></trkpt><trkpt lat="42.1017598" lon="13.5042783"><ele>935.0</ele><time>2026-05-02T14:11:50.992Z</time></trkpt><trkpt lat="42.1016937" lon="13.5044342"><ele>935.0</ele><time>2026-05-02T14:11:51.992Z</time></trkpt><trkpt lat="42.1016277" lon="13.5045809"><ele>935.0</ele><time>2026-05-02T14:11:52.992Z</time></trkpt><trkpt lat="42.1015712" lon="13.5047128"><ele>935.0</ele><time>2026-05-02T14:11:53.992Z</time></trkpt><trkpt lat="42.1015115" lon="13.5048604"><ele>934.2</ele><time>2026-05-02T14:11:54.992Z</time></trkpt><trkpt lat="42.1014633" lon="13.5049868"><ele>933.4</ele><time>2026-05-02T14:11:55.992Z</time></trkpt><trkpt lat="42.1014214" lon="13.5051219"><ele>932.5999999999999</ele><time>2026-05-02T14:11:56.992Z</time></trkpt><trkpt lat="42.1013905" lon="13.5052541"><ele>931.8</ele><time>2026-05-02T14:11:57.992Z</time></trkpt><trkpt lat="42.1013645" lon="13.505395"><ele>931.0</ele><time>2026-05-02T14:11:58.992Z</time></trkpt><trkpt lat="42.1013387" lon="13.5055443"><ele>930.5</ele><time>2026-05-02T14:11:59.992Z</time></trkpt><trkpt lat="42.101314" lon="13.5056942"><ele>930.0</ele><time>2026-05-02T14:12:00.992Z</time></trkpt><trkpt lat="42.1012852" lon="13.5058525"><ele>929.5</ele><time>2026-05-02T14:12:01.992Z</time></trkpt><trkpt lat="42.101258" lon="13.5060127"><ele>929.0</ele><time>2026-05-02T14:12:02.991Z</time></trkpt><trkpt lat="42.1012296" lon="13.5061781"><ele>929.5</ele><time>2026-05-02T14:12:03.992Z</time></trkpt><trkpt lat="42.1012055" lon="13.5063453"><ele>930.0</ele><time>2026-05-02T14:12:04.992Z</time></trkpt><trkpt lat="42.1011872" lon="13.5065124"><ele>930.5</ele><time>2026-05-02T14:12:05.992Z</time></trkpt><trkpt lat="42.1011693" lon="13.5066866"><ele>931.0</ele><time>2026-05-02T14:12:06.991Z</time></trkpt><trkpt lat="42.1011546" lon="13.5068465"><ele>931.0</ele><time>2026-05-02T14:12:07.992Z</time></trkpt><trkpt lat="42.1011489" lon="13.5069962"><ele>930.9999999999999</ele><time>2026-05-02T14:12:08.991Z</time></trkpt><trkpt lat="42.101153" lon="13.5071512"><ele>930.9999999999999</ele><time>2026-05-02T14:12:09.991Z</time></trkpt><trkpt lat="42.1011688" lon="13.5073016"><ele>931.0</ele><time>2026-05-02T14:12:10.992Z</time></trkpt><trkpt lat="42.1011855" lon="13.5074465"><ele>931.0</ele><time>2026-05-02T14:12:11.992Z</time></trkpt><trkpt lat="42.1011863" lon="13.5075884"><ele>933.0</ele><time>2026-05-02T14:12:12.992Z</time></trkpt><trkpt lat="42.1011763" lon="13.507732"><ele>935.0</ele><time>2026-05-02T14:12:13.992Z</time></trkpt><trkpt lat="42.1011495" lon="13.5078836"><ele>937.0</ele><time>2026-05-02T14:12:14.992Z</time></trkpt><trkpt lat="42.1011262" lon="13.5080408"><ele>939.0</ele><time>2026-05-02T14:12:15.991Z</time></trkpt><trkpt lat="42.1011053" lon="13.5082077"><ele>940.75</ele><time>2026-05-02T14:12:16.992Z</time></trkpt><trkpt lat="42.1010888" lon="13.5083791"><ele>942.5</ele><time>2026-05-02T14:12:17.992Z</time></trkpt><trkpt lat="42.1010626" lon="13.5085558"><ele>944.25</ele><time>2026-05-02T14:12:18.992Z</time></trkpt><trkpt lat="42.1010456" lon="13.508723"><ele>946.0</ele><time>2026-05-02T14:12:19.992Z</time></trkpt><trkpt lat="42.101021" lon="13.5088665"><ele>948.0</ele><time>2026-05-02T14:12:20.992Z</time></trkpt><trkpt lat="42.1009842" lon="13.5090056"><ele>949.9999999999999</ele><time>2026-05-02T14:12:21.992Z</time></trkpt><trkpt lat="42.10095" lon="13.509135"><ele>951.9999999999999</ele><time>2026-05-02T14:12:22.992Z</time></trkpt><trkpt lat="42.100895" lon="13.5092495"><ele>954.0</ele><time>2026-05-02T14:12:23.992Z</time></trkpt><trkpt lat="42.1008442" lon="13.5093479"><ele>956.0</ele><time>2026-05-02T14:12:24.992Z</time></trkpt><trkpt lat="42.1008009" lon="13.509427"><ele>956.0000000000001</ele><time>2026-05-02T14:12:25.992Z</time></trkpt><trkpt lat="42.1007518" lon="13.5095423"><ele>956.0</ele><time>2026-05-02T14:12:27.992Z</time></trkpt><trkpt lat="42.1007961" lon="13.509611"><ele>956.0</ele><time>2026-05-02T14:12:31.992Z</time></trkpt><trkpt lat="42.1008607" lon="13.5095117"><ele>956.0</ele><time>2026-05-02T14:12:33.992Z</time></trkpt><trkpt lat="42.1009004" lon="13.5094302"><ele>956.0000000000001</ele><time>2026-05-02T14:12:34.992Z</time></trkpt><trkpt lat="42.1009549" lon="13.5093368"><ele>956.0</ele><time>2026-05-02T14:12:35.992Z</time></trkpt><trkpt lat="42.1010225" lon="13.5092285"><ele>956.0</ele><time>2026-05-02T14:12:36.992Z</time></trkpt><trkpt lat="42.101099" lon="13.5091093"><ele>956.0</ele><time>2026-05-02T14:12:37.992Z</time></trkpt><trkpt lat="42.1011864" lon="13.5089837"><ele>956.0</ele><time>2026-05-02T14:12:38.992Z</time></trkpt><trkpt lat="42.1012873" lon="13.5088547"><ele>956.0</ele><time>2026-05-02T14:12:39.992Z</time></trkpt><trkpt lat="42.1013979" lon="13.5087194"><ele>955.0</ele><time>2026-05-02T14:12:40.992Z</time></trkpt><trkpt lat="42.1015129" lon="13.5085766"><ele>954.0</ele><time>2026-05-02T14:12:41.992Z</time></trkpt><trkpt lat="42.1016307" lon="13.5084236"><ele>953.0</ele><time>2026-05-02T14:12:42.992Z</time></trkpt><trkpt lat="42.1017539" lon="13.5082651"><ele>953.0</ele><time>2026-05-02T14:12:43.992Z</time></trkpt><trkpt lat="42.1018805" lon="13.5081053"><ele>953.0</ele><time>2026-05-02T14:12:44.992Z</time></trkpt><trkpt lat="42.1020073" lon="13.5079344"><ele>953.0</ele><time>2026-05-02T14:12:45.992Z</time></trkpt><trkpt lat="42.1021308" lon="13.5077521"><ele>951.0</ele><time>2026-05-02T14:12:46.992Z</time></trkpt><trkpt lat="42.1022449" lon="13.5075601"><ele>949.0</ele><time>2026-05-02T14:12:47.992Z</time></trkpt><trkpt lat="42.1023466" lon="13.5073587"><ele>947.0</ele><time>2026-05-02T14:12:48.992Z</time></trkpt><trkpt lat="42.1024411" lon="13.5071486"><ele>951.0</ele><time>2026-05-02T14:12:49.992Z</time></trkpt><trkpt lat="42.1025273" lon="13.5069345"><ele>955.0</ele><time>2026-05-02T14:12:50.992Z</time></trkpt><trkpt lat="42.1026035" lon="13.506712"><ele>959.0</ele><time>2026-05-02T14:12:51.992Z</time></trkpt><trkpt lat="42.1026743" lon="13.5064876"><ele>959.0</ele><time>2026-05-02T14:12:52.992Z</time></trkpt><trkpt lat="42.1027461" lon="13.506262"><ele>959.0</ele><time>2026-05-02T14:12:53.991Z</time></trkpt><trkpt lat="42.1028153" lon="13.5060326"><ele>959.0</ele><time>2026-05-02T14:12:54.992Z</time></trkpt><trkpt lat="42.102883" lon="13.5058094"><ele>956.3333333333334</ele><time>2026-05-02T14:12:55.991Z</time></trkpt><trkpt lat="42.1029464" lon="13.505604"><ele>953.6666666666667</ele><time>2026-05-02T14:12:56.992Z</time></trkpt><trkpt lat="42.1030059" lon="13.5054126"><ele>951.0</ele><time>2026-05-02T14:12:57.992Z</time></trkpt><trkpt lat="42.1030722" lon="13.5052398"><ele>949.75</ele><time>2026-05-02T14:12:58.992Z</time></trkpt><trkpt lat="42.1031572" lon="13.505085"><ele>948.5</ele><time>2026-05-02T14:12:59.992Z</time></trkpt><trkpt lat="42.1032619" lon="13.5049613"><ele>947.25</ele><time>2026-05-02T14:13:00.992Z</time></trkpt><trkpt lat="42.1033855" lon="13.5048606"><ele>946.0</ele><time>2026-05-02T14:13:01.991Z</time></trkpt><trkpt lat="42.1035218" lon="13.5047759"><ele>949.3333333333333</ele><time>2026-05-02T14:13:02.992Z</time></trkpt><trkpt lat="42.1036628" lon="13.5046928"><ele>952.6666666666667</ele><time>2026-05-02T14:13:03.992Z</time></trkpt><trkpt lat="42.1038072" lon="13.5045983"><ele>956.0</ele><time>2026-05-02T14:13:04.992Z</time></trkpt><trkpt lat="42.1039535" lon="13.5044826"><ele>961.0</ele><time>2026-05-02T14:13:05.991Z</time></trkpt><trkpt lat="42.1040882" lon="13.504346"><ele>966.0</ele><time>2026-05-02T14:13:06.992Z</time></trkpt><trkpt lat="42.1042148" lon="13.5041875"><ele>971.0</ele><time>2026-05-02T14:13:07.992Z</time></trkpt><trkpt lat="42.104329" lon="13.5040128"><ele>971.0</ele><time>2026-05-02T14:13:08.992Z</time></trkpt><trkpt lat="42.1044377" lon="13.503824"><ele>971.0</ele><time>2026-05-02T14:13:09.992Z</time></trkpt><trkpt lat="42.1045353" lon="13.5036285"><ele>971.0</ele><time>2026-05-02T14:13:10.992Z</time></trkpt><trkpt lat="42.1046305" lon="13.5034278"><ele>970.3333333333334</ele><time>2026-05-02T14:13:11.992Z</time></trkpt><trkpt lat="42.104722" lon="13.5032213"><ele>969.6666666666667</ele><time>2026-05-02T14:13:12.992Z</time></trkpt><trkpt lat="42.1048079" lon="13.5030103"><ele>969.0</ele><time>2026-05-02T14:13:13.991Z</time></trkpt><trkpt lat="42.1048853" lon="13.5027892"><ele>975.3333333333333</ele><time>2026-05-02T14:13:14.992Z</time></trkpt><trkpt lat="42.1049574" lon="13.5025601"><ele>981.6666666666666</ele><time>2026-05-02T14:13:15.991Z</time></trkpt><trkpt lat="42.1050261" lon="13.5023261"><ele>988.0</ele><time>2026-05-02T14:13:16.992Z</time></trkpt><trkpt lat="42.1050907" lon="13.5020876"><ele>987.0</ele><time>2026-05-02T14:13:17.992Z</time></trkpt><trkpt lat="42.1051556" lon="13.5018504"><ele>986.0</ele><time>2026-05-02T14:13:18.992Z</time></trkpt><trkpt lat="42.1052162" lon="13.5016073"><ele>985.0</ele><time>2026-05-02T14:13:19.992Z</time></trkpt><trkpt lat="42.1052739" lon="13.501363"><ele>984.6666666666666</ele><time>2026-05-02T14:13:20.992Z</time></trkpt><trkpt lat="42.1053281" lon="13.5011163"><ele>984.3333333333333</ele><time>2026-05-02T14:13:21.992Z</time></trkpt><trkpt lat="42.1053742" lon="13.5008655"><ele>984.0</ele><time>2026-05-02T14:13:22.992Z</time></trkpt><trkpt lat="42.1054027" lon="13.5006195"><ele>986.6666666666667</ele><time>2026-05-02T14:13:23.992Z</time></trkpt><trkpt lat="42.1054193" lon="13.5003889"><ele>989.3333333333334</ele><time>2026-05-02T14:13:24.992Z</time></trkpt><trkpt lat="42.1054225" lon="13.5001804"><ele>992.0</ele><time>2026-05-02T14:13:25.992Z</time></trkpt><trkpt lat="42.1054012" lon="13.499981"><ele>992.0</ele><time>2026-05-02T14:13:26.992Z</time></trkpt><trkpt lat="42.105352" lon="13.4997934"><ele>992.0</ele><time>2026-05-02T14:13:27.992Z</time></trkpt><trkpt lat="42.1052705" lon="13.4996271"><ele>992.0</ele><time>2026-05-02T14:13:28.992Z</time></trkpt><trkpt lat="42.1051661" lon="13.4994779"><ele>992.0</ele><time>2026-05-02T14:13:29.992Z</time></trkpt><trkpt lat="42.1050509" lon="13.4993354"><ele>992.0</ele><time>2026-05-02T14:13:30.992Z</time></trkpt><trkpt lat="42.1049335" lon="13.4991983"><ele>992.0</ele><time>2026-05-02T14:13:31.992Z</time></trkpt><trkpt lat="42.1048275" lon="13.499073"><ele>992.0</ele><time>2026-05-02T14:13:32.992Z</time></trkpt><trkpt lat="42.1047377" lon="13.4989364"><ele>992.0</ele><time>2026-05-02T14:13:33.992Z</time></trkpt><trkpt lat="42.1046571" lon="13.4987841"><ele>993.5</ele><time>2026-05-02T14:13:34.992Z</time></trkpt><trkpt lat="42.1045933" lon="13.4986189"><ele>995.0</ele><time>2026-05-02T14:13:35.992Z</time></trkpt><trkpt lat="42.1045529" lon="13.4984411"><ele>996.5</ele><time>2026-05-02T14:13:36.992Z</time></trkpt><trkpt lat="42.10454" lon="13.4982562"><ele>998.0</ele><time>2026-05-02T14:13:37.992Z</time></trkpt><trkpt lat="42.104566" lon="13.4980753"><ele>997.0</ele><time>2026-05-02T14:13:38.992Z</time></trkpt><trkpt lat="42.1046243" lon="13.4979108"><ele>996.0</ele><time>2026-05-02T14:13:39.992Z</time></trkpt><trkpt lat="42.1047128" lon="13.4977688"><ele>995.0</ele><time>2026-05-02T14:13:40.991Z</time></trkpt><trkpt lat="42.1048282" lon="13.4976365"><ele>994.0</ele><time>2026-05-02T14:13:41.992Z</time></trkpt><trkpt lat="42.1049675" lon="13.497511"><ele>998.3333333333333</ele><time>2026-05-02T14:13:42.991Z</time></trkpt><trkpt lat="42.1051163" lon="13.497385"><ele>1002.6666666666667</ele><time>2026-05-02T14:13:43.992Z</time></trkpt><trkpt lat="42.1052742" lon="13.4972538"><ele>1007.0</ele><time>2026-05-02T14:13:44.992Z</time></trkpt><trkpt lat="42.1054375" lon="13.4971144"><ele>1008.0</ele><time>2026-05-02T14:13:45.992Z</time></trkpt><trkpt lat="42.1056053" lon="13.4969758"><ele>1009.0</ele><time>2026-05-02T14:13:46.992Z</time></trkpt><trkpt lat="42.1057732" lon="13.4968364"><ele>1010.0</ele><time>2026-05-02T14:13:47.992Z</time></trkpt><trkpt lat="42.1059355" lon="13.4967029"><ele>1010.0</ele><time>2026-05-02T14:13:48.992Z</time></trkpt><trkpt lat="42.1060818" lon="13.4965729"><ele>1010.0</ele><time>2026-05-02T14:13:49.992Z</time></trkpt><trkpt lat="42.1062157" lon="13.4964464"><ele>1010.0</ele><time>2026-05-02T14:13:50.991Z</time></trkpt><trkpt lat="42.106341" lon="13.4963047"><ele>1009.0</ele><time>2026-05-02T14:13:51.992Z</time></trkpt><trkpt lat="42.1064493" lon="13.4961423"><ele>1008.0</ele><time>2026-05-02T14:13:52.992Z</time></trkpt><trkpt lat="42.1065453" lon="13.4959545"><ele>1007.0</ele><time>2026-05-02T14:13:53.992Z</time></trkpt><trkpt lat="42.1066216" lon="13.4957442"><ele>1010.6666666666667</ele><time>2026-05-02T14:13:54.992Z</time></trkpt><trkpt lat="42.106678" lon="13.4955146"><ele>1014.3333333333333</ele><time>2026-05-02T14:13:55.992Z</time></trkpt><trkpt lat="42.1067206" lon="13.495273"><ele>1018.0</ele><time>2026-05-02T14:13:56.992Z</time></trkpt><trkpt lat="42.1067651" lon="13.4950352"><ele>1018.0</ele><time>2026-05-02T14:13:57.992Z</time></trkpt><trkpt lat="42.1068124" lon="13.4948136"><ele>1018.0</ele><time>2026-05-02T14:13:58.992Z</time></trkpt><trkpt lat="42.1068612" lon="13.4946039"><ele>1018.0</ele><time>2026-05-02T14:13:59.992Z</time></trkpt><trkpt lat="42.1069236" lon="13.4944034"><ele>1017.3333333333333</ele><time>2026-05-02T14:14:00.992Z</time></trkpt><trkpt lat="42.1070148" lon="13.4942145"><ele>1016.6666666666667</ele><time>2026-05-02T14:14:01.992Z</time></trkpt><trkpt lat="42.1071288" lon="13.4940413"><ele>1016.0</ele><time>2026-05-02T14:14:02.992Z</time></trkpt><trkpt lat="42.1072577" lon="13.4938631"><ele>1015.0</ele><time>2026-05-02T14:14:03.992Z</time></trkpt><trkpt lat="42.1073758" lon="13.4936918"><ele>1014.0</ele><time>2026-05-02T14:14:04.992Z</time></trkpt><trkpt lat="42.1074839" lon="13.4935366"><ele>1013.0</ele><time>2026-05-02T14:14:05.992Z</time></trkpt><trkpt lat="42.1075764" lon="13.4933865"><ele>1017.25</ele><time>2026-05-02T14:14:06.992Z</time></trkpt><trkpt lat="42.1076374" lon="13.4932194"><ele>1021.5</ele><time>2026-05-02T14:14:07.992Z</time></trkpt><trkpt lat="42.1076678" lon="13.4930334"><ele>1025.75</ele><time>2026-05-02T14:14:08.991Z</time></trkpt><trkpt lat="42.1076597" lon="13.4928359"><ele>1030.0</ele><time>2026-05-02T14:14:09.991Z</time></trkpt><trkpt lat="42.1076262" lon="13.4926288"><ele>1032.0</ele><time>2026-05-02T14:14:10.992Z</time></trkpt><trkpt lat="42.1075816" lon="13.4924152"><ele>1034.0</ele><time>2026-05-02T14:14:11.992Z</time></trkpt><trkpt lat="42.1075272" lon="13.4921895"><ele>1036.0</ele><time>2026-05-02T14:14:12.992Z</time></trkpt><trkpt lat="42.1074623" lon="13.4919636"><ele>1030.6666666666665</ele><time>2026-05-02T14:14:13.992Z</time></trkpt><trkpt lat="42.1073849" lon="13.4917686"><ele>1025.3333333333333</ele><time>2026-05-02T14:14:14.992Z</time></trkpt><trkpt lat="42.1072955" lon="13.4916056"><ele>1020.0</ele><time>2026-05-02T14:14:15.991Z</time></trkpt><trkpt lat="42.107208" lon="13.4914603"><ele>1020.0</ele><time>2026-05-02T14:14:16.991Z</time></trkpt><trkpt lat="42.1071344" lon="13.4913168"><ele>1020.0</ele><time>2026-05-02T14:14:17.992Z</time></trkpt><trkpt lat="42.107098" lon="13.491142"><ele>1020.0</ele><time>2026-05-02T14:14:18.992Z</time></trkpt><trkpt lat="42.1070873" lon="13.4909539"><ele>1020.0</ele><time>2026-05-02T14:14:19.992Z</time></trkpt><trkpt lat="42.1070986" lon="13.4907539"><ele>1023.0</ele><time>2026-05-02T14:14:20.992Z</time></trkpt><trkpt lat="42.1071291" lon="13.4905404"><ele>1026.0</ele><time>2026-05-02T14:14:21.992Z</time></trkpt><trkpt lat="42.1071692" lon="13.4903114"><ele>1029.0</ele><time>2026-05-02T14:14:22.992Z</time></trkpt><trkpt lat="42.1072145" lon="13.4900717"><ele>1030.3333333333333</ele><time>2026-05-02T14:14:23.992Z</time></trkpt><trkpt lat="42.1072569" lon="13.48985"><ele>1031.6666666666665</ele><time>2026-05-02T14:14:24.992Z</time></trkpt><trkpt lat="42.1072945" lon="13.4896491"><ele>1033.0</ele><time>2026-05-02T14:14:25.991Z</time></trkpt><trkpt lat="42.107328" lon="13.4894644"><ele>1034.5</ele><time>2026-05-02T14:14:26.992Z</time></trkpt><trkpt lat="42.1073606" lon="13.4892906"><ele>1036.0</ele><time>2026-05-02T14:14:27.992Z</time></trkpt><trkpt lat="42.1074001" lon="13.4891221"><ele>1037.5</ele><time>2026-05-02T14:14:28.992Z</time></trkpt><trkpt lat="42.1074544" lon="13.4889672"><ele>1039.0</ele><time>2026-05-02T14:14:29.992Z</time></trkpt><trkpt lat="42.1075251" lon="13.4888238"><ele>1041.0</ele><time>2026-05-02T14:14:30.992Z</time></trkpt><trkpt lat="42.1076205" lon="13.4887012"><ele>1043.0</ele><time>2026-05-02T14:14:31.992Z</time></trkpt><trkpt lat="42.1077373" lon="13.4886029"><ele>1045.0</ele><time>2026-05-02T14:14:32.991Z</time></trkpt><trkpt lat="42.1078691" lon="13.4885241"><ele>1047.0</ele><time>2026-05-02T14:14:33.992Z</time></trkpt><trkpt lat="42.1080064" lon="13.4884645"><ele>1047.0</ele><time>2026-05-02T14:14:34.991Z</time></trkpt><trkpt lat="42.1081359" lon="13.4884115"><ele>1047.0</ele><time>2026-05-02T14:14:35.992Z</time></trkpt><trkpt lat="42.1082574" lon="13.4883542"><ele>1047.0</ele><time>2026-05-02T14:14:36.992Z</time></trkpt><trkpt lat="42.1083735" lon="13.4882928"><ele>1047.0</ele><time>2026-05-02T14:14:37.992Z</time></trkpt><trkpt lat="42.1084847" lon="13.4882168"><ele>1049.5</ele><time>2026-05-02T14:14:38.992Z</time></trkpt><trkpt lat="42.108593" lon="13.4881216"><ele>1052.0</ele><time>2026-05-02T14:14:39.992Z</time></trkpt><trkpt lat="42.1086958" lon="13.4880123"><ele>1054.5</ele><time>2026-05-02T14:14:40.992Z</time></trkpt><trkpt lat="42.1087929" lon="13.4878804"><ele>1057.0</ele><time>2026-05-02T14:14:41.992Z</time></trkpt><trkpt lat="42.1088841" lon="13.4877158"><ele>1057.0</ele><time>2026-05-02T14:14:42.992Z</time></trkpt><trkpt lat="42.1089812" lon="13.4875346"><ele>1057.0</ele><time>2026-05-02T14:14:43.992Z</time></trkpt><trkpt lat="42.1090868" lon="13.4873336"><ele>1057.0</ele><time>2026-05-02T14:14:44.992Z</time></trkpt><trkpt lat="42.109198" lon="13.4871179"><ele>1061.0</ele><time>2026-05-02T14:14:45.992Z</time></trkpt><trkpt lat="42.1093205" lon="13.4868846"><ele>1065.0</ele><time>2026-05-02T14:14:46.992Z</time></trkpt><trkpt lat="42.1094453" lon="13.4866349"><ele>1069.0</ele><time>2026-05-02T14:14:47.992Z</time></trkpt><trkpt lat="42.109574" lon="13.4863806"><ele>1067.3333333333333</ele><time>2026-05-02T14:14:48.992Z</time></trkpt><trkpt lat="42.1096921" lon="13.4861428"><ele>1065.6666666666667</ele><time>2026-05-02T14:14:49.992Z</time></trkpt><trkpt lat="42.1098014" lon="13.4859213"><ele>1064.0</ele><time>2026-05-02T14:14:50.992Z</time></trkpt><trkpt lat="42.1098928" lon="13.4857147"><ele>1069.6666666666667</ele><time>2026-05-02T14:14:51.992Z</time></trkpt><trkpt lat="42.1099622" lon="13.4855079"><ele>1075.3333333333333</ele><time>2026-05-02T14:14:52.992Z</time></trkpt><trkpt lat="42.110001" lon="13.4852919"><ele>1081.0</ele><time>2026-05-02T14:14:53.991Z</time></trkpt><trkpt lat="42.1100096" lon="13.485065"><ele>1081.6666666666665</ele><time>2026-05-02T14:14:54.992Z</time></trkpt><trkpt lat="42.1099914" lon="13.4848262"><ele>1082.3333333333333</ele><time>2026-05-02T14:14:55.992Z</time></trkpt><trkpt lat="42.1099668" lon="13.4845901"><ele>1083.0</ele><time>2026-05-02T14:14:56.992Z</time></trkpt><trkpt lat="42.1099498" lon="13.4843793"><ele>1084.6666666666667</ele><time>2026-05-02T14:14:57.991Z</time></trkpt><trkpt lat="42.1099373" lon="13.4841748"><ele>1086.3333333333335</ele><time>2026-05-02T14:14:58.992Z</time></trkpt><trkpt lat="42.1099379" lon="13.4839664"><ele>1088.0</ele><time>2026-05-02T14:14:59.992Z</time></trkpt><trkpt lat="42.1099633" lon="13.4837499"><ele>1088.0</ele><time>2026-05-02T14:15:00.992Z</time></trkpt><trkpt lat="42.1100175" lon="13.483531"><ele>1088.0</ele><time>2026-05-02T14:15:01.991Z</time></trkpt><trkpt lat="42.1100967" lon="13.4833076"><ele>1088.0</ele><time>2026-05-02T14:15:02.992Z</time></trkpt><trkpt lat="42.1101998" lon="13.4830919"><ele>1085.6666666666667</ele><time>2026-05-02T14:15:03.991Z</time></trkpt><trkpt lat="42.1103255" lon="13.4828887"><ele>1083.3333333333333</ele><time>2026-05-02T14:15:04.992Z</time></trkpt><trkpt lat="42.1104462" lon="13.4826824"><ele>1081.0</ele><time>2026-05-02T14:15:05.992Z</time></trkpt><trkpt lat="42.1106111" lon="13.482513"><ele>1086.0</ele><time>2026-05-02T14:15:06.992Z</time></trkpt><trkpt lat="42.1107448" lon="13.4823486"><ele>1091.0</ele><time>2026-05-02T14:15:07.992Z</time></trkpt><trkpt lat="42.1108604" lon="13.4821737"><ele>1096.0</ele><time>2026-05-02T14:15:08.992Z</time></trkpt><trkpt lat="42.1109593" lon="13.4819873"><ele>1096.0</ele><time>2026-05-02T14:15:09.992Z</time></trkpt><trkpt lat="42.1110367" lon="13.481773"><ele>1096.0</ele><time>2026-05-02T14:15:10.992Z</time></trkpt><trkpt lat="42.1110974" lon="13.4815316"><ele>1096.0</ele><time>2026-05-02T14:15:11.991Z</time></trkpt><trkpt lat="42.1111485" lon="13.4812776"><ele>1096.3333333333333</ele><time>2026-05-02T14:15:12.992Z</time></trkpt><trkpt lat="42.1111976" lon="13.4810084"><ele>1096.6666666666667</ele><time>2026-05-02T14:15:13.992Z</time></trkpt><trkpt lat="42.1112456" lon="13.4807432"><ele>1097.0</ele><time>2026-05-02T14:15:14.992Z</time></trkpt><trkpt lat="42.1112821" lon="13.4804932"><ele>1097.6666666666667</ele><time>2026-05-02T14:15:15.992Z</time></trkpt><trkpt lat="42.1113093" lon="13.4802489"><ele>1098.3333333333333</ele><time>2026-05-02T14:15:16.991Z</time></trkpt><trkpt lat="42.1113169" lon="13.4799945"><ele>1099.0</ele><time>2026-05-02T14:15:17.992Z</time></trkpt><trkpt lat="42.1112978" lon="13.4797322"><ele>1102.0</ele><time>2026-05-02T14:15:18.991Z</time></trkpt><trkpt lat="42.1112502" lon="13.4794719"><ele>1105.0</ele><time>2026-05-02T14:15:19.992Z</time></trkpt><trkpt lat="42.1111833" lon="13.4792089"><ele>1108.0</ele><time>2026-05-02T14:15:20.992Z</time></trkpt><trkpt lat="42.111113" lon="13.478946"><ele>1109.0</ele><time>2026-05-02T14:15:21.992Z</time></trkpt><trkpt lat="42.1110545" lon="13.4787068"><ele>1110.0</ele><time>2026-05-02T14:15:22.992Z</time></trkpt><trkpt lat="42.1110076" lon="13.4784728"><ele>1111.0</ele><time>2026-05-02T14:15:23.991Z</time></trkpt><trkpt lat="42.1109814" lon="13.4782432"><ele>1111.0</ele><time>2026-05-02T14:15:24.992Z</time></trkpt><trkpt lat="42.1109695" lon="13.4780066"><ele>1111.0</ele><time>2026-05-02T14:15:25.992Z</time></trkpt><trkpt lat="42.1109507" lon="13.4777705"><ele>1111.0</ele><time>2026-05-02T14:15:26.992Z</time></trkpt><trkpt lat="42.1109185" lon="13.4775326"><ele>1110.6666666666665</ele><time>2026-05-02T14:15:27.992Z</time></trkpt><trkpt lat="42.1108615" lon="13.477301"><ele>1110.3333333333333</ele><time>2026-05-02T14:15:28.992Z</time></trkpt><trkpt lat="42.1107774" lon="13.4770724"><ele>1110.0</ele><time>2026-05-02T14:15:29.992Z</time></trkpt><trkpt lat="42.1106738" lon="13.4768528"><ele>1107.3333333333333</ele><time>2026-05-02T14:15:30.992Z</time></trkpt><trkpt lat="42.1105545" lon="13.4766419"><ele>1104.6666666666665</ele><time>2026-05-02T14:15:31.992Z</time></trkpt><trkpt lat="42.1104395" lon="13.4764374"><ele>1102.0</ele><time>2026-05-02T14:15:32.991Z</time></trkpt><trkpt lat="42.1103482" lon="13.4762232"><ele>1102.0</ele><time>2026-05-02T14:15:33.992Z</time></trkpt><trkpt lat="42.1102735" lon="13.4759906"><ele>1102.0</ele><time>2026-05-02T14:15:34.992Z</time></trkpt><trkpt lat="42.110211" lon="13.4757427"><ele>1102.0</ele><time>2026-05-02T14:15:35.992Z</time></trkpt><trkpt lat="42.1101607" lon="13.4754826"><ele>1101.6666666666665</ele><time>2026-05-02T14:15:36.992Z</time></trkpt><trkpt lat="42.110118" lon="13.4752141"><ele>1101.3333333333333</ele><time>2026-05-02T14:15:37.991Z</time></trkpt><trkpt lat="42.1100619" lon="13.4749444"><ele>1101.0</ele><time>2026-05-02T14:15:38.992Z</time></trkpt><trkpt lat="42.1099735" lon="13.4746833"><ele>1097.0</ele><time>2026-05-02T14:15:39.992Z</time></trkpt><trkpt lat="42.1098704" lon="13.4744264"><ele>1093.0</ele><time>2026-05-02T14:15:40.991Z</time></trkpt><trkpt lat="42.1097595" lon="13.47417"><ele>1089.0</ele><time>2026-05-02T14:15:41.992Z</time></trkpt><trkpt lat="42.1096486" lon="13.4739112"><ele>1090.6666666666667</ele><time>2026-05-02T14:15:42.992Z</time></trkpt><trkpt lat="42.1095371" lon="13.4736514"><ele>1092.3333333333335</ele><time>2026-05-02T14:15:43.991Z</time></trkpt><trkpt lat="42.109428" lon="13.4733862"><ele>1094.0</ele><time>2026-05-02T14:15:44.991Z</time></trkpt><trkpt lat="42.1093205" lon="13.4731181"><ele>1095.0</ele><time>2026-05-02T14:15:45.992Z</time></trkpt><trkpt lat="42.1092274" lon="13.4728446"><ele>1096.0</ele><time>2026-05-02T14:15:46.992Z</time></trkpt><trkpt lat="42.1091487" lon="13.4725774"><ele>1097.0</ele><time>2026-05-02T14:15:47.992Z</time></trkpt><trkpt lat="42.1090827" lon="13.4723211"><ele>1094.6666666666667</ele><time>2026-05-02T14:15:48.992Z</time></trkpt><trkpt lat="42.1090222" lon="13.4720757"><ele>1092.3333333333333</ele><time>2026-05-02T14:15:49.992Z</time></trkpt><trkpt lat="42.1089645" lon="13.4718436"><ele>1090.0</ele><time>2026-05-02T14:15:50.992Z</time></trkpt><trkpt lat="42.1089124" lon="13.4716226"><ele>1090.0</ele><time>2026-05-02T14:15:51.992Z</time></trkpt><trkpt lat="42.1088658" lon="13.4713952"><ele>1090.0</ele><time>2026-05-02T14:15:52.992Z</time></trkpt><trkpt lat="42.1088402" lon="13.4711644"><ele>1090.0</ele><time>2026-05-02T14:15:53.992Z</time></trkpt><trkpt lat="42.1088315" lon="13.4709237"><ele>1090.3333333333333</ele><time>2026-05-02T14:15:54.992Z</time></trkpt><trkpt lat="42.1088322" lon="13.4706799"><ele>1090.6666666666667</ele><time>2026-05-02T14:15:55.992Z</time></trkpt><trkpt lat="42.1088398" lon="13.4704329"><ele>1091.0</ele><time>2026-05-02T14:15:56.992Z</time></trkpt><trkpt lat="42.1088359" lon="13.4701943"><ele>1089.6666666666667</ele><time>2026-05-02T14:15:57.992Z</time></trkpt><trkpt lat="42.1088049" lon="13.4699569"><ele>1088.3333333333333</ele><time>2026-05-02T14:15:58.992Z</time></trkpt><trkpt lat="42.108749" lon="13.4697178"><ele>1087.0</ele><time>2026-05-02T14:15:59.992Z</time></trkpt><trkpt lat="42.1086749" lon="13.4694708"><ele>1086.6666666666665</ele><time>2026-05-02T14:16:00.992Z</time></trkpt><trkpt lat="42.1085871" lon="13.4692198"><ele>1086.3333333333333</ele><time>2026-05-02T14:16:01.992Z</time></trkpt><trkpt lat="42.1084986" lon="13.4689629"><ele>1086.0</ele><time>2026-05-02T14:16:02.992Z</time></trkpt><trkpt lat="42.1084096" lon="13.468705"><ele>1086.6666666666667</ele><time>2026-05-02T14:16:03.992Z</time></trkpt><trkpt lat="42.1083154" lon="13.4684452"><ele>1087.3333333333335</ele><time>2026-05-02T14:16:04.992Z</time></trkpt><trkpt lat="42.1082224" lon="13.4681802"><ele>1088.0</ele><time>2026-05-02T14:16:05.992Z</time></trkpt><trkpt lat="42.10813" lon="13.4679207"><ele>1088.0</ele><time>2026-05-02T14:16:06.992Z</time></trkpt><trkpt lat="42.1080408" lon="13.4676665"><ele>1088.0</ele><time>2026-05-02T14:16:07.992Z</time></trkpt><trkpt lat="42.1079507" lon="13.4674132"><ele>1088.0</ele><time>2026-05-02T14:16:08.992Z</time></trkpt><trkpt lat="42.1078625" lon="13.467165"><ele>1089.6666666666667</ele><time>2026-05-02T14:16:09.992Z</time></trkpt><trkpt lat="42.1077807" lon="13.4669324"><ele>1091.3333333333333</ele><time>2026-05-02T14:16:10.992Z</time></trkpt><trkpt lat="42.1077034" lon="13.4667145"><ele>1093.0</ele><time>2026-05-02T14:16:11.991Z</time></trkpt><trkpt lat="42.1076281" lon="13.4665131"><ele>1093.0</ele><time>2026-05-02T14:16:12.991Z</time></trkpt><trkpt lat="42.1075555" lon="13.4663238"><ele>1093.0</ele><time>2026-05-02T14:16:13.992Z</time></trkpt><trkpt lat="42.1074947" lon="13.4661371"><ele>1093.0</ele><time>2026-05-02T14:16:14.992Z</time></trkpt><trkpt lat="42.1074459" lon="13.4659501"><ele>1093.75</ele><time>2026-05-02T14:16:15.992Z</time></trkpt><trkpt lat="42.1074102" lon="13.4657572"><ele>1094.5</ele><time>2026-05-02T14:16:16.992Z</time></trkpt><trkpt lat="42.1073936" lon="13.4655626"><ele>1095.25</ele><time>2026-05-02T14:16:17.992Z</time></trkpt><trkpt lat="42.1073927" lon="13.4653672"><ele>1096.0</ele><time>2026-05-02T14:16:18.992Z</time></trkpt><trkpt lat="42.1074118" lon="13.4651674"><ele>1097.0</ele><time>2026-05-02T14:16:19.992Z</time></trkpt><trkpt lat="42.1074506" lon="13.4649685"><ele>1098.0</ele><time>2026-05-02T14:16:20.992Z</time></trkpt><trkpt lat="42.1075128" lon="13.4647739"><ele>1099.0</ele><time>2026-05-02T14:16:21.992Z</time></trkpt><trkpt lat="42.107602" lon="13.464585"><ele>1099.0</ele><time>2026-05-02T14:16:22.992Z</time></trkpt><trkpt lat="42.1077039" lon="13.4643972"><ele>1099.0</ele><time>2026-05-02T14:16:23.992Z</time></trkpt><trkpt lat="42.1078133" lon="13.4641961"><ele>1099.0</ele><time>2026-05-02T14:16:24.992Z</time></trkpt><trkpt lat="42.1079205" lon="13.4639881"><ele>1099.0</ele><time>2026-05-02T14:16:25.992Z</time></trkpt><trkpt lat="42.1080324" lon="13.4637773"><ele>1099.0</ele><time>2026-05-02T14:16:26.992Z</time></trkpt><trkpt lat="42.1081487" lon="13.4635645"><ele>1099.0</ele><time>2026-05-02T14:16:27.992Z</time></trkpt><trkpt lat="42.1082625" lon="13.4633505"><ele>1101.6666666666665</ele><time>2026-05-02T14:16:28.992Z</time></trkpt><trkpt lat="42.1083645" lon="13.4631348"><ele>1104.3333333333333</ele><time>2026-05-02T14:16:29.992Z</time></trkpt><trkpt lat="42.1084466" lon="13.4629337"><ele>1107.0</ele><time>2026-05-02T14:16:30.992Z</time></trkpt><trkpt lat="42.108515" lon="13.4627402"><ele>1108.0</ele><time>2026-05-02T14:16:31.992Z</time></trkpt><trkpt lat="42.1085729" lon="13.4625543"><ele>1109.0</ele><time>2026-05-02T14:16:32.992Z</time></trkpt><trkpt lat="42.1086243" lon="13.4623768"><ele>1110.0</ele><time>2026-05-02T14:16:33.991Z</time></trkpt><trkpt lat="42.108663" lon="13.4622209"><ele>1111.0</ele><time>2026-05-02T14:16:34.992Z</time></trkpt><trkpt lat="42.1086973" lon="13.4620835"><ele>1111.1666666666665</ele><time>2026-05-02T14:16:35.992Z</time></trkpt><trkpt lat="42.1087262" lon="13.461967"><ele>1111.3333333333333</ele><time>2026-05-02T14:16:36.992Z</time></trkpt><trkpt lat="42.1087439" lon="13.461884"><ele>1111.5</ele><time>2026-05-02T14:16:37.992Z</time></trkpt><trkpt lat="42.1087516" lon="13.4617504"><ele>1111.6666666666667</ele><time>2026-05-02T14:16:39.992Z</time></trkpt><trkpt lat="42.1087398" lon="13.4616304"><ele>1111.8333333333335</ele><time>2026-05-02T14:16:41.992Z</time></trkpt><trkpt lat="42.1087247" lon="13.4614964"><ele>1112.0</ele><time>2026-05-02T14:16:43.991Z</time></trkpt><trkpt lat="42.1087039" lon="13.4613683"><ele>1110.6</ele><time>2026-05-02T14:16:45.991Z</time></trkpt><trkpt lat="42.1086746" lon="13.4612445"><ele>1109.2</ele><time>2026-05-02T14:16:47.991Z</time></trkpt><trkpt lat="42.1086392" lon="13.4611252"><ele>1107.8</ele><time>2026-05-02T14:16:49.992Z</time></trkpt><trkpt lat="42.1086069" lon="13.4609953"><ele>1106.4</ele><time>2026-05-02T14:16:51.991Z</time></trkpt><trkpt lat="42.1085847" lon="13.4608425"><ele>1105.0</ele><time>2026-05-02T14:16:53.992Z</time></trkpt><trkpt lat="42.1085648" lon="13.4606952"><ele>1105.0</ele><time>2026-05-02T14:16:55.992Z</time></trkpt><trkpt lat="42.1085437" lon="13.4605568"><ele>1105.0</ele><time>2026-05-02T14:16:57.992Z</time></trkpt><trkpt lat="42.1085088" lon="13.4604193"><ele>1105.0</ele><time>2026-05-02T14:16:59.992Z</time></trkpt><trkpt lat="42.1084657" lon="13.4602944"><ele>1105.0</ele><time>2026-05-02T14:17:01.992Z</time></trkpt><trkpt lat="42.1084326" lon="13.460184"><ele>1105.0</ele><time>2026-05-02T14:17:03.992Z</time></trkpt><trkpt lat="42.1084478" lon="13.4600735"><ele>1102.6</ele><time>2026-05-02T14:17:05.991Z</time></trkpt><trkpt lat="42.1085087" lon="13.4599833"><ele>1100.2</ele><time>2026-05-02T14:17:07.992Z</time></trkpt><trkpt lat="42.1085624" lon="13.4598817"><ele>1097.8</ele><time>2026-05-02T14:17:09.992Z</time></trkpt><trkpt lat="42.1085862" lon="13.4597743"><ele>1095.4</ele><time>2026-05-02T14:17:11.992Z</time></trkpt><trkpt lat="42.1085762" lon="13.4596473"><ele>1093.0</ele><time>2026-05-02T14:17:13.991Z</time></trkpt><trkpt lat="42.1085416" lon="13.459504"><ele>1090.8</ele><time>2026-05-02T14:17:15.991Z</time></trkpt><trkpt lat="42.1085265" lon="13.4593421"><ele>1088.6</ele><time>2026-05-02T14:17:17.992Z</time></trkpt><trkpt lat="42.1085143" lon="13.4591711"><ele>1086.4</ele><time>2026-05-02T14:17:19.992Z</time></trkpt><trkpt lat="42.1085088" lon="13.459083"><ele>1084.2</ele><time>2026-05-02T14:17:20.992Z</time></trkpt><trkpt lat="42.1085059" lon="13.4589955"><ele>1082.0</ele><time>2026-05-02T14:17:21.992Z</time></trkpt><trkpt lat="42.1085075" lon="13.4588337"><ele>1080.5</ele><time>2026-05-02T14:17:23.991Z</time></trkpt><trkpt lat="42.1085265" lon="13.458704"><ele>1079.0</ele><time>2026-05-02T14:17:25.992Z</time></trkpt><trkpt lat="42.1085424" lon="13.4586045"><ele>1077.5</ele><time>2026-05-02T14:17:27.992Z</time></trkpt><trkpt lat="42.1085434" lon="13.4584992"><ele>1076.0</ele><time>2026-05-02T14:17:29.991Z</time></trkpt><trkpt lat="42.10855" lon="13.4583875"><ele>1074.5</ele><time>2026-05-02T14:17:31.992Z</time></trkpt><trkpt lat="42.1085538" lon="13.4582864"><ele>1073.0</ele><time>2026-05-02T14:17:33.992Z</time></trkpt><trkpt lat="42.1085588" lon="13.4581247"><ele>1073.0</ele><time>2026-05-02T14:17:35.992Z</time></trkpt><trkpt lat="42.1085636" lon="13.4579549"><ele>1073.0</ele><time>2026-05-02T14:17:37.992Z</time></trkpt><trkpt lat="42.1085779" lon="13.4578652"><ele>1073.0</ele><time>2026-05-02T14:17:38.992Z</time></trkpt><trkpt lat="42.1086023" lon="13.4577776"><ele>1073.0</ele><time>2026-05-02T14:17:39.992Z</time></trkpt><trkpt lat="42.1086312" lon="13.457689"><ele>1073.0</ele><time>2026-05-02T14:17:40.992Z</time></trkpt><trkpt lat="42.1086535" lon="13.4575993"><ele>1073.0</ele><time>2026-05-02T14:17:41.991Z</time></trkpt><trkpt lat="42.1086629" lon="13.457507"><ele>1071.5</ele><time>2026-05-02T14:17:42.992Z</time></trkpt><trkpt lat="42.1086596" lon="13.4574166"><ele>1070.0</ele><time>2026-05-02T14:17:43.992Z</time></trkpt><trkpt lat="42.1086513" lon="13.4573308"><ele>1068.5</ele><time>2026-05-02T14:17:44.992Z</time></trkpt><trkpt lat="42.1086467" lon="13.4571696"><ele>1067.0</ele><time>2026-05-02T14:17:46.991Z</time></trkpt><trkpt lat="42.108648" lon="13.4570055"><ele>1065.5</ele><time>2026-05-02T14:17:48.992Z</time></trkpt><trkpt lat="42.1086445" lon="13.4569196"><ele>1064.0</ele><time>2026-05-02T14:17:49.992Z</time></trkpt><trkpt lat="42.1086448" lon="13.4568309"><ele>1062.5714285714287</ele><time>2026-05-02T14:17:50.992Z</time></trkpt><trkpt lat="42.1086523" lon="13.4567418"><ele>1061.142857142857</ele><time>2026-05-02T14:17:51.992Z</time></trkpt><trkpt lat="42.1086591" lon="13.4566515"><ele>1059.7142857142858</ele><time>2026-05-02T14:17:52.992Z</time></trkpt><trkpt lat="42.1086568" lon="13.4565549"><ele>1058.2857142857142</ele><time>2026-05-02T14:17:53.992Z</time></trkpt><trkpt lat="42.1086484" lon="13.4564613"><ele>1056.857142857143</ele><time>2026-05-02T14:17:54.991Z</time></trkpt><trkpt lat="42.1086409" lon="13.4563733"><ele>1055.4285714285716</ele><time>2026-05-02T14:17:55.992Z</time></trkpt><trkpt lat="42.1086334" lon="13.4562822"><ele>1054.0</ele><time>2026-05-02T14:17:56.992Z</time></trkpt><trkpt lat="42.1086212" lon="13.4561866"><ele>1052.8333333333333</ele><time>2026-05-02T14:17:57.992Z</time></trkpt><trkpt lat="42.1086041" lon="13.4560929"><ele>1051.6666666666665</ele><time>2026-05-02T14:17:58.992Z</time></trkpt><trkpt lat="42.1085775" lon="13.4560003"><ele>1050.5</ele><time>2026-05-02T14:17:59.992Z</time></trkpt><trkpt lat="42.1085453" lon="13.4559094"><ele>1049.3333333333333</ele><time>2026-05-02T14:18:00.992Z</time></trkpt><trkpt lat="42.1085134" lon="13.4558256"><ele>1048.1666666666667</ele><time>2026-05-02T14:18:01.992Z</time></trkpt><trkpt lat="42.1084767" lon="13.4556696"><ele>1047.0</ele><time>2026-05-02T14:18:03.992Z</time></trkpt><trkpt lat="42.10847" lon="13.4555823"><ele>1047.0</ele><time>2026-05-02T14:18:04.991Z</time></trkpt><trkpt lat="42.1084638" lon="13.4554891"><ele>1047.0</ele><time>2026-05-02T14:18:05.992Z</time></trkpt><trkpt lat="42.1084529" lon="13.4553923"><ele>1047.0</ele><time>2026-05-02T14:18:06.992Z</time></trkpt><trkpt lat="42.1084339" lon="13.4552982"><ele>1047.0</ele><time>2026-05-02T14:18:07.992Z</time></trkpt><trkpt lat="42.1084143" lon="13.4552141"><ele>1047.0</ele><time>2026-05-02T14:18:08.992Z</time></trkpt><trkpt lat="42.1083917" lon="13.4550469"><ele>1047.0</ele><time>2026-05-02T14:18:10.992Z</time></trkpt><trkpt lat="42.1083796" lon="13.4549571"><ele>1046.0</ele><time>2026-05-02T14:18:11.992Z</time></trkpt><trkpt lat="42.1083613" lon="13.4548671"><ele>1045.0</ele><time>2026-05-02T14:18:12.992Z</time></trkpt><trkpt lat="42.1083387" lon="13.4547745"><ele>1044.0</ele><time>2026-05-02T14:18:13.992Z</time></trkpt><trkpt lat="42.1083203" lon="13.4546761"><ele>1043.0</ele><time>2026-05-02T14:18:14.992Z</time></trkpt><trkpt lat="42.1083088" lon="13.4545692"><ele>1042.0</ele><time>2026-05-02T14:18:15.992Z</time></trkpt><trkpt lat="42.1083009" lon="13.4544567"><ele>1041.0</ele><time>2026-05-02T14:18:16.992Z</time></trkpt><trkpt lat="42.1082877" lon="13.4543474"><ele>1040.1666666666667</ele><time>2026-05-02T14:18:17.991Z</time></trkpt><trkpt lat="42.1082709" lon="13.4542397"><ele>1039.3333333333333</ele><time>2026-05-02T14:18:18.992Z</time></trkpt><trkpt lat="42.1082606" lon="13.4541277"><ele>1038.5</ele><time>2026-05-02T14:18:19.992Z</time></trkpt><trkpt lat="42.1082574" lon="13.4540153"><ele>1037.6666666666665</ele><time>2026-05-02T14:18:20.992Z</time></trkpt><trkpt lat="42.1082528" lon="13.4539044"><ele>1036.8333333333333</ele><time>2026-05-02T14:18:21.992Z</time></trkpt><trkpt lat="42.108244" lon="13.4537943"><ele>1036.0</ele><time>2026-05-02T14:18:22.991Z</time></trkpt><trkpt lat="42.1082355" lon="13.4536848"><ele>1033.3333333333333</ele><time>2026-05-02T14:18:23.992Z</time></trkpt><trkpt lat="42.1082225" lon="13.4535762"><ele>1030.6666666666665</ele><time>2026-05-02T14:18:24.992Z</time></trkpt><trkpt lat="42.1082067" lon="13.4534681"><ele>1028.0</ele><time>2026-05-02T14:18:25.992Z</time></trkpt><trkpt lat="42.1081856" lon="13.4533646"><ele>1025.3333333333333</ele><time>2026-05-02T14:18:26.992Z</time></trkpt><trkpt lat="42.1081543" lon="13.4532635"><ele>1022.6666666666666</ele><time>2026-05-02T14:18:27.992Z</time></trkpt><trkpt lat="42.1081196" lon="13.4531607"><ele>1020.0</ele><time>2026-05-02T14:18:28.992Z</time></trkpt><trkpt lat="42.1080906" lon="13.4530577"><ele>1019.0</ele><time>2026-05-02T14:18:29.992Z</time></trkpt><trkpt lat="42.1080663" lon="13.4529538"><ele>1018.0</ele><time>2026-05-02T14:18:30.991Z</time></trkpt><trkpt lat="42.1080521" lon="13.4528465"><ele>1017.0</ele><time>2026-05-02T14:18:31.992Z</time></trkpt><trkpt lat="42.1080454" lon="13.4527366"><ele>1016.0</ele><time>2026-05-02T14:18:32.992Z</time></trkpt><trkpt lat="42.1080428" lon="13.4526237"><ele>1015.0</ele><time>2026-05-02T14:18:33.992Z</time></trkpt><trkpt lat="42.1080434" lon="13.4525067"><ele>1014.0</ele><time>2026-05-02T14:18:34.992Z</time></trkpt><trkpt lat="42.1080451" lon="13.4523881"><ele>1014.0</ele><time>2026-05-02T14:18:35.992Z</time></trkpt><trkpt lat="42.1080465" lon="13.4522669"><ele>1014.0</ele><time>2026-05-02T14:18:36.992Z</time></trkpt><trkpt lat="42.1080466" lon="13.4521493"><ele>1014.0</ele><time>2026-05-02T14:18:37.992Z</time></trkpt><trkpt lat="42.1080434" lon="13.4520373"><ele>1014.0</ele><time>2026-05-02T14:18:38.992Z</time></trkpt><trkpt lat="42.1080267" lon="13.4519325"><ele>1014.0</ele><time>2026-05-02T14:18:39.992Z</time></trkpt><trkpt lat="42.1079974" lon="13.4518341"><ele>1014.0</ele><time>2026-05-02T14:18:40.992Z</time></trkpt><trkpt lat="42.1079681" lon="13.4517388"><ele>1014.0</ele><time>2026-05-02T14:18:41.992Z</time></trkpt><trkpt lat="42.1079517" lon="13.4516405"><ele>1014.0</ele><time>2026-05-02T14:18:42.992Z</time></trkpt><trkpt lat="42.1079503" lon="13.451549"><ele>1014.0</ele><time>2026-05-02T14:18:43.992Z</time></trkpt><trkpt lat="42.1079304" lon="13.4513982"><ele>1014.0</ele><time>2026-05-02T14:18:45.992Z</time></trkpt><trkpt lat="42.1079" lon="13.4513203"><ele>1014.0</ele><time>2026-05-02T14:18:46.991Z</time></trkpt><trkpt lat="42.1078707" lon="13.451244"><ele>1014.0</ele><time>2026-05-02T14:18:47.992Z</time></trkpt><trkpt lat="42.1078198" lon="13.4510908"><ele>1013.8571428571429</ele><time>2026-05-02T14:18:49.992Z</time></trkpt><trkpt lat="42.1077931" lon="13.4510126"><ele>1013.7142857142858</ele><time>2026-05-02T14:18:50.992Z</time></trkpt><trkpt lat="42.1077631" lon="13.4509291"><ele>1013.5714285714287</ele><time>2026-05-02T14:18:51.992Z</time></trkpt><trkpt lat="42.107729" lon="13.4508413"><ele>1013.4285714285714</ele><time>2026-05-02T14:18:52.991Z</time></trkpt><trkpt lat="42.1076948" lon="13.4507503"><ele>1013.2857142857144</ele><time>2026-05-02T14:18:53.992Z</time></trkpt><trkpt lat="42.1076552" lon="13.4506663"><ele>1013.1428571428572</ele><time>2026-05-02T14:18:54.992Z</time></trkpt><trkpt lat="42.1076158" lon="13.4505804"><ele>1013.0</ele><time>2026-05-02T14:18:55.992Z</time></trkpt><trkpt lat="42.107577" lon="13.4504936"><ele>1012.3333333333334</ele><time>2026-05-02T14:18:56.992Z</time></trkpt><trkpt lat="42.1075379" lon="13.4504055"><ele>1011.6666666666667</ele><time>2026-05-02T14:18:57.992Z</time></trkpt><trkpt lat="42.1074962" lon="13.4503152"><ele>1011.0</ele><time>2026-05-02T14:18:58.992Z</time></trkpt><trkpt lat="42.107452" lon="13.4502249"><ele>1010.3333333333333</ele><time>2026-05-02T14:18:59.992Z</time></trkpt><trkpt lat="42.1074088" lon="13.4501352"><ele>1009.6666666666666</ele><time>2026-05-02T14:19:00.992Z</time></trkpt><trkpt lat="42.1073654" lon="13.4500455"><ele>1009.0</ele><time>2026-05-02T14:19:01.992Z</time></trkpt><trkpt lat="42.1073207" lon="13.4499583"><ele>1008.3333333333333</ele><time>2026-05-02T14:19:02.991Z</time></trkpt><trkpt lat="42.1072752" lon="13.4498702"><ele>1007.6666666666666</ele><time>2026-05-02T14:19:03.991Z</time></trkpt><trkpt lat="42.1072298" lon="13.4497818"><ele>1007.0</ele><time>2026-05-02T14:19:04.992Z</time></trkpt><trkpt lat="42.1071834" lon="13.4496946"><ele>1006.3333333333333</ele><time>2026-05-02T14:19:05.992Z</time></trkpt><trkpt lat="42.1071356" lon="13.4496045"><ele>1005.6666666666666</ele><time>2026-05-02T14:19:06.992Z</time></trkpt><trkpt lat="42.1070919" lon="13.4495115"><ele>1005.0</ele><time>2026-05-02T14:19:07.992Z</time></trkpt><trkpt lat="42.1070496" lon="13.4494202"><ele>1004.5</ele><time>2026-05-02T14:19:08.992Z</time></trkpt><trkpt lat="42.1070066" lon="13.4493234"><ele>1004.0</ele><time>2026-05-02T14:19:09.992Z</time></trkpt><trkpt lat="42.1069619" lon="13.449228"><ele>1003.5</ele><time>2026-05-02T14:19:10.992Z</time></trkpt><trkpt lat="42.1069191" lon="13.4491325"><ele>1003.0</ele><time>2026-05-02T14:19:11.992Z</time></trkpt><trkpt lat="42.106869" lon="13.4490314"><ele>1002.5</ele><time>2026-05-02T14:19:12.992Z</time></trkpt><trkpt lat="42.1068261" lon="13.448924"><ele>1002.0</ele><time>2026-05-02T14:19:13.992Z</time></trkpt><trkpt lat="42.1067848" lon="13.4488165"><ele>1001.6666666666666</ele><time>2026-05-02T14:19:14.992Z</time></trkpt><trkpt lat="42.1067452" lon="13.4487116"><ele>1001.3333333333333</ele><time>2026-05-02T14:19:15.992Z</time></trkpt><trkpt lat="42.1067086" lon="13.4486058"><ele>1001.0</ele><time>2026-05-02T14:19:16.992Z</time></trkpt><trkpt lat="42.1066717" lon="13.4485018"><ele>1000.6666666666666</ele><time>2026-05-02T14:19:17.992Z</time></trkpt><trkpt lat="42.1066355" lon="13.4483967"><ele>1000.3333333333333</ele><time>2026-05-02T14:19:18.992Z</time></trkpt><trkpt lat="42.1065966" lon="13.4482986"><ele>1000.0</ele><time>2026-05-02T14:19:19.992Z</time></trkpt><trkpt lat="42.1065577" lon="13.4482108"><ele>998.9999999999999</ele><time>2026-05-02T14:19:20.992Z</time></trkpt><trkpt lat="42.1065151" lon="13.4481383"><ele>998.0</ele><time>2026-05-02T14:19:21.991Z</time></trkpt><trkpt lat="42.1063916" lon="13.4480724"><ele>997.0</ele><time>2026-05-02T14:19:23.992Z</time></trkpt><trkpt lat="42.1063154" lon="13.448057"><ele>996.0</ele><time>2026-05-02T14:19:24.992Z</time></trkpt><trkpt lat="42.1062394" lon="13.4480389"><ele>994.9999999999999</ele><time>2026-05-02T14:19:25.992Z</time></trkpt><trkpt lat="42.1061655" lon="13.4480158"><ele>994.0</ele><time>2026-05-02T14:19:26.991Z</time></trkpt><trkpt lat="42.1060989" lon="13.4479888"><ele>993.5</ele><time>2026-05-02T14:19:27.992Z</time></trkpt><trkpt lat="42.1059956" lon="13.4479242"><ele>993.0</ele><time>2026-05-02T14:19:29.991Z</time></trkpt><trkpt lat="42.1059243" lon="13.4478121"><ele>992.5</ele><time>2026-05-02T14:19:31.992Z</time></trkpt><trkpt lat="42.1058748" lon="13.4476662"><ele>992.0</ele><time>2026-05-02T14:19:33.992Z</time></trkpt><trkpt lat="42.1058221" lon="13.4475085"><ele>992.0000000000001</ele><time>2026-05-02T14:19:35.992Z</time></trkpt><trkpt lat="42.1057994" lon="13.447423"><ele>992.0</ele><time>2026-05-02T14:19:36.992Z</time></trkpt><trkpt lat="42.1057799" lon="13.4473328"><ele>992.0</ele><time>2026-05-02T14:19:37.992Z</time></trkpt><trkpt lat="42.1057624" lon="13.4472445"><ele>992.0</ele><time>2026-05-02T14:19:38.992Z</time></trkpt><trkpt lat="42.1057299" lon="13.4470922"><ele>992.0000000000001</ele><time>2026-05-02T14:19:40.992Z</time></trkpt><trkpt lat="42.1057116" lon="13.4469486"><ele>992.0</ele><time>2026-05-02T14:19:42.992Z</time></trkpt><trkpt lat="42.1057392" lon="13.4467996"><ele>990.8</ele><time>2026-05-02T14:19:44.992Z</time></trkpt><trkpt lat="42.1057895" lon="13.4466708"><ele>989.6</ele><time>2026-05-02T14:19:46.991Z</time></trkpt><trkpt lat="42.1058291" lon="13.4465656"><ele>988.3999999999999</ele><time>2026-05-02T14:19:48.992Z</time></trkpt><trkpt lat="42.1058403" lon="13.4464339"><ele>987.1999999999999</ele><time>2026-05-02T14:19:50.992Z</time></trkpt><trkpt lat="42.1058033" lon="13.4462946"><ele>986.0</ele><time>2026-05-02T14:19:52.992Z</time></trkpt><trkpt lat="42.1057283" lon="13.4461811"><ele>984.1999999999999</ele><time>2026-05-02T14:19:54.992Z</time></trkpt><trkpt lat="42.105674" lon="13.4460436"><ele>982.3999999999999</ele><time>2026-05-02T14:19:56.992Z</time></trkpt><trkpt lat="42.1056209" lon="13.445926"><ele>980.6</ele><time>2026-05-02T14:19:58.992Z</time></trkpt><trkpt lat="42.1055613" lon="13.445775"><ele>978.8</ele><time>2026-05-02T14:20:00.992Z</time></trkpt><trkpt lat="42.1055321" lon="13.4456986"><ele>977.0</ele><time>2026-05-02T14:20:01.992Z</time></trkpt><trkpt lat="42.1054805" lon="13.4455559"><ele>977.0</ele><time>2026-05-02T14:20:03.992Z</time></trkpt><trkpt lat="42.1054185" lon="13.4454246"><ele>977.0</ele><time>2026-05-02T14:20:05.992Z</time></trkpt><trkpt lat="42.1053754" lon="13.4453033"><ele>977.0</ele><time>2026-05-02T14:20:07.992Z</time></trkpt><trkpt lat="42.1053371" lon="13.4451827"><ele>977.0</ele><time>2026-05-02T14:20:09.992Z</time></trkpt><trkpt lat="42.1053122" lon="13.445037"><ele>977.0</ele><time>2026-05-02T14:20:11.991Z</time></trkpt><trkpt lat="42.1052723" lon="13.4449449"><ele>977.0000000000001</ele><time>2026-05-02T14:20:13.992Z</time></trkpt><trkpt lat="42.1052195" lon="13.444829"><ele>977.0</ele><time>2026-05-02T14:20:15.992Z</time></trkpt><trkpt lat="42.1051824" lon="13.4447418"><ele>977.0</ele><time>2026-05-02T14:20:16.992Z</time></trkpt><trkpt lat="42.1051441" lon="13.444638"><ele>977.0</ele><time>2026-05-02T14:20:17.992Z</time></trkpt><trkpt lat="42.1051055" lon="13.4445266"><ele>977.0000000000001</ele><time>2026-05-02T14:20:18.992Z</time></trkpt><trkpt lat="42.1050641" lon="13.4444201"><ele>977.0</ele><time>2026-05-02T14:20:19.991Z</time></trkpt><trkpt lat="42.1050243" lon="13.4443173"><ele>976.6666666666667</ele><time>2026-05-02T14:20:20.992Z</time></trkpt><trkpt lat="42.1049885" lon="13.4442193"><ele>976.3333333333334</ele><time>2026-05-02T14:20:21.992Z</time></trkpt><trkpt lat="42.1049569" lon="13.4441327"><ele>976.0</ele><time>2026-05-02T14:20:22.992Z</time></trkpt><trkpt lat="42.1049282" lon="13.4440571"><ele>975.6666666666667</ele><time>2026-05-02T14:20:23.992Z</time></trkpt><trkpt lat="42.1048759" lon="13.4439389"><ele>975.3333333333334</ele><time>2026-05-02T14:20:25.992Z</time></trkpt><trkpt lat="42.1048282" lon="13.4438565"><ele>975.0</ele><time>2026-05-02T14:20:27.992Z</time></trkpt><trkpt lat="42.1047709" lon="13.4437825"><ele>974.6666666666666</ele><time>2026-05-02T14:22:05.992Z</time></trkpt><trkpt lat="42.1047048" lon="13.4437012"><ele>974.3333333333333</ele><time>2026-05-02T14:22:08.992Z</time></trkpt><trkpt lat="42.1046518" lon="13.4435792"><ele>974.0</ele><time>2026-05-02T14:22:10.992Z</time></trkpt><trkpt lat="42.1046261" lon="13.4434924"><ele>973.6666666666666</ele><time>2026-05-02T14:22:11.992Z</time></trkpt><trkpt lat="42.1045962" lon="13.4433902"><ele>973.3333333333333</ele><time>2026-05-02T14:22:12.991Z</time></trkpt><trkpt lat="42.1045579" lon="13.4432813"><ele>973.0</ele><time>2026-05-02T14:22:13.992Z</time></trkpt><trkpt lat="42.1045082" lon="13.443175"><ele>973.0</ele><time>2026-05-02T14:22:14.992Z</time></trkpt><trkpt lat="42.1044486" lon="13.4430721"><ele>973.0</ele><time>2026-05-02T14:22:15.991Z</time></trkpt><trkpt lat="42.104385" lon="13.4429721"><ele>973.0</ele><time>2026-05-02T14:22:16.992Z</time></trkpt><trkpt lat="42.1043204" lon="13.4428753"><ele>973.0</ele><time>2026-05-02T14:22:17.992Z</time></trkpt><trkpt lat="42.1042615" lon="13.4427817"><ele>973.0</ele><time>2026-05-02T14:22:18.992Z</time></trkpt><trkpt lat="42.1042077" lon="13.4426923"><ele>972.9999999999999</ele><time>2026-05-02T14:22:19.991Z</time></trkpt><trkpt lat="42.1041623" lon="13.4426012"><ele>973.0</ele><time>2026-05-02T14:22:20.991Z</time></trkpt><trkpt lat="42.1041196" lon="13.4425112"><ele>973.0</ele><time>2026-05-02T14:22:21.992Z</time></trkpt><trkpt lat="42.1040792" lon="13.4424092"><ele>973.0</ele><time>2026-05-02T14:22:22.992Z</time></trkpt><trkpt lat="42.1040385" lon="13.4422942"><ele>972.9999999999999</ele><time>2026-05-02T14:22:23.992Z</time></trkpt><trkpt lat="42.1039941" lon="13.4421696"><ele>973.0</ele><time>2026-05-02T14:22:24.991Z</time></trkpt><trkpt lat="42.1039475" lon="13.4420463"><ele>972.4</ele><time>2026-05-02T14:22:25.992Z</time></trkpt><trkpt lat="42.1039035" lon="13.4419227"><ele>971.8</ele><time>2026-05-02T14:22:26.992Z</time></trkpt><trkpt lat="42.1038579" lon="13.4418048"><ele>971.2</ele><time>2026-05-02T14:22:27.992Z</time></trkpt><trkpt lat="42.1038058" lon="13.4416901"><ele>970.6</ele><time>2026-05-02T14:22:28.992Z</time></trkpt><trkpt lat="42.103747" lon="13.4415809"><ele>970.0</ele><time>2026-05-02T14:22:29.991Z</time></trkpt><trkpt lat="42.1036846" lon="13.441474"><ele>970.0</ele><time>2026-05-02T14:22:30.992Z</time></trkpt><trkpt lat="42.1036157" lon="13.4413757"><ele>970.0</ele><time>2026-05-02T14:22:31.992Z</time></trkpt><trkpt lat="42.1035503" lon="13.4412777"><ele>970.0</ele><time>2026-05-02T14:22:32.992Z</time></trkpt><trkpt lat="42.1034902" lon="13.4411843"><ele>970.0</ele><time>2026-05-02T14:22:33.991Z</time></trkpt><trkpt lat="42.1034338" lon="13.441094"><ele>970.0</ele><time>2026-05-02T14:22:34.992Z</time></trkpt><trkpt lat="42.103387" lon="13.4410092"><ele>970.6</ele><time>2026-05-02T14:22:35.992Z</time></trkpt><trkpt lat="42.1033487" lon="13.4409261"><ele>971.2</ele><time>2026-05-02T14:22:36.992Z</time></trkpt><trkpt lat="42.1033154" lon="13.4408436"><ele>971.8</ele><time>2026-05-02T14:22:37.992Z</time></trkpt><trkpt lat="42.1032607" lon="13.4407098"><ele>972.4</ele><time>2026-05-02T14:22:39.992Z</time></trkpt><trkpt lat="42.1031885" lon="13.4405898"><ele>973.0</ele><time>2026-05-02T14:22:41.992Z</time></trkpt><trkpt lat="42.1031073" lon="13.4404715"><ele>972.8333333333333</ele><time>2026-05-02T14:22:43.992Z</time></trkpt><trkpt lat="42.1030593" lon="13.4404056"><ele>972.6666666666666</ele><time>2026-05-02T14:22:44.992Z</time></trkpt><trkpt lat="42.1030063" lon="13.4403392"><ele>972.5</ele><time>2026-05-02T14:22:45.992Z</time></trkpt><trkpt lat="42.1029476" lon="13.440266"><ele>972.3333333333333</ele><time>2026-05-02T14:22:46.992Z</time></trkpt><trkpt lat="42.1028805" lon="13.4402001"><ele>972.1666666666666</ele><time>2026-05-02T14:22:47.992Z</time></trkpt><trkpt lat="42.1028045" lon="13.4401417"><ele>972.0</ele><time>2026-05-02T14:22:48.992Z</time></trkpt><trkpt lat="42.1027214" lon="13.440094"><ele>972.0</ele><time>2026-05-02T14:22:49.992Z</time></trkpt><trkpt lat="42.1026336" lon="13.4400559"><ele>972.0</ele><time>2026-05-02T14:22:50.992Z</time></trkpt><trkpt lat="42.1025483" lon="13.4400171"><ele>972.0</ele><time>2026-05-02T14:22:51.991Z</time></trkpt><trkpt lat="42.1024742" lon="13.4399681"><ele>972.0</ele><time>2026-05-02T14:22:52.992Z</time></trkpt><trkpt lat="42.1024051" lon="13.439908"><ele>972.0</ele><time>2026-05-02T14:22:53.991Z</time></trkpt><trkpt lat="42.1023355" lon="13.4398331"><ele>972.0</ele><time>2026-05-02T14:22:54.992Z</time></trkpt><trkpt lat="42.1022677" lon="13.439749"><ele>971.8</ele><time>2026-05-02T14:22:55.992Z</time></trkpt><trkpt lat="42.1021988" lon="13.4396579"><ele>971.6</ele><time>2026-05-02T14:22:56.991Z</time></trkpt><trkpt lat="42.1021276" lon="13.4395609"><ele>971.3999999999999</ele><time>2026-05-02T14:22:57.992Z</time></trkpt><trkpt lat="42.1020627" lon="13.4394568"><ele>971.1999999999999</ele><time>2026-05-02T14:22:58.992Z</time></trkpt><trkpt lat="42.1019992" lon="13.4393511"><ele>971.0</ele><time>2026-05-02T14:22:59.992Z</time></trkpt><trkpt lat="42.1019348" lon="13.4392478"><ele>971.8</ele><time>2026-05-02T14:23:00.992Z</time></trkpt><trkpt lat="42.1018619" lon="13.4391542"><ele>972.5999999999999</ele><time>2026-05-02T14:23:01.992Z</time></trkpt><trkpt lat="42.1017884" lon="13.439063"><ele>973.4</ele><time>2026-05-02T14:23:02.991Z</time></trkpt><trkpt lat="42.1017145" lon="13.4389676"><ele>974.2</ele><time>2026-05-02T14:23:03.992Z</time></trkpt><trkpt lat="42.101644" lon="13.4388676"><ele>975.0</ele><time>2026-05-02T14:23:04.991Z</time></trkpt><trkpt lat="42.1015761" lon="13.4387652"><ele>975.0</ele><time>2026-05-02T14:23:05.992Z</time></trkpt><trkpt lat="42.1015071" lon="13.4386585"><ele>975.0</ele><time>2026-05-02T14:23:06.992Z</time></trkpt><trkpt lat="42.1014409" lon="13.4385478"><ele>975.0</ele><time>2026-05-02T14:23:07.991Z</time></trkpt><trkpt lat="42.101379" lon="13.438427"><ele>975.0</ele><time>2026-05-02T14:23:08.992Z</time></trkpt><trkpt lat="42.1013176" lon="13.4383061"><ele>975.0</ele><time>2026-05-02T14:23:09.992Z</time></trkpt><trkpt lat="42.1012512" lon="13.4381838"><ele>975.0</ele><time>2026-05-02T14:23:10.991Z</time></trkpt><trkpt lat="42.1011775" lon="13.4380663"><ele>975.0</ele><time>2026-05-02T14:23:11.992Z</time></trkpt><trkpt lat="42.1011025" lon="13.4379535"><ele>975.0</ele><time>2026-05-02T14:23:12.991Z</time></trkpt><trkpt lat="42.1010337" lon="13.4378414"><ele>975.0</ele><time>2026-05-02T14:23:13.992Z</time></trkpt><trkpt lat="42.1009688" lon="13.4377285"><ele>975.0</ele><time>2026-05-02T14:23:14.992Z</time></trkpt><trkpt lat="42.1009075" lon="13.4376186"><ele>975.0</ele><time>2026-05-02T14:23:15.991Z</time></trkpt><trkpt lat="42.1008504" lon="13.4375138"><ele>975.0</ele><time>2026-05-02T14:23:16.992Z</time></trkpt><trkpt lat="42.1007991" lon="13.4374246"><ele>975.0</ele><time>2026-05-02T14:23:17.991Z</time></trkpt><trkpt lat="42.1007307" lon="13.4373115"><ele>975.0</ele><time>2026-05-02T14:23:19.992Z</time></trkpt><trkpt lat="42.1006587" lon="13.4371921"><ele>975.0</ele><time>2026-05-02T14:23:21.992Z</time></trkpt><trkpt lat="42.1006178" lon="13.4371149"><ele>974.4</ele><time>2026-05-02T14:23:22.991Z</time></trkpt><trkpt lat="42.1005687" lon="13.4370261"><ele>973.8</ele><time>2026-05-02T14:23:23.992Z</time></trkpt><trkpt lat="42.1005153" lon="13.4369254"><ele>973.2</ele><time>2026-05-02T14:23:24.992Z</time></trkpt><trkpt lat="42.1004602" lon="13.436814"><ele>972.6</ele><time>2026-05-02T14:23:25.992Z</time></trkpt><trkpt lat="42.1004043" lon="13.4366941"><ele>972.0</ele><time>2026-05-02T14:23:26.992Z</time></trkpt><trkpt lat="42.1003438" lon="13.4365709"><ele>972.0</ele><time>2026-05-02T14:23:27.992Z</time></trkpt><trkpt lat="42.1002791" lon="13.4364456"><ele>972.0</ele><time>2026-05-02T14:23:28.992Z</time></trkpt><trkpt lat="42.1002171" lon="13.4363239"><ele>972.0</ele><time>2026-05-02T14:23:29.991Z</time></trkpt><trkpt lat="42.1001642" lon="13.4361982"><ele>972.0</ele><time>2026-05-02T14:23:30.992Z</time></trkpt><trkpt lat="42.1001157" lon="13.4360773"><ele>972.0</ele><time>2026-05-02T14:23:31.992Z</time></trkpt><trkpt lat="42.100068" lon="13.4359602"><ele>972.0</ele><time>2026-05-02T14:23:32.992Z</time></trkpt><trkpt lat="42.1000237" lon="13.4358468"><ele>972.0</ele><time>2026-05-02T14:23:33.992Z</time></trkpt><trkpt lat="42.0999816" lon="13.4357385"><ele>972.0</ele><time>2026-05-02T14:23:34.992Z</time></trkpt><trkpt lat="42.0999397" lon="13.4356327"><ele>972.0</ele><time>2026-05-02T14:23:35.991Z</time></trkpt><trkpt lat="42.0998979" lon="13.4355214"><ele>972.0</ele><time>2026-05-02T14:23:36.992Z</time></trkpt><trkpt lat="42.0998572" lon="13.4354079"><ele>972.4000000000001</ele><time>2026-05-02T14:23:37.992Z</time></trkpt><trkpt lat="42.0998193" lon="13.4352937"><ele>972.8000000000001</ele><time>2026-05-02T14:23:38.992Z</time></trkpt><trkpt lat="42.0997828" lon="13.4351771"><ele>973.2</ele><time>2026-05-02T14:23:39.992Z</time></trkpt><trkpt lat="42.099745" lon="13.4350619"><ele>973.6</ele><time>2026-05-02T14:23:40.992Z</time></trkpt><trkpt lat="42.0997011" lon="13.4349467"><ele>974.0</ele><time>2026-05-02T14:23:41.992Z</time></trkpt><trkpt lat="42.0996552" lon="13.4348294"><ele>974.0000000000001</ele><time>2026-05-02T14:23:42.992Z</time></trkpt><trkpt lat="42.0996115" lon="13.4347201"><ele>974.0</ele><time>2026-05-02T14:23:43.992Z</time></trkpt><trkpt lat="42.0995671" lon="13.4346198"><ele>974.0</ele><time>2026-05-02T14:23:44.992Z</time></trkpt><trkpt lat="42.0995258" lon="13.4345247"><ele>974.0</ele><time>2026-05-02T14:23:45.992Z</time></trkpt><trkpt lat="42.0994959" lon="13.4344348"><ele>974.0000000000001</ele><time>2026-05-02T14:23:46.992Z</time></trkpt><trkpt lat="42.0994674" lon="13.4343578"><ele>974.0</ele><time>2026-05-02T14:23:47.992Z</time></trkpt><trkpt lat="42.0994221" lon="13.434221"><ele>974.2</ele><time>2026-05-02T14:23:49.992Z</time></trkpt><trkpt lat="42.0993934" lon="13.4340953"><ele>974.4000000000001</ele><time>2026-05-02T14:23:51.992Z</time></trkpt><trkpt lat="42.0993689" lon="13.433982"><ele>974.6</ele><time>2026-05-02T14:23:53.992Z</time></trkpt><trkpt lat="42.0993174" lon="13.4338595"><ele>974.8</ele><time>2026-05-02T14:23:55.992Z</time></trkpt><trkpt lat="42.0992367" lon="13.4337835"><ele>975.0</ele><time>2026-05-02T14:23:57.992Z</time></trkpt><trkpt lat="42.0991312" lon="13.4336808"><ele>974.4</ele><time>2026-05-02T14:23:59.992Z</time></trkpt><trkpt lat="42.0990647" lon="13.4336101"><ele>973.8</ele><time>2026-05-02T14:24:00.992Z</time></trkpt><trkpt lat="42.0989899" lon="13.4335296"><ele>973.2</ele><time>2026-05-02T14:24:01.992Z</time></trkpt><trkpt lat="42.0989044" lon="13.4334369"><ele>972.6</ele><time>2026-05-02T14:24:02.992Z</time></trkpt><trkpt lat="42.0988093" lon="13.4333377"><ele>972.0</ele><time>2026-05-02T14:24:03.992Z</time></trkpt><trkpt lat="42.0987038" lon="13.4332308"><ele>972.0</ele><time>2026-05-02T14:24:04.992Z</time></trkpt><trkpt lat="42.0985895" lon="13.4331199"><ele>972.0</ele><time>2026-05-02T14:24:05.991Z</time></trkpt><trkpt lat="42.0984691" lon="13.4330032"><ele>972.0</ele><time>2026-05-02T14:24:06.992Z</time></trkpt><trkpt lat="42.0983591" lon="13.4328906"><ele>972.0</ele><time>2026-05-02T14:24:07.992Z</time></trkpt><trkpt lat="42.0982553" lon="13.4327866"><ele>971.4000000000001</ele><time>2026-05-02T14:24:08.992Z</time></trkpt><trkpt lat="42.0981594" lon="13.4326931"><ele>970.8000000000001</ele><time>2026-05-02T14:24:09.992Z</time></trkpt><trkpt lat="42.0980749" lon="13.4326061"><ele>970.2</ele><time>2026-05-02T14:24:10.992Z</time></trkpt><trkpt lat="42.0980027" lon="13.4325313"><ele>969.6</ele><time>2026-05-02T14:24:11.992Z</time></trkpt><trkpt lat="42.0979423" lon="13.4324652"><ele>969.0</ele><time>2026-05-02T14:24:12.992Z</time></trkpt><trkpt lat="42.0978663" lon="13.4323734"><ele>969.0</ele><time>2026-05-02T14:24:14.991Z</time></trkpt><trkpt lat="42.0978236" lon="13.4322955"><ele>969.0</ele><time>2026-05-02T14:24:16.992Z</time></trkpt><trkpt lat="42.0977893" lon="13.4321862"><ele>969.0</ele><time>2026-05-02T14:24:19.992Z</time></trkpt><trkpt lat="42.0977257" lon="13.4321726"><ele>969.0</ele><time>2026-05-02T14:24:23.992Z</time></trkpt><trkpt lat="42.0977913" lon="13.4322451"><ele>969.0</ele><time>2026-05-02T14:24:33.992Z</time></trkpt><trkpt lat="42.0978608" lon="13.4322787"><ele>969.0</ele><time>2026-05-02T14:24:36.992Z</time></trkpt><trkpt lat="42.0979416" lon="13.4322757"><ele>969.0</ele><time>2026-05-02T14:24:41.992Z</time></trkpt><trkpt lat="42.0980111" lon="13.4322665"><ele>969.0000000000001</ele><time>2026-05-02T14:24:43.992Z</time></trkpt><trkpt lat="42.098101" lon="13.4322881"><ele>969.0000000000001</ele><time>2026-05-02T14:24:45.992Z</time></trkpt><trkpt lat="42.0982046" lon="13.4323473"><ele>969.0</ele><time>2026-05-02T14:24:47.991Z</time></trkpt><trkpt lat="42.0982605" lon="13.4323865"><ele>969.0</ele><time>2026-05-02T14:24:48.992Z</time></trkpt><trkpt lat="42.0983718" lon="13.4324722"><ele>968.142857142857</ele><time>2026-05-02T14:24:50.991Z</time></trkpt><trkpt lat="42.0984277" lon="13.4325185"><ele>967.2857142857142</ele><time>2026-05-02T14:24:51.992Z</time></trkpt><trkpt lat="42.0984828" lon="13.4325641"><ele>966.4285714285714</ele><time>2026-05-02T14:24:52.991Z</time></trkpt><trkpt lat="42.0985352" lon="13.4326128"><ele>965.5714285714286</ele><time>2026-05-02T14:24:53.992Z</time></trkpt><trkpt lat="42.0985911" lon="13.4326625"><ele>964.7142857142858</ele><time>2026-05-02T14:24:54.992Z</time></trkpt><trkpt lat="42.0986502" lon="13.4327142"><ele>963.857142857143</ele><time>2026-05-02T14:24:55.991Z</time></trkpt><trkpt lat="42.0987118" lon="13.4327632"><ele>963.0000000000001</ele><time>2026-05-02T14:24:56.992Z</time></trkpt><trkpt lat="42.0987724" lon="13.4328078"><ele>963.0000000000001</ele><time>2026-05-02T14:24:57.992Z</time></trkpt><trkpt lat="42.0988338" lon="13.4328437"><ele>963.0</ele><time>2026-05-02T14:24:58.992Z</time></trkpt><trkpt lat="42.0988972" lon="13.4328759"><ele>963.0000000000001</ele><time>2026-05-02T14:24:59.992Z</time></trkpt><trkpt lat="42.0989595" lon="13.4329017"><ele>963.0000000000001</ele><time>2026-05-02T14:25:00.992Z</time></trkpt><trkpt lat="42.0990272" lon="13.4329211"><ele>963.0</ele><time>2026-05-02T14:25:01.992Z</time></trkpt><trkpt lat="42.099093" lon="13.4329364"><ele>963.0000000000001</ele><time>2026-05-02T14:25:02.992Z</time></trkpt><trkpt lat="42.0991585" lon="13.4329527"><ele>963.0000000000001</ele><time>2026-05-02T14:25:03.992Z</time></trkpt><trkpt lat="42.0992666" lon="13.4329976"><ele>964.0</ele><time>2026-05-02T14:25:05.991Z</time></trkpt><trkpt lat="42.0993475" lon="13.4330674"><ele>965.0</ele><time>2026-05-02T14:25:07.992Z</time></trkpt><trkpt lat="42.0994265" lon="13.4330872"><ele>966.0</ele><time>2026-05-02T14:25:09.992Z</time></trkpt><trkpt lat="42.0994949" lon="13.4330564"><ele>967.0</ele><time>2026-05-02T14:25:11.991Z</time></trkpt><trkpt lat="42.0995625" lon="13.4330101"><ele>968.0</ele><time>2026-05-02T14:25:13.992Z</time></trkpt><trkpt lat="42.099626" lon="13.4329788"><ele>969.0</ele><time>2026-05-02T14:25:15.991Z</time></trkpt><trkpt lat="42.0997261" lon="13.4329373"><ele>965.8333333333334</ele><time>2026-05-02T14:25:18.005Z</time></trkpt><trkpt lat="42.0998005" lon="13.4329176"><ele>962.6666666666667</ele><time>2026-05-02T14:25:19.992Z</time></trkpt><trkpt lat="42.0998573" lon="13.4328575"><ele>959.5</ele><time>2026-05-02T14:25:21.991Z</time></trkpt><trkpt lat="42.0999247" lon="13.4328066"><ele>956.3333333333334</ele><time>2026-05-02T14:25:23.924Z</time></trkpt><trkpt lat="42.1000004" lon="13.4327194"><ele>953.1666666666667</ele><time>2026-05-02T14:25:25.992Z</time></trkpt><trkpt lat="42.1000826" lon="13.4326112"><ele>950.0</ele><time>2026-05-02T14:25:27.992Z</time></trkpt><trkpt lat="42.1001511" lon="13.4324797"><ele>950.0000000000001</ele><time>2026-05-02T14:25:29.992Z</time></trkpt><trkpt lat="42.1001957" lon="13.4323573"><ele>950.0</ele><time>2026-05-02T14:25:31.992Z</time></trkpt><trkpt lat="42.1002413" lon="13.432256"><ele>950.0</ele><time>2026-05-02T14:25:33.992Z</time></trkpt><trkpt lat="42.100293" lon="13.4321489"><ele>950.0</ele><time>2026-05-02T14:25:35.992Z</time></trkpt><trkpt lat="42.1003634" lon="13.4320706"><ele>950.0000000000001</ele><time>2026-05-02T14:25:37.991Z</time></trkpt><trkpt lat="42.1004177" lon="13.4320149"><ele>950.0</ele><time>2026-05-02T14:26:08.992Z</time></trkpt><trkpt lat="42.1004723" lon="13.4319544"><ele>949.3333333333334</ele><time>2026-05-02T14:26:13.992Z</time></trkpt><trkpt lat="42.1004104" lon="13.432039"><ele>948.6666666666667</ele><time>2026-05-02T14:26:45.992Z</time></trkpt><trkpt lat="42.1003401" lon="13.4320856"><ele>948.0</ele><time>2026-05-02T14:27:36.992Z</time></trkpt><trkpt lat="42.1002369" lon="13.4320378"><ele>947.3333333333333</ele><time>2026-05-02T14:30:19.992Z</time></trkpt><trkpt lat="42.1001795" lon="13.4319846"><ele>946.6666666666666</ele><time>2026-05-02T14:30:26.992Z</time></trkpt><trkpt lat="42.1001161" lon="13.4318929"><ele>946.0</ele><time>2026-05-02T14:30:30.992Z</time></trkpt><trkpt lat="42.1000454" lon="13.4318696"><ele>946.0</ele><time>2026-05-02T14:30:33.992Z</time></trkpt><trkpt lat="42.0999578" lon="13.4319418"><ele>945.9999999999999</ele><time>2026-05-02T14:30:36.991Z</time></trkpt><trkpt lat="42.0998808" lon="13.4319975"><ele>945.9999999999999</ele><time>2026-05-02T14:30:38.992Z</time></trkpt><trkpt lat="42.0997903" lon="13.4320421"><ele>946.0</ele><time>2026-05-02T14:30:40.992Z</time></trkpt><trkpt lat="42.0996992" lon="13.4320916"><ele>946.0</ele><time>2026-05-02T14:30:42.992Z</time></trkpt><trkpt lat="42.0996123" lon="13.4321024"><ele>944.8333333333333</ele><time>2026-05-02T14:30:44.992Z</time></trkpt><trkpt lat="42.0995269" lon="13.4321045"><ele>943.6666666666666</ele><time>2026-05-02T14:30:46.992Z</time></trkpt><trkpt lat="42.0994317" lon="13.432084"><ele>942.5</ele><time>2026-05-02T14:30:48.992Z</time></trkpt><trkpt lat="42.0993157" lon="13.4320156"><ele>941.3333333333333</ele><time>2026-05-02T14:30:50.991Z</time></trkpt><trkpt lat="42.0992499" lon="13.4319915"><ele>940.1666666666666</ele><time>2026-05-02T14:30:51.992Z</time></trkpt><trkpt lat="42.0991857" lon="13.4319606"><ele>939.0</ele><time>2026-05-02T14:30:52.992Z</time></trkpt><trkpt lat="42.0991228" lon="13.4319224"><ele>940.0</ele><time>2026-05-02T14:30:53.992Z</time></trkpt><trkpt lat="42.0990626" lon="13.4318756"><ele>941.0</ele><time>2026-05-02T14:30:54.992Z</time></trkpt><trkpt lat="42.0990068" lon="13.4318166"><ele>942.0</ele><time>2026-05-02T14:30:55.992Z</time></trkpt><trkpt lat="42.0989528" lon="13.4317484"><ele>943.0</ele><time>2026-05-02T14:30:56.991Z</time></trkpt><trkpt lat="42.0988939" lon="13.431676"><ele>944.0</ele><time>2026-05-02T14:30:57.992Z</time></trkpt><trkpt lat="42.0988328" lon="13.4315988"><ele>945.0</ele><time>2026-05-02T14:30:58.992Z</time></trkpt><trkpt lat="42.0987731" lon="13.4315178"><ele>945.0</ele><time>2026-05-02T14:30:59.992Z</time></trkpt><trkpt lat="42.0987152" lon="13.4314397"><ele>945.0</ele><time>2026-05-02T14:31:00.992Z</time></trkpt><trkpt lat="42.0986578" lon="13.4313607"><ele>945.0</ele><time>2026-05-02T14:31:01.991Z</time></trkpt><trkpt lat="42.098599" lon="13.4312839"><ele>945.0</ele><time>2026-05-02T14:31:02.992Z</time></trkpt><trkpt lat="42.0985361" lon="13.4312127"><ele>945.0</ele><time>2026-05-02T14:31:03.991Z</time></trkpt><trkpt lat="42.098475" lon="13.431142"><ele>945.0</ele><time>2026-05-02T14:31:04.992Z</time></trkpt><trkpt lat="42.0984137" lon="13.4310718"><ele>946.0</ele><time>2026-05-02T14:31:05.991Z</time></trkpt><trkpt lat="42.0983529" lon="13.4310088"><ele>947.0</ele><time>2026-05-02T14:31:06.992Z</time></trkpt><trkpt lat="42.0982981" lon="13.4309436"><ele>948.0</ele><time>2026-05-02T14:31:07.992Z</time></trkpt><trkpt lat="42.09825" lon="13.4308667"><ele>949.0</ele><time>2026-05-02T14:31:08.992Z</time></trkpt><trkpt lat="42.0982032" lon="13.4307889"><ele>950.0</ele><time>2026-05-02T14:31:09.992Z</time></trkpt><trkpt lat="42.0981552" lon="13.4307121"><ele>951.0</ele><time>2026-05-02T14:31:10.992Z</time></trkpt><trkpt lat="42.0981025" lon="13.4306385"><ele>952.0</ele><time>2026-05-02T14:31:11.992Z</time></trkpt><trkpt lat="42.0980516" lon="13.4305646"><ele>951.9999999999999</ele><time>2026-05-02T14:31:12.992Z</time></trkpt><trkpt lat="42.0980024" lon="13.4304845"><ele>952.0</ele><time>2026-05-02T14:31:13.992Z</time></trkpt><trkpt lat="42.0979572" lon="13.430399"><ele>952.0</ele><time>2026-05-02T14:31:14.992Z</time></trkpt><trkpt lat="42.097917" lon="13.4302994"><ele>952.0</ele><time>2026-05-02T14:31:15.992Z</time></trkpt><trkpt lat="42.0978701" lon="13.4302069"><ele>951.9999999999999</ele><time>2026-05-02T14:31:16.992Z</time></trkpt><trkpt lat="42.0978232" lon="13.4301119"><ele>952.0</ele><time>2026-05-02T14:31:17.992Z</time></trkpt><trkpt lat="42.0977812" lon="13.4300091"><ele>949.6</ele><time>2026-05-02T14:31:18.992Z</time></trkpt><trkpt lat="42.0977416" lon="13.4298989"><ele>947.2</ele><time>2026-05-02T14:31:19.992Z</time></trkpt><trkpt lat="42.0977025" lon="13.4297857"><ele>944.8</ele><time>2026-05-02T14:31:20.991Z</time></trkpt><trkpt lat="42.097664" lon="13.4296704"><ele>942.4</ele><time>2026-05-02T14:31:21.992Z</time></trkpt><trkpt lat="42.0976292" lon="13.429556"><ele>940.0</ele><time>2026-05-02T14:31:22.992Z</time></trkpt><trkpt lat="42.0976007" lon="13.4294416"><ele>938.8333333333333</ele><time>2026-05-02T14:31:23.992Z</time></trkpt><trkpt lat="42.0975782" lon="13.4293246"><ele>937.6666666666666</ele><time>2026-05-02T14:31:24.991Z</time></trkpt><trkpt lat="42.0975548" lon="13.4292064"><ele>936.5</ele><time>2026-05-02T14:31:25.992Z</time></trkpt><trkpt lat="42.0975291" lon="13.4290877"><ele>935.3333333333333</ele><time>2026-05-02T14:31:26.991Z</time></trkpt><trkpt lat="42.0975027" lon="13.4289741"><ele>934.1666666666666</ele><time>2026-05-02T14:31:27.992Z</time></trkpt><trkpt lat="42.0974783" lon="13.4288626"><ele>933.0</ele><time>2026-05-02T14:31:28.992Z</time></trkpt><trkpt lat="42.0974524" lon="13.4287549"><ele>933.0</ele><time>2026-05-02T14:31:29.992Z</time></trkpt><trkpt lat="42.0974255" lon="13.4286499"><ele>933.0</ele><time>2026-05-02T14:31:30.991Z</time></trkpt><trkpt lat="42.0973966" lon="13.428545"><ele>933.0</ele><time>2026-05-02T14:31:31.992Z</time></trkpt><trkpt lat="42.0973653" lon="13.4284422"><ele>933.0</ele><time>2026-05-02T14:31:32.992Z</time></trkpt><trkpt lat="42.0973344" lon="13.4283417"><ele>933.0</ele><time>2026-05-02T14:31:33.992Z</time></trkpt><trkpt lat="42.0973054" lon="13.428245"><ele>933.0</ele><time>2026-05-02T14:31:34.992Z</time></trkpt><trkpt lat="42.0972789" lon="13.4281582"><ele>933.1428571428571</ele><time>2026-05-02T14:31:35.992Z</time></trkpt><trkpt lat="42.0972561" lon="13.428075"><ele>933.2857142857142</ele><time>2026-05-02T14:31:36.991Z</time></trkpt><trkpt lat="42.097238" lon="13.4279851"><ele>933.4285714285713</ele><time>2026-05-02T14:31:37.991Z</time></trkpt><trkpt lat="42.0972151" lon="13.4278902"><ele>933.5714285714284</ele><time>2026-05-02T14:31:38.992Z</time></trkpt><trkpt lat="42.0971891" lon="13.427791"><ele>933.7142857142857</ele><time>2026-05-02T14:31:39.991Z</time></trkpt><trkpt lat="42.0971709" lon="13.4276864"><ele>933.8571428571427</ele><time>2026-05-02T14:31:40.991Z</time></trkpt><trkpt lat="42.0971584" lon="13.4275795"><ele>933.9999999999999</ele><time>2026-05-02T14:31:41.992Z</time></trkpt><trkpt lat="42.0971384" lon="13.4274726"><ele>934.0</ele><time>2026-05-02T14:31:42.992Z</time></trkpt><trkpt lat="42.0971106" lon="13.4273607"><ele>934.0000000000001</ele><time>2026-05-02T14:31:43.992Z</time></trkpt><trkpt lat="42.0970836" lon="13.4272426"><ele>934.0000000000001</ele><time>2026-05-02T14:31:44.992Z</time></trkpt><trkpt lat="42.0970603" lon="13.4271191"><ele>934.0</ele><time>2026-05-02T14:31:45.991Z</time></trkpt><trkpt lat="42.0970377" lon="13.4269943"><ele>934.0</ele><time>2026-05-02T14:31:46.992Z</time></trkpt><trkpt lat="42.0970151" lon="13.4268686"><ele>932.6</ele><time>2026-05-02T14:31:47.992Z</time></trkpt><trkpt lat="42.0969942" lon="13.4267444"><ele>931.2</ele><time>2026-05-02T14:31:48.992Z</time></trkpt><trkpt lat="42.0969779" lon="13.4266204"><ele>929.8000000000001</ele><time>2026-05-02T14:31:49.992Z</time></trkpt><trkpt lat="42.0969604" lon="13.426498"><ele>928.4000000000001</ele><time>2026-05-02T14:31:50.992Z</time></trkpt><trkpt lat="42.0969401" lon="13.426376"><ele>927.0</ele><time>2026-05-02T14:31:51.992Z</time></trkpt><trkpt lat="42.0969255" lon="13.4262532"><ele>926.2</ele><time>2026-05-02T14:31:52.991Z</time></trkpt><trkpt lat="42.0969059" lon="13.4261331"><ele>925.4000000000001</ele><time>2026-05-02T14:31:53.992Z</time></trkpt><trkpt lat="42.096879" lon="13.4260141"><ele>924.5999999999999</ele><time>2026-05-02T14:31:54.991Z</time></trkpt><trkpt lat="42.0968549" lon="13.4258928"><ele>923.8</ele><time>2026-05-02T14:31:55.992Z</time></trkpt><trkpt lat="42.0968337" lon="13.4257694"><ele>923.0</ele><time>2026-05-02T14:31:56.992Z</time></trkpt><trkpt lat="42.0968148" lon="13.4256496"><ele>923.0</ele><time>2026-05-02T14:31:57.992Z</time></trkpt><trkpt lat="42.0967949" lon="13.4255431"><ele>923.0</ele><time>2026-05-02T14:31:58.992Z</time></trkpt><trkpt lat="42.0967642" lon="13.4254349"><ele>923.0</ele><time>2026-05-02T14:31:59.992Z</time></trkpt><trkpt lat="42.0967291" lon="13.4253147"><ele>923.0</ele><time>2026-05-02T14:32:00.992Z</time></trkpt><trkpt lat="42.0966961" lon="13.4251873"><ele>923.0</ele><time>2026-05-02T14:32:01.992Z</time></trkpt><trkpt lat="42.0966601" lon="13.4250572"><ele>922.5999999999999</ele><time>2026-05-02T14:32:02.992Z</time></trkpt><trkpt lat="42.0966226" lon="13.4249229"><ele>922.1999999999999</ele><time>2026-05-02T14:32:03.992Z</time></trkpt><trkpt lat="42.0965798" lon="13.4247856"><ele>921.8</ele><time>2026-05-02T14:32:04.991Z</time></trkpt><trkpt lat="42.0965274" lon="13.4246519"><ele>921.4</ele><time>2026-05-02T14:32:05.991Z</time></trkpt><trkpt lat="42.0964732" lon="13.4245249"><ele>921.0</ele><time>2026-05-02T14:32:06.991Z</time></trkpt><trkpt lat="42.0964208" lon="13.4244039"><ele>921.0</ele><time>2026-05-02T14:32:07.992Z</time></trkpt><trkpt lat="42.0963642" lon="13.4242892"><ele>920.9999999999999</ele><time>2026-05-02T14:32:08.992Z</time></trkpt><trkpt lat="42.0963023" lon="13.4241821"><ele>920.9999999999999</ele><time>2026-05-02T14:32:09.992Z</time></trkpt><trkpt lat="42.0962381" lon="13.4240818"><ele>921.0</ele><time>2026-05-02T14:32:10.991Z</time></trkpt><trkpt lat="42.0961764" lon="13.4239835"><ele>921.0</ele><time>2026-05-02T14:32:11.992Z</time></trkpt><trkpt lat="42.0961187" lon="13.4238858"><ele>919.4</ele><time>2026-05-02T14:32:12.992Z</time></trkpt><trkpt lat="42.0960609" lon="13.4237911"><ele>917.8</ele><time>2026-05-02T14:32:13.992Z</time></trkpt><trkpt lat="42.0960088" lon="13.4236936"><ele>916.1999999999999</ele><time>2026-05-02T14:32:14.992Z</time></trkpt><trkpt lat="42.0959624" lon="13.4235906"><ele>914.5999999999999</ele><time>2026-05-02T14:32:15.992Z</time></trkpt><trkpt lat="42.0959156" lon="13.4234832"><ele>913.0</ele><time>2026-05-02T14:32:16.992Z</time></trkpt><trkpt lat="42.095869" lon="13.4233745"><ele>913.0</ele><time>2026-05-02T14:32:17.992Z</time></trkpt><trkpt lat="42.0958269" lon="13.423263"><ele>913.0</ele><time>2026-05-02T14:32:18.992Z</time></trkpt><trkpt lat="42.0957868" lon="13.423149"><ele>913.0</ele><time>2026-05-02T14:32:19.992Z</time></trkpt><trkpt lat="42.0957502" lon="13.4230332"><ele>913.0</ele><time>2026-05-02T14:32:20.992Z</time></trkpt><trkpt lat="42.0957154" lon="13.4229213"><ele>913.0</ele><time>2026-05-02T14:32:21.992Z</time></trkpt><trkpt lat="42.0956801" lon="13.4228119"><ele>915.8</ele><time>2026-05-02T14:32:22.992Z</time></trkpt><trkpt lat="42.0956557" lon="13.4226993"><ele>918.5999999999999</ele><time>2026-05-02T14:32:23.992Z</time></trkpt><trkpt lat="42.0956386" lon="13.4225792"><ele>921.4000000000001</ele><time>2026-05-02T14:32:24.991Z</time></trkpt><trkpt lat="42.0956233" lon="13.4224501"><ele>924.2</ele><time>2026-05-02T14:32:25.991Z</time></trkpt><trkpt lat="42.0956108" lon="13.4223126"><ele>927.0</ele><time>2026-05-02T14:32:26.992Z</time></trkpt><trkpt lat="42.0956014" lon="13.4221672"><ele>926.0</ele><time>2026-05-02T14:32:27.992Z</time></trkpt><trkpt lat="42.0955909" lon="13.4220189"><ele>925.0</ele><time>2026-05-02T14:32:28.992Z</time></trkpt><trkpt lat="42.0955794" lon="13.4218739"><ele>924.0</ele><time>2026-05-02T14:32:29.992Z</time></trkpt><trkpt lat="42.0955722" lon="13.4217328"><ele>923.0</ele><time>2026-05-02T14:32:30.992Z</time></trkpt><trkpt lat="42.0955696" lon="13.4215945"><ele>922.0</ele><time>2026-05-02T14:32:31.992Z</time></trkpt><trkpt lat="42.0955649" lon="13.4214554"><ele>920.4000000000001</ele><time>2026-05-02T14:32:32.991Z</time></trkpt><trkpt lat="42.095558" lon="13.4213137"><ele>918.8000000000001</ele><time>2026-05-02T14:32:33.992Z</time></trkpt><trkpt lat="42.095549" lon="13.4211709"><ele>917.2</ele><time>2026-05-02T14:32:34.992Z</time></trkpt><trkpt lat="42.0955429" lon="13.4210278"><ele>915.6</ele><time>2026-05-02T14:32:35.992Z</time></trkpt><trkpt lat="42.0955409" lon="13.4208863"><ele>914.0</ele><time>2026-05-02T14:32:36.992Z</time></trkpt><trkpt lat="42.0955413" lon="13.4207454"><ele>914.0</ele><time>2026-05-02T14:32:37.992Z</time></trkpt><trkpt lat="42.0955451" lon="13.4206054"><ele>914.0000000000001</ele><time>2026-05-02T14:32:38.992Z</time></trkpt><trkpt lat="42.0955475" lon="13.4204666"><ele>914.0000000000001</ele><time>2026-05-02T14:32:39.992Z</time></trkpt><trkpt lat="42.0955411" lon="13.4203286"><ele>914.0</ele><time>2026-05-02T14:32:40.992Z</time></trkpt><trkpt lat="42.0955255" lon="13.4201959"><ele>914.0</ele><time>2026-05-02T14:32:41.992Z</time></trkpt><trkpt lat="42.0955076" lon="13.4200848"><ele>913.857142857143</ele><time>2026-05-02T14:32:42.992Z</time></trkpt><trkpt lat="42.0954929" lon="13.4199938"><ele>913.7142857142858</ele><time>2026-05-02T14:32:43.992Z</time></trkpt><trkpt lat="42.0954827" lon="13.4199067"><ele>913.5714285714286</ele><time>2026-05-02T14:32:44.992Z</time></trkpt><trkpt lat="42.0954774" lon="13.4198154"><ele>913.4285714285714</ele><time>2026-05-02T14:32:45.992Z</time></trkpt><trkpt lat="42.0954776" lon="13.4197154"><ele>913.2857142857142</ele><time>2026-05-02T14:32:46.992Z</time></trkpt><trkpt lat="42.0954776" lon="13.4196083"><ele>913.142857142857</ele><time>2026-05-02T14:32:47.992Z</time></trkpt><trkpt lat="42.0954774" lon="13.4194991"><ele>912.9999999999999</ele><time>2026-05-02T14:32:48.992Z</time></trkpt><trkpt lat="42.0954778" lon="13.4193884"><ele>912.2</ele><time>2026-05-02T14:32:49.992Z</time></trkpt><trkpt lat="42.0954799" lon="13.4192759"><ele>911.4</ele><time>2026-05-02T14:32:50.992Z</time></trkpt><trkpt lat="42.095482" lon="13.4191572"><ele>910.6000000000001</ele><time>2026-05-02T14:32:51.992Z</time></trkpt><trkpt lat="42.0954825" lon="13.4190312"><ele>909.8000000000001</ele><time>2026-05-02T14:32:52.991Z</time></trkpt><trkpt lat="42.0954833" lon="13.4188997"><ele>909.0</ele><time>2026-05-02T14:32:53.992Z</time></trkpt><trkpt lat="42.0954839" lon="13.4187669"><ele>908.0</ele><time>2026-05-02T14:32:54.991Z</time></trkpt><trkpt lat="42.0954843" lon="13.4186412"><ele>907.0000000000001</ele><time>2026-05-02T14:32:55.992Z</time></trkpt><trkpt lat="42.0954808" lon="13.4185213"><ele>906.0000000000001</ele><time>2026-05-02T14:32:56.991Z</time></trkpt><trkpt lat="42.095475" lon="13.4184019"><ele>905.0</ele><time>2026-05-02T14:32:57.992Z</time></trkpt><trkpt lat="42.0954751" lon="13.4182831"><ele>904.0</ele><time>2026-05-02T14:32:58.991Z</time></trkpt><trkpt lat="42.0954749" lon="13.4181606"><ele>904.0</ele><time>2026-05-02T14:32:59.992Z</time></trkpt><trkpt lat="42.0954734" lon="13.4180329"><ele>904.0000000000001</ele><time>2026-05-02T14:33:00.992Z</time></trkpt><trkpt lat="42.0954714" lon="13.417911"><ele>904.0000000000001</ele><time>2026-05-02T14:33:01.991Z</time></trkpt><trkpt lat="42.0954601" lon="13.4177918"><ele>904.0</ele><time>2026-05-02T14:33:02.991Z</time></trkpt><trkpt lat="42.0954347" lon="13.4176669"><ele>904.0</ele><time>2026-05-02T14:33:03.991Z</time></trkpt><trkpt lat="42.0954" lon="13.417541"><ele>903.0</ele><time>2026-05-02T14:33:04.992Z</time></trkpt><trkpt lat="42.0953677" lon="13.4174168"><ele>902.0000000000001</ele><time>2026-05-02T14:33:05.992Z</time></trkpt><trkpt lat="42.09534" lon="13.4172899"><ele>901.0000000000001</ele><time>2026-05-02T14:33:06.992Z</time></trkpt><trkpt lat="42.0953166" lon="13.4171581"><ele>900.0</ele><time>2026-05-02T14:33:07.992Z</time></trkpt><trkpt lat="42.0952939" lon="13.4170254"><ele>899.0</ele><time>2026-05-02T14:33:08.992Z</time></trkpt><trkpt lat="42.0952726" lon="13.4169014"><ele>898.0000000000001</ele><time>2026-05-02T14:33:09.992Z</time></trkpt><trkpt lat="42.0952568" lon="13.4167983"><ele>897.0</ele><time>2026-05-02T14:33:10.991Z</time></trkpt><trkpt lat="42.0952277" lon="13.4166538"><ele>896.0</ele><time>2026-05-02T14:33:12.991Z</time></trkpt><trkpt lat="42.0952022" lon="13.4165671"><ele>895.0</ele><time>2026-05-02T14:33:14.992Z</time></trkpt><trkpt lat="42.0952413" lon="13.4164775"><ele>894.0000000000001</ele><time>2026-05-02T14:33:17.992Z</time></trkpt><trkpt lat="42.095319" lon="13.4164527"><ele>893.0</ele><time>2026-05-02T14:33:19.992Z</time></trkpt><trkpt lat="42.0954132" lon="13.4164119"><ele>892.1666666666667</ele><time>2026-05-02T14:33:21.992Z</time></trkpt><trkpt lat="42.0954921" lon="13.4162967"><ele>891.3333333333334</ele><time>2026-05-02T14:33:23.992Z</time></trkpt><trkpt lat="42.09557" lon="13.4161665"><ele>890.5</ele><time>2026-05-02T14:33:25.992Z</time></trkpt><trkpt lat="42.0956017" lon="13.4160931"><ele>889.6666666666667</ele><time>2026-05-02T14:33:26.992Z</time></trkpt><trkpt lat="42.095625" lon="13.4160066"><ele>888.8333333333334</ele><time>2026-05-02T14:33:27.992Z</time></trkpt><trkpt lat="42.0956373" lon="13.4159111"><ele>888.0</ele><time>2026-05-02T14:33:28.992Z</time></trkpt><trkpt lat="42.0956411" lon="13.4158188"><ele>888.0</ele><time>2026-05-02T14:33:29.992Z</time></trkpt><trkpt lat="42.0956441" lon="13.4157231"><ele>888.0</ele><time>2026-05-02T14:33:30.992Z</time></trkpt><trkpt lat="42.0956529" lon="13.415622"><ele>888.0</ele><time>2026-05-02T14:33:31.992Z</time></trkpt><trkpt lat="42.09567" lon="13.4155323"><ele>888.0</ele><time>2026-05-02T14:33:32.991Z</time></trkpt><trkpt lat="42.0957023" lon="13.415454"><ele>888.0</ele><time>2026-05-02T14:33:33.992Z</time></trkpt><trkpt lat="42.0957522" lon="13.41538"><ele>888.0</ele><time>2026-05-02T14:33:34.992Z</time></trkpt><trkpt lat="42.095815" lon="13.4152972"><ele>888.0</ele><time>2026-05-02T14:33:35.992Z</time></trkpt><trkpt lat="42.0958854" lon="13.4152045"><ele>889.4</ele><time>2026-05-02T14:33:36.992Z</time></trkpt><trkpt lat="42.095955" lon="13.4151056"><ele>890.8</ele><time>2026-05-02T14:33:37.991Z</time></trkpt><trkpt lat="42.096026" lon="13.4150091"><ele>892.2</ele><time>2026-05-02T14:33:38.992Z</time></trkpt><trkpt lat="42.0960996" lon="13.4149278"><ele>893.6</ele><time>2026-05-02T14:33:39.992Z</time></trkpt><trkpt lat="42.0961741" lon="13.4148603"><ele>895.0</ele><time>2026-05-02T14:33:40.992Z</time></trkpt><trkpt lat="42.0962487" lon="13.4147973"><ele>895.0</ele><time>2026-05-02T14:33:41.992Z</time></trkpt><trkpt lat="42.0963302" lon="13.4147409"><ele>895.0</ele><time>2026-05-02T14:33:42.992Z</time></trkpt><trkpt lat="42.0964228" lon="13.4146835"><ele>895.0</ele><time>2026-05-02T14:33:43.992Z</time></trkpt><trkpt lat="42.0965221" lon="13.4146185"><ele>895.0</ele><time>2026-05-02T14:33:44.992Z</time></trkpt><trkpt lat="42.0966244" lon="13.4145517"><ele>895.0</ele><time>2026-05-02T14:33:45.992Z</time></trkpt><trkpt lat="42.0967234" lon="13.4144941"><ele>895.8</ele><time>2026-05-02T14:33:46.992Z</time></trkpt><trkpt lat="42.0968155" lon="13.4144448"><ele>896.6</ele><time>2026-05-02T14:33:47.992Z</time></trkpt><trkpt lat="42.0969055" lon="13.4143968"><ele>897.4000000000001</ele><time>2026-05-02T14:33:48.992Z</time></trkpt><trkpt lat="42.0969984" lon="13.4143559"><ele>898.2</ele><time>2026-05-02T14:33:49.992Z</time></trkpt><trkpt lat="42.0970926" lon="13.4143157"><ele>899.0</ele><time>2026-05-02T14:33:50.992Z</time></trkpt><trkpt lat="42.0971852" lon="13.4142606"><ele>899.0</ele><time>2026-05-02T14:33:51.992Z</time></trkpt><trkpt lat="42.0972697" lon="13.4141747"><ele>899.0000000000001</ele><time>2026-05-02T14:33:52.992Z</time></trkpt><trkpt lat="42.0973464" lon="13.41407"><ele>899.0000000000001</ele><time>2026-05-02T14:33:53.992Z</time></trkpt><trkpt lat="42.0974219" lon="13.4139792"><ele>899.0</ele><time>2026-05-02T14:33:54.992Z</time></trkpt><trkpt lat="42.0975052" lon="13.4139097"><ele>899.0</ele><time>2026-05-02T14:33:55.992Z</time></trkpt><trkpt lat="42.0975959" lon="13.4138555"><ele>898.6</ele><time>2026-05-02T14:33:56.992Z</time></trkpt><trkpt lat="42.0976894" lon="13.4138145"><ele>898.2</ele><time>2026-05-02T14:33:57.992Z</time></trkpt><trkpt lat="42.0977842" lon="13.413783"><ele>897.8000000000001</ele><time>2026-05-02T14:33:58.991Z</time></trkpt><trkpt lat="42.0978758" lon="13.4137559"><ele>897.4000000000001</ele><time>2026-05-02T14:33:59.992Z</time></trkpt><trkpt lat="42.0979649" lon="13.4137262"><ele>897.0</ele><time>2026-05-02T14:34:00.992Z</time></trkpt><trkpt lat="42.0980543" lon="13.4136896"><ele>897.0</ele><time>2026-05-02T14:34:01.992Z</time></trkpt><trkpt lat="42.0981404" lon="13.4136376"><ele>897.0</ele><time>2026-05-02T14:34:02.992Z</time></trkpt><trkpt lat="42.0982239" lon="13.4135738"><ele>897.0</ele><time>2026-05-02T14:34:03.992Z</time></trkpt><trkpt lat="42.0983068" lon="13.4135083"><ele>897.0</ele><time>2026-05-02T14:34:04.991Z</time></trkpt><trkpt lat="42.0983912" lon="13.4134414"><ele>897.0</ele><time>2026-05-02T14:34:05.992Z</time></trkpt><trkpt lat="42.0984747" lon="13.4133738"><ele>897.2</ele><time>2026-05-02T14:34:06.992Z</time></trkpt><trkpt lat="42.0985561" lon="13.413303"><ele>897.4000000000001</ele><time>2026-05-02T14:34:07.992Z</time></trkpt><trkpt lat="42.0986341" lon="13.4132245"><ele>897.5999999999999</ele><time>2026-05-02T14:34:08.992Z</time></trkpt><trkpt lat="42.0987098" lon="13.4131378"><ele>897.8</ele><time>2026-05-02T14:34:09.992Z</time></trkpt><trkpt lat="42.0987829" lon="13.4130463"><ele>898.0</ele><time>2026-05-02T14:34:10.992Z</time></trkpt><trkpt lat="42.0988538" lon="13.4129553"><ele>897.4</ele><time>2026-05-02T14:34:11.992Z</time></trkpt><trkpt lat="42.0989225" lon="13.4128627"><ele>896.8</ele><time>2026-05-02T14:34:12.992Z</time></trkpt><trkpt lat="42.098991" lon="13.4127697"><ele>896.2</ele><time>2026-05-02T14:34:13.992Z</time></trkpt><trkpt lat="42.0990567" lon="13.4126734"><ele>895.6</ele><time>2026-05-02T14:34:14.992Z</time></trkpt><trkpt lat="42.0991176" lon="13.4125716"><ele>895.0</ele><time>2026-05-02T14:34:15.991Z</time></trkpt><trkpt lat="42.0991754" lon="13.4124654"><ele>894.8</ele><time>2026-05-02T14:34:16.992Z</time></trkpt><trkpt lat="42.09923" lon="13.4123552"><ele>894.6</ele><time>2026-05-02T14:34:17.992Z</time></trkpt><trkpt lat="42.0992792" lon="13.4122398"><ele>894.4000000000001</ele><time>2026-05-02T14:34:18.992Z</time></trkpt><trkpt lat="42.0993213" lon="13.4121183"><ele>894.2</ele><time>2026-05-02T14:34:19.992Z</time></trkpt><trkpt lat="42.0993636" lon="13.4119998"><ele>894.0</ele><time>2026-05-02T14:34:20.991Z</time></trkpt><trkpt lat="42.0994177" lon="13.4118945"><ele>893.0</ele><time>2026-05-02T14:34:21.991Z</time></trkpt><trkpt lat="42.0994788" lon="13.4117955"><ele>892.0000000000001</ele><time>2026-05-02T14:34:22.991Z</time></trkpt><trkpt lat="42.0995377" lon="13.4116989"><ele>891.0000000000001</ele><time>2026-05-02T14:34:23.992Z</time></trkpt><trkpt lat="42.0995892" lon="13.4116147"><ele>890.0</ele><time>2026-05-02T14:34:24.992Z</time></trkpt><trkpt lat="42.0996365" lon="13.4115414"><ele>889.0</ele><time>2026-05-02T14:34:25.992Z</time></trkpt><trkpt lat="42.0997254" lon="13.4114398"><ele>888.9999999999999</ele><time>2026-05-02T14:34:27.992Z</time></trkpt><trkpt lat="42.0998409" lon="13.4113935"><ele>889.0</ele><time>2026-05-02T14:34:29.992Z</time></trkpt><trkpt lat="42.099902" lon="13.4113647"><ele>889.0</ele><time>2026-05-02T14:34:30.992Z</time></trkpt><trkpt lat="42.0999615" lon="13.4113097"><ele>889.0</ele><time>2026-05-02T14:34:31.992Z</time></trkpt><trkpt lat="42.1000173" lon="13.4112306"><ele>888.9999999999999</ele><time>2026-05-02T14:34:32.992Z</time></trkpt><trkpt lat="42.1000731" lon="13.4111427"><ele>889.0</ele><time>2026-05-02T14:34:33.992Z</time></trkpt><trkpt lat="42.1001315" lon="13.4110539"><ele>888.2</ele><time>2026-05-02T14:34:34.992Z</time></trkpt><trkpt lat="42.1001905" lon="13.41096"><ele>887.4000000000001</ele><time>2026-05-02T14:34:35.992Z</time></trkpt><trkpt lat="42.1002476" lon="13.4108593"><ele>886.6</ele><time>2026-05-02T14:34:36.992Z</time></trkpt><trkpt lat="42.1003038" lon="13.4107592"><ele>885.8</ele><time>2026-05-02T14:34:37.992Z</time></trkpt><trkpt lat="42.100362" lon="13.4106637"><ele>885.0</ele><time>2026-05-02T14:34:38.992Z</time></trkpt><trkpt lat="42.100423" lon="13.4105696"><ele>884.2</ele><time>2026-05-02T14:34:39.992Z</time></trkpt><trkpt lat="42.1004838" lon="13.4104728"><ele>883.4</ele><time>2026-05-02T14:34:40.992Z</time></trkpt><trkpt lat="42.1005436" lon="13.4103708"><ele>882.5999999999999</ele><time>2026-05-02T14:34:41.992Z</time></trkpt><trkpt lat="42.1006027" lon="13.4102595"><ele>881.8</ele><time>2026-05-02T14:34:42.991Z</time></trkpt><trkpt lat="42.1006575" lon="13.4101408"><ele>881.0</ele><time>2026-05-02T14:34:43.992Z</time></trkpt><trkpt lat="42.1007058" lon="13.4100139"><ele>880.8</ele><time>2026-05-02T14:34:44.991Z</time></trkpt><trkpt lat="42.1007516" lon="13.409885"><ele>880.5999999999999</ele><time>2026-05-02T14:34:45.992Z</time></trkpt><trkpt lat="42.1007984" lon="13.409755"><ele>880.4</ele><time>2026-05-02T14:34:46.992Z</time></trkpt><trkpt lat="42.1008452" lon="13.409624"><ele>880.2</ele><time>2026-05-02T14:34:47.992Z</time></trkpt><trkpt lat="42.1008889" lon="13.40949"><ele>880.0</ele><time>2026-05-02T14:34:48.992Z</time></trkpt><trkpt lat="42.1009347" lon="13.4093533"><ele>878.75</ele><time>2026-05-02T14:34:49.992Z</time></trkpt><trkpt lat="42.1009867" lon="13.4092154"><ele>877.5</ele><time>2026-05-02T14:34:50.992Z</time></trkpt><trkpt lat="42.10104" lon="13.409078"><ele>876.25</ele><time>2026-05-02T14:34:51.992Z</time></trkpt><trkpt lat="42.1010926" lon="13.4089425"><ele>875.0</ele><time>2026-05-02T14:34:52.992Z</time></trkpt><trkpt lat="42.1011476" lon="13.4088094"><ele>874.0</ele><time>2026-05-02T14:34:53.991Z</time></trkpt><trkpt lat="42.1012011" lon="13.4086777"><ele>873.0</ele><time>2026-05-02T14:34:54.992Z</time></trkpt><trkpt lat="42.1012482" lon="13.4085416"><ele>872.0</ele><time>2026-05-02T14:34:55.992Z</time></trkpt><trkpt lat="42.1012925" lon="13.4084045"><ele>871.0</ele><time>2026-05-02T14:34:56.992Z</time></trkpt><trkpt lat="42.1013345" lon="13.4082681"><ele>870.0</ele><time>2026-05-02T14:34:57.992Z</time></trkpt><trkpt lat="42.1013725" lon="13.4081301"><ele>869.6</ele><time>2026-05-02T14:34:58.992Z</time></trkpt><trkpt lat="42.1014034" lon="13.407991"><ele>869.2</ele><time>2026-05-02T14:34:59.992Z</time></trkpt><trkpt lat="42.1014268" lon="13.4078506"><ele>868.8</ele><time>2026-05-02T14:35:00.991Z</time></trkpt><trkpt lat="42.1014584" lon="13.4077225"><ele>868.4</ele><time>2026-05-02T14:35:01.992Z</time></trkpt><trkpt lat="42.1015019" lon="13.4076123"><ele>868.0</ele><time>2026-05-02T14:35:02.992Z</time></trkpt><trkpt lat="42.1015454" lon="13.4075078"><ele>867.6666666666666</ele><time>2026-05-02T14:35:03.992Z</time></trkpt><trkpt lat="42.101588" lon="13.4074047"><ele>867.3333333333333</ele><time>2026-05-02T14:35:04.991Z</time></trkpt><trkpt lat="42.1016292" lon="13.4073043"><ele>867.0</ele><time>2026-05-02T14:35:05.992Z</time></trkpt><trkpt lat="42.1016705" lon="13.407207"><ele>866.6666666666667</ele><time>2026-05-02T14:35:06.992Z</time></trkpt><trkpt lat="42.1017108" lon="13.4071113"><ele>866.3333333333334</ele><time>2026-05-02T14:35:07.992Z</time></trkpt><trkpt lat="42.1017489" lon="13.4070183"><ele>866.0</ele><time>2026-05-02T14:35:08.992Z</time></trkpt><trkpt lat="42.101786" lon="13.4069259"><ele>865.0000000000001</ele><time>2026-05-02T14:35:09.992Z</time></trkpt><trkpt lat="42.1018226" lon="13.4068368"><ele>864.0</ele><time>2026-05-02T14:35:10.992Z</time></trkpt><trkpt lat="42.1018633" lon="13.4067524"><ele>863.0</ele><time>2026-05-02T14:35:11.992Z</time></trkpt><trkpt lat="42.1019125" lon="13.4066746"><ele>862.0</ele><time>2026-05-02T14:35:12.992Z</time></trkpt><trkpt lat="42.1019744" lon="13.4066051"><ele>861.0000000000001</ele><time>2026-05-02T14:35:13.992Z</time></trkpt><trkpt lat="42.1020473" lon="13.406535"><ele>860.0</ele><time>2026-05-02T14:35:14.991Z</time></trkpt><trkpt lat="42.1021279" lon="13.4064605"><ele>860.0000000000001</ele><time>2026-05-02T14:35:15.992Z</time></trkpt><trkpt lat="42.1022066" lon="13.4063889"><ele>860.0</ele><time>2026-05-02T14:35:16.992Z</time></trkpt><trkpt lat="42.1022786" lon="13.4063213"><ele>860.0</ele><time>2026-05-02T14:35:17.992Z</time></trkpt><trkpt lat="42.1023421" lon="13.406249"><ele>860.0</ele><time>2026-05-02T14:35:18.992Z</time></trkpt><trkpt lat="42.102393" lon="13.4061698"><ele>860.0000000000001</ele><time>2026-05-02T14:35:19.992Z</time></trkpt><trkpt lat="42.1024344" lon="13.4060928"><ele>860.0</ele><time>2026-05-02T14:35:20.992Z</time></trkpt><trkpt lat="42.1024896" lon="13.4059904"><ele>858.8</ele><time>2026-05-02T14:35:22.992Z</time></trkpt><trkpt lat="42.1025402" lon="13.405887"><ele>857.6</ele><time>2026-05-02T14:35:25.992Z</time></trkpt><trkpt lat="42.1025931" lon="13.4057896"><ele>856.4000000000001</ele><time>2026-05-02T14:35:28.991Z</time></trkpt><trkpt lat="42.1026189" lon="13.4056649"><ele>855.2</ele><time>2026-05-02T14:35:30.992Z</time></trkpt><trkpt lat="42.1026519" lon="13.4055033"><ele>854.0</ele><time>2026-05-02T14:35:32.992Z</time></trkpt><trkpt lat="42.1026776" lon="13.4054091"><ele>853.5000000000001</ele><time>2026-05-02T14:35:33.992Z</time></trkpt><trkpt lat="42.1027088" lon="13.4053101"><ele>853.0</ele><time>2026-05-02T14:35:34.992Z</time></trkpt><trkpt lat="42.1027456" lon="13.4052097"><ele>852.5</ele><time>2026-05-02T14:35:35.991Z</time></trkpt><trkpt lat="42.1027853" lon="13.4051067"><ele>852.0</ele><time>2026-05-02T14:35:36.992Z</time></trkpt><trkpt lat="42.102827" lon="13.4049991"><ele>851.5000000000001</ele><time>2026-05-02T14:35:37.992Z</time></trkpt><trkpt lat="42.1028674" lon="13.4048853"><ele>851.0</ele><time>2026-05-02T14:35:38.991Z</time></trkpt><trkpt lat="42.1029055" lon="13.4047667"><ele>850.4</ele><time>2026-05-02T14:35:39.992Z</time></trkpt><trkpt lat="42.1029411" lon="13.4046477"><ele>849.8</ele><time>2026-05-02T14:35:40.991Z</time></trkpt><trkpt lat="42.1029755" lon="13.404525"><ele>849.1999999999999</ele><time>2026-05-02T14:35:41.991Z</time></trkpt><trkpt lat="42.1030122" lon="13.4044011"><ele>848.5999999999999</ele><time>2026-05-02T14:35:42.992Z</time></trkpt><trkpt lat="42.1030552" lon="13.4042797"><ele>848.0</ele><time>2026-05-02T14:35:43.992Z</time></trkpt><trkpt lat="42.1031007" lon="13.4041564"><ele>848.0</ele><time>2026-05-02T14:35:44.992Z</time></trkpt><trkpt lat="42.1031472" lon="13.4040305"><ele>848.0</ele><time>2026-05-02T14:35:45.992Z</time></trkpt><trkpt lat="42.1031947" lon="13.4039099"><ele>848.0</ele><time>2026-05-02T14:35:46.992Z</time></trkpt><trkpt lat="42.1032446" lon="13.4037952"><ele>848.0</ele><time>2026-05-02T14:35:47.992Z</time></trkpt><trkpt lat="42.1032966" lon="13.4036846"><ele>848.0</ele><time>2026-05-02T14:35:48.992Z</time></trkpt><trkpt lat="42.1033459" lon="13.4035747"><ele>847.2</ele><time>2026-05-02T14:35:49.992Z</time></trkpt><trkpt lat="42.103396" lon="13.4034635"><ele>846.4</ele><time>2026-05-02T14:35:50.992Z</time></trkpt><trkpt lat="42.1034512" lon="13.4033511"><ele>845.6</ele><time>2026-05-02T14:35:51.992Z</time></trkpt><trkpt lat="42.1035082" lon="13.4032362"><ele>844.8000000000001</ele><time>2026-05-02T14:35:52.991Z</time></trkpt><trkpt lat="42.1035631" lon="13.4031195"><ele>844.0</ele><time>2026-05-02T14:35:53.992Z</time></trkpt><trkpt lat="42.1036207" lon="13.4030046"><ele>843.2</ele><time>2026-05-02T14:35:54.992Z</time></trkpt><trkpt lat="42.1036764" lon="13.4028926"><ele>842.4000000000001</ele><time>2026-05-02T14:35:55.992Z</time></trkpt><trkpt lat="42.1037316" lon="13.4027839"><ele>841.6</ele><time>2026-05-02T14:35:56.992Z</time></trkpt><trkpt lat="42.1037871" lon="13.4026778"><ele>840.8</ele><time>2026-05-02T14:35:57.992Z</time></trkpt><trkpt lat="42.1038484" lon="13.4025695"><ele>840.0</ele><time>2026-05-02T14:35:58.992Z</time></trkpt><trkpt lat="42.1039166" lon="13.4024649"><ele>840.0</ele><time>2026-05-02T14:35:59.992Z</time></trkpt><trkpt lat="42.103992" lon="13.4023637"><ele>840.0</ele><time>2026-05-02T14:36:00.992Z</time></trkpt><trkpt lat="42.104075" lon="13.4022621"><ele>840.0</ele><time>2026-05-02T14:36:01.992Z</time></trkpt><trkpt lat="42.1041548" lon="13.4021618"><ele>840.0</ele><time>2026-05-02T14:36:02.992Z</time></trkpt><trkpt lat="42.1042285" lon="13.4020573"><ele>840.0</ele><time>2026-05-02T14:36:03.992Z</time></trkpt><trkpt lat="42.1043012" lon="13.4019437"><ele>839.8</ele><time>2026-05-02T14:36:04.992Z</time></trkpt><trkpt lat="42.1043537" lon="13.4018305"><ele>839.6</ele><time>2026-05-02T14:36:05.992Z</time></trkpt><trkpt lat="42.1044146" lon="13.4017169"><ele>839.4000000000001</ele><time>2026-05-02T14:36:06.992Z</time></trkpt><trkpt lat="42.1044737" lon="13.401605"><ele>839.2</ele><time>2026-05-02T14:36:07.992Z</time></trkpt><trkpt lat="42.1045345" lon="13.4014951"><ele>839.0</ele><time>2026-05-02T14:36:08.992Z</time></trkpt><trkpt lat="42.1045966" lon="13.4013787"><ele>838.8000000000001</ele><time>2026-05-02T14:36:09.992Z</time></trkpt><trkpt lat="42.1046644" lon="13.4012636"><ele>838.6</ele><time>2026-05-02T14:36:10.992Z</time></trkpt><trkpt lat="42.104731" lon="13.4011522"><ele>838.4</ele><time>2026-05-02T14:36:11.992Z</time></trkpt><trkpt lat="42.1047943" lon="13.4010422"><ele>838.2</ele><time>2026-05-02T14:36:12.992Z</time></trkpt><trkpt lat="42.1048548" lon="13.4009286"><ele>838.0</ele><time>2026-05-02T14:36:13.992Z</time></trkpt><trkpt lat="42.1049148" lon="13.4008144"><ele>838.0</ele><time>2026-05-02T14:36:14.992Z</time></trkpt><trkpt lat="42.1049739" lon="13.4007033"><ele>838.0</ele><time>2026-05-02T14:36:15.992Z</time></trkpt><trkpt lat="42.1050291" lon="13.4005938"><ele>838.0</ele><time>2026-05-02T14:36:16.992Z</time></trkpt><trkpt lat="42.1050849" lon="13.4004761"><ele>838.0</ele><time>2026-05-02T14:36:17.991Z</time></trkpt><trkpt lat="42.1051443" lon="13.4003605"><ele>838.0</ele><time>2026-05-02T14:36:18.992Z</time></trkpt><trkpt lat="42.1052055" lon="13.4002527"><ele>837.2</ele><time>2026-05-02T14:36:19.992Z</time></trkpt><trkpt lat="42.1052722" lon="13.400149"><ele>836.4</ele><time>2026-05-02T14:36:20.992Z</time></trkpt><trkpt lat="42.1053372" lon="13.4000448"><ele>835.6</ele><time>2026-05-02T14:36:21.992Z</time></trkpt><trkpt lat="42.1054005" lon="13.3999207"><ele>834.8000000000001</ele><time>2026-05-02T14:36:22.992Z</time></trkpt><trkpt lat="42.1054542" lon="13.3997858"><ele>834.0</ele><time>2026-05-02T14:36:23.992Z</time></trkpt><trkpt lat="42.1055062" lon="13.3996533"><ele>833.8000000000001</ele><time>2026-05-02T14:36:24.991Z</time></trkpt><trkpt lat="42.1055552" lon="13.3995314"><ele>833.6</ele><time>2026-05-02T14:36:25.992Z</time></trkpt><trkpt lat="42.1055984" lon="13.3994124"><ele>833.4</ele><time>2026-05-02T14:36:26.992Z</time></trkpt><trkpt lat="42.1056267" lon="13.3992813"><ele>833.2</ele><time>2026-05-02T14:36:27.992Z</time></trkpt><trkpt lat="42.105635" lon="13.3991434"><ele>833.0</ele><time>2026-05-02T14:36:28.992Z</time></trkpt><trkpt lat="42.1056327" lon="13.3990124"><ele>833.0000000000001</ele><time>2026-05-02T14:36:29.992Z</time></trkpt><trkpt lat="42.1056352" lon="13.3988916"><ele>833.0</ele><time>2026-05-02T14:36:30.992Z</time></trkpt><trkpt lat="42.1056559" lon="13.3987882"><ele>833.0</ele><time>2026-05-02T14:36:31.991Z</time></trkpt><trkpt lat="42.1056943" lon="13.3986953"><ele>833.0</ele><time>2026-05-02T14:36:32.992Z</time></trkpt><trkpt lat="42.1057418" lon="13.3986045"><ele>833.0000000000001</ele><time>2026-05-02T14:36:33.992Z</time></trkpt><trkpt lat="42.1058063" lon="13.3985217"><ele>833.0</ele><time>2026-05-02T14:36:34.991Z</time></trkpt><trkpt lat="42.1058861" lon="13.3984526"><ele>833.0</ele><time>2026-05-02T14:36:35.992Z</time></trkpt><trkpt lat="42.1059738" lon="13.3983889"><ele>833.0</ele><time>2026-05-02T14:36:36.992Z</time></trkpt><trkpt lat="42.1060667" lon="13.3983218"><ele>833.0</ele><time>2026-05-02T14:36:37.992Z</time></trkpt><trkpt lat="42.1061635" lon="13.3982472"><ele>833.0</ele><time>2026-05-02T14:36:38.992Z</time></trkpt><trkpt lat="42.1062642" lon="13.3981713"><ele>833.0</ele><time>2026-05-02T14:36:39.992Z</time></trkpt><trkpt lat="42.1063706" lon="13.3981003"><ele>833.0</ele><time>2026-05-02T14:36:40.992Z</time></trkpt><trkpt lat="42.1064782" lon="13.3980296"><ele>833.0</ele><time>2026-05-02T14:36:41.992Z</time></trkpt><trkpt lat="42.1065806" lon="13.3979428"><ele>833.0</ele><time>2026-05-02T14:36:42.992Z</time></trkpt><trkpt lat="42.1066732" lon="13.3978349"><ele>833.0</ele><time>2026-05-02T14:36:43.992Z</time></trkpt><trkpt lat="42.1067556" lon="13.3977116"><ele>834.0</ele><time>2026-05-02T14:36:44.992Z</time></trkpt><trkpt lat="42.1068354" lon="13.3975849"><ele>835.0</ele><time>2026-05-02T14:36:45.992Z</time></trkpt><trkpt lat="42.1069124" lon="13.3974577"><ele>836.0</ele><time>2026-05-02T14:36:46.992Z</time></trkpt><trkpt lat="42.1069846" lon="13.3973381"><ele>837.0</ele><time>2026-05-02T14:36:47.992Z</time></trkpt><trkpt lat="42.1070499" lon="13.3972254"><ele>837.3333333333334</ele><time>2026-05-02T14:36:48.991Z</time></trkpt><trkpt lat="42.1071023" lon="13.3971214"><ele>837.6666666666667</ele><time>2026-05-02T14:36:49.992Z</time></trkpt><trkpt lat="42.1071485" lon="13.3970232"><ele>838.0</ele><time>2026-05-02T14:36:50.992Z</time></trkpt><trkpt lat="42.107183" lon="13.3969372"><ele>838.3333333333334</ele><time>2026-05-02T14:36:51.992Z</time></trkpt><trkpt lat="42.1072004" lon="13.3968555"><ele>838.6666666666667</ele><time>2026-05-02T14:36:52.992Z</time></trkpt><trkpt lat="42.1071709" lon="13.3967192"><ele>839.0</ele><time>2026-05-02T14:36:54.992Z</time></trkpt><trkpt lat="42.1071321" lon="13.3966515"><ele>839.0000000000001</ele><time>2026-05-02T14:36:55.992Z</time></trkpt><trkpt lat="42.1070905" lon="13.3965691"><ele>839.0</ele><time>2026-05-02T14:36:56.992Z</time></trkpt><trkpt lat="42.1070538" lon="13.3964694"><ele>839.0</ele><time>2026-05-02T14:36:57.992Z</time></trkpt><trkpt lat="42.1070132" lon="13.3963583"><ele>839.0</ele><time>2026-05-02T14:36:58.992Z</time></trkpt><trkpt lat="42.1069661" lon="13.3962482"><ele>839.0000000000001</ele><time>2026-05-02T14:36:59.992Z</time></trkpt><trkpt lat="42.1069151" lon="13.3961377"><ele>839.0</ele><time>2026-05-02T14:37:00.992Z</time></trkpt><trkpt lat="42.1068624" lon="13.3960215"><ele>839.6</ele><time>2026-05-02T14:37:01.991Z</time></trkpt><trkpt lat="42.1068072" lon="13.3959002"><ele>840.2</ele><time>2026-05-02T14:37:02.992Z</time></trkpt><trkpt lat="42.1067489" lon="13.3957762"><ele>840.8000000000001</ele><time>2026-05-02T14:37:03.992Z</time></trkpt><trkpt lat="42.1066871" lon="13.3956451"><ele>841.4000000000001</ele><time>2026-05-02T14:37:04.992Z</time></trkpt><trkpt lat="42.1066219" lon="13.3955098"><ele>842.0</ele><time>2026-05-02T14:37:05.992Z</time></trkpt><trkpt lat="42.106556" lon="13.3953664"><ele>842.0</ele><time>2026-05-02T14:37:06.992Z</time></trkpt><trkpt lat="42.10649" lon="13.3952217"><ele>842.0</ele><time>2026-05-02T14:37:07.992Z</time></trkpt><trkpt lat="42.1064244" lon="13.3950737"><ele>842.0</ele><time>2026-05-02T14:37:08.992Z</time></trkpt><trkpt lat="42.1063606" lon="13.3949322"><ele>842.0</ele><time>2026-05-02T14:37:09.992Z</time></trkpt><trkpt lat="42.106309" lon="13.3948176"><ele>842.0000000000001</ele><time>2026-05-02T14:37:10.992Z</time></trkpt><trkpt lat="42.106264" lon="13.3947151"><ele>842.0</ele><time>2026-05-02T14:37:11.992Z</time></trkpt><trkpt lat="42.1062208" lon="13.3946223"><ele>842.0</ele><time>2026-05-02T14:37:12.992Z</time></trkpt><trkpt lat="42.1061823" lon="13.3945388"><ele>842.0</ele><time>2026-05-02T14:37:13.992Z</time></trkpt><trkpt lat="42.1061467" lon="13.3944624"><ele>842.0000000000001</ele><time>2026-05-02T14:37:14.991Z</time></trkpt><trkpt lat="42.1060998" lon="13.3943557"><ele>842.0</ele><time>2026-05-02T14:37:16.992Z</time></trkpt><trkpt lat="42.1060233" lon="13.3942631"><ele>842.1666666666667</ele><time>2026-05-02T14:37:19.992Z</time></trkpt><trkpt lat="42.1059648" lon="13.3942214"><ele>842.3333333333334</ele><time>2026-05-02T14:37:20.992Z</time></trkpt><trkpt lat="42.1058881" lon="13.3941796"><ele>842.5</ele><time>2026-05-02T14:37:21.992Z</time></trkpt><trkpt lat="42.105817" lon="13.3941406"><ele>842.6666666666667</ele><time>2026-05-02T14:37:22.991Z</time></trkpt><trkpt lat="42.1057546" lon="13.3941079"><ele>842.8333333333334</ele><time>2026-05-02T14:37:23.992Z</time></trkpt><trkpt lat="42.1056492" lon="13.3940409"><ele>843.0</ele><time>2026-05-02T14:37:25.992Z</time></trkpt><trkpt lat="42.1055921" lon="13.3940039"><ele>841.5</ele><time>2026-05-02T14:37:26.992Z</time></trkpt><trkpt lat="42.1055193" lon="13.3939798"><ele>840.0</ele><time>2026-05-02T14:37:27.992Z</time></trkpt><trkpt lat="42.1054343" lon="13.3939773"><ele>838.5</ele><time>2026-05-02T14:37:28.992Z</time></trkpt><trkpt lat="42.1053507" lon="13.3939998"><ele>837.0</ele><time>2026-05-02T14:37:29.992Z</time></trkpt><trkpt lat="42.1052778" lon="13.3940411"><ele>835.5</ele><time>2026-05-02T14:37:30.992Z</time></trkpt><trkpt lat="42.1052112" lon="13.3940988"><ele>834.0</ele><time>2026-05-02T14:37:31.992Z</time></trkpt><trkpt lat="42.1051543" lon="13.3941624"><ele>834.0</ele><time>2026-05-02T14:37:32.992Z</time></trkpt><trkpt lat="42.1051089" lon="13.3942242"><ele>834.0</ele><time>2026-05-02T14:37:33.992Z</time></trkpt><trkpt lat="42.1050288" lon="13.3943059"><ele>834.0</ele><time>2026-05-02T14:37:35.992Z</time></trkpt><trkpt lat="42.1049631" lon="13.3942597"><ele>834.0</ele><time>2026-05-02T14:37:37.992Z</time></trkpt><trkpt lat="42.1049419" lon="13.3941081"><ele>834.0</ele><time>2026-05-02T14:37:39.992Z</time></trkpt><trkpt lat="42.1049568" lon="13.3939874"><ele>834.0</ele><time>2026-05-02T14:37:40.992Z</time></trkpt><trkpt lat="42.1049831" lon="13.3938484"><ele>833.0</ele><time>2026-05-02T14:37:41.992Z</time></trkpt><trkpt lat="42.1050148" lon="13.3936755"><ele>832.0</ele><time>2026-05-02T14:37:42.991Z</time></trkpt><trkpt lat="42.1050536" lon="13.3935033"><ele>831.0</ele><time>2026-05-02T14:37:43.992Z</time></trkpt><trkpt lat="42.1051054" lon="13.3933344"><ele>830.0</ele><time>2026-05-02T14:37:44.992Z</time></trkpt><trkpt lat="42.1051609" lon="13.3931666"><ele>828.25</ele><time>2026-05-02T14:37:45.992Z</time></trkpt><trkpt lat="42.105195" lon="13.3929974"><ele>826.5</ele><time>2026-05-02T14:37:46.992Z</time></trkpt><trkpt lat="42.1052132" lon="13.3928354"><ele>824.75</ele><time>2026-05-02T14:37:47.992Z</time></trkpt><trkpt lat="42.105209" lon="13.3926789"><ele>823.0</ele><time>2026-05-02T14:37:48.991Z</time></trkpt><trkpt lat="42.1051833" lon="13.3925202"><ele>823.0</ele><time>2026-05-02T14:37:49.991Z</time></trkpt><trkpt lat="42.1051362" lon="13.3923607"><ele>823.0</ele><time>2026-05-02T14:37:50.991Z</time></trkpt><trkpt lat="42.1050754" lon="13.3922044"><ele>823.0</ele><time>2026-05-02T14:37:51.992Z</time></trkpt><trkpt lat="42.1050136" lon="13.3920474"><ele>823.0</ele><time>2026-05-02T14:37:52.992Z</time></trkpt><trkpt lat="42.1049535" lon="13.3918953"><ele>822.75</ele><time>2026-05-02T14:37:53.991Z</time></trkpt><trkpt lat="42.1048984" lon="13.3917427"><ele>822.5</ele><time>2026-05-02T14:37:54.992Z</time></trkpt><trkpt lat="42.1048468" lon="13.3915942"><ele>822.25</ele><time>2026-05-02T14:37:55.992Z</time></trkpt><trkpt lat="42.1047998" lon="13.391435"><ele>822.0</ele><time>2026-05-02T14:37:56.992Z</time></trkpt><trkpt lat="42.1047558" lon="13.3912732"><ele>823.5</ele><time>2026-05-02T14:37:57.992Z</time></trkpt><trkpt lat="42.1047152" lon="13.3911087"><ele>825.0</ele><time>2026-05-02T14:37:58.992Z</time></trkpt><trkpt lat="42.1046748" lon="13.3909406"><ele>826.5</ele><time>2026-05-02T14:37:59.992Z</time></trkpt><trkpt lat="42.1046325" lon="13.3907705"><ele>828.0</ele><time>2026-05-02T14:38:00.992Z</time></trkpt><trkpt lat="42.1045896" lon="13.3906007"><ele>828.5999999999999</ele><time>2026-05-02T14:38:01.992Z</time></trkpt><trkpt lat="42.1045494" lon="13.3904406"><ele>829.1999999999999</ele><time>2026-05-02T14:38:02.992Z</time></trkpt><trkpt lat="42.1045128" lon="13.3902916"><ele>829.8</ele><time>2026-05-02T14:38:03.992Z</time></trkpt><trkpt lat="42.1044837" lon="13.3901588"><ele>830.4</ele><time>2026-05-02T14:38:04.992Z</time></trkpt><trkpt lat="42.1044601" lon="13.3900425"><ele>831.0</ele><time>2026-05-02T14:38:05.992Z</time></trkpt><trkpt lat="42.1044428" lon="13.3899474"><ele>831.0</ele><time>2026-05-02T14:38:06.992Z</time></trkpt><trkpt lat="42.104442" lon="13.3898178"><ele>831.0</ele><time>2026-05-02T14:38:08.992Z</time></trkpt><trkpt lat="42.1044464" lon="13.3897292"><ele>831.0</ele><time>2026-05-02T14:38:10.992Z</time></trkpt><trkpt lat="42.1044028" lon="13.3896473"><ele>831.0</ele><time>2026-05-02T14:38:12.992Z</time></trkpt><trkpt lat="42.1043198" lon="13.3896055"><ele>831.0</ele><time>2026-05-02T14:38:14.992Z</time></trkpt><trkpt lat="42.1042051" lon="13.3895626"><ele>831.0</ele><time>2026-05-02T14:38:16.992Z</time></trkpt><trkpt lat="42.1041359" lon="13.389556"><ele>830.5999999999999</ele><time>2026-05-02T14:38:17.992Z</time></trkpt><trkpt lat="42.1040594" lon="13.3895342"><ele>830.2</ele><time>2026-05-02T14:38:18.992Z</time></trkpt><trkpt lat="42.1039382" lon="13.3895037"><ele>829.8</ele><time>2026-05-02T14:38:20.991Z</time></trkpt><trkpt lat="42.1038615" lon="13.3894973"><ele>829.4000000000001</ele><time>2026-05-02T14:38:21.992Z</time></trkpt><trkpt lat="42.1037972" lon="13.3894928"><ele>829.0</ele><time>2026-05-02T14:38:22.992Z</time></trkpt><trkpt lat="42.1036841" lon="13.3894793"><ele>829.0</ele><time>2026-05-02T14:38:24.992Z</time></trkpt><trkpt lat="42.1035881" lon="13.3893741"><ele>829.0</ele><time>2026-05-02T14:38:26.992Z</time></trkpt><trkpt lat="42.1035388" lon="13.3892956"><ele>829.0</ele><time>2026-05-02T14:38:27.992Z</time></trkpt><trkpt lat="42.1034952" lon="13.3891954"><ele>829.0</ele><time>2026-05-02T14:38:28.991Z</time></trkpt><trkpt lat="42.1034556" lon="13.3890812"><ele>829.0</ele><time>2026-05-02T14:38:29.992Z</time></trkpt><trkpt lat="42.1034167" lon="13.3889627"><ele>828.9999999999999</ele><time>2026-05-02T14:38:30.992Z</time></trkpt><trkpt lat="42.1033764" lon="13.3888437"><ele>829.0</ele><time>2026-05-02T14:38:31.992Z</time></trkpt><trkpt lat="42.1033361" lon="13.3887364"><ele>829.0</ele><time>2026-05-02T14:38:32.992Z</time></trkpt><trkpt lat="42.1032909" lon="13.3886365"><ele>829.0</ele><time>2026-05-02T14:38:33.992Z</time></trkpt><trkpt lat="42.1032443" lon="13.3885388"><ele>828.9999999999999</ele><time>2026-05-02T14:38:34.992Z</time></trkpt><trkpt lat="42.103204" lon="13.3884485"><ele>829.0</ele><time>2026-05-02T14:38:35.992Z</time></trkpt><trkpt lat="42.1031652" lon="13.3883678"><ele>828.2</ele><time>2026-05-02T14:38:36.992Z</time></trkpt><trkpt lat="42.1031277" lon="13.3882329"><ele>827.4000000000001</ele><time>2026-05-02T14:38:38.992Z</time></trkpt><trkpt lat="42.1031425" lon="13.3881047"><ele>826.6</ele><time>2026-05-02T14:38:40.991Z</time></trkpt><trkpt lat="42.1031929" lon="13.387963"><ele>825.8</ele><time>2026-05-02T14:38:42.992Z</time></trkpt><trkpt lat="42.1031867" lon="13.3877919"><ele>825.0</ele><time>2026-05-02T14:38:44.991Z</time></trkpt><trkpt lat="42.103139" lon="13.3877075"><ele>825.0</ele><time>2026-05-02T14:38:45.991Z</time></trkpt><trkpt lat="42.1031024" lon="13.3876059"><ele>825.0</ele><time>2026-05-02T14:38:46.992Z</time></trkpt><trkpt lat="42.1030706" lon="13.387517"><ele>825.0</ele><time>2026-05-02T14:38:47.992Z</time></trkpt><trkpt lat="42.1030433" lon="13.3874364"><ele>825.0</ele><time>2026-05-02T14:38:48.992Z</time></trkpt><trkpt lat="42.103016" lon="13.3873532"><ele>825.0</ele><time>2026-05-02T14:38:49.992Z</time></trkpt><trkpt lat="42.1029854" lon="13.3872751"><ele>825.0</ele><time>2026-05-02T14:38:50.992Z</time></trkpt><trkpt lat="42.1029361" lon="13.3871345"><ele>825.0</ele><time>2026-05-02T14:38:52.992Z</time></trkpt><trkpt lat="42.1029484" lon="13.3870111"><ele>825.0</ele><time>2026-05-02T14:38:54.992Z</time></trkpt><trkpt lat="42.102977" lon="13.3868864"><ele>825.0</ele><time>2026-05-02T14:38:56.992Z</time></trkpt><trkpt lat="42.1029697" lon="13.3867463"><ele>825.0</ele><time>2026-05-02T14:38:58.992Z</time></trkpt><trkpt lat="42.1029061" lon="13.3865893"><ele>825.0</ele><time>2026-05-02T14:39:00.991Z</time></trkpt><trkpt lat="42.1028591" lon="13.3864995"><ele>825.0</ele><time>2026-05-02T14:39:01.991Z</time></trkpt><trkpt lat="42.1028208" lon="13.3864063"><ele>825.0</ele><time>2026-05-02T14:39:02.991Z</time></trkpt><trkpt lat="42.1027812" lon="13.3863106"><ele>825.0</ele><time>2026-05-02T14:39:03.992Z</time></trkpt><trkpt lat="42.102738" lon="13.3862189"><ele>825.0</ele><time>2026-05-02T14:39:04.992Z</time></trkpt><trkpt lat="42.1026919" lon="13.3861308"><ele>825.0</ele><time>2026-05-02T14:39:05.992Z</time></trkpt><trkpt lat="42.102646" lon="13.3860408"><ele>825.0</ele><time>2026-05-02T14:39:06.992Z</time></trkpt><trkpt lat="42.1025952" lon="13.3859581"><ele>825.1666666666666</ele><time>2026-05-02T14:39:07.992Z</time></trkpt><trkpt lat="42.1025505" lon="13.3858706"><ele>825.3333333333333</ele><time>2026-05-02T14:39:08.992Z</time></trkpt><trkpt lat="42.1025018" lon="13.385784"><ele>825.5</ele><time>2026-05-02T14:39:09.992Z</time></trkpt><trkpt lat="42.1024564" lon="13.3857048"><ele>825.6666666666666</ele><time>2026-05-02T14:39:10.992Z</time></trkpt><trkpt lat="42.1023885" lon="13.3855838"><ele>825.8333333333333</ele><time>2026-05-02T14:39:12.992Z</time></trkpt><trkpt lat="42.1023292" lon="13.3854978"><ele>826.0</ele><time>2026-05-02T14:39:14.991Z</time></trkpt><trkpt lat="42.1023042" lon="13.3854124"><ele>826.3333333333333</ele><time>2026-05-02T14:39:16.992Z</time></trkpt><trkpt lat="42.1023076" lon="13.3853137"><ele>826.6666666666666</ele><time>2026-05-02T14:39:18.992Z</time></trkpt><trkpt lat="42.1023534" lon="13.3851952"><ele>827.0</ele><time>2026-05-02T14:39:20.992Z</time></trkpt><trkpt lat="42.1024375" lon="13.3850902"><ele>827.3333333333333</ele><time>2026-05-02T14:39:22.992Z</time></trkpt><trkpt lat="42.1024841" lon="13.3850286"><ele>827.6666666666666</ele><time>2026-05-02T14:39:23.992Z</time></trkpt><trkpt lat="42.1025285" lon="13.3849611"><ele>828.0</ele><time>2026-05-02T14:39:24.992Z</time></trkpt><trkpt lat="42.1025785" lon="13.384893"><ele>828.0</ele><time>2026-05-02T14:39:25.992Z</time></trkpt><trkpt lat="42.1026331" lon="13.3848278"><ele>828.0</ele><time>2026-05-02T14:39:26.992Z</time></trkpt><trkpt lat="42.1026926" lon="13.3847696"><ele>828.0</ele><time>2026-05-02T14:39:27.992Z</time></trkpt><trkpt lat="42.1027569" lon="13.3847239"><ele>828.0</ele><time>2026-05-02T14:39:28.992Z</time></trkpt><trkpt lat="42.102816" lon="13.3846908"><ele>828.0</ele><time>2026-05-02T14:39:29.992Z</time></trkpt><trkpt lat="42.1029136" lon="13.3845941"><ele>828.0</ele><time>2026-05-02T14:39:31.992Z</time></trkpt><trkpt lat="42.1029676" lon="13.3845219"><ele>828.1666666666666</ele><time>2026-05-02T14:39:32.992Z</time></trkpt><trkpt lat="42.1030286" lon="13.3844454"><ele>828.3333333333333</ele><time>2026-05-02T14:39:33.992Z</time></trkpt><trkpt lat="42.1030916" lon="13.3843614"><ele>828.5</ele><time>2026-05-02T14:39:34.992Z</time></trkpt><trkpt lat="42.1031531" lon="13.3842765"><ele>828.6666666666666</ele><time>2026-05-02T14:39:35.992Z</time></trkpt><trkpt lat="42.1032114" lon="13.3841844"><ele>828.8333333333333</ele><time>2026-05-02T14:39:36.992Z</time></trkpt><trkpt lat="42.1032711" lon="13.3840887"><ele>829.0</ele><time>2026-05-02T14:39:37.992Z</time></trkpt><trkpt lat="42.1033243" lon="13.3839863"><ele>829.9999999999999</ele><time>2026-05-02T14:39:38.992Z</time></trkpt><trkpt lat="42.1033751" lon="13.3838793"><ele>831.0</ele><time>2026-05-02T14:39:39.992Z</time></trkpt><trkpt lat="42.1034257" lon="13.3837874"><ele>832.0</ele><time>2026-05-02T14:39:40.992Z</time></trkpt><trkpt lat="42.10348" lon="13.3837123"><ele>833.0</ele><time>2026-05-02T14:39:41.992Z</time></trkpt><trkpt lat="42.1035418" lon="13.3836473"><ele>833.9999999999999</ele><time>2026-05-02T14:39:42.992Z</time></trkpt><trkpt lat="42.1036165" lon="13.3835792"><ele>835.0</ele><time>2026-05-02T14:39:43.992Z</time></trkpt><trkpt lat="42.1036912" lon="13.3835066"><ele>834.9999999999999</ele><time>2026-05-02T14:39:44.991Z</time></trkpt><trkpt lat="42.1037721" lon="13.3834314"><ele>835.0</ele><time>2026-05-02T14:39:45.992Z</time></trkpt><trkpt lat="42.1038463" lon="13.3833563"><ele>835.0</ele><time>2026-05-02T14:39:46.991Z</time></trkpt><trkpt lat="42.1039116" lon="13.3832873"><ele>835.0</ele><time>2026-05-02T14:39:47.992Z</time></trkpt><trkpt lat="42.10398" lon="13.3832244"><ele>834.9999999999999</ele><time>2026-05-02T14:39:48.992Z</time></trkpt><trkpt lat="42.1040548" lon="13.383173"><ele>835.0</ele><time>2026-05-02T14:39:49.992Z</time></trkpt><trkpt lat="42.1041384" lon="13.3831308"><ele>836.8</ele><time>2026-05-02T14:39:50.992Z</time></trkpt><trkpt lat="42.1042297" lon="13.3830866"><ele>838.6</ele><time>2026-05-02T14:39:51.992Z</time></trkpt><trkpt lat="42.104319" lon="13.3830387"><ele>840.4000000000001</ele><time>2026-05-02T14:39:52.992Z</time></trkpt><trkpt lat="42.1044136" lon="13.3829851"><ele>842.2</ele><time>2026-05-02T14:39:53.991Z</time></trkpt><trkpt lat="42.1045116" lon="13.382938"><ele>844.0</ele><time>2026-05-02T14:39:54.992Z</time></trkpt><trkpt lat="42.10461" lon="13.382898"><ele>844.0</ele><time>2026-05-02T14:39:55.991Z</time></trkpt><trkpt lat="42.1047069" lon="13.3828518"><ele>844.0</ele><time>2026-05-02T14:39:56.992Z</time></trkpt><trkpt lat="42.1047932" lon="13.3828068"><ele>844.0</ele><time>2026-05-02T14:39:57.992Z</time></trkpt><trkpt lat="42.1048774" lon="13.3827708"><ele>844.0</ele><time>2026-05-02T14:39:58.991Z</time></trkpt><trkpt lat="42.1049625" lon="13.382742"><ele>844.0</ele><time>2026-05-02T14:39:59.992Z</time></trkpt><trkpt lat="42.1050502" lon="13.3827416"><ele>845.2</ele><time>2026-05-02T14:40:00.992Z</time></trkpt><trkpt lat="42.1051502" lon="13.3827487"><ele>846.4000000000001</ele><time>2026-05-02T14:40:01.992Z</time></trkpt><trkpt lat="42.1052567" lon="13.3827746"><ele>847.6</ele><time>2026-05-02T14:40:02.992Z</time></trkpt><trkpt lat="42.105361" lon="13.3827869"><ele>848.8</ele><time>2026-05-02T14:40:03.991Z</time></trkpt><trkpt lat="42.1054678" lon="13.3827866"><ele>850.0</ele><time>2026-05-02T14:40:04.992Z</time></trkpt><trkpt lat="42.1055706" lon="13.3827915"><ele>850.0</ele><time>2026-05-02T14:40:05.992Z</time></trkpt><trkpt lat="42.1056676" lon="13.3828123"><ele>850.0</ele><time>2026-05-02T14:40:06.992Z</time></trkpt><trkpt lat="42.1057693" lon="13.3828316"><ele>850.0</ele><time>2026-05-02T14:40:07.992Z</time></trkpt><trkpt lat="42.1058716" lon="13.3828385"><ele>850.0</ele><time>2026-05-02T14:40:08.992Z</time></trkpt><trkpt lat="42.1059773" lon="13.3828319"><ele>850.0</ele><time>2026-05-02T14:40:09.992Z</time></trkpt><trkpt lat="42.1060793" lon="13.3828273"><ele>851.1666666666666</ele><time>2026-05-02T14:40:10.991Z</time></trkpt><trkpt lat="42.106182" lon="13.3828245"><ele>852.3333333333333</ele><time>2026-05-02T14:40:11.992Z</time></trkpt><trkpt lat="42.1062793" lon="13.3828217"><ele>853.5</ele><time>2026-05-02T14:40:12.992Z</time></trkpt><trkpt lat="42.106366" lon="13.3828283"><ele>854.6666666666667</ele><time>2026-05-02T14:40:13.992Z</time></trkpt><trkpt lat="42.1064437" lon="13.3828381"><ele>855.8333333333334</ele><time>2026-05-02T14:40:14.992Z</time></trkpt><trkpt lat="42.1065075" lon="13.3828658"><ele>857.0</ele><time>2026-05-02T14:40:15.992Z</time></trkpt><trkpt lat="42.1065642" lon="13.3829152"><ele>859.0</ele><time>2026-05-02T14:40:16.992Z</time></trkpt><trkpt lat="42.1066456" lon="13.3830457"><ele>861.0</ele><time>2026-05-02T14:40:18.992Z</time></trkpt><trkpt lat="42.1067443" lon="13.3831182"><ele>863.0</ele><time>2026-05-02T14:40:20.992Z</time></trkpt><trkpt lat="42.1068415" lon="13.3831683"><ele>865.0</ele><time>2026-05-02T14:40:22.992Z</time></trkpt><trkpt lat="42.1069033" lon="13.383287"><ele>865.0</ele><time>2026-05-02T14:40:24.992Z</time></trkpt><trkpt lat="42.106942" lon="13.3834226"><ele>865.0</ele><time>2026-05-02T14:40:26.992Z</time></trkpt><trkpt lat="42.1070026" lon="13.3834782"><ele>865.0</ele><time>2026-05-02T14:40:28.992Z</time></trkpt><trkpt lat="42.107065" lon="13.3834236"><ele>865.0</ele><time>2026-05-02T14:40:30.991Z</time></trkpt><trkpt lat="42.1071569" lon="13.3833104"><ele>865.0</ele><time>2026-05-02T14:40:32.992Z</time></trkpt><trkpt lat="42.1072202" lon="13.3832447"><ele>864.9999999999999</ele><time>2026-05-02T14:40:33.992Z</time></trkpt><trkpt lat="42.107282" lon="13.3831834"><ele>865.0</ele><time>2026-05-02T14:40:34.992Z</time></trkpt><trkpt lat="42.1073346" lon="13.3831331"><ele>865.0</ele><time>2026-05-02T14:40:35.992Z</time></trkpt><trkpt lat="42.1073933" lon="13.3830958"><ele>865.0</ele><time>2026-05-02T14:40:36.992Z</time></trkpt><trkpt lat="42.1075045" lon="13.3830192"><ele>864.9999999999999</ele><time>2026-05-02T14:40:38.992Z</time></trkpt><trkpt lat="42.1075612" lon="13.382952"><ele>865.0</ele><time>2026-05-02T14:40:39.992Z</time></trkpt><trkpt lat="42.107679" lon="13.3829037"><ele>866.6666666666666</ele><time>2026-05-02T14:40:41.992Z</time></trkpt><trkpt lat="42.1077463" lon="13.3828954"><ele>868.3333333333333</ele><time>2026-05-02T14:40:42.992Z</time></trkpt><trkpt lat="42.1078225" lon="13.3828814"><ele>870.0</ele><time>2026-05-02T14:40:43.992Z</time></trkpt><trkpt lat="42.107906" lon="13.3828607"><ele>871.6666666666667</ele><time>2026-05-02T14:40:44.992Z</time></trkpt><trkpt lat="42.1079929" lon="13.3828322"><ele>873.3333333333334</ele><time>2026-05-02T14:40:45.992Z</time></trkpt><trkpt lat="42.1080814" lon="13.3828083"><ele>875.0</ele><time>2026-05-02T14:40:46.992Z</time></trkpt><trkpt lat="42.108162" lon="13.3827962"><ele>875.0000000000001</ele><time>2026-05-02T14:40:47.992Z</time></trkpt><trkpt lat="42.1082292" lon="13.3828025"><ele>875.0</ele><time>2026-05-02T14:40:48.992Z</time></trkpt><trkpt lat="42.108311" lon="13.382777"><ele>875.0</ele><time>2026-05-02T14:40:49.992Z</time></trkpt><trkpt lat="42.1083865" lon="13.3827527"><ele>875.0</ele><time>2026-05-02T14:40:50.992Z</time></trkpt><trkpt lat="42.1084627" lon="13.3827502"><ele>875.0000000000001</ele><time>2026-05-02T14:40:51.992Z</time></trkpt><trkpt lat="42.1085439" lon="13.3827468"><ele>875.0</ele><time>2026-05-02T14:40:52.991Z</time></trkpt><trkpt lat="42.1086156" lon="13.3827191"><ele>875.6666666666667</ele><time>2026-05-02T14:40:53.992Z</time></trkpt><trkpt lat="42.1086829" lon="13.3826743"><ele>876.3333333333334</ele><time>2026-05-02T14:40:54.992Z</time></trkpt><trkpt lat="42.1087485" lon="13.3826255"><ele>877.0</ele><time>2026-05-02T14:40:55.992Z</time></trkpt><trkpt lat="42.1088162" lon="13.3825948"><ele>877.6666666666667</ele><time>2026-05-02T14:40:56.992Z</time></trkpt><trkpt lat="42.1088896" lon="13.3825625"><ele>878.3333333333334</ele><time>2026-05-02T14:40:57.992Z</time></trkpt><trkpt lat="42.108959" lon="13.3825202"><ele>879.0</ele><time>2026-05-02T14:40:58.991Z</time></trkpt><trkpt lat="42.1090307" lon="13.3824749"><ele>880.2</ele><time>2026-05-02T14:40:59.992Z</time></trkpt><trkpt lat="42.1091094" lon="13.3824445"><ele>881.4000000000001</ele><time>2026-05-02T14:41:00.992Z</time></trkpt><trkpt lat="42.1091985" lon="13.3824028"><ele>882.6</ele><time>2026-05-02T14:41:01.992Z</time></trkpt><trkpt lat="42.109288" lon="13.3823567"><ele>883.8</ele><time>2026-05-02T14:41:02.992Z</time></trkpt><trkpt lat="42.1093815" lon="13.3823068"><ele>885.0</ele><time>2026-05-02T14:41:03.992Z</time></trkpt><trkpt lat="42.1094764" lon="13.3822649"><ele>885.0</ele><time>2026-05-02T14:41:04.992Z</time></trkpt><trkpt lat="42.1095581" lon="13.3822223"><ele>885.0</ele><time>2026-05-02T14:41:05.991Z</time></trkpt><trkpt lat="42.1096254" lon="13.3821718"><ele>885.0</ele><time>2026-05-02T14:41:06.992Z</time></trkpt><trkpt lat="42.1096805" lon="13.3821135"><ele>885.0</ele><time>2026-05-02T14:41:07.992Z</time></trkpt><trkpt lat="42.1097365" lon="13.3820627"><ele>885.0</ele><time>2026-05-02T14:41:08.992Z</time></trkpt><trkpt lat="42.1098427" lon="13.3820262"><ele>885.0</ele><time>2026-05-02T14:41:10.992Z</time></trkpt><trkpt lat="42.1099449" lon="13.3820636"><ele>886.1666666666666</ele><time>2026-05-02T14:41:12.991Z</time></trkpt><trkpt lat="42.110074" lon="13.3820935"><ele>887.3333333333333</ele><time>2026-05-02T14:41:14.992Z</time></trkpt><trkpt lat="42.1101566" lon="13.3820869"><ele>888.5</ele><time>2026-05-02T14:41:15.992Z</time></trkpt><trkpt lat="42.110241" lon="13.3820718"><ele>889.6666666666666</ele><time>2026-05-02T14:41:16.992Z</time></trkpt><trkpt lat="42.1103207" lon="13.3820533"><ele>890.8333333333333</ele><time>2026-05-02T14:41:17.992Z</time></trkpt><trkpt lat="42.110388" lon="13.3820359"><ele>892.0</ele><time>2026-05-02T14:41:18.991Z</time></trkpt><trkpt lat="42.1104881" lon="13.3819994"><ele>891.9999999999999</ele><time>2026-05-02T14:41:20.992Z</time></trkpt><trkpt lat="42.1105312" lon="13.3819275"><ele>892.0</ele><time>2026-05-02T14:41:22.992Z</time></trkpt><trkpt lat="42.1105196" lon="13.3817737"><ele>892.0</ele><time>2026-05-02T14:41:24.992Z</time></trkpt><trkpt lat="42.1105071" lon="13.3816697"><ele>892.0</ele><time>2026-05-02T14:41:25.991Z</time></trkpt><trkpt lat="42.110502" lon="13.3815503"><ele>891.9999999999999</ele><time>2026-05-02T14:41:26.992Z</time></trkpt><trkpt lat="42.1105078" lon="13.3814202"><ele>892.0</ele><time>2026-05-02T14:41:27.992Z</time></trkpt><trkpt lat="42.1105058" lon="13.3812896"><ele>892.3333333333333</ele><time>2026-05-02T14:41:28.992Z</time></trkpt><trkpt lat="42.1105068" lon="13.3811589"><ele>892.6666666666666</ele><time>2026-05-02T14:41:29.992Z</time></trkpt><trkpt lat="42.1105091" lon="13.3810326"><ele>893.0</ele><time>2026-05-02T14:41:30.992Z</time></trkpt><trkpt lat="42.1105079" lon="13.3809095"><ele>893.3333333333333</ele><time>2026-05-02T14:41:31.992Z</time></trkpt><trkpt lat="42.1105058" lon="13.3807962"><ele>893.6666666666666</ele><time>2026-05-02T14:41:32.992Z</time></trkpt><trkpt lat="42.1105047" lon="13.380687"><ele>894.0</ele><time>2026-05-02T14:41:33.992Z</time></trkpt><trkpt lat="42.1105044" lon="13.3805951"><ele>894.1666666666666</ele><time>2026-05-02T14:41:34.992Z</time></trkpt><trkpt lat="42.110505" lon="13.3804536"><ele>894.3333333333333</ele><time>2026-05-02T14:41:36.992Z</time></trkpt><trkpt lat="42.1105088" lon="13.380355"><ele>894.5</ele><time>2026-05-02T14:41:38.992Z</time></trkpt><trkpt lat="42.1104893" lon="13.3802384"><ele>894.6666666666666</ele><time>2026-05-02T14:41:41.992Z</time></trkpt><trkpt lat="42.1104984" lon="13.3801211"><ele>894.8333333333333</ele><time>2026-05-02T14:41:44.992Z</time></trkpt><trkpt lat="42.110536" lon="13.3800477"><ele>895.0</ele><time>2026-05-02T14:41:46.992Z</time></trkpt><trkpt lat="42.1105806" lon="13.3799318"><ele>894.9999999999999</ele><time>2026-05-02T14:41:48.992Z</time></trkpt><trkpt lat="42.110565" lon="13.3798371"><ele>895.0</ele><time>2026-05-02T14:41:49.992Z</time></trkpt><trkpt lat="42.110522" lon="13.3797351"><ele>895.0</ele><time>2026-05-02T14:41:50.992Z</time></trkpt><trkpt lat="42.1104732" lon="13.379641"><ele>895.0</ele><time>2026-05-02T14:41:51.992Z</time></trkpt><trkpt lat="42.1104174" lon="13.3795505"><ele>894.9999999999999</ele><time>2026-05-02T14:41:52.992Z</time></trkpt><trkpt lat="42.1103594" lon="13.3794646"><ele>895.0</ele><time>2026-05-02T14:41:53.991Z</time></trkpt><trkpt lat="42.1103034" lon="13.3793915"><ele>895.1666666666666</ele><time>2026-05-02T14:41:54.992Z</time></trkpt><trkpt lat="42.1102513" lon="13.379337"><ele>895.3333333333333</ele><time>2026-05-02T14:41:55.992Z</time></trkpt><trkpt lat="42.1101978" lon="13.379288"><ele>895.5</ele><time>2026-05-02T14:41:56.991Z</time></trkpt><trkpt lat="42.1101362" lon="13.3792444"><ele>895.6666666666667</ele><time>2026-05-02T14:41:57.992Z</time></trkpt><trkpt lat="42.1100436" lon="13.3792733"><ele>895.8333333333334</ele><time>2026-05-02T14:41:58.992Z</time></trkpt><trkpt lat="42.1099562" lon="13.3792871"><ele>896.0</ele><time>2026-05-02T14:41:59.992Z</time></trkpt><trkpt lat="42.1098696" lon="13.3792888"><ele>896.0000000000001</ele><time>2026-05-02T14:42:00.992Z</time></trkpt><trkpt lat="42.1097924" lon="13.3792751"><ele>896.0</ele><time>2026-05-02T14:42:01.992Z</time></trkpt><trkpt lat="42.1097158" lon="13.3792561"><ele>896.0</ele><time>2026-05-02T14:42:02.992Z</time></trkpt><trkpt lat="42.1096316" lon="13.3792343"><ele>896.0</ele><time>2026-05-02T14:42:03.992Z</time></trkpt><trkpt lat="42.1095407" lon="13.3792085"><ele>896.0000000000001</ele><time>2026-05-02T14:42:04.992Z</time></trkpt><trkpt lat="42.1094606" lon="13.3791779"><ele>896.0</ele><time>2026-05-02T14:42:05.992Z</time></trkpt><trkpt lat="42.10939" lon="13.379147"><ele>896.0</ele><time>2026-05-02T14:42:06.992Z</time></trkpt><trkpt lat="42.1092833" lon="13.3790877"><ele>895.9999999999999</ele><time>2026-05-02T14:42:08.991Z</time></trkpt><trkpt lat="42.1092158" lon="13.3789758"><ele>895.9999999999999</ele><time>2026-05-02T14:42:10.992Z</time></trkpt><trkpt lat="42.1091917" lon="13.3788852"><ele>896.0</ele><time>2026-05-02T14:42:11.992Z</time></trkpt><trkpt lat="42.1091743" lon="13.3787765"><ele>896.0</ele><time>2026-05-02T14:42:12.992Z</time></trkpt><trkpt lat="42.1091602" lon="13.3786573"><ele>896.5999999999999</ele><time>2026-05-02T14:42:13.992Z</time></trkpt><trkpt lat="42.1091345" lon="13.3785461"><ele>897.1999999999999</ele><time>2026-05-02T14:42:14.992Z</time></trkpt><trkpt lat="42.1090844" lon="13.3784476"><ele>897.8000000000001</ele><time>2026-05-02T14:42:15.991Z</time></trkpt><trkpt lat="42.1090242" lon="13.3783456"><ele>898.4000000000001</ele><time>2026-05-02T14:42:16.992Z</time></trkpt><trkpt lat="42.1089632" lon="13.3782358"><ele>899.0</ele><time>2026-05-02T14:42:17.992Z</time></trkpt><trkpt lat="42.108897" lon="13.3781256"><ele>902.25</ele><time>2026-05-02T14:42:18.992Z</time></trkpt><trkpt lat="42.1088196" lon="13.3780173"><ele>905.5</ele><time>2026-05-02T14:42:19.992Z</time></trkpt><trkpt lat="42.108733" lon="13.3779141"><ele>908.75</ele><time>2026-05-02T14:42:20.992Z</time></trkpt><trkpt lat="42.1086375" lon="13.3778254"><ele>912.0</ele><time>2026-05-02T14:42:21.992Z</time></trkpt><trkpt lat="42.1085417" lon="13.3777484"><ele>912.0</ele><time>2026-05-02T14:42:22.992Z</time></trkpt><trkpt lat="42.1084503" lon="13.3776771"><ele>912.0</ele><time>2026-05-02T14:42:23.992Z</time></trkpt><trkpt lat="42.1083556" lon="13.3776447"><ele>912.0</ele><time>2026-05-02T14:42:24.992Z</time></trkpt><trkpt lat="42.108264" lon="13.3776171"><ele>912.0</ele><time>2026-05-02T14:42:25.992Z</time></trkpt><trkpt lat="42.1081812" lon="13.3775923"><ele>912.0</ele><time>2026-05-02T14:42:26.992Z</time></trkpt><trkpt lat="42.1081035" lon="13.3775638"><ele>911.8333333333334</ele><time>2026-05-02T14:42:27.992Z</time></trkpt><trkpt lat="42.1080406" lon="13.3775532"><ele>911.6666666666667</ele><time>2026-05-02T14:42:28.991Z</time></trkpt><trkpt lat="42.1079746" lon="13.3775305"><ele>911.5</ele><time>2026-05-02T14:42:29.991Z</time></trkpt><trkpt lat="42.1078718" lon="13.3774924"><ele>911.3333333333334</ele><time>2026-05-02T14:42:31.992Z</time></trkpt><trkpt lat="42.1077887" lon="13.3774275"><ele>911.1666666666667</ele><time>2026-05-02T14:42:33.992Z</time></trkpt><trkpt lat="42.1077193" lon="13.3773408"><ele>911.0</ele><time>2026-05-02T14:42:35.992Z</time></trkpt><trkpt lat="42.1076533" lon="13.3772488"><ele>911.8</ele><time>2026-05-02T14:42:37.992Z</time></trkpt><trkpt lat="42.1075688" lon="13.3771773"><ele>912.5999999999999</ele><time>2026-05-02T14:42:40.992Z</time></trkpt><trkpt lat="42.1074626" lon="13.3771316"><ele>913.4</ele><time>2026-05-02T14:42:42.992Z</time></trkpt><trkpt lat="42.1073623" lon="13.3770632"><ele>914.2</ele><time>2026-05-02T14:42:44.992Z</time></trkpt><trkpt lat="42.1072979" lon="13.3770485"><ele>915.0</ele><time>2026-05-02T14:42:47.992Z</time></trkpt><trkpt lat="42.1072237" lon="13.3771257"><ele>913.4</ele><time>2026-05-02T14:42:50.991Z</time></trkpt><trkpt lat="42.1071352" lon="13.3771287"><ele>911.8</ele><time>2026-05-02T14:42:53.939Z</time></trkpt><trkpt lat="42.1070487" lon="13.377061"><ele>910.2</ele><time>2026-05-02T14:42:55.991Z</time></trkpt><trkpt lat="42.1069386" lon="13.3769849"><ele>908.6</ele><time>2026-05-02T14:42:57.992Z</time></trkpt><trkpt lat="42.1068478" lon="13.3769176"><ele>907.0</ele><time>2026-05-02T14:42:59.992Z</time></trkpt><trkpt lat="42.1067767" lon="13.3768213"><ele>907.0</ele><time>2026-05-02T14:43:01.992Z</time></trkpt><trkpt lat="42.106683" lon="13.3767481"><ele>907.0</ele><time>2026-05-02T14:43:03.992Z</time></trkpt><trkpt lat="42.1065873" lon="13.3767036"><ele>907.0</ele><time>2026-05-02T14:43:05.992Z</time></trkpt><trkpt lat="42.1064725" lon="13.3766527"><ele>907.0</ele><time>2026-05-02T14:43:07.992Z</time></trkpt><trkpt lat="42.1063667" lon="13.3766172"><ele>907.0</ele><time>2026-05-02T14:43:09.992Z</time></trkpt><trkpt lat="42.1062769" lon="13.3765715"><ele>905.0</ele><time>2026-05-02T14:43:11.992Z</time></trkpt><trkpt lat="42.106173" lon="13.3765327"><ele>903.0</ele><time>2026-05-02T14:43:13.992Z</time></trkpt><trkpt lat="42.1060801" lon="13.3764718"><ele>901.0</ele><time>2026-05-02T14:43:15.992Z</time></trkpt><trkpt lat="42.1060052" lon="13.376403"><ele>899.0</ele><time>2026-05-02T14:43:17.992Z</time></trkpt><trkpt lat="42.1059546" lon="13.3763209"><ele>897.0</ele><time>2026-05-02T14:43:19.992Z</time></trkpt><trkpt lat="42.1058878" lon="13.3762454"><ele>896.0</ele><time>2026-05-02T14:43:21.992Z</time></trkpt><trkpt lat="42.1058286" lon="13.3761723"><ele>895.0</ele><time>2026-05-02T14:43:23.992Z</time></trkpt><trkpt lat="42.10578" lon="13.3761032"><ele>894.0</ele><time>2026-05-02T14:43:24.992Z</time></trkpt><trkpt lat="42.1057096" lon="13.3759857"><ele>893.0</ele><time>2026-05-02T14:43:26.992Z</time></trkpt><trkpt lat="42.1056708" lon="13.3759176"><ele>892.0</ele><time>2026-05-02T14:43:27.991Z</time></trkpt><trkpt lat="42.1055926" lon="13.3758369"><ele>891.0</ele><time>2026-05-02T14:43:29.992Z</time></trkpt><trkpt lat="42.1055141" lon="13.3757418"><ele>889.4</ele><time>2026-05-02T14:43:31.992Z</time></trkpt><trkpt lat="42.1054279" lon="13.3756328"><ele>887.8</ele><time>2026-05-02T14:43:33.992Z</time></trkpt><trkpt lat="42.1053763" lon="13.3755814"><ele>886.1999999999999</ele><time>2026-05-02T14:43:34.991Z</time></trkpt><trkpt lat="42.1053353" lon="13.375514"><ele>884.5999999999999</ele><time>2026-05-02T14:43:35.992Z</time></trkpt><trkpt lat="42.1052548" lon="13.3753885"><ele>883.0</ele><time>2026-05-02T14:43:37.992Z</time></trkpt><trkpt lat="42.1051749" lon="13.3752733"><ele>883.0</ele><time>2026-05-02T14:43:39.992Z</time></trkpt><trkpt lat="42.1050863" lon="13.3752035"><ele>883.0</ele><time>2026-05-02T14:43:41.992Z</time></trkpt><trkpt lat="42.1050248" lon="13.3751104"><ele>883.0</ele><time>2026-05-02T14:43:43.992Z</time></trkpt><trkpt lat="42.1050265" lon="13.3749943"><ele>883.0</ele><time>2026-05-02T14:43:46.992Z</time></trkpt><trkpt lat="42.1049687" lon="13.3748852"><ele>883.0</ele><time>2026-05-02T14:43:48.992Z</time></trkpt><trkpt lat="42.1048932" lon="13.374802"><ele>880.8</ele><time>2026-05-02T14:43:49.992Z</time></trkpt><trkpt lat="42.1048363" lon="13.3747311"><ele>878.5999999999999</ele><time>2026-05-02T14:43:50.992Z</time></trkpt><trkpt lat="42.1047805" lon="13.374561"><ele>876.4000000000001</ele><time>2026-05-02T14:43:52.991Z</time></trkpt><trkpt lat="42.1047424" lon="13.37442"><ele>874.2</ele><time>2026-05-02T14:43:54.992Z</time></trkpt><trkpt lat="42.1046903" lon="13.3743257"><ele>872.0</ele><time>2026-05-02T14:43:56.992Z</time></trkpt><trkpt lat="42.1046202" lon="13.3742965"><ele>872.0000000000001</ele><time>2026-05-02T14:43:58.992Z</time></trkpt><trkpt lat="42.1045298" lon="13.3742888"><ele>872.0</ele><time>2026-05-02T14:44:01.991Z</time></trkpt><trkpt lat="42.1044747" lon="13.3742207"><ele>872.0</ele><time>2026-05-02T14:44:03.992Z</time></trkpt><trkpt lat="42.1044418" lon="13.374141"><ele>872.0</ele><time>2026-05-02T14:44:04.992Z</time></trkpt><trkpt lat="42.1044077" lon="13.3740475"><ele>872.0000000000001</ele><time>2026-05-02T14:44:05.992Z</time></trkpt><trkpt lat="42.104367" lon="13.3739536"><ele>872.0</ele><time>2026-05-02T14:44:06.992Z</time></trkpt><trkpt lat="42.1043187" lon="13.3738655"><ele>873.0</ele><time>2026-05-02T14:44:07.991Z</time></trkpt><trkpt lat="42.1042589" lon="13.3737808"><ele>874.0</ele><time>2026-05-02T14:44:08.992Z</time></trkpt><trkpt lat="42.104194" lon="13.3736993"><ele>875.0</ele><time>2026-05-02T14:44:09.991Z</time></trkpt><trkpt lat="42.1041391" lon="13.37363"><ele>876.0</ele><time>2026-05-02T14:44:10.992Z</time></trkpt><trkpt lat="42.1040462" lon="13.3735102"><ele>877.0</ele><time>2026-05-02T14:44:12.992Z</time></trkpt><trkpt lat="42.1039955" lon="13.3734347"><ele>876.9999999999999</ele><time>2026-05-02T14:44:13.992Z</time></trkpt><trkpt lat="42.1039549" lon="13.3733489"><ele>877.0</ele><time>2026-05-02T14:44:14.992Z</time></trkpt><trkpt lat="42.1039156" lon="13.3732775"><ele>877.0</ele><time>2026-05-02T14:44:15.992Z</time></trkpt><trkpt lat="42.1038613" lon="13.3732183"><ele>877.0</ele><time>2026-05-02T14:44:16.992Z</time></trkpt><trkpt lat="42.1037978" lon="13.3731476"><ele>876.9999999999999</ele><time>2026-05-02T14:44:17.992Z</time></trkpt><trkpt lat="42.1037305" lon="13.3730739"><ele>877.0</ele><time>2026-05-02T14:44:18.992Z</time></trkpt><trkpt lat="42.1036669" lon="13.3730076"><ele>876.9999999999999</ele><time>2026-05-02T14:44:19.992Z</time></trkpt><trkpt lat="42.1036138" lon="13.3729371"><ele>877.0</ele><time>2026-05-02T14:44:20.991Z</time></trkpt><trkpt lat="42.1035726" lon="13.3728593"><ele>877.0</ele><time>2026-05-02T14:44:21.992Z</time></trkpt><trkpt lat="42.1035324" lon="13.3727874"><ele>877.0</ele><time>2026-05-02T14:44:22.991Z</time></trkpt><trkpt lat="42.1034633" lon="13.3726685"><ele>876.9999999999999</ele><time>2026-05-02T14:44:24.992Z</time></trkpt><trkpt lat="42.1033743" lon="13.3725772"><ele>877.0</ele><time>2026-05-02T14:44:26.992Z</time></trkpt><trkpt lat="42.1033177" lon="13.3724922"><ele>877.0</ele><time>2026-05-02T14:44:28.992Z</time></trkpt><trkpt lat="42.1033017" lon="13.37238"><ele>877.0</ele><time>2026-05-02T14:44:30.992Z</time></trkpt><trkpt lat="42.1032655" lon="13.3722791"><ele>877.0</ele><time>2026-05-02T14:44:32.992Z</time></trkpt><trkpt lat="42.1031989" lon="13.3721834"><ele>877.0</ele><time>2026-05-02T14:44:34.992Z</time></trkpt><trkpt lat="42.103125" lon="13.3720877"><ele>877.0</ele><time>2026-05-02T14:44:36.992Z</time></trkpt><trkpt lat="42.103047" lon="13.3719858"><ele>874.8</ele><time>2026-05-02T14:44:38.992Z</time></trkpt><trkpt lat="42.1029681" lon="13.3719063"><ele>872.6</ele><time>2026-05-02T14:44:40.992Z</time></trkpt><trkpt lat="42.1028663" lon="13.3718329"><ele>870.3999999999999</ele><time>2026-05-02T14:44:42.992Z</time></trkpt><trkpt lat="42.1027897" lon="13.371757"><ele>868.1999999999999</ele><time>2026-05-02T14:44:44.992Z</time></trkpt><trkpt lat="42.1027143" lon="13.371652"><ele>866.0</ele><time>2026-05-02T14:44:46.992Z</time></trkpt><trkpt lat="42.1026464" lon="13.3715401"><ele>866.0000000000001</ele><time>2026-05-02T14:44:48.992Z</time></trkpt><trkpt lat="42.1026067" lon="13.3714732"><ele>866.0</ele><time>2026-05-02T14:44:49.992Z</time></trkpt><trkpt lat="42.1025469" lon="13.3713693"><ele>866.0</ele><time>2026-05-02T14:44:51.992Z</time></trkpt><trkpt lat="42.1024764" lon="13.3712812"><ele>866.0</ele><time>2026-05-02T14:44:53.991Z</time></trkpt><trkpt lat="42.1023992" lon="13.371208"><ele>866.0000000000001</ele><time>2026-05-02T14:44:55.992Z</time></trkpt><trkpt lat="42.1023277" lon="13.3711322"><ele>866.0</ele><time>2026-05-02T14:44:57.992Z</time></trkpt><trkpt lat="42.1022588" lon="13.3710859"><ele>863.3333333333334</ele><time>2026-05-02T14:45:00.949Z</time></trkpt><trkpt lat="42.1022006" lon="13.3710387"><ele>860.6666666666667</ele><time>2026-05-02T14:45:01.992Z</time></trkpt><trkpt lat="42.1021261" lon="13.3709843"><ele>858.0</ele><time>2026-05-02T14:45:03.992Z</time></trkpt><trkpt lat="42.1020707" lon="13.3709059"><ele>855.3333333333333</ele><time>2026-05-02T14:45:05.992Z</time></trkpt><trkpt lat="42.1019969" lon="13.3708508"><ele>852.6666666666666</ele><time>2026-05-02T14:45:07.992Z</time></trkpt><trkpt lat="42.1019129" lon="13.3707895"><ele>850.0</ele><time>2026-05-02T14:45:10.992Z</time></trkpt><trkpt lat="42.101851" lon="13.3707454"><ele>849.9999999999999</ele><time>2026-05-02T14:45:12.999Z</time></trkpt><trkpt lat="42.1017976" lon="13.3706726"><ele>850.0</ele><time>2026-05-02T14:45:14.992Z</time></trkpt><trkpt lat="42.1017304" lon="13.3706564"><ele>850.0</ele><time>2026-05-02T14:45:16.992Z</time></trkpt><trkpt lat="42.1016627" lon="13.370625"><ele>850.0</ele><time>2026-05-02T14:45:18.992Z</time></trkpt><trkpt lat="42.1016164" lon="13.3705489"><ele>849.9999999999999</ele><time>2026-05-02T14:45:20.991Z</time></trkpt><trkpt lat="42.1015607" lon="13.3704899"><ele>850.0</ele><time>2026-05-02T14:45:22.992Z</time></trkpt><trkpt lat="42.101475" lon="13.3705362"><ele>846.3333333333333</ele><time>2026-05-02T14:45:25.969Z</time></trkpt><trkpt lat="42.1014024" lon="13.3705564"><ele>842.6666666666666</ele><time>2026-05-02T14:45:27.992Z</time></trkpt><trkpt lat="42.1013261" lon="13.3705092"><ele>839.0</ele><time>2026-05-02T14:45:29.992Z</time></trkpt><trkpt lat="42.1012616" lon="13.3704969"><ele>835.3333333333333</ele><time>2026-05-02T14:45:31.912Z</time></trkpt><trkpt lat="42.1011949" lon="13.3705275"><ele>831.6666666666666</ele><time>2026-05-02T14:45:34.992Z</time></trkpt><trkpt lat="42.1011198" lon="13.3705826"><ele>828.0</ele><time>2026-05-02T14:45:38.991Z</time></trkpt><trkpt lat="42.1010543" lon="13.3706237"><ele>828.0</ele><time>2026-05-02T14:45:41.992Z</time></trkpt><trkpt lat="42.1009898" lon="13.3706576"><ele>828.0</ele><time>2026-05-02T14:45:44.992Z</time></trkpt><trkpt lat="42.1009217" lon="13.370705"><ele>828.0</ele><time>2026-05-02T14:45:47.965Z</time></trkpt><trkpt lat="42.1008474" lon="13.3706945"><ele>828.0</ele><time>2026-05-02T14:45:50.992Z</time></trkpt><trkpt lat="42.1007873" lon="13.3706353"><ele>828.0</ele><time>2026-05-02T14:45:52.992Z</time></trkpt><trkpt lat="42.1007289" lon="13.3705733"><ele>828.0</ele><time>2026-05-02T14:45:55.003Z</time></trkpt><trkpt lat="42.100644" lon="13.3705037"><ele>826.1666666666666</ele><time>2026-05-02T14:45:56.992Z</time></trkpt><trkpt lat="42.1005636" lon="13.3704665"><ele>824.3333333333333</ele><time>2026-05-02T14:45:58.992Z</time></trkpt><trkpt lat="42.1004809" lon="13.3704491"><ele>822.5</ele><time>2026-05-02T14:46:00.992Z</time></trkpt><trkpt lat="42.1004046" lon="13.3704527"><ele>820.6666666666666</ele><time>2026-05-02T14:46:02.992Z</time></trkpt><trkpt lat="42.1003238" lon="13.3704854"><ele>818.8333333333333</ele><time>2026-05-02T14:46:04.992Z</time></trkpt><trkpt lat="42.1002567" lon="13.3705426"><ele>817.0</ele><time>2026-05-02T14:46:06.992Z</time></trkpt><trkpt lat="42.1001892" lon="13.3705566"><ele>816.9999999999999</ele><time>2026-05-02T14:46:08.992Z</time></trkpt><trkpt lat="42.1001117" lon="13.3704836"><ele>817.0</ele><time>2026-05-02T14:46:10.992Z</time></trkpt><trkpt lat="42.1000607" lon="13.3704307"><ele>817.0</ele><time>2026-05-02T14:46:11.992Z</time></trkpt><trkpt lat="42.1000091" lon="13.3703789"><ele>817.0</ele><time>2026-05-02T14:46:12.992Z</time></trkpt><trkpt lat="42.0999497" lon="13.370332"><ele>817.0</ele><time>2026-05-02T14:46:13.992Z</time></trkpt><trkpt lat="42.0998897" lon="13.3702854"><ele>816.9999999999999</ele><time>2026-05-02T14:46:14.992Z</time></trkpt><trkpt lat="42.0998315" lon="13.3702346"><ele>817.0</ele><time>2026-05-02T14:46:15.991Z</time></trkpt><trkpt lat="42.0997773" lon="13.3701794"><ele>814.5714285714286</ele><time>2026-05-02T14:46:16.991Z</time></trkpt><trkpt lat="42.099722" lon="13.3701263"><ele>812.1428571428571</ele><time>2026-05-02T14:46:17.992Z</time></trkpt><trkpt lat="42.0996628" lon="13.370073"><ele>809.7142857142858</ele><time>2026-05-02T14:46:18.992Z</time></trkpt><trkpt lat="42.099604" lon="13.3700115"><ele>807.2857142857142</ele><time>2026-05-02T14:46:19.992Z</time></trkpt><trkpt lat="42.0995457" lon="13.3699478"><ele>804.8571428571429</ele><time>2026-05-02T14:46:20.992Z</time></trkpt><trkpt lat="42.0994957" lon="13.3698824"><ele>802.4285714285714</ele><time>2026-05-02T14:46:21.992Z</time></trkpt><trkpt lat="42.099446" lon="13.3698125"><ele>800.0</ele><time>2026-05-02T14:46:22.992Z</time></trkpt><trkpt lat="42.099394" lon="13.3697381"><ele>800.3333333333334</ele><time>2026-05-02T14:46:23.992Z</time></trkpt><trkpt lat="42.0993431" lon="13.3696603"><ele>800.6666666666667</ele><time>2026-05-02T14:46:24.992Z</time></trkpt><trkpt lat="42.0992857" lon="13.3695865"><ele>801.0</ele><time>2026-05-02T14:46:25.992Z</time></trkpt><trkpt lat="42.099225" lon="13.3695183"><ele>801.3333333333333</ele><time>2026-05-02T14:46:26.992Z</time></trkpt><trkpt lat="42.0991592" lon="13.3694534"><ele>801.6666666666666</ele><time>2026-05-02T14:46:27.992Z</time></trkpt><trkpt lat="42.0990923" lon="13.3693842"><ele>802.0</ele><time>2026-05-02T14:46:28.991Z</time></trkpt><trkpt lat="42.0990294" lon="13.36931"><ele>799.9999999999999</ele><time>2026-05-02T14:46:29.992Z</time></trkpt><trkpt lat="42.0989682" lon="13.3692407"><ele>798.0</ele><time>2026-05-02T14:46:30.992Z</time></trkpt><trkpt lat="42.0989053" lon="13.3691787"><ele>796.0</ele><time>2026-05-02T14:46:31.992Z</time></trkpt><trkpt lat="42.0988436" lon="13.3691144"><ele>794.0</ele><time>2026-05-02T14:46:32.992Z</time></trkpt><trkpt lat="42.0987868" lon="13.3690473"><ele>791.9999999999999</ele><time>2026-05-02T14:46:33.992Z</time></trkpt><trkpt lat="42.0987314" lon="13.3689871"><ele>790.0</ele><time>2026-05-02T14:46:34.992Z</time></trkpt><trkpt lat="42.0986732" lon="13.3689417"><ele>789.9999999999999</ele><time>2026-05-02T14:46:35.992Z</time></trkpt><trkpt lat="42.0986084" lon="13.3689047"><ele>790.0</ele><time>2026-05-02T14:46:36.992Z</time></trkpt><trkpt lat="42.0985397" lon="13.3688639"><ele>790.0</ele><time>2026-05-02T14:46:37.991Z</time></trkpt><trkpt lat="42.0984709" lon="13.3688178"><ele>790.0</ele><time>2026-05-02T14:46:38.991Z</time></trkpt><trkpt lat="42.0983998" lon="13.3687765"><ele>789.9999999999999</ele><time>2026-05-02T14:46:39.992Z</time></trkpt><trkpt lat="42.0983267" lon="13.3687374"><ele>790.0</ele><time>2026-05-02T14:46:40.991Z</time></trkpt><trkpt lat="42.0982551" lon="13.3686993"><ele>789.4285714285714</ele><time>2026-05-02T14:46:41.992Z</time></trkpt><trkpt lat="42.0981856" lon="13.3686639"><ele>788.8571428571429</ele><time>2026-05-02T14:46:42.992Z</time></trkpt><trkpt lat="42.098117" lon="13.3686293"><ele>788.2857142857143</ele><time>2026-05-02T14:46:43.992Z</time></trkpt><trkpt lat="42.0980446" lon="13.3685969"><ele>787.7142857142858</ele><time>2026-05-02T14:46:44.991Z</time></trkpt><trkpt lat="42.0979687" lon="13.3685622"><ele>787.1428571428571</ele><time>2026-05-02T14:46:45.992Z</time></trkpt><trkpt lat="42.0978972" lon="13.3685295"><ele>786.5714285714287</ele><time>2026-05-02T14:46:46.992Z</time></trkpt><trkpt lat="42.0978308" lon="13.3684996"><ele>786.0</ele><time>2026-05-02T14:46:47.992Z</time></trkpt><trkpt lat="42.0977687" lon="13.368471"><ele>786.0</ele><time>2026-05-02T14:46:48.991Z</time></trkpt><trkpt lat="42.0976545" lon="13.3684218"><ele>786.0</ele><time>2026-05-02T14:46:50.992Z</time></trkpt><trkpt lat="42.0975433" lon="13.3683843"><ele>786.0</ele><time>2026-05-02T14:46:52.992Z</time></trkpt><trkpt lat="42.0974231" lon="13.3683464"><ele>786.0</ele><time>2026-05-02T14:46:54.992Z</time></trkpt><trkpt lat="42.0973108" lon="13.368309"><ele>783.7142857142858</ele><time>2026-05-02T14:46:56.992Z</time></trkpt><trkpt lat="42.0971997" lon="13.3682746"><ele>781.4285714285714</ele><time>2026-05-02T14:46:58.992Z</time></trkpt><trkpt lat="42.0971384" lon="13.3682517"><ele>779.1428571428571</ele><time>2026-05-02T14:46:59.992Z</time></trkpt><trkpt lat="42.0970779" lon="13.3682264"><ele>776.8571428571429</ele><time>2026-05-02T14:47:00.992Z</time></trkpt><trkpt lat="42.0970189" lon="13.3681929"><ele>774.5714285714286</ele><time>2026-05-02T14:47:01.992Z</time></trkpt><trkpt lat="42.0969601" lon="13.3681534"><ele>772.2857142857143</ele><time>2026-05-02T14:47:02.992Z</time></trkpt><trkpt lat="42.0969023" lon="13.3681158"><ele>770.0</ele><time>2026-05-02T14:47:03.992Z</time></trkpt><trkpt lat="42.0968455" lon="13.3680781"><ele>770.0000000000001</ele><time>2026-05-02T14:47:04.992Z</time></trkpt><trkpt lat="42.0967869" lon="13.3680319"><ele>770.0</ele><time>2026-05-02T14:47:05.992Z</time></trkpt><trkpt lat="42.0967304" lon="13.3679783"><ele>770.0</ele><time>2026-05-02T14:47:06.992Z</time></trkpt><trkpt lat="42.096678" lon="13.3679227"><ele>770.0</ele><time>2026-05-02T14:47:07.992Z</time></trkpt><trkpt lat="42.0965952" lon="13.3678207"><ele>770.0000000000001</ele><time>2026-05-02T14:47:09.992Z</time></trkpt><trkpt lat="42.0965123" lon="13.3677388"><ele>770.0</ele><time>2026-05-02T14:47:11.991Z</time></trkpt><trkpt lat="42.096421" lon="13.3676504"><ele>766.6</ele><time>2026-05-02T14:47:13.992Z</time></trkpt><trkpt lat="42.0963563" lon="13.3675435"><ele>763.2</ele><time>2026-05-02T14:47:15.992Z</time></trkpt><trkpt lat="42.0962813" lon="13.3674624"><ele>759.8</ele><time>2026-05-02T14:47:17.992Z</time></trkpt><trkpt lat="42.0962066" lon="13.3673883"><ele>756.4</ele><time>2026-05-02T14:47:19.992Z</time></trkpt><trkpt lat="42.0961319" lon="13.3673133"><ele>753.0</ele><time>2026-05-02T14:47:21.992Z</time></trkpt><trkpt lat="42.0960567" lon="13.367256"><ele>753.0</ele><time>2026-05-02T14:47:23.992Z</time></trkpt><trkpt lat="42.0959833" lon="13.3672016"><ele>753.0</ele><time>2026-05-02T14:47:25.992Z</time></trkpt><trkpt lat="42.0958945" lon="13.3671546"><ele>753.0</ele><time>2026-05-02T14:47:27.992Z</time></trkpt><trkpt lat="42.0957773" lon="13.3671118"><ele>753.0</ele><time>2026-05-02T14:47:29.991Z</time></trkpt><trkpt lat="42.0956963" lon="13.3670805"><ele>753.0</ele><time>2026-05-02T14:47:30.992Z</time></trkpt><trkpt lat="42.0955963" lon="13.3670363"><ele>748.5</ele><time>2026-05-02T14:47:31.992Z</time></trkpt><trkpt lat="42.0954899" lon="13.3669824"><ele>744.0</ele><time>2026-05-02T14:47:32.992Z</time></trkpt><trkpt lat="42.0953802" lon="13.3669309"><ele>739.5</ele><time>2026-05-02T14:47:33.992Z</time></trkpt><trkpt lat="42.0952677" lon="13.3668781"><ele>735.0</ele><time>2026-05-02T14:47:34.992Z</time></trkpt><trkpt lat="42.0951612" lon="13.3668188"><ele>735.0</ele><time>2026-05-02T14:47:35.992Z</time></trkpt><trkpt lat="42.095065" lon="13.3667648"><ele>735.0</ele><time>2026-05-02T14:47:36.992Z</time></trkpt><trkpt lat="42.0949808" lon="13.3667203"><ele>735.0</ele><time>2026-05-02T14:47:37.992Z</time></trkpt><trkpt lat="42.0949063" lon="13.3666854"><ele>735.0</ele><time>2026-05-02T14:47:38.992Z</time></trkpt><trkpt lat="42.0948356" lon="13.3666693"><ele>735.0</ele><time>2026-05-02T14:47:39.992Z</time></trkpt><trkpt lat="42.0947274" lon="13.3666851"><ele>734.8333333333334</ele><time>2026-05-02T14:47:41.992Z</time></trkpt><trkpt lat="42.0946416" lon="13.3666723"><ele>734.6666666666666</ele><time>2026-05-02T14:47:43.992Z</time></trkpt><trkpt lat="42.0945299" lon="13.3665827"><ele>734.5</ele><time>2026-05-02T14:47:45.992Z</time></trkpt><trkpt lat="42.0944743" lon="13.366523"><ele>734.3333333333333</ele><time>2026-05-02T14:47:46.991Z</time></trkpt><trkpt lat="42.0944218" lon="13.3664588"><ele>734.1666666666666</ele><time>2026-05-02T14:47:47.992Z</time></trkpt><trkpt lat="42.0943734" lon="13.3663947"><ele>734.0</ele><time>2026-05-02T14:47:48.992Z</time></trkpt><trkpt lat="42.0943204" lon="13.3662586"><ele>733.4000000000001</ele><time>2026-05-02T14:47:50.992Z</time></trkpt><trkpt lat="42.0943573" lon="13.3661044"><ele>732.8</ele><time>2026-05-02T14:47:52.992Z</time></trkpt><trkpt lat="42.094397" lon="13.3660251"><ele>732.2</ele><time>2026-05-02T14:47:53.992Z</time></trkpt><trkpt lat="42.0944462" lon="13.3659442"><ele>731.5999999999999</ele><time>2026-05-02T14:47:54.992Z</time></trkpt><trkpt lat="42.0945075" lon="13.3658578"><ele>731.0</ele><time>2026-05-02T14:47:55.992Z</time></trkpt><trkpt lat="42.0945753" lon="13.3657677"><ele>731.0</ele><time>2026-05-02T14:47:56.992Z</time></trkpt><trkpt lat="42.0946472" lon="13.3656645"><ele>731.0</ele><time>2026-05-02T14:47:57.992Z</time></trkpt><trkpt lat="42.0947261" lon="13.3655518"><ele>731.0</ele><time>2026-05-02T14:47:58.992Z</time></trkpt><trkpt lat="42.094809" lon="13.3654265"><ele>731.0</ele><time>2026-05-02T14:47:59.992Z</time></trkpt><trkpt lat="42.0949003" lon="13.3652953"><ele>730.5</ele><time>2026-05-02T14:48:00.992Z</time></trkpt><trkpt lat="42.0949967" lon="13.3651565"><ele>730.0</ele><time>2026-05-02T14:48:01.992Z</time></trkpt><trkpt lat="42.0950981" lon="13.3650099"><ele>729.5</ele><time>2026-05-02T14:48:02.992Z</time></trkpt><trkpt lat="42.0951955" lon="13.3648685"><ele>729.0</ele><time>2026-05-02T14:48:03.992Z</time></trkpt><trkpt lat="42.0952923" lon="13.3647339"><ele>728.75</ele><time>2026-05-02T14:48:04.992Z</time></trkpt><trkpt lat="42.0953924" lon="13.3646057"><ele>728.5</ele><time>2026-05-02T14:48:05.992Z</time></trkpt><trkpt lat="42.0954957" lon="13.3644869"><ele>728.25</ele><time>2026-05-02T14:48:06.992Z</time></trkpt><trkpt lat="42.0956025" lon="13.3643659"><ele>728.0</ele><time>2026-05-02T14:48:07.992Z</time></trkpt><trkpt lat="42.0957095" lon="13.3642305"><ele>727.0</ele><time>2026-05-02T14:48:08.991Z</time></trkpt><trkpt lat="42.0958173" lon="13.3640767"><ele>726.0</ele><time>2026-05-02T14:48:09.992Z</time></trkpt><trkpt lat="42.095928" lon="13.3639091"><ele>725.0</ele><time>2026-05-02T14:48:10.992Z</time></trkpt><trkpt lat="42.0960442" lon="13.3637291"><ele>724.0</ele><time>2026-05-02T14:48:11.991Z</time></trkpt><trkpt lat="42.0961665" lon="13.363541"><ele>723.0</ele><time>2026-05-02T14:48:12.992Z</time></trkpt><trkpt lat="42.0962938" lon="13.363347"><ele>722.0</ele><time>2026-05-02T14:48:13.992Z</time></trkpt><trkpt lat="42.0964212" lon="13.3631441"><ele>721.6666666666666</ele><time>2026-05-02T14:48:14.992Z</time></trkpt><trkpt lat="42.0965562" lon="13.36294"><ele>721.3333333333334</ele><time>2026-05-02T14:48:15.992Z</time></trkpt><trkpt lat="42.0966893" lon="13.3627399"><ele>721.0</ele><time>2026-05-02T14:48:16.991Z</time></trkpt><trkpt lat="42.0968231" lon="13.3625402"><ele>719.3333333333334</ele><time>2026-05-02T14:48:17.992Z</time></trkpt><trkpt lat="42.0969552" lon="13.3623373"><ele>717.6666666666666</ele><time>2026-05-02T14:48:18.992Z</time></trkpt><trkpt lat="42.0970839" lon="13.3621413"><ele>716.0</ele><time>2026-05-02T14:48:19.992Z</time></trkpt><trkpt lat="42.0972083" lon="13.3619463"><ele>715.6666666666666</ele><time>2026-05-02T14:48:20.992Z</time></trkpt><trkpt lat="42.0973312" lon="13.3617495"><ele>715.3333333333334</ele><time>2026-05-02T14:48:21.992Z</time></trkpt><trkpt lat="42.0974538" lon="13.3615602"><ele>715.0</ele><time>2026-05-02T14:48:22.991Z</time></trkpt><trkpt lat="42.0975789" lon="13.3613748"><ele>714.6666666666667</ele><time>2026-05-02T14:48:23.992Z</time></trkpt><trkpt lat="42.0977005" lon="13.361192"><ele>714.3333333333334</ele><time>2026-05-02T14:48:24.992Z</time></trkpt><trkpt lat="42.0978232" lon="13.3610089"><ele>714.0</ele><time>2026-05-02T14:48:25.992Z</time></trkpt><trkpt lat="42.0979452" lon="13.3608279"><ele>714.0</ele><time>2026-05-02T14:48:26.992Z</time></trkpt><trkpt lat="42.0980676" lon="13.3606513"><ele>714.0</ele><time>2026-05-02T14:48:27.992Z</time></trkpt><trkpt lat="42.0981962" lon="13.3604778"><ele>714.0</ele><time>2026-05-02T14:48:28.992Z</time></trkpt><trkpt lat="42.0983247" lon="13.3603119"><ele>712.3333333333334</ele><time>2026-05-02T14:48:29.992Z</time></trkpt><trkpt lat="42.0984559" lon="13.3601489"><ele>710.6666666666667</ele><time>2026-05-02T14:48:30.992Z</time></trkpt><trkpt lat="42.0985938" lon="13.3599897"><ele>709.0</ele><time>2026-05-02T14:48:31.992Z</time></trkpt><trkpt lat="42.0987342" lon="13.3598356"><ele>708.6666666666667</ele><time>2026-05-02T14:48:32.992Z</time></trkpt><trkpt lat="42.0988754" lon="13.3596822"><ele>708.3333333333334</ele><time>2026-05-02T14:48:33.992Z</time></trkpt><trkpt lat="42.0990127" lon="13.3595223"><ele>708.0</ele><time>2026-05-02T14:48:34.992Z</time></trkpt><trkpt lat="42.0991464" lon="13.3593602"><ele>708.0</ele><time>2026-05-02T14:48:35.991Z</time></trkpt><trkpt lat="42.0992756" lon="13.3591966"><ele>708.0</ele><time>2026-05-02T14:48:36.992Z</time></trkpt><trkpt lat="42.0994041" lon="13.3590347"><ele>708.0</ele><time>2026-05-02T14:48:37.992Z</time></trkpt><trkpt lat="42.0995306" lon="13.3588727"><ele>708.0</ele><time>2026-05-02T14:48:38.991Z</time></trkpt><trkpt lat="42.0996518" lon="13.3587093"><ele>708.0</ele><time>2026-05-02T14:48:39.992Z</time></trkpt><trkpt lat="42.099768" lon="13.3585475"><ele>708.0</ele><time>2026-05-02T14:48:40.992Z</time></trkpt><trkpt lat="42.0998906" lon="13.3583903"><ele>708.3333333333334</ele><time>2026-05-02T14:48:41.992Z</time></trkpt><trkpt lat="42.1000172" lon="13.3582461"><ele>708.6666666666667</ele><time>2026-05-02T14:48:42.992Z</time></trkpt><trkpt lat="42.100148" lon="13.3581084"><ele>709.0</ele><time>2026-05-02T14:48:43.992Z</time></trkpt><trkpt lat="42.1002774" lon="13.3579695"><ele>709.0</ele><time>2026-05-02T14:48:44.992Z</time></trkpt><trkpt lat="42.1004063" lon="13.3578335"><ele>709.0</ele><time>2026-05-02T14:48:45.992Z</time></trkpt><trkpt lat="42.1005377" lon="13.3576989"><ele>709.0</ele><time>2026-05-02T14:48:46.991Z</time></trkpt><trkpt lat="42.1006622" lon="13.3575643"><ele>709.25</ele><time>2026-05-02T14:48:47.992Z</time></trkpt><trkpt lat="42.1007761" lon="13.357425"><ele>709.5</ele><time>2026-05-02T14:48:48.992Z</time></trkpt><trkpt lat="42.1008867" lon="13.3573046"><ele>709.75</ele><time>2026-05-02T14:48:49.992Z</time></trkpt><trkpt lat="42.1010042" lon="13.3571988"><ele>710.0</ele><time>2026-05-02T14:48:50.992Z</time></trkpt><trkpt lat="42.1011219" lon="13.3570911"><ele>710.0</ele><time>2026-05-02T14:48:51.992Z</time></trkpt><trkpt lat="42.1012568" lon="13.3570088"><ele>710.0</ele><time>2026-05-02T14:48:52.992Z</time></trkpt><trkpt lat="42.101379" lon="13.356908"><ele>710.0</ele><time>2026-05-02T14:48:53.992Z</time></trkpt><trkpt lat="42.1014987" lon="13.3567922"><ele>710.0</ele><time>2026-05-02T14:48:54.992Z</time></trkpt><trkpt lat="42.1016157" lon="13.3566676"><ele>711.0</ele><time>2026-05-02T14:48:55.991Z</time></trkpt><trkpt lat="42.1017324" lon="13.3565338"><ele>712.0</ele><time>2026-05-02T14:48:56.992Z</time></trkpt><trkpt lat="42.101844" lon="13.3563939"><ele>713.0</ele><time>2026-05-02T14:48:57.992Z</time></trkpt><trkpt lat="42.1019553" lon="13.3562503"><ele>713.0</ele><time>2026-05-02T14:48:58.991Z</time></trkpt><trkpt lat="42.1020679" lon="13.3561077"><ele>713.0</ele><time>2026-05-02T14:48:59.991Z</time></trkpt><trkpt lat="42.1021807" lon="13.3559609"><ele>713.0</ele><time>2026-05-02T14:49:00.991Z</time></trkpt><trkpt lat="42.1022911" lon="13.3558127"><ele>713.0</ele><time>2026-05-02T14:49:01.992Z</time></trkpt><trkpt lat="42.1024042" lon="13.3556679"><ele>713.0</ele><time>2026-05-02T14:49:02.992Z</time></trkpt><trkpt lat="42.1025166" lon="13.3555208"><ele>713.0</ele><time>2026-05-02T14:49:03.992Z</time></trkpt><trkpt lat="42.1026258" lon="13.3553764"><ele>713.0</ele><time>2026-05-02T14:49:04.992Z</time></trkpt><trkpt lat="42.1027384" lon="13.3552318"><ele>713.0</ele><time>2026-05-02T14:49:05.992Z</time></trkpt><trkpt lat="42.1028497" lon="13.3550938"><ele>713.0</ele><time>2026-05-02T14:49:06.992Z</time></trkpt><trkpt lat="42.1029597" lon="13.3549501"><ele>713.0</ele><time>2026-05-02T14:49:07.992Z</time></trkpt><trkpt lat="42.1030725" lon="13.354806"><ele>713.0</ele><time>2026-05-02T14:49:08.992Z</time></trkpt><trkpt lat="42.1031865" lon="13.3546615"><ele>713.0</ele><time>2026-05-02T14:49:09.991Z</time></trkpt><trkpt lat="42.1033001" lon="13.3545171"><ele>716.3333333333333</ele><time>2026-05-02T14:49:10.992Z</time></trkpt><trkpt lat="42.1034143" lon="13.354372"><ele>719.6666666666666</ele><time>2026-05-02T14:49:11.992Z</time></trkpt><trkpt lat="42.1035246" lon="13.3542234"><ele>723.0</ele><time>2026-05-02T14:49:12.992Z</time></trkpt><trkpt lat="42.1036324" lon="13.3540744"><ele>723.0</ele><time>2026-05-02T14:49:13.992Z</time></trkpt><trkpt lat="42.1037439" lon="13.3539259"><ele>723.0</ele><time>2026-05-02T14:49:14.992Z</time></trkpt><trkpt lat="42.1038552" lon="13.3537798"><ele>723.0</ele><time>2026-05-02T14:49:15.992Z</time></trkpt><trkpt lat="42.1039645" lon="13.3536276"><ele>724.6666666666666</ele><time>2026-05-02T14:49:16.992Z</time></trkpt><trkpt lat="42.1040786" lon="13.3534812"><ele>726.3333333333333</ele><time>2026-05-02T14:49:17.992Z</time></trkpt><trkpt lat="42.1041971" lon="13.353345"><ele>728.0</ele><time>2026-05-02T14:49:18.992Z</time></trkpt><trkpt lat="42.1043206" lon="13.3532256"><ele>728.6666666666666</ele><time>2026-05-02T14:49:19.992Z</time></trkpt><trkpt lat="42.10445" lon="13.3531205"><ele>729.3333333333334</ele><time>2026-05-02T14:49:20.991Z</time></trkpt><trkpt lat="42.1045827" lon="13.3530196"><ele>730.0</ele><time>2026-05-02T14:49:21.991Z</time></trkpt><trkpt lat="42.1047162" lon="13.352909"><ele>731.0</ele><time>2026-05-02T14:49:22.992Z</time></trkpt><trkpt lat="42.1048494" lon="13.3527954"><ele>732.0</ele><time>2026-05-02T14:49:23.992Z</time></trkpt><trkpt lat="42.1049849" lon="13.3526839"><ele>733.0</ele><time>2026-05-02T14:49:24.991Z</time></trkpt><trkpt lat="42.1051214" lon="13.3525741"><ele>735.3333333333334</ele><time>2026-05-02T14:49:25.992Z</time></trkpt><trkpt lat="42.1052555" lon="13.3524629"><ele>737.6666666666666</ele><time>2026-05-02T14:49:26.991Z</time></trkpt><trkpt lat="42.1053894" lon="13.3523534"><ele>740.0</ele><time>2026-05-02T14:49:27.992Z</time></trkpt><trkpt lat="42.1055278" lon="13.3522467"><ele>739.6666666666666</ele><time>2026-05-02T14:49:28.992Z</time></trkpt><trkpt lat="42.1056642" lon="13.3521383"><ele>739.3333333333334</ele><time>2026-05-02T14:49:29.991Z</time></trkpt><trkpt lat="42.1058003" lon="13.3520265"><ele>739.0</ele><time>2026-05-02T14:49:30.992Z</time></trkpt><trkpt lat="42.1059336" lon="13.3519147"><ele>740.25</ele><time>2026-05-02T14:49:31.991Z</time></trkpt><trkpt lat="42.1060642" lon="13.3518039"><ele>741.5</ele><time>2026-05-02T14:49:32.992Z</time></trkpt><trkpt lat="42.1061817" lon="13.351703"><ele>742.75</ele><time>2026-05-02T14:49:33.992Z</time></trkpt><trkpt lat="42.1062903" lon="13.3516133"><ele>744.0</ele><time>2026-05-02T14:49:34.991Z</time></trkpt><trkpt lat="42.1063896" lon="13.3515315"><ele>744.0</ele><time>2026-05-02T14:49:35.992Z</time></trkpt><trkpt lat="42.1064899" lon="13.3514753"><ele>744.0</ele><time>2026-05-02T14:49:36.992Z</time></trkpt><trkpt lat="42.1065882" lon="13.3514193"><ele>744.0</ele><time>2026-05-02T14:49:37.992Z</time></trkpt><trkpt lat="42.1066832" lon="13.3513717"><ele>744.0</ele><time>2026-05-02T14:49:38.992Z</time></trkpt><trkpt lat="42.1067659" lon="13.3513339"><ele>744.0</ele><time>2026-05-02T14:49:39.992Z</time></trkpt><trkpt lat="42.106845" lon="13.3512977"><ele>744.5</ele><time>2026-05-02T14:49:40.992Z</time></trkpt><trkpt lat="42.106901" lon="13.3512476"><ele>745.0</ele><time>2026-05-02T14:49:41.992Z</time></trkpt><trkpt lat="42.1069428" lon="13.3511774"><ele>745.5</ele><time>2026-05-02T14:49:42.992Z</time></trkpt><trkpt lat="42.1069835" lon="13.3510904"><ele>746.0</ele><time>2026-05-02T14:49:43.992Z</time></trkpt><trkpt lat="42.1069901" lon="13.3509688"><ele>746.5</ele><time>2026-05-02T14:49:44.992Z</time></trkpt><trkpt lat="42.1070142" lon="13.3508403"><ele>747.0</ele><time>2026-05-02T14:49:45.992Z</time></trkpt><trkpt lat="42.107039" lon="13.3507018"><ele>747.0</ele><time>2026-05-02T14:49:46.992Z</time></trkpt><trkpt lat="42.1070614" lon="13.3505598"><ele>747.0</ele><time>2026-05-02T14:49:47.992Z</time></trkpt><trkpt lat="42.1070796" lon="13.3504306"><ele>747.0</ele><time>2026-05-02T14:49:48.992Z</time></trkpt><trkpt lat="42.1070999" lon="13.3503124"><ele>747.0</ele><time>2026-05-02T14:49:49.992Z</time></trkpt><trkpt lat="42.1071219" lon="13.3501976"><ele>747.0</ele><time>2026-05-02T14:49:50.992Z</time></trkpt><trkpt lat="42.1071602" lon="13.3500916"><ele>747.3333333333334</ele><time>2026-05-02T14:49:51.992Z</time></trkpt><trkpt lat="42.1072114" lon="13.3499939"><ele>747.6666666666666</ele><time>2026-05-02T14:49:52.991Z</time></trkpt><trkpt lat="42.1072715" lon="13.3498907"><ele>748.0</ele><time>2026-05-02T14:49:53.992Z</time></trkpt><trkpt lat="42.1073326" lon="13.3497953"><ele>748.3333333333333</ele><time>2026-05-02T14:49:54.992Z</time></trkpt><trkpt lat="42.1073906" lon="13.3497098"><ele>748.6666666666666</ele><time>2026-05-02T14:49:55.992Z</time></trkpt><trkpt lat="42.1074445" lon="13.3496313"><ele>749.0</ele><time>2026-05-02T14:49:56.992Z</time></trkpt><trkpt lat="42.1074926" lon="13.3495595"><ele>749.2857142857143</ele><time>2026-05-02T14:49:57.992Z</time></trkpt><trkpt lat="42.1075423" lon="13.349495"><ele>749.5714285714286</ele><time>2026-05-02T14:49:58.992Z</time></trkpt><trkpt lat="42.1075931" lon="13.3494302"><ele>749.8571428571429</ele><time>2026-05-02T14:49:59.992Z</time></trkpt><trkpt lat="42.1076438" lon="13.3493683"><ele>750.1428571428571</ele><time>2026-05-02T14:50:00.992Z</time></trkpt><trkpt lat="42.1076934" lon="13.3492932"><ele>750.4285714285714</ele><time>2026-05-02T14:50:01.992Z</time></trkpt><trkpt lat="42.1077314" lon="13.3492059"><ele>750.7142857142858</ele><time>2026-05-02T14:50:02.992Z</time></trkpt><trkpt lat="42.1077567" lon="13.3491027"><ele>751.0</ele><time>2026-05-02T14:50:03.991Z</time></trkpt><trkpt lat="42.1077806" lon="13.3489909"><ele>751.0</ele><time>2026-05-02T14:50:04.992Z</time></trkpt><trkpt lat="42.107795" lon="13.3488626"><ele>751.0</ele><time>2026-05-02T14:50:05.992Z</time></trkpt><trkpt lat="42.1078177" lon="13.3487274"><ele>751.0</ele><time>2026-05-02T14:50:06.992Z</time></trkpt><trkpt lat="42.1078447" lon="13.3485859"><ele>751.0</ele><time>2026-05-02T14:50:07.992Z</time></trkpt><trkpt lat="42.1078679" lon="13.3484319"><ele>751.0</ele><time>2026-05-02T14:50:08.992Z</time></trkpt><trkpt lat="42.1078881" lon="13.3482807"><ele>751.0</ele><time>2026-05-02T14:50:09.991Z</time></trkpt><trkpt lat="42.1079066" lon="13.3481416"><ele>751.0</ele><time>2026-05-02T14:50:10.992Z</time></trkpt><trkpt lat="42.1079193" lon="13.3480121"><ele>751.0</ele><time>2026-05-02T14:50:11.992Z</time></trkpt><trkpt lat="42.107925" lon="13.3479157"><ele>751.0</ele><time>2026-05-02T14:50:12.992Z</time></trkpt><trkpt lat="42.1079468" lon="13.347782"><ele>751.0</ele><time>2026-05-02T14:50:14.992Z</time></trkpt><trkpt lat="42.1080184" lon="13.3477322"><ele>751.4</ele><time>2026-05-02T14:50:17.992Z</time></trkpt><trkpt lat="42.1080853" lon="13.3476839"><ele>751.8</ele><time>2026-05-02T14:50:23.991Z</time></trkpt><trkpt lat="42.1081476" lon="13.3476492"><ele>752.1999999999999</ele><time>2026-05-02T14:50:24.992Z</time></trkpt><trkpt lat="42.1082286" lon="13.3476072"><ele>752.5999999999999</ele><time>2026-05-02T14:50:25.991Z</time></trkpt><trkpt lat="42.1083302" lon="13.3475546"><ele>753.0</ele><time>2026-05-02T14:50:26.992Z</time></trkpt><trkpt lat="42.1084528" lon="13.3474925"><ele>754.6666666666666</ele><time>2026-05-02T14:50:27.992Z</time></trkpt><trkpt lat="42.1085924" lon="13.3474303"><ele>756.3333333333333</ele><time>2026-05-02T14:50:28.992Z</time></trkpt><trkpt lat="42.1087442" lon="13.3473692"><ele>758.0</ele><time>2026-05-02T14:50:29.991Z</time></trkpt><trkpt lat="42.1089117" lon="13.3473148"><ele>760.3333333333333</ele><time>2026-05-02T14:50:30.992Z</time></trkpt><trkpt lat="42.1090911" lon="13.3472638"><ele>762.6666666666666</ele><time>2026-05-02T14:50:31.991Z</time></trkpt><trkpt lat="42.1092822" lon="13.3472108"><ele>765.0</ele><time>2026-05-02T14:50:32.992Z</time></trkpt><trkpt lat="42.1094827" lon="13.3471586"><ele>765.0</ele><time>2026-05-02T14:50:33.992Z</time></trkpt><trkpt lat="42.1096906" lon="13.3471068"><ele>765.0</ele><time>2026-05-02T14:50:34.992Z</time></trkpt><trkpt lat="42.1099034" lon="13.3470486"><ele>765.0</ele><time>2026-05-02T14:50:35.992Z</time></trkpt><trkpt lat="42.1101177" lon="13.3469876"><ele>767.6666666666667</ele><time>2026-05-02T14:50:36.992Z</time></trkpt><trkpt lat="42.1103311" lon="13.3469202"><ele>770.3333333333334</ele><time>2026-05-02T14:50:37.992Z</time></trkpt><trkpt lat="42.1105429" lon="13.3468434"><ele>773.0</ele><time>2026-05-02T14:50:38.992Z</time></trkpt><trkpt lat="42.1107535" lon="13.346753"><ele>774.6666666666667</ele><time>2026-05-02T14:50:39.992Z</time></trkpt><trkpt lat="42.1109636" lon="13.3466591"><ele>776.3333333333333</ele><time>2026-05-02T14:50:40.992Z</time></trkpt><trkpt lat="42.1111761" lon="13.3465656"><ele>778.0</ele><time>2026-05-02T14:50:41.992Z</time></trkpt><trkpt lat="42.1113876" lon="13.3464748"><ele>780.0</ele><time>2026-05-02T14:50:42.992Z</time></trkpt><trkpt lat="42.1115997" lon="13.3463812"><ele>782.0</ele><time>2026-05-02T14:50:43.992Z</time></trkpt><trkpt lat="42.1118102" lon="13.3462819"><ele>784.0</ele><time>2026-05-02T14:50:44.992Z</time></trkpt><trkpt lat="42.1120158" lon="13.346173"><ele>784.3333333333333</ele><time>2026-05-02T14:50:45.992Z</time></trkpt><trkpt lat="42.1122218" lon="13.346057"><ele>784.6666666666667</ele><time>2026-05-02T14:50:46.992Z</time></trkpt><trkpt lat="42.1124228" lon="13.3459342"><ele>785.0</ele><time>2026-05-02T14:50:47.992Z</time></trkpt><trkpt lat="42.1126211" lon="13.345802"><ele>786.0</ele><time>2026-05-02T14:50:48.992Z</time></trkpt><trkpt lat="42.1128169" lon="13.3456619"><ele>787.0</ele><time>2026-05-02T14:50:49.992Z</time></trkpt><trkpt lat="42.1130112" lon="13.3455215"><ele>788.0</ele><time>2026-05-02T14:50:50.992Z</time></trkpt><trkpt lat="42.1132057" lon="13.3453861"><ele>791.3333333333334</ele><time>2026-05-02T14:50:51.992Z</time></trkpt><trkpt lat="42.1133975" lon="13.3452532"><ele>794.6666666666667</ele><time>2026-05-02T14:50:52.991Z</time></trkpt><trkpt lat="42.1135817" lon="13.3451201"><ele>798.0</ele><time>2026-05-02T14:50:53.992Z</time></trkpt><trkpt lat="42.1137639" lon="13.3449902"><ele>798.0</ele><time>2026-05-02T14:50:54.992Z</time></trkpt><trkpt lat="42.1139432" lon="13.3448647"><ele>798.0</ele><time>2026-05-02T14:50:55.992Z</time></trkpt><trkpt lat="42.1141239" lon="13.344755"><ele>798.0</ele><time>2026-05-02T14:50:56.992Z</time></trkpt><trkpt lat="42.1143067" lon="13.3446616"><ele>800.0</ele><time>2026-05-02T14:50:57.992Z</time></trkpt><trkpt lat="42.1144939" lon="13.3445932"><ele>802.0</ele><time>2026-05-02T14:50:58.992Z</time></trkpt><trkpt lat="42.1146836" lon="13.3445528"><ele>804.0</ele><time>2026-05-02T14:50:59.992Z</time></trkpt><trkpt lat="42.114875" lon="13.3445253"><ele>805.3333333333333</ele><time>2026-05-02T14:51:00.992Z</time></trkpt><trkpt lat="42.1150738" lon="13.3445065"><ele>806.6666666666666</ele><time>2026-05-02T14:51:01.992Z</time></trkpt><trkpt lat="42.1152733" lon="13.3444869"><ele>808.0</ele><time>2026-05-02T14:51:02.992Z</time></trkpt><trkpt lat="42.1154716" lon="13.344466"><ele>808.0</ele><time>2026-05-02T14:51:03.992Z</time></trkpt><trkpt lat="42.1156698" lon="13.3444432"><ele>808.0</ele><time>2026-05-02T14:51:04.992Z</time></trkpt><trkpt lat="42.1158657" lon="13.3444152"><ele>808.0</ele><time>2026-05-02T14:51:05.991Z</time></trkpt><trkpt lat="42.1160618" lon="13.344389"><ele>808.6666666666666</ele><time>2026-05-02T14:51:06.992Z</time></trkpt><trkpt lat="42.1162591" lon="13.3443586"><ele>809.3333333333333</ele><time>2026-05-02T14:51:07.992Z</time></trkpt><trkpt lat="42.1164565" lon="13.3443262"><ele>810.0</ele><time>2026-05-02T14:51:08.992Z</time></trkpt><trkpt lat="42.1166518" lon="13.3442975"><ele>813.0</ele><time>2026-05-02T14:51:09.992Z</time></trkpt><trkpt lat="42.1168486" lon="13.344271"><ele>816.0</ele><time>2026-05-02T14:51:10.991Z</time></trkpt><trkpt lat="42.1170435" lon="13.3442454"><ele>819.0</ele><time>2026-05-02T14:51:11.992Z</time></trkpt><trkpt lat="42.1172377" lon="13.3442224"><ele>821.3333333333333</ele><time>2026-05-02T14:51:12.991Z</time></trkpt><trkpt lat="42.1174306" lon="13.3441949"><ele>823.6666666666666</ele><time>2026-05-02T14:51:13.992Z</time></trkpt><trkpt lat="42.1176176" lon="13.3441707"><ele>826.0</ele><time>2026-05-02T14:51:14.992Z</time></trkpt><trkpt lat="42.1178061" lon="13.3441553"><ele>826.0</ele><time>2026-05-02T14:51:15.992Z</time></trkpt><trkpt lat="42.1179929" lon="13.3441473"><ele>826.0</ele><time>2026-05-02T14:51:16.992Z</time></trkpt><trkpt lat="42.1181781" lon="13.3441566"><ele>826.0</ele><time>2026-05-02T14:51:17.992Z</time></trkpt><trkpt lat="42.1183621" lon="13.344178"><ele>827.3333333333333</ele><time>2026-05-02T14:51:18.992Z</time></trkpt><trkpt lat="42.1185455" lon="13.3442065"><ele>828.6666666666667</ele><time>2026-05-02T14:51:19.992Z</time></trkpt><trkpt lat="42.1187322" lon="13.3442265"><ele>830.0</ele><time>2026-05-02T14:51:20.992Z</time></trkpt><trkpt lat="42.118915" lon="13.3442449"><ele>833.0</ele><time>2026-05-02T14:51:21.992Z</time></trkpt><trkpt lat="42.1191009" lon="13.3442587"><ele>836.0</ele><time>2026-05-02T14:51:22.992Z</time></trkpt><trkpt lat="42.1192847" lon="13.3442749"><ele>839.0</ele><time>2026-05-02T14:51:23.992Z</time></trkpt><trkpt lat="42.1194696" lon="13.3442798"><ele>839.0</ele><time>2026-05-02T14:51:24.992Z</time></trkpt><trkpt lat="42.1196523" lon="13.3442704"><ele>839.0</ele><time>2026-05-02T14:51:25.992Z</time></trkpt><trkpt lat="42.1198354" lon="13.3442448"><ele>839.0</ele><time>2026-05-02T14:51:26.992Z</time></trkpt><trkpt lat="42.1200157" lon="13.3442047"><ele>841.3333333333334</ele><time>2026-05-02T14:51:27.992Z</time></trkpt><trkpt lat="42.1201927" lon="13.3441495"><ele>843.6666666666667</ele><time>2026-05-02T14:51:28.991Z</time></trkpt><trkpt lat="42.1203686" lon="13.3440911"><ele>846.0</ele><time>2026-05-02T14:51:29.992Z</time></trkpt><trkpt lat="42.1205446" lon="13.344031"><ele>846.0</ele><time>2026-05-02T14:51:30.992Z</time></trkpt><trkpt lat="42.1207211" lon="13.3439693"><ele>846.0</ele><time>2026-05-02T14:51:31.991Z</time></trkpt><trkpt lat="42.1208943" lon="13.3439133"><ele>846.0</ele><time>2026-05-02T14:51:32.992Z</time></trkpt><trkpt lat="42.1210644" lon="13.3438525"><ele>848.25</ele><time>2026-05-02T14:51:33.992Z</time></trkpt><trkpt lat="42.1212195" lon="13.3437882"><ele>850.5</ele><time>2026-05-02T14:51:34.992Z</time></trkpt><trkpt lat="42.1213572" lon="13.3437104"><ele>852.75</ele><time>2026-05-02T14:51:35.992Z</time></trkpt><trkpt lat="42.1214683" lon="13.3436118"><ele>855.0</ele><time>2026-05-02T14:51:36.992Z</time></trkpt><trkpt lat="42.1215592" lon="13.3435039"><ele>857.5</ele><time>2026-05-02T14:51:37.991Z</time></trkpt><trkpt lat="42.1216233" lon="13.3433795"><ele>860.0</ele><time>2026-05-02T14:51:38.992Z</time></trkpt><trkpt lat="42.1216628" lon="13.3432338"><ele>862.5</ele><time>2026-05-02T14:51:39.992Z</time></trkpt><trkpt lat="42.1216742" lon="13.3430792"><ele>865.0</ele><time>2026-05-02T14:51:40.991Z</time></trkpt><trkpt lat="42.1216653" lon="13.3429178"><ele>866.5</ele><time>2026-05-02T14:51:41.991Z</time></trkpt><trkpt lat="42.1216549" lon="13.3427566"><ele>868.0</ele><time>2026-05-02T14:51:42.991Z</time></trkpt><trkpt lat="42.1216415" lon="13.3425922"><ele>869.5</ele><time>2026-05-02T14:51:43.992Z</time></trkpt><trkpt lat="42.1216262" lon="13.3424335"><ele>871.0</ele><time>2026-05-02T14:51:44.992Z</time></trkpt><trkpt lat="42.1216081" lon="13.3422733"><ele>873.25</ele><time>2026-05-02T14:51:45.992Z</time></trkpt><trkpt lat="42.1215819" lon="13.3421115"><ele>875.5</ele><time>2026-05-02T14:51:46.992Z</time></trkpt><trkpt lat="42.1215471" lon="13.3419472"><ele>877.75</ele><time>2026-05-02T14:51:47.992Z</time></trkpt><trkpt lat="42.1215118" lon="13.3417762"><ele>880.0</ele><time>2026-05-02T14:51:48.992Z</time></trkpt><trkpt lat="42.1214884" lon="13.3415981"><ele>876.25</ele><time>2026-05-02T14:51:49.992Z</time></trkpt><trkpt lat="42.1214763" lon="13.3414145"><ele>872.5</ele><time>2026-05-02T14:51:50.992Z</time></trkpt><trkpt lat="42.121477" lon="13.3412249"><ele>868.75</ele><time>2026-05-02T14:51:51.992Z</time></trkpt><trkpt lat="42.1214742" lon="13.3410321"><ele>865.0</ele><time>2026-05-02T14:51:52.992Z</time></trkpt><trkpt lat="42.1214673" lon="13.3408343"><ele>865.0</ele><time>2026-05-02T14:51:53.992Z</time></trkpt><trkpt lat="42.1214595" lon="13.3406344"><ele>865.0</ele><time>2026-05-02T14:51:54.992Z</time></trkpt><trkpt lat="42.1214475" lon="13.3404321"><ele>865.0</ele><time>2026-05-02T14:51:55.992Z</time></trkpt><trkpt lat="42.1214346" lon="13.34023"><ele>865.0</ele><time>2026-05-02T14:51:56.991Z</time></trkpt><trkpt lat="42.1214171" lon="13.3400406"><ele>867.5</ele><time>2026-05-02T14:51:57.992Z</time></trkpt><trkpt lat="42.1213922" lon="13.3398677"><ele>870.0</ele><time>2026-05-02T14:51:58.992Z</time></trkpt><trkpt lat="42.1213567" lon="13.3397033"><ele>872.5</ele><time>2026-05-02T14:51:59.992Z</time></trkpt><trkpt lat="42.121308" lon="13.3395413"><ele>875.0</ele><time>2026-05-02T14:52:00.992Z</time></trkpt><trkpt lat="42.1212464" lon="13.3393818"><ele>878.75</ele><time>2026-05-02T14:52:01.992Z</time></trkpt><trkpt lat="42.1211783" lon="13.3392265"><ele>882.5</ele><time>2026-05-02T14:52:02.992Z</time></trkpt><trkpt lat="42.1211167" lon="13.3390798"><ele>886.25</ele><time>2026-05-02T14:52:03.992Z</time></trkpt><trkpt lat="42.1210611" lon="13.3389426"><ele>890.0</ele><time>2026-05-02T14:52:04.992Z</time></trkpt><trkpt lat="42.1210086" lon="13.3388145"><ele>892.3333333333334</ele><time>2026-05-02T14:52:05.992Z</time></trkpt><trkpt lat="42.1209599" lon="13.3387006"><ele>894.6666666666667</ele><time>2026-05-02T14:52:06.992Z</time></trkpt><trkpt lat="42.1209007" lon="13.3386112"><ele>897.0</ele><time>2026-05-02T14:52:07.992Z</time></trkpt><trkpt lat="42.1208317" lon="13.3385631"><ele>899.3333333333333</ele><time>2026-05-02T14:52:08.992Z</time></trkpt><trkpt lat="42.1207567" lon="13.3385682"><ele>901.6666666666666</ele><time>2026-05-02T14:52:09.992Z</time></trkpt><trkpt lat="42.1206867" lon="13.3386246"><ele>904.0</ele><time>2026-05-02T14:52:10.992Z</time></trkpt><trkpt lat="42.1206242" lon="13.3387193"><ele>903.0</ele><time>2026-05-02T14:52:11.992Z</time></trkpt><trkpt lat="42.120558" lon="13.3388356"><ele>902.0000000000001</ele><time>2026-05-02T14:52:12.991Z</time></trkpt><trkpt lat="42.1204804" lon="13.3389405"><ele>901.0000000000001</ele><time>2026-05-02T14:52:13.992Z</time></trkpt><trkpt lat="42.1203941" lon="13.3390416"><ele>900.0</ele><time>2026-05-02T14:52:14.992Z</time></trkpt><trkpt lat="42.120313" lon="13.3391323"><ele>899.0</ele><time>2026-05-02T14:52:15.992Z</time></trkpt><trkpt lat="42.120232" lon="13.3392086"><ele>899.0</ele><time>2026-05-02T14:52:16.991Z</time></trkpt><trkpt lat="42.1201446" lon="13.3392592"><ele>899.0000000000001</ele><time>2026-05-02T14:52:17.992Z</time></trkpt><trkpt lat="42.1200516" lon="13.3392826"><ele>899.0000000000001</ele><time>2026-05-02T14:52:18.992Z</time></trkpt><trkpt lat="42.119946" lon="13.3392727"><ele>899.0</ele><time>2026-05-02T14:52:19.992Z</time></trkpt><trkpt lat="42.1198328" lon="13.33925"><ele>899.0</ele><time>2026-05-02T14:52:20.992Z</time></trkpt><trkpt lat="42.1197091" lon="13.3392278"><ele>900.0</ele><time>2026-05-02T14:52:21.992Z</time></trkpt><trkpt lat="42.1195814" lon="13.339204"><ele>901.0</ele><time>2026-05-02T14:52:22.992Z</time></trkpt><trkpt lat="42.1194543" lon="13.3391842"><ele>902.0</ele><time>2026-05-02T14:52:23.992Z</time></trkpt><trkpt lat="42.119327" lon="13.3391648"><ele>903.0</ele><time>2026-05-02T14:52:24.992Z</time></trkpt><trkpt lat="42.1191973" lon="13.3391471"><ele>903.75</ele><time>2026-05-02T14:52:25.992Z</time></trkpt><trkpt lat="42.1190669" lon="13.339138"><ele>904.5</ele><time>2026-05-02T14:52:26.992Z</time></trkpt><trkpt lat="42.1189365" lon="13.3391402"><ele>905.25</ele><time>2026-05-02T14:52:27.992Z</time></trkpt><trkpt lat="42.1188193" lon="13.3391441"><ele>906.0</ele><time>2026-05-02T14:52:28.992Z</time></trkpt><trkpt lat="42.1187187" lon="13.3391507"><ele>906.0</ele><time>2026-05-02T14:52:29.992Z</time></trkpt><trkpt lat="42.1186291" lon="13.3391592"><ele>906.0</ele><time>2026-05-02T14:52:30.992Z</time></trkpt><trkpt lat="42.1185408" lon="13.3391702"><ele>906.0</ele><time>2026-05-02T14:52:31.992Z</time></trkpt><trkpt lat="42.1184581" lon="13.3391826"><ele>906.0</ele><time>2026-05-02T14:52:32.992Z</time></trkpt><trkpt lat="42.1183718" lon="13.3391775"><ele>906.0</ele><time>2026-05-02T14:52:33.992Z</time></trkpt><trkpt lat="42.1182915" lon="13.3391609"><ele>906.0</ele><time>2026-05-02T14:52:34.992Z</time></trkpt><trkpt lat="42.1182146" lon="13.3391453"><ele>905.5999999999999</ele><time>2026-05-02T14:52:35.992Z</time></trkpt><trkpt lat="42.1181142" lon="13.3391151"><ele>905.1999999999999</ele><time>2026-05-02T14:52:37.992Z</time></trkpt><trkpt lat="42.1180623" lon="13.3390253"><ele>904.8000000000001</ele><time>2026-05-02T14:52:40.992Z</time></trkpt><trkpt lat="42.1180671" lon="13.3389186"><ele>904.4000000000001</ele><time>2026-05-02T14:52:44.992Z</time></trkpt><trkpt lat="42.1180811" lon="13.3388284"><ele>904.0</ele><time>2026-05-02T14:52:46.992Z</time></trkpt><trkpt lat="42.1180867" lon="13.3386683"><ele>902.1666666666666</ele><time>2026-05-02T14:52:48.992Z</time></trkpt><trkpt lat="42.1180867" lon="13.3385827"><ele>900.3333333333333</ele><time>2026-05-02T14:52:49.991Z</time></trkpt><trkpt lat="42.11809" lon="13.3384505"><ele>898.5</ele><time>2026-05-02T14:52:51.991Z</time></trkpt><trkpt lat="42.1180897" lon="13.338351"><ele>896.6666666666667</ele><time>2026-05-02T14:52:53.992Z</time></trkpt><trkpt lat="42.118095" lon="13.3382607"><ele>894.8333333333334</ele><time>2026-05-02T14:52:55.992Z</time></trkpt><trkpt lat="42.1181055" lon="13.3381367"><ele>893.0</ele><time>2026-05-02T14:52:57.992Z</time></trkpt><trkpt lat="42.1181708" lon="13.3379781"><ele>890.4</ele><time>2026-05-02T14:52:59.992Z</time></trkpt><trkpt lat="42.118221" lon="13.3378913"><ele>887.8</ele><time>2026-05-02T14:53:00.992Z</time></trkpt><trkpt lat="42.1182773" lon="13.3377979"><ele>885.2</ele><time>2026-05-02T14:53:01.992Z</time></trkpt><trkpt lat="42.118339" lon="13.3377004"><ele>882.6</ele><time>2026-05-02T14:53:02.992Z</time></trkpt><trkpt lat="42.1184052" lon="13.3375922"><ele>880.0</ele><time>2026-05-02T14:53:03.991Z</time></trkpt><trkpt lat="42.1184825" lon="13.3374876"><ele>883.0</ele><time>2026-05-02T14:53:04.992Z</time></trkpt><trkpt lat="42.1185684" lon="13.3373797"><ele>886.0</ele><time>2026-05-02T14:53:05.992Z</time></trkpt><trkpt lat="42.1186634" lon="13.337272"><ele>889.0</ele><time>2026-05-02T14:53:06.992Z</time></trkpt><trkpt lat="42.1187639" lon="13.3371637"><ele>892.0</ele><time>2026-05-02T14:53:07.992Z</time></trkpt><trkpt lat="42.1188684" lon="13.3370568"><ele>892.0</ele><time>2026-05-02T14:53:08.992Z</time></trkpt><trkpt lat="42.1189695" lon="13.336952"><ele>892.0</ele><time>2026-05-02T14:53:09.992Z</time></trkpt><trkpt lat="42.1190672" lon="13.3368478"><ele>892.0</ele><time>2026-05-02T14:53:10.992Z</time></trkpt><trkpt lat="42.119159" lon="13.3367392"><ele>892.0</ele><time>2026-05-02T14:53:11.992Z</time></trkpt><trkpt lat="42.1192463" lon="13.336625"><ele>895.25</ele><time>2026-05-02T14:53:12.992Z</time></trkpt><trkpt lat="42.1193296" lon="13.3365085"><ele>898.5</ele><time>2026-05-02T14:53:13.992Z</time></trkpt><trkpt lat="42.1194182" lon="13.3364067"><ele>901.75</ele><time>2026-05-02T14:53:14.991Z</time></trkpt><trkpt lat="42.1195122" lon="13.3363144"><ele>905.0</ele><time>2026-05-02T14:53:15.992Z</time></trkpt><trkpt lat="42.1196108" lon="13.3362384"><ele>905.0</ele><time>2026-05-02T14:53:16.992Z</time></trkpt><trkpt lat="42.1197179" lon="13.3361665"><ele>905.0</ele><time>2026-05-02T14:53:17.991Z</time></trkpt><trkpt lat="42.1198288" lon="13.3360963"><ele>905.0</ele><time>2026-05-02T14:53:18.992Z</time></trkpt><trkpt lat="42.1199386" lon="13.3360149"><ele>905.0</ele><time>2026-05-02T14:53:19.991Z</time></trkpt><trkpt lat="42.120041" lon="13.335915"><ele>910.8</ele><time>2026-05-02T14:53:20.992Z</time></trkpt><trkpt lat="42.1201345" lon="13.3358069"><ele>916.6</ele><time>2026-05-02T14:53:21.992Z</time></trkpt><trkpt lat="42.1202168" lon="13.3357119"><ele>922.4000000000001</ele><time>2026-05-02T14:53:22.992Z</time></trkpt><trkpt lat="42.1202923" lon="13.3356374"><ele>928.2</ele><time>2026-05-02T14:53:23.992Z</time></trkpt><trkpt lat="42.1203625" lon="13.3355891"><ele>934.0</ele><time>2026-05-02T14:53:24.992Z</time></trkpt><trkpt lat="42.1204304" lon="13.3355542"><ele>931.9999999999999</ele><time>2026-05-02T14:53:25.992Z</time></trkpt><trkpt lat="42.1204885" lon="13.3355192"><ele>930.0</ele><time>2026-05-02T14:53:26.992Z</time></trkpt><trkpt lat="42.1205735" lon="13.3354482"><ele>928.0</ele><time>2026-05-02T14:53:28.992Z</time></trkpt><trkpt lat="42.1206477" lon="13.3353394"><ele>926.0</ele><time>2026-05-02T14:53:30.992Z</time></trkpt><trkpt lat="42.1206858" lon="13.3352606"><ele>923.9999999999999</ele><time>2026-05-02T14:53:31.991Z</time></trkpt><trkpt lat="42.1207167" lon="13.335185"><ele>922.0</ele><time>2026-05-02T14:53:32.992Z</time></trkpt><trkpt lat="42.1207516" lon="13.3351112"><ele>926.6666666666666</ele><time>2026-05-02T14:53:33.992Z</time></trkpt><trkpt lat="42.1207877" lon="13.3350355"><ele>931.3333333333333</ele><time>2026-05-02T14:53:34.991Z</time></trkpt><trkpt lat="42.1208232" lon="13.3349577"><ele>936.0</ele><time>2026-05-02T14:53:35.992Z</time></trkpt><trkpt lat="42.1208582" lon="13.3348813"><ele>940.6666666666667</ele><time>2026-05-02T14:53:36.992Z</time></trkpt><trkpt lat="42.1208926" lon="13.3348043"><ele>945.3333333333334</ele><time>2026-05-02T14:53:37.992Z</time></trkpt><trkpt lat="42.1209587" lon="13.3346629"><ele>950.0</ele><time>2026-05-02T14:53:39.992Z</time></trkpt><trkpt lat="42.1210234" lon="13.3345262"><ele>950.0</ele><time>2026-05-02T14:53:41.992Z</time></trkpt><trkpt lat="42.121086" lon="13.3343876"><ele>950.0</ele><time>2026-05-02T14:53:43.992Z</time></trkpt><trkpt lat="42.121139" lon="13.3342365"><ele>950.0</ele><time>2026-05-02T14:53:45.992Z</time></trkpt><trkpt lat="42.1211679" lon="13.3340788"><ele>950.0</ele><time>2026-05-02T14:53:47.992Z</time></trkpt><trkpt lat="42.121162" lon="13.3339321"><ele>951.8333333333334</ele><time>2026-05-02T14:53:49.991Z</time></trkpt><trkpt lat="42.121123" lon="13.3337903"><ele>953.6666666666667</ele><time>2026-05-02T14:53:51.992Z</time></trkpt><trkpt lat="42.1210836" lon="13.3337211"><ele>955.5</ele><time>2026-05-02T14:53:52.992Z</time></trkpt><trkpt lat="42.1210311" lon="13.3336476"><ele>957.3333333333333</ele><time>2026-05-02T14:53:53.991Z</time></trkpt><trkpt lat="42.1209672" lon="13.33358"><ele>959.1666666666666</ele><time>2026-05-02T14:53:54.991Z</time></trkpt><trkpt lat="42.1208947" lon="13.3335369"><ele>961.0</ele><time>2026-05-02T14:53:55.991Z</time></trkpt><trkpt lat="42.1208151" lon="13.3335199"><ele>958.9999999999999</ele><time>2026-05-02T14:53:56.992Z</time></trkpt><trkpt lat="42.1207277" lon="13.3335205"><ele>957.0</ele><time>2026-05-02T14:53:57.992Z</time></trkpt><trkpt lat="42.1206384" lon="13.3335502"><ele>955.0</ele><time>2026-05-02T14:53:58.992Z</time></trkpt><trkpt lat="42.1205543" lon="13.3335924"><ele>953.0</ele><time>2026-05-02T14:53:59.992Z</time></trkpt><trkpt lat="42.1204786" lon="13.3336252"><ele>950.9999999999999</ele><time>2026-05-02T14:54:00.992Z</time></trkpt><trkpt lat="42.1204093" lon="13.3336316"><ele>949.0</ele><time>2026-05-02T14:54:01.992Z</time></trkpt><trkpt lat="42.1203048" lon="13.3335669"><ele>949.0</ele><time>2026-05-02T14:54:03.992Z</time></trkpt><trkpt lat="42.1202897" lon="13.3333906"><ele>949.0</ele><time>2026-05-02T14:54:05.992Z</time></trkpt><trkpt lat="42.1202984" lon="13.3332625"><ele>949.0</ele><time>2026-05-02T14:54:06.992Z</time></trkpt><trkpt lat="42.1203096" lon="13.3331145"><ele>949.0</ele><time>2026-05-02T14:54:07.991Z</time></trkpt><trkpt lat="42.1203172" lon="13.3329545"><ele>952.2</ele><time>2026-05-02T14:54:08.992Z</time></trkpt><trkpt lat="42.1203199" lon="13.3327905"><ele>955.4000000000001</ele><time>2026-05-02T14:54:09.992Z</time></trkpt><trkpt lat="42.1203206" lon="13.3326328"><ele>958.6</ele><time>2026-05-02T14:54:10.992Z</time></trkpt><trkpt lat="42.1203117" lon="13.3324933"><ele>961.8</ele><time>2026-05-02T14:54:11.992Z</time></trkpt><trkpt lat="42.1202963" lon="13.3323666"><ele>965.0</ele><time>2026-05-02T14:54:12.992Z</time></trkpt><trkpt lat="42.1202754" lon="13.3322469"><ele>966.5000000000001</ele><time>2026-05-02T14:54:13.992Z</time></trkpt><trkpt lat="42.1202444" lon="13.332137"><ele>968.0</ele><time>2026-05-02T14:54:14.992Z</time></trkpt><trkpt lat="42.1202038" lon="13.3320288"><ele>969.5</ele><time>2026-05-02T14:54:15.992Z</time></trkpt><trkpt lat="42.1201616" lon="13.3319184"><ele>971.0</ele><time>2026-05-02T14:54:16.992Z</time></trkpt><trkpt lat="42.120136" lon="13.3317972"><ele>972.5000000000001</ele><time>2026-05-02T14:54:17.992Z</time></trkpt><trkpt lat="42.1201299" lon="13.3316836"><ele>974.0</ele><time>2026-05-02T14:54:18.992Z</time></trkpt><trkpt lat="42.1201435" lon="13.33159"><ele>974.0000000000001</ele><time>2026-05-02T14:54:19.992Z</time></trkpt><trkpt lat="42.1201796" lon="13.3315098"><ele>974.0</ele><time>2026-05-02T14:54:20.992Z</time></trkpt><trkpt lat="42.1202359" lon="13.3314516"><ele>974.0</ele><time>2026-05-02T14:54:21.992Z</time></trkpt><trkpt lat="42.1203077" lon="13.3314143"><ele>974.0</ele><time>2026-05-02T14:54:22.992Z</time></trkpt><trkpt lat="42.1203854" lon="13.3313908"><ele>974.0000000000001</ele><time>2026-05-02T14:54:23.992Z</time></trkpt><trkpt lat="42.1204639" lon="13.3313629"><ele>974.0</ele><time>2026-05-02T14:54:24.992Z</time></trkpt><trkpt lat="42.1205461" lon="13.3313229"><ele>974.4000000000001</ele><time>2026-05-02T14:54:25.992Z</time></trkpt><trkpt lat="42.120631" lon="13.3312898"><ele>974.8000000000001</ele><time>2026-05-02T14:54:26.992Z</time></trkpt><trkpt lat="42.1207168" lon="13.3312564"><ele>975.1999999999999</ele><time>2026-05-02T14:54:27.992Z</time></trkpt><trkpt lat="42.1208082" lon="13.3312144"><ele>975.5999999999999</ele><time>2026-05-02T14:54:28.992Z</time></trkpt><trkpt lat="42.1209134" lon="13.3311651"><ele>976.0</ele><time>2026-05-02T14:54:29.992Z</time></trkpt><trkpt lat="42.1210205" lon="13.3311142"><ele>977.1999999999999</ele><time>2026-05-02T14:54:30.992Z</time></trkpt><trkpt lat="42.1211271" lon="13.3310674"><ele>978.3999999999999</ele><time>2026-05-02T14:54:31.992Z</time></trkpt><trkpt lat="42.121227" lon="13.331024"><ele>979.6</ele><time>2026-05-02T14:54:32.992Z</time></trkpt><trkpt lat="42.12132" lon="13.3309856"><ele>980.8</ele><time>2026-05-02T14:54:33.992Z</time></trkpt><trkpt lat="42.1214102" lon="13.3309474"><ele>982.0</ele><time>2026-05-02T14:54:34.992Z</time></trkpt><trkpt lat="42.1214943" lon="13.3309117"><ele>983.3333333333333</ele><time>2026-05-02T14:54:35.991Z</time></trkpt><trkpt lat="42.1215726" lon="13.3308753"><ele>984.6666666666666</ele><time>2026-05-02T14:54:36.992Z</time></trkpt><trkpt lat="42.1216469" lon="13.330845"><ele>986.0</ele><time>2026-05-02T14:54:37.992Z</time></trkpt><trkpt lat="42.1217251" lon="13.3308221"><ele>987.3333333333333</ele><time>2026-05-02T14:54:38.992Z</time></trkpt><trkpt lat="42.1217997" lon="13.3308138"><ele>988.6666666666666</ele><time>2026-05-02T14:54:39.991Z</time></trkpt><trkpt lat="42.1218774" lon="13.3308065"><ele>990.0</ele><time>2026-05-02T14:54:40.991Z</time></trkpt><trkpt lat="42.1219625" lon="13.3307996"><ele>990.0</ele><time>2026-05-02T14:54:41.992Z</time></trkpt><trkpt lat="42.1220381" lon="13.3307963"><ele>990.0</ele><time>2026-05-02T14:54:42.992Z</time></trkpt><trkpt lat="42.122119" lon="13.3307923"><ele>990.0</ele><time>2026-05-02T14:54:43.992Z</time></trkpt><trkpt lat="42.1222016" lon="13.330782"><ele>990.0</ele><time>2026-05-02T14:54:44.991Z</time></trkpt><trkpt lat="42.1222847" lon="13.3307625"><ele>990.0</ele><time>2026-05-02T14:54:45.992Z</time></trkpt><trkpt lat="42.1223691" lon="13.3307379"><ele>990.0</ele><time>2026-05-02T14:54:46.991Z</time></trkpt><trkpt lat="42.122447" lon="13.3306977"><ele>991.6666666666666</ele><time>2026-05-02T14:54:47.992Z</time></trkpt><trkpt lat="42.122519" lon="13.3306424"><ele>993.3333333333333</ele><time>2026-05-02T14:54:48.992Z</time></trkpt><trkpt lat="42.1225824" lon="13.3305783"><ele>995.0</ele><time>2026-05-02T14:54:49.992Z</time></trkpt><trkpt lat="42.1226481" lon="13.3305067"><ele>996.6666666666666</ele><time>2026-05-02T14:54:50.992Z</time></trkpt><trkpt lat="42.122716" lon="13.3304319"><ele>998.3333333333333</ele><time>2026-05-02T14:54:51.991Z</time></trkpt><trkpt lat="42.1227888" lon="13.3303602"><ele>1000.0</ele><time>2026-05-02T14:54:52.991Z</time></trkpt><trkpt lat="42.1228595" lon="13.3302948"><ele>999.9999999999999</ele><time>2026-05-02T14:54:53.992Z</time></trkpt><trkpt lat="42.122935" lon="13.3302345"><ele>1000.0</ele><time>2026-05-02T14:54:54.992Z</time></trkpt><trkpt lat="42.1230129" lon="13.3301748"><ele>1000.0</ele><time>2026-05-02T14:54:55.992Z</time></trkpt><trkpt lat="42.1230907" lon="13.3301193"><ele>1000.0</ele><time>2026-05-02T14:54:56.992Z</time></trkpt><trkpt lat="42.1231692" lon="13.3300685"><ele>999.9999999999999</ele><time>2026-05-02T14:54:57.992Z</time></trkpt><trkpt lat="42.1232488" lon="13.3300231"><ele>1000.0</ele><time>2026-05-02T14:54:58.992Z</time></trkpt><trkpt lat="42.1233121" lon="13.3299898"><ele>1001.6</ele><time>2026-05-02T14:54:59.992Z</time></trkpt><trkpt lat="42.1234188" lon="13.3299549"><ele>1003.2</ele><time>2026-05-02T14:55:01.991Z</time></trkpt><trkpt lat="42.1235159" lon="13.3299218"><ele>1004.8</ele><time>2026-05-02T14:55:03.992Z</time></trkpt><trkpt lat="42.1236184" lon="13.3298852"><ele>1006.4</ele><time>2026-05-02T14:55:05.992Z</time></trkpt><trkpt lat="42.1237367" lon="13.3298242"><ele>1008.0</ele><time>2026-05-02T14:55:07.992Z</time></trkpt><trkpt lat="42.1237994" lon="13.3297861"><ele>1008.0</ele><time>2026-05-02T14:55:08.991Z</time></trkpt><trkpt lat="42.1238649" lon="13.3297469"><ele>1008.0</ele><time>2026-05-02T14:55:09.992Z</time></trkpt><trkpt lat="42.1239324" lon="13.3297048"><ele>1008.0</ele><time>2026-05-02T14:55:10.992Z</time></trkpt><trkpt lat="42.1240008" lon="13.32966"><ele>1008.0</ele><time>2026-05-02T14:55:11.992Z</time></trkpt><trkpt lat="42.1240697" lon="13.329614"><ele>1008.0</ele><time>2026-05-02T14:55:12.992Z</time></trkpt><trkpt lat="42.1241376" lon="13.3295616"><ele>1008.0</ele><time>2026-05-02T14:55:13.992Z</time></trkpt><trkpt lat="42.1242004" lon="13.329497"><ele>1009.5</ele><time>2026-05-02T14:55:14.992Z</time></trkpt><trkpt lat="42.1242584" lon="13.3294187"><ele>1011.0</ele><time>2026-05-02T14:55:15.991Z</time></trkpt><trkpt lat="42.1243122" lon="13.3293356"><ele>1012.5</ele><time>2026-05-02T14:55:16.992Z</time></trkpt><trkpt lat="42.1243577" lon="13.3292638"><ele>1014.0</ele><time>2026-05-02T14:55:17.992Z</time></trkpt><trkpt lat="42.1244037" lon="13.3292027"><ele>1015.5</ele><time>2026-05-02T14:55:18.991Z</time></trkpt><trkpt lat="42.124455" lon="13.3291478"><ele>1017.0</ele><time>2026-05-02T14:55:19.992Z</time></trkpt><trkpt lat="42.124556" lon="13.3290725"><ele>1017.0</ele><time>2026-05-02T14:55:21.992Z</time></trkpt><trkpt lat="42.1246522" lon="13.3290259"><ele>1017.0</ele><time>2026-05-02T14:55:23.992Z</time></trkpt><trkpt lat="42.1247631" lon="13.3290041"><ele>1017.0</ele><time>2026-05-02T14:55:25.992Z</time></trkpt><trkpt lat="42.1248652" lon="13.3290218"><ele>1017.0</ele><time>2026-05-02T14:55:27.992Z</time></trkpt><trkpt lat="42.1249732" lon="13.3290586"><ele>1017.0</ele><time>2026-05-02T14:55:29.992Z</time></trkpt><trkpt lat="42.1250738" lon="13.3290772"><ele>1019.0</ele><time>2026-05-02T14:55:31.992Z</time></trkpt><trkpt lat="42.1251475" lon="13.3290763"><ele>1020.9999999999999</ele><time>2026-05-02T14:56:04.992Z</time></trkpt><trkpt lat="42.1252096" lon="13.3291043"><ele>1023.0</ele><time>2026-05-02T14:56:13.991Z</time></trkpt><trkpt lat="42.1252811" lon="13.3291368"><ele>1025.0</ele><time>2026-05-02T14:56:19.991Z</time></trkpt><trkpt lat="42.1253456" lon="13.3291701"><ele>1027.0</ele><time>2026-05-02T14:56:25.992Z</time></trkpt><trkpt lat="42.1254113" lon="13.3292109"><ele>1029.0</ele><time>2026-05-02T14:56:29.992Z</time></trkpt><trkpt lat="42.1254705" lon="13.3292478"><ele>1031.0</ele><time>2026-05-02T14:56:32.992Z</time></trkpt><trkpt lat="42.1255303" lon="13.3292902"><ele>1031.0</ele><time>2026-05-02T14:56:35.992Z</time></trkpt><trkpt lat="42.1255985" lon="13.3293422"><ele>1031.0</ele><time>2026-05-02T14:56:38.992Z</time></trkpt><trkpt lat="42.1256777" lon="13.3294035"><ele>1031.0</ele><time>2026-05-02T14:56:41.991Z</time></trkpt><trkpt lat="42.1257422" lon="13.329445"><ele>1031.0</ele><time>2026-05-02T14:56:43.991Z</time></trkpt><trkpt lat="42.1258113" lon="13.329497"><ele>1031.0</ele><time>2026-05-02T14:56:45.991Z</time></trkpt><trkpt lat="42.1258667" lon="13.329542"><ele>1031.0</ele><time>2026-05-02T14:56:47.992Z</time></trkpt><trkpt lat="42.1259411" lon="13.3295888"><ele>1033.142857142857</ele><time>2026-05-02T14:56:50.991Z</time></trkpt><trkpt lat="42.1259905" lon="13.3296428"><ele>1035.2857142857142</ele><time>2026-05-02T15:04:10.982Z</time></trkpt><trkpt lat="42.1260488" lon="13.3296785"><ele>1037.4285714285713</ele><time>2026-05-02T15:04:18.982Z</time></trkpt><trkpt lat="42.1261106" lon="13.3297038"><ele>1039.5714285714284</ele><time>2026-05-02T15:04:27.982Z</time></trkpt><trkpt lat="42.1261727" lon="13.3297226"><ele>1041.7142857142858</ele><time>2026-05-02T15:04:34.981Z</time></trkpt><trkpt lat="42.1262402" lon="13.3297348"><ele>1043.8571428571427</ele><time>2026-05-02T15:04:43.982Z</time></trkpt><trkpt lat="42.126311" lon="13.3297385"><ele>1046.0</ele><time>2026-05-02T15:04:55.982Z</time></trkpt><trkpt lat="42.1263747" lon="13.3297349"><ele>1047.142857142857</ele><time>2026-05-02T15:05:08.982Z</time></trkpt><trkpt lat="42.1264436" lon="13.3297336"><ele>1048.2857142857142</ele><time>2026-05-02T15:05:17.981Z</time></trkpt><trkpt lat="42.1265066" lon="13.3297357"><ele>1049.4285714285716</ele><time>2026-05-02T15:05:24.982Z</time></trkpt><trkpt lat="42.12657" lon="13.3297406"><ele>1050.5714285714284</ele><time>2026-05-02T15:05:33.982Z</time></trkpt><trkpt lat="42.1266384" lon="13.3297422"><ele>1051.7142857142858</ele><time>2026-05-02T15:05:44.982Z</time></trkpt><trkpt lat="42.1267032" lon="13.3297715"><ele>1052.857142857143</ele><time>2026-05-02T15:05:53.982Z</time></trkpt><trkpt lat="42.126767" lon="13.3297858"><ele>1054.0</ele><time>2026-05-02T15:06:03.982Z</time></trkpt><trkpt lat="42.1268326" lon="13.3297834"><ele>1055.4285714285716</ele><time>2026-05-02T15:06:13.982Z</time></trkpt><trkpt lat="42.1268996" lon="13.3297908"><ele>1056.857142857143</ele><time>2026-05-02T15:06:25.982Z</time></trkpt><trkpt lat="42.1269667" lon="13.3298111"><ele>1058.2857142857142</ele><time>2026-05-02T15:06:35.982Z</time></trkpt><trkpt lat="42.1270289" lon="13.3298438"><ele>1059.7142857142858</ele><time>2026-05-02T15:06:47.982Z</time></trkpt><trkpt lat="42.1270921" lon="13.3298692"><ele>1061.142857142857</ele><time>2026-05-02T15:06:54.981Z</time></trkpt><trkpt lat="42.1271597" lon="13.3298959"><ele>1062.5714285714287</ele><time>2026-05-02T15:07:01.982Z</time></trkpt><trkpt lat="42.1272343" lon="13.3299314"><ele>1064.0</ele><time>2026-05-02T15:07:08.982Z</time></trkpt><trkpt lat="42.1273298" lon="13.3299801"><ele>1065.3333333333335</ele><time>2026-05-02T15:07:11.982Z</time></trkpt><trkpt lat="42.1274111" lon="13.3300332"><ele>1066.6666666666667</ele><time>2026-05-02T15:07:13.982Z</time></trkpt><trkpt lat="42.1274988" lon="13.3300865"><ele>1068.0</ele><time>2026-05-02T15:07:15.982Z</time></trkpt><trkpt lat="42.1275787" lon="13.3301347"><ele>1069.3333333333333</ele><time>2026-05-02T15:07:17.982Z</time></trkpt><trkpt lat="42.1276381" lon="13.3301851"><ele>1070.6666666666665</ele><time>2026-05-02T15:07:20.981Z</time></trkpt><trkpt lat="42.1277096" lon="13.3302323"><ele>1072.0</ele><time>2026-05-02T15:10:58.982Z</time></trkpt><trkpt lat="42.1278047" lon="13.3302347"><ele>1072.0</ele><time>2026-05-02T15:11:01.982Z</time></trkpt><trkpt lat="42.1278791" lon="13.3302308"><ele>1072.0</ele><time>2026-05-02T15:11:03.982Z</time></trkpt><trkpt lat="42.1279506" lon="13.3302215"><ele>1072.0</ele><time>2026-05-02T15:11:05.982Z</time></trkpt><trkpt lat="42.1280196" lon="13.3302051"><ele>1072.0</ele><time>2026-05-02T15:11:07.982Z</time></trkpt><trkpt lat="42.1280846" lon="13.3301847"><ele>1072.0</ele><time>2026-05-02T15:11:09.982Z</time></trkpt><trkpt lat="42.1281464" lon="13.3301591"><ele>1072.0</ele><time>2026-05-02T15:11:11.982Z</time></trkpt><trkpt lat="42.1282298" lon="13.3301195"><ele>1072.0</ele><time>2026-05-02T15:11:14.982Z</time></trkpt><trkpt lat="42.128297" lon="13.3300986"><ele>1071.3333333333333</ele><time>2026-05-02T15:11:17.982Z</time></trkpt><trkpt lat="42.1283702" lon="13.3300602"><ele>1070.6666666666665</ele><time>2026-05-02T15:11:21.982Z</time></trkpt><trkpt lat="42.1284359" lon="13.3300134"><ele>1070.0</ele><time>2026-05-02T15:24:11.982Z</time></trkpt><trkpt lat="42.128504" lon="13.3299646"><ele>1069.3333333333333</ele><time>2026-05-02T15:24:13.982Z</time></trkpt><trkpt lat="42.1285999" lon="13.3299096"><ele>1068.6666666666667</ele><time>2026-05-02T15:24:15.982Z</time></trkpt><trkpt lat="42.1286605" lon="13.3298735"><ele>1068.0</ele><time>2026-05-02T15:24:16.982Z</time></trkpt><trkpt lat="42.128727" lon="13.329831"><ele>1068.0</ele><time>2026-05-02T15:24:17.982Z</time></trkpt><trkpt lat="42.1287967" lon="13.3297798"><ele>1068.0</ele><time>2026-05-02T15:24:18.982Z</time></trkpt><trkpt lat="42.1288731" lon="13.3297225"><ele>1068.0</ele><time>2026-05-02T15:24:19.982Z</time></trkpt><trkpt lat="42.1289551" lon="13.3296615"><ele>1068.0</ele><time>2026-05-02T15:24:20.982Z</time></trkpt><trkpt lat="42.1290421" lon="13.3295955"><ele>1068.0</ele><time>2026-05-02T15:24:21.982Z</time></trkpt><trkpt lat="42.1291267" lon="13.3295357"><ele>1067.2</ele><time>2026-05-02T15:24:22.981Z</time></trkpt><trkpt lat="42.1292089" lon="13.3294756"><ele>1066.4</ele><time>2026-05-02T15:24:23.982Z</time></trkpt><trkpt lat="42.1292917" lon="13.3294087"><ele>1065.6000000000001</ele><time>2026-05-02T15:24:24.982Z</time></trkpt><trkpt lat="42.1293769" lon="13.3293289"><ele>1064.8</ele><time>2026-05-02T15:24:25.982Z</time></trkpt><trkpt lat="42.129463" lon="13.3292397"><ele>1064.0</ele><time>2026-05-02T15:24:26.982Z</time></trkpt><trkpt lat="42.1295474" lon="13.3291416"><ele>1064.0</ele><time>2026-05-02T15:24:27.981Z</time></trkpt><trkpt lat="42.1296333" lon="13.3290432"><ele>1064.0</ele><time>2026-05-02T15:24:28.982Z</time></trkpt><trkpt lat="42.1297136" lon="13.3289374"><ele>1064.0</ele><time>2026-05-02T15:24:29.982Z</time></trkpt><trkpt lat="42.1297878" lon="13.3288297"><ele>1064.0</ele><time>2026-05-02T15:24:30.982Z</time></trkpt><trkpt lat="42.1298509" lon="13.3287263"><ele>1064.0</ele><time>2026-05-02T15:24:31.982Z</time></trkpt><trkpt lat="42.1299054" lon="13.3286324"><ele>1063.6000000000001</ele><time>2026-05-02T15:24:32.982Z</time></trkpt><trkpt lat="42.1299571" lon="13.3285496"><ele>1063.2</ele><time>2026-05-02T15:24:33.982Z</time></trkpt><trkpt lat="42.1300065" lon="13.3284744"><ele>1062.8000000000002</ele><time>2026-05-02T15:24:34.982Z</time></trkpt><trkpt lat="42.1300539" lon="13.3284088"><ele>1062.4</ele><time>2026-05-02T15:24:35.981Z</time></trkpt><trkpt lat="42.1301417" lon="13.328297"><ele>1062.0</ele><time>2026-05-02T15:24:37.981Z</time></trkpt><trkpt lat="42.130215" lon="13.3281523"><ele>1062.0</ele><time>2026-05-02T15:24:39.982Z</time></trkpt><trkpt lat="42.1302492" lon="13.3280685"><ele>1062.0</ele><time>2026-05-02T15:24:40.981Z</time></trkpt><trkpt lat="42.1302813" lon="13.3279818"><ele>1062.0</ele><time>2026-05-02T15:24:41.981Z</time></trkpt><trkpt lat="42.1303142" lon="13.3278945"><ele>1062.0</ele><time>2026-05-02T15:24:42.982Z</time></trkpt><trkpt lat="42.130351" lon="13.3278084"><ele>1062.0</ele><time>2026-05-02T15:24:43.982Z</time></trkpt><trkpt lat="42.1303849" lon="13.3277265"><ele>1062.0</ele><time>2026-05-02T15:24:44.982Z</time></trkpt><trkpt lat="42.130407" lon="13.327641"><ele>1062.0</ele><time>2026-05-02T15:24:45.982Z</time></trkpt><trkpt lat="42.1304173" lon="13.3275448"><ele>1062.4</ele><time>2026-05-02T15:24:46.982Z</time></trkpt><trkpt lat="42.1304193" lon="13.3274388"><ele>1062.8000000000002</ele><time>2026-05-02T15:24:47.982Z</time></trkpt><trkpt lat="42.1304197" lon="13.3273212"><ele>1063.2</ele><time>2026-05-02T15:24:48.982Z</time></trkpt><trkpt lat="42.1304229" lon="13.3271903"><ele>1063.6000000000001</ele><time>2026-05-02T15:24:49.982Z</time></trkpt><trkpt lat="42.1304347" lon="13.3270516"><ele>1064.0</ele><time>2026-05-02T15:24:50.982Z</time></trkpt><trkpt lat="42.1304563" lon="13.3269179"><ele>1065.2</ele><time>2026-05-02T15:24:51.982Z</time></trkpt><trkpt lat="42.1304831" lon="13.3267897"><ele>1066.4</ele><time>2026-05-02T15:24:52.982Z</time></trkpt><trkpt lat="42.1305095" lon="13.3266673"><ele>1067.6</ele><time>2026-05-02T15:24:53.982Z</time></trkpt><trkpt lat="42.1305262" lon="13.3265474"><ele>1068.8</ele><time>2026-05-02T15:24:54.982Z</time></trkpt><trkpt lat="42.1305347" lon="13.3264234"><ele>1070.0</ele><time>2026-05-02T15:24:55.982Z</time></trkpt><trkpt lat="42.1305442" lon="13.326301"><ele>1071.5</ele><time>2026-05-02T15:24:56.982Z</time></trkpt><trkpt lat="42.1305537" lon="13.3261822"><ele>1073.0</ele><time>2026-05-02T15:24:57.982Z</time></trkpt><trkpt lat="42.1305621" lon="13.3260589"><ele>1074.5</ele><time>2026-05-02T15:24:58.982Z</time></trkpt><trkpt lat="42.1305682" lon="13.3259377"><ele>1076.0</ele><time>2026-05-02T15:24:59.982Z</time></trkpt><trkpt lat="42.130567" lon="13.325819"><ele>1077.5</ele><time>2026-05-02T15:25:00.982Z</time></trkpt><trkpt lat="42.1305607" lon="13.3257008"><ele>1079.0</ele><time>2026-05-02T15:25:01.981Z</time></trkpt><trkpt lat="42.1305641" lon="13.3255938"><ele>1079.8333333333335</ele><time>2026-05-02T15:25:02.982Z</time></trkpt><trkpt lat="42.1305793" lon="13.3254906"><ele>1080.6666666666667</ele><time>2026-05-02T15:25:03.982Z</time></trkpt><trkpt lat="42.1305972" lon="13.3253927"><ele>1081.5</ele><time>2026-05-02T15:25:04.982Z</time></trkpt><trkpt lat="42.1306067" lon="13.3253047"><ele>1082.3333333333333</ele><time>2026-05-02T15:25:05.982Z</time></trkpt><trkpt lat="42.1305953" lon="13.3251492"><ele>1083.1666666666665</ele><time>2026-05-02T15:25:07.982Z</time></trkpt><trkpt lat="42.1305748" lon="13.325059"><ele>1084.0</ele><time>2026-05-02T15:25:08.982Z</time></trkpt><trkpt lat="42.1305503" lon="13.3249692"><ele>1084.0</ele><time>2026-05-02T15:25:09.982Z</time></trkpt><trkpt lat="42.130534" lon="13.3248835"><ele>1084.0</ele><time>2026-05-02T15:25:10.982Z</time></trkpt><trkpt lat="42.1305377" lon="13.3247103"><ele>1084.0</ele><time>2026-05-02T15:25:12.982Z</time></trkpt><trkpt lat="42.1305524" lon="13.3246242"><ele>1084.0</ele><time>2026-05-02T15:25:13.982Z</time></trkpt><trkpt lat="42.1305986" lon="13.3244822"><ele>1084.0</ele><time>2026-05-02T15:25:15.982Z</time></trkpt><trkpt lat="42.1306867" lon="13.3243793"><ele>1084.0</ele><time>2026-05-02T15:25:17.982Z</time></trkpt><trkpt lat="42.1307314" lon="13.3242718"><ele>1084.0</ele><time>2026-05-02T15:25:19.982Z</time></trkpt><trkpt lat="42.1307342" lon="13.3240922"><ele>1084.0</ele><time>2026-05-02T15:25:21.982Z</time></trkpt><trkpt lat="42.1307236" lon="13.3239965"><ele>1084.0</ele><time>2026-05-02T15:25:22.982Z</time></trkpt><trkpt lat="42.1307098" lon="13.3239103"><ele>1084.0</ele><time>2026-05-02T15:25:23.982Z</time></trkpt><trkpt lat="42.1307033" lon="13.3237524"><ele>1084.6666666666665</ele><time>2026-05-02T15:25:25.982Z</time></trkpt><trkpt lat="42.130712" lon="13.3236598"><ele>1085.3333333333333</ele><time>2026-05-02T15:25:26.982Z</time></trkpt><trkpt lat="42.1307271" lon="13.3235534"><ele>1086.0</ele><time>2026-05-02T15:25:27.982Z</time></trkpt><trkpt lat="42.1307473" lon="13.3234366"><ele>1086.6666666666667</ele><time>2026-05-02T15:25:28.982Z</time></trkpt><trkpt lat="42.1307696" lon="13.3233175"><ele>1087.3333333333335</ele><time>2026-05-02T15:25:29.982Z</time></trkpt><trkpt lat="42.1307941" lon="13.3231924"><ele>1088.0</ele><time>2026-05-02T15:25:30.982Z</time></trkpt><trkpt lat="42.1308206" lon="13.3230616"><ele>1086.1666666666667</ele><time>2026-05-02T15:25:31.982Z</time></trkpt><trkpt lat="42.1308487" lon="13.3229386"><ele>1084.3333333333335</ele><time>2026-05-02T15:25:32.982Z</time></trkpt><trkpt lat="42.1308765" lon="13.3228211"><ele>1082.5</ele><time>2026-05-02T15:25:33.982Z</time></trkpt><trkpt lat="42.1309016" lon="13.3227067"><ele>1080.6666666666667</ele><time>2026-05-02T15:25:34.982Z</time></trkpt><trkpt lat="42.130928" lon="13.3225974"><ele>1078.8333333333333</ele><time>2026-05-02T15:25:35.982Z</time></trkpt><trkpt lat="42.1309511" lon="13.3224945"><ele>1077.0</ele><time>2026-05-02T15:25:36.982Z</time></trkpt><trkpt lat="42.1309655" lon="13.3223878"><ele>1077.0</ele><time>2026-05-02T15:25:37.982Z</time></trkpt><trkpt lat="42.1309679" lon="13.3222758"><ele>1077.0</ele><time>2026-05-02T15:25:38.982Z</time></trkpt><trkpt lat="42.1309625" lon="13.3221542"><ele>1077.0</ele><time>2026-05-02T15:25:39.982Z</time></trkpt><trkpt lat="42.1309519" lon="13.3220319"><ele>1077.0</ele><time>2026-05-02T15:25:40.982Z</time></trkpt><trkpt lat="42.1309378" lon="13.3219077"><ele>1077.0</ele><time>2026-05-02T15:25:41.981Z</time></trkpt><trkpt lat="42.1309246" lon="13.3217812"><ele>1077.0</ele><time>2026-05-02T15:25:42.982Z</time></trkpt><trkpt lat="42.1309173" lon="13.3216543"><ele>1077.0</ele><time>2026-05-02T15:25:43.982Z</time></trkpt><trkpt lat="42.1309157" lon="13.3215315"><ele>1077.0</ele><time>2026-05-02T15:25:44.982Z</time></trkpt><trkpt lat="42.1309125" lon="13.3214121"><ele>1077.0</ele><time>2026-05-02T15:25:45.982Z</time></trkpt><trkpt lat="42.1309063" lon="13.3212909"><ele>1077.0</ele><time>2026-05-02T15:25:46.982Z</time></trkpt><trkpt lat="42.1309003" lon="13.3211689"><ele>1076.6666666666667</ele><time>2026-05-02T15:25:47.981Z</time></trkpt><trkpt lat="42.1308933" lon="13.3210474"><ele>1076.3333333333333</ele><time>2026-05-02T15:25:48.982Z</time></trkpt><trkpt lat="42.130885" lon="13.3209255"><ele>1076.0</ele><time>2026-05-02T15:25:49.981Z</time></trkpt><trkpt lat="42.1308759" lon="13.3208066"><ele>1075.6666666666665</ele><time>2026-05-02T15:25:50.982Z</time></trkpt><trkpt lat="42.1308668" lon="13.3206962"><ele>1075.3333333333333</ele><time>2026-05-02T15:25:51.982Z</time></trkpt><trkpt lat="42.1308604" lon="13.3205955"><ele>1075.0</ele><time>2026-05-02T15:25:52.982Z</time></trkpt><trkpt lat="42.130857" lon="13.3205007"><ele>1075.0</ele><time>2026-05-02T15:25:53.982Z</time></trkpt><trkpt lat="42.1308635" lon="13.3203508"><ele>1075.0</ele><time>2026-05-02T15:25:55.982Z</time></trkpt><trkpt lat="42.130898" lon="13.3202551"><ele>1075.0</ele><time>2026-05-02T15:25:57.982Z</time></trkpt><trkpt lat="42.1309412" lon="13.3201753"><ele>1075.0</ele><time>2026-05-02T15:25:59.982Z</time></trkpt><trkpt lat="42.1309753" lon="13.3200837"><ele>1075.0</ele><time>2026-05-02T15:26:02.982Z</time></trkpt><trkpt lat="42.1309726" lon="13.3199988"><ele>1075.0</ele><time>2026-05-02T15:26:05.982Z</time></trkpt><trkpt lat="42.13095" lon="13.319891"><ele>1075.0</ele><time>2026-05-02T15:26:08.982Z</time></trkpt><trkpt lat="42.130956" lon="13.3197874"><ele>1075.0</ele><time>2026-05-02T15:26:10.982Z</time></trkpt><trkpt lat="42.1309749" lon="13.3197013"><ele>1075.0</ele><time>2026-05-02T15:26:12.982Z</time></trkpt><trkpt lat="42.1310144" lon="13.3196154"><ele>1075.0</ele><time>2026-05-02T15:26:14.982Z</time></trkpt><trkpt lat="42.1310384" lon="13.3195356"><ele>1075.0</ele><time>2026-05-02T15:26:16.982Z</time></trkpt><trkpt lat="42.1310701" lon="13.3194408"><ele>1075.0</ele><time>2026-05-02T15:26:19.982Z</time></trkpt><trkpt lat="42.1311338" lon="13.3193376"><ele>1075.4</ele><time>2026-05-02T15:26:22.981Z</time></trkpt><trkpt lat="42.1311943" lon="13.3193001"><ele>1075.8</ele><time>2026-05-02T15:26:24.982Z</time></trkpt><trkpt lat="42.1312583" lon="13.3191978"><ele>1076.2</ele><time>2026-05-02T15:26:26.981Z</time></trkpt><trkpt lat="42.1313094" lon="13.3190569"><ele>1076.6</ele><time>2026-05-02T15:26:28.982Z</time></trkpt><trkpt lat="42.1313391" lon="13.3189321"><ele>1077.0</ele><time>2026-05-02T15:26:30.982Z</time></trkpt><trkpt lat="42.131376" lon="13.3188164"><ele>1075.8</ele><time>2026-05-02T15:26:32.982Z</time></trkpt><trkpt lat="42.1314103" lon="13.3187021"><ele>1074.6</ele><time>2026-05-02T15:26:34.981Z</time></trkpt><trkpt lat="42.1314488" lon="13.3185923"><ele>1073.3999999999999</ele><time>2026-05-02T15:26:36.982Z</time></trkpt><trkpt lat="42.1314938" lon="13.3184732"><ele>1072.2</ele><time>2026-05-02T15:26:38.982Z</time></trkpt><trkpt lat="42.1315437" lon="13.3183712"><ele>1071.0</ele><time>2026-05-02T15:26:40.982Z</time></trkpt><trkpt lat="42.1316231" lon="13.3182866"><ele>1069.2</ele><time>2026-05-02T15:26:42.982Z</time></trkpt><trkpt lat="42.1317069" lon="13.3181979"><ele>1067.3999999999999</ele><time>2026-05-02T15:26:44.982Z</time></trkpt><trkpt lat="42.1317972" lon="13.318083"><ele>1065.6</ele><time>2026-05-02T15:26:46.982Z</time></trkpt><trkpt lat="42.131841" lon="13.3180207"><ele>1063.8</ele><time>2026-05-02T15:26:47.982Z</time></trkpt><trkpt lat="42.1318981" lon="13.3178787"><ele>1062.0</ele><time>2026-05-02T15:26:49.981Z</time></trkpt><trkpt lat="42.1319109" lon="13.317789"><ele>1061.0</ele><time>2026-05-02T15:26:50.982Z</time></trkpt><trkpt lat="42.1319449" lon="13.3176546"><ele>1060.0</ele><time>2026-05-02T15:26:52.982Z</time></trkpt><trkpt lat="42.1319952" lon="13.3175191"><ele>1059.0</ele><time>2026-05-02T15:26:54.982Z</time></trkpt><trkpt lat="42.1320281" lon="13.3174393"><ele>1058.0</ele><time>2026-05-02T15:26:55.982Z</time></trkpt><trkpt lat="42.1320635" lon="13.3173644"><ele>1057.0</ele><time>2026-05-02T15:26:56.981Z</time></trkpt><trkpt lat="42.1321087" lon="13.3172905"><ele>1056.0</ele><time>2026-05-02T15:26:57.982Z</time></trkpt><trkpt lat="42.1321639" lon="13.3172124"><ele>1055.6666666666667</ele><time>2026-05-02T15:26:58.982Z</time></trkpt><trkpt lat="42.1322219" lon="13.3171336"><ele>1055.3333333333333</ele><time>2026-05-02T15:26:59.982Z</time></trkpt><trkpt lat="42.132281" lon="13.3170532"><ele>1055.0</ele><time>2026-05-02T15:27:00.982Z</time></trkpt><trkpt lat="42.1323396" lon="13.3169703"><ele>1054.6666666666665</ele><time>2026-05-02T15:27:01.981Z</time></trkpt><trkpt lat="42.1323987" lon="13.3168904"><ele>1054.3333333333333</ele><time>2026-05-02T15:27:02.982Z</time></trkpt><trkpt lat="42.1324615" lon="13.316818"><ele>1054.0</ele><time>2026-05-02T15:27:03.982Z</time></trkpt><trkpt lat="42.1325222" lon="13.3167461"><ele>1054.0</ele><time>2026-05-02T15:27:04.982Z</time></trkpt><trkpt lat="42.1325791" lon="13.3166661"><ele>1054.0</ele><time>2026-05-02T15:27:05.982Z</time></trkpt><trkpt lat="42.1326359" lon="13.3165821"><ele>1054.0</ele><time>2026-05-02T15:27:06.982Z</time></trkpt><trkpt lat="42.1326924" lon="13.3164998"><ele>1054.0</ele><time>2026-05-02T15:27:07.981Z</time></trkpt><trkpt lat="42.1327533" lon="13.3164244"><ele>1054.0</ele><time>2026-05-02T15:27:08.982Z</time></trkpt><trkpt lat="42.1328124" lon="13.3163379"><ele>1054.0</ele><time>2026-05-02T15:27:09.982Z</time></trkpt><trkpt lat="42.1328666" lon="13.3162523"><ele>1053.2</ele><time>2026-05-02T15:27:10.982Z</time></trkpt><trkpt lat="42.1329115" lon="13.3161799"><ele>1052.4</ele><time>2026-05-02T15:27:11.982Z</time></trkpt><trkpt lat="42.1329884" lon="13.3160613"><ele>1051.6</ele><time>2026-05-02T15:27:13.982Z</time></trkpt><trkpt lat="42.1330452" lon="13.3159627"><ele>1050.8</ele><time>2026-05-02T15:27:15.982Z</time></trkpt><trkpt lat="42.1330585" lon="13.315855"><ele>1050.0</ele><time>2026-05-02T15:27:17.981Z</time></trkpt><trkpt lat="42.1330669" lon="13.3157293"><ele>1050.0</ele><time>2026-05-02T15:27:19.982Z</time></trkpt><trkpt lat="42.1330843" lon="13.3156321"><ele>1050.0</ele><time>2026-05-02T15:27:21.982Z</time></trkpt><trkpt lat="42.1331176" lon="13.31554"><ele>1050.0</ele><time>2026-05-02T15:27:23.982Z</time></trkpt><trkpt lat="42.1331612" lon="13.3154709"><ele>1050.0</ele><time>2026-05-02T15:27:25.981Z</time></trkpt><trkpt lat="42.1332269" lon="13.3153942"><ele>1050.0</ele><time>2026-05-02T15:27:28.982Z</time></trkpt><trkpt lat="42.1332952" lon="13.3153178"><ele>1050.0</ele><time>2026-05-02T15:27:31.982Z</time></trkpt><trkpt lat="42.1333656" lon="13.3152392"><ele>1049.4285714285713</ele><time>2026-05-02T15:27:34.982Z</time></trkpt><trkpt lat="42.1334227" lon="13.3151888"><ele>1048.857142857143</ele><time>2026-05-02T15:27:36.982Z</time></trkpt><trkpt lat="42.1334768" lon="13.315136"><ele>1048.2857142857142</ele><time>2026-05-02T15:27:38.982Z</time></trkpt><trkpt lat="42.1335425" lon="13.3150809"><ele>1047.7142857142858</ele><time>2026-05-02T15:27:40.981Z</time></trkpt><trkpt lat="42.133598" lon="13.3150208"><ele>1047.142857142857</ele><time>2026-05-02T15:27:42.982Z</time></trkpt><trkpt lat="42.1336403" lon="13.3149518"><ele>1046.5714285714284</ele><time>2026-05-02T15:27:44.982Z</time></trkpt><trkpt lat="42.1337024" lon="13.3148569"><ele>1046.0</ele><time>2026-05-02T15:27:47.982Z</time></trkpt><trkpt lat="42.1337322" lon="13.3147524"><ele>1046.0</ele><time>2026-05-02T15:27:50.981Z</time></trkpt><trkpt lat="42.1336683" lon="13.314736"><ele>1046.0</ele><time>2026-05-02T15:27:54.982Z</time></trkpt><trkpt lat="42.1336565" lon="13.314846"><ele>1046.0</ele><time>2026-05-02T15:27:57.982Z</time></trkpt><trkpt lat="42.1336405" lon="13.3149398"><ele>1046.0</ele><time>2026-05-02T15:27:59.982Z</time></trkpt><trkpt lat="42.1336095" lon="13.3150153"><ele>1046.0</ele><time>2026-05-02T15:28:01.982Z</time></trkpt><trkpt lat="42.1335516" lon="13.3150998"><ele>1046.0</ele><time>2026-05-02T15:28:04.982Z</time></trkpt><trkpt lat="42.133476" lon="13.3151672"><ele>1046.0</ele><time>2026-05-02T15:28:07.982Z</time></trkpt><trkpt lat="42.1334144" lon="13.3152184"><ele>1046.0</ele><time>2026-05-02T15:28:09.982Z</time></trkpt><trkpt lat="42.133349" lon="13.3152771"><ele>1046.0</ele><time>2026-05-02T15:28:11.982Z</time></trkpt><trkpt lat="42.133285" lon="13.3153587"><ele>1046.0</ele><time>2026-05-02T15:28:13.982Z</time></trkpt><trkpt lat="42.1332277" lon="13.3154393"><ele>1046.0</ele><time>2026-05-02T15:28:15.982Z</time></trkpt><trkpt lat="42.1331756" lon="13.3155185"><ele>1046.0</ele><time>2026-05-02T15:28:17.982Z</time></trkpt><trkpt lat="42.1331244" lon="13.3156086"><ele>1046.3999999999999</ele><time>2026-05-02T15:28:20.981Z</time></trkpt><trkpt lat="42.1330683" lon="13.3156674"><ele>1046.8</ele><time>2026-05-02T15:28:24.981Z</time></trkpt><trkpt lat="42.1329876" lon="13.3156162"><ele>1047.1999999999998</ele><time>2026-05-02T15:28:27.982Z</time></trkpt><trkpt lat="42.1329152" lon="13.3155515"><ele>1047.6</ele><time>2026-05-02T15:28:29.982Z</time></trkpt><trkpt lat="42.1328257" lon="13.3155006"><ele>1048.0</ele><time>2026-05-02T15:28:31.982Z</time></trkpt><trkpt lat="42.1327332" lon="13.3154103"><ele>1048.0</ele><time>2026-05-02T15:28:33.982Z</time></trkpt><trkpt lat="42.132691" lon="13.3153434"><ele>1048.0</ele><time>2026-05-02T15:28:34.982Z</time></trkpt><trkpt lat="42.1326501" lon="13.3152736"><ele>1048.0</ele><time>2026-05-02T15:28:35.982Z</time></trkpt><trkpt lat="42.1326165" lon="13.3151989"><ele>1048.0</ele><time>2026-05-02T15:28:36.982Z</time></trkpt><trkpt lat="42.1325873" lon="13.3151225"><ele>1048.0</ele><time>2026-05-02T15:28:37.982Z</time></trkpt><trkpt lat="42.1325399" lon="13.3149729"><ele>1048.0</ele><time>2026-05-02T15:28:39.982Z</time></trkpt><trkpt lat="42.13249" lon="13.3148202"><ele>1048.0</ele><time>2026-05-02T15:28:41.982Z</time></trkpt><trkpt lat="42.1324647" lon="13.3147413"><ele>1048.0</ele><time>2026-05-02T15:28:42.982Z</time></trkpt><trkpt lat="42.1324331" lon="13.3146644"><ele>1048.0</ele><time>2026-05-02T15:28:43.982Z</time></trkpt><trkpt lat="42.1323945" lon="13.3145946"><ele>1048.0</ele><time>2026-05-02T15:28:44.982Z</time></trkpt><trkpt lat="42.1323474" lon="13.3145256"><ele>1048.0</ele><time>2026-05-02T15:28:45.982Z</time></trkpt><trkpt lat="42.1322955" lon="13.3144646"><ele>1048.0</ele><time>2026-05-02T15:28:46.982Z</time></trkpt><trkpt lat="42.1322433" lon="13.3144031"><ele>1048.0</ele><time>2026-05-02T15:28:47.982Z</time></trkpt><trkpt lat="42.1321898" lon="13.3143425"><ele>1048.1666666666665</ele><time>2026-05-02T15:28:48.982Z</time></trkpt><trkpt lat="42.1321367" lon="13.3142785"><ele>1048.3333333333333</ele><time>2026-05-02T15:28:49.982Z</time></trkpt><trkpt lat="42.1320837" lon="13.3142126"><ele>1048.5</ele><time>2026-05-02T15:28:50.982Z</time></trkpt><trkpt lat="42.1320335" lon="13.3141479"><ele>1048.6666666666667</ele><time>2026-05-02T15:28:51.982Z</time></trkpt><trkpt lat="42.1319868" lon="13.3140847"><ele>1048.8333333333335</ele><time>2026-05-02T15:28:52.982Z</time></trkpt><trkpt lat="42.1319407" lon="13.3140231"><ele>1049.0</ele><time>2026-05-02T15:28:53.982Z</time></trkpt><trkpt lat="42.1318705" lon="13.3138902"><ele>1049.5</ele><time>2026-05-02T15:28:55.981Z</time></trkpt><trkpt lat="42.1318368" lon="13.3137336"><ele>1050.0</ele><time>2026-05-02T15:28:57.982Z</time></trkpt><trkpt lat="42.1318355" lon="13.3136475"><ele>1050.5</ele><time>2026-05-02T15:28:58.981Z</time></trkpt><trkpt lat="42.1318347" lon="13.3135576"><ele>1051.0</ele><time>2026-05-02T15:28:59.982Z</time></trkpt><trkpt lat="42.1318356" lon="13.3134694"><ele>1051.5</ele><time>2026-05-02T15:29:00.982Z</time></trkpt><trkpt lat="42.1318374" lon="13.3133811"><ele>1052.0</ele><time>2026-05-02T15:29:01.981Z</time></trkpt><trkpt lat="42.1318381" lon="13.3132125"><ele>1052.0</ele><time>2026-05-02T15:29:03.982Z</time></trkpt><trkpt lat="42.1318372" lon="13.3131244"><ele>1052.0</ele><time>2026-05-02T15:29:04.982Z</time></trkpt><trkpt lat="42.1318359" lon="13.3130307"><ele>1052.0</ele><time>2026-05-02T15:29:05.981Z</time></trkpt><trkpt lat="42.1318406" lon="13.3129406"><ele>1052.0</ele><time>2026-05-02T15:29:06.982Z</time></trkpt><trkpt lat="42.1318509" lon="13.3128491"><ele>1052.0</ele><time>2026-05-02T15:29:07.982Z</time></trkpt><trkpt lat="42.1318673" lon="13.312758"><ele>1052.0</ele><time>2026-05-02T15:29:08.981Z</time></trkpt><trkpt lat="42.1318927" lon="13.3126712"><ele>1052.0</ele><time>2026-05-02T15:29:09.982Z</time></trkpt><trkpt lat="42.1319254" lon="13.312592"><ele>1052.6</ele><time>2026-05-02T15:29:10.982Z</time></trkpt><trkpt lat="42.1319657" lon="13.3125221"><ele>1053.2</ele><time>2026-05-02T15:29:11.981Z</time></trkpt><trkpt lat="42.1320487" lon="13.3124057"><ele>1053.8</ele><time>2026-05-02T15:29:13.982Z</time></trkpt><trkpt lat="42.1321201" lon="13.3123103"><ele>1054.4</ele><time>2026-05-02T15:29:15.982Z</time></trkpt><trkpt lat="42.1321629" lon="13.312219"><ele>1055.0</ele><time>2026-05-02T15:29:17.982Z</time></trkpt><trkpt lat="42.1322084" lon="13.3120884"><ele>1057.0</ele><time>2026-05-02T15:29:19.982Z</time></trkpt><trkpt lat="42.1322981" lon="13.3120146"><ele>1059.0</ele><time>2026-05-02T15:29:21.982Z</time></trkpt><trkpt lat="42.132347" lon="13.3119272"><ele>1061.0</ele><time>2026-05-02T15:29:23.982Z</time></trkpt><trkpt lat="42.1323921" lon="13.3118115"><ele>1063.0</ele><time>2026-05-02T15:29:25.982Z</time></trkpt><trkpt lat="42.1324772" lon="13.3117227"><ele>1065.0</ele><time>2026-05-02T15:29:27.981Z</time></trkpt><trkpt lat="42.1325671" lon="13.3116532"><ele>1061.8</ele><time>2026-05-02T15:29:29.982Z</time></trkpt><trkpt lat="42.1326588" lon="13.3116017"><ele>1058.6</ele><time>2026-05-02T15:29:31.982Z</time></trkpt><trkpt lat="42.1327306" lon="13.3115145"><ele>1055.4</ele><time>2026-05-02T15:29:33.982Z</time></trkpt><trkpt lat="42.1327846" lon="13.3114048"><ele>1052.2</ele><time>2026-05-02T15:29:35.982Z</time></trkpt><trkpt lat="42.1328575" lon="13.3112883"><ele>1049.0</ele><time>2026-05-02T15:29:37.981Z</time></trkpt><trkpt lat="42.132952" lon="13.3112133"><ele>1049.0</ele><time>2026-05-02T15:29:39.982Z</time></trkpt><trkpt lat="42.133056" lon="13.3111625"><ele>1049.0</ele><time>2026-05-02T15:29:41.982Z</time></trkpt><trkpt lat="42.1331607" lon="13.3111288"><ele>1049.0</ele><time>2026-05-02T15:29:43.982Z</time></trkpt><trkpt lat="42.1332234" lon="13.3110455"><ele>1049.0</ele><time>2026-05-02T15:29:45.982Z</time></trkpt><trkpt lat="42.1332467" lon="13.3109309"><ele>1049.0</ele><time>2026-05-02T15:29:47.982Z</time></trkpt><trkpt lat="42.1332856" lon="13.3108099"><ele>1047.3333333333335</ele><time>2026-05-02T15:29:49.982Z</time></trkpt><trkpt lat="42.1333367" lon="13.3107048"><ele>1045.6666666666667</ele><time>2026-05-02T15:29:51.982Z</time></trkpt><trkpt lat="42.1334018" lon="13.3106397"><ele>1044.0</ele><time>2026-05-02T15:29:53.982Z</time></trkpt><trkpt lat="42.1334708" lon="13.3105653"><ele>1042.3333333333333</ele><time>2026-05-02T15:29:56.982Z</time></trkpt><trkpt lat="42.1335228" lon="13.310484"><ele>1040.6666666666665</ele><time>2026-05-02T15:29:59.982Z</time></trkpt><trkpt lat="42.1335733" lon="13.3104122"><ele>1039.0</ele><time>2026-05-02T15:30:01.982Z</time></trkpt><trkpt lat="42.1336219" lon="13.3103398"><ele>1039.0</ele><time>2026-05-02T15:30:03.982Z</time></trkpt><trkpt lat="42.1336641" lon="13.3102587"><ele>1039.0</ele><time>2026-05-02T15:30:05.982Z</time></trkpt><trkpt lat="42.1337053" lon="13.3101643"><ele>1039.0</ele><time>2026-05-02T15:30:07.982Z</time></trkpt><trkpt lat="42.1337323" lon="13.310078"><ele>1039.0</ele><time>2026-05-02T15:30:09.982Z</time></trkpt><trkpt lat="42.1337782" lon="13.3100181"><ele>1039.0</ele><time>2026-05-02T15:30:11.982Z</time></trkpt><trkpt lat="42.1338493" lon="13.3099835"><ele>1039.0</ele><time>2026-05-02T15:30:13.982Z</time></trkpt><trkpt lat="42.1339388" lon="13.3099738"><ele>1039.0</ele><time>2026-05-02T15:30:15.981Z</time></trkpt><trkpt lat="42.1340258" lon="13.309928"><ele>1039.0</ele><time>2026-05-02T15:30:18.982Z</time></trkpt><trkpt lat="42.13408" lon="13.309846"><ele>1039.0</ele><time>2026-05-02T15:30:20.982Z</time></trkpt><trkpt lat="42.1341278" lon="13.3097679"><ele>1039.0</ele><time>2026-05-02T15:30:22.982Z</time></trkpt><trkpt lat="42.1341536" lon="13.3096831"><ele>1039.0</ele><time>2026-05-02T15:30:24.981Z</time></trkpt><trkpt lat="42.1341693" lon="13.309599"><ele>1039.0</ele><time>2026-05-02T15:30:26.981Z</time></trkpt><trkpt lat="42.1341424" lon="13.3094906"><ele>1035.3333333333333</ele><time>2026-05-02T15:30:29.981Z</time></trkpt><trkpt lat="42.1341708" lon="13.309368"><ele>1031.6666666666665</ele><time>2026-05-02T15:30:32.982Z</time></trkpt><trkpt lat="42.1342201" lon="13.3092874"><ele>1028.0</ele><time>2026-05-02T15:30:34.981Z</time></trkpt><trkpt lat="42.1342705" lon="13.3091845"><ele>1024.3333333333333</ele><time>2026-05-02T15:30:36.981Z</time></trkpt><trkpt lat="42.1343214" lon="13.3090774"><ele>1020.6666666666666</ele><time>2026-05-02T15:30:38.981Z</time></trkpt><trkpt lat="42.1343657" lon="13.3090092"><ele>1017.0</ele><time>2026-05-02T15:30:40.982Z</time></trkpt><trkpt lat="42.1344178" lon="13.3089447"><ele>1017.0</ele><time>2026-05-02T15:30:42.982Z</time></trkpt><trkpt lat="42.1345092" lon="13.308856"><ele>1017.0</ele><time>2026-05-02T15:30:44.982Z</time></trkpt><trkpt lat="42.1345617" lon="13.3087935"><ele>1017.0</ele><time>2026-05-02T15:30:45.981Z</time></trkpt><trkpt lat="42.1346411" lon="13.3086947"><ele>1017.0</ele><time>2026-05-02T15:30:47.982Z</time></trkpt><trkpt lat="42.1347034" lon="13.3086352"><ele>1017.0</ele><time>2026-05-02T15:30:49.982Z</time></trkpt><trkpt lat="42.1347252" lon="13.3085292"><ele>1017.0</ele><time>2026-05-02T15:30:52.982Z</time></trkpt><trkpt lat="42.1346933" lon="13.3084208"><ele>1017.0</ele><time>2026-05-02T15:30:54.982Z</time></trkpt><trkpt lat="42.1346922" lon="13.3082989"><ele>1017.0</ele><time>2026-05-02T15:30:56.982Z</time></trkpt><trkpt lat="42.1347037" lon="13.3081542"><ele>1017.0</ele><time>2026-05-02T15:30:58.982Z</time></trkpt><trkpt lat="42.134703" lon="13.3080105"><ele>1017.0</ele><time>2026-05-02T15:31:00.982Z</time></trkpt><trkpt lat="42.134716" lon="13.3078619"><ele>1017.0</ele><time>2026-05-02T15:31:02.982Z</time></trkpt><trkpt lat="42.134759" lon="13.3077327"><ele>1015.3333333333334</ele><time>2026-05-02T15:31:04.982Z</time></trkpt><trkpt lat="42.1348155" lon="13.3076274"><ele>1013.6666666666667</ele><time>2026-05-02T15:31:06.982Z</time></trkpt><trkpt lat="42.1348528" lon="13.3075505"><ele>1012.0</ele><time>2026-05-02T15:31:08.982Z</time></trkpt><trkpt lat="42.1348233" lon="13.307435"><ele>1010.3333333333334</ele><time>2026-05-02T15:31:10.982Z</time></trkpt><trkpt lat="42.1347502" lon="13.3073073"><ele>1008.6666666666667</ele><time>2026-05-02T15:31:12.982Z</time></trkpt><trkpt lat="42.1347085" lon="13.3072331"><ele>1007.0</ele><time>2026-05-02T15:31:13.982Z</time></trkpt><trkpt lat="42.1346711" lon="13.3071627"><ele>1004.0</ele><time>2026-05-02T15:31:14.981Z</time></trkpt><trkpt lat="42.1346067" lon="13.3070302"><ele>1001.0</ele><time>2026-05-02T15:31:16.982Z</time></trkpt><trkpt lat="42.1345675" lon="13.3068819"><ele>998.0</ele><time>2026-05-02T15:31:18.982Z</time></trkpt><trkpt lat="42.1345424" lon="13.3067129"><ele>995.0</ele><time>2026-05-02T15:31:20.982Z</time></trkpt><trkpt lat="42.1345436" lon="13.3066148"><ele>992.0</ele><time>2026-05-02T15:31:21.982Z</time></trkpt><trkpt lat="42.1345356" lon="13.3065262"><ele>989.8333333333334</ele><time>2026-05-02T15:31:22.981Z</time></trkpt><trkpt lat="42.1345448" lon="13.306372"><ele>987.6666666666667</ele><time>2026-05-02T15:31:24.981Z</time></trkpt><trkpt lat="42.1345507" lon="13.3062308"><ele>985.5</ele><time>2026-05-02T15:31:26.982Z</time></trkpt><trkpt lat="42.1345274" lon="13.3061366"><ele>983.3333333333333</ele><time>2026-05-02T15:31:28.982Z</time></trkpt><trkpt lat="42.1344781" lon="13.3060799"><ele>981.1666666666666</ele><time>2026-05-02T15:31:30.981Z</time></trkpt><trkpt lat="42.1344254" lon="13.3060035"><ele>979.0</ele><time>2026-05-02T15:31:32.982Z</time></trkpt><trkpt lat="42.1344107" lon="13.3058948"><ele>979.0</ele><time>2026-05-02T15:31:34.982Z</time></trkpt><trkpt lat="42.1343987" lon="13.3057674"><ele>979.0000000000001</ele><time>2026-05-02T15:31:36.982Z</time></trkpt><trkpt lat="42.1343826" lon="13.305631"><ele>979.0000000000001</ele><time>2026-05-02T15:31:38.982Z</time></trkpt><trkpt lat="42.1343643" lon="13.3054924"><ele>979.0</ele><time>2026-05-02T15:31:40.982Z</time></trkpt><trkpt lat="42.1343471" lon="13.3053415"><ele>979.0</ele><time>2026-05-02T15:31:42.982Z</time></trkpt><trkpt lat="42.1343254" lon="13.3051851"><ele>977.2</ele><time>2026-05-02T15:31:44.981Z</time></trkpt><trkpt lat="42.1342983" lon="13.3050265"><ele>975.4000000000001</ele><time>2026-05-02T15:31:46.982Z</time></trkpt><trkpt lat="42.1342649" lon="13.3048834"><ele>973.6</ele><time>2026-05-02T15:31:48.982Z</time></trkpt><trkpt lat="42.1342426" lon="13.3047704"><ele>971.8</ele><time>2026-05-02T15:31:50.982Z</time></trkpt><trkpt lat="42.1342377" lon="13.3046405"><ele>970.0</ele><time>2026-05-02T15:31:52.982Z</time></trkpt><trkpt lat="42.1342378" lon="13.3045125"><ele>968.4</ele><time>2026-05-02T15:31:54.982Z</time></trkpt><trkpt lat="42.1342302" lon="13.3043803"><ele>966.8</ele><time>2026-05-02T15:31:56.982Z</time></trkpt><trkpt lat="42.1342175" lon="13.3042346"><ele>965.2</ele><time>2026-05-02T15:31:58.982Z</time></trkpt><trkpt lat="42.1341972" lon="13.3040714"><ele>963.6</ele><time>2026-05-02T15:32:00.981Z</time></trkpt><trkpt lat="42.1341839" lon="13.303986"><ele>962.0</ele><time>2026-05-02T15:32:01.982Z</time></trkpt><trkpt lat="42.1341682" lon="13.3038899"><ele>961.6666666666667</ele><time>2026-05-02T15:32:02.982Z</time></trkpt><trkpt lat="42.1341517" lon="13.3037932"><ele>961.3333333333334</ele><time>2026-05-02T15:32:03.981Z</time></trkpt><trkpt lat="42.1341396" lon="13.3037062"><ele>961.0</ele><time>2026-05-02T15:32:04.982Z</time></trkpt><trkpt lat="42.1341289" lon="13.3036225"><ele>960.6666666666667</ele><time>2026-05-02T15:32:05.982Z</time></trkpt><trkpt lat="42.1341468" lon="13.3034591"><ele>960.3333333333334</ele><time>2026-05-02T15:32:07.982Z</time></trkpt><trkpt lat="42.1341768" lon="13.3033799"><ele>960.0</ele><time>2026-05-02T15:32:08.982Z</time></trkpt><trkpt lat="42.1342074" lon="13.3032956"><ele>960.0</ele><time>2026-05-02T15:32:09.982Z</time></trkpt><trkpt lat="42.1342387" lon="13.3032066"><ele>960.0</ele><time>2026-05-02T15:32:10.982Z</time></trkpt><trkpt lat="42.1342735" lon="13.3031185"><ele>960.0</ele><time>2026-05-02T15:32:11.981Z</time></trkpt><trkpt lat="42.1343115" lon="13.3030303"><ele>960.0</ele><time>2026-05-02T15:32:12.982Z</time></trkpt><trkpt lat="42.1343507" lon="13.3029447"><ele>960.0</ele><time>2026-05-02T15:32:13.982Z</time></trkpt><trkpt lat="42.1343934" lon="13.3028586"><ele>960.0</ele><time>2026-05-02T15:32:14.982Z</time></trkpt><trkpt lat="42.1344323" lon="13.3027718"><ele>960.0</ele><time>2026-05-02T15:32:15.982Z</time></trkpt><trkpt lat="42.1344676" lon="13.3026822"><ele>960.8333333333334</ele><time>2026-05-02T15:32:16.982Z</time></trkpt><trkpt lat="42.1345007" lon="13.302594"><ele>961.6666666666667</ele><time>2026-05-02T15:32:17.982Z</time></trkpt><trkpt lat="42.1345307" lon="13.302502"><ele>962.5</ele><time>2026-05-02T15:32:18.981Z</time></trkpt><trkpt lat="42.1345645" lon="13.3023581"><ele>963.3333333333334</ele><time>2026-05-02T15:32:20.982Z</time></trkpt><trkpt lat="42.1345625" lon="13.3022583"><ele>964.1666666666667</ele><time>2026-05-02T15:32:22.982Z</time></trkpt><trkpt lat="42.1345594" lon="13.302152"><ele>965.0</ele><time>2026-05-02T15:32:25.982Z</time></trkpt><trkpt lat="42.1346118" lon="13.3020812"><ele>966.2</ele><time>2026-05-02T15:32:27.981Z</time></trkpt><trkpt lat="42.1346919" lon="13.3019895"><ele>967.4</ele><time>2026-05-02T15:32:29.982Z</time></trkpt><trkpt lat="42.134733" lon="13.3018863"><ele>968.5999999999999</ele><time>2026-05-02T15:32:31.982Z</time></trkpt><trkpt lat="42.1347509" lon="13.3017691"><ele>969.8</ele><time>2026-05-02T15:32:33.982Z</time></trkpt><trkpt lat="42.1347912" lon="13.3016473"><ele>971.0</ele><time>2026-05-02T15:32:35.982Z</time></trkpt><trkpt lat="42.1348586" lon="13.3015449"><ele>966.8</ele><time>2026-05-02T15:32:37.982Z</time></trkpt><trkpt lat="42.1349407" lon="13.3014622"><ele>962.5999999999999</ele><time>2026-05-02T15:32:39.982Z</time></trkpt><trkpt lat="42.1350256" lon="13.3013821"><ele>958.4</ele><time>2026-05-02T15:32:41.982Z</time></trkpt><trkpt lat="42.1351071" lon="13.3012816"><ele>954.2</ele><time>2026-05-02T15:32:43.982Z</time></trkpt><trkpt lat="42.1351757" lon="13.301174"><ele>950.0</ele><time>2026-05-02T15:32:45.981Z</time></trkpt><trkpt lat="42.1352391" lon="13.3010853"><ele>949.1666666666667</ele><time>2026-05-02T15:32:48.982Z</time></trkpt><trkpt lat="42.1352895" lon="13.30102"><ele>948.3333333333334</ele><time>2026-05-02T15:32:50.982Z</time></trkpt><trkpt lat="42.1353458" lon="13.3009579"><ele>947.5</ele><time>2026-05-02T15:32:52.982Z</time></trkpt><trkpt lat="42.1354067" lon="13.3009055"><ele>946.6666666666667</ele><time>2026-05-02T15:32:54.981Z</time></trkpt><trkpt lat="42.135479" lon="13.3008762"><ele>945.8333333333334</ele><time>2026-05-02T15:32:56.981Z</time></trkpt><trkpt lat="42.1355634" lon="13.3008573"><ele>945.0</ele><time>2026-05-02T15:32:58.982Z</time></trkpt><trkpt lat="42.135624" lon="13.3007729"><ele>945.0</ele><time>2026-05-02T15:33:00.982Z</time></trkpt><trkpt lat="42.1356812" lon="13.3006826"><ele>945.0</ele><time>2026-05-02T15:33:02.982Z</time></trkpt><trkpt lat="42.1357634" lon="13.300653"><ele>945.0</ele><time>2026-05-02T15:33:04.982Z</time></trkpt><trkpt lat="42.1358643" lon="13.3006519"><ele>945.0</ele><time>2026-05-02T15:33:06.982Z</time></trkpt><trkpt lat="42.1359841" lon="13.3006453"><ele>945.0</ele><time>2026-05-02T15:33:08.982Z</time></trkpt><trkpt lat="42.1360493" lon="13.3006269"><ele>944.8333333333334</ele><time>2026-05-02T15:33:09.982Z</time></trkpt><trkpt lat="42.1361128" lon="13.3005924"><ele>944.6666666666667</ele><time>2026-05-02T15:33:10.982Z</time></trkpt><trkpt lat="42.1361759" lon="13.3005519"><ele>944.5</ele><time>2026-05-02T15:33:11.982Z</time></trkpt><trkpt lat="42.1362646" lon="13.300483"><ele>944.3333333333334</ele><time>2026-05-02T15:33:13.982Z</time></trkpt><trkpt lat="42.1363104" lon="13.3003981"><ele>944.1666666666667</ele><time>2026-05-02T15:33:15.982Z</time></trkpt><trkpt lat="42.1363615" lon="13.3003038"><ele>944.0</ele><time>2026-05-02T15:33:17.982Z</time></trkpt><trkpt lat="42.1364332" lon="13.3002067"><ele>943.4000000000001</ele><time>2026-05-02T15:33:19.982Z</time></trkpt><trkpt lat="42.1365073" lon="13.3000882"><ele>942.8000000000001</ele><time>2026-05-02T15:33:21.982Z</time></trkpt><trkpt lat="42.1365848" lon="13.2999642"><ele>942.1999999999999</ele><time>2026-05-02T15:33:23.981Z</time></trkpt><trkpt lat="42.1366246" lon="13.2998951"><ele>941.5999999999999</ele><time>2026-05-02T15:33:24.982Z</time></trkpt><trkpt lat="42.1366619" lon="13.2998222"><ele>941.0</ele><time>2026-05-02T15:33:25.982Z</time></trkpt><trkpt lat="42.1367152" lon="13.299672"><ele>939.1999999999999</ele><time>2026-05-02T15:33:27.981Z</time></trkpt><trkpt lat="42.1367511" lon="13.2995164"><ele>937.3999999999999</ele><time>2026-05-02T15:33:29.982Z</time></trkpt><trkpt lat="42.1367789" lon="13.2993492"><ele>935.6</ele><time>2026-05-02T15:33:31.982Z</time></trkpt><trkpt lat="42.1367912" lon="13.299258"><ele>933.8</ele><time>2026-05-02T15:33:32.982Z</time></trkpt><trkpt lat="42.1368048" lon="13.2991636"><ele>932.0</ele><time>2026-05-02T15:33:33.982Z</time></trkpt><trkpt lat="42.1368216" lon="13.2990576"><ele>932.0000000000001</ele><time>2026-05-02T15:33:34.982Z</time></trkpt><trkpt lat="42.1368474" lon="13.2989497"><ele>932.0</ele><time>2026-05-02T15:33:35.982Z</time></trkpt><trkpt lat="42.1368661" lon="13.2988409"><ele>932.0</ele><time>2026-05-02T15:33:36.982Z</time></trkpt><trkpt lat="42.1368837" lon="13.2987314"><ele>932.0</ele><time>2026-05-02T15:33:37.982Z</time></trkpt><trkpt lat="42.1369051" lon="13.2986264"><ele>932.0000000000001</ele><time>2026-05-02T15:33:38.982Z</time></trkpt><trkpt lat="42.1369321" lon="13.2985267"><ele>932.0</ele><time>2026-05-02T15:33:39.982Z</time></trkpt><trkpt lat="42.1369584" lon="13.2984348"><ele>931.3333333333334</ele><time>2026-05-02T15:33:40.982Z</time></trkpt><trkpt lat="42.1369876" lon="13.2983029"><ele>930.6666666666667</ele><time>2026-05-02T15:33:42.981Z</time></trkpt><trkpt lat="42.1369804" lon="13.2981961"><ele>930.0</ele><time>2026-05-02T15:33:44.982Z</time></trkpt><trkpt lat="42.1369219" lon="13.2981332"><ele>929.3333333333333</ele><time>2026-05-02T15:33:46.982Z</time></trkpt><trkpt lat="42.1368295" lon="13.2981369"><ele>928.6666666666666</ele><time>2026-05-02T15:33:49.982Z</time></trkpt><trkpt lat="42.1367627" lon="13.2981353"><ele>928.0</ele><time>2026-05-02T15:33:51.982Z</time></trkpt><trkpt lat="42.1366894" lon="13.2981201"><ele>928.6666666666666</ele><time>2026-05-02T15:33:53.982Z</time></trkpt><trkpt lat="42.1366223" lon="13.2980701"><ele>929.3333333333333</ele><time>2026-05-02T15:33:55.981Z</time></trkpt><trkpt lat="42.1365809" lon="13.2980032"><ele>930.0</ele><time>2026-05-02T15:33:57.982Z</time></trkpt><trkpt lat="42.1365479" lon="13.2978808"><ele>930.6666666666667</ele><time>2026-05-02T15:34:00.982Z</time></trkpt><trkpt lat="42.136569" lon="13.2977619"><ele>931.3333333333334</ele><time>2026-05-02T15:34:02.982Z</time></trkpt><trkpt lat="42.1366267" lon="13.2976427"><ele>932.0</ele><time>2026-05-02T15:34:04.982Z</time></trkpt><trkpt lat="42.1366795" lon="13.2975225"><ele>932.0</ele><time>2026-05-02T15:34:06.982Z</time></trkpt><trkpt lat="42.1367038" lon="13.2973904"><ele>932.0</ele><time>2026-05-02T15:34:08.982Z</time></trkpt><trkpt lat="42.136705" lon="13.2972395"><ele>932.0</ele><time>2026-05-02T15:34:10.982Z</time></trkpt><trkpt lat="42.1367022" lon="13.297077"><ele>932.0</ele><time>2026-05-02T15:34:12.982Z</time></trkpt><trkpt lat="42.1366996" lon="13.29699"><ele>932.0</ele><time>2026-05-02T15:34:13.982Z</time></trkpt><trkpt lat="42.1367002" lon="13.2969047"><ele>931.4285714285714</ele><time>2026-05-02T15:34:14.982Z</time></trkpt><trkpt lat="42.1367103" lon="13.2968179"><ele>930.8571428571429</ele><time>2026-05-02T15:34:15.982Z</time></trkpt><trkpt lat="42.1367284" lon="13.29673"><ele>930.2857142857143</ele><time>2026-05-02T15:34:16.982Z</time></trkpt><trkpt lat="42.1367429" lon="13.2966378"><ele>929.7142857142858</ele><time>2026-05-02T15:34:17.982Z</time></trkpt><trkpt lat="42.1367452" lon="13.2965319"><ele>929.1428571428571</ele><time>2026-05-02T15:34:18.982Z</time></trkpt><trkpt lat="42.1367355" lon="13.2964307"><ele>928.5714285714287</ele><time>2026-05-02T15:34:19.982Z</time></trkpt><trkpt lat="42.1367172" lon="13.2963349"><ele>928.0000000000001</ele><time>2026-05-02T15:34:20.981Z</time></trkpt><trkpt lat="42.1367011" lon="13.2962376"><ele>927.1666666666666</ele><time>2026-05-02T15:34:21.982Z</time></trkpt><trkpt lat="42.1366953" lon="13.2961435"><ele>926.3333333333333</ele><time>2026-05-02T15:34:22.982Z</time></trkpt><trkpt lat="42.1366943" lon="13.2960506"><ele>925.5</ele><time>2026-05-02T15:34:23.982Z</time></trkpt><trkpt lat="42.1366892" lon="13.2959574"><ele>924.6666666666667</ele><time>2026-05-02T15:34:24.982Z</time></trkpt><trkpt lat="42.1366806" lon="13.295862"><ele>923.8333333333334</ele><time>2026-05-02T15:34:25.982Z</time></trkpt><trkpt lat="42.1366729" lon="13.2957684"><ele>923.0</ele><time>2026-05-02T15:34:26.982Z</time></trkpt><trkpt lat="42.1366715" lon="13.2956019"><ele>922.2857142857142</ele><time>2026-05-02T15:34:28.982Z</time></trkpt><trkpt lat="42.1366783" lon="13.2955112"><ele>921.5714285714287</ele><time>2026-05-02T15:34:29.981Z</time></trkpt><trkpt lat="42.1366828" lon="13.2954134"><ele>920.8571428571429</ele><time>2026-05-02T15:34:30.981Z</time></trkpt><trkpt lat="42.1366805" lon="13.2953174"><ele>920.1428571428571</ele><time>2026-05-02T15:34:31.982Z</time></trkpt><trkpt lat="42.1366723" lon="13.2952202"><ele>919.4285714285713</ele><time>2026-05-02T15:34:32.982Z</time></trkpt><trkpt lat="42.136658" lon="13.2951175"><ele>918.7142857142858</ele><time>2026-05-02T15:34:33.982Z</time></trkpt><trkpt lat="42.1366404" lon="13.2950163"><ele>918.0</ele><time>2026-05-02T15:34:34.982Z</time></trkpt><trkpt lat="42.1366221" lon="13.294919"><ele>918.0</ele><time>2026-05-02T15:34:35.982Z</time></trkpt><trkpt lat="42.1366043" lon="13.2948254"><ele>918.0</ele><time>2026-05-02T15:34:36.982Z</time></trkpt><trkpt lat="42.1365885" lon="13.2947309"><ele>918.0</ele><time>2026-05-02T15:34:37.982Z</time></trkpt><trkpt lat="42.13657" lon="13.2946243"><ele>918.0</ele><time>2026-05-02T15:34:38.982Z</time></trkpt><trkpt lat="42.1365507" lon="13.2945145"><ele>918.0</ele><time>2026-05-02T15:34:39.982Z</time></trkpt><trkpt lat="42.1365367" lon="13.2944197"><ele>918.0</ele><time>2026-05-02T15:34:40.982Z</time></trkpt><trkpt lat="42.1365227" lon="13.2943351"><ele>918.0</ele><time>2026-05-02T15:34:41.982Z</time></trkpt><trkpt lat="42.136498" lon="13.2941737"><ele>916.5</ele><time>2026-05-02T15:34:43.982Z</time></trkpt><trkpt lat="42.1364965" lon="13.2940875"><ele>915.0</ele><time>2026-05-02T15:34:44.982Z</time></trkpt><trkpt lat="42.1365019" lon="13.2939362"><ele>913.5</ele><time>2026-05-02T15:34:46.982Z</time></trkpt><trkpt lat="42.1364895" lon="13.2938241"><ele>912.0</ele><time>2026-05-02T15:34:48.982Z</time></trkpt><trkpt lat="42.136441" lon="13.2937464"><ele>910.5</ele><time>2026-05-02T15:34:51.982Z</time></trkpt><trkpt lat="42.1363966" lon="13.2936774"><ele>909.0</ele><time>2026-05-02T15:34:53.982Z</time></trkpt><trkpt lat="42.1363529" lon="13.2935847"><ele>909.0</ele><time>2026-05-02T15:34:55.982Z</time></trkpt><trkpt lat="42.1363383" lon="13.2934725"><ele>909.0000000000001</ele><time>2026-05-02T15:34:57.982Z</time></trkpt><trkpt lat="42.1363545" lon="13.2933621"><ele>909.0000000000001</ele><time>2026-05-02T15:34:59.982Z</time></trkpt><trkpt lat="42.1363253" lon="13.2932419"><ele>909.0</ele><time>2026-05-02T15:35:01.982Z</time></trkpt><trkpt lat="42.1362815" lon="13.2931106"><ele>909.0</ele><time>2026-05-02T15:35:03.981Z</time></trkpt><trkpt lat="42.1362347" lon="13.2929677"><ele>908.5</ele><time>2026-05-02T15:35:05.982Z</time></trkpt><trkpt lat="42.136208" lon="13.2928144"><ele>908.0</ele><time>2026-05-02T15:35:07.982Z</time></trkpt><trkpt lat="42.1362071" lon="13.2926603"><ele>907.5</ele><time>2026-05-02T15:35:09.982Z</time></trkpt><trkpt lat="42.1362166" lon="13.2925031"><ele>907.0</ele><time>2026-05-02T15:35:11.982Z</time></trkpt><trkpt lat="42.1362332" lon="13.2923378"><ele>905.2</ele><time>2026-05-02T15:35:13.982Z</time></trkpt><trkpt lat="42.1362571" lon="13.2921741"><ele>903.4000000000001</ele><time>2026-05-02T15:35:15.981Z</time></trkpt><trkpt lat="42.1362763" lon="13.2920087"><ele>901.5999999999999</ele><time>2026-05-02T15:35:17.981Z</time></trkpt><trkpt lat="42.1362822" lon="13.2919241"><ele>899.8</ele><time>2026-05-02T15:35:18.982Z</time></trkpt><trkpt lat="42.1362888" lon="13.2918394"><ele>898.0</ele><time>2026-05-02T15:35:19.982Z</time></trkpt><trkpt lat="42.1362965" lon="13.291686"><ele>897.9999999999999</ele><time>2026-05-02T15:35:21.982Z</time></trkpt><trkpt lat="42.1362887" lon="13.291594"><ele>898.0</ele><time>2026-05-02T15:35:23.982Z</time></trkpt><trkpt lat="42.1362999" lon="13.2914876"><ele>898.0</ele><time>2026-05-02T15:35:26.982Z</time></trkpt><trkpt lat="42.1363462" lon="13.2914181"><ele>898.0</ele><time>2026-05-02T15:35:28.982Z</time></trkpt><trkpt lat="42.1364152" lon="13.2913561"><ele>897.9999999999999</ele><time>2026-05-02T15:35:30.982Z</time></trkpt><trkpt lat="42.1364653" lon="13.2912575"><ele>898.0</ele><time>2026-05-02T15:35:32.982Z</time></trkpt><trkpt lat="42.1364805" lon="13.2911361"><ele>896.9999999999999</ele><time>2026-05-02T15:35:34.981Z</time></trkpt><trkpt lat="42.1364928" lon="13.2910314"><ele>896.0</ele><time>2026-05-02T15:35:36.981Z</time></trkpt><trkpt lat="42.1365154" lon="13.2909297"><ele>895.0</ele><time>2026-05-02T15:35:38.981Z</time></trkpt><trkpt lat="42.1365566" lon="13.2908304"><ele>894.0</ele><time>2026-05-02T15:35:40.982Z</time></trkpt><trkpt lat="42.1366412" lon="13.2907699"><ele>892.9999999999999</ele><time>2026-05-02T15:35:43.982Z</time></trkpt><trkpt lat="42.1367297" lon="13.2907619"><ele>892.0</ele><time>2026-05-02T15:35:45.982Z</time></trkpt><trkpt lat="42.1368599" lon="13.2907433"><ele>892.0</ele><time>2026-05-02T15:35:47.982Z</time></trkpt><trkpt lat="42.136932" lon="13.2907392"><ele>892.0</ele><time>2026-05-02T15:35:48.982Z</time></trkpt><trkpt lat="42.1370009" lon="13.2907377"><ele>892.0</ele><time>2026-05-02T15:35:49.982Z</time></trkpt><trkpt lat="42.1370645" lon="13.2907337"><ele>892.0</ele><time>2026-05-02T15:35:50.982Z</time></trkpt><trkpt lat="42.1371433" lon="13.2907176"><ele>892.0</ele><time>2026-05-02T15:35:52.982Z</time></trkpt><trkpt lat="42.1372028" lon="13.2906591"><ele>892.0</ele><time>2026-05-02T15:35:55.982Z</time></trkpt><trkpt lat="42.1372085" lon="13.2905547"><ele>892.0</ele><time>2026-05-02T15:35:59.982Z</time></trkpt><trkpt lat="42.1371619" lon="13.2904967"><ele>889.4999999999999</ele><time>2026-05-02T15:36:01.981Z</time></trkpt><trkpt lat="42.137088" lon="13.2904779"><ele>887.0</ele><time>2026-05-02T15:36:03.982Z</time></trkpt><trkpt lat="42.1370259" lon="13.2904635"><ele>884.5</ele><time>2026-05-02T15:36:05.982Z</time></trkpt><trkpt lat="42.1369441" lon="13.2904433"><ele>882.0</ele><time>2026-05-02T15:36:07.982Z</time></trkpt><trkpt lat="42.1368762" lon="13.2904094"><ele>879.4999999999999</ele><time>2026-05-02T15:36:09.981Z</time></trkpt><trkpt lat="42.1368327" lon="13.2903064"><ele>877.0</ele><time>2026-05-02T15:36:12.982Z</time></trkpt><trkpt lat="42.1368806" lon="13.2901917"><ele>876.9999999999999</ele><time>2026-05-02T15:36:15.982Z</time></trkpt><trkpt lat="42.1369364" lon="13.2901209"><ele>877.0</ele><time>2026-05-02T15:36:17.982Z</time></trkpt><trkpt lat="42.1369875" lon="13.2900525"><ele>877.0</ele><time>2026-05-02T15:36:19.982Z</time></trkpt><trkpt lat="42.1370482" lon="13.2899838"><ele>877.0</ele><time>2026-05-02T15:36:21.982Z</time></trkpt><trkpt lat="42.1371" lon="13.2899106"><ele>876.9999999999999</ele><time>2026-05-02T15:36:23.926Z</time></trkpt><trkpt lat="42.1371384" lon="13.2897921"><ele>877.0</ele><time>2026-05-02T15:36:25.982Z</time></trkpt><trkpt lat="42.1371598" lon="13.2896754"><ele>874.6666666666666</ele><time>2026-05-02T15:36:27.982Z</time></trkpt><trkpt lat="42.1371747" lon="13.2895664"><ele>872.3333333333333</ele><time>2026-05-02T15:36:29.982Z</time></trkpt><trkpt lat="42.1371685" lon="13.28948"><ele>870.0</ele><time>2026-05-02T15:36:31.982Z</time></trkpt><trkpt lat="42.1371142" lon="13.2893981"><ele>867.6666666666667</ele><time>2026-05-02T15:36:33.982Z</time></trkpt><trkpt lat="42.1370632" lon="13.289305"><ele>865.3333333333334</ele><time>2026-05-02T15:36:35.982Z</time></trkpt><trkpt lat="42.1370415" lon="13.289208"><ele>863.0</ele><time>2026-05-02T15:36:37.981Z</time></trkpt><trkpt lat="42.1370698" lon="13.2891275"><ele>863.0000000000001</ele><time>2026-05-02T15:36:39.982Z</time></trkpt><trkpt lat="42.1371225" lon="13.2890666"><ele>863.0</ele><time>2026-05-02T15:36:41.982Z</time></trkpt><trkpt lat="42.1371857" lon="13.2890127"><ele>863.0</ele><time>2026-05-02T15:36:43.982Z</time></trkpt><trkpt lat="42.1372164" lon="13.2888855"><ele>863.0</ele><time>2026-05-02T15:36:46.982Z</time></trkpt><trkpt lat="42.1371743" lon="13.28876"><ele>863.0000000000001</ele><time>2026-05-02T15:36:48.982Z</time></trkpt><trkpt lat="42.1371213" lon="13.28864"><ele>863.0</ele><time>2026-05-02T15:36:50.982Z</time></trkpt><trkpt lat="42.1370835" lon="13.2884732"><ele>861.6666666666667</ele><time>2026-05-02T15:36:52.982Z</time></trkpt><trkpt lat="42.1370531" lon="13.2883334"><ele>860.3333333333334</ele><time>2026-05-02T15:36:54.982Z</time></trkpt><trkpt lat="42.1370324" lon="13.2882252"><ele>859.0</ele><time>2026-05-02T15:36:56.982Z</time></trkpt><trkpt lat="42.1370319" lon="13.2881358"><ele>857.6666666666667</ele><time>2026-05-02T15:36:58.981Z</time></trkpt><trkpt lat="42.1370742" lon="13.2880497"><ele>856.3333333333334</ele><time>2026-05-02T15:37:01.982Z</time></trkpt><trkpt lat="42.137147" lon="13.2880267"><ele>855.0</ele><time>2026-05-02T15:37:04.982Z</time></trkpt><trkpt lat="42.1371916" lon="13.2880972"><ele>855.0</ele><time>2026-05-02T15:37:07.981Z</time></trkpt><trkpt lat="42.1372316" lon="13.2881709"><ele>855.0</ele><time>2026-05-02T15:37:23.982Z</time></trkpt><trkpt lat="42.1373091" lon="13.2882199"><ele>855.0</ele><time>2026-05-02T15:37:35.982Z</time></trkpt><trkpt lat="42.137379" lon="13.2882642"><ele>855.0</ele><time>2026-05-02T15:37:37.981Z</time></trkpt><trkpt lat="42.1374456" lon="13.2883103"><ele>855.0</ele><time>2026-05-02T15:37:39.982Z</time></trkpt><trkpt lat="42.1375046" lon="13.2883537"><ele>855.0</ele><time>2026-05-02T15:37:41.982Z</time></trkpt><trkpt lat="42.1375711" lon="13.2884116"><ele>855.3333333333334</ele><time>2026-05-02T15:37:44.982Z</time></trkpt><trkpt lat="42.1376275" lon="13.2884767"><ele>855.6666666666667</ele><time>2026-05-02T15:37:46.981Z</time></trkpt><trkpt lat="42.1377067" lon="13.2885412"><ele>856.0</ele><time>2026-05-02T15:37:48.982Z</time></trkpt><trkpt lat="42.1377714" lon="13.2885663"><ele>856.3333333333334</ele><time>2026-05-02T15:37:50.982Z</time></trkpt><trkpt lat="42.1378323" lon="13.2885424"><ele>856.6666666666667</ele><time>2026-05-02T15:37:52.982Z</time></trkpt><trkpt lat="42.137886" lon="13.2884636"><ele>857.0</ele><time>2026-05-02T15:37:54.982Z</time></trkpt><trkpt lat="42.1378961" lon="13.2883352"><ele>857.0</ele><time>2026-05-02T15:37:56.982Z</time></trkpt><trkpt lat="42.1378807" lon="13.2881575"><ele>857.0</ele><time>2026-05-02T15:37:58.982Z</time></trkpt><trkpt lat="42.1378642" lon="13.288052"><ele>857.0</ele><time>2026-05-02T15:37:59.982Z</time></trkpt><trkpt lat="42.1378436" lon="13.2879437"><ele>857.0</ele><time>2026-05-02T15:38:00.982Z</time></trkpt><trkpt lat="42.1378191" lon="13.2878254"><ele>857.0</ele><time>2026-05-02T15:38:01.982Z</time></trkpt><trkpt lat="42.1377958" lon="13.2877065"><ele>855.6666666666667</ele><time>2026-05-02T15:38:02.982Z</time></trkpt><trkpt lat="42.1377713" lon="13.2875941"><ele>854.3333333333334</ele><time>2026-05-02T15:38:03.981Z</time></trkpt><trkpt lat="42.1377523" lon="13.2874828"><ele>853.0</ele><time>2026-05-02T15:38:04.982Z</time></trkpt><trkpt lat="42.1377357" lon="13.2873745"><ele>851.6666666666667</ele><time>2026-05-02T15:38:05.982Z</time></trkpt><trkpt lat="42.1377241" lon="13.2872674"><ele>850.3333333333334</ele><time>2026-05-02T15:38:06.982Z</time></trkpt><trkpt lat="42.1377166" lon="13.2871651"><ele>849.0</ele><time>2026-05-02T15:38:07.982Z</time></trkpt><trkpt lat="42.13771" lon="13.2870656"><ele>847.4000000000001</ele><time>2026-05-02T15:38:08.982Z</time></trkpt><trkpt lat="42.1377014" lon="13.2869106"><ele>845.8</ele><time>2026-05-02T15:38:10.982Z</time></trkpt><trkpt lat="42.1376905" lon="13.2867632"><ele>844.2</ele><time>2026-05-02T15:38:12.981Z</time></trkpt><trkpt lat="42.137677" lon="13.2866004"><ele>842.5999999999999</ele><time>2026-05-02T15:38:14.982Z</time></trkpt><trkpt lat="42.1376684" lon="13.2865094"><ele>841.0</ele><time>2026-05-02T15:38:15.982Z</time></trkpt><trkpt lat="42.1376604" lon="13.2864084"><ele>840.6666666666666</ele><time>2026-05-02T15:38:16.982Z</time></trkpt><trkpt lat="42.13765" lon="13.2863072"><ele>840.3333333333333</ele><time>2026-05-02T15:38:17.982Z</time></trkpt><trkpt lat="42.1376383" lon="13.286208"><ele>840.0</ele><time>2026-05-02T15:38:18.982Z</time></trkpt><trkpt lat="42.1376146" lon="13.2860578"><ele>839.6666666666667</ele><time>2026-05-02T15:38:20.982Z</time></trkpt><trkpt lat="42.1375942" lon="13.2859537"><ele>839.3333333333334</ele><time>2026-05-02T15:38:22.982Z</time></trkpt><trkpt lat="42.1375955" lon="13.2858339"><ele>839.0</ele><time>2026-05-02T15:38:25.982Z</time></trkpt><trkpt lat="42.1376178" lon="13.2857493"><ele>839.0000000000001</ele><time>2026-05-02T15:38:27.982Z</time></trkpt><trkpt lat="42.1376912" lon="13.2856865"><ele>839.0</ele><time>2026-05-02T15:38:29.982Z</time></trkpt><trkpt lat="42.1378001" lon="13.2856772"><ele>839.0</ele><time>2026-05-02T15:38:31.981Z</time></trkpt><trkpt lat="42.1378713" lon="13.2856955"><ele>839.0</ele><time>2026-05-02T15:38:32.982Z</time></trkpt><trkpt lat="42.1379464" lon="13.2857279"><ele>839.0000000000001</ele><time>2026-05-02T15:38:33.981Z</time></trkpt><trkpt lat="42.1380285" lon="13.2857704"><ele>839.0</ele><time>2026-05-02T15:38:34.982Z</time></trkpt><trkpt lat="42.1381035" lon="13.2858149"><ele>839.0000000000001</ele><time>2026-05-02T15:38:35.982Z</time></trkpt><trkpt lat="42.1381712" lon="13.2858464"><ele>839.0</ele><time>2026-05-02T15:38:36.982Z</time></trkpt><trkpt lat="42.1382739" lon="13.285902"><ele>839.0</ele><time>2026-05-02T15:38:38.982Z</time></trkpt><trkpt lat="42.1383467" lon="13.2859198"><ele>839.0</ele><time>2026-05-02T15:38:41.982Z</time></trkpt><trkpt lat="42.1384093" lon="13.2858895"><ele>839.0000000000001</ele><time>2026-05-02T15:38:43.982Z</time></trkpt><trkpt lat="42.1384918" lon="13.2858724"><ele>839.0</ele><time>2026-05-02T15:38:45.982Z</time></trkpt><trkpt lat="42.1385869" lon="13.2858513"><ele>839.1666666666667</ele><time>2026-05-02T15:38:47.982Z</time></trkpt><trkpt lat="42.1386679" lon="13.2858543"><ele>839.3333333333334</ele><time>2026-05-02T15:38:49.981Z</time></trkpt><trkpt lat="42.1387736" lon="13.2858492"><ele>839.5</ele><time>2026-05-02T15:38:51.982Z</time></trkpt><trkpt lat="42.1388542" lon="13.2858612"><ele>839.6666666666667</ele><time>2026-05-02T15:38:53.982Z</time></trkpt><trkpt lat="42.1389146" lon="13.2858859"><ele>839.8333333333334</ele><time>2026-05-02T15:38:55.982Z</time></trkpt><trkpt lat="42.1390001" lon="13.285915"><ele>840.0</ele><time>2026-05-02T15:38:57.981Z</time></trkpt><trkpt lat="42.1391207" lon="13.2859167"><ele>839.5</ele><time>2026-05-02T15:38:59.982Z</time></trkpt><trkpt lat="42.1391858" lon="13.2859057"><ele>839.0</ele><time>2026-05-02T15:39:00.982Z</time></trkpt><trkpt lat="42.1393036" lon="13.2858897"><ele>838.5</ele><time>2026-05-02T15:39:02.982Z</time></trkpt><trkpt lat="42.1393675" lon="13.2858829"><ele>838.0</ele><time>2026-05-02T15:39:03.982Z</time></trkpt><trkpt lat="42.139433" lon="13.2858849"><ele>837.5</ele><time>2026-05-02T15:39:04.982Z</time></trkpt><trkpt lat="42.1395586" lon="13.2858975"><ele>837.0</ele><time>2026-05-02T15:39:06.982Z</time></trkpt><trkpt lat="42.13963" lon="13.2858978"><ele>837.0</ele><time>2026-05-02T15:39:07.981Z</time></trkpt><trkpt lat="42.1397064" lon="13.2858925"><ele>837.0</ele><time>2026-05-02T15:39:08.981Z</time></trkpt><trkpt lat="42.1397876" lon="13.2858915"><ele>837.0</ele><time>2026-05-02T15:39:09.982Z</time></trkpt><trkpt lat="42.1398749" lon="13.285892"><ele>837.0</ele><time>2026-05-02T15:39:10.982Z</time></trkpt><trkpt lat="42.1399673" lon="13.2858936"><ele>837.0</ele><time>2026-05-02T15:39:11.982Z</time></trkpt><trkpt lat="42.140061" lon="13.2859037"><ele>837.0</ele><time>2026-05-02T15:39:12.982Z</time></trkpt><trkpt lat="42.1401533" lon="13.2859187"><ele>835.3333333333334</ele><time>2026-05-02T15:39:13.981Z</time></trkpt><trkpt lat="42.1402451" lon="13.2859286"><ele>833.6666666666667</ele><time>2026-05-02T15:39:14.981Z</time></trkpt><trkpt lat="42.1403357" lon="13.2859386"><ele>832.0</ele><time>2026-05-02T15:39:15.981Z</time></trkpt><trkpt lat="42.1404223" lon="13.285956"><ele>830.3333333333334</ele><time>2026-05-02T15:39:16.982Z</time></trkpt><trkpt lat="42.1404952" lon="13.2859689"><ele>828.6666666666667</ele><time>2026-05-02T15:39:17.982Z</time></trkpt><trkpt lat="42.1405632" lon="13.2859781"><ele>827.0</ele><time>2026-05-02T15:39:18.982Z</time></trkpt><trkpt lat="42.1406332" lon="13.2859792"><ele>827.0000000000001</ele><time>2026-05-02T15:39:19.982Z</time></trkpt><trkpt lat="42.140698" lon="13.2859798"><ele>827.0</ele><time>2026-05-02T15:39:20.982Z</time></trkpt><trkpt lat="42.1407639" lon="13.2859754"><ele>827.0</ele><time>2026-05-02T15:39:21.982Z</time></trkpt><trkpt lat="42.1408803" lon="13.2859574"><ele>827.0</ele><time>2026-05-02T15:39:23.982Z</time></trkpt><trkpt lat="42.1409676" lon="13.2859863"><ele>827.0000000000001</ele><time>2026-05-02T15:39:25.982Z</time></trkpt><trkpt lat="42.1410499" lon="13.2860586"><ele>827.0</ele><time>2026-05-02T15:39:27.982Z</time></trkpt><trkpt lat="42.1411568" lon="13.2861034"><ele>825.6666666666667</ele><time>2026-05-02T15:39:29.981Z</time></trkpt><trkpt lat="42.1412771" lon="13.2860896"><ele>824.3333333333334</ele><time>2026-05-02T15:39:31.982Z</time></trkpt><trkpt lat="42.141387" lon="13.2860382"><ele>823.0</ele><time>2026-05-02T15:39:33.982Z</time></trkpt><trkpt lat="42.1414498" lon="13.2860109"><ele>821.6666666666667</ele><time>2026-05-02T15:39:34.982Z</time></trkpt><trkpt lat="42.141514" lon="13.2859868"><ele>820.3333333333334</ele><time>2026-05-02T15:39:35.982Z</time></trkpt><trkpt lat="42.1415819" lon="13.2859656"><ele>819.0</ele><time>2026-05-02T15:39:36.982Z</time></trkpt><trkpt lat="42.1416608" lon="13.2859597"><ele>815.6666666666666</ele><time>2026-05-02T15:39:37.982Z</time></trkpt><trkpt lat="42.1417413" lon="13.2859622"><ele>812.3333333333333</ele><time>2026-05-02T15:39:38.981Z</time></trkpt><trkpt lat="42.1418222" lon="13.2859647"><ele>809.0</ele><time>2026-05-02T15:39:39.982Z</time></trkpt><trkpt lat="42.1419019" lon="13.2859723"><ele>805.6666666666666</ele><time>2026-05-02T15:39:40.982Z</time></trkpt><trkpt lat="42.1419803" lon="13.2859696"><ele>802.3333333333333</ele><time>2026-05-02T15:39:41.982Z</time></trkpt><trkpt lat="42.1420498" lon="13.2859713"><ele>799.0</ele><time>2026-05-02T15:39:42.982Z</time></trkpt><trkpt lat="42.1421602" lon="13.2859803"><ele>799.0</ele><time>2026-05-02T15:39:44.982Z</time></trkpt><trkpt lat="42.14225" lon="13.2859531"><ele>799.0</ele><time>2026-05-02T15:39:46.982Z</time></trkpt><trkpt lat="42.1423256" lon="13.2859215"><ele>799.0</ele><time>2026-05-02T15:39:48.982Z</time></trkpt><trkpt lat="42.142396" lon="13.2859008"><ele>799.0</ele><time>2026-05-02T15:39:50.982Z</time></trkpt><trkpt lat="42.1424588" lon="13.2859185"><ele>799.0</ele><time>2026-05-02T15:39:52.982Z</time></trkpt><trkpt lat="42.1425082" lon="13.2859785"><ele>799.0</ele><time>2026-05-02T15:39:54.982Z</time></trkpt><trkpt lat="42.1425322" lon="13.2860672"><ele>799.0</ele><time>2026-05-02T15:39:56.982Z</time></trkpt><trkpt lat="42.1425578" lon="13.2861592"><ele>798.6666666666666</ele><time>2026-05-02T15:39:58.982Z</time></trkpt><trkpt lat="42.1426118" lon="13.2862349"><ele>798.3333333333333</ele><time>2026-05-02T15:40:00.982Z</time></trkpt><trkpt lat="42.1426772" lon="13.2862927"><ele>798.0</ele><time>2026-05-02T15:40:02.982Z</time></trkpt><trkpt lat="42.1427491" lon="13.2863436"><ele>797.6666666666667</ele><time>2026-05-02T15:40:04.981Z</time></trkpt><trkpt lat="42.1428451" lon="13.2863845"><ele>797.3333333333334</ele><time>2026-05-02T15:40:06.982Z</time></trkpt><trkpt lat="42.142941" lon="13.2864515"><ele>797.0</ele><time>2026-05-02T15:40:08.982Z</time></trkpt><trkpt lat="42.143019" lon="13.2865547"><ele>797.0000000000001</ele><time>2026-05-02T15:40:10.982Z</time></trkpt><trkpt lat="42.1430954" lon="13.2866888"><ele>797.0</ele><time>2026-05-02T15:40:12.982Z</time></trkpt><trkpt lat="42.1431305" lon="13.2867596"><ele>797.0</ele><time>2026-05-02T15:40:13.982Z</time></trkpt><trkpt lat="42.1431684" lon="13.2868399"><ele>797.0</ele><time>2026-05-02T15:40:14.982Z</time></trkpt><trkpt lat="42.1432005" lon="13.2869268"><ele>797.0000000000001</ele><time>2026-05-02T15:40:15.982Z</time></trkpt><trkpt lat="42.1432246" lon="13.2870194"><ele>797.0</ele><time>2026-05-02T15:40:16.981Z</time></trkpt><trkpt lat="42.1432463" lon="13.2871117"><ele>794.5000000000001</ele><time>2026-05-02T15:40:17.982Z</time></trkpt><trkpt lat="42.1432602" lon="13.2872041"><ele>792.0</ele><time>2026-05-02T15:40:18.982Z</time></trkpt><trkpt lat="42.143266" lon="13.2872913"><ele>789.5</ele><time>2026-05-02T15:40:19.982Z</time></trkpt><trkpt lat="42.1432659" lon="13.2873863"><ele>787.0</ele><time>2026-05-02T15:40:20.981Z</time></trkpt><trkpt lat="42.1432633" lon="13.2874822"><ele>784.5000000000001</ele><time>2026-05-02T15:40:21.982Z</time></trkpt><trkpt lat="42.1432706" lon="13.2876241"><ele>782.0</ele><time>2026-05-02T15:40:23.981Z</time></trkpt><trkpt lat="42.1433101" lon="13.2877173"><ele>782.0000000000001</ele><time>2026-05-02T15:40:25.982Z</time></trkpt><trkpt lat="42.1433699" lon="13.2877657"><ele>782.0</ele><time>2026-05-02T15:40:27.982Z</time></trkpt><trkpt lat="42.1434423" lon="13.2878003"><ele>782.0</ele><time>2026-05-02T15:40:29.982Z</time></trkpt><trkpt lat="42.1435274" lon="13.287842"><ele>782.0</ele><time>2026-05-02T15:40:31.982Z</time></trkpt><trkpt lat="42.1436186" lon="13.2878656"><ele>782.0000000000001</ele><time>2026-05-02T15:40:33.981Z</time></trkpt><trkpt lat="42.1437089" lon="13.2878602"><ele>782.0</ele><time>2026-05-02T15:40:35.982Z</time></trkpt><trkpt lat="42.1437799" lon="13.2877411"><ele>782.0</ele><time>2026-05-02T15:40:37.981Z</time></trkpt><trkpt lat="42.1438393" lon="13.2876234"><ele>782.0</ele><time>2026-05-02T15:40:39.982Z</time></trkpt><trkpt lat="42.143918" lon="13.2875166"><ele>782.0</ele><time>2026-05-02T15:40:41.981Z</time></trkpt><trkpt lat="42.1440229" lon="13.2874391"><ele>782.0</ele><time>2026-05-02T15:40:43.981Z</time></trkpt><trkpt lat="42.1441057" lon="13.2873811"><ele>782.0</ele><time>2026-05-02T15:40:45.982Z</time></trkpt><trkpt lat="42.1442001" lon="13.2873711"><ele>783.0000000000001</ele><time>2026-05-02T15:40:47.982Z</time></trkpt><trkpt lat="42.1442948" lon="13.2873752"><ele>784.0</ele><time>2026-05-02T15:40:49.982Z</time></trkpt><trkpt lat="42.1444184" lon="13.2873782"><ele>785.0</ele><time>2026-05-02T15:40:51.982Z</time></trkpt><trkpt lat="42.144484" lon="13.2873692"><ele>786.0</ele><time>2026-05-02T15:40:52.982Z</time></trkpt><trkpt lat="42.1445524" lon="13.2873579"><ele>787.0000000000001</ele><time>2026-05-02T15:40:53.982Z</time></trkpt><trkpt lat="42.144625" lon="13.2873522"><ele>788.0</ele><time>2026-05-02T15:40:54.981Z</time></trkpt><trkpt lat="42.1446985" lon="13.2873543"><ele>788.0</ele><time>2026-05-02T15:40:55.982Z</time></trkpt><trkpt lat="42.1447659" lon="13.2873537"><ele>788.0</ele><time>2026-05-02T15:40:56.982Z</time></trkpt><trkpt lat="42.144875" lon="13.2873882"><ele>788.0</ele><time>2026-05-02T15:40:58.982Z</time></trkpt><trkpt lat="42.1449736" lon="13.2874677"><ele>788.0</ele><time>2026-05-02T15:41:00.981Z</time></trkpt><trkpt lat="42.1450465" lon="13.2875823"><ele>788.0</ele><time>2026-05-02T15:41:02.982Z</time></trkpt><trkpt lat="42.1450767" lon="13.2877218"><ele>789.5999999999999</ele><time>2026-05-02T15:41:04.982Z</time></trkpt><trkpt lat="42.1450583" lon="13.2878995"><ele>791.1999999999999</ele><time>2026-05-02T15:41:06.982Z</time></trkpt><trkpt lat="42.1450378" lon="13.2880008"><ele>792.8</ele><time>2026-05-02T15:41:07.982Z</time></trkpt><trkpt lat="42.145019" lon="13.2881047"><ele>794.4</ele><time>2026-05-02T15:41:08.981Z</time></trkpt><trkpt lat="42.145006" lon="13.2882128"><ele>796.0</ele><time>2026-05-02T15:41:09.982Z</time></trkpt><trkpt lat="42.1449977" lon="13.2883263"><ele>796.1666666666666</ele><time>2026-05-02T15:41:10.982Z</time></trkpt><trkpt lat="42.1449927" lon="13.288442"><ele>796.3333333333333</ele><time>2026-05-02T15:41:11.982Z</time></trkpt><trkpt lat="42.1449855" lon="13.2885549"><ele>796.5</ele><time>2026-05-02T15:41:12.982Z</time></trkpt><trkpt lat="42.1449793" lon="13.2886586"><ele>796.6666666666667</ele><time>2026-05-02T15:41:13.981Z</time></trkpt><trkpt lat="42.1449768" lon="13.2887527"><ele>796.8333333333334</ele><time>2026-05-02T15:41:14.982Z</time></trkpt><trkpt lat="42.144976" lon="13.2888391"><ele>797.0</ele><time>2026-05-02T15:41:15.982Z</time></trkpt><trkpt lat="42.144979" lon="13.2890128"><ele>796.5714285714286</ele><time>2026-05-02T15:41:17.982Z</time></trkpt><trkpt lat="42.1449763" lon="13.289104"><ele>796.1428571428572</ele><time>2026-05-02T15:41:18.982Z</time></trkpt><trkpt lat="42.1449799" lon="13.2891994"><ele>795.7142857142858</ele><time>2026-05-02T15:41:19.982Z</time></trkpt><trkpt lat="42.144989" lon="13.2892979"><ele>795.2857142857142</ele><time>2026-05-02T15:41:20.982Z</time></trkpt><trkpt lat="42.1449991" lon="13.2893893"><ele>794.8571428571429</ele><time>2026-05-02T15:41:21.982Z</time></trkpt><trkpt lat="42.1449988" lon="13.2894843"><ele>794.4285714285714</ele><time>2026-05-02T15:41:22.982Z</time></trkpt><trkpt lat="42.1450059" lon="13.289584"><ele>794.0</ele><time>2026-05-02T15:41:23.982Z</time></trkpt><trkpt lat="42.1450248" lon="13.2896729"><ele>794.5714285714286</ele><time>2026-05-02T15:41:24.982Z</time></trkpt><trkpt lat="42.1450546" lon="13.289759"><ele>795.1428571428571</ele><time>2026-05-02T15:41:25.982Z</time></trkpt><trkpt lat="42.1450914" lon="13.2898454"><ele>795.7142857142858</ele><time>2026-05-02T15:41:26.982Z</time></trkpt><trkpt lat="42.1451301" lon="13.2899234"><ele>796.2857142857142</ele><time>2026-05-02T15:41:27.982Z</time></trkpt><trkpt lat="42.1451625" lon="13.2899996"><ele>796.8571428571429</ele><time>2026-05-02T15:41:28.982Z</time></trkpt><trkpt lat="42.1451996" lon="13.2900896"><ele>797.4285714285714</ele><time>2026-05-02T15:41:29.982Z</time></trkpt><trkpt lat="42.1452396" lon="13.2901845"><ele>798.0</ele><time>2026-05-02T15:41:30.981Z</time></trkpt><trkpt lat="42.1452846" lon="13.2902773"><ele>798.0</ele><time>2026-05-02T15:41:31.981Z</time></trkpt><trkpt lat="42.145334" lon="13.2903638"><ele>798.0</ele><time>2026-05-02T15:41:32.982Z</time></trkpt><trkpt lat="42.1453942" lon="13.2904468"><ele>798.0</ele><time>2026-05-02T15:41:33.982Z</time></trkpt><trkpt lat="42.1454603" lon="13.2905325"><ele>798.0</ele><time>2026-05-02T15:41:34.982Z</time></trkpt><trkpt lat="42.1455266" lon="13.2906192"><ele>798.0</ele><time>2026-05-02T15:41:35.981Z</time></trkpt><trkpt lat="42.1455948" lon="13.2906991"><ele>798.0</ele><time>2026-05-02T15:41:36.982Z</time></trkpt><trkpt lat="42.1456623" lon="13.2907659"><ele>796.3333333333334</ele><time>2026-05-02T15:41:37.982Z</time></trkpt><trkpt lat="42.1457365" lon="13.290829"><ele>794.6666666666667</ele><time>2026-05-02T15:41:38.982Z</time></trkpt><trkpt lat="42.1458096" lon="13.2908926"><ele>793.0</ele><time>2026-05-02T15:41:39.982Z</time></trkpt><trkpt lat="42.1458764" lon="13.2909509"><ele>791.3333333333334</ele><time>2026-05-02T15:41:40.982Z</time></trkpt><trkpt lat="42.1459402" lon="13.2910036"><ele>789.6666666666667</ele><time>2026-05-02T15:41:41.982Z</time></trkpt><trkpt lat="42.1459922" lon="13.2910583"><ele>788.0</ele><time>2026-05-02T15:41:42.982Z</time></trkpt><trkpt lat="42.146055" lon="13.2911536"><ele>788.0</ele><time>2026-05-02T15:41:44.982Z</time></trkpt><trkpt lat="42.1461321" lon="13.2911795"><ele>788.0</ele><time>2026-05-02T15:41:48.982Z</time></trkpt><trkpt lat="42.1461921" lon="13.2910944"><ele>788.0</ele><time>2026-05-02T15:41:50.981Z</time></trkpt><trkpt lat="42.146236" lon="13.2909562"><ele>788.0</ele><time>2026-05-02T15:41:52.982Z</time></trkpt><trkpt lat="42.1462904" lon="13.2908197"><ele>788.0</ele><time>2026-05-02T15:41:54.982Z</time></trkpt><trkpt lat="42.1463304" lon="13.2907197"><ele>788.0000000000001</ele><time>2026-05-02T15:41:56.982Z</time></trkpt><trkpt lat="42.146357" lon="13.2906419"><ele>788.0</ele><time>2026-05-02T15:41:58.982Z</time></trkpt><trkpt lat="42.1463712" lon="13.290558"><ele>788.0</ele><time>2026-05-02T15:42:01.982Z</time></trkpt><trkpt lat="42.1463296" lon="13.290629"><ele>788.0</ele><time>2026-05-02T15:42:08.982Z</time></trkpt><trkpt lat="42.1463267" lon="13.2907338"><ele>788.0000000000001</ele><time>2026-05-02T15:42:10.982Z</time></trkpt><trkpt lat="42.146279" lon="13.29084"><ele>788.0</ele><time>2026-05-02T15:42:12.982Z</time></trkpt><trkpt lat="42.1462285" lon="13.2909716"><ele>788.0</ele><time>2026-05-02T15:42:14.982Z</time></trkpt><trkpt lat="42.1461804" lon="13.2910702"><ele>788.0</ele><time>2026-05-02T15:42:16.982Z</time></trkpt><trkpt lat="42.1461507" lon="13.2911856"><ele>788.0</ele><time>2026-05-02T15:42:19.982Z</time></trkpt><trkpt lat="42.1461768" lon="13.2912765"><ele>788.0</ele><time>2026-05-02T15:42:21.982Z</time></trkpt><trkpt lat="42.1462487" lon="13.291387"><ele>788.0</ele><time>2026-05-02T15:42:23.982Z</time></trkpt><trkpt lat="42.1463436" lon="13.291497"><ele>789.0000000000001</ele><time>2026-05-02T15:42:25.982Z</time></trkpt><trkpt lat="42.1463916" lon="13.2915542"><ele>790.0</ele><time>2026-05-02T15:42:26.981Z</time></trkpt><trkpt lat="42.1464359" lon="13.2916152"><ele>791.0</ele><time>2026-05-02T15:42:27.981Z</time></trkpt><trkpt lat="42.1464821" lon="13.2916742"><ele>792.0</ele><time>2026-05-02T15:42:28.982Z</time></trkpt><trkpt lat="42.1465313" lon="13.2917359"><ele>793.0000000000001</ele><time>2026-05-02T15:42:29.982Z</time></trkpt><trkpt lat="42.1466235" lon="13.291839"><ele>794.0</ele><time>2026-05-02T15:42:31.981Z</time></trkpt><trkpt lat="42.1466965" lon="13.2918925"><ele>791.6666666666667</ele><time>2026-05-02T15:42:33.982Z</time></trkpt><trkpt lat="42.1467915" lon="13.2918748"><ele>789.3333333333334</ele><time>2026-05-02T15:42:36.982Z</time></trkpt><trkpt lat="42.146861" lon="13.2917965"><ele>787.0</ele><time>2026-05-02T15:42:38.982Z</time></trkpt><trkpt lat="42.1469103" lon="13.2917358"><ele>784.6666666666667</ele><time>2026-05-02T15:42:39.982Z</time></trkpt><trkpt lat="42.1469658" lon="13.2916781"><ele>782.3333333333334</ele><time>2026-05-02T15:42:40.982Z</time></trkpt><trkpt lat="42.1470186" lon="13.2916226"><ele>780.0</ele><time>2026-05-02T15:42:41.982Z</time></trkpt><trkpt lat="42.1471339" lon="13.2915527"><ele>780.0</ele><time>2026-05-02T15:42:43.982Z</time></trkpt><trkpt lat="42.1471951" lon="13.2915325"><ele>780.0</ele><time>2026-05-02T15:42:44.982Z</time></trkpt><trkpt lat="42.1473075" lon="13.2915217"><ele>780.0</ele><time>2026-05-02T15:42:46.982Z</time></trkpt><trkpt lat="42.1474166" lon="13.291568"><ele>780.0</ele><time>2026-05-02T15:42:48.982Z</time></trkpt><trkpt lat="42.1474932" lon="13.2916007"><ele>780.0</ele><time>2026-05-02T15:42:50.982Z</time></trkpt><trkpt lat="42.1475589" lon="13.2916348"><ele>780.0</ele><time>2026-05-02T15:43:06.981Z</time></trkpt><trkpt lat="42.1475931" lon="13.291562"><ele>776.6</ele><time>2026-05-02T15:43:12.982Z</time></trkpt><trkpt lat="42.1475449" lon="13.2914502"><ele>773.2</ele><time>2026-05-02T15:43:15.982Z</time></trkpt><trkpt lat="42.1474878" lon="13.2913382"><ele>769.8</ele><time>2026-05-02T15:43:17.982Z</time></trkpt><trkpt lat="42.1474362" lon="13.2912318"><ele>766.4</ele><time>2026-05-02T15:43:19.982Z</time></trkpt><trkpt lat="42.1473972" lon="13.2911437"><ele>763.0</ele><time>2026-05-02T15:43:21.982Z</time></trkpt><trkpt lat="42.1473982" lon="13.2910262"><ele>761.3333333333334</ele><time>2026-05-02T15:43:24.982Z</time></trkpt><trkpt lat="42.1474395" lon="13.2909354"><ele>759.6666666666667</ele><time>2026-05-02T15:43:26.982Z</time></trkpt><trkpt lat="42.1475042" lon="13.2908384"><ele>758.0</ele><time>2026-05-02T15:43:28.982Z</time></trkpt><trkpt lat="42.1475436" lon="13.2907481"><ele>756.3333333333334</ele><time>2026-05-02T15:43:29.982Z</time></trkpt><trkpt lat="42.1475817" lon="13.2906654"><ele>754.6666666666666</ele><time>2026-05-02T15:43:30.982Z</time></trkpt><trkpt lat="42.1476218" lon="13.2905837"><ele>753.0</ele><time>2026-05-02T15:43:31.982Z</time></trkpt><trkpt lat="42.1476654" lon="13.2905037"><ele>753.0</ele><time>2026-05-02T15:43:32.982Z</time></trkpt><trkpt lat="42.1477163" lon="13.2904327"><ele>753.0</ele><time>2026-05-02T15:43:33.982Z</time></trkpt><trkpt lat="42.1477758" lon="13.2903749"><ele>753.0</ele><time>2026-05-02T15:43:34.982Z</time></trkpt><trkpt lat="42.1478415" lon="13.2903275"><ele>753.0</ele><time>2026-05-02T15:43:35.982Z</time></trkpt><trkpt lat="42.1479097" lon="13.2902881"><ele>753.0</ele><time>2026-05-02T15:43:36.982Z</time></trkpt><trkpt lat="42.1479826" lon="13.2902454"><ele>753.0</ele><time>2026-05-02T15:43:37.982Z</time></trkpt><trkpt lat="42.1480617" lon="13.2901957"><ele>753.0</ele><time>2026-05-02T15:43:38.981Z</time></trkpt><trkpt lat="42.1481452" lon="13.2901404"><ele>753.0</ele><time>2026-05-02T15:43:39.981Z</time></trkpt><trkpt lat="42.1482334" lon="13.2900791"><ele>753.0</ele><time>2026-05-02T15:43:40.982Z</time></trkpt><trkpt lat="42.1483223" lon="13.2900133"><ele>753.0</ele><time>2026-05-02T15:43:41.982Z</time></trkpt><trkpt lat="42.1484128" lon="13.2899484"><ele>753.0</ele><time>2026-05-02T15:43:42.982Z</time></trkpt><trkpt lat="42.1484986" lon="13.2898783"><ele>750.2</ele><time>2026-05-02T15:43:43.982Z</time></trkpt><trkpt lat="42.1485819" lon="13.289807"><ele>747.4</ele><time>2026-05-02T15:43:44.982Z</time></trkpt><trkpt lat="42.1486673" lon="13.2897383"><ele>744.6</ele><time>2026-05-02T15:43:45.982Z</time></trkpt><trkpt lat="42.1487567" lon="13.2896716"><ele>741.8000000000001</ele><time>2026-05-02T15:43:46.982Z</time></trkpt><trkpt lat="42.1488464" lon="13.2896077"><ele>739.0</ele><time>2026-05-02T15:43:47.982Z</time></trkpt><trkpt lat="42.1489261" lon="13.2895427"><ele>739.2</ele><time>2026-05-02T15:43:48.982Z</time></trkpt><trkpt lat="42.1489961" lon="13.2894681"><ele>739.4000000000001</ele><time>2026-05-02T15:43:49.982Z</time></trkpt><trkpt lat="42.1490563" lon="13.2893821"><ele>739.6</ele><time>2026-05-02T15:43:50.982Z</time></trkpt><trkpt lat="42.1491141" lon="13.2892898"><ele>739.8</ele><time>2026-05-02T15:43:51.982Z</time></trkpt><trkpt lat="42.1491719" lon="13.2891918"><ele>740.0</ele><time>2026-05-02T15:43:52.982Z</time></trkpt><trkpt lat="42.1492262" lon="13.2890942"><ele>740.0</ele><time>2026-05-02T15:43:53.982Z</time></trkpt><trkpt lat="42.1492781" lon="13.2890034"><ele>740.0</ele><time>2026-05-02T15:43:54.982Z</time></trkpt><trkpt lat="42.1493362" lon="13.2889279"><ele>740.0</ele><time>2026-05-02T15:43:55.982Z</time></trkpt><trkpt lat="42.1493988" lon="13.288871"><ele>740.0</ele><time>2026-05-02T15:43:56.982Z</time></trkpt><trkpt lat="42.1494584" lon="13.2888194"><ele>740.0</ele><time>2026-05-02T15:43:57.981Z</time></trkpt><trkpt lat="42.1495178" lon="13.288755"><ele>740.0</ele><time>2026-05-02T15:43:58.982Z</time></trkpt><trkpt lat="42.149581" lon="13.2886779"><ele>740.6</ele><time>2026-05-02T15:43:59.981Z</time></trkpt><trkpt lat="42.1496435" lon="13.2885923"><ele>741.2</ele><time>2026-05-02T15:44:00.982Z</time></trkpt><trkpt lat="42.1497108" lon="13.2885068"><ele>741.8</ele><time>2026-05-02T15:44:01.982Z</time></trkpt><trkpt lat="42.1497799" lon="13.2884193"><ele>742.4</ele><time>2026-05-02T15:44:02.982Z</time></trkpt><trkpt lat="42.1498444" lon="13.2883277"><ele>743.0</ele><time>2026-05-02T15:44:03.982Z</time></trkpt><trkpt lat="42.1499107" lon="13.2882266"><ele>741.4</ele><time>2026-05-02T15:44:04.982Z</time></trkpt><trkpt lat="42.14998" lon="13.2881173"><ele>739.8</ele><time>2026-05-02T15:44:05.982Z</time></trkpt><trkpt lat="42.1500386" lon="13.2880012"><ele>738.2</ele><time>2026-05-02T15:44:06.981Z</time></trkpt><trkpt lat="42.1500959" lon="13.2878903"><ele>736.6</ele><time>2026-05-02T15:44:07.982Z</time></trkpt><trkpt lat="42.1501555" lon="13.2877812"><ele>735.0</ele><time>2026-05-02T15:44:08.982Z</time></trkpt><trkpt lat="42.1502106" lon="13.2876854"><ele>734.7142857142857</ele><time>2026-05-02T15:44:09.982Z</time></trkpt><trkpt lat="42.1502532" lon="13.2876014"><ele>734.4285714285714</ele><time>2026-05-02T15:44:10.981Z</time></trkpt><trkpt lat="42.1502899" lon="13.2875215"><ele>734.1428571428571</ele><time>2026-05-02T15:44:11.982Z</time></trkpt><trkpt lat="42.1503294" lon="13.2874427"><ele>733.8571428571429</ele><time>2026-05-02T15:44:12.982Z</time></trkpt><trkpt lat="42.1503672" lon="13.2873616"><ele>733.5714285714286</ele><time>2026-05-02T15:44:13.982Z</time></trkpt><trkpt lat="42.1504166" lon="13.2872858"><ele>733.2857142857142</ele><time>2026-05-02T15:44:14.982Z</time></trkpt><trkpt lat="42.1504726" lon="13.2872019"><ele>733.0</ele><time>2026-05-02T15:44:15.981Z</time></trkpt><trkpt lat="42.1505335" lon="13.2871117"><ele>732.8333333333334</ele><time>2026-05-02T15:44:16.982Z</time></trkpt><trkpt lat="42.1505894" lon="13.2870342"><ele>732.6666666666667</ele><time>2026-05-02T15:44:17.982Z</time></trkpt><trkpt lat="42.1506412" lon="13.2869671"><ele>732.5</ele><time>2026-05-02T15:44:18.982Z</time></trkpt><trkpt lat="42.1506931" lon="13.2869137"><ele>732.3333333333334</ele><time>2026-05-02T15:44:19.982Z</time></trkpt><trkpt lat="42.1507862" lon="13.2868455"><ele>732.1666666666666</ele><time>2026-05-02T15:44:21.982Z</time></trkpt><trkpt lat="42.1508423" lon="13.2867972"><ele>732.0</ele><time>2026-05-02T15:44:22.982Z</time></trkpt><trkpt lat="42.150905" lon="13.2867305"><ele>731.6</ele><time>2026-05-02T15:44:23.982Z</time></trkpt><trkpt lat="42.1509777" lon="13.2866534"><ele>731.2</ele><time>2026-05-02T15:44:24.982Z</time></trkpt><trkpt lat="42.1510566" lon="13.2865595"><ele>730.8</ele><time>2026-05-02T15:44:25.982Z</time></trkpt><trkpt lat="42.1511289" lon="13.2864614"><ele>730.4</ele><time>2026-05-02T15:44:26.982Z</time></trkpt><trkpt lat="42.1511911" lon="13.2863605"><ele>730.0</ele><time>2026-05-02T15:44:27.982Z</time></trkpt><trkpt lat="42.1512492" lon="13.2862626"><ele>729.6</ele><time>2026-05-02T15:44:28.981Z</time></trkpt><trkpt lat="42.1513077" lon="13.286165"><ele>729.2</ele><time>2026-05-02T15:44:29.981Z</time></trkpt><trkpt lat="42.1513713" lon="13.2860664"><ele>728.8</ele><time>2026-05-02T15:44:30.982Z</time></trkpt><trkpt lat="42.1514381" lon="13.2859688"><ele>728.4</ele><time>2026-05-02T15:44:31.981Z</time></trkpt><trkpt lat="42.1515049" lon="13.2858755"><ele>728.0</ele><time>2026-05-02T15:44:32.982Z</time></trkpt><trkpt lat="42.1515729" lon="13.2857911"><ele>727.5999999999999</ele><time>2026-05-02T15:44:33.982Z</time></trkpt><trkpt lat="42.1516477" lon="13.2857237"><ele>727.1999999999999</ele><time>2026-05-02T15:44:34.982Z</time></trkpt><trkpt lat="42.1517283" lon="13.285663"><ele>726.8</ele><time>2026-05-02T15:44:35.981Z</time></trkpt><trkpt lat="42.1518056" lon="13.2855858"><ele>726.4</ele><time>2026-05-02T15:44:36.982Z</time></trkpt><trkpt lat="42.1518771" lon="13.2855013"><ele>726.0</ele><time>2026-05-02T15:44:37.982Z</time></trkpt><trkpt lat="42.1519502" lon="13.2854239"><ele>726.0</ele><time>2026-05-02T15:44:38.981Z</time></trkpt><trkpt lat="42.1520234" lon="13.2853454"><ele>726.0</ele><time>2026-05-02T15:44:39.982Z</time></trkpt><trkpt lat="42.1520968" lon="13.2852614"><ele>726.0</ele><time>2026-05-02T15:44:40.981Z</time></trkpt><trkpt lat="42.1521716" lon="13.2851765"><ele>726.0</ele><time>2026-05-02T15:44:41.982Z</time></trkpt><trkpt lat="42.1522528" lon="13.2850881"><ele>726.0</ele><time>2026-05-02T15:44:42.982Z</time></trkpt><trkpt lat="42.1523392" lon="13.2850061"><ele>726.0</ele><time>2026-05-02T15:44:43.981Z</time></trkpt><trkpt lat="42.1524277" lon="13.2849199"><ele>726.0</ele><time>2026-05-02T15:44:44.982Z</time></trkpt><trkpt lat="42.1525189" lon="13.2848373"><ele>726.0</ele><time>2026-05-02T15:44:45.981Z</time></trkpt><trkpt lat="42.1526036" lon="13.2847492"><ele>726.0</ele><time>2026-05-02T15:44:46.982Z</time></trkpt><trkpt lat="42.1526835" lon="13.2846499"><ele>726.0</ele><time>2026-05-02T15:44:47.982Z</time></trkpt><trkpt lat="42.1527677" lon="13.2845482"><ele>725.5</ele><time>2026-05-02T15:44:48.982Z</time></trkpt><trkpt lat="42.1528539" lon="13.2844447"><ele>725.0</ele><time>2026-05-02T15:44:49.982Z</time></trkpt><trkpt lat="42.1529399" lon="13.2843352"><ele>724.5</ele><time>2026-05-02T15:44:50.982Z</time></trkpt><trkpt lat="42.153026" lon="13.2842182"><ele>724.0</ele><time>2026-05-02T15:44:51.982Z</time></trkpt><trkpt lat="42.1531088" lon="13.2840918"><ele>724.0</ele><time>2026-05-02T15:44:52.981Z</time></trkpt><trkpt lat="42.1531895" lon="13.2839586"><ele>724.0</ele><time>2026-05-02T15:44:53.982Z</time></trkpt><trkpt lat="42.1532676" lon="13.2838294"><ele>724.0</ele><time>2026-05-02T15:44:54.982Z</time></trkpt><trkpt lat="42.1533451" lon="13.2837017"><ele>724.0</ele><time>2026-05-02T15:44:55.982Z</time></trkpt><trkpt lat="42.1534237" lon="13.283569"><ele>724.75</ele><time>2026-05-02T15:44:56.982Z</time></trkpt><trkpt lat="42.153503" lon="13.2834315"><ele>725.5</ele><time>2026-05-02T15:44:57.981Z</time></trkpt><trkpt lat="42.1535841" lon="13.28329"><ele>726.25</ele><time>2026-05-02T15:44:58.982Z</time></trkpt><trkpt lat="42.1536714" lon="13.2831525"><ele>727.0</ele><time>2026-05-02T15:44:59.982Z</time></trkpt><trkpt lat="42.1537653" lon="13.283019"><ele>727.0</ele><time>2026-05-02T15:45:00.981Z</time></trkpt><trkpt lat="42.1538616" lon="13.2828858"><ele>727.0</ele><time>2026-05-02T15:45:01.982Z</time></trkpt><trkpt lat="42.1539588" lon="13.2827503"><ele>727.0</ele><time>2026-05-02T15:45:02.982Z</time></trkpt><trkpt lat="42.1540598" lon="13.282615"><ele>727.0</ele><time>2026-05-02T15:45:03.982Z</time></trkpt><trkpt lat="42.154164" lon="13.2824811"><ele>727.25</ele><time>2026-05-02T15:45:04.981Z</time></trkpt><trkpt lat="42.1542678" lon="13.2823451"><ele>727.5</ele><time>2026-05-02T15:45:05.982Z</time></trkpt><trkpt lat="42.1543703" lon="13.2822109"><ele>727.75</ele><time>2026-05-02T15:45:06.982Z</time></trkpt><trkpt lat="42.1544748" lon="13.2820908"><ele>728.0</ele><time>2026-05-02T15:45:07.982Z</time></trkpt><trkpt lat="42.1545833" lon="13.2819954"><ele>728.25</ele><time>2026-05-02T15:45:08.982Z</time></trkpt><trkpt lat="42.1546979" lon="13.2819035"><ele>728.5</ele><time>2026-05-02T15:45:09.982Z</time></trkpt><trkpt lat="42.154816" lon="13.2818209"><ele>728.75</ele><time>2026-05-02T15:45:10.982Z</time></trkpt><trkpt lat="42.1549369" lon="13.2817443"><ele>729.0</ele><time>2026-05-02T15:45:11.982Z</time></trkpt><trkpt lat="42.1550556" lon="13.2816648"><ele>729.25</ele><time>2026-05-02T15:45:12.982Z</time></trkpt><trkpt lat="42.1551713" lon="13.2815771"><ele>729.5</ele><time>2026-05-02T15:45:13.982Z</time></trkpt><trkpt lat="42.1552862" lon="13.2814812"><ele>729.75</ele><time>2026-05-02T15:45:14.982Z</time></trkpt><trkpt lat="42.1554005" lon="13.2813757"><ele>730.0</ele><time>2026-05-02T15:45:15.981Z</time></trkpt><trkpt lat="42.1555167" lon="13.2812671"><ele>730.0</ele><time>2026-05-02T15:45:16.981Z</time></trkpt><trkpt lat="42.1556319" lon="13.281154"><ele>730.0</ele><time>2026-05-02T15:45:17.982Z</time></trkpt><trkpt lat="42.1557541" lon="13.2810478"><ele>730.0</ele><time>2026-05-02T15:45:18.982Z</time></trkpt><trkpt lat="42.1558773" lon="13.2809463"><ele>730.0</ele><time>2026-05-02T15:45:19.982Z</time></trkpt><trkpt lat="42.1560022" lon="13.2808431"><ele>731.0</ele><time>2026-05-02T15:45:20.982Z</time></trkpt><trkpt lat="42.1561265" lon="13.2807428"><ele>732.0</ele><time>2026-05-02T15:45:21.982Z</time></trkpt><trkpt lat="42.1562495" lon="13.2806394"><ele>733.0</ele><time>2026-05-02T15:45:22.982Z</time></trkpt><trkpt lat="42.156368" lon="13.2805346"><ele>734.0</ele><time>2026-05-02T15:45:23.982Z</time></trkpt><trkpt lat="42.1564797" lon="13.2804356"><ele>735.0</ele><time>2026-05-02T15:45:24.982Z</time></trkpt><trkpt lat="42.1565841" lon="13.2803354"><ele>736.0</ele><time>2026-05-02T15:45:25.982Z</time></trkpt><trkpt lat="42.1566839" lon="13.280242"><ele>737.0</ele><time>2026-05-02T15:45:26.982Z</time></trkpt><trkpt lat="42.1567851" lon="13.2801566"><ele>738.0</ele><time>2026-05-02T15:45:27.982Z</time></trkpt><trkpt lat="42.1568918" lon="13.2800731"><ele>738.0</ele><time>2026-05-02T15:45:28.982Z</time></trkpt><trkpt lat="42.1570001" lon="13.280001"><ele>738.0</ele><time>2026-05-02T15:45:29.982Z</time></trkpt><trkpt lat="42.1571187" lon="13.279931"><ele>738.0</ele><time>2026-05-02T15:45:30.982Z</time></trkpt><trkpt lat="42.1572445" lon="13.2798641"><ele>738.0</ele><time>2026-05-02T15:45:31.982Z</time></trkpt><trkpt lat="42.1573777" lon="13.2798025"><ele>738.25</ele><time>2026-05-02T15:45:32.982Z</time></trkpt><trkpt lat="42.1575174" lon="13.2797461"><ele>738.5</ele><time>2026-05-02T15:45:33.982Z</time></trkpt><trkpt lat="42.1576611" lon="13.2796909"><ele>738.75</ele><time>2026-05-02T15:45:34.982Z</time></trkpt><trkpt lat="42.1578071" lon="13.2796444"><ele>739.0</ele><time>2026-05-02T15:45:35.982Z</time></trkpt><trkpt lat="42.1579513" lon="13.2796016"><ele>739.0</ele><time>2026-05-02T15:45:36.982Z</time></trkpt><trkpt lat="42.1580924" lon="13.2795604"><ele>739.0</ele><time>2026-05-02T15:45:37.982Z</time></trkpt><trkpt lat="42.1582325" lon="13.2795302"><ele>739.0</ele><time>2026-05-02T15:45:38.982Z</time></trkpt><trkpt lat="42.1583716" lon="13.2795101"><ele>739.0</ele><time>2026-05-02T15:45:39.982Z</time></trkpt><trkpt lat="42.1585092" lon="13.2794898"><ele>740.0</ele><time>2026-05-02T15:45:40.982Z</time></trkpt><trkpt lat="42.158646" lon="13.2794671"><ele>741.0</ele><time>2026-05-02T15:45:41.982Z</time></trkpt><trkpt lat="42.1587837" lon="13.2794438"><ele>742.0</ele><time>2026-05-02T15:45:42.981Z</time></trkpt><trkpt lat="42.1589223" lon="13.2794181"><ele>743.0</ele><time>2026-05-02T15:45:43.982Z</time></trkpt><trkpt lat="42.1590611" lon="13.2793913"><ele>744.25</ele><time>2026-05-02T15:45:44.982Z</time></trkpt><trkpt lat="42.1591982" lon="13.2793587"><ele>745.5</ele><time>2026-05-02T15:45:45.982Z</time></trkpt><trkpt lat="42.1593321" lon="13.2793176"><ele>746.75</ele><time>2026-05-02T15:45:46.982Z</time></trkpt><trkpt lat="42.1594651" lon="13.2792747"><ele>748.0</ele><time>2026-05-02T15:45:47.981Z</time></trkpt><trkpt lat="42.1595992" lon="13.2792343"><ele>748.0</ele><time>2026-05-02T15:45:48.982Z</time></trkpt><trkpt lat="42.1597335" lon="13.2792035"><ele>748.0</ele><time>2026-05-02T15:45:49.982Z</time></trkpt><trkpt lat="42.1598669" lon="13.2791827"><ele>748.0</ele><time>2026-05-02T15:45:50.982Z</time></trkpt><trkpt lat="42.1599968" lon="13.279155"><ele>748.0</ele><time>2026-05-02T15:45:51.982Z</time></trkpt><trkpt lat="42.1601234" lon="13.2791211"><ele>748.75</ele><time>2026-05-02T15:45:52.982Z</time></trkpt><trkpt lat="42.1602505" lon="13.2790848"><ele>749.5</ele><time>2026-05-02T15:45:53.982Z</time></trkpt><trkpt lat="42.1603783" lon="13.2790446"><ele>750.25</ele><time>2026-05-02T15:45:54.982Z</time></trkpt><trkpt lat="42.1605066" lon="13.2790015"><ele>751.0</ele><time>2026-05-02T15:45:55.982Z</time></trkpt><trkpt lat="42.1606363" lon="13.2789584"><ele>751.75</ele><time>2026-05-02T15:45:56.982Z</time></trkpt><trkpt lat="42.1607669" lon="13.278914"><ele>752.5</ele><time>2026-05-02T15:45:57.982Z</time></trkpt><trkpt lat="42.1608983" lon="13.2788676"><ele>753.25</ele><time>2026-05-02T15:45:58.982Z</time></trkpt><trkpt lat="42.1610317" lon="13.2788202"><ele>754.0</ele><time>2026-05-02T15:45:59.982Z</time></trkpt><trkpt lat="42.1611677" lon="13.2787767"><ele>754.0</ele><time>2026-05-02T15:46:00.982Z</time></trkpt><trkpt lat="42.1613047" lon="13.2787371"><ele>754.0</ele><time>2026-05-02T15:46:01.982Z</time></trkpt><trkpt lat="42.1614411" lon="13.2786989"><ele>754.0</ele><time>2026-05-02T15:46:02.982Z</time></trkpt><trkpt lat="42.1615773" lon="13.2786607"><ele>754.0</ele><time>2026-05-02T15:46:03.982Z</time></trkpt><trkpt lat="42.1617129" lon="13.2786184"><ele>754.75</ele><time>2026-05-02T15:46:04.982Z</time></trkpt><trkpt lat="42.1618494" lon="13.2785756"><ele>755.5</ele><time>2026-05-02T15:46:05.982Z</time></trkpt><trkpt lat="42.1619849" lon="13.2785318"><ele>756.25</ele><time>2026-05-02T15:46:06.981Z</time></trkpt><trkpt lat="42.1621185" lon="13.2784823"><ele>757.0</ele><time>2026-05-02T15:46:07.982Z</time></trkpt><trkpt lat="42.1622528" lon="13.2784322"><ele>758.0</ele><time>2026-05-02T15:46:08.982Z</time></trkpt><trkpt lat="42.162386" lon="13.2783839"><ele>759.0</ele><time>2026-05-02T15:46:09.981Z</time></trkpt><trkpt lat="42.1625199" lon="13.278338"><ele>760.0</ele><time>2026-05-02T15:46:10.982Z</time></trkpt><trkpt lat="42.162655" lon="13.2782918"><ele>761.0</ele><time>2026-05-02T15:46:11.982Z</time></trkpt><trkpt lat="42.1627896" lon="13.2782477"><ele>761.0</ele><time>2026-05-02T15:46:12.982Z</time></trkpt><trkpt lat="42.1629232" lon="13.2782082"><ele>761.0</ele><time>2026-05-02T15:46:13.982Z</time></trkpt><trkpt lat="42.1630559" lon="13.2781717"><ele>761.0</ele><time>2026-05-02T15:46:14.982Z</time></trkpt><trkpt lat="42.1631867" lon="13.2781331"><ele>761.0</ele><time>2026-05-02T15:46:15.982Z</time></trkpt><trkpt lat="42.1633134" lon="13.2780904"><ele>762.0</ele><time>2026-05-02T15:46:16.982Z</time></trkpt><trkpt lat="42.1634321" lon="13.2780408"><ele>763.0</ele><time>2026-05-02T15:46:17.982Z</time></trkpt><trkpt lat="42.1635414" lon="13.2779864"><ele>764.0</ele><time>2026-05-02T15:46:18.982Z</time></trkpt><trkpt lat="42.1636491" lon="13.2779219"><ele>765.0</ele><time>2026-05-02T15:46:19.982Z</time></trkpt><trkpt lat="42.163755" lon="13.2778437"><ele>765.0</ele><time>2026-05-02T15:46:20.982Z</time></trkpt><trkpt lat="42.1638532" lon="13.2777562"><ele>765.0</ele><time>2026-05-02T15:46:21.982Z</time></trkpt><trkpt lat="42.1639455" lon="13.2776725"><ele>765.0</ele><time>2026-05-02T15:46:22.982Z</time></trkpt><trkpt lat="42.1640371" lon="13.2776006"><ele>765.0</ele><time>2026-05-02T15:46:23.982Z</time></trkpt><trkpt lat="42.1641295" lon="13.2775439"><ele>765.0</ele><time>2026-05-02T15:46:24.982Z</time></trkpt><trkpt lat="42.1642214" lon="13.2775028"><ele>765.0</ele><time>2026-05-02T15:46:25.982Z</time></trkpt><trkpt lat="42.1643113" lon="13.277478"><ele>765.0</ele><time>2026-05-02T15:46:26.982Z</time></trkpt><trkpt lat="42.1644022" lon="13.2774638"><ele>765.0</ele><time>2026-05-02T15:46:27.982Z</time></trkpt><trkpt lat="42.164502" lon="13.2774645"><ele>765.0</ele><time>2026-05-02T15:46:28.982Z</time></trkpt><trkpt lat="42.1646132" lon="13.2774693"><ele>765.0</ele><time>2026-05-02T15:46:29.981Z</time></trkpt><trkpt lat="42.1647273" lon="13.2774742"><ele>765.0</ele><time>2026-05-02T15:46:30.981Z</time></trkpt><trkpt lat="42.1648364" lon="13.2774796"><ele>765.0</ele><time>2026-05-02T15:46:31.982Z</time></trkpt><trkpt lat="42.1649359" lon="13.2774814"><ele>765.0</ele><time>2026-05-02T15:46:32.982Z</time></trkpt><trkpt lat="42.165033" lon="13.2774767"><ele>765.0</ele><time>2026-05-02T15:46:33.982Z</time></trkpt><trkpt lat="42.1651368" lon="13.2774692"><ele>765.0</ele><time>2026-05-02T15:46:34.982Z</time></trkpt><trkpt lat="42.1652462" lon="13.2774594"><ele>764.6</ele><time>2026-05-02T15:46:35.982Z</time></trkpt><trkpt lat="42.1653589" lon="13.2774522"><ele>764.2</ele><time>2026-05-02T15:46:36.982Z</time></trkpt><trkpt lat="42.1654694" lon="13.2774502"><ele>763.8</ele><time>2026-05-02T15:46:37.982Z</time></trkpt><trkpt lat="42.1655745" lon="13.2774488"><ele>763.4</ele><time>2026-05-02T15:46:38.981Z</time></trkpt><trkpt lat="42.1656749" lon="13.277443"><ele>763.0</ele><time>2026-05-02T15:46:39.982Z</time></trkpt><trkpt lat="42.1657742" lon="13.2774347"><ele>762.5</ele><time>2026-05-02T15:46:40.982Z</time></trkpt><trkpt lat="42.1658765" lon="13.2774153"><ele>762.0</ele><time>2026-05-02T15:46:41.981Z</time></trkpt><trkpt lat="42.1659879" lon="13.2773837"><ele>761.5</ele><time>2026-05-02T15:46:42.982Z</time></trkpt><trkpt lat="42.1661036" lon="13.2773483"><ele>761.0</ele><time>2026-05-02T15:46:43.982Z</time></trkpt><trkpt lat="42.1662215" lon="13.2773071"><ele>760.75</ele><time>2026-05-02T15:46:44.982Z</time></trkpt><trkpt lat="42.1663396" lon="13.2772617"><ele>760.5</ele><time>2026-05-02T15:46:45.982Z</time></trkpt><trkpt lat="42.166454" lon="13.2772097"><ele>760.25</ele><time>2026-05-02T15:46:46.982Z</time></trkpt><trkpt lat="42.1665552" lon="13.2771559"><ele>760.0</ele><time>2026-05-02T15:46:47.982Z</time></trkpt><trkpt lat="42.1666442" lon="13.2770996"><ele>761.0</ele><time>2026-05-02T15:46:48.982Z</time></trkpt><trkpt lat="42.166723" lon="13.2770434"><ele>762.0</ele><time>2026-05-02T15:46:49.982Z</time></trkpt><trkpt lat="42.1667946" lon="13.2769946"><ele>763.0</ele><time>2026-05-02T15:46:50.982Z</time></trkpt><trkpt lat="42.166864" lon="13.2769587"><ele>764.0</ele><time>2026-05-02T15:46:51.981Z</time></trkpt><trkpt lat="42.1669373" lon="13.276937"><ele>765.0</ele><time>2026-05-02T15:46:52.982Z</time></trkpt><trkpt lat="42.1670159" lon="13.2769239"><ele>766.0</ele><time>2026-05-02T15:46:53.982Z</time></trkpt><trkpt lat="42.1670917" lon="13.2769185"><ele>766.0</ele><time>2026-05-02T15:46:54.982Z</time></trkpt><trkpt lat="42.1671636" lon="13.2769145"><ele>766.0</ele><time>2026-05-02T15:46:55.982Z</time></trkpt><trkpt lat="42.1672338" lon="13.276911"><ele>766.0</ele><time>2026-05-02T15:46:56.982Z</time></trkpt><trkpt lat="42.1673021" lon="13.2769089"><ele>766.0</ele><time>2026-05-02T15:46:57.982Z</time></trkpt><trkpt lat="42.1673651" lon="13.2769081"><ele>766.0</ele><time>2026-05-02T15:46:58.982Z</time></trkpt><trkpt lat="42.1674395" lon="13.2768783"><ele>766.0</ele><time>2026-05-02T15:47:00.982Z</time></trkpt><trkpt lat="42.1674813" lon="13.2768114"><ele>766.0</ele><time>2026-05-02T15:47:02.982Z</time></trkpt><trkpt lat="42.1675121" lon="13.2766872"><ele>767.8333333333334</ele><time>2026-05-02T15:47:04.982Z</time></trkpt><trkpt lat="42.1675374" lon="13.2765993"><ele>769.6666666666667</ele><time>2026-05-02T15:47:05.982Z</time></trkpt><trkpt lat="42.167565" lon="13.2765178"><ele>771.5</ele><time>2026-05-02T15:47:06.982Z</time></trkpt><trkpt lat="42.1675873" lon="13.2764338"><ele>773.3333333333334</ele><time>2026-05-02T15:47:07.982Z</time></trkpt><trkpt lat="42.1676453" lon="13.2762987"><ele>775.1666666666666</ele><time>2026-05-02T15:47:09.982Z</time></trkpt><trkpt lat="42.167694" lon="13.2762434"><ele>777.0</ele><time>2026-05-02T15:47:10.982Z</time></trkpt><trkpt lat="42.1678046" lon="13.2761975"><ele>778.0</ele><time>2026-05-02T15:47:12.981Z</time></trkpt><trkpt lat="42.1679028" lon="13.2762161"><ele>779.0</ele><time>2026-05-02T15:47:14.981Z</time></trkpt><trkpt lat="42.1680183" lon="13.2762576"><ele>780.0</ele><time>2026-05-02T15:47:16.982Z</time></trkpt><trkpt lat="42.1680875" lon="13.2762759"><ele>781.0</ele><time>2026-05-02T15:47:17.981Z</time></trkpt><trkpt lat="42.1681667" lon="13.27629"><ele>782.0</ele><time>2026-05-02T15:47:18.982Z</time></trkpt><trkpt lat="42.1682499" lon="13.2762958"><ele>782.0</ele><time>2026-05-02T15:47:19.982Z</time></trkpt><trkpt lat="42.168338" lon="13.2762878"><ele>782.0</ele><time>2026-05-02T15:47:20.982Z</time></trkpt><trkpt lat="42.1684359" lon="13.2762653"><ele>782.0</ele><time>2026-05-02T15:47:21.982Z</time></trkpt><trkpt lat="42.1685367" lon="13.2762394"><ele>782.0</ele><time>2026-05-02T15:47:22.982Z</time></trkpt><trkpt lat="42.1686394" lon="13.2762124"><ele>782.0</ele><time>2026-05-02T15:47:23.982Z</time></trkpt><trkpt lat="42.1687459" lon="13.2761823"><ele>782.0</ele><time>2026-05-02T15:47:24.982Z</time></trkpt><trkpt lat="42.168853" lon="13.2761522"><ele>782.0</ele><time>2026-05-02T15:47:25.982Z</time></trkpt><trkpt lat="42.1689567" lon="13.2761196"><ele>782.0</ele><time>2026-05-02T15:47:26.981Z</time></trkpt><trkpt lat="42.1690625" lon="13.2760861"><ele>782.0</ele><time>2026-05-02T15:47:27.981Z</time></trkpt><trkpt lat="42.1691702" lon="13.2760537"><ele>782.0</ele><time>2026-05-02T15:47:28.982Z</time></trkpt><trkpt lat="42.1692822" lon="13.2760193"><ele>783.75</ele><time>2026-05-02T15:47:29.982Z</time></trkpt><trkpt lat="42.1693969" lon="13.2759867"><ele>785.5</ele><time>2026-05-02T15:47:30.982Z</time></trkpt><trkpt lat="42.1695123" lon="13.2759542"><ele>787.25</ele><time>2026-05-02T15:47:31.982Z</time></trkpt><trkpt lat="42.1696286" lon="13.2759193"><ele>789.0</ele><time>2026-05-02T15:47:32.982Z</time></trkpt><trkpt lat="42.1697461" lon="13.2758798"><ele>790.25</ele><time>2026-05-02T15:47:33.982Z</time></trkpt><trkpt lat="42.1698622" lon="13.2758373"><ele>791.5</ele><time>2026-05-02T15:47:34.982Z</time></trkpt><trkpt lat="42.1699783" lon="13.2758002"><ele>792.75</ele><time>2026-05-02T15:47:35.982Z</time></trkpt><trkpt lat="42.1700961" lon="13.2757666"><ele>794.0</ele><time>2026-05-02T15:47:36.982Z</time></trkpt><trkpt lat="42.1702168" lon="13.2757366"><ele>794.0</ele><time>2026-05-02T15:47:37.982Z</time></trkpt><trkpt lat="42.1703335" lon="13.275712"><ele>794.0</ele><time>2026-05-02T15:47:38.982Z</time></trkpt><trkpt lat="42.1704359" lon="13.2756977"><ele>794.0</ele><time>2026-05-02T15:47:39.982Z</time></trkpt><trkpt lat="42.170522" lon="13.275691"><ele>794.0</ele><time>2026-05-02T15:47:40.981Z</time></trkpt><trkpt lat="42.1705987" lon="13.2756825"><ele>794.0</ele><time>2026-05-02T15:47:41.982Z</time></trkpt><trkpt lat="42.1706669" lon="13.2756687"><ele>794.5000000000001</ele><time>2026-05-02T15:47:42.982Z</time></trkpt><trkpt lat="42.1707579" lon="13.2756507"><ele>795.0</ele><time>2026-05-02T15:47:44.982Z</time></trkpt><trkpt lat="42.1708589" lon="13.2756401"><ele>795.5</ele><time>2026-05-02T15:47:46.982Z</time></trkpt><trkpt lat="42.1709291" lon="13.275619"><ele>796.0</ele><time>2026-05-02T15:47:47.981Z</time></trkpt><trkpt lat="42.1710136" lon="13.2756033"><ele>796.5000000000001</ele><time>2026-05-02T15:47:48.982Z</time></trkpt><trkpt lat="42.1711092" lon="13.2756118"><ele>797.0</ele><time>2026-05-02T15:47:49.982Z</time></trkpt><trkpt lat="42.1712142" lon="13.2756381"><ele>797.75</ele><time>2026-05-02T15:47:50.982Z</time></trkpt><trkpt lat="42.1713268" lon="13.2756715"><ele>798.5</ele><time>2026-05-02T15:47:51.982Z</time></trkpt><trkpt lat="42.1714457" lon="13.2757016"><ele>799.25</ele><time>2026-05-02T15:47:52.982Z</time></trkpt><trkpt lat="42.1715645" lon="13.2757404"><ele>800.0</ele><time>2026-05-02T15:47:53.982Z</time></trkpt><trkpt lat="42.1716801" lon="13.2758047"><ele>800.25</ele><time>2026-05-02T15:47:54.982Z</time></trkpt><trkpt lat="42.1717945" lon="13.2758873"><ele>800.5</ele><time>2026-05-02T15:47:55.982Z</time></trkpt><trkpt lat="42.1719153" lon="13.275959"><ele>800.75</ele><time>2026-05-02T15:47:56.982Z</time></trkpt><trkpt lat="42.1720413" lon="13.2760111"><ele>801.0</ele><time>2026-05-02T15:47:57.982Z</time></trkpt><trkpt lat="42.1721588" lon="13.2760521"><ele>801.0</ele><time>2026-05-02T15:47:58.982Z</time></trkpt><trkpt lat="42.1722648" lon="13.276094"><ele>801.0</ele><time>2026-05-02T15:47:59.982Z</time></trkpt><trkpt lat="42.1723598" lon="13.2761347"><ele>801.0</ele><time>2026-05-02T15:48:00.982Z</time></trkpt><trkpt lat="42.1724424" lon="13.2761688"><ele>801.0</ele><time>2026-05-02T15:48:01.982Z</time></trkpt><trkpt lat="42.1725235" lon="13.2762024"><ele>801.0</ele><time>2026-05-02T15:48:02.982Z</time></trkpt><trkpt lat="42.1726109" lon="13.2762397"><ele>801.1999999999999</ele><time>2026-05-02T15:48:03.982Z</time></trkpt><trkpt lat="42.172702" lon="13.2762792"><ele>801.4</ele><time>2026-05-02T15:48:04.981Z</time></trkpt><trkpt lat="42.1727936" lon="13.2763203"><ele>801.6</ele><time>2026-05-02T15:48:05.982Z</time></trkpt><trkpt lat="42.1728969" lon="13.2763496"><ele>801.8</ele><time>2026-05-02T15:48:06.982Z</time></trkpt><trkpt lat="42.1730005" lon="13.2763825"><ele>802.0</ele><time>2026-05-02T15:48:07.982Z</time></trkpt><trkpt lat="42.1730864" lon="13.2764085"><ele>801.9999999999999</ele><time>2026-05-02T15:48:08.982Z</time></trkpt><trkpt lat="42.1731612" lon="13.2763984"><ele>802.0</ele><time>2026-05-02T15:48:09.982Z</time></trkpt><trkpt lat="42.1732339" lon="13.2763716"><ele>802.0</ele><time>2026-05-02T15:48:10.982Z</time></trkpt><trkpt lat="42.1733095" lon="13.2763394"><ele>802.0</ele><time>2026-05-02T15:48:11.981Z</time></trkpt><trkpt lat="42.1733835" lon="13.2763071"><ele>801.9999999999999</ele><time>2026-05-02T15:48:12.982Z</time></trkpt><trkpt lat="42.1734592" lon="13.2762729"><ele>802.0</ele><time>2026-05-02T15:48:13.982Z</time></trkpt><trkpt lat="42.1735439" lon="13.2762403"><ele>804.0</ele><time>2026-05-02T15:48:14.982Z</time></trkpt><trkpt lat="42.1736398" lon="13.2762089"><ele>806.0</ele><time>2026-05-02T15:48:15.982Z</time></trkpt><trkpt lat="42.1737401" lon="13.2761821"><ele>808.0</ele><time>2026-05-02T15:48:16.982Z</time></trkpt><trkpt lat="42.1738277" lon="13.2761523"><ele>810.0</ele><time>2026-05-02T15:48:17.982Z</time></trkpt><trkpt lat="42.1738977" lon="13.2761308"><ele>812.0</ele><time>2026-05-02T15:48:18.982Z</time></trkpt><trkpt lat="42.1740143" lon="13.2761119"><ele>813.8333333333334</ele><time>2026-05-02T15:48:20.982Z</time></trkpt><trkpt lat="42.1740944" lon="13.2761292"><ele>815.6666666666667</ele><time>2026-05-02T15:48:22.982Z</time></trkpt><trkpt lat="42.1741883" lon="13.2761742"><ele>817.5</ele><time>2026-05-02T15:52:04.982Z</time></trkpt><trkpt lat="42.1742421" lon="13.2762212"><ele>819.3333333333333</ele><time>2026-05-02T15:52:05.982Z</time></trkpt><trkpt lat="42.1743241" lon="13.2762905"><ele>821.1666666666666</ele><time>2026-05-02T15:52:06.982Z</time></trkpt><trkpt lat="42.1744077" lon="13.2763634"><ele>823.0</ele><time>2026-05-02T15:52:07.982Z</time></trkpt><trkpt lat="42.1745003" lon="13.2764468"><ele>823.4</ele><time>2026-05-02T15:52:08.981Z</time></trkpt><trkpt lat="42.1746014" lon="13.2765289"><ele>823.8</ele><time>2026-05-02T15:52:09.982Z</time></trkpt><trkpt lat="42.1747034" lon="13.2765816"><ele>824.2</ele><time>2026-05-02T15:52:10.982Z</time></trkpt><trkpt lat="42.1747957" lon="13.2766044"><ele>824.6</ele><time>2026-05-02T15:52:11.981Z</time></trkpt><trkpt lat="42.1748927" lon="13.2766038"><ele>825.0</ele><time>2026-05-02T15:52:12.982Z</time></trkpt><trkpt lat="42.174988" lon="13.2765758"><ele>826.0</ele><time>2026-05-02T15:52:13.982Z</time></trkpt><trkpt lat="42.1750823" lon="13.2765179"><ele>827.0</ele><time>2026-05-02T15:52:14.982Z</time></trkpt><trkpt lat="42.1751677" lon="13.2764236"><ele>828.0</ele><time>2026-05-02T15:52:15.982Z</time></trkpt><trkpt lat="42.1752511" lon="13.2763207"><ele>829.0</ele><time>2026-05-02T15:52:16.982Z</time></trkpt><trkpt lat="42.1753246" lon="13.2761624"><ele>829.5</ele><time>2026-05-02T15:52:17.982Z</time></trkpt><trkpt lat="42.1754923" lon="13.2758335"><ele>830.0</ele><time>2026-05-02T15:52:20.301Z</time></trkpt><trkpt lat="42.1755949" lon="13.2756256"><ele>830.0</ele><time>2026-05-02T15:52:21.988Z</time></trkpt><trkpt lat="42.1756572" lon="13.2755195"><ele>830.0</ele><time>2026-05-02T15:52:22.987Z</time></trkpt><trkpt lat="42.1757361" lon="13.2754414"><ele>830.0</ele><time>2026-05-02T15:52:23.988Z</time></trkpt><trkpt lat="42.1758316" lon="13.2753947"><ele>830.0</ele><time>2026-05-02T15:52:24.987Z</time></trkpt><trkpt lat="42.175943" lon="13.2753695"><ele>830.0</ele><time>2026-05-02T15:52:25.987Z</time></trkpt><trkpt lat="42.1760621" lon="13.2753365"><ele>830.0</ele><time>2026-05-02T15:52:26.988Z</time></trkpt><trkpt lat="42.1761889" lon="13.2752956"><ele>830.0</ele><time>2026-05-02T15:52:27.988Z</time></trkpt><trkpt lat="42.1763176" lon="13.2752511"><ele>830.0</ele><time>2026-05-02T15:52:28.988Z</time></trkpt><trkpt lat="42.1764403" lon="13.275215"><ele>830.0</ele><time>2026-05-02T15:52:29.988Z</time></trkpt><trkpt lat="42.1765619" lon="13.2751843"><ele>828.4</ele><time>2026-05-02T15:52:30.988Z</time></trkpt><trkpt lat="42.1766769" lon="13.2751496"><ele>826.8</ele><time>2026-05-02T15:52:31.987Z</time></trkpt><trkpt lat="42.1767883" lon="13.2751153"><ele>825.2</ele><time>2026-05-02T15:52:32.988Z</time></trkpt><trkpt lat="42.1768902" lon="13.2750776"><ele>823.6</ele><time>2026-05-02T15:52:33.987Z</time></trkpt><trkpt lat="42.176982" lon="13.2750474"><ele>822.0</ele><time>2026-05-02T15:52:34.988Z</time></trkpt><trkpt lat="42.17707" lon="13.2750175"><ele>822.0</ele><time>2026-05-02T15:52:35.988Z</time></trkpt><trkpt lat="42.1771503" lon="13.27501"><ele>822.0</ele><time>2026-05-02T15:52:36.988Z</time></trkpt><trkpt lat="42.1772216" lon="13.2750353"><ele>822.0</ele><time>2026-05-02T15:52:37.988Z</time></trkpt><trkpt lat="42.1772778" lon="13.2750826"><ele>822.0</ele><time>2026-05-02T15:52:38.988Z</time></trkpt><trkpt lat="42.177331" lon="13.275194"><ele>822.0</ele><time>2026-05-02T15:52:40.987Z</time></trkpt><trkpt lat="42.1773977" lon="13.2751951"><ele>822.0</ele><time>2026-05-02T15:52:43.988Z</time></trkpt><trkpt lat="42.1774372" lon="13.2751122"><ele>821.5714285714286</ele><time>2026-05-02T15:52:46.987Z</time></trkpt><trkpt lat="42.1774887" lon="13.2750626"><ele>821.1428571428571</ele><time>2026-05-02T15:52:52.987Z</time></trkpt><trkpt lat="42.177536" lon="13.274999"><ele>820.7142857142858</ele><time>2026-05-02T15:53:04.988Z</time></trkpt><trkpt lat="42.1775852" lon="13.274909"><ele>820.2857142857142</ele><time>2026-05-02T15:53:07.988Z</time></trkpt><trkpt lat="42.1776515" lon="13.2748705"><ele>819.8571428571429</ele><time>2026-05-02T15:53:09.988Z</time></trkpt><trkpt lat="42.1777235" lon="13.2748611"><ele>819.4285714285714</ele><time>2026-05-02T15:53:20.988Z</time></trkpt><trkpt lat="42.1778113" lon="13.2748349"><ele>819.0</ele><time>2026-05-02T15:53:23.988Z</time></trkpt><trkpt lat="42.1777722" lon="13.2747627"><ele>819.0</ele><time>2026-05-02T15:53:28.988Z</time></trkpt><trkpt lat="42.1776721" lon="13.2747859"><ele>819.0</ele><time>2026-05-02T15:53:30.987Z</time></trkpt><trkpt lat="42.1775858" lon="13.2747613"><ele>819.0</ele><time>2026-05-02T15:53:32.988Z</time></trkpt><trkpt lat="42.1775313" lon="13.2747108"><ele>819.0</ele><time>2026-05-02T15:53:34.988Z</time></trkpt><trkpt lat="42.177441" lon="13.2746468"><ele>819.0</ele><time>2026-05-02T15:53:46.988Z</time></trkpt><trkpt lat="42.1773313" lon="13.2746978"><ele>819.0</ele><time>2026-05-02T15:53:48.988Z</time></trkpt><trkpt lat="42.177272" lon="13.2748317"><ele>819.0</ele><time>2026-05-02T15:53:50.988Z</time></trkpt><trkpt lat="42.1773234" lon="13.2749898"><ele>819.0</ele><time>2026-05-02T15:53:52.988Z</time></trkpt><trkpt lat="42.1773817" lon="13.2750342"><ele>819.0</ele><time>2026-05-02T15:53:53.987Z</time></trkpt><trkpt lat="42.1774903" lon="13.2750718"><ele>819.0</ele><time>2026-05-02T15:53:55.988Z</time></trkpt><trkpt lat="42.1775468" lon="13.2751602"><ele>819.0</ele><time>2026-05-02T15:53:57.987Z</time></trkpt><trkpt lat="42.1775582" lon="13.2753258"><ele>819.0</ele><time>2026-05-02T15:53:59.987Z</time></trkpt><trkpt lat="42.1775502" lon="13.2754296"><ele>819.0</ele><time>2026-05-02T15:54:00.988Z</time></trkpt><trkpt lat="42.1775493" lon="13.2755379"><ele>819.0</ele><time>2026-05-02T15:54:01.988Z</time></trkpt><trkpt lat="42.1775659" lon="13.2756617"><ele>819.0</ele><time>2026-05-02T15:54:02.987Z</time></trkpt><trkpt lat="42.1775866" lon="13.2757698"><ele>819.1666666666666</ele><time>2026-05-02T15:54:03.988Z</time></trkpt><trkpt lat="42.1776334" lon="13.2758414"><ele>819.3333333333333</ele><time>2026-05-02T15:54:04.987Z</time></trkpt><trkpt lat="42.177706" lon="13.2759466"><ele>819.5</ele><time>2026-05-02T15:54:06.988Z</time></trkpt><trkpt lat="42.1777633" lon="13.2760827"><ele>819.6666666666666</ele><time>2026-05-02T15:54:08.988Z</time></trkpt><trkpt lat="42.1777764" lon="13.2761761"><ele>819.8333333333333</ele><time>2026-05-02T15:54:12.988Z</time></trkpt><trkpt lat="42.177707" lon="13.2762183"><ele>820.0</ele><time>2026-05-02T15:54:26.988Z</time></trkpt><trkpt lat="42.1776656" lon="13.2761451"><ele>820.0</ele><time>2026-05-02T15:54:29.988Z</time></trkpt><trkpt lat="42.1776979" lon="13.2762556"><ele>820.0</ele><time>2026-05-02T15:54:52.988Z</time></trkpt><trkpt lat="42.1776924" lon="13.2763924"><ele>820.0</ele><time>2026-05-02T15:54:54.988Z</time></trkpt><trkpt lat="42.1776699" lon="13.2765613"><ele>820.0</ele><time>2026-05-02T15:54:56.988Z</time></trkpt><trkpt lat="42.1776538" lon="13.2766487"><ele>820.0</ele><time>2026-05-02T15:54:57.988Z</time></trkpt><trkpt lat="42.1776393" lon="13.2767392"><ele>820.3333333333333</ele><time>2026-05-02T15:54:58.988Z</time></trkpt><trkpt lat="42.1776246" lon="13.2768346"><ele>820.6666666666666</ele><time>2026-05-02T15:54:59.988Z</time></trkpt><trkpt lat="42.1776128" lon="13.2769298"><ele>821.0</ele><time>2026-05-02T15:55:00.988Z</time></trkpt><trkpt lat="42.1776022" lon="13.2770304"><ele>821.3333333333333</ele><time>2026-05-02T15:55:01.987Z</time></trkpt><trkpt lat="42.1775995" lon="13.2771383"><ele>821.6666666666666</ele><time>2026-05-02T15:55:02.988Z</time></trkpt><trkpt lat="42.1775913" lon="13.2772463"><ele>822.0</ele><time>2026-05-02T15:55:03.988Z</time></trkpt><trkpt lat="42.1775809" lon="13.2773622"><ele>822.3333333333334</ele><time>2026-05-02T15:55:04.988Z</time></trkpt><trkpt lat="42.1775783" lon="13.2774707"><ele>822.6666666666667</ele><time>2026-05-02T15:55:05.988Z</time></trkpt><trkpt lat="42.1775776" lon="13.277573"><ele>823.0</ele><time>2026-05-02T15:55:06.988Z</time></trkpt><trkpt lat="42.1775772" lon="13.277677"><ele>823.3333333333334</ele><time>2026-05-02T15:55:07.988Z</time></trkpt><trkpt lat="42.1775693" lon="13.2777761"><ele>823.6666666666667</ele><time>2026-05-02T15:55:08.987Z</time></trkpt><trkpt lat="42.1775552" lon="13.2778752"><ele>824.0</ele><time>2026-05-02T15:55:09.988Z</time></trkpt><trkpt lat="42.1775303" lon="13.2779734"><ele>824.0</ele><time>2026-05-02T15:55:10.987Z</time></trkpt><trkpt lat="42.1775138" lon="13.2780592"><ele>824.0</ele><time>2026-05-02T15:55:11.988Z</time></trkpt><trkpt lat="42.1774762" lon="13.2781836"><ele>824.0</ele><time>2026-05-02T15:55:13.988Z</time></trkpt><trkpt lat="42.177419" lon="13.2782787"><ele>824.0</ele><time>2026-05-02T15:55:15.988Z</time></trkpt><trkpt lat="42.1773377" lon="13.2783695"><ele>824.0</ele><time>2026-05-02T15:55:17.987Z</time></trkpt><trkpt lat="42.1772388" lon="13.2784853"><ele>825.5000000000001</ele><time>2026-05-02T15:55:19.988Z</time></trkpt><trkpt lat="42.1771986" lon="13.2785621"><ele>827.0</ele><time>2026-05-02T15:55:20.988Z</time></trkpt><trkpt lat="42.1771615" lon="13.2786424"><ele>828.5</ele><time>2026-05-02T15:55:21.988Z</time></trkpt><trkpt lat="42.1771317" lon="13.2787333"><ele>830.0</ele><time>2026-05-02T15:55:22.988Z</time></trkpt><trkpt lat="42.17709" lon="13.2788017"><ele>831.5000000000001</ele><time>2026-05-02T15:55:23.987Z</time></trkpt><trkpt lat="42.1770131" lon="13.2789024"><ele>833.0</ele><time>2026-05-02T15:55:25.988Z</time></trkpt><trkpt lat="42.1769572" lon="13.2789933"><ele>833.4</ele><time>2026-05-02T15:55:28.987Z</time></trkpt><trkpt lat="42.176988" lon="13.279091"><ele>833.8</ele><time>2026-05-02T15:55:31.988Z</time></trkpt><trkpt lat="42.1770271" lon="13.2791847"><ele>834.2</ele><time>2026-05-02T15:55:33.988Z</time></trkpt><trkpt lat="42.1770818" lon="13.2793057"><ele>834.6</ele><time>2026-05-02T15:55:35.988Z</time></trkpt><trkpt lat="42.177132" lon="13.2794284"><ele>835.0</ele><time>2026-05-02T15:55:37.987Z</time></trkpt><trkpt lat="42.1771952" lon="13.2796146"><ele>834.9999999999999</ele><time>2026-05-02T15:55:39.988Z</time></trkpt><trkpt lat="42.1772297" lon="13.2797062"><ele>835.0</ele><time>2026-05-02T15:55:40.988Z</time></trkpt><trkpt lat="42.1772966" lon="13.2798446"><ele>835.0</ele><time>2026-05-02T15:55:42.988Z</time></trkpt><trkpt lat="42.1773346" lon="13.2799134"><ele>835.0</ele><time>2026-05-02T15:55:43.988Z</time></trkpt><trkpt lat="42.1773735" lon="13.2799875"><ele>834.9999999999999</ele><time>2026-05-02T15:55:44.988Z</time></trkpt><trkpt lat="42.1774135" lon="13.2800698"><ele>835.0</ele><time>2026-05-02T15:55:45.988Z</time></trkpt><trkpt lat="42.1774576" lon="13.2801562"><ele>835.1666666666666</ele><time>2026-05-02T15:55:46.988Z</time></trkpt><trkpt lat="42.1775047" lon="13.280249"><ele>835.3333333333333</ele><time>2026-05-02T15:55:47.988Z</time></trkpt><trkpt lat="42.1775494" lon="13.2803461"><ele>835.5</ele><time>2026-05-02T15:55:48.988Z</time></trkpt><trkpt lat="42.1775998" lon="13.2804442"><ele>835.6666666666667</ele><time>2026-05-02T15:55:49.988Z</time></trkpt><trkpt lat="42.1776546" lon="13.2805355"><ele>835.8333333333334</ele><time>2026-05-02T15:55:50.987Z</time></trkpt><trkpt lat="42.1777072" lon="13.2806318"><ele>836.0</ele><time>2026-05-02T15:55:51.987Z</time></trkpt><trkpt lat="42.1777583" lon="13.2807296"><ele>836.5000000000001</ele><time>2026-05-02T15:55:52.988Z</time></trkpt><trkpt lat="42.1778057" lon="13.2808258"><ele>837.0</ele><time>2026-05-02T15:55:53.988Z</time></trkpt><trkpt lat="42.1778497" lon="13.2809152"><ele>837.5</ele><time>2026-05-02T15:55:54.988Z</time></trkpt><trkpt lat="42.1778932" lon="13.2810047"><ele>838.0</ele><time>2026-05-02T15:55:55.988Z</time></trkpt><trkpt lat="42.1779344" lon="13.2810832"><ele>838.5000000000001</ele><time>2026-05-02T15:55:56.988Z</time></trkpt><trkpt lat="42.1779698" lon="13.2811586"><ele>839.0</ele><time>2026-05-02T15:55:57.988Z</time></trkpt><trkpt lat="42.1780008" lon="13.2812446"><ele>839.0</ele><time>2026-05-02T15:55:58.988Z</time></trkpt><trkpt lat="42.1780327" lon="13.2813299"><ele>839.0</ele><time>2026-05-02T15:55:59.988Z</time></trkpt><trkpt lat="42.1780739" lon="13.2814065"><ele>839.0</ele><time>2026-05-02T15:56:00.988Z</time></trkpt><trkpt lat="42.1781251" lon="13.2814787"><ele>839.0</ele><time>2026-05-02T15:56:01.988Z</time></trkpt><trkpt lat="42.1781883" lon="13.2815459"><ele>839.0</ele><time>2026-05-02T15:56:02.988Z</time></trkpt><trkpt lat="42.1782532" lon="13.2816027"><ele>839.0</ele><time>2026-05-02T15:56:03.988Z</time></trkpt><trkpt lat="42.178314" lon="13.2816591"><ele>839.0</ele><time>2026-05-02T15:56:04.988Z</time></trkpt><trkpt lat="42.1783725" lon="13.2817066"><ele>839.4000000000001</ele><time>2026-05-02T15:56:05.988Z</time></trkpt><trkpt lat="42.1784783" lon="13.2817801"><ele>839.8</ele><time>2026-05-02T15:56:07.988Z</time></trkpt><trkpt lat="42.1785837" lon="13.2818128"><ele>840.2</ele><time>2026-05-02T15:56:09.988Z</time></trkpt><trkpt lat="42.1786923" lon="13.2818024"><ele>840.5999999999999</ele><time>2026-05-02T15:56:11.987Z</time></trkpt><trkpt lat="42.1787938" lon="13.2817509"><ele>841.0</ele><time>2026-05-02T15:56:13.988Z</time></trkpt><trkpt lat="42.1788837" lon="13.2816743"><ele>841.0</ele><time>2026-05-02T15:56:15.988Z</time></trkpt><trkpt lat="42.1789691" lon="13.2816101"><ele>841.0</ele><time>2026-05-02T15:56:17.988Z</time></trkpt><trkpt lat="42.1790514" lon="13.2815675"><ele>841.0</ele><time>2026-05-02T15:56:19.987Z</time></trkpt><trkpt lat="42.1791365" lon="13.2815668"><ele>841.0</ele><time>2026-05-02T15:56:21.988Z</time></trkpt><trkpt lat="42.1792001" lon="13.2816385"><ele>841.0</ele><time>2026-05-02T15:56:23.988Z</time></trkpt><trkpt lat="42.1792603" lon="13.2817488"><ele>839.8333333333333</ele><time>2026-05-02T15:56:26.988Z</time></trkpt><trkpt lat="42.1793273" lon="13.2817934"><ele>838.6666666666666</ele><time>2026-05-02T15:56:28.988Z</time></trkpt><trkpt lat="42.1794107" lon="13.2817503"><ele>837.5</ele><time>2026-05-02T15:56:31.987Z</time></trkpt><trkpt lat="42.1794351" lon="13.2816624"><ele>836.3333333333333</ele><time>2026-05-02T15:56:33.988Z</time></trkpt><trkpt lat="42.1794711" lon="13.2815363"><ele>835.1666666666666</ele><time>2026-05-02T15:56:35.988Z</time></trkpt><trkpt lat="42.1795394" lon="13.2814138"><ele>834.0</ele><time>2026-05-02T15:56:37.988Z</time></trkpt><trkpt lat="42.1796231" lon="13.2812768"><ele>833.2</ele><time>2026-05-02T15:56:39.988Z</time></trkpt><trkpt lat="42.1796693" lon="13.281182"><ele>832.4000000000001</ele><time>2026-05-02T15:56:40.988Z</time></trkpt><trkpt lat="42.1797161" lon="13.2810657"><ele>831.6</ele><time>2026-05-02T15:56:41.988Z</time></trkpt><trkpt lat="42.1797722" lon="13.2809346"><ele>830.8</ele><time>2026-05-02T15:56:42.988Z</time></trkpt><trkpt lat="42.17984" lon="13.2807973"><ele>830.0</ele><time>2026-05-02T15:56:43.988Z</time></trkpt><trkpt lat="42.179915" lon="13.2806507"><ele>828.75</ele><time>2026-05-02T15:56:44.987Z</time></trkpt><trkpt lat="42.179994" lon="13.2804948"><ele>827.5</ele><time>2026-05-02T15:56:45.987Z</time></trkpt><trkpt lat="42.1800823" lon="13.2803364"><ele>826.25</ele><time>2026-05-02T15:56:46.987Z</time></trkpt><trkpt lat="42.1801829" lon="13.280186"><ele>825.0</ele><time>2026-05-02T15:56:47.988Z</time></trkpt><trkpt lat="42.1802916" lon="13.2800563"><ele>825.0</ele><time>2026-05-02T15:56:48.988Z</time></trkpt><trkpt lat="42.1803998" lon="13.2799457"><ele>825.0</ele><time>2026-05-02T15:56:49.987Z</time></trkpt><trkpt lat="42.1805032" lon="13.2798448"><ele>825.0</ele><time>2026-05-02T15:56:50.988Z</time></trkpt><trkpt lat="42.1805893" lon="13.279746"><ele>825.0</ele><time>2026-05-02T15:56:51.987Z</time></trkpt><trkpt lat="42.1806518" lon="13.2796504"><ele>824.2</ele><time>2026-05-02T15:56:52.988Z</time></trkpt><trkpt lat="42.1806872" lon="13.2795371"><ele>823.4</ele><time>2026-05-02T15:56:53.988Z</time></trkpt><trkpt lat="42.1806879" lon="13.2794199"><ele>822.5999999999999</ele><time>2026-05-02T15:56:54.988Z</time></trkpt><trkpt lat="42.1806644" lon="13.27929"><ele>821.8</ele><time>2026-05-02T15:56:55.988Z</time></trkpt><trkpt lat="42.1806288" lon="13.2791433"><ele>821.0</ele><time>2026-05-02T15:56:56.988Z</time></trkpt><trkpt lat="42.1805955" lon="13.2789811"><ele>820.5</ele><time>2026-05-02T15:56:57.988Z</time></trkpt><trkpt lat="42.1805852" lon="13.2788005"><ele>820.0</ele><time>2026-05-02T15:56:58.988Z</time></trkpt><trkpt lat="42.1806018" lon="13.2786044"><ele>819.5</ele><time>2026-05-02T15:56:59.988Z</time></trkpt><trkpt lat="42.1806313" lon="13.2783926"><ele>819.0</ele><time>2026-05-02T15:57:00.988Z</time></trkpt><trkpt lat="42.1806597" lon="13.2781634"><ele>817.6666666666667</ele><time>2026-05-02T15:57:01.988Z</time></trkpt><trkpt lat="42.1806897" lon="13.2779225"><ele>816.3333333333334</ele><time>2026-05-02T15:57:02.988Z</time></trkpt><trkpt lat="42.1807201" lon="13.2776778"><ele>815.0</ele><time>2026-05-02T15:57:03.988Z</time></trkpt><trkpt lat="42.1807519" lon="13.2774341"><ele>814.3333333333334</ele><time>2026-05-02T15:57:04.988Z</time></trkpt><trkpt lat="42.1807885" lon="13.2771928"><ele>813.6666666666667</ele><time>2026-05-02T15:57:05.988Z</time></trkpt><trkpt lat="42.1808256" lon="13.2769462"><ele>813.0</ele><time>2026-05-02T15:57:06.988Z</time></trkpt><trkpt lat="42.1808629" lon="13.2767025"><ele>813.0</ele><time>2026-05-02T15:57:07.988Z</time></trkpt><trkpt lat="42.1809009" lon="13.2764748"><ele>813.0</ele><time>2026-05-02T15:57:08.988Z</time></trkpt><trkpt lat="42.1809342" lon="13.2762564"><ele>813.0</ele><time>2026-05-02T15:57:09.988Z</time></trkpt><trkpt lat="42.1809663" lon="13.276045"><ele>812.5</ele><time>2026-05-02T15:57:10.988Z</time></trkpt><trkpt lat="42.180999" lon="13.2758468"><ele>812.0</ele><time>2026-05-02T15:57:11.988Z</time></trkpt><trkpt lat="42.1810341" lon="13.2756583"><ele>811.5</ele><time>2026-05-02T15:57:12.987Z</time></trkpt><trkpt lat="42.181072" lon="13.2754769"><ele>811.0</ele><time>2026-05-02T15:57:13.988Z</time></trkpt><trkpt lat="42.1811082" lon="13.2752977"><ele>810.5</ele><time>2026-05-02T15:57:14.988Z</time></trkpt><trkpt lat="42.181145" lon="13.2751165"><ele>810.0</ele><time>2026-05-02T15:57:15.988Z</time></trkpt><trkpt lat="42.1811812" lon="13.2749411"><ele>809.5</ele><time>2026-05-02T15:57:16.988Z</time></trkpt><trkpt lat="42.1812155" lon="13.2747802"><ele>809.0</ele><time>2026-05-02T15:57:17.988Z</time></trkpt><trkpt lat="42.1812483" lon="13.2746293"><ele>808.3333333333334</ele><time>2026-05-02T15:57:18.988Z</time></trkpt><trkpt lat="42.1812778" lon="13.2744951"><ele>807.6666666666667</ele><time>2026-05-02T15:57:19.988Z</time></trkpt><trkpt lat="42.1813056" lon="13.2743776"><ele>807.0</ele><time>2026-05-02T15:57:20.988Z</time></trkpt><trkpt lat="42.1813309" lon="13.2742724"><ele>806.3333333333333</ele><time>2026-05-02T15:57:21.988Z</time></trkpt><trkpt lat="42.1813551" lon="13.2741891"><ele>805.6666666666666</ele><time>2026-05-02T15:57:22.988Z</time></trkpt><trkpt lat="42.1813828" lon="13.2740694"><ele>805.0</ele><time>2026-05-02T15:57:24.988Z</time></trkpt><trkpt lat="42.1814008" lon="13.2739632"><ele>804.6</ele><time>2026-05-02T15:57:27.988Z</time></trkpt><trkpt lat="42.181408" lon="13.2738531"><ele>804.2</ele><time>2026-05-02T15:57:33.988Z</time></trkpt><trkpt lat="42.1814753" lon="13.2737289"><ele>803.8</ele><time>2026-05-02T15:57:35.987Z</time></trkpt><trkpt lat="42.181528" lon="13.2736791"><ele>803.4</ele><time>2026-05-02T15:57:36.987Z</time></trkpt><trkpt lat="42.1816333" lon="13.273609"><ele>803.0</ele><time>2026-05-02T15:57:38.988Z</time></trkpt><trkpt lat="42.1817297" lon="13.2734991"><ele>802.9999999999999</ele><time>2026-05-02T15:57:40.988Z</time></trkpt><trkpt lat="42.1817813" lon="13.2734264"><ele>803.0</ele><time>2026-05-02T15:57:41.988Z</time></trkpt><trkpt lat="42.1818312" lon="13.2733513"><ele>803.0</ele><time>2026-05-02T15:57:42.988Z</time></trkpt><trkpt lat="42.1818776" lon="13.273277"><ele>803.0</ele><time>2026-05-02T15:57:43.988Z</time></trkpt><trkpt lat="42.1819208" lon="13.273203"><ele>803.0</ele><time>2026-05-02T15:57:44.988Z</time></trkpt><trkpt lat="42.1819591" lon="13.2731308"><ele>802.9999999999999</ele><time>2026-05-02T15:57:45.988Z</time></trkpt><trkpt lat="42.1819974" lon="13.2730588"><ele>803.0</ele><time>2026-05-02T15:57:46.987Z</time></trkpt><trkpt lat="42.1820406" lon="13.2729941"><ele>802.8333333333334</ele><time>2026-05-02T15:57:47.988Z</time></trkpt><trkpt lat="42.1820895" lon="13.2729263"><ele>802.6666666666667</ele><time>2026-05-02T15:57:48.988Z</time></trkpt><trkpt lat="42.1821431" lon="13.2728489"><ele>802.5</ele><time>2026-05-02T15:57:49.988Z</time></trkpt><trkpt lat="42.1821954" lon="13.2727801"><ele>802.3333333333333</ele><time>2026-05-02T15:57:50.988Z</time></trkpt><trkpt lat="42.1822573" lon="13.2727171"><ele>802.1666666666666</ele><time>2026-05-02T15:57:51.988Z</time></trkpt><trkpt lat="42.1823301" lon="13.2726544"><ele>802.0</ele><time>2026-05-02T15:57:52.988Z</time></trkpt><trkpt lat="42.182408" lon="13.2725862"><ele>802.0</ele><time>2026-05-02T15:57:53.988Z</time></trkpt><trkpt lat="42.182483" lon="13.2725059"><ele>802.0</ele><time>2026-05-02T15:57:54.988Z</time></trkpt><trkpt lat="42.1825471" lon="13.2724162"><ele>802.0</ele><time>2026-05-02T15:57:55.988Z</time></trkpt><trkpt lat="42.1826044" lon="13.2723206"><ele>802.0</ele><time>2026-05-02T15:57:56.988Z</time></trkpt><trkpt lat="42.1826618" lon="13.2722266"><ele>802.0</ele><time>2026-05-02T15:57:57.988Z</time></trkpt><trkpt lat="42.1827299" lon="13.272141"><ele>802.0</ele><time>2026-05-02T15:57:58.988Z</time></trkpt><trkpt lat="42.1828003" lon="13.2720463"><ele>802.0</ele><time>2026-05-02T15:57:59.987Z</time></trkpt><trkpt lat="42.182864" lon="13.2719398"><ele>802.0</ele><time>2026-05-02T15:58:00.987Z</time></trkpt><trkpt lat="42.1829212" lon="13.2718361"><ele>802.0</ele><time>2026-05-02T15:58:01.988Z</time></trkpt><trkpt lat="42.1829763" lon="13.2717304"><ele>802.0</ele><time>2026-05-02T15:58:02.988Z</time></trkpt><trkpt lat="42.1830242" lon="13.2716303"><ele>801.9999999999999</ele><time>2026-05-02T15:58:03.988Z</time></trkpt><trkpt lat="42.1830692" lon="13.2715229"><ele>802.0</ele><time>2026-05-02T15:58:04.988Z</time></trkpt><trkpt lat="42.1831072" lon="13.2714185"><ele>802.0</ele><time>2026-05-02T15:58:05.987Z</time></trkpt><trkpt lat="42.1831494" lon="13.2713119"><ele>802.0</ele><time>2026-05-02T15:58:06.988Z</time></trkpt><trkpt lat="42.1831992" lon="13.271215"><ele>801.9999999999999</ele><time>2026-05-02T15:58:07.988Z</time></trkpt><trkpt lat="42.1832545" lon="13.2711299"><ele>802.0</ele><time>2026-05-02T15:58:08.988Z</time></trkpt><trkpt lat="42.1833066" lon="13.2710556"><ele>801.6666666666666</ele><time>2026-05-02T15:58:09.988Z</time></trkpt><trkpt lat="42.1833628" lon="13.2709953"><ele>801.3333333333333</ele><time>2026-05-02T15:58:10.988Z</time></trkpt><trkpt lat="42.1834254" lon="13.2709586"><ele>801.0</ele><time>2026-05-02T15:58:11.988Z</time></trkpt><trkpt lat="42.1834994" lon="13.2709367"><ele>800.6666666666667</ele><time>2026-05-02T15:58:12.988Z</time></trkpt><trkpt lat="42.1835888" lon="13.2709277"><ele>800.3333333333334</ele><time>2026-05-02T15:58:13.987Z</time></trkpt><trkpt lat="42.1836824" lon="13.2709299"><ele>800.0</ele><time>2026-05-02T15:58:14.988Z</time></trkpt><trkpt lat="42.1837754" lon="13.2709374"><ele>800.0</ele><time>2026-05-02T15:58:15.988Z</time></trkpt><trkpt lat="42.1838708" lon="13.2709363"><ele>800.0</ele><time>2026-05-02T15:58:16.988Z</time></trkpt><trkpt lat="42.1839613" lon="13.2709149"><ele>800.0</ele><time>2026-05-02T15:58:17.988Z</time></trkpt><trkpt lat="42.1840495" lon="13.2709029"><ele>800.0</ele><time>2026-05-02T15:58:18.988Z</time></trkpt><trkpt lat="42.1841436" lon="13.2708969"><ele>800.0</ele><time>2026-05-02T15:58:19.988Z</time></trkpt><trkpt lat="42.1842329" lon="13.2708837"><ele>800.0</ele><time>2026-05-02T15:58:20.988Z</time></trkpt><trkpt lat="42.1843177" lon="13.2708534"><ele>800.0</ele><time>2026-05-02T15:58:21.988Z</time></trkpt><trkpt lat="42.1844012" lon="13.2708052"><ele>800.0</ele><time>2026-05-02T15:58:22.988Z</time></trkpt><trkpt lat="42.184486" lon="13.2707466"><ele>800.0</ele><time>2026-05-02T15:58:23.988Z</time></trkpt><trkpt lat="42.1845778" lon="13.270674"><ele>800.0</ele><time>2026-05-02T15:58:24.988Z</time></trkpt><trkpt lat="42.1846726" lon="13.270592"><ele>799.6</ele><time>2026-05-02T15:58:25.988Z</time></trkpt><trkpt lat="42.1847684" lon="13.2705056"><ele>799.2</ele><time>2026-05-02T15:58:26.988Z</time></trkpt><trkpt lat="42.184859" lon="13.2704172"><ele>798.8</ele><time>2026-05-02T15:58:27.988Z</time></trkpt><trkpt lat="42.1849489" lon="13.2703249"><ele>798.4</ele><time>2026-05-02T15:58:28.988Z</time></trkpt><trkpt lat="42.1850377" lon="13.2702403"><ele>798.0</ele><time>2026-05-02T15:58:29.988Z</time></trkpt><trkpt lat="42.185126" lon="13.2701593"><ele>799.0</ele><time>2026-05-02T15:58:30.988Z</time></trkpt><trkpt lat="42.1852169" lon="13.2700819"><ele>800.0</ele><time>2026-05-02T15:58:31.988Z</time></trkpt><trkpt lat="42.1853132" lon="13.270005"><ele>801.0</ele><time>2026-05-02T15:58:32.988Z</time></trkpt><trkpt lat="42.1854151" lon="13.2699314"><ele>802.0</ele><time>2026-05-02T15:58:33.987Z</time></trkpt><trkpt lat="42.1855206" lon="13.2698575"><ele>802.0</ele><time>2026-05-02T15:58:34.988Z</time></trkpt><trkpt lat="42.1856265" lon="13.2697841"><ele>802.0</ele><time>2026-05-02T15:58:35.988Z</time></trkpt><trkpt lat="42.1857311" lon="13.2697108"><ele>802.0</ele><time>2026-05-02T15:58:36.987Z</time></trkpt><trkpt lat="42.1858353" lon="13.2696426"><ele>802.0</ele><time>2026-05-02T15:58:37.988Z</time></trkpt><trkpt lat="42.1859383" lon="13.2695804"><ele>802.25</ele><time>2026-05-02T15:58:38.987Z</time></trkpt><trkpt lat="42.1860397" lon="13.2695165"><ele>802.5</ele><time>2026-05-02T15:58:39.988Z</time></trkpt><trkpt lat="42.1861366" lon="13.2694451"><ele>802.75</ele><time>2026-05-02T15:58:40.988Z</time></trkpt><trkpt lat="42.1862402" lon="13.2693799"><ele>803.0</ele><time>2026-05-02T15:58:41.988Z</time></trkpt><trkpt lat="42.1863505" lon="13.26932"><ele>803.0</ele><time>2026-05-02T15:58:42.988Z</time></trkpt><trkpt lat="42.1864587" lon="13.2692587"><ele>803.0</ele><time>2026-05-02T15:58:43.988Z</time></trkpt><trkpt lat="42.1865625" lon="13.2691963"><ele>803.0</ele><time>2026-05-02T15:58:44.988Z</time></trkpt><trkpt lat="42.1866642" lon="13.2691394"><ele>803.0</ele><time>2026-05-02T15:58:45.988Z</time></trkpt><trkpt lat="42.1867594" lon="13.2690741"><ele>803.0</ele><time>2026-05-02T15:58:46.988Z</time></trkpt><trkpt lat="42.1868504" lon="13.2690029"><ele>802.8</ele><time>2026-05-02T15:58:47.988Z</time></trkpt><trkpt lat="42.1869458" lon="13.2689155"><ele>802.5999999999999</ele><time>2026-05-02T15:58:48.988Z</time></trkpt><trkpt lat="42.1870399" lon="13.2688324"><ele>802.4000000000001</ele><time>2026-05-02T15:58:49.988Z</time></trkpt><trkpt lat="42.18713" lon="13.2687541"><ele>802.2</ele><time>2026-05-02T15:58:50.988Z</time></trkpt><trkpt lat="42.1872204" lon="13.2686776"><ele>802.0</ele><time>2026-05-02T15:58:51.987Z</time></trkpt><trkpt lat="42.1873154" lon="13.2686085"><ele>802.0</ele><time>2026-05-02T15:58:52.988Z</time></trkpt><trkpt lat="42.187416" lon="13.2685344"><ele>802.0</ele><time>2026-05-02T15:58:53.988Z</time></trkpt><trkpt lat="42.1875136" lon="13.2684592"><ele>802.0</ele><time>2026-05-02T15:58:54.987Z</time></trkpt><trkpt lat="42.1876106" lon="13.2683842"><ele>802.0</ele><time>2026-05-02T15:58:55.988Z</time></trkpt><trkpt lat="42.187707" lon="13.2683123"><ele>802.0</ele><time>2026-05-02T15:58:56.988Z</time></trkpt><trkpt lat="42.1878015" lon="13.2682302"><ele>802.0</ele><time>2026-05-02T15:58:57.988Z</time></trkpt><trkpt lat="42.1878918" lon="13.2681531"><ele>802.0</ele><time>2026-05-02T15:58:58.988Z</time></trkpt><trkpt lat="42.1879751" lon="13.2680814"><ele>802.0</ele><time>2026-05-02T15:58:59.988Z</time></trkpt><trkpt lat="42.1880508" lon="13.2680201"><ele>802.0</ele><time>2026-05-02T15:59:00.988Z</time></trkpt><trkpt lat="42.188123" lon="13.2679588"><ele>802.0</ele><time>2026-05-02T15:59:01.988Z</time></trkpt><trkpt lat="42.1881977" lon="13.2679244"><ele>802.4999999999999</ele><time>2026-05-02T15:59:02.988Z</time></trkpt><trkpt lat="42.1882792" lon="13.2678986"><ele>803.0</ele><time>2026-05-02T15:59:03.988Z</time></trkpt><trkpt lat="42.1883616" lon="13.267872"><ele>803.5</ele><time>2026-05-02T15:59:04.988Z</time></trkpt><trkpt lat="42.1884424" lon="13.267844"><ele>804.0</ele><time>2026-05-02T15:59:05.987Z</time></trkpt><trkpt lat="42.188519" lon="13.2678146"><ele>804.4999999999999</ele><time>2026-05-02T15:59:06.988Z</time></trkpt><trkpt lat="42.1885896" lon="13.2677894"><ele>805.0</ele><time>2026-05-02T15:59:07.988Z</time></trkpt><trkpt lat="42.1886574" lon="13.267763"><ele>805.0</ele><time>2026-05-02T15:59:08.988Z</time></trkpt><trkpt lat="42.1887237" lon="13.2677335"><ele>805.0</ele><time>2026-05-02T15:59:09.987Z</time></trkpt><trkpt lat="42.1887902" lon="13.2676981"><ele>805.0</ele><time>2026-05-02T15:59:10.988Z</time></trkpt><trkpt lat="42.1888531" lon="13.2676558"><ele>805.0</ele><time>2026-05-02T15:59:11.988Z</time></trkpt><trkpt lat="42.1889152" lon="13.2676079"><ele>805.0</ele><time>2026-05-02T15:59:12.988Z</time></trkpt><trkpt lat="42.1889775" lon="13.2675519"><ele>805.0</ele><time>2026-05-02T15:59:13.988Z</time></trkpt><trkpt lat="42.1890454" lon="13.2675023"><ele>805.0</ele><time>2026-05-02T15:59:14.988Z</time></trkpt><trkpt lat="42.1891162" lon="13.2674545"><ele>805.2</ele><time>2026-05-02T15:59:15.988Z</time></trkpt><trkpt lat="42.1891912" lon="13.2673963"><ele>805.4</ele><time>2026-05-02T15:59:16.988Z</time></trkpt><trkpt lat="42.1892708" lon="13.2673347"><ele>805.5999999999999</ele><time>2026-05-02T15:59:17.988Z</time></trkpt><trkpt lat="42.1893553" lon="13.2672626"><ele>805.8</ele><time>2026-05-02T15:59:18.988Z</time></trkpt><trkpt lat="42.1894427" lon="13.2671805"><ele>806.0</ele><time>2026-05-02T15:59:19.988Z</time></trkpt><trkpt lat="42.1895344" lon="13.2670882"><ele>805.5999999999999</ele><time>2026-05-02T15:59:20.988Z</time></trkpt><trkpt lat="42.1896293" lon="13.2669973"><ele>805.2</ele><time>2026-05-02T15:59:21.988Z</time></trkpt><trkpt lat="42.1897235" lon="13.2669072"><ele>804.8</ele><time>2026-05-02T15:59:22.988Z</time></trkpt><trkpt lat="42.1898161" lon="13.26683"><ele>804.4000000000001</ele><time>2026-05-02T15:59:23.988Z</time></trkpt><trkpt lat="42.1899057" lon="13.2667564"><ele>804.0</ele><time>2026-05-02T15:59:24.988Z</time></trkpt><trkpt lat="42.1899947" lon="13.2666914"><ele>804.3333333333334</ele><time>2026-05-02T15:59:25.988Z</time></trkpt><trkpt lat="42.1900809" lon="13.2666335"><ele>804.6666666666667</ele><time>2026-05-02T15:59:26.988Z</time></trkpt><trkpt lat="42.1901644" lon="13.2665898"><ele>805.0</ele><time>2026-05-02T15:59:27.988Z</time></trkpt><trkpt lat="42.1902421" lon="13.2665473"><ele>805.3333333333334</ele><time>2026-05-02T15:59:28.988Z</time></trkpt><trkpt lat="42.1903111" lon="13.2664983"><ele>805.6666666666667</ele><time>2026-05-02T15:59:29.988Z</time></trkpt><trkpt lat="42.190374" lon="13.2664351"><ele>806.0</ele><time>2026-05-02T15:59:30.988Z</time></trkpt><trkpt lat="42.1904384" lon="13.2663579"><ele>806.0</ele><time>2026-05-02T15:59:31.987Z</time></trkpt><trkpt lat="42.190507" lon="13.2662787"><ele>806.0</ele><time>2026-05-02T15:59:32.988Z</time></trkpt><trkpt lat="42.1905831" lon="13.2661992"><ele>806.0</ele><time>2026-05-02T15:59:33.988Z</time></trkpt><trkpt lat="42.1906678" lon="13.2661182"><ele>806.0</ele><time>2026-05-02T15:59:34.988Z</time></trkpt><trkpt lat="42.1907539" lon="13.2660277"><ele>806.0</ele><time>2026-05-02T15:59:35.988Z</time></trkpt><trkpt lat="42.1908365" lon="13.265927"><ele>806.1999999999999</ele><time>2026-05-02T15:59:36.988Z</time></trkpt><trkpt lat="42.1909151" lon="13.265822"><ele>806.4</ele><time>2026-05-02T15:59:37.987Z</time></trkpt><trkpt lat="42.1909895" lon="13.2657209"><ele>806.6</ele><time>2026-05-02T15:59:38.988Z</time></trkpt><trkpt lat="42.1910614" lon="13.26562"><ele>806.8</ele><time>2026-05-02T15:59:39.988Z</time></trkpt><trkpt lat="42.1911402" lon="13.2655237"><ele>807.0</ele><time>2026-05-02T15:59:40.987Z</time></trkpt><trkpt lat="42.1912244" lon="13.265431"><ele>807.0</ele><time>2026-05-02T15:59:41.988Z</time></trkpt><trkpt lat="42.1913022" lon="13.2653388"><ele>807.0</ele><time>2026-05-02T15:59:42.988Z</time></trkpt><trkpt lat="42.1913721" lon="13.2652393"><ele>807.0</ele><time>2026-05-02T15:59:43.988Z</time></trkpt><trkpt lat="42.1914375" lon="13.2651391"><ele>807.0</ele><time>2026-05-02T15:59:44.988Z</time></trkpt><trkpt lat="42.1915" lon="13.2650308"><ele>807.0</ele><time>2026-05-02T15:59:45.988Z</time></trkpt><trkpt lat="42.1915614" lon="13.2649254"><ele>807.4000000000001</ele><time>2026-05-02T15:59:46.988Z</time></trkpt><trkpt lat="42.1916288" lon="13.2648259"><ele>807.8000000000001</ele><time>2026-05-02T15:59:47.988Z</time></trkpt><trkpt lat="42.1917074" lon="13.2647379"><ele>808.2</ele><time>2026-05-02T15:59:48.988Z</time></trkpt><trkpt lat="42.191796" lon="13.2646598"><ele>808.6</ele><time>2026-05-02T15:59:49.987Z</time></trkpt><trkpt lat="42.191885" lon="13.2645926"><ele>809.0</ele><time>2026-05-02T15:59:50.988Z</time></trkpt><trkpt lat="42.1919751" lon="13.2645208"><ele>809.0</ele><time>2026-05-02T15:59:51.988Z</time></trkpt><trkpt lat="42.1920648" lon="13.2644588"><ele>809.0</ele><time>2026-05-02T15:59:52.988Z</time></trkpt><trkpt lat="42.1921566" lon="13.2644092"><ele>809.0</ele><time>2026-05-02T15:59:53.988Z</time></trkpt><trkpt lat="42.1922454" lon="13.2643707"><ele>809.0</ele><time>2026-05-02T15:59:54.988Z</time></trkpt><trkpt lat="42.1923287" lon="13.2643291"><ele>809.0</ele><time>2026-05-02T15:59:55.988Z</time></trkpt><trkpt lat="42.1924093" lon="13.2642874"><ele>809.6666666666667</ele><time>2026-05-02T15:59:56.988Z</time></trkpt><trkpt lat="42.1924842" lon="13.2642507"><ele>810.3333333333334</ele><time>2026-05-02T15:59:57.988Z</time></trkpt><trkpt lat="42.1925606" lon="13.2642034"><ele>811.0</ele><time>2026-05-02T15:59:58.987Z</time></trkpt><trkpt lat="42.1926408" lon="13.2641431"><ele>811.6666666666667</ele><time>2026-05-02T15:59:59.988Z</time></trkpt><trkpt lat="42.1927251" lon="13.2640949"><ele>812.3333333333334</ele><time>2026-05-02T16:00:00.988Z</time></trkpt><trkpt lat="42.1928073" lon="13.2640431"><ele>813.0</ele><time>2026-05-02T16:00:01.988Z</time></trkpt><trkpt lat="42.1928909" lon="13.2639959"><ele>813.0</ele><time>2026-05-02T16:00:02.988Z</time></trkpt><trkpt lat="42.1929716" lon="13.2639522"><ele>813.0</ele><time>2026-05-02T16:00:03.988Z</time></trkpt><trkpt lat="42.1930498" lon="13.2639082"><ele>813.0</ele><time>2026-05-02T16:00:04.988Z</time></trkpt><trkpt lat="42.1931361" lon="13.2638632"><ele>813.0</ele><time>2026-05-02T16:00:05.988Z</time></trkpt><trkpt lat="42.1932225" lon="13.2637996"><ele>813.0</ele><time>2026-05-02T16:00:06.988Z</time></trkpt><trkpt lat="42.1933129" lon="13.2637321"><ele>813.2</ele><time>2026-05-02T16:00:07.987Z</time></trkpt><trkpt lat="42.1934003" lon="13.2636635"><ele>813.4</ele><time>2026-05-02T16:00:08.988Z</time></trkpt><trkpt lat="42.1934841" lon="13.2635879"><ele>813.6</ele><time>2026-05-02T16:00:09.988Z</time></trkpt><trkpt lat="42.1935659" lon="13.2635152"><ele>813.8000000000001</ele><time>2026-05-02T16:00:10.988Z</time></trkpt><trkpt lat="42.1936481" lon="13.2634411"><ele>814.0</ele><time>2026-05-02T16:00:11.988Z</time></trkpt><trkpt lat="42.1937321" lon="13.2633686"><ele>814.0</ele><time>2026-05-02T16:00:12.988Z</time></trkpt><trkpt lat="42.193816" lon="13.2633034"><ele>814.0</ele><time>2026-05-02T16:00:13.988Z</time></trkpt><trkpt lat="42.1939008" lon="13.2632409"><ele>814.0</ele><time>2026-05-02T16:00:14.988Z</time></trkpt><trkpt lat="42.1939879" lon="13.2631794"><ele>814.0</ele><time>2026-05-02T16:00:15.987Z</time></trkpt><trkpt lat="42.1940704" lon="13.2631228"><ele>814.0</ele><time>2026-05-02T16:00:16.988Z</time></trkpt><trkpt lat="42.1941477" lon="13.2630588"><ele>814.1666666666666</ele><time>2026-05-02T16:00:17.987Z</time></trkpt><trkpt lat="42.1942143" lon="13.2630146"><ele>814.3333333333333</ele><time>2026-05-02T16:00:18.988Z</time></trkpt><trkpt lat="42.1942843" lon="13.2629897"><ele>814.5</ele><time>2026-05-02T16:00:19.988Z</time></trkpt><trkpt lat="42.194364" lon="13.2629751"><ele>814.6666666666667</ele><time>2026-05-02T16:00:20.988Z</time></trkpt><trkpt lat="42.1944487" lon="13.2629648"><ele>814.8333333333334</ele><time>2026-05-02T16:00:21.988Z</time></trkpt><trkpt lat="42.1945338" lon="13.262946"><ele>815.0</ele><time>2026-05-02T16:00:22.988Z</time></trkpt><trkpt lat="42.1946187" lon="13.262916"><ele>815.0</ele><time>2026-05-02T16:00:23.987Z</time></trkpt><trkpt lat="42.1946934" lon="13.2628837"><ele>815.0</ele><time>2026-05-02T16:00:24.988Z</time></trkpt><trkpt lat="42.1947595" lon="13.2628576"><ele>815.0</ele><time>2026-05-02T16:00:25.988Z</time></trkpt><trkpt lat="42.1948313" lon="13.26284"><ele>815.0</ele><time>2026-05-02T16:00:26.988Z</time></trkpt><trkpt lat="42.1949031" lon="13.2628315"><ele>815.0</ele><time>2026-05-02T16:00:27.988Z</time></trkpt><trkpt lat="42.1949757" lon="13.2628309"><ele>815.0</ele><time>2026-05-02T16:00:28.987Z</time></trkpt><trkpt lat="42.1950524" lon="13.2628472"><ele>815.0</ele><time>2026-05-02T16:00:29.988Z</time></trkpt><trkpt lat="42.1951274" lon="13.2628776"><ele>815.0000000000001</ele><time>2026-05-02T16:00:30.988Z</time></trkpt><trkpt lat="42.1951985" lon="13.2629081"><ele>815.0</ele><time>2026-05-02T16:00:31.988Z</time></trkpt><trkpt lat="42.1952663" lon="13.2629388"><ele>815.0</ele><time>2026-05-02T16:00:32.988Z</time></trkpt><trkpt lat="42.1953276" lon="13.2629705"><ele>815.0</ele><time>2026-05-02T16:00:33.987Z</time></trkpt><trkpt lat="42.195424" lon="13.2629696"><ele>815.0000000000001</ele><time>2026-05-02T16:00:35.988Z</time></trkpt><trkpt lat="42.1955106" lon="13.2628695"><ele>815.0</ele><time>2026-05-02T16:00:37.988Z</time></trkpt><trkpt lat="42.1955525" lon="13.2627917"><ele>815.0000000000001</ele><time>2026-05-02T16:00:38.988Z</time></trkpt><trkpt lat="42.1955907" lon="13.2627001"><ele>815.0</ele><time>2026-05-02T16:00:39.987Z</time></trkpt><trkpt lat="42.1956272" lon="13.2626036"><ele>815.0</ele><time>2026-05-02T16:00:40.987Z</time></trkpt><trkpt lat="42.1956628" lon="13.2625055"><ele>815.0</ele><time>2026-05-02T16:00:41.988Z</time></trkpt><trkpt lat="42.195698" lon="13.2624041"><ele>815.0000000000001</ele><time>2026-05-02T16:00:42.988Z</time></trkpt><trkpt lat="42.1957363" lon="13.2622927"><ele>815.0</ele><time>2026-05-02T16:00:43.988Z</time></trkpt><trkpt lat="42.1957789" lon="13.2621814"><ele>815.0000000000001</ele><time>2026-05-02T16:00:44.988Z</time></trkpt><trkpt lat="42.1958262" lon="13.2620806"><ele>815.0</ele><time>2026-05-02T16:00:45.988Z</time></trkpt><trkpt lat="42.1958715" lon="13.2619785"><ele>815.0</ele><time>2026-05-02T16:00:46.988Z</time></trkpt><trkpt lat="42.1959108" lon="13.2618727"><ele>815.0</ele><time>2026-05-02T16:00:47.988Z</time></trkpt><trkpt lat="42.1959443" lon="13.2617636"><ele>815.0000000000001</ele><time>2026-05-02T16:00:48.988Z</time></trkpt><trkpt lat="42.1959743" lon="13.2616554"><ele>815.0</ele><time>2026-05-02T16:00:49.988Z</time></trkpt><trkpt lat="42.1960048" lon="13.261551"><ele>815.0000000000001</ele><time>2026-05-02T16:00:50.988Z</time></trkpt><trkpt lat="42.1960386" lon="13.2614533"><ele>815.0</ele><time>2026-05-02T16:00:51.987Z</time></trkpt><trkpt lat="42.1960759" lon="13.261352"><ele>815.0</ele><time>2026-05-02T16:00:52.988Z</time></trkpt><trkpt lat="42.1961131" lon="13.2612416"><ele>815.0</ele><time>2026-05-02T16:00:53.988Z</time></trkpt><trkpt lat="42.1961426" lon="13.2611268"><ele>815.0000000000001</ele><time>2026-05-02T16:00:54.988Z</time></trkpt><trkpt lat="42.196164" lon="13.261013"><ele>815.0</ele><time>2026-05-02T16:00:55.988Z</time></trkpt><trkpt lat="42.1961816" lon="13.260903"><ele>814.8333333333334</ele><time>2026-05-02T16:00:56.988Z</time></trkpt><trkpt lat="42.1961976" lon="13.2608"><ele>814.6666666666667</ele><time>2026-05-02T16:00:57.988Z</time></trkpt><trkpt lat="42.1962153" lon="13.2607006"><ele>814.5</ele><time>2026-05-02T16:00:58.988Z</time></trkpt><trkpt lat="42.1962367" lon="13.2606125"><ele>814.3333333333333</ele><time>2026-05-02T16:00:59.988Z</time></trkpt><trkpt lat="42.1962927" lon="13.2604891"><ele>814.1666666666666</ele><time>2026-05-02T16:01:01.988Z</time></trkpt><trkpt lat="42.1963773" lon="13.2604065"><ele>814.0</ele><time>2026-05-02T16:01:03.988Z</time></trkpt><trkpt lat="42.1964783" lon="13.2603701"><ele>813.0</ele><time>2026-05-02T16:01:05.988Z</time></trkpt><trkpt lat="42.1966023" lon="13.2603506"><ele>812.0</ele><time>2026-05-02T16:01:07.988Z</time></trkpt><trkpt lat="42.1966832" lon="13.2603494"><ele>811.0</ele><time>2026-05-02T16:01:08.988Z</time></trkpt><trkpt lat="42.1967659" lon="13.2603455"><ele>810.0</ele><time>2026-05-02T16:01:09.987Z</time></trkpt><trkpt lat="42.1968619" lon="13.2603262"><ele>809.0</ele><time>2026-05-02T16:01:10.987Z</time></trkpt><trkpt lat="42.1969612" lon="13.2602969"><ele>809.0</ele><time>2026-05-02T16:01:11.988Z</time></trkpt><trkpt lat="42.1970564" lon="13.2602646"><ele>809.0</ele><time>2026-05-02T16:01:12.988Z</time></trkpt><trkpt lat="42.1971554" lon="13.2602291"><ele>809.0</ele><time>2026-05-02T16:01:13.988Z</time></trkpt><trkpt lat="42.1972536" lon="13.2601893"><ele>809.0</ele><time>2026-05-02T16:01:14.987Z</time></trkpt><trkpt lat="42.1973505" lon="13.2601468"><ele>809.0</ele><time>2026-05-02T16:01:15.988Z</time></trkpt><trkpt lat="42.1974437" lon="13.2600963"><ele>808.75</ele><time>2026-05-02T16:01:16.988Z</time></trkpt><trkpt lat="42.197538" lon="13.2600219"><ele>808.5</ele><time>2026-05-02T16:01:17.988Z</time></trkpt><trkpt lat="42.1976404" lon="13.2599404"><ele>808.25</ele><time>2026-05-02T16:01:18.988Z</time></trkpt><trkpt lat="42.1977407" lon="13.2598491"><ele>808.0</ele><time>2026-05-02T16:01:19.988Z</time></trkpt><trkpt lat="42.1978236" lon="13.259766"><ele>807.9999999999999</ele><time>2026-05-02T16:01:20.988Z</time></trkpt><trkpt lat="42.197897" lon="13.2596885"><ele>808.0</ele><time>2026-05-02T16:01:21.988Z</time></trkpt><trkpt lat="42.1979699" lon="13.2596191"><ele>808.0</ele><time>2026-05-02T16:01:22.988Z</time></trkpt><trkpt lat="42.1980386" lon="13.2595566"><ele>808.0</ele><time>2026-05-02T16:01:23.988Z</time></trkpt><trkpt lat="42.1980992" lon="13.2594989"><ele>807.9999999999999</ele><time>2026-05-02T16:01:24.987Z</time></trkpt><trkpt lat="42.1981549" lon="13.2594502"><ele>808.0</ele><time>2026-05-02T16:01:25.988Z</time></trkpt><trkpt lat="42.1982146" lon="13.2594115"><ele>809.0</ele><time>2026-05-02T16:01:26.988Z</time></trkpt><trkpt lat="42.1982861" lon="13.2593943"><ele>810.0</ele><time>2026-05-02T16:01:27.988Z</time></trkpt><trkpt lat="42.1983705" lon="13.2594081"><ele>811.0</ele><time>2026-05-02T16:01:28.988Z</time></trkpt><trkpt lat="42.1984628" lon="13.2594275"><ele>812.0</ele><time>2026-05-02T16:01:29.988Z</time></trkpt><trkpt lat="42.1985587" lon="13.2594187"><ele>813.0</ele><time>2026-05-02T16:01:30.988Z</time></trkpt><trkpt lat="42.1986605" lon="13.2593795"><ele>813.0</ele><time>2026-05-02T16:01:31.988Z</time></trkpt><trkpt lat="42.1987697" lon="13.2593146"><ele>813.0</ele><time>2026-05-02T16:01:32.988Z</time></trkpt><trkpt lat="42.1988811" lon="13.259253"><ele>813.0</ele><time>2026-05-02T16:01:33.988Z</time></trkpt><trkpt lat="42.1989954" lon="13.2591918"><ele>813.0</ele><time>2026-05-02T16:01:34.988Z</time></trkpt><trkpt lat="42.1991052" lon="13.2591197"><ele>813.5999999999999</ele><time>2026-05-02T16:01:35.988Z</time></trkpt><trkpt lat="42.1992057" lon="13.2590496"><ele>814.1999999999999</ele><time>2026-05-02T16:01:36.988Z</time></trkpt><trkpt lat="42.1993009" lon="13.2590036"><ele>814.8</ele><time>2026-05-02T16:01:37.988Z</time></trkpt><trkpt lat="42.19939" lon="13.2589974"><ele>815.4</ele><time>2026-05-02T16:01:38.988Z</time></trkpt><trkpt lat="42.199481" lon="13.2590234"><ele>816.0</ele><time>2026-05-02T16:01:39.988Z</time></trkpt><trkpt lat="42.1995775" lon="13.259058"><ele>816.0</ele><time>2026-05-02T16:01:40.988Z</time></trkpt><trkpt lat="42.1996673" lon="13.2590995"><ele>816.0</ele><time>2026-05-02T16:01:41.988Z</time></trkpt><trkpt lat="42.1997371" lon="13.2591463"><ele>816.0</ele><time>2026-05-02T16:01:42.988Z</time></trkpt><trkpt lat="42.1998265" lon="13.2592203"><ele>816.0</ele><time>2026-05-02T16:01:44.987Z</time></trkpt><trkpt lat="42.199897" lon="13.259176"><ele>816.0</ele><time>2026-05-02T16:01:47.988Z</time></trkpt><trkpt lat="42.1998957" lon="13.2590298"><ele>815.8</ele><time>2026-05-02T16:01:49.988Z</time></trkpt><trkpt lat="42.1998643" lon="13.2589213"><ele>815.5999999999999</ele><time>2026-05-02T16:01:50.988Z</time></trkpt><trkpt lat="42.1998226" lon="13.2587953"><ele>815.4</ele><time>2026-05-02T16:01:51.988Z</time></trkpt><trkpt lat="42.1997697" lon="13.2586481"><ele>815.2</ele><time>2026-05-02T16:01:52.988Z</time></trkpt><trkpt lat="42.1997252" lon="13.2584985"><ele>815.0</ele><time>2026-05-02T16:01:53.987Z</time></trkpt><trkpt lat="42.1996845" lon="13.2583547"><ele>815.0000000000001</ele><time>2026-05-02T16:01:54.988Z</time></trkpt><trkpt lat="42.1996447" lon="13.258231"><ele>815.0</ele><time>2026-05-02T16:01:55.988Z</time></trkpt><trkpt lat="42.1996098" lon="13.258116"><ele>815.0</ele><time>2026-05-02T16:01:56.988Z</time></trkpt><trkpt lat="42.1995907" lon="13.2580073"><ele>815.0</ele><time>2026-05-02T16:01:57.988Z</time></trkpt><trkpt lat="42.199579" lon="13.2579044"><ele>815.0000000000001</ele><time>2026-05-02T16:01:58.987Z</time></trkpt><trkpt lat="42.1995814" lon="13.2577993"><ele>815.0</ele><time>2026-05-02T16:01:59.987Z</time></trkpt><trkpt lat="42.1996009" lon="13.2576954"><ele>815.3333333333334</ele><time>2026-05-02T16:02:00.988Z</time></trkpt><trkpt lat="42.1996208" lon="13.2575917"><ele>815.6666666666667</ele><time>2026-05-02T16:02:01.988Z</time></trkpt><trkpt lat="42.1996647" lon="13.2574763"><ele>816.0</ele><time>2026-05-02T16:02:02.988Z</time></trkpt><trkpt lat="42.1996951" lon="13.2573821"><ele>816.3333333333333</ele><time>2026-05-02T16:02:03.988Z</time></trkpt><trkpt lat="42.1997781" lon="13.2572939"><ele>816.6666666666666</ele><time>2026-05-02T16:02:05.988Z</time></trkpt><trkpt lat="42.199842" lon="13.2572273"><ele>817.0</ele><time>2026-05-02T16:02:17.988Z</time></trkpt><trkpt lat="42.1998559" lon="13.2571338"><ele>817.8333333333333</ele><time>2026-05-02T16:02:20.988Z</time></trkpt><trkpt lat="42.1998132" lon="13.2570609"><ele>818.6666666666666</ele><time>2026-05-02T16:02:22.988Z</time></trkpt><trkpt lat="42.19974" lon="13.2569551"><ele>819.5</ele><time>2026-05-02T16:02:24.988Z</time></trkpt><trkpt lat="42.1996839" lon="13.2568641"><ele>820.3333333333333</ele><time>2026-05-02T16:02:26.988Z</time></trkpt><trkpt lat="42.1996343" lon="13.2567638"><ele>821.1666666666666</ele><time>2026-05-02T16:02:29.988Z</time></trkpt><trkpt lat="42.1996761" lon="13.2566735"><ele>822.0</ele><time>2026-05-02T16:02:32.988Z</time></trkpt><trkpt lat="42.1997711" lon="13.2567037"><ele>825.0</ele><time>2026-05-02T16:02:35.988Z</time></trkpt><trkpt lat="42.199862" lon="13.2567899"><ele>828.0</ele><time>2026-05-02T16:02:37.988Z</time></trkpt><trkpt lat="42.1999172" lon="13.2568395"><ele>831.0</ele><time>2026-05-02T16:02:38.988Z</time></trkpt><trkpt lat="42.1999745" lon="13.2568799"><ele>834.0</ele><time>2026-05-02T16:02:39.988Z</time></trkpt><trkpt lat="42.2000839" lon="13.2569113"><ele>837.0</ele><time>2026-05-02T16:02:41.988Z</time></trkpt><trkpt lat="42.2001937" lon="13.2569415"><ele>837.0</ele><time>2026-05-02T16:02:43.988Z</time></trkpt><trkpt lat="42.2002975" lon="13.2569666"><ele>837.0</ele><time>2026-05-02T16:02:45.987Z</time></trkpt><trkpt lat="42.2003896" lon="13.2569849"><ele>837.0</ele><time>2026-05-02T16:02:47.987Z</time></trkpt><trkpt lat="42.2004768" lon="13.2570051"><ele>837.0</ele><time>2026-05-02T16:02:49.987Z</time></trkpt><trkpt lat="42.2005625" lon="13.2570016"><ele>837.0</ele><time>2026-05-02T16:04:43.988Z</time></trkpt><trkpt lat="42.2006613" lon="13.2570176"><ele>839.6666666666666</ele><time>2026-05-02T16:04:45.988Z</time></trkpt><trkpt lat="42.2007798" lon="13.2570413"><ele>842.3333333333333</ele><time>2026-05-02T16:04:47.988Z</time></trkpt><trkpt lat="42.200855" lon="13.2570633"><ele>845.0</ele><time>2026-05-02T16:04:49.988Z</time></trkpt><trkpt lat="42.2009184" lon="13.2570785"><ele>847.6666666666666</ele><time>2026-05-02T16:04:51.988Z</time></trkpt><trkpt lat="42.2009886" lon="13.2571068"><ele>850.3333333333333</ele><time>2026-05-02T16:05:00.988Z</time></trkpt><trkpt lat="42.2010481" lon="13.2571673"><ele>853.0</ele><time>2026-05-02T16:05:02.988Z</time></trkpt><trkpt lat="42.2011107" lon="13.2572024"><ele>853.0</ele><time>2026-05-02T16:05:06.988Z</time></trkpt><trkpt lat="42.2010528" lon="13.2571563"><ele>853.0</ele><time>2026-05-02T16:05:26.987Z</time></trkpt><trkpt lat="42.2009934" lon="13.2570966"><ele>853.0</ele><time>2026-05-02T16:05:29.988Z</time></trkpt><trkpt lat="42.200947" lon="13.2570348"><ele>853.0</ele><time>2026-05-02T16:05:32.988Z</time></trkpt><trkpt lat="42.200901" lon="13.2569743"><ele>853.0</ele><time>2026-05-02T16:05:34.988Z</time></trkpt><trkpt lat="42.2008772" lon="13.2568698"><ele>853.0</ele><time>2026-05-02T16:06:16.988Z</time></trkpt><trkpt lat="42.2009506" lon="13.2568368"><ele>853.0</ele><time>2026-05-02T16:06:28.987Z</time></trkpt><trkpt lat="42.2010136" lon="13.2568401"><ele>852.9999999999999</ele><time>2026-05-02T16:06:30.988Z</time></trkpt><trkpt lat="42.2010797" lon="13.2568422"><ele>853.0</ele><time>2026-05-02T16:06:31.987Z</time></trkpt><trkpt lat="42.2011752" lon="13.2568573"><ele>853.0</ele><time>2026-05-02T16:06:33.987Z</time></trkpt><trkpt lat="42.2012701" lon="13.2568703"><ele>853.0</ele><time>2026-05-02T16:06:35.988Z</time></trkpt><trkpt lat="42.2013476" lon="13.2568528"><ele>852.9999999999999</ele><time>2026-05-02T16:06:37.987Z</time></trkpt><trkpt lat="42.2014289" lon="13.2568271"><ele>853.0</ele><time>2026-05-02T16:06:39.988Z</time></trkpt><trkpt lat="42.2015114" lon="13.2568229"><ele>856.4</ele><time>2026-05-02T16:06:41.988Z</time></trkpt><trkpt lat="42.2015963" lon="13.2568214"><ele>859.8</ele><time>2026-05-02T16:06:43.988Z</time></trkpt><trkpt lat="42.2016995" lon="13.2568336"><ele>863.2</ele><time>2026-05-02T16:06:45.988Z</time></trkpt><trkpt lat="42.2017914" lon="13.2568411"><ele>866.6</ele><time>2026-05-02T16:06:47.988Z</time></trkpt><trkpt lat="42.2018861" lon="13.2568547"><ele>870.0</ele><time>2026-05-02T16:06:49.987Z</time></trkpt><trkpt lat="42.2019872" lon="13.256857"><ele>870.0</ele><time>2026-05-02T16:06:51.988Z</time></trkpt><trkpt lat="42.2020868" lon="13.2568496"><ele>870.0</ele><time>2026-05-02T16:06:53.988Z</time></trkpt><trkpt lat="42.2021759" lon="13.2568438"><ele>870.0</ele><time>2026-05-02T16:06:55.988Z</time></trkpt><trkpt lat="42.2022688" lon="13.2568329"><ele>870.0</ele><time>2026-05-02T16:06:57.987Z</time></trkpt><trkpt lat="42.2023504" lon="13.2568086"><ele>870.0</ele><time>2026-05-02T16:06:59.988Z</time></trkpt><trkpt lat="42.2024347" lon="13.2567599"><ele>871.4</ele><time>2026-05-02T16:07:01.987Z</time></trkpt><trkpt lat="42.2025308" lon="13.2567299"><ele>872.8</ele><time>2026-05-02T16:07:03.988Z</time></trkpt><trkpt lat="42.2026491" lon="13.2567026"><ele>874.2</ele><time>2026-05-02T16:07:05.988Z</time></trkpt><trkpt lat="42.2027168" lon="13.2566881"><ele>875.6</ele><time>2026-05-02T16:07:06.988Z</time></trkpt><trkpt lat="42.2028147" lon="13.2566573"><ele>877.0</ele><time>2026-05-02T16:07:08.988Z</time></trkpt><trkpt lat="42.2028805" lon="13.2565479"><ele>879.2</ele><time>2026-05-02T16:07:11.988Z</time></trkpt><trkpt lat="42.2029505" lon="13.2564298"><ele>881.4000000000001</ele><time>2026-05-02T16:07:13.988Z</time></trkpt><trkpt lat="42.2030139" lon="13.2563176"><ele>883.5999999999999</ele><time>2026-05-02T16:07:15.988Z</time></trkpt><trkpt lat="42.2030537" lon="13.2561835"><ele>885.8</ele><time>2026-05-02T16:07:17.988Z</time></trkpt><trkpt lat="42.2031026" lon="13.2560581"><ele>888.0</ele><time>2026-05-02T16:07:19.987Z</time></trkpt><trkpt lat="42.2031607" lon="13.2559485"><ele>887.0</ele><time>2026-05-02T16:07:21.988Z</time></trkpt><trkpt lat="42.2032075" lon="13.2558555"><ele>886.0</ele><time>2026-05-02T16:07:23.988Z</time></trkpt><trkpt lat="42.2032724" lon="13.2557828"><ele>885.0</ele><time>2026-05-02T16:07:35.988Z</time></trkpt><trkpt lat="42.2033243" lon="13.255676"><ele>884.0</ele><time>2026-05-02T16:07:37.988Z</time></trkpt><trkpt lat="42.2033425" lon="13.2555468"><ele>883.0</ele><time>2026-05-02T16:07:39.987Z</time></trkpt><trkpt lat="42.203312" lon="13.255408"><ele>885.2</ele><time>2026-05-02T16:07:41.987Z</time></trkpt><trkpt lat="42.2032774" lon="13.2552452"><ele>887.4</ele><time>2026-05-02T16:07:43.988Z</time></trkpt><trkpt lat="42.2032614" lon="13.255079"><ele>889.6000000000001</ele><time>2026-05-02T16:07:45.988Z</time></trkpt><trkpt lat="42.2032701" lon="13.2549317"><ele>891.8000000000001</ele><time>2026-05-02T16:07:47.988Z</time></trkpt><trkpt lat="42.203322" lon="13.2548728"><ele>894.0</ele><time>2026-05-02T16:07:49.987Z</time></trkpt><trkpt lat="42.2033806" lon="13.2549222"><ele>894.0</ele><time>2026-05-02T16:07:51.988Z</time></trkpt><trkpt lat="42.2034237" lon="13.2549924"><ele>894.0</ele><time>2026-05-02T16:07:53.987Z</time></trkpt><trkpt lat="42.2035228" lon="13.2550685"><ele>894.0</ele><time>2026-05-02T16:07:56.988Z</time></trkpt><trkpt lat="42.2035825" lon="13.2551056"><ele>894.0</ele><time>2026-05-02T16:07:57.988Z</time></trkpt><trkpt lat="42.20365" lon="13.2551587"><ele>894.0</ele><time>2026-05-02T16:07:58.988Z</time></trkpt><trkpt lat="42.2037216" lon="13.2552279"><ele>894.0</ele><time>2026-05-02T16:07:59.988Z</time></trkpt><trkpt lat="42.2037987" lon="13.2553106"><ele>894.0</ele><time>2026-05-02T16:08:00.988Z</time></trkpt><trkpt lat="42.2038807" lon="13.255397"><ele>894.0000000000001</ele><time>2026-05-02T16:08:01.988Z</time></trkpt><trkpt lat="42.2039648" lon="13.2554882"><ele>894.0000000000001</ele><time>2026-05-02T16:08:02.988Z</time></trkpt><trkpt lat="42.2040499" lon="13.2555847"><ele>894.0</ele><time>2026-05-02T16:08:03.988Z</time></trkpt><trkpt lat="42.2041244" lon="13.2556971"><ele>894.0</ele><time>2026-05-02T16:08:04.988Z</time></trkpt><trkpt lat="42.2041992" lon="13.255806"><ele>895.5</ele><time>2026-05-02T16:08:05.988Z</time></trkpt><trkpt lat="42.2043004" lon="13.255897"><ele>897.0</ele><time>2026-05-02T16:08:06.988Z</time></trkpt><trkpt lat="42.2043977" lon="13.2559877"><ele>898.5</ele><time>2026-05-02T16:08:07.988Z</time></trkpt><trkpt lat="42.2045124" lon="13.2560719"><ele>900.0</ele><time>2026-05-02T16:08:08.987Z</time></trkpt><trkpt lat="42.2046649" lon="13.2561282"><ele>900.0</ele><time>2026-05-02T16:08:09.988Z</time></trkpt><trkpt lat="42.2047851" lon="13.2562427"><ele>900.0</ele><time>2026-05-02T16:08:10.988Z</time></trkpt><trkpt lat="42.2048975" lon="13.2563714"><ele>900.0</ele><time>2026-05-02T16:08:11.987Z</time></trkpt><trkpt lat="42.2050021" lon="13.2565056"><ele>900.0</ele><time>2026-05-02T16:08:12.988Z</time></trkpt><trkpt lat="42.2050974" lon="13.2567013"><ele>899.5</ele><time>2026-05-02T16:08:13.987Z</time></trkpt><trkpt lat="42.2051852" lon="13.2568762"><ele>899.0</ele><time>2026-05-02T16:08:14.988Z</time></trkpt><trkpt lat="42.2052626" lon="13.25705"><ele>898.5</ele><time>2026-05-02T16:08:15.988Z</time></trkpt><trkpt lat="42.2053318" lon="13.2572075"><ele>898.0</ele><time>2026-05-02T16:08:16.988Z</time></trkpt><trkpt lat="42.2053825" lon="13.2573538"><ele>898.0</ele><time>2026-05-02T16:08:17.988Z</time></trkpt><trkpt lat="42.2054369" lon="13.2574893"><ele>898.0</ele><time>2026-05-02T16:08:18.988Z</time></trkpt><trkpt lat="42.2054956" lon="13.2576058"><ele>898.0</ele><time>2026-05-02T16:08:19.988Z</time></trkpt><trkpt lat="42.2055504" lon="13.2577051"><ele>898.0</ele><time>2026-05-02T16:08:20.988Z</time></trkpt><trkpt lat="42.2056068" lon="13.2577799"><ele>898.0</ele><time>2026-05-02T16:08:21.988Z</time></trkpt><trkpt lat="42.2057106" lon="13.2578617"><ele>901.1666666666666</ele><time>2026-05-02T16:08:23.988Z</time></trkpt><trkpt lat="42.2057764" lon="13.2578926"><ele>904.3333333333333</ele><time>2026-05-02T16:08:24.987Z</time></trkpt><trkpt lat="42.2058524" lon="13.2579188"><ele>907.5</ele><time>2026-05-02T16:08:25.988Z</time></trkpt><trkpt lat="42.2059299" lon="13.2579739"><ele>910.6666666666667</ele><time>2026-05-02T16:08:26.988Z</time></trkpt><trkpt lat="42.2060132" lon="13.2580104"><ele>913.8333333333334</ele><time>2026-05-02T16:08:27.988Z</time></trkpt><trkpt lat="42.2060858" lon="13.2581166"><ele>917.0</ele><time>2026-05-02T16:08:28.988Z</time></trkpt><trkpt lat="42.2061346" lon="13.2582057"><ele>917.0</ele><time>2026-05-02T16:08:29.988Z</time></trkpt><trkpt lat="42.2061718" lon="13.2583138"><ele>917.0</ele><time>2026-05-02T16:08:30.988Z</time></trkpt><trkpt lat="42.2061827" lon="13.2584569"><ele>917.0</ele><time>2026-05-02T16:08:31.988Z</time></trkpt><trkpt lat="42.2061764" lon="13.2586249"><ele>917.0</ele><time>2026-05-02T16:08:32.988Z</time></trkpt><trkpt lat="42.2061702" lon="13.2588075"><ele>915.5</ele><time>2026-05-02T16:08:33.988Z</time></trkpt><trkpt lat="42.2061606" lon="13.2590052"><ele>914.0</ele><time>2026-05-02T16:08:34.988Z</time></trkpt><trkpt lat="42.2061565" lon="13.2592212"><ele>912.5</ele><time>2026-05-02T16:08:35.988Z</time></trkpt><trkpt lat="42.2061512" lon="13.2593937"><ele>911.0</ele><time>2026-05-02T16:08:36.988Z</time></trkpt><trkpt lat="42.2061548" lon="13.2595589"><ele>911.0</ele><time>2026-05-02T16:08:37.988Z</time></trkpt><trkpt lat="42.2061767" lon="13.2597281"><ele>911.0</ele><time>2026-05-02T16:08:38.988Z</time></trkpt><trkpt lat="42.206242" lon="13.2598846"><ele>911.0</ele><time>2026-05-02T16:08:39.988Z</time></trkpt><trkpt lat="42.2063485" lon="13.2599633"><ele>911.0</ele><time>2026-05-02T16:08:40.988Z</time></trkpt><trkpt lat="42.2064933" lon="13.2601179"><ele>921.6666666666667</ele><time>2026-05-02T16:08:41.988Z</time></trkpt><trkpt lat="42.2065945" lon="13.2602702"><ele>932.3333333333333</ele><time>2026-05-02T16:08:42.987Z</time></trkpt><trkpt lat="42.2066984" lon="13.2604362"><ele>943.0</ele><time>2026-05-02T16:08:43.987Z</time></trkpt><trkpt lat="42.2068109" lon="13.2606032"><ele>937.3333333333333</ele><time>2026-05-02T16:08:44.988Z</time></trkpt><trkpt lat="42.2069215" lon="13.2607786"><ele>931.6666666666667</ele><time>2026-05-02T16:08:45.988Z</time></trkpt><trkpt lat="42.2070234" lon="13.2609414"><ele>926.0</ele><time>2026-05-02T16:08:46.988Z</time></trkpt><trkpt lat="42.2071134" lon="13.261095"><ele>926.0</ele><time>2026-05-02T16:08:47.988Z</time></trkpt><trkpt lat="42.2071906" lon="13.261244"><ele>926.0</ele><time>2026-05-02T16:08:48.988Z</time></trkpt><trkpt lat="42.2072585" lon="13.2613865"><ele>926.0</ele><time>2026-05-02T16:08:49.988Z</time></trkpt><trkpt lat="42.207321" lon="13.2615126"><ele>926.0</ele><time>2026-05-02T16:08:50.988Z</time></trkpt><trkpt lat="42.2073824" lon="13.2616152"><ele>928.8333333333334</ele><time>2026-05-02T16:08:51.988Z</time></trkpt><trkpt lat="42.2074415" lon="13.2617007"><ele>931.6666666666667</ele><time>2026-05-02T16:08:52.988Z</time></trkpt><trkpt lat="42.2075003" lon="13.2617694"><ele>934.5</ele><time>2026-05-02T16:08:53.988Z</time></trkpt><trkpt lat="42.207555" lon="13.2618231"><ele>937.3333333333333</ele><time>2026-05-02T16:08:54.988Z</time></trkpt><trkpt lat="42.2076701" lon="13.2618582"><ele>940.1666666666666</ele><time>2026-05-02T16:08:56.988Z</time></trkpt><trkpt lat="42.20776" lon="13.2618211"><ele>943.0</ele><time>2026-05-02T16:08:58.988Z</time></trkpt><trkpt lat="42.2078526" lon="13.2617177"><ele>943.0</ele><time>2026-05-02T16:09:00.988Z</time></trkpt><trkpt lat="42.2079123" lon="13.2615916"><ele>943.0</ele><time>2026-05-02T16:09:02.988Z</time></trkpt><trkpt lat="42.2079257" lon="13.2614528"><ele>943.0</ele><time>2026-05-02T16:09:04.988Z</time></trkpt><trkpt lat="42.2077871" lon="13.2615621"><ele>943.0</ele><time>2026-05-02T16:09:06.988Z</time></trkpt><trkpt lat="42.2076819" lon="13.261556"><ele>946.6666666666666</ele><time>2026-05-02T16:09:08.988Z</time></trkpt><trkpt lat="42.2076349" lon="13.2614454"><ele>950.3333333333333</ele><time>2026-05-02T16:09:10.987Z</time></trkpt><trkpt lat="42.2076113" lon="13.2613652"><ele>954.0</ele><time>2026-05-02T16:09:11.988Z</time></trkpt><trkpt lat="42.2075763" lon="13.261266"><ele>957.6666666666667</ele><time>2026-05-02T16:09:12.988Z</time></trkpt><trkpt lat="42.2075369" lon="13.261153"><ele>961.3333333333334</ele><time>2026-05-02T16:09:13.988Z</time></trkpt><trkpt lat="42.2074864" lon="13.2610307"><ele>965.0</ele><time>2026-05-02T16:09:14.988Z</time></trkpt><trkpt lat="42.207424" lon="13.2608975"><ele>965.0</ele><time>2026-05-02T16:09:15.988Z</time></trkpt><trkpt lat="42.2073598" lon="13.2607553"><ele>965.0</ele><time>2026-05-02T16:09:16.988Z</time></trkpt><trkpt lat="42.2072894" lon="13.2606021"><ele>965.0</ele><time>2026-05-02T16:09:17.987Z</time></trkpt><trkpt lat="42.207216" lon="13.2604424"><ele>965.0</ele><time>2026-05-02T16:09:18.988Z</time></trkpt><trkpt lat="42.2071515" lon="13.2602717"><ele>961.5</ele><time>2026-05-02T16:09:19.987Z</time></trkpt><trkpt lat="42.2070974" lon="13.2600964"><ele>958.0</ele><time>2026-05-02T16:09:20.987Z</time></trkpt><trkpt lat="42.2070537" lon="13.2599334"><ele>954.5</ele><time>2026-05-02T16:09:21.988Z</time></trkpt><trkpt lat="42.2070112" lon="13.2597877"><ele>951.0</ele><time>2026-05-02T16:09:22.988Z</time></trkpt><trkpt lat="42.2069727" lon="13.2596757"><ele>951.0</ele><time>2026-05-02T16:09:23.987Z</time></trkpt><trkpt lat="42.2069374" lon="13.2595765"><ele>950.9999999999999</ele><time>2026-05-02T16:09:24.988Z</time></trkpt><trkpt lat="42.2069435" lon="13.2593865"><ele>950.9999999999999</ele><time>2026-05-02T16:09:26.988Z</time></trkpt><trkpt lat="42.2069744" lon="13.2592656"><ele>951.0</ele><time>2026-05-02T16:09:27.987Z</time></trkpt><trkpt lat="42.2070229" lon="13.2591307"><ele>951.0</ele><time>2026-05-02T16:09:28.988Z</time></trkpt><trkpt lat="42.2070886" lon="13.2589899"><ele>951.0</ele><time>2026-05-02T16:09:29.988Z</time></trkpt><trkpt lat="42.2071547" lon="13.258847"><ele>951.0</ele><time>2026-05-02T16:09:30.988Z</time></trkpt><trkpt lat="42.2072112" lon="13.2587012"><ele>951.0</ele><time>2026-05-02T16:09:31.987Z</time></trkpt><trkpt lat="42.2072666" lon="13.2585482"><ele>951.0</ele><time>2026-05-02T16:09:32.988Z</time></trkpt><trkpt lat="42.2072811" lon="13.2583744"><ele>951.0</ele><time>2026-05-02T16:09:33.988Z</time></trkpt><trkpt lat="42.2073015" lon="13.2582059"><ele>950.9999999999999</ele><time>2026-05-02T16:09:34.988Z</time></trkpt><trkpt lat="42.2073125" lon="13.2580549"><ele>950.9999999999999</ele><time>2026-05-02T16:09:35.988Z</time></trkpt><trkpt lat="42.2073297" lon="13.2579209"><ele>951.0</ele><time>2026-05-02T16:09:36.988Z</time></trkpt><trkpt lat="42.2073337" lon="13.2577955"><ele>951.0</ele><time>2026-05-02T16:09:37.988Z</time></trkpt><trkpt lat="42.2072908" lon="13.257699"><ele>954.75</ele><time>2026-05-02T16:09:38.988Z</time></trkpt><trkpt lat="42.2072386" lon="13.2575836"><ele>958.5</ele><time>2026-05-02T16:09:39.988Z</time></trkpt><trkpt lat="42.2071485" lon="13.2574593"><ele>962.25</ele><time>2026-05-02T16:09:40.988Z</time></trkpt><trkpt lat="42.2070546" lon="13.2573353"><ele>966.0</ele><time>2026-05-02T16:09:41.988Z</time></trkpt><trkpt lat="42.206967" lon="13.2572145"><ele>970.1999999999999</ele><time>2026-05-02T16:09:42.988Z</time></trkpt><trkpt lat="42.2068812" lon="13.257095"><ele>974.3999999999999</ele><time>2026-05-02T16:09:43.987Z</time></trkpt><trkpt lat="42.2067983" lon="13.2569822"><ele>978.6</ele><time>2026-05-02T16:09:44.988Z</time></trkpt><trkpt lat="42.2067351" lon="13.25688"><ele>982.8</ele><time>2026-05-02T16:09:45.988Z</time></trkpt><trkpt lat="42.2066816" lon="13.2567796"><ele>987.0</ele><time>2026-05-02T16:09:46.988Z</time></trkpt><trkpt lat="42.2066334" lon="13.2566612"><ele>987.0</ele><time>2026-05-02T16:09:47.988Z</time></trkpt><trkpt lat="42.2065871" lon="13.2565223"><ele>987.0</ele><time>2026-05-02T16:09:48.988Z</time></trkpt><trkpt lat="42.2065406" lon="13.2563703"><ele>987.0</ele><time>2026-05-02T16:09:49.987Z</time></trkpt><trkpt lat="42.2065041" lon="13.2561992"><ele>987.0</ele><time>2026-05-02T16:09:50.988Z</time></trkpt><trkpt lat="42.2064723" lon="13.2560281"><ele>984.6</ele><time>2026-05-02T16:09:51.988Z</time></trkpt><trkpt lat="42.2064524" lon="13.2558708"><ele>982.2</ele><time>2026-05-02T16:09:52.987Z</time></trkpt><trkpt lat="42.206447" lon="13.2557265"><ele>979.8</ele><time>2026-05-02T16:09:53.988Z</time></trkpt><trkpt lat="42.2064528" lon="13.2555976"><ele>977.4</ele><time>2026-05-02T16:09:54.988Z</time></trkpt><trkpt lat="42.2064664" lon="13.2554761"><ele>975.0</ele><time>2026-05-02T16:09:55.988Z</time></trkpt><trkpt lat="42.2064751" lon="13.255365"><ele>975.0</ele><time>2026-05-02T16:09:56.988Z</time></trkpt><trkpt lat="42.2064848" lon="13.2552517"><ele>975.0</ele><time>2026-05-02T16:09:57.988Z</time></trkpt><trkpt lat="42.2064934" lon="13.2551338"><ele>975.0</ele><time>2026-05-02T16:09:58.988Z</time></trkpt><trkpt lat="42.2064903" lon="13.2550202"><ele>975.0</ele><time>2026-05-02T16:09:59.988Z</time></trkpt><trkpt lat="42.2064859" lon="13.254894"><ele>975.0</ele><time>2026-05-02T16:10:00.988Z</time></trkpt><trkpt lat="42.2064616" lon="13.2547493"><ele>975.8</ele><time>2026-05-02T16:10:01.988Z</time></trkpt><trkpt lat="42.2064376" lon="13.2546068"><ele>976.6</ele><time>2026-05-02T16:10:02.988Z</time></trkpt><trkpt lat="42.2064182" lon="13.2544664"><ele>977.4000000000001</ele><time>2026-05-02T16:10:03.988Z</time></trkpt><trkpt lat="42.2064019" lon="13.2543271"><ele>978.2</ele><time>2026-05-02T16:10:04.988Z</time></trkpt><trkpt lat="42.2064023" lon="13.254182"><ele>979.0</ele><time>2026-05-02T16:10:05.988Z</time></trkpt><trkpt lat="42.2064119" lon="13.2540341"><ele>977.75</ele><time>2026-05-02T16:10:06.987Z</time></trkpt><trkpt lat="42.206435" lon="13.2538841"><ele>976.5</ele><time>2026-05-02T16:10:07.988Z</time></trkpt><trkpt lat="42.2064659" lon="13.2537289"><ele>975.25</ele><time>2026-05-02T16:10:08.988Z</time></trkpt><trkpt lat="42.2065064" lon="13.2535674"><ele>974.0</ele><time>2026-05-02T16:10:09.988Z</time></trkpt><trkpt lat="42.2065568" lon="13.2534077"><ele>981.25</ele><time>2026-05-02T16:10:10.988Z</time></trkpt><trkpt lat="42.2066189" lon="13.2532423"><ele>988.5</ele><time>2026-05-02T16:10:11.988Z</time></trkpt><trkpt lat="42.206678" lon="13.2530754"><ele>995.75</ele><time>2026-05-02T16:10:12.988Z</time></trkpt><trkpt lat="42.2067247" lon="13.252934"><ele>1003.0</ele><time>2026-05-02T16:10:13.988Z</time></trkpt><trkpt lat="42.2067715" lon="13.2527935"><ele>1003.0</ele><time>2026-05-02T16:10:14.988Z</time></trkpt><trkpt lat="42.2068085" lon="13.2526847"><ele>1003.0</ele><time>2026-05-02T16:10:15.988Z</time></trkpt><trkpt lat="42.206857" lon="13.2525934"><ele>1003.0</ele><time>2026-05-02T16:10:17.987Z</time></trkpt><trkpt lat="42.2069025" lon="13.2526601"><ele>1003.0</ele><time>2026-05-02T16:10:38.988Z</time></trkpt><trkpt lat="42.2068887" lon="13.2527873"><ele>1003.0</ele><time>2026-05-02T16:10:40.988Z</time></trkpt><trkpt lat="42.2068628" lon="13.2529577"><ele>1003.0</ele><time>2026-05-02T16:10:42.988Z</time></trkpt><trkpt lat="42.2068516" lon="13.2530604"><ele>1002.9999999999999</ele><time>2026-05-02T16:10:43.988Z</time></trkpt><trkpt lat="42.2068419" lon="13.2531638"><ele>1003.0</ele><time>2026-05-02T16:10:44.987Z</time></trkpt><trkpt lat="42.2068351" lon="13.2532651"><ele>1003.0</ele><time>2026-05-02T16:10:45.988Z</time></trkpt><trkpt lat="42.2068334" lon="13.253364"><ele>1002.9999999999999</ele><time>2026-05-02T16:10:46.988Z</time></trkpt><trkpt lat="42.2068399" lon="13.2534614"><ele>1003.0</ele><time>2026-05-02T16:10:47.988Z</time></trkpt><trkpt lat="42.20685" lon="13.2535514"><ele>1003.0</ele><time>2026-05-02T16:10:48.987Z</time></trkpt><trkpt lat="42.2068583" lon="13.2536443"><ele>1004.25</ele><time>2026-05-02T16:10:49.988Z</time></trkpt><trkpt lat="42.2068674" lon="13.2537999"><ele>1005.5</ele><time>2026-05-02T16:10:51.988Z</time></trkpt><trkpt lat="42.2068955" lon="13.2539329"><ele>1006.75</ele><time>2026-05-02T16:10:53.988Z</time></trkpt><trkpt lat="42.2069638" lon="13.2540635"><ele>1008.0</ele><time>2026-05-02T16:10:55.988Z</time></trkpt><trkpt lat="42.2070227" lon="13.254209"><ele>1007.6666666666666</ele><time>2026-05-02T16:10:57.988Z</time></trkpt><trkpt lat="42.2070477" lon="13.2542968"><ele>1007.3333333333333</ele><time>2026-05-02T16:10:58.988Z</time></trkpt><trkpt lat="42.2070623" lon="13.2543885"><ele>1007.0</ele><time>2026-05-02T16:10:59.988Z</time></trkpt><trkpt lat="42.2070784" lon="13.254485"><ele>1006.6666666666666</ele><time>2026-05-02T16:11:00.988Z</time></trkpt><trkpt lat="42.2070992" lon="13.2545813"><ele>1006.3333333333333</ele><time>2026-05-02T16:11:01.988Z</time></trkpt><trkpt lat="42.2071204" lon="13.2546806"><ele>1006.0</ele><time>2026-05-02T16:11:02.988Z</time></trkpt><trkpt lat="42.2071548" lon="13.2547893"><ele>1006.0</ele><time>2026-05-02T16:11:03.988Z</time></trkpt><trkpt lat="42.2071907" lon="13.2549013"><ele>1005.9999999999999</ele><time>2026-05-02T16:11:04.988Z</time></trkpt><trkpt lat="42.2072241" lon="13.2550217"><ele>1005.9999999999999</ele><time>2026-05-02T16:11:05.988Z</time></trkpt><trkpt lat="42.2072479" lon="13.2551465"><ele>1006.0</ele><time>2026-05-02T16:11:06.988Z</time></trkpt><trkpt lat="42.2072699" lon="13.2552779"><ele>1006.0</ele><time>2026-05-02T16:11:07.987Z</time></trkpt><trkpt lat="42.2072911" lon="13.2554119"><ele>1006.0</ele><time>2026-05-02T16:11:08.987Z</time></trkpt><trkpt lat="42.2073216" lon="13.2555496"><ele>1005.9999999999999</ele><time>2026-05-02T16:11:09.988Z</time></trkpt><trkpt lat="42.2073534" lon="13.2556896"><ele>1005.9999999999999</ele><time>2026-05-02T16:11:10.988Z</time></trkpt><trkpt lat="42.2073883" lon="13.2558303"><ele>1006.0</ele><time>2026-05-02T16:11:11.988Z</time></trkpt><trkpt lat="42.2074174" lon="13.2559578"><ele>1006.0</ele><time>2026-05-02T16:11:12.988Z</time></trkpt><trkpt lat="42.2074485" lon="13.2560746"><ele>1009.1999999999999</ele><time>2026-05-02T16:11:13.988Z</time></trkpt><trkpt lat="42.2074829" lon="13.256181"><ele>1012.3999999999999</ele><time>2026-05-02T16:11:14.988Z</time></trkpt><trkpt lat="42.2075301" lon="13.2562843"><ele>1015.6</ele><time>2026-05-02T16:11:15.988Z</time></trkpt><trkpt lat="42.2075934" lon="13.2563798"><ele>1018.8</ele><time>2026-05-02T16:11:16.988Z</time></trkpt><trkpt lat="42.2076607" lon="13.256464"><ele>1022.0</ele><time>2026-05-02T16:11:17.988Z</time></trkpt><trkpt lat="42.2077373" lon="13.2565403"><ele>1022.0000000000001</ele><time>2026-05-02T16:11:18.987Z</time></trkpt><trkpt lat="42.2078063" lon="13.2566162"><ele>1022.0</ele><time>2026-05-02T16:11:19.988Z</time></trkpt><trkpt lat="42.2078675" lon="13.2566857"><ele>1022.0</ele><time>2026-05-02T16:11:20.988Z</time></trkpt><trkpt lat="42.2079252" lon="13.256751"><ele>1022.0</ele><time>2026-05-02T16:11:21.988Z</time></trkpt><trkpt lat="42.2079777" lon="13.2568072"><ele>1022.0000000000001</ele><time>2026-05-02T16:11:22.988Z</time></trkpt><trkpt lat="42.208048" lon="13.2568996"><ele>1022.0</ele><time>2026-05-02T16:11:24.988Z</time></trkpt><trkpt lat="42.2080977" lon="13.2569764"><ele>1026.0</ele><time>2026-05-02T16:11:26.988Z</time></trkpt><trkpt lat="42.2081715" lon="13.2571033"><ele>1030.0</ele><time>2026-05-02T16:11:28.988Z</time></trkpt><trkpt lat="42.208211" lon="13.2571902"><ele>1034.0</ele><time>2026-05-02T16:11:29.988Z</time></trkpt><trkpt lat="42.2082592" lon="13.2572793"><ele>1038.0</ele><time>2026-05-02T16:11:30.987Z</time></trkpt><trkpt lat="42.2083027" lon="13.257371"><ele>1042.0</ele><time>2026-05-02T16:11:31.987Z</time></trkpt><trkpt lat="42.2083399" lon="13.2574676"><ele>1046.0</ele><time>2026-05-02T16:11:32.988Z</time></trkpt><trkpt lat="42.2083663" lon="13.2575644"><ele>1046.0</ele><time>2026-05-02T16:11:33.987Z</time></trkpt><trkpt lat="42.2083819" lon="13.2576681"><ele>1046.0</ele><time>2026-05-02T16:11:34.988Z</time></trkpt><trkpt lat="42.208399" lon="13.2577834"><ele>1046.0</ele><time>2026-05-02T16:11:35.988Z</time></trkpt><trkpt lat="42.2084115" lon="13.2579"><ele>1046.0</ele><time>2026-05-02T16:11:36.988Z</time></trkpt><trkpt lat="42.2084202" lon="13.2580243"><ele>1046.0</ele><time>2026-05-02T16:11:37.988Z</time></trkpt><trkpt lat="42.2084267" lon="13.2581548"><ele>1046.0</ele><time>2026-05-02T16:11:38.988Z</time></trkpt><trkpt lat="42.2084351" lon="13.2582833"><ele>1044.8333333333335</ele><time>2026-05-02T16:11:39.988Z</time></trkpt><trkpt lat="42.2084483" lon="13.2584071"><ele>1043.6666666666667</ele><time>2026-05-02T16:11:40.987Z</time></trkpt><trkpt lat="42.2084678" lon="13.2585244"><ele>1042.5</ele><time>2026-05-02T16:11:41.988Z</time></trkpt><trkpt lat="42.2084886" lon="13.2586318"><ele>1041.3333333333333</ele><time>2026-05-02T16:11:42.988Z</time></trkpt><trkpt lat="42.2085151" lon="13.2587339"><ele>1040.1666666666665</ele><time>2026-05-02T16:11:43.988Z</time></trkpt><trkpt lat="42.2085456" lon="13.2588288"><ele>1039.0</ele><time>2026-05-02T16:11:44.988Z</time></trkpt><trkpt lat="42.2085797" lon="13.2589106"><ele>1037.8333333333333</ele><time>2026-05-02T16:11:45.988Z</time></trkpt><trkpt lat="42.2086248" lon="13.2589747"><ele>1036.6666666666665</ele><time>2026-05-02T16:11:46.987Z</time></trkpt><trkpt lat="42.2086833" lon="13.2590133"><ele>1035.5</ele><time>2026-05-02T16:11:47.988Z</time></trkpt><trkpt lat="42.2088002" lon="13.2590802"><ele>1034.3333333333333</ele><time>2026-05-02T16:11:49.988Z</time></trkpt><trkpt lat="42.2088968" lon="13.2590966"><ele>1033.1666666666667</ele><time>2026-05-02T16:11:50.988Z</time></trkpt><trkpt lat="42.2089748" lon="13.2591192"><ele>1032.0</ele><time>2026-05-02T16:11:51.988Z</time></trkpt><trkpt lat="42.2090618" lon="13.2591394"><ele>1037.6</ele><time>2026-05-02T16:11:52.988Z</time></trkpt><trkpt lat="42.2091547" lon="13.2591635"><ele>1043.2</ele><time>2026-05-02T16:11:53.988Z</time></trkpt><trkpt lat="42.2092512" lon="13.2591867"><ele>1048.8</ele><time>2026-05-02T16:11:54.988Z</time></trkpt><trkpt lat="42.209339" lon="13.2592131"><ele>1054.4</ele><time>2026-05-02T16:11:55.988Z</time></trkpt><trkpt lat="42.2094254" lon="13.2592312"><ele>1060.0</ele><time>2026-05-02T16:11:56.988Z</time></trkpt><trkpt lat="42.2095178" lon="13.2592563"><ele>1060.0</ele><time>2026-05-02T16:11:57.988Z</time></trkpt><trkpt lat="42.2096004" lon="13.2592852"><ele>1060.0</ele><time>2026-05-02T16:11:58.988Z</time></trkpt><trkpt lat="42.2096859" lon="13.2593169"><ele>1060.0</ele><time>2026-05-02T16:11:59.988Z</time></trkpt><trkpt lat="42.2097704" lon="13.2593473"><ele>1060.0</ele><time>2026-05-02T16:12:00.988Z</time></trkpt><trkpt lat="42.2098462" lon="13.2593766"><ele>1060.0</ele><time>2026-05-02T16:12:01.988Z</time></trkpt><trkpt lat="42.209931" lon="13.2594221"><ele>1060.0</ele><time>2026-05-02T16:12:02.987Z</time></trkpt><trkpt lat="42.210018" lon="13.2594767"><ele>1059.0</ele><time>2026-05-02T16:12:03.988Z</time></trkpt><trkpt lat="42.2101" lon="13.2595349"><ele>1058.0</ele><time>2026-05-02T16:12:04.988Z</time></trkpt><trkpt lat="42.2101849" lon="13.2595936"><ele>1057.0</ele><time>2026-05-02T16:12:05.987Z</time></trkpt><trkpt lat="42.2102641" lon="13.2596684"><ele>1056.0</ele><time>2026-05-02T16:12:06.987Z</time></trkpt><trkpt lat="42.2103352" lon="13.2597498"><ele>1055.0</ele><time>2026-05-02T16:12:07.988Z</time></trkpt><trkpt lat="42.2104038" lon="13.2598345"><ele>1055.0</ele><time>2026-05-02T16:12:08.988Z</time></trkpt><trkpt lat="42.2104716" lon="13.2599145"><ele>1055.0</ele><time>2026-05-02T16:12:09.988Z</time></trkpt><trkpt lat="42.2105373" lon="13.2600043"><ele>1055.0</ele><time>2026-05-02T16:12:10.988Z</time></trkpt><trkpt lat="42.2105949" lon="13.2601009"><ele>1055.0</ele><time>2026-05-02T16:12:11.988Z</time></trkpt><trkpt lat="42.2106495" lon="13.2601975"><ele>1055.0</ele><time>2026-05-02T16:12:12.988Z</time></trkpt><trkpt lat="42.2107076" lon="13.2603011"><ele>1057.4</ele><time>2026-05-02T16:12:13.988Z</time></trkpt><trkpt lat="42.2107682" lon="13.2604004"><ele>1059.8</ele><time>2026-05-02T16:12:14.988Z</time></trkpt><trkpt lat="42.2108355" lon="13.2604957"><ele>1062.2</ele><time>2026-05-02T16:12:15.988Z</time></trkpt><trkpt lat="42.210898" lon="13.2605771"><ele>1064.6</ele><time>2026-05-02T16:12:16.988Z</time></trkpt><trkpt lat="42.2109785" lon="13.2606531"><ele>1067.0</ele><time>2026-05-02T16:12:17.987Z</time></trkpt><trkpt lat="42.2110454" lon="13.2607215"><ele>1067.0</ele><time>2026-05-02T16:12:18.987Z</time></trkpt><trkpt lat="42.211122" lon="13.2607809"><ele>1067.0</ele><time>2026-05-02T16:12:19.988Z</time></trkpt><trkpt lat="42.2111985" lon="13.2608323"><ele>1067.0</ele><time>2026-05-02T16:12:20.988Z</time></trkpt><trkpt lat="42.2112752" lon="13.2608794"><ele>1067.0</ele><time>2026-05-02T16:12:21.988Z</time></trkpt><trkpt lat="42.2113562" lon="13.2609144"><ele>1067.0</ele><time>2026-05-02T16:12:22.988Z</time></trkpt><trkpt lat="42.2114314" lon="13.2609502"><ele>1067.0</ele><time>2026-05-02T16:12:23.988Z</time></trkpt><trkpt lat="42.2115112" lon="13.2609598"><ele>1072.6666666666667</ele><time>2026-05-02T16:12:24.987Z</time></trkpt><trkpt lat="42.2115958" lon="13.2609848"><ele>1078.3333333333335</ele><time>2026-05-02T16:12:25.988Z</time></trkpt><trkpt lat="42.2116738" lon="13.2610216"><ele>1084.0</ele><time>2026-05-02T16:12:26.988Z</time></trkpt><trkpt lat="42.2117487" lon="13.2610811"><ele>1089.6666666666667</ele><time>2026-05-02T16:12:27.988Z</time></trkpt><trkpt lat="42.2118159" lon="13.2611432"><ele>1095.3333333333333</ele><time>2026-05-02T16:12:28.988Z</time></trkpt><trkpt lat="42.2118753" lon="13.2612035"><ele>1101.0</ele><time>2026-05-02T16:12:29.988Z</time></trkpt><trkpt lat="42.2119366" lon="13.2612468"><ele>1101.0</ele><time>2026-05-02T16:12:30.988Z</time></trkpt><trkpt lat="42.2120084" lon="13.2612737"><ele>1101.0</ele><time>2026-05-02T16:12:31.988Z</time></trkpt><trkpt lat="42.2120841" lon="13.2612866"><ele>1101.0</ele><time>2026-05-02T16:12:32.988Z</time></trkpt><trkpt lat="42.2121523" lon="13.2612863"><ele>1101.0</ele><time>2026-05-02T16:12:33.988Z</time></trkpt><trkpt lat="42.2122327" lon="13.2612761"><ele>1101.0</ele><time>2026-05-02T16:12:34.988Z</time></trkpt><trkpt lat="42.212313" lon="13.2612633"><ele>1101.0</ele><time>2026-05-02T16:12:35.988Z</time></trkpt><trkpt lat="42.2123929" lon="13.2612491"><ele>1100.6666666666667</ele><time>2026-05-02T16:12:36.988Z</time></trkpt><trkpt lat="42.2124811" lon="13.2612492"><ele>1100.3333333333333</ele><time>2026-05-02T16:12:37.988Z</time></trkpt><trkpt lat="42.2125506" lon="13.2612887"><ele>1100.0</ele><time>2026-05-02T16:12:38.987Z</time></trkpt><trkpt lat="42.2126009" lon="13.261353"><ele>1099.6666666666665</ele><time>2026-05-02T16:12:39.988Z</time></trkpt><trkpt lat="42.2126409" lon="13.2614412"><ele>1099.3333333333333</ele><time>2026-05-02T16:12:40.988Z</time></trkpt><trkpt lat="42.2126793" lon="13.2615395"><ele>1099.0</ele><time>2026-05-02T16:12:41.988Z</time></trkpt><trkpt lat="42.2127178" lon="13.2616322"><ele>1099.0</ele><time>2026-05-02T16:12:42.988Z</time></trkpt><trkpt lat="42.2127591" lon="13.2617093"><ele>1099.0</ele><time>2026-05-02T16:12:43.988Z</time></trkpt><trkpt lat="42.2127972" lon="13.2617814"><ele>1099.0</ele><time>2026-05-02T16:12:44.988Z</time></trkpt><trkpt lat="42.2128404" lon="13.2618516"><ele>1099.0</ele><time>2026-05-02T16:12:45.988Z</time></trkpt><trkpt lat="42.2128954" lon="13.2619233"><ele>1099.0</ele><time>2026-05-02T16:12:46.988Z</time></trkpt><trkpt lat="42.2129533" lon="13.2619994"><ele>1099.0</ele><time>2026-05-02T16:12:47.988Z</time></trkpt><trkpt lat="42.2130128" lon="13.262067"><ele>1099.0</ele><time>2026-05-02T16:12:48.988Z</time></trkpt><trkpt lat="42.2130633" lon="13.2621321"><ele>1099.0</ele><time>2026-05-02T16:12:49.988Z</time></trkpt><trkpt lat="42.2131116" lon="13.2621938"><ele>1099.0</ele><time>2026-05-02T16:12:50.988Z</time></trkpt><trkpt lat="42.2131655" lon="13.2622428"><ele>1099.0</ele><time>2026-05-02T16:12:51.988Z</time></trkpt><trkpt lat="42.2132543" lon="13.2623472"><ele>1099.0</ele><time>2026-05-02T16:12:53.988Z</time></trkpt><trkpt lat="42.2133136" lon="13.2624"><ele>1099.0</ele><time>2026-05-02T16:12:54.988Z</time></trkpt><trkpt lat="42.2133866" lon="13.2624604"><ele>1099.0</ele><time>2026-05-02T16:12:55.988Z</time></trkpt><trkpt lat="42.2134498" lon="13.2625156"><ele>1100.3333333333333</ele><time>2026-05-02T16:12:56.988Z</time></trkpt><trkpt lat="42.2135065" lon="13.2625752"><ele>1101.6666666666665</ele><time>2026-05-02T16:12:57.988Z</time></trkpt><trkpt lat="42.2135688" lon="13.2626431"><ele>1103.0</ele><time>2026-05-02T16:12:58.988Z</time></trkpt><trkpt lat="42.2136361" lon="13.2627114"><ele>1104.3333333333333</ele><time>2026-05-02T16:12:59.988Z</time></trkpt><trkpt lat="42.2137077" lon="13.2627808"><ele>1105.6666666666667</ele><time>2026-05-02T16:13:00.988Z</time></trkpt><trkpt lat="42.2137763" lon="13.2628507"><ele>1107.0</ele><time>2026-05-02T16:13:01.988Z</time></trkpt><trkpt lat="42.2138439" lon="13.2629189"><ele>1107.0</ele><time>2026-05-02T16:13:02.987Z</time></trkpt><trkpt lat="42.2139089" lon="13.2629819"><ele>1107.0</ele><time>2026-05-02T16:13:03.988Z</time></trkpt><trkpt lat="42.2139726" lon="13.2630565"><ele>1107.0</ele><time>2026-05-02T16:13:04.988Z</time></trkpt><trkpt lat="42.2140479" lon="13.2630758"><ele>1107.0</ele><time>2026-05-02T16:13:05.988Z</time></trkpt><trkpt lat="42.2141203" lon="13.2631059"><ele>1107.0</ele><time>2026-05-02T16:13:06.988Z</time></trkpt><trkpt lat="42.214194" lon="13.2631345"><ele>1107.0</ele><time>2026-05-02T16:13:07.988Z</time></trkpt><trkpt lat="42.2142665" lon="13.2631375"><ele>1107.8333333333333</ele><time>2026-05-02T16:13:08.988Z</time></trkpt><trkpt lat="42.214341" lon="13.2631357"><ele>1108.6666666666667</ele><time>2026-05-02T16:13:09.988Z</time></trkpt><trkpt lat="42.2144171" lon="13.2631299"><ele>1109.5</ele><time>2026-05-02T16:13:10.987Z</time></trkpt><trkpt lat="42.2144989" lon="13.2631255"><ele>1110.3333333333335</ele><time>2026-05-02T16:13:11.987Z</time></trkpt><trkpt lat="42.2145815" lon="13.2631124"><ele>1111.1666666666667</ele><time>2026-05-02T16:13:12.987Z</time></trkpt><trkpt lat="42.2146672" lon="13.2631019"><ele>1112.0</ele><time>2026-05-02T16:13:13.988Z</time></trkpt><trkpt lat="42.2147665" lon="13.2630931"><ele>1110.3333333333335</ele><time>2026-05-02T16:13:14.988Z</time></trkpt><trkpt lat="42.2148588" lon="13.2630861"><ele>1108.6666666666667</ele><time>2026-05-02T16:13:15.988Z</time></trkpt><trkpt lat="42.2149506" lon="13.2630858"><ele>1107.0</ele><time>2026-05-02T16:13:16.988Z</time></trkpt><trkpt lat="42.2150442" lon="13.2630848"><ele>1105.3333333333333</ele><time>2026-05-02T16:13:17.987Z</time></trkpt><trkpt lat="42.2151324" lon="13.2630944"><ele>1103.6666666666665</ele><time>2026-05-02T16:13:18.988Z</time></trkpt><trkpt lat="42.2152065" lon="13.2631219"><ele>1102.0</ele><time>2026-05-02T16:13:19.988Z</time></trkpt><trkpt lat="42.2152655" lon="13.2631826"><ele>1101.3333333333333</ele><time>2026-05-02T16:13:20.988Z</time></trkpt><trkpt lat="42.2153272" lon="13.2632525"><ele>1100.6666666666665</ele><time>2026-05-02T16:13:21.988Z</time></trkpt><trkpt lat="42.2153877" lon="13.2633288"><ele>1100.0</ele><time>2026-05-02T16:13:22.988Z</time></trkpt><trkpt lat="42.2154433" lon="13.2634045"><ele>1099.3333333333333</ele><time>2026-05-02T16:13:23.988Z</time></trkpt><trkpt lat="42.2155002" lon="13.2634754"><ele>1098.6666666666667</ele><time>2026-05-02T16:13:24.988Z</time></trkpt><trkpt lat="42.2155444" lon="13.2635437"><ele>1098.0</ele><time>2026-05-02T16:13:25.988Z</time></trkpt><trkpt lat="42.2155551" lon="13.2636862"><ele>1098.0</ele><time>2026-05-02T16:13:27.988Z</time></trkpt><trkpt lat="42.2155122" lon="13.2637848"><ele>1098.0</ele><time>2026-05-02T16:13:29.988Z</time></trkpt><trkpt lat="42.2154322" lon="13.2638495"><ele>1098.0</ele><time>2026-05-02T16:13:31.988Z</time></trkpt><trkpt lat="42.2153729" lon="13.2639198"><ele>1098.0</ele><time>2026-05-02T16:13:33.988Z</time></trkpt><trkpt lat="42.2153869" lon="13.2640197"><ele>1098.0</ele><time>2026-05-02T16:13:35.988Z</time></trkpt><trkpt lat="42.2154376" lon="13.2641297"><ele>1098.0</ele><time>2026-05-02T16:13:37.988Z</time></trkpt><trkpt lat="42.2155338" lon="13.2642477"><ele>1098.0</ele><time>2026-05-02T16:13:39.988Z</time></trkpt><trkpt lat="42.2155964" lon="13.2643067"><ele>1098.0</ele><time>2026-05-02T16:13:40.988Z</time></trkpt><trkpt lat="42.2157041" lon="13.2643184"><ele>1098.0</ele><time>2026-05-02T16:13:41.988Z</time></trkpt><trkpt lat="42.2158217" lon="13.2643028"><ele>1098.0</ele><time>2026-05-02T16:13:42.988Z</time></trkpt><trkpt lat="42.2159209" lon="13.2642929"><ele>1098.0</ele><time>2026-05-02T16:13:43.988Z</time></trkpt><trkpt lat="42.2160046" lon="13.2643037"><ele>1100.142857142857</ele><time>2026-05-02T16:13:44.987Z</time></trkpt><trkpt lat="42.216063" lon="13.2643476"><ele>1102.2857142857142</ele><time>2026-05-02T16:13:45.988Z</time></trkpt><trkpt lat="42.2161113" lon="13.2644081"><ele>1104.4285714285716</ele><time>2026-05-02T16:13:46.988Z</time></trkpt><trkpt lat="42.2161526" lon="13.2644783"><ele>1106.5714285714284</ele><time>2026-05-02T16:13:47.988Z</time></trkpt><trkpt lat="42.2161839" lon="13.2645624"><ele>1108.7142857142858</ele><time>2026-05-02T16:13:48.988Z</time></trkpt><trkpt lat="42.2162019" lon="13.2646557"><ele>1110.857142857143</ele><time>2026-05-02T16:13:49.988Z</time></trkpt><trkpt lat="42.2162171" lon="13.2647496"><ele>1113.0</ele><time>2026-05-02T16:13:50.988Z</time></trkpt><trkpt lat="42.2161866" lon="13.2648529"><ele>1114.5</ele><time>2026-05-02T16:13:51.988Z</time></trkpt><trkpt lat="42.2161603" lon="13.2649411"><ele>1116.0</ele><time>2026-05-02T16:13:52.988Z</time></trkpt><trkpt lat="42.2161331" lon="13.2651073"><ele>1117.5</ele><time>2026-05-02T16:13:54.988Z</time></trkpt><trkpt lat="42.2161259" lon="13.2651971"><ele>1119.0</ele><time>2026-05-02T16:13:55.988Z</time></trkpt><trkpt lat="42.2161195" lon="13.2652833"><ele>1120.5</ele><time>2026-05-02T16:13:56.987Z</time></trkpt><trkpt lat="42.2161433" lon="13.2653871"><ele>1122.0</ele><time>2026-05-02T16:13:57.988Z</time></trkpt><trkpt lat="42.2161719" lon="13.2654863"><ele>1122.0</ele><time>2026-05-02T16:13:58.988Z</time></trkpt><trkpt lat="42.216216" lon="13.2655652"><ele>1122.0</ele><time>2026-05-02T16:13:59.988Z</time></trkpt><trkpt lat="42.2162746" lon="13.2656416"><ele>1122.0</ele><time>2026-05-02T16:14:00.988Z</time></trkpt><trkpt lat="42.2163742" lon="13.2657061"><ele>1122.0</ele><time>2026-05-02T16:14:01.988Z</time></trkpt><trkpt lat="42.2164478" lon="13.2657503"><ele>1122.0</ele><time>2026-05-02T16:14:02.988Z</time></trkpt><trkpt lat="42.2165088" lon="13.2658082"><ele>1122.0</ele><time>2026-05-02T16:14:03.988Z</time></trkpt><trkpt lat="42.2165813" lon="13.2658467"><ele>1121.6666666666667</ele><time>2026-05-02T16:14:04.988Z</time></trkpt><trkpt lat="42.2166594" lon="13.2658953"><ele>1121.3333333333333</ele><time>2026-05-02T16:14:05.988Z</time></trkpt><trkpt lat="42.2167522" lon="13.265934"><ele>1121.0</ele><time>2026-05-02T16:14:06.987Z</time></trkpt><trkpt lat="42.2168447" lon="13.2659652"><ele>1120.6666666666665</ele><time>2026-05-02T16:14:07.988Z</time></trkpt><trkpt lat="42.2169327" lon="13.2659927"><ele>1120.3333333333333</ele><time>2026-05-02T16:14:08.988Z</time></trkpt><trkpt lat="42.2170122" lon="13.266011"><ele>1120.0</ele><time>2026-05-02T16:14:09.988Z</time></trkpt><trkpt lat="42.2170854" lon="13.2660353"><ele>1120.0</ele><time>2026-05-02T16:14:10.988Z</time></trkpt><trkpt lat="42.2171766" lon="13.2660526"><ele>1120.0</ele><time>2026-05-02T16:14:11.988Z</time></trkpt><trkpt lat="42.2172658" lon="13.2660616"><ele>1120.0</ele><time>2026-05-02T16:14:12.988Z</time></trkpt><trkpt lat="42.2173433" lon="13.2660616"><ele>1120.0</ele><time>2026-05-02T16:14:13.988Z</time></trkpt><trkpt lat="42.217421" lon="13.2660508"><ele>1120.0</ele><time>2026-05-02T16:14:14.988Z</time></trkpt><trkpt lat="42.2174982" lon="13.2660313"><ele>1120.0</ele><time>2026-05-02T16:14:15.988Z</time></trkpt><trkpt lat="42.2175691" lon="13.2660203"><ele>1118.3333333333333</ele><time>2026-05-02T16:14:16.988Z</time></trkpt><trkpt lat="42.2176785" lon="13.2660819"><ele>1116.6666666666665</ele><time>2026-05-02T16:14:18.988Z</time></trkpt><trkpt lat="42.2177307" lon="13.2661439"><ele>1115.0</ele><time>2026-05-02T16:14:19.987Z</time></trkpt><trkpt lat="42.21779" lon="13.2662094"><ele>1113.3333333333333</ele><time>2026-05-02T16:14:20.988Z</time></trkpt><trkpt lat="42.2178458" lon="13.2662556"><ele>1111.6666666666667</ele><time>2026-05-02T16:14:21.988Z</time></trkpt><trkpt lat="42.2179584" lon="13.2662598"><ele>1110.0</ele><time>2026-05-02T16:14:23.988Z</time></trkpt><trkpt lat="42.2180431" lon="13.2661892"><ele>1110.0</ele><time>2026-05-02T16:14:25.988Z</time></trkpt><trkpt lat="42.2180949" lon="13.2660597"><ele>1110.0</ele><time>2026-05-02T16:14:27.987Z</time></trkpt><trkpt lat="42.2181423" lon="13.2659499"><ele>1110.0</ele><time>2026-05-02T16:14:29.988Z</time></trkpt><trkpt lat="42.2182064" lon="13.2659117"><ele>1110.0</ele><time>2026-05-02T16:14:30.988Z</time></trkpt><trkpt lat="42.2182714" lon="13.2658813"><ele>1110.0</ele><time>2026-05-02T16:14:31.988Z</time></trkpt><trkpt lat="42.218368" lon="13.2658616"><ele>1110.0</ele><time>2026-05-02T16:14:32.988Z</time></trkpt><trkpt lat="42.2184386" lon="13.2658555"><ele>1110.6</ele><time>2026-05-02T16:14:33.988Z</time></trkpt><trkpt lat="42.2185738" lon="13.2658432"><ele>1111.2</ele><time>2026-05-02T16:14:35.988Z</time></trkpt><trkpt lat="42.2186344" lon="13.265813"><ele>1111.8</ele><time>2026-05-02T16:14:36.988Z</time></trkpt><trkpt lat="42.2187048" lon="13.2657991"><ele>1112.4</ele><time>2026-05-02T16:14:37.988Z</time></trkpt><trkpt lat="42.2188004" lon="13.2657261"><ele>1113.0</ele><time>2026-05-02T16:14:38.988Z</time></trkpt><trkpt lat="42.2188808" lon="13.2656862"><ele>1113.0</ele><time>2026-05-02T16:14:39.988Z</time></trkpt><trkpt lat="42.2189571" lon="13.2656514"><ele>1113.0</ele><time>2026-05-02T16:14:40.988Z</time></trkpt><trkpt lat="42.2190301" lon="13.265627"><ele>1113.0</ele><time>2026-05-02T16:14:41.988Z</time></trkpt><trkpt lat="42.2190966" lon="13.2655954"><ele>1113.0</ele><time>2026-05-02T16:14:42.988Z</time></trkpt><trkpt lat="42.2191599" lon="13.2655521"><ele>1113.0</ele><time>2026-05-02T16:14:43.988Z</time></trkpt><trkpt lat="42.2192242" lon="13.2654868"><ele>1113.0</ele><time>2026-05-02T16:14:44.988Z</time></trkpt><trkpt lat="42.2192844" lon="13.2654316"><ele>1113.5</ele><time>2026-05-02T16:14:45.987Z</time></trkpt><trkpt lat="42.2193476" lon="13.2653613"><ele>1114.0</ele><time>2026-05-02T16:14:46.988Z</time></trkpt><trkpt lat="42.2194179" lon="13.2652883"><ele>1114.5</ele><time>2026-05-02T16:14:47.987Z</time></trkpt><trkpt lat="42.2194971" lon="13.2652201"><ele>1115.0</ele><time>2026-05-02T16:14:48.988Z</time></trkpt><trkpt lat="42.2195743" lon="13.2651583"><ele>1115.5</ele><time>2026-05-02T16:14:49.988Z</time></trkpt><trkpt lat="42.2196393" lon="13.2651105"><ele>1116.0</ele><time>2026-05-02T16:14:50.988Z</time></trkpt><trkpt lat="42.2196972" lon="13.2650371"><ele>1115.9999999999998</ele><time>2026-05-02T16:14:51.988Z</time></trkpt><trkpt lat="42.2197411" lon="13.2649663"><ele>1116.0</ele><time>2026-05-02T16:14:52.988Z</time></trkpt><trkpt lat="42.2197821" lon="13.2648852"><ele>1116.0</ele><time>2026-05-02T16:14:53.988Z</time></trkpt><trkpt lat="42.2198385" lon="13.2648158"><ele>1116.0</ele><time>2026-05-02T16:14:54.987Z</time></trkpt><trkpt lat="42.2198784" lon="13.2647467"><ele>1116.0</ele><time>2026-05-02T16:14:55.988Z</time></trkpt><trkpt lat="42.2199203" lon="13.2646548"><ele>1115.9999999999998</ele><time>2026-05-02T16:14:56.987Z</time></trkpt><trkpt lat="42.2199722" lon="13.2645845"><ele>1116.0</ele><time>2026-05-02T16:14:57.988Z</time></trkpt><trkpt lat="42.2200867" lon="13.2645054"><ele>1117.1666666666667</ele><time>2026-05-02T16:14:59.988Z</time></trkpt><trkpt lat="42.2201899" lon="13.2645525"><ele>1118.3333333333333</ele><time>2026-05-02T16:15:01.988Z</time></trkpt><trkpt lat="42.2202496" lon="13.2646513"><ele>1119.5</ele><time>2026-05-02T16:15:03.988Z</time></trkpt><trkpt lat="42.2203121" lon="13.2647627"><ele>1120.6666666666665</ele><time>2026-05-02T16:15:05.988Z</time></trkpt><trkpt lat="42.2203722" lon="13.2647992"><ele>1121.8333333333333</ele><time>2026-05-02T16:15:06.988Z</time></trkpt><trkpt lat="42.2204445" lon="13.2648115"><ele>1123.0</ele><time>2026-05-02T16:15:07.988Z</time></trkpt><trkpt lat="42.2205171" lon="13.2648045"><ele>1123.8571428571427</ele><time>2026-05-02T16:15:08.988Z</time></trkpt><trkpt lat="42.2205845" lon="13.2648033"><ele>1124.7142857142858</ele><time>2026-05-02T16:15:09.988Z</time></trkpt><trkpt lat="42.2206478" lon="13.2647926"><ele>1125.5714285714284</ele><time>2026-05-02T16:15:10.988Z</time></trkpt><trkpt lat="42.2207299" lon="13.2647941"><ele>1126.4285714285713</ele><time>2026-05-02T16:15:11.988Z</time></trkpt><trkpt lat="42.2208026" lon="13.2648004"><ele>1127.2857142857142</ele><time>2026-05-02T16:15:12.988Z</time></trkpt><trkpt lat="42.2208826" lon="13.2648028"><ele>1128.142857142857</ele><time>2026-05-02T16:15:13.987Z</time></trkpt><trkpt lat="42.2209448" lon="13.2648419"><ele>1129.0</ele><time>2026-05-02T16:15:14.988Z</time></trkpt><trkpt lat="42.2210264" lon="13.2648598"><ele>1129.0</ele><time>2026-05-02T16:15:15.988Z</time></trkpt><trkpt lat="42.2211035" lon="13.264925"><ele>1129.0</ele><time>2026-05-02T16:15:16.988Z</time></trkpt><trkpt lat="42.2211656" lon="13.2649891"><ele>1129.0</ele><time>2026-05-02T16:15:17.988Z</time></trkpt><trkpt lat="42.2212277" lon="13.2650672"><ele>1129.0</ele><time>2026-05-02T16:15:18.987Z</time></trkpt><trkpt lat="42.2212821" lon="13.2651326"><ele>1129.0</ele><time>2026-05-02T16:15:19.988Z</time></trkpt><trkpt lat="42.22137" lon="13.2652237"><ele>1129.0</ele><time>2026-05-02T16:15:21.987Z</time></trkpt><trkpt lat="42.2214585" lon="13.2652229"><ele>1128.0</ele><time>2026-05-02T16:15:23.988Z</time></trkpt><trkpt lat="42.2215407" lon="13.2651397"><ele>1127.0</ele><time>2026-05-02T16:15:25.987Z</time></trkpt><trkpt lat="42.2216388" lon="13.2650266"><ele>1126.0</ele><time>2026-05-02T16:15:27.988Z</time></trkpt><trkpt lat="42.2217013" lon="13.2649733"><ele>1125.0</ele><time>2026-05-02T16:15:28.988Z</time></trkpt><trkpt lat="42.2217648" lon="13.2649031"><ele>1124.0</ele><time>2026-05-02T16:15:29.988Z</time></trkpt><trkpt lat="42.2218259" lon="13.2648261"><ele>1121.3333333333335</ele><time>2026-05-02T16:15:30.987Z</time></trkpt><trkpt lat="42.2218814" lon="13.2647476"><ele>1118.6666666666667</ele><time>2026-05-02T16:15:31.988Z</time></trkpt><trkpt lat="42.2219384" lon="13.264676"><ele>1116.0</ele><time>2026-05-02T16:15:32.988Z</time></trkpt><trkpt lat="42.2220198" lon="13.2646229"><ele>1113.3333333333333</ele><time>2026-05-02T16:15:33.988Z</time></trkpt><trkpt lat="42.2220791" lon="13.2645831"><ele>1110.6666666666665</ele><time>2026-05-02T16:15:34.987Z</time></trkpt><trkpt lat="42.2221595" lon="13.2645436"><ele>1108.0</ele><time>2026-05-02T16:15:35.988Z</time></trkpt><trkpt lat="42.2222334" lon="13.2645011"><ele>1108.0</ele><time>2026-05-02T16:15:36.988Z</time></trkpt><trkpt lat="42.2222869" lon="13.264456"><ele>1108.0</ele><time>2026-05-02T16:15:37.987Z</time></trkpt><trkpt lat="42.222356" lon="13.2643908"><ele>1108.0</ele><time>2026-05-02T16:15:38.988Z</time></trkpt><trkpt lat="42.2224279" lon="13.2643157"><ele>1108.0</ele><time>2026-05-02T16:15:39.988Z</time></trkpt><trkpt lat="42.222478" lon="13.2642311"><ele>1108.0</ele><time>2026-05-02T16:15:40.988Z</time></trkpt><trkpt lat="42.2225367" lon="13.2641699"><ele>1108.0</ele><time>2026-05-02T16:15:41.988Z</time></trkpt><trkpt lat="42.2225969" lon="13.2641383"><ele>1110.0</ele><time>2026-05-02T16:15:42.988Z</time></trkpt><trkpt lat="42.2227124" lon="13.2640867"><ele>1112.0</ele><time>2026-05-02T16:15:44.988Z</time></trkpt><trkpt lat="42.2227955" lon="13.2640316"><ele>1114.0</ele><time>2026-05-02T16:15:45.988Z</time></trkpt><trkpt lat="42.2228733" lon="13.2639687"><ele>1116.0</ele><time>2026-05-02T16:15:46.987Z</time></trkpt><trkpt lat="42.2229557" lon="13.2639056"><ele>1118.0</ele><time>2026-05-02T16:15:47.988Z</time></trkpt><trkpt lat="42.2230394" lon="13.2638472"><ele>1118.0</ele><time>2026-05-02T16:15:48.988Z</time></trkpt><trkpt lat="42.2231284" lon="13.263784"><ele>1118.0</ele><time>2026-05-02T16:15:49.987Z</time></trkpt><trkpt lat="42.223214" lon="13.2636941"><ele>1118.0</ele><time>2026-05-02T16:15:50.988Z</time></trkpt><trkpt lat="42.2233002" lon="13.263656"><ele>1118.0</ele><time>2026-05-02T16:15:51.988Z</time></trkpt><trkpt lat="42.2233714" lon="13.2636072"><ele>1118.0</ele><time>2026-05-02T16:15:52.987Z</time></trkpt><trkpt lat="42.2234138" lon="13.2635418"><ele>1118.0</ele><time>2026-05-02T16:15:53.988Z</time></trkpt><trkpt lat="42.2234661" lon="13.2634749"><ele>1119.8</ele><time>2026-05-02T16:15:54.988Z</time></trkpt><trkpt lat="42.2235606" lon="13.2634261"><ele>1121.6</ele><time>2026-05-02T16:15:56.988Z</time></trkpt><trkpt lat="42.2236737" lon="13.2634248"><ele>1123.4</ele><time>2026-05-02T16:15:58.988Z</time></trkpt><trkpt lat="42.2237434" lon="13.2634318"><ele>1125.2</ele><time>2026-05-02T16:15:59.988Z</time></trkpt><trkpt lat="42.2238276" lon="13.2634384"><ele>1127.0</ele><time>2026-05-02T16:16:00.987Z</time></trkpt><trkpt lat="42.2239189" lon="13.2634475"><ele>1128.6666666666667</ele><time>2026-05-02T16:16:01.988Z</time></trkpt><trkpt lat="42.2240047" lon="13.263459"><ele>1130.3333333333335</ele><time>2026-05-02T16:16:02.988Z</time></trkpt><trkpt lat="42.2240973" lon="13.2634711"><ele>1132.0</ele><time>2026-05-02T16:16:03.988Z</time></trkpt><trkpt lat="42.2241824" lon="13.2634794"><ele>1133.6666666666667</ele><time>2026-05-02T16:16:04.988Z</time></trkpt><trkpt lat="42.2242614" lon="13.2634817"><ele>1135.3333333333333</ele><time>2026-05-02T16:16:05.988Z</time></trkpt><trkpt lat="42.2243418" lon="13.2634809"><ele>1137.0</ele><time>2026-05-02T16:16:06.988Z</time></trkpt><trkpt lat="42.2244257" lon="13.2634785"><ele>1137.0</ele><time>2026-05-02T16:16:07.988Z</time></trkpt><trkpt lat="42.2245155" lon="13.263485"><ele>1137.0</ele><time>2026-05-02T16:16:08.988Z</time></trkpt><trkpt lat="42.2246113" lon="13.2634948"><ele>1137.0</ele><time>2026-05-02T16:16:09.987Z</time></trkpt><trkpt lat="42.2247028" lon="13.2635056"><ele>1137.0</ele><time>2026-05-02T16:16:10.988Z</time></trkpt><trkpt lat="42.2247871" lon="13.2635021"><ele>1137.0</ele><time>2026-05-02T16:16:11.988Z</time></trkpt><trkpt lat="42.2248654" lon="13.2634839"><ele>1137.0</ele><time>2026-05-02T16:16:12.988Z</time></trkpt><trkpt lat="42.2249571" lon="13.2634457"><ele>1138.3333333333333</ele><time>2026-05-02T16:16:13.988Z</time></trkpt><trkpt lat="42.225055" lon="13.2634051"><ele>1139.6666666666667</ele><time>2026-05-02T16:16:14.987Z</time></trkpt><trkpt lat="42.2251366" lon="13.2633837"><ele>1141.0</ele><time>2026-05-02T16:16:15.988Z</time></trkpt><trkpt lat="42.2252047" lon="13.2633748"><ele>1142.3333333333335</ele><time>2026-05-02T16:16:16.988Z</time></trkpt><trkpt lat="42.2252729" lon="13.2633831"><ele>1143.6666666666667</ele><time>2026-05-02T16:16:17.988Z</time></trkpt><trkpt lat="42.2253406" lon="13.263391"><ele>1145.0</ele><time>2026-05-02T16:16:18.988Z</time></trkpt><trkpt lat="42.2254152" lon="13.2633883"><ele>1145.0</ele><time>2026-05-02T16:16:19.988Z</time></trkpt><trkpt lat="42.2254939" lon="13.2633781"><ele>1145.0</ele><time>2026-05-02T16:16:20.987Z</time></trkpt><trkpt lat="42.2255717" lon="13.2633487"><ele>1145.0</ele><time>2026-05-02T16:16:21.988Z</time></trkpt><trkpt lat="42.2256505" lon="13.263301"><ele>1145.0</ele><time>2026-05-02T16:16:22.987Z</time></trkpt><trkpt lat="42.2257289" lon="13.263256"><ele>1145.0</ele><time>2026-05-02T16:16:23.988Z</time></trkpt><trkpt lat="42.2258047" lon="13.2632239"><ele>1145.0</ele><time>2026-05-02T16:16:24.988Z</time></trkpt><trkpt lat="42.2258751" lon="13.263202"><ele>1146.0000000000002</ele><time>2026-05-02T16:16:25.987Z</time></trkpt><trkpt lat="42.2259436" lon="13.2631919"><ele>1147.0</ele><time>2026-05-02T16:16:26.988Z</time></trkpt><trkpt lat="42.2260124" lon="13.2631855"><ele>1148.0</ele><time>2026-05-02T16:16:27.988Z</time></trkpt><trkpt lat="42.2260877" lon="13.2631839"><ele>1149.0</ele><time>2026-05-02T16:16:28.987Z</time></trkpt><trkpt lat="42.2261645" lon="13.2631835"><ele>1150.0</ele><time>2026-05-02T16:16:29.988Z</time></trkpt><trkpt lat="42.2262374" lon="13.2631856"><ele>1151.0000000000002</ele><time>2026-05-02T16:16:30.988Z</time></trkpt><trkpt lat="42.2263031" lon="13.2631942"><ele>1152.0</ele><time>2026-05-02T16:16:31.988Z</time></trkpt><trkpt lat="42.2263652" lon="13.2632132"><ele>1152.0</ele><time>2026-05-02T16:16:32.988Z</time></trkpt><trkpt lat="42.2264309" lon="13.2632387"><ele>1152.0</ele><time>2026-05-02T16:16:33.988Z</time></trkpt><trkpt lat="42.2264958" lon="13.263271"><ele>1152.0</ele><time>2026-05-02T16:16:34.988Z</time></trkpt><trkpt lat="42.2265557" lon="13.2633184"><ele>1152.0</ele><time>2026-05-02T16:16:35.988Z</time></trkpt><trkpt lat="42.2266108" lon="13.263388"><ele>1152.0</ele><time>2026-05-02T16:16:36.987Z</time></trkpt><trkpt lat="42.2266622" lon="13.2634777"><ele>1152.0</ele><time>2026-05-02T16:16:37.988Z</time></trkpt><trkpt lat="42.2267046" lon="13.2635761"><ele>1152.0000000000002</ele><time>2026-05-02T16:16:38.988Z</time></trkpt><trkpt lat="42.2267334" lon="13.263665"><ele>1152.0</ele><time>2026-05-02T16:16:39.988Z</time></trkpt><trkpt lat="42.2267567" lon="13.2637453"><ele>1152.0</ele><time>2026-05-02T16:16:40.988Z</time></trkpt><trkpt lat="42.2267807" lon="13.2638279"><ele>1152.0</ele><time>2026-05-02T16:16:41.988Z</time></trkpt><trkpt lat="42.2268024" lon="13.2639114"><ele>1152.0</ele><time>2026-05-02T16:16:42.987Z</time></trkpt><trkpt lat="42.2268263" lon="13.2639912"><ele>1152.0000000000002</ele><time>2026-05-02T16:16:43.988Z</time></trkpt><trkpt lat="42.2268579" lon="13.2640706"><ele>1152.0</ele><time>2026-05-02T16:16:44.988Z</time></trkpt><trkpt lat="42.2268948" lon="13.2641427"><ele>1154.6</ele><time>2026-05-02T16:16:45.988Z</time></trkpt><trkpt lat="42.2269564" lon="13.2642422"><ele>1157.2</ele><time>2026-05-02T16:16:47.988Z</time></trkpt><trkpt lat="42.2270106" lon="13.2643645"><ele>1159.8</ele><time>2026-05-02T16:16:50.987Z</time></trkpt><trkpt lat="42.2270562" lon="13.2644834"><ele>1162.4</ele><time>2026-05-02T16:16:52.988Z</time></trkpt><trkpt lat="42.227132" lon="13.2645772"><ele>1165.0</ele><time>2026-05-02T16:16:54.988Z</time></trkpt><trkpt lat="42.2272188" lon="13.2646276"><ele>1164.5</ele><time>2026-05-02T16:16:56.988Z</time></trkpt><trkpt lat="42.2273477" lon="13.2646544"><ele>1164.0</ele><time>2026-05-02T16:16:58.988Z</time></trkpt><trkpt lat="42.2274195" lon="13.2646394"><ele>1163.5</ele><time>2026-05-02T16:16:59.988Z</time></trkpt><trkpt lat="42.2274943" lon="13.2646091"><ele>1163.0</ele><time>2026-05-02T16:17:00.988Z</time></trkpt><trkpt lat="42.2275707" lon="13.2645679"><ele>1162.5</ele><time>2026-05-02T16:17:01.988Z</time></trkpt><trkpt lat="42.2276461" lon="13.2645308"><ele>1162.0</ele><time>2026-05-02T16:17:02.988Z</time></trkpt><trkpt lat="42.2277187" lon="13.2645192"><ele>1162.0</ele><time>2026-05-02T16:17:03.987Z</time></trkpt><trkpt lat="42.2277938" lon="13.2645134"><ele>1162.0</ele><time>2026-05-02T16:17:04.988Z</time></trkpt><trkpt lat="42.2278688" lon="13.2645023"><ele>1162.0</ele><time>2026-05-02T16:17:05.988Z</time></trkpt><trkpt lat="42.2279401" lon="13.2644836"><ele>1162.0</ele><time>2026-05-02T16:17:06.988Z</time></trkpt><trkpt lat="42.2280098" lon="13.2644457"><ele>1162.0</ele><time>2026-05-02T16:17:07.988Z</time></trkpt><trkpt lat="42.2280813" lon="13.2643967"><ele>1162.0</ele><time>2026-05-02T16:17:08.988Z</time></trkpt><trkpt lat="42.2281577" lon="13.2643526"><ele>1162.1666666666665</ele><time>2026-05-02T16:17:09.987Z</time></trkpt><trkpt lat="42.2282299" lon="13.2643204"><ele>1162.3333333333333</ele><time>2026-05-02T16:17:10.988Z</time></trkpt><trkpt lat="42.2283412" lon="13.2642364"><ele>1162.5</ele><time>2026-05-02T16:17:12.988Z</time></trkpt><trkpt lat="42.2283936" lon="13.2641731"><ele>1162.6666666666667</ele><time>2026-05-02T16:17:13.988Z</time></trkpt><trkpt lat="42.2284387" lon="13.2640995"><ele>1162.8333333333335</ele><time>2026-05-02T16:17:14.988Z</time></trkpt><trkpt lat="42.2284776" lon="13.2640209"><ele>1163.0</ele><time>2026-05-02T16:17:15.988Z</time></trkpt><trkpt lat="42.2285273" lon="13.2639421"><ele>1163.0</ele><time>2026-05-02T16:17:16.988Z</time></trkpt><trkpt lat="42.2285877" lon="13.2638713"><ele>1163.0</ele><time>2026-05-02T16:17:17.987Z</time></trkpt><trkpt lat="42.2286516" lon="13.2638023"><ele>1163.0</ele><time>2026-05-02T16:17:18.988Z</time></trkpt><trkpt lat="42.2287123" lon="13.2637348"><ele>1163.0</ele><time>2026-05-02T16:17:19.988Z</time></trkpt><trkpt lat="42.228777" lon="13.2636675"><ele>1163.0</ele><time>2026-05-02T16:17:20.988Z</time></trkpt><trkpt lat="42.2288406" lon="13.2636005"><ele>1163.0</ele><time>2026-05-02T16:17:21.988Z</time></trkpt><trkpt lat="42.2289011" lon="13.2635374"><ele>1163.0</ele><time>2026-05-02T16:17:22.988Z</time></trkpt><trkpt lat="42.2289663" lon="13.2634658"><ele>1163.0</ele><time>2026-05-02T16:17:23.988Z</time></trkpt><trkpt lat="42.2290375" lon="13.2633895"><ele>1163.0</ele><time>2026-05-02T16:17:24.987Z</time></trkpt><trkpt lat="42.2291079" lon="13.2633167"><ele>1163.0</ele><time>2026-05-02T16:17:25.987Z</time></trkpt><trkpt lat="42.2291763" lon="13.2632545"><ele>1163.0</ele><time>2026-05-02T16:17:26.988Z</time></trkpt><trkpt lat="42.2292383" lon="13.2632065"><ele>1163.0</ele><time>2026-05-02T16:17:27.987Z</time></trkpt><trkpt lat="42.2292945" lon="13.2631456"><ele>1165.8333333333335</ele><time>2026-05-02T16:17:28.988Z</time></trkpt><trkpt lat="42.2293453" lon="13.2630844"><ele>1168.6666666666667</ele><time>2026-05-02T16:17:29.987Z</time></trkpt><trkpt lat="42.2294206" lon="13.2629596"><ele>1171.5</ele><time>2026-05-02T16:17:31.988Z</time></trkpt><trkpt lat="42.229441" lon="13.2628082"><ele>1174.3333333333333</ele><time>2026-05-02T16:17:33.987Z</time></trkpt><trkpt lat="42.2294295" lon="13.2627201"><ele>1177.1666666666665</ele><time>2026-05-02T16:17:34.988Z</time></trkpt><trkpt lat="42.2294056" lon="13.262629"><ele>1180.0</ele><time>2026-05-02T16:17:35.988Z</time></trkpt><trkpt lat="42.229371" lon="13.2625296"><ele>1180.0</ele><time>2026-05-02T16:17:36.988Z</time></trkpt><trkpt lat="42.229339" lon="13.2624325"><ele>1180.0</ele><time>2026-05-02T16:17:37.988Z</time></trkpt><trkpt lat="42.2293296" lon="13.2622787"><ele>1180.0</ele><time>2026-05-02T16:17:39.988Z</time></trkpt><trkpt lat="42.2293886" lon="13.2621774"><ele>1180.0</ele><time>2026-05-02T16:17:41.988Z</time></trkpt><trkpt lat="42.229478" lon="13.2620707"><ele>1180.0</ele><time>2026-05-02T16:17:43.988Z</time></trkpt><trkpt lat="42.2295334" lon="13.2619903"><ele>1179.6666666666665</ele><time>2026-05-02T16:17:44.988Z</time></trkpt><trkpt lat="42.2295781" lon="13.2618964"><ele>1179.3333333333333</ele><time>2026-05-02T16:17:45.988Z</time></trkpt><trkpt lat="42.2296175" lon="13.2618103"><ele>1179.0</ele><time>2026-05-02T16:17:46.987Z</time></trkpt><trkpt lat="42.22965" lon="13.2617177"><ele>1178.6666666666667</ele><time>2026-05-02T16:17:47.988Z</time></trkpt><trkpt lat="42.229681" lon="13.2616409"><ele>1178.3333333333335</ele><time>2026-05-02T16:17:48.988Z</time></trkpt><trkpt lat="42.2297102" lon="13.2615049"><ele>1178.0</ele><time>2026-05-02T16:17:50.988Z</time></trkpt><trkpt lat="42.2296755" lon="13.2613519"><ele>1177.2</ele><time>2026-05-02T16:17:52.988Z</time></trkpt><trkpt lat="42.2296645" lon="13.2612625"><ele>1176.4</ele><time>2026-05-02T16:17:53.988Z</time></trkpt><trkpt lat="42.2296682" lon="13.2610929"><ele>1175.6000000000001</ele><time>2026-05-02T16:17:55.988Z</time></trkpt><trkpt lat="42.2296824" lon="13.2610097"><ele>1174.8</ele><time>2026-05-02T16:17:56.988Z</time></trkpt><trkpt lat="42.2297289" lon="13.2608813"><ele>1174.0</ele><time>2026-05-02T16:17:58.988Z</time></trkpt><trkpt lat="42.2298388" lon="13.2608045"><ele>1178.6000000000001</ele><time>2026-05-02T16:18:00.987Z</time></trkpt><trkpt lat="42.2299619" lon="13.2607845"><ele>1183.2</ele><time>2026-05-02T16:18:02.988Z</time></trkpt><trkpt lat="42.2300774" lon="13.2608169"><ele>1187.8000000000002</ele><time>2026-05-02T16:18:04.988Z</time></trkpt><trkpt lat="42.2301387" lon="13.2608399"><ele>1192.4</ele><time>2026-05-02T16:18:05.988Z</time></trkpt><trkpt lat="42.2302013" lon="13.2608625"><ele>1197.0</ele><time>2026-05-02T16:18:06.988Z</time></trkpt><trkpt lat="42.230312" lon="13.2609101"><ele>1197.0</ele><time>2026-05-02T16:18:08.988Z</time></trkpt><trkpt lat="42.2304082" lon="13.2609581"><ele>1197.0</ele><time>2026-05-02T16:18:11.987Z</time></trkpt><trkpt lat="42.2305131" lon="13.2609301"><ele>1197.0</ele><time>2026-05-02T16:18:13.988Z</time></trkpt><trkpt lat="42.2305595" lon="13.2608708"><ele>1197.0</ele><time>2026-05-02T16:18:14.988Z</time></trkpt><trkpt lat="42.2306463" lon="13.2607411"><ele>1197.0</ele><time>2026-05-02T16:18:16.988Z</time></trkpt><trkpt lat="42.2306773" lon="13.2606599"><ele>1195.6</ele><time>2026-05-02T16:18:17.988Z</time></trkpt><trkpt lat="42.2307555" lon="13.2605449"><ele>1194.2</ele><time>2026-05-02T16:18:19.987Z</time></trkpt><trkpt lat="42.2308506" lon="13.260453"><ele>1192.8</ele><time>2026-05-02T16:18:21.988Z</time></trkpt><trkpt lat="42.2309138" lon="13.2604596"><ele>1191.4</ele><time>2026-05-02T16:18:22.988Z</time></trkpt><trkpt lat="42.2310229" lon="13.2604498"><ele>1190.0</ele><time>2026-05-02T16:18:24.988Z</time></trkpt><trkpt lat="42.2311451" lon="13.2604314"><ele>1190.0</ele><time>2026-05-02T16:18:26.988Z</time></trkpt><trkpt lat="42.2312414" lon="13.260408"><ele>1190.0</ele><time>2026-05-02T16:18:28.988Z</time></trkpt><trkpt lat="42.2313034" lon="13.2603917"><ele>1190.0</ele><time>2026-05-02T16:18:29.988Z</time></trkpt><trkpt lat="42.231425" lon="13.2604103"><ele>1190.0</ele><time>2026-05-02T16:18:31.988Z</time></trkpt><trkpt lat="42.2314905" lon="13.2604378"><ele>1190.0</ele><time>2026-05-02T16:18:32.988Z</time></trkpt><trkpt lat="42.2315547" lon="13.2604601"><ele>1190.0</ele><time>2026-05-02T16:18:33.987Z</time></trkpt><trkpt lat="42.231622" lon="13.2604771"><ele>1191.3333333333335</ele><time>2026-05-02T16:18:34.988Z</time></trkpt><trkpt lat="42.2316652" lon="13.2605458"><ele>1192.6666666666667</ele><time>2026-05-02T16:18:35.988Z</time></trkpt><trkpt lat="42.2317259" lon="13.2605855"><ele>1194.0</ele><time>2026-05-02T16:18:36.988Z</time></trkpt><trkpt lat="42.2317823" lon="13.2606238"><ele>1195.3333333333333</ele><time>2026-05-02T16:18:37.988Z</time></trkpt><trkpt lat="42.2318918" lon="13.2606911"><ele>1196.6666666666665</ele><time>2026-05-02T16:18:39.988Z</time></trkpt><trkpt lat="42.2319828" lon="13.260727"><ele>1198.0</ele><time>2026-05-02T16:18:40.987Z</time></trkpt><trkpt lat="42.2320613" lon="13.2607592"><ele>1198.8333333333333</ele><time>2026-05-02T16:18:41.988Z</time></trkpt><trkpt lat="42.2321299" lon="13.2607918"><ele>1199.6666666666665</ele><time>2026-05-02T16:18:42.988Z</time></trkpt><trkpt lat="42.232192" lon="13.2608463"><ele>1200.5</ele><time>2026-05-02T16:18:43.987Z</time></trkpt><trkpt lat="42.2322699" lon="13.2609017"><ele>1201.3333333333333</ele><time>2026-05-02T16:18:44.988Z</time></trkpt><trkpt lat="42.2323449" lon="13.2609722"><ele>1202.1666666666667</ele><time>2026-05-02T16:18:45.987Z</time></trkpt><trkpt lat="42.2324191" lon="13.2610341"><ele>1203.0</ele><time>2026-05-02T16:18:46.988Z</time></trkpt><trkpt lat="42.2324976" lon="13.261094"><ele>1203.0</ele><time>2026-05-02T16:18:47.988Z</time></trkpt><trkpt lat="42.2326058" lon="13.2611219"><ele>1203.0</ele><time>2026-05-02T16:18:48.988Z</time></trkpt><trkpt lat="42.2326763" lon="13.2611744"><ele>1203.0</ele><time>2026-05-02T16:18:49.987Z</time></trkpt><trkpt lat="42.2327646" lon="13.261217"><ele>1203.0</ele><time>2026-05-02T16:18:50.988Z</time></trkpt><trkpt lat="42.2328306" lon="13.2612811"><ele>1203.0</ele><time>2026-05-02T16:18:51.988Z</time></trkpt><trkpt lat="42.2329106" lon="13.2613786"><ele>1203.0</ele><time>2026-05-02T16:18:53.988Z</time></trkpt><trkpt lat="42.2329654" lon="13.2614275"><ele>1203.0</ele><time>2026-05-02T16:18:54.988Z</time></trkpt><trkpt lat="42.2330562" lon="13.261545"><ele>1203.0</ele><time>2026-05-02T16:18:56.988Z</time></trkpt><trkpt lat="42.2331307" lon="13.2616639"><ele>1203.0</ele><time>2026-05-02T16:18:58.988Z</time></trkpt><trkpt lat="42.2331934" lon="13.261706"><ele>1203.0</ele><time>2026-05-02T16:18:59.988Z</time></trkpt><trkpt lat="42.2332648" lon="13.2617519"><ele>1203.6</ele><time>2026-05-02T16:19:00.987Z</time></trkpt><trkpt lat="42.2333349" lon="13.2618081"><ele>1204.1999999999998</ele><time>2026-05-02T16:19:02.988Z</time></trkpt><trkpt lat="42.23342" lon="13.2618542"><ele>1204.8</ele><time>2026-05-02T16:19:05.987Z</time></trkpt><trkpt lat="42.2334974" lon="13.2618949"><ele>1205.3999999999999</ele><time>2026-05-02T16:19:07.988Z</time></trkpt><trkpt lat="42.2335874" lon="13.2619391"><ele>1206.0</ele><time>2026-05-02T16:19:09.988Z</time></trkpt><trkpt lat="42.2336674" lon="13.2620552"><ele>1206.0</ele><time>2026-05-02T16:19:11.988Z</time></trkpt><trkpt lat="42.2337732" lon="13.2621001"><ele>1206.0</ele><time>2026-05-02T16:19:13.988Z</time></trkpt><trkpt lat="42.2338721" lon="13.2621383"><ele>1206.0</ele><time>2026-05-02T16:19:15.988Z</time></trkpt><trkpt lat="42.2340593" lon="13.2620688"><ele>1206.0</ele><time>2026-05-02T16:19:19.988Z</time></trkpt><trkpt lat="42.2341642" lon="13.2620107"><ele>1205.0</ele><time>2026-05-02T16:19:21.988Z</time></trkpt><trkpt lat="42.2342848" lon="13.2619896"><ele>1204.0</ele><time>2026-05-02T16:19:23.987Z</time></trkpt><trkpt lat="42.2343653" lon="13.26195"><ele>1203.0</ele><time>2026-05-02T16:19:24.988Z</time></trkpt><trkpt lat="42.2344453" lon="13.2619337"><ele>1202.0</ele><time>2026-05-02T16:19:25.988Z</time></trkpt><trkpt lat="42.2345386" lon="13.2618986"><ele>1201.0</ele><time>2026-05-02T16:19:26.988Z</time></trkpt><trkpt lat="42.2346108" lon="13.2618562"><ele>1201.0</ele><time>2026-05-02T16:19:27.987Z</time></trkpt><trkpt lat="42.2346805" lon="13.2618071"><ele>1201.0</ele><time>2026-05-02T16:19:28.988Z</time></trkpt><trkpt lat="42.2347532" lon="13.2617664"><ele>1201.0</ele><time>2026-05-02T16:19:29.988Z</time></trkpt><trkpt lat="42.234819" lon="13.2617176"><ele>1201.0</ele><time>2026-05-02T16:19:30.988Z</time></trkpt><trkpt lat="42.234895" lon="13.2616796"><ele>1201.0</ele><time>2026-05-02T16:19:31.988Z</time></trkpt><trkpt lat="42.2349703" lon="13.2616437"><ele>1201.0</ele><time>2026-05-02T16:19:32.988Z</time></trkpt><trkpt lat="42.235043" lon="13.2616059"><ele>1201.6666666666665</ele><time>2026-05-02T16:19:33.988Z</time></trkpt><trkpt lat="42.2351151" lon="13.2615726"><ele>1202.3333333333333</ele><time>2026-05-02T16:19:34.988Z</time></trkpt><trkpt lat="42.2351783" lon="13.2615621"><ele>1203.0</ele><time>2026-05-02T16:19:35.988Z</time></trkpt><trkpt lat="42.2352936" lon="13.2615282"><ele>1203.6666666666667</ele><time>2026-05-02T16:19:37.988Z</time></trkpt><trkpt lat="42.2353756" lon="13.2614922"><ele>1204.3333333333335</ele><time>2026-05-02T16:19:39.988Z</time></trkpt><trkpt lat="42.2354429" lon="13.2613963"><ele>1205.0</ele><time>2026-05-02T16:19:41.988Z</time></trkpt><trkpt lat="42.2355093" lon="13.2613403"><ele>1205.0</ele><time>2026-05-02T16:19:43.987Z</time></trkpt><trkpt lat="42.2355845" lon="13.2612547"><ele>1205.0</ele><time>2026-05-02T16:19:45.988Z</time></trkpt><trkpt lat="42.2356401" lon="13.2612059"><ele>1205.0</ele><time>2026-05-02T16:19:46.988Z</time></trkpt><trkpt lat="42.2356952" lon="13.2611456"><ele>1205.0</ele><time>2026-05-02T16:19:47.988Z</time></trkpt><trkpt lat="42.2357543" lon="13.261093"><ele>1205.0</ele><time>2026-05-02T16:19:48.988Z</time></trkpt><trkpt lat="42.2358238" lon="13.2610471"><ele>1205.0</ele><time>2026-05-02T16:19:49.988Z</time></trkpt><trkpt lat="42.2358899" lon="13.2610063"><ele>1207.5714285714287</ele><time>2026-05-02T16:19:50.988Z</time></trkpt><trkpt lat="42.2359575" lon="13.2609805"><ele>1210.142857142857</ele><time>2026-05-02T16:19:51.988Z</time></trkpt><trkpt lat="42.2360239" lon="13.2609564"><ele>1212.7142857142858</ele><time>2026-05-02T16:19:52.988Z</time></trkpt><trkpt lat="42.2360907" lon="13.2609403"><ele>1215.2857142857142</ele><time>2026-05-02T16:19:53.988Z</time></trkpt><trkpt lat="42.2361588" lon="13.2609253"><ele>1217.857142857143</ele><time>2026-05-02T16:19:54.988Z</time></trkpt><trkpt lat="42.2362251" lon="13.2608994"><ele>1220.4285714285713</ele><time>2026-05-02T16:19:55.988Z</time></trkpt><trkpt lat="42.2362983" lon="13.2608769"><ele>1223.0</ele><time>2026-05-02T16:19:56.988Z</time></trkpt><trkpt lat="42.2363714" lon="13.2608533"><ele>1223.0</ele><time>2026-05-02T16:19:57.988Z</time></trkpt><trkpt lat="42.236441" lon="13.2608364"><ele>1223.0</ele><time>2026-05-02T16:19:58.987Z</time></trkpt><trkpt lat="42.236509" lon="13.2608178"><ele>1223.0</ele><time>2026-05-02T16:19:59.988Z</time></trkpt><trkpt lat="42.2365739" lon="13.2607918"><ele>1223.0</ele><time>2026-05-02T16:20:00.988Z</time></trkpt><trkpt lat="42.236637" lon="13.2607545"><ele>1223.0</ele><time>2026-05-02T16:20:01.988Z</time></trkpt><trkpt lat="42.2367039" lon="13.260702"><ele>1223.0</ele><time>2026-05-02T16:20:02.988Z</time></trkpt><trkpt lat="42.2367706" lon="13.2606484"><ele>1223.0</ele><time>2026-05-02T16:20:03.988Z</time></trkpt><trkpt lat="42.2368362" lon="13.2606098"><ele>1223.5</ele><time>2026-05-02T16:20:04.988Z</time></trkpt><trkpt lat="42.2369015" lon="13.2605822"><ele>1224.0</ele><time>2026-05-02T16:20:05.987Z</time></trkpt><trkpt lat="42.2370291" lon="13.2605726"><ele>1224.5</ele><time>2026-05-02T16:20:07.988Z</time></trkpt><trkpt lat="42.2370959" lon="13.2605841"><ele>1225.0</ele><time>2026-05-02T16:20:08.988Z</time></trkpt><trkpt lat="42.2371637" lon="13.2606049"><ele>1225.5</ele><time>2026-05-02T16:20:09.988Z</time></trkpt><trkpt lat="42.2372336" lon="13.2606315"><ele>1226.0</ele><time>2026-05-02T16:20:10.987Z</time></trkpt><trkpt lat="42.2373051" lon="13.2606593"><ele>1226.0</ele><time>2026-05-02T16:20:11.988Z</time></trkpt><trkpt lat="42.2373766" lon="13.2606773"><ele>1226.0</ele><time>2026-05-02T16:20:12.988Z</time></trkpt><trkpt lat="42.2374443" lon="13.2606719"><ele>1226.0</ele><time>2026-05-02T16:20:13.988Z</time></trkpt><trkpt lat="42.237512" lon="13.2606542"><ele>1226.0</ele><time>2026-05-02T16:20:14.987Z</time></trkpt><trkpt lat="42.2375805" lon="13.2606387"><ele>1226.0</ele><time>2026-05-02T16:20:15.988Z</time></trkpt><trkpt lat="42.2376523" lon="13.2606342"><ele>1226.0</ele><time>2026-05-02T16:20:16.988Z</time></trkpt><trkpt lat="42.2377239" lon="13.2606348"><ele>1226.0</ele><time>2026-05-02T16:20:17.988Z</time></trkpt><trkpt lat="42.237789" lon="13.2606296"><ele>1225.2857142857142</ele><time>2026-05-02T16:20:18.988Z</time></trkpt><trkpt lat="42.2378505" lon="13.2606082"><ele>1224.5714285714284</ele><time>2026-05-02T16:20:19.988Z</time></trkpt><trkpt lat="42.2379106" lon="13.2605769"><ele>1223.8571428571427</ele><time>2026-05-02T16:20:20.988Z</time></trkpt><trkpt lat="42.2379713" lon="13.2605392"><ele>1223.142857142857</ele><time>2026-05-02T16:20:21.988Z</time></trkpt><trkpt lat="42.2380323" lon="13.2605026"><ele>1222.4285714285713</ele><time>2026-05-02T16:20:22.988Z</time></trkpt><trkpt lat="42.2380992" lon="13.260478"><ele>1221.7142857142856</ele><time>2026-05-02T16:20:23.988Z</time></trkpt><trkpt lat="42.2381745" lon="13.2604706"><ele>1221.0</ele><time>2026-05-02T16:20:24.987Z</time></trkpt><trkpt lat="42.2382575" lon="13.2604662"><ele>1220.9999999999998</ele><time>2026-05-02T16:20:25.988Z</time></trkpt><trkpt lat="42.2383422" lon="13.2604558"><ele>1221.0</ele><time>2026-05-02T16:20:26.988Z</time></trkpt><trkpt lat="42.238416" lon="13.2604344"><ele>1221.0</ele><time>2026-05-02T16:20:27.988Z</time></trkpt><trkpt lat="42.2384804" lon="13.2604"><ele>1221.0</ele><time>2026-05-02T16:20:28.988Z</time></trkpt><trkpt lat="42.2385401" lon="13.2603528"><ele>1221.0</ele><time>2026-05-02T16:20:29.988Z</time></trkpt><trkpt lat="42.2385976" lon="13.2602975"><ele>1220.9999999999998</ele><time>2026-05-02T16:20:30.988Z</time></trkpt><trkpt lat="42.2386543" lon="13.2602322"><ele>1221.0</ele><time>2026-05-02T16:20:31.988Z</time></trkpt><trkpt lat="42.2387162" lon="13.2601795"><ele>1221.0</ele><time>2026-05-02T16:20:32.988Z</time></trkpt><trkpt lat="42.2387825" lon="13.2601568"><ele>1221.0</ele><time>2026-05-02T16:20:33.988Z</time></trkpt><trkpt lat="42.2388529" lon="13.2601564"><ele>1221.0</ele><time>2026-05-02T16:20:34.987Z</time></trkpt><trkpt lat="42.2389172" lon="13.2601776"><ele>1221.0</ele><time>2026-05-02T16:20:35.988Z</time></trkpt><trkpt lat="42.2390256" lon="13.2602535"><ele>1221.0</ele><time>2026-05-02T16:20:37.988Z</time></trkpt><trkpt lat="42.2390812" lon="13.2603185"><ele>1221.0</ele><time>2026-05-02T16:20:38.988Z</time></trkpt><trkpt lat="42.2391411" lon="13.2603805"><ele>1220.1666666666667</ele><time>2026-05-02T16:20:39.988Z</time></trkpt><trkpt lat="42.2391982" lon="13.2604371"><ele>1219.3333333333333</ele><time>2026-05-02T16:20:40.988Z</time></trkpt><trkpt lat="42.2392687" lon="13.2604945"><ele>1218.5</ele><time>2026-05-02T16:20:41.988Z</time></trkpt><trkpt lat="42.2393333" lon="13.260533"><ele>1217.6666666666665</ele><time>2026-05-02T16:20:42.987Z</time></trkpt><trkpt lat="42.2393965" lon="13.2605798"><ele>1216.8333333333333</ele><time>2026-05-02T16:20:43.988Z</time></trkpt><trkpt lat="42.2394672" lon="13.2606329"><ele>1216.0</ele><time>2026-05-02T16:20:44.988Z</time></trkpt><trkpt lat="42.2395375" lon="13.2606964"><ele>1217.857142857143</ele><time>2026-05-02T16:20:45.988Z</time></trkpt><trkpt lat="42.2396134" lon="13.2607492"><ele>1219.7142857142858</ele><time>2026-05-02T16:20:46.988Z</time></trkpt><trkpt lat="42.2396756" lon="13.2607768"><ele>1221.5714285714287</ele><time>2026-05-02T16:20:47.988Z</time></trkpt><trkpt lat="42.2397413" lon="13.260777"><ele>1223.4285714285716</ele><time>2026-05-02T16:20:48.987Z</time></trkpt><trkpt lat="42.2398106" lon="13.260784"><ele>1225.2857142857142</ele><time>2026-05-02T16:20:49.988Z</time></trkpt><trkpt lat="42.2398807" lon="13.2607892"><ele>1227.1428571428573</ele><time>2026-05-02T16:20:50.988Z</time></trkpt><trkpt lat="42.2399534" lon="13.2607755"><ele>1229.0</ele><time>2026-05-02T16:20:51.988Z</time></trkpt><trkpt lat="42.2400476" lon="13.2607628"><ele>1229.0</ele><time>2026-05-02T16:20:52.988Z</time></trkpt><trkpt lat="42.2401349" lon="13.2607106"><ele>1229.0</ele><time>2026-05-02T16:20:53.987Z</time></trkpt><trkpt lat="42.2402194" lon="13.2606792"><ele>1229.0</ele><time>2026-05-02T16:20:54.988Z</time></trkpt><trkpt lat="42.2402938" lon="13.2606426"><ele>1229.0</ele><time>2026-05-02T16:20:55.988Z</time></trkpt><trkpt lat="42.2403846" lon="13.2606354"><ele>1229.0</ele><time>2026-05-02T16:20:56.988Z</time></trkpt><trkpt lat="42.2404666" lon="13.2606083"><ele>1229.0</ele><time>2026-05-02T16:20:57.988Z</time></trkpt><trkpt lat="42.2405381" lon="13.2605875"><ele>1227.3333333333335</ele><time>2026-05-02T16:20:58.988Z</time></trkpt><trkpt lat="42.2406106" lon="13.2605706"><ele>1225.6666666666667</ele><time>2026-05-02T16:20:59.988Z</time></trkpt><trkpt lat="42.240682" lon="13.2605626"><ele>1224.0</ele><time>2026-05-02T16:21:00.988Z</time></trkpt><trkpt lat="42.2407465" lon="13.2605498"><ele>1222.3333333333333</ele><time>2026-05-02T16:21:01.988Z</time></trkpt><trkpt lat="42.2408575" lon="13.2604994"><ele>1220.6666666666665</ele><time>2026-05-02T16:21:03.988Z</time></trkpt><trkpt lat="42.2409445" lon="13.2604479"><ele>1219.0</ele><time>2026-05-02T16:21:05.988Z</time></trkpt><trkpt lat="42.2410539" lon="13.2603946"><ele>1219.0</ele><time>2026-05-02T16:21:07.988Z</time></trkpt><trkpt lat="42.2411483" lon="13.2603384"><ele>1219.0</ele><time>2026-05-02T16:21:09.987Z</time></trkpt><trkpt lat="42.2412521" lon="13.2602568"><ele>1219.0</ele><time>2026-05-02T16:21:11.988Z</time></trkpt><trkpt lat="42.2413334" lon="13.2601425"><ele>1219.0</ele><time>2026-05-02T16:21:13.988Z</time></trkpt><trkpt lat="42.2414158" lon="13.2600528"><ele>1219.0</ele><time>2026-05-02T16:21:15.987Z</time></trkpt><trkpt lat="42.241525" lon="13.2600275"><ele>1221.3333333333333</ele><time>2026-05-02T16:21:17.988Z</time></trkpt><trkpt lat="42.2416405" lon="13.2600349"><ele>1223.6666666666665</ele><time>2026-05-02T16:21:19.988Z</time></trkpt><trkpt lat="42.2417169" lon="13.2600434"><ele>1226.0</ele><time>2026-05-02T16:21:20.988Z</time></trkpt><trkpt lat="42.2417815" lon="13.260042"><ele>1228.3333333333333</ele><time>2026-05-02T16:21:21.987Z</time></trkpt><trkpt lat="42.2419021" lon="13.2600317"><ele>1230.6666666666667</ele><time>2026-05-02T16:21:23.987Z</time></trkpt><trkpt lat="42.2419675" lon="13.2599956"><ele>1233.0</ele><time>2026-05-02T16:21:24.988Z</time></trkpt><trkpt lat="42.2420498" lon="13.2599233"><ele>1233.0</ele><time>2026-05-02T16:21:26.988Z</time></trkpt><trkpt lat="42.2421115" lon="13.2598944"><ele>1233.0</ele><time>2026-05-02T16:21:27.988Z</time></trkpt><trkpt lat="42.2421826" lon="13.2598659"><ele>1233.0</ele><time>2026-05-02T16:21:28.988Z</time></trkpt><trkpt lat="42.2422635" lon="13.2598395"><ele>1233.0</ele><time>2026-05-02T16:21:29.988Z</time></trkpt><trkpt lat="42.2423452" lon="13.259812"><ele>1233.0</ele><time>2026-05-02T16:21:30.988Z</time></trkpt><trkpt lat="42.2424182" lon="13.259784"><ele>1233.0</ele><time>2026-05-02T16:21:31.988Z</time></trkpt><trkpt lat="42.2424979" lon="13.2597532"><ele>1232.0</ele><time>2026-05-02T16:21:32.988Z</time></trkpt><trkpt lat="42.2426124" lon="13.2597254"><ele>1231.0</ele><time>2026-05-02T16:21:34.988Z</time></trkpt><trkpt lat="42.2426891" lon="13.2597095"><ele>1230.0</ele><time>2026-05-02T16:21:35.987Z</time></trkpt><trkpt lat="42.2427622" lon="13.2597083"><ele>1229.0</ele><time>2026-05-02T16:21:36.987Z</time></trkpt><trkpt lat="42.242833" lon="13.2597018"><ele>1228.0</ele><time>2026-05-02T16:21:37.988Z</time></trkpt><trkpt lat="42.242908" lon="13.2596816"><ele>1227.0</ele><time>2026-05-02T16:21:38.988Z</time></trkpt><trkpt lat="42.2429773" lon="13.2596552"><ele>1227.0</ele><time>2026-05-02T16:21:39.988Z</time></trkpt><trkpt lat="42.2430482" lon="13.259599"><ele>1227.0</ele><time>2026-05-02T16:21:40.988Z</time></trkpt><trkpt lat="42.2430988" lon="13.259541"><ele>1227.0</ele><time>2026-05-02T16:21:41.988Z</time></trkpt><trkpt lat="42.2431511" lon="13.2594918"><ele>1227.0</ele><time>2026-05-02T16:21:42.988Z</time></trkpt><trkpt lat="42.2432161" lon="13.259435"><ele>1227.0</ele><time>2026-05-02T16:21:43.987Z</time></trkpt><trkpt lat="42.2432824" lon="13.2593784"><ele>1227.0</ele><time>2026-05-02T16:21:44.988Z</time></trkpt><trkpt lat="42.2433404" lon="13.2593313"><ele>1227.0</ele><time>2026-05-02T16:21:45.988Z</time></trkpt><trkpt lat="42.2433949" lon="13.2592848"><ele>1229.8333333333333</ele><time>2026-05-02T16:21:46.988Z</time></trkpt><trkpt lat="42.2434497" lon="13.2592214"><ele>1232.6666666666667</ele><time>2026-05-02T16:21:47.988Z</time></trkpt><trkpt lat="42.2435087" lon="13.2591632"><ele>1235.5</ele><time>2026-05-02T16:21:48.988Z</time></trkpt><trkpt lat="42.2435927" lon="13.2591229"><ele>1238.3333333333335</ele><time>2026-05-02T16:21:49.988Z</time></trkpt><trkpt lat="42.2436799" lon="13.2590867"><ele>1241.1666666666667</ele><time>2026-05-02T16:21:50.988Z</time></trkpt><trkpt lat="42.2437625" lon="13.2590477"><ele>1244.0</ele><time>2026-05-02T16:21:51.988Z</time></trkpt><trkpt lat="42.2438342" lon="13.2589988"><ele>1245.1666666666667</ele><time>2026-05-02T16:21:52.988Z</time></trkpt><trkpt lat="42.2438975" lon="13.2589301"><ele>1246.3333333333335</ele><time>2026-05-02T16:21:53.988Z</time></trkpt><trkpt lat="42.2439586" lon="13.2588623"><ele>1247.5</ele><time>2026-05-02T16:21:54.987Z</time></trkpt><trkpt lat="42.2440079" lon="13.2587898"><ele>1248.6666666666667</ele><time>2026-05-02T16:21:55.987Z</time></trkpt><trkpt lat="42.2440496" lon="13.258717"><ele>1249.8333333333333</ele><time>2026-05-02T16:21:56.988Z</time></trkpt><trkpt lat="42.2441409" lon="13.2586198"><ele>1251.0</ele><time>2026-05-02T16:21:58.987Z</time></trkpt><trkpt lat="42.2442084" lon="13.2585887"><ele>1251.0</ele><time>2026-05-02T16:21:59.988Z</time></trkpt><trkpt lat="42.244282" lon="13.2585642"><ele>1251.0</ele><time>2026-05-02T16:22:00.988Z</time></trkpt><trkpt lat="42.2443598" lon="13.2585437"><ele>1251.0</ele><time>2026-05-02T16:22:01.988Z</time></trkpt><trkpt lat="42.2444431" lon="13.2585322"><ele>1251.0</ele><time>2026-05-02T16:22:02.988Z</time></trkpt><trkpt lat="42.2445262" lon="13.2585513"><ele>1251.0</ele><time>2026-05-02T16:22:03.987Z</time></trkpt><trkpt lat="42.2446045" lon="13.2585772"><ele>1251.0</ele><time>2026-05-02T16:22:04.988Z</time></trkpt><trkpt lat="42.2446795" lon="13.2586247"><ele>1251.0</ele><time>2026-05-02T16:22:05.988Z</time></trkpt><trkpt lat="42.2447499" lon="13.2586775"><ele>1251.0</ele><time>2026-05-02T16:22:06.988Z</time></trkpt><trkpt lat="42.2448173" lon="13.2587327"><ele>1251.0</ele><time>2026-05-02T16:22:07.988Z</time></trkpt><trkpt lat="42.2448858" lon="13.2587807"><ele>1251.0</ele><time>2026-05-02T16:22:08.988Z</time></trkpt><trkpt lat="42.2449513" lon="13.2588346"><ele>1251.0</ele><time>2026-05-02T16:22:09.987Z</time></trkpt><trkpt lat="42.2450105" lon="13.258901"><ele>1251.0</ele><time>2026-05-02T16:22:10.988Z</time></trkpt><trkpt lat="42.2450772" lon="13.2589709"><ele>1251.6666666666667</ele><time>2026-05-02T16:22:11.988Z</time></trkpt><trkpt lat="42.2451393" lon="13.2590376"><ele>1252.3333333333333</ele><time>2026-05-02T16:22:12.988Z</time></trkpt><trkpt lat="42.2452001" lon="13.259104"><ele>1253.0</ele><time>2026-05-02T16:22:13.988Z</time></trkpt><trkpt lat="42.2452636" lon="13.2591692"><ele>1253.6666666666665</ele><time>2026-05-02T16:22:14.988Z</time></trkpt><trkpt lat="42.2453367" lon="13.2591984"><ele>1254.3333333333333</ele><time>2026-05-02T16:22:15.988Z</time></trkpt><trkpt lat="42.2454257" lon="13.2592197"><ele>1255.0</ele><time>2026-05-02T16:22:16.988Z</time></trkpt><trkpt lat="42.2455058" lon="13.2592458"><ele>1255.0</ele><time>2026-05-02T16:22:17.988Z</time></trkpt><trkpt lat="42.245584" lon="13.2592742"><ele>1255.0</ele><time>2026-05-02T16:22:18.988Z</time></trkpt><trkpt lat="42.2456638" lon="13.2593036"><ele>1255.0</ele><time>2026-05-02T16:22:19.988Z</time></trkpt><trkpt lat="42.2457428" lon="13.259328"><ele>1255.0</ele><time>2026-05-02T16:22:20.988Z</time></trkpt><trkpt lat="42.2458161" lon="13.2593502"><ele>1255.0</ele><time>2026-05-02T16:22:21.988Z</time></trkpt><trkpt lat="42.2458943" lon="13.2593776"><ele>1255.0</ele><time>2026-05-02T16:22:22.988Z</time></trkpt><trkpt lat="42.2459618" lon="13.2594177"><ele>1254.8</ele><time>2026-05-02T16:22:23.987Z</time></trkpt><trkpt lat="42.2460309" lon="13.2594516"><ele>1254.6</ele><time>2026-05-02T16:22:24.988Z</time></trkpt><trkpt lat="42.2460963" lon="13.2594845"><ele>1254.4</ele><time>2026-05-02T16:22:25.988Z</time></trkpt><trkpt lat="42.2461879" lon="13.2595864"><ele>1254.2</ele><time>2026-05-02T16:22:27.987Z</time></trkpt><trkpt lat="42.2462254" lon="13.2597362"><ele>1254.0</ele><time>2026-05-02T16:22:29.988Z</time></trkpt><trkpt lat="42.2462167" lon="13.2598893"><ele>1257.0</ele><time>2026-05-02T16:22:31.988Z</time></trkpt><trkpt lat="42.2462212" lon="13.2600203"><ele>1260.0</ele><time>2026-05-02T16:22:33.988Z</time></trkpt><trkpt lat="42.2462711" lon="13.2601054"><ele>1263.0</ele><time>2026-05-02T16:22:35.988Z</time></trkpt><trkpt lat="42.2463658" lon="13.2601336"><ele>1266.0</ele><time>2026-05-02T16:22:37.988Z</time></trkpt><trkpt lat="42.2464312" lon="13.2601341"><ele>1269.0</ele><time>2026-05-02T16:22:38.988Z</time></trkpt><trkpt lat="42.2465047" lon="13.2601364"><ele>1272.0</ele><time>2026-05-02T16:22:39.988Z</time></trkpt><trkpt lat="42.2465782" lon="13.2601356"><ele>1271.1666666666667</ele><time>2026-05-02T16:22:40.988Z</time></trkpt><trkpt lat="42.2466454" lon="13.2601053"><ele>1270.3333333333333</ele><time>2026-05-02T16:22:41.987Z</time></trkpt><trkpt lat="42.2467119" lon="13.2600573"><ele>1269.5</ele><time>2026-05-02T16:22:42.988Z</time></trkpt><trkpt lat="42.2467724" lon="13.2600058"><ele>1268.6666666666665</ele><time>2026-05-02T16:22:43.988Z</time></trkpt><trkpt lat="42.2468237" lon="13.2599406"><ele>1267.8333333333333</ele><time>2026-05-02T16:22:44.988Z</time></trkpt><trkpt lat="42.246863" lon="13.2598585"><ele>1267.0</ele><time>2026-05-02T16:22:45.987Z</time></trkpt><trkpt lat="42.2469322" lon="13.2597341"><ele>1267.0</ele><time>2026-05-02T16:22:47.988Z</time></trkpt><trkpt lat="42.2470368" lon="13.2597163"><ele>1267.0</ele><time>2026-05-02T16:22:49.987Z</time></trkpt><trkpt lat="42.2471022" lon="13.2598094"><ele>1267.0</ele><time>2026-05-02T16:22:51.988Z</time></trkpt><trkpt lat="42.2471083" lon="13.2599512"><ele>1267.0</ele><time>2026-05-02T16:22:53.988Z</time></trkpt><trkpt lat="42.2470759" lon="13.2601002"><ele>1267.0</ele><time>2026-05-02T16:22:55.987Z</time></trkpt><trkpt lat="42.2470392" lon="13.260244"><ele>1268.8333333333333</ele><time>2026-05-02T16:22:57.988Z</time></trkpt><trkpt lat="42.2471068" lon="13.2603263"><ele>1270.6666666666665</ele><time>2026-05-02T16:23:00.988Z</time></trkpt><trkpt lat="42.247173" lon="13.2603286"><ele>1272.5</ele><time>2026-05-02T16:23:02.987Z</time></trkpt><trkpt lat="42.2472394" lon="13.2602763"><ele>1274.3333333333333</ele><time>2026-05-02T16:23:05.988Z</time></trkpt><trkpt lat="42.2472733" lon="13.2601915"><ele>1276.1666666666667</ele><time>2026-05-02T16:23:06.988Z</time></trkpt><trkpt lat="42.2473062" lon="13.260096"><ele>1278.0</ele><time>2026-05-02T16:23:07.988Z</time></trkpt><trkpt lat="42.2473282" lon="13.2599975"><ele>1279.3333333333333</ele><time>2026-05-02T16:23:08.988Z</time></trkpt><trkpt lat="42.2473448" lon="13.2598971"><ele>1280.6666666666667</ele><time>2026-05-02T16:23:09.987Z</time></trkpt><trkpt lat="42.2473637" lon="13.2598002"><ele>1282.0</ele><time>2026-05-02T16:23:10.988Z</time></trkpt><trkpt lat="42.247388" lon="13.2597142"><ele>1283.3333333333335</ele><time>2026-05-02T16:23:11.988Z</time></trkpt><trkpt lat="42.2474158" lon="13.2596337"><ele>1284.6666666666667</ele><time>2026-05-02T16:23:12.988Z</time></trkpt><trkpt lat="42.2474465" lon="13.2595585"><ele>1286.0</ele><time>2026-05-02T16:23:13.988Z</time></trkpt><trkpt lat="42.2475273" lon="13.259438"><ele>1286.0</ele><time>2026-05-02T16:23:15.988Z</time></trkpt><trkpt lat="42.2475851" lon="13.2593931"><ele>1286.0</ele><time>2026-05-02T16:23:16.988Z</time></trkpt><trkpt lat="42.2476435" lon="13.2593512"><ele>1286.0</ele><time>2026-05-02T16:23:17.987Z</time></trkpt><trkpt lat="42.2477213" lon="13.2592278"><ele>1286.0</ele><time>2026-05-02T16:23:19.988Z</time></trkpt><trkpt lat="42.2477683" lon="13.2590832"><ele>1286.0</ele><time>2026-05-02T16:23:21.988Z</time></trkpt><trkpt lat="42.2478155" lon="13.2590208"><ele>1286.0</ele><time>2026-05-02T16:23:22.988Z</time></trkpt><trkpt lat="42.247884" lon="13.2589742"><ele>1284.0</ele><time>2026-05-02T16:23:23.988Z</time></trkpt><trkpt lat="42.2479553" lon="13.2589267"><ele>1282.0</ele><time>2026-05-02T16:23:24.988Z</time></trkpt><trkpt lat="42.2480138" lon="13.2588617"><ele>1280.0</ele><time>2026-05-02T16:23:25.988Z</time></trkpt><trkpt lat="42.248056" lon="13.2587761"><ele>1278.0</ele><time>2026-05-02T16:23:26.988Z</time></trkpt><trkpt lat="42.2480873" lon="13.2586794"><ele>1276.0</ele><time>2026-05-02T16:23:27.988Z</time></trkpt><trkpt lat="42.2481204" lon="13.258577"><ele>1274.0</ele><time>2026-05-02T16:23:28.988Z</time></trkpt><trkpt lat="42.2481566" lon="13.2584724"><ele>1275.6666666666667</ele><time>2026-05-02T16:23:29.988Z</time></trkpt><trkpt lat="42.2481884" lon="13.2583671"><ele>1277.3333333333335</ele><time>2026-05-02T16:23:30.988Z</time></trkpt><trkpt lat="42.2482199" lon="13.2582728"><ele>1279.0</ele><time>2026-05-02T16:23:31.988Z</time></trkpt><trkpt lat="42.2482621" lon="13.2581854"><ele>1280.6666666666667</ele><time>2026-05-02T16:23:32.988Z</time></trkpt><trkpt lat="42.2483191" lon="13.258099"><ele>1282.3333333333333</ele><time>2026-05-02T16:23:33.988Z</time></trkpt><trkpt lat="42.2483824" lon="13.2580106"><ele>1284.0</ele><time>2026-05-02T16:23:34.988Z</time></trkpt><trkpt lat="42.248437" lon="13.2579184"><ele>1284.0</ele><time>2026-05-02T16:23:35.988Z</time></trkpt><trkpt lat="42.2484746" lon="13.2578166"><ele>1284.0</ele><time>2026-05-02T16:23:36.988Z</time></trkpt><trkpt lat="42.2485045" lon="13.2577063"><ele>1284.0</ele><time>2026-05-02T16:23:37.988Z</time></trkpt><trkpt lat="42.2485362" lon="13.2575918"><ele>1284.0</ele><time>2026-05-02T16:23:38.988Z</time></trkpt><trkpt lat="42.2485823" lon="13.2574809"><ele>1284.0</ele><time>2026-05-02T16:23:39.988Z</time></trkpt><trkpt lat="42.2486366" lon="13.2573745"><ele>1285.1666666666667</ele><time>2026-05-02T16:23:40.988Z</time></trkpt><trkpt lat="42.2486905" lon="13.257281"><ele>1286.3333333333333</ele><time>2026-05-02T16:23:41.988Z</time></trkpt><trkpt lat="42.2487384" lon="13.2572039"><ele>1287.5</ele><time>2026-05-02T16:23:42.987Z</time></trkpt><trkpt lat="42.2487911" lon="13.2571433"><ele>1288.6666666666665</ele><time>2026-05-02T16:23:43.988Z</time></trkpt><trkpt lat="42.2488578" lon="13.2570914"><ele>1289.8333333333333</ele><time>2026-05-02T16:23:44.988Z</time></trkpt><trkpt lat="42.2489236" lon="13.2570404"><ele>1291.0</ele><time>2026-05-02T16:23:45.988Z</time></trkpt><trkpt lat="42.2490019" lon="13.2569988"><ele>1291.0</ele><time>2026-05-02T16:23:46.988Z</time></trkpt><trkpt lat="42.2490841" lon="13.2569562"><ele>1291.0</ele><time>2026-05-02T16:23:47.987Z</time></trkpt><trkpt lat="42.2491706" lon="13.2569148"><ele>1291.0</ele><time>2026-05-02T16:23:48.988Z</time></trkpt><trkpt lat="42.2492562" lon="13.256881"><ele>1291.0</ele><time>2026-05-02T16:23:49.988Z</time></trkpt><trkpt lat="42.2493414" lon="13.2568657"><ele>1291.0</ele><time>2026-05-02T16:23:50.987Z</time></trkpt><trkpt lat="42.2494192" lon="13.2568495"><ele>1291.0</ele><time>2026-05-02T16:23:51.988Z</time></trkpt><trkpt lat="42.2494963" lon="13.2568486"><ele>1291.0</ele><time>2026-05-02T16:23:52.988Z</time></trkpt><trkpt lat="42.2495661" lon="13.2568523"><ele>1291.0</ele><time>2026-05-02T16:23:53.988Z</time></trkpt><trkpt lat="42.2496732" lon="13.2568621"><ele>1291.0</ele><time>2026-05-02T16:23:55.988Z</time></trkpt><trkpt lat="42.2497732" lon="13.2568546"><ele>1291.0</ele><time>2026-05-02T16:23:57.987Z</time></trkpt><trkpt lat="42.2498675" lon="13.2568401"><ele>1291.0</ele><time>2026-05-02T16:23:59.987Z</time></trkpt><trkpt lat="42.2499737" lon="13.2567793"><ele>1291.4285714285713</ele><time>2026-05-02T16:24:01.988Z</time></trkpt><trkpt lat="42.2500472" lon="13.2567349"><ele>1291.857142857143</ele><time>2026-05-02T16:24:02.988Z</time></trkpt><trkpt lat="42.2501172" lon="13.2566929"><ele>1292.2857142857142</ele><time>2026-05-02T16:24:03.988Z</time></trkpt><trkpt lat="42.2501776" lon="13.2566517"><ele>1292.7142857142858</ele><time>2026-05-02T16:24:04.988Z</time></trkpt><trkpt lat="42.2502326" lon="13.2566046"><ele>1293.142857142857</ele><time>2026-05-02T16:24:05.987Z</time></trkpt><trkpt lat="42.2502854" lon="13.2565575"><ele>1293.5714285714284</ele><time>2026-05-02T16:24:06.988Z</time></trkpt><trkpt lat="42.2503416" lon="13.2565129"><ele>1294.0</ele><time>2026-05-02T16:24:07.988Z</time></trkpt><trkpt lat="42.2503985" lon="13.2564721"><ele>1291.1666666666665</ele><time>2026-05-02T16:24:08.988Z</time></trkpt><trkpt lat="42.2504875" lon="13.2564145"><ele>1288.3333333333333</ele><time>2026-05-02T16:24:10.988Z</time></trkpt><trkpt lat="42.2505843" lon="13.2563837"><ele>1285.5</ele><time>2026-05-02T16:24:12.988Z</time></trkpt><trkpt lat="42.2506534" lon="13.2563827"><ele>1282.6666666666667</ele><time>2026-05-02T16:24:13.988Z</time></trkpt><trkpt lat="42.2507283" lon="13.2563802"><ele>1279.8333333333335</ele><time>2026-05-02T16:24:14.988Z</time></trkpt><trkpt lat="42.2508058" lon="13.2563704"><ele>1277.0</ele><time>2026-05-02T16:24:15.988Z</time></trkpt><trkpt lat="42.2508864" lon="13.256355"><ele>1277.0</ele><time>2026-05-02T16:24:16.988Z</time></trkpt><trkpt lat="42.2509711" lon="13.2563444"><ele>1277.0</ele><time>2026-05-02T16:24:17.988Z</time></trkpt><trkpt lat="42.2510528" lon="13.2563492"><ele>1277.0</ele><time>2026-05-02T16:24:18.988Z</time></trkpt><trkpt lat="42.2511322" lon="13.2563657"><ele>1277.0</ele><time>2026-05-02T16:24:19.988Z</time></trkpt><trkpt lat="42.2512085" lon="13.2563973"><ele>1277.0</ele><time>2026-05-02T16:24:20.988Z</time></trkpt><trkpt lat="42.2512824" lon="13.2564434"><ele>1277.0</ele><time>2026-05-02T16:24:21.988Z</time></trkpt><trkpt lat="42.2513565" lon="13.2564896"><ele>1280.0</ele><time>2026-05-02T16:24:22.988Z</time></trkpt><trkpt lat="42.2514376" lon="13.2565389"><ele>1283.0</ele><time>2026-05-02T16:24:23.988Z</time></trkpt><trkpt lat="42.2515183" lon="13.2565851"><ele>1286.0</ele><time>2026-05-02T16:24:24.988Z</time></trkpt><trkpt lat="42.2515918" lon="13.2566255"><ele>1289.0</ele><time>2026-05-02T16:24:25.988Z</time></trkpt><trkpt lat="42.2516548" lon="13.2566595"><ele>1292.0</ele><time>2026-05-02T16:24:26.988Z</time></trkpt><trkpt lat="42.2517455" lon="13.2567064"><ele>1295.0</ele><time>2026-05-02T16:24:28.988Z</time></trkpt><trkpt lat="42.2518148" lon="13.2567469"><ele>1295.5</ele><time>2026-05-02T16:24:30.988Z</time></trkpt><trkpt lat="42.2518769" lon="13.2567228"><ele>1296.0</ele><time>2026-05-02T16:29:47.988Z</time></trkpt><trkpt lat="42.2518759" lon="13.2566357"><ele>1296.5</ele><time>2026-05-02T16:29:51.988Z</time></trkpt><trkpt lat="42.2519111" lon="13.2565153"><ele>1297.0</ele><time>2026-05-02T16:29:54.988Z</time></trkpt><trkpt lat="42.2519709" lon="13.2564202"><ele>1297.5</ele><time>2026-05-02T16:29:56.988Z</time></trkpt><trkpt lat="42.252038" lon="13.2562979"><ele>1298.0</ele><time>2026-05-02T16:29:58.988Z</time></trkpt><trkpt lat="42.2520686" lon="13.2562232"><ele>1298.5</ele><time>2026-05-02T16:29:59.988Z</time></trkpt><trkpt lat="42.2521296" lon="13.256073"><ele>1299.0</ele><time>2026-05-02T16:30:01.988Z</time></trkpt><trkpt lat="42.2521783" lon="13.2560004"><ele>1299.5</ele><time>2026-05-02T16:30:02.988Z</time></trkpt><trkpt lat="42.2522278" lon="13.2559181"><ele>1300.0</ele><time>2026-05-02T16:30:03.987Z</time></trkpt><trkpt lat="42.2522778" lon="13.2558399"><ele>1300.5</ele><time>2026-05-02T16:30:04.988Z</time></trkpt><trkpt lat="42.252328" lon="13.2557645"><ele>1301.0</ele><time>2026-05-02T16:30:05.988Z</time></trkpt><trkpt lat="42.2523748" lon="13.2556824"><ele>1299.142857142857</ele><time>2026-05-02T16:30:06.988Z</time></trkpt><trkpt lat="42.2524131" lon="13.2556149"><ele>1297.2857142857142</ele><time>2026-05-02T16:30:07.988Z</time></trkpt><trkpt lat="42.2524514" lon="13.2555459"><ele>1295.4285714285716</ele><time>2026-05-02T16:30:08.987Z</time></trkpt><trkpt lat="42.2525022" lon="13.2554956"><ele>1293.5714285714284</ele><time>2026-05-02T16:30:09.987Z</time></trkpt><trkpt lat="42.252592" lon="13.2553884"><ele>1291.7142857142858</ele><time>2026-05-02T16:30:11.988Z</time></trkpt><trkpt lat="42.2526471" lon="13.2553371"><ele>1289.857142857143</ele><time>2026-05-02T16:30:12.988Z</time></trkpt><trkpt lat="42.2527033" lon="13.2552848"><ele>1288.0</ele><time>2026-05-02T16:30:13.988Z</time></trkpt><trkpt lat="42.252764" lon="13.2552362"><ele>1288.0</ele><time>2026-05-02T16:30:14.988Z</time></trkpt><trkpt lat="42.252825" lon="13.2551897"><ele>1288.0</ele><time>2026-05-02T16:30:15.987Z</time></trkpt><trkpt lat="42.2528885" lon="13.2551583"><ele>1288.0</ele><time>2026-05-02T16:30:16.988Z</time></trkpt><trkpt lat="42.2529543" lon="13.2551283"><ele>1288.0</ele><time>2026-05-02T16:30:17.988Z</time></trkpt><trkpt lat="42.2530253" lon="13.2551079"><ele>1288.0</ele><time>2026-05-02T16:30:18.988Z</time></trkpt><trkpt lat="42.2530986" lon="13.2550916"><ele>1288.0</ele><time>2026-05-02T16:30:19.987Z</time></trkpt><trkpt lat="42.2531735" lon="13.2550684"><ele>1288.0</ele><time>2026-05-02T16:30:20.988Z</time></trkpt><trkpt lat="42.2532486" lon="13.2550494"><ele>1289.0</ele><time>2026-05-02T16:30:21.988Z</time></trkpt><trkpt lat="42.2533283" lon="13.2550146"><ele>1290.0</ele><time>2026-05-02T16:30:22.988Z</time></trkpt><trkpt lat="42.2534058" lon="13.2549863"><ele>1291.0</ele><time>2026-05-02T16:30:23.988Z</time></trkpt><trkpt lat="42.2534814" lon="13.2549502"><ele>1292.0</ele><time>2026-05-02T16:30:24.988Z</time></trkpt><trkpt lat="42.2535569" lon="13.254903"><ele>1293.0</ele><time>2026-05-02T16:30:25.988Z</time></trkpt><trkpt lat="42.2536375" lon="13.2548536"><ele>1294.0</ele><time>2026-05-02T16:30:26.988Z</time></trkpt><trkpt lat="42.2537131" lon="13.2547887"><ele>1292.3333333333333</ele><time>2026-05-02T16:30:27.987Z</time></trkpt><trkpt lat="42.2537933" lon="13.2547363"><ele>1290.6666666666665</ele><time>2026-05-02T16:30:28.988Z</time></trkpt><trkpt lat="42.2538698" lon="13.2546843"><ele>1289.0</ele><time>2026-05-02T16:30:29.988Z</time></trkpt><trkpt lat="42.253951" lon="13.2546452"><ele>1287.3333333333333</ele><time>2026-05-02T16:30:30.988Z</time></trkpt><trkpt lat="42.2540335" lon="13.2545894"><ele>1285.6666666666667</ele><time>2026-05-02T16:30:31.988Z</time></trkpt><trkpt lat="42.2541207" lon="13.2545395"><ele>1284.0</ele><time>2026-05-02T16:30:32.988Z</time></trkpt><trkpt lat="42.2541906" lon="13.2545067"><ele>1284.0</ele><time>2026-05-02T16:30:33.987Z</time></trkpt><trkpt lat="42.2542831" lon="13.2544561"><ele>1284.0</ele><time>2026-05-02T16:30:34.988Z</time></trkpt><trkpt lat="42.2543713" lon="13.2544046"><ele>1284.0</ele><time>2026-05-02T16:30:35.988Z</time></trkpt><trkpt lat="42.2544586" lon="13.254349"><ele>1284.0</ele><time>2026-05-02T16:30:36.987Z</time></trkpt><trkpt lat="42.2545421" lon="13.2542897"><ele>1284.0</ele><time>2026-05-02T16:30:37.988Z</time></trkpt><trkpt lat="42.2546286" lon="13.2542304"><ele>1284.0</ele><time>2026-05-02T16:30:38.988Z</time></trkpt><trkpt lat="42.2547097" lon="13.2541765"><ele>1284.0</ele><time>2026-05-02T16:30:39.988Z</time></trkpt><trkpt lat="42.2547913" lon="13.2541288"><ele>1284.0</ele><time>2026-05-02T16:30:40.988Z</time></trkpt><trkpt lat="42.2548852" lon="13.2540752"><ele>1284.0</ele><time>2026-05-02T16:30:41.988Z</time></trkpt><trkpt lat="42.2549776" lon="13.2540285"><ele>1284.0</ele><time>2026-05-02T16:30:42.988Z</time></trkpt><trkpt lat="42.2550696" lon="13.2539802"><ele>1282.2</ele><time>2026-05-02T16:30:43.988Z</time></trkpt><trkpt lat="42.2551612" lon="13.2539397"><ele>1280.4</ele><time>2026-05-02T16:30:44.988Z</time></trkpt><trkpt lat="42.2552519" lon="13.2539041"><ele>1278.6</ele><time>2026-05-02T16:30:45.988Z</time></trkpt><trkpt lat="42.2553325" lon="13.2538639"><ele>1276.8</ele><time>2026-05-02T16:30:46.988Z</time></trkpt><trkpt lat="42.2554162" lon="13.2538118"><ele>1275.0</ele><time>2026-05-02T16:30:47.988Z</time></trkpt><trkpt lat="42.2554997" lon="13.2537423"><ele>1275.0</ele><time>2026-05-02T16:30:48.988Z</time></trkpt><trkpt lat="42.2555772" lon="13.2536808"><ele>1275.0</ele><time>2026-05-02T16:30:49.988Z</time></trkpt><trkpt lat="42.2556492" lon="13.2536215"><ele>1275.0</ele><time>2026-05-02T16:30:50.988Z</time></trkpt><trkpt lat="42.255712" lon="13.2535522"><ele>1275.0</ele><time>2026-05-02T16:30:51.988Z</time></trkpt><trkpt lat="42.2557637" lon="13.253477"><ele>1275.0</ele><time>2026-05-02T16:30:52.987Z</time></trkpt><trkpt lat="42.2557905" lon="13.2533863"><ele>1275.0</ele><time>2026-05-02T16:30:53.988Z</time></trkpt><trkpt lat="42.2558078" lon="13.2532764"><ele>1277.0</ele><time>2026-05-02T16:30:54.988Z</time></trkpt><trkpt lat="42.255818" lon="13.2531686"><ele>1279.0</ele><time>2026-05-02T16:30:55.988Z</time></trkpt><trkpt lat="42.2558229" lon="13.2530615"><ele>1281.0</ele><time>2026-05-02T16:30:56.988Z</time></trkpt><trkpt lat="42.2558242" lon="13.2529615"><ele>1283.0</ele><time>2026-05-02T16:30:57.988Z</time></trkpt><trkpt lat="42.2558241" lon="13.2528665"><ele>1285.0</ele><time>2026-05-02T16:30:58.988Z</time></trkpt><trkpt lat="42.2558555" lon="13.2526852"><ele>1287.0</ele><time>2026-05-02T16:31:00.988Z</time></trkpt><trkpt lat="42.2558789" lon="13.2525755"><ele>1287.0</ele><time>2026-05-02T16:31:01.988Z</time></trkpt><trkpt lat="42.2559088" lon="13.252469"><ele>1287.0</ele><time>2026-05-02T16:31:02.988Z</time></trkpt><trkpt lat="42.2559413" lon="13.2523669"><ele>1287.0</ele><time>2026-05-02T16:31:03.988Z</time></trkpt><trkpt lat="42.2559758" lon="13.25228"><ele>1287.0</ele><time>2026-05-02T16:31:04.987Z</time></trkpt><trkpt lat="42.2560154" lon="13.2522101"><ele>1287.0</ele><time>2026-05-02T16:31:05.988Z</time></trkpt><trkpt lat="42.2560659" lon="13.2521502"><ele>1287.0</ele><time>2026-05-02T16:31:06.988Z</time></trkpt><trkpt lat="42.2561223" lon="13.2520961"><ele>1287.0</ele><time>2026-05-02T16:31:07.988Z</time></trkpt><trkpt lat="42.2561836" lon="13.2520428"><ele>1286.3333333333333</ele><time>2026-05-02T16:31:08.988Z</time></trkpt><trkpt lat="42.2562405" lon="13.2519857"><ele>1285.6666666666667</ele><time>2026-05-02T16:31:09.988Z</time></trkpt><trkpt lat="42.2563102" lon="13.2519192"><ele>1285.0</ele><time>2026-05-02T16:31:10.988Z</time></trkpt><trkpt lat="42.2563726" lon="13.2518381"><ele>1284.3333333333335</ele><time>2026-05-02T16:31:11.988Z</time></trkpt><trkpt lat="42.2564317" lon="13.2517712"><ele>1283.6666666666667</ele><time>2026-05-02T16:31:12.988Z</time></trkpt><trkpt lat="42.2564884" lon="13.2517174"><ele>1283.0</ele><time>2026-05-02T16:31:13.988Z</time></trkpt><trkpt lat="42.2565618" lon="13.2516845"><ele>1285.3333333333335</ele><time>2026-05-02T16:31:14.988Z</time></trkpt><trkpt lat="42.2566345" lon="13.2516431"><ele>1287.6666666666667</ele><time>2026-05-02T16:31:15.988Z</time></trkpt><trkpt lat="42.25671" lon="13.2516078"><ele>1290.0</ele><time>2026-05-02T16:31:16.988Z</time></trkpt><trkpt lat="42.2567954" lon="13.2515894"><ele>1292.3333333333333</ele><time>2026-05-02T16:31:17.988Z</time></trkpt><trkpt lat="42.2568814" lon="13.2515588"><ele>1294.6666666666665</ele><time>2026-05-02T16:31:18.987Z</time></trkpt><trkpt lat="42.2569461" lon="13.2515237"><ele>1297.0</ele><time>2026-05-02T16:31:19.987Z</time></trkpt><trkpt lat="42.257013" lon="13.251524"><ele>1297.0</ele><time>2026-05-02T16:31:21.988Z</time></trkpt><trkpt lat="42.2570689" lon="13.2515657"><ele>1297.0</ele><time>2026-05-02T16:31:23.988Z</time></trkpt><trkpt lat="42.257095" lon="13.2516679"><ele>1297.0</ele><time>2026-05-02T16:31:25.987Z</time></trkpt><trkpt lat="42.2571204" lon="13.2517575"><ele>1297.0</ele><time>2026-05-02T16:31:27.988Z</time></trkpt><trkpt lat="42.2571558" lon="13.2518527"><ele>1297.0</ele><time>2026-05-02T16:31:29.988Z</time></trkpt><trkpt lat="42.2571708" lon="13.2519405"><ele>1297.0</ele><time>2026-05-02T16:31:30.988Z</time></trkpt><trkpt lat="42.2571911" lon="13.2520286"><ele>1297.0</ele><time>2026-05-02T16:31:31.988Z</time></trkpt><trkpt lat="42.2572064" lon="13.2521216"><ele>1297.0</ele><time>2026-05-02T16:31:32.988Z</time></trkpt><trkpt lat="42.2572077" lon="13.2522772"><ele>1297.0</ele><time>2026-05-02T16:31:34.988Z</time></trkpt><trkpt lat="42.257204" lon="13.2524368"><ele>1297.0</ele><time>2026-05-02T16:31:36.988Z</time></trkpt><trkpt lat="42.2571867" lon="13.2525362"><ele>1297.0</ele><time>2026-05-02T16:31:38.988Z</time></trkpt><trkpt lat="42.2572413" lon="13.2526533"><ele>1297.0</ele><time>2026-05-02T16:31:40.988Z</time></trkpt><trkpt lat="42.2573392" lon="13.2526841"><ele>1295.8333333333333</ele><time>2026-05-02T16:31:42.988Z</time></trkpt><trkpt lat="42.2574004" lon="13.25264"><ele>1294.6666666666665</ele><time>2026-05-02T16:31:44.988Z</time></trkpt><trkpt lat="42.2574574" lon="13.2525949"><ele>1293.5</ele><time>2026-05-02T16:31:45.988Z</time></trkpt><trkpt lat="42.2575484" lon="13.2525504"><ele>1292.3333333333333</ele><time>2026-05-02T16:31:47.988Z</time></trkpt><trkpt lat="42.2576486" lon="13.2525729"><ele>1291.1666666666667</ele><time>2026-05-02T16:31:49.988Z</time></trkpt><trkpt lat="42.257732" lon="13.2526034"><ele>1290.0</ele><time>2026-05-02T16:31:51.988Z</time></trkpt><trkpt lat="42.2578017" lon="13.2526113"><ele>1290.0</ele><time>2026-05-02T16:31:52.988Z</time></trkpt><trkpt lat="42.2578872" lon="13.252618"><ele>1290.0</ele><time>2026-05-02T16:31:53.988Z</time></trkpt><trkpt lat="42.2579692" lon="13.2526063"><ele>1290.0</ele><time>2026-05-02T16:31:54.988Z</time></trkpt><trkpt lat="42.2580504" lon="13.2525985"><ele>1290.0</ele><time>2026-05-02T16:31:55.988Z</time></trkpt><trkpt lat="42.2581289" lon="13.2525639"><ele>1290.0</ele><time>2026-05-02T16:31:56.988Z</time></trkpt><trkpt lat="42.2582155" lon="13.252523"><ele>1290.0</ele><time>2026-05-02T16:31:57.988Z</time></trkpt><trkpt lat="42.2582991" lon="13.2524722"><ele>1290.0</ele><time>2026-05-02T16:31:58.988Z</time></trkpt><trkpt lat="42.2583777" lon="13.2524123"><ele>1290.0</ele><time>2026-05-02T16:31:59.988Z</time></trkpt><trkpt lat="42.2584524" lon="13.252341"><ele>1290.0</ele><time>2026-05-02T16:32:00.988Z</time></trkpt><trkpt lat="42.2585045" lon="13.2522799"><ele>1290.0</ele><time>2026-05-02T16:32:01.988Z</time></trkpt><trkpt lat="42.258548" lon="13.2522164"><ele>1290.0</ele><time>2026-05-02T16:32:02.987Z</time></trkpt><trkpt lat="42.2586231" lon="13.2520625"><ele>1287.8333333333333</ele><time>2026-05-02T16:32:04.987Z</time></trkpt><trkpt lat="42.2586523" lon="13.2519744"><ele>1285.6666666666667</ele><time>2026-05-02T16:32:05.987Z</time></trkpt><trkpt lat="42.2586925" lon="13.251879"><ele>1283.5</ele><time>2026-05-02T16:32:06.988Z</time></trkpt><trkpt lat="42.2587352" lon="13.2517867"><ele>1281.3333333333335</ele><time>2026-05-02T16:32:07.988Z</time></trkpt><trkpt lat="42.258824" lon="13.2516952"><ele>1279.1666666666667</ele><time>2026-05-02T16:32:08.987Z</time></trkpt><trkpt lat="42.2588852" lon="13.2516089"><ele>1277.0</ele><time>2026-05-02T16:32:09.988Z</time></trkpt><trkpt lat="42.2589436" lon="13.2515402"><ele>1275.5</ele><time>2026-05-02T16:32:10.987Z</time></trkpt><trkpt lat="42.2590051" lon="13.251483"><ele>1274.0</ele><time>2026-05-02T16:32:11.988Z</time></trkpt><trkpt lat="42.2590795" lon="13.2514227"><ele>1272.5</ele><time>2026-05-02T16:32:12.988Z</time></trkpt><trkpt lat="42.2591521" lon="13.2513837"><ele>1271.0</ele><time>2026-05-02T16:32:13.987Z</time></trkpt><trkpt lat="42.2592275" lon="13.2513502"><ele>1269.5</ele><time>2026-05-02T16:32:14.988Z</time></trkpt><trkpt lat="42.259307" lon="13.2513086"><ele>1268.0</ele><time>2026-05-02T16:32:15.987Z</time></trkpt><trkpt lat="42.2594296" lon="13.2512607"><ele>1268.0</ele><time>2026-05-02T16:32:17.988Z</time></trkpt><trkpt lat="42.2595039" lon="13.2512067"><ele>1268.0</ele><time>2026-05-02T16:32:18.988Z</time></trkpt><trkpt lat="42.2595751" lon="13.25114"><ele>1268.0</ele><time>2026-05-02T16:32:19.988Z</time></trkpt><trkpt lat="42.2596266" lon="13.2510462"><ele>1268.0</ele><time>2026-05-02T16:32:20.988Z</time></trkpt><trkpt lat="42.2596842" lon="13.2509505"><ele>1268.0</ele><time>2026-05-02T16:32:21.988Z</time></trkpt><trkpt lat="42.259716" lon="13.2508337"><ele>1268.0</ele><time>2026-05-02T16:32:22.988Z</time></trkpt><trkpt lat="42.2597591" lon="13.2507235"><ele>1268.8</ele><time>2026-05-02T16:32:23.988Z</time></trkpt><trkpt lat="42.2597988" lon="13.2506073"><ele>1269.6</ele><time>2026-05-02T16:32:24.988Z</time></trkpt><trkpt lat="42.2598337" lon="13.2504865"><ele>1270.4</ele><time>2026-05-02T16:32:25.988Z</time></trkpt><trkpt lat="42.2598587" lon="13.2503609"><ele>1271.2</ele><time>2026-05-02T16:32:26.987Z</time></trkpt><trkpt lat="42.2598742" lon="13.250237"><ele>1272.0</ele><time>2026-05-02T16:32:27.987Z</time></trkpt><trkpt lat="42.2598833" lon="13.2501127"><ele>1272.0</ele><time>2026-05-02T16:32:28.988Z</time></trkpt><trkpt lat="42.2598998" lon="13.2499924"><ele>1272.0</ele><time>2026-05-02T16:32:29.988Z</time></trkpt><trkpt lat="42.2599119" lon="13.2498724"><ele>1272.0</ele><time>2026-05-02T16:32:30.988Z</time></trkpt><trkpt lat="42.259927" lon="13.249759"><ele>1272.0</ele><time>2026-05-02T16:32:31.987Z</time></trkpt><trkpt lat="42.259954" lon="13.2496414"><ele>1272.0</ele><time>2026-05-02T16:32:32.988Z</time></trkpt><trkpt lat="42.2599876" lon="13.2495338"><ele>1272.0</ele><time>2026-05-02T16:32:33.988Z</time></trkpt><trkpt lat="42.2600165" lon="13.249427"><ele>1270.4</ele><time>2026-05-02T16:32:34.988Z</time></trkpt><trkpt lat="42.2600485" lon="13.249315"><ele>1268.8000000000002</ele><time>2026-05-02T16:32:35.988Z</time></trkpt><trkpt lat="42.260072" lon="13.2492045"><ele>1267.2</ele><time>2026-05-02T16:32:36.988Z</time></trkpt><trkpt lat="42.2600979" lon="13.2490858"><ele>1265.6000000000001</ele><time>2026-05-02T16:32:37.988Z</time></trkpt><trkpt lat="42.2601222" lon="13.2489568"><ele>1264.0</ele><time>2026-05-02T16:32:38.988Z</time></trkpt><trkpt lat="42.2601452" lon="13.2488178"><ele>1263.0</ele><time>2026-05-02T16:32:39.987Z</time></trkpt><trkpt lat="42.2601682" lon="13.2486903"><ele>1262.0</ele><time>2026-05-02T16:32:40.987Z</time></trkpt><trkpt lat="42.2601893" lon="13.2485592"><ele>1261.0</ele><time>2026-05-02T16:32:41.987Z</time></trkpt><trkpt lat="42.2602124" lon="13.2484157"><ele>1260.0</ele><time>2026-05-02T16:32:42.988Z</time></trkpt><trkpt lat="42.2602353" lon="13.2482844"><ele>1259.0</ele><time>2026-05-02T16:32:43.988Z</time></trkpt><trkpt lat="42.2602544" lon="13.2481474"><ele>1257.8</ele><time>2026-05-02T16:32:44.988Z</time></trkpt><trkpt lat="42.2602774" lon="13.2480008"><ele>1256.6000000000001</ele><time>2026-05-02T16:32:45.988Z</time></trkpt><trkpt lat="42.2602968" lon="13.2478673"><ele>1255.4</ele><time>2026-05-02T16:32:46.988Z</time></trkpt><trkpt lat="42.2603155" lon="13.2477377"><ele>1254.2</ele><time>2026-05-02T16:32:47.987Z</time></trkpt><trkpt lat="42.2603323" lon="13.247638"><ele>1253.0</ele><time>2026-05-02T16:32:48.988Z</time></trkpt><trkpt lat="42.2603501" lon="13.2475335"><ele>1253.0</ele><time>2026-05-02T16:32:49.987Z</time></trkpt><trkpt lat="42.2603672" lon="13.247428"><ele>1253.0</ele><time>2026-05-02T16:32:50.987Z</time></trkpt><trkpt lat="42.2603954" lon="13.2473397"><ele>1253.0</ele><time>2026-05-02T16:32:51.988Z</time></trkpt><trkpt lat="42.2604514" lon="13.2472643"><ele>1253.0</ele><time>2026-05-02T16:32:52.988Z</time></trkpt><trkpt lat="42.2605015" lon="13.2471738"><ele>1253.0</ele><time>2026-05-02T16:32:53.987Z</time></trkpt><trkpt lat="42.2605568" lon="13.2470954"><ele>1253.0</ele><time>2026-05-02T16:32:54.987Z</time></trkpt><trkpt lat="42.2606322" lon="13.246986"><ele>1252.6</ele><time>2026-05-02T16:32:55.988Z</time></trkpt><trkpt lat="42.2606923" lon="13.2468946"><ele>1252.1999999999998</ele><time>2026-05-02T16:32:56.987Z</time></trkpt><trkpt lat="42.2607549" lon="13.24672"><ele>1251.8</ele><time>2026-05-02T16:32:57.988Z</time></trkpt><trkpt lat="42.2608127" lon="13.2466069"><ele>1251.3999999999999</ele><time>2026-05-02T16:32:58.988Z</time></trkpt><trkpt lat="42.2608827" lon="13.2464882"><ele>1251.0</ele><time>2026-05-02T16:32:59.987Z</time></trkpt><trkpt lat="42.260945" lon="13.2463738"><ele>1251.0</ele><time>2026-05-02T16:33:00.988Z</time></trkpt><trkpt lat="42.2610068" lon="13.2462529"><ele>1251.0</ele><time>2026-05-02T16:33:01.988Z</time></trkpt><trkpt lat="42.2610781" lon="13.2461451"><ele>1251.0</ele><time>2026-05-02T16:33:02.988Z</time></trkpt><trkpt lat="42.2611334" lon="13.246005"><ele>1251.0</ele><time>2026-05-02T16:33:03.988Z</time></trkpt><trkpt lat="42.2612054" lon="13.245871"><ele>1251.0</ele><time>2026-05-02T16:33:04.988Z</time></trkpt><trkpt lat="42.2613089" lon="13.2457016"><ele>1251.0</ele><time>2026-05-02T16:33:05.988Z</time></trkpt><trkpt lat="42.261378" lon="13.2455673"><ele>1251.0</ele><time>2026-05-02T16:33:06.988Z</time></trkpt><trkpt lat="42.2614399" lon="13.2454478"><ele>1251.0</ele><time>2026-05-02T16:33:07.988Z</time></trkpt><trkpt lat="42.2615065" lon="13.2453068"><ele>1251.3999999999999</ele><time>2026-05-02T16:33:08.988Z</time></trkpt><trkpt lat="42.2615715" lon="13.2451723"><ele>1251.8</ele><time>2026-05-02T16:33:09.987Z</time></trkpt><trkpt lat="42.2616281" lon="13.2450322"><ele>1252.1999999999998</ele><time>2026-05-02T16:33:10.988Z</time></trkpt><trkpt lat="42.2616593" lon="13.2449017"><ele>1252.6</ele><time>2026-05-02T16:33:11.988Z</time></trkpt><trkpt lat="42.2617056" lon="13.2447773"><ele>1253.0</ele><time>2026-05-02T16:33:12.987Z</time></trkpt><trkpt lat="42.2617147" lon="13.2446616"><ele>1253.0</ele><time>2026-05-02T16:33:13.988Z</time></trkpt><trkpt lat="42.2617419" lon="13.2445325"><ele>1253.0</ele><time>2026-05-02T16:33:14.988Z</time></trkpt><trkpt lat="42.2617308" lon="13.2444062"><ele>1253.0</ele><time>2026-05-02T16:33:15.987Z</time></trkpt><trkpt lat="42.261734" lon="13.2442995"><ele>1253.0</ele><time>2026-05-02T16:33:16.988Z</time></trkpt><trkpt lat="42.2617228" lon="13.2441815"><ele>1253.0</ele><time>2026-05-02T16:33:17.988Z</time></trkpt><trkpt lat="42.2616888" lon="13.244086"><ele>1253.0</ele><time>2026-05-02T16:33:18.988Z</time></trkpt><trkpt lat="42.2616475" lon="13.243983"><ele>1253.0</ele><time>2026-05-02T16:33:19.988Z</time></trkpt><trkpt lat="42.2615953" lon="13.2438811"><ele>1253.0</ele><time>2026-05-02T16:33:20.988Z</time></trkpt><trkpt lat="42.2615269" lon="13.2437877"><ele>1253.0</ele><time>2026-05-02T16:33:21.988Z</time></trkpt><trkpt lat="42.2614504" lon="13.2437019"><ele>1253.0</ele><time>2026-05-02T16:33:22.988Z</time></trkpt><trkpt lat="42.2613671" lon="13.2436174"><ele>1253.0</ele><time>2026-05-02T16:33:23.988Z</time></trkpt><trkpt lat="42.2612793" lon="13.2435269"><ele>1253.0</ele><time>2026-05-02T16:33:24.988Z</time></trkpt><trkpt lat="42.2611919" lon="13.2434417"><ele>1253.0</ele><time>2026-05-02T16:33:25.988Z</time></trkpt><trkpt lat="42.261114" lon="13.2433695"><ele>1253.0</ele><time>2026-05-02T16:33:26.988Z</time></trkpt><trkpt lat="42.2610408" lon="13.2432988"><ele>1253.0</ele><time>2026-05-02T16:33:27.988Z</time></trkpt><trkpt lat="42.2609774" lon="13.2432359"><ele>1253.0</ele><time>2026-05-02T16:33:28.987Z</time></trkpt><trkpt lat="42.260925" lon="13.2431775"><ele>1253.0</ele><time>2026-05-02T16:33:29.988Z</time></trkpt><trkpt lat="42.2608795" lon="13.2431082"><ele>1253.0</ele><time>2026-05-02T16:33:30.988Z</time></trkpt><trkpt lat="42.2608443" lon="13.243018"><ele>1253.0</ele><time>2026-05-02T16:33:31.988Z</time></trkpt><trkpt lat="42.2608246" lon="13.2429066"><ele>1253.0</ele><time>2026-05-02T16:33:32.987Z</time></trkpt><trkpt lat="42.2608162" lon="13.2427782"><ele>1253.0</ele><time>2026-05-02T16:33:33.988Z</time></trkpt><trkpt lat="42.2608087" lon="13.2426462"><ele>1253.0</ele><time>2026-05-02T16:33:34.988Z</time></trkpt><trkpt lat="42.2607988" lon="13.2425192"><ele>1253.0</ele><time>2026-05-02T16:33:35.988Z</time></trkpt><trkpt lat="42.2607795" lon="13.2423801"><ele>1252.6</ele><time>2026-05-02T16:33:36.988Z</time></trkpt><trkpt lat="42.2607471" lon="13.2422526"><ele>1252.1999999999998</ele><time>2026-05-02T16:33:37.988Z</time></trkpt><trkpt lat="42.2606986" lon="13.2421235"><ele>1251.8</ele><time>2026-05-02T16:33:38.988Z</time></trkpt><trkpt lat="42.260649" lon="13.2419961"><ele>1251.3999999999999</ele><time>2026-05-02T16:33:39.988Z</time></trkpt><trkpt lat="42.2606145" lon="13.2418693"><ele>1251.0</ele><time>2026-05-02T16:33:40.987Z</time></trkpt><trkpt lat="42.2605907" lon="13.2417395"><ele>1249.3999999999999</ele><time>2026-05-02T16:33:41.988Z</time></trkpt><trkpt lat="42.2605822" lon="13.2416087"><ele>1247.8</ele><time>2026-05-02T16:33:42.988Z</time></trkpt><trkpt lat="42.260587" lon="13.241477"><ele>1246.1999999999998</ele><time>2026-05-02T16:33:43.988Z</time></trkpt><trkpt lat="42.2606008" lon="13.241344"><ele>1244.6</ele><time>2026-05-02T16:33:44.988Z</time></trkpt><trkpt lat="42.2606191" lon="13.2412212"><ele>1243.0</ele><time>2026-05-02T16:33:45.988Z</time></trkpt><trkpt lat="42.2606405" lon="13.2411234"><ele>1243.0</ele><time>2026-05-02T16:33:46.988Z</time></trkpt><trkpt lat="42.2606641" lon="13.2410376"><ele>1243.0</ele><time>2026-05-02T16:33:47.988Z</time></trkpt><trkpt lat="42.2607025" lon="13.2409618"><ele>1243.0</ele><time>2026-05-02T16:33:48.987Z</time></trkpt><trkpt lat="42.260761" lon="13.2408963"><ele>1243.0</ele><time>2026-05-02T16:33:49.988Z</time></trkpt><trkpt lat="42.2608378" lon="13.2408358"><ele>1243.0</ele><time>2026-05-02T16:33:50.988Z</time></trkpt><trkpt lat="42.2609315" lon="13.2407819"><ele>1243.0</ele><time>2026-05-02T16:33:51.988Z</time></trkpt><trkpt lat="42.2610291" lon="13.2407274"><ele>1243.0</ele><time>2026-05-02T16:33:52.988Z</time></trkpt><trkpt lat="42.2611231" lon="13.2406677"><ele>1243.0</ele><time>2026-05-02T16:33:53.988Z</time></trkpt><trkpt lat="42.2612181" lon="13.2406042"><ele>1243.0</ele><time>2026-05-02T16:33:54.988Z</time></trkpt><trkpt lat="42.2613134" lon="13.240543"><ele>1243.0</ele><time>2026-05-02T16:33:55.987Z</time></trkpt><trkpt lat="42.2614011" lon="13.2404959"><ele>1243.0</ele><time>2026-05-02T16:33:56.987Z</time></trkpt><trkpt lat="42.2614912" lon="13.2404394"><ele>1241.6</ele><time>2026-05-02T16:33:57.987Z</time></trkpt><trkpt lat="42.261575" lon="13.2403692"><ele>1240.1999999999998</ele><time>2026-05-02T16:33:58.988Z</time></trkpt><trkpt lat="42.2616536" lon="13.2402867"><ele>1238.8</ele><time>2026-05-02T16:33:59.987Z</time></trkpt><trkpt lat="42.2617175" lon="13.2402128"><ele>1237.3999999999999</ele><time>2026-05-02T16:34:00.988Z</time></trkpt><trkpt lat="42.2617862" lon="13.2401454"><ele>1236.0</ele><time>2026-05-02T16:34:01.988Z</time></trkpt><trkpt lat="42.2618594" lon="13.2400515"><ele>1236.0</ele><time>2026-05-02T16:34:02.988Z</time></trkpt><trkpt lat="42.2619466" lon="13.2399891"><ele>1236.0</ele><time>2026-05-02T16:34:03.988Z</time></trkpt><trkpt lat="42.2620283" lon="13.2399564"><ele>1236.0</ele><time>2026-05-02T16:34:04.988Z</time></trkpt><trkpt lat="42.262114" lon="13.2399152"><ele>1236.0</ele><time>2026-05-02T16:34:05.988Z</time></trkpt><trkpt lat="42.2621953" lon="13.2398731"><ele>1236.0</ele><time>2026-05-02T16:34:06.988Z</time></trkpt><trkpt lat="42.2622765" lon="13.2398478"><ele>1236.0</ele><time>2026-05-02T16:34:07.988Z</time></trkpt><trkpt lat="42.2623569" lon="13.2398309"><ele>1237.0</ele><time>2026-05-02T16:34:08.988Z</time></trkpt><trkpt lat="42.2624477" lon="13.2398037"><ele>1238.0</ele><time>2026-05-02T16:34:09.988Z</time></trkpt><trkpt lat="42.2625328" lon="13.2397934"><ele>1239.0</ele><time>2026-05-02T16:34:10.988Z</time></trkpt><trkpt lat="42.2626194" lon="13.2397731"><ele>1240.0</ele><time>2026-05-02T16:34:11.988Z</time></trkpt><trkpt lat="42.2627101" lon="13.2397635"><ele>1241.0</ele><time>2026-05-02T16:34:12.988Z</time></trkpt><trkpt lat="42.2628013" lon="13.2397589"><ele>1242.0</ele><time>2026-05-02T16:34:13.988Z</time></trkpt><trkpt lat="42.2628965" lon="13.2397513"><ele>1239.3333333333333</ele><time>2026-05-02T16:34:14.988Z</time></trkpt><trkpt lat="42.2629717" lon="13.2397356"><ele>1236.6666666666667</ele><time>2026-05-02T16:34:15.987Z</time></trkpt><trkpt lat="42.2630342" lon="13.2397058"><ele>1234.0</ele><time>2026-05-02T16:34:16.988Z</time></trkpt><trkpt lat="42.2630905" lon="13.2396602"><ele>1231.3333333333335</ele><time>2026-05-02T16:34:17.988Z</time></trkpt><trkpt lat="42.2631701" lon="13.2395322"><ele>1228.6666666666667</ele><time>2026-05-02T16:34:19.988Z</time></trkpt><trkpt lat="42.2632025" lon="13.2394432"><ele>1226.0</ele><time>2026-05-02T16:34:20.988Z</time></trkpt><trkpt lat="42.2632219" lon="13.2393317"><ele>1226.0</ele><time>2026-05-02T16:34:21.988Z</time></trkpt><trkpt lat="42.2632288" lon="13.2392025"><ele>1226.0</ele><time>2026-05-02T16:34:22.988Z</time></trkpt><trkpt lat="42.2632295" lon="13.2390673"><ele>1226.0</ele><time>2026-05-02T16:34:23.988Z</time></trkpt><trkpt lat="42.2632356" lon="13.2389331"><ele>1226.0</ele><time>2026-05-02T16:34:24.988Z</time></trkpt><trkpt lat="42.2632537" lon="13.2388065"><ele>1226.0</ele><time>2026-05-02T16:34:25.988Z</time></trkpt><trkpt lat="42.2632665" lon="13.2386917"><ele>1224.1666666666667</ele><time>2026-05-02T16:34:26.988Z</time></trkpt><trkpt lat="42.2632835" lon="13.2385841"><ele>1222.3333333333335</ele><time>2026-05-02T16:34:27.987Z</time></trkpt><trkpt lat="42.2633084" lon="13.2384845"><ele>1220.5</ele><time>2026-05-02T16:34:28.987Z</time></trkpt><trkpt lat="42.2633411" lon="13.2383902"><ele>1218.6666666666667</ele><time>2026-05-02T16:34:29.988Z</time></trkpt><trkpt lat="42.2633883" lon="13.2382952"><ele>1216.8333333333333</ele><time>2026-05-02T16:34:30.988Z</time></trkpt><trkpt lat="42.2634492" lon="13.2381999"><ele>1215.0</ele><time>2026-05-02T16:34:31.988Z</time></trkpt><trkpt lat="42.2635109" lon="13.2381034"><ele>1213.8333333333333</ele><time>2026-05-02T16:34:32.988Z</time></trkpt><trkpt lat="42.2635692" lon="13.2380037"><ele>1212.6666666666667</ele><time>2026-05-02T16:34:33.987Z</time></trkpt><trkpt lat="42.2636281" lon="13.2379088"><ele>1211.5</ele><time>2026-05-02T16:34:34.988Z</time></trkpt><trkpt lat="42.2636856" lon="13.2378291"><ele>1210.3333333333335</ele><time>2026-05-02T16:34:35.988Z</time></trkpt><trkpt lat="42.2637327" lon="13.2377581"><ele>1209.1666666666667</ele><time>2026-05-02T16:34:36.988Z</time></trkpt><trkpt lat="42.2638015" lon="13.2376606"><ele>1208.0</ele><time>2026-05-02T16:34:38.988Z</time></trkpt><trkpt lat="42.2638855" lon="13.2376341"><ele>1208.8</ele><time>2026-05-02T16:34:40.988Z</time></trkpt><trkpt lat="42.2639858" lon="13.2376146"><ele>1209.6</ele><time>2026-05-02T16:34:42.987Z</time></trkpt><trkpt lat="42.2640466" lon="13.237577"><ele>1210.4</ele><time>2026-05-02T16:34:43.988Z</time></trkpt><trkpt lat="42.2641288" lon="13.2375075"><ele>1211.2</ele><time>2026-05-02T16:34:44.988Z</time></trkpt><trkpt lat="42.264227" lon="13.2374416"><ele>1212.0</ele><time>2026-05-02T16:34:45.988Z</time></trkpt><trkpt lat="42.2643398" lon="13.2373897"><ele>1212.0</ele><time>2026-05-02T16:34:46.988Z</time></trkpt><trkpt lat="42.2644538" lon="13.2373595"><ele>1212.0</ele><time>2026-05-02T16:34:47.988Z</time></trkpt><trkpt lat="42.2645441" lon="13.2373653"><ele>1212.0</ele><time>2026-05-02T16:34:48.988Z</time></trkpt><trkpt lat="42.2646233" lon="13.2373917"><ele>1212.0</ele><time>2026-05-02T16:34:49.988Z</time></trkpt><trkpt lat="42.2646944" lon="13.2374435"><ele>1212.0</ele><time>2026-05-02T16:34:50.988Z</time></trkpt><trkpt lat="42.2647609" lon="13.23751"><ele>1212.6</ele><time>2026-05-02T16:34:51.988Z</time></trkpt><trkpt lat="42.2648221" lon="13.237595"><ele>1213.2</ele><time>2026-05-02T16:34:52.987Z</time></trkpt><trkpt lat="42.2648855" lon="13.2376807"><ele>1213.8</ele><time>2026-05-02T16:34:53.987Z</time></trkpt><trkpt lat="42.2649576" lon="13.2377638"><ele>1214.4</ele><time>2026-05-02T16:34:54.988Z</time></trkpt><trkpt lat="42.2650388" lon="13.2378457"><ele>1215.0</ele><time>2026-05-02T16:34:55.988Z</time></trkpt><trkpt lat="42.2651315" lon="13.2379215"><ele>1215.0</ele><time>2026-05-02T16:34:56.988Z</time></trkpt><trkpt lat="42.2652064" lon="13.2380053"><ele>1215.0</ele><time>2026-05-02T16:34:57.988Z</time></trkpt><trkpt lat="42.2652713" lon="13.2381099"><ele>1215.0</ele><time>2026-05-02T16:34:58.988Z</time></trkpt><trkpt lat="42.2653271" lon="13.2382307"><ele>1215.0</ele><time>2026-05-02T16:34:59.988Z</time></trkpt><trkpt lat="42.2653811" lon="13.2383594"><ele>1215.0</ele><time>2026-05-02T16:35:00.988Z</time></trkpt><trkpt lat="42.2654386" lon="13.238489"><ele>1215.0</ele><time>2026-05-02T16:35:01.988Z</time></trkpt><trkpt lat="42.2655022" lon="13.2386166"><ele>1215.0</ele><time>2026-05-02T16:35:02.988Z</time></trkpt><trkpt lat="42.2655678" lon="13.2387466"><ele>1215.0</ele><time>2026-05-02T16:35:03.988Z</time></trkpt><trkpt lat="42.2656318" lon="13.2388778"><ele>1215.0</ele><time>2026-05-02T16:35:04.988Z</time></trkpt><trkpt lat="42.2656866" lon="13.2389973"><ele>1212.6</ele><time>2026-05-02T16:35:05.988Z</time></trkpt><trkpt lat="42.2657374" lon="13.2391133"><ele>1210.2</ele><time>2026-05-02T16:35:06.988Z</time></trkpt><trkpt lat="42.2657777" lon="13.2392404"><ele>1207.8</ele><time>2026-05-02T16:35:07.988Z</time></trkpt><trkpt lat="42.2658119" lon="13.2393723"><ele>1205.4</ele><time>2026-05-02T16:35:08.987Z</time></trkpt><trkpt lat="42.2658573" lon="13.2395081"><ele>1203.0</ele><time>2026-05-02T16:35:09.988Z</time></trkpt><trkpt lat="42.2659149" lon="13.2396355"><ele>1203.0</ele><time>2026-05-02T16:35:10.988Z</time></trkpt><trkpt lat="42.265989" lon="13.2397571"><ele>1203.0</ele><time>2026-05-02T16:35:11.988Z</time></trkpt><trkpt lat="42.2660731" lon="13.2398804"><ele>1203.0</ele><time>2026-05-02T16:35:12.988Z</time></trkpt><trkpt lat="42.2661631" lon="13.2400057"><ele>1203.0</ele><time>2026-05-02T16:35:13.988Z</time></trkpt><trkpt lat="42.2662527" lon="13.240133"><ele>1201.5</ele><time>2026-05-02T16:35:14.987Z</time></trkpt><trkpt lat="42.2663446" lon="13.2402558"><ele>1200.0</ele><time>2026-05-02T16:35:15.987Z</time></trkpt><trkpt lat="42.2664379" lon="13.2403662"><ele>1198.5</ele><time>2026-05-02T16:35:16.988Z</time></trkpt><trkpt lat="42.2665406" lon="13.2404621"><ele>1197.0</ele><time>2026-05-02T16:35:17.988Z</time></trkpt><trkpt lat="42.2666541" lon="13.2405458"><ele>1197.0</ele><time>2026-05-02T16:35:18.988Z</time></trkpt><trkpt lat="42.2667747" lon="13.2406196"><ele>1197.0</ele><time>2026-05-02T16:35:19.987Z</time></trkpt><trkpt lat="42.2669019" lon="13.240688"><ele>1197.0</ele><time>2026-05-02T16:35:20.988Z</time></trkpt><trkpt lat="42.267035" lon="13.2407512"><ele>1197.0</ele><time>2026-05-02T16:35:21.988Z</time></trkpt><trkpt lat="42.2671693" lon="13.2408008"><ele>1193.75</ele><time>2026-05-02T16:35:22.988Z</time></trkpt><trkpt lat="42.2673002" lon="13.2408391"><ele>1190.5</ele><time>2026-05-02T16:35:23.988Z</time></trkpt><trkpt lat="42.2674226" lon="13.2408795"><ele>1187.25</ele><time>2026-05-02T16:35:24.988Z</time></trkpt><trkpt lat="42.2675381" lon="13.2409224"><ele>1184.0</ele><time>2026-05-02T16:35:25.988Z</time></trkpt><trkpt lat="42.2676412" lon="13.2409803"><ele>1184.0</ele><time>2026-05-02T16:35:26.988Z</time></trkpt><trkpt lat="42.2677421" lon="13.2410473"><ele>1184.0</ele><time>2026-05-02T16:35:27.988Z</time></trkpt><trkpt lat="42.2678318" lon="13.2411213"><ele>1184.0</ele><time>2026-05-02T16:35:28.988Z</time></trkpt><trkpt lat="42.2679015" lon="13.2412073"><ele>1184.0</ele><time>2026-05-02T16:35:29.988Z</time></trkpt><trkpt lat="42.2679382" lon="13.2413119"><ele>1184.0</ele><time>2026-05-02T16:35:30.988Z</time></trkpt><trkpt lat="42.2679526" lon="13.2414379"><ele>1183.2</ele><time>2026-05-02T16:35:31.988Z</time></trkpt><trkpt lat="42.2679552" lon="13.2415788"><ele>1182.4</ele><time>2026-05-02T16:35:32.988Z</time></trkpt><trkpt lat="42.2679575" lon="13.2417327"><ele>1181.6</ele><time>2026-05-02T16:35:33.988Z</time></trkpt><trkpt lat="42.2679594" lon="13.2418915"><ele>1180.8</ele><time>2026-05-02T16:35:34.988Z</time></trkpt><trkpt lat="42.2679719" lon="13.2420389"><ele>1180.0</ele><time>2026-05-02T16:35:35.988Z</time></trkpt><trkpt lat="42.2679965" lon="13.2421951"><ele>1179.75</ele><time>2026-05-02T16:35:36.988Z</time></trkpt><trkpt lat="42.2680319" lon="13.2423512"><ele>1179.5</ele><time>2026-05-02T16:35:37.988Z</time></trkpt><trkpt lat="42.2680712" lon="13.2425016"><ele>1179.25</ele><time>2026-05-02T16:35:38.988Z</time></trkpt><trkpt lat="42.2681091" lon="13.2426443"><ele>1179.0</ele><time>2026-05-02T16:35:39.988Z</time></trkpt><trkpt lat="42.2681498" lon="13.2427677"><ele>1179.0</ele><time>2026-05-02T16:35:40.987Z</time></trkpt><trkpt lat="42.2681999" lon="13.2428675"><ele>1179.0</ele><time>2026-05-02T16:35:41.988Z</time></trkpt><trkpt lat="42.268267" lon="13.2429405"><ele>1179.0</ele><time>2026-05-02T16:35:42.988Z</time></trkpt><trkpt lat="42.2683441" lon="13.2429896"><ele>1179.0</ele><time>2026-05-02T16:35:43.988Z</time></trkpt><trkpt lat="42.2684383" lon="13.2430093"><ele>1179.0</ele><time>2026-05-02T16:35:44.988Z</time></trkpt><trkpt lat="42.2685459" lon="13.2430157"><ele>1179.0</ele><time>2026-05-02T16:35:45.988Z</time></trkpt><trkpt lat="42.2686576" lon="13.2430138"><ele>1179.0</ele><time>2026-05-02T16:35:46.988Z</time></trkpt><trkpt lat="42.268771" lon="13.2430211"><ele>1179.0</ele><time>2026-05-02T16:35:47.988Z</time></trkpt><trkpt lat="42.2688856" lon="13.2430501"><ele>1179.0</ele><time>2026-05-02T16:35:48.988Z</time></trkpt><trkpt lat="42.2689982" lon="13.2430906"><ele>1180.6000000000001</ele><time>2026-05-02T16:35:49.988Z</time></trkpt><trkpt lat="42.2691103" lon="13.2431458"><ele>1182.2</ele><time>2026-05-02T16:35:50.988Z</time></trkpt><trkpt lat="42.2692151" lon="13.2432109"><ele>1183.8000000000002</ele><time>2026-05-02T16:35:51.988Z</time></trkpt><trkpt lat="42.269317" lon="13.2432631"><ele>1185.4</ele><time>2026-05-02T16:35:52.988Z</time></trkpt><trkpt lat="42.2694099" lon="13.2432936"><ele>1187.0</ele><time>2026-05-02T16:35:53.988Z</time></trkpt><trkpt lat="42.2694985" lon="13.2433247"><ele>1187.0</ele><time>2026-05-02T16:35:54.988Z</time></trkpt><trkpt lat="42.2695838" lon="13.2433558"><ele>1187.0</ele><time>2026-05-02T16:35:55.988Z</time></trkpt><trkpt lat="42.2696736" lon="13.2433764"><ele>1187.0</ele><time>2026-05-02T16:35:56.988Z</time></trkpt><trkpt lat="42.2697653" lon="13.2433772"><ele>1187.0</ele><time>2026-05-02T16:35:57.987Z</time></trkpt><trkpt lat="42.2698591" lon="13.2433661"><ele>1187.0</ele><time>2026-05-02T16:35:58.988Z</time></trkpt><trkpt lat="42.2699564" lon="13.2433326"><ele>1188.2</ele><time>2026-05-02T16:35:59.987Z</time></trkpt><trkpt lat="42.2700487" lon="13.2432886"><ele>1189.4</ele><time>2026-05-02T16:36:00.988Z</time></trkpt><trkpt lat="42.2701334" lon="13.2432086"><ele>1190.6</ele><time>2026-05-02T16:36:01.988Z</time></trkpt><trkpt lat="42.270224" lon="13.2431266"><ele>1191.8</ele><time>2026-05-02T16:36:02.988Z</time></trkpt><trkpt lat="42.2703" lon="13.243027"><ele>1193.0</ele><time>2026-05-02T16:36:03.988Z</time></trkpt><trkpt lat="42.2703816" lon="13.2429261"><ele>1193.5</ele><time>2026-05-02T16:36:04.987Z</time></trkpt><trkpt lat="42.270477" lon="13.2428427"><ele>1194.0</ele><time>2026-05-02T16:36:05.988Z</time></trkpt><trkpt lat="42.2705775" lon="13.242772"><ele>1194.5</ele><time>2026-05-02T16:36:06.988Z</time></trkpt><trkpt lat="42.270688" lon="13.2427049"><ele>1195.0</ele><time>2026-05-02T16:36:07.988Z</time></trkpt><trkpt lat="42.270798" lon="13.2426301"><ele>1193.75</ele><time>2026-05-02T16:36:08.987Z</time></trkpt><trkpt lat="42.2709085" lon="13.2425528"><ele>1192.5</ele><time>2026-05-02T16:36:09.988Z</time></trkpt><trkpt lat="42.2710232" lon="13.2424808"><ele>1191.25</ele><time>2026-05-02T16:36:10.988Z</time></trkpt><trkpt lat="42.2711295" lon="13.2424016"><ele>1190.0</ele><time>2026-05-02T16:36:11.987Z</time></trkpt><trkpt lat="42.2712394" lon="13.2423247"><ele>1189.25</ele><time>2026-05-02T16:36:12.988Z</time></trkpt><trkpt lat="42.2713471" lon="13.2422608"><ele>1188.5</ele><time>2026-05-02T16:36:13.987Z</time></trkpt><trkpt lat="42.2714519" lon="13.2421912"><ele>1187.75</ele><time>2026-05-02T16:36:14.987Z</time></trkpt><trkpt lat="42.2715547" lon="13.2421246"><ele>1187.0</ele><time>2026-05-02T16:36:15.988Z</time></trkpt><trkpt lat="42.2716455" lon="13.2420393"><ele>1187.0</ele><time>2026-05-02T16:36:16.988Z</time></trkpt><trkpt lat="42.2717297" lon="13.2419417"><ele>1187.0</ele><time>2026-05-02T16:36:17.988Z</time></trkpt><trkpt lat="42.2718126" lon="13.2418476"><ele>1187.0</ele><time>2026-05-02T16:36:18.988Z</time></trkpt><trkpt lat="42.2718897" lon="13.2417589"><ele>1187.0</ele><time>2026-05-02T16:36:19.988Z</time></trkpt><trkpt lat="42.2719617" lon="13.2416866"><ele>1187.0</ele><time>2026-05-02T16:36:20.988Z</time></trkpt><trkpt lat="42.2720293" lon="13.2416269"><ele>1187.0</ele><time>2026-05-02T16:36:21.988Z</time></trkpt><trkpt lat="42.2720976" lon="13.2415713"><ele>1187.0</ele><time>2026-05-02T16:36:22.988Z</time></trkpt><trkpt lat="42.2721722" lon="13.2415502"><ele>1187.0</ele><time>2026-05-02T16:36:23.988Z</time></trkpt><trkpt lat="42.2722533" lon="13.241529"><ele>1187.0</ele><time>2026-05-02T16:36:24.988Z</time></trkpt><trkpt lat="42.2723404" lon="13.241513"><ele>1187.0</ele><time>2026-05-02T16:36:25.988Z</time></trkpt><trkpt lat="42.2724336" lon="13.2415203"><ele>1187.0</ele><time>2026-05-02T16:36:26.988Z</time></trkpt><trkpt lat="42.2725377" lon="13.2415393"><ele>1185.75</ele><time>2026-05-02T16:36:27.988Z</time></trkpt><trkpt lat="42.2726534" lon="13.2415632"><ele>1184.5</ele><time>2026-05-02T16:36:28.988Z</time></trkpt><trkpt lat="42.272772" lon="13.2415855"><ele>1183.25</ele><time>2026-05-02T16:36:29.988Z</time></trkpt><trkpt lat="42.2728852" lon="13.2416112"><ele>1182.0</ele><time>2026-05-02T16:36:30.988Z</time></trkpt><trkpt lat="42.2729969" lon="13.2416295"><ele>1182.0</ele><time>2026-05-02T16:36:31.988Z</time></trkpt><trkpt lat="42.2731045" lon="13.2416453"><ele>1182.0</ele><time>2026-05-02T16:36:32.987Z</time></trkpt><trkpt lat="42.2732073" lon="13.2416603"><ele>1182.0</ele><time>2026-05-02T16:36:33.988Z</time></trkpt><trkpt lat="42.2733043" lon="13.241665"><ele>1182.0</ele><time>2026-05-02T16:36:34.988Z</time></trkpt><trkpt lat="42.273388" lon="13.2416665"><ele>1182.0</ele><time>2026-05-02T16:36:35.988Z</time></trkpt><trkpt lat="42.2734571" lon="13.2416736"><ele>1181.5</ele><time>2026-05-02T16:36:36.988Z</time></trkpt><trkpt lat="42.2735226" lon="13.241696"><ele>1181.0</ele><time>2026-05-02T16:36:37.988Z</time></trkpt><trkpt lat="42.2735867" lon="13.2417378"><ele>1180.5</ele><time>2026-05-02T16:36:38.988Z</time></trkpt><trkpt lat="42.2736479" lon="13.2418035"><ele>1180.0</ele><time>2026-05-02T16:36:39.988Z</time></trkpt><trkpt lat="42.2737121" lon="13.241888"><ele>1179.5</ele><time>2026-05-02T16:36:40.988Z</time></trkpt><trkpt lat="42.2737833" lon="13.2419753"><ele>1179.0</ele><time>2026-05-02T16:36:41.988Z</time></trkpt><trkpt lat="42.273861" lon="13.2420568"><ele>1179.0</ele><time>2026-05-02T16:36:42.988Z</time></trkpt><trkpt lat="42.2739355" lon="13.2421286"><ele>1179.0</ele><time>2026-05-02T16:36:43.988Z</time></trkpt><trkpt lat="42.274001" lon="13.2421859"><ele>1179.0</ele><time>2026-05-02T16:36:44.988Z</time></trkpt><trkpt lat="42.2740582" lon="13.2422273"><ele>1179.0</ele><time>2026-05-02T16:36:45.987Z</time></trkpt><trkpt lat="42.2741516" lon="13.2423124"><ele>1179.0</ele><time>2026-05-02T16:36:47.988Z</time></trkpt><trkpt lat="42.2742194" lon="13.2424465"><ele>1180.8333333333333</ele><time>2026-05-02T16:36:49.988Z</time></trkpt><trkpt lat="42.2742409" lon="13.2425507"><ele>1182.6666666666667</ele><time>2026-05-02T16:36:51.988Z</time></trkpt><trkpt lat="42.2742397" lon="13.2426618"><ele>1184.5</ele><time>2026-05-02T16:36:54.987Z</time></trkpt><trkpt lat="42.2742581" lon="13.2427721"><ele>1186.3333333333335</ele><time>2026-05-02T16:36:56.988Z</time></trkpt><trkpt lat="42.2742813" lon="13.2429101"><ele>1188.1666666666667</ele><time>2026-05-02T16:36:58.988Z</time></trkpt><trkpt lat="42.2742925" lon="13.2430321"><ele>1190.0</ele><time>2026-05-02T16:41:56.988Z</time></trkpt><trkpt lat="42.2743205" lon="13.2431189"><ele>1189.6666666666667</ele><time>2026-05-02T16:41:58.987Z</time></trkpt><trkpt lat="42.2743636" lon="13.2432056"><ele>1189.3333333333335</ele><time>2026-05-02T16:42:00.988Z</time></trkpt><trkpt lat="42.2744243" lon="13.2432923"><ele>1189.0</ele><time>2026-05-02T16:42:02.988Z</time></trkpt><trkpt lat="42.2745081" lon="13.2433809"><ele>1188.6666666666667</ele><time>2026-05-02T16:42:04.988Z</time></trkpt><trkpt lat="42.2745824" lon="13.2434404"><ele>1188.3333333333333</ele><time>2026-05-02T16:42:06.988Z</time></trkpt><trkpt lat="42.2746467" lon="13.2434737"><ele>1188.0</ele><time>2026-05-02T16:42:24.988Z</time></trkpt><trkpt lat="42.2747153" lon="13.2435069"><ele>1190.5</ele><time>2026-05-02T16:42:43.988Z</time></trkpt><trkpt lat="42.2747822" lon="13.2435506"><ele>1193.0</ele><time>2026-05-02T16:44:49.987Z</time></trkpt><trkpt lat="42.2748506" lon="13.2436035"><ele>1195.5</ele><time>2026-05-02T16:44:51.987Z</time></trkpt><trkpt lat="42.2749379" lon="13.2436793"><ele>1198.0</ele><time>2026-05-02T16:44:53.987Z</time></trkpt><trkpt lat="42.2750463" lon="13.2437644"><ele>1200.5</ele><time>2026-05-02T16:44:55.988Z</time></trkpt><trkpt lat="42.2751004" lon="13.2438081"><ele>1203.0</ele><time>2026-05-02T16:44:56.988Z</time></trkpt><trkpt lat="42.2751578" lon="13.2438566"><ele>1202.4</ele><time>2026-05-02T16:44:57.988Z</time></trkpt><trkpt lat="42.275257" lon="13.2439668"><ele>1201.8</ele><time>2026-05-02T16:44:59.988Z</time></trkpt><trkpt lat="42.2753242" lon="13.2440271"><ele>1201.2</ele><time>2026-05-02T16:45:00.988Z</time></trkpt><trkpt lat="42.2754052" lon="13.244071"><ele>1200.6</ele><time>2026-05-02T16:45:01.988Z</time></trkpt><trkpt lat="42.2754713" lon="13.2441284"><ele>1200.0</ele><time>2026-05-02T16:45:02.988Z</time></trkpt><trkpt lat="42.2755401" lon="13.2441842"><ele>1199.9999999999998</ele><time>2026-05-02T16:45:03.988Z</time></trkpt><trkpt lat="42.2755992" lon="13.2442414"><ele>1200.0</ele><time>2026-05-02T16:45:04.987Z</time></trkpt><trkpt lat="42.2756678" lon="13.2442913"><ele>1200.0</ele><time>2026-05-02T16:45:05.988Z</time></trkpt><trkpt lat="42.2757278" lon="13.2443391"><ele>1200.0</ele><time>2026-05-02T16:45:06.988Z</time></trkpt><trkpt lat="42.2757934" lon="13.2443846"><ele>1200.0</ele><time>2026-05-02T16:45:07.988Z</time></trkpt><trkpt lat="42.2758563" lon="13.2444261"><ele>1199.9999999999998</ele><time>2026-05-02T16:45:08.988Z</time></trkpt><trkpt lat="42.2759168" lon="13.2444625"><ele>1200.0</ele><time>2026-05-02T16:45:09.988Z</time></trkpt><trkpt lat="42.275989" lon="13.2444905"><ele>1201.8</ele><time>2026-05-02T16:45:10.988Z</time></trkpt><trkpt lat="42.2760805" lon="13.2445003"><ele>1203.6</ele><time>2026-05-02T16:45:11.988Z</time></trkpt><trkpt lat="42.2761505" lon="13.2445265"><ele>1205.4</ele><time>2026-05-02T16:45:12.988Z</time></trkpt><trkpt lat="42.2762603" lon="13.2445684"><ele>1207.2</ele><time>2026-05-02T16:45:14.987Z</time></trkpt><trkpt lat="42.2763676" lon="13.2446639"><ele>1209.0</ele><time>2026-05-02T16:45:16.988Z</time></trkpt><trkpt lat="42.2764307" lon="13.2447243"><ele>1208.5</ele><time>2026-05-02T16:45:17.988Z</time></trkpt><trkpt lat="42.2764993" lon="13.244791"><ele>1208.0</ele><time>2026-05-02T16:45:18.987Z</time></trkpt><trkpt lat="42.2765676" lon="13.2448573"><ele>1207.5</ele><time>2026-05-02T16:45:19.988Z</time></trkpt><trkpt lat="42.2766268" lon="13.2449166"><ele>1207.0</ele><time>2026-05-02T16:45:20.987Z</time></trkpt><trkpt lat="42.2767147" lon="13.2450041"><ele>1206.5</ele><time>2026-05-02T16:45:22.988Z</time></trkpt><trkpt lat="42.2767629" lon="13.245083"><ele>1206.0</ele><time>2026-05-02T16:45:25.988Z</time></trkpt><trkpt lat="42.2768281" lon="13.2451239"><ele>1207.3999999999999</ele><time>2026-05-02T16:45:28.988Z</time></trkpt><trkpt lat="42.2769009" lon="13.2451502"><ele>1208.8</ele><time>2026-05-02T16:45:31.988Z</time></trkpt><trkpt lat="42.2769716" lon="13.2451805"><ele>1210.1999999999998</ele><time>2026-05-02T16:46:49.988Z</time></trkpt><trkpt lat="42.2770508" lon="13.2452359"><ele>1211.6</ele><time>2026-05-02T16:46:51.988Z</time></trkpt><trkpt lat="42.277159" lon="13.2453107"><ele>1213.0</ele><time>2026-05-02T16:46:53.988Z</time></trkpt><trkpt lat="42.2772514" lon="13.2453965"><ele>1211.6666666666665</ele><time>2026-05-02T16:46:55.988Z</time></trkpt><trkpt lat="42.2772989" lon="13.2454611"><ele>1210.3333333333333</ele><time>2026-05-02T16:46:56.987Z</time></trkpt><trkpt lat="42.2773363" lon="13.2455324"><ele>1209.0</ele><time>2026-05-02T16:46:57.988Z</time></trkpt><trkpt lat="42.2774062" lon="13.2456788"><ele>1207.6666666666667</ele><time>2026-05-02T16:46:59.988Z</time></trkpt><trkpt lat="42.2774497" lon="13.2457444"><ele>1206.3333333333335</ele><time>2026-05-02T16:47:00.988Z</time></trkpt><trkpt lat="42.277505" lon="13.2457998"><ele>1205.0</ele><time>2026-05-02T16:47:01.988Z</time></trkpt><trkpt lat="42.2775641" lon="13.2458399"><ele>1205.0</ele><time>2026-05-02T16:47:02.988Z</time></trkpt><trkpt lat="42.2776352" lon="13.2458637"><ele>1205.0</ele><time>2026-05-02T16:47:03.988Z</time></trkpt><trkpt lat="42.2777093" lon="13.2458641"><ele>1205.0</ele><time>2026-05-02T16:47:04.988Z</time></trkpt><trkpt lat="42.2777999" lon="13.2458751"><ele>1205.0</ele><time>2026-05-02T16:47:05.988Z</time></trkpt><trkpt lat="42.2779022" lon="13.2458911"><ele>1205.0</ele><time>2026-05-02T16:47:06.988Z</time></trkpt><trkpt lat="42.2780004" lon="13.2459028"><ele>1205.0</ele><time>2026-05-02T16:47:07.988Z</time></trkpt><trkpt lat="42.2781052" lon="13.2459142"><ele>1202.6</ele><time>2026-05-02T16:47:08.988Z</time></trkpt><trkpt lat="42.2782081" lon="13.2459227"><ele>1200.2</ele><time>2026-05-02T16:47:09.988Z</time></trkpt><trkpt lat="42.2783095" lon="13.2459331"><ele>1197.8</ele><time>2026-05-02T16:47:10.988Z</time></trkpt><trkpt lat="42.2784098" lon="13.2459213"><ele>1195.4</ele><time>2026-05-02T16:47:11.988Z</time></trkpt><trkpt lat="42.2784977" lon="13.2458873"><ele>1193.0</ele><time>2026-05-02T16:47:12.988Z</time></trkpt><trkpt lat="42.2785856" lon="13.2458541"><ele>1193.0</ele><time>2026-05-02T16:47:13.987Z</time></trkpt><trkpt lat="42.2786732" lon="13.2458081"><ele>1193.0</ele><time>2026-05-02T16:47:14.988Z</time></trkpt><trkpt lat="42.2788491" lon="13.2457255"><ele>1193.0</ele><time>2026-05-02T16:47:16.988Z</time></trkpt><trkpt lat="42.2789457" lon="13.2456931"><ele>1193.0</ele><time>2026-05-02T16:47:17.988Z</time></trkpt><trkpt lat="42.2790449" lon="13.2456618"><ele>1192.5</ele><time>2026-05-02T16:47:18.988Z</time></trkpt><trkpt lat="42.2791492" lon="13.2456351"><ele>1192.0</ele><time>2026-05-02T16:47:19.988Z</time></trkpt><trkpt lat="42.2792611" lon="13.2456039"><ele>1191.5</ele><time>2026-05-02T16:47:20.988Z</time></trkpt><trkpt lat="42.2793737" lon="13.2455649"><ele>1191.0</ele><time>2026-05-02T16:47:21.988Z</time></trkpt><trkpt lat="42.2794936" lon="13.2455148"><ele>1191.25</ele><time>2026-05-02T16:47:22.988Z</time></trkpt><trkpt lat="42.2796126" lon="13.2454607"><ele>1191.5</ele><time>2026-05-02T16:47:23.988Z</time></trkpt><trkpt lat="42.2797317" lon="13.2454061"><ele>1191.75</ele><time>2026-05-02T16:47:24.987Z</time></trkpt><trkpt lat="42.2798527" lon="13.2453473"><ele>1192.0</ele><time>2026-05-02T16:47:25.987Z</time></trkpt><trkpt lat="42.2799746" lon="13.2452756"><ele>1192.0</ele><time>2026-05-02T16:47:26.988Z</time></trkpt><trkpt lat="42.2800858" lon="13.2451954"><ele>1192.0</ele><time>2026-05-02T16:47:27.988Z</time></trkpt><trkpt lat="42.2801988" lon="13.2451019"><ele>1192.0</ele><time>2026-05-02T16:47:28.988Z</time></trkpt><trkpt lat="42.2803072" lon="13.245009"><ele>1192.0</ele><time>2026-05-02T16:47:29.988Z</time></trkpt><trkpt lat="42.2804145" lon="13.2449198"><ele>1192.0</ele><time>2026-05-02T16:47:30.988Z</time></trkpt><trkpt lat="42.2805246" lon="13.2448467"><ele>1192.0</ele><time>2026-05-02T16:47:31.988Z</time></trkpt><trkpt lat="42.280641" lon="13.2447883"><ele>1192.0</ele><time>2026-05-02T16:47:32.988Z</time></trkpt><trkpt lat="42.2807573" lon="13.2447274"><ele>1192.0</ele><time>2026-05-02T16:47:33.988Z</time></trkpt><trkpt lat="42.2808823" lon="13.2446671"><ele>1192.6</ele><time>2026-05-02T16:47:34.988Z</time></trkpt><trkpt lat="42.2810002" lon="13.2446159"><ele>1193.2</ele><time>2026-05-02T16:47:35.988Z</time></trkpt><trkpt lat="42.2811093" lon="13.2445649"><ele>1193.8</ele><time>2026-05-02T16:47:36.988Z</time></trkpt><trkpt lat="42.2812054" lon="13.2445273"><ele>1194.4</ele><time>2026-05-02T16:47:37.988Z</time></trkpt><trkpt lat="42.2812907" lon="13.2445147"><ele>1195.0</ele><time>2026-05-02T16:47:38.988Z</time></trkpt><trkpt lat="42.281379" lon="13.2445173"><ele>1193.0</ele><time>2026-05-02T16:47:39.988Z</time></trkpt><trkpt lat="42.2814847" lon="13.2445359"><ele>1191.0</ele><time>2026-05-02T16:47:40.988Z</time></trkpt><trkpt lat="42.2816013" lon="13.2445707"><ele>1189.0</ele><time>2026-05-02T16:47:41.988Z</time></trkpt><trkpt lat="42.2817215" lon="13.2446073"><ele>1187.0</ele><time>2026-05-02T16:47:42.988Z</time></trkpt><trkpt lat="42.2818322" lon="13.244644"><ele>1187.0</ele><time>2026-05-02T16:47:43.988Z</time></trkpt><trkpt lat="42.2819356" lon="13.2446776"><ele>1187.0</ele><time>2026-05-02T16:47:44.988Z</time></trkpt><trkpt lat="42.2820256" lon="13.2446969"><ele>1187.0</ele><time>2026-05-02T16:47:45.987Z</time></trkpt><trkpt lat="42.2821018" lon="13.2446984"><ele>1187.0</ele><time>2026-05-02T16:47:46.988Z</time></trkpt><trkpt lat="42.2821669" lon="13.2446861"><ele>1187.0</ele><time>2026-05-02T16:47:47.988Z</time></trkpt><trkpt lat="42.2822758" lon="13.2446096"><ele>1186.0</ele><time>2026-05-02T16:47:49.988Z</time></trkpt><trkpt lat="42.2822972" lon="13.244516"><ele>1185.0</ele><time>2026-05-02T16:47:50.987Z</time></trkpt><trkpt lat="42.2823247" lon="13.2444077"><ele>1184.0</ele><time>2026-05-02T16:47:51.988Z</time></trkpt><trkpt lat="42.2823501" lon="13.2442956"><ele>1183.0</ele><time>2026-05-02T16:47:52.988Z</time></trkpt><trkpt lat="42.2823915" lon="13.2441799"><ele>1182.0</ele><time>2026-05-02T16:47:53.988Z</time></trkpt><trkpt lat="42.2824568" lon="13.2440783"><ele>1181.0</ele><time>2026-05-02T16:47:54.988Z</time></trkpt><trkpt lat="42.2825323" lon="13.2439752"><ele>1182.2</ele><time>2026-05-02T16:47:55.988Z</time></trkpt><trkpt lat="42.2826133" lon="13.2438691"><ele>1183.3999999999999</ele><time>2026-05-02T16:47:56.988Z</time></trkpt><trkpt lat="42.2826925" lon="13.2437731"><ele>1184.6</ele><time>2026-05-02T16:47:57.988Z</time></trkpt><trkpt lat="42.2827674" lon="13.243691"><ele>1185.8</ele><time>2026-05-02T16:47:58.987Z</time></trkpt><trkpt lat="42.2828423" lon="13.2436051"><ele>1187.0</ele><time>2026-05-02T16:47:59.988Z</time></trkpt><trkpt lat="42.2828901" lon="13.2435118"><ele>1187.0</ele><time>2026-05-02T16:48:00.988Z</time></trkpt><trkpt lat="42.2829404" lon="13.2434155"><ele>1187.0</ele><time>2026-05-02T16:48:01.988Z</time></trkpt><trkpt lat="42.2829727" lon="13.2433067"><ele>1187.0</ele><time>2026-05-02T16:48:02.988Z</time></trkpt><trkpt lat="42.2829976" lon="13.243186"><ele>1187.0</ele><time>2026-05-02T16:48:03.988Z</time></trkpt><trkpt lat="42.2830019" lon="13.2430595"><ele>1187.0</ele><time>2026-05-02T16:48:04.988Z</time></trkpt><trkpt lat="42.2829872" lon="13.242928"><ele>1185.75</ele><time>2026-05-02T16:48:05.988Z</time></trkpt><trkpt lat="42.2829565" lon="13.2427758"><ele>1184.5</ele><time>2026-05-02T16:48:06.987Z</time></trkpt><trkpt lat="42.282915" lon="13.2426178"><ele>1183.25</ele><time>2026-05-02T16:48:07.988Z</time></trkpt><trkpt lat="42.2828785" lon="13.2424635"><ele>1182.0</ele><time>2026-05-02T16:48:08.988Z</time></trkpt><trkpt lat="42.2828489" lon="13.2423154"><ele>1181.0</ele><time>2026-05-02T16:48:09.988Z</time></trkpt><trkpt lat="42.2828332" lon="13.2421862"><ele>1180.0</ele><time>2026-05-02T16:48:10.988Z</time></trkpt><trkpt lat="42.2828292" lon="13.2420759"><ele>1179.0</ele><time>2026-05-02T16:48:11.988Z</time></trkpt><trkpt lat="42.2828363" lon="13.2419861"><ele>1178.0</ele><time>2026-05-02T16:48:12.988Z</time></trkpt><trkpt lat="42.2828926" lon="13.2418565"><ele>1177.0</ele><time>2026-05-02T16:48:14.988Z</time></trkpt><trkpt lat="42.2829922" lon="13.2418151"><ele>1177.0</ele><time>2026-05-02T16:48:16.988Z</time></trkpt><trkpt lat="42.2830563" lon="13.2418155"><ele>1177.0</ele><time>2026-05-02T16:48:17.988Z</time></trkpt><trkpt lat="42.2831335" lon="13.2418224"><ele>1177.0</ele><time>2026-05-02T16:48:18.988Z</time></trkpt><trkpt lat="42.2832163" lon="13.2418322"><ele>1177.0</ele><time>2026-05-02T16:48:19.988Z</time></trkpt><trkpt lat="42.283307" lon="13.2418496"><ele>1177.0</ele><time>2026-05-02T16:48:20.988Z</time></trkpt><trkpt lat="42.2834001" lon="13.2418689"><ele>1177.0</ele><time>2026-05-02T16:48:21.988Z</time></trkpt><trkpt lat="42.2835007" lon="13.2418873"><ele>1178.6</ele><time>2026-05-02T16:48:22.987Z</time></trkpt><trkpt lat="42.2836006" lon="13.2418914"><ele>1180.2</ele><time>2026-05-02T16:48:23.987Z</time></trkpt><trkpt lat="42.2836967" lon="13.2418827"><ele>1181.8</ele><time>2026-05-02T16:48:24.988Z</time></trkpt><trkpt lat="42.2837842" lon="13.241858"><ele>1183.4</ele><time>2026-05-02T16:48:25.988Z</time></trkpt><trkpt lat="42.283873" lon="13.2418136"><ele>1185.0</ele><time>2026-05-02T16:48:26.988Z</time></trkpt><trkpt lat="42.2839664" lon="13.2417456"><ele>1186.0</ele><time>2026-05-02T16:48:27.988Z</time></trkpt><trkpt lat="42.2840615" lon="13.2416586"><ele>1187.0</ele><time>2026-05-02T16:48:28.988Z</time></trkpt><trkpt lat="42.2841678" lon="13.2415646"><ele>1188.0</ele><time>2026-05-02T16:48:29.987Z</time></trkpt><trkpt lat="42.2842858" lon="13.241468"><ele>1189.0</ele><time>2026-05-02T16:48:30.988Z</time></trkpt><trkpt lat="42.2844066" lon="13.2413752"><ele>1189.5</ele><time>2026-05-02T16:48:31.987Z</time></trkpt><trkpt lat="42.2845213" lon="13.2412892"><ele>1190.0</ele><time>2026-05-02T16:48:32.987Z</time></trkpt><trkpt lat="42.2846422" lon="13.2411814"><ele>1190.5</ele><time>2026-05-02T16:48:33.988Z</time></trkpt><trkpt lat="42.2847537" lon="13.2410474"><ele>1191.0</ele><time>2026-05-02T16:48:34.987Z</time></trkpt><trkpt lat="42.2848614" lon="13.2408953"><ele>1191.0</ele><time>2026-05-02T16:48:35.988Z</time></trkpt><trkpt lat="42.2849739" lon="13.2407481"><ele>1191.0</ele><time>2026-05-02T16:48:36.987Z</time></trkpt><trkpt lat="42.2850932" lon="13.2406135"><ele>1191.0</ele><time>2026-05-02T16:48:37.988Z</time></trkpt><trkpt lat="42.2852212" lon="13.2404876"><ele>1196.6666666666667</ele><time>2026-05-02T16:48:38.988Z</time></trkpt><trkpt lat="42.285361" lon="13.2403803"><ele>1202.3333333333335</ele><time>2026-05-02T16:48:39.988Z</time></trkpt><trkpt lat="42.2855123" lon="13.2402883"><ele>1208.0</ele><time>2026-05-02T16:48:40.988Z</time></trkpt><trkpt lat="42.2856669" lon="13.240196"><ele>1208.0</ele><time>2026-05-02T16:48:41.988Z</time></trkpt><trkpt lat="42.2858233" lon="13.240092"><ele>1208.0</ele><time>2026-05-02T16:48:42.987Z</time></trkpt><trkpt lat="42.2859792" lon="13.2399894"><ele>1208.0</ele><time>2026-05-02T16:48:43.988Z</time></trkpt><trkpt lat="42.2861388" lon="13.2399065"><ele>1208.0</ele><time>2026-05-02T16:48:44.987Z</time></trkpt><trkpt lat="42.2862961" lon="13.2398238"><ele>1208.0</ele><time>2026-05-02T16:48:45.988Z</time></trkpt><trkpt lat="42.286444" lon="13.2397403"><ele>1208.0</ele><time>2026-05-02T16:48:46.988Z</time></trkpt><trkpt lat="42.2865766" lon="13.2396642"><ele>1213.25</ele><time>2026-05-02T16:48:47.988Z</time></trkpt><trkpt lat="42.2866995" lon="13.23963"><ele>1218.5</ele><time>2026-05-02T16:48:48.988Z</time></trkpt><trkpt lat="42.2868273" lon="13.2396329"><ele>1223.75</ele><time>2026-05-02T16:48:49.987Z</time></trkpt><trkpt lat="42.2869513" lon="13.239651"><ele>1229.0</ele><time>2026-05-02T16:48:50.987Z</time></trkpt><trkpt lat="42.2870803" lon="13.2396583"><ele>1229.0</ele><time>2026-05-02T16:48:51.987Z</time></trkpt><trkpt lat="42.287208" lon="13.2396212"><ele>1229.0</ele><time>2026-05-02T16:48:52.988Z</time></trkpt><trkpt lat="42.2873402" lon="13.2396098"><ele>1229.0</ele><time>2026-05-02T16:48:53.987Z</time></trkpt><trkpt lat="42.2874616" lon="13.2396277"><ele>1229.0</ele><time>2026-05-02T16:48:54.988Z</time></trkpt><trkpt lat="42.2875645" lon="13.2396746"><ele>1228.0</ele><time>2026-05-02T16:48:55.988Z</time></trkpt><trkpt lat="42.2876496" lon="13.2397505"><ele>1227.0</ele><time>2026-05-02T16:48:56.988Z</time></trkpt><trkpt lat="42.2877287" lon="13.2398234"><ele>1226.0</ele><time>2026-05-02T16:48:57.988Z</time></trkpt><trkpt lat="42.2878074" lon="13.2398823"><ele>1225.0</ele><time>2026-05-02T16:48:58.988Z</time></trkpt><trkpt lat="42.2879215" lon="13.2398994"><ele>1224.0</ele><time>2026-05-02T16:48:59.987Z</time></trkpt><trkpt lat="42.2880361" lon="13.239805"><ele>1225.5</ele><time>2026-05-02T16:49:00.988Z</time></trkpt><trkpt lat="42.2881514" lon="13.2397532"><ele>1227.0</ele><time>2026-05-02T16:49:01.988Z</time></trkpt><trkpt lat="42.2882805" lon="13.2396656"><ele>1228.5</ele><time>2026-05-02T16:49:02.988Z</time></trkpt><trkpt lat="42.2884175" lon="13.2395995"><ele>1230.0</ele><time>2026-05-02T16:49:03.988Z</time></trkpt><trkpt lat="42.2885608" lon="13.239534"><ele>1230.0</ele><time>2026-05-02T16:49:04.987Z</time></trkpt><trkpt lat="42.2887092" lon="13.2394723"><ele>1230.0</ele><time>2026-05-02T16:49:05.988Z</time></trkpt><trkpt lat="42.2888642" lon="13.2394127"><ele>1230.0</ele><time>2026-05-02T16:49:06.987Z</time></trkpt><trkpt lat="42.2890241" lon="13.2393445"><ele>1229.5</ele><time>2026-05-02T16:49:07.988Z</time></trkpt><trkpt lat="42.2891698" lon="13.2393005"><ele>1229.0</ele><time>2026-05-02T16:49:08.988Z</time></trkpt><trkpt lat="42.2893112" lon="13.2392928"><ele>1228.5</ele><time>2026-05-02T16:49:09.988Z</time></trkpt><trkpt lat="42.2894502" lon="13.2393136"><ele>1228.0</ele><time>2026-05-02T16:49:10.988Z</time></trkpt><trkpt lat="42.2895893" lon="13.2393238"><ele>1228.0</ele><time>2026-05-02T16:49:11.987Z</time></trkpt><trkpt lat="42.2897266" lon="13.2393093"><ele>1228.0</ele><time>2026-05-02T16:49:12.988Z</time></trkpt><trkpt lat="42.2898692" lon="13.2392309"><ele>1228.0</ele><time>2026-05-02T16:49:13.988Z</time></trkpt><trkpt lat="42.2900027" lon="13.2391875"><ele>1228.0</ele><time>2026-05-02T16:49:14.988Z</time></trkpt><trkpt lat="42.290129" lon="13.239161"><ele>1229.0</ele><time>2026-05-02T16:49:15.988Z</time></trkpt><trkpt lat="42.29026" lon="13.2391862"><ele>1230.0</ele><time>2026-05-02T16:49:16.988Z</time></trkpt><trkpt lat="42.290386" lon="13.23923"><ele>1231.0</ele><time>2026-05-02T16:49:17.988Z</time></trkpt><trkpt lat="42.2905076" lon="13.2392707"><ele>1232.0</ele><time>2026-05-02T16:49:18.988Z</time></trkpt><trkpt lat="42.2906399" lon="13.2392808"><ele>1232.3333333333335</ele><time>2026-05-02T16:49:19.988Z</time></trkpt><trkpt lat="42.2907777" lon="13.2392466"><ele>1232.6666666666667</ele><time>2026-05-02T16:49:20.988Z</time></trkpt><trkpt lat="42.2909256" lon="13.2391718"><ele>1233.0</ele><time>2026-05-02T16:49:21.988Z</time></trkpt><trkpt lat="42.2910637" lon="13.2390829"><ele>1233.0</ele><time>2026-05-02T16:49:22.988Z</time></trkpt><trkpt lat="42.2912124" lon="13.2390067"><ele>1233.0</ele><time>2026-05-02T16:49:23.988Z</time></trkpt><trkpt lat="42.2913715" lon="13.2389583"><ele>1233.0</ele><time>2026-05-02T16:49:24.988Z</time></trkpt><trkpt lat="42.291535" lon="13.2389312"><ele>1243.3333333333333</ele><time>2026-05-02T16:49:25.988Z</time></trkpt><trkpt lat="42.2917014" lon="13.2388914"><ele>1253.6666666666665</ele><time>2026-05-02T16:49:26.988Z</time></trkpt><trkpt lat="42.2918624" lon="13.2388236"><ele>1264.0</ele><time>2026-05-02T16:49:27.988Z</time></trkpt><trkpt lat="42.2920236" lon="13.2387604"><ele>1264.0</ele><time>2026-05-02T16:49:28.988Z</time></trkpt><trkpt lat="42.2921896" lon="13.2387135"><ele>1264.0</ele><time>2026-05-02T16:49:29.988Z</time></trkpt><trkpt lat="42.2923551" lon="13.2386857"><ele>1264.0</ele><time>2026-05-02T16:49:30.988Z</time></trkpt><trkpt lat="42.2925213" lon="13.2386698"><ele>1262.3333333333333</ele><time>2026-05-02T16:49:31.988Z</time></trkpt><trkpt lat="42.2926829" lon="13.2386454"><ele>1260.6666666666667</ele><time>2026-05-02T16:49:32.988Z</time></trkpt><trkpt lat="42.2928384" lon="13.2385967"><ele>1259.0</ele><time>2026-05-02T16:49:33.987Z</time></trkpt><trkpt lat="42.2929934" lon="13.2385216"><ele>1255.3333333333335</ele><time>2026-05-02T16:49:34.988Z</time></trkpt><trkpt lat="42.2931458" lon="13.2384208"><ele>1251.6666666666667</ele><time>2026-05-02T16:49:35.988Z</time></trkpt><trkpt lat="42.2933011" lon="13.238314"><ele>1248.0</ele><time>2026-05-02T16:49:36.988Z</time></trkpt><trkpt lat="42.2934617" lon="13.2382117"><ele>1254.6666666666667</ele><time>2026-05-02T16:49:37.988Z</time></trkpt><trkpt lat="42.2936223" lon="13.2381159"><ele>1261.3333333333335</ele><time>2026-05-02T16:49:38.988Z</time></trkpt><trkpt lat="42.2937849" lon="13.2380248"><ele>1268.0</ele><time>2026-05-02T16:49:39.988Z</time></trkpt><trkpt lat="42.2939452" lon="13.2379296"><ele>1268.0</ele><time>2026-05-02T16:49:40.988Z</time></trkpt><trkpt lat="42.294107" lon="13.2378371"><ele>1268.0</ele><time>2026-05-02T16:49:41.987Z</time></trkpt><trkpt lat="42.2942654" lon="13.2377385"><ele>1268.0</ele><time>2026-05-02T16:49:42.988Z</time></trkpt><trkpt lat="42.2944189" lon="13.2376417"><ele>1268.0</ele><time>2026-05-02T16:49:43.988Z</time></trkpt><trkpt lat="42.2945583" lon="13.2375534"><ele>1268.0</ele><time>2026-05-02T16:49:44.988Z</time></trkpt><trkpt lat="42.2946958" lon="13.2374738"><ele>1268.0</ele><time>2026-05-02T16:49:45.988Z</time></trkpt><trkpt lat="42.2948506" lon="13.2374219"><ele>1265.0</ele><time>2026-05-02T16:49:46.987Z</time></trkpt><trkpt lat="42.2950187" lon="13.237386"><ele>1262.0</ele><time>2026-05-02T16:49:47.987Z</time></trkpt><trkpt lat="42.2951934" lon="13.2373516"><ele>1259.0</ele><time>2026-05-02T16:49:48.988Z</time></trkpt><trkpt lat="42.2953736" lon="13.2373112"><ele>1271.0</ele><time>2026-05-02T16:49:49.987Z</time></trkpt><trkpt lat="42.2955534" lon="13.2372699"><ele>1283.0</ele><time>2026-05-02T16:49:50.988Z</time></trkpt><trkpt lat="42.2957371" lon="13.2372236"><ele>1295.0</ele><time>2026-05-02T16:49:51.988Z</time></trkpt><trkpt lat="42.2959149" lon="13.2371931"><ele>1295.0</ele><time>2026-05-02T16:49:52.988Z</time></trkpt><trkpt lat="42.2960737" lon="13.2371647"><ele>1295.0</ele><time>2026-05-02T16:49:53.988Z</time></trkpt><trkpt lat="42.2962345" lon="13.2371362"><ele>1295.0</ele><time>2026-05-02T16:49:54.988Z</time></trkpt><trkpt lat="42.2963894" lon="13.2371174"><ele>1292.3333333333335</ele><time>2026-05-02T16:49:55.988Z</time></trkpt><trkpt lat="42.2965496" lon="13.2371024"><ele>1289.6666666666667</ele><time>2026-05-02T16:49:56.988Z</time></trkpt><trkpt lat="42.2967041" lon="13.2370929"><ele>1287.0</ele><time>2026-05-02T16:49:57.988Z</time></trkpt><trkpt lat="42.2968694" lon="13.2370955"><ele>1287.0</ele><time>2026-05-02T16:49:58.988Z</time></trkpt><trkpt lat="42.2970293" lon="13.2370812"><ele>1287.0</ele><time>2026-05-02T16:49:59.988Z</time></trkpt><trkpt lat="42.2971919" lon="13.237159"><ele>1287.0</ele><time>2026-05-02T16:50:00.988Z</time></trkpt><trkpt lat="42.2973578" lon="13.2371832"><ele>1289.3333333333333</ele><time>2026-05-02T16:50:01.988Z</time></trkpt><trkpt lat="42.2975206" lon="13.2372217"><ele>1291.6666666666665</ele><time>2026-05-02T16:50:02.988Z</time></trkpt><trkpt lat="42.2976796" lon="13.2372676"><ele>1294.0</ele><time>2026-05-02T16:50:03.988Z</time></trkpt><trkpt lat="42.2978337" lon="13.2373276"><ele>1289.75</ele><time>2026-05-02T16:50:04.988Z</time></trkpt><trkpt lat="42.2979732" lon="13.2373881"><ele>1285.5</ele><time>2026-05-02T16:50:05.988Z</time></trkpt><trkpt lat="42.2981034" lon="13.2374572"><ele>1281.25</ele><time>2026-05-02T16:50:06.987Z</time></trkpt><trkpt lat="42.2982246" lon="13.2375494"><ele>1277.0</ele><time>2026-05-02T16:50:07.988Z</time></trkpt><trkpt lat="42.2983246" lon="13.2376557"><ele>1277.0</ele><time>2026-05-02T16:50:08.988Z</time></trkpt><trkpt lat="42.2984168" lon="13.2377614"><ele>1277.0</ele><time>2026-05-02T16:50:09.988Z</time></trkpt><trkpt lat="42.2985105" lon="13.2378544"><ele>1277.0</ele><time>2026-05-02T16:50:10.988Z</time></trkpt><trkpt lat="42.2986142" lon="13.2379339"><ele>1277.0</ele><time>2026-05-02T16:50:11.987Z</time></trkpt><trkpt lat="42.2987326" lon="13.2379777"><ele>1277.0</ele><time>2026-05-02T16:50:12.988Z</time></trkpt><trkpt lat="42.2988539" lon="13.2379837"><ele>1277.0</ele><time>2026-05-02T16:50:13.988Z</time></trkpt><trkpt lat="42.298979" lon="13.23794"><ele>1277.0</ele><time>2026-05-02T16:50:14.988Z</time></trkpt><trkpt lat="42.2991051" lon="13.2378869"><ele>1277.0</ele><time>2026-05-02T16:50:15.988Z</time></trkpt><trkpt lat="42.2992371" lon="13.2378345"><ele>1276.75</ele><time>2026-05-02T16:50:16.988Z</time></trkpt><trkpt lat="42.2993776" lon="13.2378002"><ele>1276.5</ele><time>2026-05-02T16:50:17.988Z</time></trkpt><trkpt lat="42.2995222" lon="13.2377915"><ele>1276.25</ele><time>2026-05-02T16:50:18.988Z</time></trkpt><trkpt lat="42.2996688" lon="13.2378179"><ele>1276.0</ele><time>2026-05-02T16:50:19.988Z</time></trkpt><trkpt lat="42.29981" lon="13.2378815"><ele>1276.0</ele><time>2026-05-02T16:50:20.988Z</time></trkpt><trkpt lat="42.2999557" lon="13.2379294"><ele>1276.0</ele><time>2026-05-02T16:50:21.988Z</time></trkpt><trkpt lat="42.30011" lon="13.2379455"><ele>1276.0</ele><time>2026-05-02T16:50:22.988Z</time></trkpt><trkpt lat="42.3002683" lon="13.2379366"><ele>1276.0</ele><time>2026-05-02T16:50:23.988Z</time></trkpt><trkpt lat="42.3004225" lon="13.2378943"><ele>1276.0</ele><time>2026-05-02T16:50:24.987Z</time></trkpt><trkpt lat="42.3005718" lon="13.2378221"><ele>1276.0</ele><time>2026-05-02T16:50:25.988Z</time></trkpt><trkpt lat="42.3007291" lon="13.2377508"><ele>1276.3333333333333</ele><time>2026-05-02T16:50:26.987Z</time></trkpt><trkpt lat="42.3008881" lon="13.2377113"><ele>1276.6666666666667</ele><time>2026-05-02T16:50:27.987Z</time></trkpt><trkpt lat="42.3010501" lon="13.2377006"><ele>1277.0</ele><time>2026-05-02T16:50:28.988Z</time></trkpt><trkpt lat="42.3012181" lon="13.2377072"><ele>1277.0</ele><time>2026-05-02T16:50:29.988Z</time></trkpt><trkpt lat="42.3013891" lon="13.2377169"><ele>1277.0</ele><time>2026-05-02T16:50:30.988Z</time></trkpt><trkpt lat="42.3015639" lon="13.2377206"><ele>1277.0</ele><time>2026-05-02T16:50:31.988Z</time></trkpt><trkpt lat="42.3017467" lon="13.2377181"><ele>1275.6666666666667</ele><time>2026-05-02T16:50:32.988Z</time></trkpt><trkpt lat="42.3019312" lon="13.2377073"><ele>1274.3333333333333</ele><time>2026-05-02T16:50:33.988Z</time></trkpt><trkpt lat="42.3021175" lon="13.23769"><ele>1273.0</ele><time>2026-05-02T16:50:34.988Z</time></trkpt><trkpt lat="42.3022951" lon="13.2376721"><ele>1273.0</ele><time>2026-05-02T16:50:35.987Z</time></trkpt><trkpt lat="42.3024547" lon="13.2376587"><ele>1273.0</ele><time>2026-05-02T16:50:36.988Z</time></trkpt><trkpt lat="42.3025861" lon="13.2376681"><ele>1273.0</ele><time>2026-05-02T16:50:37.988Z</time></trkpt><trkpt lat="42.3026851" lon="13.2376927"><ele>1273.0</ele><time>2026-05-02T16:50:38.988Z</time></trkpt><trkpt lat="42.3027541" lon="13.2377226"><ele>1273.0</ele><time>2026-05-02T16:50:39.987Z</time></trkpt><trkpt lat="42.3028282" lon="13.2377683"><ele>1273.0</ele><time>2026-05-02T16:50:41.988Z</time></trkpt><trkpt lat="42.3027825" lon="13.2376865"><ele>1273.0</ele><time>2026-05-02T16:50:54.988Z</time></trkpt><trkpt lat="42.3026575" lon="13.2376505"><ele>1273.0</ele><time>2026-05-02T16:50:56.988Z</time></trkpt><trkpt lat="42.3025801" lon="13.2376362"><ele>1273.0</ele><time>2026-05-02T16:50:57.987Z</time></trkpt><trkpt lat="42.3025045" lon="13.237633"><ele>1273.0</ele><time>2026-05-02T16:50:58.987Z</time></trkpt><trkpt lat="42.3024316" lon="13.237638"><ele>1273.0</ele><time>2026-05-02T16:50:59.988Z</time></trkpt><trkpt lat="42.3023686" lon="13.237646"><ele>1273.0</ele><time>2026-05-02T16:51:00.988Z</time></trkpt><trkpt lat="42.302269" lon="13.2376618"><ele>1273.0</ele><time>2026-05-02T16:51:02.988Z</time></trkpt><trkpt lat="42.3022199" lon="13.2377442"><ele>1273.0</ele><time>2026-05-02T16:51:05.987Z</time></trkpt><trkpt lat="42.3022797" lon="13.237789"><ele>1273.0</ele><time>2026-05-02T16:51:08.988Z</time></trkpt><trkpt lat="42.3023607" lon="13.237856"><ele>1273.0</ele><time>2026-05-02T16:51:10.987Z</time></trkpt><trkpt lat="42.3024353" lon="13.2379286"><ele>1273.0</ele><time>2026-05-02T16:51:12.988Z</time></trkpt><trkpt lat="42.3024826" lon="13.2380302"><ele>1273.0</ele><time>2026-05-02T16:51:14.988Z</time></trkpt><trkpt lat="42.3025155" lon="13.2381528"><ele>1273.0</ele><time>2026-05-02T16:51:16.988Z</time></trkpt><trkpt lat="42.302551" lon="13.2382806"><ele>1273.0</ele><time>2026-05-02T16:51:18.988Z</time></trkpt><trkpt lat="42.3026188" lon="13.2384078"><ele>1273.0</ele><time>2026-05-02T16:51:20.988Z</time></trkpt><trkpt lat="42.30267" lon="13.2384679"><ele>1272.0</ele><time>2026-05-02T16:51:21.988Z</time></trkpt><trkpt lat="42.3027277" lon="13.238522"><ele>1271.0</ele><time>2026-05-02T16:51:22.988Z</time></trkpt><trkpt lat="42.3027933" lon="13.2385755"><ele>1270.0</ele><time>2026-05-02T16:51:23.988Z</time></trkpt><trkpt lat="42.3028608" lon="13.2386269"><ele>1269.0</ele><time>2026-05-02T16:51:24.988Z</time></trkpt><trkpt lat="42.3029293" lon="13.2386747"><ele>1268.0</ele><time>2026-05-02T16:51:25.988Z</time></trkpt><trkpt lat="42.3029997" lon="13.2387161"><ele>1267.0</ele><time>2026-05-02T16:51:26.988Z</time></trkpt><trkpt lat="42.3030698" lon="13.2387566"><ele>1267.1666666666665</ele><time>2026-05-02T16:51:27.987Z</time></trkpt><trkpt lat="42.3031311" lon="13.2387982"><ele>1267.3333333333333</ele><time>2026-05-02T16:51:28.988Z</time></trkpt><trkpt lat="42.3032381" lon="13.2388858"><ele>1267.5</ele><time>2026-05-02T16:51:30.988Z</time></trkpt><trkpt lat="42.3032962" lon="13.2389461"><ele>1267.6666666666667</ele><time>2026-05-02T16:51:31.988Z</time></trkpt><trkpt lat="42.3033577" lon="13.2390128"><ele>1267.8333333333335</ele><time>2026-05-02T16:51:32.988Z</time></trkpt><trkpt lat="42.3034232" lon="13.239087"><ele>1268.0</ele><time>2026-05-02T16:51:33.988Z</time></trkpt><trkpt lat="42.3034911" lon="13.2391621"><ele>1269.5</ele><time>2026-05-02T16:51:34.988Z</time></trkpt><trkpt lat="42.3035633" lon="13.2392334"><ele>1271.0</ele><time>2026-05-02T16:51:35.988Z</time></trkpt><trkpt lat="42.3036323" lon="13.2393088"><ele>1272.5</ele><time>2026-05-02T16:51:36.988Z</time></trkpt><trkpt lat="42.3037014" lon="13.2393771"><ele>1274.0</ele><time>2026-05-02T16:51:37.988Z</time></trkpt><trkpt lat="42.3037631" lon="13.2394406"><ele>1275.5</ele><time>2026-05-02T16:51:38.988Z</time></trkpt><trkpt lat="42.3038199" lon="13.2395059"><ele>1277.0</ele><time>2026-05-02T16:51:39.988Z</time></trkpt><trkpt lat="42.3038678" lon="13.2395752"><ele>1277.0</ele><time>2026-05-02T16:51:40.988Z</time></trkpt><trkpt lat="42.3039086" lon="13.239647"><ele>1277.0</ele><time>2026-05-02T16:51:41.988Z</time></trkpt><trkpt lat="42.3039352" lon="13.2397299"><ele>1277.0</ele><time>2026-05-02T16:51:42.988Z</time></trkpt><trkpt lat="42.3039503" lon="13.2398279"><ele>1277.0</ele><time>2026-05-02T16:51:43.987Z</time></trkpt><trkpt lat="42.3039591" lon="13.2399366"><ele>1277.0</ele><time>2026-05-02T16:51:44.988Z</time></trkpt><trkpt lat="42.3039752" lon="13.2400491"><ele>1277.0</ele><time>2026-05-02T16:51:45.987Z</time></trkpt><trkpt lat="42.3039963" lon="13.2401681"><ele>1277.2</ele><time>2026-05-02T16:51:46.988Z</time></trkpt><trkpt lat="42.3040159" lon="13.2402847"><ele>1277.4</ele><time>2026-05-02T16:51:47.987Z</time></trkpt><trkpt lat="42.3040413" lon="13.2404064"><ele>1277.6</ele><time>2026-05-02T16:51:48.988Z</time></trkpt><trkpt lat="42.3040657" lon="13.2405369"><ele>1277.8</ele><time>2026-05-02T16:51:49.988Z</time></trkpt><trkpt lat="42.3040886" lon="13.2406704"><ele>1278.0</ele><time>2026-05-02T16:51:50.988Z</time></trkpt><trkpt lat="42.3041067" lon="13.2407948"><ele>1278.0</ele><time>2026-05-02T16:51:51.988Z</time></trkpt><trkpt lat="42.3041192" lon="13.2409132"><ele>1278.0</ele><time>2026-05-02T16:51:52.988Z</time></trkpt><trkpt lat="42.3041268" lon="13.241019"><ele>1278.0</ele><time>2026-05-02T16:51:53.988Z</time></trkpt><trkpt lat="42.3041251" lon="13.2411216"><ele>1278.0</ele><time>2026-05-02T16:51:54.987Z</time></trkpt><trkpt lat="42.3041199" lon="13.2412188"><ele>1278.0</ele><time>2026-05-02T16:51:55.988Z</time></trkpt><trkpt lat="42.304097" lon="13.2413145"><ele>1278.0</ele><time>2026-05-02T16:51:56.988Z</time></trkpt><trkpt lat="42.3040673" lon="13.2414087"><ele>1278.3333333333333</ele><time>2026-05-02T16:51:57.988Z</time></trkpt><trkpt lat="42.3040393" lon="13.2415062"><ele>1278.6666666666667</ele><time>2026-05-02T16:51:58.988Z</time></trkpt><trkpt lat="42.3040134" lon="13.2416034"><ele>1279.0</ele><time>2026-05-02T16:51:59.988Z</time></trkpt><trkpt lat="42.3039899" lon="13.2416949"><ele>1279.3333333333335</ele><time>2026-05-02T16:52:00.988Z</time></trkpt><trkpt lat="42.3039571" lon="13.2417945"><ele>1279.6666666666667</ele><time>2026-05-02T16:52:01.987Z</time></trkpt><trkpt lat="42.303917" lon="13.2418929"><ele>1280.0</ele><time>2026-05-02T16:52:02.988Z</time></trkpt><trkpt lat="42.3038669" lon="13.2419933"><ele>1283.6</ele><time>2026-05-02T16:52:03.988Z</time></trkpt><trkpt lat="42.3038187" lon="13.242095"><ele>1287.2</ele><time>2026-05-02T16:52:04.988Z</time></trkpt><trkpt lat="42.3037641" lon="13.2421984"><ele>1290.8000000000002</ele><time>2026-05-02T16:52:05.988Z</time></trkpt><trkpt lat="42.3037165" lon="13.2423104"><ele>1294.4</ele><time>2026-05-02T16:52:06.988Z</time></trkpt><trkpt lat="42.3036873" lon="13.2424334"><ele>1298.0</ele><time>2026-05-02T16:52:07.987Z</time></trkpt><trkpt lat="42.3036593" lon="13.2425594"><ele>1298.0</ele><time>2026-05-02T16:52:08.987Z</time></trkpt><trkpt lat="42.3036336" lon="13.242688"><ele>1298.0</ele><time>2026-05-02T16:52:09.988Z</time></trkpt><trkpt lat="42.3036093" lon="13.2428181"><ele>1298.0</ele><time>2026-05-02T16:52:10.988Z</time></trkpt><trkpt lat="42.3035976" lon="13.2429515"><ele>1298.0</ele><time>2026-05-02T16:52:11.988Z</time></trkpt><trkpt lat="42.303594" lon="13.2430897"><ele>1298.0</ele><time>2026-05-02T16:52:12.988Z</time></trkpt><trkpt lat="42.3035905" lon="13.2432309"><ele>1298.0</ele><time>2026-05-02T16:52:13.988Z</time></trkpt><trkpt lat="42.3035826" lon="13.243366"><ele>1298.0</ele><time>2026-05-02T16:52:14.988Z</time></trkpt><trkpt lat="42.3035742" lon="13.2434898"><ele>1298.0</ele><time>2026-05-02T16:52:15.988Z</time></trkpt><trkpt lat="42.303585" lon="13.2436105"><ele>1298.0</ele><time>2026-05-02T16:52:16.988Z</time></trkpt><trkpt lat="42.3036049" lon="13.243733"><ele>1298.0</ele><time>2026-05-02T16:52:17.988Z</time></trkpt><trkpt lat="42.3036208" lon="13.2438628"><ele>1299.0</ele><time>2026-05-02T16:52:18.988Z</time></trkpt><trkpt lat="42.3036314" lon="13.2439901"><ele>1300.0</ele><time>2026-05-02T16:52:19.988Z</time></trkpt><trkpt lat="42.3036308" lon="13.2441079"><ele>1301.0</ele><time>2026-05-02T16:52:20.987Z</time></trkpt><trkpt lat="42.3036171" lon="13.2442066"><ele>1302.0</ele><time>2026-05-02T16:52:21.988Z</time></trkpt><trkpt lat="42.3036048" lon="13.2442941"><ele>1303.0</ele><time>2026-05-02T16:52:22.987Z</time></trkpt><trkpt lat="42.3035868" lon="13.2444511"><ele>1304.0</ele><time>2026-05-02T16:52:24.988Z</time></trkpt><trkpt lat="42.3035379" lon="13.2445674"><ele>1304.0</ele><time>2026-05-02T16:52:26.988Z</time></trkpt><trkpt lat="42.3034648" lon="13.2446812"><ele>1304.0</ele><time>2026-05-02T16:52:28.988Z</time></trkpt><trkpt lat="42.3034227" lon="13.2447678"><ele>1304.0</ele><time>2026-05-02T16:52:29.988Z</time></trkpt><trkpt lat="42.3033829" lon="13.2448665"><ele>1304.0</ele><time>2026-05-02T16:52:30.987Z</time></trkpt><trkpt lat="42.3033469" lon="13.2449643"><ele>1304.0</ele><time>2026-05-02T16:52:31.988Z</time></trkpt><trkpt lat="42.3033103" lon="13.2450475"><ele>1304.0</ele><time>2026-05-02T16:52:32.988Z</time></trkpt><trkpt lat="42.3032725" lon="13.2451247"><ele>1304.7142857142858</ele><time>2026-05-02T16:52:33.988Z</time></trkpt><trkpt lat="42.3032402" lon="13.2452072"><ele>1305.4285714285713</ele><time>2026-05-02T16:52:34.988Z</time></trkpt><trkpt lat="42.3032173" lon="13.2452912"><ele>1306.142857142857</ele><time>2026-05-02T16:52:35.988Z</time></trkpt><trkpt lat="42.303199" lon="13.2453792"><ele>1306.857142857143</ele><time>2026-05-02T16:52:36.988Z</time></trkpt><trkpt lat="42.3031886" lon="13.2454707"><ele>1307.5714285714284</ele><time>2026-05-02T16:52:37.987Z</time></trkpt><trkpt lat="42.3031837" lon="13.2455593"><ele>1308.2857142857142</ele><time>2026-05-02T16:52:38.987Z</time></trkpt><trkpt lat="42.3031699" lon="13.2456466"><ele>1309.0</ele><time>2026-05-02T16:52:39.988Z</time></trkpt><trkpt lat="42.303146" lon="13.2457292"><ele>1310.0</ele><time>2026-05-02T16:52:40.987Z</time></trkpt><trkpt lat="42.3031123" lon="13.2458074"><ele>1311.0</ele><time>2026-05-02T16:52:41.988Z</time></trkpt><trkpt lat="42.3030704" lon="13.2458851"><ele>1312.0</ele><time>2026-05-02T16:52:42.988Z</time></trkpt><trkpt lat="42.3030356" lon="13.2459634"><ele>1313.0</ele><time>2026-05-02T16:52:43.988Z</time></trkpt><trkpt lat="42.3030179" lon="13.246046"><ele>1314.0</ele><time>2026-05-02T16:52:44.988Z</time></trkpt><trkpt lat="42.3029951" lon="13.2461622"><ele>1315.0</ele><time>2026-05-02T16:52:46.987Z</time></trkpt><trkpt lat="42.30294" lon="13.2462527"><ele>1316.0</ele><time>2026-05-02T16:52:48.988Z</time></trkpt><trkpt lat="42.3029004" lon="13.2463202"><ele>1316.0</ele><time>2026-05-02T16:52:50.988Z</time></trkpt><trkpt lat="42.3028446" lon="13.2464282"><ele>1316.0</ele><time>2026-05-02T16:52:52.988Z</time></trkpt><trkpt lat="42.3027814" lon="13.2465707"><ele>1316.0</ele><time>2026-05-02T16:52:54.988Z</time></trkpt><trkpt lat="42.3027514" lon="13.2466539"><ele>1316.0</ele><time>2026-05-02T16:52:55.988Z</time></trkpt><trkpt lat="42.3027228" lon="13.2467458"><ele>1316.0</ele><time>2026-05-02T16:52:56.988Z</time></trkpt><trkpt lat="42.3026916" lon="13.246832"><ele>1316.0</ele><time>2026-05-02T16:52:57.988Z</time></trkpt><trkpt lat="42.3026502" lon="13.2469107"><ele>1317.8</ele><time>2026-05-02T16:52:58.988Z</time></trkpt><trkpt lat="42.3026018" lon="13.2469855"><ele>1319.6</ele><time>2026-05-02T16:52:59.988Z</time></trkpt><trkpt lat="42.302556" lon="13.2470528"><ele>1321.4</ele><time>2026-05-02T16:53:00.988Z</time></trkpt><trkpt lat="42.3025136" lon="13.2471181"><ele>1323.2</ele><time>2026-05-02T16:53:01.988Z</time></trkpt><trkpt lat="42.3024454" lon="13.2472579"><ele>1325.0</ele><time>2026-05-02T16:53:03.988Z</time></trkpt><trkpt lat="42.3023767" lon="13.2473962"><ele>1327.2857142857144</ele><time>2026-05-02T16:53:05.988Z</time></trkpt><trkpt lat="42.302335" lon="13.2474728"><ele>1329.5714285714284</ele><time>2026-05-02T16:53:06.988Z</time></trkpt><trkpt lat="42.3022912" lon="13.2475502"><ele>1331.857142857143</ele><time>2026-05-02T16:53:07.987Z</time></trkpt><trkpt lat="42.3022403" lon="13.2476211"><ele>1334.1428571428573</ele><time>2026-05-02T16:53:08.987Z</time></trkpt><trkpt lat="42.3021865" lon="13.2476902"><ele>1336.4285714285716</ele><time>2026-05-02T16:53:09.988Z</time></trkpt><trkpt lat="42.3021335" lon="13.2477645"><ele>1338.7142857142858</ele><time>2026-05-02T16:53:10.988Z</time></trkpt><trkpt lat="42.3020854" lon="13.2478491"><ele>1341.0</ele><time>2026-05-02T16:53:11.988Z</time></trkpt><trkpt lat="42.3020396" lon="13.2479363"><ele>1342.0</ele><time>2026-05-02T16:53:12.988Z</time></trkpt><trkpt lat="42.3019923" lon="13.2480207"><ele>1343.0</ele><time>2026-05-02T16:53:13.988Z</time></trkpt><trkpt lat="42.301941" lon="13.2480962"><ele>1344.0</ele><time>2026-05-02T16:53:14.987Z</time></trkpt><trkpt lat="42.3018873" lon="13.2481745"><ele>1345.0</ele><time>2026-05-02T16:53:15.988Z</time></trkpt><trkpt lat="42.3018218" lon="13.2482493"><ele>1346.0</ele><time>2026-05-02T16:53:16.988Z</time></trkpt><trkpt lat="42.3017647" lon="13.2483333"><ele>1347.0</ele><time>2026-05-02T16:53:17.988Z</time></trkpt><trkpt lat="42.3017174" lon="13.2484059"><ele>1347.8</ele><time>2026-05-02T16:53:18.988Z</time></trkpt><trkpt lat="42.3016855" lon="13.2484834"><ele>1348.6</ele><time>2026-05-02T16:53:19.988Z</time></trkpt><trkpt lat="42.301626" lon="13.2486024"><ele>1349.3999999999999</ele><time>2026-05-02T16:53:21.988Z</time></trkpt><trkpt lat="42.3015911" lon="13.2486872"><ele>1350.1999999999998</ele><time>2026-05-02T16:53:22.988Z</time></trkpt><trkpt lat="42.3015622" lon="13.2488182"><ele>1351.0</ele><time>2026-05-02T16:53:23.988Z</time></trkpt><trkpt lat="42.3015398" lon="13.2489663"><ele>1352.75</ele><time>2026-05-02T16:53:24.988Z</time></trkpt><trkpt lat="42.3015191" lon="13.2491237"><ele>1354.5</ele><time>2026-05-02T16:53:25.988Z</time></trkpt><trkpt lat="42.3014976" lon="13.2492757"><ele>1356.25</ele><time>2026-05-02T16:53:26.988Z</time></trkpt><trkpt lat="42.3014778" lon="13.2494217"><ele>1358.0</ele><time>2026-05-02T16:53:27.988Z</time></trkpt><trkpt lat="42.3014643" lon="13.249569"><ele>1358.0</ele><time>2026-05-02T16:53:28.988Z</time></trkpt><trkpt lat="42.3014576" lon="13.2497157"><ele>1358.0</ele><time>2026-05-02T16:53:29.988Z</time></trkpt><trkpt lat="42.301456" lon="13.2498639"><ele>1358.0</ele><time>2026-05-02T16:53:30.987Z</time></trkpt><trkpt lat="42.3014522" lon="13.2500147"><ele>1358.0</ele><time>2026-05-02T16:53:31.987Z</time></trkpt><trkpt lat="42.3014643" lon="13.2501635"><ele>1358.0</ele><time>2026-05-02T16:53:32.988Z</time></trkpt><trkpt lat="42.30149" lon="13.2503128"><ele>1358.0</ele><time>2026-05-02T16:53:33.988Z</time></trkpt><trkpt lat="42.3015418" lon="13.2504702"><ele>1358.0</ele><time>2026-05-02T16:53:34.988Z</time></trkpt><trkpt lat="42.3016023" lon="13.2506264"><ele>1358.0</ele><time>2026-05-02T16:53:35.988Z</time></trkpt><trkpt lat="42.3016654" lon="13.250787"><ele>1358.0</ele><time>2026-05-02T16:53:36.987Z</time></trkpt><trkpt lat="42.3017284" lon="13.2509444"><ele>1354.25</ele><time>2026-05-02T16:53:37.988Z</time></trkpt><trkpt lat="42.3017901" lon="13.2511006"><ele>1350.5</ele><time>2026-05-02T16:53:38.987Z</time></trkpt><trkpt lat="42.301856" lon="13.251255"><ele>1346.75</ele><time>2026-05-02T16:53:39.987Z</time></trkpt><trkpt lat="42.3019381" lon="13.251394"><ele>1343.0</ele><time>2026-05-02T16:53:40.987Z</time></trkpt><trkpt lat="42.3020331" lon="13.2515253"><ele>1343.25</ele><time>2026-05-02T16:53:41.988Z</time></trkpt><trkpt lat="42.3021402" lon="13.2516425"><ele>1343.5</ele><time>2026-05-02T16:53:42.988Z</time></trkpt><trkpt lat="42.3022487" lon="13.2517432"><ele>1343.75</ele><time>2026-05-02T16:53:43.988Z</time></trkpt><trkpt lat="42.3023723" lon="13.2518088"><ele>1344.0</ele><time>2026-05-02T16:53:44.988Z</time></trkpt><trkpt lat="42.3025054" lon="13.2518493"><ele>1344.0</ele><time>2026-05-02T16:53:45.988Z</time></trkpt><trkpt lat="42.3026367" lon="13.2518624"><ele>1344.0</ele><time>2026-05-02T16:53:46.988Z</time></trkpt><trkpt lat="42.302783" lon="13.2518434"><ele>1344.0</ele><time>2026-05-02T16:53:47.988Z</time></trkpt><trkpt lat="42.3029301" lon="13.2518247"><ele>1344.0</ele><time>2026-05-02T16:53:48.988Z</time></trkpt><trkpt lat="42.3030723" lon="13.2518139"><ele>1345.5</ele><time>2026-05-02T16:53:49.987Z</time></trkpt><trkpt lat="42.3032091" lon="13.251818"><ele>1347.0</ele><time>2026-05-02T16:53:50.988Z</time></trkpt><trkpt lat="42.3033478" lon="13.2518266"><ele>1348.5</ele><time>2026-05-02T16:53:51.988Z</time></trkpt><trkpt lat="42.3034843" lon="13.2518373"><ele>1350.0</ele><time>2026-05-02T16:53:52.988Z</time></trkpt><trkpt lat="42.3036169" lon="13.251868"><ele>1350.0</ele><time>2026-05-02T16:53:53.988Z</time></trkpt><trkpt lat="42.3037414" lon="13.2519232"><ele>1350.0</ele><time>2026-05-02T16:53:54.988Z</time></trkpt><trkpt lat="42.3038585" lon="13.2520031"><ele>1350.0</ele><time>2026-05-02T16:53:55.988Z</time></trkpt><trkpt lat="42.3039644" lon="13.2521099"><ele>1350.0</ele><time>2026-05-02T16:53:56.988Z</time></trkpt><trkpt lat="42.3040598" lon="13.2522499"><ele>1346.3333333333333</ele><time>2026-05-02T16:53:57.988Z</time></trkpt><trkpt lat="42.3041346" lon="13.2524215"><ele>1342.6666666666665</ele><time>2026-05-02T16:53:58.988Z</time></trkpt><trkpt lat="42.3041956" lon="13.2526126"><ele>1339.0</ele><time>2026-05-02T16:53:59.988Z</time></trkpt><trkpt lat="42.3042549" lon="13.2528165"><ele>1339.0</ele><time>2026-05-02T16:54:00.988Z</time></trkpt><trkpt lat="42.3043153" lon="13.2530327"><ele>1339.0</ele><time>2026-05-02T16:54:01.988Z</time></trkpt><trkpt lat="42.3043805" lon="13.2532444"><ele>1339.0</ele><time>2026-05-02T16:54:02.988Z</time></trkpt><trkpt lat="42.3044383" lon="13.2534525"><ele>1331.0</ele><time>2026-05-02T16:54:03.988Z</time></trkpt><trkpt lat="42.3045014" lon="13.2536542"><ele>1323.0</ele><time>2026-05-02T16:54:04.988Z</time></trkpt><trkpt lat="42.3045722" lon="13.2538478"><ele>1315.0</ele><time>2026-05-02T16:54:05.988Z</time></trkpt><trkpt lat="42.3046409" lon="13.2540372"><ele>1318.2</ele><time>2026-05-02T16:54:06.988Z</time></trkpt><trkpt lat="42.3047037" lon="13.2542108"><ele>1321.4</ele><time>2026-05-02T16:54:07.988Z</time></trkpt><trkpt lat="42.3047536" lon="13.2543542"><ele>1324.6</ele><time>2026-05-02T16:54:08.988Z</time></trkpt><trkpt lat="42.3047996" lon="13.2544617"><ele>1327.8</ele><time>2026-05-02T16:54:09.988Z</time></trkpt><trkpt lat="42.3048607" lon="13.2545412"><ele>1331.0</ele><time>2026-05-02T16:54:10.988Z</time></trkpt><trkpt lat="42.3049498" lon="13.2545751"><ele>1331.0</ele><time>2026-05-02T16:54:11.988Z</time></trkpt><trkpt lat="42.3050496" lon="13.2545865"><ele>1331.0</ele><time>2026-05-02T16:54:12.988Z</time></trkpt><trkpt lat="42.3051671" lon="13.2545387"><ele>1331.0</ele><time>2026-05-02T16:54:13.987Z</time></trkpt><trkpt lat="42.3052803" lon="13.2544983"><ele>1331.0</ele><time>2026-05-02T16:54:14.987Z</time></trkpt><trkpt lat="42.3054305" lon="13.2544216"><ele>1328.3333333333335</ele><time>2026-05-02T16:54:15.988Z</time></trkpt><trkpt lat="42.3055836" lon="13.2543389"><ele>1325.6666666666667</ele><time>2026-05-02T16:54:16.988Z</time></trkpt><trkpt lat="42.3057267" lon="13.2542448"><ele>1323.0</ele><time>2026-05-02T16:54:17.988Z</time></trkpt><trkpt lat="42.3058734" lon="13.2541647"><ele>1323.0</ele><time>2026-05-02T16:54:18.988Z</time></trkpt><trkpt lat="42.3060209" lon="13.2541059"><ele>1323.0</ele><time>2026-05-02T16:54:19.987Z</time></trkpt><trkpt lat="42.3061767" lon="13.2540552"><ele>1323.0</ele><time>2026-05-02T16:54:20.988Z</time></trkpt><trkpt lat="42.306327" lon="13.2540248"><ele>1318.0</ele><time>2026-05-02T16:54:21.988Z</time></trkpt><trkpt lat="42.3064935" lon="13.2539726"><ele>1313.0</ele><time>2026-05-02T16:54:22.988Z</time></trkpt><trkpt lat="42.3066719" lon="13.2539256"><ele>1308.0</ele><time>2026-05-02T16:54:23.988Z</time></trkpt><trkpt lat="42.3068504" lon="13.253887"><ele>1317.3333333333333</ele><time>2026-05-02T16:54:24.988Z</time></trkpt><trkpt lat="42.307024" lon="13.2538344"><ele>1326.6666666666665</ele><time>2026-05-02T16:54:25.988Z</time></trkpt><trkpt lat="42.3071766" lon="13.2537882"><ele>1336.0</ele><time>2026-05-02T16:54:26.988Z</time></trkpt><trkpt lat="42.3073213" lon="13.2537595"><ele>1336.0</ele><time>2026-05-02T16:54:27.988Z</time></trkpt><trkpt lat="42.3074669" lon="13.2537303"><ele>1336.0</ele><time>2026-05-02T16:54:28.988Z</time></trkpt><trkpt lat="42.3076166" lon="13.2537165"><ele>1336.0</ele><time>2026-05-02T16:54:29.988Z</time></trkpt><trkpt lat="42.3077946" lon="13.2537207"><ele>1336.0</ele><time>2026-05-02T16:54:30.988Z</time></trkpt><trkpt lat="42.3079742" lon="13.2537315"><ele>1336.0</ele><time>2026-05-02T16:54:31.988Z</time></trkpt><trkpt lat="42.3081512" lon="13.2537468"><ele>1336.0</ele><time>2026-05-02T16:54:32.988Z</time></trkpt><trkpt lat="42.3083189" lon="13.2537659"><ele>1332.6666666666665</ele><time>2026-05-02T16:54:33.988Z</time></trkpt><trkpt lat="42.3084816" lon="13.2538037"><ele>1329.3333333333333</ele><time>2026-05-02T16:54:34.988Z</time></trkpt><trkpt lat="42.30863" lon="13.2538517"><ele>1326.0</ele><time>2026-05-02T16:54:35.988Z</time></trkpt><trkpt lat="42.3087803" lon="13.2539088"><ele>1319.0</ele><time>2026-05-02T16:54:36.987Z</time></trkpt><trkpt lat="42.3089264" lon="13.2539655"><ele>1312.0</ele><time>2026-05-02T16:54:37.988Z</time></trkpt><trkpt lat="42.3090662" lon="13.2540139"><ele>1305.0</ele><time>2026-05-02T16:54:38.988Z</time></trkpt><trkpt lat="42.3091935" lon="13.2540345"><ele>1298.0</ele><time>2026-05-02T16:54:39.988Z</time></trkpt><trkpt lat="42.3093124" lon="13.2540301"><ele>1298.0</ele><time>2026-05-02T16:54:40.988Z</time></trkpt><trkpt lat="42.309434" lon="13.2539785"><ele>1298.0</ele><time>2026-05-02T16:54:41.988Z</time></trkpt><trkpt lat="42.3095742" lon="13.2538471"><ele>1298.0</ele><time>2026-05-02T16:54:42.988Z</time></trkpt><trkpt lat="42.3097232" lon="13.2537314"><ele>1301.0</ele><time>2026-05-02T16:54:43.988Z</time></trkpt><trkpt lat="42.3098864" lon="13.2536063"><ele>1304.0</ele><time>2026-05-02T16:54:44.988Z</time></trkpt><trkpt lat="42.3100591" lon="13.2534822"><ele>1307.0</ele><time>2026-05-02T16:54:45.988Z</time></trkpt><trkpt lat="42.3102266" lon="13.2533484"><ele>1307.0</ele><time>2026-05-02T16:54:46.988Z</time></trkpt><trkpt lat="42.3103739" lon="13.2532185"><ele>1307.0</ele><time>2026-05-02T16:54:47.988Z</time></trkpt><trkpt lat="42.3105311" lon="13.2531037"><ele>1307.0</ele><time>2026-05-02T16:54:48.988Z</time></trkpt><trkpt lat="42.3106679" lon="13.2530141"><ele>1309.6666666666667</ele><time>2026-05-02T16:54:49.987Z</time></trkpt><trkpt lat="42.3108172" lon="13.2529499"><ele>1312.3333333333333</ele><time>2026-05-02T16:54:50.988Z</time></trkpt><trkpt lat="42.3109813" lon="13.2529106"><ele>1315.0</ele><time>2026-05-02T16:54:51.988Z</time></trkpt><trkpt lat="42.3111519" lon="13.2528876"><ele>1315.0</ele><time>2026-05-02T16:54:52.987Z</time></trkpt><trkpt lat="42.3113257" lon="13.2528644"><ele>1315.0</ele><time>2026-05-02T16:54:53.988Z</time></trkpt><trkpt lat="42.3114889" lon="13.2528266"><ele>1315.0</ele><time>2026-05-02T16:54:54.988Z</time></trkpt><trkpt lat="42.3116455" lon="13.2527981"><ele>1312.5</ele><time>2026-05-02T16:54:55.988Z</time></trkpt><trkpt lat="42.311798" lon="13.252794"><ele>1310.0</ele><time>2026-05-02T16:54:56.988Z</time></trkpt><trkpt lat="42.3119355" lon="13.2528171"><ele>1307.5</ele><time>2026-05-02T16:54:57.988Z</time></trkpt><trkpt lat="42.312052" lon="13.2528594"><ele>1305.0</ele><time>2026-05-02T16:54:58.988Z</time></trkpt><trkpt lat="42.3121572" lon="13.25289"><ele>1301.25</ele><time>2026-05-02T16:54:59.987Z</time></trkpt><trkpt lat="42.3122639" lon="13.2528883"><ele>1297.5</ele><time>2026-05-02T16:55:00.988Z</time></trkpt><trkpt lat="42.3123656" lon="13.252844"><ele>1293.75</ele><time>2026-05-02T16:55:01.988Z</time></trkpt><trkpt lat="42.3124621" lon="13.2527626"><ele>1290.0</ele><time>2026-05-02T16:55:02.988Z</time></trkpt><trkpt lat="42.3125579" lon="13.2526596"><ele>1290.0</ele><time>2026-05-02T16:55:03.988Z</time></trkpt><trkpt lat="42.3126645" lon="13.2525807"><ele>1290.0</ele><time>2026-05-02T16:55:04.988Z</time></trkpt><trkpt lat="42.312759" lon="13.2525044"><ele>1290.0</ele><time>2026-05-02T16:55:05.988Z</time></trkpt><trkpt lat="42.3128377" lon="13.2523917"><ele>1290.0</ele><time>2026-05-02T16:55:06.987Z</time></trkpt><trkpt lat="42.3128987" lon="13.2522453"><ele>1288.5</ele><time>2026-05-02T16:55:07.988Z</time></trkpt><trkpt lat="42.3129542" lon="13.2521006"><ele>1287.0</ele><time>2026-05-02T16:55:08.988Z</time></trkpt><trkpt lat="42.3130205" lon="13.2519753"><ele>1285.5</ele><time>2026-05-02T16:55:09.987Z</time></trkpt><trkpt lat="42.313115" lon="13.2518879"><ele>1284.0</ele><time>2026-05-02T16:55:10.988Z</time></trkpt><trkpt lat="42.3132323" lon="13.2518191"><ele>1284.0</ele><time>2026-05-02T16:55:11.987Z</time></trkpt><trkpt lat="42.3133505" lon="13.2517692"><ele>1284.0</ele><time>2026-05-02T16:55:12.988Z</time></trkpt><trkpt lat="42.3134493" lon="13.2516968"><ele>1284.0</ele><time>2026-05-02T16:55:13.988Z</time></trkpt><trkpt lat="42.3135575" lon="13.2516067"><ele>1284.0</ele><time>2026-05-02T16:55:14.988Z</time></trkpt><trkpt lat="42.3136082" lon="13.2514637"><ele>1287.0</ele><time>2026-05-02T16:55:15.988Z</time></trkpt><trkpt lat="42.3136975" lon="13.2513763"><ele>1290.0</ele><time>2026-05-02T16:55:16.987Z</time></trkpt><trkpt lat="42.3138076" lon="13.2513195"><ele>1293.0</ele><time>2026-05-02T16:55:17.987Z</time></trkpt><trkpt lat="42.3139432" lon="13.2512716"><ele>1296.0</ele><time>2026-05-02T16:55:18.988Z</time></trkpt><trkpt lat="42.314087" lon="13.2512167"><ele>1296.0</ele><time>2026-05-02T16:55:19.988Z</time></trkpt><trkpt lat="42.3142139" lon="13.2511496"><ele>1296.0</ele><time>2026-05-02T16:55:20.988Z</time></trkpt><trkpt lat="42.314334" lon="13.2511091"><ele>1296.0</ele><time>2026-05-02T16:55:21.988Z</time></trkpt><trkpt lat="42.3144393" lon="13.2510904"><ele>1296.0</ele><time>2026-05-02T16:55:22.988Z</time></trkpt><trkpt lat="42.3145476" lon="13.2511247"><ele>1296.0</ele><time>2026-05-02T16:55:23.988Z</time></trkpt><trkpt lat="42.3146628" lon="13.2512102"><ele>1296.0</ele><time>2026-05-02T16:55:24.988Z</time></trkpt><trkpt lat="42.3147786" lon="13.2513251"><ele>1296.0</ele><time>2026-05-02T16:55:25.988Z</time></trkpt><trkpt lat="42.3149063" lon="13.2514646"><ele>1296.0</ele><time>2026-05-02T16:55:26.988Z</time></trkpt><trkpt lat="42.315024" lon="13.2515986"><ele>1290.25</ele><time>2026-05-02T16:55:27.988Z</time></trkpt><trkpt lat="42.3151343" lon="13.2517315"><ele>1284.5</ele><time>2026-05-02T16:55:28.988Z</time></trkpt><trkpt lat="42.3152336" lon="13.2518678"><ele>1278.75</ele><time>2026-05-02T16:55:29.988Z</time></trkpt><trkpt lat="42.3153177" lon="13.251998"><ele>1273.0</ele><time>2026-05-02T16:55:30.988Z</time></trkpt><trkpt lat="42.3154054" lon="13.2521009"><ele>1273.0</ele><time>2026-05-02T16:55:31.987Z</time></trkpt><trkpt lat="42.315512" lon="13.2521704"><ele>1273.0</ele><time>2026-05-02T16:55:32.988Z</time></trkpt><trkpt lat="42.3156071" lon="13.2522315"><ele>1273.0</ele><time>2026-05-02T16:55:33.988Z</time></trkpt><trkpt lat="42.3157977" lon="13.2521889"><ele>1273.0</ele><time>2026-05-02T16:55:34.988Z</time></trkpt><trkpt lat="42.3159572" lon="13.2521571"><ele>1277.5</ele><time>2026-05-02T16:55:35.988Z</time></trkpt><trkpt lat="42.3161128" lon="13.252098"><ele>1282.0</ele><time>2026-05-02T16:55:36.988Z</time></trkpt><trkpt lat="42.3162594" lon="13.2520443"><ele>1286.5</ele><time>2026-05-02T16:55:37.988Z</time></trkpt><trkpt lat="42.3163722" lon="13.2520145"><ele>1291.0</ele><time>2026-05-02T16:55:38.988Z</time></trkpt><trkpt lat="42.3164878" lon="13.2519829"><ele>1291.0</ele><time>2026-05-02T16:55:39.988Z</time></trkpt><trkpt lat="42.3165958" lon="13.251981"><ele>1291.0</ele><time>2026-05-02T16:55:40.988Z</time></trkpt><trkpt lat="42.3166149" lon="13.2521377"><ele>1291.0</ele><time>2026-05-02T16:55:41.988Z</time></trkpt><trkpt lat="42.3166589" lon="13.2522354"><ele>1291.0</ele><time>2026-05-02T16:55:42.988Z</time></trkpt><trkpt lat="42.3166653" lon="13.2523623"><ele>1291.0</ele><time>2026-05-02T16:55:43.988Z</time></trkpt><trkpt lat="42.3166344" lon="13.2524948"><ele>1288.1666666666665</ele><time>2026-05-02T16:55:44.988Z</time></trkpt><trkpt lat="42.316569" lon="13.2526093"><ele>1285.3333333333333</ele><time>2026-05-02T16:55:45.988Z</time></trkpt><trkpt lat="42.3165136" lon="13.2526982"><ele>1282.5</ele><time>2026-05-02T16:55:46.988Z</time></trkpt><trkpt lat="42.3164656" lon="13.252795"><ele>1279.6666666666667</ele><time>2026-05-02T16:55:47.988Z</time></trkpt><trkpt lat="42.316443" lon="13.2529014"><ele>1276.8333333333335</ele><time>2026-05-02T16:55:48.988Z</time></trkpt><trkpt lat="42.3164206" lon="13.2530041"><ele>1274.0</ele><time>2026-05-02T16:55:49.988Z</time></trkpt><trkpt lat="42.316422" lon="13.2531063"><ele>1274.0</ele><time>2026-05-02T16:55:50.987Z</time></trkpt><trkpt lat="42.3164808" lon="13.2531773"><ele>1274.0</ele><time>2026-05-02T16:55:51.988Z</time></trkpt><trkpt lat="42.3165729" lon="13.2531919"><ele>1274.0</ele><time>2026-05-02T16:55:52.988Z</time></trkpt><trkpt lat="42.3167273" lon="13.2530502"><ele>1274.0</ele><time>2026-05-02T16:55:53.988Z</time></trkpt><trkpt lat="42.3167929" lon="13.2530312"><ele>1274.0</ele><time>2026-05-02T16:55:54.987Z</time></trkpt><trkpt lat="42.3168863" lon="13.2529928"><ele>1274.0</ele><time>2026-05-02T16:55:56.988Z</time></trkpt><trkpt lat="42.316961" lon="13.2529522"><ele>1274.0</ele><time>2026-05-02T16:56:38.988Z</time></trkpt><trkpt lat="42.3170533" lon="13.252911"><ele>1274.0</ele><time>2026-05-02T16:56:40.988Z</time></trkpt><trkpt lat="42.3171227" lon="13.2528838"><ele>1274.0</ele><time>2026-05-02T16:56:41.988Z</time></trkpt><trkpt lat="42.3172047" lon="13.2528531"><ele>1274.0</ele><time>2026-05-02T16:56:42.988Z</time></trkpt><trkpt lat="42.3173011" lon="13.2528184"><ele>1274.0</ele><time>2026-05-02T16:56:43.988Z</time></trkpt><trkpt lat="42.317406" lon="13.2527826"><ele>1274.5</ele><time>2026-05-02T16:56:44.987Z</time></trkpt><trkpt lat="42.3175188" lon="13.2527416"><ele>1275.0</ele><time>2026-05-02T16:56:45.988Z</time></trkpt><trkpt lat="42.3176396" lon="13.2526999"><ele>1275.5</ele><time>2026-05-02T16:56:46.987Z</time></trkpt><trkpt lat="42.3177679" lon="13.252652"><ele>1276.0</ele><time>2026-05-02T16:56:47.988Z</time></trkpt><trkpt lat="42.3179048" lon="13.2526113"><ele>1276.0</ele><time>2026-05-02T16:56:48.988Z</time></trkpt><trkpt lat="42.31805" lon="13.2525785"><ele>1276.0</ele><time>2026-05-02T16:56:49.987Z</time></trkpt><trkpt lat="42.318201" lon="13.2525608"><ele>1276.0</ele><time>2026-05-02T16:56:50.988Z</time></trkpt><trkpt lat="42.3183609" lon="13.2525495"><ele>1274.5</ele><time>2026-05-02T16:56:51.988Z</time></trkpt><trkpt lat="42.318512" lon="13.2525375"><ele>1273.0</ele><time>2026-05-02T16:56:52.988Z</time></trkpt><trkpt lat="42.3186568" lon="13.2525211"><ele>1271.5</ele><time>2026-05-02T16:56:53.987Z</time></trkpt><trkpt lat="42.318804" lon="13.2524943"><ele>1270.0</ele><time>2026-05-02T16:56:54.988Z</time></trkpt><trkpt lat="42.3189538" lon="13.2524605"><ele>1268.75</ele><time>2026-05-02T16:56:55.987Z</time></trkpt><trkpt lat="42.3191019" lon="13.2524255"><ele>1267.5</ele><time>2026-05-02T16:56:56.988Z</time></trkpt><trkpt lat="42.3192429" lon="13.2523948"><ele>1266.25</ele><time>2026-05-02T16:56:57.988Z</time></trkpt><trkpt lat="42.3193731" lon="13.2523774"><ele>1265.0</ele><time>2026-05-02T16:56:58.988Z</time></trkpt><trkpt lat="42.3194946" lon="13.2523573"><ele>1265.0</ele><time>2026-05-02T16:56:59.988Z</time></trkpt><trkpt lat="42.3196101" lon="13.252331"><ele>1265.0</ele><time>2026-05-02T16:57:00.988Z</time></trkpt><trkpt lat="42.3197109" lon="13.2522929"><ele>1265.0</ele><time>2026-05-02T16:57:01.987Z</time></trkpt><trkpt lat="42.3197933" lon="13.2522377"><ele>1265.0</ele><time>2026-05-02T16:57:02.988Z</time></trkpt><trkpt lat="42.3198711" lon="13.2521406"><ele>1265.0</ele><time>2026-05-02T16:57:03.988Z</time></trkpt><trkpt lat="42.3199506" lon="13.2520158"><ele>1269.0</ele><time>2026-05-02T16:57:04.988Z</time></trkpt><trkpt lat="42.3200372" lon="13.2518819"><ele>1273.0</ele><time>2026-05-02T16:57:05.987Z</time></trkpt><trkpt lat="42.3201219" lon="13.2517384"><ele>1277.0</ele><time>2026-05-02T16:57:06.988Z</time></trkpt><trkpt lat="42.3201999" lon="13.2516084"><ele>1281.0</ele><time>2026-05-02T16:57:07.988Z</time></trkpt><trkpt lat="42.3202684" lon="13.2514684"><ele>1284.0</ele><time>2026-05-02T16:57:08.988Z</time></trkpt><trkpt lat="42.3203269" lon="13.2513271"><ele>1287.0</ele><time>2026-05-02T16:57:09.988Z</time></trkpt><trkpt lat="42.3203917" lon="13.2511793"><ele>1290.0</ele><time>2026-05-02T16:57:10.988Z</time></trkpt><trkpt lat="42.3204456" lon="13.2510343"><ele>1293.0</ele><time>2026-05-02T16:57:11.987Z</time></trkpt><trkpt lat="42.320478" lon="13.2508827"><ele>1293.0</ele><time>2026-05-02T16:57:12.988Z</time></trkpt><trkpt lat="42.3205034" lon="13.2507366"><ele>1293.0</ele><time>2026-05-02T16:57:13.988Z</time></trkpt><trkpt lat="42.3205362" lon="13.2506191"><ele>1293.0</ele><time>2026-05-02T16:57:14.988Z</time></trkpt><trkpt lat="42.3205794" lon="13.2505141"><ele>1293.0</ele><time>2026-05-02T16:57:15.988Z</time></trkpt><trkpt lat="42.3206505" lon="13.2504509"><ele>1293.0</ele><time>2026-05-02T16:57:16.987Z</time></trkpt><trkpt lat="42.3207378" lon="13.250395"><ele>1288.25</ele><time>2026-05-02T16:57:17.988Z</time></trkpt><trkpt lat="42.320839" lon="13.2503702"><ele>1283.5</ele><time>2026-05-02T16:57:18.988Z</time></trkpt><trkpt lat="42.3209507" lon="13.2503745"><ele>1278.75</ele><time>2026-05-02T16:57:19.988Z</time></trkpt><trkpt lat="42.321074" lon="13.2504127"><ele>1274.0</ele><time>2026-05-02T16:57:20.987Z</time></trkpt><trkpt lat="42.3211972" lon="13.2504762"><ele>1274.0</ele><time>2026-05-02T16:57:21.988Z</time></trkpt><trkpt lat="42.3213335" lon="13.2505577"><ele>1274.0</ele><time>2026-05-02T16:57:22.987Z</time></trkpt><trkpt lat="42.3214747" lon="13.2506356"><ele>1274.0</ele><time>2026-05-02T16:57:23.988Z</time></trkpt><trkpt lat="42.3216078" lon="13.2507122"><ele>1274.0</ele><time>2026-05-02T16:57:24.987Z</time></trkpt><trkpt lat="42.321745" lon="13.250797"><ele>1269.0</ele><time>2026-05-02T16:57:25.987Z</time></trkpt><trkpt lat="42.3218715" lon="13.2508885"><ele>1264.0</ele><time>2026-05-02T16:57:26.988Z</time></trkpt><trkpt lat="42.3219661" lon="13.2509759"><ele>1259.0</ele><time>2026-05-02T16:57:27.988Z</time></trkpt><trkpt lat="42.3220214" lon="13.2510637"><ele>1254.0</ele><time>2026-05-02T16:57:28.988Z</time></trkpt><trkpt lat="42.3220441" lon="13.2511433"><ele>1249.0</ele><time>2026-05-02T16:57:29.988Z</time></trkpt><trkpt lat="42.3220046" lon="13.2512778"><ele>1249.0</ele><time>2026-05-02T16:57:31.988Z</time></trkpt><trkpt lat="42.3218839" lon="13.2513027"><ele>1249.0</ele><time>2026-05-02T16:57:33.988Z</time></trkpt><trkpt lat="42.3217877" lon="13.2512876"><ele>1249.0</ele><time>2026-05-02T16:57:34.988Z</time></trkpt><trkpt lat="42.3216852" lon="13.2512608"><ele>1249.0</ele><time>2026-05-02T16:57:35.988Z</time></trkpt><trkpt lat="42.321592" lon="13.2512129"><ele>1249.0</ele><time>2026-05-02T16:57:36.988Z</time></trkpt><trkpt lat="42.321499" lon="13.2511241"><ele>1249.0</ele><time>2026-05-02T16:57:37.988Z</time></trkpt><trkpt lat="42.3214159" lon="13.251008"><ele>1249.0</ele><time>2026-05-02T16:57:38.988Z</time></trkpt><trkpt lat="42.321329" lon="13.2508893"><ele>1249.0</ele><time>2026-05-02T16:57:39.987Z</time></trkpt><trkpt lat="42.3212397" lon="13.2507887"><ele>1249.0</ele><time>2026-05-02T16:57:40.987Z</time></trkpt><trkpt lat="42.3211409" lon="13.2507091"><ele>1249.4</ele><time>2026-05-02T16:57:41.988Z</time></trkpt><trkpt lat="42.3210458" lon="13.2506593"><ele>1249.8000000000002</ele><time>2026-05-02T16:57:42.987Z</time></trkpt><trkpt lat="42.3209614" lon="13.2506263"><ele>1250.1999999999998</ele><time>2026-05-02T16:57:43.988Z</time></trkpt><trkpt lat="42.3208893" lon="13.2506144"><ele>1250.6</ele><time>2026-05-02T16:57:44.988Z</time></trkpt><trkpt lat="42.3207881" lon="13.2506708"><ele>1251.0</ele><time>2026-05-02T16:57:46.988Z</time></trkpt><trkpt lat="42.3207392" lon="13.2508489"><ele>1251.0</ele><time>2026-05-02T16:57:48.988Z</time></trkpt><trkpt lat="42.3207155" lon="13.2509684"><ele>1251.0</ele><time>2026-05-02T16:57:49.988Z</time></trkpt><trkpt lat="42.320675" lon="13.2510791"><ele>1251.0</ele><time>2026-05-02T16:57:50.988Z</time></trkpt><trkpt lat="42.3206237" lon="13.2512124"><ele>1251.0</ele><time>2026-05-02T16:57:51.987Z</time></trkpt><trkpt lat="42.3205626" lon="13.2513718"><ele>1251.0</ele><time>2026-05-02T16:57:52.988Z</time></trkpt><trkpt lat="42.3205147" lon="13.2515101"><ele>1261.0</ele><time>2026-05-02T16:57:53.988Z</time></trkpt><trkpt lat="42.3204629" lon="13.2516996"><ele>1271.0</ele><time>2026-05-02T16:57:54.987Z</time></trkpt><trkpt lat="42.3203407" lon="13.2518801"><ele>1281.0</ele><time>2026-05-02T16:57:55.988Z</time></trkpt><trkpt lat="42.3202661" lon="13.2520394"><ele>1281.0</ele><time>2026-05-02T16:57:56.988Z</time></trkpt><trkpt lat="42.3201835" lon="13.2522039"><ele>1281.0</ele><time>2026-05-02T16:57:57.987Z</time></trkpt><trkpt lat="42.3201197" lon="13.2523622"><ele>1281.0</ele><time>2026-05-02T16:57:58.988Z</time></trkpt><trkpt lat="42.3200596" lon="13.2525234"><ele>1281.0</ele><time>2026-05-02T16:57:59.988Z</time></trkpt><trkpt lat="42.3200031" lon="13.2526636"><ele>1277.0</ele><time>2026-05-02T16:58:00.988Z</time></trkpt><trkpt lat="42.3199078" lon="13.2527717"><ele>1273.0</ele><time>2026-05-02T16:58:01.987Z</time></trkpt><trkpt lat="42.3197926" lon="13.2528563"><ele>1269.0</ele><time>2026-05-02T16:58:02.988Z</time></trkpt><trkpt lat="42.3196593" lon="13.2529216"><ele>1265.0</ele><time>2026-05-02T16:58:03.988Z</time></trkpt><trkpt lat="42.3195094" lon="13.2529746"><ele>1265.0</ele><time>2026-05-02T16:58:04.988Z</time></trkpt><trkpt lat="42.3193501" lon="13.2530255"><ele>1265.0</ele><time>2026-05-02T16:58:05.987Z</time></trkpt><trkpt lat="42.3191825" lon="13.2530899"><ele>1265.0</ele><time>2026-05-02T16:58:06.988Z</time></trkpt><trkpt lat="42.3190168" lon="13.253157"><ele>1254.6666666666667</ele><time>2026-05-02T16:58:07.988Z</time></trkpt><trkpt lat="42.3188508" lon="13.2532158"><ele>1244.3333333333333</ele><time>2026-05-02T16:58:08.988Z</time></trkpt><trkpt lat="42.3186796" lon="13.2532521"><ele>1234.0</ele><time>2026-05-02T16:58:09.988Z</time></trkpt><trkpt lat="42.3185166" lon="13.2532756"><ele>1234.0</ele><time>2026-05-02T16:58:10.988Z</time></trkpt><trkpt lat="42.3183438" lon="13.2533232"><ele>1234.0</ele><time>2026-05-02T16:58:11.988Z</time></trkpt><trkpt lat="42.3181639" lon="13.2533904"><ele>1234.0</ele><time>2026-05-02T16:58:12.988Z</time></trkpt><trkpt lat="42.3179746" lon="13.253464"><ele>1236.6666666666665</ele><time>2026-05-02T16:58:13.987Z</time></trkpt><trkpt lat="42.3177749" lon="13.2535329"><ele>1239.3333333333333</ele><time>2026-05-02T16:58:14.988Z</time></trkpt><trkpt lat="42.3175685" lon="13.2536116"><ele>1242.0</ele><time>2026-05-02T16:58:15.988Z</time></trkpt><trkpt lat="42.3173654" lon="13.2537026"><ele>1245.3333333333333</ele><time>2026-05-02T16:58:16.988Z</time></trkpt><trkpt lat="42.3171764" lon="13.2537907"><ele>1248.6666666666665</ele><time>2026-05-02T16:58:17.988Z</time></trkpt><trkpt lat="42.3169959" lon="13.2538805"><ele>1252.0</ele><time>2026-05-02T16:58:18.988Z</time></trkpt><trkpt lat="42.3168329" lon="13.2539653"><ele>1241.5</ele><time>2026-05-02T16:58:19.988Z</time></trkpt><trkpt lat="42.3166844" lon="13.2540418"><ele>1231.0</ele><time>2026-05-02T16:58:20.988Z</time></trkpt><trkpt lat="42.316548" lon="13.2541086"><ele>1220.5</ele><time>2026-05-02T16:58:21.988Z</time></trkpt><trkpt lat="42.316426" lon="13.2541565"><ele>1210.0</ele><time>2026-05-02T16:58:22.988Z</time></trkpt><trkpt lat="42.3163082" lon="13.2541695"><ele>1208.75</ele><time>2026-05-02T16:58:23.988Z</time></trkpt><trkpt lat="42.3161895" lon="13.2541378"><ele>1207.5</ele><time>2026-05-02T16:58:24.988Z</time></trkpt><trkpt lat="42.3160682" lon="13.2540668"><ele>1206.25</ele><time>2026-05-02T16:58:25.988Z</time></trkpt><trkpt lat="42.3159372" lon="13.253992"><ele>1205.0</ele><time>2026-05-02T16:58:26.988Z</time></trkpt><trkpt lat="42.3158002" lon="13.2539302"><ele>1205.75</ele><time>2026-05-02T16:58:27.988Z</time></trkpt><trkpt lat="42.3156727" lon="13.2538823"><ele>1206.5</ele><time>2026-05-02T16:58:28.988Z</time></trkpt><trkpt lat="42.3155575" lon="13.2538252"><ele>1207.25</ele><time>2026-05-02T16:58:29.988Z</time></trkpt><trkpt lat="42.3154646" lon="13.2537507"><ele>1208.0</ele><time>2026-05-02T16:58:30.988Z</time></trkpt><trkpt lat="42.3153923" lon="13.2536451"><ele>1208.0</ele><time>2026-05-02T16:58:31.988Z</time></trkpt><trkpt lat="42.3153356" lon="13.253514"><ele>1208.0</ele><time>2026-05-02T16:58:32.988Z</time></trkpt><trkpt lat="42.3152658" lon="13.2534098"><ele>1208.0</ele><time>2026-05-02T16:58:33.987Z</time></trkpt><trkpt lat="42.3151738" lon="13.2533305"><ele>1208.0</ele><time>2026-05-02T16:58:34.988Z</time></trkpt><trkpt lat="42.3150618" lon="13.2532819"><ele>1208.0</ele><time>2026-05-02T16:58:35.988Z</time></trkpt><trkpt lat="42.3149503" lon="13.2532233"><ele>1208.0</ele><time>2026-05-02T16:58:36.988Z</time></trkpt><trkpt lat="42.314855" lon="13.2531419"><ele>1208.0</ele><time>2026-05-02T16:58:37.988Z</time></trkpt><trkpt lat="42.3147659" lon="13.2530573"><ele>1208.0</ele><time>2026-05-02T16:58:38.988Z</time></trkpt><trkpt lat="42.3146812" lon="13.2529958"><ele>1208.0</ele><time>2026-05-02T16:58:39.988Z</time></trkpt><trkpt lat="42.3145854" lon="13.2529614"><ele>1208.0</ele><time>2026-05-02T16:58:40.988Z</time></trkpt><trkpt lat="42.3144809" lon="13.2529659"><ele>1207.0</ele><time>2026-05-02T16:58:41.988Z</time></trkpt><trkpt lat="42.3143655" lon="13.2530048"><ele>1206.0</ele><time>2026-05-02T16:58:42.988Z</time></trkpt><trkpt lat="42.3142484" lon="13.2530651"><ele>1205.0</ele><time>2026-05-02T16:58:43.988Z</time></trkpt><trkpt lat="42.31414" lon="13.2531451"><ele>1204.0</ele><time>2026-05-02T16:58:44.988Z</time></trkpt><trkpt lat="42.3140359" lon="13.2532282"><ele>1204.0</ele><time>2026-05-02T16:58:45.988Z</time></trkpt><trkpt lat="42.3139672" lon="13.2534087"><ele>1204.0</ele><time>2026-05-02T16:58:46.988Z</time></trkpt><trkpt lat="42.3138899" lon="13.2535607"><ele>1204.0</ele><time>2026-05-02T16:58:47.988Z</time></trkpt><trkpt lat="42.3138051" lon="13.2537225"><ele>1204.0</ele><time>2026-05-02T16:58:48.988Z</time></trkpt><trkpt lat="42.3137224" lon="13.2538546"><ele>1211.6666666666665</ele><time>2026-05-02T16:58:49.987Z</time></trkpt><trkpt lat="42.3136492" lon="13.2540138"><ele>1219.3333333333333</ele><time>2026-05-02T16:58:50.987Z</time></trkpt><trkpt lat="42.3136135" lon="13.2542223"><ele>1227.0</ele><time>2026-05-02T16:58:51.988Z</time></trkpt><trkpt lat="42.3135686" lon="13.2544274"><ele>1227.0</ele><time>2026-05-02T16:58:52.988Z</time></trkpt><trkpt lat="42.3135447" lon="13.2546487"><ele>1227.0</ele><time>2026-05-02T16:58:53.988Z</time></trkpt><trkpt lat="42.3135026" lon="13.2548456"><ele>1227.0</ele><time>2026-05-02T16:58:54.988Z</time></trkpt><trkpt lat="42.3134586" lon="13.2550158"><ele>1223.4</ele><time>2026-05-02T16:58:55.988Z</time></trkpt><trkpt lat="42.3134163" lon="13.2551418"><ele>1219.8000000000002</ele><time>2026-05-02T16:58:56.988Z</time></trkpt><trkpt lat="42.3133546" lon="13.2552306"><ele>1216.2</ele><time>2026-05-02T16:58:57.988Z</time></trkpt><trkpt lat="42.3132744" lon="13.2553005"><ele>1212.6000000000001</ele><time>2026-05-02T16:58:58.988Z</time></trkpt><trkpt lat="42.3131859" lon="13.2553206"><ele>1209.0</ele><time>2026-05-02T16:58:59.988Z</time></trkpt><trkpt lat="42.3130836" lon="13.2552971"><ele>1212.5</ele><time>2026-05-02T16:59:00.988Z</time></trkpt><trkpt lat="42.3129728" lon="13.2552546"><ele>1216.0</ele><time>2026-05-02T16:59:01.988Z</time></trkpt><trkpt lat="42.3128449" lon="13.2552041"><ele>1219.5</ele><time>2026-05-02T16:59:02.988Z</time></trkpt><trkpt lat="42.3127302" lon="13.2551629"><ele>1223.0</ele><time>2026-05-02T16:59:03.988Z</time></trkpt><trkpt lat="42.3126222" lon="13.2551449"><ele>1223.0</ele><time>2026-05-02T16:59:04.988Z</time></trkpt><trkpt lat="42.3125115" lon="13.2551247"><ele>1223.0</ele><time>2026-05-02T16:59:05.988Z</time></trkpt><trkpt lat="42.3124129" lon="13.2551183"><ele>1223.0</ele><time>2026-05-02T16:59:06.988Z</time></trkpt><trkpt lat="42.3123426" lon="13.2551702"><ele>1223.0</ele><time>2026-05-02T16:59:07.988Z</time></trkpt><trkpt lat="42.3123117" lon="13.2554061"><ele>1223.0</ele><time>2026-05-02T16:59:08.988Z</time></trkpt><trkpt lat="42.3122716" lon="13.2555455"><ele>1223.0</ele><time>2026-05-02T16:59:09.987Z</time></trkpt><trkpt lat="42.3123114" lon="13.2557441"><ele>1223.0</ele><time>2026-05-02T16:59:10.988Z</time></trkpt><trkpt lat="42.3123213" lon="13.255925"><ele>1223.0</ele><time>2026-05-02T16:59:11.988Z</time></trkpt><trkpt lat="42.3123264" lon="13.2560865"><ele>1217.8</ele><time>2026-05-02T16:59:12.988Z</time></trkpt><trkpt lat="42.3123133" lon="13.2562304"><ele>1212.6</ele><time>2026-05-02T16:59:13.987Z</time></trkpt><trkpt lat="42.3122716" lon="13.2563604"><ele>1207.4</ele><time>2026-05-02T16:59:14.988Z</time></trkpt><trkpt lat="42.3122007" lon="13.2564798"><ele>1202.2</ele><time>2026-05-02T16:59:15.988Z</time></trkpt><trkpt lat="42.3121042" lon="13.2565837"><ele>1197.0</ele><time>2026-05-02T16:59:16.988Z</time></trkpt><trkpt lat="42.3120006" lon="13.2566507"><ele>1196.0</ele><time>2026-05-02T16:59:17.987Z</time></trkpt><trkpt lat="42.311887" lon="13.2566692"><ele>1195.0</ele><time>2026-05-02T16:59:18.988Z</time></trkpt><trkpt lat="42.3117654" lon="13.2566543"><ele>1194.0</ele><time>2026-05-02T16:59:19.988Z</time></trkpt><trkpt lat="42.3116521" lon="13.25658"><ele>1193.0</ele><time>2026-05-02T16:59:20.987Z</time></trkpt><trkpt lat="42.3115419" lon="13.2565238"><ele>1193.0</ele><time>2026-05-02T16:59:21.988Z</time></trkpt><trkpt lat="42.3114276" lon="13.2565043"><ele>1193.0</ele><time>2026-05-02T16:59:22.988Z</time></trkpt><trkpt lat="42.3113176" lon="13.2565237"><ele>1193.0</ele><time>2026-05-02T16:59:23.988Z</time></trkpt><trkpt lat="42.3112043" lon="13.2565344"><ele>1193.0</ele><time>2026-05-02T16:59:24.988Z</time></trkpt><trkpt lat="42.3111074" lon="13.2565611"><ele>1193.0</ele><time>2026-05-02T16:59:25.988Z</time></trkpt><trkpt lat="42.3110237" lon="13.2567648"><ele>1190.6666666666667</ele><time>2026-05-02T16:59:26.988Z</time></trkpt><trkpt lat="42.3109088" lon="13.2569969"><ele>1188.3333333333333</ele><time>2026-05-02T16:59:27.988Z</time></trkpt><trkpt lat="42.3108833" lon="13.2572508"><ele>1186.0</ele><time>2026-05-02T16:59:28.988Z</time></trkpt><trkpt lat="42.3108109" lon="13.2574349"><ele>1186.0</ele><time>2026-05-02T16:59:29.988Z</time></trkpt><trkpt lat="42.3107401" lon="13.257605"><ele>1186.0</ele><time>2026-05-02T16:59:30.988Z</time></trkpt><trkpt lat="42.3106466" lon="13.2577514"><ele>1186.0</ele><time>2026-05-02T16:59:31.988Z</time></trkpt><trkpt lat="42.310544" lon="13.2578556"><ele>1186.0</ele><time>2026-05-02T16:59:32.987Z</time></trkpt><trkpt lat="42.3104421" lon="13.2579281"><ele>1191.25</ele><time>2026-05-02T16:59:33.988Z</time></trkpt><trkpt lat="42.3103238" lon="13.2579591"><ele>1196.5</ele><time>2026-05-02T16:59:34.988Z</time></trkpt><trkpt lat="42.3101989" lon="13.2579606"><ele>1201.75</ele><time>2026-05-02T16:59:35.988Z</time></trkpt><trkpt lat="42.3100865" lon="13.2579821"><ele>1207.0</ele><time>2026-05-02T16:59:36.988Z</time></trkpt><trkpt lat="42.3099832" lon="13.258016"><ele>1207.0</ele><time>2026-05-02T16:59:37.988Z</time></trkpt><trkpt lat="42.3098739" lon="13.2581069"><ele>1207.0</ele><time>2026-05-02T16:59:38.988Z</time></trkpt><trkpt lat="42.3097829" lon="13.2581916"><ele>1207.0</ele><time>2026-05-02T16:59:39.988Z</time></trkpt><trkpt lat="42.3097074" lon="13.2584205"><ele>1207.0</ele><time>2026-05-02T16:59:40.988Z</time></trkpt><trkpt lat="42.309631" lon="13.2585729"><ele>1204.5</ele><time>2026-05-02T16:59:41.987Z</time></trkpt><trkpt lat="42.3095377" lon="13.2587319"><ele>1202.0</ele><time>2026-05-02T16:59:42.988Z</time></trkpt><trkpt lat="42.3094298" lon="13.2588672"><ele>1199.5</ele><time>2026-05-02T16:59:43.988Z</time></trkpt><trkpt lat="42.3093106" lon="13.2589769"><ele>1197.0</ele><time>2026-05-02T16:59:44.988Z</time></trkpt><trkpt lat="42.3091767" lon="13.2590463"><ele>1190.6666666666667</ele><time>2026-05-02T16:59:45.988Z</time></trkpt><trkpt lat="42.309025" lon="13.2591067"><ele>1184.3333333333335</ele><time>2026-05-02T16:59:46.987Z</time></trkpt><trkpt lat="42.3088653" lon="13.2591739"><ele>1178.0</ele><time>2026-05-02T16:59:47.988Z</time></trkpt><trkpt lat="42.3087063" lon="13.2592692"><ele>1178.0</ele><time>2026-05-02T16:59:48.988Z</time></trkpt><trkpt lat="42.308543" lon="13.2593823"><ele>1178.0</ele><time>2026-05-02T16:59:49.988Z</time></trkpt><trkpt lat="42.308386" lon="13.2594945"><ele>1178.0</ele><time>2026-05-02T16:59:50.988Z</time></trkpt><trkpt lat="42.3082343" lon="13.2596057"><ele>1178.0</ele><time>2026-05-02T16:59:51.988Z</time></trkpt><trkpt lat="42.3080997" lon="13.2597147"><ele>1178.0</ele><time>2026-05-02T16:59:52.988Z</time></trkpt><trkpt lat="42.3079777" lon="13.2598061"><ele>1178.0</ele><time>2026-05-02T16:59:53.988Z</time></trkpt><trkpt lat="42.3078627" lon="13.2598826"><ele>1178.0</ele><time>2026-05-02T16:59:54.988Z</time></trkpt><trkpt lat="42.307749" lon="13.2599361"><ele>1172.5</ele><time>2026-05-02T16:59:55.987Z</time></trkpt><trkpt lat="42.3076336" lon="13.2599642"><ele>1167.0</ele><time>2026-05-02T16:59:56.988Z</time></trkpt><trkpt lat="42.307519" lon="13.2599546"><ele>1161.5</ele><time>2026-05-02T16:59:57.988Z</time></trkpt><trkpt lat="42.3074116" lon="13.2599229"><ele>1156.0</ele><time>2026-05-02T16:59:58.988Z</time></trkpt><trkpt lat="42.3073075" lon="13.2598361"><ele>1153.5</ele><time>2026-05-02T16:59:59.988Z</time></trkpt><trkpt lat="42.3072085" lon="13.2597088"><ele>1151.0</ele><time>2026-05-02T17:00:00.988Z</time></trkpt><trkpt lat="42.3071086" lon="13.2595566"><ele>1148.5</ele><time>2026-05-02T17:00:01.988Z</time></trkpt><trkpt lat="42.3070127" lon="13.259397"><ele>1146.0</ele><time>2026-05-02T17:00:02.988Z</time></trkpt><trkpt lat="42.3069286" lon="13.2592357"><ele>1146.0</ele><time>2026-05-02T17:00:03.988Z</time></trkpt><trkpt lat="42.3068567" lon="13.2590438"><ele>1146.0</ele><time>2026-05-02T17:00:04.988Z</time></trkpt><trkpt lat="42.3067951" lon="13.2588381"><ele>1146.0</ele><time>2026-05-02T17:00:05.987Z</time></trkpt><trkpt lat="42.3067316" lon="13.2586318"><ele>1148.25</ele><time>2026-05-02T17:00:06.988Z</time></trkpt><trkpt lat="42.3066662" lon="13.2584475"><ele>1150.5</ele><time>2026-05-02T17:00:07.988Z</time></trkpt><trkpt lat="42.3065912" lon="13.2582798"><ele>1152.75</ele><time>2026-05-02T17:00:08.988Z</time></trkpt><trkpt lat="42.3065059" lon="13.2581312"><ele>1155.0</ele><time>2026-05-02T17:00:09.988Z</time></trkpt><trkpt lat="42.3064002" lon="13.2579978"><ele>1157.0</ele><time>2026-05-02T17:00:10.988Z</time></trkpt><trkpt lat="42.3062902" lon="13.2579013"><ele>1159.0</ele><time>2026-05-02T17:00:11.988Z</time></trkpt><trkpt lat="42.3061595" lon="13.2578265"><ele>1161.0</ele><time>2026-05-02T17:00:12.988Z</time></trkpt><trkpt lat="42.306014" lon="13.2577505"><ele>1163.0</ele><time>2026-05-02T17:00:13.988Z</time></trkpt><trkpt lat="42.3058498" lon="13.2577949"><ele>1163.0</ele><time>2026-05-02T17:00:14.988Z</time></trkpt><trkpt lat="42.3056799" lon="13.2578207"><ele>1163.0</ele><time>2026-05-02T17:00:15.988Z</time></trkpt><trkpt lat="42.3055149" lon="13.2578631"><ele>1163.0</ele><time>2026-05-02T17:00:16.988Z</time></trkpt><trkpt lat="42.3053584" lon="13.2578919"><ele>1161.3333333333335</ele><time>2026-05-02T17:00:17.988Z</time></trkpt><trkpt lat="42.305203" lon="13.2579014"><ele>1159.6666666666667</ele><time>2026-05-02T17:00:18.988Z</time></trkpt><trkpt lat="42.3050413" lon="13.2578853"><ele>1158.0</ele><time>2026-05-02T17:00:19.988Z</time></trkpt><trkpt lat="42.3048833" lon="13.2578619"><ele>1160.0</ele><time>2026-05-02T17:00:20.988Z</time></trkpt><trkpt lat="42.3047184" lon="13.2578679"><ele>1162.0</ele><time>2026-05-02T17:00:21.988Z</time></trkpt><trkpt lat="42.3045448" lon="13.257892"><ele>1164.0</ele><time>2026-05-02T17:00:22.987Z</time></trkpt><trkpt lat="42.3043617" lon="13.2579646"><ele>1164.0</ele><time>2026-05-02T17:00:23.987Z</time></trkpt><trkpt lat="42.3041777" lon="13.2580303"><ele>1164.0</ele><time>2026-05-02T17:00:24.988Z</time></trkpt><trkpt lat="42.3040021" lon="13.2580968"><ele>1164.0</ele><time>2026-05-02T17:00:25.988Z</time></trkpt><trkpt lat="42.303833" lon="13.2581577"><ele>1155.25</ele><time>2026-05-02T17:00:26.988Z</time></trkpt><trkpt lat="42.3036781" lon="13.2582191"><ele>1146.5</ele><time>2026-05-02T17:00:27.987Z</time></trkpt><trkpt lat="42.3035475" lon="13.2582674"><ele>1137.75</ele><time>2026-05-02T17:00:28.988Z</time></trkpt><trkpt lat="42.3034338" lon="13.2583058"><ele>1129.0</ele><time>2026-05-02T17:00:29.987Z</time></trkpt><trkpt lat="42.3033324" lon="13.2583266"><ele>1129.0</ele><time>2026-05-02T17:00:30.988Z</time></trkpt><trkpt lat="42.3032407" lon="13.2583166"><ele>1129.0</ele><time>2026-05-02T17:00:31.987Z</time></trkpt><trkpt lat="42.3031429" lon="13.2582762"><ele>1129.0</ele><time>2026-05-02T17:00:32.988Z</time></trkpt><trkpt lat="42.3030408" lon="13.258177"><ele>1129.0</ele><time>2026-05-02T17:00:33.987Z</time></trkpt><trkpt lat="42.3029331" lon="13.2580527"><ele>1130.3333333333333</ele><time>2026-05-02T17:00:34.988Z</time></trkpt><trkpt lat="42.3028103" lon="13.2579025"><ele>1131.6666666666667</ele><time>2026-05-02T17:00:35.988Z</time></trkpt><trkpt lat="42.3026812" lon="13.2577437"><ele>1133.0</ele><time>2026-05-02T17:00:36.988Z</time></trkpt><trkpt lat="42.3025635" lon="13.257596"><ele>1133.0</ele><time>2026-05-02T17:00:37.988Z</time></trkpt><trkpt lat="42.3024493" lon="13.2574561"><ele>1133.0</ele><time>2026-05-02T17:00:38.988Z</time></trkpt><trkpt lat="42.3023277" lon="13.2573224"><ele>1133.0</ele><time>2026-05-02T17:00:39.988Z</time></trkpt><trkpt lat="42.3021861" lon="13.2572004"><ele>1132.0</ele><time>2026-05-02T17:00:40.988Z</time></trkpt><trkpt lat="42.3020316" lon="13.257086"><ele>1131.0</ele><time>2026-05-02T17:00:41.988Z</time></trkpt><trkpt lat="42.3018846" lon="13.2569876"><ele>1130.0</ele><time>2026-05-02T17:00:42.988Z</time></trkpt><trkpt lat="42.3017593" lon="13.2568989"><ele>1130.0</ele><time>2026-05-02T17:00:43.988Z</time></trkpt><trkpt lat="42.3016541" lon="13.2568323"><ele>1130.0</ele><time>2026-05-02T17:00:44.988Z</time></trkpt><trkpt lat="42.3015585" lon="13.2568025"><ele>1130.0</ele><time>2026-05-02T17:00:45.988Z</time></trkpt><trkpt lat="42.3014663" lon="13.2568161"><ele>1130.0</ele><time>2026-05-02T17:00:46.988Z</time></trkpt><trkpt lat="42.3013803" lon="13.256871"><ele>1130.0</ele><time>2026-05-02T17:00:47.987Z</time></trkpt><trkpt lat="42.30131" lon="13.2569217"><ele>1137.0</ele><time>2026-05-02T17:00:48.988Z</time></trkpt><trkpt lat="42.3012406" lon="13.2570622"><ele>1144.0</ele><time>2026-05-02T17:00:49.988Z</time></trkpt><trkpt lat="42.3011803" lon="13.2571978"><ele>1151.0</ele><time>2026-05-02T17:00:50.988Z</time></trkpt><trkpt lat="42.3011371" lon="13.2575387"><ele>1151.0</ele><time>2026-05-02T17:00:51.988Z</time></trkpt><trkpt lat="42.3011086" lon="13.2577817"><ele>1151.0</ele><time>2026-05-02T17:00:52.988Z</time></trkpt><trkpt lat="42.3010783" lon="13.2580469"><ele>1151.0</ele><time>2026-05-02T17:00:53.987Z</time></trkpt><trkpt lat="42.3010376" lon="13.2582908"><ele>1147.0</ele><time>2026-05-02T17:00:54.988Z</time></trkpt><trkpt lat="42.301006" lon="13.2585292"><ele>1143.0</ele><time>2026-05-02T17:00:55.988Z</time></trkpt><trkpt lat="42.3009983" lon="13.258754"><ele>1139.0</ele><time>2026-05-02T17:00:56.987Z</time></trkpt><trkpt lat="42.3009951" lon="13.2589869"><ele>1137.6666666666667</ele><time>2026-05-02T17:00:57.988Z</time></trkpt><trkpt lat="42.3009983" lon="13.2592473"><ele>1136.3333333333333</ele><time>2026-05-02T17:00:58.988Z</time></trkpt><trkpt lat="42.301013" lon="13.2595153"><ele>1135.0</ele><time>2026-05-02T17:00:59.988Z</time></trkpt><trkpt lat="42.3010466" lon="13.2598043"><ele>1134.0</ele><time>2026-05-02T17:01:00.988Z</time></trkpt><trkpt lat="42.3010898" lon="13.2600762"><ele>1133.0</ele><time>2026-05-02T17:01:01.988Z</time></trkpt><trkpt lat="42.3011258" lon="13.2603188"><ele>1132.0</ele><time>2026-05-02T17:01:02.988Z</time></trkpt><trkpt lat="42.301159" lon="13.2605237"><ele>1129.4</ele><time>2026-05-02T17:01:03.988Z</time></trkpt><trkpt lat="42.3011778" lon="13.2607113"><ele>1126.8000000000002</ele><time>2026-05-02T17:01:04.988Z</time></trkpt><trkpt lat="42.3011782" lon="13.2608559"><ele>1124.2</ele><time>2026-05-02T17:01:05.987Z</time></trkpt><trkpt lat="42.3011542" lon="13.2609763"><ele>1121.6000000000001</ele><time>2026-05-02T17:01:06.988Z</time></trkpt><trkpt lat="42.301095" lon="13.2610864"><ele>1119.0</ele><time>2026-05-02T17:01:07.988Z</time></trkpt><trkpt lat="42.301006" lon="13.2611872"><ele>1119.0</ele><time>2026-05-02T17:01:08.988Z</time></trkpt><trkpt lat="42.30089" lon="13.2612845"><ele>1119.0</ele><time>2026-05-02T17:01:09.987Z</time></trkpt><trkpt lat="42.3007619" lon="13.2613678"><ele>1119.0</ele><time>2026-05-02T17:01:10.987Z</time></trkpt><trkpt lat="42.300639" lon="13.2614238"><ele>1119.0</ele><time>2026-05-02T17:01:11.988Z</time></trkpt><trkpt lat="42.3005212" lon="13.2614783"><ele>1117.25</ele><time>2026-05-02T17:01:12.988Z</time></trkpt><trkpt lat="42.3004196" lon="13.2615594"><ele>1115.5</ele><time>2026-05-02T17:01:13.987Z</time></trkpt><trkpt lat="42.3003222" lon="13.2616334"><ele>1113.75</ele><time>2026-05-02T17:01:14.988Z</time></trkpt><trkpt lat="42.3002271" lon="13.261789"><ele>1112.0</ele><time>2026-05-02T17:01:15.988Z</time></trkpt><trkpt lat="42.3002245" lon="13.2619863"><ele>1112.0</ele><time>2026-05-02T17:01:16.988Z</time></trkpt><trkpt lat="42.3001608" lon="13.2621131"><ele>1112.0</ele><time>2026-05-02T17:01:17.988Z</time></trkpt><trkpt lat="42.3000756" lon="13.2622022"><ele>1112.0</ele><time>2026-05-02T17:01:18.988Z</time></trkpt><trkpt lat="42.299965" lon="13.2622761"><ele>1112.0</ele><time>2026-05-02T17:01:19.988Z</time></trkpt><trkpt lat="42.2998512" lon="13.2623665"><ele>1106.0</ele><time>2026-05-02T17:01:20.988Z</time></trkpt><trkpt lat="42.2997452" lon="13.2624547"><ele>1100.0</ele><time>2026-05-02T17:01:21.988Z</time></trkpt><trkpt lat="42.2996512" lon="13.2625503"><ele>1094.0</ele><time>2026-05-02T17:01:22.988Z</time></trkpt><trkpt lat="42.2995598" lon="13.2626139"><ele>1088.0</ele><time>2026-05-02T17:01:23.988Z</time></trkpt><trkpt lat="42.2994693" lon="13.2626463"><ele>1082.0</ele><time>2026-05-02T17:01:24.988Z</time></trkpt><trkpt lat="42.2993871" lon="13.2626361"><ele>1082.0</ele><time>2026-05-02T17:01:25.987Z</time></trkpt><trkpt lat="42.2993051" lon="13.2625753"><ele>1082.0</ele><time>2026-05-02T17:01:26.988Z</time></trkpt><trkpt lat="42.2992394" lon="13.2624758"><ele>1082.0</ele><time>2026-05-02T17:01:27.987Z</time></trkpt><trkpt lat="42.2991875" lon="13.2623418"><ele>1082.0</ele><time>2026-05-02T17:01:28.988Z</time></trkpt><trkpt lat="42.2991432" lon="13.2621823"><ele>1082.0</ele><time>2026-05-02T17:01:29.988Z</time></trkpt><trkpt lat="42.2991046" lon="13.2620173"><ele>1085.2</ele><time>2026-05-02T17:01:30.988Z</time></trkpt><trkpt lat="42.2990667" lon="13.2618703"><ele>1088.4</ele><time>2026-05-02T17:01:31.988Z</time></trkpt><trkpt lat="42.299031" lon="13.2617307"><ele>1091.6</ele><time>2026-05-02T17:01:32.988Z</time></trkpt><trkpt lat="42.2989894" lon="13.2616134"><ele>1094.8</ele><time>2026-05-02T17:01:33.988Z</time></trkpt><trkpt lat="42.2989373" lon="13.2615103"><ele>1098.0</ele><time>2026-05-02T17:01:34.988Z</time></trkpt><trkpt lat="42.2988825" lon="13.2614189"><ele>1097.75</ele><time>2026-05-02T17:01:35.988Z</time></trkpt><trkpt lat="42.2987841" lon="13.2614138"><ele>1097.5</ele><time>2026-05-02T17:01:36.988Z</time></trkpt><trkpt lat="42.2987065" lon="13.2614722"><ele>1097.25</ele><time>2026-05-02T17:01:37.988Z</time></trkpt><trkpt lat="42.2986289" lon="13.2615687"><ele>1097.0</ele><time>2026-05-02T17:01:38.988Z</time></trkpt><trkpt lat="42.2985289" lon="13.2617541"><ele>1097.0</ele><time>2026-05-02T17:01:39.988Z</time></trkpt><trkpt lat="42.2984224" lon="13.261856"><ele>1097.0</ele><time>2026-05-02T17:01:40.988Z</time></trkpt><trkpt lat="42.2983055" lon="13.2619172"><ele>1097.0</ele><time>2026-05-02T17:01:41.988Z</time></trkpt><trkpt lat="42.298187" lon="13.2619499"><ele>1097.0</ele><time>2026-05-02T17:01:42.988Z</time></trkpt><trkpt lat="42.2980815" lon="13.2619991"><ele>1096.6</ele><time>2026-05-02T17:01:43.987Z</time></trkpt><trkpt lat="42.2979952" lon="13.2620498"><ele>1096.2</ele><time>2026-05-02T17:01:44.988Z</time></trkpt><trkpt lat="42.2979301" lon="13.2621689"><ele>1095.8</ele><time>2026-05-02T17:01:45.987Z</time></trkpt><trkpt lat="42.2978991" lon="13.2623051"><ele>1095.4</ele><time>2026-05-02T17:01:46.988Z</time></trkpt><trkpt lat="42.2978926" lon="13.2624619"><ele>1095.0</ele><time>2026-05-02T17:01:47.988Z</time></trkpt><trkpt lat="42.2978926" lon="13.2626511"><ele>1095.0</ele><time>2026-05-02T17:01:48.988Z</time></trkpt><trkpt lat="42.297857" lon="13.2628283"><ele>1095.0</ele><time>2026-05-02T17:01:49.988Z</time></trkpt><trkpt lat="42.2978054" lon="13.2629847"><ele>1095.0</ele><time>2026-05-02T17:01:50.987Z</time></trkpt><trkpt lat="42.2977404" lon="13.2631089"><ele>1095.0</ele><time>2026-05-02T17:01:51.988Z</time></trkpt><trkpt lat="42.297669" lon="13.2631862"><ele>1093.4</ele><time>2026-05-02T17:01:52.988Z</time></trkpt><trkpt lat="42.2975738" lon="13.2632296"><ele>1091.8</ele><time>2026-05-02T17:01:53.987Z</time></trkpt><trkpt lat="42.2974638" lon="13.2632403"><ele>1090.2</ele><time>2026-05-02T17:01:54.988Z</time></trkpt><trkpt lat="42.2973462" lon="13.2632237"><ele>1088.6</ele><time>2026-05-02T17:01:55.988Z</time></trkpt><trkpt lat="42.2972363" lon="13.2631884"><ele>1087.0</ele><time>2026-05-02T17:01:56.988Z</time></trkpt><trkpt lat="42.2971371" lon="13.2631722"><ele>1087.0</ele><time>2026-05-02T17:01:57.988Z</time></trkpt><trkpt lat="42.2970366" lon="13.2631997"><ele>1087.0</ele><time>2026-05-02T17:01:58.988Z</time></trkpt><trkpt lat="42.2969418" lon="13.2632659"><ele>1087.0</ele><time>2026-05-02T17:01:59.988Z</time></trkpt><trkpt lat="42.2968599" lon="13.2633602"><ele>1087.0</ele><time>2026-05-02T17:02:00.988Z</time></trkpt><trkpt lat="42.2967982" lon="13.2635028"><ele>1087.0</ele><time>2026-05-02T17:02:01.988Z</time></trkpt><trkpt lat="42.2967668" lon="13.2636505"><ele>1087.0</ele><time>2026-05-02T17:02:02.988Z</time></trkpt><trkpt lat="42.2967792" lon="13.2638086"><ele>1087.0</ele><time>2026-05-02T17:02:03.988Z</time></trkpt><trkpt lat="42.2967948" lon="13.2639557"><ele>1087.0</ele><time>2026-05-02T17:02:04.988Z</time></trkpt><trkpt lat="42.2967829" lon="13.2641048"><ele>1087.0</ele><time>2026-05-02T17:02:05.988Z</time></trkpt><trkpt lat="42.2967355" lon="13.2642462"><ele>1083.0</ele><time>2026-05-02T17:02:06.988Z</time></trkpt><trkpt lat="42.2966552" lon="13.2643572"><ele>1079.0</ele><time>2026-05-02T17:02:07.988Z</time></trkpt><trkpt lat="42.2965736" lon="13.2644791"><ele>1075.0</ele><time>2026-05-02T17:02:08.988Z</time></trkpt><trkpt lat="42.2965171" lon="13.2646205"><ele>1071.0</ele><time>2026-05-02T17:02:09.988Z</time></trkpt><trkpt lat="42.2965077" lon="13.2647733"><ele>1068.0</ele><time>2026-05-02T17:02:10.987Z</time></trkpt><trkpt lat="42.2965039" lon="13.264913"><ele>1065.0</ele><time>2026-05-02T17:02:11.988Z</time></trkpt><trkpt lat="42.2964996" lon="13.265029"><ele>1062.0</ele><time>2026-05-02T17:02:12.988Z</time></trkpt><trkpt lat="42.2964927" lon="13.2651835"><ele>1059.0</ele><time>2026-05-02T17:02:14.988Z</time></trkpt><trkpt lat="42.2964834" lon="13.2653043"><ele>1056.0</ele><time>2026-05-02T17:02:16.987Z</time></trkpt><trkpt lat="42.2964727" lon="13.2654273"><ele>1056.0</ele><time>2026-05-02T17:02:26.988Z</time></trkpt><trkpt lat="42.296437" lon="13.2656053"><ele>1056.0</ele><time>2026-05-02T17:02:28.987Z</time></trkpt><trkpt lat="42.2964079" lon="13.2657177"><ele>1056.0</ele><time>2026-05-02T17:02:29.988Z</time></trkpt><trkpt lat="42.2963754" lon="13.2658305"><ele>1056.0</ele><time>2026-05-02T17:02:30.987Z</time></trkpt><trkpt lat="42.2963433" lon="13.2659358"><ele>1056.0</ele><time>2026-05-02T17:02:31.988Z</time></trkpt><trkpt lat="42.2963261" lon="13.2660675"><ele>1054.0</ele><time>2026-05-02T17:02:33.988Z</time></trkpt><trkpt lat="42.2963947" lon="13.2661317"><ele>1052.0</ele><time>2026-05-02T17:02:35.988Z</time></trkpt><trkpt lat="42.2965087" lon="13.2660913"><ele>1050.0</ele><time>2026-05-02T17:02:37.988Z</time></trkpt><trkpt lat="42.2965785" lon="13.2660503"><ele>1048.0</ele><time>2026-05-02T17:02:38.988Z</time></trkpt><trkpt lat="42.2966617" lon="13.265999"><ele>1046.0</ele><time>2026-05-02T17:02:39.988Z</time></trkpt><trkpt lat="42.2967538" lon="13.2659629"><ele>1046.0</ele><time>2026-05-02T17:02:40.988Z</time></trkpt><trkpt lat="42.2968435" lon="13.2659338"><ele>1046.0</ele><time>2026-05-02T17:02:41.988Z</time></trkpt><trkpt lat="42.296932" lon="13.2659241"><ele>1046.0</ele><time>2026-05-02T17:02:42.988Z</time></trkpt><trkpt lat="42.2970137" lon="13.2659284"><ele>1046.0</ele><time>2026-05-02T17:02:43.988Z</time></trkpt><trkpt lat="42.2970851" lon="13.2659635"><ele>1046.0</ele><time>2026-05-02T17:02:44.988Z</time></trkpt><trkpt lat="42.2971521" lon="13.2660293"><ele>1046.0</ele><time>2026-05-02T17:02:45.988Z</time></trkpt><trkpt lat="42.2972029" lon="13.2661123"><ele>1046.0</ele><time>2026-05-02T17:02:46.988Z</time></trkpt><trkpt lat="42.2972252" lon="13.2661938"><ele>1046.0</ele><time>2026-05-02T17:02:47.988Z</time></trkpt><trkpt lat="42.2971741" lon="13.2663405"><ele>1046.0</ele><time>2026-05-02T17:02:49.988Z</time></trkpt><trkpt lat="42.2971066" lon="13.2663778"><ele>1046.0</ele><time>2026-05-02T17:02:50.988Z</time></trkpt><trkpt lat="42.2970205" lon="13.2664003"><ele>1046.0</ele><time>2026-05-02T17:02:51.987Z</time></trkpt><trkpt lat="42.296929" lon="13.2664547"><ele>1046.0</ele><time>2026-05-02T17:02:52.988Z</time></trkpt><trkpt lat="42.2968524" lon="13.2665481"><ele>1042.25</ele><time>2026-05-02T17:02:53.988Z</time></trkpt><trkpt lat="42.296786" lon="13.2666649"><ele>1038.5</ele><time>2026-05-02T17:02:54.988Z</time></trkpt><trkpt lat="42.2967266" lon="13.2668249"><ele>1034.75</ele><time>2026-05-02T17:02:55.988Z</time></trkpt><trkpt lat="42.2966649" lon="13.2669812"><ele>1031.0</ele><time>2026-05-02T17:02:56.988Z</time></trkpt><trkpt lat="42.2966019" lon="13.2671384"><ele>1033.75</ele><time>2026-05-02T17:02:57.988Z</time></trkpt><trkpt lat="42.2965353" lon="13.2672953"><ele>1036.5</ele><time>2026-05-02T17:02:58.988Z</time></trkpt><trkpt lat="42.2964797" lon="13.2674549"><ele>1039.25</ele><time>2026-05-02T17:02:59.988Z</time></trkpt><trkpt lat="42.296435" lon="13.2676242"><ele>1042.0</ele><time>2026-05-02T17:03:00.988Z</time></trkpt><trkpt lat="42.2963972" lon="13.267804"><ele>1042.0</ele><time>2026-05-02T17:03:01.988Z</time></trkpt><trkpt lat="42.29637" lon="13.2679836"><ele>1042.0</ele><time>2026-05-02T17:03:02.988Z</time></trkpt><trkpt lat="42.2963465" lon="13.2681737"><ele>1042.0</ele><time>2026-05-02T17:03:03.987Z</time></trkpt><trkpt lat="42.2963246" lon="13.2683504"><ele>1042.0</ele><time>2026-05-02T17:03:04.988Z</time></trkpt><trkpt lat="42.2962949" lon="13.2685295"><ele>1036.25</ele><time>2026-05-02T17:03:05.988Z</time></trkpt><trkpt lat="42.2962427" lon="13.2687148"><ele>1030.5</ele><time>2026-05-02T17:03:06.988Z</time></trkpt><trkpt lat="42.2961776" lon="13.2688936"><ele>1024.75</ele><time>2026-05-02T17:03:07.988Z</time></trkpt><trkpt lat="42.2961129" lon="13.2690474"><ele>1019.0</ele><time>2026-05-02T17:03:08.988Z</time></trkpt><trkpt lat="42.2960591" lon="13.2691773"><ele>1015.6</ele><time>2026-05-02T17:03:09.988Z</time></trkpt><trkpt lat="42.296002" lon="13.2693129"><ele>1012.2</ele><time>2026-05-02T17:03:10.988Z</time></trkpt><trkpt lat="42.2959621" lon="13.2694275"><ele>1008.8000000000001</ele><time>2026-05-02T17:03:12.988Z</time></trkpt><trkpt lat="42.2959906" lon="13.2695583"><ele>1005.4000000000001</ele><time>2026-05-02T17:03:14.988Z</time></trkpt><trkpt lat="42.2960835" lon="13.2696364"><ele>1002.0</ele><time>2026-05-02T17:03:16.988Z</time></trkpt><trkpt lat="42.2961982" lon="13.2694498"><ele>1002.0</ele><time>2026-05-02T17:03:17.988Z</time></trkpt><trkpt lat="42.296276" lon="13.269389"><ele>1002.0</ele><time>2026-05-02T17:03:18.988Z</time></trkpt><trkpt lat="42.2963672" lon="13.2693209"><ele>1002.0</ele><time>2026-05-02T17:03:19.988Z</time></trkpt><trkpt lat="42.2964799" lon="13.2692585"><ele>1002.0</ele><time>2026-05-02T17:03:20.988Z</time></trkpt><trkpt lat="42.2965929" lon="13.2691963"><ele>1002.0</ele><time>2026-05-02T17:03:21.988Z</time></trkpt><trkpt lat="42.2966815" lon="13.2691563"><ele>998.3333333333334</ele><time>2026-05-02T17:03:22.988Z</time></trkpt><trkpt lat="42.296759" lon="13.2691423"><ele>994.6666666666667</ele><time>2026-05-02T17:03:23.988Z</time></trkpt><trkpt lat="42.2968269" lon="13.2691625"><ele>991.0</ele><time>2026-05-02T17:03:24.988Z</time></trkpt><trkpt lat="42.2968998" lon="13.2692058"><ele>987.3333333333334</ele><time>2026-05-02T17:03:25.988Z</time></trkpt><trkpt lat="42.2969146" lon="13.2693216"><ele>983.6666666666667</ele><time>2026-05-02T17:03:26.988Z</time></trkpt><trkpt lat="42.2969538" lon="13.2694394"><ele>980.0</ele><time>2026-05-02T17:03:27.988Z</time></trkpt><trkpt lat="42.2969771" lon="13.2696081"><ele>978.75</ele><time>2026-05-02T17:03:28.987Z</time></trkpt><trkpt lat="42.2970079" lon="13.2697918"><ele>977.5</ele><time>2026-05-02T17:03:29.988Z</time></trkpt><trkpt lat="42.2970336" lon="13.269982"><ele>976.25</ele><time>2026-05-02T17:03:30.988Z</time></trkpt><trkpt lat="42.2970558" lon="13.2701673"><ele>975.0</ele><time>2026-05-02T17:03:31.988Z</time></trkpt><trkpt lat="42.2970829" lon="13.270355"><ele>975.0</ele><time>2026-05-02T17:03:32.988Z</time></trkpt><trkpt lat="42.2971178" lon="13.2705506"><ele>975.0</ele><time>2026-05-02T17:03:33.987Z</time></trkpt><trkpt lat="42.2971623" lon="13.2707454"><ele>975.0</ele><time>2026-05-02T17:03:34.988Z</time></trkpt><trkpt lat="42.2972179" lon="13.2709346"><ele>968.5</ele><time>2026-05-02T17:03:35.988Z</time></trkpt><trkpt lat="42.2972821" lon="13.2711175"><ele>962.0</ele><time>2026-05-02T17:03:36.988Z</time></trkpt><trkpt lat="42.2973534" lon="13.2712838"><ele>955.5</ele><time>2026-05-02T17:03:37.988Z</time></trkpt><trkpt lat="42.2974364" lon="13.2714388"><ele>949.0</ele><time>2026-05-02T17:03:38.987Z</time></trkpt><trkpt lat="42.2975536" lon="13.2715814"><ele>948.8000000000001</ele><time>2026-05-02T17:03:39.988Z</time></trkpt><trkpt lat="42.2976534" lon="13.2717099"><ele>948.6000000000001</ele><time>2026-05-02T17:03:40.988Z</time></trkpt><trkpt lat="42.2977393" lon="13.2718109"><ele>948.4</ele><time>2026-05-02T17:03:41.988Z</time></trkpt><trkpt lat="42.2978355" lon="13.2719105"><ele>948.2</ele><time>2026-05-02T17:03:42.987Z</time></trkpt><trkpt lat="42.2978941" lon="13.2719562"><ele>948.0</ele><time>2026-05-02T17:03:43.987Z</time></trkpt><trkpt lat="42.2979938" lon="13.2719809"><ele>948.0</ele><time>2026-05-02T17:03:44.988Z</time></trkpt><trkpt lat="42.2980593" lon="13.2719861"><ele>948.0</ele><time>2026-05-02T17:03:45.988Z</time></trkpt><trkpt lat="42.2980856" lon="13.271748"><ele>948.0</ele><time>2026-05-02T17:03:46.988Z</time></trkpt><trkpt lat="42.2981308" lon="13.2715506"><ele>948.0</ele><time>2026-05-02T17:03:47.987Z</time></trkpt><trkpt lat="42.2981625" lon="13.271446"><ele>944.4</ele><time>2026-05-02T17:03:48.988Z</time></trkpt><trkpt lat="42.2981926" lon="13.2713661"><ele>940.8</ele><time>2026-05-02T17:03:49.988Z</time></trkpt><trkpt lat="42.2982838" lon="13.2712781"><ele>937.2</ele><time>2026-05-02T17:03:51.987Z</time></trkpt><trkpt lat="42.2983497" lon="13.2713074"><ele>933.6</ele><time>2026-05-02T17:03:52.987Z</time></trkpt><trkpt lat="42.298427" lon="13.2713741"><ele>930.0</ele><time>2026-05-02T17:03:53.988Z</time></trkpt><trkpt lat="42.2985099" lon="13.2714865"><ele>930.0</ele><time>2026-05-02T17:03:54.987Z</time></trkpt><trkpt lat="42.2985954" lon="13.2716293"><ele>930.0</ele><time>2026-05-02T17:03:55.988Z</time></trkpt><trkpt lat="42.2986732" lon="13.2717892"><ele>930.0</ele><time>2026-05-02T17:03:56.988Z</time></trkpt><trkpt lat="42.2987474" lon="13.271942"><ele>930.0</ele><time>2026-05-02T17:03:57.988Z</time></trkpt><trkpt lat="42.2988257" lon="13.2720759"><ele>930.0</ele><time>2026-05-02T17:03:58.988Z</time></trkpt><trkpt lat="42.2989159" lon="13.2721823"><ele>930.0</ele><time>2026-05-02T17:03:59.988Z</time></trkpt><trkpt lat="42.2990207" lon="13.2722489"><ele>930.0</ele><time>2026-05-02T17:04:00.988Z</time></trkpt><trkpt lat="42.2991384" lon="13.272278"><ele>930.0</ele><time>2026-05-02T17:04:01.987Z</time></trkpt><trkpt lat="42.2992765" lon="13.2722953"><ele>924.3333333333333</ele><time>2026-05-02T17:04:02.988Z</time></trkpt><trkpt lat="42.2994269" lon="13.2723182"><ele>918.6666666666666</ele><time>2026-05-02T17:04:03.988Z</time></trkpt><trkpt lat="42.2995819" lon="13.2723601"><ele>913.0</ele><time>2026-05-02T17:04:04.987Z</time></trkpt><trkpt lat="42.2997309" lon="13.2724315"><ele>909.25</ele><time>2026-05-02T17:04:05.988Z</time></trkpt><trkpt lat="42.2998787" lon="13.2724962"><ele>905.5</ele><time>2026-05-02T17:04:06.988Z</time></trkpt><trkpt lat="42.3000094" lon="13.2725512"><ele>901.75</ele><time>2026-05-02T17:04:07.988Z</time></trkpt><trkpt lat="42.3001301" lon="13.2726122"><ele>898.0</ele><time>2026-05-02T17:04:08.987Z</time></trkpt><trkpt lat="42.3002171" lon="13.2726676"><ele>898.0</ele><time>2026-05-02T17:04:09.988Z</time></trkpt><trkpt lat="42.3002815" lon="13.2727246"><ele>897.9999999999999</ele><time>2026-05-02T17:04:10.988Z</time></trkpt><trkpt lat="42.3003252" lon="13.2727971"><ele>898.0</ele><time>2026-05-02T17:04:11.987Z</time></trkpt><trkpt lat="42.3003262" lon="13.2729003"><ele>898.0</ele><time>2026-05-02T17:04:12.987Z</time></trkpt><trkpt lat="42.3003105" lon="13.272983"><ele>897.9999999999999</ele><time>2026-05-02T17:04:13.988Z</time></trkpt><trkpt lat="42.3002861" lon="13.2730667"><ele>898.0</ele><time>2026-05-02T17:04:14.988Z</time></trkpt><trkpt lat="42.3002808" lon="13.2731587"><ele>898.0</ele><time>2026-05-02T17:04:15.988Z</time></trkpt><trkpt lat="42.3002981" lon="13.2732519"><ele>896.5</ele><time>2026-05-02T17:04:16.988Z</time></trkpt><trkpt lat="42.3003157" lon="13.2733804"><ele>895.0</ele><time>2026-05-02T17:04:17.987Z</time></trkpt><trkpt lat="42.3003514" lon="13.2735664"><ele>893.5</ele><time>2026-05-02T17:04:18.988Z</time></trkpt><trkpt lat="42.3004503" lon="13.2737326"><ele>892.0</ele><time>2026-05-02T17:04:19.988Z</time></trkpt><trkpt lat="42.3005117" lon="13.2739223"><ele>889.75</ele><time>2026-05-02T17:04:20.988Z</time></trkpt><trkpt lat="42.3006035" lon="13.2740845"><ele>887.5</ele><time>2026-05-02T17:04:21.988Z</time></trkpt><trkpt lat="42.3006475" lon="13.2742605"><ele>885.25</ele><time>2026-05-02T17:04:22.988Z</time></trkpt><trkpt lat="42.3007061" lon="13.2744303"><ele>883.0</ele><time>2026-05-02T17:04:23.986Z</time></trkpt><trkpt lat="42.3007699" lon="13.2745699"><ele>883.0</ele><time>2026-05-02T17:04:24.988Z</time></trkpt><trkpt lat="42.3008169" lon="13.2746994"><ele>883.0</ele><time>2026-05-02T17:04:25.988Z</time></trkpt><trkpt lat="42.3008642" lon="13.2748027"><ele>883.0</ele><time>2026-05-02T17:04:26.988Z</time></trkpt><trkpt lat="42.3009212" lon="13.2748711"><ele>883.0</ele><time>2026-05-02T17:04:27.987Z</time></trkpt><trkpt lat="42.3009962" lon="13.2749857"><ele>883.0</ele><time>2026-05-02T17:04:29.988Z</time></trkpt><trkpt lat="42.3010682" lon="13.2750931"><ele>880.8571428571429</ele><time>2026-05-02T17:04:31.988Z</time></trkpt><trkpt lat="42.3011085" lon="13.2751666"><ele>878.7142857142857</ele><time>2026-05-02T17:04:32.988Z</time></trkpt><trkpt lat="42.3011497" lon="13.2752518"><ele>876.5714285714286</ele><time>2026-05-02T17:04:33.988Z</time></trkpt><trkpt lat="42.3011948" lon="13.2753369"><ele>874.4285714285714</ele><time>2026-05-02T17:04:34.988Z</time></trkpt><trkpt lat="42.3012392" lon="13.27542"><ele>872.2857142857142</ele><time>2026-05-02T17:04:35.988Z</time></trkpt><trkpt lat="42.3012828" lon="13.2755016"><ele>870.1428571428571</ele><time>2026-05-02T17:04:36.987Z</time></trkpt><trkpt lat="42.3013263" lon="13.2755721"><ele>868.0</ele><time>2026-05-02T17:04:37.988Z</time></trkpt><trkpt lat="42.3013985" lon="13.2756812"><ele>866.1666666666666</ele><time>2026-05-02T17:04:39.988Z</time></trkpt><trkpt lat="42.3014404" lon="13.2757654"><ele>864.3333333333333</ele><time>2026-05-02T17:04:41.988Z</time></trkpt><trkpt lat="42.3015175" lon="13.2758028"><ele>862.5</ele><time>2026-05-02T17:04:44.988Z</time></trkpt><trkpt lat="42.3015812" lon="13.2757289"><ele>860.6666666666667</ele><time>2026-05-02T17:04:46.988Z</time></trkpt><trkpt lat="42.3016203" lon="13.2756612"><ele>858.8333333333334</ele><time>2026-05-02T17:04:47.988Z</time></trkpt><trkpt lat="42.3016573" lon="13.2755848"><ele>857.0</ele><time>2026-05-02T17:04:48.988Z</time></trkpt><trkpt lat="42.3017114" lon="13.2754498"><ele>857.0000000000001</ele><time>2026-05-02T17:04:50.988Z</time></trkpt><trkpt lat="42.3017534" lon="13.2753333"><ele>857.0</ele><time>2026-05-02T17:04:52.988Z</time></trkpt><trkpt lat="42.3017964" lon="13.2752433"><ele>857.0</ele><time>2026-05-02T17:04:54.987Z</time></trkpt><trkpt lat="42.3018625" lon="13.275229"><ele>857.0</ele><time>2026-05-02T17:04:56.987Z</time></trkpt><trkpt lat="42.3019282" lon="13.2753133"><ele>857.0000000000001</ele><time>2026-05-02T17:04:58.987Z</time></trkpt><trkpt lat="42.3019534" lon="13.2753954"><ele>857.0</ele><time>2026-05-02T17:04:59.988Z</time></trkpt><trkpt lat="42.3019814" lon="13.2754841"><ele>857.0000000000001</ele><time>2026-05-02T17:05:00.988Z</time></trkpt><trkpt lat="42.3020136" lon="13.2755872"><ele>857.0</ele><time>2026-05-02T17:05:01.988Z</time></trkpt><trkpt lat="42.3020513" lon="13.275693"><ele>857.0</ele><time>2026-05-02T17:05:02.988Z</time></trkpt><trkpt lat="42.3020825" lon="13.2758084"><ele>857.0</ele><time>2026-05-02T17:05:03.988Z</time></trkpt><trkpt lat="42.3021119" lon="13.2759166"><ele>857.0000000000001</ele><time>2026-05-02T17:05:04.988Z</time></trkpt><trkpt lat="42.3021409" lon="13.2760201"><ele>857.0</ele><time>2026-05-02T17:05:05.988Z</time></trkpt><trkpt lat="42.3021734" lon="13.2761162"><ele>855.8</ele><time>2026-05-02T17:05:06.988Z</time></trkpt><trkpt lat="42.3022027" lon="13.2762046"><ele>854.6</ele><time>2026-05-02T17:05:07.988Z</time></trkpt><trkpt lat="42.3022364" lon="13.276361"><ele>853.4</ele><time>2026-05-02T17:05:09.988Z</time></trkpt><trkpt lat="42.3022414" lon="13.2765069"><ele>852.1999999999999</ele><time>2026-05-02T17:05:11.988Z</time></trkpt><trkpt lat="42.3022349" lon="13.276657"><ele>851.0</ele><time>2026-05-02T17:05:13.988Z</time></trkpt><trkpt lat="42.3022151" lon="13.2767388"><ele>850.3333333333334</ele><time>2026-05-02T17:05:14.988Z</time></trkpt><trkpt lat="42.3021599" lon="13.276896"><ele>849.6666666666667</ele><time>2026-05-02T17:05:16.988Z</time></trkpt><trkpt lat="42.302125" lon="13.2769851"><ele>849.0</ele><time>2026-05-02T17:05:17.988Z</time></trkpt><trkpt lat="42.3021027" lon="13.2770781"><ele>848.3333333333333</ele><time>2026-05-02T17:05:18.988Z</time></trkpt><trkpt lat="42.3020878" lon="13.2771735"><ele>847.6666666666666</ele><time>2026-05-02T17:05:19.988Z</time></trkpt><trkpt lat="42.3020799" lon="13.2772728"><ele>847.0</ele><time>2026-05-02T17:05:20.988Z</time></trkpt><trkpt lat="42.3020744" lon="13.2773694"><ele>845.3333333333333</ele><time>2026-05-02T17:05:21.987Z</time></trkpt><trkpt lat="42.3020851" lon="13.2774712"><ele>843.6666666666666</ele><time>2026-05-02T17:05:22.988Z</time></trkpt><trkpt lat="42.3021018" lon="13.2775656"><ele>842.0</ele><time>2026-05-02T17:05:23.988Z</time></trkpt><trkpt lat="42.3021355" lon="13.2776563"><ele>840.3333333333333</ele><time>2026-05-02T17:05:24.988Z</time></trkpt><trkpt lat="42.3021815" lon="13.2777405"><ele>838.6666666666666</ele><time>2026-05-02T17:05:25.988Z</time></trkpt><trkpt lat="42.3022234" lon="13.2778103"><ele>837.0</ele><time>2026-05-02T17:05:26.988Z</time></trkpt><trkpt lat="42.3022841" lon="13.2778982"><ele>836.8333333333334</ele><time>2026-05-02T17:05:28.988Z</time></trkpt><trkpt lat="42.3023315" lon="13.2779687"><ele>836.6666666666667</ele><time>2026-05-02T17:05:59.988Z</time></trkpt><trkpt lat="42.3024223" lon="13.2780398"><ele>836.5</ele><time>2026-05-02T17:06:02.988Z</time></trkpt><trkpt lat="42.3024932" lon="13.2780854"><ele>836.3333333333334</ele><time>2026-05-02T17:06:04.988Z</time></trkpt><trkpt lat="42.3025617" lon="13.2781166"><ele>836.1666666666667</ele><time>2026-05-02T17:06:07.988Z</time></trkpt><trkpt lat="42.302668" lon="13.2781727"><ele>836.0</ele><time>2026-05-02T17:10:30.988Z</time></trkpt><trkpt lat="42.3027317" lon="13.2782057"><ele>834.6666666666667</ele><time>2026-05-02T17:10:31.988Z</time></trkpt><trkpt lat="42.3028048" lon="13.2782451"><ele>833.3333333333334</ele><time>2026-05-02T17:10:32.988Z</time></trkpt><trkpt lat="42.3028859" lon="13.2782847"><ele>832.0</ele><time>2026-05-02T17:10:33.988Z</time></trkpt><trkpt lat="42.3029716" lon="13.2783356"><ele>830.6666666666667</ele><time>2026-05-02T17:10:34.988Z</time></trkpt><trkpt lat="42.3030513" lon="13.2783962"><ele>829.3333333333334</ele><time>2026-05-02T17:10:35.987Z</time></trkpt><trkpt lat="42.3031217" lon="13.2784553"><ele>828.0</ele><time>2026-05-02T17:10:36.988Z</time></trkpt><trkpt lat="42.303191" lon="13.2785244"><ele>826.8</ele><time>2026-05-02T17:10:37.988Z</time></trkpt><trkpt lat="42.3032605" lon="13.2786025"><ele>825.5999999999999</ele><time>2026-05-02T17:10:38.988Z</time></trkpt><trkpt lat="42.3033325" lon="13.2786887"><ele>824.4000000000001</ele><time>2026-05-02T17:10:39.988Z</time></trkpt><trkpt lat="42.3034009" lon="13.2787855"><ele>823.2</ele><time>2026-05-02T17:10:40.988Z</time></trkpt><trkpt lat="42.3034737" lon="13.278886"><ele>822.0</ele><time>2026-05-02T17:10:41.988Z</time></trkpt><trkpt lat="42.3035481" lon="13.2789961"><ele>822.0</ele><time>2026-05-02T17:10:42.988Z</time></trkpt><trkpt lat="42.3036182" lon="13.2791172"><ele>822.0</ele><time>2026-05-02T17:10:43.988Z</time></trkpt><trkpt lat="42.3036897" lon="13.2792492"><ele>822.0</ele><time>2026-05-02T17:10:44.988Z</time></trkpt><trkpt lat="42.3037688" lon="13.2793877"><ele>822.0</ele><time>2026-05-02T17:10:45.988Z</time></trkpt><trkpt lat="42.3038482" lon="13.279524"><ele>821.5</ele><time>2026-05-02T17:10:46.988Z</time></trkpt><trkpt lat="42.3039279" lon="13.2796484"><ele>821.0</ele><time>2026-05-02T17:10:47.988Z</time></trkpt><trkpt lat="42.3040102" lon="13.2797597"><ele>820.5</ele><time>2026-05-02T17:10:48.987Z</time></trkpt><trkpt lat="42.3041002" lon="13.2798527"><ele>820.0</ele><time>2026-05-02T17:10:49.988Z</time></trkpt><trkpt lat="42.3041976" lon="13.2799308"><ele>820.0</ele><time>2026-05-02T17:10:50.988Z</time></trkpt><trkpt lat="42.3042936" lon="13.2799875"><ele>820.0</ele><time>2026-05-02T17:10:51.988Z</time></trkpt><trkpt lat="42.3043941" lon="13.2800146"><ele>820.0</ele><time>2026-05-02T17:10:52.988Z</time></trkpt><trkpt lat="42.3044939" lon="13.2800061"><ele>820.0</ele><time>2026-05-02T17:10:53.988Z</time></trkpt><trkpt lat="42.3045989" lon="13.2799578"><ele>820.0</ele><time>2026-05-02T17:10:54.988Z</time></trkpt><trkpt lat="42.304708" lon="13.2798891"><ele>819.0</ele><time>2026-05-02T17:10:55.988Z</time></trkpt><trkpt lat="42.3048188" lon="13.2798161"><ele>818.0</ele><time>2026-05-02T17:10:56.987Z</time></trkpt><trkpt lat="42.3049277" lon="13.2797531"><ele>817.0</ele><time>2026-05-02T17:10:57.988Z</time></trkpt><trkpt lat="42.3050334" lon="13.2797007"><ele>816.0</ele><time>2026-05-02T17:10:58.988Z</time></trkpt><trkpt lat="42.3051369" lon="13.2796632"><ele>816.0</ele><time>2026-05-02T17:10:59.988Z</time></trkpt><trkpt lat="42.305232" lon="13.2796467"><ele>816.0</ele><time>2026-05-02T17:11:00.988Z</time></trkpt><trkpt lat="42.3053197" lon="13.2796597"><ele>816.0</ele><time>2026-05-02T17:11:01.988Z</time></trkpt><trkpt lat="42.3054043" lon="13.279701"><ele>816.0</ele><time>2026-05-02T17:11:02.988Z</time></trkpt><trkpt lat="42.3054815" lon="13.2797626"><ele>816.0</ele><time>2026-05-02T17:11:03.988Z</time></trkpt><trkpt lat="42.3055497" lon="13.2798449"><ele>814.4</ele><time>2026-05-02T17:11:04.988Z</time></trkpt><trkpt lat="42.3056131" lon="13.2799457"><ele>812.8</ele><time>2026-05-02T17:11:05.988Z</time></trkpt><trkpt lat="42.3056686" lon="13.2800571"><ele>811.1999999999999</ele><time>2026-05-02T17:11:06.988Z</time></trkpt><trkpt lat="42.3057244" lon="13.2801711"><ele>809.5999999999999</ele><time>2026-05-02T17:11:07.988Z</time></trkpt><trkpt lat="42.3057795" lon="13.2802854"><ele>808.0</ele><time>2026-05-02T17:11:08.988Z</time></trkpt><trkpt lat="42.3058289" lon="13.2803785"><ele>807.9999999999999</ele><time>2026-05-02T17:11:09.988Z</time></trkpt><trkpt lat="42.3059153" lon="13.2804966"><ele>808.0</ele><time>2026-05-02T17:11:11.988Z</time></trkpt><trkpt lat="42.3059837" lon="13.2805292"><ele>808.0</ele><time>2026-05-02T17:11:12.988Z</time></trkpt><trkpt lat="42.3060509" lon="13.2805744"><ele>808.0</ele><time>2026-05-02T17:11:13.988Z</time></trkpt><trkpt lat="42.3061224" lon="13.280603"><ele>807.9999999999999</ele><time>2026-05-02T17:11:14.988Z</time></trkpt><trkpt lat="42.3062169" lon="13.2806295"><ele>808.0</ele><time>2026-05-02T17:11:15.988Z</time></trkpt><trkpt lat="42.3063192" lon="13.2806454"><ele>808.2</ele><time>2026-05-02T17:11:16.988Z</time></trkpt><trkpt lat="42.3064335" lon="13.280649"><ele>808.4</ele><time>2026-05-02T17:11:17.988Z</time></trkpt><trkpt lat="42.3065456" lon="13.2806372"><ele>808.6</ele><time>2026-05-02T17:11:18.987Z</time></trkpt><trkpt lat="42.3066575" lon="13.2806309"><ele>808.8000000000001</ele><time>2026-05-02T17:11:19.988Z</time></trkpt><trkpt lat="42.306757" lon="13.2806435"><ele>809.0</ele><time>2026-05-02T17:11:20.988Z</time></trkpt><trkpt lat="42.3068472" lon="13.2806561"><ele>809.0</ele><time>2026-05-02T17:11:21.988Z</time></trkpt><trkpt lat="42.3069318" lon="13.2806922"><ele>809.0</ele><time>2026-05-02T17:11:22.988Z</time></trkpt><trkpt lat="42.3070111" lon="13.2807459"><ele>809.0</ele><time>2026-05-02T17:11:23.988Z</time></trkpt><trkpt lat="42.307092" lon="13.2808241"><ele>809.0</ele><time>2026-05-02T17:11:24.988Z</time></trkpt><trkpt lat="42.3071593" lon="13.2809347"><ele>809.0</ele><time>2026-05-02T17:11:25.987Z</time></trkpt><trkpt lat="42.3072211" lon="13.2810697"><ele>805.5</ele><time>2026-05-02T17:11:26.987Z</time></trkpt><trkpt lat="42.3072822" lon="13.281226"><ele>802.0</ele><time>2026-05-02T17:11:27.988Z</time></trkpt><trkpt lat="42.3073428" lon="13.2813689"><ele>798.5</ele><time>2026-05-02T17:11:28.987Z</time></trkpt><trkpt lat="42.3074028" lon="13.2814986"><ele>795.0</ele><time>2026-05-02T17:11:29.987Z</time></trkpt><trkpt lat="42.3074702" lon="13.2816181"><ele>795.0</ele><time>2026-05-02T17:11:30.988Z</time></trkpt><trkpt lat="42.3075523" lon="13.2817349"><ele>795.0</ele><time>2026-05-02T17:11:31.988Z</time></trkpt><trkpt lat="42.3076481" lon="13.2818421"><ele>795.0</ele><time>2026-05-02T17:11:32.988Z</time></trkpt><trkpt lat="42.3077587" lon="13.2819069"><ele>795.0</ele><time>2026-05-02T17:11:33.988Z</time></trkpt><trkpt lat="42.307898" lon="13.281936"><ele>795.0</ele><time>2026-05-02T17:11:34.988Z</time></trkpt><trkpt lat="42.3080287" lon="13.28199"><ele>795.0</ele><time>2026-05-02T17:11:35.987Z</time></trkpt><trkpt lat="42.3082585" lon="13.2820722"><ele>795.0</ele><time>2026-05-02T17:11:36.988Z</time></trkpt><trkpt lat="42.3084359" lon="13.2821505"><ele>793.3333333333333</ele><time>2026-05-02T17:11:37.988Z</time></trkpt><trkpt lat="42.3086185" lon="13.2822163"><ele>791.6666666666666</ele><time>2026-05-02T17:11:38.988Z</time></trkpt><trkpt lat="42.3087928" lon="13.282289"><ele>790.0</ele><time>2026-05-02T17:11:39.988Z</time></trkpt><trkpt lat="42.3089539" lon="13.2823507"><ele>786.25</ele><time>2026-05-02T17:11:40.988Z</time></trkpt><trkpt lat="42.3090906" lon="13.2824046"><ele>782.5</ele><time>2026-05-02T17:11:41.988Z</time></trkpt><trkpt lat="42.3092152" lon="13.2824468"><ele>778.75</ele><time>2026-05-02T17:11:42.988Z</time></trkpt><trkpt lat="42.3093059" lon="13.2824989"><ele>775.0</ele><time>2026-05-02T17:11:43.988Z</time></trkpt><trkpt lat="42.3093895" lon="13.2825629"><ele>774.9999999999999</ele><time>2026-05-02T17:11:44.988Z</time></trkpt><trkpt lat="42.3094489" lon="13.2826359"><ele>775.0</ele><time>2026-05-02T17:11:45.988Z</time></trkpt><trkpt lat="42.3094852" lon="13.2827199"><ele>775.0</ele><time>2026-05-02T17:11:46.987Z</time></trkpt><trkpt lat="42.3094914" lon="13.2828103"><ele>775.0</ele><time>2026-05-02T17:11:47.988Z</time></trkpt><trkpt lat="42.3094667" lon="13.2829106"><ele>774.9999999999999</ele><time>2026-05-02T17:11:48.988Z</time></trkpt><trkpt lat="42.3094206" lon="13.2830013"><ele>775.0</ele><time>2026-05-02T17:11:49.988Z</time></trkpt><trkpt lat="42.3093431" lon="13.2830995"><ele>773.5</ele><time>2026-05-02T17:11:50.988Z</time></trkpt><trkpt lat="42.3092458" lon="13.2832047"><ele>772.0</ele><time>2026-05-02T17:11:51.988Z</time></trkpt><trkpt lat="42.3091336" lon="13.2833196"><ele>770.5</ele><time>2026-05-02T17:11:52.988Z</time></trkpt><trkpt lat="42.3090147" lon="13.2834247"><ele>769.0</ele><time>2026-05-02T17:11:53.988Z</time></trkpt><trkpt lat="42.3088998" lon="13.2835126"><ele>772.0</ele><time>2026-05-02T17:11:54.988Z</time></trkpt><trkpt lat="42.3087977" lon="13.2835799"><ele>775.0</ele><time>2026-05-02T17:11:55.988Z</time></trkpt><trkpt lat="42.3087083" lon="13.2836436"><ele>778.0</ele><time>2026-05-02T17:11:56.988Z</time></trkpt><trkpt lat="42.3086258" lon="13.2837132"><ele>781.0</ele><time>2026-05-02T17:11:57.987Z</time></trkpt><trkpt lat="42.3085811" lon="13.2838085"><ele>784.0</ele><time>2026-05-02T17:11:58.988Z</time></trkpt><trkpt lat="42.3086331" lon="13.2838704"><ele>784.0</ele><time>2026-05-02T17:11:59.988Z</time></trkpt><trkpt lat="42.3086696" lon="13.2839422"><ele>784.0</ele><time>2026-05-02T17:12:01.988Z</time></trkpt><trkpt lat="42.3089026" lon="13.2838057"><ele>784.0</ele><time>2026-05-02T17:12:03.988Z</time></trkpt><trkpt lat="42.3090313" lon="13.2837208"><ele>779.0</ele><time>2026-05-02T17:12:04.988Z</time></trkpt><trkpt lat="42.3091668" lon="13.2836308"><ele>774.0</ele><time>2026-05-02T17:12:05.987Z</time></trkpt><trkpt lat="42.3093289" lon="13.2835406"><ele>769.0</ele><time>2026-05-02T17:12:06.988Z</time></trkpt><trkpt lat="42.3094894" lon="13.2834404"><ele>769.0</ele><time>2026-05-02T17:12:07.988Z</time></trkpt><trkpt lat="42.3096371" lon="13.2833506"><ele>769.0</ele><time>2026-05-02T17:12:08.988Z</time></trkpt><trkpt lat="42.3097878" lon="13.2832593"><ele>769.0</ele><time>2026-05-02T17:12:09.988Z</time></trkpt><trkpt lat="42.3099283" lon="13.2831769"><ele>764.6666666666666</ele><time>2026-05-02T17:12:10.987Z</time></trkpt><trkpt lat="42.3100655" lon="13.2830815"><ele>760.3333333333333</ele><time>2026-05-02T17:12:11.988Z</time></trkpt><trkpt lat="42.3101999" lon="13.2829617"><ele>756.0</ele><time>2026-05-02T17:12:12.988Z</time></trkpt><trkpt lat="42.3103229" lon="13.2828125"><ele>756.0</ele><time>2026-05-02T17:12:13.988Z</time></trkpt><trkpt lat="42.3104368" lon="13.2826685"><ele>756.0</ele><time>2026-05-02T17:12:14.988Z</time></trkpt><trkpt lat="42.3105459" lon="13.282554"><ele>756.0</ele><time>2026-05-02T17:12:15.987Z</time></trkpt><trkpt lat="42.3106763" lon="13.28247"><ele>756.0</ele><time>2026-05-02T17:12:16.988Z</time></trkpt><trkpt lat="42.3108302" lon="13.2823936"><ele>756.0</ele><time>2026-05-02T17:12:17.988Z</time></trkpt><trkpt lat="42.3109971" lon="13.282318"><ele>756.0</ele><time>2026-05-02T17:12:18.987Z</time></trkpt><trkpt lat="42.3111646" lon="13.2822328"><ele>756.0</ele><time>2026-05-02T17:12:19.988Z</time></trkpt><trkpt lat="42.3113182" lon="13.2821641"><ele>754.5</ele><time>2026-05-02T17:12:20.988Z</time></trkpt><trkpt lat="42.3114416" lon="13.2821079"><ele>753.0</ele><time>2026-05-02T17:12:21.988Z</time></trkpt><trkpt lat="42.3115669" lon="13.2820744"><ele>751.5</ele><time>2026-05-02T17:12:22.988Z</time></trkpt><trkpt lat="42.311686" lon="13.2820878"><ele>750.0</ele><time>2026-05-02T17:12:23.988Z</time></trkpt><trkpt lat="42.3118036" lon="13.2821471"><ele>750.0</ele><time>2026-05-02T17:12:24.988Z</time></trkpt><trkpt lat="42.3119207" lon="13.2822456"><ele>750.0</ele><time>2026-05-02T17:12:25.988Z</time></trkpt><trkpt lat="42.312048" lon="13.2823798"><ele>750.0</ele><time>2026-05-02T17:12:26.988Z</time></trkpt><trkpt lat="42.3121837" lon="13.2825414"><ele>747.0</ele><time>2026-05-02T17:12:27.988Z</time></trkpt><trkpt lat="42.3123303" lon="13.2827155"><ele>744.0</ele><time>2026-05-02T17:12:28.987Z</time></trkpt><trkpt lat="42.3124637" lon="13.2828771"><ele>741.0</ele><time>2026-05-02T17:12:29.987Z</time></trkpt><trkpt lat="42.3125892" lon="13.2830324"><ele>741.25</ele><time>2026-05-02T17:12:30.987Z</time></trkpt><trkpt lat="42.31271" lon="13.283175"><ele>741.5</ele><time>2026-05-02T17:12:31.988Z</time></trkpt><trkpt lat="42.3128223" lon="13.2833069"><ele>741.75</ele><time>2026-05-02T17:12:32.988Z</time></trkpt><trkpt lat="42.3129178" lon="13.2834232"><ele>742.0</ele><time>2026-05-02T17:12:33.988Z</time></trkpt><trkpt lat="42.3130006" lon="13.2835192"><ele>742.0</ele><time>2026-05-02T17:12:34.988Z</time></trkpt><trkpt lat="42.313068" lon="13.2836061"><ele>742.0</ele><time>2026-05-02T17:12:35.988Z</time></trkpt><trkpt lat="42.3131235" lon="13.2836769"><ele>742.0</ele><time>2026-05-02T17:12:36.988Z</time></trkpt><trkpt lat="42.3131899" lon="13.2837625"><ele>742.0</ele><time>2026-05-02T17:12:38.988Z</time></trkpt><trkpt lat="42.3132534" lon="13.2838163"><ele>742.0</ele><time>2026-05-02T17:12:52.988Z</time></trkpt><trkpt lat="42.3133237" lon="13.2838155"><ele>742.0</ele><time>2026-05-02T17:12:53.988Z</time></trkpt><trkpt lat="42.3134126" lon="13.2837751"><ele>741.75</ele><time>2026-05-02T17:12:54.988Z</time></trkpt><trkpt lat="42.3135144" lon="13.2837072"><ele>741.5</ele><time>2026-05-02T17:12:55.988Z</time></trkpt><trkpt lat="42.3136587" lon="13.2836053"><ele>741.25</ele><time>2026-05-02T17:12:56.987Z</time></trkpt><trkpt lat="42.3137944" lon="13.2835146"><ele>741.0</ele><time>2026-05-02T17:12:57.988Z</time></trkpt><trkpt lat="42.3139166" lon="13.2834275"><ele>742.4</ele><time>2026-05-02T17:12:58.987Z</time></trkpt><trkpt lat="42.3140164" lon="13.2833554"><ele>743.8</ele><time>2026-05-02T17:12:59.988Z</time></trkpt><trkpt lat="42.3141034" lon="13.2832995"><ele>745.1999999999999</ele><time>2026-05-02T17:13:00.988Z</time></trkpt><trkpt lat="42.3141847" lon="13.2832543"><ele>746.5999999999999</ele><time>2026-05-02T17:13:01.988Z</time></trkpt><trkpt lat="42.3142511" lon="13.2832185"><ele>748.0</ele><time>2026-05-02T17:13:02.988Z</time></trkpt><trkpt lat="42.3143852" lon="13.2831575"><ele>748.0</ele><time>2026-05-02T17:13:04.988Z</time></trkpt><trkpt lat="42.3144698" lon="13.2831281"><ele>748.0</ele><time>2026-05-02T17:13:05.988Z</time></trkpt><trkpt lat="42.3145722" lon="13.2830993"><ele>748.0</ele><time>2026-05-02T17:13:06.988Z</time></trkpt><trkpt lat="42.3146873" lon="13.2830791"><ele>748.0</ele><time>2026-05-02T17:13:07.988Z</time></trkpt><trkpt lat="42.3148176" lon="13.2830561"><ele>748.0</ele><time>2026-05-02T17:13:08.987Z</time></trkpt><trkpt lat="42.3149642" lon="13.2830328"><ele>744.6666666666667</ele><time>2026-05-02T17:13:09.988Z</time></trkpt><trkpt lat="42.3151272" lon="13.2830123"><ele>741.3333333333334</ele><time>2026-05-02T17:13:10.987Z</time></trkpt><trkpt lat="42.3152997" lon="13.2829998"><ele>738.0</ele><time>2026-05-02T17:13:11.988Z</time></trkpt><trkpt lat="42.3154832" lon="13.2830045"><ele>737.0</ele><time>2026-05-02T17:13:12.988Z</time></trkpt><trkpt lat="42.3158792" lon="13.2830298"><ele>736.0</ele><time>2026-05-02T17:13:14.988Z</time></trkpt><trkpt lat="42.316092" lon="13.2830445"><ele>736.0</ele><time>2026-05-02T17:13:15.987Z</time></trkpt><trkpt lat="42.316315" lon="13.283054"><ele>736.0</ele><time>2026-05-02T17:13:16.988Z</time></trkpt><trkpt lat="42.3165437" lon="13.2830648"><ele>735.0</ele><time>2026-05-02T17:13:17.987Z</time></trkpt><trkpt lat="42.3167818" lon="13.2830778"><ele>734.0</ele><time>2026-05-02T17:13:18.988Z</time></trkpt><trkpt lat="42.3170272" lon="13.2830957"><ele>736.5</ele><time>2026-05-02T17:13:19.988Z</time></trkpt><trkpt lat="42.3172783" lon="13.2831152"><ele>739.0</ele><time>2026-05-02T17:13:20.988Z</time></trkpt><trkpt lat="42.3175351" lon="13.2831349"><ele>739.0</ele><time>2026-05-02T17:13:21.988Z</time></trkpt><trkpt lat="42.3177954" lon="13.2831528"><ele>739.0</ele><time>2026-05-02T17:13:22.987Z</time></trkpt><trkpt lat="42.3180591" lon="13.2831688"><ele>737.5</ele><time>2026-05-02T17:13:23.988Z</time></trkpt><trkpt lat="42.3183191" lon="13.2831899"><ele>736.0</ele><time>2026-05-02T17:13:24.988Z</time></trkpt><trkpt lat="42.3185637" lon="13.2832084"><ele>736.0</ele><time>2026-05-02T17:13:25.988Z</time></trkpt><trkpt lat="42.318798" lon="13.2832253"><ele>736.0</ele><time>2026-05-02T17:13:26.988Z</time></trkpt><trkpt lat="42.3190187" lon="13.2832382"><ele>736.3333333333334</ele><time>2026-05-02T17:13:27.987Z</time></trkpt><trkpt lat="42.319243" lon="13.283252"><ele>736.6666666666666</ele><time>2026-05-02T17:13:28.988Z</time></trkpt><trkpt lat="42.3194519" lon="13.2832395"><ele>737.0</ele><time>2026-05-02T17:13:29.988Z</time></trkpt><trkpt lat="42.3196815" lon="13.2832098"><ele>739.5</ele><time>2026-05-02T17:13:30.988Z</time></trkpt><trkpt lat="42.3199158" lon="13.2831534"><ele>742.0</ele><time>2026-05-02T17:13:31.988Z</time></trkpt><trkpt lat="42.3201525" lon="13.2830803"><ele>735.0</ele><time>2026-05-02T17:13:32.988Z</time></trkpt><trkpt lat="42.3203951" lon="13.283012"><ele>728.0</ele><time>2026-05-02T17:13:33.987Z</time></trkpt><trkpt lat="42.3206453" lon="13.2829372"><ele>728.0</ele><time>2026-05-02T17:13:34.988Z</time></trkpt><trkpt lat="42.3209102" lon="13.2828654"><ele>728.0</ele><time>2026-05-02T17:13:35.988Z</time></trkpt><trkpt lat="42.3211822" lon="13.2827949"><ele>728.0</ele><time>2026-05-02T17:13:36.988Z</time></trkpt><trkpt lat="42.3214547" lon="13.2827227"><ele>728.0</ele><time>2026-05-02T17:13:37.988Z</time></trkpt><trkpt lat="42.3217305" lon="13.282651"><ele>728.0</ele><time>2026-05-02T17:13:38.988Z</time></trkpt><trkpt lat="42.3219879" lon="13.282578"><ele>728.0</ele><time>2026-05-02T17:13:39.987Z</time></trkpt><trkpt lat="42.3222347" lon="13.2825265"><ele>728.0</ele><time>2026-05-02T17:13:40.988Z</time></trkpt><trkpt lat="42.3224656" lon="13.2824689"><ele>728.0</ele><time>2026-05-02T17:13:41.987Z</time></trkpt><trkpt lat="42.3226845" lon="13.2824119"><ele>728.0</ele><time>2026-05-02T17:13:42.987Z</time></trkpt><trkpt lat="42.3228855" lon="13.2823587"><ele>728.0</ele><time>2026-05-02T17:13:43.988Z</time></trkpt><trkpt lat="42.3230832" lon="13.2823435"><ele>728.0</ele><time>2026-05-02T17:13:44.987Z</time></trkpt><trkpt lat="42.3232927" lon="13.2823542"><ele>728.3333333333333</ele><time>2026-05-02T17:13:45.988Z</time></trkpt><trkpt lat="42.3235148" lon="13.2823805"><ele>728.6666666666666</ele><time>2026-05-02T17:13:46.987Z</time></trkpt><trkpt lat="42.3237162" lon="13.2824088"><ele>729.0</ele><time>2026-05-02T17:13:47.988Z</time></trkpt><trkpt lat="42.3238652" lon="13.282429"><ele>727.5</ele><time>2026-05-02T17:13:48.988Z</time></trkpt><trkpt lat="42.3239867" lon="13.2824447"><ele>726.0</ele><time>2026-05-02T17:13:49.988Z</time></trkpt><trkpt lat="42.324116" lon="13.2824581"><ele>724.5</ele><time>2026-05-02T17:13:50.988Z</time></trkpt><trkpt lat="42.3242523" lon="13.2824691"><ele>723.0</ele><time>2026-05-02T17:13:51.988Z</time></trkpt><trkpt lat="42.3243933" lon="13.2824839"><ele>723.0</ele><time>2026-05-02T17:13:52.988Z</time></trkpt><trkpt lat="42.3245438" lon="13.2825038"><ele>723.0</ele><time>2026-05-02T17:13:53.988Z</time></trkpt><trkpt lat="42.3247107" lon="13.2825334"><ele>723.0</ele><time>2026-05-02T17:13:54.988Z</time></trkpt><trkpt lat="42.3248946" lon="13.2825522"><ele>722.0</ele><time>2026-05-02T17:13:55.988Z</time></trkpt><trkpt lat="42.3250876" lon="13.2825699"><ele>721.0</ele><time>2026-05-02T17:13:56.988Z</time></trkpt><trkpt lat="42.3252914" lon="13.2825907"><ele>720.0</ele><time>2026-05-02T17:13:57.987Z</time></trkpt><trkpt lat="42.3254971" lon="13.2826105"><ele>719.6666666666666</ele><time>2026-05-02T17:13:58.988Z</time></trkpt><trkpt lat="42.3257071" lon="13.2826329"><ele>719.3333333333333</ele><time>2026-05-02T17:13:59.988Z</time></trkpt><trkpt lat="42.3259036" lon="13.2826535"><ele>719.0</ele><time>2026-05-02T17:14:00.988Z</time></trkpt><trkpt lat="42.3260964" lon="13.2826698"><ele>719.0</ele><time>2026-05-02T17:14:01.988Z</time></trkpt><trkpt lat="42.3262898" lon="13.2826897"><ele>719.0</ele><time>2026-05-02T17:14:02.987Z</time></trkpt><trkpt lat="42.3264814" lon="13.2827075"><ele>719.0</ele><time>2026-05-02T17:14:03.988Z</time></trkpt><trkpt lat="42.3266742" lon="13.2827281"><ele>719.0</ele><time>2026-05-02T17:14:04.988Z</time></trkpt><trkpt lat="42.3268676" lon="13.282749"><ele>719.0</ele><time>2026-05-02T17:14:05.988Z</time></trkpt><trkpt lat="42.3270638" lon="13.2827668"><ele>719.0</ele><time>2026-05-02T17:14:06.988Z</time></trkpt><trkpt lat="42.3272604" lon="13.2827876"><ele>718.0</ele><time>2026-05-02T17:14:07.988Z</time></trkpt><trkpt lat="42.3274586" lon="13.2828063"><ele>717.0</ele><time>2026-05-02T17:14:08.988Z</time></trkpt><trkpt lat="42.3276592" lon="13.2828307"><ele>716.0</ele><time>2026-05-02T17:14:09.988Z</time></trkpt><trkpt lat="42.3278663" lon="13.2828509"><ele>715.3333333333333</ele><time>2026-05-02T17:14:10.988Z</time></trkpt><trkpt lat="42.3280762" lon="13.2828746"><ele>714.6666666666666</ele><time>2026-05-02T17:14:11.988Z</time></trkpt><trkpt lat="42.3282908" lon="13.2828994"><ele>714.0</ele><time>2026-05-02T17:14:12.988Z</time></trkpt><trkpt lat="42.3285087" lon="13.282921"><ele>714.0</ele><time>2026-05-02T17:14:13.987Z</time></trkpt><trkpt lat="42.3287231" lon="13.2829437"><ele>714.0</ele><time>2026-05-02T17:14:14.988Z</time></trkpt><trkpt lat="42.3289262" lon="13.2829625"><ele>714.0</ele><time>2026-05-02T17:14:15.988Z</time></trkpt><trkpt lat="42.3291173" lon="13.2829835"><ele>713.3333333333334</ele><time>2026-05-02T17:14:16.988Z</time></trkpt><trkpt lat="42.3293182" lon="13.283005"><ele>712.6666666666667</ele><time>2026-05-02T17:14:17.987Z</time></trkpt><trkpt lat="42.3295236" lon="13.2830154"><ele>712.0</ele><time>2026-05-02T17:14:18.988Z</time></trkpt><trkpt lat="42.329733" lon="13.2830327"><ele>711.6666666666667</ele><time>2026-05-02T17:14:19.988Z</time></trkpt><trkpt lat="42.329945" lon="13.2830507"><ele>711.3333333333334</ele><time>2026-05-02T17:14:20.988Z</time></trkpt><trkpt lat="42.3301562" lon="13.2830765"><ele>711.0</ele><time>2026-05-02T17:14:21.988Z</time></trkpt><trkpt lat="42.3303668" lon="13.2830972"><ele>711.0</ele><time>2026-05-02T17:14:22.988Z</time></trkpt><trkpt lat="42.3305667" lon="13.2831201"><ele>711.0</ele><time>2026-05-02T17:14:23.988Z</time></trkpt><trkpt lat="42.3307506" lon="13.2831366"><ele>711.0</ele><time>2026-05-02T17:14:24.988Z</time></trkpt><trkpt lat="42.3309156" lon="13.2831509"><ele>711.0</ele><time>2026-05-02T17:14:25.988Z</time></trkpt><trkpt lat="42.3310596" lon="13.2831688"><ele>711.0</ele><time>2026-05-02T17:14:26.988Z</time></trkpt><trkpt lat="42.3311832" lon="13.2831786"><ele>711.0</ele><time>2026-05-02T17:14:27.988Z</time></trkpt><trkpt lat="42.3312824" lon="13.2831841"><ele>711.0</ele><time>2026-05-02T17:14:28.988Z</time></trkpt><trkpt lat="42.3313617" lon="13.2831885"><ele>711.0</ele><time>2026-05-02T17:14:29.988Z</time></trkpt><trkpt lat="42.331462" lon="13.2831588"><ele>710.5999999999999</ele><time>2026-05-02T17:14:31.988Z</time></trkpt><trkpt lat="42.3315385" lon="13.2831233"><ele>710.2</ele><time>2026-05-02T17:14:33.988Z</time></trkpt><trkpt lat="42.3316227" lon="13.2831193"><ele>709.8</ele><time>2026-05-02T17:14:35.988Z</time></trkpt><trkpt lat="42.3316789" lon="13.2831734"><ele>709.4000000000001</ele><time>2026-05-02T17:14:40.988Z</time></trkpt><trkpt lat="42.33182" lon="13.2832202"><ele>709.0</ele><time>2026-05-02T17:14:42.988Z</time></trkpt><trkpt lat="42.3319344" lon="13.2832405"><ele>709.0</ele><time>2026-05-02T17:14:43.988Z</time></trkpt><trkpt lat="42.3320674" lon="13.2832597"><ele>709.0</ele><time>2026-05-02T17:14:44.988Z</time></trkpt><trkpt lat="42.3322197" lon="13.2832824"><ele>709.0</ele><time>2026-05-02T17:14:45.988Z</time></trkpt><trkpt lat="42.3323908" lon="13.2833008"><ele>709.6666666666667</ele><time>2026-05-02T17:14:46.988Z</time></trkpt><trkpt lat="42.3325772" lon="13.2833233"><ele>710.3333333333334</ele><time>2026-05-02T17:14:47.988Z</time></trkpt><trkpt lat="42.3327769" lon="13.2833372"><ele>711.0</ele><time>2026-05-02T17:14:48.988Z</time></trkpt><trkpt lat="42.3329861" lon="13.2833559"><ele>710.3333333333334</ele><time>2026-05-02T17:14:49.988Z</time></trkpt><trkpt lat="42.3332014" lon="13.283377"><ele>709.6666666666667</ele><time>2026-05-02T17:14:50.988Z</time></trkpt><trkpt lat="42.3334308" lon="13.2833969"><ele>709.0</ele><time>2026-05-02T17:14:51.988Z</time></trkpt><trkpt lat="42.3336579" lon="13.2834167"><ele>709.0</ele><time>2026-05-02T17:14:52.988Z</time></trkpt><trkpt lat="42.3338719" lon="13.2834404"><ele>709.0</ele><time>2026-05-02T17:14:53.988Z</time></trkpt><trkpt lat="42.3340737" lon="13.2834663"><ele>709.0</ele><time>2026-05-02T17:14:54.988Z</time></trkpt><trkpt lat="42.3342848" lon="13.2834889"><ele>708.0</ele><time>2026-05-02T17:14:55.988Z</time></trkpt><trkpt lat="42.3345088" lon="13.2835108"><ele>707.0</ele><time>2026-05-02T17:14:56.988Z</time></trkpt><trkpt lat="42.3347367" lon="13.2835438"><ele>707.0</ele><time>2026-05-02T17:14:57.988Z</time></trkpt><trkpt lat="42.3349631" lon="13.2835608"><ele>707.0</ele><time>2026-05-02T17:14:58.987Z</time></trkpt><trkpt lat="42.335201" lon="13.2835886"><ele>707.0</ele><time>2026-05-02T17:14:59.988Z</time></trkpt><trkpt lat="42.3354445" lon="13.2836242"><ele>707.0</ele><time>2026-05-02T17:15:00.988Z</time></trkpt><trkpt lat="42.3356952" lon="13.2836498"><ele>706.0</ele><time>2026-05-02T17:15:01.987Z</time></trkpt><trkpt lat="42.3359558" lon="13.2836739"><ele>705.0</ele><time>2026-05-02T17:15:02.988Z</time></trkpt><trkpt lat="42.3362226" lon="13.283701"><ele>705.0</ele><time>2026-05-02T17:15:03.988Z</time></trkpt><trkpt lat="42.3364949" lon="13.2837268"><ele>705.0</ele><time>2026-05-02T17:15:04.987Z</time></trkpt><trkpt lat="42.3367673" lon="13.2837544"><ele>705.0</ele><time>2026-05-02T17:15:05.988Z</time></trkpt><trkpt lat="42.3370371" lon="13.2837806"><ele>705.0</ele><time>2026-05-02T17:15:06.988Z</time></trkpt><trkpt lat="42.3373024" lon="13.2838089"><ele>704.0</ele><time>2026-05-02T17:15:07.988Z</time></trkpt><trkpt lat="42.3375523" lon="13.283833"><ele>703.0</ele><time>2026-05-02T17:15:08.987Z</time></trkpt><trkpt lat="42.3377903" lon="13.2838567"><ele>703.0</ele><time>2026-05-02T17:15:09.988Z</time></trkpt><trkpt lat="42.3380163" lon="13.2838778"><ele>703.0</ele><time>2026-05-02T17:15:10.988Z</time></trkpt><trkpt lat="42.3382285" lon="13.2839004"><ele>703.0</ele><time>2026-05-02T17:15:11.988Z</time></trkpt><trkpt lat="42.3384321" lon="13.2839227"><ele>706.6666666666667</ele><time>2026-05-02T17:15:12.988Z</time></trkpt><trkpt lat="42.3386309" lon="13.283941"><ele>710.3333333333334</ele><time>2026-05-02T17:15:13.988Z</time></trkpt><trkpt lat="42.3388236" lon="13.2839517"><ele>714.0</ele><time>2026-05-02T17:15:14.988Z</time></trkpt><trkpt lat="42.3390188" lon="13.2839413"><ele>709.3333333333334</ele><time>2026-05-02T17:15:15.988Z</time></trkpt><trkpt lat="42.3392223" lon="13.2838916"><ele>704.6666666666667</ele><time>2026-05-02T17:15:16.987Z</time></trkpt><trkpt lat="42.3394364" lon="13.2838235"><ele>700.0</ele><time>2026-05-02T17:15:17.988Z</time></trkpt><trkpt lat="42.339664" lon="13.283743"><ele>701.0</ele><time>2026-05-02T17:15:18.988Z</time></trkpt><trkpt lat="42.3399051" lon="13.2836515"><ele>702.0</ele><time>2026-05-02T17:15:19.988Z</time></trkpt><trkpt lat="42.3401538" lon="13.2835628"><ele>702.0</ele><time>2026-05-02T17:15:20.987Z</time></trkpt><trkpt lat="42.3404125" lon="13.2834712"><ele>702.0</ele><time>2026-05-02T17:15:21.988Z</time></trkpt><trkpt lat="42.3406865" lon="13.2833843"><ele>704.5</ele><time>2026-05-02T17:15:22.988Z</time></trkpt><trkpt lat="42.3409635" lon="13.2832898"><ele>707.0</ele><time>2026-05-02T17:15:23.988Z</time></trkpt><trkpt lat="42.3412343" lon="13.2831985"><ele>708.5</ele><time>2026-05-02T17:15:24.988Z</time></trkpt><trkpt lat="42.3414866" lon="13.2831202"><ele>710.0</ele><time>2026-05-02T17:15:25.988Z</time></trkpt><trkpt lat="42.3417228" lon="13.2830394"><ele>704.0</ele><time>2026-05-02T17:15:26.988Z</time></trkpt><trkpt lat="42.3419544" lon="13.2829616"><ele>698.0</ele><time>2026-05-02T17:15:27.988Z</time></trkpt><trkpt lat="42.3421786" lon="13.2828883"><ele>698.0</ele><time>2026-05-02T17:15:28.988Z</time></trkpt><trkpt lat="42.342399" lon="13.2828242"><ele>698.0</ele><time>2026-05-02T17:15:29.988Z</time></trkpt><trkpt lat="42.3426149" lon="13.2827602"><ele>698.0</ele><time>2026-05-02T17:15:30.988Z</time></trkpt><trkpt lat="42.3428269" lon="13.2826928"><ele>698.0</ele><time>2026-05-02T17:15:31.988Z</time></trkpt><trkpt lat="42.3430445" lon="13.2826172"><ele>698.0</ele><time>2026-05-02T17:15:32.988Z</time></trkpt><trkpt lat="42.3432726" lon="13.2825401"><ele>698.5</ele><time>2026-05-02T17:15:33.988Z</time></trkpt><trkpt lat="42.3435124" lon="13.2824528"><ele>699.0</ele><time>2026-05-02T17:15:34.988Z</time></trkpt><trkpt lat="42.3437617" lon="13.2823628"><ele>697.0</ele><time>2026-05-02T17:15:35.988Z</time></trkpt><trkpt lat="42.344026" lon="13.2822805"><ele>695.0</ele><time>2026-05-02T17:15:36.988Z</time></trkpt><trkpt lat="42.3442998" lon="13.2821944"><ele>695.0</ele><time>2026-05-02T17:15:37.988Z</time></trkpt><trkpt lat="42.3445806" lon="13.2821075"><ele>695.0</ele><time>2026-05-02T17:15:38.987Z</time></trkpt><trkpt lat="42.3448672" lon="13.2820248"><ele>696.0</ele><time>2026-05-02T17:15:39.988Z</time></trkpt><trkpt lat="42.3451476" lon="13.2819321"><ele>697.0</ele><time>2026-05-02T17:15:40.988Z</time></trkpt><trkpt lat="42.3454152" lon="13.2818422"><ele>698.5</ele><time>2026-05-02T17:15:41.988Z</time></trkpt><trkpt lat="42.3456597" lon="13.2817659"><ele>700.0</ele><time>2026-05-02T17:15:42.988Z</time></trkpt><trkpt lat="42.3459025" lon="13.2816901"><ele>700.0</ele><time>2026-05-02T17:15:43.987Z</time></trkpt><trkpt lat="42.3461329" lon="13.2816208"><ele>700.0</ele><time>2026-05-02T17:15:44.988Z</time></trkpt><trkpt lat="42.3463637" lon="13.2815542"><ele>703.5</ele><time>2026-05-02T17:15:45.988Z</time></trkpt><trkpt lat="42.3465827" lon="13.2814838"><ele>707.0</ele><time>2026-05-02T17:15:46.988Z</time></trkpt><trkpt lat="42.3468089" lon="13.2814188"><ele>703.0</ele><time>2026-05-02T17:15:47.988Z</time></trkpt><trkpt lat="42.3470313" lon="13.2813618"><ele>699.0</ele><time>2026-05-02T17:15:48.988Z</time></trkpt><trkpt lat="42.3472429" lon="13.2813016"><ele>695.0</ele><time>2026-05-02T17:15:49.988Z</time></trkpt><trkpt lat="42.3474409" lon="13.2812305"><ele>695.0</ele><time>2026-05-02T17:15:50.988Z</time></trkpt><trkpt lat="42.3476138" lon="13.2811138"><ele>695.0</ele><time>2026-05-02T17:15:51.988Z</time></trkpt><trkpt lat="42.3477782" lon="13.2809755"><ele>695.0</ele><time>2026-05-02T17:15:52.988Z</time></trkpt><trkpt lat="42.3479269" lon="13.2808302"><ele>696.3333333333333</ele><time>2026-05-02T17:15:53.988Z</time></trkpt><trkpt lat="42.3480748" lon="13.2807018"><ele>697.6666666666666</ele><time>2026-05-02T17:15:54.988Z</time></trkpt><trkpt lat="42.3482305" lon="13.2806226"><ele>699.0</ele><time>2026-05-02T17:15:55.988Z</time></trkpt><trkpt lat="42.3483924" lon="13.2805555"><ele>696.0</ele><time>2026-05-02T17:15:56.988Z</time></trkpt><trkpt lat="42.3485685" lon="13.280521"><ele>693.0</ele><time>2026-05-02T17:15:57.988Z</time></trkpt><trkpt lat="42.3487466" lon="13.2804804"><ele>690.0</ele><time>2026-05-02T17:15:58.988Z</time></trkpt><trkpt lat="42.3489298" lon="13.2804405"><ele>689.6666666666666</ele><time>2026-05-02T17:15:59.988Z</time></trkpt><trkpt lat="42.3491155" lon="13.2803985"><ele>689.3333333333333</ele><time>2026-05-02T17:16:00.988Z</time></trkpt><trkpt lat="42.3492888" lon="13.2803577"><ele>689.0</ele><time>2026-05-02T17:16:01.988Z</time></trkpt><trkpt lat="42.3494601" lon="13.2803173"><ele>689.0</ele><time>2026-05-02T17:16:02.988Z</time></trkpt><trkpt lat="42.3496284" lon="13.2802707"><ele>689.0</ele><time>2026-05-02T17:16:03.988Z</time></trkpt><trkpt lat="42.3497844" lon="13.2802254"><ele>689.0</ele><time>2026-05-02T17:16:04.988Z</time></trkpt><trkpt lat="42.34994" lon="13.2801906"><ele>688.3333333333333</ele><time>2026-05-02T17:16:05.988Z</time></trkpt><trkpt lat="42.3500946" lon="13.280192"><ele>687.6666666666666</ele><time>2026-05-02T17:16:06.988Z</time></trkpt><trkpt lat="42.3502464" lon="13.2802253"><ele>687.0</ele><time>2026-05-02T17:16:07.988Z</time></trkpt><trkpt lat="42.3503923" lon="13.2802909"><ele>686.0</ele><time>2026-05-02T17:16:08.988Z</time></trkpt><trkpt lat="42.3505453" lon="13.2803822"><ele>685.0</ele><time>2026-05-02T17:16:09.987Z</time></trkpt><trkpt lat="42.3506976" lon="13.2804886"><ele>684.0</ele><time>2026-05-02T17:16:10.988Z</time></trkpt><trkpt lat="42.3508452" lon="13.2806018"><ele>687.25</ele><time>2026-05-02T17:16:11.987Z</time></trkpt><trkpt lat="42.3509886" lon="13.2807102"><ele>690.5</ele><time>2026-05-02T17:16:12.987Z</time></trkpt><trkpt lat="42.3511162" lon="13.2808118"><ele>693.75</ele><time>2026-05-02T17:16:13.988Z</time></trkpt><trkpt lat="42.3512298" lon="13.2809033"><ele>697.0</ele><time>2026-05-02T17:16:14.988Z</time></trkpt><trkpt lat="42.3513292" lon="13.2809859"><ele>695.2</ele><time>2026-05-02T17:16:15.988Z</time></trkpt><trkpt lat="42.3514214" lon="13.2810664"><ele>693.4000000000001</ele><time>2026-05-02T17:16:16.988Z</time></trkpt><trkpt lat="42.3515048" lon="13.2811287"><ele>691.5999999999999</ele><time>2026-05-02T17:16:17.988Z</time></trkpt><trkpt lat="42.3515807" lon="13.2811713"><ele>689.8</ele><time>2026-05-02T17:16:18.987Z</time></trkpt><trkpt lat="42.3516681" lon="13.2811966"><ele>688.0</ele><time>2026-05-02T17:16:19.988Z</time></trkpt><trkpt lat="42.3517602" lon="13.2811962"><ele>688.0</ele><time>2026-05-02T17:16:20.988Z</time></trkpt><trkpt lat="42.3518511" lon="13.2811822"><ele>688.0</ele><time>2026-05-02T17:16:21.988Z</time></trkpt><trkpt lat="42.351949" lon="13.2811707"><ele>688.0</ele><time>2026-05-02T17:16:22.988Z</time></trkpt><trkpt lat="42.3520468" lon="13.2811579"><ele>688.0</ele><time>2026-05-02T17:16:23.988Z</time></trkpt><trkpt lat="42.3521264" lon="13.2811473"><ele>688.0</ele><time>2026-05-02T17:16:24.988Z</time></trkpt><trkpt lat="42.3522326" lon="13.2811344"><ele>687.8</ele><time>2026-05-02T17:16:26.988Z</time></trkpt><trkpt lat="42.35234" lon="13.2811344"><ele>687.5999999999999</ele><time>2026-05-02T17:16:28.988Z</time></trkpt><trkpt lat="42.3524016" lon="13.2811757"><ele>687.4000000000001</ele><time>2026-05-02T17:16:29.988Z</time></trkpt><trkpt lat="42.3524729" lon="13.281255"><ele>687.2</ele><time>2026-05-02T17:16:30.988Z</time></trkpt><trkpt lat="42.3525565" lon="13.2813609"><ele>687.0</ele><time>2026-05-02T17:16:31.988Z</time></trkpt><trkpt lat="42.352658" lon="13.2814801"><ele>687.0</ele><time>2026-05-02T17:16:32.988Z</time></trkpt><trkpt lat="42.3527773" lon="13.2816008"><ele>687.0</ele><time>2026-05-02T17:16:33.987Z</time></trkpt><trkpt lat="42.3529124" lon="13.2817227"><ele>687.0</ele><time>2026-05-02T17:16:34.988Z</time></trkpt><trkpt lat="42.3530664" lon="13.2818484"><ele>690.0</ele><time>2026-05-02T17:16:35.988Z</time></trkpt><trkpt lat="42.3532374" lon="13.2819691"><ele>693.0</ele><time>2026-05-02T17:16:36.988Z</time></trkpt><trkpt lat="42.3534214" lon="13.2820839"><ele>696.0</ele><time>2026-05-02T17:16:37.988Z</time></trkpt><trkpt lat="42.3536013" lon="13.2821954"><ele>693.3333333333334</ele><time>2026-05-02T17:16:38.988Z</time></trkpt><trkpt lat="42.3537822" lon="13.2823113"><ele>690.6666666666667</ele><time>2026-05-02T17:16:39.988Z</time></trkpt><trkpt lat="42.3539618" lon="13.2824303"><ele>688.0</ele><time>2026-05-02T17:16:40.988Z</time></trkpt><trkpt lat="42.3541541" lon="13.282551"><ele>688.0</ele><time>2026-05-02T17:16:41.988Z</time></trkpt><trkpt lat="42.3543644" lon="13.282675"><ele>688.0</ele><time>2026-05-02T17:16:42.988Z</time></trkpt><trkpt lat="42.3545835" lon="13.2828065"><ele>694.0</ele><time>2026-05-02T17:16:43.987Z</time></trkpt><trkpt lat="42.3548041" lon="13.2829452"><ele>700.0</ele><time>2026-05-02T17:16:44.988Z</time></trkpt><trkpt lat="42.3550253" lon="13.2830798"><ele>692.0</ele><time>2026-05-02T17:16:45.987Z</time></trkpt><trkpt lat="42.3552574" lon="13.2831945"><ele>684.0</ele><time>2026-05-02T17:16:46.988Z</time></trkpt><trkpt lat="42.3554943" lon="13.2833057"><ele>689.5</ele><time>2026-05-02T17:16:47.988Z</time></trkpt><trkpt lat="42.3557323" lon="13.2833982"><ele>695.0</ele><time>2026-05-02T17:16:48.988Z</time></trkpt><trkpt lat="42.3559591" lon="13.283484"><ele>695.0</ele><time>2026-05-02T17:16:49.988Z</time></trkpt><trkpt lat="42.3561691" lon="13.2835698"><ele>695.0</ele><time>2026-05-02T17:16:50.988Z</time></trkpt><trkpt lat="42.3563651" lon="13.2836559"><ele>695.0</ele><time>2026-05-02T17:16:51.988Z</time></trkpt><trkpt lat="42.3565513" lon="13.2837358"><ele>696.6666666666666</ele><time>2026-05-02T17:16:52.988Z</time></trkpt><trkpt lat="42.3567284" lon="13.283809"><ele>698.3333333333334</ele><time>2026-05-02T17:16:53.988Z</time></trkpt><trkpt lat="42.3569023" lon="13.2838758"><ele>700.0</ele><time>2026-05-02T17:16:54.988Z</time></trkpt><trkpt lat="42.3570736" lon="13.2839397"><ele>694.6666666666667</ele><time>2026-05-02T17:16:55.988Z</time></trkpt><trkpt lat="42.3572517" lon="13.2840144"><ele>689.3333333333334</ele><time>2026-05-02T17:16:56.988Z</time></trkpt><trkpt lat="42.3574337" lon="13.284101"><ele>684.0</ele><time>2026-05-02T17:16:57.988Z</time></trkpt><trkpt lat="42.3576186" lon="13.2842072"><ele>684.0</ele><time>2026-05-02T17:16:58.988Z</time></trkpt><trkpt lat="42.3578033" lon="13.2843366"><ele>684.0</ele><time>2026-05-02T17:16:59.988Z</time></trkpt><trkpt lat="42.3579816" lon="13.2844865"><ele>684.0</ele><time>2026-05-02T17:17:00.988Z</time></trkpt><trkpt lat="42.3581567" lon="13.2846548"><ele>682.3333333333334</ele><time>2026-05-02T17:17:01.988Z</time></trkpt><trkpt lat="42.3583229" lon="13.2848364"><ele>680.6666666666667</ele><time>2026-05-02T17:17:02.988Z</time></trkpt><trkpt lat="42.3584747" lon="13.2850247"><ele>679.0</ele><time>2026-05-02T17:17:03.987Z</time></trkpt><trkpt lat="42.3586149" lon="13.2852093"><ele>679.0</ele><time>2026-05-02T17:17:04.988Z</time></trkpt><trkpt lat="42.3587486" lon="13.285387"><ele>679.0</ele><time>2026-05-02T17:17:05.988Z</time></trkpt><trkpt lat="42.3588732" lon="13.2855519"><ele>679.0</ele><time>2026-05-02T17:17:06.988Z</time></trkpt><trkpt lat="42.3589888" lon="13.2857204"><ele>679.0</ele><time>2026-05-02T17:17:07.988Z</time></trkpt><trkpt lat="42.3590894" lon="13.2858855"><ele>679.0</ele><time>2026-05-02T17:17:08.988Z</time></trkpt><trkpt lat="42.3591717" lon="13.2860441"><ele>679.0</ele><time>2026-05-02T17:17:09.988Z</time></trkpt><trkpt lat="42.3592406" lon="13.2861845"><ele>679.0</ele><time>2026-05-02T17:17:10.988Z</time></trkpt><trkpt lat="42.3592915" lon="13.286312"><ele>678.6</ele><time>2026-05-02T17:17:11.988Z</time></trkpt><trkpt lat="42.359336" lon="13.2864386"><ele>678.2</ele><time>2026-05-02T17:17:12.988Z</time></trkpt><trkpt lat="42.3593643" lon="13.2865704"><ele>677.8000000000001</ele><time>2026-05-02T17:17:13.988Z</time></trkpt><trkpt lat="42.3593882" lon="13.2867144"><ele>677.4000000000001</ele><time>2026-05-02T17:17:14.988Z</time></trkpt><trkpt lat="42.3594137" lon="13.2868768"><ele>677.0</ele><time>2026-05-02T17:17:15.988Z</time></trkpt><trkpt lat="42.3594357" lon="13.2870535"><ele>677.0</ele><time>2026-05-02T17:17:16.988Z</time></trkpt><trkpt lat="42.3594567" lon="13.2872429"><ele>677.0</ele><time>2026-05-02T17:17:17.988Z</time></trkpt><trkpt lat="42.3594835" lon="13.2874379"><ele>677.0</ele><time>2026-05-02T17:17:18.988Z</time></trkpt><trkpt lat="42.3595139" lon="13.287625"><ele>677.0</ele><time>2026-05-02T17:17:19.988Z</time></trkpt><trkpt lat="42.3595377" lon="13.2877983"><ele>676.8</ele><time>2026-05-02T17:17:20.988Z</time></trkpt><trkpt lat="42.3595511" lon="13.28796"><ele>676.6</ele><time>2026-05-02T17:17:21.988Z</time></trkpt><trkpt lat="42.3595495" lon="13.2881053"><ele>676.4</ele><time>2026-05-02T17:17:22.988Z</time></trkpt><trkpt lat="42.3595318" lon="13.2882283"><ele>676.1999999999999</ele><time>2026-05-02T17:17:23.988Z</time></trkpt><trkpt lat="42.3595058" lon="13.2883399"><ele>676.0</ele><time>2026-05-02T17:17:24.988Z</time></trkpt><trkpt lat="42.3594978" lon="13.2884454"><ele>675.8</ele><time>2026-05-02T17:17:25.988Z</time></trkpt><trkpt lat="42.3595191" lon="13.2885435"><ele>675.5999999999999</ele><time>2026-05-02T17:17:26.988Z</time></trkpt><trkpt lat="42.3595629" lon="13.2886292"><ele>675.4</ele><time>2026-05-02T17:17:27.988Z</time></trkpt><trkpt lat="42.3596372" lon="13.288718"><ele>675.2</ele><time>2026-05-02T17:17:28.988Z</time></trkpt><trkpt lat="42.3597003" lon="13.2888327"><ele>675.0</ele><time>2026-05-02T17:17:29.988Z</time></trkpt><trkpt lat="42.3597507" lon="13.2889821"><ele>674.5</ele><time>2026-05-02T17:17:30.987Z</time></trkpt><trkpt lat="42.359788" lon="13.2891549"><ele>674.0</ele><time>2026-05-02T17:17:31.988Z</time></trkpt><trkpt lat="42.3598268" lon="13.289347"><ele>673.5</ele><time>2026-05-02T17:17:32.988Z</time></trkpt><trkpt lat="42.3598666" lon="13.2895443"><ele>673.0</ele><time>2026-05-02T17:17:33.988Z</time></trkpt><trkpt lat="42.3599" lon="13.2897179"><ele>672.8</ele><time>2026-05-02T17:17:34.988Z</time></trkpt><trkpt lat="42.3599292" lon="13.289873"><ele>672.5999999999999</ele><time>2026-05-02T17:17:35.988Z</time></trkpt><trkpt lat="42.3599532" lon="13.2900014"><ele>672.4000000000001</ele><time>2026-05-02T17:17:36.988Z</time></trkpt><trkpt lat="42.3599701" lon="13.2900978"><ele>672.2</ele><time>2026-05-02T17:17:37.988Z</time></trkpt><trkpt lat="42.3599942" lon="13.2902105"><ele>672.0</ele><time>2026-05-02T17:17:39.988Z</time></trkpt><trkpt lat="42.3600294" lon="13.2903162"><ele>672.0</ele><time>2026-05-02T17:17:41.988Z</time></trkpt><trkpt lat="42.3600882" lon="13.2904015"><ele>672.0</ele><time>2026-05-02T17:17:43.988Z</time></trkpt><trkpt lat="42.360142" lon="13.2904786"><ele>672.0</ele><time>2026-05-02T17:17:45.988Z</time></trkpt><trkpt lat="42.3601924" lon="13.2905414"><ele>672.0</ele><time>2026-05-02T17:17:47.987Z</time></trkpt><trkpt lat="42.3602526" lon="13.2906147"><ele>672.0</ele><time>2026-05-02T17:22:21.988Z</time></trkpt><trkpt lat="42.3602618" lon="13.2907085"><ele>672.0</ele><time>2026-05-02T17:22:23.988Z</time></trkpt><trkpt lat="42.3602365" lon="13.2907937"><ele>671.8</ele><time>2026-05-02T17:22:25.987Z</time></trkpt><trkpt lat="42.3601918" lon="13.2908989"><ele>671.6</ele><time>2026-05-02T17:22:29.988Z</time></trkpt><trkpt lat="42.360178" lon="13.2909945"><ele>671.4</ele><time>2026-05-02T17:22:30.988Z</time></trkpt><trkpt lat="42.3601807" lon="13.2911081"><ele>671.1999999999999</ele><time>2026-05-02T17:22:31.988Z</time></trkpt><trkpt lat="42.360192" lon="13.2912484"><ele>671.0</ele><time>2026-05-02T17:22:32.988Z</time></trkpt><trkpt lat="42.3602128" lon="13.2914067"><ele>670.75</ele><time>2026-05-02T17:22:33.988Z</time></trkpt><trkpt lat="42.3602403" lon="13.2915783"><ele>670.5</ele><time>2026-05-02T17:22:34.988Z</time></trkpt><trkpt lat="42.360268" lon="13.2917569"><ele>670.25</ele><time>2026-05-02T17:22:35.988Z</time></trkpt><trkpt lat="42.3603029" lon="13.2919417"><ele>670.0</ele><time>2026-05-02T17:22:36.987Z</time></trkpt><trkpt lat="42.3603379" lon="13.2921309"><ele>669.75</ele><time>2026-05-02T17:22:37.987Z</time></trkpt><trkpt lat="42.3603715" lon="13.2923208"><ele>669.5</ele><time>2026-05-02T17:22:38.987Z</time></trkpt><trkpt lat="42.3604095" lon="13.2925178"><ele>669.25</ele><time>2026-05-02T17:22:39.988Z</time></trkpt><trkpt lat="42.3604464" lon="13.2927204"><ele>669.0</ele><time>2026-05-02T17:22:40.988Z</time></trkpt><trkpt lat="42.3604811" lon="13.2929267"><ele>669.0</ele><time>2026-05-02T17:22:41.988Z</time></trkpt><trkpt lat="42.3605123" lon="13.2931345"><ele>669.0</ele><time>2026-05-02T17:22:42.988Z</time></trkpt><trkpt lat="42.3606001" lon="13.2936502"><ele>668.5</ele><time>2026-05-02T17:22:45.34Z</time></trkpt><trkpt lat="42.3606741" lon="13.29403"><ele>668.0</ele><time>2026-05-02T17:22:46.983Z</time></trkpt><trkpt lat="42.3607168" lon="13.2942664"><ele>668.0</ele><time>2026-05-02T17:22:47.983Z</time></trkpt><trkpt lat="42.3607556" lon="13.294511"><ele>668.0</ele><time>2026-05-02T17:22:48.983Z</time></trkpt><trkpt lat="42.3607975" lon="13.2947521"><ele>668.0</ele><time>2026-05-02T17:22:49.983Z</time></trkpt><trkpt lat="42.3608389" lon="13.2949939"><ele>668.3333333333333</ele><time>2026-05-02T17:22:50.983Z</time></trkpt><trkpt lat="42.3608811" lon="13.2952321"><ele>668.6666666666666</ele><time>2026-05-02T17:22:51.983Z</time></trkpt><trkpt lat="42.3609281" lon="13.2954717"><ele>669.0</ele><time>2026-05-02T17:22:52.983Z</time></trkpt><trkpt lat="42.3609768" lon="13.2957103"><ele>668.3333333333334</ele><time>2026-05-02T17:22:53.983Z</time></trkpt><trkpt lat="42.3610277" lon="13.2959503"><ele>667.6666666666667</ele><time>2026-05-02T17:22:54.983Z</time></trkpt><trkpt lat="42.3610673" lon="13.2961906"><ele>667.0</ele><time>2026-05-02T17:22:55.983Z</time></trkpt><trkpt lat="42.3611093" lon="13.2964278"><ele>666.0</ele><time>2026-05-02T17:22:56.982Z</time></trkpt><trkpt lat="42.361153" lon="13.296665"><ele>665.0</ele><time>2026-05-02T17:22:57.983Z</time></trkpt><trkpt lat="42.3611927" lon="13.2969037"><ele>664.0</ele><time>2026-05-02T17:22:58.983Z</time></trkpt><trkpt lat="42.3612313" lon="13.2971431"><ele>664.0</ele><time>2026-05-02T17:22:59.983Z</time></trkpt><trkpt lat="42.361272" lon="13.297385"><ele>664.0</ele><time>2026-05-02T17:23:00.983Z</time></trkpt><trkpt lat="42.361313" lon="13.297631"><ele>664.0</ele><time>2026-05-02T17:23:01.983Z</time></trkpt><trkpt lat="42.3613585" lon="13.2978771"><ele>663.6666666666667</ele><time>2026-05-02T17:23:02.983Z</time></trkpt><trkpt lat="42.3613964" lon="13.2981189"><ele>663.3333333333334</ele><time>2026-05-02T17:23:03.983Z</time></trkpt><trkpt lat="42.3614361" lon="13.2983482"><ele>663.0</ele><time>2026-05-02T17:23:04.983Z</time></trkpt><trkpt lat="42.3614707" lon="13.2985523"><ele>663.0</ele><time>2026-05-02T17:23:05.983Z</time></trkpt><trkpt lat="42.3615046" lon="13.2987435"><ele>663.0</ele><time>2026-05-02T17:23:06.983Z</time></trkpt><trkpt lat="42.3615328" lon="13.2989075"><ele>663.0</ele><time>2026-05-02T17:23:07.983Z</time></trkpt><trkpt lat="42.361557" lon="13.2990489"><ele>663.0</ele><time>2026-05-02T17:23:08.983Z</time></trkpt><trkpt lat="42.3615773" lon="13.2991887"><ele>663.0</ele><time>2026-05-02T17:23:09.983Z</time></trkpt><trkpt lat="42.361602" lon="13.2993488"><ele>663.0</ele><time>2026-05-02T17:23:10.983Z</time></trkpt><trkpt lat="42.3616306" lon="13.2995239"><ele>663.0</ele><time>2026-05-02T17:23:11.982Z</time></trkpt><trkpt lat="42.3616716" lon="13.2997176"><ele>663.0</ele><time>2026-05-02T17:23:12.983Z</time></trkpt><trkpt lat="42.361714" lon="13.2999294"><ele>662.3333333333334</ele><time>2026-05-02T17:23:13.983Z</time></trkpt><trkpt lat="42.3617581" lon="13.3001556"><ele>661.6666666666667</ele><time>2026-05-02T17:23:14.983Z</time></trkpt><trkpt lat="42.3618006" lon="13.3003902"><ele>661.0</ele><time>2026-05-02T17:23:15.983Z</time></trkpt><trkpt lat="42.3618394" lon="13.300613"><ele>660.5</ele><time>2026-05-02T17:23:16.983Z</time></trkpt><trkpt lat="42.3618736" lon="13.300816"><ele>660.0</ele><time>2026-05-02T17:23:17.983Z</time></trkpt><trkpt lat="42.3619053" lon="13.3009941"><ele>659.5</ele><time>2026-05-02T17:23:18.983Z</time></trkpt><trkpt lat="42.361932" lon="13.301164"><ele>659.0</ele><time>2026-05-02T17:23:19.982Z</time></trkpt><trkpt lat="42.3619614" lon="13.3013251"><ele>659.0</ele><time>2026-05-02T17:23:20.983Z</time></trkpt><trkpt lat="42.3619861" lon="13.3014762"><ele>659.0</ele><time>2026-05-02T17:23:21.983Z</time></trkpt><trkpt lat="42.3620096" lon="13.3016204"><ele>659.0</ele><time>2026-05-02T17:23:22.983Z</time></trkpt><trkpt lat="42.3620299" lon="13.3017531"><ele>659.0</ele><time>2026-05-02T17:23:23.983Z</time></trkpt><trkpt lat="42.3620549" lon="13.3018812"><ele>659.0</ele><time>2026-05-02T17:23:24.983Z</time></trkpt><trkpt lat="42.3620781" lon="13.3020184"><ele>659.0</ele><time>2026-05-02T17:23:25.983Z</time></trkpt><trkpt lat="42.3621026" lon="13.3021717"><ele>659.0</ele><time>2026-05-02T17:23:26.983Z</time></trkpt><trkpt lat="42.3621355" lon="13.3023458"><ele>659.0</ele><time>2026-05-02T17:23:27.983Z</time></trkpt><trkpt lat="42.3621699" lon="13.3025422"><ele>659.0</ele><time>2026-05-02T17:23:28.983Z</time></trkpt><trkpt lat="42.3622089" lon="13.3027633"><ele>659.0</ele><time>2026-05-02T17:23:29.983Z</time></trkpt><trkpt lat="42.3622533" lon="13.3030051"><ele>659.0</ele><time>2026-05-02T17:23:30.982Z</time></trkpt><trkpt lat="42.362302" lon="13.3032609"><ele>659.0</ele><time>2026-05-02T17:23:31.983Z</time></trkpt><trkpt lat="42.3623513" lon="13.3035362"><ele>659.0</ele><time>2026-05-02T17:23:32.983Z</time></trkpt><trkpt lat="42.3624007" lon="13.3038256"><ele>659.0</ele><time>2026-05-02T17:23:33.983Z</time></trkpt><trkpt lat="42.3624526" lon="13.304126"><ele>659.0</ele><time>2026-05-02T17:23:34.983Z</time></trkpt><trkpt lat="42.3625063" lon="13.3044349"><ele>658.0</ele><time>2026-05-02T17:23:35.983Z</time></trkpt><trkpt lat="42.3625617" lon="13.3047474"><ele>657.0</ele><time>2026-05-02T17:23:36.983Z</time></trkpt><trkpt lat="42.3626165" lon="13.3050682"><ele>657.0</ele><time>2026-05-02T17:23:37.983Z</time></trkpt><trkpt lat="42.3626705" lon="13.3053942"><ele>657.0</ele><time>2026-05-02T17:23:38.982Z</time></trkpt><trkpt lat="42.3627301" lon="13.3057207"><ele>657.5</ele><time>2026-05-02T17:23:39.983Z</time></trkpt><trkpt lat="42.3627875" lon="13.3060526"><ele>658.0</ele><time>2026-05-02T17:23:40.983Z</time></trkpt><trkpt lat="42.362845" lon="13.3063702"><ele>658.3333333333334</ele><time>2026-05-02T17:23:41.983Z</time></trkpt><trkpt lat="42.3628987" lon="13.3066682"><ele>658.6666666666666</ele><time>2026-05-02T17:23:42.983Z</time></trkpt><trkpt lat="42.3629496" lon="13.3069477"><ele>659.0</ele><time>2026-05-02T17:23:43.983Z</time></trkpt><trkpt lat="42.3629965" lon="13.3071981"><ele>658.3333333333333</ele><time>2026-05-02T17:23:44.983Z</time></trkpt><trkpt lat="42.363045" lon="13.3074245"><ele>657.6666666666666</ele><time>2026-05-02T17:23:45.983Z</time></trkpt><trkpt lat="42.3630974" lon="13.3076308"><ele>657.0</ele><time>2026-05-02T17:23:46.983Z</time></trkpt><trkpt lat="42.3631522" lon="13.3078109"><ele>657.0</ele><time>2026-05-02T17:23:47.983Z</time></trkpt><trkpt lat="42.3631996" lon="13.3079755"><ele>657.0</ele><time>2026-05-02T17:23:48.983Z</time></trkpt><trkpt lat="42.3632321" lon="13.3081339"><ele>657.0</ele><time>2026-05-02T17:23:49.983Z</time></trkpt><trkpt lat="42.3632505" lon="13.3083036"><ele>657.0</ele><time>2026-05-02T17:23:50.983Z</time></trkpt><trkpt lat="42.363275" lon="13.30849"><ele>657.3333333333334</ele><time>2026-05-02T17:23:51.983Z</time></trkpt><trkpt lat="42.3633129" lon="13.308693"><ele>657.6666666666667</ele><time>2026-05-02T17:23:52.983Z</time></trkpt><trkpt lat="42.3633494" lon="13.3089188"><ele>658.0</ele><time>2026-05-02T17:23:53.983Z</time></trkpt><trkpt lat="42.363377" lon="13.3091605"><ele>658.0</ele><time>2026-05-02T17:23:54.983Z</time></trkpt><trkpt lat="42.3634048" lon="13.3094189"><ele>658.0</ele><time>2026-05-02T17:23:55.983Z</time></trkpt><trkpt lat="42.3634412" lon="13.309691"><ele>658.0</ele><time>2026-05-02T17:23:56.982Z</time></trkpt><trkpt lat="42.3634864" lon="13.3099714"><ele>657.3333333333334</ele><time>2026-05-02T17:23:57.983Z</time></trkpt><trkpt lat="42.363537" lon="13.310262"><ele>656.6666666666666</ele><time>2026-05-02T17:23:58.982Z</time></trkpt><trkpt lat="42.3635897" lon="13.3105576"><ele>656.0</ele><time>2026-05-02T17:23:59.983Z</time></trkpt><trkpt lat="42.363644" lon="13.3108531"><ele>656.0</ele><time>2026-05-02T17:24:00.983Z</time></trkpt><trkpt lat="42.3636962" lon="13.3111482"><ele>656.0</ele><time>2026-05-02T17:24:01.983Z</time></trkpt><trkpt lat="42.3637462" lon="13.311441"><ele>656.0</ele><time>2026-05-02T17:24:02.983Z</time></trkpt><trkpt lat="42.3637953" lon="13.3117297"><ele>656.0</ele><time>2026-05-02T17:24:03.983Z</time></trkpt><trkpt lat="42.363844" lon="13.3120177"><ele>656.0</ele><time>2026-05-02T17:24:04.983Z</time></trkpt><trkpt lat="42.3638898" lon="13.3123037"><ele>656.0</ele><time>2026-05-02T17:24:05.982Z</time></trkpt><trkpt lat="42.3639418" lon="13.3125872"><ele>655.5</ele><time>2026-05-02T17:24:06.983Z</time></trkpt><trkpt lat="42.3639996" lon="13.3128816"><ele>655.0</ele><time>2026-05-02T17:24:07.983Z</time></trkpt><trkpt lat="42.3640611" lon="13.3131973"><ele>655.0</ele><time>2026-05-02T17:24:08.982Z</time></trkpt><trkpt lat="42.3641266" lon="13.3135265"><ele>655.0</ele><time>2026-05-02T17:24:09.983Z</time></trkpt><trkpt lat="42.3641883" lon="13.3138702"><ele>656.0</ele><time>2026-05-02T17:24:10.983Z</time></trkpt><trkpt lat="42.3642499" lon="13.3142224"><ele>657.0</ele><time>2026-05-02T17:24:11.983Z</time></trkpt><trkpt lat="42.3643039" lon="13.3145531"><ele>656.5</ele><time>2026-05-02T17:24:12.983Z</time></trkpt><trkpt lat="42.3643511" lon="13.3148687"><ele>656.0</ele><time>2026-05-02T17:24:13.983Z</time></trkpt><trkpt lat="42.3643952" lon="13.3151679"><ele>656.0</ele><time>2026-05-02T17:24:14.983Z</time></trkpt><trkpt lat="42.3644485" lon="13.3154625"><ele>656.0</ele><time>2026-05-02T17:24:15.983Z</time></trkpt><trkpt lat="42.3645068" lon="13.3157747"><ele>656.0</ele><time>2026-05-02T17:24:16.983Z</time></trkpt><trkpt lat="42.3645747" lon="13.3160997"><ele>656.0</ele><time>2026-05-02T17:24:17.983Z</time></trkpt><trkpt lat="42.3646386" lon="13.3164398"><ele>656.0</ele><time>2026-05-02T17:24:18.983Z</time></trkpt><trkpt lat="42.3646941" lon="13.3167873"><ele>656.0</ele><time>2026-05-02T17:24:19.983Z</time></trkpt><trkpt lat="42.3647475" lon="13.3171136"><ele>655.3333333333333</ele><time>2026-05-02T17:24:20.983Z</time></trkpt><trkpt lat="42.3648013" lon="13.3174147"><ele>654.6666666666666</ele><time>2026-05-02T17:24:21.982Z</time></trkpt><trkpt lat="42.3648484" lon="13.3176912"><ele>654.0</ele><time>2026-05-02T17:24:22.983Z</time></trkpt><trkpt lat="42.3648931" lon="13.3179464"><ele>653.6666666666666</ele><time>2026-05-02T17:24:23.983Z</time></trkpt><trkpt lat="42.3649353" lon="13.3181842"><ele>653.3333333333333</ele><time>2026-05-02T17:24:24.983Z</time></trkpt><trkpt lat="42.3649779" lon="13.3184047"><ele>653.0</ele><time>2026-05-02T17:24:25.983Z</time></trkpt><trkpt lat="42.3650133" lon="13.3186164"><ele>653.0</ele><time>2026-05-02T17:24:26.982Z</time></trkpt><trkpt lat="42.365047" lon="13.3188318"><ele>653.0</ele><time>2026-05-02T17:24:27.982Z</time></trkpt><trkpt lat="42.3650829" lon="13.3190394"><ele>653.0</ele><time>2026-05-02T17:24:28.982Z</time></trkpt><trkpt lat="42.3651124" lon="13.319233"><ele>653.25</ele><time>2026-05-02T17:24:29.982Z</time></trkpt><trkpt lat="42.365145" lon="13.3194264"><ele>653.5</ele><time>2026-05-02T17:24:30.983Z</time></trkpt><trkpt lat="42.3651813" lon="13.3196193"><ele>653.75</ele><time>2026-05-02T17:24:31.983Z</time></trkpt><trkpt lat="42.3652181" lon="13.3198128"><ele>654.0</ele><time>2026-05-02T17:24:32.982Z</time></trkpt><trkpt lat="42.3652539" lon="13.3200082"><ele>654.0</ele><time>2026-05-02T17:24:33.982Z</time></trkpt><trkpt lat="42.3652842" lon="13.3202047"><ele>654.0</ele><time>2026-05-02T17:24:34.983Z</time></trkpt><trkpt lat="42.3653117" lon="13.3204013"><ele>654.0</ele><time>2026-05-02T17:24:35.982Z</time></trkpt><trkpt lat="42.365333" lon="13.3205982"><ele>654.0</ele><time>2026-05-02T17:24:36.983Z</time></trkpt><trkpt lat="42.3653412" lon="13.3207978"><ele>654.3333333333334</ele><time>2026-05-02T17:24:37.983Z</time></trkpt><trkpt lat="42.3653329" lon="13.3209994"><ele>654.6666666666667</ele><time>2026-05-02T17:24:38.983Z</time></trkpt><trkpt lat="42.3653091" lon="13.3211996"><ele>655.0</ele><time>2026-05-02T17:24:39.983Z</time></trkpt><trkpt lat="42.3652728" lon="13.3213984"><ele>655.3333333333334</ele><time>2026-05-02T17:24:40.982Z</time></trkpt><trkpt lat="42.365221" lon="13.3215934"><ele>655.6666666666666</ele><time>2026-05-02T17:24:41.983Z</time></trkpt><trkpt lat="42.3651529" lon="13.3217812"><ele>656.0</ele><time>2026-05-02T17:24:42.983Z</time></trkpt><trkpt lat="42.3650738" lon="13.3219625"><ele>656.0</ele><time>2026-05-02T17:24:43.982Z</time></trkpt><trkpt lat="42.3649875" lon="13.3221306"><ele>656.0</ele><time>2026-05-02T17:24:44.983Z</time></trkpt><trkpt lat="42.364889" lon="13.3222903"><ele>656.0</ele><time>2026-05-02T17:24:45.983Z</time></trkpt><trkpt lat="42.3647699" lon="13.3224436"><ele>656.0</ele><time>2026-05-02T17:24:46.983Z</time></trkpt><trkpt lat="42.3646431" lon="13.3225886"><ele>656.0</ele><time>2026-05-02T17:24:47.983Z</time></trkpt><trkpt lat="42.3645184" lon="13.322723"><ele>656.0</ele><time>2026-05-02T17:24:48.983Z</time></trkpt><trkpt lat="42.3643894" lon="13.3228628"><ele>656.0</ele><time>2026-05-02T17:24:49.983Z</time></trkpt><trkpt lat="42.3642663" lon="13.3230086"><ele>656.0</ele><time>2026-05-02T17:24:50.983Z</time></trkpt><trkpt lat="42.3641449" lon="13.3231747"><ele>656.0</ele><time>2026-05-02T17:24:51.983Z</time></trkpt><trkpt lat="42.3640202" lon="13.3233722"><ele>656.6666666666666</ele><time>2026-05-02T17:24:52.983Z</time></trkpt><trkpt lat="42.3638897" lon="13.3235966"><ele>657.3333333333334</ele><time>2026-05-02T17:24:53.983Z</time></trkpt><trkpt lat="42.3637456" lon="13.3238457"><ele>658.0</ele><time>2026-05-02T17:24:54.983Z</time></trkpt><trkpt lat="42.3635903" lon="13.3241127"><ele>658.0</ele><time>2026-05-02T17:24:55.983Z</time></trkpt><trkpt lat="42.3634345" lon="13.3243885"><ele>658.0</ele><time>2026-05-02T17:24:56.983Z</time></trkpt><trkpt lat="42.3632966" lon="13.32464"><ele>657.6666666666667</ele><time>2026-05-02T17:24:57.983Z</time></trkpt><trkpt lat="42.3631617" lon="13.3248805"><ele>657.3333333333334</ele><time>2026-05-02T17:24:58.982Z</time></trkpt><trkpt lat="42.36301" lon="13.325107"><ele>657.0</ele><time>2026-05-02T17:24:59.983Z</time></trkpt><trkpt lat="42.362838" lon="13.3253169"><ele>657.0</ele><time>2026-05-02T17:25:00.983Z</time></trkpt><trkpt lat="42.3626466" lon="13.3255053"><ele>657.0</ele><time>2026-05-02T17:25:01.983Z</time></trkpt><trkpt lat="42.3624506" lon="13.3256759"><ele>657.6666666666666</ele><time>2026-05-02T17:25:02.983Z</time></trkpt><trkpt lat="42.3622633" lon="13.3258185"><ele>658.3333333333333</ele><time>2026-05-02T17:25:03.983Z</time></trkpt><trkpt lat="42.3620809" lon="13.3259474"><ele>659.0</ele><time>2026-05-02T17:25:04.983Z</time></trkpt><trkpt lat="42.3618988" lon="13.3260502"><ele>659.0</ele><time>2026-05-02T17:25:05.983Z</time></trkpt><trkpt lat="42.361708" lon="13.3261306"><ele>659.0</ele><time>2026-05-02T17:25:06.982Z</time></trkpt><trkpt lat="42.3615194" lon="13.3261701"><ele>659.0</ele><time>2026-05-02T17:25:07.983Z</time></trkpt><trkpt lat="42.3613399" lon="13.3261833"><ele>659.6666666666666</ele><time>2026-05-02T17:25:08.983Z</time></trkpt><trkpt lat="42.3611801" lon="13.3261773"><ele>660.3333333333334</ele><time>2026-05-02T17:25:09.982Z</time></trkpt><trkpt lat="42.3610292" lon="13.3261812"><ele>661.0</ele><time>2026-05-02T17:25:10.983Z</time></trkpt><trkpt lat="42.3608863" lon="13.3262055"><ele>661.0</ele><time>2026-05-02T17:25:11.983Z</time></trkpt><trkpt lat="42.3607508" lon="13.3262514"><ele>661.0</ele><time>2026-05-02T17:25:12.982Z</time></trkpt><trkpt lat="42.3606234" lon="13.3263161"><ele>661.0</ele><time>2026-05-02T17:25:13.983Z</time></trkpt><trkpt lat="42.3605109" lon="13.3264268"><ele>661.0</ele><time>2026-05-02T17:25:14.983Z</time></trkpt><trkpt lat="42.3604071" lon="13.3265524"><ele>662.0</ele><time>2026-05-02T17:25:15.982Z</time></trkpt><trkpt lat="42.3603177" lon="13.3266959"><ele>663.0</ele><time>2026-05-02T17:25:16.983Z</time></trkpt><trkpt lat="42.3602392" lon="13.3268753"><ele>664.0</ele><time>2026-05-02T17:25:17.982Z</time></trkpt><trkpt lat="42.3601815" lon="13.327087"><ele>662.6666666666667</ele><time>2026-05-02T17:25:18.983Z</time></trkpt><trkpt lat="42.3601372" lon="13.3272915"><ele>661.3333333333334</ele><time>2026-05-02T17:25:19.983Z</time></trkpt><trkpt lat="42.360099" lon="13.3274874"><ele>660.0</ele><time>2026-05-02T17:25:20.983Z</time></trkpt><trkpt lat="42.360065" lon="13.3276905"><ele>660.0</ele><time>2026-05-02T17:25:21.983Z</time></trkpt><trkpt lat="42.3600344" lon="13.3278853"><ele>660.0</ele><time>2026-05-02T17:25:22.983Z</time></trkpt><trkpt lat="42.360016" lon="13.3280835"><ele>660.0</ele><time>2026-05-02T17:25:23.983Z</time></trkpt><trkpt lat="42.3600353" lon="13.3283009"><ele>660.3333333333334</ele><time>2026-05-02T17:25:24.983Z</time></trkpt><trkpt lat="42.3600915" lon="13.3285561"><ele>660.6666666666667</ele><time>2026-05-02T17:25:25.983Z</time></trkpt><trkpt lat="42.3601716" lon="13.3288367"><ele>661.0</ele><time>2026-05-02T17:25:26.983Z</time></trkpt><trkpt lat="42.3602327" lon="13.3291487"><ele>658.0</ele><time>2026-05-02T17:25:27.982Z</time></trkpt><trkpt lat="42.3602848" lon="13.3294864"><ele>655.0</ele><time>2026-05-02T17:25:28.983Z</time></trkpt><trkpt lat="42.3603277" lon="13.3298089"><ele>653.0</ele><time>2026-05-02T17:25:29.983Z</time></trkpt><trkpt lat="42.3603756" lon="13.3301305"><ele>651.0</ele><time>2026-05-02T17:25:30.983Z</time></trkpt><trkpt lat="42.360464" lon="13.3304634"><ele>657.5</ele><time>2026-05-02T17:25:31.982Z</time></trkpt><trkpt lat="42.3605541" lon="13.3307727"><ele>664.0</ele><time>2026-05-02T17:25:32.983Z</time></trkpt><trkpt lat="42.3606452" lon="13.3310577"><ele>664.0</ele><time>2026-05-02T17:25:33.983Z</time></trkpt><trkpt lat="42.360726" lon="13.3313177"><ele>664.0</ele><time>2026-05-02T17:25:34.983Z</time></trkpt><trkpt lat="42.3607878" lon="13.3315617"><ele>664.0</ele><time>2026-05-02T17:25:35.983Z</time></trkpt><trkpt lat="42.3608253" lon="13.3318168"><ele>662.0</ele><time>2026-05-02T17:25:36.983Z</time></trkpt><trkpt lat="42.3608434" lon="13.3320855"><ele>660.0</ele><time>2026-05-02T17:25:37.983Z</time></trkpt><trkpt lat="42.3608409" lon="13.332365"><ele>658.0</ele><time>2026-05-02T17:25:38.983Z</time></trkpt><trkpt lat="42.3608227" lon="13.3326401"><ele>658.0</ele><time>2026-05-02T17:25:39.982Z</time></trkpt><trkpt lat="42.3607862" lon="13.3328912"><ele>658.0</ele><time>2026-05-02T17:25:40.983Z</time></trkpt><trkpt lat="42.3607306" lon="13.3331229"><ele>658.0</ele><time>2026-05-02T17:25:41.983Z</time></trkpt><trkpt lat="42.3606522" lon="13.3333317"><ele>658.6666666666667</ele><time>2026-05-02T17:25:42.983Z</time></trkpt><trkpt lat="42.3605355" lon="13.3335333"><ele>659.3333333333334</ele><time>2026-05-02T17:25:43.983Z</time></trkpt><trkpt lat="42.360382" lon="13.3337232"><ele>660.0</ele><time>2026-05-02T17:25:44.983Z</time></trkpt><trkpt lat="42.3602072" lon="13.3339097"><ele>656.0</ele><time>2026-05-02T17:25:45.982Z</time></trkpt><trkpt lat="42.3600335" lon="13.3340769"><ele>652.0</ele><time>2026-05-02T17:25:46.983Z</time></trkpt><trkpt lat="42.3598544" lon="13.3342116"><ele>648.0</ele><time>2026-05-02T17:25:47.983Z</time></trkpt><trkpt lat="42.3596569" lon="13.3343227"><ele>646.5</ele><time>2026-05-02T17:25:48.983Z</time></trkpt><trkpt lat="42.3594386" lon="13.3344101"><ele>645.0</ele><time>2026-05-02T17:25:49.983Z</time></trkpt><trkpt lat="42.3592095" lon="13.3344853"><ele>645.0</ele><time>2026-05-02T17:25:50.982Z</time></trkpt><trkpt lat="42.3589903" lon="13.334558"><ele>645.0</ele><time>2026-05-02T17:25:51.983Z</time></trkpt><trkpt lat="42.3587675" lon="13.3346403"><ele>646.0</ele><time>2026-05-02T17:25:52.983Z</time></trkpt><trkpt lat="42.3585473" lon="13.3347468"><ele>647.0</ele><time>2026-05-02T17:25:53.983Z</time></trkpt><trkpt lat="42.3583185" lon="13.3348514"><ele>647.0</ele><time>2026-05-02T17:25:54.983Z</time></trkpt><trkpt lat="42.3581007" lon="13.3349776"><ele>647.0</ele><time>2026-05-02T17:25:55.983Z</time></trkpt><trkpt lat="42.3579575" lon="13.3351581"><ele>647.0</ele><time>2026-05-02T17:25:56.982Z</time></trkpt><trkpt lat="42.3578118" lon="13.3353083"><ele>646.6666666666666</ele><time>2026-05-02T17:25:57.983Z</time></trkpt><trkpt lat="42.3576735" lon="13.3355005"><ele>646.3333333333334</ele><time>2026-05-02T17:25:58.983Z</time></trkpt><trkpt lat="42.357539" lon="13.3357116"><ele>646.0</ele><time>2026-05-02T17:25:59.983Z</time></trkpt><trkpt lat="42.35741" lon="13.3359388"><ele>646.0</ele><time>2026-05-02T17:26:00.983Z</time></trkpt><trkpt lat="42.3572916" lon="13.3362001"><ele>646.0</ele><time>2026-05-02T17:26:01.982Z</time></trkpt><trkpt lat="42.3571849" lon="13.336486"><ele>643.5</ele><time>2026-05-02T17:26:02.983Z</time></trkpt><trkpt lat="42.3570999" lon="13.3367892"><ele>641.0</ele><time>2026-05-02T17:26:03.983Z</time></trkpt><trkpt lat="42.3570168" lon="13.3371057"><ele>641.5</ele><time>2026-05-02T17:26:04.983Z</time></trkpt><trkpt lat="42.3569406" lon="13.3374327"><ele>642.0</ele><time>2026-05-02T17:26:05.983Z</time></trkpt><trkpt lat="42.3568659" lon="13.3377724"><ele>643.0</ele><time>2026-05-02T17:26:06.983Z</time></trkpt><trkpt lat="42.3567923" lon="13.3381208"><ele>644.0</ele><time>2026-05-02T17:26:07.983Z</time></trkpt><trkpt lat="42.3567169" lon="13.3384758"><ele>644.0</ele><time>2026-05-02T17:26:08.983Z</time></trkpt><trkpt lat="42.356639" lon="13.3388347"><ele>644.0</ele><time>2026-05-02T17:26:09.983Z</time></trkpt><trkpt lat="42.356567" lon="13.3392037"><ele>644.0</ele><time>2026-05-02T17:26:10.983Z</time></trkpt><trkpt lat="42.3564961" lon="13.3395736"><ele>644.0</ele><time>2026-05-02T17:26:11.982Z</time></trkpt><trkpt lat="42.3564224" lon="13.3399472"><ele>641.5</ele><time>2026-05-02T17:26:12.983Z</time></trkpt><trkpt lat="42.3563446" lon="13.3403229"><ele>639.0</ele><time>2026-05-02T17:26:13.982Z</time></trkpt><trkpt lat="42.35627" lon="13.3407031"><ele>639.0</ele><time>2026-05-02T17:26:14.983Z</time></trkpt><trkpt lat="42.3561967" lon="13.3410857"><ele>639.0</ele><time>2026-05-02T17:26:15.983Z</time></trkpt><trkpt lat="42.3561251" lon="13.3414541"><ele>639.0</ele><time>2026-05-02T17:26:16.983Z</time></trkpt><trkpt lat="42.3560574" lon="13.3417995"><ele>639.0</ele><time>2026-05-02T17:26:17.983Z</time></trkpt><trkpt lat="42.3559941" lon="13.3421288"><ele>638.0</ele><time>2026-05-02T17:26:18.983Z</time></trkpt><trkpt lat="42.3559314" lon="13.3424413"><ele>637.0</ele><time>2026-05-02T17:26:19.983Z</time></trkpt><trkpt lat="42.3558712" lon="13.3427399"><ele>637.0</ele><time>2026-05-02T17:26:20.983Z</time></trkpt><trkpt lat="42.3558114" lon="13.3430194"><ele>637.0</ele><time>2026-05-02T17:26:21.983Z</time></trkpt><trkpt lat="42.3557663" lon="13.3432919"><ele>637.0</ele><time>2026-05-02T17:26:22.982Z</time></trkpt><trkpt lat="42.3557625" lon="13.3435831"><ele>636.0</ele><time>2026-05-02T17:26:23.982Z</time></trkpt><trkpt lat="42.355778" lon="13.3438837"><ele>635.0</ele><time>2026-05-02T17:26:24.982Z</time></trkpt><trkpt lat="42.3558201" lon="13.3441989"><ele>635.0</ele><time>2026-05-02T17:26:25.983Z</time></trkpt><trkpt lat="42.3558803" lon="13.3445221"><ele>635.0</ele><time>2026-05-02T17:26:26.983Z</time></trkpt><trkpt lat="42.355951" lon="13.3448563"><ele>633.5</ele><time>2026-05-02T17:26:27.983Z</time></trkpt><trkpt lat="42.3560355" lon="13.3452024"><ele>632.0</ele><time>2026-05-02T17:26:28.983Z</time></trkpt><trkpt lat="42.3561177" lon="13.3455542"><ele>632.0</ele><time>2026-05-02T17:26:29.983Z</time></trkpt><trkpt lat="42.3561956" lon="13.3458835"><ele>632.0</ele><time>2026-05-02T17:26:30.983Z</time></trkpt><trkpt lat="42.3562676" lon="13.3461947"><ele>632.0</ele><time>2026-05-02T17:26:31.983Z</time></trkpt><trkpt lat="42.3563388" lon="13.3464902"><ele>632.0</ele><time>2026-05-02T17:26:32.982Z</time></trkpt><trkpt lat="42.3564062" lon="13.3467697"><ele>632.0</ele><time>2026-05-02T17:26:33.982Z</time></trkpt><trkpt lat="42.3564728" lon="13.3470509"><ele>633.6666666666666</ele><time>2026-05-02T17:26:34.983Z</time></trkpt><trkpt lat="42.3565364" lon="13.3473314"><ele>635.3333333333334</ele><time>2026-05-02T17:26:35.983Z</time></trkpt><trkpt lat="42.3566002" lon="13.3475975"><ele>637.0</ele><time>2026-05-02T17:26:36.982Z</time></trkpt><trkpt lat="42.3566599" lon="13.3478504"><ele>636.0</ele><time>2026-05-02T17:26:37.983Z</time></trkpt><trkpt lat="42.3567221" lon="13.3481"><ele>635.0</ele><time>2026-05-02T17:26:38.982Z</time></trkpt><trkpt lat="42.3567829" lon="13.3483318"><ele>634.0</ele><time>2026-05-02T17:26:39.983Z</time></trkpt><trkpt lat="42.3568392" lon="13.348549"><ele>634.0</ele><time>2026-05-02T17:26:40.983Z</time></trkpt><trkpt lat="42.356888" lon="13.3487415"><ele>634.0</ele><time>2026-05-02T17:26:41.983Z</time></trkpt><trkpt lat="42.3569262" lon="13.3489143"><ele>634.0</ele><time>2026-05-02T17:26:42.983Z</time></trkpt><trkpt lat="42.3569559" lon="13.34907"><ele>634.0</ele><time>2026-05-02T17:26:43.983Z</time></trkpt><trkpt lat="42.3569754" lon="13.3492199"><ele>633.8</ele><time>2026-05-02T17:26:44.982Z</time></trkpt><trkpt lat="42.3569757" lon="13.3493565"><ele>633.5999999999999</ele><time>2026-05-02T17:26:45.982Z</time></trkpt><trkpt lat="42.3569586" lon="13.3494839"><ele>633.4</ele><time>2026-05-02T17:26:46.983Z</time></trkpt><trkpt lat="42.3569304" lon="13.3496183"><ele>633.1999999999999</ele><time>2026-05-02T17:26:47.983Z</time></trkpt><trkpt lat="42.3569114" lon="13.3497567"><ele>633.0</ele><time>2026-05-02T17:26:48.983Z</time></trkpt><trkpt lat="42.356915" lon="13.3498806"><ele>633.1666666666666</ele><time>2026-05-02T17:26:49.982Z</time></trkpt><trkpt lat="42.3569372" lon="13.3499887"><ele>633.3333333333334</ele><time>2026-05-02T17:26:50.983Z</time></trkpt><trkpt lat="42.3569781" lon="13.3500771"><ele>633.5</ele><time>2026-05-02T17:26:51.983Z</time></trkpt><trkpt lat="42.3570379" lon="13.3501514"><ele>633.6666666666667</ele><time>2026-05-02T17:26:52.983Z</time></trkpt><trkpt lat="42.3571188" lon="13.3502101"><ele>633.8333333333334</ele><time>2026-05-02T17:26:53.983Z</time></trkpt><trkpt lat="42.3572138" lon="13.3502481"><ele>634.0</ele><time>2026-05-02T17:26:54.982Z</time></trkpt><trkpt lat="42.3573214" lon="13.3502655"><ele>634.0</ele><time>2026-05-02T17:26:55.983Z</time></trkpt><trkpt lat="42.3574282" lon="13.3502802"><ele>634.0</ele><time>2026-05-02T17:26:56.983Z</time></trkpt><trkpt lat="42.3575278" lon="13.3503179"><ele>634.0</ele><time>2026-05-02T17:26:57.983Z</time></trkpt><trkpt lat="42.3576314" lon="13.3503832"><ele>634.0</ele><time>2026-05-02T17:26:58.983Z</time></trkpt><trkpt lat="42.357738" lon="13.3504771"><ele>633.0</ele><time>2026-05-02T17:26:59.983Z</time></trkpt><trkpt lat="42.3578571" lon="13.350596"><ele>632.0</ele><time>2026-05-02T17:27:00.983Z</time></trkpt><trkpt lat="42.3579769" lon="13.3507361"><ele>631.0</ele><time>2026-05-02T17:27:01.983Z</time></trkpt><trkpt lat="42.3580968" lon="13.3509031"><ele>630.3333333333334</ele><time>2026-05-02T17:27:02.983Z</time></trkpt><trkpt lat="42.3582079" lon="13.3510753"><ele>629.6666666666666</ele><time>2026-05-02T17:27:03.983Z</time></trkpt><trkpt lat="42.3583132" lon="13.3512638"><ele>629.0</ele><time>2026-05-02T17:27:04.983Z</time></trkpt><trkpt lat="42.3584134" lon="13.351457"><ele>628.75</ele><time>2026-05-02T17:27:05.983Z</time></trkpt><trkpt lat="42.3585023" lon="13.3516418"><ele>628.5</ele><time>2026-05-02T17:27:06.982Z</time></trkpt><trkpt lat="42.3585777" lon="13.3518022"><ele>628.25</ele><time>2026-05-02T17:27:07.983Z</time></trkpt><trkpt lat="42.3586383" lon="13.3519437"><ele>628.0</ele><time>2026-05-02T17:27:08.983Z</time></trkpt><trkpt lat="42.3586832" lon="13.352099"><ele>628.0</ele><time>2026-05-02T17:27:09.983Z</time></trkpt><trkpt lat="42.3587054" lon="13.3522733"><ele>628.0</ele><time>2026-05-02T17:27:10.983Z</time></trkpt><trkpt lat="42.3587296" lon="13.3524567"><ele>628.0</ele><time>2026-05-02T17:27:11.983Z</time></trkpt><trkpt lat="42.358782" lon="13.3526236"><ele>628.0</ele><time>2026-05-02T17:27:12.983Z</time></trkpt><trkpt lat="42.358855" lon="13.3527988"><ele>628.5</ele><time>2026-05-02T17:27:13.983Z</time></trkpt><trkpt lat="42.3589309" lon="13.3529877"><ele>629.0</ele><time>2026-05-02T17:27:14.983Z</time></trkpt><trkpt lat="42.3589888" lon="13.3531588"><ele>629.5</ele><time>2026-05-02T17:27:15.983Z</time></trkpt><trkpt lat="42.3590366" lon="13.3533087"><ele>630.0</ele><time>2026-05-02T17:27:16.983Z</time></trkpt><trkpt lat="42.3590805" lon="13.3534646"><ele>630.0</ele><time>2026-05-02T17:27:17.982Z</time></trkpt><trkpt lat="42.3591229" lon="13.3536199"><ele>630.0</ele><time>2026-05-02T17:27:18.983Z</time></trkpt><trkpt lat="42.3591641" lon="13.3537799"><ele>630.0</ele><time>2026-05-02T17:27:19.983Z</time></trkpt><trkpt lat="42.3592131" lon="13.353953"><ele>630.0</ele><time>2026-05-02T17:27:20.983Z</time></trkpt><trkpt lat="42.3592737" lon="13.3541396"><ele>629.3333333333334</ele><time>2026-05-02T17:27:21.982Z</time></trkpt><trkpt lat="42.3593375" lon="13.3543539"><ele>628.6666666666667</ele><time>2026-05-02T17:27:22.983Z</time></trkpt><trkpt lat="42.3594048" lon="13.3545973"><ele>628.0</ele><time>2026-05-02T17:27:23.983Z</time></trkpt><trkpt lat="42.3594719" lon="13.3548355"><ele>628.0</ele><time>2026-05-02T17:27:24.983Z</time></trkpt><trkpt lat="42.3595333" lon="13.3550643"><ele>628.0</ele><time>2026-05-02T17:27:25.983Z</time></trkpt><trkpt lat="42.3596008" lon="13.35531"><ele>628.0</ele><time>2026-05-02T17:27:26.983Z</time></trkpt><trkpt lat="42.3596679" lon="13.3555551"><ele>627.3333333333334</ele><time>2026-05-02T17:27:27.983Z</time></trkpt><trkpt lat="42.3597244" lon="13.3557753"><ele>626.6666666666666</ele><time>2026-05-02T17:27:28.983Z</time></trkpt><trkpt lat="42.3597725" lon="13.3559694"><ele>626.0</ele><time>2026-05-02T17:27:29.982Z</time></trkpt><trkpt lat="42.3598158" lon="13.3561425"><ele>626.0</ele><time>2026-05-02T17:27:30.983Z</time></trkpt><trkpt lat="42.3598619" lon="13.3563243"><ele>626.0</ele><time>2026-05-02T17:27:31.983Z</time></trkpt><trkpt lat="42.3599082" lon="13.3565132"><ele>626.0</ele><time>2026-05-02T17:27:32.983Z</time></trkpt><trkpt lat="42.3599533" lon="13.3567037"><ele>626.0</ele><time>2026-05-02T17:27:33.983Z</time></trkpt><trkpt lat="42.3599991" lon="13.3569035"><ele>626.0</ele><time>2026-05-02T17:27:34.983Z</time></trkpt><trkpt lat="42.3600365" lon="13.3571196"><ele>626.0</ele><time>2026-05-02T17:27:35.983Z</time></trkpt><trkpt lat="42.3600566" lon="13.3573586"><ele>626.0</ele><time>2026-05-02T17:27:36.983Z</time></trkpt><trkpt lat="42.3600536" lon="13.3576123"><ele>626.0</ele><time>2026-05-02T17:27:37.983Z</time></trkpt><trkpt lat="42.3600378" lon="13.3578713"><ele>626.0</ele><time>2026-05-02T17:27:38.983Z</time></trkpt><trkpt lat="42.3600145" lon="13.3581095"><ele>626.0</ele><time>2026-05-02T17:27:39.983Z</time></trkpt><trkpt lat="42.3599872" lon="13.358331"><ele>626.0</ele><time>2026-05-02T17:27:40.983Z</time></trkpt><trkpt lat="42.3599485" lon="13.3585687"><ele>626.0</ele><time>2026-05-02T17:27:41.983Z</time></trkpt><trkpt lat="42.3598953" lon="13.3588269"><ele>626.0</ele><time>2026-05-02T17:27:42.983Z</time></trkpt><trkpt lat="42.3598226" lon="13.3590945"><ele>625.0</ele><time>2026-05-02T17:27:43.983Z</time></trkpt><trkpt lat="42.3597377" lon="13.3593764"><ele>624.0</ele><time>2026-05-02T17:27:44.983Z</time></trkpt><trkpt lat="42.3596526" lon="13.3596695"><ele>625.5</ele><time>2026-05-02T17:27:45.982Z</time></trkpt><trkpt lat="42.3595661" lon="13.3599702"><ele>627.0</ele><time>2026-05-02T17:27:46.983Z</time></trkpt><trkpt lat="42.3594757" lon="13.3602779"><ele>627.5</ele><time>2026-05-02T17:27:47.983Z</time></trkpt><trkpt lat="42.3593847" lon="13.3605908"><ele>628.0</ele><time>2026-05-02T17:27:48.982Z</time></trkpt><trkpt lat="42.3592992" lon="13.3608817"><ele>628.0</ele><time>2026-05-02T17:27:49.982Z</time></trkpt><trkpt lat="42.3592138" lon="13.3611557"><ele>628.0</ele><time>2026-05-02T17:27:50.983Z</time></trkpt><trkpt lat="42.3591355" lon="13.3614062"><ele>628.0</ele><time>2026-05-02T17:27:51.983Z</time></trkpt><trkpt lat="42.3590749" lon="13.3616168"><ele>630.0</ele><time>2026-05-02T17:27:52.982Z</time></trkpt><trkpt lat="42.3590162" lon="13.3618127"><ele>632.0</ele><time>2026-05-02T17:27:53.983Z</time></trkpt><trkpt lat="42.358962" lon="13.3619995"><ele>634.0</ele><time>2026-05-02T17:27:54.983Z</time></trkpt><trkpt lat="42.3589077" lon="13.3621999"><ele>631.3333333333334</ele><time>2026-05-02T17:27:55.983Z</time></trkpt><trkpt lat="42.3588478" lon="13.3624082"><ele>628.6666666666666</ele><time>2026-05-02T17:27:56.983Z</time></trkpt><trkpt lat="42.3587875" lon="13.3626314"><ele>626.0</ele><time>2026-05-02T17:27:57.983Z</time></trkpt><trkpt lat="42.3587123" lon="13.3628723"><ele>626.6666666666666</ele><time>2026-05-02T17:27:58.983Z</time></trkpt><trkpt lat="42.3586367" lon="13.36313"><ele>627.3333333333334</ele><time>2026-05-02T17:27:59.983Z</time></trkpt><trkpt lat="42.3585575" lon="13.3634084"><ele>628.0</ele><time>2026-05-02T17:28:00.983Z</time></trkpt><trkpt lat="42.3584777" lon="13.3637058"><ele>629.0</ele><time>2026-05-02T17:28:01.983Z</time></trkpt><trkpt lat="42.3583935" lon="13.3640035"><ele>630.0</ele><time>2026-05-02T17:28:02.983Z</time></trkpt><trkpt lat="42.3583203" lon="13.3642812"><ele>630.0</ele><time>2026-05-02T17:28:03.983Z</time></trkpt><trkpt lat="42.3582622" lon="13.3645517"><ele>630.0</ele><time>2026-05-02T17:28:04.983Z</time></trkpt><trkpt lat="42.3582255" lon="13.3648125"><ele>630.0</ele><time>2026-05-02T17:28:05.983Z</time></trkpt><trkpt lat="42.3582067" lon="13.3650652"><ele>629.75</ele><time>2026-05-02T17:28:06.983Z</time></trkpt><trkpt lat="42.3582041" lon="13.3652866"><ele>629.5</ele><time>2026-05-02T17:28:07.983Z</time></trkpt><trkpt lat="42.3582076" lon="13.3654858"><ele>629.25</ele><time>2026-05-02T17:28:08.983Z</time></trkpt><trkpt lat="42.3582234" lon="13.3656588"><ele>629.0</ele><time>2026-05-02T17:28:09.982Z</time></trkpt><trkpt lat="42.3582453" lon="13.3658222"><ele>628.75</ele><time>2026-05-02T17:28:10.983Z</time></trkpt><trkpt lat="42.3582764" lon="13.3659782"><ele>628.5</ele><time>2026-05-02T17:28:11.983Z</time></trkpt><trkpt lat="42.3583176" lon="13.3661272"><ele>628.25</ele><time>2026-05-02T17:28:12.983Z</time></trkpt><trkpt lat="42.3583663" lon="13.3662676"><ele>628.0</ele><time>2026-05-02T17:28:13.983Z</time></trkpt><trkpt lat="42.3584167" lon="13.3664005"><ele>628.0</ele><time>2026-05-02T17:28:14.983Z</time></trkpt><trkpt lat="42.358465" lon="13.3665129"><ele>628.0</ele><time>2026-05-02T17:28:15.983Z</time></trkpt><trkpt lat="42.3585114" lon="13.3666171"><ele>628.0</ele><time>2026-05-02T17:28:16.983Z</time></trkpt><trkpt lat="42.3585589" lon="13.3667167"><ele>628.0</ele><time>2026-05-02T17:28:17.982Z</time></trkpt><trkpt lat="42.3585991" lon="13.366805"><ele>628.0</ele><time>2026-05-02T17:28:18.983Z</time></trkpt><trkpt lat="42.3586386" lon="13.3668791"><ele>628.0</ele><time>2026-05-02T17:28:19.983Z</time></trkpt><trkpt lat="42.3586719" lon="13.3669545"><ele>628.0</ele><time>2026-05-02T17:28:20.983Z</time></trkpt><trkpt lat="42.3587052" lon="13.3670395"><ele>628.0</ele><time>2026-05-02T17:28:21.983Z</time></trkpt><trkpt lat="42.3587381" lon="13.3671397"><ele>628.0</ele><time>2026-05-02T17:28:22.983Z</time></trkpt><trkpt lat="42.3587732" lon="13.3672494"><ele>628.0</ele><time>2026-05-02T17:28:23.983Z</time></trkpt><trkpt lat="42.358809" lon="13.3673445"><ele>628.0</ele><time>2026-05-02T17:28:24.983Z</time></trkpt><trkpt lat="42.3588465" lon="13.3674393"><ele>628.0</ele><time>2026-05-02T17:28:25.983Z</time></trkpt><trkpt lat="42.3588842" lon="13.3675341"><ele>628.1999999999999</ele><time>2026-05-02T17:28:26.983Z</time></trkpt><trkpt lat="42.35892" lon="13.3676252"><ele>628.4</ele><time>2026-05-02T17:28:27.982Z</time></trkpt><trkpt lat="42.3589717" lon="13.3677691"><ele>628.5999999999999</ele><time>2026-05-02T17:28:29.983Z</time></trkpt><trkpt lat="42.3590005" lon="13.3679269"><ele>628.8</ele><time>2026-05-02T17:28:31.983Z</time></trkpt><trkpt lat="42.3590194" lon="13.3680126"><ele>629.0</ele><time>2026-05-02T17:28:32.983Z</time></trkpt><trkpt lat="42.3590479" lon="13.3681031"><ele>629.0</ele><time>2026-05-02T17:28:33.983Z</time></trkpt><trkpt lat="42.3590827" lon="13.3681975"><ele>629.0</ele><time>2026-05-02T17:28:34.983Z</time></trkpt><trkpt lat="42.3591073" lon="13.3682974"><ele>629.0</ele><time>2026-05-02T17:28:35.983Z</time></trkpt><trkpt lat="42.3591277" lon="13.3683969"><ele>629.0</ele><time>2026-05-02T17:28:36.983Z</time></trkpt><trkpt lat="42.3591478" lon="13.3685185"><ele>629.0</ele><time>2026-05-02T17:28:37.983Z</time></trkpt><trkpt lat="42.3591799" lon="13.368689"><ele>629.3333333333333</ele><time>2026-05-02T17:28:38.983Z</time></trkpt><trkpt lat="42.3592146" lon="13.3689017"><ele>629.6666666666666</ele><time>2026-05-02T17:28:39.983Z</time></trkpt><trkpt lat="42.3592514" lon="13.3691356"><ele>630.0</ele><time>2026-05-02T17:28:40.983Z</time></trkpt><trkpt lat="42.3592813" lon="13.3693609"><ele>630.0</ele><time>2026-05-02T17:28:41.983Z</time></trkpt><trkpt lat="42.3593086" lon="13.3695721"><ele>630.0</ele><time>2026-05-02T17:28:42.983Z</time></trkpt><trkpt lat="42.3593365" lon="13.3697766"><ele>630.0</ele><time>2026-05-02T17:28:43.983Z</time></trkpt><trkpt lat="42.3593647" lon="13.3699713"><ele>630.6666666666666</ele><time>2026-05-02T17:28:44.983Z</time></trkpt><trkpt lat="42.3593948" lon="13.3701556"><ele>631.3333333333333</ele><time>2026-05-02T17:28:45.983Z</time></trkpt><trkpt lat="42.3594309" lon="13.3703501"><ele>632.0</ele><time>2026-05-02T17:28:46.983Z</time></trkpt><trkpt lat="42.3594718" lon="13.370564"><ele>633.6666666666666</ele><time>2026-05-02T17:28:47.982Z</time></trkpt><trkpt lat="42.3595074" lon="13.3708093"><ele>635.3333333333334</ele><time>2026-05-02T17:28:48.983Z</time></trkpt><trkpt lat="42.3595393" lon="13.371055"><ele>637.0</ele><time>2026-05-02T17:28:49.983Z</time></trkpt><trkpt lat="42.3595633" lon="13.3712604"><ele>637.25</ele><time>2026-05-02T17:28:50.983Z</time></trkpt><trkpt lat="42.3595901" lon="13.3714264"><ele>637.5</ele><time>2026-05-02T17:28:51.983Z</time></trkpt><trkpt lat="42.3596127" lon="13.3715789"><ele>637.75</ele><time>2026-05-02T17:28:52.983Z</time></trkpt><trkpt lat="42.3596369" lon="13.3717211"><ele>638.0</ele><time>2026-05-02T17:28:53.982Z</time></trkpt><trkpt lat="42.3596625" lon="13.3718636"><ele>638.0</ele><time>2026-05-02T17:28:54.983Z</time></trkpt><trkpt lat="42.359687" lon="13.372014"><ele>638.0</ele><time>2026-05-02T17:28:55.982Z</time></trkpt><trkpt lat="42.3597099" lon="13.3721655"><ele>638.0</ele><time>2026-05-02T17:28:56.983Z</time></trkpt><trkpt lat="42.3597261" lon="13.3722891"><ele>638.0</ele><time>2026-05-02T17:28:57.983Z</time></trkpt><trkpt lat="42.3597394" lon="13.3723938"><ele>638.0</ele><time>2026-05-02T17:28:58.983Z</time></trkpt><trkpt lat="42.359753" lon="13.3724968"><ele>638.5999999999999</ele><time>2026-05-02T17:28:59.983Z</time></trkpt><trkpt lat="42.3597654" lon="13.3725926"><ele>639.1999999999999</ele><time>2026-05-02T17:29:00.983Z</time></trkpt><trkpt lat="42.3597824" lon="13.3727059"><ele>639.8</ele><time>2026-05-02T17:29:01.983Z</time></trkpt><trkpt lat="42.3598016" lon="13.3728319"><ele>640.4</ele><time>2026-05-02T17:29:02.982Z</time></trkpt><trkpt lat="42.3598254" lon="13.3729688"><ele>641.0</ele><time>2026-05-02T17:29:03.983Z</time></trkpt><trkpt lat="42.3598592" lon="13.3731293"><ele>642.0</ele><time>2026-05-02T17:29:04.983Z</time></trkpt><trkpt lat="42.3598963" lon="13.3733295"><ele>643.0</ele><time>2026-05-02T17:29:05.983Z</time></trkpt><trkpt lat="42.3599332" lon="13.3735418"><ele>644.0</ele><time>2026-05-02T17:29:06.983Z</time></trkpt><trkpt lat="42.3599733" lon="13.3737725"><ele>644.3333333333333</ele><time>2026-05-02T17:29:07.983Z</time></trkpt><trkpt lat="42.3600147" lon="13.3740231"><ele>644.6666666666666</ele><time>2026-05-02T17:29:08.983Z</time></trkpt><trkpt lat="42.3600513" lon="13.3743008"><ele>645.0</ele><time>2026-05-02T17:29:09.983Z</time></trkpt><trkpt lat="42.3600811" lon="13.3745474"><ele>645.3333333333334</ele><time>2026-05-02T17:29:10.983Z</time></trkpt><trkpt lat="42.3601105" lon="13.3747656"><ele>645.6666666666667</ele><time>2026-05-02T17:29:11.983Z</time></trkpt><trkpt lat="42.3601378" lon="13.3749643"><ele>646.0</ele><time>2026-05-02T17:29:12.983Z</time></trkpt><trkpt lat="42.3601622" lon="13.3751645"><ele>646.0</ele><time>2026-05-02T17:29:13.983Z</time></trkpt><trkpt lat="42.3601884" lon="13.3753675"><ele>646.0</ele><time>2026-05-02T17:29:14.983Z</time></trkpt><trkpt lat="42.3602163" lon="13.3755639"><ele>646.0</ele><time>2026-05-02T17:29:15.983Z</time></trkpt><trkpt lat="42.3602439" lon="13.3757438"><ele>646.0</ele><time>2026-05-02T17:29:16.983Z</time></trkpt><trkpt lat="42.3602688" lon="13.3759149"><ele>646.5</ele><time>2026-05-02T17:29:17.983Z</time></trkpt><trkpt lat="42.360291" lon="13.3760776"><ele>647.0</ele><time>2026-05-02T17:29:18.983Z</time></trkpt><trkpt lat="42.3603135" lon="13.3762276"><ele>647.5</ele><time>2026-05-02T17:29:19.983Z</time></trkpt><trkpt lat="42.3603346" lon="13.3763767"><ele>648.0</ele><time>2026-05-02T17:29:20.983Z</time></trkpt><trkpt lat="42.3603535" lon="13.3765361"><ele>648.4</ele><time>2026-05-02T17:29:21.983Z</time></trkpt><trkpt lat="42.3603708" lon="13.3767017"><ele>648.8</ele><time>2026-05-02T17:29:22.983Z</time></trkpt><trkpt lat="42.3603872" lon="13.3768594"><ele>649.2</ele><time>2026-05-02T17:29:23.983Z</time></trkpt><trkpt lat="42.3603996" lon="13.3770057"><ele>649.6</ele><time>2026-05-02T17:29:24.983Z</time></trkpt><trkpt lat="42.3604077" lon="13.377091"><ele>650.0</ele><time>2026-05-02T17:29:25.983Z</time></trkpt><trkpt lat="42.3604129" lon="13.3772222"><ele>650.0</ele><time>2026-05-02T17:29:27.983Z</time></trkpt><trkpt lat="42.3604234" lon="13.3774029"><ele>650.0</ele><time>2026-05-02T17:29:29.983Z</time></trkpt><trkpt lat="42.3604252" lon="13.3775191"><ele>650.0</ele><time>2026-05-02T17:29:30.983Z</time></trkpt><trkpt lat="42.3604209" lon="13.377652"><ele>650.0</ele><time>2026-05-02T17:29:31.983Z</time></trkpt><trkpt lat="42.3604159" lon="13.377795"><ele>650.0</ele><time>2026-05-02T17:29:32.983Z</time></trkpt><trkpt lat="42.3604046" lon="13.3779422"><ele>650.25</ele><time>2026-05-02T17:29:33.983Z</time></trkpt><trkpt lat="42.3603906" lon="13.378094"><ele>650.5</ele><time>2026-05-02T17:29:34.983Z</time></trkpt><trkpt lat="42.3603715" lon="13.3782523"><ele>650.75</ele><time>2026-05-02T17:29:35.983Z</time></trkpt><trkpt lat="42.3603483" lon="13.378417"><ele>651.0</ele><time>2026-05-02T17:29:36.983Z</time></trkpt><trkpt lat="42.3603228" lon="13.3785859"><ele>651.0</ele><time>2026-05-02T17:29:37.983Z</time></trkpt><trkpt lat="42.360294" lon="13.3787469"><ele>651.0</ele><time>2026-05-02T17:29:38.983Z</time></trkpt><trkpt lat="42.3602612" lon="13.3788948"><ele>651.0</ele><time>2026-05-02T17:29:39.983Z</time></trkpt><trkpt lat="42.3602228" lon="13.3790305"><ele>651.0</ele><time>2026-05-02T17:29:40.983Z</time></trkpt><trkpt lat="42.3601862" lon="13.3791519"><ele>651.0</ele><time>2026-05-02T17:29:41.983Z</time></trkpt><trkpt lat="42.3601472" lon="13.3792601"><ele>651.0</ele><time>2026-05-02T17:29:42.983Z</time></trkpt><trkpt lat="42.3601064" lon="13.3793584"><ele>651.0</ele><time>2026-05-02T17:29:43.983Z</time></trkpt><trkpt lat="42.3600632" lon="13.3794504"><ele>651.0</ele><time>2026-05-02T17:29:44.982Z</time></trkpt><trkpt lat="42.3600176" lon="13.3795305"><ele>651.0</ele><time>2026-05-02T17:29:45.983Z</time></trkpt><trkpt lat="42.3599722" lon="13.3795998"><ele>651.0</ele><time>2026-05-02T17:29:46.983Z</time></trkpt><trkpt lat="42.3599081" lon="13.3797323"><ele>651.0</ele><time>2026-05-02T17:29:48.983Z</time></trkpt><trkpt lat="42.3598987" lon="13.379905"><ele>651.0</ele><time>2026-05-02T17:29:50.983Z</time></trkpt><trkpt lat="42.3598951" lon="13.3800037"><ele>651.0</ele><time>2026-05-02T17:29:51.983Z</time></trkpt><trkpt lat="42.3598789" lon="13.3801072"><ele>651.0</ele><time>2026-05-02T17:29:52.983Z</time></trkpt><trkpt lat="42.3598472" lon="13.3802117"><ele>651.0</ele><time>2026-05-02T17:29:53.982Z</time></trkpt><trkpt lat="42.3598057" lon="13.3803225"><ele>651.0</ele><time>2026-05-02T17:29:54.983Z</time></trkpt><trkpt lat="42.3597574" lon="13.3804363"><ele>651.0</ele><time>2026-05-02T17:29:55.983Z</time></trkpt><trkpt lat="42.359702" lon="13.380552"><ele>650.8</ele><time>2026-05-02T17:29:56.983Z</time></trkpt><trkpt lat="42.3596446" lon="13.3806707"><ele>650.5999999999999</ele><time>2026-05-02T17:29:57.983Z</time></trkpt><trkpt lat="42.359593" lon="13.3807865"><ele>650.4</ele><time>2026-05-02T17:29:58.982Z</time></trkpt><trkpt lat="42.3595418" lon="13.3809021"><ele>650.2</ele><time>2026-05-02T17:29:59.982Z</time></trkpt><trkpt lat="42.3594916" lon="13.3810134"><ele>650.0</ele><time>2026-05-02T17:30:00.983Z</time></trkpt><trkpt lat="42.3594425" lon="13.3811241"><ele>650.0</ele><time>2026-05-02T17:30:01.983Z</time></trkpt><trkpt lat="42.3593923" lon="13.3812402"><ele>650.0</ele><time>2026-05-02T17:30:02.983Z</time></trkpt><trkpt lat="42.3593396" lon="13.3813642"><ele>650.0</ele><time>2026-05-02T17:30:03.982Z</time></trkpt><trkpt lat="42.3592821" lon="13.3814932"><ele>650.0</ele><time>2026-05-02T17:30:04.983Z</time></trkpt><trkpt lat="42.3592194" lon="13.3816329"><ele>650.0</ele><time>2026-05-02T17:30:05.983Z</time></trkpt><trkpt lat="42.3591517" lon="13.3817841"><ele>649.6666666666666</ele><time>2026-05-02T17:30:06.982Z</time></trkpt><trkpt lat="42.3590766" lon="13.3819449"><ele>649.3333333333334</ele><time>2026-05-02T17:30:07.983Z</time></trkpt><trkpt lat="42.3589915" lon="13.3821211"><ele>649.0</ele><time>2026-05-02T17:30:08.983Z</time></trkpt><trkpt lat="42.358902" lon="13.3823033"><ele>649.6666666666667</ele><time>2026-05-02T17:30:09.983Z</time></trkpt><trkpt lat="42.3588158" lon="13.3824814"><ele>650.3333333333334</ele><time>2026-05-02T17:30:10.983Z</time></trkpt><trkpt lat="42.3587251" lon="13.3826715"><ele>651.0</ele><time>2026-05-02T17:30:11.983Z</time></trkpt><trkpt lat="42.3586408" lon="13.3828489"><ele>650.5</ele><time>2026-05-02T17:30:12.982Z</time></trkpt><trkpt lat="42.3585636" lon="13.3830155"><ele>650.0</ele><time>2026-05-02T17:30:13.983Z</time></trkpt><trkpt lat="42.3584982" lon="13.3831698"><ele>649.5</ele><time>2026-05-02T17:30:14.982Z</time></trkpt><trkpt lat="42.3584347" lon="13.3833187"><ele>649.0</ele><time>2026-05-02T17:30:15.982Z</time></trkpt><trkpt lat="42.3583639" lon="13.3834774"><ele>649.0</ele><time>2026-05-02T17:30:16.983Z</time></trkpt><trkpt lat="42.3582957" lon="13.383627"><ele>649.0</ele><time>2026-05-02T17:30:17.982Z</time></trkpt><trkpt lat="42.3582266" lon="13.383779"><ele>649.0</ele><time>2026-05-02T17:30:18.982Z</time></trkpt><trkpt lat="42.3581552" lon="13.3839427"><ele>649.0</ele><time>2026-05-02T17:30:19.983Z</time></trkpt><trkpt lat="42.358084" lon="13.3841137"><ele>649.0</ele><time>2026-05-02T17:30:20.983Z</time></trkpt><trkpt lat="42.3580173" lon="13.3842827"><ele>649.0</ele><time>2026-05-02T17:30:21.982Z</time></trkpt><trkpt lat="42.3579479" lon="13.3844671"><ele>649.0</ele><time>2026-05-02T17:30:22.983Z</time></trkpt><trkpt lat="42.3578903" lon="13.3846349"><ele>649.0</ele><time>2026-05-02T17:30:23.982Z</time></trkpt><trkpt lat="42.3578488" lon="13.3847791"><ele>649.0</ele><time>2026-05-02T17:30:24.983Z</time></trkpt><trkpt lat="42.3578059" lon="13.384917"><ele>649.0</ele><time>2026-05-02T17:30:25.983Z</time></trkpt><trkpt lat="42.3577556" lon="13.3850422"><ele>649.0</ele><time>2026-05-02T17:30:26.983Z</time></trkpt><trkpt lat="42.357697" lon="13.385159"><ele>649.0</ele><time>2026-05-02T17:30:27.983Z</time></trkpt><trkpt lat="42.3576263" lon="13.3852726"><ele>649.0</ele><time>2026-05-02T17:30:28.983Z</time></trkpt><trkpt lat="42.3575545" lon="13.3853838"><ele>649.0</ele><time>2026-05-02T17:30:29.983Z</time></trkpt><trkpt lat="42.3574797" lon="13.3855045"><ele>649.0</ele><time>2026-05-02T17:30:30.983Z</time></trkpt><trkpt lat="42.3574058" lon="13.3856251"><ele>649.0</ele><time>2026-05-02T17:30:31.983Z</time></trkpt><trkpt lat="42.3573218" lon="13.3857541"><ele>649.0</ele><time>2026-05-02T17:30:32.983Z</time></trkpt><trkpt lat="42.3572211" lon="13.3858964"><ele>648.75</ele><time>2026-05-02T17:30:33.983Z</time></trkpt><trkpt lat="42.3571088" lon="13.3860409"><ele>648.5</ele><time>2026-05-02T17:30:34.983Z</time></trkpt><trkpt lat="42.3570076" lon="13.3861763"><ele>648.25</ele><time>2026-05-02T17:30:35.983Z</time></trkpt><trkpt lat="42.3569148" lon="13.3863204"><ele>648.0</ele><time>2026-05-02T17:30:36.983Z</time></trkpt><trkpt lat="42.3568218" lon="13.3864709"><ele>648.0</ele><time>2026-05-02T17:30:37.983Z</time></trkpt><trkpt lat="42.3567252" lon="13.3866271"><ele>648.0</ele><time>2026-05-02T17:30:38.983Z</time></trkpt><trkpt lat="42.356627" lon="13.3867864"><ele>648.0</ele><time>2026-05-02T17:30:39.983Z</time></trkpt><trkpt lat="42.3565347" lon="13.386952"><ele>648.0</ele><time>2026-05-02T17:30:40.983Z</time></trkpt><trkpt lat="42.3564417" lon="13.3871217"><ele>648.0</ele><time>2026-05-02T17:30:41.983Z</time></trkpt><trkpt lat="42.3563466" lon="13.3872916"><ele>648.0</ele><time>2026-05-02T17:30:42.982Z</time></trkpt><trkpt lat="42.3562532" lon="13.3874629"><ele>647.5</ele><time>2026-05-02T17:30:43.983Z</time></trkpt><trkpt lat="42.3561618" lon="13.3876325"><ele>647.0</ele><time>2026-05-02T17:30:44.983Z</time></trkpt><trkpt lat="42.356073" lon="13.3877888"><ele>646.5</ele><time>2026-05-02T17:30:45.982Z</time></trkpt><trkpt lat="42.3559911" lon="13.3879293"><ele>646.0</ele><time>2026-05-02T17:30:46.983Z</time></trkpt><trkpt lat="42.3559107" lon="13.38805"><ele>646.8333333333334</ele><time>2026-05-02T17:30:47.983Z</time></trkpt><trkpt lat="42.3558328" lon="13.3881344"><ele>647.6666666666667</ele><time>2026-05-02T17:30:48.983Z</time></trkpt><trkpt lat="42.3557496" lon="13.3881907"><ele>648.5</ele><time>2026-05-02T17:30:49.983Z</time></trkpt><trkpt lat="42.3556631" lon="13.3882263"><ele>649.3333333333334</ele><time>2026-05-02T17:30:50.983Z</time></trkpt><trkpt lat="42.35559" lon="13.3882655"><ele>650.1666666666666</ele><time>2026-05-02T17:30:51.983Z</time></trkpt><trkpt lat="42.3555349" lon="13.3883193"><ele>651.0</ele><time>2026-05-02T17:30:52.982Z</time></trkpt><trkpt lat="42.3555011" lon="13.3884772"><ele>651.0</ele><time>2026-05-02T17:30:54.983Z</time></trkpt><trkpt lat="42.3555219" lon="13.3885643"><ele>651.0</ele><time>2026-05-02T17:30:55.983Z</time></trkpt><trkpt lat="42.3555744" lon="13.3886506"><ele>651.0</ele><time>2026-05-02T17:30:56.983Z</time></trkpt><trkpt lat="42.3556473" lon="13.3887279"><ele>651.0</ele><time>2026-05-02T17:30:57.983Z</time></trkpt><trkpt lat="42.3557256" lon="13.3888123"><ele>651.0</ele><time>2026-05-02T17:30:58.983Z</time></trkpt><trkpt lat="42.3558014" lon="13.3889069"><ele>651.0</ele><time>2026-05-02T17:30:59.983Z</time></trkpt><trkpt lat="42.3558825" lon="13.3890417"><ele>652.5</ele><time>2026-05-02T17:31:00.983Z</time></trkpt><trkpt lat="42.3559691" lon="13.3891739"><ele>654.0</ele><time>2026-05-02T17:31:01.983Z</time></trkpt><trkpt lat="42.3560416" lon="13.3893077"><ele>655.5</ele><time>2026-05-02T17:31:02.982Z</time></trkpt><trkpt lat="42.3561153" lon="13.3894407"><ele>657.0</ele><time>2026-05-02T17:31:03.982Z</time></trkpt><trkpt lat="42.3562015" lon="13.3895963"><ele>657.75</ele><time>2026-05-02T17:31:04.983Z</time></trkpt><trkpt lat="42.3562886" lon="13.3897667"><ele>658.5</ele><time>2026-05-02T17:31:05.983Z</time></trkpt><trkpt lat="42.3563653" lon="13.3899093"><ele>659.25</ele><time>2026-05-02T17:31:06.983Z</time></trkpt><trkpt lat="42.3564357" lon="13.3900346"><ele>660.0</ele><time>2026-05-02T17:31:07.983Z</time></trkpt><trkpt lat="42.356518" lon="13.3901416"><ele>658.8</ele><time>2026-05-02T17:31:08.983Z</time></trkpt><trkpt lat="42.3565963" lon="13.3902344"><ele>657.6</ele><time>2026-05-02T17:31:09.983Z</time></trkpt><trkpt lat="42.3566572" lon="13.3903139"><ele>656.4000000000001</ele><time>2026-05-02T17:31:10.983Z</time></trkpt><trkpt lat="42.3567031" lon="13.3903877"><ele>655.2</ele><time>2026-05-02T17:31:11.983Z</time></trkpt><trkpt lat="42.356742" lon="13.3904594"><ele>654.0</ele><time>2026-05-02T17:31:12.983Z</time></trkpt><trkpt lat="42.3567962" lon="13.3906185"><ele>654.0</ele><time>2026-05-02T17:31:14.982Z</time></trkpt><trkpt lat="42.3568076" lon="13.3907154"><ele>654.0</ele><time>2026-05-02T17:31:15.983Z</time></trkpt><trkpt lat="42.3568012" lon="13.3908247"><ele>654.0</ele><time>2026-05-02T17:31:16.983Z</time></trkpt><trkpt lat="42.3567827" lon="13.3909452"><ele>654.0</ele><time>2026-05-02T17:31:17.983Z</time></trkpt><trkpt lat="42.356752" lon="13.3910763"><ele>654.0</ele><time>2026-05-02T17:31:18.983Z</time></trkpt><trkpt lat="42.3567231" lon="13.3912183"><ele>654.8333333333334</ele><time>2026-05-02T17:31:19.983Z</time></trkpt><trkpt lat="42.3567108" lon="13.3913594"><ele>655.6666666666666</ele><time>2026-05-02T17:31:20.983Z</time></trkpt><trkpt lat="42.3566937" lon="13.3914769"><ele>656.5</ele><time>2026-05-02T17:31:21.983Z</time></trkpt><trkpt lat="42.3566869" lon="13.3915825"><ele>657.3333333333333</ele><time>2026-05-02T17:31:22.983Z</time></trkpt><trkpt lat="42.3566832" lon="13.3916772"><ele>658.1666666666666</ele><time>2026-05-02T17:31:23.983Z</time></trkpt><trkpt lat="42.3566823" lon="13.3917727"><ele>659.0</ele><time>2026-05-02T17:31:24.983Z</time></trkpt><trkpt lat="42.3566867" lon="13.3919206"><ele>659.0</ele><time>2026-05-02T17:31:25.983Z</time></trkpt><trkpt lat="42.3566913" lon="13.3921286"><ele>659.0</ele><time>2026-05-02T17:31:26.983Z</time></trkpt><trkpt lat="42.356685" lon="13.3923834"><ele>659.0</ele><time>2026-05-02T17:31:27.983Z</time></trkpt><trkpt lat="42.3566699" lon="13.392666"><ele>661.0</ele><time>2026-05-02T17:31:28.983Z</time></trkpt><trkpt lat="42.3566577" lon="13.3929471"><ele>663.0</ele><time>2026-05-02T17:31:29.983Z</time></trkpt><trkpt lat="42.3566507" lon="13.3932093"><ele>665.0</ele><time>2026-05-02T17:31:30.983Z</time></trkpt><trkpt lat="42.3566421" lon="13.393446"><ele>666.3333333333333</ele><time>2026-05-02T17:31:31.983Z</time></trkpt><trkpt lat="42.3566379" lon="13.3936744"><ele>667.6666666666666</ele><time>2026-05-02T17:31:32.982Z</time></trkpt><trkpt lat="42.3566332" lon="13.3939137"><ele>669.0</ele><time>2026-05-02T17:31:33.983Z</time></trkpt><trkpt lat="42.356629" lon="13.3941428"><ele>671.0</ele><time>2026-05-02T17:31:34.983Z</time></trkpt><trkpt lat="42.3566215" lon="13.3943639"><ele>673.0</ele><time>2026-05-02T17:31:35.983Z</time></trkpt><trkpt lat="42.3566091" lon="13.3945609"><ele>675.0</ele><time>2026-05-02T17:31:36.983Z</time></trkpt><trkpt lat="42.3566069" lon="13.3947538"><ele>675.3333333333334</ele><time>2026-05-02T17:31:37.983Z</time></trkpt><trkpt lat="42.3566016" lon="13.3949633"><ele>675.6666666666667</ele><time>2026-05-02T17:31:38.983Z</time></trkpt><trkpt lat="42.3565967" lon="13.3951784"><ele>676.0</ele><time>2026-05-02T17:31:39.983Z</time></trkpt><trkpt lat="42.3566011" lon="13.3953968"><ele>675.5</ele><time>2026-05-02T17:31:40.983Z</time></trkpt><trkpt lat="42.3565959" lon="13.395604"><ele>675.0</ele><time>2026-05-02T17:31:41.983Z</time></trkpt><trkpt lat="42.3565893" lon="13.3957988"><ele>674.5</ele><time>2026-05-02T17:31:42.983Z</time></trkpt><trkpt lat="42.3565825" lon="13.3959856"><ele>674.0</ele><time>2026-05-02T17:31:43.983Z</time></trkpt><trkpt lat="42.3565775" lon="13.39618"><ele>675.6666666666666</ele><time>2026-05-02T17:31:44.983Z</time></trkpt><trkpt lat="42.3565652" lon="13.3964031"><ele>677.3333333333334</ele><time>2026-05-02T17:31:45.983Z</time></trkpt><trkpt lat="42.3565515" lon="13.3966238"><ele>679.0</ele><time>2026-05-02T17:31:46.983Z</time></trkpt><trkpt lat="42.356532" lon="13.3968481"><ele>679.0</ele><time>2026-05-02T17:31:47.983Z</time></trkpt><trkpt lat="42.3565136" lon="13.3970551"><ele>679.0</ele><time>2026-05-02T17:31:48.983Z</time></trkpt><trkpt lat="42.3565057" lon="13.397251"><ele>679.0</ele><time>2026-05-02T17:31:49.983Z</time></trkpt><trkpt lat="42.3565114" lon="13.3974406"><ele>679.0</ele><time>2026-05-02T17:31:50.983Z</time></trkpt><trkpt lat="42.3565363" lon="13.3976247"><ele>681.25</ele><time>2026-05-02T17:31:51.983Z</time></trkpt><trkpt lat="42.356587" lon="13.397811"><ele>683.5</ele><time>2026-05-02T17:31:52.983Z</time></trkpt><trkpt lat="42.3566513" lon="13.3979921"><ele>685.75</ele><time>2026-05-02T17:31:53.983Z</time></trkpt><trkpt lat="42.3567192" lon="13.3981567"><ele>688.0</ele><time>2026-05-02T17:31:54.983Z</time></trkpt><trkpt lat="42.3567855" lon="13.398306"><ele>688.2</ele><time>2026-05-02T17:31:55.983Z</time></trkpt><trkpt lat="42.3568431" lon="13.3984362"><ele>688.4</ele><time>2026-05-02T17:31:56.983Z</time></trkpt><trkpt lat="42.3568947" lon="13.3985622"><ele>688.6</ele><time>2026-05-02T17:31:57.983Z</time></trkpt><trkpt lat="42.3569442" lon="13.3986973"><ele>688.8000000000001</ele><time>2026-05-02T17:31:58.983Z</time></trkpt><trkpt lat="42.3569883" lon="13.3988393"><ele>689.0</ele><time>2026-05-02T17:31:59.983Z</time></trkpt><trkpt lat="42.3570186" lon="13.3989975"><ele>690.25</ele><time>2026-05-02T17:32:00.982Z</time></trkpt><trkpt lat="42.3570389" lon="13.3991657"><ele>691.5</ele><time>2026-05-02T17:32:01.983Z</time></trkpt><trkpt lat="42.3570502" lon="13.3993479"><ele>692.75</ele><time>2026-05-02T17:32:02.982Z</time></trkpt><trkpt lat="42.3570525" lon="13.3995215"><ele>694.0</ele><time>2026-05-02T17:32:03.983Z</time></trkpt><trkpt lat="42.3570498" lon="13.3996568"><ele>695.2</ele><time>2026-05-02T17:32:04.982Z</time></trkpt><trkpt lat="42.3570493" lon="13.3997908"><ele>696.4000000000001</ele><time>2026-05-02T17:32:05.983Z</time></trkpt><trkpt lat="42.3570491" lon="13.399934"><ele>697.6</ele><time>2026-05-02T17:32:06.983Z</time></trkpt><trkpt lat="42.3570466" lon="13.4000805"><ele>698.8</ele><time>2026-05-02T17:32:07.983Z</time></trkpt><trkpt lat="42.3570445" lon="13.4002233"><ele>700.0</ele><time>2026-05-02T17:32:08.983Z</time></trkpt><trkpt lat="42.3570466" lon="13.400357"><ele>700.0</ele><time>2026-05-02T17:32:09.983Z</time></trkpt><trkpt lat="42.357051" lon="13.4004892"><ele>700.0</ele><time>2026-05-02T17:32:10.983Z</time></trkpt><trkpt lat="42.3570536" lon="13.4006248"><ele>700.0</ele><time>2026-05-02T17:32:11.983Z</time></trkpt><trkpt lat="42.3570504" lon="13.4007771"><ele>700.0</ele><time>2026-05-02T17:32:12.983Z</time></trkpt><trkpt lat="42.3570525" lon="13.4009384"><ele>700.0</ele><time>2026-05-02T17:32:13.983Z</time></trkpt><trkpt lat="42.357053" lon="13.4010928"><ele>700.5</ele><time>2026-05-02T17:32:14.983Z</time></trkpt><trkpt lat="42.3570554" lon="13.4012364"><ele>701.0</ele><time>2026-05-02T17:32:15.983Z</time></trkpt><trkpt lat="42.3570571" lon="13.4013578"><ele>701.5</ele><time>2026-05-02T17:32:16.983Z</time></trkpt><trkpt lat="42.3570585" lon="13.4014636"><ele>702.0</ele><time>2026-05-02T17:32:17.983Z</time></trkpt><trkpt lat="42.357061" lon="13.4015683"><ele>702.5</ele><time>2026-05-02T17:32:18.983Z</time></trkpt><trkpt lat="42.3570638" lon="13.4016841"><ele>703.0</ele><time>2026-05-02T17:32:19.983Z</time></trkpt><trkpt lat="42.3570648" lon="13.4018132"><ele>703.0</ele><time>2026-05-02T17:32:20.983Z</time></trkpt><trkpt lat="42.3570691" lon="13.4019585"><ele>703.0</ele><time>2026-05-02T17:32:21.983Z</time></trkpt><trkpt lat="42.3570712" lon="13.4021123"><ele>703.0</ele><time>2026-05-02T17:32:22.983Z</time></trkpt><trkpt lat="42.3570751" lon="13.4022716"><ele>703.0</ele><time>2026-05-02T17:32:23.983Z</time></trkpt><trkpt lat="42.3570778" lon="13.4024329"><ele>701.75</ele><time>2026-05-02T17:32:24.983Z</time></trkpt><trkpt lat="42.3570831" lon="13.4025938"><ele>700.5</ele><time>2026-05-02T17:32:25.982Z</time></trkpt><trkpt lat="42.3571106" lon="13.4027642"><ele>699.25</ele><time>2026-05-02T17:32:26.983Z</time></trkpt><trkpt lat="42.3571443" lon="13.4029312"><ele>698.0</ele><time>2026-05-02T17:32:27.983Z</time></trkpt><trkpt lat="42.3571968" lon="13.4031031"><ele>699.25</ele><time>2026-05-02T17:32:28.983Z</time></trkpt><trkpt lat="42.3572545" lon="13.4032618"><ele>700.5</ele><time>2026-05-02T17:32:29.982Z</time></trkpt><trkpt lat="42.3573108" lon="13.4034101"><ele>701.75</ele><time>2026-05-02T17:32:30.982Z</time></trkpt><trkpt lat="42.3573618" lon="13.4035484"><ele>703.0</ele><time>2026-05-02T17:32:31.983Z</time></trkpt><trkpt lat="42.3574142" lon="13.4036914"><ele>702.75</ele><time>2026-05-02T17:32:32.983Z</time></trkpt><trkpt lat="42.3574684" lon="13.4038344"><ele>702.5</ele><time>2026-05-02T17:32:33.983Z</time></trkpt><trkpt lat="42.3575213" lon="13.4039801"><ele>702.25</ele><time>2026-05-02T17:32:34.983Z</time></trkpt><trkpt lat="42.3575737" lon="13.404125"><ele>702.0</ele><time>2026-05-02T17:32:35.982Z</time></trkpt><trkpt lat="42.3576199" lon="13.4042603"><ele>702.0</ele><time>2026-05-02T17:32:36.983Z</time></trkpt><trkpt lat="42.3576485" lon="13.4043875"><ele>702.0</ele><time>2026-05-02T17:32:37.983Z</time></trkpt><trkpt lat="42.3576558" lon="13.4045135"><ele>702.0</ele><time>2026-05-02T17:32:38.983Z</time></trkpt><trkpt lat="42.3576392" lon="13.4046355"><ele>702.0</ele><time>2026-05-02T17:32:39.983Z</time></trkpt><trkpt lat="42.3575865" lon="13.4047539"><ele>702.0</ele><time>2026-05-02T17:32:40.983Z</time></trkpt><trkpt lat="42.3574989" lon="13.404837"><ele>703.2</ele><time>2026-05-02T17:32:41.982Z</time></trkpt><trkpt lat="42.357404" lon="13.4048999"><ele>704.4000000000001</ele><time>2026-05-02T17:32:42.983Z</time></trkpt><trkpt lat="42.3572994" lon="13.4049338"><ele>705.5999999999999</ele><time>2026-05-02T17:32:43.982Z</time></trkpt><trkpt lat="42.3571879" lon="13.404949"><ele>706.8</ele><time>2026-05-02T17:32:44.983Z</time></trkpt><trkpt lat="42.3570782" lon="13.4049631"><ele>708.0</ele><time>2026-05-02T17:32:45.983Z</time></trkpt><trkpt lat="42.3569718" lon="13.4049735"><ele>708.0</ele><time>2026-05-02T17:32:46.983Z</time></trkpt><trkpt lat="42.3568785" lon="13.4049907"><ele>708.0</ele><time>2026-05-02T17:32:47.983Z</time></trkpt><trkpt lat="42.3567945" lon="13.405022"><ele>708.0</ele><time>2026-05-02T17:32:48.983Z</time></trkpt><trkpt lat="42.3567118" lon="13.4050693"><ele>708.0</ele><time>2026-05-02T17:32:49.983Z</time></trkpt><trkpt lat="42.3566318" lon="13.4051277"><ele>708.0</ele><time>2026-05-02T17:32:50.982Z</time></trkpt><trkpt lat="42.356557" lon="13.4051891"><ele>708.0</ele><time>2026-05-02T17:32:51.982Z</time></trkpt><trkpt lat="42.3564903" lon="13.40525"><ele>708.0</ele><time>2026-05-02T17:32:52.983Z</time></trkpt><trkpt lat="42.3564022" lon="13.4053441"><ele>708.0</ele><time>2026-05-02T17:32:54.983Z</time></trkpt><trkpt lat="42.3563327" lon="13.405411"><ele>708.0</ele><time>2026-05-02T17:32:56.982Z</time></trkpt><trkpt lat="42.3562413" lon="13.4054762"><ele>708.0</ele><time>2026-05-02T17:32:58.983Z</time></trkpt><trkpt lat="42.3561386" lon="13.4055401"><ele>708.0</ele><time>2026-05-02T17:33:00.983Z</time></trkpt><trkpt lat="42.3560588" lon="13.405595"><ele>708.6666666666666</ele><time>2026-05-02T17:33:02.983Z</time></trkpt><trkpt lat="42.3559592" lon="13.4056377"><ele>709.3333333333334</ele><time>2026-05-02T17:33:05.983Z</time></trkpt><trkpt lat="42.3558695" lon="13.405682"><ele>710.0</ele><time>2026-05-02T17:33:07.982Z</time></trkpt><trkpt lat="42.3557867" lon="13.4057774"><ele>710.6666666666667</ele><time>2026-05-02T17:33:09.983Z</time></trkpt><trkpt lat="42.3557447" lon="13.405845"><ele>711.3333333333334</ele><time>2026-05-02T17:33:10.983Z</time></trkpt><trkpt lat="42.3557045" lon="13.4059119"><ele>712.0</ele><time>2026-05-02T17:33:11.983Z</time></trkpt><trkpt lat="42.3556589" lon="13.4059759"><ele>712.0</ele><time>2026-05-02T17:33:14.983Z</time></trkpt><trkpt lat="42.3557179" lon="13.4060181"><ele>712.0</ele><time>2026-05-02T17:33:34.982Z</time></trkpt><trkpt lat="42.3558013" lon="13.406035"><ele>712.0</ele><time>2026-05-02T17:33:50.983Z</time></trkpt><trkpt lat="42.3558869" lon="13.4060562"><ele>712.0</ele><time>2026-05-02T17:33:52.983Z</time></trkpt><trkpt lat="42.3559596" lon="13.4060228"><ele>712.0</ele><time>2026-05-02T17:33:54.983Z</time></trkpt><trkpt lat="42.3560049" lon="13.4059134"><ele>712.0</ele><time>2026-05-02T17:33:56.983Z</time></trkpt><trkpt lat="42.3559602" lon="13.4057426"><ele>712.0</ele><time>2026-05-02T17:33:58.983Z</time></trkpt><trkpt lat="42.3558789" lon="13.4056105"><ele>712.0</ele><time>2026-05-02T17:33:59.983Z</time></trkpt><trkpt lat="42.3558193" lon="13.4055"><ele>712.0</ele><time>2026-05-02T17:34:00.983Z</time></trkpt><trkpt lat="42.3557661" lon="13.4053705"><ele>712.0</ele><time>2026-05-02T17:34:01.983Z</time></trkpt><trkpt lat="42.3557239" lon="13.4052285"><ele>711.8</ele><time>2026-05-02T17:34:02.983Z</time></trkpt><trkpt lat="42.3556829" lon="13.4050805"><ele>711.6</ele><time>2026-05-02T17:34:03.983Z</time></trkpt><trkpt lat="42.355651" lon="13.4049375"><ele>711.4</ele><time>2026-05-02T17:34:04.983Z</time></trkpt><trkpt lat="42.3556195" lon="13.4047971"><ele>711.1999999999999</ele><time>2026-05-02T17:34:05.983Z</time></trkpt><trkpt lat="42.3555873" lon="13.404655"><ele>711.0</ele><time>2026-05-02T17:34:06.982Z</time></trkpt><trkpt lat="42.3555536" lon="13.4045088"><ele>715.75</ele><time>2026-05-02T17:34:07.983Z</time></trkpt><trkpt lat="42.355523" lon="13.4043568"><ele>720.5</ele><time>2026-05-02T17:34:08.983Z</time></trkpt><trkpt lat="42.3554921" lon="13.4042011"><ele>725.25</ele><time>2026-05-02T17:34:09.983Z</time></trkpt><trkpt lat="42.3554581" lon="13.4040455"><ele>730.0</ele><time>2026-05-02T17:34:10.983Z</time></trkpt><trkpt lat="42.3554233" lon="13.403888"><ele>728.6</ele><time>2026-05-02T17:34:11.983Z</time></trkpt><trkpt lat="42.3553872" lon="13.4037396"><ele>727.2</ele><time>2026-05-02T17:34:12.983Z</time></trkpt><trkpt lat="42.3553525" lon="13.4035931"><ele>725.8</ele><time>2026-05-02T17:34:13.983Z</time></trkpt><trkpt lat="42.3553204" lon="13.4034687"><ele>724.4</ele><time>2026-05-02T17:34:14.983Z</time></trkpt><trkpt lat="42.3552836" lon="13.4033555"><ele>723.0</ele><time>2026-05-02T17:34:15.983Z</time></trkpt><trkpt lat="42.3552522" lon="13.4032659"><ele>723.0</ele><time>2026-05-02T17:34:16.983Z</time></trkpt><trkpt lat="42.3552129" lon="13.4031507"><ele>723.0</ele><time>2026-05-02T17:34:18.983Z</time></trkpt><trkpt lat="42.3551382" lon="13.4030671"><ele>723.0</ele><time>2026-05-02T17:34:36.983Z</time></trkpt><trkpt lat="42.3550977" lon="13.402997"><ele>723.0</ele><time>2026-05-02T17:34:37.983Z</time></trkpt><trkpt lat="42.3550422" lon="13.4029123"><ele>723.0</ele><time>2026-05-02T17:34:38.983Z</time></trkpt><trkpt lat="42.3549698" lon="13.4028207"><ele>723.0</ele><time>2026-05-02T17:34:39.983Z</time></trkpt><trkpt lat="42.3548908" lon="13.4027246"><ele>721.25</ele><time>2026-05-02T17:34:40.982Z</time></trkpt><trkpt lat="42.3548089" lon="13.4026249"><ele>719.5</ele><time>2026-05-02T17:34:41.983Z</time></trkpt><trkpt lat="42.3547204" lon="13.4025224"><ele>717.75</ele><time>2026-05-02T17:34:42.983Z</time></trkpt><trkpt lat="42.3546232" lon="13.4024174"><ele>716.0</ele><time>2026-05-02T17:34:43.983Z</time></trkpt><trkpt lat="42.3545366" lon="13.4023026"><ele>718.4</ele><time>2026-05-02T17:34:44.983Z</time></trkpt><trkpt lat="42.354451" lon="13.4021953"><ele>720.8</ele><time>2026-05-02T17:34:45.983Z</time></trkpt><trkpt lat="42.3543887" lon="13.4021125"><ele>723.1999999999999</ele><time>2026-05-02T17:34:46.983Z</time></trkpt><trkpt lat="42.3543401" lon="13.4020333"><ele>725.5999999999999</ele><time>2026-05-02T17:34:47.983Z</time></trkpt><trkpt lat="42.3543087" lon="13.4019522"><ele>728.0</ele><time>2026-05-02T17:34:48.983Z</time></trkpt><trkpt lat="42.3543018" lon="13.401803"><ele>728.0</ele><time>2026-05-02T17:34:50.982Z</time></trkpt><trkpt lat="42.3543095" lon="13.4017159"><ele>728.0</ele><time>2026-05-02T17:34:53.983Z</time></trkpt><trkpt lat="42.3543286" lon="13.4016261"><ele>728.0</ele><time>2026-05-02T17:35:01.983Z</time></trkpt><trkpt lat="42.3543486" lon="13.401536"><ele>728.0</ele><time>2026-05-02T17:35:03.983Z</time></trkpt><trkpt lat="42.3543158" lon="13.4014332"><ele>728.0</ele><time>2026-05-02T17:35:05.982Z</time></trkpt><trkpt lat="42.3542549" lon="13.4014047"><ele>728.0</ele><time>2026-05-02T17:35:07.983Z</time></trkpt><trkpt lat="42.3541522" lon="13.4013971"><ele>728.0</ele><time>2026-05-02T17:35:10.983Z</time></trkpt><trkpt lat="42.3540805" lon="13.401439"><ele>728.0</ele><time>2026-05-02T17:35:12.983Z</time></trkpt><trkpt lat="42.3540346" lon="13.4015175"><ele>728.0</ele><time>2026-05-02T17:35:17.983Z</time></trkpt><trkpt lat="42.3540227" lon="13.4016089"><ele>728.0</ele><time>2026-05-02T17:35:33.982Z</time></trkpt><trkpt lat="42.3540716" lon="13.4016896"><ele>728.0</ele><time>2026-05-02T17:35:35.982Z</time></trkpt><trkpt lat="42.3541549" lon="13.4017796"><ele>728.0</ele><time>2026-05-02T17:35:37.983Z</time></trkpt><trkpt lat="42.354229" lon="13.4018004"><ele>728.0</ele><time>2026-05-02T17:35:39.983Z</time></trkpt><trkpt lat="42.3542986" lon="13.4017355"><ele>728.0</ele><time>2026-05-02T17:35:41.983Z</time></trkpt><trkpt lat="42.3543312" lon="13.4016131"><ele>728.0</ele><time>2026-05-02T17:35:43.982Z</time></trkpt><trkpt lat="42.3543362" lon="13.4014715"><ele>728.0</ele><time>2026-05-02T17:35:45.983Z</time></trkpt><trkpt lat="42.3542873" lon="13.4013873"><ele>728.0</ele><time>2026-05-02T17:35:47.982Z</time></trkpt><trkpt lat="42.3542082" lon="13.4013497"><ele>728.0</ele><time>2026-05-02T17:35:49.982Z</time></trkpt><trkpt lat="42.3541095" lon="13.4013173"><ele>728.5</ele><time>2026-05-02T17:35:51.983Z</time></trkpt><trkpt lat="42.3540075" lon="13.4012652"><ele>729.0</ele><time>2026-05-02T17:35:53.983Z</time></trkpt><trkpt lat="42.3539121" lon="13.4012019"><ele>729.5</ele><time>2026-05-02T17:35:55.983Z</time></trkpt><trkpt lat="42.3538393" lon="13.401188"><ele>730.0</ele><time>2026-05-02T17:35:57.983Z</time></trkpt><trkpt lat="42.3537723" lon="13.4012224"><ele>730.5</ele><time>2026-05-02T17:35:59.982Z</time></trkpt><trkpt lat="42.3537229" lon="13.4012829"><ele>731.0</ele><time>2026-05-02T17:36:01.983Z</time></trkpt><trkpt lat="42.3536831" lon="13.4013596"><ele>731.5999999999999</ele><time>2026-05-02T17:36:03.983Z</time></trkpt><trkpt lat="42.3536632" lon="13.4015063"><ele>732.2</ele><time>2026-05-02T17:36:06.983Z</time></trkpt><trkpt lat="42.3536646" lon="13.4015926"><ele>732.8</ele><time>2026-05-02T17:36:08.983Z</time></trkpt><trkpt lat="42.3536909" lon="13.4016805"><ele>733.4000000000001</ele><time>2026-05-02T17:36:11.983Z</time></trkpt><trkpt lat="42.353735" lon="13.40186"><ele>734.0</ele><time>2026-05-02T17:36:14.983Z</time></trkpt><trkpt lat="42.3537533" lon="13.4019814"><ele>734.0</ele><time>2026-05-02T17:36:15.983Z</time></trkpt><trkpt lat="42.3537537" lon="13.4020795"><ele>734.0</ele><time>2026-05-02T17:36:16.983Z</time></trkpt><trkpt lat="42.353743" lon="13.4022264"><ele>735.0</ele><time>2026-05-02T17:36:18.983Z</time></trkpt><trkpt lat="42.353777" lon="13.4023258"><ele>735.0</ele><time>2026-05-02T17:36:21.983Z</time></trkpt></trkseg><trkseg><trkpt lat="42.3243333" lon="13.5330575"><ele>739.0</ele><time>2026-05-03T06:39:13.031Z</time></trkpt><trkpt lat="42.3242639" lon="13.533078"><ele>739.0</ele><time>2026-05-03T06:39:16.031Z</time></trkpt><trkpt lat="42.3241968" lon="13.5330776"><ele>739.0</ele><time>2026-05-03T06:39:18.031Z</time></trkpt><trkpt lat="42.3241151" lon="13.5330891"><ele>739.0</ele><time>2026-05-03T06:39:20.031Z</time></trkpt><trkpt lat="42.3240366" lon="13.5330954"><ele>739.0</ele><time>2026-05-03T06:39:22.031Z</time></trkpt><trkpt lat="42.323956" lon="13.5330784"><ele>739.0</ele><time>2026-05-03T06:39:24.031Z</time></trkpt><trkpt lat="42.3238775" lon="13.5330393"><ele>738.1428571428571</ele><time>2026-05-03T06:39:26.031Z</time></trkpt><trkpt lat="42.3238025" lon="13.5330042"><ele>737.2857142857143</ele><time>2026-05-03T06:39:28.031Z</time></trkpt><trkpt lat="42.3237285" lon="13.532974"><ele>736.4285714285713</ele><time>2026-05-03T06:39:30.031Z</time></trkpt><trkpt lat="42.3236661" lon="13.5329408"><ele>735.5714285714286</ele><time>2026-05-03T06:39:32.031Z</time></trkpt><trkpt lat="42.3235914" lon="13.5329033"><ele>734.7142857142857</ele><time>2026-05-03T06:39:35.031Z</time></trkpt><trkpt lat="42.3235189" lon="13.532879"><ele>733.8571428571428</ele><time>2026-05-03T06:39:39.031Z</time></trkpt><trkpt lat="42.3234498" lon="13.5328692"><ele>733.0</ele><time>2026-05-03T06:41:49.032Z</time></trkpt><trkpt lat="42.3234035" lon="13.5327526"><ele>731.0</ele><time>2026-05-03T06:41:52.031Z</time></trkpt><trkpt lat="42.3234483" lon="13.5326026"><ele>729.0</ele><time>2026-05-03T06:41:54.031Z</time></trkpt><trkpt lat="42.3234887" lon="13.5325114"><ele>727.0</ele><time>2026-05-03T06:41:55.031Z</time></trkpt><trkpt lat="42.3235447" lon="13.5323913"><ele>725.0</ele><time>2026-05-03T06:41:56.031Z</time></trkpt><trkpt lat="42.3236143" lon="13.5322421"><ele>723.0</ele><time>2026-05-03T06:41:57.031Z</time></trkpt><trkpt lat="42.3236952" lon="13.5320735"><ele>721.6666666666666</ele><time>2026-05-03T06:41:58.031Z</time></trkpt><trkpt lat="42.323778" lon="13.5318853"><ele>720.3333333333333</ele><time>2026-05-03T06:41:59.031Z</time></trkpt><trkpt lat="42.3238687" lon="13.5316776"><ele>719.0</ele><time>2026-05-03T06:42:00.03Z</time></trkpt><trkpt lat="42.3239626" lon="13.5314571"><ele>719.0</ele><time>2026-05-03T06:42:01.031Z</time></trkpt><trkpt lat="42.3240557" lon="13.531232"><ele>719.0</ele><time>2026-05-03T06:42:02.03Z</time></trkpt><trkpt lat="42.3241403" lon="13.5310106"><ele>719.0</ele><time>2026-05-03T06:42:03.031Z</time></trkpt><trkpt lat="42.3242197" lon="13.5307935"><ele>717.0</ele><time>2026-05-03T06:42:04.032Z</time></trkpt><trkpt lat="42.324293" lon="13.5305821"><ele>715.0</ele><time>2026-05-03T06:42:05.031Z</time></trkpt><trkpt lat="42.3243533" lon="13.5303637"><ele>713.0</ele><time>2026-05-03T06:42:06.031Z</time></trkpt><trkpt lat="42.3244025" lon="13.5301396"><ele>710.6666666666666</ele><time>2026-05-03T06:42:07.031Z</time></trkpt><trkpt lat="42.3244388" lon="13.5299136"><ele>708.3333333333334</ele><time>2026-05-03T06:42:08.031Z</time></trkpt><trkpt lat="42.3244638" lon="13.5296793"><ele>706.0</ele><time>2026-05-03T06:42:09.031Z</time></trkpt><trkpt lat="42.3244762" lon="13.5294465"><ele>705.0</ele><time>2026-05-03T06:42:10.031Z</time></trkpt><trkpt lat="42.3244821" lon="13.5292144"><ele>704.0</ele><time>2026-05-03T06:42:11.031Z</time></trkpt><trkpt lat="42.324479" lon="13.5289748"><ele>703.0</ele><time>2026-05-03T06:42:12.032Z</time></trkpt><trkpt lat="42.3244642" lon="13.5287321"><ele>702.3333333333334</ele><time>2026-05-03T06:42:13.031Z</time></trkpt><trkpt lat="42.3244446" lon="13.528497"><ele>701.6666666666666</ele><time>2026-05-03T06:42:14.031Z</time></trkpt><trkpt lat="42.3244185" lon="13.5282575"><ele>701.0</ele><time>2026-05-03T06:42:15.032Z</time></trkpt><trkpt lat="42.3243903" lon="13.5280178"><ele>699.3333333333333</ele><time>2026-05-03T06:42:16.031Z</time></trkpt><trkpt lat="42.3243644" lon="13.5277777"><ele>697.6666666666666</ele><time>2026-05-03T06:42:17.03Z</time></trkpt><trkpt lat="42.3243379" lon="13.5275342"><ele>696.0</ele><time>2026-05-03T06:42:18.031Z</time></trkpt><trkpt lat="42.3243135" lon="13.5272846"><ele>695.3333333333334</ele><time>2026-05-03T06:42:19.031Z</time></trkpt><trkpt lat="42.3242871" lon="13.5270331"><ele>694.6666666666667</ele><time>2026-05-03T06:42:20.03Z</time></trkpt><trkpt lat="42.324256" lon="13.5267877"><ele>694.0</ele><time>2026-05-03T06:42:21.03Z</time></trkpt><trkpt lat="42.3242213" lon="13.5265452"><ele>694.0</ele><time>2026-05-03T06:42:22.032Z</time></trkpt><trkpt lat="42.3241855" lon="13.5263009"><ele>694.0</ele><time>2026-05-03T06:42:23.031Z</time></trkpt><trkpt lat="42.3241488" lon="13.5260552"><ele>694.0</ele><time>2026-05-03T06:42:24.031Z</time></trkpt><trkpt lat="42.3241108" lon="13.5258104"><ele>693.3333333333334</ele><time>2026-05-03T06:42:25.031Z</time></trkpt><trkpt lat="42.3240689" lon="13.5255663"><ele>692.6666666666666</ele><time>2026-05-03T06:42:26.031Z</time></trkpt><trkpt lat="42.3240285" lon="13.5253186"><ele>692.0</ele><time>2026-05-03T06:42:27.031Z</time></trkpt><trkpt lat="42.323987" lon="13.5250714"><ele>690.6666666666666</ele><time>2026-05-03T06:42:28.032Z</time></trkpt><trkpt lat="42.3239442" lon="13.5248226"><ele>689.3333333333334</ele><time>2026-05-03T06:42:29.031Z</time></trkpt><trkpt lat="42.3239017" lon="13.5245756"><ele>688.0</ele><time>2026-05-03T06:42:30.03Z</time></trkpt><trkpt lat="42.3238594" lon="13.5243331"><ele>684.3333333333334</ele><time>2026-05-03T06:42:31.031Z</time></trkpt><trkpt lat="42.3238198" lon="13.5240945"><ele>680.6666666666666</ele><time>2026-05-03T06:42:32.031Z</time></trkpt><trkpt lat="42.3237835" lon="13.5238581"><ele>677.0</ele><time>2026-05-03T06:42:33.031Z</time></trkpt><trkpt lat="42.3237451" lon="13.5236205"><ele>675.6666666666666</ele><time>2026-05-03T06:42:34.031Z</time></trkpt><trkpt lat="42.3237018" lon="13.5233856"><ele>674.3333333333334</ele><time>2026-05-03T06:42:35.031Z</time></trkpt><trkpt lat="42.3236621" lon="13.5231484"><ele>673.0</ele><time>2026-05-03T06:42:36.03Z</time></trkpt><trkpt lat="42.3236289" lon="13.5229085"><ele>672.0</ele><time>2026-05-03T06:42:37.031Z</time></trkpt><trkpt lat="42.3236056" lon="13.5226644"><ele>671.0</ele><time>2026-05-03T06:42:38.032Z</time></trkpt><trkpt lat="42.3235928" lon="13.5224191"><ele>670.0</ele><time>2026-05-03T06:42:39.031Z</time></trkpt><trkpt lat="42.3236019" lon="13.5221763"><ele>668.6666666666667</ele><time>2026-05-03T06:42:40.031Z</time></trkpt><trkpt lat="42.3236192" lon="13.521935"><ele>667.3333333333334</ele><time>2026-05-03T06:42:41.03Z</time></trkpt><trkpt lat="42.3236391" lon="13.5216943"><ele>666.0</ele><time>2026-05-03T06:42:42.031Z</time></trkpt><trkpt lat="42.3236601" lon="13.5214541"><ele>665.6666666666666</ele><time>2026-05-03T06:42:43.031Z</time></trkpt><trkpt lat="42.323679" lon="13.5212144"><ele>665.3333333333333</ele><time>2026-05-03T06:42:44.031Z</time></trkpt><trkpt lat="42.3236981" lon="13.5209778"><ele>665.0</ele><time>2026-05-03T06:42:45.031Z</time></trkpt><trkpt lat="42.3237174" lon="13.5207421"><ele>665.0</ele><time>2026-05-03T06:42:46.032Z</time></trkpt><trkpt lat="42.3237388" lon="13.5205054"><ele>665.0</ele><time>2026-05-03T06:42:47.031Z</time></trkpt><trkpt lat="42.3237584" lon="13.5202657"><ele>665.0</ele><time>2026-05-03T06:42:48.031Z</time></trkpt><trkpt lat="42.3237782" lon="13.520026"><ele>664.3333333333333</ele><time>2026-05-03T06:42:49.031Z</time></trkpt><trkpt lat="42.3237966" lon="13.5197858"><ele>663.6666666666666</ele><time>2026-05-03T06:42:50.032Z</time></trkpt><trkpt lat="42.3238141" lon="13.5195414"><ele>663.0</ele><time>2026-05-03T06:42:51.032Z</time></trkpt><trkpt lat="42.3238352" lon="13.5192967"><ele>662.3333333333334</ele><time>2026-05-03T06:42:52.031Z</time></trkpt><trkpt lat="42.3238565" lon="13.5190482"><ele>661.6666666666667</ele><time>2026-05-03T06:42:53.031Z</time></trkpt><trkpt lat="42.32388" lon="13.518804"><ele>661.0</ele><time>2026-05-03T06:42:54.032Z</time></trkpt><trkpt lat="42.3239027" lon="13.5185577"><ele>661.0</ele><time>2026-05-03T06:42:55.031Z</time></trkpt><trkpt lat="42.3239219" lon="13.5183124"><ele>661.0</ele><time>2026-05-03T06:42:56.031Z</time></trkpt><trkpt lat="42.3239438" lon="13.5180631"><ele>661.0</ele><time>2026-05-03T06:42:57.031Z</time></trkpt><trkpt lat="42.3239614" lon="13.5178124"><ele>659.3333333333334</ele><time>2026-05-03T06:42:58.031Z</time></trkpt><trkpt lat="42.3239781" lon="13.5175553"><ele>657.6666666666666</ele><time>2026-05-03T06:42:59.032Z</time></trkpt><trkpt lat="42.3239999" lon="13.5173012"><ele>656.0</ele><time>2026-05-03T06:43:00.031Z</time></trkpt><trkpt lat="42.3240206" lon="13.5170454"><ele>654.3333333333333</ele><time>2026-05-03T06:43:01.031Z</time></trkpt><trkpt lat="42.3240386" lon="13.516789"><ele>652.6666666666666</ele><time>2026-05-03T06:43:02.031Z</time></trkpt><trkpt lat="42.3240587" lon="13.5165341"><ele>651.0</ele><time>2026-05-03T06:43:03.031Z</time></trkpt><trkpt lat="42.3240827" lon="13.5162829"><ele>650.0</ele><time>2026-05-03T06:43:04.031Z</time></trkpt><trkpt lat="42.3241074" lon="13.5160321"><ele>649.0</ele><time>2026-05-03T06:43:05.032Z</time></trkpt><trkpt lat="42.3241277" lon="13.5157855"><ele>648.0</ele><time>2026-05-03T06:43:06.031Z</time></trkpt><trkpt lat="42.3241468" lon="13.5155402"><ele>647.3333333333334</ele><time>2026-05-03T06:43:07.031Z</time></trkpt><trkpt lat="42.324166" lon="13.5152966"><ele>646.6666666666667</ele><time>2026-05-03T06:43:08.031Z</time></trkpt><trkpt lat="42.3241852" lon="13.5150551"><ele>646.0</ele><time>2026-05-03T06:43:09.032Z</time></trkpt><trkpt lat="42.3242067" lon="13.5148197"><ele>646.0</ele><time>2026-05-03T06:43:10.03Z</time></trkpt><trkpt lat="42.3242258" lon="13.5145839"><ele>646.0</ele><time>2026-05-03T06:43:11.031Z</time></trkpt><trkpt lat="42.3242467" lon="13.5143524"><ele>646.0</ele><time>2026-05-03T06:43:12.031Z</time></trkpt><trkpt lat="42.324264" lon="13.5141238"><ele>644.6666666666667</ele><time>2026-05-03T06:43:13.03Z</time></trkpt><trkpt lat="42.3242807" lon="13.5139007"><ele>643.3333333333334</ele><time>2026-05-03T06:43:14.031Z</time></trkpt><trkpt lat="42.3242959" lon="13.5136914"><ele>642.0</ele><time>2026-05-03T06:43:15.031Z</time></trkpt><trkpt lat="42.3243132" lon="13.5134958"><ele>641.5</ele><time>2026-05-03T06:43:16.031Z</time></trkpt><trkpt lat="42.3243323" lon="13.5133111"><ele>641.0</ele><time>2026-05-03T06:43:17.031Z</time></trkpt><trkpt lat="42.3243473" lon="13.5131298"><ele>640.5</ele><time>2026-05-03T06:43:18.031Z</time></trkpt><trkpt lat="42.3243615" lon="13.5129499"><ele>640.0</ele><time>2026-05-03T06:43:19.031Z</time></trkpt><trkpt lat="42.324376" lon="13.5127747"><ele>639.5</ele><time>2026-05-03T06:43:20.031Z</time></trkpt><trkpt lat="42.3243911" lon="13.5125935"><ele>639.0</ele><time>2026-05-03T06:43:21.031Z</time></trkpt><trkpt lat="42.3244071" lon="13.5124091"><ele>638.5</ele><time>2026-05-03T06:43:22.03Z</time></trkpt><trkpt lat="42.3244232" lon="13.5122165"><ele>638.0</ele><time>2026-05-03T06:43:23.031Z</time></trkpt><trkpt lat="42.3244414" lon="13.5120189"><ele>637.75</ele><time>2026-05-03T06:43:24.031Z</time></trkpt><trkpt lat="42.3244606" lon="13.5118184"><ele>637.5</ele><time>2026-05-03T06:43:25.031Z</time></trkpt><trkpt lat="42.3244813" lon="13.5116181"><ele>637.25</ele><time>2026-05-03T06:43:26.031Z</time></trkpt><trkpt lat="42.3245015" lon="13.5114187"><ele>637.0</ele><time>2026-05-03T06:43:27.031Z</time></trkpt><trkpt lat="42.3245195" lon="13.5112129"><ele>636.0</ele><time>2026-05-03T06:43:28.031Z</time></trkpt><trkpt lat="42.3245372" lon="13.5110135"><ele>635.0</ele><time>2026-05-03T06:43:29.03Z</time></trkpt><trkpt lat="42.3245549" lon="13.5108233"><ele>634.0</ele><time>2026-05-03T06:43:30.031Z</time></trkpt><trkpt lat="42.3245719" lon="13.5106426"><ele>633.0</ele><time>2026-05-03T06:43:31.032Z</time></trkpt><trkpt lat="42.3245883" lon="13.5104661"><ele>632.25</ele><time>2026-05-03T06:43:32.031Z</time></trkpt><trkpt lat="42.3246067" lon="13.510283"><ele>631.5</ele><time>2026-05-03T06:43:33.031Z</time></trkpt><trkpt lat="42.3246243" lon="13.5101003"><ele>630.75</ele><time>2026-05-03T06:43:34.031Z</time></trkpt><trkpt lat="42.3246406" lon="13.509914"><ele>630.0</ele><time>2026-05-03T06:43:35.031Z</time></trkpt><trkpt lat="42.324657" lon="13.5097243"><ele>629.0</ele><time>2026-05-03T06:43:36.031Z</time></trkpt><trkpt lat="42.3246734" lon="13.5095306"><ele>628.0</ele><time>2026-05-03T06:43:37.031Z</time></trkpt><trkpt lat="42.3246897" lon="13.5093303"><ele>627.0</ele><time>2026-05-03T06:43:38.03Z</time></trkpt><trkpt lat="42.3247071" lon="13.5091267"><ele>626.0</ele><time>2026-05-03T06:43:39.031Z</time></trkpt><trkpt lat="42.3247272" lon="13.508921"><ele>626.25</ele><time>2026-05-03T06:43:40.031Z</time></trkpt><trkpt lat="42.324749" lon="13.508719"><ele>626.5</ele><time>2026-05-03T06:43:41.031Z</time></trkpt><trkpt lat="42.3247684" lon="13.5085269"><ele>626.75</ele><time>2026-05-03T06:43:42.032Z</time></trkpt><trkpt lat="42.3247883" lon="13.5083382"><ele>627.0</ele><time>2026-05-03T06:43:43.031Z</time></trkpt><trkpt lat="42.3248064" lon="13.5081456"><ele>627.0</ele><time>2026-05-03T06:43:44.031Z</time></trkpt><trkpt lat="42.324824" lon="13.5079487"><ele>627.0</ele><time>2026-05-03T06:43:45.03Z</time></trkpt><trkpt lat="42.3248433" lon="13.5077487"><ele>627.0</ele><time>2026-05-03T06:43:46.031Z</time></trkpt><trkpt lat="42.3248643" lon="13.5075423"><ele>626.0</ele><time>2026-05-03T06:43:47.032Z</time></trkpt><trkpt lat="42.3248873" lon="13.5073336"><ele>625.0</ele><time>2026-05-03T06:43:48.031Z</time></trkpt><trkpt lat="42.3249093" lon="13.507121"><ele>624.0</ele><time>2026-05-03T06:43:49.031Z</time></trkpt><trkpt lat="42.3249314" lon="13.506905"><ele>622.6666666666666</ele><time>2026-05-03T06:43:50.031Z</time></trkpt><trkpt lat="42.3249561" lon="13.5066883"><ele>621.3333333333333</ele><time>2026-05-03T06:43:51.032Z</time></trkpt><trkpt lat="42.3249766" lon="13.5064726"><ele>620.0</ele><time>2026-05-03T06:43:52.031Z</time></trkpt><trkpt lat="42.3249966" lon="13.5062563"><ele>618.6666666666666</ele><time>2026-05-03T06:43:53.031Z</time></trkpt><trkpt lat="42.3250186" lon="13.5060445"><ele>617.3333333333334</ele><time>2026-05-03T06:43:54.031Z</time></trkpt><trkpt lat="42.3250399" lon="13.5058367"><ele>616.0</ele><time>2026-05-03T06:43:55.031Z</time></trkpt><trkpt lat="42.3250596" lon="13.5056259"><ele>616.0</ele><time>2026-05-03T06:43:56.031Z</time></trkpt><trkpt lat="42.3250797" lon="13.5054173"><ele>616.0</ele><time>2026-05-03T06:43:57.031Z</time></trkpt><trkpt lat="42.325099" lon="13.50521"><ele>616.0</ele><time>2026-05-03T06:43:58.031Z</time></trkpt><trkpt lat="42.3251197" lon="13.5050002"><ele>614.6666666666667</ele><time>2026-05-03T06:43:59.031Z</time></trkpt><trkpt lat="42.3251419" lon="13.5047897"><ele>613.3333333333334</ele><time>2026-05-03T06:44:00.031Z</time></trkpt><trkpt lat="42.3251625" lon="13.5045743"><ele>612.0</ele><time>2026-05-03T06:44:01.032Z</time></trkpt><trkpt lat="42.3251818" lon="13.5043545"><ele>610.0</ele><time>2026-05-03T06:44:02.031Z</time></trkpt><trkpt lat="42.3252026" lon="13.5041341"><ele>608.0</ele><time>2026-05-03T06:44:03.031Z</time></trkpt><trkpt lat="42.325225" lon="13.5039134"><ele>606.0</ele><time>2026-05-03T06:44:04.031Z</time></trkpt><trkpt lat="42.3252477" lon="13.5036943"><ele>604.6666666666666</ele><time>2026-05-03T06:44:05.031Z</time></trkpt><trkpt lat="42.3252692" lon="13.5034765"><ele>603.3333333333333</ele><time>2026-05-03T06:44:06.032Z</time></trkpt><trkpt lat="42.3252892" lon="13.5032624"><ele>602.0</ele><time>2026-05-03T06:44:07.031Z</time></trkpt><trkpt lat="42.3253078" lon="13.5030568"><ele>601.5</ele><time>2026-05-03T06:44:08.031Z</time></trkpt><trkpt lat="42.3253257" lon="13.5028663"><ele>601.0</ele><time>2026-05-03T06:44:09.031Z</time></trkpt><trkpt lat="42.3253445" lon="13.5026791"><ele>600.5</ele><time>2026-05-03T06:44:10.031Z</time></trkpt><trkpt lat="42.3253635" lon="13.5024978"><ele>600.0</ele><time>2026-05-03T06:44:11.032Z</time></trkpt><trkpt lat="42.32538" lon="13.5023167"><ele>600.0</ele><time>2026-05-03T06:44:12.03Z</time></trkpt><trkpt lat="42.3253974" lon="13.5021365"><ele>600.0</ele><time>2026-05-03T06:44:13.032Z</time></trkpt><trkpt lat="42.3254155" lon="13.5019564"><ele>600.0</ele><time>2026-05-03T06:44:14.031Z</time></trkpt><trkpt lat="42.3254334" lon="13.5017901"><ele>600.0</ele><time>2026-05-03T06:44:15.031Z</time></trkpt><trkpt lat="42.3254476" lon="13.5016492"><ele>599.3333333333334</ele><time>2026-05-03T06:44:16.031Z</time></trkpt><trkpt lat="42.3254578" lon="13.5015367"><ele>598.6666666666666</ele><time>2026-05-03T06:44:17.031Z</time></trkpt><trkpt lat="42.3254656" lon="13.5014291"><ele>598.0</ele><time>2026-05-03T06:44:18.031Z</time></trkpt><trkpt lat="42.3254776" lon="13.5013132"><ele>597.3333333333333</ele><time>2026-05-03T06:44:19.031Z</time></trkpt><trkpt lat="42.3254861" lon="13.5011919"><ele>596.6666666666666</ele><time>2026-05-03T06:44:20.031Z</time></trkpt><trkpt lat="42.3254954" lon="13.5010828"><ele>596.0</ele><time>2026-05-03T06:44:21.031Z</time></trkpt><trkpt lat="42.3255047" lon="13.5009807"><ele>596.1666666666666</ele><time>2026-05-03T06:44:22.03Z</time></trkpt><trkpt lat="42.3255123" lon="13.5008901"><ele>596.3333333333333</ele><time>2026-05-03T06:44:23.031Z</time></trkpt><trkpt lat="42.3255281" lon="13.5007472"><ele>596.5</ele><time>2026-05-03T06:44:25.031Z</time></trkpt><trkpt lat="42.3255345" lon="13.5006407"><ele>596.6666666666666</ele><time>2026-05-03T06:44:27.031Z</time></trkpt><trkpt lat="42.3255452" lon="13.5005006"><ele>596.8333333333334</ele><time>2026-05-03T06:44:29.031Z</time></trkpt><trkpt lat="42.3255539" lon="13.5004087"><ele>597.0</ele><time>2026-05-03T06:44:30.031Z</time></trkpt><trkpt lat="42.3255673" lon="13.5003035"><ele>597.0</ele><time>2026-05-03T06:44:31.031Z</time></trkpt><trkpt lat="42.3255795" lon="13.5001856"><ele>597.0</ele><time>2026-05-03T06:44:32.031Z</time></trkpt><trkpt lat="42.3255961" lon="13.5000557"><ele>597.0</ele><time>2026-05-03T06:44:33.031Z</time></trkpt><trkpt lat="42.3256141" lon="13.499911"><ele>597.0</ele><time>2026-05-03T06:44:34.031Z</time></trkpt><trkpt lat="42.3256306" lon="13.4997573"><ele>597.0</ele><time>2026-05-03T06:44:35.031Z</time></trkpt><trkpt lat="42.325645" lon="13.4995878"><ele>596.5</ele><time>2026-05-03T06:44:36.031Z</time></trkpt><trkpt lat="42.3256644" lon="13.4994124"><ele>596.0</ele><time>2026-05-03T06:44:37.032Z</time></trkpt><trkpt lat="42.3256853" lon="13.4992263"><ele>595.5</ele><time>2026-05-03T06:44:38.03Z</time></trkpt><trkpt lat="42.3257066" lon="13.499033"><ele>595.0</ele><time>2026-05-03T06:44:39.03Z</time></trkpt><trkpt lat="42.3257282" lon="13.4988339"><ele>593.75</ele><time>2026-05-03T06:44:40.031Z</time></trkpt><trkpt lat="42.3257512" lon="13.498633"><ele>592.5</ele><time>2026-05-03T06:44:41.031Z</time></trkpt><trkpt lat="42.3257742" lon="13.4984398"><ele>591.25</ele><time>2026-05-03T06:44:42.031Z</time></trkpt><trkpt lat="42.3257959" lon="13.4982555"><ele>590.0</ele><time>2026-05-03T06:44:43.031Z</time></trkpt><trkpt lat="42.3258135" lon="13.4980818"><ele>589.0</ele><time>2026-05-03T06:44:44.031Z</time></trkpt><trkpt lat="42.3258293" lon="13.4979151"><ele>588.0</ele><time>2026-05-03T06:44:45.031Z</time></trkpt><trkpt lat="42.3258444" lon="13.4977541"><ele>587.0</ele><time>2026-05-03T06:44:46.031Z</time></trkpt><trkpt lat="42.3258576" lon="13.4976067"><ele>586.0</ele><time>2026-05-03T06:44:47.031Z</time></trkpt><trkpt lat="42.3258646" lon="13.4974743"><ele>586.0</ele><time>2026-05-03T06:44:48.031Z</time></trkpt><trkpt lat="42.3258743" lon="13.4973379"><ele>586.0</ele><time>2026-05-03T06:44:49.031Z</time></trkpt><trkpt lat="42.3258882" lon="13.4971949"><ele>586.0</ele><time>2026-05-03T06:44:50.031Z</time></trkpt><trkpt lat="42.3259063" lon="13.4970505"><ele>586.0</ele><time>2026-05-03T06:44:51.031Z</time></trkpt><trkpt lat="42.3259254" lon="13.4968945"><ele>586.0</ele><time>2026-05-03T06:44:52.031Z</time></trkpt><trkpt lat="42.325951" lon="13.4967343"><ele>584.5</ele><time>2026-05-03T06:44:53.031Z</time></trkpt><trkpt lat="42.3259833" lon="13.4965661"><ele>583.0</ele><time>2026-05-03T06:44:54.031Z</time></trkpt><trkpt lat="42.3260215" lon="13.4963929"><ele>581.5</ele><time>2026-05-03T06:44:55.031Z</time></trkpt><trkpt lat="42.3260601" lon="13.4962118"><ele>580.0</ele><time>2026-05-03T06:44:56.031Z</time></trkpt><trkpt lat="42.3261048" lon="13.4960282"><ele>579.3333333333334</ele><time>2026-05-03T06:44:57.032Z</time></trkpt><trkpt lat="42.3261533" lon="13.4958366"><ele>578.6666666666666</ele><time>2026-05-03T06:44:58.031Z</time></trkpt><trkpt lat="42.3262105" lon="13.495646"><ele>578.0</ele><time>2026-05-03T06:44:59.031Z</time></trkpt><trkpt lat="42.3262701" lon="13.49545"><ele>577.0</ele><time>2026-05-03T06:45:00.031Z</time></trkpt><trkpt lat="42.3263258" lon="13.4952533"><ele>576.0</ele><time>2026-05-03T06:45:01.031Z</time></trkpt><trkpt lat="42.3263819" lon="13.4950509"><ele>575.0</ele><time>2026-05-03T06:45:02.031Z</time></trkpt><trkpt lat="42.3264426" lon="13.4948449"><ele>575.6666666666666</ele><time>2026-05-03T06:45:03.031Z</time></trkpt><trkpt lat="42.3265042" lon="13.4946391"><ele>576.3333333333334</ele><time>2026-05-03T06:45:04.031Z</time></trkpt><trkpt lat="42.3265665" lon="13.4944298"><ele>577.0</ele><time>2026-05-03T06:45:05.031Z</time></trkpt><trkpt lat="42.3266313" lon="13.4942206"><ele>577.0</ele><time>2026-05-03T06:45:06.031Z</time></trkpt><trkpt lat="42.3266968" lon="13.4940069"><ele>577.0</ele><time>2026-05-03T06:45:07.031Z</time></trkpt><trkpt lat="42.3267631" lon="13.4937962"><ele>577.0</ele><time>2026-05-03T06:45:08.031Z</time></trkpt><trkpt lat="42.3268272" lon="13.4935847"><ele>576.3333333333334</ele><time>2026-05-03T06:45:09.031Z</time></trkpt><trkpt lat="42.3268893" lon="13.4933754"><ele>575.6666666666666</ele><time>2026-05-03T06:45:10.031Z</time></trkpt><trkpt lat="42.3269522" lon="13.493169"><ele>575.0</ele><time>2026-05-03T06:45:11.031Z</time></trkpt><trkpt lat="42.3270161" lon="13.4929568"><ele>575.3333333333333</ele><time>2026-05-03T06:45:12.031Z</time></trkpt><trkpt lat="42.3270797" lon="13.4927503"><ele>575.6666666666666</ele><time>2026-05-03T06:45:13.031Z</time></trkpt><trkpt lat="42.3271406" lon="13.4925432"><ele>576.0</ele><time>2026-05-03T06:45:14.031Z</time></trkpt><trkpt lat="42.3271996" lon="13.492334"><ele>576.0</ele><time>2026-05-03T06:45:15.031Z</time></trkpt><trkpt lat="42.3272619" lon="13.49213"><ele>576.0</ele><time>2026-05-03T06:45:16.032Z</time></trkpt><trkpt lat="42.3273239" lon="13.4919247"><ele>576.0</ele><time>2026-05-03T06:45:17.03Z</time></trkpt><trkpt lat="42.3273883" lon="13.4917207"><ele>576.3333333333334</ele><time>2026-05-03T06:45:18.031Z</time></trkpt><trkpt lat="42.3274503" lon="13.4915155"><ele>576.6666666666667</ele><time>2026-05-03T06:45:19.031Z</time></trkpt><trkpt lat="42.3275104" lon="13.491311"><ele>577.0</ele><time>2026-05-03T06:45:20.031Z</time></trkpt><trkpt lat="42.3275707" lon="13.4911041"><ele>577.0</ele><time>2026-05-03T06:45:21.032Z</time></trkpt><trkpt lat="42.327632" lon="13.490898"><ele>577.0</ele><time>2026-05-03T06:45:22.031Z</time></trkpt><trkpt lat="42.327695" lon="13.4906897"><ele>577.0</ele><time>2026-05-03T06:45:23.032Z</time></trkpt><trkpt lat="42.3277565" lon="13.4904823"><ele>576.6666666666667</ele><time>2026-05-03T06:45:24.031Z</time></trkpt><trkpt lat="42.327818" lon="13.4902759"><ele>576.3333333333334</ele><time>2026-05-03T06:45:25.031Z</time></trkpt><trkpt lat="42.3278824" lon="13.4900695"><ele>576.0</ele><time>2026-05-03T06:45:26.031Z</time></trkpt><trkpt lat="42.3279456" lon="13.489862"><ele>576.0</ele><time>2026-05-03T06:45:27.031Z</time></trkpt><trkpt lat="42.3280065" lon="13.4896544"><ele>576.0</ele><time>2026-05-03T06:45:28.031Z</time></trkpt><trkpt lat="42.3280663" lon="13.4894526"><ele>576.0</ele><time>2026-05-03T06:45:29.031Z</time></trkpt><trkpt lat="42.3281248" lon="13.4892484"><ele>576.3333333333334</ele><time>2026-05-03T06:45:30.031Z</time></trkpt><trkpt lat="42.3281844" lon="13.4890448"><ele>576.6666666666667</ele><time>2026-05-03T06:45:31.031Z</time></trkpt><trkpt lat="42.3282428" lon="13.4888396"><ele>577.0</ele><time>2026-05-03T06:45:32.031Z</time></trkpt><trkpt lat="42.3283047" lon="13.4886408"><ele>577.3333333333334</ele><time>2026-05-03T06:45:33.031Z</time></trkpt><trkpt lat="42.3283668" lon="13.4884371"><ele>577.6666666666666</ele><time>2026-05-03T06:45:34.031Z</time></trkpt><trkpt lat="42.3284282" lon="13.4882354"><ele>578.0</ele><time>2026-05-03T06:45:35.031Z</time></trkpt><trkpt lat="42.3284898" lon="13.4880315"><ele>578.0</ele><time>2026-05-03T06:45:36.03Z</time></trkpt><trkpt lat="42.3285511" lon="13.4878296"><ele>578.0</ele><time>2026-05-03T06:45:37.031Z</time></trkpt><trkpt lat="42.3286141" lon="13.4876251"><ele>578.0</ele><time>2026-05-03T06:45:38.031Z</time></trkpt><trkpt lat="42.3286772" lon="13.4874139"><ele>578.0</ele><time>2026-05-03T06:45:39.031Z</time></trkpt><trkpt lat="42.3287383" lon="13.4871998"><ele>578.0</ele><time>2026-05-03T06:45:40.03Z</time></trkpt><trkpt lat="42.3288022" lon="13.4869797"><ele>578.0</ele><time>2026-05-03T06:45:41.032Z</time></trkpt><trkpt lat="42.3288673" lon="13.486759"><ele>578.3333333333333</ele><time>2026-05-03T06:45:42.032Z</time></trkpt><trkpt lat="42.3289332" lon="13.486539"><ele>578.6666666666666</ele><time>2026-05-03T06:45:43.031Z</time></trkpt><trkpt lat="42.3289974" lon="13.4863179"><ele>579.0</ele><time>2026-05-03T06:45:44.032Z</time></trkpt><trkpt lat="42.3290615" lon="13.4860957"><ele>579.6666666666666</ele><time>2026-05-03T06:45:45.03Z</time></trkpt><trkpt lat="42.3291255" lon="13.4858772"><ele>580.3333333333333</ele><time>2026-05-03T06:45:46.03Z</time></trkpt><trkpt lat="42.3291893" lon="13.4856598"><ele>581.0</ele><time>2026-05-03T06:45:47.031Z</time></trkpt><trkpt lat="42.329257" lon="13.4854426"><ele>580.6666666666666</ele><time>2026-05-03T06:45:48.031Z</time></trkpt><trkpt lat="42.3293205" lon="13.4852269"><ele>580.3333333333334</ele><time>2026-05-03T06:45:49.031Z</time></trkpt><trkpt lat="42.3293831" lon="13.4850106"><ele>580.0</ele><time>2026-05-03T06:45:50.031Z</time></trkpt><trkpt lat="42.3294464" lon="13.4847964"><ele>580.3333333333334</ele><time>2026-05-03T06:45:51.031Z</time></trkpt><trkpt lat="42.329512" lon="13.4845862"><ele>580.6666666666666</ele><time>2026-05-03T06:45:52.031Z</time></trkpt><trkpt lat="42.3295778" lon="13.4843788"><ele>581.0</ele><time>2026-05-03T06:45:53.031Z</time></trkpt><trkpt lat="42.3296445" lon="13.4841676"><ele>581.0</ele><time>2026-05-03T06:45:54.031Z</time></trkpt><trkpt lat="42.3297072" lon="13.4839562"><ele>581.0</ele><time>2026-05-03T06:45:55.031Z</time></trkpt><trkpt lat="42.329769" lon="13.483742"><ele>581.0</ele><time>2026-05-03T06:45:56.031Z</time></trkpt><trkpt lat="42.3298314" lon="13.4835306"><ele>581.6666666666666</ele><time>2026-05-03T06:45:57.031Z</time></trkpt><trkpt lat="42.329896" lon="13.4833172"><ele>582.3333333333334</ele><time>2026-05-03T06:45:58.031Z</time></trkpt><trkpt lat="42.3299605" lon="13.4831055"><ele>583.0</ele><time>2026-05-03T06:45:59.031Z</time></trkpt><trkpt lat="42.3300244" lon="13.4828908"><ele>583.0</ele><time>2026-05-03T06:46:00.031Z</time></trkpt><trkpt lat="42.3300875" lon="13.4826795"><ele>583.0</ele><time>2026-05-03T06:46:01.031Z</time></trkpt><trkpt lat="42.3301525" lon="13.4824646"><ele>583.0</ele><time>2026-05-03T06:46:02.031Z</time></trkpt><trkpt lat="42.3302177" lon="13.4822491"><ele>583.0</ele><time>2026-05-03T06:46:03.031Z</time></trkpt><trkpt lat="42.3302834" lon="13.4820357"><ele>583.0</ele><time>2026-05-03T06:46:04.032Z</time></trkpt><trkpt lat="42.3303486" lon="13.4818199"><ele>583.0</ele><time>2026-05-03T06:46:05.031Z</time></trkpt><trkpt lat="42.3304142" lon="13.4816019"><ele>583.0</ele><time>2026-05-03T06:46:06.03Z</time></trkpt><trkpt lat="42.3304779" lon="13.4813888"><ele>583.0</ele><time>2026-05-03T06:46:07.031Z</time></trkpt><trkpt lat="42.3305406" lon="13.4811755"><ele>583.0</ele><time>2026-05-03T06:46:08.031Z</time></trkpt><trkpt lat="42.330604" lon="13.4809632"><ele>584.3333333333334</ele><time>2026-05-03T06:46:09.031Z</time></trkpt><trkpt lat="42.3306657" lon="13.4807525"><ele>585.6666666666666</ele><time>2026-05-03T06:46:10.031Z</time></trkpt><trkpt lat="42.3307257" lon="13.4805485"><ele>587.0</ele><time>2026-05-03T06:46:11.031Z</time></trkpt><trkpt lat="42.3307842" lon="13.4803454"><ele>587.3333333333333</ele><time>2026-05-03T06:46:12.031Z</time></trkpt><trkpt lat="42.3308417" lon="13.4801444"><ele>587.6666666666666</ele><time>2026-05-03T06:46:13.031Z</time></trkpt><trkpt lat="42.330901" lon="13.4799463"><ele>588.0</ele><time>2026-05-03T06:46:14.031Z</time></trkpt><trkpt lat="42.330958" lon="13.4797554"><ele>588.25</ele><time>2026-05-03T06:46:15.03Z</time></trkpt><trkpt lat="42.3310139" lon="13.479573"><ele>588.5</ele><time>2026-05-03T06:46:16.03Z</time></trkpt><trkpt lat="42.3310671" lon="13.4793963"><ele>588.75</ele><time>2026-05-03T06:46:17.031Z</time></trkpt><trkpt lat="42.3311215" lon="13.4792191"><ele>589.0</ele><time>2026-05-03T06:46:18.03Z</time></trkpt><trkpt lat="42.331178" lon="13.4790415"><ele>589.0</ele><time>2026-05-03T06:46:19.03Z</time></trkpt><trkpt lat="42.3312332" lon="13.4788545"><ele>589.0</ele><time>2026-05-03T06:46:20.03Z</time></trkpt><trkpt lat="42.3312884" lon="13.4786643"><ele>589.0</ele><time>2026-05-03T06:46:21.03Z</time></trkpt><trkpt lat="42.3313454" lon="13.478466"><ele>589.3333333333334</ele><time>2026-05-03T06:46:22.03Z</time></trkpt><trkpt lat="42.3314031" lon="13.4782621"><ele>589.6666666666666</ele><time>2026-05-03T06:46:23.03Z</time></trkpt><trkpt lat="42.3314624" lon="13.4780573"><ele>590.0</ele><time>2026-05-03T06:46:24.03Z</time></trkpt><trkpt lat="42.3315221" lon="13.4778461"><ele>590.6666666666666</ele><time>2026-05-03T06:46:25.03Z</time></trkpt><trkpt lat="42.3315819" lon="13.4776355"><ele>591.3333333333334</ele><time>2026-05-03T06:46:26.03Z</time></trkpt><trkpt lat="42.3316466" lon="13.477422"><ele>592.0</ele><time>2026-05-03T06:46:27.03Z</time></trkpt><trkpt lat="42.331712" lon="13.4772019"><ele>592.0</ele><time>2026-05-03T06:46:28.03Z</time></trkpt><trkpt lat="42.3317766" lon="13.4769796"><ele>592.0</ele><time>2026-05-03T06:46:29.03Z</time></trkpt><trkpt lat="42.3318397" lon="13.4767554"><ele>592.0</ele><time>2026-05-03T06:46:30.03Z</time></trkpt><trkpt lat="42.3319038" lon="13.4765258"><ele>592.0</ele><time>2026-05-03T06:46:31.03Z</time></trkpt><trkpt lat="42.3319671" lon="13.4762949"><ele>592.0</ele><time>2026-05-03T06:46:32.029Z</time></trkpt><trkpt lat="42.3320287" lon="13.4760624"><ele>592.0</ele><time>2026-05-03T06:46:33.031Z</time></trkpt><trkpt lat="42.3320907" lon="13.4758267"><ele>592.0</ele><time>2026-05-03T06:46:34.03Z</time></trkpt><trkpt lat="42.3321575" lon="13.4755912"><ele>592.0</ele><time>2026-05-03T06:46:35.03Z</time></trkpt><trkpt lat="42.3322158" lon="13.47535"><ele>592.0</ele><time>2026-05-03T06:46:36.03Z</time></trkpt><trkpt lat="42.3322747" lon="13.475106"><ele>592.0</ele><time>2026-05-03T06:46:37.029Z</time></trkpt><trkpt lat="42.332337" lon="13.4748638"><ele>592.0</ele><time>2026-05-03T06:46:38.03Z</time></trkpt><trkpt lat="42.3324018" lon="13.4746148"><ele>592.0</ele><time>2026-05-03T06:46:39.03Z</time></trkpt><trkpt lat="42.3324643" lon="13.47437"><ele>592.3333333333334</ele><time>2026-05-03T06:46:40.03Z</time></trkpt><trkpt lat="42.3325273" lon="13.474126"><ele>592.6666666666666</ele><time>2026-05-03T06:46:41.03Z</time></trkpt><trkpt lat="42.3325927" lon="13.4738833"><ele>593.0</ele><time>2026-05-03T06:46:42.03Z</time></trkpt><trkpt lat="42.332658" lon="13.4736437"><ele>593.0</ele><time>2026-05-03T06:46:43.03Z</time></trkpt><trkpt lat="42.3327221" lon="13.4734023"><ele>593.0</ele><time>2026-05-03T06:46:44.03Z</time></trkpt><trkpt lat="42.3327835" lon="13.4731614"><ele>593.0</ele><time>2026-05-03T06:46:45.03Z</time></trkpt><trkpt lat="42.3328454" lon="13.4729251"><ele>592.3333333333333</ele><time>2026-05-03T06:46:46.03Z</time></trkpt><trkpt lat="42.332906" lon="13.4726941"><ele>591.6666666666666</ele><time>2026-05-03T06:46:47.03Z</time></trkpt><trkpt lat="42.3329676" lon="13.4724647"><ele>591.0</ele><time>2026-05-03T06:46:48.03Z</time></trkpt><trkpt lat="42.3330246" lon="13.4722487"><ele>591.75</ele><time>2026-05-03T06:46:49.029Z</time></trkpt><trkpt lat="42.3330797" lon="13.4720601"><ele>592.5</ele><time>2026-05-03T06:46:50.03Z</time></trkpt><trkpt lat="42.3331323" lon="13.4718961"><ele>593.25</ele><time>2026-05-03T06:46:51.03Z</time></trkpt><trkpt lat="42.3331828" lon="13.4717534"><ele>594.0</ele><time>2026-05-03T06:46:52.03Z</time></trkpt><trkpt lat="42.3332341" lon="13.4716228"><ele>594.0</ele><time>2026-05-03T06:46:53.03Z</time></trkpt><trkpt lat="42.3332937" lon="13.4715102"><ele>594.0</ele><time>2026-05-03T06:46:54.03Z</time></trkpt><trkpt lat="42.3333632" lon="13.4714133"><ele>594.0</ele><time>2026-05-03T06:46:55.03Z</time></trkpt><trkpt lat="42.3334395" lon="13.4713456"><ele>594.0</ele><time>2026-05-03T06:46:56.03Z</time></trkpt><trkpt lat="42.333511" lon="13.471292"><ele>594.0</ele><time>2026-05-03T06:46:57.03Z</time></trkpt><trkpt lat="42.3335718" lon="13.4712297"><ele>593.6666666666666</ele><time>2026-05-03T06:46:58.03Z</time></trkpt><trkpt lat="42.3336104" lon="13.4711498"><ele>593.3333333333334</ele><time>2026-05-03T06:46:59.03Z</time></trkpt><trkpt lat="42.3336276" lon="13.4710526"><ele>593.0</ele><time>2026-05-03T06:47:00.03Z</time></trkpt><trkpt lat="42.3336253" lon="13.4709454"><ele>592.6666666666667</ele><time>2026-05-03T06:47:01.029Z</time></trkpt><trkpt lat="42.3335912" lon="13.4708316"><ele>592.3333333333334</ele><time>2026-05-03T06:47:02.03Z</time></trkpt><trkpt lat="42.3335497" lon="13.4707123"><ele>592.0</ele><time>2026-05-03T06:47:03.03Z</time></trkpt><trkpt lat="42.3335228" lon="13.4705714"><ele>591.75</ele><time>2026-05-03T06:47:04.03Z</time></trkpt><trkpt lat="42.3335194" lon="13.4704205"><ele>591.5</ele><time>2026-05-03T06:47:05.031Z</time></trkpt><trkpt lat="42.3335365" lon="13.4702585"><ele>591.25</ele><time>2026-05-03T06:47:06.03Z</time></trkpt><trkpt lat="42.3335711" lon="13.4700915"><ele>591.0</ele><time>2026-05-03T06:47:07.03Z</time></trkpt><trkpt lat="42.3336173" lon="13.4699172"><ele>591.0</ele><time>2026-05-03T06:47:08.03Z</time></trkpt><trkpt lat="42.333667" lon="13.4697362"><ele>591.0</ele><time>2026-05-03T06:47:09.03Z</time></trkpt><trkpt lat="42.3337182" lon="13.4695472"><ele>591.0</ele><time>2026-05-03T06:47:10.03Z</time></trkpt><trkpt lat="42.3337736" lon="13.4693514"><ele>591.0</ele><time>2026-05-03T06:47:11.03Z</time></trkpt><trkpt lat="42.3338294" lon="13.4691496"><ele>591.0</ele><time>2026-05-03T06:47:12.03Z</time></trkpt><trkpt lat="42.3338881" lon="13.4689447"><ele>591.0</ele><time>2026-05-03T06:47:13.03Z</time></trkpt><trkpt lat="42.3339494" lon="13.468735"><ele>591.0</ele><time>2026-05-03T06:47:14.03Z</time></trkpt><trkpt lat="42.3340091" lon="13.4685216"><ele>591.0</ele><time>2026-05-03T06:47:15.03Z</time></trkpt><trkpt lat="42.3340712" lon="13.4683056"><ele>591.0</ele><time>2026-05-03T06:47:16.03Z</time></trkpt><trkpt lat="42.3341324" lon="13.468088"><ele>591.0</ele><time>2026-05-03T06:47:17.03Z</time></trkpt><trkpt lat="42.3341921" lon="13.4678693"><ele>591.0</ele><time>2026-05-03T06:47:18.03Z</time></trkpt><trkpt lat="42.3342515" lon="13.4676508"><ele>591.0</ele><time>2026-05-03T06:47:19.03Z</time></trkpt><trkpt lat="42.3343123" lon="13.4674325"><ele>591.0</ele><time>2026-05-03T06:47:20.029Z</time></trkpt><trkpt lat="42.3343711" lon="13.4672129"><ele>591.3333333333334</ele><time>2026-05-03T06:47:21.03Z</time></trkpt><trkpt lat="42.3344303" lon="13.4669943"><ele>591.6666666666667</ele><time>2026-05-03T06:47:22.031Z</time></trkpt><trkpt lat="42.3344912" lon="13.4667738"><ele>592.0</ele><time>2026-05-03T06:47:23.03Z</time></trkpt><trkpt lat="42.3345515" lon="13.4665544"><ele>592.0</ele><time>2026-05-03T06:47:24.03Z</time></trkpt><trkpt lat="42.3346134" lon="13.4663322"><ele>592.0</ele><time>2026-05-03T06:47:25.031Z</time></trkpt><trkpt lat="42.3346749" lon="13.4661106"><ele>592.0</ele><time>2026-05-03T06:47:26.03Z</time></trkpt><trkpt lat="42.3347375" lon="13.4658853"><ele>592.6666666666667</ele><time>2026-05-03T06:47:27.03Z</time></trkpt><trkpt lat="42.3347918" lon="13.465664"><ele>593.3333333333334</ele><time>2026-05-03T06:47:28.03Z</time></trkpt><trkpt lat="42.3348456" lon="13.4654561"><ele>594.0</ele><time>2026-05-03T06:47:29.03Z</time></trkpt><trkpt lat="42.334906" lon="13.465242"><ele>594.0</ele><time>2026-05-03T06:47:30.03Z</time></trkpt><trkpt lat="42.3349699" lon="13.4650251"><ele>594.0</ele><time>2026-05-03T06:47:31.03Z</time></trkpt><trkpt lat="42.3350327" lon="13.4648081"><ele>594.0</ele><time>2026-05-03T06:47:32.03Z</time></trkpt><trkpt lat="42.3350964" lon="13.4645895"><ele>594.3333333333334</ele><time>2026-05-03T06:47:33.03Z</time></trkpt><trkpt lat="42.3351601" lon="13.4643689"><ele>594.6666666666667</ele><time>2026-05-03T06:47:34.03Z</time></trkpt><trkpt lat="42.3352215" lon="13.4641455"><ele>595.0</ele><time>2026-05-03T06:47:35.03Z</time></trkpt><trkpt lat="42.3352855" lon="13.4639171"><ele>594.6666666666667</ele><time>2026-05-03T06:47:36.03Z</time></trkpt><trkpt lat="42.335348" lon="13.4636919"><ele>594.3333333333334</ele><time>2026-05-03T06:47:37.03Z</time></trkpt><trkpt lat="42.3354114" lon="13.4634655"><ele>594.0</ele><time>2026-05-03T06:47:38.03Z</time></trkpt><trkpt lat="42.3354755" lon="13.4632421"><ele>594.0</ele><time>2026-05-03T06:47:39.03Z</time></trkpt><trkpt lat="42.3355354" lon="13.4630267"><ele>594.0</ele><time>2026-05-03T06:47:40.03Z</time></trkpt><trkpt lat="42.3355936" lon="13.4628075"><ele>594.0</ele><time>2026-05-03T06:47:41.03Z</time></trkpt><trkpt lat="42.3356523" lon="13.4625856"><ele>594.0</ele><time>2026-05-03T06:47:42.03Z</time></trkpt><trkpt lat="42.3357143" lon="13.4623673"><ele>594.0</ele><time>2026-05-03T06:47:43.03Z</time></trkpt><trkpt lat="42.3357759" lon="13.4621486"><ele>594.0</ele><time>2026-05-03T06:47:44.03Z</time></trkpt><trkpt lat="42.3358365" lon="13.4619293"><ele>594.0</ele><time>2026-05-03T06:47:45.029Z</time></trkpt><trkpt lat="42.3358952" lon="13.4617113"><ele>594.0</ele><time>2026-05-03T06:47:46.03Z</time></trkpt><trkpt lat="42.3359542" lon="13.4614937"><ele>594.0</ele><time>2026-05-03T06:47:47.029Z</time></trkpt><trkpt lat="42.3360123" lon="13.4612767"><ele>594.0</ele><time>2026-05-03T06:47:48.03Z</time></trkpt><trkpt lat="42.336068" lon="13.4610556"><ele>594.0</ele><time>2026-05-03T06:47:49.03Z</time></trkpt><trkpt lat="42.3361268" lon="13.4608358"><ele>594.0</ele><time>2026-05-03T06:47:50.03Z</time></trkpt><trkpt lat="42.3361847" lon="13.460617"><ele>593.3333333333334</ele><time>2026-05-03T06:47:51.03Z</time></trkpt><trkpt lat="42.3362429" lon="13.4604048"><ele>592.6666666666667</ele><time>2026-05-03T06:47:52.03Z</time></trkpt><trkpt lat="42.3362998" lon="13.4602026"><ele>592.0</ele><time>2026-05-03T06:47:53.03Z</time></trkpt><trkpt lat="42.3363504" lon="13.4600056"><ele>592.75</ele><time>2026-05-03T06:47:54.03Z</time></trkpt><trkpt lat="42.3364047" lon="13.4598189"><ele>593.5</ele><time>2026-05-03T06:47:55.03Z</time></trkpt><trkpt lat="42.336457" lon="13.4596375"><ele>594.25</ele><time>2026-05-03T06:47:56.03Z</time></trkpt><trkpt lat="42.3365061" lon="13.4594559"><ele>595.0</ele><time>2026-05-03T06:47:57.03Z</time></trkpt><trkpt lat="42.3365552" lon="13.4592729"><ele>595.0</ele><time>2026-05-03T06:47:58.03Z</time></trkpt><trkpt lat="42.3366029" lon="13.4591015"><ele>595.0</ele><time>2026-05-03T06:47:59.03Z</time></trkpt><trkpt lat="42.3366492" lon="13.4589319"><ele>595.0</ele><time>2026-05-03T06:48:00.031Z</time></trkpt><trkpt lat="42.3366939" lon="13.4587757"><ele>595.0</ele><time>2026-05-03T06:48:01.03Z</time></trkpt><trkpt lat="42.3367353" lon="13.4586279"><ele>595.0</ele><time>2026-05-03T06:48:02.03Z</time></trkpt><trkpt lat="42.3367766" lon="13.4584883"><ele>595.0</ele><time>2026-05-03T06:48:03.03Z</time></trkpt><trkpt lat="42.3368135" lon="13.4583579"><ele>595.0</ele><time>2026-05-03T06:48:04.03Z</time></trkpt><trkpt lat="42.3368486" lon="13.4582356"><ele>595.0</ele><time>2026-05-03T06:48:05.03Z</time></trkpt><trkpt lat="42.3368798" lon="13.4581212"><ele>595.0</ele><time>2026-05-03T06:48:06.03Z</time></trkpt><trkpt lat="42.3369097" lon="13.4580219"><ele>595.1428571428571</ele><time>2026-05-03T06:48:07.03Z</time></trkpt><trkpt lat="42.3369406" lon="13.457939"><ele>595.2857142857142</ele><time>2026-05-03T06:48:08.03Z</time></trkpt><trkpt lat="42.3369827" lon="13.4578633"><ele>595.4285714285714</ele><time>2026-05-03T06:48:09.03Z</time></trkpt><trkpt lat="42.337031" lon="13.457791"><ele>595.5714285714286</ele><time>2026-05-03T06:48:10.03Z</time></trkpt><trkpt lat="42.3370876" lon="13.4577225"><ele>595.7142857142857</ele><time>2026-05-03T06:48:11.03Z</time></trkpt><trkpt lat="42.3371364" lon="13.4576502"><ele>595.8571428571429</ele><time>2026-05-03T06:48:12.03Z</time></trkpt><trkpt lat="42.337171" lon="13.4575762"><ele>596.0</ele><time>2026-05-03T06:48:13.03Z</time></trkpt><trkpt lat="42.3371954" lon="13.457414"><ele>596.0</ele><time>2026-05-03T06:48:15.03Z</time></trkpt><trkpt lat="42.3371833" lon="13.4573231"><ele>596.0</ele><time>2026-05-03T06:48:16.03Z</time></trkpt><trkpt lat="42.3371766" lon="13.4572284"><ele>596.0</ele><time>2026-05-03T06:48:17.029Z</time></trkpt><trkpt lat="42.3371824" lon="13.4571232"><ele>596.0</ele><time>2026-05-03T06:48:18.03Z</time></trkpt><trkpt lat="42.337197" lon="13.4570098"><ele>596.0</ele><time>2026-05-03T06:48:19.03Z</time></trkpt><trkpt lat="42.3372154" lon="13.456888"><ele>596.0</ele><time>2026-05-03T06:48:20.03Z</time></trkpt><trkpt lat="42.3372364" lon="13.4567581"><ele>596.0</ele><time>2026-05-03T06:48:21.03Z</time></trkpt><trkpt lat="42.3372597" lon="13.4566225"><ele>596.0</ele><time>2026-05-03T06:48:22.03Z</time></trkpt><trkpt lat="42.3372808" lon="13.4564895"><ele>596.0</ele><time>2026-05-03T06:48:23.029Z</time></trkpt><trkpt lat="42.3372965" lon="13.4563636"><ele>596.0</ele><time>2026-05-03T06:48:24.03Z</time></trkpt><trkpt lat="42.3373073" lon="13.4562532"><ele>596.0</ele><time>2026-05-03T06:48:25.03Z</time></trkpt><trkpt lat="42.3373158" lon="13.4561513"><ele>596.8</ele><time>2026-05-03T06:48:26.03Z</time></trkpt><trkpt lat="42.3373219" lon="13.4560649"><ele>597.6</ele><time>2026-05-03T06:48:27.03Z</time></trkpt><trkpt lat="42.3373322" lon="13.4559132"><ele>598.4</ele><time>2026-05-03T06:48:29.03Z</time></trkpt><trkpt lat="42.3373322" lon="13.4557984"><ele>599.2</ele><time>2026-05-03T06:48:31.03Z</time></trkpt><trkpt lat="42.3373245" lon="13.4556941"><ele>600.0</ele><time>2026-05-03T06:48:34.031Z</time></trkpt><trkpt lat="42.3373005" lon="13.455542"><ele>599.2</ele><time>2026-05-03T06:49:28.03Z</time></trkpt><trkpt lat="42.3372716" lon="13.4553588"><ele>598.4</ele><time>2026-05-03T06:49:30.03Z</time></trkpt><trkpt lat="42.3372513" lon="13.4552393"><ele>597.6</ele><time>2026-05-03T06:49:31.03Z</time></trkpt><trkpt lat="42.3372259" lon="13.455107"><ele>596.8</ele><time>2026-05-03T06:49:32.031Z</time></trkpt><trkpt lat="42.3371997" lon="13.4549645"><ele>596.0</ele><time>2026-05-03T06:49:33.03Z</time></trkpt><trkpt lat="42.3371705" lon="13.4548192"><ele>596.0</ele><time>2026-05-03T06:49:34.03Z</time></trkpt><trkpt lat="42.3371445" lon="13.4546881"><ele>596.0</ele><time>2026-05-03T06:49:35.03Z</time></trkpt><trkpt lat="42.337123" lon="13.4545685"><ele>596.0</ele><time>2026-05-03T06:49:36.03Z</time></trkpt><trkpt lat="42.3371045" lon="13.4544634"><ele>596.0</ele><time>2026-05-03T06:49:37.03Z</time></trkpt><trkpt lat="42.3370903" lon="13.4543695"><ele>596.0</ele><time>2026-05-03T06:49:38.03Z</time></trkpt><trkpt lat="42.3370778" lon="13.4542849"><ele>596.0</ele><time>2026-05-03T06:49:39.03Z</time></trkpt><trkpt lat="42.3370615" lon="13.4541503"><ele>596.6</ele><time>2026-05-03T06:49:41.029Z</time></trkpt><trkpt lat="42.3370466" lon="13.4540606"><ele>597.2</ele><time>2026-05-03T06:49:43.03Z</time></trkpt><trkpt lat="42.336994" lon="13.4541316"><ele>597.8</ele><time>2026-05-03T06:49:51.03Z</time></trkpt><trkpt lat="42.3370389" lon="13.4542962"><ele>598.4</ele><time>2026-05-03T06:49:53.03Z</time></trkpt><trkpt lat="42.3370663" lon="13.4544026"><ele>599.0</ele><time>2026-05-03T06:49:54.03Z</time></trkpt><trkpt lat="42.337095" lon="13.4545253"><ele>598.25</ele><time>2026-05-03T06:49:55.03Z</time></trkpt><trkpt lat="42.3371221" lon="13.4546644"><ele>597.5</ele><time>2026-05-03T06:49:56.03Z</time></trkpt><trkpt lat="42.3371514" lon="13.4548143"><ele>596.75</ele><time>2026-05-03T06:49:57.03Z</time></trkpt><trkpt lat="42.3371826" lon="13.4549707"><ele>596.0</ele><time>2026-05-03T06:49:58.03Z</time></trkpt><trkpt lat="42.3372137" lon="13.4551316"><ele>597.0</ele><time>2026-05-03T06:49:59.03Z</time></trkpt><trkpt lat="42.3372443" lon="13.4552998"><ele>598.0</ele><time>2026-05-03T06:50:00.03Z</time></trkpt><trkpt lat="42.3372701" lon="13.4554669"><ele>599.0</ele><time>2026-05-03T06:50:01.03Z</time></trkpt><trkpt lat="42.3372915" lon="13.4556306"><ele>600.0</ele><time>2026-05-03T06:50:02.03Z</time></trkpt><trkpt lat="42.3373057" lon="13.4557915"><ele>600.0</ele><time>2026-05-03T06:50:03.03Z</time></trkpt><trkpt lat="42.3373122" lon="13.4559528"><ele>600.0</ele><time>2026-05-03T06:50:04.029Z</time></trkpt><trkpt lat="42.3373039" lon="13.4561141"><ele>600.0</ele><time>2026-05-03T06:50:05.03Z</time></trkpt><trkpt lat="42.3372903" lon="13.4562802"><ele>600.0</ele><time>2026-05-03T06:50:06.03Z</time></trkpt><trkpt lat="42.3372721" lon="13.4564462"><ele>599.2</ele><time>2026-05-03T06:50:07.03Z</time></trkpt><trkpt lat="42.3372459" lon="13.4566054"><ele>598.4</ele><time>2026-05-03T06:50:08.03Z</time></trkpt><trkpt lat="42.3372188" lon="13.4567513"><ele>597.6</ele><time>2026-05-03T06:50:09.03Z</time></trkpt><trkpt lat="42.3371877" lon="13.4568836"><ele>596.8</ele><time>2026-05-03T06:50:10.03Z</time></trkpt><trkpt lat="42.337152" lon="13.4569978"><ele>596.0</ele><time>2026-05-03T06:50:11.029Z</time></trkpt><trkpt lat="42.33711" lon="13.4570979"><ele>596.0</ele><time>2026-05-03T06:50:12.032Z</time></trkpt><trkpt lat="42.3370564" lon="13.4571896"><ele>596.0</ele><time>2026-05-03T06:50:13.03Z</time></trkpt><trkpt lat="42.3369982" lon="13.4572726"><ele>596.0</ele><time>2026-05-03T06:50:14.03Z</time></trkpt><trkpt lat="42.3369477" lon="13.4573574"><ele>596.0</ele><time>2026-05-03T06:50:15.03Z</time></trkpt><trkpt lat="42.336923" lon="13.4574493"><ele>596.0</ele><time>2026-05-03T06:50:16.03Z</time></trkpt><trkpt lat="42.3369162" lon="13.457549"><ele>596.0</ele><time>2026-05-03T06:50:17.03Z</time></trkpt><trkpt lat="42.3369255" lon="13.4576581"><ele>596.0</ele><time>2026-05-03T06:50:18.03Z</time></trkpt><trkpt lat="42.3369356" lon="13.4577754"><ele>596.0</ele><time>2026-05-03T06:50:19.031Z</time></trkpt><trkpt lat="42.3369264" lon="13.4579009"><ele>596.0</ele><time>2026-05-03T06:50:20.03Z</time></trkpt><trkpt lat="42.3368957" lon="13.4580348"><ele>596.0</ele><time>2026-05-03T06:50:21.03Z</time></trkpt><trkpt lat="42.3368552" lon="13.4581804"><ele>596.0</ele><time>2026-05-03T06:50:22.03Z</time></trkpt><trkpt lat="42.3368125" lon="13.4583375"><ele>595.75</ele><time>2026-05-03T06:50:23.03Z</time></trkpt><trkpt lat="42.3367697" lon="13.4585044"><ele>595.5</ele><time>2026-05-03T06:50:24.03Z</time></trkpt><trkpt lat="42.3367216" lon="13.4586821"><ele>595.25</ele><time>2026-05-03T06:50:25.03Z</time></trkpt><trkpt lat="42.3366699" lon="13.4588644"><ele>595.0</ele><time>2026-05-03T06:50:26.03Z</time></trkpt><trkpt lat="42.3366161" lon="13.4590561"><ele>595.0</ele><time>2026-05-03T06:50:27.03Z</time></trkpt><trkpt lat="42.3365625" lon="13.459254"><ele>595.0</ele><time>2026-05-03T06:50:28.03Z</time></trkpt><trkpt lat="42.336507" lon="13.4594588"><ele>595.0</ele><time>2026-05-03T06:50:29.03Z</time></trkpt><trkpt lat="42.33645" lon="13.4596696"><ele>595.3333333333334</ele><time>2026-05-03T06:50:30.03Z</time></trkpt><trkpt lat="42.3363904" lon="13.4598859"><ele>595.6666666666666</ele><time>2026-05-03T06:50:31.03Z</time></trkpt><trkpt lat="42.3363299" lon="13.4601072"><ele>596.0</ele><time>2026-05-03T06:50:32.03Z</time></trkpt><trkpt lat="42.336267" lon="13.4603321"><ele>595.3333333333333</ele><time>2026-05-03T06:50:33.031Z</time></trkpt><trkpt lat="42.3362038" lon="13.4605565"><ele>594.6666666666666</ele><time>2026-05-03T06:50:34.03Z</time></trkpt><trkpt lat="42.3361421" lon="13.4607787"><ele>594.0</ele><time>2026-05-03T06:50:35.03Z</time></trkpt><trkpt lat="42.3360848" lon="13.4609925"><ele>594.0</ele><time>2026-05-03T06:50:36.03Z</time></trkpt><trkpt lat="42.336027" lon="13.4612027"><ele>594.0</ele><time>2026-05-03T06:50:37.031Z</time></trkpt><trkpt lat="42.335969" lon="13.4614084"><ele>594.0</ele><time>2026-05-03T06:50:38.03Z</time></trkpt><trkpt lat="42.3359135" lon="13.4616139"><ele>594.0</ele><time>2026-05-03T06:50:39.03Z</time></trkpt><trkpt lat="42.3358573" lon="13.4618197"><ele>594.0</ele><time>2026-05-03T06:50:40.03Z</time></trkpt><trkpt lat="42.335802" lon="13.4620236"><ele>594.0</ele><time>2026-05-03T06:50:41.03Z</time></trkpt><trkpt lat="42.3357414" lon="13.4622266"><ele>595.0</ele><time>2026-05-03T06:50:42.03Z</time></trkpt><trkpt lat="42.3356848" lon="13.4624358"><ele>596.0</ele><time>2026-05-03T06:50:43.03Z</time></trkpt><trkpt lat="42.3356249" lon="13.4626443"><ele>597.0</ele><time>2026-05-03T06:50:44.03Z</time></trkpt><trkpt lat="42.3355669" lon="13.4628472"><ele>596.0</ele><time>2026-05-03T06:50:45.03Z</time></trkpt><trkpt lat="42.3355115" lon="13.463056"><ele>595.0</ele><time>2026-05-03T06:50:46.03Z</time></trkpt><trkpt lat="42.335454" lon="13.4632621"><ele>594.0</ele><time>2026-05-03T06:50:47.03Z</time></trkpt><trkpt lat="42.335393" lon="13.4634692"><ele>594.0</ele><time>2026-05-03T06:50:48.031Z</time></trkpt><trkpt lat="42.3353361" lon="13.4636776"><ele>594.0</ele><time>2026-05-03T06:50:49.03Z</time></trkpt><trkpt lat="42.3352827" lon="13.463884"><ele>594.0</ele><time>2026-05-03T06:50:50.03Z</time></trkpt><trkpt lat="42.3352272" lon="13.4640893"><ele>594.0</ele><time>2026-05-03T06:50:51.03Z</time></trkpt><trkpt lat="42.3351711" lon="13.4642952"><ele>594.0</ele><time>2026-05-03T06:50:52.03Z</time></trkpt><trkpt lat="42.3351144" lon="13.4645001"><ele>594.0</ele><time>2026-05-03T06:50:53.03Z</time></trkpt><trkpt lat="42.3350579" lon="13.464705"><ele>594.0</ele><time>2026-05-03T06:50:54.03Z</time></trkpt><trkpt lat="42.3350009" lon="13.4649071"><ele>594.0</ele><time>2026-05-03T06:50:55.029Z</time></trkpt><trkpt lat="42.3349448" lon="13.4651103"><ele>594.0</ele><time>2026-05-03T06:50:56.03Z</time></trkpt><trkpt lat="42.3348897" lon="13.4653138"><ele>594.0</ele><time>2026-05-03T06:50:57.03Z</time></trkpt><trkpt lat="42.3348303" lon="13.4655117"><ele>594.0</ele><time>2026-05-03T06:50:58.03Z</time></trkpt><trkpt lat="42.3347759" lon="13.4657139"><ele>594.0</ele><time>2026-05-03T06:50:59.03Z</time></trkpt><trkpt lat="42.334719" lon="13.4659141"><ele>593.3333333333334</ele><time>2026-05-03T06:51:00.03Z</time></trkpt><trkpt lat="42.3346658" lon="13.4661129"><ele>592.6666666666667</ele><time>2026-05-03T06:51:01.03Z</time></trkpt><trkpt lat="42.3346123" lon="13.4663181"><ele>592.0</ele><time>2026-05-03T06:51:02.029Z</time></trkpt><trkpt lat="42.3345581" lon="13.4665216"><ele>592.0</ele><time>2026-05-03T06:51:03.03Z</time></trkpt><trkpt lat="42.3345032" lon="13.466721"><ele>592.0</ele><time>2026-05-03T06:51:04.03Z</time></trkpt><trkpt lat="42.3344465" lon="13.4669222"><ele>592.0</ele><time>2026-05-03T06:51:05.03Z</time></trkpt><trkpt lat="42.3343891" lon="13.4671289"><ele>591.6666666666667</ele><time>2026-05-03T06:51:06.03Z</time></trkpt><trkpt lat="42.3343317" lon="13.4673356"><ele>591.3333333333334</ele><time>2026-05-03T06:51:07.03Z</time></trkpt><trkpt lat="42.3342758" lon="13.4675364"><ele>591.0</ele><time>2026-05-03T06:51:08.03Z</time></trkpt><trkpt lat="42.3342209" lon="13.4677402"><ele>591.6666666666666</ele><time>2026-05-03T06:51:09.03Z</time></trkpt><trkpt lat="42.3341652" lon="13.4679436"><ele>592.3333333333333</ele><time>2026-05-03T06:51:10.03Z</time></trkpt><trkpt lat="42.3341051" lon="13.4681512"><ele>593.0</ele><time>2026-05-03T06:51:11.03Z</time></trkpt><trkpt lat="42.334044" lon="13.4683551"><ele>593.0</ele><time>2026-05-03T06:51:12.03Z</time></trkpt><trkpt lat="42.3339854" lon="13.4685608"><ele>593.0</ele><time>2026-05-03T06:51:13.03Z</time></trkpt><trkpt lat="42.3339258" lon="13.4687681"><ele>593.0</ele><time>2026-05-03T06:51:14.03Z</time></trkpt><trkpt lat="42.3338684" lon="13.4689642"><ele>592.5</ele><time>2026-05-03T06:51:15.03Z</time></trkpt><trkpt lat="42.3338166" lon="13.4691536"><ele>592.0</ele><time>2026-05-03T06:51:16.03Z</time></trkpt><trkpt lat="42.3337633" lon="13.4693396"><ele>591.5</ele><time>2026-05-03T06:51:17.03Z</time></trkpt><trkpt lat="42.3337154" lon="13.4695234"><ele>591.0</ele><time>2026-05-03T06:51:18.029Z</time></trkpt><trkpt lat="42.3336685" lon="13.4696924"><ele>591.0</ele><time>2026-05-03T06:51:19.03Z</time></trkpt><trkpt lat="42.3336264" lon="13.4698587"><ele>591.0</ele><time>2026-05-03T06:51:20.03Z</time></trkpt><trkpt lat="42.3335873" lon="13.4700159"><ele>591.0</ele><time>2026-05-03T06:51:21.03Z</time></trkpt><trkpt lat="42.3335502" lon="13.4701614"><ele>591.0</ele><time>2026-05-03T06:51:22.03Z</time></trkpt><trkpt lat="42.3335245" lon="13.470299"><ele>591.0</ele><time>2026-05-03T06:51:23.03Z</time></trkpt><trkpt lat="42.3335024" lon="13.4704271"><ele>591.0</ele><time>2026-05-03T06:51:24.03Z</time></trkpt><trkpt lat="42.3334894" lon="13.4705337"><ele>591.0</ele><time>2026-05-03T06:51:25.03Z</time></trkpt><trkpt lat="42.3334746" lon="13.4706326"><ele>591.0</ele><time>2026-05-03T06:51:26.03Z</time></trkpt><trkpt lat="42.3334529" lon="13.4707243"><ele>591.0</ele><time>2026-05-03T06:51:27.03Z</time></trkpt><trkpt lat="42.3334256" lon="13.4708212"><ele>591.0</ele><time>2026-05-03T06:51:28.03Z</time></trkpt><trkpt lat="42.3333936" lon="13.4709296"><ele>591.2</ele><time>2026-05-03T06:51:29.031Z</time></trkpt><trkpt lat="42.333363" lon="13.4710474"><ele>591.4000000000001</ele><time>2026-05-03T06:51:30.03Z</time></trkpt><trkpt lat="42.3333327" lon="13.4711814"><ele>591.6</ele><time>2026-05-03T06:51:31.03Z</time></trkpt><trkpt lat="42.3332966" lon="13.4713251"><ele>591.8000000000001</ele><time>2026-05-03T06:51:32.03Z</time></trkpt><trkpt lat="42.333251" lon="13.4714761"><ele>592.0</ele><time>2026-05-03T06:51:33.03Z</time></trkpt><trkpt lat="42.3331955" lon="13.4716279"><ele>591.75</ele><time>2026-05-03T06:51:34.031Z</time></trkpt><trkpt lat="42.3331394" lon="13.4717925"><ele>591.5</ele><time>2026-05-03T06:51:35.03Z</time></trkpt><trkpt lat="42.3330848" lon="13.4719663"><ele>591.25</ele><time>2026-05-03T06:51:36.03Z</time></trkpt><trkpt lat="42.3330337" lon="13.4721449"><ele>591.0</ele><time>2026-05-03T06:51:37.03Z</time></trkpt><trkpt lat="42.3329842" lon="13.472331"><ele>591.0</ele><time>2026-05-03T06:51:38.03Z</time></trkpt><trkpt lat="42.3329345" lon="13.4725236"><ele>591.0</ele><time>2026-05-03T06:51:39.03Z</time></trkpt><trkpt lat="42.3328822" lon="13.4727205"><ele>591.0</ele><time>2026-05-03T06:51:40.031Z</time></trkpt><trkpt lat="42.3328306" lon="13.4729237"><ele>591.6666666666666</ele><time>2026-05-03T06:51:41.031Z</time></trkpt><trkpt lat="42.3327798" lon="13.4731267"><ele>592.3333333333333</ele><time>2026-05-03T06:51:42.031Z</time></trkpt><trkpt lat="42.3327247" lon="13.4733331"><ele>593.0</ele><time>2026-05-03T06:51:43.031Z</time></trkpt><trkpt lat="42.33267" lon="13.4735434"><ele>593.0</ele><time>2026-05-03T06:51:44.031Z</time></trkpt><trkpt lat="42.3326155" lon="13.4737554"><ele>593.0</ele><time>2026-05-03T06:51:45.031Z</time></trkpt><trkpt lat="42.3325594" lon="13.4739696"><ele>593.0</ele><time>2026-05-03T06:51:46.031Z</time></trkpt><trkpt lat="42.3325057" lon="13.4741821"><ele>593.3333333333333</ele><time>2026-05-03T06:51:47.031Z</time></trkpt><trkpt lat="42.3324502" lon="13.4743945"><ele>593.6666666666666</ele><time>2026-05-03T06:51:48.031Z</time></trkpt><trkpt lat="42.3323936" lon="13.474607"><ele>594.0</ele><time>2026-05-03T06:51:49.031Z</time></trkpt><trkpt lat="42.3323362" lon="13.4748218"><ele>593.3333333333334</ele><time>2026-05-03T06:51:50.031Z</time></trkpt><trkpt lat="42.3322827" lon="13.475033"><ele>592.6666666666667</ele><time>2026-05-03T06:51:51.031Z</time></trkpt><trkpt lat="42.3322303" lon="13.4752498"><ele>592.0</ele><time>2026-05-03T06:51:52.031Z</time></trkpt><trkpt lat="42.3321752" lon="13.4754582"><ele>592.0</ele><time>2026-05-03T06:51:53.031Z</time></trkpt><trkpt lat="42.3321212" lon="13.4756721"><ele>592.0</ele><time>2026-05-03T06:51:54.031Z</time></trkpt><trkpt lat="42.3320653" lon="13.475881"><ele>592.0</ele><time>2026-05-03T06:51:55.031Z</time></trkpt><trkpt lat="42.3320111" lon="13.4760943"><ele>592.0</ele><time>2026-05-03T06:51:56.032Z</time></trkpt><trkpt lat="42.3319528" lon="13.4763062"><ele>592.0</ele><time>2026-05-03T06:51:57.031Z</time></trkpt><trkpt lat="42.3318956" lon="13.4765224"><ele>592.0</ele><time>2026-05-03T06:51:58.031Z</time></trkpt><trkpt lat="42.3318374" lon="13.4767317"><ele>592.0</ele><time>2026-05-03T06:51:59.031Z</time></trkpt><trkpt lat="42.3317811" lon="13.4769369"><ele>592.0</ele><time>2026-05-03T06:52:00.031Z</time></trkpt><trkpt lat="42.3317243" lon="13.4771343"><ele>592.0</ele><time>2026-05-03T06:52:01.031Z</time></trkpt><trkpt lat="42.3316702" lon="13.4773285"><ele>592.0</ele><time>2026-05-03T06:52:02.031Z</time></trkpt><trkpt lat="42.3316164" lon="13.4775185"><ele>592.0</ele><time>2026-05-03T06:52:03.031Z</time></trkpt><trkpt lat="42.3315621" lon="13.4777035"><ele>592.0</ele><time>2026-05-03T06:52:04.031Z</time></trkpt><trkpt lat="42.3315063" lon="13.4778812"><ele>592.0</ele><time>2026-05-03T06:52:05.032Z</time></trkpt><trkpt lat="42.3314525" lon="13.478044"><ele>591.6</ele><time>2026-05-03T06:52:06.031Z</time></trkpt><trkpt lat="42.3314086" lon="13.4781968"><ele>591.2</ele><time>2026-05-03T06:52:07.031Z</time></trkpt><trkpt lat="42.331369" lon="13.4783415"><ele>590.8</ele><time>2026-05-03T06:52:08.031Z</time></trkpt><trkpt lat="42.3313307" lon="13.4784664"><ele>590.4</ele><time>2026-05-03T06:52:09.031Z</time></trkpt><trkpt lat="42.3312906" lon="13.4785729"><ele>590.0</ele><time>2026-05-03T06:52:10.031Z</time></trkpt><trkpt lat="42.331248" lon="13.4786643"><ele>589.8333333333333</ele><time>2026-05-03T06:52:11.032Z</time></trkpt><trkpt lat="42.3312007" lon="13.4787366"><ele>589.6666666666666</ele><time>2026-05-03T06:52:12.031Z</time></trkpt><trkpt lat="42.331153" lon="13.478798"><ele>589.5</ele><time>2026-05-03T06:52:13.031Z</time></trkpt><trkpt lat="42.3310946" lon="13.4789341"><ele>589.3333333333334</ele><time>2026-05-03T06:52:15.031Z</time></trkpt><trkpt lat="42.3310911" lon="13.4790292"><ele>589.1666666666667</ele><time>2026-05-03T06:52:16.032Z</time></trkpt><trkpt lat="42.3310925" lon="13.4791417"><ele>589.0</ele><time>2026-05-03T06:52:17.031Z</time></trkpt><trkpt lat="42.3310783" lon="13.4792682"><ele>589.0</ele><time>2026-05-03T06:52:18.031Z</time></trkpt><trkpt lat="42.3310468" lon="13.479404"><ele>589.0</ele><time>2026-05-03T06:52:19.031Z</time></trkpt><trkpt lat="42.3310055" lon="13.4795523"><ele>589.0</ele><time>2026-05-03T06:52:20.031Z</time></trkpt><trkpt lat="42.3309608" lon="13.4797092"><ele>589.0</ele><time>2026-05-03T06:52:21.031Z</time></trkpt><trkpt lat="42.3309122" lon="13.4798783"><ele>588.75</ele><time>2026-05-03T06:52:22.031Z</time></trkpt><trkpt lat="42.3308602" lon="13.4800572"><ele>588.5</ele><time>2026-05-03T06:52:23.031Z</time></trkpt><trkpt lat="42.3308039" lon="13.480245"><ele>588.25</ele><time>2026-05-03T06:52:24.031Z</time></trkpt><trkpt lat="42.3307446" lon="13.4804398"><ele>588.0</ele><time>2026-05-03T06:52:25.031Z</time></trkpt><trkpt lat="42.3306849" lon="13.4806402"><ele>587.6666666666666</ele><time>2026-05-03T06:52:26.031Z</time></trkpt><trkpt lat="42.3306247" lon="13.480846"><ele>587.3333333333333</ele><time>2026-05-03T06:52:27.031Z</time></trkpt><trkpt lat="42.3305642" lon="13.4810559"><ele>587.0</ele><time>2026-05-03T06:52:28.031Z</time></trkpt><trkpt lat="42.3305049" lon="13.4812628"><ele>585.6666666666666</ele><time>2026-05-03T06:52:29.031Z</time></trkpt><trkpt lat="42.3304461" lon="13.4814614"><ele>584.3333333333334</ele><time>2026-05-03T06:52:30.032Z</time></trkpt><trkpt lat="42.3303913" lon="13.4816481"><ele>583.0</ele><time>2026-05-03T06:52:31.031Z</time></trkpt><trkpt lat="42.3303363" lon="13.4818302"><ele>583.0</ele><time>2026-05-03T06:52:32.031Z</time></trkpt><trkpt lat="42.3302831" lon="13.4820048"><ele>583.0</ele><time>2026-05-03T06:52:33.031Z</time></trkpt><trkpt lat="42.3302325" lon="13.4821762"><ele>583.0</ele><time>2026-05-03T06:52:34.031Z</time></trkpt><trkpt lat="42.3301823" lon="13.4823447"><ele>583.0</ele><time>2026-05-03T06:52:35.031Z</time></trkpt><trkpt lat="42.3301293" lon="13.4825073"><ele>583.0</ele><time>2026-05-03T06:52:36.031Z</time></trkpt><trkpt lat="42.3300803" lon="13.4826753"><ele>583.0</ele><time>2026-05-03T06:52:37.031Z</time></trkpt><trkpt lat="42.3300277" lon="13.4828487"><ele>583.0</ele><time>2026-05-03T06:52:38.031Z</time></trkpt><trkpt lat="42.3299757" lon="13.4830286"><ele>583.0</ele><time>2026-05-03T06:52:39.032Z</time></trkpt><trkpt lat="42.3299237" lon="13.4832022"><ele>583.0</ele><time>2026-05-03T06:52:40.031Z</time></trkpt><trkpt lat="42.3298705" lon="13.4833739"><ele>583.0</ele><time>2026-05-03T06:52:41.032Z</time></trkpt><trkpt lat="42.3298209" lon="13.4835426"><ele>583.0</ele><time>2026-05-03T06:52:42.031Z</time></trkpt><trkpt lat="42.3297714" lon="13.4837124"><ele>583.0</ele><time>2026-05-03T06:52:43.031Z</time></trkpt><trkpt lat="42.3297187" lon="13.4838829"><ele>582.5</ele><time>2026-05-03T06:52:44.031Z</time></trkpt><trkpt lat="42.3296644" lon="13.4840569"><ele>582.0</ele><time>2026-05-03T06:52:45.031Z</time></trkpt><trkpt lat="42.3296098" lon="13.4842379"><ele>581.5</ele><time>2026-05-03T06:52:46.031Z</time></trkpt><trkpt lat="42.3295564" lon="13.4844246"><ele>581.0</ele><time>2026-05-03T06:52:47.03Z</time></trkpt><trkpt lat="42.329497" lon="13.4846213"><ele>580.6666666666666</ele><time>2026-05-03T06:52:48.031Z</time></trkpt><trkpt lat="42.3294363" lon="13.4848238"><ele>580.3333333333334</ele><time>2026-05-03T06:52:49.03Z</time></trkpt><trkpt lat="42.329376" lon="13.4850268"><ele>580.0</ele><time>2026-05-03T06:52:50.031Z</time></trkpt><trkpt lat="42.3293133" lon="13.4852363"><ele>580.3333333333334</ele><time>2026-05-03T06:52:51.031Z</time></trkpt><trkpt lat="42.329249" lon="13.48545"><ele>580.6666666666666</ele><time>2026-05-03T06:52:52.031Z</time></trkpt><trkpt lat="42.3291841" lon="13.4856641"><ele>581.0</ele><time>2026-05-03T06:52:53.031Z</time></trkpt><trkpt lat="42.329119" lon="13.4858819"><ele>581.0</ele><time>2026-05-03T06:52:54.031Z</time></trkpt><trkpt lat="42.3290534" lon="13.4861014"><ele>581.0</ele><time>2026-05-03T06:52:55.031Z</time></trkpt><trkpt lat="42.3289861" lon="13.4863278"><ele>581.0</ele><time>2026-05-03T06:52:56.031Z</time></trkpt><trkpt lat="42.3289182" lon="13.4865545"><ele>580.3333333333333</ele><time>2026-05-03T06:52:57.031Z</time></trkpt><trkpt lat="42.3288519" lon="13.4867794"><ele>579.6666666666666</ele><time>2026-05-03T06:52:58.031Z</time></trkpt><trkpt lat="42.328784" lon="13.4870088"><ele>579.0</ele><time>2026-05-03T06:52:59.031Z</time></trkpt><trkpt lat="42.3287155" lon="13.4872364"><ele>578.6666666666666</ele><time>2026-05-03T06:53:00.031Z</time></trkpt><trkpt lat="42.3286497" lon="13.4874486"><ele>578.3333333333333</ele><time>2026-05-03T06:53:01.031Z</time></trkpt><trkpt lat="42.3285904" lon="13.4876317"><ele>578.0</ele><time>2026-05-03T06:53:02.031Z</time></trkpt><trkpt lat="42.3285372" lon="13.4878091"><ele>578.0</ele><time>2026-05-03T06:53:03.032Z</time></trkpt><trkpt lat="42.3284869" lon="13.4879832"><ele>578.0</ele><time>2026-05-03T06:53:04.031Z</time></trkpt><trkpt lat="42.3284355" lon="13.488152"><ele>578.0</ele><time>2026-05-03T06:53:05.03Z</time></trkpt><trkpt lat="42.3283948" lon="13.4883112"><ele>578.0</ele><time>2026-05-03T06:53:06.031Z</time></trkpt><trkpt lat="42.3283543" lon="13.488453"><ele>578.0</ele><time>2026-05-03T06:53:07.031Z</time></trkpt><trkpt lat="42.3283211" lon="13.4885701"><ele>578.0</ele><time>2026-05-03T06:53:08.03Z</time></trkpt><trkpt lat="42.3282988" lon="13.4886512"><ele>578.0</ele><time>2026-05-03T06:53:09.031Z</time></trkpt><trkpt lat="42.3283042" lon="13.4887394"><ele>578.0</ele><time>2026-05-03T06:53:11.031Z</time></trkpt><trkpt lat="42.3283688" lon="13.4887337"><ele>578.0</ele><time>2026-05-03T06:53:14.031Z</time></trkpt><trkpt lat="42.328405" lon="13.4886599"><ele>578.0</ele><time>2026-05-03T06:53:16.031Z</time></trkpt><trkpt lat="42.3284168" lon="13.4885294"><ele>578.0</ele><time>2026-05-03T06:53:18.031Z</time></trkpt><trkpt lat="42.3284302" lon="13.4883938"><ele>578.0</ele><time>2026-05-03T06:53:20.03Z</time></trkpt><trkpt lat="42.328466" lon="13.4882399"><ele>578.0</ele><time>2026-05-03T06:53:22.031Z</time></trkpt><trkpt lat="42.3284929" lon="13.4881497"><ele>578.0</ele><time>2026-05-03T06:53:23.031Z</time></trkpt><trkpt lat="42.3285291" lon="13.4880548"><ele>578.0</ele><time>2026-05-03T06:53:24.031Z</time></trkpt><trkpt lat="42.328558" lon="13.4879747"><ele>578.0</ele><time>2026-05-03T06:53:25.031Z</time></trkpt><trkpt lat="42.3286033" lon="13.4878513"><ele>578.0</ele><time>2026-05-03T06:53:27.032Z</time></trkpt><trkpt lat="42.3286233" lon="13.4877538"><ele>578.0</ele><time>2026-05-03T06:53:30.031Z</time></trkpt><trkpt lat="42.3285977" lon="13.4876445"><ele>578.0</ele><time>2026-05-03T06:59:40.031Z</time></trkpt><trkpt lat="42.3286427" lon="13.487488"><ele>578.0</ele><time>2026-05-03T06:59:42.031Z</time></trkpt><trkpt lat="42.3286717" lon="13.487386"><ele>578.0</ele><time>2026-05-03T06:59:43.031Z</time></trkpt><trkpt lat="42.3287041" lon="13.4872692"><ele>578.0</ele><time>2026-05-03T06:59:44.031Z</time></trkpt><trkpt lat="42.3287407" lon="13.4871434"><ele>578.0</ele><time>2026-05-03T06:59:45.031Z</time></trkpt><trkpt lat="42.3287824" lon="13.4870066"><ele>578.0</ele><time>2026-05-03T06:59:46.031Z</time></trkpt><trkpt lat="42.328826" lon="13.4868582"><ele>578.0</ele><time>2026-05-03T06:59:47.031Z</time></trkpt><trkpt lat="42.3288699" lon="13.4867018"><ele>578.25</ele><time>2026-05-03T06:59:48.03Z</time></trkpt><trkpt lat="42.3289169" lon="13.4865402"><ele>578.5</ele><time>2026-05-03T06:59:49.031Z</time></trkpt><trkpt lat="42.3289691" lon="13.4863695"><ele>578.75</ele><time>2026-05-03T06:59:50.031Z</time></trkpt><trkpt lat="42.3290224" lon="13.4861932"><ele>579.0</ele><time>2026-05-03T06:59:51.031Z</time></trkpt><trkpt lat="42.3290763" lon="13.4860123"><ele>579.6666666666666</ele><time>2026-05-03T06:59:52.031Z</time></trkpt><trkpt lat="42.329133" lon="13.4858258"><ele>580.3333333333333</ele><time>2026-05-03T06:59:53.032Z</time></trkpt><trkpt lat="42.3291923" lon="13.4856375"><ele>581.0</ele><time>2026-05-03T06:59:54.031Z</time></trkpt><trkpt lat="42.3292525" lon="13.4854435"><ele>580.6666666666666</ele><time>2026-05-03T06:59:55.03Z</time></trkpt><trkpt lat="42.3293143" lon="13.4852453"><ele>580.3333333333334</ele><time>2026-05-03T06:59:56.031Z</time></trkpt><trkpt lat="42.3293736" lon="13.4850412"><ele>580.0</ele><time>2026-05-03T06:59:57.031Z</time></trkpt><trkpt lat="42.32944" lon="13.4848439"><ele>580.0</ele><time>2026-05-03T06:59:58.031Z</time></trkpt><trkpt lat="42.3295043" lon="13.4846435"><ele>580.0</ele><time>2026-05-03T06:59:59.032Z</time></trkpt><trkpt lat="42.3295644" lon="13.4844375"><ele>580.0</ele><time>2026-05-03T07:00:00.031Z</time></trkpt><trkpt lat="42.3296264" lon="13.4842325"><ele>580.3333333333334</ele><time>2026-05-03T07:00:01.031Z</time></trkpt><trkpt lat="42.3296851" lon="13.4840266"><ele>580.6666666666666</ele><time>2026-05-03T07:00:02.031Z</time></trkpt><trkpt lat="42.3297475" lon="13.4838186"><ele>581.0</ele><time>2026-05-03T07:00:03.031Z</time></trkpt><trkpt lat="42.3298091" lon="13.4836121"><ele>581.6666666666666</ele><time>2026-05-03T07:00:04.031Z</time></trkpt><trkpt lat="42.3298725" lon="13.4834004"><ele>582.3333333333334</ele><time>2026-05-03T07:00:05.031Z</time></trkpt><trkpt lat="42.3299315" lon="13.483192"><ele>583.0</ele><time>2026-05-03T07:00:06.031Z</time></trkpt><trkpt lat="42.3299954" lon="13.4829826"><ele>583.0</ele><time>2026-05-03T07:00:07.031Z</time></trkpt><trkpt lat="42.3300632" lon="13.4827694"><ele>583.0</ele><time>2026-05-03T07:00:08.031Z</time></trkpt><trkpt lat="42.3301307" lon="13.4825544"><ele>583.0</ele><time>2026-05-03T07:00:09.031Z</time></trkpt><trkpt lat="42.3301961" lon="13.4823371"><ele>583.0</ele><time>2026-05-03T07:00:10.031Z</time></trkpt><trkpt lat="42.3302639" lon="13.482117"><ele>583.0</ele><time>2026-05-03T07:00:11.031Z</time></trkpt><trkpt lat="42.3303307" lon="13.4818987"><ele>583.0</ele><time>2026-05-03T07:00:12.031Z</time></trkpt><trkpt lat="42.3304" lon="13.4816794"><ele>583.0</ele><time>2026-05-03T07:00:13.031Z</time></trkpt><trkpt lat="42.3304647" lon="13.4814639"><ele>583.0</ele><time>2026-05-03T07:00:14.031Z</time></trkpt><trkpt lat="42.3305337" lon="13.4812433"><ele>583.0</ele><time>2026-05-03T07:00:15.031Z</time></trkpt><trkpt lat="42.3305997" lon="13.4810181"><ele>585.0</ele><time>2026-05-03T07:00:16.031Z</time></trkpt><trkpt lat="42.3307071" lon="13.4806096"><ele>587.0</ele><time>2026-05-03T07:00:17.926Z</time></trkpt><trkpt lat="42.3307653" lon="13.4803913"><ele>587.25</ele><time>2026-05-03T07:00:19.032Z</time></trkpt><trkpt lat="42.3308354" lon="13.4801968"><ele>587.5</ele><time>2026-05-03T07:00:20.031Z</time></trkpt><trkpt lat="42.3308932" lon="13.4800135"><ele>587.75</ele><time>2026-05-03T07:00:21.031Z</time></trkpt><trkpt lat="42.3309526" lon="13.479845"><ele>588.0</ele><time>2026-05-03T07:00:22.031Z</time></trkpt><trkpt lat="42.3309964" lon="13.4796826"><ele>588.25</ele><time>2026-05-03T07:00:23.031Z</time></trkpt><trkpt lat="42.3310409" lon="13.4795177"><ele>588.5</ele><time>2026-05-03T07:00:24.031Z</time></trkpt><trkpt lat="42.3310843" lon="13.4793668"><ele>588.75</ele><time>2026-05-03T07:00:25.031Z</time></trkpt><trkpt lat="42.3311264" lon="13.4792267"><ele>589.0</ele><time>2026-05-03T07:00:26.031Z</time></trkpt><trkpt lat="42.3311687" lon="13.4790893"><ele>589.0</ele><time>2026-05-03T07:00:27.031Z</time></trkpt><trkpt lat="42.3312122" lon="13.4789488"><ele>589.0</ele><time>2026-05-03T07:00:28.031Z</time></trkpt><trkpt lat="42.3312579" lon="13.4788019"><ele>589.0</ele><time>2026-05-03T07:00:29.031Z</time></trkpt><trkpt lat="42.3313046" lon="13.4786596"><ele>589.0</ele><time>2026-05-03T07:00:30.031Z</time></trkpt><trkpt lat="42.3313482" lon="13.4784944"><ele>589.25</ele><time>2026-05-03T07:00:31.031Z</time></trkpt><trkpt lat="42.3313964" lon="13.478336"><ele>589.5</ele><time>2026-05-03T07:00:32.031Z</time></trkpt><trkpt lat="42.3314423" lon="13.4781641"><ele>589.75</ele><time>2026-05-03T07:00:33.031Z</time></trkpt><trkpt lat="42.331489" lon="13.4779918"><ele>590.0</ele><time>2026-05-03T07:00:34.031Z</time></trkpt><trkpt lat="42.3315374" lon="13.4778195"><ele>590.5</ele><time>2026-05-03T07:00:35.031Z</time></trkpt><trkpt lat="42.3315893" lon="13.4776469"><ele>591.0</ele><time>2026-05-03T07:00:36.031Z</time></trkpt><trkpt lat="42.3316396" lon="13.4774693"><ele>591.5</ele><time>2026-05-03T07:00:37.031Z</time></trkpt><trkpt lat="42.3316915" lon="13.4772922"><ele>592.0</ele><time>2026-05-03T07:00:38.031Z</time></trkpt><trkpt lat="42.3317424" lon="13.4771115"><ele>592.0</ele><time>2026-05-03T07:00:39.031Z</time></trkpt><trkpt lat="42.3317915" lon="13.4769294"><ele>592.0</ele><time>2026-05-03T07:00:40.031Z</time></trkpt><trkpt lat="42.3318422" lon="13.4767415"><ele>592.0</ele><time>2026-05-03T07:00:41.031Z</time></trkpt><trkpt lat="42.3318951" lon="13.476555"><ele>592.0</ele><time>2026-05-03T07:00:42.031Z</time></trkpt><trkpt lat="42.3319478" lon="13.4763663"><ele>592.0</ele><time>2026-05-03T07:00:43.031Z</time></trkpt><trkpt lat="42.3319984" lon="13.4761729"><ele>592.0</ele><time>2026-05-03T07:00:44.031Z</time></trkpt><trkpt lat="42.3320501" lon="13.4759795"><ele>592.0</ele><time>2026-05-03T07:00:45.031Z</time></trkpt><trkpt lat="42.3321016" lon="13.4757869"><ele>592.0</ele><time>2026-05-03T07:00:46.031Z</time></trkpt><trkpt lat="42.3321527" lon="13.4755915"><ele>592.0</ele><time>2026-05-03T07:00:47.031Z</time></trkpt><trkpt lat="42.3322028" lon="13.475395"><ele>592.0</ele><time>2026-05-03T07:00:48.031Z</time></trkpt><trkpt lat="42.3322528" lon="13.4751929"><ele>592.0</ele><time>2026-05-03T07:00:49.031Z</time></trkpt><trkpt lat="42.3323045" lon="13.4749907"><ele>592.0</ele><time>2026-05-03T07:00:50.031Z</time></trkpt><trkpt lat="42.3323551" lon="13.4747906"><ele>592.0</ele><time>2026-05-03T07:00:51.031Z</time></trkpt><trkpt lat="42.3324054" lon="13.4745835"><ele>592.6666666666667</ele><time>2026-05-03T07:00:52.031Z</time></trkpt><trkpt lat="42.3324602" lon="13.4743804"><ele>593.3333333333334</ele><time>2026-05-03T07:00:53.031Z</time></trkpt><trkpt lat="42.3325139" lon="13.47418"><ele>594.0</ele><time>2026-05-03T07:00:54.032Z</time></trkpt><trkpt lat="42.3325701" lon="13.4739787"><ele>594.0</ele><time>2026-05-03T07:00:55.031Z</time></trkpt><trkpt lat="42.3326281" lon="13.4737808"><ele>594.0</ele><time>2026-05-03T07:00:56.031Z</time></trkpt><trkpt lat="42.3326826" lon="13.4735806"><ele>594.0</ele><time>2026-05-03T07:00:57.031Z</time></trkpt><trkpt lat="42.3327372" lon="13.4733749"><ele>593.6666666666666</ele><time>2026-05-03T07:00:58.031Z</time></trkpt><trkpt lat="42.3327943" lon="13.4731705"><ele>593.3333333333333</ele><time>2026-05-03T07:00:59.032Z</time></trkpt><trkpt lat="42.3328495" lon="13.4729616"><ele>593.0</ele><time>2026-05-03T07:01:00.031Z</time></trkpt><trkpt lat="42.3329026" lon="13.4727553"><ele>593.0</ele><time>2026-05-03T07:01:01.031Z</time></trkpt><trkpt lat="42.3329511" lon="13.472556"><ele>593.0</ele><time>2026-05-03T07:01:02.031Z</time></trkpt><trkpt lat="42.3330056" lon="13.4723579"><ele>593.0</ele><time>2026-05-03T07:01:03.032Z</time></trkpt><trkpt lat="42.3330572" lon="13.4721695"><ele>593.1999999999999</ele><time>2026-05-03T07:01:04.031Z</time></trkpt><trkpt lat="42.333111" lon="13.4720046"><ele>593.4</ele><time>2026-05-03T07:01:05.031Z</time></trkpt><trkpt lat="42.333157" lon="13.4718642"><ele>593.5999999999999</ele><time>2026-05-03T07:01:06.031Z</time></trkpt><trkpt lat="42.3331956" lon="13.4717459"><ele>593.8</ele><time>2026-05-03T07:01:07.032Z</time></trkpt><trkpt lat="42.3332336" lon="13.4716512"><ele>594.0</ele><time>2026-05-03T07:01:08.032Z</time></trkpt><trkpt lat="42.3332822" lon="13.4715604"><ele>594.0</ele><time>2026-05-03T07:01:09.031Z</time></trkpt><trkpt lat="42.3333391" lon="13.4714723"><ele>594.0</ele><time>2026-05-03T07:01:10.032Z</time></trkpt><trkpt lat="42.3334022" lon="13.4713917"><ele>594.0</ele><time>2026-05-03T07:01:11.032Z</time></trkpt><trkpt lat="42.3334718" lon="13.4713316"><ele>594.0</ele><time>2026-05-03T07:01:12.031Z</time></trkpt><trkpt lat="42.3335361" lon="13.4712816"><ele>594.0</ele><time>2026-05-03T07:01:13.031Z</time></trkpt><trkpt lat="42.333612" lon="13.4711588"><ele>594.0</ele><time>2026-05-03T07:01:15.031Z</time></trkpt><trkpt lat="42.3336246" lon="13.470997"><ele>593.6666666666666</ele><time>2026-05-03T07:01:17.031Z</time></trkpt><trkpt lat="42.3336059" lon="13.4709091"><ele>593.3333333333334</ele><time>2026-05-03T07:01:18.031Z</time></trkpt><trkpt lat="42.33357" lon="13.4708206"><ele>593.0</ele><time>2026-05-03T07:01:19.032Z</time></trkpt><trkpt lat="42.333543" lon="13.4707321"><ele>592.6666666666667</ele><time>2026-05-03T07:01:20.031Z</time></trkpt><trkpt lat="42.3335259" lon="13.4706257"><ele>592.3333333333334</ele><time>2026-05-03T07:01:21.031Z</time></trkpt><trkpt lat="42.3335236" lon="13.4705154"><ele>592.0</ele><time>2026-05-03T07:01:22.031Z</time></trkpt><trkpt lat="42.3335313" lon="13.4703979"><ele>591.8000000000001</ele><time>2026-05-03T07:01:23.031Z</time></trkpt><trkpt lat="42.3335468" lon="13.4702699"><ele>591.6</ele><time>2026-05-03T07:01:24.031Z</time></trkpt><trkpt lat="42.333566" lon="13.4701403"><ele>591.4000000000001</ele><time>2026-05-03T07:01:25.031Z</time></trkpt><trkpt lat="42.3335932" lon="13.4700151"><ele>591.2</ele><time>2026-05-03T07:01:26.031Z</time></trkpt><trkpt lat="42.3336333" lon="13.4698864"><ele>591.0</ele><time>2026-05-03T07:01:27.031Z</time></trkpt><trkpt lat="42.3336633" lon="13.4697614"><ele>591.0</ele><time>2026-05-03T07:01:28.031Z</time></trkpt><trkpt lat="42.3336978" lon="13.4696457"><ele>591.0</ele><time>2026-05-03T07:01:29.032Z</time></trkpt><trkpt lat="42.3337281" lon="13.4695224"><ele>591.0</ele><time>2026-05-03T07:01:30.031Z</time></trkpt><trkpt lat="42.3337575" lon="13.4693942"><ele>591.0</ele><time>2026-05-03T07:01:31.031Z</time></trkpt><trkpt lat="42.3337882" lon="13.4692662"><ele>591.0</ele><time>2026-05-03T07:01:32.031Z</time></trkpt><trkpt lat="42.3338254" lon="13.4691325"><ele>591.0</ele><time>2026-05-03T07:01:33.031Z</time></trkpt><trkpt lat="42.3338673" lon="13.4689975"><ele>591.0</ele><time>2026-05-03T07:01:34.031Z</time></trkpt><trkpt lat="42.3339143" lon="13.4688591"><ele>591.0</ele><time>2026-05-03T07:01:35.031Z</time></trkpt><trkpt lat="42.3339563" lon="13.4687164"><ele>591.0</ele><time>2026-05-03T07:01:36.031Z</time></trkpt><trkpt lat="42.3340007" lon="13.4685724"><ele>591.5</ele><time>2026-05-03T07:01:37.031Z</time></trkpt><trkpt lat="42.3340441" lon="13.4684204"><ele>592.0</ele><time>2026-05-03T07:01:38.031Z</time></trkpt><trkpt lat="42.334087" lon="13.4682647"><ele>592.5</ele><time>2026-05-03T07:01:39.031Z</time></trkpt><trkpt lat="42.3341285" lon="13.4681123"><ele>593.0</ele><time>2026-05-03T07:01:40.031Z</time></trkpt><trkpt lat="42.3341718" lon="13.4679562"><ele>592.5</ele><time>2026-05-03T07:01:41.031Z</time></trkpt><trkpt lat="42.3342167" lon="13.4677968"><ele>592.0</ele><time>2026-05-03T07:01:42.031Z</time></trkpt><trkpt lat="42.334262" lon="13.4676377"><ele>591.5</ele><time>2026-05-03T07:01:43.031Z</time></trkpt><trkpt lat="42.3343081" lon="13.4674672"><ele>591.0</ele><time>2026-05-03T07:01:44.031Z</time></trkpt><trkpt lat="42.3343539" lon="13.4672999"><ele>591.0</ele><time>2026-05-03T07:01:45.031Z</time></trkpt><trkpt lat="42.3344007" lon="13.4671326"><ele>591.0</ele><time>2026-05-03T07:01:46.031Z</time></trkpt><trkpt lat="42.3344431" lon="13.4669672"><ele>591.0</ele><time>2026-05-03T07:01:47.031Z</time></trkpt><trkpt lat="42.3344911" lon="13.466799"><ele>591.0</ele><time>2026-05-03T07:01:48.031Z</time></trkpt><trkpt lat="42.3345368" lon="13.4666267"><ele>591.25</ele><time>2026-05-03T07:01:49.031Z</time></trkpt><trkpt lat="42.334584" lon="13.4664491"><ele>591.5</ele><time>2026-05-03T07:01:50.031Z</time></trkpt><trkpt lat="42.334638" lon="13.4662724"><ele>591.75</ele><time>2026-05-03T07:01:51.031Z</time></trkpt><trkpt lat="42.3346887" lon="13.4660973"><ele>592.0</ele><time>2026-05-03T07:01:52.031Z</time></trkpt><trkpt lat="42.3347436" lon="13.4659179"><ele>592.5</ele><time>2026-05-03T07:01:53.031Z</time></trkpt><trkpt lat="42.3347956" lon="13.4657379"><ele>593.0</ele><time>2026-05-03T07:01:54.032Z</time></trkpt><trkpt lat="42.3348485" lon="13.4655576"><ele>593.5</ele><time>2026-05-03T07:01:55.031Z</time></trkpt><trkpt lat="42.3348969" lon="13.4653781"><ele>594.0</ele><time>2026-05-03T07:01:56.031Z</time></trkpt><trkpt lat="42.3349411" lon="13.4652088"><ele>594.0</ele><time>2026-05-03T07:01:57.031Z</time></trkpt><trkpt lat="42.3349838" lon="13.4650405"><ele>594.0</ele><time>2026-05-03T07:01:58.032Z</time></trkpt><trkpt lat="42.3350294" lon="13.4648768"><ele>594.0</ele><time>2026-05-03T07:01:59.031Z</time></trkpt><trkpt lat="42.3350723" lon="13.46471"><ele>594.0</ele><time>2026-05-03T07:02:00.031Z</time></trkpt><trkpt lat="42.3351275" lon="13.4645499"><ele>594.25</ele><time>2026-05-03T07:02:01.031Z</time></trkpt><trkpt lat="42.3351748" lon="13.464384"><ele>594.5</ele><time>2026-05-03T07:02:02.031Z</time></trkpt><trkpt lat="42.3352216" lon="13.4642267"><ele>594.75</ele><time>2026-05-03T07:02:03.031Z</time></trkpt><trkpt lat="42.335264" lon="13.4640563"><ele>595.0</ele><time>2026-05-03T07:02:04.031Z</time></trkpt><trkpt lat="42.3353078" lon="13.4638904"><ele>594.75</ele><time>2026-05-03T07:02:05.031Z</time></trkpt><trkpt lat="42.3353508" lon="13.4637267"><ele>594.5</ele><time>2026-05-03T07:02:06.031Z</time></trkpt><trkpt lat="42.3353937" lon="13.4635644"><ele>594.25</ele><time>2026-05-03T07:02:07.031Z</time></trkpt><trkpt lat="42.335433" lon="13.4634012"><ele>594.0</ele><time>2026-05-03T07:02:08.031Z</time></trkpt><trkpt lat="42.3354839" lon="13.46322"><ele>594.0</ele><time>2026-05-03T07:02:09.032Z</time></trkpt><trkpt lat="42.3355238" lon="13.4630533"><ele>594.0</ele><time>2026-05-03T07:02:10.031Z</time></trkpt><trkpt lat="42.3355744" lon="13.4628814"><ele>594.0</ele><time>2026-05-03T07:02:11.031Z</time></trkpt><trkpt lat="42.3356201" lon="13.4627104"><ele>594.0</ele><time>2026-05-03T07:02:12.031Z</time></trkpt><trkpt lat="42.3356656" lon="13.4625289"><ele>594.0</ele><time>2026-05-03T07:02:13.031Z</time></trkpt><trkpt lat="42.335711" lon="13.4623525"><ele>594.0</ele><time>2026-05-03T07:02:14.031Z</time></trkpt><trkpt lat="42.3357616" lon="13.4621719"><ele>594.0</ele><time>2026-05-03T07:02:15.031Z</time></trkpt><trkpt lat="42.3358144" lon="13.4619955"><ele>594.0</ele><time>2026-05-03T07:02:16.031Z</time></trkpt><trkpt lat="42.3358609" lon="13.4618115"><ele>594.0</ele><time>2026-05-03T07:02:17.031Z</time></trkpt><trkpt lat="42.3359116" lon="13.4616346"><ele>594.0</ele><time>2026-05-03T07:02:18.031Z</time></trkpt><trkpt lat="42.3359663" lon="13.4614508"><ele>594.0</ele><time>2026-05-03T07:02:19.032Z</time></trkpt><trkpt lat="42.3360215" lon="13.4612579"><ele>594.0</ele><time>2026-05-03T07:02:20.032Z</time></trkpt><trkpt lat="42.3360705" lon="13.4610687"><ele>594.0</ele><time>2026-05-03T07:02:21.031Z</time></trkpt><trkpt lat="42.3361257" lon="13.460874"><ele>594.0</ele><time>2026-05-03T07:02:22.031Z</time></trkpt><trkpt lat="42.3361764" lon="13.4606813"><ele>594.0</ele><time>2026-05-03T07:02:23.031Z</time></trkpt><trkpt lat="42.3362367" lon="13.4604865"><ele>593.3333333333334</ele><time>2026-05-03T07:02:24.031Z</time></trkpt><trkpt lat="42.3362893" lon="13.4602869"><ele>592.6666666666667</ele><time>2026-05-03T07:02:25.031Z</time></trkpt><trkpt lat="42.3363433" lon="13.4600839"><ele>592.0</ele><time>2026-05-03T07:02:26.031Z</time></trkpt><trkpt lat="42.3363988" lon="13.4598878"><ele>593.0</ele><time>2026-05-03T07:02:27.031Z</time></trkpt><trkpt lat="42.3364561" lon="13.4596854"><ele>594.0</ele><time>2026-05-03T07:02:28.031Z</time></trkpt><trkpt lat="42.3365062" lon="13.4594932"><ele>595.0</ele><time>2026-05-03T07:02:29.031Z</time></trkpt><trkpt lat="42.3365553" lon="13.4593106"><ele>595.0</ele><time>2026-05-03T07:02:30.032Z</time></trkpt><trkpt lat="42.3365993" lon="13.4591409"><ele>595.0</ele><time>2026-05-03T07:02:31.031Z</time></trkpt><trkpt lat="42.3366416" lon="13.4589827"><ele>595.0</ele><time>2026-05-03T07:02:32.032Z</time></trkpt><trkpt lat="42.3366822" lon="13.45883"><ele>595.0</ele><time>2026-05-03T07:02:33.031Z</time></trkpt><trkpt lat="42.3367236" lon="13.4586805"><ele>595.0</ele><time>2026-05-03T07:02:34.031Z</time></trkpt><trkpt lat="42.3367626" lon="13.4585404"><ele>595.0</ele><time>2026-05-03T07:02:35.031Z</time></trkpt><trkpt lat="42.3367987" lon="13.4583931"><ele>595.0</ele><time>2026-05-03T07:02:36.031Z</time></trkpt><trkpt lat="42.3368325" lon="13.4582621"><ele>595.0</ele><time>2026-05-03T07:02:37.031Z</time></trkpt><trkpt lat="42.336869" lon="13.4581487"><ele>595.0</ele><time>2026-05-03T07:02:38.031Z</time></trkpt><trkpt lat="42.3369028" lon="13.4580436"><ele>595.0</ele><time>2026-05-03T07:02:39.031Z</time></trkpt><trkpt lat="42.3369473" lon="13.4579523"><ele>595.0</ele><time>2026-05-03T07:02:40.031Z</time></trkpt><trkpt lat="42.3369927" lon="13.4578646"><ele>595.0</ele><time>2026-05-03T07:02:41.031Z</time></trkpt><trkpt lat="42.3370497" lon="13.4577822"><ele>595.0</ele><time>2026-05-03T07:02:42.031Z</time></trkpt><trkpt lat="42.3371071" lon="13.4577071"><ele>595.0</ele><time>2026-05-03T07:02:43.031Z</time></trkpt><trkpt lat="42.3371489" lon="13.457627"><ele>595.0</ele><time>2026-05-03T07:02:44.031Z</time></trkpt><trkpt lat="42.3371772" lon="13.4575464"><ele>595.0</ele><time>2026-05-03T07:02:45.031Z</time></trkpt><trkpt lat="42.3371901" lon="13.4574601"><ele>595.0</ele><time>2026-05-03T07:02:46.031Z</time></trkpt><trkpt lat="42.3371839" lon="13.4573678"><ele>595.0</ele><time>2026-05-03T07:02:47.032Z</time></trkpt><trkpt lat="42.337174" lon="13.4572632"><ele>595.0</ele><time>2026-05-03T07:02:48.032Z</time></trkpt><trkpt lat="42.337178" lon="13.4571503"><ele>595.0</ele><time>2026-05-03T07:02:49.031Z</time></trkpt><trkpt lat="42.3371928" lon="13.457024"><ele>595.0</ele><time>2026-05-03T07:02:50.031Z</time></trkpt><trkpt lat="42.3372119" lon="13.4568953"><ele>595.25</ele><time>2026-05-03T07:02:51.031Z</time></trkpt><trkpt lat="42.3372327" lon="13.4567509"><ele>595.5</ele><time>2026-05-03T07:02:52.031Z</time></trkpt><trkpt lat="42.3372611" lon="13.4566001"><ele>595.75</ele><time>2026-05-03T07:02:53.031Z</time></trkpt><trkpt lat="42.3372894" lon="13.4564397"><ele>596.0</ele><time>2026-05-03T07:02:54.031Z</time></trkpt><trkpt lat="42.3373111" lon="13.4562696"><ele>597.0</ele><time>2026-05-03T07:02:55.031Z</time></trkpt><trkpt lat="42.3373193" lon="13.4560957"><ele>598.0</ele><time>2026-05-03T07:02:56.031Z</time></trkpt><trkpt lat="42.3373252" lon="13.4559309"><ele>599.0</ele><time>2026-05-03T07:02:57.031Z</time></trkpt><trkpt lat="42.3373204" lon="13.455769"><ele>600.0</ele><time>2026-05-03T07:02:58.031Z</time></trkpt><trkpt lat="42.3373055" lon="13.4556144"><ele>600.0</ele><time>2026-05-03T07:02:59.031Z</time></trkpt><trkpt lat="42.3372853" lon="13.4554634"><ele>600.0</ele><time>2026-05-03T07:03:00.031Z</time></trkpt><trkpt lat="42.3372601" lon="13.4553103"><ele>600.0</ele><time>2026-05-03T07:03:01.031Z</time></trkpt><trkpt lat="42.3372318" lon="13.4551535"><ele>600.0</ele><time>2026-05-03T07:03:02.031Z</time></trkpt><trkpt lat="42.3372036" lon="13.455004"><ele>599.75</ele><time>2026-05-03T07:03:03.031Z</time></trkpt><trkpt lat="42.3371775" lon="13.4548508"><ele>599.5</ele><time>2026-05-03T07:03:04.031Z</time></trkpt><trkpt lat="42.3371432" lon="13.4546959"><ele>599.25</ele><time>2026-05-03T07:03:05.031Z</time></trkpt><trkpt lat="42.33711" lon="13.4545422"><ele>599.0</ele><time>2026-05-03T07:03:06.031Z</time></trkpt><trkpt lat="42.3370785" lon="13.4543858"><ele>599.0</ele><time>2026-05-03T07:03:07.031Z</time></trkpt><trkpt lat="42.3370455" lon="13.4542295"><ele>599.0</ele><time>2026-05-03T07:03:08.031Z</time></trkpt><trkpt lat="42.3370102" lon="13.454072"><ele>599.0</ele><time>2026-05-03T07:03:09.031Z</time></trkpt><trkpt lat="42.3369743" lon="13.4539131"><ele>599.0</ele><time>2026-05-03T07:03:10.031Z</time></trkpt><trkpt lat="42.3369359" lon="13.4537561"><ele>599.5</ele><time>2026-05-03T07:03:11.031Z</time></trkpt><trkpt lat="42.3368998" lon="13.453597"><ele>600.0</ele><time>2026-05-03T07:03:12.031Z</time></trkpt><trkpt lat="42.3368613" lon="13.4534348"><ele>600.5</ele><time>2026-05-03T07:03:13.031Z</time></trkpt><trkpt lat="42.3368254" lon="13.453272"><ele>601.0</ele><time>2026-05-03T07:03:14.031Z</time></trkpt><trkpt lat="42.3367933" lon="13.4531098"><ele>601.5</ele><time>2026-05-03T07:03:15.031Z</time></trkpt><trkpt lat="42.3367595" lon="13.4529443"><ele>602.0</ele><time>2026-05-03T07:03:16.031Z</time></trkpt><trkpt lat="42.3367261" lon="13.4527808"><ele>602.5</ele><time>2026-05-03T07:03:17.031Z</time></trkpt><trkpt lat="42.3366927" lon="13.4526226"><ele>603.0</ele><time>2026-05-03T07:03:18.031Z</time></trkpt><trkpt lat="42.3366681" lon="13.4524753"><ele>603.0</ele><time>2026-05-03T07:03:19.031Z</time></trkpt><trkpt lat="42.3366482" lon="13.4523389"><ele>603.0</ele><time>2026-05-03T07:03:20.031Z</time></trkpt><trkpt lat="42.3366225" lon="13.4522062"><ele>603.0</ele><time>2026-05-03T07:03:21.031Z</time></trkpt><trkpt lat="42.3365991" lon="13.452074"><ele>603.0</ele><time>2026-05-03T07:03:22.031Z</time></trkpt><trkpt lat="42.3365802" lon="13.4519488"><ele>603.0</ele><time>2026-05-03T07:03:23.031Z</time></trkpt><trkpt lat="42.3365621" lon="13.4518285"><ele>603.0</ele><time>2026-05-03T07:03:24.031Z</time></trkpt><trkpt lat="42.3365601" lon="13.4517142"><ele>603.0</ele><time>2026-05-03T07:03:25.031Z</time></trkpt><trkpt lat="42.3365785" lon="13.4516008"><ele>603.0</ele><time>2026-05-03T07:03:26.031Z</time></trkpt><trkpt lat="42.3366111" lon="13.4514791"><ele>603.0</ele><time>2026-05-03T07:03:27.031Z</time></trkpt><trkpt lat="42.3366469" lon="13.4513467"><ele>603.0</ele><time>2026-05-03T07:03:28.031Z</time></trkpt><trkpt lat="42.3366769" lon="13.4512046"><ele>603.5</ele><time>2026-05-03T07:03:29.031Z</time></trkpt><trkpt lat="42.3367046" lon="13.4510503"><ele>604.0</ele><time>2026-05-03T07:03:30.031Z</time></trkpt><trkpt lat="42.3367422" lon="13.450897"><ele>604.5</ele><time>2026-05-03T07:03:31.031Z</time></trkpt><trkpt lat="42.3367769" lon="13.4507343"><ele>605.0</ele><time>2026-05-03T07:03:32.031Z</time></trkpt><trkpt lat="42.3368154" lon="13.4505657"><ele>605.5</ele><time>2026-05-03T07:03:33.031Z</time></trkpt><trkpt lat="42.3368529" lon="13.4503902"><ele>606.0</ele><time>2026-05-03T07:03:34.031Z</time></trkpt><trkpt lat="42.3368911" lon="13.4502094"><ele>606.5</ele><time>2026-05-03T07:03:35.031Z</time></trkpt><trkpt lat="42.3369307" lon="13.4500274"><ele>607.0</ele><time>2026-05-03T07:03:36.031Z</time></trkpt><trkpt lat="42.3369707" lon="13.4498459"><ele>607.0</ele><time>2026-05-03T07:03:37.031Z</time></trkpt><trkpt lat="42.3370118" lon="13.4496658"><ele>607.0</ele><time>2026-05-03T07:03:38.031Z</time></trkpt><trkpt lat="42.3370473" lon="13.4494871"><ele>607.0</ele><time>2026-05-03T07:03:39.031Z</time></trkpt><trkpt lat="42.3370826" lon="13.4493121"><ele>607.0</ele><time>2026-05-03T07:03:40.031Z</time></trkpt><trkpt lat="42.3371192" lon="13.4491384"><ele>607.0</ele><time>2026-05-03T07:03:41.031Z</time></trkpt><trkpt lat="42.3371539" lon="13.4489791"><ele>607.0</ele><time>2026-05-03T07:03:42.031Z</time></trkpt><trkpt lat="42.3371859" lon="13.4488267"><ele>607.0</ele><time>2026-05-03T07:03:43.031Z</time></trkpt><trkpt lat="42.3372162" lon="13.4486777"><ele>607.0</ele><time>2026-05-03T07:03:44.031Z</time></trkpt><trkpt lat="42.3372475" lon="13.4485353"><ele>609.6666666666667</ele><time>2026-05-03T07:03:45.031Z</time></trkpt><trkpt lat="42.3372744" lon="13.448405"><ele>612.3333333333334</ele><time>2026-05-03T07:03:46.031Z</time></trkpt><trkpt lat="42.3373086" lon="13.4482926"><ele>615.0</ele><time>2026-05-03T07:03:47.031Z</time></trkpt><trkpt lat="42.3373431" lon="13.4481912"><ele>617.6666666666666</ele><time>2026-05-03T07:03:48.031Z</time></trkpt><trkpt lat="42.3373829" lon="13.4481042"><ele>620.3333333333333</ele><time>2026-05-03T07:03:49.031Z</time></trkpt><trkpt lat="42.3374327" lon="13.4480334"><ele>623.0</ele><time>2026-05-03T07:03:50.031Z</time></trkpt><trkpt lat="42.3374888" lon="13.4479635"><ele>623.0</ele><time>2026-05-03T07:03:51.031Z</time></trkpt><trkpt lat="42.3375443" lon="13.4478831"><ele>623.0</ele><time>2026-05-03T07:03:52.031Z</time></trkpt><trkpt lat="42.3375832" lon="13.4477875"><ele>623.0</ele><time>2026-05-03T07:03:53.031Z</time></trkpt><trkpt lat="42.3376068" lon="13.4476775"><ele>623.0</ele><time>2026-05-03T07:03:54.031Z</time></trkpt><trkpt lat="42.3376003" lon="13.4475534"><ele>623.0</ele><time>2026-05-03T07:03:55.031Z</time></trkpt><trkpt lat="42.337601" lon="13.4474197"><ele>623.0</ele><time>2026-05-03T07:03:56.031Z</time></trkpt><trkpt lat="42.3376163" lon="13.447283"><ele>623.0</ele><time>2026-05-03T07:03:57.031Z</time></trkpt><trkpt lat="42.3376501" lon="13.4471395"><ele>623.0</ele><time>2026-05-03T07:03:58.031Z</time></trkpt><trkpt lat="42.3376849" lon="13.4469822"><ele>623.0</ele><time>2026-05-03T07:03:59.031Z</time></trkpt><trkpt lat="42.3377197" lon="13.4468185"><ele>623.0</ele><time>2026-05-03T07:04:00.031Z</time></trkpt><trkpt lat="42.3377549" lon="13.4466527"><ele>623.0</ele><time>2026-05-03T07:04:01.031Z</time></trkpt><trkpt lat="42.3377909" lon="13.4464876"><ele>623.0</ele><time>2026-05-03T07:04:02.031Z</time></trkpt><trkpt lat="42.3378257" lon="13.4463195"><ele>623.0</ele><time>2026-05-03T07:04:03.031Z</time></trkpt><trkpt lat="42.3378588" lon="13.4461551"><ele>623.0</ele><time>2026-05-03T07:04:04.032Z</time></trkpt><trkpt lat="42.337892" lon="13.4459931"><ele>623.25</ele><time>2026-05-03T07:04:05.031Z</time></trkpt><trkpt lat="42.3379235" lon="13.4458315"><ele>623.5</ele><time>2026-05-03T07:04:06.031Z</time></trkpt><trkpt lat="42.3379534" lon="13.4456724"><ele>623.75</ele><time>2026-05-03T07:04:07.031Z</time></trkpt><trkpt lat="42.3379821" lon="13.4455102"><ele>624.0</ele><time>2026-05-03T07:04:08.031Z</time></trkpt><trkpt lat="42.338014" lon="13.4453463"><ele>624.75</ele><time>2026-05-03T07:04:09.032Z</time></trkpt><trkpt lat="42.3380489" lon="13.445181"><ele>625.5</ele><time>2026-05-03T07:04:10.031Z</time></trkpt><trkpt lat="42.3380797" lon="13.4450155"><ele>626.25</ele><time>2026-05-03T07:04:11.031Z</time></trkpt><trkpt lat="42.3381143" lon="13.4448518"><ele>627.0</ele><time>2026-05-03T07:04:12.032Z</time></trkpt><trkpt lat="42.3381512" lon="13.4446862"><ele>630.5</ele><time>2026-05-03T07:04:13.031Z</time></trkpt><trkpt lat="42.3381942" lon="13.444519"><ele>634.0</ele><time>2026-05-03T07:04:14.031Z</time></trkpt><trkpt lat="42.338243" lon="13.4443471"><ele>637.5</ele><time>2026-05-03T07:04:15.032Z</time></trkpt><trkpt lat="42.3382879" lon="13.4441788"><ele>641.0</ele><time>2026-05-03T07:04:16.031Z</time></trkpt><trkpt lat="42.3383338" lon="13.4440021"><ele>641.0</ele><time>2026-05-03T07:04:17.031Z</time></trkpt><trkpt lat="42.3383892" lon="13.4438387"><ele>641.0</ele><time>2026-05-03T07:04:18.031Z</time></trkpt><trkpt lat="42.3384381" lon="13.443694"><ele>641.0</ele><time>2026-05-03T07:04:19.031Z</time></trkpt><trkpt lat="42.3384822" lon="13.4435593"><ele>641.0</ele><time>2026-05-03T07:04:20.031Z</time></trkpt><trkpt lat="42.33852" lon="13.4434515"><ele>641.0</ele><time>2026-05-03T07:04:21.031Z</time></trkpt><trkpt lat="42.3385597" lon="13.4433793"><ele>641.0</ele><time>2026-05-03T07:04:22.031Z</time></trkpt><trkpt lat="42.3386506" lon="13.4433351"><ele>641.0</ele><time>2026-05-03T07:04:24.031Z</time></trkpt><trkpt lat="42.3387113" lon="13.4434124"><ele>641.0</ele><time>2026-05-03T07:04:26.032Z</time></trkpt><trkpt lat="42.3386976" lon="13.4435545"><ele>641.0</ele><time>2026-05-03T07:04:28.031Z</time></trkpt><trkpt lat="42.3386679" lon="13.4436396"><ele>641.0</ele><time>2026-05-03T07:04:29.031Z</time></trkpt><trkpt lat="42.3386359" lon="13.4437481"><ele>641.0</ele><time>2026-05-03T07:04:30.031Z</time></trkpt><trkpt lat="42.3385931" lon="13.4438618"><ele>641.0</ele><time>2026-05-03T07:04:31.031Z</time></trkpt><trkpt lat="42.3385425" lon="13.4439788"><ele>641.0</ele><time>2026-05-03T07:04:32.031Z</time></trkpt><trkpt lat="42.3384975" lon="13.4440881"><ele>641.0</ele><time>2026-05-03T07:04:33.031Z</time></trkpt><trkpt lat="42.3384659" lon="13.4441752"><ele>641.0</ele><time>2026-05-03T07:04:34.031Z</time></trkpt><trkpt lat="42.3384221" lon="13.4442847"><ele>641.0</ele><time>2026-05-03T07:04:36.031Z</time></trkpt><trkpt lat="42.3384232" lon="13.4443858"><ele>641.0</ele><time>2026-05-03T07:04:38.031Z</time></trkpt><trkpt lat="42.3384819" lon="13.4444226"><ele>641.0</ele><time>2026-05-03T07:04:39.031Z</time></trkpt><trkpt lat="42.3385975" lon="13.444465"><ele>641.0</ele><time>2026-05-03T07:04:41.031Z</time></trkpt><trkpt lat="42.3386695" lon="13.4444788"><ele>641.0</ele><time>2026-05-03T07:04:42.031Z</time></trkpt><trkpt lat="42.3387344" lon="13.4444887"><ele>641.0</ele><time>2026-05-03T07:04:43.032Z</time></trkpt><trkpt lat="42.3388032" lon="13.4445119"><ele>641.0</ele><time>2026-05-03T07:04:44.032Z</time></trkpt><trkpt lat="42.3388684" lon="13.4445333"><ele>641.0</ele><time>2026-05-03T07:04:45.031Z</time></trkpt><trkpt lat="42.3389385" lon="13.4446342"><ele>643.1999999999999</ele><time>2026-05-03T07:04:47.031Z</time></trkpt><trkpt lat="42.3389636" lon="13.4447786"><ele>645.4</ele><time>2026-05-03T07:04:49.031Z</time></trkpt><trkpt lat="42.3389753" lon="13.4449566"><ele>647.6</ele><time>2026-05-03T07:04:51.031Z</time></trkpt><trkpt lat="42.3389692" lon="13.4450696"><ele>649.8</ele><time>2026-05-03T07:04:52.031Z</time></trkpt><trkpt lat="42.3389544" lon="13.4451833"><ele>652.0</ele><time>2026-05-03T07:04:53.031Z</time></trkpt><trkpt lat="42.3389411" lon="13.4452809"><ele>652.0</ele><time>2026-05-03T07:04:54.031Z</time></trkpt><trkpt lat="42.3389269" lon="13.4453837"><ele>652.0</ele><time>2026-05-03T07:04:55.031Z</time></trkpt><trkpt lat="42.3389134" lon="13.4454753"><ele>652.0</ele><time>2026-05-03T07:04:56.031Z</time></trkpt><trkpt lat="42.3388969" lon="13.445574"><ele>652.0</ele><time>2026-05-03T07:04:57.031Z</time></trkpt><trkpt lat="42.3388755" lon="13.4456829"><ele>652.0</ele><time>2026-05-03T07:04:58.031Z</time></trkpt><trkpt lat="42.3388572" lon="13.4457945"><ele>652.0</ele><time>2026-05-03T07:04:59.031Z</time></trkpt><trkpt lat="42.3388186" lon="13.4459084"><ele>649.6</ele><time>2026-05-03T07:05:00.031Z</time></trkpt><trkpt lat="42.3387665" lon="13.4460321"><ele>647.2</ele><time>2026-05-03T07:05:01.031Z</time></trkpt><trkpt lat="42.3387042" lon="13.446143"><ele>644.8</ele><time>2026-05-03T07:05:02.031Z</time></trkpt><trkpt lat="42.3386569" lon="13.4462629"><ele>642.4</ele><time>2026-05-03T07:05:03.032Z</time></trkpt><trkpt lat="42.3386087" lon="13.4463642"><ele>640.0</ele><time>2026-05-03T07:05:04.032Z</time></trkpt><trkpt lat="42.3385696" lon="13.4464687"><ele>640.0</ele><time>2026-05-03T07:05:05.031Z</time></trkpt><trkpt lat="42.3385401" lon="13.4465635"><ele>640.0</ele><time>2026-05-03T07:05:06.031Z</time></trkpt><trkpt lat="42.3385059" lon="13.4466497"><ele>640.0</ele><time>2026-05-03T07:05:07.031Z</time></trkpt><trkpt lat="42.3384835" lon="13.4467371"><ele>640.0</ele><time>2026-05-03T07:05:08.031Z</time></trkpt><trkpt lat="42.3384594" lon="13.4468359"><ele>640.0</ele><time>2026-05-03T07:05:09.031Z</time></trkpt><trkpt lat="42.338427" lon="13.4469456"><ele>640.0</ele><time>2026-05-03T07:05:10.031Z</time></trkpt><trkpt lat="42.3383895" lon="13.4470628"><ele>640.1666666666667</ele><time>2026-05-03T07:05:11.031Z</time></trkpt><trkpt lat="42.338357" lon="13.447176"><ele>640.3333333333334</ele><time>2026-05-03T07:05:12.031Z</time></trkpt><trkpt lat="42.338329" lon="13.4472719"><ele>640.5</ele><time>2026-05-03T07:05:13.031Z</time></trkpt><trkpt lat="42.3382921" lon="13.4473957"><ele>640.6666666666666</ele><time>2026-05-03T07:05:15.031Z</time></trkpt><trkpt lat="42.3382882" lon="13.4474834"><ele>640.8333333333333</ele><time>2026-05-03T07:07:59.031Z</time></trkpt><trkpt lat="42.3383293" lon="13.4474077"><ele>641.0</ele><time>2026-05-03T07:08:09.031Z</time></trkpt><trkpt lat="42.3383555" lon="13.4472466"><ele>641.0</ele><time>2026-05-03T07:08:11.031Z</time></trkpt><trkpt lat="42.3383891" lon="13.4471403"><ele>641.0</ele><time>2026-05-03T07:08:12.031Z</time></trkpt><trkpt lat="42.3384258" lon="13.4470195"><ele>641.0</ele><time>2026-05-03T07:08:13.031Z</time></trkpt><trkpt lat="42.3384678" lon="13.4468786"><ele>641.0</ele><time>2026-05-03T07:08:14.031Z</time></trkpt><trkpt lat="42.3385171" lon="13.4467193"><ele>641.0</ele><time>2026-05-03T07:08:15.031Z</time></trkpt><trkpt lat="42.3385695" lon="13.4465552"><ele>640.75</ele><time>2026-05-03T07:08:16.032Z</time></trkpt><trkpt lat="42.3386256" lon="13.4463904"><ele>640.5</ele><time>2026-05-03T07:08:17.031Z</time></trkpt><trkpt lat="42.3386829" lon="13.4462363"><ele>640.25</ele><time>2026-05-03T07:08:18.031Z</time></trkpt><trkpt lat="42.338738" lon="13.4460874"><ele>640.0</ele><time>2026-05-03T07:08:19.031Z</time></trkpt><trkpt lat="42.3388016" lon="13.4459461"><ele>639.0</ele><time>2026-05-03T07:08:20.031Z</time></trkpt><trkpt lat="42.3388521" lon="13.4457975"><ele>638.0</ele><time>2026-05-03T07:08:21.031Z</time></trkpt><trkpt lat="42.3388884" lon="13.445634"><ele>637.0</ele><time>2026-05-03T07:08:22.031Z</time></trkpt><trkpt lat="42.3389254" lon="13.4454634"><ele>636.0</ele><time>2026-05-03T07:08:23.031Z</time></trkpt><trkpt lat="42.3389569" lon="13.4452931"><ele>639.2</ele><time>2026-05-03T07:08:24.031Z</time></trkpt><trkpt lat="42.3389815" lon="13.4451326"><ele>642.4000000000001</ele><time>2026-05-03T07:08:25.032Z</time></trkpt><trkpt lat="42.3390028" lon="13.4449849"><ele>645.6</ele><time>2026-05-03T07:08:26.031Z</time></trkpt><trkpt lat="42.3389909" lon="13.4448494"><ele>648.8000000000001</ele><time>2026-05-03T07:08:27.031Z</time></trkpt><trkpt lat="42.3389877" lon="13.4447463"><ele>652.0</ele><time>2026-05-03T07:08:28.031Z</time></trkpt><trkpt lat="42.3389782" lon="13.4446535"><ele>652.1666666666667</ele><time>2026-05-03T07:08:29.031Z</time></trkpt><trkpt lat="42.3389119" lon="13.4445284"><ele>652.3333333333334</ele><time>2026-05-03T07:08:31.031Z</time></trkpt><trkpt lat="42.338854" lon="13.4444944"><ele>652.5</ele><time>2026-05-03T07:08:32.031Z</time></trkpt><trkpt lat="42.3387688" lon="13.4444691"><ele>652.6666666666666</ele><time>2026-05-03T07:08:33.031Z</time></trkpt><trkpt lat="42.338685" lon="13.4444487"><ele>652.8333333333333</ele><time>2026-05-03T07:08:34.031Z</time></trkpt><trkpt lat="42.3386138" lon="13.4444431"><ele>653.0</ele><time>2026-05-03T07:08:35.031Z</time></trkpt><trkpt lat="42.338524" lon="13.4443903"><ele>650.5999999999999</ele><time>2026-05-03T07:08:37.031Z</time></trkpt><trkpt lat="42.3384826" lon="13.4442889"><ele>648.1999999999999</ele><time>2026-05-03T07:08:39.031Z</time></trkpt><trkpt lat="42.3385105" lon="13.4441371"><ele>645.8</ele><time>2026-05-03T07:08:41.032Z</time></trkpt><trkpt lat="42.3385555" lon="13.4440355"><ele>643.4</ele><time>2026-05-03T07:08:42.031Z</time></trkpt><trkpt lat="42.3386121" lon="13.4439119"><ele>641.0</ele><time>2026-05-03T07:08:43.031Z</time></trkpt><trkpt lat="42.3386672" lon="13.4437738"><ele>640.1999999999999</ele><time>2026-05-03T07:08:44.031Z</time></trkpt><trkpt lat="42.3387056" lon="13.4436434"><ele>639.4</ele><time>2026-05-03T07:08:45.031Z</time></trkpt><trkpt lat="42.3387344" lon="13.4435285"><ele>638.6</ele><time>2026-05-03T07:08:46.031Z</time></trkpt><trkpt lat="42.3387289" lon="13.4433993"><ele>637.8</ele><time>2026-05-03T07:08:47.031Z</time></trkpt><trkpt lat="42.3387114" lon="13.4432736"><ele>637.0</ele><time>2026-05-03T07:08:48.031Z</time></trkpt><trkpt lat="42.3386865" lon="13.4431614"><ele>637.0</ele><time>2026-05-03T07:08:49.031Z</time></trkpt><trkpt lat="42.3386792" lon="13.4430452"><ele>637.0</ele><time>2026-05-03T07:08:50.031Z</time></trkpt><trkpt lat="42.338695" lon="13.4429206"><ele>637.0</ele><time>2026-05-03T07:08:51.031Z</time></trkpt><trkpt lat="42.3387195" lon="13.4427875"><ele>637.0</ele><time>2026-05-03T07:08:52.032Z</time></trkpt><trkpt lat="42.338753" lon="13.4426458"><ele>637.0</ele><time>2026-05-03T07:08:53.031Z</time></trkpt><trkpt lat="42.3387918" lon="13.4424879"><ele>637.0</ele><time>2026-05-03T07:08:54.031Z</time></trkpt><trkpt lat="42.33883" lon="13.442312"><ele>637.0</ele><time>2026-05-03T07:08:55.032Z</time></trkpt><trkpt lat="42.3388797" lon="13.4421191"><ele>637.0</ele><time>2026-05-03T07:08:56.031Z</time></trkpt><trkpt lat="42.3389339" lon="13.4419217"><ele>637.0</ele><time>2026-05-03T07:08:57.031Z</time></trkpt><trkpt lat="42.3389936" lon="13.4417122"><ele>641.3333333333334</ele><time>2026-05-03T07:08:58.031Z</time></trkpt><trkpt lat="42.3390536" lon="13.4414994"><ele>645.6666666666666</ele><time>2026-05-03T07:08:59.031Z</time></trkpt><trkpt lat="42.3391156" lon="13.4412743"><ele>650.0</ele><time>2026-05-03T07:09:00.031Z</time></trkpt><trkpt lat="42.3391774" lon="13.4410454"><ele>649.3333333333333</ele><time>2026-05-03T07:09:01.031Z</time></trkpt><trkpt lat="42.3392511" lon="13.4408223"><ele>648.6666666666666</ele><time>2026-05-03T07:09:02.031Z</time></trkpt><trkpt lat="42.3393317" lon="13.4405975"><ele>648.0</ele><time>2026-05-03T07:09:03.031Z</time></trkpt><trkpt lat="42.3394235" lon="13.4403873"><ele>648.0</ele><time>2026-05-03T07:09:04.031Z</time></trkpt><trkpt lat="42.3395272" lon="13.4401803"><ele>648.0</ele><time>2026-05-03T07:09:05.031Z</time></trkpt><trkpt lat="42.3396455" lon="13.439985"><ele>648.0</ele><time>2026-05-03T07:09:06.031Z</time></trkpt><trkpt lat="42.3397772" lon="13.4398015"><ele>650.3333333333334</ele><time>2026-05-03T07:09:07.031Z</time></trkpt><trkpt lat="42.3399086" lon="13.439632"><ele>652.6666666666667</ele><time>2026-05-03T07:09:08.031Z</time></trkpt><trkpt lat="42.3400512" lon="13.4394688"><ele>655.0</ele><time>2026-05-03T07:09:09.031Z</time></trkpt><trkpt lat="42.3402052" lon="13.4393225"><ele>655.0</ele><time>2026-05-03T07:09:10.031Z</time></trkpt><trkpt lat="42.3403693" lon="13.4391945"><ele>655.0</ele><time>2026-05-03T07:09:11.031Z</time></trkpt><trkpt lat="42.340538" lon="13.4390788"><ele>655.0</ele><time>2026-05-03T07:09:12.031Z</time></trkpt><trkpt lat="42.3407147" lon="13.4389833"><ele>655.0</ele><time>2026-05-03T07:09:13.031Z</time></trkpt><trkpt lat="42.3409002" lon="13.4389068"><ele>655.0</ele><time>2026-05-03T07:09:14.031Z</time></trkpt><trkpt lat="42.3410968" lon="13.4388413"><ele>655.0</ele><time>2026-05-03T07:09:15.031Z</time></trkpt><trkpt lat="42.3412961" lon="13.4387802"><ele>658.3333333333334</ele><time>2026-05-03T07:09:16.031Z</time></trkpt><trkpt lat="42.3415002" lon="13.4387297"><ele>661.6666666666666</ele><time>2026-05-03T07:09:17.031Z</time></trkpt><trkpt lat="42.3417033" lon="13.4386727"><ele>665.0</ele><time>2026-05-03T07:09:18.031Z</time></trkpt><trkpt lat="42.3419087" lon="13.4386122"><ele>665.0</ele><time>2026-05-03T07:09:19.031Z</time></trkpt><trkpt lat="42.3421114" lon="13.4385482"><ele>665.0</ele><time>2026-05-03T07:09:20.031Z</time></trkpt><trkpt lat="42.3423057" lon="13.4384822"><ele>665.0</ele><time>2026-05-03T07:09:21.031Z</time></trkpt><trkpt lat="42.3424983" lon="13.438402"><ele>667.3333333333333</ele><time>2026-05-03T07:09:22.031Z</time></trkpt><trkpt lat="42.3426847" lon="13.4382985"><ele>669.6666666666666</ele><time>2026-05-03T07:09:23.031Z</time></trkpt><trkpt lat="42.3428722" lon="13.4381689"><ele>672.0</ele><time>2026-05-03T07:09:24.031Z</time></trkpt><trkpt lat="42.3430437" lon="13.4380353"><ele>673.0</ele><time>2026-05-03T07:09:25.031Z</time></trkpt><trkpt lat="42.3432001" lon="13.4378748"><ele>674.0</ele><time>2026-05-03T07:09:26.032Z</time></trkpt><trkpt lat="42.3433415" lon="13.4377036"><ele>675.0</ele><time>2026-05-03T07:09:27.031Z</time></trkpt><trkpt lat="42.3434775" lon="13.4375121"><ele>675.0</ele><time>2026-05-03T07:09:28.031Z</time></trkpt><trkpt lat="42.3435996" lon="13.4373291"><ele>675.0</ele><time>2026-05-03T07:09:29.031Z</time></trkpt><trkpt lat="42.3437098" lon="13.4371158"><ele>675.0</ele><time>2026-05-03T07:09:30.031Z</time></trkpt><trkpt lat="42.343794" lon="13.436894"><ele>673.6666666666666</ele><time>2026-05-03T07:09:31.031Z</time></trkpt><trkpt lat="42.3438705" lon="13.4366749"><ele>672.3333333333333</ele><time>2026-05-03T07:09:32.032Z</time></trkpt><trkpt lat="42.3439381" lon="13.436452"><ele>671.0</ele><time>2026-05-03T07:09:33.031Z</time></trkpt><trkpt lat="42.343986" lon="13.4362212"><ele>678.6666666666666</ele><time>2026-05-03T07:09:34.031Z</time></trkpt><trkpt lat="42.3440225" lon="13.4359685"><ele>686.3333333333334</ele><time>2026-05-03T07:09:35.031Z</time></trkpt><trkpt lat="42.3440555" lon="13.4357187"><ele>694.0</ele><time>2026-05-03T07:09:36.031Z</time></trkpt><trkpt lat="42.3440838" lon="13.4354561"><ele>694.0</ele><time>2026-05-03T07:09:37.031Z</time></trkpt><trkpt lat="42.3441128" lon="13.4351994"><ele>694.0</ele><time>2026-05-03T07:09:38.031Z</time></trkpt><trkpt lat="42.3441513" lon="13.4349568"><ele>694.0</ele><time>2026-05-03T07:09:39.031Z</time></trkpt><trkpt lat="42.3441827" lon="13.4347055"><ele>693.3333333333334</ele><time>2026-05-03T07:09:40.031Z</time></trkpt><trkpt lat="42.3442341" lon="13.434469"><ele>692.6666666666666</ele><time>2026-05-03T07:09:41.031Z</time></trkpt><trkpt lat="42.344296" lon="13.4342309"><ele>692.0</ele><time>2026-05-03T07:09:42.031Z</time></trkpt><trkpt lat="42.3443754" lon="13.433999"><ele>692.0</ele><time>2026-05-03T07:09:43.031Z</time></trkpt><trkpt lat="42.344472" lon="13.4337706"><ele>692.0</ele><time>2026-05-03T07:09:44.031Z</time></trkpt><trkpt lat="42.344582" lon="13.433553"><ele>692.0</ele><time>2026-05-03T07:09:45.031Z</time></trkpt><trkpt lat="42.3447062" lon="13.4333428"><ele>694.3333333333333</ele><time>2026-05-03T07:09:46.031Z</time></trkpt><trkpt lat="42.3448468" lon="13.433156"><ele>696.6666666666666</ele><time>2026-05-03T07:09:47.031Z</time></trkpt><trkpt lat="42.3450018" lon="13.4329792"><ele>699.0</ele><time>2026-05-03T07:09:48.031Z</time></trkpt><trkpt lat="42.3451692" lon="13.4328179"><ele>699.0</ele><time>2026-05-03T07:09:49.031Z</time></trkpt><trkpt lat="42.3453395" lon="13.432662"><ele>699.0</ele><time>2026-05-03T07:09:50.031Z</time></trkpt><trkpt lat="42.3455426" lon="13.4325559"><ele>699.0</ele><time>2026-05-03T07:09:51.031Z</time></trkpt><trkpt lat="42.3457361" lon="13.4324516"><ele>702.0</ele><time>2026-05-03T07:09:52.031Z</time></trkpt><trkpt lat="42.3459371" lon="13.4323566"><ele>705.0</ele><time>2026-05-03T07:09:53.032Z</time></trkpt><trkpt lat="42.3461417" lon="13.4322654"><ele>708.0</ele><time>2026-05-03T07:09:54.031Z</time></trkpt><trkpt lat="42.3463453" lon="13.4321746"><ele>706.6666666666666</ele><time>2026-05-03T07:09:55.031Z</time></trkpt><trkpt lat="42.346548" lon="13.4320828"><ele>705.3333333333333</ele><time>2026-05-03T07:09:56.031Z</time></trkpt><trkpt lat="42.3467539" lon="13.431986"><ele>704.0</ele><time>2026-05-03T07:09:57.031Z</time></trkpt><trkpt lat="42.3469557" lon="13.4318975"><ele>704.0</ele><time>2026-05-03T07:09:58.031Z</time></trkpt><trkpt lat="42.3471585" lon="13.4318135"><ele>704.0</ele><time>2026-05-03T07:09:59.031Z</time></trkpt><trkpt lat="42.3473674" lon="13.4317243"><ele>704.0</ele><time>2026-05-03T07:10:00.031Z</time></trkpt><trkpt lat="42.3475719" lon="13.4316328"><ele>706.3333333333333</ele><time>2026-05-03T07:10:01.031Z</time></trkpt><trkpt lat="42.347779" lon="13.431544"><ele>708.6666666666666</ele><time>2026-05-03T07:10:02.031Z</time></trkpt><trkpt lat="42.3479847" lon="13.4314543"><ele>711.0</ele><time>2026-05-03T07:10:03.031Z</time></trkpt><trkpt lat="42.3481904" lon="13.4313586"><ele>711.6666666666666</ele><time>2026-05-03T07:10:04.031Z</time></trkpt><trkpt lat="42.3484011" lon="13.4312655"><ele>712.3333333333333</ele><time>2026-05-03T07:10:05.031Z</time></trkpt><trkpt lat="42.3486072" lon="13.4311697"><ele>713.0</ele><time>2026-05-03T07:10:06.031Z</time></trkpt><trkpt lat="42.348812" lon="13.4310765"><ele>715.6666666666666</ele><time>2026-05-03T07:10:07.031Z</time></trkpt><trkpt lat="42.3490162" lon="13.4309852"><ele>718.3333333333334</ele><time>2026-05-03T07:10:08.031Z</time></trkpt><trkpt lat="42.3492059" lon="13.4309001"><ele>721.0</ele><time>2026-05-03T07:10:09.031Z</time></trkpt><trkpt lat="42.3493884" lon="13.4308164"><ele>721.0</ele><time>2026-05-03T07:10:10.031Z</time></trkpt><trkpt lat="42.3495672" lon="13.4307107"><ele>721.0</ele><time>2026-05-03T07:10:11.031Z</time></trkpt><trkpt lat="42.3497493" lon="13.4306023"><ele>721.0</ele><time>2026-05-03T07:10:12.031Z</time></trkpt><trkpt lat="42.3499242" lon="13.4304835"><ele>720.3333333333334</ele><time>2026-05-03T07:10:13.031Z</time></trkpt><trkpt lat="42.3501015" lon="13.4303484"><ele>719.6666666666666</ele><time>2026-05-03T07:10:14.031Z</time></trkpt><trkpt lat="42.3502793" lon="13.4302105"><ele>719.0</ele><time>2026-05-03T07:10:15.031Z</time></trkpt><trkpt lat="42.3504605" lon="13.4300669"><ele>723.3333333333333</ele><time>2026-05-03T07:10:16.031Z</time></trkpt><trkpt lat="42.3506383" lon="13.4299308"><ele>727.6666666666666</ele><time>2026-05-03T07:10:17.031Z</time></trkpt><trkpt lat="42.3508128" lon="13.4297987"><ele>732.0</ele><time>2026-05-03T07:10:18.031Z</time></trkpt><trkpt lat="42.3509896" lon="13.4296699"><ele>730.6666666666666</ele><time>2026-05-03T07:10:19.032Z</time></trkpt><trkpt lat="42.3511684" lon="13.4295369"><ele>729.3333333333333</ele><time>2026-05-03T07:10:20.032Z</time></trkpt><trkpt lat="42.351337" lon="13.4294019"><ele>728.0</ele><time>2026-05-03T07:10:21.031Z</time></trkpt><trkpt lat="42.3514954" lon="13.4292791"><ele>732.6666666666666</ele><time>2026-05-03T07:10:22.031Z</time></trkpt><trkpt lat="42.3516326" lon="13.4291611"><ele>737.3333333333334</ele><time>2026-05-03T07:10:23.031Z</time></trkpt><trkpt lat="42.3517666" lon="13.4290426"><ele>742.0</ele><time>2026-05-03T07:10:24.032Z</time></trkpt><trkpt lat="42.3518949" lon="13.4289328"><ele>742.0</ele><time>2026-05-03T07:10:25.031Z</time></trkpt><trkpt lat="42.3520146" lon="13.4288289"><ele>742.0</ele><time>2026-05-03T07:10:26.031Z</time></trkpt><trkpt lat="42.3521077" lon="13.428754"><ele>742.0</ele><time>2026-05-03T07:10:27.031Z</time></trkpt><trkpt lat="42.3522085" lon="13.4286481"><ele>742.0</ele><time>2026-05-03T07:10:28.031Z</time></trkpt><trkpt lat="42.3523173" lon="13.4285485"><ele>742.0</ele><time>2026-05-03T07:10:29.031Z</time></trkpt><trkpt lat="42.3524317" lon="13.4284432"><ele>742.0</ele><time>2026-05-03T07:10:30.031Z</time></trkpt><trkpt lat="42.3525493" lon="13.4283266"><ele>742.0</ele><time>2026-05-03T07:10:31.031Z</time></trkpt><trkpt lat="42.3526657" lon="13.4281942"><ele>742.0</ele><time>2026-05-03T07:10:32.031Z</time></trkpt><trkpt lat="42.3527834" lon="13.4280618"><ele>739.0</ele><time>2026-05-03T07:10:33.031Z</time></trkpt><trkpt lat="42.3529022" lon="13.4278933"><ele>736.0</ele><time>2026-05-03T07:10:34.032Z</time></trkpt><trkpt lat="42.3530138" lon="13.4277147"><ele>733.0</ele><time>2026-05-03T07:10:35.031Z</time></trkpt><trkpt lat="42.3531225" lon="13.4275201"><ele>731.3333333333334</ele><time>2026-05-03T07:10:36.032Z</time></trkpt><trkpt lat="42.3532209" lon="13.4273079"><ele>729.6666666666666</ele><time>2026-05-03T07:10:37.031Z</time></trkpt><trkpt lat="42.3533129" lon="13.4270844"><ele>728.0</ele><time>2026-05-03T07:10:38.031Z</time></trkpt><trkpt lat="42.3533947" lon="13.4268452"><ele>728.0</ele><time>2026-05-03T07:10:39.031Z</time></trkpt><trkpt lat="42.353465" lon="13.4265989"><ele>728.0</ele><time>2026-05-03T07:10:40.032Z</time></trkpt><trkpt lat="42.3535174" lon="13.4263423"><ele>728.0</ele><time>2026-05-03T07:10:41.031Z</time></trkpt><trkpt lat="42.3535568" lon="13.4260809"><ele>729.0</ele><time>2026-05-03T07:10:42.031Z</time></trkpt><trkpt lat="42.3535754" lon="13.4258201"><ele>730.0</ele><time>2026-05-03T07:10:43.031Z</time></trkpt><trkpt lat="42.3535753" lon="13.4255584"><ele>731.0</ele><time>2026-05-03T07:10:44.031Z</time></trkpt><trkpt lat="42.3535635" lon="13.4253061"><ele>732.0</ele><time>2026-05-03T07:10:45.031Z</time></trkpt><trkpt lat="42.353539" lon="13.4250519"><ele>733.0</ele><time>2026-05-03T07:10:46.031Z</time></trkpt><trkpt lat="42.3534981" lon="13.4247956"><ele>734.0</ele><time>2026-05-03T07:10:47.031Z</time></trkpt><trkpt lat="42.3534468" lon="13.4245486"><ele>736.0</ele><time>2026-05-03T07:10:48.031Z</time></trkpt><trkpt lat="42.3533861" lon="13.4242947"><ele>738.0</ele><time>2026-05-03T07:10:49.031Z</time></trkpt><trkpt lat="42.3533176" lon="13.4240421"><ele>740.0</ele><time>2026-05-03T07:10:50.031Z</time></trkpt><trkpt lat="42.3532463" lon="13.4237834"><ele>742.6666666666666</ele><time>2026-05-03T07:10:51.031Z</time></trkpt><trkpt lat="42.3531759" lon="13.4235271"><ele>745.3333333333334</ele><time>2026-05-03T07:10:52.031Z</time></trkpt><trkpt lat="42.3531059" lon="13.4232689"><ele>748.0</ele><time>2026-05-03T07:10:53.031Z</time></trkpt><trkpt lat="42.3530393" lon="13.4230203"><ele>744.3333333333334</ele><time>2026-05-03T07:10:54.031Z</time></trkpt><trkpt lat="42.3529769" lon="13.4227887"><ele>740.6666666666666</ele><time>2026-05-03T07:10:55.031Z</time></trkpt><trkpt lat="42.3529166" lon="13.4225627"><ele>737.0</ele><time>2026-05-03T07:10:56.031Z</time></trkpt><trkpt lat="42.3528542" lon="13.4223317"><ele>739.3333333333333</ele><time>2026-05-03T07:10:57.032Z</time></trkpt><trkpt lat="42.3527928" lon="13.4221015"><ele>741.6666666666666</ele><time>2026-05-03T07:10:58.031Z</time></trkpt><trkpt lat="42.3527324" lon="13.4218682"><ele>744.0</ele><time>2026-05-03T07:10:59.031Z</time></trkpt><trkpt lat="42.3526711" lon="13.4216552"><ele>744.0</ele><time>2026-05-03T07:11:00.031Z</time></trkpt><trkpt lat="42.3526271" lon="13.4214626"><ele>744.0</ele><time>2026-05-03T07:11:01.031Z</time></trkpt><trkpt lat="42.3525884" lon="13.4212778"><ele>744.0</ele><time>2026-05-03T07:11:02.032Z</time></trkpt><trkpt lat="42.3525801" lon="13.4210916"><ele>744.0</ele><time>2026-05-03T07:11:03.031Z</time></trkpt><trkpt lat="42.3525847" lon="13.4209099"><ele>743.25</ele><time>2026-05-03T07:11:04.031Z</time></trkpt><trkpt lat="42.3525928" lon="13.4207192"><ele>742.5</ele><time>2026-05-03T07:11:05.031Z</time></trkpt><trkpt lat="42.3526012" lon="13.4205337"><ele>741.75</ele><time>2026-05-03T07:11:06.031Z</time></trkpt><trkpt lat="42.3525997" lon="13.4203563"><ele>741.0</ele><time>2026-05-03T07:11:07.031Z</time></trkpt><trkpt lat="42.3525868" lon="13.4201933"><ele>741.0</ele><time>2026-05-03T07:11:08.031Z</time></trkpt><trkpt lat="42.3525542" lon="13.4200432"><ele>741.0</ele><time>2026-05-03T07:11:09.031Z</time></trkpt><trkpt lat="42.3525056" lon="13.4199038"><ele>741.0</ele><time>2026-05-03T07:11:10.031Z</time></trkpt><trkpt lat="42.3524525" lon="13.4197736"><ele>741.0</ele><time>2026-05-03T07:11:11.031Z</time></trkpt><trkpt lat="42.3524015" lon="13.4196544"><ele>741.0</ele><time>2026-05-03T07:11:12.031Z</time></trkpt><trkpt lat="42.3523479" lon="13.4195446"><ele>741.0</ele><time>2026-05-03T07:11:13.032Z</time></trkpt><trkpt lat="42.3523237" lon="13.4194646"><ele>741.0</ele><time>2026-05-03T07:11:14.031Z</time></trkpt><trkpt lat="42.3522945" lon="13.4193667"><ele>741.0</ele><time>2026-05-03T07:11:15.031Z</time></trkpt><trkpt lat="42.3522841" lon="13.4192796"><ele>741.0</ele><time>2026-05-03T07:11:16.031Z</time></trkpt><trkpt lat="42.3522723" lon="13.4191875"><ele>741.0</ele><time>2026-05-03T07:11:17.031Z</time></trkpt><trkpt lat="42.3522851" lon="13.4190676"><ele>741.0</ele><time>2026-05-03T07:11:19.031Z</time></trkpt><trkpt lat="42.3522899" lon="13.4189541"><ele>741.0</ele><time>2026-05-03T07:11:22.031Z</time></trkpt><trkpt lat="42.3522688" lon="13.4188694"><ele>741.0</ele><time>2026-05-03T07:11:24.031Z</time></trkpt><trkpt lat="42.3521887" lon="13.4187826"><ele>741.0</ele><time>2026-05-03T07:11:26.031Z</time></trkpt><trkpt lat="42.3520531" lon="13.4186919"><ele>741.0</ele><time>2026-05-03T07:11:28.031Z</time></trkpt><trkpt lat="42.3519698" lon="13.4186295"><ele>741.0</ele><time>2026-05-03T07:11:29.031Z</time></trkpt><trkpt lat="42.3518935" lon="13.4185495"><ele>738.25</ele><time>2026-05-03T07:11:30.031Z</time></trkpt><trkpt lat="42.3518157" lon="13.4184465"><ele>735.5</ele><time>2026-05-03T07:11:31.031Z</time></trkpt><trkpt lat="42.3517423" lon="13.4183396"><ele>732.75</ele><time>2026-05-03T07:11:32.031Z</time></trkpt><trkpt lat="42.3517219" lon="13.4181897"><ele>730.0</ele><time>2026-05-03T07:11:33.031Z</time></trkpt><trkpt lat="42.3517002" lon="13.4180259"><ele>730.0</ele><time>2026-05-03T07:11:34.031Z</time></trkpt><trkpt lat="42.3516964" lon="13.4178435"><ele>730.0</ele><time>2026-05-03T07:11:35.031Z</time></trkpt><trkpt lat="42.3516997" lon="13.4176539"><ele>730.0</ele><time>2026-05-03T07:11:36.031Z</time></trkpt><trkpt lat="42.3517051" lon="13.4174457"><ele>730.0</ele><time>2026-05-03T07:11:37.031Z</time></trkpt><trkpt lat="42.3517104" lon="13.4172298"><ele>729.0</ele><time>2026-05-03T07:11:38.031Z</time></trkpt><trkpt lat="42.3517261" lon="13.4170061"><ele>728.0</ele><time>2026-05-03T07:11:39.031Z</time></trkpt><trkpt lat="42.3517386" lon="13.4168016"><ele>727.0</ele><time>2026-05-03T07:11:40.031Z</time></trkpt><trkpt lat="42.3517492" lon="13.4166118"><ele>727.0</ele><time>2026-05-03T07:11:41.031Z</time></trkpt><trkpt lat="42.3517843" lon="13.4164677"><ele>727.0</ele><time>2026-05-03T07:11:42.031Z</time></trkpt><trkpt lat="42.3518168" lon="13.4163326"><ele>727.0</ele><time>2026-05-03T07:11:43.031Z</time></trkpt><trkpt lat="42.3518557" lon="13.4161827"><ele>727.0</ele><time>2026-05-03T07:11:44.031Z</time></trkpt><trkpt lat="42.3519809" lon="13.4159175"><ele>726.4000000000001</ele><time>2026-05-03T07:11:46.031Z</time></trkpt><trkpt lat="42.3520552" lon="13.4158101"><ele>725.8000000000001</ele><time>2026-05-03T07:11:47.031Z</time></trkpt><trkpt lat="42.3521232" lon="13.4156981"><ele>725.2</ele><time>2026-05-03T07:11:48.031Z</time></trkpt><trkpt lat="42.3521814" lon="13.415581"><ele>724.6</ele><time>2026-05-03T07:11:49.031Z</time></trkpt><trkpt lat="42.3522455" lon="13.4154576"><ele>724.0</ele><time>2026-05-03T07:11:50.031Z</time></trkpt><trkpt lat="42.3523073" lon="13.415323"><ele>723.25</ele><time>2026-05-03T07:11:51.031Z</time></trkpt><trkpt lat="42.3523686" lon="13.4151823"><ele>722.5</ele><time>2026-05-03T07:11:52.031Z</time></trkpt><trkpt lat="42.3524238" lon="13.4150332"><ele>721.75</ele><time>2026-05-03T07:11:53.031Z</time></trkpt><trkpt lat="42.3524665" lon="13.414867"><ele>721.0</ele><time>2026-05-03T07:11:54.031Z</time></trkpt><trkpt lat="42.3524974" lon="13.4146912"><ele>720.75</ele><time>2026-05-03T07:11:55.031Z</time></trkpt><trkpt lat="42.3525168" lon="13.4145096"><ele>720.5</ele><time>2026-05-03T07:11:56.031Z</time></trkpt><trkpt lat="42.3525213" lon="13.4143308"><ele>720.25</ele><time>2026-05-03T07:11:57.031Z</time></trkpt><trkpt lat="42.3525118" lon="13.4141689"><ele>720.0</ele><time>2026-05-03T07:11:58.031Z</time></trkpt><trkpt lat="42.3524907" lon="13.4140391"><ele>720.0</ele><time>2026-05-03T07:11:59.031Z</time></trkpt><trkpt lat="42.3524598" lon="13.413915"><ele>720.0</ele><time>2026-05-03T07:12:00.031Z</time></trkpt><trkpt lat="42.3524089" lon="13.4137888"><ele>720.0</ele><time>2026-05-03T07:12:01.031Z</time></trkpt><trkpt lat="42.3523545" lon="13.4136595"><ele>720.0</ele><time>2026-05-03T07:12:02.031Z</time></trkpt><trkpt lat="42.3522926" lon="13.4135234"><ele>720.0</ele><time>2026-05-03T07:12:03.031Z</time></trkpt><trkpt lat="42.352228" lon="13.4133789"><ele>719.4</ele><time>2026-05-03T07:12:04.031Z</time></trkpt><trkpt lat="42.3521665" lon="13.4132402"><ele>718.8</ele><time>2026-05-03T07:12:05.031Z</time></trkpt><trkpt lat="42.3521067" lon="13.4131094"><ele>718.2</ele><time>2026-05-03T07:12:06.031Z</time></trkpt><trkpt lat="42.3520638" lon="13.4129939"><ele>717.6</ele><time>2026-05-03T07:12:07.031Z</time></trkpt><trkpt lat="42.3520489" lon="13.4128801"><ele>717.0</ele><time>2026-05-03T07:12:08.032Z</time></trkpt><trkpt lat="42.3520317" lon="13.412779"><ele>716.6</ele><time>2026-05-03T07:12:09.031Z</time></trkpt><trkpt lat="42.3520178" lon="13.4126804"><ele>716.2</ele><time>2026-05-03T07:12:10.031Z</time></trkpt><trkpt lat="42.3520184" lon="13.4125358"><ele>715.8</ele><time>2026-05-03T07:12:12.031Z</time></trkpt><trkpt lat="42.3520498" lon="13.4124312"><ele>715.4</ele><time>2026-05-03T07:12:14.031Z</time></trkpt><trkpt lat="42.3521199" lon="13.4123143"><ele>715.0</ele><time>2026-05-03T07:12:16.032Z</time></trkpt><trkpt lat="42.3521662" lon="13.4122316"><ele>715.2</ele><time>2026-05-03T07:12:17.031Z</time></trkpt><trkpt lat="42.3522148" lon="13.4121318"><ele>715.4</ele><time>2026-05-03T07:12:18.031Z</time></trkpt><trkpt lat="42.3522769" lon="13.4120209"><ele>715.5999999999999</ele><time>2026-05-03T07:12:19.031Z</time></trkpt><trkpt lat="42.3523462" lon="13.4119139"><ele>715.8</ele><time>2026-05-03T07:12:20.032Z</time></trkpt><trkpt lat="42.352417" lon="13.4118059"><ele>716.0</ele><time>2026-05-03T07:12:21.031Z</time></trkpt><trkpt lat="42.3524893" lon="13.4116938"><ele>716.0</ele><time>2026-05-03T07:12:22.032Z</time></trkpt><trkpt lat="42.3525635" lon="13.4115765"><ele>716.0</ele><time>2026-05-03T07:12:23.031Z</time></trkpt><trkpt lat="42.3526355" lon="13.4114493"><ele>716.0</ele><time>2026-05-03T07:12:24.031Z</time></trkpt><trkpt lat="42.35272" lon="13.4113275"><ele>716.0</ele><time>2026-05-03T07:12:25.031Z</time></trkpt><trkpt lat="42.3528077" lon="13.4112049"><ele>716.0</ele><time>2026-05-03T07:12:26.031Z</time></trkpt><trkpt lat="42.352892" lon="13.4110872"><ele>716.0</ele><time>2026-05-03T07:12:27.031Z</time></trkpt><trkpt lat="42.3529746" lon="13.4109762"><ele>716.0</ele><time>2026-05-03T07:12:28.031Z</time></trkpt><trkpt lat="42.3530531" lon="13.4108706"><ele>716.0</ele><time>2026-05-03T07:12:29.031Z</time></trkpt><trkpt lat="42.3531314" lon="13.4107513"><ele>716.0</ele><time>2026-05-03T07:12:30.031Z</time></trkpt><trkpt lat="42.3532098" lon="13.4106342"><ele>716.0</ele><time>2026-05-03T07:12:31.031Z</time></trkpt><trkpt lat="42.3532859" lon="13.4105111"><ele>716.0</ele><time>2026-05-03T07:12:32.031Z</time></trkpt><trkpt lat="42.3533665" lon="13.4103851"><ele>716.0</ele><time>2026-05-03T07:12:33.031Z</time></trkpt><trkpt lat="42.3534461" lon="13.4102587"><ele>715.25</ele><time>2026-05-03T07:12:34.031Z</time></trkpt><trkpt lat="42.3535308" lon="13.4101338"><ele>714.5</ele><time>2026-05-03T07:12:35.031Z</time></trkpt><trkpt lat="42.353613" lon="13.4100132"><ele>713.75</ele><time>2026-05-03T07:12:36.031Z</time></trkpt><trkpt lat="42.3536981" lon="13.409899"><ele>713.0</ele><time>2026-05-03T07:12:37.031Z</time></trkpt><trkpt lat="42.3537827" lon="13.4097722"><ele>713.25</ele><time>2026-05-03T07:12:38.032Z</time></trkpt><trkpt lat="42.3538655" lon="13.4096429"><ele>713.5</ele><time>2026-05-03T07:12:39.031Z</time></trkpt><trkpt lat="42.3539538" lon="13.4095123"><ele>713.75</ele><time>2026-05-03T07:12:40.031Z</time></trkpt><trkpt lat="42.3540496" lon="13.4093727"><ele>714.0</ele><time>2026-05-03T07:12:41.031Z</time></trkpt><trkpt lat="42.3541456" lon="13.4092373"><ele>714.0</ele><time>2026-05-03T07:12:42.031Z</time></trkpt><trkpt lat="42.3542374" lon="13.4091032"><ele>714.0</ele><time>2026-05-03T07:12:43.032Z</time></trkpt><trkpt lat="42.3543264" lon="13.4089625"><ele>714.0</ele><time>2026-05-03T07:12:44.031Z</time></trkpt><trkpt lat="42.3544205" lon="13.4088211"><ele>714.0</ele><time>2026-05-03T07:12:45.031Z</time></trkpt><trkpt lat="42.3545033" lon="13.4086799"><ele>713.25</ele><time>2026-05-03T07:12:46.031Z</time></trkpt><trkpt lat="42.3545849" lon="13.408534"><ele>712.5</ele><time>2026-05-03T07:12:47.031Z</time></trkpt><trkpt lat="42.3546559" lon="13.4083909"><ele>711.75</ele><time>2026-05-03T07:12:48.031Z</time></trkpt><trkpt lat="42.3547269" lon="13.4082506"><ele>711.0</ele><time>2026-05-03T07:12:49.031Z</time></trkpt><trkpt lat="42.3547967" lon="13.4081128"><ele>711.25</ele><time>2026-05-03T07:12:50.032Z</time></trkpt><trkpt lat="42.3548623" lon="13.407978"><ele>711.5</ele><time>2026-05-03T07:12:51.031Z</time></trkpt><trkpt lat="42.354927" lon="13.4078448"><ele>711.75</ele><time>2026-05-03T07:12:52.031Z</time></trkpt><trkpt lat="42.3549822" lon="13.4077128"><ele>712.0</ele><time>2026-05-03T07:12:53.031Z</time></trkpt><trkpt lat="42.3550392" lon="13.4075993"><ele>712.0</ele><time>2026-05-03T07:12:54.031Z</time></trkpt><trkpt lat="42.3550915" lon="13.4074921"><ele>712.0</ele><time>2026-05-03T07:12:55.032Z</time></trkpt><trkpt lat="42.3551366" lon="13.4074077"><ele>712.0</ele><time>2026-05-03T07:12:56.031Z</time></trkpt><trkpt lat="42.3551802" lon="13.4073412"><ele>712.0</ele><time>2026-05-03T07:12:57.031Z</time></trkpt><trkpt lat="42.3552885" lon="13.4072797"><ele>712.0</ele><time>2026-05-03T07:12:59.032Z</time></trkpt><trkpt lat="42.3553582" lon="13.4072641"><ele>712.0</ele><time>2026-05-03T07:13:00.031Z</time></trkpt><trkpt lat="42.3554277" lon="13.4072442"><ele>711.9999999999999</ele><time>2026-05-03T07:13:01.031Z</time></trkpt><trkpt lat="42.355493" lon="13.4071958"><ele>712.0</ele><time>2026-05-03T07:13:02.031Z</time></trkpt><trkpt lat="42.3555403" lon="13.4071334"><ele>712.0</ele><time>2026-05-03T07:13:03.031Z</time></trkpt><trkpt lat="42.3555682" lon="13.4070494"><ele>712.0</ele><time>2026-05-03T07:13:04.031Z</time></trkpt><trkpt lat="42.3555791" lon="13.4069512"><ele>712.0</ele><time>2026-05-03T07:13:05.031Z</time></trkpt><trkpt lat="42.3556028" lon="13.4068532"><ele>711.9999999999999</ele><time>2026-05-03T07:13:06.031Z</time></trkpt><trkpt lat="42.3556416" lon="13.406751"><ele>712.0</ele><time>2026-05-03T07:13:07.031Z</time></trkpt><trkpt lat="42.3556903" lon="13.406648"><ele>712.0</ele><time>2026-05-03T07:13:08.031Z</time></trkpt><trkpt lat="42.3557403" lon="13.4065516"><ele>712.0</ele><time>2026-05-03T07:13:09.032Z</time></trkpt><trkpt lat="42.3557847" lon="13.4064576"><ele>712.0</ele><time>2026-05-03T07:13:10.031Z</time></trkpt><trkpt lat="42.3558145" lon="13.4063662"><ele>712.0</ele><time>2026-05-03T07:13:11.031Z</time></trkpt><trkpt lat="42.3558425" lon="13.4062855"><ele>712.0</ele><time>2026-05-03T07:13:12.031Z</time></trkpt><trkpt lat="42.3558946" lon="13.4061758"><ele>712.0</ele><time>2026-05-03T07:13:14.031Z</time></trkpt><trkpt lat="42.3559523" lon="13.4060286"><ele>712.0</ele><time>2026-05-03T07:13:16.031Z</time></trkpt><trkpt lat="42.3559674" lon="13.4059378"><ele>712.0</ele><time>2026-05-03T07:13:17.032Z</time></trkpt><trkpt lat="42.3559609" lon="13.4058434"><ele>712.0</ele><time>2026-05-03T07:13:18.031Z</time></trkpt><trkpt lat="42.3559261" lon="13.4057469"><ele>712.0</ele><time>2026-05-03T07:13:19.031Z</time></trkpt><trkpt lat="42.3558906" lon="13.4056606"><ele>712.0</ele><time>2026-05-03T07:13:20.031Z</time></trkpt><trkpt lat="42.3558258" lon="13.4055765"><ele>712.0</ele><time>2026-05-03T07:13:21.031Z</time></trkpt><trkpt lat="42.3557758" lon="13.4054862"><ele>711.8</ele><time>2026-05-03T07:13:22.031Z</time></trkpt><trkpt lat="42.3557293" lon="13.4053696"><ele>711.6</ele><time>2026-05-03T07:13:23.031Z</time></trkpt><trkpt lat="42.3556909" lon="13.4052501"><ele>711.4</ele><time>2026-05-03T07:13:24.032Z</time></trkpt><trkpt lat="42.3556565" lon="13.4051212"><ele>711.1999999999999</ele><time>2026-05-03T07:13:25.032Z</time></trkpt><trkpt lat="42.3556243" lon="13.4049761"><ele>711.0</ele><time>2026-05-03T07:13:26.031Z</time></trkpt><trkpt lat="42.355604" lon="13.4048136"><ele>709.25</ele><time>2026-05-03T07:13:27.031Z</time></trkpt><trkpt lat="42.3555607" lon="13.4046498"><ele>707.5</ele><time>2026-05-03T07:13:28.031Z</time></trkpt><trkpt lat="42.3555191" lon="13.404475"><ele>705.75</ele><time>2026-05-03T07:13:29.031Z</time></trkpt><trkpt lat="42.3554844" lon="13.404297"><ele>704.0</ele><time>2026-05-03T07:13:30.031Z</time></trkpt><trkpt lat="42.3554423" lon="13.4041094"><ele>708.75</ele><time>2026-05-03T07:13:31.031Z</time></trkpt><trkpt lat="42.3553985" lon="13.4039359"><ele>713.5</ele><time>2026-05-03T07:13:32.031Z</time></trkpt><trkpt lat="42.3553592" lon="13.4037634"><ele>718.25</ele><time>2026-05-03T07:13:33.031Z</time></trkpt><trkpt lat="42.3553218" lon="13.4035959"><ele>723.0</ele><time>2026-05-03T07:13:34.031Z</time></trkpt><trkpt lat="42.3552747" lon="13.4034376"><ele>723.0</ele><time>2026-05-03T07:13:35.031Z</time></trkpt><trkpt lat="42.3552307" lon="13.4032946"><ele>723.0</ele><time>2026-05-03T07:13:36.031Z</time></trkpt><trkpt lat="42.3551852" lon="13.4031615"><ele>723.0</ele><time>2026-05-03T07:13:37.031Z</time></trkpt><trkpt lat="42.3551258" lon="13.4030477"><ele>723.0</ele><time>2026-05-03T07:13:38.031Z</time></trkpt><trkpt lat="42.3550654" lon="13.4029354"><ele>723.0</ele><time>2026-05-03T07:13:39.031Z</time></trkpt><trkpt lat="42.3549846" lon="13.4028274"><ele>721.25</ele><time>2026-05-03T07:13:40.031Z</time></trkpt><trkpt lat="42.3549019" lon="13.4027198"><ele>719.5</ele><time>2026-05-03T07:13:41.031Z</time></trkpt><trkpt lat="42.3548111" lon="13.4026189"><ele>717.75</ele><time>2026-05-03T07:13:42.031Z</time></trkpt><trkpt lat="42.3547248" lon="13.4025156"><ele>716.0</ele><time>2026-05-03T07:13:43.031Z</time></trkpt><trkpt lat="42.3546314" lon="13.4023991"><ele>718.4</ele><time>2026-05-03T07:13:44.031Z</time></trkpt><trkpt lat="42.3545267" lon="13.4022936"><ele>720.8</ele><time>2026-05-03T07:13:45.031Z</time></trkpt><trkpt lat="42.3544358" lon="13.4021847"><ele>723.1999999999999</ele><time>2026-05-03T07:13:46.031Z</time></trkpt><trkpt lat="42.3543809" lon="13.4021144"><ele>725.5999999999999</ele><time>2026-05-03T07:13:47.031Z</time></trkpt><trkpt lat="42.3543409" lon="13.4020106"><ele>728.0</ele><time>2026-05-03T07:13:48.031Z</time></trkpt><trkpt lat="42.354316" lon="13.4019069"><ele>728.0</ele><time>2026-05-03T07:13:49.031Z</time></trkpt><trkpt lat="42.3543128" lon="13.4017877"><ele>728.0</ele><time>2026-05-03T07:13:50.031Z</time></trkpt><trkpt lat="42.3543168" lon="13.4016892"><ele>728.0</ele><time>2026-05-03T07:13:51.031Z</time></trkpt><trkpt lat="42.3543313" lon="13.4015248"><ele>728.0</ele><time>2026-05-03T07:13:53.032Z</time></trkpt><trkpt lat="42.3542807" lon="13.4014035"><ele>728.0</ele><time>2026-05-03T07:13:55.031Z</time></trkpt><trkpt lat="42.3542014" lon="13.4013351"><ele>728.5</ele><time>2026-05-03T07:13:57.031Z</time></trkpt><trkpt lat="42.3541294" lon="13.401313"><ele>729.0</ele><time>2026-05-03T07:14:00.031Z</time></trkpt><trkpt lat="42.354042" lon="13.4012642"><ele>729.5</ele><time>2026-05-03T07:14:07.031Z</time></trkpt><trkpt lat="42.3539803" lon="13.401225"><ele>730.0</ele><time>2026-05-03T07:14:09.031Z</time></trkpt><trkpt lat="42.3539095" lon="13.4011898"><ele>730.5</ele><time>2026-05-03T07:14:13.031Z</time></trkpt><trkpt lat="42.3538276" lon="13.4011686"><ele>731.0</ele><time>2026-05-03T07:14:16.031Z</time></trkpt><trkpt lat="42.3537531" lon="13.4012581"><ele>731.5999999999999</ele><time>2026-05-03T07:14:19.031Z</time></trkpt><trkpt lat="42.3537154" lon="13.4014057"><ele>732.2</ele><time>2026-05-03T07:14:21.031Z</time></trkpt><trkpt lat="42.3537108" lon="13.4015622"><ele>732.8</ele><time>2026-05-03T07:14:23.031Z</time></trkpt><trkpt lat="42.3537047" lon="13.4016956"><ele>733.4000000000001</ele><time>2026-05-03T07:14:25.031Z</time></trkpt><trkpt lat="42.353716" lon="13.4018183"><ele>734.0</ele><time>2026-05-03T07:14:27.031Z</time></trkpt><trkpt lat="42.3537296" lon="13.4019415"><ele>734.0</ele><time>2026-05-03T07:14:29.031Z</time></trkpt><trkpt lat="42.3537387" lon="13.4020535"><ele>734.0</ele><time>2026-05-03T07:14:31.031Z</time></trkpt><trkpt lat="42.3537308" lon="13.4021433"><ele>734.0</ele><time>2026-05-03T07:14:37.031Z</time></trkpt><trkpt lat="42.3537278" lon="13.4022705"><ele>734.0</ele><time>2026-05-03T07:14:40.031Z</time></trkpt><trkpt lat="42.3537242" lon="13.4023619"><ele>734.0</ele><time>2026-05-03T07:22:17.031Z</time></trkpt><trkpt lat="42.3537337" lon="13.4022697"><ele>734.0</ele><time>2026-05-03T07:22:46.032Z</time></trkpt><trkpt lat="42.3537474" lon="13.4021771"><ele>734.1428571428571</ele><time>2026-05-03T07:22:53.031Z</time></trkpt><trkpt lat="42.353774" lon="13.4022581"><ele>734.2857142857143</ele><time>2026-05-03T07:23:22.031Z</time></trkpt><trkpt lat="42.353742" lon="13.4023336"><ele>734.4285714285714</ele><time>2026-05-03T07:23:30.496Z</time></trkpt><trkpt lat="42.3537992" lon="13.4023786"><ele>734.5714285714286</ele><time>2026-05-03T07:24:31.025Z</time></trkpt><trkpt lat="42.3538425" lon="13.4023112"><ele>734.7142857142858</ele><time>2026-05-03T07:27:02.031Z</time></trkpt><trkpt lat="42.3537692" lon="13.4022515"><ele>734.8571428571429</ele><time>2026-05-03T07:27:09.031Z</time></trkpt><trkpt lat="42.3537125" lon="13.402309"><ele>735.0</ele><time>2026-05-03T07:27:15.178Z</time></trkpt><trkpt lat="42.353725" lon="13.402398"><ele>735.0</ele><time>2026-05-03T07:30:41.038Z</time></trkpt><trkpt lat="42.3537824" lon="13.4023224"><ele>735.0</ele><time>2026-05-03T07:30:46.038Z</time></trkpt><trkpt lat="42.3537775" lon="13.4022261"><ele>735.0</ele><time>2026-05-03T07:30:48.038Z</time></trkpt><trkpt lat="42.353745" lon="13.4021074"><ele>735.0</ele><time>2026-05-03T07:30:50.038Z</time></trkpt><trkpt lat="42.3537226" lon="13.4019902"><ele>735.0</ele><time>2026-05-03T07:30:52.038Z</time></trkpt><trkpt lat="42.3537246" lon="13.4018907"><ele>735.0</ele><time>2026-05-03T07:30:54.038Z</time></trkpt><trkpt lat="42.353737" lon="13.4017873"><ele>734.8</ele><time>2026-05-03T07:30:56.038Z</time></trkpt><trkpt lat="42.3537909" lon="13.4016818"><ele>734.6</ele><time>2026-05-03T07:30:58.038Z</time></trkpt><trkpt lat="42.3538847" lon="13.4016184"><ele>734.4000000000001</ele><time>2026-05-03T07:31:00.038Z</time></trkpt><trkpt lat="42.353973" lon="13.4016428"><ele>734.2</ele><time>2026-05-03T07:31:02.038Z</time></trkpt><trkpt lat="42.3540582" lon="13.4017355"><ele>734.0</ele><time>2026-05-03T07:31:04.038Z</time></trkpt><trkpt lat="42.3541088" lon="13.401795"><ele>733.5</ele><time>2026-05-03T07:31:05.038Z</time></trkpt><trkpt lat="42.3541578" lon="13.4018514"><ele>733.0</ele><time>2026-05-03T07:31:06.038Z</time></trkpt><trkpt lat="42.3542089" lon="13.4019097"><ele>732.5</ele><time>2026-05-03T07:31:07.038Z</time></trkpt><trkpt lat="42.3542813" lon="13.402009"><ele>732.0</ele><time>2026-05-03T07:31:09.038Z</time></trkpt><trkpt lat="42.3543413" lon="13.4020852"><ele>731.5</ele><time>2026-05-03T07:31:11.038Z</time></trkpt><trkpt lat="42.3544008" lon="13.4021501"><ele>731.0</ele><time>2026-05-03T07:31:14.038Z</time></trkpt><trkpt lat="42.3544629" lon="13.4022082"><ele>731.0</ele><time>2026-05-03T07:31:17.038Z</time></trkpt><trkpt lat="42.354524" lon="13.4022768"><ele>731.0</ele><time>2026-05-03T07:31:19.038Z</time></trkpt><trkpt lat="42.354608" lon="13.4023702"><ele>731.0</ele><time>2026-05-03T07:31:21.038Z</time></trkpt><trkpt lat="42.35466" lon="13.4024308"><ele>731.0</ele><time>2026-05-03T07:31:23.038Z</time></trkpt><trkpt lat="42.3547203" lon="13.4024846"><ele>731.0</ele><time>2026-05-03T07:31:25.038Z</time></trkpt><trkpt lat="42.3547998" lon="13.4025943"><ele>731.0</ele><time>2026-05-03T07:31:27.038Z</time></trkpt><trkpt lat="42.3548477" lon="13.402655"><ele>729.6666666666666</ele><time>2026-05-03T07:31:28.038Z</time></trkpt><trkpt lat="42.3548989" lon="13.4027152"><ele>728.3333333333333</ele><time>2026-05-03T07:31:29.038Z</time></trkpt><trkpt lat="42.3549524" lon="13.4027836"><ele>727.0</ele><time>2026-05-03T07:31:30.038Z</time></trkpt><trkpt lat="42.3550077" lon="13.4028557"><ele>725.6666666666666</ele><time>2026-05-03T07:31:31.038Z</time></trkpt><trkpt lat="42.3550641" lon="13.4029382"><ele>724.3333333333334</ele><time>2026-05-03T07:31:32.038Z</time></trkpt><trkpt lat="42.3551143" lon="13.4030118"><ele>723.0</ele><time>2026-05-03T07:31:33.038Z</time></trkpt><trkpt lat="42.3551775" lon="13.4031126"><ele>723.0</ele><time>2026-05-03T07:31:35.037Z</time></trkpt><trkpt lat="42.3552151" lon="13.4032204"><ele>723.0</ele><time>2026-05-03T07:31:37.038Z</time></trkpt><trkpt lat="42.3552572" lon="13.4033231"><ele>723.0</ele><time>2026-05-03T07:31:39.038Z</time></trkpt><trkpt lat="42.3552932" lon="13.4034325"><ele>723.0</ele><time>2026-05-03T07:31:43.038Z</time></trkpt><trkpt lat="42.3553323" lon="13.4035622"><ele>723.0</ele><time>2026-05-03T07:31:45.038Z</time></trkpt><trkpt lat="42.3553501" lon="13.4036573"><ele>723.0</ele><time>2026-05-03T07:31:46.038Z</time></trkpt><trkpt lat="42.3553654" lon="13.4037677"><ele>724.4</ele><time>2026-05-03T07:31:47.039Z</time></trkpt><trkpt lat="42.3553846" lon="13.4038912"><ele>725.8</ele><time>2026-05-03T07:31:48.038Z</time></trkpt><trkpt lat="42.3554115" lon="13.4040229"><ele>727.2</ele><time>2026-05-03T07:31:49.038Z</time></trkpt><trkpt lat="42.3554376" lon="13.4041608"><ele>728.6</ele><time>2026-05-03T07:31:50.038Z</time></trkpt><trkpt lat="42.3554719" lon="13.4043031"><ele>730.0</ele><time>2026-05-03T07:31:51.038Z</time></trkpt><trkpt lat="42.3555091" lon="13.4044485"><ele>725.25</ele><time>2026-05-03T07:31:52.038Z</time></trkpt><trkpt lat="42.3555406" lon="13.4046033"><ele>720.5</ele><time>2026-05-03T07:31:53.038Z</time></trkpt><trkpt lat="42.3555791" lon="13.4047622"><ele>715.75</ele><time>2026-05-03T07:31:54.038Z</time></trkpt><trkpt lat="42.3556142" lon="13.4049178"><ele>711.0</ele><time>2026-05-03T07:31:55.038Z</time></trkpt><trkpt lat="42.3556392" lon="13.4050642"><ele>711.0</ele><time>2026-05-03T07:31:56.038Z</time></trkpt><trkpt lat="42.3556694" lon="13.4052051"><ele>711.0</ele><time>2026-05-03T07:31:57.038Z</time></trkpt><trkpt lat="42.3556923" lon="13.40533"><ele>711.0</ele><time>2026-05-03T07:31:58.038Z</time></trkpt><trkpt lat="42.3557122" lon="13.4054437"><ele>711.0</ele><time>2026-05-03T07:31:59.038Z</time></trkpt><trkpt lat="42.3557334" lon="13.405545"><ele>711.0</ele><time>2026-05-03T07:32:00.038Z</time></trkpt><trkpt lat="42.3557413" lon="13.4056929"><ele>711.1999999999999</ele><time>2026-05-03T07:32:02.038Z</time></trkpt><trkpt lat="42.3557372" lon="13.4057784"><ele>711.4</ele><time>2026-05-03T07:32:05.038Z</time></trkpt><trkpt lat="42.355752" lon="13.4058854"><ele>711.6</ele><time>2026-05-03T07:32:07.038Z</time></trkpt><trkpt lat="42.3557877" lon="13.406058"><ele>711.8</ele><time>2026-05-03T07:32:09.038Z</time></trkpt><trkpt lat="42.3558012" lon="13.4062148"><ele>712.0</ele><time>2026-05-03T07:32:11.038Z</time></trkpt><trkpt lat="42.3557992" lon="13.4063038"><ele>712.0</ele><time>2026-05-03T07:32:12.038Z</time></trkpt><trkpt lat="42.355786" lon="13.4063954"><ele>712.0</ele><time>2026-05-03T07:32:13.038Z</time></trkpt><trkpt lat="42.3557577" lon="13.4064874"><ele>712.0</ele><time>2026-05-03T07:32:14.038Z</time></trkpt><trkpt lat="42.3557161" lon="13.4065759"><ele>712.0</ele><time>2026-05-03T07:32:15.038Z</time></trkpt><trkpt lat="42.3556666" lon="13.4066676"><ele>712.0</ele><time>2026-05-03T07:32:16.038Z</time></trkpt><trkpt lat="42.3556066" lon="13.4067547"><ele>712.0</ele><time>2026-05-03T07:32:17.038Z</time></trkpt><trkpt lat="42.3555408" lon="13.4068287"><ele>712.0</ele><time>2026-05-03T07:32:18.038Z</time></trkpt><trkpt lat="42.3554768" lon="13.4068668"><ele>712.0</ele><time>2026-05-03T07:32:19.038Z</time></trkpt><trkpt lat="42.3554151" lon="13.4069066"><ele>712.0</ele><time>2026-05-03T07:32:20.038Z</time></trkpt><trkpt lat="42.3553328" lon="13.4070149"><ele>712.0</ele><time>2026-05-03T07:32:22.038Z</time></trkpt><trkpt lat="42.3553272" lon="13.4071555"><ele>712.0</ele><time>2026-05-03T07:32:24.038Z</time></trkpt><trkpt lat="42.3554292" lon="13.4072402"><ele>712.0</ele><time>2026-05-03T07:32:26.038Z</time></trkpt><trkpt lat="42.3555191" lon="13.407199"><ele>712.0</ele><time>2026-05-03T07:32:28.038Z</time></trkpt><trkpt lat="42.3555564" lon="13.4071278"><ele>712.0</ele><time>2026-05-03T07:32:29.038Z</time></trkpt><trkpt lat="42.3555827" lon="13.4069612"><ele>712.0</ele><time>2026-05-03T07:32:31.038Z</time></trkpt><trkpt lat="42.3556017" lon="13.4068648"><ele>712.0</ele><time>2026-05-03T07:32:32.038Z</time></trkpt><trkpt lat="42.3556343" lon="13.4067721"><ele>712.0</ele><time>2026-05-03T07:32:33.038Z</time></trkpt><trkpt lat="42.3556767" lon="13.4066787"><ele>712.0</ele><time>2026-05-03T07:32:34.038Z</time></trkpt><trkpt lat="42.3557194" lon="13.4065812"><ele>712.0</ele><time>2026-05-03T07:32:35.038Z</time></trkpt><trkpt lat="42.3557663" lon="13.4064844"><ele>712.0</ele><time>2026-05-03T07:32:36.038Z</time></trkpt><trkpt lat="42.3558087" lon="13.4063901"><ele>712.0</ele><time>2026-05-03T07:32:37.038Z</time></trkpt><trkpt lat="42.3558431" lon="13.4063032"><ele>712.0</ele><time>2026-05-03T07:32:38.039Z</time></trkpt><trkpt lat="42.3558768" lon="13.406228"><ele>712.0</ele><time>2026-05-03T07:32:39.038Z</time></trkpt><trkpt lat="42.3559357" lon="13.406088"><ele>712.0</ele><time>2026-05-03T07:32:41.038Z</time></trkpt><trkpt lat="42.3559667" lon="13.4060071"><ele>712.0</ele><time>2026-05-03T07:32:42.038Z</time></trkpt><trkpt lat="42.3559887" lon="13.4059142"><ele>712.0</ele><time>2026-05-03T07:32:43.038Z</time></trkpt><trkpt lat="42.3560182" lon="13.405813"><ele>712.0</ele><time>2026-05-03T07:32:44.038Z</time></trkpt><trkpt lat="42.3560617" lon="13.4057171"><ele>712.0</ele><time>2026-05-03T07:32:45.039Z</time></trkpt><trkpt lat="42.3561187" lon="13.405629"><ele>712.0</ele><time>2026-05-03T07:32:46.038Z</time></trkpt><trkpt lat="42.3561888" lon="13.4055557"><ele>711.8</ele><time>2026-05-03T07:32:47.038Z</time></trkpt><trkpt lat="42.3562721" lon="13.4054807"><ele>711.6</ele><time>2026-05-03T07:32:48.038Z</time></trkpt><trkpt lat="42.356354" lon="13.4054027"><ele>711.4</ele><time>2026-05-03T07:32:49.038Z</time></trkpt><trkpt lat="42.3564393" lon="13.4053187"><ele>711.1999999999999</ele><time>2026-05-03T07:32:50.038Z</time></trkpt><trkpt lat="42.3565318" lon="13.4052369"><ele>711.0</ele><time>2026-05-03T07:32:51.038Z</time></trkpt><trkpt lat="42.3566209" lon="13.4051586"><ele>710.4</ele><time>2026-05-03T07:32:52.038Z</time></trkpt><trkpt lat="42.3567144" lon="13.4050912"><ele>709.8</ele><time>2026-05-03T07:32:53.039Z</time></trkpt><trkpt lat="42.3568137" lon="13.405039"><ele>709.1999999999999</ele><time>2026-05-03T07:32:54.038Z</time></trkpt><trkpt lat="42.3569243" lon="13.4050079"><ele>708.5999999999999</ele><time>2026-05-03T07:32:55.038Z</time></trkpt><trkpt lat="42.3570396" lon="13.4049909"><ele>708.0</ele><time>2026-05-03T07:32:56.038Z</time></trkpt><trkpt lat="42.3571556" lon="13.404976"><ele>708.4</ele><time>2026-05-03T07:32:57.038Z</time></trkpt><trkpt lat="42.3572672" lon="13.4049605"><ele>708.8</ele><time>2026-05-03T07:32:58.038Z</time></trkpt><trkpt lat="42.3573614" lon="13.4049347"><ele>709.2</ele><time>2026-05-03T07:32:59.038Z</time></trkpt><trkpt lat="42.3574491" lon="13.4048896"><ele>709.6</ele><time>2026-05-03T07:33:00.038Z</time></trkpt><trkpt lat="42.3575181" lon="13.4048177"><ele>710.0</ele><time>2026-05-03T07:33:01.038Z</time></trkpt><trkpt lat="42.3575763" lon="13.4047328"><ele>708.4</ele><time>2026-05-03T07:33:02.038Z</time></trkpt><trkpt lat="42.3576181" lon="13.4046312"><ele>706.8</ele><time>2026-05-03T07:33:03.038Z</time></trkpt><trkpt lat="42.3576386" lon="13.4045108"><ele>705.2</ele><time>2026-05-03T07:33:04.038Z</time></trkpt><trkpt lat="42.3576584" lon="13.4043961"><ele>703.6</ele><time>2026-05-03T07:33:05.038Z</time></trkpt><trkpt lat="42.3576133" lon="13.404263"><ele>702.0</ele><time>2026-05-03T07:33:06.038Z</time></trkpt><trkpt lat="42.3575789" lon="13.4041363"><ele>702.0</ele><time>2026-05-03T07:33:07.038Z</time></trkpt><trkpt lat="42.3575323" lon="13.4040038"><ele>702.0</ele><time>2026-05-03T07:33:08.038Z</time></trkpt><trkpt lat="42.3574819" lon="13.4038588"><ele>702.0</ele><time>2026-05-03T07:33:09.038Z</time></trkpt><trkpt lat="42.3574282" lon="13.4037098"><ele>702.0</ele><time>2026-05-03T07:33:10.038Z</time></trkpt><trkpt lat="42.3573728" lon="13.4035526"><ele>702.25</ele><time>2026-05-03T07:33:11.038Z</time></trkpt><trkpt lat="42.3573149" lon="13.4033995"><ele>702.5</ele><time>2026-05-03T07:33:12.038Z</time></trkpt><trkpt lat="42.3572591" lon="13.4032538"><ele>702.75</ele><time>2026-05-03T07:33:13.038Z</time></trkpt><trkpt lat="42.3572009" lon="13.4031047"><ele>703.0</ele><time>2026-05-03T07:33:14.038Z</time></trkpt><trkpt lat="42.3571531" lon="13.4029495"><ele>701.75</ele><time>2026-05-03T07:33:15.038Z</time></trkpt><trkpt lat="42.3571183" lon="13.4027924"><ele>700.5</ele><time>2026-05-03T07:33:16.038Z</time></trkpt><trkpt lat="42.357093" lon="13.4026258"><ele>699.25</ele><time>2026-05-03T07:33:17.038Z</time></trkpt><trkpt lat="42.3570752" lon="13.4024648"><ele>698.0</ele><time>2026-05-03T07:33:18.038Z</time></trkpt><trkpt lat="42.3570598" lon="13.4022889"><ele>699.25</ele><time>2026-05-03T07:33:19.038Z</time></trkpt><trkpt lat="42.3570482" lon="13.4021168"><ele>700.5</ele><time>2026-05-03T07:33:20.038Z</time></trkpt><trkpt lat="42.3570552" lon="13.4019275"><ele>701.75</ele><time>2026-05-03T07:33:21.038Z</time></trkpt><trkpt lat="42.3570569" lon="13.4017449"><ele>703.0</ele><time>2026-05-03T07:33:22.038Z</time></trkpt><trkpt lat="42.3570543" lon="13.4015629"><ele>703.0</ele><time>2026-05-03T07:33:23.038Z</time></trkpt><trkpt lat="42.3570529" lon="13.4013776"><ele>703.0</ele><time>2026-05-03T07:33:24.038Z</time></trkpt><trkpt lat="42.3570515" lon="13.4011884"><ele>703.0</ele><time>2026-05-03T07:33:25.038Z</time></trkpt><trkpt lat="42.3570538" lon="13.4010076"><ele>703.0</ele><time>2026-05-03T07:33:26.038Z</time></trkpt><trkpt lat="42.3570496" lon="13.4008244"><ele>703.25</ele><time>2026-05-03T07:33:27.038Z</time></trkpt><trkpt lat="42.3570488" lon="13.4006436"><ele>703.5</ele><time>2026-05-03T07:33:28.038Z</time></trkpt><trkpt lat="42.357047" lon="13.4004641"><ele>703.75</ele><time>2026-05-03T07:33:29.038Z</time></trkpt><trkpt lat="42.3570472" lon="13.400284"><ele>704.0</ele><time>2026-05-03T07:33:30.038Z</time></trkpt><trkpt lat="42.3570484" lon="13.4001108"><ele>703.0</ele><time>2026-05-03T07:33:31.038Z</time></trkpt><trkpt lat="42.3570426" lon="13.3999447"><ele>702.0</ele><time>2026-05-03T07:33:32.039Z</time></trkpt><trkpt lat="42.3570396" lon="13.3997707"><ele>701.0</ele><time>2026-05-03T07:33:33.039Z</time></trkpt><trkpt lat="42.357037" lon="13.3995942"><ele>700.0</ele><time>2026-05-03T07:33:34.038Z</time></trkpt><trkpt lat="42.3570324" lon="13.3994204"><ele>698.5</ele><time>2026-05-03T07:33:35.038Z</time></trkpt><trkpt lat="42.3570271" lon="13.3992533"><ele>697.0</ele><time>2026-05-03T07:33:36.038Z</time></trkpt><trkpt lat="42.3570169" lon="13.3990922"><ele>695.5</ele><time>2026-05-03T07:33:37.038Z</time></trkpt><trkpt lat="42.356988" lon="13.3989212"><ele>694.0</ele><time>2026-05-03T07:33:38.038Z</time></trkpt><trkpt lat="42.3569484" lon="13.3987491"><ele>692.75</ele><time>2026-05-03T07:33:39.038Z</time></trkpt><trkpt lat="42.3568867" lon="13.3985827"><ele>691.5</ele><time>2026-05-03T07:33:40.038Z</time></trkpt><trkpt lat="42.3568283" lon="13.3984231"><ele>690.25</ele><time>2026-05-03T07:33:41.038Z</time></trkpt><trkpt lat="42.3567575" lon="13.3982609"><ele>689.0</ele><time>2026-05-03T07:33:42.038Z</time></trkpt><trkpt lat="42.3566872" lon="13.398104"><ele>688.75</ele><time>2026-05-03T07:33:43.038Z</time></trkpt><trkpt lat="42.3566252" lon="13.3979441"><ele>688.5</ele><time>2026-05-03T07:33:44.038Z</time></trkpt><trkpt lat="42.3565771" lon="13.3977838"><ele>688.25</ele><time>2026-05-03T07:33:45.038Z</time></trkpt><trkpt lat="42.3565454" lon="13.3976128"><ele>688.0</ele><time>2026-05-03T07:33:46.038Z</time></trkpt><trkpt lat="42.3565275" lon="13.3974421"><ele>688.0</ele><time>2026-05-03T07:33:47.038Z</time></trkpt><trkpt lat="42.3565271" lon="13.3972578"><ele>688.0</ele><time>2026-05-03T07:33:48.038Z</time></trkpt><trkpt lat="42.356533" lon="13.3970717"><ele>688.0</ele><time>2026-05-03T07:33:49.038Z</time></trkpt><trkpt lat="42.3565436" lon="13.3968825"><ele>688.0</ele><time>2026-05-03T07:33:50.038Z</time></trkpt><trkpt lat="42.3565513" lon="13.3967184"><ele>685.75</ele><time>2026-05-03T07:33:51.038Z</time></trkpt><trkpt lat="42.3565595" lon="13.39655"><ele>683.5</ele><time>2026-05-03T07:33:52.038Z</time></trkpt><trkpt lat="42.3565682" lon="13.396378"><ele>681.25</ele><time>2026-05-03T07:33:53.038Z</time></trkpt><trkpt lat="42.3565721" lon="13.396216"><ele>679.0</ele><time>2026-05-03T07:33:54.038Z</time></trkpt><trkpt lat="42.3565735" lon="13.39606"><ele>678.25</ele><time>2026-05-03T07:33:55.038Z</time></trkpt><trkpt lat="42.3565775" lon="13.3959013"><ele>677.5</ele><time>2026-05-03T07:33:56.038Z</time></trkpt><trkpt lat="42.3565857" lon="13.3957393"><ele>676.75</ele><time>2026-05-03T07:33:57.038Z</time></trkpt><trkpt lat="42.3565877" lon="13.3955813"><ele>676.0</ele><time>2026-05-03T07:33:58.038Z</time></trkpt><trkpt lat="42.3565996" lon="13.3954247"><ele>676.0</ele><time>2026-05-03T07:33:59.039Z</time></trkpt><trkpt lat="42.3566024" lon="13.3952554"><ele>676.0</ele><time>2026-05-03T07:34:00.039Z</time></trkpt><trkpt lat="42.3566123" lon="13.3950738"><ele>676.0</ele><time>2026-05-03T07:34:01.038Z</time></trkpt><trkpt lat="42.3566173" lon="13.3949108"><ele>676.0</ele><time>2026-05-03T07:34:02.039Z</time></trkpt><trkpt lat="42.356617" lon="13.3947463"><ele>675.8</ele><time>2026-05-03T07:34:03.038Z</time></trkpt><trkpt lat="42.356624" lon="13.3946012"><ele>675.5999999999999</ele><time>2026-05-03T07:34:04.038Z</time></trkpt><trkpt lat="42.3566224" lon="13.3944653"><ele>675.4</ele><time>2026-05-03T07:34:05.038Z</time></trkpt><trkpt lat="42.356621" lon="13.394335"><ele>675.2</ele><time>2026-05-03T07:34:06.039Z</time></trkpt><trkpt lat="42.3566307" lon="13.3942124"><ele>675.0</ele><time>2026-05-03T07:34:07.038Z</time></trkpt><trkpt lat="42.3566291" lon="13.3940747"><ele>675.0</ele><time>2026-05-03T07:34:08.038Z</time></trkpt><trkpt lat="42.3566316" lon="13.3939348"><ele>675.0</ele><time>2026-05-03T07:34:09.038Z</time></trkpt><trkpt lat="42.3566347" lon="13.3937811"><ele>675.0</ele><time>2026-05-03T07:34:10.038Z</time></trkpt><trkpt lat="42.3566374" lon="13.3936317"><ele>675.0</ele><time>2026-05-03T07:34:11.038Z</time></trkpt><trkpt lat="42.3566354" lon="13.3934925"><ele>675.0</ele><time>2026-05-03T07:34:12.038Z</time></trkpt><trkpt lat="42.3566422" lon="13.3933453"><ele>673.8</ele><time>2026-05-03T07:34:13.038Z</time></trkpt><trkpt lat="42.3566509" lon="13.3932061"><ele>672.6</ele><time>2026-05-03T07:34:14.038Z</time></trkpt><trkpt lat="42.3566536" lon="13.3930615"><ele>671.4000000000001</ele><time>2026-05-03T07:34:15.038Z</time></trkpt><trkpt lat="42.3566523" lon="13.3929345"><ele>670.2</ele><time>2026-05-03T07:34:16.038Z</time></trkpt><trkpt lat="42.3566593" lon="13.3928234"><ele>669.0</ele><time>2026-05-03T07:34:17.038Z</time></trkpt><trkpt lat="42.3566616" lon="13.3927108"><ele>668.3333333333334</ele><time>2026-05-03T07:34:18.038Z</time></trkpt><trkpt lat="42.3566565" lon="13.3926024"><ele>667.6666666666666</ele><time>2026-05-03T07:34:19.038Z</time></trkpt><trkpt lat="42.356659" lon="13.3924292"><ele>667.0</ele><time>2026-05-03T07:34:21.038Z</time></trkpt><trkpt lat="42.3566671" lon="13.3923407"><ele>666.3333333333333</ele><time>2026-05-03T07:34:22.038Z</time></trkpt><trkpt lat="42.3566711" lon="13.3922471"><ele>665.6666666666666</ele><time>2026-05-03T07:34:23.038Z</time></trkpt><trkpt lat="42.3566719" lon="13.3921399"><ele>665.0</ele><time>2026-05-03T07:34:24.038Z</time></trkpt><trkpt lat="42.3566709" lon="13.3920307"><ele>663.8</ele><time>2026-05-03T07:34:25.038Z</time></trkpt><trkpt lat="42.3566741" lon="13.3919104"><ele>662.6</ele><time>2026-05-03T07:34:26.038Z</time></trkpt><trkpt lat="42.3566784" lon="13.3917838"><ele>661.4000000000001</ele><time>2026-05-03T07:34:27.038Z</time></trkpt><trkpt lat="42.3566814" lon="13.3916496"><ele>660.2</ele><time>2026-05-03T07:34:28.038Z</time></trkpt><trkpt lat="42.3566795" lon="13.3915239"><ele>659.0</ele><time>2026-05-03T07:34:29.038Z</time></trkpt><trkpt lat="42.3566914" lon="13.3914009"><ele>658.0</ele><time>2026-05-03T07:34:30.039Z</time></trkpt><trkpt lat="42.3567062" lon="13.3912785"><ele>657.0</ele><time>2026-05-03T07:34:31.038Z</time></trkpt><trkpt lat="42.3567266" lon="13.3911558"><ele>656.0</ele><time>2026-05-03T07:34:32.038Z</time></trkpt><trkpt lat="42.3567527" lon="13.3910306"><ele>655.0</ele><time>2026-05-03T07:34:33.038Z</time></trkpt><trkpt lat="42.356783" lon="13.3909108"><ele>654.0</ele><time>2026-05-03T07:34:34.038Z</time></trkpt><trkpt lat="42.3568076" lon="13.3907958"><ele>654.0</ele><time>2026-05-03T07:34:35.038Z</time></trkpt><trkpt lat="42.3568335" lon="13.3906861"><ele>654.0</ele><time>2026-05-03T07:34:36.038Z</time></trkpt><trkpt lat="42.356858" lon="13.3905695"><ele>654.0</ele><time>2026-05-03T07:34:37.038Z</time></trkpt><trkpt lat="42.3568876" lon="13.390455"><ele>654.0</ele><time>2026-05-03T07:34:38.038Z</time></trkpt><trkpt lat="42.3569103" lon="13.3903388"><ele>654.0</ele><time>2026-05-03T07:34:39.038Z</time></trkpt><trkpt lat="42.3569338" lon="13.390223"><ele>654.0</ele><time>2026-05-03T07:34:40.038Z</time></trkpt><trkpt lat="42.3569565" lon="13.3900972"><ele>653.8000000000001</ele><time>2026-05-03T07:34:41.038Z</time></trkpt><trkpt lat="42.3569773" lon="13.3899652"><ele>653.6</ele><time>2026-05-03T07:34:42.039Z</time></trkpt><trkpt lat="42.3570002" lon="13.389829"><ele>653.4</ele><time>2026-05-03T07:34:43.038Z</time></trkpt><trkpt lat="42.3570141" lon="13.3896894"><ele>653.2</ele><time>2026-05-03T07:34:44.038Z</time></trkpt><trkpt lat="42.3570183" lon="13.3895543"><ele>653.0</ele><time>2026-05-03T07:34:45.038Z</time></trkpt><trkpt lat="42.3570201" lon="13.3894259"><ele>652.8</ele><time>2026-05-03T07:34:46.038Z</time></trkpt><trkpt lat="42.3570124" lon="13.3892967"><ele>652.5999999999999</ele><time>2026-05-03T07:34:47.038Z</time></trkpt><trkpt lat="42.3569975" lon="13.3891682"><ele>652.4000000000001</ele><time>2026-05-03T07:34:48.038Z</time></trkpt><trkpt lat="42.3569753" lon="13.389034"><ele>652.2</ele><time>2026-05-03T07:34:49.038Z</time></trkpt><trkpt lat="42.3569543" lon="13.3888965"><ele>652.0</ele><time>2026-05-03T07:34:50.038Z</time></trkpt><trkpt lat="42.3569282" lon="13.3887546"><ele>652.0</ele><time>2026-05-03T07:34:51.038Z</time></trkpt><trkpt lat="42.3568983" lon="13.3886106"><ele>652.0</ele><time>2026-05-03T07:34:52.038Z</time></trkpt><trkpt lat="42.3568684" lon="13.3884746"><ele>652.0</ele><time>2026-05-03T07:34:53.038Z</time></trkpt><trkpt lat="42.3568382" lon="13.3883446"><ele>652.0</ele><time>2026-05-03T07:34:54.038Z</time></trkpt><trkpt lat="42.3568076" lon="13.3882158"><ele>652.0</ele><time>2026-05-03T07:34:55.038Z</time></trkpt><trkpt lat="42.3567825" lon="13.3880885"><ele>651.8</ele><time>2026-05-03T07:34:56.038Z</time></trkpt><trkpt lat="42.3567699" lon="13.3879583"><ele>651.6</ele><time>2026-05-03T07:34:57.039Z</time></trkpt><trkpt lat="42.3567601" lon="13.3878293"><ele>651.4</ele><time>2026-05-03T07:34:58.038Z</time></trkpt><trkpt lat="42.3567521" lon="13.3877055"><ele>651.1999999999999</ele><time>2026-05-03T07:34:59.038Z</time></trkpt><trkpt lat="42.3567585" lon="13.3875809"><ele>651.0</ele><time>2026-05-03T07:35:00.038Z</time></trkpt><trkpt lat="42.3567629" lon="13.3874651"><ele>651.0</ele><time>2026-05-03T07:35:01.038Z</time></trkpt><trkpt lat="42.3567749" lon="13.3873431"><ele>651.0</ele><time>2026-05-03T07:35:02.038Z</time></trkpt><trkpt lat="42.3567902" lon="13.387232"><ele>651.0</ele><time>2026-05-03T07:35:03.038Z</time></trkpt><trkpt lat="42.3568093" lon="13.3871315"><ele>651.0</ele><time>2026-05-03T07:35:04.038Z</time></trkpt><trkpt lat="42.3568195" lon="13.3870407"><ele>651.0</ele><time>2026-05-03T07:35:05.038Z</time></trkpt><trkpt lat="42.3568398" lon="13.3869529"><ele>651.0</ele><time>2026-05-03T07:35:06.038Z</time></trkpt><trkpt lat="42.3568592" lon="13.3868568"><ele>650.5</ele><time>2026-05-03T07:35:07.038Z</time></trkpt><trkpt lat="42.3568918" lon="13.386762"><ele>650.0</ele><time>2026-05-03T07:35:08.038Z</time></trkpt><trkpt lat="42.3569211" lon="13.3866573"><ele>649.5</ele><time>2026-05-03T07:35:09.038Z</time></trkpt><trkpt lat="42.3569587" lon="13.386556"><ele>649.0</ele><time>2026-05-03T07:35:10.038Z</time></trkpt><trkpt lat="42.3570031" lon="13.386454"><ele>648.5</ele><time>2026-05-03T07:35:11.039Z</time></trkpt><trkpt lat="42.3570583" lon="13.3863531"><ele>648.0</ele><time>2026-05-03T07:35:12.038Z</time></trkpt><trkpt lat="42.3571175" lon="13.3862564"><ele>648.1666666666666</ele><time>2026-05-03T07:35:13.038Z</time></trkpt><trkpt lat="42.3571833" lon="13.3861641"><ele>648.3333333333334</ele><time>2026-05-03T07:35:14.038Z</time></trkpt><trkpt lat="42.3572529" lon="13.3860832"><ele>648.5</ele><time>2026-05-03T07:35:15.038Z</time></trkpt><trkpt lat="42.357313" lon="13.3860187"><ele>648.6666666666667</ele><time>2026-05-03T07:35:16.038Z</time></trkpt><trkpt lat="42.3573843" lon="13.3859693"><ele>648.8333333333334</ele><time>2026-05-03T07:35:17.038Z</time></trkpt><trkpt lat="42.3574444" lon="13.3859278"><ele>649.0</ele><time>2026-05-03T07:35:18.038Z</time></trkpt><trkpt lat="42.3575602" lon="13.3858703"><ele>649.0</ele><time>2026-05-03T07:35:20.038Z</time></trkpt><trkpt lat="42.3576255" lon="13.3858556"><ele>649.0</ele><time>2026-05-03T07:35:21.038Z</time></trkpt><trkpt lat="42.3576896" lon="13.3858534"><ele>649.0</ele><time>2026-05-03T07:35:22.038Z</time></trkpt><trkpt lat="42.3578076" lon="13.3858143"><ele>649.0</ele><time>2026-05-03T07:35:24.038Z</time></trkpt><trkpt lat="42.3578897" lon="13.3857096"><ele>649.0</ele><time>2026-05-03T07:35:26.038Z</time></trkpt><trkpt lat="42.357923" lon="13.3855779"><ele>649.0</ele><time>2026-05-03T07:35:28.038Z</time></trkpt><trkpt lat="42.3578897" lon="13.3854415"><ele>649.0</ele><time>2026-05-03T07:35:30.038Z</time></trkpt><trkpt lat="42.3577996" lon="13.3853376"><ele>649.0</ele><time>2026-05-03T07:35:32.038Z</time></trkpt><trkpt lat="42.3576941" lon="13.3853038"><ele>649.0</ele><time>2026-05-03T07:35:34.038Z</time></trkpt><trkpt lat="42.3576311" lon="13.385323"><ele>649.0</ele><time>2026-05-03T07:35:35.038Z</time></trkpt><trkpt lat="42.3575742" lon="13.3853759"><ele>649.0</ele><time>2026-05-03T07:35:36.038Z</time></trkpt><trkpt lat="42.357516" lon="13.3854584"><ele>649.0</ele><time>2026-05-03T07:35:37.038Z</time></trkpt><trkpt lat="42.3574573" lon="13.3855607"><ele>649.0</ele><time>2026-05-03T07:35:38.038Z</time></trkpt><trkpt lat="42.3574045" lon="13.3856653"><ele>649.0</ele><time>2026-05-03T07:35:39.039Z</time></trkpt><trkpt lat="42.3573413" lon="13.3857693"><ele>649.0</ele><time>2026-05-03T07:35:40.038Z</time></trkpt><trkpt lat="42.3572653" lon="13.3858831"><ele>648.75</ele><time>2026-05-03T07:35:41.038Z</time></trkpt><trkpt lat="42.3571829" lon="13.3859905"><ele>648.5</ele><time>2026-05-03T07:35:42.038Z</time></trkpt><trkpt lat="42.3570895" lon="13.3861024"><ele>648.25</ele><time>2026-05-03T07:35:43.038Z</time></trkpt><trkpt lat="42.356999" lon="13.3862261"><ele>648.0</ele><time>2026-05-03T07:35:44.038Z</time></trkpt><trkpt lat="42.3569114" lon="13.3863531"><ele>648.0</ele><time>2026-05-03T07:35:45.038Z</time></trkpt><trkpt lat="42.3568276" lon="13.3864857"><ele>648.0</ele><time>2026-05-03T07:35:46.038Z</time></trkpt><trkpt lat="42.3567515" lon="13.3866165"><ele>648.0</ele><time>2026-05-03T07:35:47.038Z</time></trkpt><trkpt lat="42.3566776" lon="13.3867402"><ele>648.0</ele><time>2026-05-03T07:35:48.038Z</time></trkpt><trkpt lat="42.356611" lon="13.3868618"><ele>648.0</ele><time>2026-05-03T07:35:49.038Z</time></trkpt><trkpt lat="42.3565444" lon="13.3869811"><ele>648.0</ele><time>2026-05-03T07:35:50.038Z</time></trkpt><trkpt lat="42.3564737" lon="13.3871028"><ele>648.0</ele><time>2026-05-03T07:35:51.038Z</time></trkpt><trkpt lat="42.3563995" lon="13.3872332"><ele>648.0</ele><time>2026-05-03T07:35:52.038Z</time></trkpt><trkpt lat="42.3563251" lon="13.3873616"><ele>647.5999999999999</ele><time>2026-05-03T07:35:53.038Z</time></trkpt><trkpt lat="42.356247" lon="13.3874967"><ele>647.1999999999999</ele><time>2026-05-03T07:35:54.038Z</time></trkpt><trkpt lat="42.3561741" lon="13.3876254"><ele>646.8</ele><time>2026-05-03T07:35:55.038Z</time></trkpt><trkpt lat="42.3561113" lon="13.387734"><ele>646.4</ele><time>2026-05-03T07:35:56.038Z</time></trkpt><trkpt lat="42.3560502" lon="13.3878419"><ele>646.0</ele><time>2026-05-03T07:35:57.038Z</time></trkpt><trkpt lat="42.3560088" lon="13.3879146"><ele>646.0</ele><time>2026-05-03T07:35:58.039Z</time></trkpt><trkpt lat="42.3559593" lon="13.38799"><ele>646.0</ele><time>2026-05-03T07:36:00.038Z</time></trkpt><trkpt lat="42.3558964" lon="13.3880809"><ele>646.0</ele><time>2026-05-03T07:36:02.038Z</time></trkpt><trkpt lat="42.3558365" lon="13.3881342"><ele>646.0</ele><time>2026-05-03T07:36:04.038Z</time></trkpt><trkpt lat="42.3557714" lon="13.3881772"><ele>646.0</ele><time>2026-05-03T07:36:06.038Z</time></trkpt><trkpt lat="42.355684" lon="13.3882138"><ele>646.0</ele><time>2026-05-03T07:36:08.038Z</time></trkpt><trkpt lat="42.3555885" lon="13.3882533"><ele>646.8333333333334</ele><time>2026-05-03T07:36:10.038Z</time></trkpt><trkpt lat="42.3555195" lon="13.3883309"><ele>647.6666666666667</ele><time>2026-05-03T07:36:12.039Z</time></trkpt><trkpt lat="42.3554935" lon="13.3884405"><ele>648.5</ele><time>2026-05-03T07:36:14.038Z</time></trkpt><trkpt lat="42.355482" lon="13.3885898"><ele>649.3333333333334</ele><time>2026-05-03T07:36:16.038Z</time></trkpt><trkpt lat="42.3554678" lon="13.3886779"><ele>650.1666666666666</ele><time>2026-05-03T07:36:17.039Z</time></trkpt><trkpt lat="42.3554449" lon="13.3887732"><ele>651.0</ele><time>2026-05-03T07:36:18.038Z</time></trkpt><trkpt lat="42.3554228" lon="13.3888657"><ele>652.1999999999999</ele><time>2026-05-03T07:36:19.038Z</time></trkpt><trkpt lat="42.3553352" lon="13.3890236"><ele>653.4</ele><time>2026-05-03T07:36:21.56Z</time></trkpt><trkpt lat="42.3552686" lon="13.3891228"><ele>654.6</ele><time>2026-05-03T07:36:23.025Z</time></trkpt><trkpt lat="42.3552169" lon="13.3891899"><ele>655.8</ele><time>2026-05-03T07:36:24.026Z</time></trkpt><trkpt lat="42.3551597" lon="13.3892672"><ele>657.0</ele><time>2026-05-03T07:36:25.025Z</time></trkpt><trkpt lat="42.3550907" lon="13.3893424"><ele>657.0</ele><time>2026-05-03T07:36:26.026Z</time></trkpt><trkpt lat="42.3550086" lon="13.3894226"><ele>657.0</ele><time>2026-05-03T07:36:27.025Z</time></trkpt><trkpt lat="42.3549227" lon="13.3894823"><ele>657.0</ele><time>2026-05-03T07:36:28.025Z</time></trkpt><trkpt lat="42.354829" lon="13.3895459"><ele>657.0</ele><time>2026-05-03T07:36:29.025Z</time></trkpt><trkpt lat="42.3547303" lon="13.3895951"><ele>657.0</ele><time>2026-05-03T07:36:30.025Z</time></trkpt><trkpt lat="42.354632" lon="13.3896428"><ele>658.2</ele><time>2026-05-03T07:36:31.025Z</time></trkpt><trkpt lat="42.354541" lon="13.3896791"><ele>659.4000000000001</ele><time>2026-05-03T07:36:32.025Z</time></trkpt><trkpt lat="42.3544518" lon="13.3897178"><ele>660.5999999999999</ele><time>2026-05-03T07:36:33.026Z</time></trkpt><trkpt lat="42.3543632" lon="13.389751"><ele>661.8</ele><time>2026-05-03T07:36:34.025Z</time></trkpt><trkpt lat="42.3542707" lon="13.3897879"><ele>663.0</ele><time>2026-05-03T07:36:35.025Z</time></trkpt><trkpt lat="42.3541776" lon="13.389825"><ele>663.0</ele><time>2026-05-03T07:36:36.025Z</time></trkpt><trkpt lat="42.3540858" lon="13.3898644"><ele>663.0</ele><time>2026-05-03T07:36:37.025Z</time></trkpt><trkpt lat="42.3539942" lon="13.3899031"><ele>663.0</ele><time>2026-05-03T07:36:38.025Z</time></trkpt><trkpt lat="42.3538984" lon="13.3899414"><ele>663.0</ele><time>2026-05-03T07:36:39.025Z</time></trkpt><trkpt lat="42.353801" lon="13.3899841"><ele>663.0</ele><time>2026-05-03T07:36:40.025Z</time></trkpt><trkpt lat="42.3536998" lon="13.3900265"><ele>662.5</ele><time>2026-05-03T07:36:41.025Z</time></trkpt><trkpt lat="42.3535954" lon="13.3900687"><ele>662.0</ele><time>2026-05-03T07:36:42.025Z</time></trkpt><trkpt lat="42.3534868" lon="13.3901146"><ele>661.5</ele><time>2026-05-03T07:36:43.025Z</time></trkpt><trkpt lat="42.3533724" lon="13.3901693"><ele>661.0</ele><time>2026-05-03T07:36:44.025Z</time></trkpt><trkpt lat="42.3532555" lon="13.3902131"><ele>661.0</ele><time>2026-05-03T07:36:45.026Z</time></trkpt><trkpt lat="42.3531386" lon="13.3902632"><ele>661.0</ele><time>2026-05-03T07:36:46.025Z</time></trkpt><trkpt lat="42.3530127" lon="13.3903053"><ele>661.0</ele><time>2026-05-03T07:36:47.025Z</time></trkpt><trkpt lat="42.3528888" lon="13.3903576"><ele>661.0</ele><time>2026-05-03T07:36:48.025Z</time></trkpt><trkpt lat="42.3527589" lon="13.3904015"><ele>660.5</ele><time>2026-05-03T07:36:49.025Z</time></trkpt><trkpt lat="42.3526292" lon="13.390447"><ele>660.0</ele><time>2026-05-03T07:36:50.025Z</time></trkpt><trkpt lat="42.3525006" lon="13.3904995"><ele>659.5</ele><time>2026-05-03T07:36:51.025Z</time></trkpt><trkpt lat="42.3523601" lon="13.3905584"><ele>659.0</ele><time>2026-05-03T07:36:52.025Z</time></trkpt><trkpt lat="42.3522231" lon="13.39061"><ele>662.5</ele><time>2026-05-03T07:36:53.025Z</time></trkpt><trkpt lat="42.3520875" lon="13.3906594"><ele>666.0</ele><time>2026-05-03T07:36:54.025Z</time></trkpt><trkpt lat="42.3519496" lon="13.3907046"><ele>669.5</ele><time>2026-05-03T07:36:55.025Z</time></trkpt><trkpt lat="42.3518141" lon="13.3907522"><ele>673.0</ele><time>2026-05-03T07:36:56.025Z</time></trkpt><trkpt lat="42.351687" lon="13.3908022"><ele>673.0</ele><time>2026-05-03T07:36:57.025Z</time></trkpt><trkpt lat="42.3515626" lon="13.3908507"><ele>673.0</ele><time>2026-05-03T07:36:58.025Z</time></trkpt><trkpt lat="42.3514425" lon="13.390898"><ele>673.0</ele><time>2026-05-03T07:36:59.025Z</time></trkpt><trkpt lat="42.3513225" lon="13.3909482"><ele>673.0</ele><time>2026-05-03T07:37:00.025Z</time></trkpt><trkpt lat="42.3512034" lon="13.3909967"><ele>672.0</ele><time>2026-05-03T07:37:01.025Z</time></trkpt><trkpt lat="42.3510841" lon="13.3910445"><ele>671.0</ele><time>2026-05-03T07:37:02.025Z</time></trkpt><trkpt lat="42.3509724" lon="13.3911046"><ele>670.0</ele><time>2026-05-03T07:37:03.025Z</time></trkpt><trkpt lat="42.3508694" lon="13.3911769"><ele>669.0</ele><time>2026-05-03T07:37:04.025Z</time></trkpt><trkpt lat="42.3507741" lon="13.3912557"><ele>669.0</ele><time>2026-05-03T07:37:05.025Z</time></trkpt><trkpt lat="42.3506908" lon="13.3913626"><ele>669.0</ele><time>2026-05-03T07:37:06.025Z</time></trkpt><trkpt lat="42.3506143" lon="13.3914692"><ele>669.0</ele><time>2026-05-03T07:37:07.025Z</time></trkpt><trkpt lat="42.3505476" lon="13.3915858"><ele>669.0</ele><time>2026-05-03T07:37:08.025Z</time></trkpt><trkpt lat="42.3504963" lon="13.3917057"><ele>669.0</ele><time>2026-05-03T07:37:09.025Z</time></trkpt><trkpt lat="42.3504524" lon="13.3918215"><ele>669.0</ele><time>2026-05-03T07:37:10.025Z</time></trkpt><trkpt lat="42.3504086" lon="13.3919333"><ele>669.0</ele><time>2026-05-03T07:37:11.025Z</time></trkpt><trkpt lat="42.3503664" lon="13.3920288"><ele>669.0</ele><time>2026-05-03T07:37:12.025Z</time></trkpt><trkpt lat="42.3503213" lon="13.3921156"><ele>669.0</ele><time>2026-05-03T07:37:13.026Z</time></trkpt><trkpt lat="42.3502603" lon="13.3922266"><ele>669.0</ele><time>2026-05-03T07:37:15.025Z</time></trkpt><trkpt lat="42.350184" lon="13.3923712"><ele>672.0</ele><time>2026-05-03T07:38:09.025Z</time></trkpt><trkpt lat="42.3500782" lon="13.3924562"><ele>675.0</ele><time>2026-05-03T07:38:11.025Z</time></trkpt><trkpt lat="42.3500028" lon="13.392487"><ele>678.0</ele><time>2026-05-03T07:38:12.025Z</time></trkpt><trkpt lat="42.3499252" lon="13.3924807"><ele>681.0</ele><time>2026-05-03T07:38:13.025Z</time></trkpt><trkpt lat="42.3498501" lon="13.3924433"><ele>684.0</ele><time>2026-05-03T07:38:14.025Z</time></trkpt><trkpt lat="42.3497785" lon="13.3923753"><ele>687.0</ele><time>2026-05-03T07:38:15.025Z</time></trkpt><trkpt lat="42.3497186" lon="13.3922796"><ele>688.8</ele><time>2026-05-03T07:38:16.026Z</time></trkpt><trkpt lat="42.3496496" lon="13.3921825"><ele>690.6</ele><time>2026-05-03T07:38:17.025Z</time></trkpt><trkpt lat="42.3495739" lon="13.3920817"><ele>692.4</ele><time>2026-05-03T07:38:18.025Z</time></trkpt><trkpt lat="42.3495088" lon="13.3919831"><ele>694.1999999999999</ele><time>2026-05-03T07:38:19.025Z</time></trkpt><trkpt lat="42.3494237" lon="13.391901"><ele>696.0</ele><time>2026-05-03T07:38:20.025Z</time></trkpt><trkpt lat="42.3493268" lon="13.3918378"><ele>692.8</ele><time>2026-05-03T07:38:21.025Z</time></trkpt><trkpt lat="42.3492279" lon="13.3918101"><ele>689.5999999999999</ele><time>2026-05-03T07:38:22.025Z</time></trkpt><trkpt lat="42.3491186" lon="13.3918105"><ele>686.4</ele><time>2026-05-03T07:38:23.025Z</time></trkpt><trkpt lat="42.3490135" lon="13.3918254"><ele>683.2</ele><time>2026-05-03T07:38:24.025Z</time></trkpt><trkpt lat="42.3489101" lon="13.3918727"><ele>680.0</ele><time>2026-05-03T07:38:25.025Z</time></trkpt><trkpt lat="42.3488136" lon="13.3919238"><ele>680.0</ele><time>2026-05-03T07:38:26.025Z</time></trkpt><trkpt lat="42.3487221" lon="13.39197"><ele>680.0</ele><time>2026-05-03T07:38:27.025Z</time></trkpt><trkpt lat="42.3486444" lon="13.3920055"><ele>680.0</ele><time>2026-05-03T07:38:28.025Z</time></trkpt><trkpt lat="42.3485776" lon="13.3920441"><ele>680.0</ele><time>2026-05-03T07:38:29.025Z</time></trkpt><trkpt lat="42.3484789" lon="13.3920992"><ele>680.0</ele><time>2026-05-03T07:38:31.025Z</time></trkpt><trkpt lat="42.348411" lon="13.3921317"><ele>680.0</ele><time>2026-05-03T07:38:34.025Z</time></trkpt><trkpt lat="42.3483244" lon="13.3921855"><ele>681.5</ele><time>2026-05-03T07:38:48.025Z</time></trkpt><trkpt lat="42.3482579" lon="13.3922162"><ele>683.0</ele><time>2026-05-03T07:38:49.025Z</time></trkpt><trkpt lat="42.3481826" lon="13.3922554"><ele>684.5</ele><time>2026-05-03T07:38:50.025Z</time></trkpt><trkpt lat="42.3481039" lon="13.3923166"><ele>686.0</ele><time>2026-05-03T07:38:51.025Z</time></trkpt><trkpt lat="42.3480238" lon="13.3923862"><ele>687.5</ele><time>2026-05-03T07:38:52.025Z</time></trkpt><trkpt lat="42.3479422" lon="13.3924797"><ele>689.0</ele><time>2026-05-03T07:38:53.025Z</time></trkpt><trkpt lat="42.3478721" lon="13.392586"><ele>689.0</ele><time>2026-05-03T07:38:54.025Z</time></trkpt><trkpt lat="42.347815" lon="13.3927185"><ele>689.0</ele><time>2026-05-03T07:38:55.025Z</time></trkpt><trkpt lat="42.3477563" lon="13.3928519"><ele>689.0</ele><time>2026-05-03T07:38:56.025Z</time></trkpt><trkpt lat="42.3476994" lon="13.3929888"><ele>689.0</ele><time>2026-05-03T07:38:57.025Z</time></trkpt><trkpt lat="42.3476472" lon="13.3931225"><ele>690.4000000000001</ele><time>2026-05-03T07:38:58.025Z</time></trkpt><trkpt lat="42.3475935" lon="13.3932502"><ele>691.8</ele><time>2026-05-03T07:38:59.025Z</time></trkpt><trkpt lat="42.3475414" lon="13.3933832"><ele>693.2</ele><time>2026-05-03T07:39:00.025Z</time></trkpt><trkpt lat="42.3474859" lon="13.3935156"><ele>694.5999999999999</ele><time>2026-05-03T07:39:01.025Z</time></trkpt><trkpt lat="42.347426" lon="13.3936402"><ele>696.0</ele><time>2026-05-03T07:39:02.025Z</time></trkpt><trkpt lat="42.3473637" lon="13.3937813"><ele>696.25</ele><time>2026-05-03T07:39:03.026Z</time></trkpt><trkpt lat="42.3473061" lon="13.3939135"><ele>696.5</ele><time>2026-05-03T07:39:04.025Z</time></trkpt><trkpt lat="42.3472522" lon="13.3940573"><ele>696.75</ele><time>2026-05-03T07:39:05.025Z</time></trkpt><trkpt lat="42.3471951" lon="13.3941971"><ele>697.0</ele><time>2026-05-03T07:39:06.025Z</time></trkpt><trkpt lat="42.3471377" lon="13.3943299"><ele>697.5</ele><time>2026-05-03T07:39:07.025Z</time></trkpt><trkpt lat="42.3470806" lon="13.3944729"><ele>698.0</ele><time>2026-05-03T07:39:08.025Z</time></trkpt><trkpt lat="42.347027" lon="13.3946283"><ele>698.5</ele><time>2026-05-03T07:39:09.025Z</time></trkpt><trkpt lat="42.3469608" lon="13.3947778"><ele>699.0</ele><time>2026-05-03T07:39:10.025Z</time></trkpt><trkpt lat="42.3469013" lon="13.3949387"><ele>700.75</ele><time>2026-05-03T07:39:11.025Z</time></trkpt><trkpt lat="42.3468369" lon="13.3950994"><ele>702.5</ele><time>2026-05-03T07:39:12.025Z</time></trkpt><trkpt lat="42.3467695" lon="13.3952663"><ele>704.25</ele><time>2026-05-03T07:39:13.025Z</time></trkpt><trkpt lat="42.3467011" lon="13.3954293"><ele>706.0</ele><time>2026-05-03T07:39:14.025Z</time></trkpt><trkpt lat="42.3466319" lon="13.3955989"><ele>706.75</ele><time>2026-05-03T07:39:15.025Z</time></trkpt><trkpt lat="42.3465699" lon="13.3957633"><ele>707.5</ele><time>2026-05-03T07:39:16.025Z</time></trkpt><trkpt lat="42.3465002" lon="13.3959285"><ele>708.25</ele><time>2026-05-03T07:39:17.025Z</time></trkpt><trkpt lat="42.3464314" lon="13.3960942"><ele>709.0</ele><time>2026-05-03T07:39:18.026Z</time></trkpt><trkpt lat="42.3463661" lon="13.3962478"><ele>707.75</ele><time>2026-05-03T07:39:19.025Z</time></trkpt><trkpt lat="42.3463102" lon="13.3963971"><ele>706.5</ele><time>2026-05-03T07:39:20.025Z</time></trkpt><trkpt lat="42.3462476" lon="13.3965442"><ele>705.25</ele><time>2026-05-03T07:39:21.025Z</time></trkpt><trkpt lat="42.3461986" lon="13.3966967"><ele>704.0</ele><time>2026-05-03T07:39:22.025Z</time></trkpt><trkpt lat="42.3461467" lon="13.3968279"><ele>704.0</ele><time>2026-05-03T07:39:23.025Z</time></trkpt><trkpt lat="42.3461107" lon="13.3969446"><ele>704.0</ele><time>2026-05-03T07:39:24.025Z</time></trkpt><trkpt lat="42.3460681" lon="13.3970646"><ele>704.0</ele><time>2026-05-03T07:39:25.025Z</time></trkpt><trkpt lat="42.3460184" lon="13.3971384"><ele>704.0</ele><time>2026-05-03T07:39:26.025Z</time></trkpt><trkpt lat="42.3459348" lon="13.397259"><ele>704.0</ele><time>2026-05-03T07:39:28.025Z</time></trkpt><trkpt lat="42.3458288" lon="13.3973159"><ele>703.0</ele><time>2026-05-03T07:39:30.026Z</time></trkpt><trkpt lat="42.3457626" lon="13.3973115"><ele>702.0</ele><time>2026-05-03T07:39:31.025Z</time></trkpt><trkpt lat="42.3456936" lon="13.3972869"><ele>701.0</ele><time>2026-05-03T07:39:32.025Z</time></trkpt><trkpt lat="42.3456205" lon="13.3972476"><ele>700.0</ele><time>2026-05-03T07:39:33.025Z</time></trkpt><trkpt lat="42.3455465" lon="13.3972095"><ele>699.0</ele><time>2026-05-03T07:39:34.025Z</time></trkpt><trkpt lat="42.3454616" lon="13.3971676"><ele>698.0</ele><time>2026-05-03T07:39:35.025Z</time></trkpt><trkpt lat="42.34537" lon="13.3971277"><ele>698.0</ele><time>2026-05-03T07:39:36.025Z</time></trkpt><trkpt lat="42.3452768" lon="13.3970857"><ele>698.0</ele><time>2026-05-03T07:39:37.025Z</time></trkpt><trkpt lat="42.3451655" lon="13.3970256"><ele>698.0</ele><time>2026-05-03T07:39:38.025Z</time></trkpt><trkpt lat="42.345052" lon="13.3969643"><ele>698.0</ele><time>2026-05-03T07:39:39.026Z</time></trkpt><trkpt lat="42.3449345" lon="13.3968948"><ele>698.0</ele><time>2026-05-03T07:39:40.025Z</time></trkpt><trkpt lat="42.3448112" lon="13.3968336"><ele>698.0</ele><time>2026-05-03T07:39:41.025Z</time></trkpt><trkpt lat="42.344688" lon="13.3967603"><ele>698.0</ele><time>2026-05-03T07:39:42.025Z</time></trkpt><trkpt lat="42.3445635" lon="13.3966854"><ele>698.0</ele><time>2026-05-03T07:39:43.025Z</time></trkpt><trkpt lat="42.3444433" lon="13.3966182"><ele>697.75</ele><time>2026-05-03T07:39:44.026Z</time></trkpt><trkpt lat="42.3443236" lon="13.3965496"><ele>697.5</ele><time>2026-05-03T07:39:45.025Z</time></trkpt><trkpt lat="42.3442041" lon="13.3964819"><ele>697.25</ele><time>2026-05-03T07:39:46.026Z</time></trkpt><trkpt lat="42.3440893" lon="13.3964281"><ele>697.0</ele><time>2026-05-03T07:39:47.025Z</time></trkpt><trkpt lat="42.3439919" lon="13.3963719"><ele>696.2</ele><time>2026-05-03T07:39:48.025Z</time></trkpt><trkpt lat="42.3439006" lon="13.3963269"><ele>695.4000000000001</ele><time>2026-05-03T07:39:49.025Z</time></trkpt><trkpt lat="42.3438182" lon="13.3962843"><ele>694.5999999999999</ele><time>2026-05-03T07:39:50.025Z</time></trkpt><trkpt lat="42.3437357" lon="13.3962398"><ele>693.8</ele><time>2026-05-03T07:39:51.025Z</time></trkpt><trkpt lat="42.3436459" lon="13.3961898"><ele>693.0</ele><time>2026-05-03T07:39:52.025Z</time></trkpt><trkpt lat="42.3435546" lon="13.3961398"><ele>692.8333333333334</ele><time>2026-05-03T07:39:53.025Z</time></trkpt><trkpt lat="42.343473" lon="13.3960866"><ele>692.6666666666666</ele><time>2026-05-03T07:39:54.025Z</time></trkpt><trkpt lat="42.3433943" lon="13.3960483"><ele>692.5</ele><time>2026-05-03T07:39:55.025Z</time></trkpt><trkpt lat="42.3433199" lon="13.3960085"><ele>692.3333333333333</ele><time>2026-05-03T07:39:56.025Z</time></trkpt><trkpt lat="42.3432509" lon="13.3959683"><ele>692.1666666666666</ele><time>2026-05-03T07:39:57.025Z</time></trkpt><trkpt lat="42.3431791" lon="13.3959219"><ele>692.0</ele><time>2026-05-03T07:39:58.025Z</time></trkpt><trkpt lat="42.3431022" lon="13.3958793"><ele>691.0</ele><time>2026-05-03T07:39:59.025Z</time></trkpt><trkpt lat="42.3430237" lon="13.3958347"><ele>690.0</ele><time>2026-05-03T07:40:00.025Z</time></trkpt><trkpt lat="42.3429475" lon="13.3957876"><ele>689.0</ele><time>2026-05-03T07:40:01.025Z</time></trkpt><trkpt lat="42.3428702" lon="13.3957563"><ele>688.0</ele><time>2026-05-03T07:40:02.025Z</time></trkpt><trkpt lat="42.342795" lon="13.3957268"><ele>687.0</ele><time>2026-05-03T07:40:03.025Z</time></trkpt><trkpt lat="42.3427276" lon="13.3956926"><ele>686.0</ele><time>2026-05-03T07:40:04.025Z</time></trkpt><trkpt lat="42.3426608" lon="13.3956535"><ele>686.0</ele><time>2026-05-03T07:40:05.025Z</time></trkpt><trkpt lat="42.3425887" lon="13.3956128"><ele>686.0</ele><time>2026-05-03T07:40:06.025Z</time></trkpt><trkpt lat="42.3425189" lon="13.3955761"><ele>686.0</ele><time>2026-05-03T07:40:07.025Z</time></trkpt><trkpt lat="42.3424543" lon="13.3955334"><ele>686.0</ele><time>2026-05-03T07:40:08.025Z</time></trkpt><trkpt lat="42.3423888" lon="13.3954932"><ele>686.0</ele><time>2026-05-03T07:40:09.025Z</time></trkpt><trkpt lat="42.3423262" lon="13.3954578"><ele>686.0</ele><time>2026-05-03T07:40:10.025Z</time></trkpt><trkpt lat="42.3422632" lon="13.3954245"><ele>686.0</ele><time>2026-05-03T07:40:11.025Z</time></trkpt><trkpt lat="42.3422" lon="13.395376"><ele>684.6666666666666</ele><time>2026-05-03T07:40:12.025Z</time></trkpt><trkpt lat="42.3421333" lon="13.3953112"><ele>683.3333333333333</ele><time>2026-05-03T07:40:13.025Z</time></trkpt><trkpt lat="42.3420661" lon="13.3952481"><ele>682.0</ele><time>2026-05-03T07:40:14.025Z</time></trkpt><trkpt lat="42.341997" lon="13.395182"><ele>680.6666666666666</ele><time>2026-05-03T07:40:15.026Z</time></trkpt><trkpt lat="42.341921" lon="13.3951184"><ele>679.3333333333334</ele><time>2026-05-03T07:40:16.025Z</time></trkpt><trkpt lat="42.3418495" lon="13.3950546"><ele>678.0</ele><time>2026-05-03T07:40:17.026Z</time></trkpt><trkpt lat="42.3417798" lon="13.3949946"><ele>678.0</ele><time>2026-05-03T07:40:18.025Z</time></trkpt><trkpt lat="42.3417072" lon="13.394941"><ele>678.0</ele><time>2026-05-03T07:40:19.025Z</time></trkpt><trkpt lat="42.3416331" lon="13.3948858"><ele>678.0</ele><time>2026-05-03T07:40:20.025Z</time></trkpt><trkpt lat="42.3415548" lon="13.3948232"><ele>678.0</ele><time>2026-05-03T07:40:21.025Z</time></trkpt><trkpt lat="42.3414691" lon="13.3947538"><ele>678.0</ele><time>2026-05-03T07:40:22.025Z</time></trkpt><trkpt lat="42.3413833" lon="13.3946715"><ele>673.0</ele><time>2026-05-03T07:40:23.025Z</time></trkpt><trkpt lat="42.3413082" lon="13.3945688"><ele>668.0</ele><time>2026-05-03T07:40:24.025Z</time></trkpt><trkpt lat="42.3412426" lon="13.3944469"><ele>663.0</ele><time>2026-05-03T07:40:25.025Z</time></trkpt><trkpt lat="42.3411944" lon="13.3943267"><ele>658.0</ele><time>2026-05-03T07:40:26.025Z</time></trkpt><trkpt lat="42.3411653" lon="13.3942122"><ele>653.0</ele><time>2026-05-03T07:40:27.025Z</time></trkpt><trkpt lat="42.3411608" lon="13.3941101"><ele>653.0</ele><time>2026-05-03T07:40:28.025Z</time></trkpt><trkpt lat="42.3411832" lon="13.3940167"><ele>653.0</ele><time>2026-05-03T07:40:29.025Z</time></trkpt><trkpt lat="42.3412356" lon="13.3939314"><ele>653.0</ele><time>2026-05-03T07:40:30.025Z</time></trkpt><trkpt lat="42.3413049" lon="13.3938533"><ele>653.0</ele><time>2026-05-03T07:40:31.025Z</time></trkpt><trkpt lat="42.3413882" lon="13.3937809"><ele>653.0</ele><time>2026-05-03T07:40:32.025Z</time></trkpt><trkpt lat="42.3414896" lon="13.3937214"><ele>653.4</ele><time>2026-05-03T07:40:33.025Z</time></trkpt><trkpt lat="42.3415975" lon="13.3936845"><ele>653.8</ele><time>2026-05-03T07:40:34.025Z</time></trkpt><trkpt lat="42.3417087" lon="13.3936794"><ele>654.2</ele><time>2026-05-03T07:40:35.025Z</time></trkpt><trkpt lat="42.3418144" lon="13.3936888"><ele>654.6</ele><time>2026-05-03T07:40:36.025Z</time></trkpt><trkpt lat="42.3419038" lon="13.3937035"><ele>655.0</ele><time>2026-05-03T07:40:37.025Z</time></trkpt><trkpt lat="42.3419807" lon="13.3937113"><ele>655.0</ele><time>2026-05-03T07:40:38.025Z</time></trkpt><trkpt lat="42.3420915" lon="13.3936575"><ele>655.0</ele><time>2026-05-03T07:40:40.025Z</time></trkpt><trkpt lat="42.3421075" lon="13.3935272"><ele>655.0</ele><time>2026-05-03T07:40:42.025Z</time></trkpt><trkpt lat="42.3419931" lon="13.3934196"><ele>655.0</ele><time>2026-05-03T07:40:44.025Z</time></trkpt><trkpt lat="42.3419103" lon="13.3933744"><ele>655.0</ele><time>2026-05-03T07:40:45.025Z</time></trkpt><trkpt lat="42.3418123" lon="13.393342"><ele>655.0</ele><time>2026-05-03T07:40:46.025Z</time></trkpt><trkpt lat="42.3417045" lon="13.3933214"><ele>655.0</ele><time>2026-05-03T07:40:47.025Z</time></trkpt><trkpt lat="42.3415828" lon="13.3933284"><ele>655.0</ele><time>2026-05-03T07:40:48.025Z</time></trkpt><trkpt lat="42.3414548" lon="13.3933536"><ele>655.0</ele><time>2026-05-03T07:40:49.025Z</time></trkpt><trkpt lat="42.3413251" lon="13.3934054"><ele>651.75</ele><time>2026-05-03T07:40:50.025Z</time></trkpt><trkpt lat="42.3411962" lon="13.3934754"><ele>648.5</ele><time>2026-05-03T07:40:51.025Z</time></trkpt><trkpt lat="42.3410793" lon="13.3935603"><ele>645.25</ele><time>2026-05-03T07:40:52.025Z</time></trkpt><trkpt lat="42.3409744" lon="13.3936466"><ele>642.0</ele><time>2026-05-03T07:40:53.025Z</time></trkpt><trkpt lat="42.3408799" lon="13.3937569"><ele>644.75</ele><time>2026-05-03T07:40:54.025Z</time></trkpt><trkpt lat="42.3408197" lon="13.3938821"><ele>647.5</ele><time>2026-05-03T07:40:55.025Z</time></trkpt><trkpt lat="42.340782" lon="13.3940387"><ele>650.25</ele><time>2026-05-03T07:40:56.025Z</time></trkpt><trkpt lat="42.3407663" lon="13.3942071"><ele>653.0</ele><time>2026-05-03T07:40:57.025Z</time></trkpt><trkpt lat="42.3407632" lon="13.3943892"><ele>653.0</ele><time>2026-05-03T07:40:58.025Z</time></trkpt><trkpt lat="42.3407855" lon="13.3945907"><ele>653.0</ele><time>2026-05-03T07:40:59.025Z</time></trkpt><trkpt lat="42.3408021" lon="13.3947912"><ele>653.0</ele><time>2026-05-03T07:41:00.025Z</time></trkpt><trkpt lat="42.3408103" lon="13.3949965"><ele>651.6666666666666</ele><time>2026-05-03T07:41:01.025Z</time></trkpt><trkpt lat="42.3408011" lon="13.3952077"><ele>650.3333333333334</ele><time>2026-05-03T07:41:02.025Z</time></trkpt><trkpt lat="42.3407786" lon="13.3954142"><ele>649.0</ele><time>2026-05-03T07:41:03.025Z</time></trkpt><trkpt lat="42.3407457" lon="13.3956232"><ele>648.3333333333334</ele><time>2026-05-03T07:41:04.025Z</time></trkpt><trkpt lat="42.3407208" lon="13.3958466"><ele>647.6666666666666</ele><time>2026-05-03T07:41:05.025Z</time></trkpt><trkpt lat="42.3407086" lon="13.3960788"><ele>647.0</ele><time>2026-05-03T07:41:06.026Z</time></trkpt><trkpt lat="42.3407006" lon="13.3963137"><ele>645.0</ele><time>2026-05-03T07:41:07.025Z</time></trkpt><trkpt lat="42.3406971" lon="13.3965503"><ele>643.0</ele><time>2026-05-03T07:41:08.025Z</time></trkpt><trkpt lat="42.3406946" lon="13.3967977"><ele>641.0</ele><time>2026-05-03T07:41:09.025Z</time></trkpt><trkpt lat="42.3406953" lon="13.3970494"><ele>637.3333333333333</ele><time>2026-05-03T07:41:10.025Z</time></trkpt><trkpt lat="42.3406951" lon="13.3973022"><ele>633.6666666666666</ele><time>2026-05-03T07:41:11.025Z</time></trkpt><trkpt lat="42.3406948" lon="13.3975477"><ele>630.0</ele><time>2026-05-03T07:41:12.025Z</time></trkpt><trkpt lat="42.3406892" lon="13.3977954"><ele>626.3333333333334</ele><time>2026-05-03T07:41:13.026Z</time></trkpt><trkpt lat="42.3406877" lon="13.3980416"><ele>622.6666666666667</ele><time>2026-05-03T07:41:14.026Z</time></trkpt><trkpt lat="42.3406877" lon="13.3982913"><ele>619.0</ele><time>2026-05-03T07:41:15.025Z</time></trkpt><trkpt lat="42.3406907" lon="13.3985412"><ele>619.0</ele><time>2026-05-03T07:41:16.025Z</time></trkpt><trkpt lat="42.3406876" lon="13.3987879"><ele>619.0</ele><time>2026-05-03T07:41:17.025Z</time></trkpt><trkpt lat="42.3406792" lon="13.3990261"><ele>619.0</ele><time>2026-05-03T07:41:18.025Z</time></trkpt><trkpt lat="42.3406687" lon="13.3992643"><ele>618.0</ele><time>2026-05-03T07:41:19.025Z</time></trkpt><trkpt lat="42.3406613" lon="13.399492"><ele>617.0</ele><time>2026-05-03T07:41:20.025Z</time></trkpt><trkpt lat="42.3406432" lon="13.3997106"><ele>616.0</ele><time>2026-05-03T07:41:21.025Z</time></trkpt><trkpt lat="42.3406048" lon="13.3999207"><ele>614.3333333333334</ele><time>2026-05-03T07:41:22.025Z</time></trkpt><trkpt lat="42.3405526" lon="13.4001256"><ele>612.6666666666666</ele><time>2026-05-03T07:41:23.025Z</time></trkpt><trkpt lat="42.3404896" lon="13.4003308"><ele>611.0</ele><time>2026-05-03T07:41:24.025Z</time></trkpt><trkpt lat="42.3404233" lon="13.4005361"><ele>611.0</ele><time>2026-05-03T07:41:25.025Z</time></trkpt><trkpt lat="42.3403605" lon="13.4007563"><ele>611.0</ele><time>2026-05-03T07:41:26.025Z</time></trkpt><trkpt lat="42.3402931" lon="13.4009819"><ele>611.0</ele><time>2026-05-03T07:41:27.025Z</time></trkpt><trkpt lat="42.3402254" lon="13.4012086"><ele>613.0</ele><time>2026-05-03T07:41:28.026Z</time></trkpt><trkpt lat="42.3401541" lon="13.4014218"><ele>615.0</ele><time>2026-05-03T07:41:29.025Z</time></trkpt><trkpt lat="42.3400881" lon="13.4016391"><ele>617.0</ele><time>2026-05-03T07:41:30.025Z</time></trkpt><trkpt lat="42.340027" lon="13.4018481"><ele>617.0</ele><time>2026-05-03T07:41:31.025Z</time></trkpt><trkpt lat="42.3399643" lon="13.4020642"><ele>617.0</ele><time>2026-05-03T07:41:32.025Z</time></trkpt><trkpt lat="42.3399034" lon="13.4022871"><ele>617.0</ele><time>2026-05-03T07:41:33.025Z</time></trkpt><trkpt lat="42.3398413" lon="13.4025094"><ele>614.6666666666666</ele><time>2026-05-03T07:41:34.025Z</time></trkpt><trkpt lat="42.3397892" lon="13.4027304"><ele>612.3333333333334</ele><time>2026-05-03T07:41:35.025Z</time></trkpt><trkpt lat="42.3397457" lon="13.4029584"><ele>610.0</ele><time>2026-05-03T07:41:36.025Z</time></trkpt><trkpt lat="42.3397082" lon="13.4031865"><ele>610.0</ele><time>2026-05-03T07:41:37.025Z</time></trkpt><trkpt lat="42.339681" lon="13.403412"><ele>610.0</ele><time>2026-05-03T07:41:38.025Z</time></trkpt><trkpt lat="42.3396551" lon="13.4036535"><ele>610.0</ele><time>2026-05-03T07:41:39.025Z</time></trkpt><trkpt lat="42.3396295" lon="13.4038919"><ele>609.3333333333334</ele><time>2026-05-03T07:41:40.026Z</time></trkpt><trkpt lat="42.3396073" lon="13.404135"><ele>608.6666666666666</ele><time>2026-05-03T07:41:41.025Z</time></trkpt><trkpt lat="42.3395899" lon="13.4043811"><ele>608.0</ele><time>2026-05-03T07:41:42.025Z</time></trkpt><trkpt lat="42.3395763" lon="13.404628"><ele>608.0</ele><time>2026-05-03T07:41:43.025Z</time></trkpt><trkpt lat="42.339564" lon="13.4048786"><ele>608.0</ele><time>2026-05-03T07:41:44.025Z</time></trkpt><trkpt lat="42.3395559" lon="13.4051285"><ele>608.0</ele><time>2026-05-03T07:41:45.025Z</time></trkpt><trkpt lat="42.339551" lon="13.4053723"><ele>608.3333333333333</ele><time>2026-05-03T07:41:46.025Z</time></trkpt><trkpt lat="42.3395418" lon="13.4056223"><ele>608.6666666666666</ele><time>2026-05-03T07:41:47.025Z</time></trkpt><trkpt lat="42.3395303" lon="13.4058718"><ele>609.0</ele><time>2026-05-03T07:41:48.025Z</time></trkpt><trkpt lat="42.3395174" lon="13.4061211"><ele>609.0</ele><time>2026-05-03T07:41:49.026Z</time></trkpt><trkpt lat="42.3394981" lon="13.4063745"><ele>609.0</ele><time>2026-05-03T07:41:50.025Z</time></trkpt><trkpt lat="42.3394869" lon="13.406618"><ele>609.0</ele><time>2026-05-03T07:41:51.025Z</time></trkpt><trkpt lat="42.3394757" lon="13.4068557"><ele>609.0</ele><time>2026-05-03T07:41:52.025Z</time></trkpt><trkpt lat="42.3394627" lon="13.4070787"><ele>609.0</ele><time>2026-05-03T07:41:53.025Z</time></trkpt><trkpt lat="42.3394503" lon="13.4072904"><ele>609.0</ele><time>2026-05-03T07:41:54.025Z</time></trkpt><trkpt lat="42.33944" lon="13.4074889"><ele>607.75</ele><time>2026-05-03T07:41:55.025Z</time></trkpt><trkpt lat="42.3394261" lon="13.4076911"><ele>606.5</ele><time>2026-05-03T07:41:56.025Z</time></trkpt><trkpt lat="42.3394049" lon="13.4078834"><ele>605.25</ele><time>2026-05-03T07:41:57.025Z</time></trkpt><trkpt lat="42.3393922" lon="13.408071"><ele>604.0</ele><time>2026-05-03T07:41:58.025Z</time></trkpt><trkpt lat="42.3393734" lon="13.4082618"><ele>604.0</ele><time>2026-05-03T07:41:59.025Z</time></trkpt><trkpt lat="42.3393515" lon="13.4084474"><ele>604.0</ele><time>2026-05-03T07:42:00.025Z</time></trkpt><trkpt lat="42.3393278" lon="13.4086346"><ele>604.0</ele><time>2026-05-03T07:42:01.025Z</time></trkpt><trkpt lat="42.3393029" lon="13.4088066"><ele>604.0</ele><time>2026-05-03T07:42:02.025Z</time></trkpt><trkpt lat="42.3392806" lon="13.4089621"><ele>604.0</ele><time>2026-05-03T07:42:03.025Z</time></trkpt><trkpt lat="42.3392567" lon="13.4091057"><ele>604.0</ele><time>2026-05-03T07:42:04.025Z</time></trkpt><trkpt lat="42.3392423" lon="13.4092026"><ele>604.0</ele><time>2026-05-03T07:42:05.025Z</time></trkpt><trkpt lat="42.3392326" lon="13.4093001"><ele>604.0</ele><time>2026-05-03T07:42:08.025Z</time></trkpt><trkpt lat="42.3392118" lon="13.409427"><ele>604.0</ele><time>2026-05-03T07:42:11.025Z</time></trkpt><trkpt lat="42.3391831" lon="13.4095896"><ele>604.5</ele><time>2026-05-03T07:42:13.025Z</time></trkpt><trkpt lat="42.3391623" lon="13.4096875"><ele>605.0</ele><time>2026-05-03T07:42:14.025Z</time></trkpt><trkpt lat="42.3391429" lon="13.4098062"><ele>605.5</ele><time>2026-05-03T07:42:15.025Z</time></trkpt><trkpt lat="42.339127" lon="13.4099254"><ele>606.0</ele><time>2026-05-03T07:42:16.025Z</time></trkpt><trkpt lat="42.339112" lon="13.4100481"><ele>606.5</ele><time>2026-05-03T07:42:17.025Z</time></trkpt><trkpt lat="42.3390929" lon="13.41015"><ele>607.0</ele><time>2026-05-03T07:42:18.025Z</time></trkpt><trkpt lat="42.3390664" lon="13.4102421"><ele>607.0</ele><time>2026-05-03T07:42:19.025Z</time></trkpt><trkpt lat="42.3390261" lon="13.4103219"><ele>607.0</ele><time>2026-05-03T07:42:20.025Z</time></trkpt><trkpt lat="42.3389734" lon="13.4103773"><ele>607.0</ele><time>2026-05-03T07:42:21.025Z</time></trkpt><trkpt lat="42.338905" lon="13.4104138"><ele>607.0</ele><time>2026-05-03T07:42:22.025Z</time></trkpt><trkpt lat="42.3388275" lon="13.4104245"><ele>607.0</ele><time>2026-05-03T07:42:23.026Z</time></trkpt><trkpt lat="42.3387413" lon="13.4104095"><ele>607.0</ele><time>2026-05-03T07:42:24.025Z</time></trkpt><trkpt lat="42.3386519" lon="13.4103709"><ele>605.6</ele><time>2026-05-03T07:42:25.025Z</time></trkpt><trkpt lat="42.3385586" lon="13.4103195"><ele>604.2</ele><time>2026-05-03T07:42:26.025Z</time></trkpt><trkpt lat="42.3384582" lon="13.4102568"><ele>602.8</ele><time>2026-05-03T07:42:27.025Z</time></trkpt><trkpt lat="42.3383578" lon="13.410187"><ele>601.4</ele><time>2026-05-03T07:42:28.026Z</time></trkpt><trkpt lat="42.3382598" lon="13.4101119"><ele>600.0</ele><time>2026-05-03T07:42:29.025Z</time></trkpt><trkpt lat="42.3381678" lon="13.4100445"><ele>600.0</ele><time>2026-05-03T07:42:30.025Z</time></trkpt><trkpt lat="42.3380751" lon="13.4099832"><ele>600.0</ele><time>2026-05-03T07:42:31.025Z</time></trkpt><trkpt lat="42.337981" lon="13.4099346"><ele>600.0</ele><time>2026-05-03T07:42:32.025Z</time></trkpt><trkpt lat="42.3378838" lon="13.4099163"><ele>600.0</ele><time>2026-05-03T07:42:33.025Z</time></trkpt><trkpt lat="42.3377839" lon="13.4099259"><ele>600.0</ele><time>2026-05-03T07:42:34.025Z</time></trkpt><trkpt lat="42.3376863" lon="13.4099562"><ele>600.5</ele><time>2026-05-03T07:42:35.025Z</time></trkpt><trkpt lat="42.3375889" lon="13.4100155"><ele>601.0</ele><time>2026-05-03T07:42:36.025Z</time></trkpt><trkpt lat="42.3375005" lon="13.4101006"><ele>601.5</ele><time>2026-05-03T07:42:37.025Z</time></trkpt><trkpt lat="42.337422" lon="13.4102171"><ele>602.0</ele><time>2026-05-03T07:42:38.025Z</time></trkpt><trkpt lat="42.3373569" lon="13.4103509"><ele>602.0</ele><time>2026-05-03T07:42:39.025Z</time></trkpt><trkpt lat="42.3372944" lon="13.4104909"><ele>602.0</ele><time>2026-05-03T07:42:40.025Z</time></trkpt><trkpt lat="42.3372348" lon="13.4106398"><ele>602.0</ele><time>2026-05-03T07:42:41.025Z</time></trkpt><trkpt lat="42.3371731" lon="13.4107868"><ele>602.0</ele><time>2026-05-03T07:42:42.025Z</time></trkpt><trkpt lat="42.3371116" lon="13.4109407"><ele>602.75</ele><time>2026-05-03T07:42:43.025Z</time></trkpt><trkpt lat="42.3370487" lon="13.4110898"><ele>603.5</ele><time>2026-05-03T07:42:44.025Z</time></trkpt><trkpt lat="42.3369854" lon="13.4112457"><ele>604.25</ele><time>2026-05-03T07:42:45.025Z</time></trkpt><trkpt lat="42.3369184" lon="13.4114087"><ele>605.0</ele><time>2026-05-03T07:42:46.025Z</time></trkpt><trkpt lat="42.3368501" lon="13.4115785"><ele>605.0</ele><time>2026-05-03T07:42:47.025Z</time></trkpt><trkpt lat="42.3367786" lon="13.4117458"><ele>605.0</ele><time>2026-05-03T07:42:48.026Z</time></trkpt><trkpt lat="42.3367095" lon="13.411919"><ele>605.0</ele><time>2026-05-03T07:42:49.025Z</time></trkpt><trkpt lat="42.3366358" lon="13.4120931"><ele>605.0</ele><time>2026-05-03T07:42:50.025Z</time></trkpt><trkpt lat="42.336562" lon="13.4122751"><ele>604.0</ele><time>2026-05-03T07:42:51.025Z</time></trkpt><trkpt lat="42.3364862" lon="13.4124607"><ele>603.0</ele><time>2026-05-03T07:42:52.025Z</time></trkpt><trkpt lat="42.3364092" lon="13.4126488"><ele>602.0</ele><time>2026-05-03T07:42:53.025Z</time></trkpt><trkpt lat="42.3363335" lon="13.4128319"><ele>603.0</ele><time>2026-05-03T07:42:54.025Z</time></trkpt><trkpt lat="42.3362584" lon="13.4130211"><ele>604.0</ele><time>2026-05-03T07:42:55.025Z</time></trkpt><trkpt lat="42.3361775" lon="13.4132059"><ele>605.0</ele><time>2026-05-03T07:42:56.025Z</time></trkpt><trkpt lat="42.3361037" lon="13.4133919"><ele>605.0</ele><time>2026-05-03T07:42:57.025Z</time></trkpt><trkpt lat="42.336034" lon="13.4135655"><ele>605.0</ele><time>2026-05-03T07:42:58.025Z</time></trkpt><trkpt lat="42.3359631" lon="13.4137328"><ele>605.0</ele><time>2026-05-03T07:42:59.026Z</time></trkpt><trkpt lat="42.3358903" lon="13.4138949"><ele>605.0</ele><time>2026-05-03T07:43:00.025Z</time></trkpt><trkpt lat="42.3358015" lon="13.4140453"><ele>605.5</ele><time>2026-05-03T07:43:01.025Z</time></trkpt><trkpt lat="42.3357008" lon="13.414184"><ele>606.0</ele><time>2026-05-03T07:43:02.025Z</time></trkpt><trkpt lat="42.3355928" lon="13.4143164"><ele>606.5</ele><time>2026-05-03T07:43:03.025Z</time></trkpt><trkpt lat="42.3354405" lon="13.4143804"><ele>607.0</ele><time>2026-05-03T07:43:04.025Z</time></trkpt><trkpt lat="42.3353037" lon="13.4144802"><ele>607.0</ele><time>2026-05-03T07:43:05.025Z</time></trkpt><trkpt lat="42.3351636" lon="13.4145758"><ele>607.0</ele><time>2026-05-03T07:43:06.025Z</time></trkpt><trkpt lat="42.3350156" lon="13.4146722"><ele>607.0</ele><time>2026-05-03T07:43:07.025Z</time></trkpt><trkpt lat="42.3348654" lon="13.4147758"><ele>604.6666666666667</ele><time>2026-05-03T07:43:08.026Z</time></trkpt><trkpt lat="42.3347101" lon="13.4148754"><ele>602.3333333333334</ele><time>2026-05-03T07:43:09.025Z</time></trkpt><trkpt lat="42.3345558" lon="13.4149772"><ele>600.0</ele><time>2026-05-03T07:43:10.025Z</time></trkpt><trkpt lat="42.334405" lon="13.4150717"><ele>600.0</ele><time>2026-05-03T07:43:11.025Z</time></trkpt><trkpt lat="42.3342508" lon="13.4151691"><ele>600.0</ele><time>2026-05-03T07:43:12.025Z</time></trkpt><trkpt lat="42.3340957" lon="13.4152767"><ele>600.0</ele><time>2026-05-03T07:43:13.025Z</time></trkpt><trkpt lat="42.3339443" lon="13.4153782"><ele>599.3333333333334</ele><time>2026-05-03T07:43:14.025Z</time></trkpt><trkpt lat="42.3337944" lon="13.4154818"><ele>598.6666666666667</ele><time>2026-05-03T07:43:15.025Z</time></trkpt><trkpt lat="42.3336491" lon="13.4155881"><ele>598.0</ele><time>2026-05-03T07:43:16.025Z</time></trkpt><trkpt lat="42.333508" lon="13.4157082"><ele>597.6666666666667</ele><time>2026-05-03T07:43:17.025Z</time></trkpt><trkpt lat="42.3333649" lon="13.4158312"><ele>597.3333333333334</ele><time>2026-05-03T07:43:18.025Z</time></trkpt><trkpt lat="42.3332245" lon="13.4159591"><ele>597.0</ele><time>2026-05-03T07:43:19.025Z</time></trkpt><trkpt lat="42.3330862" lon="13.4160795"><ele>597.0</ele><time>2026-05-03T07:43:20.026Z</time></trkpt><trkpt lat="42.332947" lon="13.4161954"><ele>597.0</ele><time>2026-05-03T07:43:21.025Z</time></trkpt><trkpt lat="42.332811" lon="13.4163151"><ele>597.0</ele><time>2026-05-03T07:43:22.025Z</time></trkpt><trkpt lat="42.3326985" lon="13.4164176"><ele>597.0</ele><time>2026-05-03T07:43:23.026Z</time></trkpt><trkpt lat="42.3326061" lon="13.4164998"><ele>597.0</ele><time>2026-05-03T07:43:24.025Z</time></trkpt><trkpt lat="42.3325274" lon="13.4165628"><ele>597.0</ele><time>2026-05-03T07:43:25.025Z</time></trkpt><trkpt lat="42.3324671" lon="13.4166231"><ele>597.0</ele><time>2026-05-03T07:43:26.025Z</time></trkpt><trkpt lat="42.33241" lon="13.4167589"><ele>597.0</ele><time>2026-05-03T07:43:28.026Z</time></trkpt><trkpt lat="42.332441" lon="13.416924"><ele>597.0</ele><time>2026-05-03T07:43:30.025Z</time></trkpt><trkpt lat="42.3324682" lon="13.4170123"><ele>597.0</ele><time>2026-05-03T07:43:31.025Z</time></trkpt><trkpt lat="42.3324859" lon="13.4171198"><ele>597.0</ele><time>2026-05-03T07:43:32.025Z</time></trkpt><trkpt lat="42.3324887" lon="13.4172437"><ele>597.0</ele><time>2026-05-03T07:43:33.025Z</time></trkpt><trkpt lat="42.3324751" lon="13.4173823"><ele>597.0</ele><time>2026-05-03T07:43:34.025Z</time></trkpt><trkpt lat="42.3324417" lon="13.4175305"><ele>597.0</ele><time>2026-05-03T07:43:35.025Z</time></trkpt><trkpt lat="42.3324029" lon="13.4176772"><ele>597.0</ele><time>2026-05-03T07:43:36.025Z</time></trkpt><trkpt lat="42.3323598" lon="13.4178449"><ele>597.0</ele><time>2026-05-03T07:43:37.025Z</time></trkpt><trkpt lat="42.3323185" lon="13.418016"><ele>597.0</ele><time>2026-05-03T07:43:38.025Z</time></trkpt><trkpt lat="42.3322743" lon="13.4181954"><ele>596.6666666666666</ele><time>2026-05-03T07:43:39.026Z</time></trkpt><trkpt lat="42.3322257" lon="13.4183798"><ele>596.3333333333333</ele><time>2026-05-03T07:43:40.025Z</time></trkpt><trkpt lat="42.3321738" lon="13.4185714"><ele>596.0</ele><time>2026-05-03T07:43:41.025Z</time></trkpt><trkpt lat="42.3321202" lon="13.4187712"><ele>595.3333333333333</ele><time>2026-05-03T07:43:42.025Z</time></trkpt><trkpt lat="42.3320688" lon="13.4189865"><ele>594.6666666666666</ele><time>2026-05-03T07:43:43.025Z</time></trkpt><trkpt lat="42.3320179" lon="13.4192034"><ele>594.0</ele><time>2026-05-03T07:43:44.025Z</time></trkpt><trkpt lat="42.3319639" lon="13.4194164"><ele>594.0</ele><time>2026-05-03T07:43:45.025Z</time></trkpt><trkpt lat="42.3319147" lon="13.4196364"><ele>594.0</ele><time>2026-05-03T07:43:46.025Z</time></trkpt><trkpt lat="42.3318719" lon="13.4198569"><ele>594.0</ele><time>2026-05-03T07:43:47.025Z</time></trkpt><trkpt lat="42.3318301" lon="13.420091"><ele>594.3333333333334</ele><time>2026-05-03T07:43:48.025Z</time></trkpt><trkpt lat="42.3317939" lon="13.420332"><ele>594.6666666666667</ele><time>2026-05-03T07:43:49.025Z</time></trkpt><trkpt lat="42.3317551" lon="13.420572"><ele>595.0</ele><time>2026-05-03T07:43:50.025Z</time></trkpt><trkpt lat="42.331713" lon="13.4208122"><ele>594.6666666666667</ele><time>2026-05-03T07:43:51.026Z</time></trkpt><trkpt lat="42.3316725" lon="13.4210499"><ele>594.3333333333334</ele><time>2026-05-03T07:43:52.025Z</time></trkpt><trkpt lat="42.3316317" lon="13.4213039"><ele>594.0</ele><time>2026-05-03T07:43:53.025Z</time></trkpt><trkpt lat="42.3315882" lon="13.4215556"><ele>594.0</ele><time>2026-05-03T07:43:54.025Z</time></trkpt><trkpt lat="42.3315399" lon="13.421795"><ele>594.0</ele><time>2026-05-03T07:43:55.025Z</time></trkpt><trkpt lat="42.3314775" lon="13.4220174"><ele>594.0</ele><time>2026-05-03T07:43:56.025Z</time></trkpt><trkpt lat="42.3314018" lon="13.4222255"><ele>594.0</ele><time>2026-05-03T07:43:57.025Z</time></trkpt><trkpt lat="42.3313095" lon="13.4224251"><ele>594.0</ele><time>2026-05-03T07:43:58.025Z</time></trkpt><trkpt lat="42.331208" lon="13.4226152"><ele>594.0</ele><time>2026-05-03T07:43:59.025Z</time></trkpt><trkpt lat="42.3311012" lon="13.42281"><ele>593.0</ele><time>2026-05-03T07:44:00.025Z</time></trkpt><trkpt lat="42.3309925" lon="13.4230083"><ele>592.0</ele><time>2026-05-03T07:44:01.025Z</time></trkpt><trkpt lat="42.3308825" lon="13.4232114"><ele>591.0</ele><time>2026-05-03T07:44:02.025Z</time></trkpt><trkpt lat="42.3307687" lon="13.4234156"><ele>591.0</ele><time>2026-05-03T07:44:03.025Z</time></trkpt><trkpt lat="42.3306529" lon="13.423617"><ele>591.0</ele><time>2026-05-03T07:44:04.025Z</time></trkpt><trkpt lat="42.3305453" lon="13.4238153"><ele>591.0</ele><time>2026-05-03T07:44:05.025Z</time></trkpt><trkpt lat="42.3304319" lon="13.4240215"><ele>591.0</ele><time>2026-05-03T07:44:06.026Z</time></trkpt><trkpt lat="42.3303241" lon="13.4242324"><ele>591.0</ele><time>2026-05-03T07:44:07.025Z</time></trkpt><trkpt lat="42.3302151" lon="13.4244453"><ele>591.0</ele><time>2026-05-03T07:44:08.025Z</time></trkpt><trkpt lat="42.330107" lon="13.4246562"><ele>591.0</ele><time>2026-05-03T07:44:09.025Z</time></trkpt><trkpt lat="42.3300062" lon="13.4248777"><ele>591.0</ele><time>2026-05-03T07:44:10.025Z</time></trkpt><trkpt lat="42.3299124" lon="13.425093"><ele>591.0</ele><time>2026-05-03T07:44:11.025Z</time></trkpt><trkpt lat="42.329821" lon="13.4252977"><ele>591.0</ele><time>2026-05-03T07:44:12.025Z</time></trkpt><trkpt lat="42.3297338" lon="13.4255051"><ele>591.0</ele><time>2026-05-03T07:44:13.025Z</time></trkpt><trkpt lat="42.3296432" lon="13.425712"><ele>591.0</ele><time>2026-05-03T07:44:14.025Z</time></trkpt><trkpt lat="42.3295458" lon="13.4259087"><ele>591.0</ele><time>2026-05-03T07:44:15.025Z</time></trkpt><trkpt lat="42.32944" lon="13.4261042"><ele>591.0</ele><time>2026-05-03T07:44:16.025Z</time></trkpt><trkpt lat="42.3293336" lon="13.4263047"><ele>591.0</ele><time>2026-05-03T07:44:17.025Z</time></trkpt><trkpt lat="42.3292162" lon="13.4265067"><ele>591.0</ele><time>2026-05-03T07:44:18.025Z</time></trkpt><trkpt lat="42.3291042" lon="13.4267076"><ele>591.0</ele><time>2026-05-03T07:44:19.025Z</time></trkpt><trkpt lat="42.328988" lon="13.4269154"><ele>591.0</ele><time>2026-05-03T07:44:20.025Z</time></trkpt><trkpt lat="42.3288719" lon="13.4271241"><ele>590.6666666666666</ele><time>2026-05-03T07:44:21.026Z</time></trkpt><trkpt lat="42.3287528" lon="13.4273319"><ele>590.3333333333333</ele><time>2026-05-03T07:44:22.025Z</time></trkpt><trkpt lat="42.3286287" lon="13.4275409"><ele>590.0</ele><time>2026-05-03T07:44:23.025Z</time></trkpt><trkpt lat="42.328504" lon="13.4277482"><ele>590.0</ele><time>2026-05-03T07:44:24.025Z</time></trkpt><trkpt lat="42.328374" lon="13.4279536"><ele>590.0</ele><time>2026-05-03T07:44:25.025Z</time></trkpt><trkpt lat="42.3282387" lon="13.4281548"><ele>590.0</ele><time>2026-05-03T07:44:26.025Z</time></trkpt><trkpt lat="42.3281045" lon="13.4283418"><ele>590.3333333333333</ele><time>2026-05-03T07:44:27.025Z</time></trkpt><trkpt lat="42.3279688" lon="13.4285443"><ele>590.6666666666666</ele><time>2026-05-03T07:44:28.025Z</time></trkpt><trkpt lat="42.3278319" lon="13.4287476"><ele>591.0</ele><time>2026-05-03T07:44:29.025Z</time></trkpt><trkpt lat="42.3276975" lon="13.4289443"><ele>591.0</ele><time>2026-05-03T07:44:30.025Z</time></trkpt><trkpt lat="42.3275672" lon="13.4291583"><ele>591.0</ele><time>2026-05-03T07:44:31.025Z</time></trkpt><trkpt lat="42.3274506" lon="13.4293885"><ele>591.0</ele><time>2026-05-03T07:44:32.026Z</time></trkpt><trkpt lat="42.3273545" lon="13.4296303"><ele>591.3333333333334</ele><time>2026-05-03T07:44:33.025Z</time></trkpt><trkpt lat="42.3272548" lon="13.4298734"><ele>591.6666666666667</ele><time>2026-05-03T07:44:34.025Z</time></trkpt><trkpt lat="42.3271678" lon="13.4301418"><ele>592.0</ele><time>2026-05-03T07:44:35.025Z</time></trkpt><trkpt lat="42.3270798" lon="13.4303949"><ele>591.3333333333334</ele><time>2026-05-03T07:44:36.025Z</time></trkpt><trkpt lat="42.3269854" lon="13.4306534"><ele>590.6666666666666</ele><time>2026-05-03T07:44:37.025Z</time></trkpt><trkpt lat="42.3268982" lon="13.4309117"><ele>590.0</ele><time>2026-05-03T07:44:38.025Z</time></trkpt><trkpt lat="42.326813" lon="13.4311678"><ele>590.0</ele><time>2026-05-03T07:44:39.025Z</time></trkpt><trkpt lat="42.3267221" lon="13.4314251"><ele>590.0</ele><time>2026-05-03T07:44:40.025Z</time></trkpt><trkpt lat="42.3266314" lon="13.4316843"><ele>590.0</ele><time>2026-05-03T07:44:41.025Z</time></trkpt><trkpt lat="42.3265397" lon="13.4319432"><ele>590.0</ele><time>2026-05-03T07:44:42.025Z</time></trkpt><trkpt lat="42.3264474" lon="13.4322017"><ele>590.0</ele><time>2026-05-03T07:44:43.025Z</time></trkpt><trkpt lat="42.3263573" lon="13.4324618"><ele>590.0</ele><time>2026-05-03T07:44:44.025Z</time></trkpt><trkpt lat="42.3262657" lon="13.4327175"><ele>590.0</ele><time>2026-05-03T07:44:45.025Z</time></trkpt><trkpt lat="42.3261749" lon="13.432973"><ele>590.0</ele><time>2026-05-03T07:44:46.025Z</time></trkpt><trkpt lat="42.326081" lon="13.4332268"><ele>590.0</ele><time>2026-05-03T07:44:47.025Z</time></trkpt><trkpt lat="42.3259841" lon="13.4334734"><ele>590.0</ele><time>2026-05-03T07:44:48.025Z</time></trkpt><trkpt lat="42.3258856" lon="13.4337263"><ele>590.0</ele><time>2026-05-03T07:44:49.025Z</time></trkpt><trkpt lat="42.3257893" lon="13.4339766"><ele>590.0</ele><time>2026-05-03T07:44:50.025Z</time></trkpt><trkpt lat="42.3256908" lon="13.4342237"><ele>589.6666666666666</ele><time>2026-05-03T07:44:51.025Z</time></trkpt><trkpt lat="42.3255953" lon="13.4344703"><ele>589.3333333333334</ele><time>2026-05-03T07:44:52.025Z</time></trkpt><trkpt lat="42.3255038" lon="13.4347178"><ele>589.0</ele><time>2026-05-03T07:44:53.025Z</time></trkpt><trkpt lat="42.3254092" lon="13.4349634"><ele>589.0</ele><time>2026-05-03T07:44:54.025Z</time></trkpt><trkpt lat="42.3253148" lon="13.4352126"><ele>589.0</ele><time>2026-05-03T07:44:55.025Z</time></trkpt><trkpt lat="42.3252317" lon="13.4354676"><ele>589.0</ele><time>2026-05-03T07:44:56.025Z</time></trkpt><trkpt lat="42.3251606" lon="13.43573"><ele>588.3333333333334</ele><time>2026-05-03T07:44:57.026Z</time></trkpt><trkpt lat="42.3250847" lon="13.4359942"><ele>587.6666666666666</ele><time>2026-05-03T07:44:58.025Z</time></trkpt><trkpt lat="42.3250092" lon="13.4362591"><ele>587.0</ele><time>2026-05-03T07:44:59.025Z</time></trkpt><trkpt lat="42.3249371" lon="13.4365237"><ele>586.6666666666666</ele><time>2026-05-03T07:45:00.025Z</time></trkpt><trkpt lat="42.3248638" lon="13.4367868"><ele>586.3333333333334</ele><time>2026-05-03T07:45:01.025Z</time></trkpt><trkpt lat="42.3247892" lon="13.4370535"><ele>586.0</ele><time>2026-05-03T07:45:02.025Z</time></trkpt><trkpt lat="42.3247141" lon="13.4373228"><ele>586.3333333333334</ele><time>2026-05-03T07:45:03.025Z</time></trkpt><trkpt lat="42.3246339" lon="13.4375956"><ele>586.6666666666666</ele><time>2026-05-03T07:45:04.025Z</time></trkpt><trkpt lat="42.3245574" lon="13.4378635"><ele>587.0</ele><time>2026-05-03T07:45:05.026Z</time></trkpt><trkpt lat="42.3244822" lon="13.4381344"><ele>587.0</ele><time>2026-05-03T07:45:06.025Z</time></trkpt><trkpt lat="42.3244059" lon="13.438409"><ele>587.0</ele><time>2026-05-03T07:45:07.025Z</time></trkpt><trkpt lat="42.3243367" lon="13.438682"><ele>587.0</ele><time>2026-05-03T07:45:08.025Z</time></trkpt><trkpt lat="42.3242689" lon="13.4389568"><ele>587.3333333333333</ele><time>2026-05-03T07:45:09.025Z</time></trkpt><trkpt lat="42.3242089" lon="13.4392413"><ele>587.6666666666666</ele><time>2026-05-03T07:45:10.025Z</time></trkpt><trkpt lat="42.3241536" lon="13.4395203"><ele>588.0</ele><time>2026-05-03T07:45:11.025Z</time></trkpt><trkpt lat="42.3241016" lon="13.4397865"><ele>588.0</ele><time>2026-05-03T07:45:12.025Z</time></trkpt><trkpt lat="42.3240513" lon="13.440036"><ele>588.0</ele><time>2026-05-03T07:45:13.025Z</time></trkpt><trkpt lat="42.3240004" lon="13.4402686"><ele>588.0</ele><time>2026-05-03T07:45:14.025Z</time></trkpt><trkpt lat="42.3239587" lon="13.4404831"><ele>587.75</ele><time>2026-05-03T07:45:15.025Z</time></trkpt><trkpt lat="42.3239165" lon="13.4406723"><ele>587.5</ele><time>2026-05-03T07:45:16.025Z</time></trkpt><trkpt lat="42.3238724" lon="13.4408605"><ele>587.25</ele><time>2026-05-03T07:45:17.025Z</time></trkpt><trkpt lat="42.323839" lon="13.4410303"><ele>587.0</ele><time>2026-05-03T07:45:18.026Z</time></trkpt><trkpt lat="42.3238114" lon="13.4411863"><ele>586.6666666666666</ele><time>2026-05-03T07:45:19.026Z</time></trkpt><trkpt lat="42.323786" lon="13.4413252"><ele>586.3333333333333</ele><time>2026-05-03T07:45:20.025Z</time></trkpt><trkpt lat="42.3237596" lon="13.4414399"><ele>586.0</ele><time>2026-05-03T07:45:21.025Z</time></trkpt><trkpt lat="42.323725" lon="13.4415457"><ele>585.6666666666666</ele><time>2026-05-03T07:45:22.025Z</time></trkpt><trkpt lat="42.3236733" lon="13.4416347"><ele>585.3333333333334</ele><time>2026-05-03T07:45:23.025Z</time></trkpt><trkpt lat="42.3236048" lon="13.441699"><ele>585.0</ele><time>2026-05-03T07:45:24.025Z</time></trkpt><trkpt lat="42.3235288" lon="13.4417515"><ele>585.0</ele><time>2026-05-03T07:45:25.025Z</time></trkpt><trkpt lat="42.32346" lon="13.4418162"><ele>585.0</ele><time>2026-05-03T07:45:26.025Z</time></trkpt><trkpt lat="42.3234122" lon="13.4418997"><ele>585.0</ele><time>2026-05-03T07:45:27.025Z</time></trkpt><trkpt lat="42.3233767" lon="13.4419988"><ele>585.0</ele><time>2026-05-03T07:45:28.025Z</time></trkpt><trkpt lat="42.3233744" lon="13.4421166"><ele>585.0</ele><time>2026-05-03T07:45:29.025Z</time></trkpt><trkpt lat="42.3233858" lon="13.442234"><ele>585.0</ele><time>2026-05-03T07:45:30.025Z</time></trkpt><trkpt lat="42.3234158" lon="13.4423622"><ele>585.0</ele><time>2026-05-03T07:45:31.025Z</time></trkpt><trkpt lat="42.3234509" lon="13.4424828"><ele>585.0</ele><time>2026-05-03T07:45:32.025Z</time></trkpt><trkpt lat="42.3235019" lon="13.4425883"><ele>585.0</ele><time>2026-05-03T07:45:33.025Z</time></trkpt><trkpt lat="42.323585" lon="13.4426508"><ele>585.0</ele><time>2026-05-03T07:45:34.025Z</time></trkpt><trkpt lat="42.3236622" lon="13.4426908"><ele>585.0</ele><time>2026-05-03T07:45:35.025Z</time></trkpt><trkpt lat="42.3237437" lon="13.4427403"><ele>585.0</ele><time>2026-05-03T07:45:36.025Z</time></trkpt><trkpt lat="42.323826" lon="13.4428163"><ele>585.0</ele><time>2026-05-03T07:45:37.025Z</time></trkpt><trkpt lat="42.3238974" lon="13.4429286"><ele>585.0</ele><time>2026-05-03T07:45:38.025Z</time></trkpt><trkpt lat="42.3239591" lon="13.443072"><ele>585.0</ele><time>2026-05-03T07:45:39.025Z</time></trkpt><trkpt lat="42.3240282" lon="13.4432311"><ele>586.3333333333334</ele><time>2026-05-03T07:45:40.025Z</time></trkpt><trkpt lat="42.3241004" lon="13.4433979"><ele>587.6666666666667</ele><time>2026-05-03T07:45:41.026Z</time></trkpt><trkpt lat="42.3241832" lon="13.4435822"><ele>589.0</ele><time>2026-05-03T07:45:42.025Z</time></trkpt><trkpt lat="42.3242746" lon="13.4437752"><ele>588.3333333333334</ele><time>2026-05-03T07:45:43.025Z</time></trkpt><trkpt lat="42.3243721" lon="13.4439763"><ele>587.6666666666666</ele><time>2026-05-03T07:45:44.025Z</time></trkpt><trkpt lat="42.3244737" lon="13.4441889"><ele>587.0</ele><time>2026-05-03T07:45:45.025Z</time></trkpt><trkpt lat="42.3245818" lon="13.4444025"><ele>587.0</ele><time>2026-05-03T07:45:46.025Z</time></trkpt><trkpt lat="42.3246846" lon="13.4446204"><ele>587.0</ele><time>2026-05-03T07:45:47.025Z</time></trkpt><trkpt lat="42.3247997" lon="13.4448452"><ele>587.0</ele><time>2026-05-03T07:45:48.026Z</time></trkpt><trkpt lat="42.3249255" lon="13.4450666"><ele>587.3333333333333</ele><time>2026-05-03T07:45:49.025Z</time></trkpt><trkpt lat="42.325059" lon="13.4452929"><ele>587.6666666666666</ele><time>2026-05-03T07:45:50.025Z</time></trkpt><trkpt lat="42.325192" lon="13.4455226"><ele>588.0</ele><time>2026-05-03T07:45:51.025Z</time></trkpt><trkpt lat="42.3253252" lon="13.4457573"><ele>588.3333333333334</ele><time>2026-05-03T07:45:52.025Z</time></trkpt><trkpt lat="42.3254669" lon="13.4459832"><ele>588.6666666666667</ele><time>2026-05-03T07:45:53.025Z</time></trkpt><trkpt lat="42.3256087" lon="13.4462107"><ele>589.0</ele><time>2026-05-03T07:45:54.025Z</time></trkpt><trkpt lat="42.3257524" lon="13.446443"><ele>587.5</ele><time>2026-05-03T07:45:55.026Z</time></trkpt><trkpt lat="42.3259158" lon="13.4466683"><ele>586.0</ele><time>2026-05-03T07:45:56.025Z</time></trkpt><trkpt lat="42.3260697" lon="13.4468906"><ele>586.0</ele><time>2026-05-03T07:45:57.025Z</time></trkpt><trkpt lat="42.3262263" lon="13.4471092"><ele>586.0</ele><time>2026-05-03T07:45:58.025Z</time></trkpt><trkpt lat="42.3263863" lon="13.4473229"><ele>586.3333333333334</ele><time>2026-05-03T07:45:59.025Z</time></trkpt><trkpt lat="42.3265462" lon="13.4475252"><ele>586.6666666666666</ele><time>2026-05-03T07:46:00.025Z</time></trkpt><trkpt lat="42.3267094" lon="13.4477283"><ele>587.0</ele><time>2026-05-03T07:46:01.025Z</time></trkpt><trkpt lat="42.3268714" lon="13.4479222"><ele>587.3333333333333</ele><time>2026-05-03T07:46:02.025Z</time></trkpt><trkpt lat="42.3270222" lon="13.4480945"><ele>587.6666666666666</ele><time>2026-05-03T07:46:03.025Z</time></trkpt><trkpt lat="42.3271526" lon="13.4482464"><ele>588.0</ele><time>2026-05-03T07:46:04.025Z</time></trkpt><trkpt lat="42.3272549" lon="13.4483776"><ele>588.0</ele><time>2026-05-03T07:46:05.025Z</time></trkpt><trkpt lat="42.3273765" lon="13.4485089"><ele>588.0</ele><time>2026-05-03T07:46:06.025Z</time></trkpt><trkpt lat="42.3274984" lon="13.4486399"><ele>588.0</ele><time>2026-05-03T07:46:07.025Z</time></trkpt><trkpt lat="42.3276305" lon="13.4487758"><ele>587.6666666666666</ele><time>2026-05-03T07:46:08.025Z</time></trkpt><trkpt lat="42.327763" lon="13.4489285"><ele>587.3333333333333</ele><time>2026-05-03T07:46:09.026Z</time></trkpt><trkpt lat="42.3278944" lon="13.4490894"><ele>587.0</ele><time>2026-05-03T07:46:10.025Z</time></trkpt><trkpt lat="42.3280401" lon="13.4492499"><ele>586.6666666666666</ele><time>2026-05-03T07:46:11.025Z</time></trkpt><trkpt lat="42.3281946" lon="13.4494263"><ele>586.3333333333334</ele><time>2026-05-03T07:46:12.025Z</time></trkpt><trkpt lat="42.3283571" lon="13.4496055"><ele>586.0</ele><time>2026-05-03T07:46:13.025Z</time></trkpt><trkpt lat="42.328515" lon="13.4497943"><ele>586.0</ele><time>2026-05-03T07:46:14.025Z</time></trkpt><trkpt lat="42.3286691" lon="13.4499792"><ele>586.0</ele><time>2026-05-03T07:46:15.025Z</time></trkpt><trkpt lat="42.3288452" lon="13.4501705"><ele>586.0</ele><time>2026-05-03T07:46:16.025Z</time></trkpt><trkpt lat="42.3290128" lon="13.4503654"><ele>586.5</ele><time>2026-05-03T07:46:17.025Z</time></trkpt><trkpt lat="42.3291891" lon="13.4505676"><ele>587.0</ele><time>2026-05-03T07:46:18.025Z</time></trkpt><trkpt lat="42.3293684" lon="13.4507688"><ele>587.0</ele><time>2026-05-03T07:46:19.025Z</time></trkpt><trkpt lat="42.3295438" lon="13.4509746"><ele>587.0</ele><time>2026-05-03T07:46:20.025Z</time></trkpt><trkpt lat="42.3297184" lon="13.4511769"><ele>586.3333333333333</ele><time>2026-05-03T07:46:21.025Z</time></trkpt><trkpt lat="42.3298784" lon="13.4513616"><ele>585.6666666666666</ele><time>2026-05-03T07:46:22.025Z</time></trkpt><trkpt lat="42.3300343" lon="13.4515354"><ele>585.0</ele><time>2026-05-03T07:46:23.025Z</time></trkpt><trkpt lat="42.3301784" lon="13.4516964"><ele>585.0</ele><time>2026-05-03T07:46:24.025Z</time></trkpt><trkpt lat="42.3302732" lon="13.4518214"><ele>585.0</ele><time>2026-05-03T07:46:25.026Z</time></trkpt><trkpt lat="42.3303738" lon="13.4519522"><ele>585.0</ele><time>2026-05-03T07:46:26.025Z</time></trkpt><trkpt lat="42.3304886" lon="13.4520726"><ele>585.0</ele><time>2026-05-03T07:46:27.025Z</time></trkpt><trkpt lat="42.330594" lon="13.4521878"><ele>585.0</ele><time>2026-05-03T07:46:28.025Z</time></trkpt><trkpt lat="42.3306964" lon="13.4523075"><ele>585.0</ele><time>2026-05-03T07:46:29.025Z</time></trkpt><trkpt lat="42.3307841" lon="13.4524111"><ele>585.0</ele><time>2026-05-03T07:46:30.026Z</time></trkpt><trkpt lat="42.3308464" lon="13.4525187"><ele>585.0</ele><time>2026-05-03T07:46:31.026Z</time></trkpt><trkpt lat="42.3309053" lon="13.4526274"><ele>585.0</ele><time>2026-05-03T07:46:32.025Z</time></trkpt><trkpt lat="42.3309485" lon="13.4527403"><ele>585.0</ele><time>2026-05-03T07:46:33.025Z</time></trkpt><trkpt lat="42.3309825" lon="13.4528389"><ele>585.0</ele><time>2026-05-03T07:46:34.025Z</time></trkpt><trkpt lat="42.3310287" lon="13.4529209"><ele>585.0</ele><time>2026-05-03T07:46:35.025Z</time></trkpt><trkpt lat="42.3310887" lon="13.4529877"><ele>585.0</ele><time>2026-05-03T07:46:36.025Z</time></trkpt><trkpt lat="42.3311649" lon="13.4530401"><ele>585.0</ele><time>2026-05-03T07:46:37.025Z</time></trkpt><trkpt lat="42.3312478" lon="13.4530718"><ele>585.0</ele><time>2026-05-03T07:46:38.025Z</time></trkpt><trkpt lat="42.3313554" lon="13.4531218"><ele>585.0</ele><time>2026-05-03T07:46:39.026Z</time></trkpt><trkpt lat="42.3314671" lon="13.4531921"><ele>585.0</ele><time>2026-05-03T07:46:40.025Z</time></trkpt><trkpt lat="42.3315736" lon="13.4532925"><ele>585.0</ele><time>2026-05-03T07:46:41.025Z</time></trkpt><trkpt lat="42.3316907" lon="13.4534136"><ele>585.0</ele><time>2026-05-03T07:46:42.025Z</time></trkpt><trkpt lat="42.3318146" lon="13.4535442"><ele>585.0</ele><time>2026-05-03T07:46:43.025Z</time></trkpt><trkpt lat="42.3319434" lon="13.4536868"><ele>585.0</ele><time>2026-05-03T07:46:44.025Z</time></trkpt><trkpt lat="42.3320863" lon="13.4538356"><ele>585.3333333333334</ele><time>2026-05-03T07:46:45.025Z</time></trkpt><trkpt lat="42.3322408" lon="13.4539909"><ele>585.6666666666667</ele><time>2026-05-03T07:46:46.025Z</time></trkpt><trkpt lat="42.3323974" lon="13.4541533"><ele>586.0</ele><time>2026-05-03T07:46:47.025Z</time></trkpt><trkpt lat="42.3325654" lon="13.4543224"><ele>586.0</ele><time>2026-05-03T07:46:48.025Z</time></trkpt><trkpt lat="42.3327439" lon="13.4544888"><ele>586.0</ele><time>2026-05-03T07:46:49.025Z</time></trkpt><trkpt lat="42.3329296" lon="13.4546571"><ele>586.0</ele><time>2026-05-03T07:46:50.025Z</time></trkpt><trkpt lat="42.33312" lon="13.4548195"><ele>586.0</ele><time>2026-05-03T07:46:51.025Z</time></trkpt><trkpt lat="42.3333159" lon="13.4549837"><ele>586.0</ele><time>2026-05-03T07:46:52.025Z</time></trkpt><trkpt lat="42.3334982" lon="13.455135"><ele>586.0</ele><time>2026-05-03T07:46:53.025Z</time></trkpt><trkpt lat="42.3336698" lon="13.4552784"><ele>586.0</ele><time>2026-05-03T07:46:54.026Z</time></trkpt><trkpt lat="42.3338365" lon="13.4554108"><ele>586.0</ele><time>2026-05-03T07:46:55.025Z</time></trkpt><trkpt lat="42.3339954" lon="13.4555465"><ele>586.0</ele><time>2026-05-03T07:46:56.025Z</time></trkpt><trkpt lat="42.3341505" lon="13.4556618"><ele>587.3333333333334</ele><time>2026-05-03T07:46:57.025Z</time></trkpt><trkpt lat="42.3342963" lon="13.455774"><ele>588.6666666666666</ele><time>2026-05-03T07:46:58.025Z</time></trkpt><trkpt lat="42.334437" lon="13.4558726"><ele>590.0</ele><time>2026-05-03T07:46:59.026Z</time></trkpt><trkpt lat="42.3345654" lon="13.4559622"><ele>590.0</ele><time>2026-05-03T07:47:00.025Z</time></trkpt><trkpt lat="42.3346787" lon="13.4560274"><ele>590.0</ele><time>2026-05-03T07:47:01.025Z</time></trkpt><trkpt lat="42.3347855" lon="13.4560753"><ele>590.0</ele><time>2026-05-03T07:47:02.025Z</time></trkpt><trkpt lat="42.3348882" lon="13.4561039"><ele>590.0</ele><time>2026-05-03T07:47:03.025Z</time></trkpt><trkpt lat="42.3349879" lon="13.4560862"><ele>590.0</ele><time>2026-05-03T07:47:04.025Z</time></trkpt><trkpt lat="42.3350972" lon="13.4560671"><ele>590.0</ele><time>2026-05-03T07:47:05.025Z</time></trkpt><trkpt lat="42.3352143" lon="13.4560393"><ele>590.0</ele><time>2026-05-03T07:47:06.025Z</time></trkpt><trkpt lat="42.3353402" lon="13.4559991"><ele>590.0</ele><time>2026-05-03T07:47:07.025Z</time></trkpt><trkpt lat="42.3354725" lon="13.4559578"><ele>590.0</ele><time>2026-05-03T07:47:08.025Z</time></trkpt><trkpt lat="42.3356005" lon="13.4559389"><ele>590.4</ele><time>2026-05-03T07:47:09.025Z</time></trkpt><trkpt lat="42.3357224" lon="13.4559423"><ele>590.8</ele><time>2026-05-03T07:47:10.025Z</time></trkpt><trkpt lat="42.3358264" lon="13.4559727"><ele>591.2</ele><time>2026-05-03T07:47:11.025Z</time></trkpt><trkpt lat="42.3359136" lon="13.4559952"><ele>591.6</ele><time>2026-05-03T07:47:12.025Z</time></trkpt><trkpt lat="42.3360014" lon="13.4560131"><ele>592.0</ele><time>2026-05-03T07:47:13.025Z</time></trkpt><trkpt lat="42.3360898" lon="13.4560343"><ele>592.0</ele><time>2026-05-03T07:47:14.025Z</time></trkpt><trkpt lat="42.3361798" lon="13.4560543"><ele>592.0</ele><time>2026-05-03T07:47:15.025Z</time></trkpt><trkpt lat="42.3362784" lon="13.4560757"><ele>592.0</ele><time>2026-05-03T07:47:16.025Z</time></trkpt><trkpt lat="42.3363849" lon="13.4560982"><ele>592.0</ele><time>2026-05-03T07:47:17.025Z</time></trkpt><trkpt lat="42.3364934" lon="13.4561219"><ele>592.0</ele><time>2026-05-03T07:47:18.025Z</time></trkpt><trkpt lat="42.3365955" lon="13.4561465"><ele>592.5</ele><time>2026-05-03T07:47:19.026Z</time></trkpt><trkpt lat="42.3366814" lon="13.4561567"><ele>593.0</ele><time>2026-05-03T07:47:20.025Z</time></trkpt><trkpt lat="42.3367531" lon="13.4561889"><ele>593.5</ele><time>2026-05-03T07:47:21.025Z</time></trkpt><trkpt lat="42.3367909" lon="13.4562668"><ele>594.0</ele><time>2026-05-03T07:47:22.025Z</time></trkpt><trkpt lat="42.3368339" lon="13.4564314"><ele>594.5</ele><time>2026-05-03T07:47:24.025Z</time></trkpt><trkpt lat="42.3368251" lon="13.4565375"><ele>595.0</ele><time>2026-05-03T07:47:25.025Z</time></trkpt><trkpt lat="42.336808" lon="13.4566555"><ele>595.0</ele><time>2026-05-03T07:47:26.025Z</time></trkpt><trkpt lat="42.3367879" lon="13.4567865"><ele>595.0</ele><time>2026-05-03T07:47:27.025Z</time></trkpt><trkpt lat="42.3367766" lon="13.4569076"><ele>595.0</ele><time>2026-05-03T07:47:28.025Z</time></trkpt><trkpt lat="42.3367701" lon="13.4569981"><ele>595.0</ele><time>2026-05-03T07:47:29.025Z</time></trkpt><trkpt lat="42.3367792" lon="13.4570879"><ele>595.0</ele><time>2026-05-03T07:47:30.025Z</time></trkpt><trkpt lat="42.3367881" lon="13.4571728"><ele>595.0</ele><time>2026-05-03T07:47:31.025Z</time></trkpt><trkpt lat="42.3368382" lon="13.4572774"><ele>595.2</ele><time>2026-05-03T07:47:33.025Z</time></trkpt><trkpt lat="42.3368831" lon="13.4574131"><ele>595.4</ele><time>2026-05-03T07:47:35.026Z</time></trkpt><trkpt lat="42.3369011" lon="13.4575044"><ele>595.6</ele><time>2026-05-03T07:47:36.025Z</time></trkpt><trkpt lat="42.3369244" lon="13.4576087"><ele>595.8</ele><time>2026-05-03T07:47:37.026Z</time></trkpt><trkpt lat="42.3369417" lon="13.4577309"><ele>596.0</ele><time>2026-05-03T07:47:38.025Z</time></trkpt><trkpt lat="42.3369396" lon="13.4578658"><ele>595.75</ele><time>2026-05-03T07:47:39.025Z</time></trkpt><trkpt lat="42.3369136" lon="13.4579982"><ele>595.5</ele><time>2026-05-03T07:47:40.025Z</time></trkpt><trkpt lat="42.3368758" lon="13.458147"><ele>595.25</ele><time>2026-05-03T07:47:41.025Z</time></trkpt><trkpt lat="42.3368285" lon="13.4583062"><ele>595.0</ele><time>2026-05-03T07:47:42.026Z</time></trkpt><trkpt lat="42.3367688" lon="13.4584813"><ele>595.0</ele><time>2026-05-03T07:47:43.025Z</time></trkpt><trkpt lat="42.3367163" lon="13.4586708"><ele>595.0</ele><time>2026-05-03T07:47:44.025Z</time></trkpt><trkpt lat="42.3366622" lon="13.4588698"><ele>595.0</ele><time>2026-05-03T07:47:45.025Z</time></trkpt><trkpt lat="42.3366059" lon="13.4590759"><ele>595.0</ele><time>2026-05-03T07:47:46.025Z</time></trkpt><trkpt lat="42.3365484" lon="13.45929"><ele>595.0</ele><time>2026-05-03T07:47:47.026Z</time></trkpt><trkpt lat="42.3364863" lon="13.4595154"><ele>595.0</ele><time>2026-05-03T07:47:48.025Z</time></trkpt><trkpt lat="42.3364241" lon="13.4597484"><ele>594.6666666666667</ele><time>2026-05-03T07:47:49.025Z</time></trkpt><trkpt lat="42.3363582" lon="13.4599779"><ele>594.3333333333334</ele><time>2026-05-03T07:47:50.025Z</time></trkpt><trkpt lat="42.3362913" lon="13.460219"><ele>594.0</ele><time>2026-05-03T07:47:51.025Z</time></trkpt><trkpt lat="42.3362244" lon="13.4604602"><ele>594.0</ele><time>2026-05-03T07:47:52.025Z</time></trkpt><trkpt lat="42.3361608" lon="13.4606893"><ele>594.0</ele><time>2026-05-03T07:47:53.025Z</time></trkpt><trkpt lat="42.3360933" lon="13.4609102"><ele>594.0</ele><time>2026-05-03T07:47:54.025Z</time></trkpt><trkpt lat="42.3360316" lon="13.4611251"><ele>594.0</ele><time>2026-05-03T07:47:55.025Z</time></trkpt><trkpt lat="42.335976" lon="13.4613307"><ele>594.0</ele><time>2026-05-03T07:47:56.025Z</time></trkpt><trkpt lat="42.3359181" lon="13.461537"><ele>594.0</ele><time>2026-05-03T07:47:57.025Z</time></trkpt><trkpt lat="42.3358599" lon="13.4617473"><ele>594.0</ele><time>2026-05-03T07:47:58.025Z</time></trkpt><trkpt lat="42.3357993" lon="13.4619546"><ele>594.0</ele><time>2026-05-03T07:47:59.025Z</time></trkpt><trkpt lat="42.3357389" lon="13.4621623"><ele>594.0</ele><time>2026-05-03T07:48:00.025Z</time></trkpt><trkpt lat="42.3356803" lon="13.4623728"><ele>594.0</ele><time>2026-05-03T07:48:01.026Z</time></trkpt><trkpt lat="42.335624" lon="13.4625815"><ele>594.0</ele><time>2026-05-03T07:48:02.025Z</time></trkpt><trkpt lat="42.3355686" lon="13.4627925"><ele>594.0</ele><time>2026-05-03T07:48:03.025Z</time></trkpt><trkpt lat="42.3355129" lon="13.4629986"><ele>594.0</ele><time>2026-05-03T07:48:04.025Z</time></trkpt><trkpt lat="42.335456" lon="13.4631977"><ele>594.0</ele><time>2026-05-03T07:48:05.025Z</time></trkpt><trkpt lat="42.3354071" lon="13.4633844"><ele>594.0</ele><time>2026-05-03T07:48:06.026Z</time></trkpt><trkpt lat="42.3353579" lon="13.4635588"><ele>594.0</ele><time>2026-05-03T07:48:07.025Z</time></trkpt><trkpt lat="42.3353091" lon="13.4637345"><ele>594.25</ele><time>2026-05-03T07:48:08.025Z</time></trkpt><trkpt lat="42.3352666" lon="13.4638974"><ele>594.5</ele><time>2026-05-03T07:48:09.025Z</time></trkpt><trkpt lat="42.3352245" lon="13.4640614"><ele>594.75</ele><time>2026-05-03T07:48:10.025Z</time></trkpt><trkpt lat="42.3351791" lon="13.4642162"><ele>595.0</ele><time>2026-05-03T07:48:11.025Z</time></trkpt><trkpt lat="42.3351373" lon="13.4643714"><ele>595.0</ele><time>2026-05-03T07:48:12.025Z</time></trkpt><trkpt lat="42.3350948" lon="13.4645226"><ele>595.0</ele><time>2026-05-03T07:48:13.025Z</time></trkpt><trkpt lat="42.3350532" lon="13.4646778"><ele>595.0</ele><time>2026-05-03T07:48:14.025Z</time></trkpt><trkpt lat="42.3350128" lon="13.4648334"><ele>595.0</ele><time>2026-05-03T07:48:15.025Z</time></trkpt><trkpt lat="42.3349768" lon="13.4649767"><ele>594.75</ele><time>2026-05-03T07:48:16.025Z</time></trkpt><trkpt lat="42.3349338" lon="13.4651243"><ele>594.5</ele><time>2026-05-03T07:48:17.025Z</time></trkpt><trkpt lat="42.3348898" lon="13.4652702"><ele>594.25</ele><time>2026-05-03T07:48:18.025Z</time></trkpt><trkpt lat="42.3348453" lon="13.4654175"><ele>594.0</ele><time>2026-05-03T07:48:19.026Z</time></trkpt><trkpt lat="42.3348039" lon="13.465562"><ele>594.0</ele><time>2026-05-03T07:48:20.025Z</time></trkpt><trkpt lat="42.3347696" lon="13.4656861"><ele>594.0</ele><time>2026-05-03T07:48:21.025Z</time></trkpt><trkpt lat="42.3347397" lon="13.4658056"><ele>594.0</ele><time>2026-05-03T07:48:22.025Z</time></trkpt><trkpt lat="42.3347077" lon="13.4659252"><ele>594.0</ele><time>2026-05-03T07:48:23.025Z</time></trkpt><trkpt lat="42.3346725" lon="13.466053"><ele>594.0</ele><time>2026-05-03T07:48:24.025Z</time></trkpt><trkpt lat="42.3346379" lon="13.4661872"><ele>593.5</ele><time>2026-05-03T07:48:25.025Z</time></trkpt><trkpt lat="42.3346026" lon="13.4663205"><ele>593.0</ele><time>2026-05-03T07:48:26.025Z</time></trkpt><trkpt lat="42.3345593" lon="13.4664727"><ele>592.5</ele><time>2026-05-03T07:48:27.025Z</time></trkpt><trkpt lat="42.3345129" lon="13.4666322"><ele>592.0</ele><time>2026-05-03T07:48:28.025Z</time></trkpt><trkpt lat="42.3344671" lon="13.4667944"><ele>592.0</ele><time>2026-05-03T07:48:29.025Z</time></trkpt><trkpt lat="42.3344219" lon="13.4669563"><ele>592.0</ele><time>2026-05-03T07:48:30.026Z</time></trkpt><trkpt lat="42.3343779" lon="13.4671061"><ele>592.0</ele><time>2026-05-03T07:48:31.025Z</time></trkpt><trkpt lat="42.3343379" lon="13.4672487"><ele>592.0</ele><time>2026-05-03T07:48:32.025Z</time></trkpt><trkpt lat="42.3342992" lon="13.4673899"><ele>591.8000000000001</ele><time>2026-05-03T07:48:33.025Z</time></trkpt><trkpt lat="42.3342597" lon="13.4675302"><ele>591.6</ele><time>2026-05-03T07:48:34.025Z</time></trkpt><trkpt lat="42.3342168" lon="13.4676634"><ele>591.4000000000001</ele><time>2026-05-03T07:48:35.025Z</time></trkpt><trkpt lat="42.3341779" lon="13.4678068"><ele>591.2</ele><time>2026-05-03T07:48:36.025Z</time></trkpt><trkpt lat="42.3341389" lon="13.4679543"><ele>591.0</ele><time>2026-05-03T07:48:37.026Z</time></trkpt><trkpt lat="42.3340946" lon="13.4681033"><ele>591.5</ele><time>2026-05-03T07:48:38.025Z</time></trkpt><trkpt lat="42.3340495" lon="13.4682587"><ele>592.0</ele><time>2026-05-03T07:48:39.025Z</time></trkpt><trkpt lat="42.3340076" lon="13.4684132"><ele>592.5</ele><time>2026-05-03T07:48:40.025Z</time></trkpt><trkpt lat="42.3339666" lon="13.4685724"><ele>593.0</ele><time>2026-05-03T07:48:41.025Z</time></trkpt><trkpt lat="42.3339163" lon="13.4687421"><ele>592.5</ele><time>2026-05-03T07:48:42.025Z</time></trkpt><trkpt lat="42.3338712" lon="13.4689091"><ele>592.0</ele><time>2026-05-03T07:48:43.025Z</time></trkpt><trkpt lat="42.3338307" lon="13.4690742"><ele>591.5</ele><time>2026-05-03T07:48:44.025Z</time></trkpt><trkpt lat="42.3337854" lon="13.4692378"><ele>591.0</ele><time>2026-05-03T07:48:45.025Z</time></trkpt><trkpt lat="42.3337417" lon="13.4693919"><ele>591.0</ele><time>2026-05-03T07:48:46.025Z</time></trkpt><trkpt lat="42.3336964" lon="13.4695379"><ele>591.0</ele><time>2026-05-03T07:48:47.025Z</time></trkpt><trkpt lat="42.3336543" lon="13.4696869"><ele>591.0</ele><time>2026-05-03T07:48:48.025Z</time></trkpt><trkpt lat="42.3336152" lon="13.4698398"><ele>591.0</ele><time>2026-05-03T07:48:49.025Z</time></trkpt><trkpt lat="42.3335783" lon="13.4699921"><ele>591.0</ele><time>2026-05-03T07:48:50.025Z</time></trkpt><trkpt lat="42.3335448" lon="13.4701353"><ele>591.0</ele><time>2026-05-03T07:48:51.025Z</time></trkpt><trkpt lat="42.3335193" lon="13.470267"><ele>591.0</ele><time>2026-05-03T07:48:52.025Z</time></trkpt><trkpt lat="42.3335017" lon="13.470388"><ele>591.0</ele><time>2026-05-03T07:48:53.025Z</time></trkpt><trkpt lat="42.3334791" lon="13.4704962"><ele>591.0</ele><time>2026-05-03T07:48:54.025Z</time></trkpt><trkpt lat="42.3334616" lon="13.470604"><ele>591.2</ele><time>2026-05-03T07:48:55.026Z</time></trkpt><trkpt lat="42.3334395" lon="13.4707143"><ele>591.4000000000001</ele><time>2026-05-03T07:48:56.025Z</time></trkpt><trkpt lat="42.3334058" lon="13.470827"><ele>591.6</ele><time>2026-05-03T07:48:57.025Z</time></trkpt><trkpt lat="42.3333731" lon="13.4709445"><ele>591.8000000000001</ele><time>2026-05-03T07:48:58.025Z</time></trkpt><trkpt lat="42.3333426" lon="13.4710732"><ele>592.0</ele><time>2026-05-03T07:48:59.025Z</time></trkpt><trkpt lat="42.3333146" lon="13.4712002"><ele>592.4</ele><time>2026-05-03T07:49:00.025Z</time></trkpt><trkpt lat="42.3332813" lon="13.4713322"><ele>592.8000000000001</ele><time>2026-05-03T07:49:01.025Z</time></trkpt><trkpt lat="42.3332397" lon="13.4714585"><ele>593.2</ele><time>2026-05-03T07:49:02.025Z</time></trkpt><trkpt lat="42.3331951" lon="13.4715862"><ele>593.6</ele><time>2026-05-03T07:49:03.025Z</time></trkpt><trkpt lat="42.3331497" lon="13.4717149"><ele>594.0</ele><time>2026-05-03T07:49:04.025Z</time></trkpt><trkpt lat="42.3331039" lon="13.4718537"><ele>594.0</ele><time>2026-05-03T07:49:05.025Z</time></trkpt><trkpt lat="42.3330655" lon="13.4719973"><ele>594.0</ele><time>2026-05-03T07:49:06.025Z</time></trkpt><trkpt lat="42.3330234" lon="13.4721521"><ele>594.0</ele><time>2026-05-03T07:49:07.025Z</time></trkpt><trkpt lat="42.332983" lon="13.4723046"><ele>594.0</ele><time>2026-05-03T07:49:08.025Z</time></trkpt><trkpt lat="42.3329368" lon="13.4724636"><ele>593.75</ele><time>2026-05-03T07:49:09.025Z</time></trkpt><trkpt lat="42.3328914" lon="13.4726261"><ele>593.5</ele><time>2026-05-03T07:49:10.025Z</time></trkpt><trkpt lat="42.3328497" lon="13.4727875"><ele>593.25</ele><time>2026-05-03T07:49:11.025Z</time></trkpt><trkpt lat="42.332805" lon="13.4729472"><ele>593.0</ele><time>2026-05-03T07:49:12.025Z</time></trkpt><trkpt lat="42.3327679" lon="13.4731061"><ele>593.0</ele><time>2026-05-03T07:49:13.025Z</time></trkpt><trkpt lat="42.3327271" lon="13.4732601"><ele>593.0</ele><time>2026-05-03T07:49:14.025Z</time></trkpt><trkpt lat="42.3326928" lon="13.4734151"><ele>593.0</ele><time>2026-05-03T07:49:15.025Z</time></trkpt><trkpt lat="42.3326547" lon="13.4735687"><ele>593.0</ele><time>2026-05-03T07:49:16.026Z</time></trkpt><trkpt lat="42.3326094" lon="13.4737316"><ele>593.25</ele><time>2026-05-03T07:49:17.025Z</time></trkpt><trkpt lat="42.3325622" lon="13.4738966"><ele>593.5</ele><time>2026-05-03T07:49:18.025Z</time></trkpt><trkpt lat="42.3325167" lon="13.4740661"><ele>593.75</ele><time>2026-05-03T07:49:19.025Z</time></trkpt><trkpt lat="42.3324688" lon="13.4742328"><ele>594.0</ele><time>2026-05-03T07:49:20.025Z</time></trkpt><trkpt lat="42.3324225" lon="13.4744094"><ele>594.0</ele><time>2026-05-03T07:49:21.025Z</time></trkpt><trkpt lat="42.3323781" lon="13.4745874"><ele>594.0</ele><time>2026-05-03T07:49:22.025Z</time></trkpt><trkpt lat="42.3323328" lon="13.474768"><ele>594.0</ele><time>2026-05-03T07:49:23.025Z</time></trkpt><trkpt lat="42.3322853" lon="13.4749479"><ele>594.0</ele><time>2026-05-03T07:49:24.025Z</time></trkpt><trkpt lat="42.3322359" lon="13.475134"><ele>593.3333333333334</ele><time>2026-05-03T07:49:25.025Z</time></trkpt><trkpt lat="42.3321859" lon="13.4753255"><ele>592.6666666666667</ele><time>2026-05-03T07:49:26.025Z</time></trkpt><trkpt lat="42.3321377" lon="13.4755156"><ele>592.0</ele><time>2026-05-03T07:49:27.025Z</time></trkpt><trkpt lat="42.3320888" lon="13.4757103"><ele>592.0</ele><time>2026-05-03T07:49:28.025Z</time></trkpt><trkpt lat="42.3320364" lon="13.4759062"><ele>592.0</ele><time>2026-05-03T07:49:29.025Z</time></trkpt><trkpt lat="42.3319834" lon="13.4761067"><ele>592.0</ele><time>2026-05-03T07:49:30.025Z</time></trkpt><trkpt lat="42.3319296" lon="13.4763095"><ele>592.0</ele><time>2026-05-03T07:49:31.026Z</time></trkpt><trkpt lat="42.3318752" lon="13.4765138"><ele>592.0</ele><time>2026-05-03T07:49:32.025Z</time></trkpt><trkpt lat="42.3318189" lon="13.4767131"><ele>592.0</ele><time>2026-05-03T07:49:33.025Z</time></trkpt><trkpt lat="42.3317649" lon="13.4769068"><ele>592.0</ele><time>2026-05-03T07:49:34.025Z</time></trkpt><trkpt lat="42.3317134" lon="13.477093"><ele>592.0</ele><time>2026-05-03T07:49:35.025Z</time></trkpt><trkpt lat="42.3316635" lon="13.4772705"><ele>592.0</ele><time>2026-05-03T07:49:36.025Z</time></trkpt><trkpt lat="42.3316121" lon="13.4774441"><ele>592.0</ele><time>2026-05-03T07:49:37.026Z</time></trkpt><trkpt lat="42.331561" lon="13.4776154"><ele>592.0</ele><time>2026-05-03T07:49:38.025Z</time></trkpt><trkpt lat="42.331514" lon="13.4777772"><ele>592.0</ele><time>2026-05-03T07:49:39.025Z</time></trkpt><trkpt lat="42.3314688" lon="13.4779305"><ele>592.0</ele><time>2026-05-03T07:49:40.025Z</time></trkpt><trkpt lat="42.3314253" lon="13.4780795"><ele>592.0</ele><time>2026-05-03T07:49:41.025Z</time></trkpt><trkpt lat="42.3313816" lon="13.4782207"><ele>591.5</ele><time>2026-05-03T07:49:42.026Z</time></trkpt><trkpt lat="42.3313414" lon="13.4783515"><ele>591.0</ele><time>2026-05-03T07:49:43.025Z</time></trkpt><trkpt lat="42.3313062" lon="13.4784743"><ele>590.5</ele><time>2026-05-03T07:49:44.025Z</time></trkpt><trkpt lat="42.3312723" lon="13.4785845"><ele>590.0</ele><time>2026-05-03T07:49:45.025Z</time></trkpt><trkpt lat="42.3312322" lon="13.4786751"><ele>589.5</ele><time>2026-05-03T07:49:46.025Z</time></trkpt><trkpt lat="42.3311847" lon="13.4787488"><ele>589.0</ele><time>2026-05-03T07:49:47.025Z</time></trkpt><trkpt lat="42.3311326" lon="13.4788088"><ele>589.0</ele><time>2026-05-03T07:49:48.025Z</time></trkpt><trkpt lat="42.33109" lon="13.4788757"><ele>589.0</ele><time>2026-05-03T07:49:49.025Z</time></trkpt><trkpt lat="42.3310694" lon="13.4789642"><ele>589.0</ele><time>2026-05-03T07:49:50.025Z</time></trkpt><trkpt lat="42.3310727" lon="13.4790714"><ele>589.0</ele><time>2026-05-03T07:49:51.025Z</time></trkpt><trkpt lat="42.3310767" lon="13.4791899"><ele>589.0</ele><time>2026-05-03T07:49:52.025Z</time></trkpt><trkpt lat="42.3310524" lon="13.4793249"><ele>589.0</ele><time>2026-05-03T07:49:53.026Z</time></trkpt><trkpt lat="42.3310096" lon="13.4794755"><ele>588.75</ele><time>2026-05-03T07:49:54.025Z</time></trkpt><trkpt lat="42.3309588" lon="13.4796404"><ele>588.5</ele><time>2026-05-03T07:49:55.025Z</time></trkpt><trkpt lat="42.3309061" lon="13.479818"><ele>588.25</ele><time>2026-05-03T07:49:56.025Z</time></trkpt><trkpt lat="42.3308504" lon="13.4800034"><ele>588.0</ele><time>2026-05-03T07:49:57.026Z</time></trkpt><trkpt lat="42.3307926" lon="13.4801943"><ele>588.0</ele><time>2026-05-03T07:49:58.025Z</time></trkpt><trkpt lat="42.330738" lon="13.4803837"><ele>588.0</ele><time>2026-05-03T07:49:59.025Z</time></trkpt><trkpt lat="42.3306843" lon="13.4805563"><ele>588.0</ele><time>2026-05-03T07:50:00.025Z</time></trkpt><trkpt lat="42.330631" lon="13.480736"><ele>588.0</ele><time>2026-05-03T07:50:01.025Z</time></trkpt><trkpt lat="42.330578" lon="13.4809097"><ele>587.25</ele><time>2026-05-03T07:50:02.025Z</time></trkpt><trkpt lat="42.3305253" lon="13.4810879"><ele>586.5</ele><time>2026-05-03T07:50:03.025Z</time></trkpt><trkpt lat="42.3304714" lon="13.4812692"><ele>585.75</ele><time>2026-05-03T07:50:04.025Z</time></trkpt><trkpt lat="42.3304153" lon="13.481456"><ele>585.0</ele><time>2026-05-03T07:50:05.026Z</time></trkpt><trkpt lat="42.3303601" lon="13.4816463"><ele>584.3333333333334</ele><time>2026-05-03T07:50:06.025Z</time></trkpt><trkpt lat="42.3303036" lon="13.4818373"><ele>583.6666666666667</ele><time>2026-05-03T07:50:07.025Z</time></trkpt><trkpt lat="42.3302457" lon="13.4820335"><ele>583.0</ele><time>2026-05-03T07:50:08.025Z</time></trkpt><trkpt lat="42.3301857" lon="13.4822379"><ele>583.0</ele><time>2026-05-03T07:50:09.026Z</time></trkpt><trkpt lat="42.3301184" lon="13.4824374"><ele>583.0</ele><time>2026-05-03T07:50:10.025Z</time></trkpt><trkpt lat="42.3300533" lon="13.4826452"><ele>583.0</ele><time>2026-05-03T07:50:11.025Z</time></trkpt><trkpt lat="42.3299887" lon="13.4828566"><ele>583.0</ele><time>2026-05-03T07:50:12.025Z</time></trkpt><trkpt lat="42.3299247" lon="13.4830667"><ele>583.0</ele><time>2026-05-03T07:50:13.025Z</time></trkpt><trkpt lat="42.3298627" lon="13.4832805"><ele>583.0</ele><time>2026-05-03T07:50:14.025Z</time></trkpt><trkpt lat="42.3297973" lon="13.4834966"><ele>583.0</ele><time>2026-05-03T07:50:15.025Z</time></trkpt><trkpt lat="42.3297346" lon="13.4837168"><ele>583.0</ele><time>2026-05-03T07:50:16.025Z</time></trkpt><trkpt lat="42.3296715" lon="13.4839322"><ele>583.0</ele><time>2026-05-03T07:50:17.025Z</time></trkpt><trkpt lat="42.3296116" lon="13.48414"><ele>582.3333333333334</ele><time>2026-05-03T07:50:18.025Z</time></trkpt><trkpt lat="42.3295465" lon="13.4843578"><ele>581.6666666666666</ele><time>2026-05-03T07:50:19.025Z</time></trkpt><trkpt lat="42.3294824" lon="13.4845743"><ele>581.0</ele><time>2026-05-03T07:50:20.025Z</time></trkpt><trkpt lat="42.3294166" lon="13.4847893"><ele>581.0</ele><time>2026-05-03T07:50:21.025Z</time></trkpt><trkpt lat="42.3293535" lon="13.4850073"><ele>581.0</ele><time>2026-05-03T07:50:22.025Z</time></trkpt><trkpt lat="42.3292904" lon="13.4852327"><ele>581.0</ele><time>2026-05-03T07:50:23.025Z</time></trkpt><trkpt lat="42.3292221" lon="13.4854579"><ele>581.0</ele><time>2026-05-03T07:50:24.025Z</time></trkpt><trkpt lat="42.3291551" lon="13.4856804"><ele>581.0</ele><time>2026-05-03T07:50:25.025Z</time></trkpt><trkpt lat="42.3290889" lon="13.4858993"><ele>581.0</ele><time>2026-05-03T07:50:26.025Z</time></trkpt><trkpt lat="42.3290245" lon="13.48611"><ele>580.3333333333333</ele><time>2026-05-03T07:50:27.025Z</time></trkpt><trkpt lat="42.3289651" lon="13.4863184"><ele>579.6666666666666</ele><time>2026-05-03T07:50:28.025Z</time></trkpt><trkpt lat="42.3289036" lon="13.4865127"><ele>579.0</ele><time>2026-05-03T07:50:29.025Z</time></trkpt><trkpt lat="42.3288461" lon="13.4867065"><ele>579.0</ele><time>2026-05-03T07:50:30.025Z</time></trkpt><trkpt lat="42.3287888" lon="13.4868936"><ele>579.0</ele><time>2026-05-03T07:50:31.025Z</time></trkpt><trkpt lat="42.3287348" lon="13.4870776"><ele>579.0</ele><time>2026-05-03T07:50:32.025Z</time></trkpt><trkpt lat="42.328684" lon="13.4872525"><ele>579.0</ele><time>2026-05-03T07:50:33.025Z</time></trkpt><trkpt lat="42.3286338" lon="13.4874195"><ele>578.8</ele><time>2026-05-03T07:50:34.025Z</time></trkpt><trkpt lat="42.3285918" lon="13.4875712"><ele>578.5999999999999</ele><time>2026-05-03T07:50:35.025Z</time></trkpt><trkpt lat="42.3285449" lon="13.4877175"><ele>578.4</ele><time>2026-05-03T07:50:36.025Z</time></trkpt><trkpt lat="42.3285072" lon="13.4878337"><ele>578.1999999999999</ele><time>2026-05-03T07:50:37.025Z</time></trkpt><trkpt lat="42.3284805" lon="13.4879163"><ele>578.0</ele><time>2026-05-03T07:50:38.025Z</time></trkpt><trkpt lat="42.3284549" lon="13.4880141"><ele>578.0</ele><time>2026-05-03T07:50:40.025Z</time></trkpt><trkpt lat="42.3285313" lon="13.4880069"><ele>578.0</ele><time>2026-05-03T07:50:46.025Z</time></trkpt><trkpt lat="42.3285594" lon="13.4879035"><ele>578.0</ele><time>2026-05-03T07:50:48.025Z</time></trkpt><trkpt lat="42.3285752" lon="13.4878048"><ele>578.0</ele><time>2026-05-03T08:04:50.027Z</time></trkpt><trkpt lat="42.3286016" lon="13.487694"><ele>578.0</ele><time>2026-05-03T08:04:53.027Z</time></trkpt><trkpt lat="42.3286195" lon="13.4875886"><ele>578.0</ele><time>2026-05-03T08:04:56.027Z</time></trkpt><trkpt lat="42.3286386" lon="13.4875029"><ele>578.0</ele><time>2026-05-03T08:05:03.027Z</time></trkpt><trkpt lat="42.3286819" lon="13.4873622"><ele>578.0</ele><time>2026-05-03T08:05:05.027Z</time></trkpt><trkpt lat="42.3287088" lon="13.4872751"><ele>578.0</ele><time>2026-05-03T08:05:06.027Z</time></trkpt><trkpt lat="42.3287392" lon="13.4871669"><ele>578.0</ele><time>2026-05-03T08:05:07.027Z</time></trkpt><trkpt lat="42.3287734" lon="13.4870471"><ele>578.0</ele><time>2026-05-03T08:05:08.027Z</time></trkpt><trkpt lat="42.328811" lon="13.4869133"><ele>578.25</ele><time>2026-05-03T08:05:09.027Z</time></trkpt><trkpt lat="42.3288512" lon="13.4867689"><ele>578.5</ele><time>2026-05-03T08:05:10.027Z</time></trkpt><trkpt lat="42.3288954" lon="13.4866165"><ele>578.75</ele><time>2026-05-03T08:05:11.027Z</time></trkpt><trkpt lat="42.3289431" lon="13.4864565"><ele>579.0</ele><time>2026-05-03T08:05:12.027Z</time></trkpt><trkpt lat="42.3289915" lon="13.4862922"><ele>579.5</ele><time>2026-05-03T08:05:13.027Z</time></trkpt><trkpt lat="42.3290484" lon="13.4861188"><ele>580.0</ele><time>2026-05-03T08:05:14.027Z</time></trkpt><trkpt lat="42.3291042" lon="13.4859449"><ele>580.5</ele><time>2026-05-03T08:05:15.027Z</time></trkpt><trkpt lat="42.3291586" lon="13.4857662"><ele>581.0</ele><time>2026-05-03T08:05:16.027Z</time></trkpt><trkpt lat="42.3292094" lon="13.4855803"><ele>580.6666666666666</ele><time>2026-05-03T08:05:17.027Z</time></trkpt><trkpt lat="42.3292627" lon="13.4853909"><ele>580.3333333333334</ele><time>2026-05-03T08:05:18.027Z</time></trkpt><trkpt lat="42.3293188" lon="13.4851937"><ele>580.0</ele><time>2026-05-03T08:05:19.028Z</time></trkpt><trkpt lat="42.3293765" lon="13.4849998"><ele>580.0</ele><time>2026-05-03T08:05:20.027Z</time></trkpt><trkpt lat="42.329434" lon="13.4848004"><ele>580.0</ele><time>2026-05-03T08:05:21.027Z</time></trkpt><trkpt lat="42.3294944" lon="13.4846051"><ele>580.0</ele><time>2026-05-03T08:05:22.027Z</time></trkpt><trkpt lat="42.3295488" lon="13.4844297"><ele>580.25</ele><time>2026-05-03T08:05:23.027Z</time></trkpt><trkpt lat="42.3295977" lon="13.4842754"><ele>580.5</ele><time>2026-05-03T08:05:24.027Z</time></trkpt><trkpt lat="42.3296424" lon="13.4841349"><ele>580.75</ele><time>2026-05-03T08:05:25.027Z</time></trkpt><trkpt lat="42.3296805" lon="13.4840002"><ele>581.0</ele><time>2026-05-03T08:05:26.027Z</time></trkpt><trkpt lat="42.3297174" lon="13.483864"><ele>581.4</ele><time>2026-05-03T08:05:27.027Z</time></trkpt><trkpt lat="42.3297604" lon="13.4837311"><ele>581.8</ele><time>2026-05-03T08:05:28.028Z</time></trkpt><trkpt lat="42.329805" lon="13.4835971"><ele>582.1999999999999</ele><time>2026-05-03T08:05:29.027Z</time></trkpt><trkpt lat="42.3298466" lon="13.4834597"><ele>582.6</ele><time>2026-05-03T08:05:30.027Z</time></trkpt><trkpt lat="42.3298874" lon="13.4833205"><ele>583.0</ele><time>2026-05-03T08:05:31.027Z</time></trkpt><trkpt lat="42.32993" lon="13.4831788"><ele>583.0</ele><time>2026-05-03T08:05:32.027Z</time></trkpt><trkpt lat="42.329974" lon="13.4830349"><ele>583.0</ele><time>2026-05-03T08:05:33.027Z</time></trkpt><trkpt lat="42.3300189" lon="13.4828956"><ele>583.0</ele><time>2026-05-03T08:05:34.027Z</time></trkpt><trkpt lat="42.3300631" lon="13.482749"><ele>583.0</ele><time>2026-05-03T08:05:35.027Z</time></trkpt><trkpt lat="42.3301091" lon="13.4825993"><ele>583.0</ele><time>2026-05-03T08:05:36.027Z</time></trkpt><trkpt lat="42.3301546" lon="13.4824464"><ele>583.0</ele><time>2026-05-03T08:05:37.027Z</time></trkpt><trkpt lat="42.3301962" lon="13.482296"><ele>583.0</ele><time>2026-05-03T08:05:38.027Z</time></trkpt><trkpt lat="42.3302336" lon="13.482172"><ele>583.0</ele><time>2026-05-03T08:05:39.027Z</time></trkpt><trkpt lat="42.3302604" lon="13.4820912"><ele>583.0</ele><time>2026-05-03T08:05:40.027Z</time></trkpt><trkpt lat="42.3302885" lon="13.4820124"><ele>583.0</ele><time>2026-05-03T08:05:42.027Z</time></trkpt><trkpt lat="42.3303173" lon="13.4819263"><ele>583.0</ele><time>2026-05-03T08:05:55.027Z</time></trkpt><trkpt lat="42.3303708" lon="13.4818445"><ele>583.0</ele><time>2026-05-03T08:05:58.027Z</time></trkpt><trkpt lat="42.3304054" lon="13.4817706"><ele>583.0</ele><time>2026-05-03T08:06:02.027Z</time></trkpt><trkpt lat="42.3303415" lon="13.4817781"><ele>583.0</ele><time>2026-05-03T08:06:37.027Z</time></trkpt><trkpt lat="42.3302757" lon="13.4819155"><ele>583.0</ele><time>2026-05-03T08:06:39.027Z</time></trkpt><trkpt lat="42.3302363" lon="13.4820274"><ele>583.0</ele><time>2026-05-03T08:06:40.027Z</time></trkpt><trkpt lat="42.3301964" lon="13.4821718"><ele>583.0</ele><time>2026-05-03T08:06:41.027Z</time></trkpt><trkpt lat="42.3301438" lon="13.4823386"><ele>583.0</ele><time>2026-05-03T08:06:42.028Z</time></trkpt><trkpt lat="42.3300885" lon="13.482522"><ele>583.0</ele><time>2026-05-03T08:06:43.027Z</time></trkpt><trkpt lat="42.3300281" lon="13.482717"><ele>583.0</ele><time>2026-05-03T08:06:44.028Z</time></trkpt><trkpt lat="42.3299653" lon="13.4829297"><ele>583.0</ele><time>2026-05-03T08:06:45.027Z</time></trkpt><trkpt lat="42.3299031" lon="13.483148"><ele>583.0</ele><time>2026-05-03T08:06:46.027Z</time></trkpt><trkpt lat="42.3298397" lon="13.4833741"><ele>583.0</ele><time>2026-05-03T08:06:47.028Z</time></trkpt><trkpt lat="42.32977" lon="13.4836074"><ele>583.0</ele><time>2026-05-03T08:06:48.027Z</time></trkpt><trkpt lat="42.3296981" lon="13.4838511"><ele>583.0</ele><time>2026-05-03T08:06:49.027Z</time></trkpt><trkpt lat="42.3296314" lon="13.4840918"><ele>582.3333333333334</ele><time>2026-05-03T08:06:50.027Z</time></trkpt><trkpt lat="42.3295627" lon="13.4843321"><ele>581.6666666666666</ele><time>2026-05-03T08:06:51.027Z</time></trkpt><trkpt lat="42.3294839" lon="13.484569"><ele>581.0</ele><time>2026-05-03T08:06:52.027Z</time></trkpt><trkpt lat="42.3294099" lon="13.4848099"><ele>581.0</ele><time>2026-05-03T08:06:53.027Z</time></trkpt><trkpt lat="42.3293346" lon="13.4850361"><ele>581.0</ele><time>2026-05-03T08:06:54.027Z</time></trkpt><trkpt lat="42.329265" lon="13.4852714"><ele>581.0</ele><time>2026-05-03T08:06:55.028Z</time></trkpt><trkpt lat="42.3291933" lon="13.4855073"><ele>581.0</ele><time>2026-05-03T08:06:56.027Z</time></trkpt><trkpt lat="42.3291273" lon="13.485737"><ele>581.0</ele><time>2026-05-03T08:06:57.028Z</time></trkpt><trkpt lat="42.3290585" lon="13.4859682"><ele>581.0</ele><time>2026-05-03T08:06:58.027Z</time></trkpt><trkpt lat="42.3289885" lon="13.4861948"><ele>580.3333333333333</ele><time>2026-05-03T08:06:59.027Z</time></trkpt><trkpt lat="42.3289252" lon="13.486415"><ele>579.6666666666666</ele><time>2026-05-03T08:07:00.027Z</time></trkpt><trkpt lat="42.3288572" lon="13.4866293"><ele>579.0</ele><time>2026-05-03T08:07:01.027Z</time></trkpt><trkpt lat="42.3287948" lon="13.4868445"><ele>579.0</ele><time>2026-05-03T08:07:02.027Z</time></trkpt><trkpt lat="42.3287355" lon="13.4870569"><ele>579.0</ele><time>2026-05-03T08:07:03.027Z</time></trkpt><trkpt lat="42.3286748" lon="13.4872655"><ele>579.0</ele><time>2026-05-03T08:07:04.027Z</time></trkpt><trkpt lat="42.3286164" lon="13.4874633"><ele>578.75</ele><time>2026-05-03T08:07:05.027Z</time></trkpt><trkpt lat="42.3285595" lon="13.4876439"><ele>578.5</ele><time>2026-05-03T08:07:06.027Z</time></trkpt><trkpt lat="42.3285058" lon="13.487816"><ele>578.25</ele><time>2026-05-03T08:07:07.027Z</time></trkpt><trkpt lat="42.3284505" lon="13.4879898"><ele>578.0</ele><time>2026-05-03T08:07:08.027Z</time></trkpt><trkpt lat="42.3284016" lon="13.4881576"><ele>578.0</ele><time>2026-05-03T08:07:09.028Z</time></trkpt><trkpt lat="42.3283515" lon="13.488324"><ele>578.0</ele><time>2026-05-03T08:07:10.027Z</time></trkpt><trkpt lat="42.3283011" lon="13.4884906"><ele>578.0</ele><time>2026-05-03T08:07:11.027Z</time></trkpt><trkpt lat="42.3282514" lon="13.4886554"><ele>578.0</ele><time>2026-05-03T08:07:12.027Z</time></trkpt><trkpt lat="42.3282027" lon="13.4888235"><ele>577.75</ele><time>2026-05-03T08:07:13.027Z</time></trkpt><trkpt lat="42.3281567" lon="13.4889901"><ele>577.5</ele><time>2026-05-03T08:07:14.027Z</time></trkpt><trkpt lat="42.3281051" lon="13.489156"><ele>577.25</ele><time>2026-05-03T08:07:15.027Z</time></trkpt><trkpt lat="42.3280531" lon="13.4893179"><ele>577.0</ele><time>2026-05-03T08:07:16.027Z</time></trkpt><trkpt lat="42.3280063" lon="13.4894828"><ele>576.75</ele><time>2026-05-03T08:07:17.028Z</time></trkpt><trkpt lat="42.3279617" lon="13.489644"><ele>576.5</ele><time>2026-05-03T08:07:18.027Z</time></trkpt><trkpt lat="42.3279222" lon="13.4898041"><ele>576.25</ele><time>2026-05-03T08:07:19.027Z</time></trkpt><trkpt lat="42.3278763" lon="13.4899659"><ele>576.0</ele><time>2026-05-03T08:07:20.027Z</time></trkpt><trkpt lat="42.3278334" lon="13.4901218"><ele>576.0</ele><time>2026-05-03T08:07:21.027Z</time></trkpt><trkpt lat="42.3277907" lon="13.4902737"><ele>576.0</ele><time>2026-05-03T08:07:22.027Z</time></trkpt><trkpt lat="42.3277446" lon="13.4904237"><ele>576.0</ele><time>2026-05-03T08:07:23.027Z</time></trkpt><trkpt lat="42.3276953" lon="13.4905688"><ele>576.0</ele><time>2026-05-03T08:07:24.027Z</time></trkpt><trkpt lat="42.3276469" lon="13.4907209"><ele>576.25</ele><time>2026-05-03T08:07:25.027Z</time></trkpt><trkpt lat="42.3276031" lon="13.49087"><ele>576.5</ele><time>2026-05-03T08:07:26.028Z</time></trkpt><trkpt lat="42.3275598" lon="13.4910178"><ele>576.75</ele><time>2026-05-03T08:07:27.027Z</time></trkpt><trkpt lat="42.3275158" lon="13.4911563"><ele>577.0</ele><time>2026-05-03T08:07:28.028Z</time></trkpt><trkpt lat="42.3274684" lon="13.4913076"><ele>577.0</ele><time>2026-05-03T08:07:29.027Z</time></trkpt><trkpt lat="42.3274227" lon="13.4914506"><ele>577.0</ele><time>2026-05-03T08:07:30.027Z</time></trkpt><trkpt lat="42.3273772" lon="13.4915928"><ele>577.0</ele><time>2026-05-03T08:07:31.027Z</time></trkpt><trkpt lat="42.3273349" lon="13.4917458"><ele>577.0</ele><time>2026-05-03T08:07:32.027Z</time></trkpt><trkpt lat="42.3272906" lon="13.4918975"><ele>577.0</ele><time>2026-05-03T08:07:33.027Z</time></trkpt><trkpt lat="42.3272463" lon="13.4920546"><ele>577.0</ele><time>2026-05-03T08:07:34.027Z</time></trkpt><trkpt lat="42.3272009" lon="13.4922101"><ele>577.0</ele><time>2026-05-03T08:07:35.027Z</time></trkpt><trkpt lat="42.3271466" lon="13.4923632"><ele>577.0</ele><time>2026-05-03T08:07:36.027Z</time></trkpt><trkpt lat="42.3270977" lon="13.4925279"><ele>576.75</ele><time>2026-05-03T08:07:37.027Z</time></trkpt><trkpt lat="42.3270475" lon="13.4926928"><ele>576.5</ele><time>2026-05-03T08:07:38.027Z</time></trkpt><trkpt lat="42.3270066" lon="13.4928537"><ele>576.25</ele><time>2026-05-03T08:07:39.027Z</time></trkpt><trkpt lat="42.3269582" lon="13.4930124"><ele>576.0</ele><time>2026-05-03T08:07:40.027Z</time></trkpt><trkpt lat="42.326915" lon="13.4931599"><ele>575.8</ele><time>2026-05-03T08:07:41.027Z</time></trkpt><trkpt lat="42.3268738" lon="13.4933014"><ele>575.6</ele><time>2026-05-03T08:07:42.027Z</time></trkpt><trkpt lat="42.3268312" lon="13.4934393"><ele>575.4</ele><time>2026-05-03T08:07:43.027Z</time></trkpt><trkpt lat="42.3267921" lon="13.4935731"><ele>575.2</ele><time>2026-05-03T08:07:44.027Z</time></trkpt><trkpt lat="42.3267466" lon="13.4937133"><ele>575.0</ele><time>2026-05-03T08:07:45.027Z</time></trkpt><trkpt lat="42.3267015" lon="13.4938504"><ele>575.5</ele><time>2026-05-03T08:07:46.027Z</time></trkpt><trkpt lat="42.326657" lon="13.4939901"><ele>576.0</ele><time>2026-05-03T08:07:47.027Z</time></trkpt><trkpt lat="42.3266121" lon="13.4941337"><ele>576.5</ele><time>2026-05-03T08:07:48.027Z</time></trkpt><trkpt lat="42.3265695" lon="13.4942741"><ele>577.0</ele><time>2026-05-03T08:07:49.027Z</time></trkpt><trkpt lat="42.3265252" lon="13.4944206"><ele>577.0</ele><time>2026-05-03T08:07:50.027Z</time></trkpt><trkpt lat="42.3264813" lon="13.4945666"><ele>577.0</ele><time>2026-05-03T08:07:51.027Z</time></trkpt><trkpt lat="42.3264335" lon="13.4947167"><ele>577.0</ele><time>2026-05-03T08:07:52.027Z</time></trkpt><trkpt lat="42.3263908" lon="13.4948656"><ele>577.0</ele><time>2026-05-03T08:07:53.028Z</time></trkpt><trkpt lat="42.3263426" lon="13.4950223"><ele>577.25</ele><time>2026-05-03T08:07:54.027Z</time></trkpt><trkpt lat="42.3262956" lon="13.4951828"><ele>577.5</ele><time>2026-05-03T08:07:55.027Z</time></trkpt><trkpt lat="42.3262457" lon="13.4953461"><ele>577.75</ele><time>2026-05-03T08:07:56.028Z</time></trkpt><trkpt lat="42.326196" lon="13.4955087"><ele>578.0</ele><time>2026-05-03T08:07:57.027Z</time></trkpt><trkpt lat="42.3261464" lon="13.4956752"><ele>578.0</ele><time>2026-05-03T08:07:58.027Z</time></trkpt><trkpt lat="42.3260992" lon="13.4958495"><ele>578.0</ele><time>2026-05-03T08:07:59.028Z</time></trkpt><trkpt lat="42.3260531" lon="13.4960283"><ele>578.0</ele><time>2026-05-03T08:08:00.027Z</time></trkpt><trkpt lat="42.3260127" lon="13.4962005"><ele>578.0</ele><time>2026-05-03T08:08:01.027Z</time></trkpt><trkpt lat="42.3259782" lon="13.4963692"><ele>578.4</ele><time>2026-05-03T08:08:02.027Z</time></trkpt><trkpt lat="42.3259494" lon="13.4965285"><ele>578.8</ele><time>2026-05-03T08:08:03.027Z</time></trkpt><trkpt lat="42.325922" lon="13.4966733"><ele>579.2</ele><time>2026-05-03T08:08:04.027Z</time></trkpt><trkpt lat="42.3258941" lon="13.4968001"><ele>579.6</ele><time>2026-05-03T08:08:05.027Z</time></trkpt><trkpt lat="42.3258588" lon="13.4969002"><ele>580.0</ele><time>2026-05-03T08:08:06.027Z</time></trkpt><trkpt lat="42.3258204" lon="13.4969921"><ele>580.0</ele><time>2026-05-03T08:08:07.027Z</time></trkpt><trkpt lat="42.325787" lon="13.4970792"><ele>580.0</ele><time>2026-05-03T08:08:08.027Z</time></trkpt><trkpt lat="42.3257771" lon="13.4971639"><ele>580.0</ele><time>2026-05-03T08:08:09.027Z</time></trkpt><trkpt lat="42.3257813" lon="13.4972537"><ele>580.0</ele><time>2026-05-03T08:08:10.027Z</time></trkpt><trkpt lat="42.3258009" lon="13.4973425"><ele>580.0</ele><time>2026-05-03T08:08:11.027Z</time></trkpt><trkpt lat="42.3258156" lon="13.4974527"><ele>580.0</ele><time>2026-05-03T08:08:12.027Z</time></trkpt><trkpt lat="42.3258179" lon="13.4975769"><ele>580.0</ele><time>2026-05-03T08:08:13.028Z</time></trkpt><trkpt lat="42.3258102" lon="13.497718"><ele>581.5</ele><time>2026-05-03T08:08:14.027Z</time></trkpt><trkpt lat="42.3257941" lon="13.4978718"><ele>583.0</ele><time>2026-05-03T08:08:15.027Z</time></trkpt><trkpt lat="42.3257766" lon="13.4980335"><ele>584.5</ele><time>2026-05-03T08:08:16.027Z</time></trkpt><trkpt lat="42.3257538" lon="13.4982064"><ele>586.0</ele><time>2026-05-03T08:08:17.027Z</time></trkpt><trkpt lat="42.3257299" lon="13.498383"><ele>587.0</ele><time>2026-05-03T08:08:18.027Z</time></trkpt><trkpt lat="42.3257121" lon="13.4985694"><ele>588.0</ele><time>2026-05-03T08:08:19.027Z</time></trkpt><trkpt lat="42.3256906" lon="13.4987591"><ele>589.0</ele><time>2026-05-03T08:08:20.027Z</time></trkpt><trkpt lat="42.3256745" lon="13.4989467"><ele>590.0</ele><time>2026-05-03T08:08:21.027Z</time></trkpt><trkpt lat="42.3256564" lon="13.4991406"><ele>591.25</ele><time>2026-05-03T08:08:22.027Z</time></trkpt><trkpt lat="42.3256353" lon="13.4993387"><ele>592.5</ele><time>2026-05-03T08:08:23.027Z</time></trkpt><trkpt lat="42.3256131" lon="13.4995371"><ele>593.75</ele><time>2026-05-03T08:08:24.028Z</time></trkpt><trkpt lat="42.3255919" lon="13.4997354"><ele>595.0</ele><time>2026-05-03T08:08:25.027Z</time></trkpt><trkpt lat="42.3255708" lon="13.4999346"><ele>594.75</ele><time>2026-05-03T08:08:26.027Z</time></trkpt><trkpt lat="42.3255545" lon="13.5001351"><ele>594.5</ele><time>2026-05-03T08:08:27.028Z</time></trkpt><trkpt lat="42.3255351" lon="13.500335"><ele>594.25</ele><time>2026-05-03T08:08:28.027Z</time></trkpt><trkpt lat="42.3255125" lon="13.5005309"><ele>594.0</ele><time>2026-05-03T08:08:29.027Z</time></trkpt><trkpt lat="42.3254922" lon="13.5007309"><ele>594.0</ele><time>2026-05-03T08:08:30.027Z</time></trkpt><trkpt lat="42.3254688" lon="13.5009304"><ele>594.0</ele><time>2026-05-03T08:08:31.027Z</time></trkpt><trkpt lat="42.3254532" lon="13.5011341"><ele>594.0</ele><time>2026-05-03T08:08:32.027Z</time></trkpt><trkpt lat="42.3254363" lon="13.5013429"><ele>594.6666666666666</ele><time>2026-05-03T08:08:33.027Z</time></trkpt><trkpt lat="42.3254191" lon="13.501551"><ele>595.3333333333333</ele><time>2026-05-03T08:08:34.027Z</time></trkpt><trkpt lat="42.3253989" lon="13.5017563"><ele>596.0</ele><time>2026-05-03T08:08:35.027Z</time></trkpt><trkpt lat="42.3253773" lon="13.501963"><ele>597.3333333333333</ele><time>2026-05-03T08:08:36.027Z</time></trkpt><trkpt lat="42.325358" lon="13.5021647"><ele>598.6666666666666</ele><time>2026-05-03T08:08:37.027Z</time></trkpt><trkpt lat="42.3253374" lon="13.50237"><ele>600.0</ele><time>2026-05-03T08:08:38.027Z</time></trkpt><trkpt lat="42.3253182" lon="13.5025811"><ele>600.0</ele><time>2026-05-03T08:08:39.027Z</time></trkpt><trkpt lat="42.3253016" lon="13.5027923"><ele>600.0</ele><time>2026-05-03T08:08:40.027Z</time></trkpt><trkpt lat="42.3252794" lon="13.5030033"><ele>600.0</ele><time>2026-05-03T08:08:41.027Z</time></trkpt><trkpt lat="42.3252578" lon="13.5032107"><ele>600.6666666666666</ele><time>2026-05-03T08:08:42.027Z</time></trkpt><trkpt lat="42.3252335" lon="13.5034194"><ele>601.3333333333333</ele><time>2026-05-03T08:08:43.028Z</time></trkpt><trkpt lat="42.325212" lon="13.503631"><ele>602.0</ele><time>2026-05-03T08:08:44.027Z</time></trkpt><trkpt lat="42.3251901" lon="13.5038321"><ele>603.3333333333333</ele><time>2026-05-03T08:08:45.027Z</time></trkpt><trkpt lat="42.3251756" lon="13.5040422"><ele>604.6666666666666</ele><time>2026-05-03T08:08:46.027Z</time></trkpt><trkpt lat="42.3251548" lon="13.5042521"><ele>606.0</ele><time>2026-05-03T08:08:47.027Z</time></trkpt><trkpt lat="42.3251343" lon="13.5044684"><ele>608.0</ele><time>2026-05-03T08:08:48.027Z</time></trkpt><trkpt lat="42.3251066" lon="13.5046754"><ele>610.0</ele><time>2026-05-03T08:08:49.027Z</time></trkpt><trkpt lat="42.3250828" lon="13.5048826"><ele>612.0</ele><time>2026-05-03T08:08:50.028Z</time></trkpt><trkpt lat="42.3250585" lon="13.5050844"><ele>612.0</ele><time>2026-05-03T08:08:51.027Z</time></trkpt><trkpt lat="42.3250411" lon="13.5052885"><ele>612.0</ele><time>2026-05-03T08:08:52.027Z</time></trkpt><trkpt lat="42.3250242" lon="13.5054919"><ele>612.0</ele><time>2026-05-03T08:08:53.027Z</time></trkpt><trkpt lat="42.3250002" lon="13.5056847"><ele>612.0</ele><time>2026-05-03T08:08:54.027Z</time></trkpt><trkpt lat="42.3249814" lon="13.5058806"><ele>613.0</ele><time>2026-05-03T08:08:55.027Z</time></trkpt><trkpt lat="42.3249634" lon="13.5060741"><ele>614.0</ele><time>2026-05-03T08:08:56.027Z</time></trkpt><trkpt lat="42.3249488" lon="13.5062611"><ele>615.0</ele><time>2026-05-03T08:08:57.027Z</time></trkpt><trkpt lat="42.324929" lon="13.5064412"><ele>616.0</ele><time>2026-05-03T08:08:58.027Z</time></trkpt><trkpt lat="42.3249135" lon="13.50662"><ele>617.0</ele><time>2026-05-03T08:08:59.027Z</time></trkpt><trkpt lat="42.3249017" lon="13.5067953"><ele>618.0</ele><time>2026-05-03T08:09:00.027Z</time></trkpt><trkpt lat="42.3248844" lon="13.5069676"><ele>619.0</ele><time>2026-05-03T08:09:01.027Z</time></trkpt><trkpt lat="42.3248659" lon="13.5071381"><ele>620.0</ele><time>2026-05-03T08:09:02.027Z</time></trkpt><trkpt lat="42.3248514" lon="13.5073083"><ele>621.0</ele><time>2026-05-03T08:09:03.027Z</time></trkpt><trkpt lat="42.3248358" lon="13.5074802"><ele>622.0</ele><time>2026-05-03T08:09:04.027Z</time></trkpt><trkpt lat="42.3248177" lon="13.5076532"><ele>623.0</ele><time>2026-05-03T08:09:05.027Z</time></trkpt><trkpt lat="42.3247989" lon="13.5078318"><ele>624.0</ele><time>2026-05-03T08:09:06.027Z</time></trkpt><trkpt lat="42.3247802" lon="13.5080145"><ele>623.75</ele><time>2026-05-03T08:09:07.027Z</time></trkpt><trkpt lat="42.3247623" lon="13.5081988"><ele>623.5</ele><time>2026-05-03T08:09:08.028Z</time></trkpt><trkpt lat="42.3247469" lon="13.5083781"><ele>623.25</ele><time>2026-05-03T08:09:09.028Z</time></trkpt><trkpt lat="42.3247314" lon="13.508544"><ele>623.0</ele><time>2026-05-03T08:09:10.027Z</time></trkpt><trkpt lat="42.3247167" lon="13.5086978"><ele>623.75</ele><time>2026-05-03T08:09:11.027Z</time></trkpt><trkpt lat="42.3247028" lon="13.5088484"><ele>624.5</ele><time>2026-05-03T08:09:12.027Z</time></trkpt><trkpt lat="42.3246862" lon="13.5090023"><ele>625.25</ele><time>2026-05-03T08:09:13.027Z</time></trkpt><trkpt lat="42.3246676" lon="13.5091586"><ele>626.0</ele><time>2026-05-03T08:09:14.027Z</time></trkpt><trkpt lat="42.3246504" lon="13.5093193"><ele>626.0</ele><time>2026-05-03T08:09:15.027Z</time></trkpt><trkpt lat="42.3246357" lon="13.5094837"><ele>626.0</ele><time>2026-05-03T08:09:16.027Z</time></trkpt><trkpt lat="42.3246215" lon="13.5096519"><ele>626.0</ele><time>2026-05-03T08:09:17.027Z</time></trkpt><trkpt lat="42.3246047" lon="13.5098224"><ele>626.0</ele><time>2026-05-03T08:09:18.027Z</time></trkpt><trkpt lat="42.3245869" lon="13.5099964"><ele>627.0</ele><time>2026-05-03T08:09:19.027Z</time></trkpt><trkpt lat="42.3245676" lon="13.5101739"><ele>628.0</ele><time>2026-05-03T08:09:20.027Z</time></trkpt><trkpt lat="42.3245505" lon="13.510353"><ele>629.0</ele><time>2026-05-03T08:09:21.027Z</time></trkpt><trkpt lat="42.3245303" lon="13.5105339"><ele>630.0</ele><time>2026-05-03T08:09:22.027Z</time></trkpt><trkpt lat="42.3245083" lon="13.5107199"><ele>630.75</ele><time>2026-05-03T08:09:23.028Z</time></trkpt><trkpt lat="42.3244896" lon="13.5109071"><ele>631.5</ele><time>2026-05-03T08:09:24.028Z</time></trkpt><trkpt lat="42.3244742" lon="13.5110836"><ele>632.25</ele><time>2026-05-03T08:09:25.027Z</time></trkpt><trkpt lat="42.3244601" lon="13.511241"><ele>633.0</ele><time>2026-05-03T08:09:26.027Z</time></trkpt><trkpt lat="42.3244482" lon="13.5113811"><ele>633.8</ele><time>2026-05-03T08:09:27.027Z</time></trkpt><trkpt lat="42.3244345" lon="13.511513"><ele>634.5999999999999</ele><time>2026-05-03T08:09:28.027Z</time></trkpt><trkpt lat="42.3244218" lon="13.5116461"><ele>635.4000000000001</ele><time>2026-05-03T08:09:29.027Z</time></trkpt><trkpt lat="42.3244115" lon="13.5117803"><ele>636.2</ele><time>2026-05-03T08:09:30.027Z</time></trkpt><trkpt lat="42.3243996" lon="13.5119218"><ele>637.0</ele><time>2026-05-03T08:09:31.027Z</time></trkpt><trkpt lat="42.3243891" lon="13.5120659"><ele>637.25</ele><time>2026-05-03T08:09:32.027Z</time></trkpt><trkpt lat="42.3243779" lon="13.5122151"><ele>637.5</ele><time>2026-05-03T08:09:33.027Z</time></trkpt><trkpt lat="42.3243666" lon="13.5123679"><ele>637.75</ele><time>2026-05-03T08:09:34.027Z</time></trkpt><trkpt lat="42.324355" lon="13.5125223"><ele>638.0</ele><time>2026-05-03T08:09:35.027Z</time></trkpt><trkpt lat="42.3243398" lon="13.5126724"><ele>638.0</ele><time>2026-05-03T08:09:36.027Z</time></trkpt><trkpt lat="42.3243274" lon="13.5128118"><ele>638.0</ele><time>2026-05-03T08:09:37.027Z</time></trkpt><trkpt lat="42.3243155" lon="13.5129434"><ele>638.0</ele><time>2026-05-03T08:09:38.027Z</time></trkpt><trkpt lat="42.3243058" lon="13.5130727"><ele>638.0</ele><time>2026-05-03T08:09:39.027Z</time></trkpt><trkpt lat="42.3242975" lon="13.5132059"><ele>638.0</ele><time>2026-05-03T08:09:40.027Z</time></trkpt><trkpt lat="42.3242908" lon="13.5133435"><ele>638.4</ele><time>2026-05-03T08:09:41.027Z</time></trkpt><trkpt lat="42.3242821" lon="13.5134863"><ele>638.8</ele><time>2026-05-03T08:09:42.027Z</time></trkpt><trkpt lat="42.3242701" lon="13.5136308"><ele>639.2</ele><time>2026-05-03T08:09:43.027Z</time></trkpt><trkpt lat="42.3242584" lon="13.5137752"><ele>639.6</ele><time>2026-05-03T08:09:44.027Z</time></trkpt><trkpt lat="42.3242472" lon="13.5139147"><ele>640.0</ele><time>2026-05-03T08:09:45.027Z</time></trkpt><trkpt lat="42.3242336" lon="13.5140538"><ele>640.4</ele><time>2026-05-03T08:09:46.027Z</time></trkpt><trkpt lat="42.3242214" lon="13.5141926"><ele>640.8</ele><time>2026-05-03T08:09:47.028Z</time></trkpt><trkpt lat="42.3242085" lon="13.5143308"><ele>641.2</ele><time>2026-05-03T08:09:48.027Z</time></trkpt><trkpt lat="42.3241947" lon="13.5144671"><ele>641.6</ele><time>2026-05-03T08:09:49.027Z</time></trkpt><trkpt lat="42.3241833" lon="13.5146039"><ele>642.0</ele><time>2026-05-03T08:09:50.027Z</time></trkpt><trkpt lat="42.3241709" lon="13.5147409"><ele>642.8</ele><time>2026-05-03T08:09:51.027Z</time></trkpt><trkpt lat="42.3241597" lon="13.5148787"><ele>643.6</ele><time>2026-05-03T08:09:52.027Z</time></trkpt><trkpt lat="42.3241492" lon="13.5150162"><ele>644.4</ele><time>2026-05-03T08:09:53.027Z</time></trkpt><trkpt lat="42.3241381" lon="13.5151523"><ele>645.1999999999999</ele><time>2026-05-03T08:09:54.027Z</time></trkpt><trkpt lat="42.3241258" lon="13.5152927"><ele>646.0</ele><time>2026-05-03T08:09:55.027Z</time></trkpt><trkpt lat="42.3241149" lon="13.5154366"><ele>646.4</ele><time>2026-05-03T08:09:56.027Z</time></trkpt><trkpt lat="42.3241041" lon="13.5155821"><ele>646.8</ele><time>2026-05-03T08:09:57.027Z</time></trkpt><trkpt lat="42.3240913" lon="13.5157306"><ele>647.1999999999999</ele><time>2026-05-03T08:09:58.027Z</time></trkpt><trkpt lat="42.3240784" lon="13.5158793"><ele>647.5999999999999</ele><time>2026-05-03T08:09:59.027Z</time></trkpt><trkpt lat="42.3240664" lon="13.5160303"><ele>648.0</ele><time>2026-05-03T08:10:00.027Z</time></trkpt><trkpt lat="42.3240536" lon="13.5161817"><ele>648.75</ele><time>2026-05-03T08:10:01.027Z</time></trkpt><trkpt lat="42.3240424" lon="13.5163355"><ele>649.5</ele><time>2026-05-03T08:10:02.027Z</time></trkpt><trkpt lat="42.3240288" lon="13.5164898"><ele>650.25</ele><time>2026-05-03T08:10:03.027Z</time></trkpt><trkpt lat="42.3240157" lon="13.5166447"><ele>651.0</ele><time>2026-05-03T08:10:04.027Z</time></trkpt><trkpt lat="42.3240029" lon="13.5167964"><ele>651.0</ele><time>2026-05-03T08:10:05.027Z</time></trkpt><trkpt lat="42.3239908" lon="13.516944"><ele>651.0</ele><time>2026-05-03T08:10:06.027Z</time></trkpt><trkpt lat="42.3239783" lon="13.5170876"><ele>651.0</ele><time>2026-05-03T08:10:07.027Z</time></trkpt><trkpt lat="42.3239655" lon="13.5172281"><ele>651.0</ele><time>2026-05-03T08:10:08.027Z</time></trkpt><trkpt lat="42.3239526" lon="13.5173684"><ele>651.0</ele><time>2026-05-03T08:10:09.027Z</time></trkpt><trkpt lat="42.3239406" lon="13.5175139"><ele>652.0</ele><time>2026-05-03T08:10:10.027Z</time></trkpt><trkpt lat="42.3239285" lon="13.5176651"><ele>653.0</ele><time>2026-05-03T08:10:11.027Z</time></trkpt><trkpt lat="42.3239137" lon="13.5178191"><ele>654.0</ele><time>2026-05-03T08:10:12.027Z</time></trkpt><trkpt lat="42.3239046" lon="13.5179762"><ele>655.0</ele><time>2026-05-03T08:10:13.027Z</time></trkpt><trkpt lat="42.3238936" lon="13.518135"><ele>655.0</ele><time>2026-05-03T08:10:14.027Z</time></trkpt><trkpt lat="42.3238794" lon="13.5182943"><ele>655.0</ele><time>2026-05-03T08:10:15.027Z</time></trkpt><trkpt lat="42.3238646" lon="13.5184533"><ele>655.0</ele><time>2026-05-03T08:10:16.027Z</time></trkpt><trkpt lat="42.3238517" lon="13.5186115"><ele>655.0</ele><time>2026-05-03T08:10:17.027Z</time></trkpt><trkpt lat="42.3238393" lon="13.5187708"><ele>656.25</ele><time>2026-05-03T08:10:18.027Z</time></trkpt><trkpt lat="42.3238259" lon="13.5189288"><ele>657.5</ele><time>2026-05-03T08:10:19.027Z</time></trkpt><trkpt lat="42.3238116" lon="13.5190854"><ele>658.75</ele><time>2026-05-03T08:10:20.027Z</time></trkpt><trkpt lat="42.3237984" lon="13.519242"><ele>660.0</ele><time>2026-05-03T08:10:21.027Z</time></trkpt><trkpt lat="42.3237835" lon="13.5193981"><ele>660.0</ele><time>2026-05-03T08:10:22.027Z</time></trkpt><trkpt lat="42.3237717" lon="13.5195533"><ele>660.0</ele><time>2026-05-03T08:10:23.027Z</time></trkpt><trkpt lat="42.3237608" lon="13.5197082"><ele>660.0</ele><time>2026-05-03T08:10:24.027Z</time></trkpt><trkpt lat="42.3237467" lon="13.5198633"><ele>660.0</ele><time>2026-05-03T08:10:25.027Z</time></trkpt><trkpt lat="42.3237352" lon="13.5200173"><ele>660.75</ele><time>2026-05-03T08:10:26.028Z</time></trkpt><trkpt lat="42.3237228" lon="13.5201699"><ele>661.5</ele><time>2026-05-03T08:10:27.028Z</time></trkpt><trkpt lat="42.3237084" lon="13.5203218"><ele>662.25</ele><time>2026-05-03T08:10:28.027Z</time></trkpt><trkpt lat="42.3236967" lon="13.5204786"><ele>663.0</ele><time>2026-05-03T08:10:29.027Z</time></trkpt><trkpt lat="42.3236845" lon="13.5206372"><ele>663.5</ele><time>2026-05-03T08:10:30.027Z</time></trkpt><trkpt lat="42.3236714" lon="13.5207983"><ele>664.0</ele><time>2026-05-03T08:10:31.027Z</time></trkpt><trkpt lat="42.323657" lon="13.5209634"><ele>664.5</ele><time>2026-05-03T08:10:32.028Z</time></trkpt><trkpt lat="42.3236414" lon="13.5211296"><ele>665.0</ele><time>2026-05-03T08:10:33.027Z</time></trkpt><trkpt lat="42.3236254" lon="13.5212983"><ele>665.25</ele><time>2026-05-03T08:10:34.027Z</time></trkpt><trkpt lat="42.3236114" lon="13.521467"><ele>665.5</ele><time>2026-05-03T08:10:35.027Z</time></trkpt><trkpt lat="42.323599" lon="13.521627"><ele>665.75</ele><time>2026-05-03T08:10:36.027Z</time></trkpt><trkpt lat="42.323586" lon="13.521779"><ele>666.0</ele><time>2026-05-03T08:10:37.027Z</time></trkpt><trkpt lat="42.3235709" lon="13.5219346"><ele>667.0</ele><time>2026-05-03T08:10:38.027Z</time></trkpt><trkpt lat="42.323559" lon="13.522092"><ele>668.0</ele><time>2026-05-03T08:10:39.027Z</time></trkpt><trkpt lat="42.323545" lon="13.5222591"><ele>669.0</ele><time>2026-05-03T08:10:40.027Z</time></trkpt><trkpt lat="42.323539" lon="13.5224346"><ele>670.0</ele><time>2026-05-03T08:10:41.027Z</time></trkpt><trkpt lat="42.3235463" lon="13.5226166"><ele>670.0</ele><time>2026-05-03T08:10:42.027Z</time></trkpt><trkpt lat="42.3235632" lon="13.5228008"><ele>670.0</ele><time>2026-05-03T08:10:43.027Z</time></trkpt><trkpt lat="42.3235913" lon="13.522985"><ele>670.0</ele><time>2026-05-03T08:10:44.027Z</time></trkpt><trkpt lat="42.3236234" lon="13.523172"><ele>670.0</ele><time>2026-05-03T08:10:45.027Z</time></trkpt><trkpt lat="42.3236556" lon="13.5233628"><ele>670.75</ele><time>2026-05-03T08:10:46.027Z</time></trkpt><trkpt lat="42.3236886" lon="13.523556"><ele>671.5</ele><time>2026-05-03T08:10:47.027Z</time></trkpt><trkpt lat="42.3237247" lon="13.5237508"><ele>672.25</ele><time>2026-05-03T08:10:48.027Z</time></trkpt><trkpt lat="42.3237606" lon="13.5239457"><ele>673.0</ele><time>2026-05-03T08:10:49.027Z</time></trkpt><trkpt lat="42.323791" lon="13.5241362"><ele>674.0</ele><time>2026-05-03T08:10:50.027Z</time></trkpt><trkpt lat="42.3238202" lon="13.5243191"><ele>675.0</ele><time>2026-05-03T08:10:51.027Z</time></trkpt><trkpt lat="42.3238496" lon="13.5245003"><ele>676.0</ele><time>2026-05-03T08:10:52.027Z</time></trkpt><trkpt lat="42.323878" lon="13.5246787"><ele>677.0</ele><time>2026-05-03T08:10:53.028Z</time></trkpt><trkpt lat="42.3239065" lon="13.5248496"><ele>679.2</ele><time>2026-05-03T08:10:54.027Z</time></trkpt><trkpt lat="42.3239325" lon="13.5250043"><ele>681.4000000000001</ele><time>2026-05-03T08:10:55.027Z</time></trkpt><trkpt lat="42.3239591" lon="13.5251507"><ele>683.5999999999999</ele><time>2026-05-03T08:10:56.027Z</time></trkpt><trkpt lat="42.323986" lon="13.525291"><ele>685.8</ele><time>2026-05-03T08:10:57.027Z</time></trkpt><trkpt lat="42.3240129" lon="13.5254273"><ele>688.0</ele><time>2026-05-03T08:10:58.027Z</time></trkpt><trkpt lat="42.3240352" lon="13.5255624"><ele>688.8</ele><time>2026-05-03T08:10:59.027Z</time></trkpt><trkpt lat="42.3240526" lon="13.5256993"><ele>689.5999999999999</ele><time>2026-05-03T08:11:00.028Z</time></trkpt><trkpt lat="42.3240723" lon="13.5258363"><ele>690.4000000000001</ele><time>2026-05-03T08:11:01.027Z</time></trkpt><trkpt lat="42.3240961" lon="13.5259727"><ele>691.2</ele><time>2026-05-03T08:11:02.028Z</time></trkpt><trkpt lat="42.3241165" lon="13.5261089"><ele>692.0</ele><time>2026-05-03T08:11:03.027Z</time></trkpt><trkpt lat="42.3241362" lon="13.5262438"><ele>692.4000000000001</ele><time>2026-05-03T08:11:04.027Z</time></trkpt><trkpt lat="42.3241595" lon="13.5263807"><ele>692.8000000000001</ele><time>2026-05-03T08:11:05.027Z</time></trkpt><trkpt lat="42.3241821" lon="13.5265194"><ele>693.2</ele><time>2026-05-03T08:11:06.027Z</time></trkpt><trkpt lat="42.3242005" lon="13.5266585"><ele>693.6</ele><time>2026-05-03T08:11:07.027Z</time></trkpt><trkpt lat="42.3242175" lon="13.526799"><ele>694.0</ele><time>2026-05-03T08:11:08.027Z</time></trkpt><trkpt lat="42.3242368" lon="13.5269415"><ele>694.5</ele><time>2026-05-03T08:11:09.027Z</time></trkpt><trkpt lat="42.3242544" lon="13.5270837"><ele>695.0</ele><time>2026-05-03T08:11:10.027Z</time></trkpt><trkpt lat="42.3242713" lon="13.5272347"><ele>695.5</ele><time>2026-05-03T08:11:11.027Z</time></trkpt><trkpt lat="42.3242851" lon="13.5273929"><ele>696.0</ele><time>2026-05-03T08:11:12.027Z</time></trkpt><trkpt lat="42.3243008" lon="13.5275605"><ele>696.0</ele><time>2026-05-03T08:11:13.027Z</time></trkpt><trkpt lat="42.3243205" lon="13.5277375"><ele>696.0</ele><time>2026-05-03T08:11:14.027Z</time></trkpt><trkpt lat="42.3243394" lon="13.5279202"><ele>696.0</ele><time>2026-05-03T08:11:15.027Z</time></trkpt><trkpt lat="42.3243623" lon="13.5281029"><ele>696.0</ele><time>2026-05-03T08:11:16.027Z</time></trkpt><trkpt lat="42.3243805" lon="13.5282858"><ele>697.25</ele><time>2026-05-03T08:11:17.027Z</time></trkpt><trkpt lat="42.3243946" lon="13.5284579"><ele>698.5</ele><time>2026-05-03T08:11:18.027Z</time></trkpt><trkpt lat="42.3244128" lon="13.5286196"><ele>699.75</ele><time>2026-05-03T08:11:19.027Z</time></trkpt><trkpt lat="42.3244329" lon="13.5287703"><ele>701.0</ele><time>2026-05-03T08:11:20.027Z</time></trkpt><trkpt lat="42.3244493" lon="13.528912"><ele>701.4</ele><time>2026-05-03T08:11:21.027Z</time></trkpt><trkpt lat="42.3244564" lon="13.5290511"><ele>701.8</ele><time>2026-05-03T08:11:22.027Z</time></trkpt><trkpt lat="42.3244602" lon="13.5291947"><ele>702.1999999999999</ele><time>2026-05-03T08:11:23.027Z</time></trkpt><trkpt lat="42.3244599" lon="13.5293451"><ele>702.5999999999999</ele><time>2026-05-03T08:11:24.027Z</time></trkpt><trkpt lat="42.3244533" lon="13.5294963"><ele>703.0</ele><time>2026-05-03T08:11:25.028Z</time></trkpt><trkpt lat="42.3244421" lon="13.5296509"><ele>703.75</ele><time>2026-05-03T08:11:26.027Z</time></trkpt><trkpt lat="42.3244281" lon="13.5298056"><ele>704.5</ele><time>2026-05-03T08:11:27.027Z</time></trkpt><trkpt lat="42.3244048" lon="13.5299628"><ele>705.25</ele><time>2026-05-03T08:11:28.027Z</time></trkpt><trkpt lat="42.3243777" lon="13.5301211"><ele>706.0</ele><time>2026-05-03T08:11:29.028Z</time></trkpt><trkpt lat="42.3243442" lon="13.5302761"><ele>707.4</ele><time>2026-05-03T08:11:30.027Z</time></trkpt><trkpt lat="42.3243029" lon="13.5304254"><ele>708.8</ele><time>2026-05-03T08:11:31.028Z</time></trkpt><trkpt lat="42.3242597" lon="13.5305676"><ele>710.1999999999999</ele><time>2026-05-03T08:11:32.027Z</time></trkpt><trkpt lat="42.3242166" lon="13.5306973"><ele>711.5999999999999</ele><time>2026-05-03T08:11:33.027Z</time></trkpt><trkpt lat="42.3241725" lon="13.5308296"><ele>713.0</ele><time>2026-05-03T08:11:34.027Z</time></trkpt><trkpt lat="42.3241267" lon="13.5309607"><ele>713.0</ele><time>2026-05-03T08:11:35.027Z</time></trkpt><trkpt lat="42.324075" lon="13.53109"><ele>713.0</ele><time>2026-05-03T08:11:36.027Z</time></trkpt><trkpt lat="42.3240219" lon="13.5312243"><ele>713.0</ele><time>2026-05-03T08:11:37.027Z</time></trkpt><trkpt lat="42.3239705" lon="13.5313598"><ele>713.0</ele><time>2026-05-03T08:11:38.027Z</time></trkpt><trkpt lat="42.3239193" lon="13.5314984"><ele>713.0</ele><time>2026-05-03T08:11:39.027Z</time></trkpt><trkpt lat="42.3238653" lon="13.5316366"><ele>713.4</ele><time>2026-05-03T08:11:40.027Z</time></trkpt><trkpt lat="42.3238112" lon="13.5317671"><ele>713.8</ele><time>2026-05-03T08:11:41.027Z</time></trkpt><trkpt lat="42.3237605" lon="13.5318888"><ele>714.2</ele><time>2026-05-03T08:11:42.027Z</time></trkpt><trkpt lat="42.3237102" lon="13.5320067"><ele>714.6</ele><time>2026-05-03T08:11:43.027Z</time></trkpt><trkpt lat="42.3236571" lon="13.5321304"><ele>715.0</ele><time>2026-05-03T08:11:44.027Z</time></trkpt><trkpt lat="42.3236007" lon="13.5322594"><ele>717.0</ele><time>2026-05-03T08:11:45.027Z</time></trkpt><trkpt lat="42.3235439" lon="13.5323986"><ele>719.0</ele><time>2026-05-03T08:11:46.027Z</time></trkpt><trkpt lat="42.3234858" lon="13.5325424"><ele>721.0</ele><time>2026-05-03T08:11:47.027Z</time></trkpt><trkpt lat="42.3234274" lon="13.5326887"><ele>723.0</ele><time>2026-05-03T08:11:48.027Z</time></trkpt><trkpt lat="42.3233668" lon="13.5328372"><ele>725.5</ele><time>2026-05-03T08:11:49.027Z</time></trkpt><trkpt lat="42.3233075" lon="13.5329856"><ele>728.0</ele><time>2026-05-03T08:11:50.027Z</time></trkpt><trkpt lat="42.3232503" lon="13.5331368"><ele>730.5</ele><time>2026-05-03T08:11:51.027Z</time></trkpt><trkpt lat="42.3231938" lon="13.5332871"><ele>733.0</ele><time>2026-05-03T08:11:52.027Z</time></trkpt><trkpt lat="42.3231329" lon="13.5334349"><ele>733.0</ele><time>2026-05-03T08:11:53.027Z</time></trkpt><trkpt lat="42.3230732" lon="13.533578"><ele>733.0</ele><time>2026-05-03T08:11:54.027Z</time></trkpt><trkpt lat="42.3230164" lon="13.5337209"><ele>733.0</ele><time>2026-05-03T08:11:55.027Z</time></trkpt><trkpt lat="42.3229654" lon="13.5338671"><ele>733.0</ele><time>2026-05-03T08:11:56.027Z</time></trkpt><trkpt lat="42.3229153" lon="13.5340142"><ele>733.25</ele><time>2026-05-03T08:11:57.028Z</time></trkpt><trkpt lat="42.32287" lon="13.5341632"><ele>733.5</ele><time>2026-05-03T08:11:58.027Z</time></trkpt><trkpt lat="42.322829" lon="13.5343156"><ele>733.75</ele><time>2026-05-03T08:11:59.027Z</time></trkpt><trkpt lat="42.3227877" lon="13.5344712"><ele>734.0</ele><time>2026-05-03T08:12:00.028Z</time></trkpt><trkpt lat="42.3227465" lon="13.5346288"><ele>734.0</ele><time>2026-05-03T08:12:01.027Z</time></trkpt><trkpt lat="42.3227097" lon="13.5347883"><ele>734.0</ele><time>2026-05-03T08:12:02.027Z</time></trkpt><trkpt lat="42.3226774" lon="13.5349506"><ele>734.0</ele><time>2026-05-03T08:12:03.027Z</time></trkpt><trkpt lat="42.3226491" lon="13.5351157"><ele>734.0</ele><time>2026-05-03T08:12:04.027Z</time></trkpt><trkpt lat="42.3226267" lon="13.5352829"><ele>735.0</ele><time>2026-05-03T08:12:05.027Z</time></trkpt><trkpt lat="42.3226131" lon="13.5354498"><ele>736.0</ele><time>2026-05-03T08:12:06.027Z</time></trkpt><trkpt lat="42.3226062" lon="13.5356201"><ele>737.0</ele><time>2026-05-03T08:12:07.027Z</time></trkpt><trkpt lat="42.3226039" lon="13.5357934"><ele>738.0</ele><time>2026-05-03T08:12:08.027Z</time></trkpt><trkpt lat="42.3226079" lon="13.5359657"><ele>738.0</ele><time>2026-05-03T08:12:09.027Z</time></trkpt><trkpt lat="42.3226143" lon="13.5361394"><ele>738.0</ele><time>2026-05-03T08:12:10.027Z</time></trkpt><trkpt lat="42.3226218" lon="13.5363151"><ele>738.0</ele><time>2026-05-03T08:12:11.027Z</time></trkpt><trkpt lat="42.3226321" lon="13.5364914"><ele>738.0</ele><time>2026-05-03T08:12:12.027Z</time></trkpt><trkpt lat="42.3226418" lon="13.5366678"><ele>739.0</ele><time>2026-05-03T08:12:13.027Z</time></trkpt><trkpt lat="42.3226485" lon="13.5368416"><ele>740.0</ele><time>2026-05-03T08:12:14.027Z</time></trkpt><trkpt lat="42.3226562" lon="13.5370084"><ele>741.0</ele><time>2026-05-03T08:12:15.027Z</time></trkpt><trkpt lat="42.322666" lon="13.5371692"><ele>742.0</ele><time>2026-05-03T08:12:16.028Z</time></trkpt><trkpt lat="42.3226772" lon="13.5373271"><ele>743.5</ele><time>2026-05-03T08:12:17.027Z</time></trkpt><trkpt lat="42.3226897" lon="13.53748"><ele>745.0</ele><time>2026-05-03T08:12:18.027Z</time></trkpt><trkpt lat="42.3226984" lon="13.5376322"><ele>746.5</ele><time>2026-05-03T08:12:19.027Z</time></trkpt><trkpt lat="42.3227022" lon="13.5377866"><ele>748.0</ele><time>2026-05-03T08:12:20.027Z</time></trkpt><trkpt lat="42.3227067" lon="13.5379468"><ele>748.5</ele><time>2026-05-03T08:12:21.027Z</time></trkpt><trkpt lat="42.3227155" lon="13.5381075"><ele>749.0</ele><time>2026-05-03T08:12:22.027Z</time></trkpt><trkpt lat="42.3227247" lon="13.538272"><ele>749.5</ele><time>2026-05-03T08:12:23.027Z</time></trkpt><trkpt lat="42.3227343" lon="13.5384401"><ele>750.0</ele><time>2026-05-03T08:12:24.027Z</time></trkpt><trkpt lat="42.3227466" lon="13.5386061"><ele>751.5</ele><time>2026-05-03T08:12:25.027Z</time></trkpt><trkpt lat="42.3227538" lon="13.5387753"><ele>753.0</ele><time>2026-05-03T08:12:26.027Z</time></trkpt><trkpt lat="42.3227596" lon="13.5389417"><ele>754.5</ele><time>2026-05-03T08:12:27.027Z</time></trkpt><trkpt lat="42.3227659" lon="13.5391079"><ele>756.0</ele><time>2026-05-03T08:12:28.027Z</time></trkpt><trkpt lat="42.3227739" lon="13.5392777"><ele>756.0</ele><time>2026-05-03T08:12:29.027Z</time></trkpt><trkpt lat="42.3227839" lon="13.5394489"><ele>756.0</ele><time>2026-05-03T08:12:30.027Z</time></trkpt><trkpt lat="42.3227972" lon="13.5396202"><ele>756.0</ele><time>2026-05-03T08:12:31.027Z</time></trkpt><trkpt lat="42.3228089" lon="13.5397906"><ele>756.0</ele><time>2026-05-03T08:12:32.027Z</time></trkpt><trkpt lat="42.3228204" lon="13.539961"><ele>756.0</ele><time>2026-05-03T08:12:33.027Z</time></trkpt><trkpt lat="42.322832" lon="13.5401322"><ele>756.0</ele><time>2026-05-03T08:12:34.027Z</time></trkpt><trkpt lat="42.3228432" lon="13.540304"><ele>756.0</ele><time>2026-05-03T08:12:35.027Z</time></trkpt><trkpt lat="42.3228548" lon="13.5404726"><ele>756.0</ele><time>2026-05-03T08:12:36.027Z</time></trkpt><trkpt lat="42.3228659" lon="13.5406398"><ele>756.0</ele><time>2026-05-03T08:12:37.027Z</time></trkpt><trkpt lat="42.3228776" lon="13.5408079"><ele>756.0</ele><time>2026-05-03T08:12:38.027Z</time></trkpt><trkpt lat="42.3228839" lon="13.5409773"><ele>756.0</ele><time>2026-05-03T08:12:39.027Z</time></trkpt><trkpt lat="42.3228905" lon="13.5411463"><ele>756.0</ele><time>2026-05-03T08:12:40.027Z</time></trkpt><trkpt lat="42.3228958" lon="13.5413166"><ele>755.0</ele><time>2026-05-03T08:12:41.027Z</time></trkpt><trkpt lat="42.3228989" lon="13.5414841"><ele>754.0</ele><time>2026-05-03T08:12:42.028Z</time></trkpt><trkpt lat="42.3229039" lon="13.5416519"><ele>753.0</ele><time>2026-05-03T08:12:43.027Z</time></trkpt><trkpt lat="42.3229055" lon="13.5418176"><ele>752.0</ele><time>2026-05-03T08:12:44.027Z</time></trkpt><trkpt lat="42.3229053" lon="13.5419805"><ele>752.75</ele><time>2026-05-03T08:12:45.027Z</time></trkpt><trkpt lat="42.3229" lon="13.5421431"><ele>753.5</ele><time>2026-05-03T08:12:46.027Z</time></trkpt><trkpt lat="42.3228893" lon="13.5423059"><ele>754.25</ele><time>2026-05-03T08:12:47.027Z</time></trkpt><trkpt lat="42.3228779" lon="13.5424708"><ele>755.0</ele><time>2026-05-03T08:12:48.027Z</time></trkpt><trkpt lat="42.3228612" lon="13.5426375"><ele>755.0</ele><time>2026-05-03T08:12:49.027Z</time></trkpt><trkpt lat="42.322844" lon="13.5428058"><ele>755.0</ele><time>2026-05-03T08:12:50.027Z</time></trkpt><trkpt lat="42.3228257" lon="13.5429735"><ele>755.0</ele><time>2026-05-03T08:12:51.027Z</time></trkpt><trkpt lat="42.3228039" lon="13.5431382"><ele>755.0</ele><time>2026-05-03T08:12:52.027Z</time></trkpt><trkpt lat="42.3227781" lon="13.5432989"><ele>756.0</ele><time>2026-05-03T08:12:53.027Z</time></trkpt><trkpt lat="42.32275" lon="13.5434593"><ele>757.0</ele><time>2026-05-03T08:12:54.027Z</time></trkpt><trkpt lat="42.3227235" lon="13.5436224"><ele>758.0</ele><time>2026-05-03T08:12:55.028Z</time></trkpt><trkpt lat="42.3226962" lon="13.5437842"><ele>759.0</ele><time>2026-05-03T08:12:56.027Z</time></trkpt><trkpt lat="42.3226694" lon="13.543948"><ele>760.0</ele><time>2026-05-03T08:12:57.027Z</time></trkpt><trkpt lat="42.3226452" lon="13.5441122"><ele>761.0</ele><time>2026-05-03T08:12:58.027Z</time></trkpt><trkpt lat="42.3226213" lon="13.5442778"><ele>762.0</ele><time>2026-05-03T08:12:59.027Z</time></trkpt><trkpt lat="42.3225926" lon="13.5444411"><ele>763.0</ele><time>2026-05-03T08:13:00.027Z</time></trkpt><trkpt lat="42.3225629" lon="13.5446056"><ele>763.75</ele><time>2026-05-03T08:13:01.027Z</time></trkpt><trkpt lat="42.3225336" lon="13.5447723"><ele>764.5</ele><time>2026-05-03T08:13:02.027Z</time></trkpt><trkpt lat="42.3225061" lon="13.5449399"><ele>765.25</ele><time>2026-05-03T08:13:03.027Z</time></trkpt><trkpt lat="42.3224814" lon="13.5451065"><ele>766.0</ele><time>2026-05-03T08:13:04.028Z</time></trkpt><trkpt lat="42.3224575" lon="13.5452707"><ele>766.75</ele><time>2026-05-03T08:13:05.027Z</time></trkpt><trkpt lat="42.3224335" lon="13.5454364"><ele>767.5</ele><time>2026-05-03T08:13:06.027Z</time></trkpt><trkpt lat="42.3224078" lon="13.5455992"><ele>768.25</ele><time>2026-05-03T08:13:07.027Z</time></trkpt><trkpt lat="42.3223826" lon="13.5457608"><ele>769.0</ele><time>2026-05-03T08:13:08.027Z</time></trkpt><trkpt lat="42.3223581" lon="13.5459238"><ele>769.0</ele><time>2026-05-03T08:13:09.027Z</time></trkpt><trkpt lat="42.3223346" lon="13.5460864"><ele>769.0</ele><time>2026-05-03T08:13:10.028Z</time></trkpt><trkpt lat="42.3223101" lon="13.5462461"><ele>769.0</ele><time>2026-05-03T08:13:11.027Z</time></trkpt><trkpt lat="42.3222847" lon="13.5464044"><ele>769.0</ele><time>2026-05-03T08:13:12.027Z</time></trkpt><trkpt lat="42.3222606" lon="13.5465623"><ele>769.0</ele><time>2026-05-03T08:13:13.027Z</time></trkpt><trkpt lat="42.322237" lon="13.546721"><ele>769.0</ele><time>2026-05-03T08:13:14.027Z</time></trkpt><trkpt lat="42.3222147" lon="13.5468778"><ele>769.0</ele><time>2026-05-03T08:13:15.027Z</time></trkpt><trkpt lat="42.3221923" lon="13.5470328"><ele>769.0</ele><time>2026-05-03T08:13:16.027Z</time></trkpt><trkpt lat="42.3221681" lon="13.5471903"><ele>769.0</ele><time>2026-05-03T08:13:17.027Z</time></trkpt><trkpt lat="42.3221384" lon="13.5473484"><ele>769.0</ele><time>2026-05-03T08:13:18.027Z</time></trkpt><trkpt lat="42.3221014" lon="13.5475072"><ele>769.0</ele><time>2026-05-03T08:13:19.027Z</time></trkpt><trkpt lat="42.3220584" lon="13.5476645"><ele>769.0</ele><time>2026-05-03T08:13:20.027Z</time></trkpt><trkpt lat="42.3220093" lon="13.5478166"><ele>771.75</ele><time>2026-05-03T08:13:21.027Z</time></trkpt><trkpt lat="42.3219577" lon="13.5479668"><ele>774.5</ele><time>2026-05-03T08:13:22.027Z</time></trkpt><trkpt lat="42.3219004" lon="13.5481092"><ele>777.25</ele><time>2026-05-03T08:13:23.027Z</time></trkpt><trkpt lat="42.3218379" lon="13.5482493"><ele>780.0</ele><time>2026-05-03T08:13:24.027Z</time></trkpt><trkpt lat="42.3217683" lon="13.5483821"><ele>780.0</ele><time>2026-05-03T08:13:25.027Z</time></trkpt><trkpt lat="42.321695" lon="13.5485133"><ele>780.0</ele><time>2026-05-03T08:13:26.027Z</time></trkpt><trkpt lat="42.3216221" lon="13.5486445"><ele>780.0</ele><time>2026-05-03T08:13:27.027Z</time></trkpt><trkpt lat="42.3215476" lon="13.5487732"><ele>780.0</ele><time>2026-05-03T08:13:28.027Z</time></trkpt><trkpt lat="42.3214677" lon="13.5488959"><ele>781.25</ele><time>2026-05-03T08:13:29.027Z</time></trkpt><trkpt lat="42.3213812" lon="13.5490112"><ele>782.5</ele><time>2026-05-03T08:13:30.027Z</time></trkpt><trkpt lat="42.3212929" lon="13.5491249"><ele>783.75</ele><time>2026-05-03T08:13:31.027Z</time></trkpt><trkpt lat="42.3212042" lon="13.5492391"><ele>785.0</ele><time>2026-05-03T08:13:32.027Z</time></trkpt><trkpt lat="42.3211161" lon="13.5493524"><ele>785.0</ele><time>2026-05-03T08:13:33.027Z</time></trkpt><trkpt lat="42.321029" lon="13.5494663"><ele>785.0</ele><time>2026-05-03T08:13:34.028Z</time></trkpt><trkpt lat="42.3209425" lon="13.5495793"><ele>785.0</ele><time>2026-05-03T08:13:35.027Z</time></trkpt><trkpt lat="42.3208538" lon="13.5496888"><ele>785.0</ele><time>2026-05-03T08:13:36.027Z</time></trkpt><trkpt lat="42.3207643" lon="13.549796"><ele>785.75</ele><time>2026-05-03T08:13:37.027Z</time></trkpt><trkpt lat="42.3206758" lon="13.5499044"><ele>786.5</ele><time>2026-05-03T08:13:38.027Z</time></trkpt><trkpt lat="42.3205901" lon="13.5500154"><ele>787.25</ele><time>2026-05-03T08:13:39.027Z</time></trkpt><trkpt lat="42.3205013" lon="13.5501262"><ele>788.0</ele><time>2026-05-03T08:13:40.027Z</time></trkpt><trkpt lat="42.3204112" lon="13.550238"><ele>788.0</ele><time>2026-05-03T08:13:41.028Z</time></trkpt><trkpt lat="42.3203209" lon="13.5503542"><ele>788.0</ele><time>2026-05-03T08:13:42.027Z</time></trkpt><trkpt lat="42.320232" lon="13.5504713"><ele>788.0</ele><time>2026-05-03T08:13:43.027Z</time></trkpt><trkpt lat="42.3201414" lon="13.5505861"><ele>788.0</ele><time>2026-05-03T08:13:44.028Z</time></trkpt><trkpt lat="42.32005" lon="13.5506987"><ele>790.75</ele><time>2026-05-03T08:13:45.027Z</time></trkpt><trkpt lat="42.3199601" lon="13.5508103"><ele>793.5</ele><time>2026-05-03T08:13:46.027Z</time></trkpt><trkpt lat="42.3198737" lon="13.5509258"><ele>796.25</ele><time>2026-05-03T08:13:47.027Z</time></trkpt><trkpt lat="42.3197886" lon="13.5510401"><ele>799.0</ele><time>2026-05-03T08:13:48.027Z</time></trkpt><trkpt lat="42.3196986" lon="13.5511508"><ele>800.75</ele><time>2026-05-03T08:13:49.027Z</time></trkpt><trkpt lat="42.3196087" lon="13.5512652"><ele>802.5</ele><time>2026-05-03T08:13:50.027Z</time></trkpt><trkpt lat="42.3195167" lon="13.5513789"><ele>804.25</ele><time>2026-05-03T08:13:51.027Z</time></trkpt><trkpt lat="42.319425" lon="13.5514946"><ele>806.0</ele><time>2026-05-03T08:13:52.028Z</time></trkpt><trkpt lat="42.3193377" lon="13.5516126"><ele>806.0</ele><time>2026-05-03T08:13:53.027Z</time></trkpt><trkpt lat="42.3192486" lon="13.5517275"><ele>806.0</ele><time>2026-05-03T08:13:54.028Z</time></trkpt><trkpt lat="42.319159" lon="13.5518418"><ele>806.0</ele><time>2026-05-03T08:13:55.027Z</time></trkpt><trkpt lat="42.3190688" lon="13.5519508"><ele>806.0</ele><time>2026-05-03T08:13:56.027Z</time></trkpt><trkpt lat="42.3189782" lon="13.5520623"><ele>808.75</ele><time>2026-05-03T08:13:57.027Z</time></trkpt><trkpt lat="42.3188899" lon="13.5521741"><ele>811.5</ele><time>2026-05-03T08:13:58.027Z</time></trkpt><trkpt lat="42.3188019" lon="13.5522872"><ele>814.25</ele><time>2026-05-03T08:13:59.027Z</time></trkpt><trkpt lat="42.3187145" lon="13.552397"><ele>817.0</ele><time>2026-05-03T08:14:00.027Z</time></trkpt><trkpt lat="42.3186246" lon="13.5525011"><ele>817.0</ele><time>2026-05-03T08:14:01.027Z</time></trkpt><trkpt lat="42.3185329" lon="13.5526053"><ele>817.0</ele><time>2026-05-03T08:14:02.027Z</time></trkpt><trkpt lat="42.3184444" lon="13.5527156"><ele>817.0</ele><time>2026-05-03T08:14:03.027Z</time></trkpt><trkpt lat="42.3183542" lon="13.5528259"><ele>817.0</ele><time>2026-05-03T08:14:04.028Z</time></trkpt><trkpt lat="42.3182619" lon="13.5529359"><ele>818.25</ele><time>2026-05-03T08:14:05.027Z</time></trkpt><trkpt lat="42.318171" lon="13.5530495"><ele>819.5</ele><time>2026-05-03T08:14:06.027Z</time></trkpt><trkpt lat="42.3180835" lon="13.5531627"><ele>820.75</ele><time>2026-05-03T08:14:07.027Z</time></trkpt><trkpt lat="42.3179944" lon="13.5532736"><ele>822.0</ele><time>2026-05-03T08:14:08.027Z</time></trkpt><trkpt lat="42.317906" lon="13.5533836"><ele>822.0</ele><time>2026-05-03T08:14:09.027Z</time></trkpt><trkpt lat="42.3178188" lon="13.553493"><ele>822.0</ele><time>2026-05-03T08:14:10.027Z</time></trkpt><trkpt lat="42.3177309" lon="13.5536055"><ele>822.0</ele><time>2026-05-03T08:14:11.027Z</time></trkpt><trkpt lat="42.3176429" lon="13.5537202"><ele>822.0</ele><time>2026-05-03T08:14:12.027Z</time></trkpt><trkpt lat="42.3175575" lon="13.5538292"><ele>823.0</ele><time>2026-05-03T08:14:13.027Z</time></trkpt><trkpt lat="42.3174714" lon="13.5539354"><ele>824.0</ele><time>2026-05-03T08:14:14.027Z</time></trkpt><trkpt lat="42.3173846" lon="13.5540408"><ele>825.0</ele><time>2026-05-03T08:14:15.027Z</time></trkpt><trkpt lat="42.3172962" lon="13.5541513"><ele>826.0</ele><time>2026-05-03T08:14:16.027Z</time></trkpt><trkpt lat="42.3172067" lon="13.554266"><ele>826.0</ele><time>2026-05-03T08:14:17.027Z</time></trkpt><trkpt lat="42.3171185" lon="13.5543824"><ele>826.0</ele><time>2026-05-03T08:14:18.027Z</time></trkpt><trkpt lat="42.3170302" lon="13.5544957"><ele>826.0</ele><time>2026-05-03T08:14:19.027Z</time></trkpt><trkpt lat="42.316941" lon="13.5546095"><ele>826.0</ele><time>2026-05-03T08:14:20.027Z</time></trkpt><trkpt lat="42.3168559" lon="13.554723"><ele>826.0</ele><time>2026-05-03T08:14:21.027Z</time></trkpt><trkpt lat="42.316774" lon="13.5548393"><ele>826.0</ele><time>2026-05-03T08:14:22.027Z</time></trkpt><trkpt lat="42.3166908" lon="13.5549614"><ele>826.0</ele><time>2026-05-03T08:14:23.027Z</time></trkpt><trkpt lat="42.3166089" lon="13.5550847"><ele>826.0</ele><time>2026-05-03T08:14:24.028Z</time></trkpt><trkpt lat="42.3165307" lon="13.555211"><ele>826.0</ele><time>2026-05-03T08:14:25.027Z</time></trkpt><trkpt lat="42.3164567" lon="13.5553418"><ele>826.0</ele><time>2026-05-03T08:14:26.027Z</time></trkpt><trkpt lat="42.3163851" lon="13.5554736"><ele>826.0</ele><time>2026-05-03T08:14:27.027Z</time></trkpt><trkpt lat="42.3163152" lon="13.5556086"><ele>826.0</ele><time>2026-05-03T08:14:28.027Z</time></trkpt><trkpt lat="42.3162437" lon="13.555744"><ele>827.25</ele><time>2026-05-03T08:14:29.027Z</time></trkpt><trkpt lat="42.3161755" lon="13.5558813"><ele>828.5</ele><time>2026-05-03T08:14:30.027Z</time></trkpt><trkpt lat="42.3161098" lon="13.5560212"><ele>829.75</ele><time>2026-05-03T08:14:31.027Z</time></trkpt><trkpt lat="42.3160467" lon="13.5561601"><ele>831.0</ele><time>2026-05-03T08:14:32.027Z</time></trkpt><trkpt lat="42.3159873" lon="13.5563002"><ele>832.75</ele><time>2026-05-03T08:14:33.027Z</time></trkpt><trkpt lat="42.3159307" lon="13.5564422"><ele>834.5</ele><time>2026-05-03T08:14:34.027Z</time></trkpt><trkpt lat="42.3158737" lon="13.5565858"><ele>836.25</ele><time>2026-05-03T08:14:35.027Z</time></trkpt><trkpt lat="42.3158161" lon="13.5567292"><ele>838.0</ele><time>2026-05-03T08:14:36.027Z</time></trkpt><trkpt lat="42.3157578" lon="13.556871"><ele>838.0</ele><time>2026-05-03T08:14:37.027Z</time></trkpt><trkpt lat="42.3156999" lon="13.5570118"><ele>838.0</ele><time>2026-05-03T08:14:38.027Z</time></trkpt><trkpt lat="42.3156446" lon="13.5571556"><ele>838.0</ele><time>2026-05-03T08:14:39.027Z</time></trkpt><trkpt lat="42.3155894" lon="13.5573013"><ele>838.0</ele><time>2026-05-03T08:14:40.027Z</time></trkpt><trkpt lat="42.3155336" lon="13.5574486"><ele>837.5</ele><time>2026-05-03T08:14:41.027Z</time></trkpt><trkpt lat="42.3154777" lon="13.5575947"><ele>837.0</ele><time>2026-05-03T08:14:42.027Z</time></trkpt><trkpt lat="42.3154238" lon="13.5577425"><ele>836.5</ele><time>2026-05-03T08:14:43.027Z</time></trkpt><trkpt lat="42.3153678" lon="13.5578897"><ele>836.0</ele><time>2026-05-03T08:14:44.027Z</time></trkpt><trkpt lat="42.3153105" lon="13.5580356"><ele>838.25</ele><time>2026-05-03T08:14:45.027Z</time></trkpt><trkpt lat="42.3152545" lon="13.5581829"><ele>840.5</ele><time>2026-05-03T08:14:46.027Z</time></trkpt><trkpt lat="42.3152016" lon="13.5583316"><ele>842.75</ele><time>2026-05-03T08:14:47.027Z</time></trkpt><trkpt lat="42.3151437" lon="13.5584796"><ele>845.0</ele><time>2026-05-03T08:14:48.027Z</time></trkpt><trkpt lat="42.3150861" lon="13.5586264"><ele>847.0</ele><time>2026-05-03T08:14:49.027Z</time></trkpt><trkpt lat="42.315029" lon="13.5587754"><ele>849.0</ele><time>2026-05-03T08:14:50.027Z</time></trkpt><trkpt lat="42.3149708" lon="13.5589233"><ele>851.0</ele><time>2026-05-03T08:14:51.027Z</time></trkpt><trkpt lat="42.3149129" lon="13.5590721"><ele>853.0</ele><time>2026-05-03T08:14:52.027Z</time></trkpt><trkpt lat="42.3148539" lon="13.5592192"><ele>853.0</ele><time>2026-05-03T08:14:53.027Z</time></trkpt><trkpt lat="42.3147961" lon="13.5593668"><ele>853.0</ele><time>2026-05-03T08:14:54.027Z</time></trkpt><trkpt lat="42.3147406" lon="13.5595147"><ele>853.0</ele><time>2026-05-03T08:14:55.027Z</time></trkpt><trkpt lat="42.3146848" lon="13.559664"><ele>853.0</ele><time>2026-05-03T08:14:56.027Z</time></trkpt><trkpt lat="42.3146324" lon="13.5598155"><ele>853.25</ele><time>2026-05-03T08:14:57.027Z</time></trkpt><trkpt lat="42.3145842" lon="13.5599704"><ele>853.5</ele><time>2026-05-03T08:14:58.028Z</time></trkpt><trkpt lat="42.3145411" lon="13.5601276"><ele>853.75</ele><time>2026-05-03T08:14:59.027Z</time></trkpt><trkpt lat="42.3145041" lon="13.5602857"><ele>854.0</ele><time>2026-05-03T08:15:00.027Z</time></trkpt><trkpt lat="42.3144739" lon="13.5604478"><ele>854.0</ele><time>2026-05-03T08:15:01.027Z</time></trkpt><trkpt lat="42.3144453" lon="13.5606059"><ele>854.0</ele><time>2026-05-03T08:15:02.027Z</time></trkpt><trkpt lat="42.3144167" lon="13.5607664"><ele>854.0</ele><time>2026-05-03T08:15:03.027Z</time></trkpt><trkpt lat="42.3143868" lon="13.5609282"><ele>854.0</ele><time>2026-05-03T08:15:04.027Z</time></trkpt><trkpt lat="42.3143534" lon="13.5610921"><ele>855.5</ele><time>2026-05-03T08:15:05.027Z</time></trkpt><trkpt lat="42.3143196" lon="13.5612563"><ele>857.0</ele><time>2026-05-03T08:15:06.027Z</time></trkpt><trkpt lat="42.3142888" lon="13.5614213"><ele>858.5</ele><time>2026-05-03T08:15:07.027Z</time></trkpt><trkpt lat="42.3142614" lon="13.5615877"><ele>860.0</ele><time>2026-05-03T08:15:08.027Z</time></trkpt><trkpt lat="42.3142336" lon="13.5617501"><ele>860.0</ele><time>2026-05-03T08:15:09.027Z</time></trkpt><trkpt lat="42.3142037" lon="13.5619108"><ele>860.0</ele><time>2026-05-03T08:15:10.027Z</time></trkpt><trkpt lat="42.3141722" lon="13.5620741"><ele>860.0</ele><time>2026-05-03T08:15:11.028Z</time></trkpt><trkpt lat="42.314141" lon="13.5622381"><ele>860.0</ele><time>2026-05-03T08:15:12.027Z</time></trkpt><trkpt lat="42.31411" lon="13.5624046"><ele>861.0</ele><time>2026-05-03T08:15:13.027Z</time></trkpt><trkpt lat="42.3140793" lon="13.5625684"><ele>862.0</ele><time>2026-05-03T08:15:14.028Z</time></trkpt><trkpt lat="42.3140523" lon="13.5627351"><ele>863.0</ele><time>2026-05-03T08:15:15.027Z</time></trkpt><trkpt lat="42.3140301" lon="13.5629057"><ele>864.0</ele><time>2026-05-03T08:15:16.027Z</time></trkpt><trkpt lat="42.3140231" lon="13.5630746"><ele>864.25</ele><time>2026-05-03T08:15:17.027Z</time></trkpt><trkpt lat="42.3140273" lon="13.563245"><ele>864.5</ele><time>2026-05-03T08:15:18.027Z</time></trkpt><trkpt lat="42.3140435" lon="13.56342"><ele>864.75</ele><time>2026-05-03T08:15:19.027Z</time></trkpt><trkpt lat="42.3140578" lon="13.5635957"><ele>865.0</ele><time>2026-05-03T08:15:20.027Z</time></trkpt><trkpt lat="42.3140738" lon="13.5637726"><ele>865.0</ele><time>2026-05-03T08:15:21.027Z</time></trkpt><trkpt lat="42.3140904" lon="13.5639558"><ele>865.0</ele><time>2026-05-03T08:15:22.027Z</time></trkpt><trkpt lat="42.3141129" lon="13.5641391"><ele>865.0</ele><time>2026-05-03T08:15:23.027Z</time></trkpt><trkpt lat="42.3141399" lon="13.5643254"><ele>865.0</ele><time>2026-05-03T08:15:24.027Z</time></trkpt><trkpt lat="42.3141647" lon="13.564509"><ele>864.5</ele><time>2026-05-03T08:15:25.027Z</time></trkpt><trkpt lat="42.3141914" lon="13.5646942"><ele>864.0</ele><time>2026-05-03T08:15:26.027Z</time></trkpt><trkpt lat="42.3142191" lon="13.5648782"><ele>863.5</ele><time>2026-05-03T08:15:27.027Z</time></trkpt><trkpt lat="42.3142462" lon="13.5650577"><ele>863.0</ele><time>2026-05-03T08:15:28.027Z</time></trkpt><trkpt lat="42.3142715" lon="13.5652392"><ele>862.75</ele><time>2026-05-03T08:15:29.027Z</time></trkpt><trkpt lat="42.3143005" lon="13.565429"><ele>862.5</ele><time>2026-05-03T08:15:30.027Z</time></trkpt><trkpt lat="42.314329" lon="13.5656244"><ele>862.25</ele><time>2026-05-03T08:15:31.027Z</time></trkpt><trkpt lat="42.3143621" lon="13.5658246"><ele>862.0</ele><time>2026-05-03T08:15:32.027Z</time></trkpt><trkpt lat="42.3143938" lon="13.5660274"><ele>861.0</ele><time>2026-05-03T08:15:33.027Z</time></trkpt><trkpt lat="42.3144253" lon="13.5662289"><ele>860.0</ele><time>2026-05-03T08:15:34.027Z</time></trkpt><trkpt lat="42.3144595" lon="13.5664282"><ele>859.0</ele><time>2026-05-03T08:15:35.027Z</time></trkpt><trkpt lat="42.3144918" lon="13.5666236"><ele>859.0</ele><time>2026-05-03T08:15:36.027Z</time></trkpt><trkpt lat="42.3145231" lon="13.566814"><ele>859.0</ele><time>2026-05-03T08:15:37.027Z</time></trkpt><trkpt lat="42.3145522" lon="13.567008"><ele>859.0</ele><time>2026-05-03T08:15:38.027Z</time></trkpt><trkpt lat="42.3145814" lon="13.5672035"><ele>859.0</ele><time>2026-05-03T08:15:39.027Z</time></trkpt><trkpt lat="42.3146126" lon="13.5673983"><ele>858.75</ele><time>2026-05-03T08:15:40.027Z</time></trkpt><trkpt lat="42.3146453" lon="13.5675932"><ele>858.5</ele><time>2026-05-03T08:15:41.027Z</time></trkpt><trkpt lat="42.3146765" lon="13.5677883"><ele>858.25</ele><time>2026-05-03T08:15:42.027Z</time></trkpt><trkpt lat="42.3147086" lon="13.5679832"><ele>858.0</ele><time>2026-05-03T08:15:43.027Z</time></trkpt><trkpt lat="42.3147388" lon="13.5681803"><ele>859.25</ele><time>2026-05-03T08:15:44.027Z</time></trkpt><trkpt lat="42.3147672" lon="13.5683757"><ele>860.5</ele><time>2026-05-03T08:15:45.027Z</time></trkpt><trkpt lat="42.3147965" lon="13.5685737"><ele>861.75</ele><time>2026-05-03T08:15:46.027Z</time></trkpt><trkpt lat="42.3148269" lon="13.5687676"><ele>863.0</ele><time>2026-05-03T08:15:47.027Z</time></trkpt><trkpt lat="42.3148588" lon="13.5689643"><ele>863.0</ele><time>2026-05-03T08:15:48.027Z</time></trkpt><trkpt lat="42.3148913" lon="13.5691591"><ele>863.0</ele><time>2026-05-03T08:15:49.027Z</time></trkpt><trkpt lat="42.3149217" lon="13.5693536"><ele>863.0</ele><time>2026-05-03T08:15:50.027Z</time></trkpt><trkpt lat="42.3149519" lon="13.5695465"><ele>863.0</ele><time>2026-05-03T08:15:51.027Z</time></trkpt><trkpt lat="42.3149824" lon="13.5697403"><ele>863.0</ele><time>2026-05-03T08:15:52.027Z</time></trkpt><trkpt lat="42.3150149" lon="13.569935"><ele>863.0</ele><time>2026-05-03T08:15:53.027Z</time></trkpt><trkpt lat="42.3150458" lon="13.5701272"><ele>863.0</ele><time>2026-05-03T08:15:54.027Z</time></trkpt><trkpt lat="42.3150747" lon="13.5703231"><ele>863.0</ele><time>2026-05-03T08:15:55.027Z</time></trkpt><trkpt lat="42.3151027" lon="13.5705208"><ele>863.5</ele><time>2026-05-03T08:15:56.027Z</time></trkpt><trkpt lat="42.3151315" lon="13.5707114"><ele>864.0</ele><time>2026-05-03T08:15:57.027Z</time></trkpt><trkpt lat="42.3151596" lon="13.5709004"><ele>864.5</ele><time>2026-05-03T08:15:58.027Z</time></trkpt><trkpt lat="42.3151886" lon="13.571083"><ele>865.0</ele><time>2026-05-03T08:15:59.027Z</time></trkpt><trkpt lat="42.3152155" lon="13.5712625"><ele>865.0</ele><time>2026-05-03T08:16:00.027Z</time></trkpt><trkpt lat="42.3152404" lon="13.5714396"><ele>865.0</ele><time>2026-05-03T08:16:01.027Z</time></trkpt><trkpt lat="42.3152662" lon="13.5716172"><ele>865.0</ele><time>2026-05-03T08:16:02.027Z</time></trkpt><trkpt lat="42.3152938" lon="13.5717932"><ele>865.0</ele><time>2026-05-03T08:16:03.027Z</time></trkpt><trkpt lat="42.3153178" lon="13.571971"><ele>865.25</ele><time>2026-05-03T08:16:04.027Z</time></trkpt><trkpt lat="42.3153431" lon="13.57215"><ele>865.5</ele><time>2026-05-03T08:16:05.027Z</time></trkpt><trkpt lat="42.315373" lon="13.5723318"><ele>865.75</ele><time>2026-05-03T08:16:06.027Z</time></trkpt><trkpt lat="42.3154078" lon="13.5725182"><ele>866.0</ele><time>2026-05-03T08:16:07.028Z</time></trkpt><trkpt lat="42.3154411" lon="13.5727022"><ele>866.0</ele><time>2026-05-03T08:16:08.027Z</time></trkpt><trkpt lat="42.3154738" lon="13.5728876"><ele>866.0</ele><time>2026-05-03T08:16:09.027Z</time></trkpt><trkpt lat="42.3155031" lon="13.5730707"><ele>866.0</ele><time>2026-05-03T08:16:10.027Z</time></trkpt><trkpt lat="42.3155324" lon="13.5732514"><ele>866.0</ele><time>2026-05-03T08:16:11.027Z</time></trkpt><trkpt lat="42.3155588" lon="13.5734338"><ele>866.75</ele><time>2026-05-03T08:16:12.027Z</time></trkpt><trkpt lat="42.3155845" lon="13.5736161"><ele>867.5</ele><time>2026-05-03T08:16:13.027Z</time></trkpt><trkpt lat="42.315613" lon="13.5738008"><ele>868.25</ele><time>2026-05-03T08:16:14.028Z</time></trkpt><trkpt lat="42.3156418" lon="13.5739844"><ele>869.0</ele><time>2026-05-03T08:16:15.027Z</time></trkpt><trkpt lat="42.3156716" lon="13.5741689"><ele>869.0</ele><time>2026-05-03T08:16:16.027Z</time></trkpt><trkpt lat="42.315701" lon="13.5743528"><ele>869.0</ele><time>2026-05-03T08:16:17.027Z</time></trkpt><trkpt lat="42.3157281" lon="13.5745374"><ele>869.0</ele><time>2026-05-03T08:16:18.027Z</time></trkpt><trkpt lat="42.3157563" lon="13.5747201"><ele>869.0</ele><time>2026-05-03T08:16:19.027Z</time></trkpt><trkpt lat="42.3157824" lon="13.574903"><ele>868.75</ele><time>2026-05-03T08:16:20.027Z</time></trkpt><trkpt lat="42.3158095" lon="13.5750845"><ele>868.5</ele><time>2026-05-03T08:16:21.027Z</time></trkpt><trkpt lat="42.3158363" lon="13.5752653"><ele>868.25</ele><time>2026-05-03T08:16:22.027Z</time></trkpt><trkpt lat="42.3158639" lon="13.5754455"><ele>868.0</ele><time>2026-05-03T08:16:23.027Z</time></trkpt><trkpt lat="42.3158928" lon="13.575628"><ele>868.5</ele><time>2026-05-03T08:16:24.027Z</time></trkpt><trkpt lat="42.31592" lon="13.5758101"><ele>869.0</ele><time>2026-05-03T08:16:25.027Z</time></trkpt><trkpt lat="42.3159475" lon="13.5759937"><ele>869.5</ele><time>2026-05-03T08:16:26.027Z</time></trkpt><trkpt lat="42.3159757" lon="13.57618"><ele>870.0</ele><time>2026-05-03T08:16:27.027Z</time></trkpt><trkpt lat="42.316004" lon="13.576364"><ele>870.0</ele><time>2026-05-03T08:16:28.027Z</time></trkpt><trkpt lat="42.3160333" lon="13.5765485"><ele>870.0</ele><time>2026-05-03T08:16:29.027Z</time></trkpt><trkpt lat="42.3160622" lon="13.576732"><ele>870.0</ele><time>2026-05-03T08:16:30.027Z</time></trkpt><trkpt lat="42.316091" lon="13.5769141"><ele>870.0</ele><time>2026-05-03T08:16:31.027Z</time></trkpt><trkpt lat="42.3161229" lon="13.5770955"><ele>869.5</ele><time>2026-05-03T08:16:32.027Z</time></trkpt><trkpt lat="42.3161547" lon="13.5772779"><ele>869.0</ele><time>2026-05-03T08:16:33.027Z</time></trkpt><trkpt lat="42.3161814" lon="13.5774612"><ele>868.5</ele><time>2026-05-03T08:16:34.027Z</time></trkpt><trkpt lat="42.3162087" lon="13.5776455"><ele>868.0</ele><time>2026-05-03T08:16:35.027Z</time></trkpt><trkpt lat="42.3162348" lon="13.5778287"><ele>868.0</ele><time>2026-05-03T08:16:36.027Z</time></trkpt><trkpt lat="42.3162645" lon="13.5780114"><ele>868.0</ele><time>2026-05-03T08:16:37.027Z</time></trkpt><trkpt lat="42.3162953" lon="13.5781929"><ele>868.0</ele><time>2026-05-03T08:16:38.027Z</time></trkpt><trkpt lat="42.316326" lon="13.5783738"><ele>868.0</ele><time>2026-05-03T08:16:39.027Z</time></trkpt><trkpt lat="42.3163537" lon="13.5785581"><ele>868.0</ele><time>2026-05-03T08:16:40.027Z</time></trkpt><trkpt lat="42.3163791" lon="13.5787416"><ele>868.0</ele><time>2026-05-03T08:16:41.027Z</time></trkpt><trkpt lat="42.3164073" lon="13.5789206"><ele>868.0</ele><time>2026-05-03T08:16:42.027Z</time></trkpt><trkpt lat="42.3164369" lon="13.5790997"><ele>868.0</ele><time>2026-05-03T08:16:43.027Z</time></trkpt><trkpt lat="42.3164675" lon="13.5792797"><ele>870.25</ele><time>2026-05-03T08:16:44.027Z</time></trkpt><trkpt lat="42.3164984" lon="13.5794596"><ele>872.5</ele><time>2026-05-03T08:16:45.027Z</time></trkpt><trkpt lat="42.3165326" lon="13.5796375"><ele>874.75</ele><time>2026-05-03T08:16:46.027Z</time></trkpt><trkpt lat="42.3165755" lon="13.5798097"><ele>877.0</ele><time>2026-05-03T08:16:47.027Z</time></trkpt><trkpt lat="42.316635" lon="13.5799767"><ele>877.0</ele><time>2026-05-03T08:16:48.027Z</time></trkpt><trkpt lat="42.3167011" lon="13.5801418"><ele>877.0</ele><time>2026-05-03T08:16:49.027Z</time></trkpt><trkpt lat="42.3167663" lon="13.5803073"><ele>877.0</ele><time>2026-05-03T08:16:50.028Z</time></trkpt><trkpt lat="42.316832" lon="13.5804726"><ele>877.0</ele><time>2026-05-03T08:16:51.027Z</time></trkpt><trkpt lat="42.3168964" lon="13.5806354"><ele>877.0</ele><time>2026-05-03T08:16:52.027Z</time></trkpt><trkpt lat="42.3169592" lon="13.5807958"><ele>877.0</ele><time>2026-05-03T08:16:53.027Z</time></trkpt><trkpt lat="42.317019" lon="13.5809556"><ele>877.0</ele><time>2026-05-03T08:16:54.027Z</time></trkpt><trkpt lat="42.3170815" lon="13.5811126"><ele>877.0</ele><time>2026-05-03T08:16:55.027Z</time></trkpt><trkpt lat="42.3171436" lon="13.5812725"><ele>877.0</ele><time>2026-05-03T08:16:56.027Z</time></trkpt><trkpt lat="42.3172073" lon="13.581434"><ele>877.0</ele><time>2026-05-03T08:16:57.027Z</time></trkpt><trkpt lat="42.3172713" lon="13.5815969"><ele>877.0</ele><time>2026-05-03T08:16:58.027Z</time></trkpt><trkpt lat="42.3173369" lon="13.5817587"><ele>877.0</ele><time>2026-05-03T08:16:59.027Z</time></trkpt><trkpt lat="42.3174048" lon="13.5819221"><ele>878.5</ele><time>2026-05-03T08:17:00.027Z</time></trkpt><trkpt lat="42.3174711" lon="13.5820842"><ele>880.0</ele><time>2026-05-03T08:17:01.027Z</time></trkpt><trkpt lat="42.3175363" lon="13.5822469"><ele>881.5</ele><time>2026-05-03T08:17:02.027Z</time></trkpt><trkpt lat="42.3176014" lon="13.5824071"><ele>883.0</ele><time>2026-05-03T08:17:03.027Z</time></trkpt><trkpt lat="42.3176626" lon="13.5825703"><ele>883.0</ele><time>2026-05-03T08:17:04.027Z</time></trkpt><trkpt lat="42.3177274" lon="13.5827317"><ele>883.0</ele><time>2026-05-03T08:17:05.027Z</time></trkpt><trkpt lat="42.317791" lon="13.582895"><ele>883.0</ele><time>2026-05-03T08:17:06.027Z</time></trkpt><trkpt lat="42.3178535" lon="13.5830586"><ele>883.0</ele><time>2026-05-03T08:17:07.027Z</time></trkpt><trkpt lat="42.3179163" lon="13.5832193"><ele>884.0</ele><time>2026-05-03T08:17:08.028Z</time></trkpt><trkpt lat="42.3179798" lon="13.583378"><ele>885.0</ele><time>2026-05-03T08:17:09.027Z</time></trkpt><trkpt lat="42.3180444" lon="13.5835355"><ele>886.0</ele><time>2026-05-03T08:17:10.027Z</time></trkpt><trkpt lat="42.3181081" lon="13.5836932"><ele>887.0</ele><time>2026-05-03T08:17:11.027Z</time></trkpt><trkpt lat="42.3181722" lon="13.5838529"><ele>887.0</ele><time>2026-05-03T08:17:12.027Z</time></trkpt><trkpt lat="42.3182366" lon="13.5840144"><ele>887.0</ele><time>2026-05-03T08:17:13.027Z</time></trkpt><trkpt lat="42.3183036" lon="13.5841773"><ele>887.0</ele><time>2026-05-03T08:17:14.027Z</time></trkpt><trkpt lat="42.3183707" lon="13.5843387"><ele>887.0</ele><time>2026-05-03T08:17:15.027Z</time></trkpt><trkpt lat="42.3184356" lon="13.5844997"><ele>886.75</ele><time>2026-05-03T08:17:16.027Z</time></trkpt><trkpt lat="42.3184983" lon="13.584652"><ele>886.5</ele><time>2026-05-03T08:17:17.027Z</time></trkpt><trkpt lat="42.318566" lon="13.5847866"><ele>886.25</ele><time>2026-05-03T08:17:18.027Z</time></trkpt><trkpt lat="42.3186351" lon="13.5849037"><ele>886.0</ele><time>2026-05-03T08:17:19.028Z</time></trkpt><trkpt lat="42.3187075" lon="13.5850168"><ele>886.0</ele><time>2026-05-03T08:17:20.027Z</time></trkpt><trkpt lat="42.3187867" lon="13.5851204"><ele>885.9999999999999</ele><time>2026-05-03T08:17:21.027Z</time></trkpt><trkpt lat="42.3188723" lon="13.5852148"><ele>885.9999999999999</ele><time>2026-05-03T08:17:22.027Z</time></trkpt><trkpt lat="42.3189651" lon="13.5853012"><ele>886.0</ele><time>2026-05-03T08:17:23.027Z</time></trkpt><trkpt lat="42.3190573" lon="13.5853872"><ele>886.0</ele><time>2026-05-03T08:17:24.027Z</time></trkpt><trkpt lat="42.3191524" lon="13.5854723"><ele>886.0</ele><time>2026-05-03T08:17:25.027Z</time></trkpt><trkpt lat="42.3192504" lon="13.5855575"><ele>886.0</ele><time>2026-05-03T08:17:26.027Z</time></trkpt><trkpt lat="42.3193414" lon="13.5856517"><ele>886.0</ele><time>2026-05-03T08:17:27.027Z</time></trkpt><trkpt lat="42.3194232" lon="13.585761"><ele>886.0</ele><time>2026-05-03T08:17:28.027Z</time></trkpt><trkpt lat="42.3194947" lon="13.5858808"><ele>886.0</ele><time>2026-05-03T08:17:29.027Z</time></trkpt><trkpt lat="42.3195526" lon="13.5860151"><ele>886.0</ele><time>2026-05-03T08:17:30.027Z</time></trkpt><trkpt lat="42.3195907" lon="13.5861611"><ele>886.0</ele><time>2026-05-03T08:17:31.027Z</time></trkpt><trkpt lat="42.3196123" lon="13.5863092"><ele>886.0</ele><time>2026-05-03T08:17:32.027Z</time></trkpt><trkpt lat="42.3196283" lon="13.5864565"><ele>886.1999999999999</ele><time>2026-05-03T08:17:33.027Z</time></trkpt><trkpt lat="42.3196463" lon="13.5866049"><ele>886.3999999999999</ele><time>2026-05-03T08:17:34.027Z</time></trkpt><trkpt lat="42.3196657" lon="13.5867519"><ele>886.6</ele><time>2026-05-03T08:17:35.027Z</time></trkpt><trkpt lat="42.3196816" lon="13.586896"><ele>886.8</ele><time>2026-05-03T08:17:36.027Z</time></trkpt><trkpt lat="42.3196986" lon="13.5870416"><ele>887.0</ele><time>2026-05-03T08:17:37.027Z</time></trkpt><trkpt lat="42.3197166" lon="13.5871932"><ele>887.75</ele><time>2026-05-03T08:17:38.027Z</time></trkpt><trkpt lat="42.3197336" lon="13.5873497"><ele>888.5</ele><time>2026-05-03T08:17:39.027Z</time></trkpt><trkpt lat="42.3197409" lon="13.5875128"><ele>889.25</ele><time>2026-05-03T08:17:40.027Z</time></trkpt><trkpt lat="42.3197312" lon="13.5876833"><ele>890.0</ele><time>2026-05-03T08:17:41.027Z</time></trkpt><trkpt lat="42.3197069" lon="13.587855"><ele>890.0</ele><time>2026-05-03T08:17:42.027Z</time></trkpt><trkpt lat="42.3196685" lon="13.5880251"><ele>890.0</ele><time>2026-05-03T08:17:43.027Z</time></trkpt><trkpt lat="42.3196153" lon="13.5881927"><ele>890.0</ele><time>2026-05-03T08:17:44.027Z</time></trkpt><trkpt lat="42.3195459" lon="13.588354"><ele>890.0</ele><time>2026-05-03T08:17:45.027Z</time></trkpt><trkpt lat="42.3194651" lon="13.5885074"><ele>890.0</ele><time>2026-05-03T08:17:46.027Z</time></trkpt><trkpt lat="42.31938" lon="13.5886543"><ele>890.0</ele><time>2026-05-03T08:17:47.027Z</time></trkpt><trkpt lat="42.3192958" lon="13.5887988"><ele>890.0</ele><time>2026-05-03T08:17:48.027Z</time></trkpt><trkpt lat="42.319215" lon="13.5889395"><ele>890.0</ele><time>2026-05-03T08:17:49.027Z</time></trkpt><trkpt lat="42.3191337" lon="13.5890763"><ele>890.0</ele><time>2026-05-03T08:17:50.027Z</time></trkpt><trkpt lat="42.3190535" lon="13.5892099"><ele>890.0</ele><time>2026-05-03T08:17:51.027Z</time></trkpt><trkpt lat="42.3189733" lon="13.5893556"><ele>890.0</ele><time>2026-05-03T08:17:52.027Z</time></trkpt><trkpt lat="42.3188921" lon="13.5895096"><ele>890.0</ele><time>2026-05-03T08:17:53.027Z</time></trkpt><trkpt lat="42.3188102" lon="13.5896625"><ele>889.25</ele><time>2026-05-03T08:17:54.027Z</time></trkpt><trkpt lat="42.3187299" lon="13.5898152"><ele>888.5</ele><time>2026-05-03T08:17:55.027Z</time></trkpt><trkpt lat="42.3186515" lon="13.5899661"><ele>887.75</ele><time>2026-05-03T08:17:56.028Z</time></trkpt><trkpt lat="42.3185725" lon="13.5901205"><ele>887.0</ele><time>2026-05-03T08:17:57.027Z</time></trkpt><trkpt lat="42.3184928" lon="13.590275"><ele>886.25</ele><time>2026-05-03T08:17:58.028Z</time></trkpt><trkpt lat="42.3184097" lon="13.5904269"><ele>885.5</ele><time>2026-05-03T08:17:59.027Z</time></trkpt><trkpt lat="42.318325" lon="13.5905715"><ele>884.75</ele><time>2026-05-03T08:18:00.027Z</time></trkpt><trkpt lat="42.3182473" lon="13.5907149"><ele>884.0</ele><time>2026-05-03T08:18:01.027Z</time></trkpt><trkpt lat="42.3181724" lon="13.5908645"><ele>884.0</ele><time>2026-05-03T08:18:02.027Z</time></trkpt><trkpt lat="42.3180938" lon="13.5910126"><ele>884.0</ele><time>2026-05-03T08:18:03.027Z</time></trkpt><trkpt lat="42.3180171" lon="13.5911581"><ele>884.0</ele><time>2026-05-03T08:18:04.027Z</time></trkpt><trkpt lat="42.3179361" lon="13.5913023"><ele>884.0</ele><time>2026-05-03T08:18:05.027Z</time></trkpt><trkpt lat="42.3178571" lon="13.5914527"><ele>882.75</ele><time>2026-05-03T08:18:06.027Z</time></trkpt><trkpt lat="42.3177814" lon="13.5916006"><ele>881.5</ele><time>2026-05-03T08:18:07.027Z</time></trkpt><trkpt lat="42.3177062" lon="13.5917408"><ele>880.25</ele><time>2026-05-03T08:18:08.027Z</time></trkpt><trkpt lat="42.3176317" lon="13.5918788"><ele>879.0</ele><time>2026-05-03T08:18:09.027Z</time></trkpt><trkpt lat="42.3175602" lon="13.5920201"><ele>878.0</ele><time>2026-05-03T08:18:10.027Z</time></trkpt><trkpt lat="42.3174844" lon="13.5921598"><ele>877.0</ele><time>2026-05-03T08:18:11.027Z</time></trkpt><trkpt lat="42.3174106" lon="13.5922963"><ele>876.0</ele><time>2026-05-03T08:18:12.027Z</time></trkpt><trkpt lat="42.3173347" lon="13.5924384"><ele>875.0</ele><time>2026-05-03T08:18:13.027Z</time></trkpt><trkpt lat="42.3172657" lon="13.5925745"><ele>875.25</ele><time>2026-05-03T08:18:14.027Z</time></trkpt><trkpt lat="42.3171893" lon="13.5927165"><ele>875.5</ele><time>2026-05-03T08:18:15.027Z</time></trkpt><trkpt lat="42.3171081" lon="13.5928601"><ele>875.75</ele><time>2026-05-03T08:18:16.027Z</time></trkpt><trkpt lat="42.3170298" lon="13.5930118"><ele>876.0</ele><time>2026-05-03T08:18:17.027Z</time></trkpt><trkpt lat="42.3169474" lon="13.5931561"><ele>875.25</ele><time>2026-05-03T08:18:18.027Z</time></trkpt><trkpt lat="42.3168637" lon="13.5933076"><ele>874.5</ele><time>2026-05-03T08:18:19.027Z</time></trkpt><trkpt lat="42.3167866" lon="13.5934599"><ele>873.75</ele><time>2026-05-03T08:18:20.027Z</time></trkpt><trkpt lat="42.3167111" lon="13.5935978"><ele>873.0</ele><time>2026-05-03T08:18:21.027Z</time></trkpt><trkpt lat="42.3166342" lon="13.593733"><ele>873.0</ele><time>2026-05-03T08:18:22.027Z</time></trkpt><trkpt lat="42.3165608" lon="13.5938726"><ele>873.0</ele><time>2026-05-03T08:18:23.027Z</time></trkpt><trkpt lat="42.3164902" lon="13.5940002"><ele>873.0</ele><time>2026-05-03T08:18:24.027Z</time></trkpt><trkpt lat="42.3164224" lon="13.5941283"><ele>873.0</ele><time>2026-05-03T08:18:25.028Z</time></trkpt><trkpt lat="42.3163533" lon="13.594253"><ele>873.0</ele><time>2026-05-03T08:18:26.027Z</time></trkpt><trkpt lat="42.3162853" lon="13.5943789"><ele>873.0</ele><time>2026-05-03T08:18:27.027Z</time></trkpt><trkpt lat="42.3162181" lon="13.5945034"><ele>873.0</ele><time>2026-05-03T08:18:28.027Z</time></trkpt><trkpt lat="42.3161491" lon="13.5946238"><ele>873.0</ele><time>2026-05-03T08:18:29.027Z</time></trkpt><trkpt lat="42.3160808" lon="13.5947448"><ele>872.75</ele><time>2026-05-03T08:18:30.027Z</time></trkpt><trkpt lat="42.3160142" lon="13.5948648"><ele>872.5</ele><time>2026-05-03T08:18:31.027Z</time></trkpt><trkpt lat="42.3159507" lon="13.5949838"><ele>872.25</ele><time>2026-05-03T08:18:32.027Z</time></trkpt><trkpt lat="42.3158857" lon="13.5951031"><ele>872.0</ele><time>2026-05-03T08:18:33.027Z</time></trkpt><trkpt lat="42.3158141" lon="13.5952383"><ele>871.25</ele><time>2026-05-03T08:18:34.027Z</time></trkpt><trkpt lat="42.3157456" lon="13.5953674"><ele>870.5</ele><time>2026-05-03T08:18:35.027Z</time></trkpt><trkpt lat="42.3156727" lon="13.5955052"><ele>869.75</ele><time>2026-05-03T08:18:36.027Z</time></trkpt><trkpt lat="42.3155958" lon="13.5956449"><ele>869.0</ele><time>2026-05-03T08:18:37.027Z</time></trkpt><trkpt lat="42.3155165" lon="13.5957866"><ele>869.0</ele><time>2026-05-03T08:18:38.027Z</time></trkpt><trkpt lat="42.3154425" lon="13.5959292"><ele>869.0</ele><time>2026-05-03T08:18:39.027Z</time></trkpt><trkpt lat="42.3153705" lon="13.5960642"><ele>869.0</ele><time>2026-05-03T08:18:40.027Z</time></trkpt><trkpt lat="42.3153023" lon="13.5961895"><ele>869.0</ele><time>2026-05-03T08:18:41.028Z</time></trkpt><trkpt lat="42.3152352" lon="13.5963196"><ele>868.0</ele><time>2026-05-03T08:18:42.027Z</time></trkpt><trkpt lat="42.3151626" lon="13.5964516"><ele>867.0</ele><time>2026-05-03T08:18:43.027Z</time></trkpt><trkpt lat="42.3150943" lon="13.5965751"><ele>866.0</ele><time>2026-05-03T08:18:44.027Z</time></trkpt><trkpt lat="42.3150242" lon="13.5967037"><ele>865.0</ele><time>2026-05-03T08:18:45.027Z</time></trkpt><trkpt lat="42.3149531" lon="13.5968386"><ele>865.0</ele><time>2026-05-03T08:18:46.027Z</time></trkpt><trkpt lat="42.3148774" lon="13.5969787"><ele>865.0</ele><time>2026-05-03T08:18:47.027Z</time></trkpt><trkpt lat="42.3148005" lon="13.5971239"><ele>865.0</ele><time>2026-05-03T08:18:48.027Z</time></trkpt><trkpt lat="42.3147169" lon="13.5972702"><ele>865.0</ele><time>2026-05-03T08:18:49.027Z</time></trkpt><trkpt lat="42.3146394" lon="13.5974141"><ele>864.0</ele><time>2026-05-03T08:18:50.027Z</time></trkpt><trkpt lat="42.3145595" lon="13.5975557"><ele>863.0</ele><time>2026-05-03T08:18:51.027Z</time></trkpt><trkpt lat="42.3144788" lon="13.5977047"><ele>862.0</ele><time>2026-05-03T08:18:52.027Z</time></trkpt><trkpt lat="42.314403" lon="13.5978559"><ele>861.0</ele><time>2026-05-03T08:18:53.027Z</time></trkpt><trkpt lat="42.3143253" lon="13.598003"><ele>860.5</ele><time>2026-05-03T08:18:54.027Z</time></trkpt><trkpt lat="42.3142456" lon="13.598155"><ele>860.0</ele><time>2026-05-03T08:18:55.027Z</time></trkpt><trkpt lat="42.3141701" lon="13.5982931"><ele>859.5</ele><time>2026-05-03T08:18:56.027Z</time></trkpt><trkpt lat="42.3140906" lon="13.5984338"><ele>859.0</ele><time>2026-05-03T08:18:57.027Z</time></trkpt><trkpt lat="42.3140107" lon="13.598575"><ele>858.75</ele><time>2026-05-03T08:18:58.027Z</time></trkpt><trkpt lat="42.3139363" lon="13.598717"><ele>858.5</ele><time>2026-05-03T08:18:59.027Z</time></trkpt><trkpt lat="42.3138581" lon="13.598858"><ele>858.25</ele><time>2026-05-03T08:19:00.027Z</time></trkpt><trkpt lat="42.3137829" lon="13.5989986"><ele>858.0</ele><time>2026-05-03T08:19:01.027Z</time></trkpt><trkpt lat="42.313712" lon="13.5991383"><ele>857.25</ele><time>2026-05-03T08:19:02.027Z</time></trkpt><trkpt lat="42.3136349" lon="13.5992814"><ele>856.5</ele><time>2026-05-03T08:19:03.027Z</time></trkpt><trkpt lat="42.3135536" lon="13.5994261"><ele>855.75</ele><time>2026-05-03T08:19:04.027Z</time></trkpt><trkpt lat="42.3134749" lon="13.5995718"><ele>855.0</ele><time>2026-05-03T08:19:05.028Z</time></trkpt><trkpt lat="42.3133978" lon="13.5997239"><ele>855.0</ele><time>2026-05-03T08:19:06.027Z</time></trkpt><trkpt lat="42.3133156" lon="13.5998762"><ele>855.0</ele><time>2026-05-03T08:19:07.027Z</time></trkpt><trkpt lat="42.3132269" lon="13.6000308"><ele>855.0</ele><time>2026-05-03T08:19:08.028Z</time></trkpt><trkpt lat="42.3131415" lon="13.6001878"><ele>855.0</ele><time>2026-05-03T08:19:09.027Z</time></trkpt><trkpt lat="42.3130591" lon="13.6003463"><ele>854.5</ele><time>2026-05-03T08:19:10.027Z</time></trkpt><trkpt lat="42.3129747" lon="13.600505"><ele>854.0</ele><time>2026-05-03T08:19:11.027Z</time></trkpt><trkpt lat="42.3128898" lon="13.600658"><ele>853.5</ele><time>2026-05-03T08:19:12.027Z</time></trkpt><trkpt lat="42.3128073" lon="13.600817"><ele>853.0</ele><time>2026-05-03T08:19:13.027Z</time></trkpt><trkpt lat="42.3127249" lon="13.6009682"><ele>853.0</ele><time>2026-05-03T08:19:14.027Z</time></trkpt><trkpt lat="42.3126427" lon="13.6011235"><ele>853.0</ele><time>2026-05-03T08:19:15.027Z</time></trkpt><trkpt lat="42.3125609" lon="13.6012771"><ele>853.0</ele><time>2026-05-03T08:19:16.027Z</time></trkpt><trkpt lat="42.3124798" lon="13.6014276"><ele>853.0</ele><time>2026-05-03T08:19:17.027Z</time></trkpt><trkpt lat="42.3123997" lon="13.6015769"><ele>853.25</ele><time>2026-05-03T08:19:18.027Z</time></trkpt><trkpt lat="42.3123204" lon="13.6017238"><ele>853.5</ele><time>2026-05-03T08:19:19.027Z</time></trkpt><trkpt lat="42.3122446" lon="13.6018664"><ele>853.75</ele><time>2026-05-03T08:19:20.027Z</time></trkpt><trkpt lat="42.3121679" lon="13.6020101"><ele>854.0</ele><time>2026-05-03T08:19:21.027Z</time></trkpt><trkpt lat="42.3120883" lon="13.6021577"><ele>853.25</ele><time>2026-05-03T08:19:22.027Z</time></trkpt><trkpt lat="42.3120112" lon="13.6022995"><ele>852.5</ele><time>2026-05-03T08:19:23.028Z</time></trkpt><trkpt lat="42.3119417" lon="13.6024364"><ele>851.75</ele><time>2026-05-03T08:19:24.027Z</time></trkpt><trkpt lat="42.3118718" lon="13.6025702"><ele>851.0</ele><time>2026-05-03T08:19:25.027Z</time></trkpt><trkpt lat="42.311801" lon="13.6027021"><ele>851.25</ele><time>2026-05-03T08:19:26.027Z</time></trkpt><trkpt lat="42.3117308" lon="13.6028331"><ele>851.5</ele><time>2026-05-03T08:19:27.027Z</time></trkpt><trkpt lat="42.3116626" lon="13.6029575"><ele>851.75</ele><time>2026-05-03T08:19:28.027Z</time></trkpt><trkpt lat="42.3115981" lon="13.6030886"><ele>852.0</ele><time>2026-05-03T08:19:29.027Z</time></trkpt><trkpt lat="42.3115294" lon="13.6032203"><ele>852.0</ele><time>2026-05-03T08:19:30.027Z</time></trkpt><trkpt lat="42.3114567" lon="13.6033462"><ele>852.0</ele><time>2026-05-03T08:19:31.027Z</time></trkpt><trkpt lat="42.3113829" lon="13.6034748"><ele>852.0</ele><time>2026-05-03T08:19:32.027Z</time></trkpt><trkpt lat="42.3113106" lon="13.6036078"><ele>852.0</ele><time>2026-05-03T08:19:33.027Z</time></trkpt><trkpt lat="42.3112414" lon="13.6037389"><ele>851.0</ele><time>2026-05-03T08:19:34.027Z</time></trkpt><trkpt lat="42.3111723" lon="13.6038701"><ele>850.0</ele><time>2026-05-03T08:19:35.027Z</time></trkpt><trkpt lat="42.3111005" lon="13.6039985"><ele>849.0</ele><time>2026-05-03T08:19:36.027Z</time></trkpt><trkpt lat="42.3110288" lon="13.6041301"><ele>848.0</ele><time>2026-05-03T08:19:37.027Z</time></trkpt><trkpt lat="42.3109548" lon="13.6042668"><ele>848.0</ele><time>2026-05-03T08:19:38.027Z</time></trkpt><trkpt lat="42.3108837" lon="13.6043988"><ele>848.0</ele><time>2026-05-03T08:19:39.027Z</time></trkpt><trkpt lat="42.3108137" lon="13.6045333"><ele>848.0</ele><time>2026-05-03T08:19:40.027Z</time></trkpt><trkpt lat="42.3107445" lon="13.604669"><ele>848.0</ele><time>2026-05-03T08:19:41.027Z</time></trkpt><trkpt lat="42.310668" lon="13.6048091"><ele>848.0</ele><time>2026-05-03T08:19:42.027Z</time></trkpt><trkpt lat="42.3105953" lon="13.604949"><ele>848.0</ele><time>2026-05-03T08:19:43.027Z</time></trkpt><trkpt lat="42.3105229" lon="13.6050856"><ele>848.0</ele><time>2026-05-03T08:19:44.027Z</time></trkpt><trkpt lat="42.3104473" lon="13.6052259"><ele>848.0</ele><time>2026-05-03T08:19:45.028Z</time></trkpt><trkpt lat="42.3103683" lon="13.6053655"><ele>847.5</ele><time>2026-05-03T08:19:46.027Z</time></trkpt><trkpt lat="42.3102924" lon="13.6055022"><ele>847.0</ele><time>2026-05-03T08:19:47.028Z</time></trkpt><trkpt lat="42.3102139" lon="13.6056414"><ele>846.5</ele><time>2026-05-03T08:19:48.027Z</time></trkpt><trkpt lat="42.3101384" lon="13.6057812"><ele>846.0</ele><time>2026-05-03T08:19:49.027Z</time></trkpt><trkpt lat="42.3100625" lon="13.605923"><ele>846.0</ele><time>2026-05-03T08:19:50.027Z</time></trkpt><trkpt lat="42.3099856" lon="13.6060624"><ele>846.0</ele><time>2026-05-03T08:19:51.027Z</time></trkpt><trkpt lat="42.3099077" lon="13.6062096"><ele>846.0</ele><time>2026-05-03T08:19:52.027Z</time></trkpt><trkpt lat="42.3098261" lon="13.6063573"><ele>846.0</ele><time>2026-05-03T08:19:53.028Z</time></trkpt><trkpt lat="42.309747" lon="13.6065015"><ele>845.25</ele><time>2026-05-03T08:19:54.027Z</time></trkpt><trkpt lat="42.3096716" lon="13.6066403"><ele>844.5</ele><time>2026-05-03T08:19:55.028Z</time></trkpt><trkpt lat="42.3095963" lon="13.6067788"><ele>843.75</ele><time>2026-05-03T08:19:56.027Z</time></trkpt><trkpt lat="42.3095182" lon="13.6069159"><ele>843.0</ele><time>2026-05-03T08:19:57.027Z</time></trkpt><trkpt lat="42.3094445" lon="13.6070482"><ele>843.0</ele><time>2026-05-03T08:19:58.027Z</time></trkpt><trkpt lat="42.309372" lon="13.6071817"><ele>843.0</ele><time>2026-05-03T08:19:59.027Z</time></trkpt><trkpt lat="42.3093018" lon="13.6073178"><ele>843.0</ele><time>2026-05-03T08:20:00.028Z</time></trkpt><trkpt lat="42.3092296" lon="13.6074471"><ele>843.0</ele><time>2026-05-03T08:20:01.027Z</time></trkpt><trkpt lat="42.3091579" lon="13.6075814"><ele>843.0</ele><time>2026-05-03T08:20:02.028Z</time></trkpt><trkpt lat="42.3090883" lon="13.6077166"><ele>843.0</ele><time>2026-05-03T08:20:03.027Z</time></trkpt><trkpt lat="42.309014" lon="13.6078468"><ele>843.0</ele><time>2026-05-03T08:20:04.027Z</time></trkpt><trkpt lat="42.3089419" lon="13.6079778"><ele>843.0</ele><time>2026-05-03T08:20:05.028Z</time></trkpt><trkpt lat="42.3088752" lon="13.6081007"><ele>843.0</ele><time>2026-05-03T08:20:06.027Z</time></trkpt><trkpt lat="42.3088055" lon="13.6082319"><ele>843.0</ele><time>2026-05-03T08:20:07.027Z</time></trkpt><trkpt lat="42.3087369" lon="13.6083638"><ele>843.0</ele><time>2026-05-03T08:20:08.027Z</time></trkpt><trkpt lat="42.3086628" lon="13.6084975"><ele>843.0</ele><time>2026-05-03T08:20:09.027Z</time></trkpt><trkpt lat="42.3085866" lon="13.6086328"><ele>843.0</ele><time>2026-05-03T08:20:10.027Z</time></trkpt><trkpt lat="42.3085108" lon="13.6087715"><ele>843.0</ele><time>2026-05-03T08:20:11.028Z</time></trkpt><trkpt lat="42.3084372" lon="13.6089104"><ele>843.0</ele><time>2026-05-03T08:20:12.027Z</time></trkpt><trkpt lat="42.3083622" lon="13.6090547"><ele>843.0</ele><time>2026-05-03T08:20:13.027Z</time></trkpt><trkpt lat="42.3082874" lon="13.6092"><ele>843.0</ele><time>2026-05-03T08:20:14.027Z</time></trkpt><trkpt lat="42.3082074" lon="13.6093487"><ele>843.0</ele><time>2026-05-03T08:20:15.028Z</time></trkpt><trkpt lat="42.3081299" lon="13.6094983"><ele>843.0</ele><time>2026-05-03T08:20:16.027Z</time></trkpt><trkpt lat="42.3080519" lon="13.6096458"><ele>843.0</ele><time>2026-05-03T08:20:17.027Z</time></trkpt><trkpt lat="42.307973" lon="13.6097886"><ele>842.75</ele><time>2026-05-03T08:20:18.027Z</time></trkpt><trkpt lat="42.3078969" lon="13.6099304"><ele>842.5</ele><time>2026-05-03T08:20:19.027Z</time></trkpt><trkpt lat="42.3078196" lon="13.6100696"><ele>842.25</ele><time>2026-05-03T08:20:20.027Z</time></trkpt><trkpt lat="42.3077458" lon="13.6102055"><ele>842.0</ele><time>2026-05-03T08:20:21.027Z</time></trkpt><trkpt lat="42.3076752" lon="13.6103376"><ele>841.0</ele><time>2026-05-03T08:20:22.027Z</time></trkpt><trkpt lat="42.3076007" lon="13.6104676"><ele>840.0</ele><time>2026-05-03T08:20:23.027Z</time></trkpt><trkpt lat="42.3075322" lon="13.610599"><ele>839.0</ele><time>2026-05-03T08:20:24.028Z</time></trkpt><trkpt lat="42.3074635" lon="13.6107377"><ele>838.0</ele><time>2026-05-03T08:20:25.027Z</time></trkpt><trkpt lat="42.3073925" lon="13.610872"><ele>838.0</ele><time>2026-05-03T08:20:26.027Z</time></trkpt><trkpt lat="42.3073154" lon="13.6110116"><ele>838.0</ele><time>2026-05-03T08:20:27.028Z</time></trkpt><trkpt lat="42.3072395" lon="13.6111515"><ele>838.0</ele><time>2026-05-03T08:20:28.027Z</time></trkpt><trkpt lat="42.3071665" lon="13.6112937"><ele>838.0</ele><time>2026-05-03T08:20:29.028Z</time></trkpt><trkpt lat="42.3070977" lon="13.6114264"><ele>837.5</ele><time>2026-05-03T08:20:30.027Z</time></trkpt><trkpt lat="42.3070263" lon="13.6115641"><ele>837.0</ele><time>2026-05-03T08:20:31.027Z</time></trkpt><trkpt lat="42.3069516" lon="13.6116963"><ele>836.5</ele><time>2026-05-03T08:20:32.027Z</time></trkpt><trkpt lat="42.3068806" lon="13.6118289"><ele>836.0</ele><time>2026-05-03T08:20:33.027Z</time></trkpt><trkpt lat="42.3068138" lon="13.6119534"><ele>836.0</ele><time>2026-05-03T08:20:34.027Z</time></trkpt><trkpt lat="42.3067456" lon="13.6120758"><ele>836.0</ele><time>2026-05-03T08:20:35.027Z</time></trkpt><trkpt lat="42.3066836" lon="13.6121984"><ele>836.0</ele><time>2026-05-03T08:20:36.027Z</time></trkpt><trkpt lat="42.3066253" lon="13.6123169"><ele>836.0</ele><time>2026-05-03T08:20:37.027Z</time></trkpt><trkpt lat="42.3065627" lon="13.61244"><ele>836.0</ele><time>2026-05-03T08:20:38.028Z</time></trkpt><trkpt lat="42.3064966" lon="13.6125662"><ele>836.0</ele><time>2026-05-03T08:20:39.027Z</time></trkpt><trkpt lat="42.3064264" lon="13.612693"><ele>836.0</ele><time>2026-05-03T08:20:40.027Z</time></trkpt><trkpt lat="42.3063586" lon="13.6128138"><ele>836.0</ele><time>2026-05-03T08:20:41.027Z</time></trkpt><trkpt lat="42.3062866" lon="13.6129407"><ele>836.0</ele><time>2026-05-03T08:20:42.027Z</time></trkpt><trkpt lat="42.306213" lon="13.6130723"><ele>837.25</ele><time>2026-05-03T08:20:43.027Z</time></trkpt><trkpt lat="42.3061453" lon="13.6131969"><ele>838.5</ele><time>2026-05-03T08:20:44.027Z</time></trkpt><trkpt lat="42.3060763" lon="13.6133202"><ele>839.75</ele><time>2026-05-03T08:20:45.027Z</time></trkpt><trkpt lat="42.3060061" lon="13.613447"><ele>841.0</ele><time>2026-05-03T08:20:46.027Z</time></trkpt><trkpt lat="42.3059403" lon="13.6135726"><ele>839.25</ele><time>2026-05-03T08:20:47.027Z</time></trkpt><trkpt lat="42.3058653" lon="13.613703"><ele>837.5</ele><time>2026-05-03T08:20:48.027Z</time></trkpt><trkpt lat="42.3057938" lon="13.6138355"><ele>835.75</ele><time>2026-05-03T08:20:49.027Z</time></trkpt><trkpt lat="42.3057171" lon="13.6139735"><ele>834.0</ele><time>2026-05-03T08:20:50.027Z</time></trkpt><trkpt lat="42.3056427" lon="13.6141145"><ele>834.5</ele><time>2026-05-03T08:20:51.027Z</time></trkpt><trkpt lat="42.3055579" lon="13.6142646"><ele>835.0</ele><time>2026-05-03T08:20:52.027Z</time></trkpt><trkpt lat="42.3054787" lon="13.6144141"><ele>835.5</ele><time>2026-05-03T08:20:53.027Z</time></trkpt><trkpt lat="42.3054014" lon="13.6145609"><ele>836.0</ele><time>2026-05-03T08:20:54.027Z</time></trkpt><trkpt lat="42.3053256" lon="13.6147033"><ele>836.0</ele><time>2026-05-03T08:20:55.027Z</time></trkpt><trkpt lat="42.3052554" lon="13.6148383"><ele>836.0</ele><time>2026-05-03T08:20:56.027Z</time></trkpt><trkpt lat="42.3051813" lon="13.6149756"><ele>836.0</ele><time>2026-05-03T08:20:57.027Z</time></trkpt><trkpt lat="42.3051057" lon="13.6151087"><ele>836.0</ele><time>2026-05-03T08:20:58.027Z</time></trkpt><trkpt lat="42.30503" lon="13.6152408"><ele>835.5</ele><time>2026-05-03T08:20:59.027Z</time></trkpt><trkpt lat="42.3049527" lon="13.6153789"><ele>835.0</ele><time>2026-05-03T08:21:00.027Z</time></trkpt><trkpt lat="42.3048822" lon="13.615514"><ele>834.5</ele><time>2026-05-03T08:21:01.027Z</time></trkpt><trkpt lat="42.30481" lon="13.6156535"><ele>834.0</ele><time>2026-05-03T08:21:02.027Z</time></trkpt><trkpt lat="42.3047344" lon="13.6157923"><ele>834.75</ele><time>2026-05-03T08:21:03.028Z</time></trkpt><trkpt lat="42.3046613" lon="13.6159318"><ele>835.5</ele><time>2026-05-03T08:21:04.027Z</time></trkpt><trkpt lat="42.3045812" lon="13.6160745"><ele>836.25</ele><time>2026-05-03T08:21:05.028Z</time></trkpt><trkpt lat="42.3045037" lon="13.6162166"><ele>837.0</ele><time>2026-05-03T08:21:06.027Z</time></trkpt><trkpt lat="42.304428" lon="13.6163493"><ele>837.0</ele><time>2026-05-03T08:21:07.028Z</time></trkpt><trkpt lat="42.3043542" lon="13.6164822"><ele>837.0</ele><time>2026-05-03T08:21:08.027Z</time></trkpt><trkpt lat="42.304291" lon="13.6166055"><ele>837.0</ele><time>2026-05-03T08:21:09.027Z</time></trkpt><trkpt lat="42.3042252" lon="13.6167369"><ele>837.0</ele><time>2026-05-03T08:21:10.027Z</time></trkpt><trkpt lat="42.3041548" lon="13.6168659"><ele>836.5</ele><time>2026-05-03T08:21:11.027Z</time></trkpt><trkpt lat="42.3040861" lon="13.6169926"><ele>836.0</ele><time>2026-05-03T08:21:12.027Z</time></trkpt><trkpt lat="42.3040089" lon="13.6171276"><ele>835.5</ele><time>2026-05-03T08:21:13.027Z</time></trkpt><trkpt lat="42.3039364" lon="13.6172649"><ele>835.0</ele><time>2026-05-03T08:21:14.027Z</time></trkpt><trkpt lat="42.3038639" lon="13.6174013"><ele>835.0</ele><time>2026-05-03T08:21:15.027Z</time></trkpt><trkpt lat="42.3037916" lon="13.6175428"><ele>835.0</ele><time>2026-05-03T08:21:16.027Z</time></trkpt><trkpt lat="42.30372" lon="13.6176803"><ele>835.0</ele><time>2026-05-03T08:21:17.027Z</time></trkpt><trkpt lat="42.3036457" lon="13.617811"><ele>835.0</ele><time>2026-05-03T08:21:18.027Z</time></trkpt><trkpt lat="42.3035742" lon="13.6179429"><ele>834.0</ele><time>2026-05-03T08:21:19.027Z</time></trkpt><trkpt lat="42.3035055" lon="13.6180713"><ele>833.0</ele><time>2026-05-03T08:21:20.027Z</time></trkpt><trkpt lat="42.3034418" lon="13.6182011"><ele>832.0</ele><time>2026-05-03T08:21:21.027Z</time></trkpt><trkpt lat="42.3033788" lon="13.6183276"><ele>831.0</ele><time>2026-05-03T08:21:22.027Z</time></trkpt><trkpt lat="42.3033056" lon="13.6184586"><ele>831.0</ele><time>2026-05-03T08:21:23.027Z</time></trkpt><trkpt lat="42.3032335" lon="13.6185918"><ele>831.0</ele><time>2026-05-03T08:21:24.027Z</time></trkpt><trkpt lat="42.3031576" lon="13.6187231"><ele>831.0</ele><time>2026-05-03T08:21:25.027Z</time></trkpt><trkpt lat="42.3030798" lon="13.618859"><ele>831.0</ele><time>2026-05-03T08:21:26.027Z</time></trkpt><trkpt lat="42.3030066" lon="13.6189954"><ele>830.75</ele><time>2026-05-03T08:21:27.027Z</time></trkpt><trkpt lat="42.3029349" lon="13.6191305"><ele>830.5</ele><time>2026-05-03T08:21:28.027Z</time></trkpt><trkpt lat="42.3028635" lon="13.6192631"><ele>830.25</ele><time>2026-05-03T08:21:29.027Z</time></trkpt><trkpt lat="42.3027926" lon="13.6193891"><ele>830.0</ele><time>2026-05-03T08:21:30.027Z</time></trkpt><trkpt lat="42.3027224" lon="13.6195129"><ele>830.0</ele><time>2026-05-03T08:21:31.027Z</time></trkpt><trkpt lat="42.3026576" lon="13.6196352"><ele>830.0</ele><time>2026-05-03T08:21:32.027Z</time></trkpt><trkpt lat="42.3025931" lon="13.6197576"><ele>830.0</ele><time>2026-05-03T08:21:33.027Z</time></trkpt><trkpt lat="42.3025267" lon="13.6198806"><ele>830.0</ele><time>2026-05-03T08:21:34.027Z</time></trkpt><trkpt lat="42.3024635" lon="13.6200032"><ele>830.0</ele><time>2026-05-03T08:21:35.027Z</time></trkpt><trkpt lat="42.302399" lon="13.6201234"><ele>830.0</ele><time>2026-05-03T08:21:36.027Z</time></trkpt><trkpt lat="42.3023322" lon="13.6202444"><ele>830.0</ele><time>2026-05-03T08:21:37.027Z</time></trkpt><trkpt lat="42.3022672" lon="13.6203692"><ele>830.0</ele><time>2026-05-03T08:21:38.027Z</time></trkpt><trkpt lat="42.3021996" lon="13.6204955"><ele>830.0</ele><time>2026-05-03T08:21:39.027Z</time></trkpt><trkpt lat="42.3021299" lon="13.6206252"><ele>831.75</ele><time>2026-05-03T08:21:40.028Z</time></trkpt><trkpt lat="42.3020578" lon="13.6207558"><ele>833.5</ele><time>2026-05-03T08:21:41.027Z</time></trkpt><trkpt lat="42.3019873" lon="13.620888"><ele>835.25</ele><time>2026-05-03T08:21:42.027Z</time></trkpt><trkpt lat="42.3019169" lon="13.621018"><ele>837.0</ele><time>2026-05-03T08:21:43.027Z</time></trkpt><trkpt lat="42.3018492" lon="13.6211449"><ele>835.0</ele><time>2026-05-03T08:21:44.027Z</time></trkpt><trkpt lat="42.3017842" lon="13.6212688"><ele>833.0</ele><time>2026-05-03T08:21:45.027Z</time></trkpt><trkpt lat="42.3017185" lon="13.6213911"><ele>831.0</ele><time>2026-05-03T08:21:46.028Z</time></trkpt><trkpt lat="42.3016517" lon="13.621517"><ele>829.0</ele><time>2026-05-03T08:21:47.027Z</time></trkpt><trkpt lat="42.3015842" lon="13.6216435"><ele>829.0</ele><time>2026-05-03T08:21:48.027Z</time></trkpt><trkpt lat="42.3015156" lon="13.6217726"><ele>829.0</ele><time>2026-05-03T08:21:49.027Z</time></trkpt><trkpt lat="42.3014453" lon="13.6218997"><ele>829.0</ele><time>2026-05-03T08:21:50.027Z</time></trkpt><trkpt lat="42.3013733" lon="13.6220297"><ele>829.0</ele><time>2026-05-03T08:21:51.027Z</time></trkpt><trkpt lat="42.3013008" lon="13.6221657"><ele>827.75</ele><time>2026-05-03T08:21:52.027Z</time></trkpt><trkpt lat="42.3012271" lon="13.6223037"><ele>826.5</ele><time>2026-05-03T08:21:53.027Z</time></trkpt><trkpt lat="42.3011546" lon="13.6224372"><ele>825.25</ele><time>2026-05-03T08:21:54.027Z</time></trkpt><trkpt lat="42.3010824" lon="13.6225682"><ele>824.0</ele><time>2026-05-03T08:21:55.027Z</time></trkpt><trkpt lat="42.3010114" lon="13.6226973"><ele>823.5</ele><time>2026-05-03T08:21:56.027Z</time></trkpt><trkpt lat="42.3009423" lon="13.6228266"><ele>823.0</ele><time>2026-05-03T08:21:57.027Z</time></trkpt><trkpt lat="42.3008746" lon="13.6229527"><ele>822.5</ele><time>2026-05-03T08:21:58.027Z</time></trkpt><trkpt lat="42.3008042" lon="13.6230773"><ele>822.0</ele><time>2026-05-03T08:21:59.027Z</time></trkpt><trkpt lat="42.300735" lon="13.6231997"><ele>822.0</ele><time>2026-05-03T08:22:00.027Z</time></trkpt><trkpt lat="42.3006658" lon="13.6233245"><ele>822.0</ele><time>2026-05-03T08:22:01.027Z</time></trkpt><trkpt lat="42.3005957" lon="13.6234518"><ele>822.0</ele><time>2026-05-03T08:22:02.027Z</time></trkpt><trkpt lat="42.3005237" lon="13.623585"><ele>822.0</ele><time>2026-05-03T08:22:03.027Z</time></trkpt><trkpt lat="42.3004494" lon="13.6237221"><ele>821.75</ele><time>2026-05-03T08:22:04.027Z</time></trkpt><trkpt lat="42.3003737" lon="13.6238627"><ele>821.5</ele><time>2026-05-03T08:22:05.027Z</time></trkpt><trkpt lat="42.3002979" lon="13.6240034"><ele>821.25</ele><time>2026-05-03T08:22:06.027Z</time></trkpt><trkpt lat="42.3002213" lon="13.6241435"><ele>821.0</ele><time>2026-05-03T08:22:07.028Z</time></trkpt><trkpt lat="42.3001459" lon="13.6242834"><ele>821.0</ele><time>2026-05-03T08:22:08.027Z</time></trkpt><trkpt lat="42.3000724" lon="13.6244211"><ele>821.0</ele><time>2026-05-03T08:22:09.027Z</time></trkpt><trkpt lat="42.3000041" lon="13.6245599"><ele>821.0</ele><time>2026-05-03T08:22:10.027Z</time></trkpt><trkpt lat="42.2999378" lon="13.6247016"><ele>821.0</ele><time>2026-05-03T08:22:11.027Z</time></trkpt><trkpt lat="42.2998749" lon="13.6248453"><ele>821.0</ele><time>2026-05-03T08:22:12.027Z</time></trkpt><trkpt lat="42.299811" lon="13.6249863"><ele>821.0</ele><time>2026-05-03T08:22:13.027Z</time></trkpt><trkpt lat="42.2997468" lon="13.6251251"><ele>821.0</ele><time>2026-05-03T08:22:14.027Z</time></trkpt><trkpt lat="42.2996828" lon="13.6252642"><ele>821.0</ele><time>2026-05-03T08:22:15.027Z</time></trkpt><trkpt lat="42.2996244" lon="13.6254079"><ele>821.0</ele><time>2026-05-03T08:22:16.027Z</time></trkpt><trkpt lat="42.2995699" lon="13.6255523"><ele>821.0</ele><time>2026-05-03T08:22:17.027Z</time></trkpt><trkpt lat="42.2995189" lon="13.625695"><ele>821.0</ele><time>2026-05-03T08:22:18.027Z</time></trkpt><trkpt lat="42.2994704" lon="13.6258355"><ele>821.0</ele><time>2026-05-03T08:22:19.027Z</time></trkpt><trkpt lat="42.2994238" lon="13.6259824"><ele>821.0</ele><time>2026-05-03T08:22:20.027Z</time></trkpt><trkpt lat="42.2993797" lon="13.6261331"><ele>821.0</ele><time>2026-05-03T08:22:21.027Z</time></trkpt><trkpt lat="42.2993387" lon="13.6262845"><ele>821.0</ele><time>2026-05-03T08:22:22.027Z</time></trkpt><trkpt lat="42.2992982" lon="13.626438"><ele>821.0</ele><time>2026-05-03T08:22:23.027Z</time></trkpt><trkpt lat="42.2992584" lon="13.6265952"><ele>820.5</ele><time>2026-05-03T08:22:24.027Z</time></trkpt><trkpt lat="42.2992195" lon="13.626757"><ele>820.0</ele><time>2026-05-03T08:22:25.027Z</time></trkpt><trkpt lat="42.2991779" lon="13.6269172"><ele>819.5</ele><time>2026-05-03T08:22:26.028Z</time></trkpt><trkpt lat="42.2991336" lon="13.627078"><ele>819.0</ele><time>2026-05-03T08:22:27.027Z</time></trkpt><trkpt lat="42.2990906" lon="13.6272375"><ele>818.0</ele><time>2026-05-03T08:22:28.027Z</time></trkpt><trkpt lat="42.2990532" lon="13.6273948"><ele>817.0</ele><time>2026-05-03T08:22:29.027Z</time></trkpt><trkpt lat="42.2990145" lon="13.6275525"><ele>816.0</ele><time>2026-05-03T08:22:30.027Z</time></trkpt><trkpt lat="42.2989732" lon="13.6277072"><ele>815.0</ele><time>2026-05-03T08:22:31.027Z</time></trkpt><trkpt lat="42.298934" lon="13.6278596"><ele>815.75</ele><time>2026-05-03T08:22:32.027Z</time></trkpt><trkpt lat="42.2988955" lon="13.6280131"><ele>816.5</ele><time>2026-05-03T08:22:33.027Z</time></trkpt><trkpt lat="42.29886" lon="13.6281664"><ele>817.25</ele><time>2026-05-03T08:22:34.027Z</time></trkpt><trkpt lat="42.2988249" lon="13.6283182"><ele>818.0</ele><time>2026-05-03T08:22:35.027Z</time></trkpt><trkpt lat="42.298786" lon="13.6284697"><ele>818.0</ele><time>2026-05-03T08:22:36.027Z</time></trkpt><trkpt lat="42.2987463" lon="13.6286248"><ele>818.0</ele><time>2026-05-03T08:22:37.027Z</time></trkpt><trkpt lat="42.2987057" lon="13.6287859"><ele>818.0</ele><time>2026-05-03T08:22:38.027Z</time></trkpt><trkpt lat="42.2986584" lon="13.6289471"><ele>818.0</ele><time>2026-05-03T08:22:39.028Z</time></trkpt><trkpt lat="42.298612" lon="13.6291054"><ele>818.0</ele><time>2026-05-03T08:22:40.028Z</time></trkpt><trkpt lat="42.2985639" lon="13.6292605"><ele>818.0</ele><time>2026-05-03T08:22:41.027Z</time></trkpt><trkpt lat="42.2985148" lon="13.6294155"><ele>818.0</ele><time>2026-05-03T08:22:42.028Z</time></trkpt><trkpt lat="42.2984625" lon="13.6295676"><ele>818.0</ele><time>2026-05-03T08:22:43.027Z</time></trkpt><trkpt lat="42.2984034" lon="13.6297214"><ele>817.25</ele><time>2026-05-03T08:22:44.027Z</time></trkpt><trkpt lat="42.2983425" lon="13.6298718"><ele>816.5</ele><time>2026-05-03T08:22:45.027Z</time></trkpt><trkpt lat="42.2982771" lon="13.6300179"><ele>815.75</ele><time>2026-05-03T08:22:46.027Z</time></trkpt><trkpt lat="42.2982082" lon="13.6301655"><ele>815.0</ele><time>2026-05-03T08:22:47.027Z</time></trkpt><trkpt lat="42.2981343" lon="13.6303122"><ele>814.25</ele><time>2026-05-03T08:22:48.027Z</time></trkpt><trkpt lat="42.2980573" lon="13.6304525"><ele>813.5</ele><time>2026-05-03T08:22:49.027Z</time></trkpt><trkpt lat="42.2979739" lon="13.6305895"><ele>812.75</ele><time>2026-05-03T08:22:50.027Z</time></trkpt><trkpt lat="42.2978858" lon="13.6307208"><ele>812.0</ele><time>2026-05-03T08:22:51.027Z</time></trkpt><trkpt lat="42.2977983" lon="13.6308492"><ele>812.0</ele><time>2026-05-03T08:22:52.028Z</time></trkpt><trkpt lat="42.2977085" lon="13.6309771"><ele>812.0</ele><time>2026-05-03T08:22:53.027Z</time></trkpt><trkpt lat="42.2976158" lon="13.6311053"><ele>812.0</ele><time>2026-05-03T08:22:54.027Z</time></trkpt><trkpt lat="42.2975227" lon="13.6312355"><ele>812.0</ele><time>2026-05-03T08:22:55.027Z</time></trkpt><trkpt lat="42.2974275" lon="13.6313661"><ele>811.5</ele><time>2026-05-03T08:22:56.027Z</time></trkpt><trkpt lat="42.2973318" lon="13.6314976"><ele>811.0</ele><time>2026-05-03T08:22:57.027Z</time></trkpt><trkpt lat="42.2972359" lon="13.6316287"><ele>810.5</ele><time>2026-05-03T08:22:58.027Z</time></trkpt><trkpt lat="42.2971404" lon="13.6317645"><ele>810.0</ele><time>2026-05-03T08:22:59.027Z</time></trkpt><trkpt lat="42.2970454" lon="13.6318978"><ele>809.75</ele><time>2026-05-03T08:23:00.027Z</time></trkpt><trkpt lat="42.2969498" lon="13.6320321"><ele>809.5</ele><time>2026-05-03T08:23:01.027Z</time></trkpt><trkpt lat="42.2968522" lon="13.6321644"><ele>809.25</ele><time>2026-05-03T08:23:02.027Z</time></trkpt><trkpt lat="42.2967564" lon="13.6322968"><ele>809.0</ele><time>2026-05-03T08:23:03.027Z</time></trkpt><trkpt lat="42.2966583" lon="13.6324315"><ele>809.0</ele><time>2026-05-03T08:23:04.027Z</time></trkpt><trkpt lat="42.2965621" lon="13.6325665"><ele>809.0</ele><time>2026-05-03T08:23:05.027Z</time></trkpt><trkpt lat="42.2964637" lon="13.632696"><ele>809.0</ele><time>2026-05-03T08:23:06.027Z</time></trkpt><trkpt lat="42.2963652" lon="13.6328263"><ele>809.0</ele><time>2026-05-03T08:23:07.027Z</time></trkpt><trkpt lat="42.2962653" lon="13.6329591"><ele>808.75</ele><time>2026-05-03T08:23:08.028Z</time></trkpt><trkpt lat="42.29617" lon="13.633094"><ele>808.5</ele><time>2026-05-03T08:23:09.027Z</time></trkpt><trkpt lat="42.296074" lon="13.6332322"><ele>808.25</ele><time>2026-05-03T08:23:10.027Z</time></trkpt><trkpt lat="42.295974" lon="13.6333707"><ele>808.0</ele><time>2026-05-03T08:23:11.027Z</time></trkpt><trkpt lat="42.2958728" lon="13.6335111"><ele>805.75</ele><time>2026-05-03T08:23:12.027Z</time></trkpt><trkpt lat="42.295772" lon="13.6336521"><ele>803.5</ele><time>2026-05-03T08:23:13.027Z</time></trkpt><trkpt lat="42.2956735" lon="13.6337942"><ele>801.25</ele><time>2026-05-03T08:23:14.028Z</time></trkpt><trkpt lat="42.2955689" lon="13.6339388"><ele>799.0</ele><time>2026-05-03T08:23:15.027Z</time></trkpt><trkpt lat="42.2954645" lon="13.6340886"><ele>798.6666666666666</ele><time>2026-05-03T08:23:16.027Z</time></trkpt><trkpt lat="42.2953583" lon="13.6342369"><ele>798.3333333333333</ele><time>2026-05-03T08:23:17.027Z</time></trkpt><trkpt lat="42.2952504" lon="13.6343838"><ele>798.0</ele><time>2026-05-03T08:23:18.027Z</time></trkpt><trkpt lat="42.2951436" lon="13.6345267"><ele>796.75</ele><time>2026-05-03T08:23:19.027Z</time></trkpt><trkpt lat="42.2950431" lon="13.6346645"><ele>795.5</ele><time>2026-05-03T08:23:20.027Z</time></trkpt><trkpt lat="42.2949455" lon="13.6348011"><ele>794.25</ele><time>2026-05-03T08:23:21.027Z</time></trkpt><trkpt lat="42.2948421" lon="13.6349351"><ele>793.0</ele><time>2026-05-03T08:23:22.027Z</time></trkpt><trkpt lat="42.2947399" lon="13.6350671"><ele>793.0</ele><time>2026-05-03T08:23:23.027Z</time></trkpt><trkpt lat="42.29464" lon="13.6352002"><ele>793.0</ele><time>2026-05-03T08:23:24.027Z</time></trkpt><trkpt lat="42.2945407" lon="13.6353275"><ele>793.0</ele><time>2026-05-03T08:23:25.027Z</time></trkpt><trkpt lat="42.2944429" lon="13.6354608"><ele>793.0</ele><time>2026-05-03T08:23:26.027Z</time></trkpt><trkpt lat="42.2943504" lon="13.6355915"><ele>792.0</ele><time>2026-05-03T08:23:27.027Z</time></trkpt><trkpt lat="42.294253" lon="13.6357255"><ele>791.0</ele><time>2026-05-03T08:23:28.027Z</time></trkpt><trkpt lat="42.294159" lon="13.6358545"><ele>790.0</ele><time>2026-05-03T08:23:29.027Z</time></trkpt><trkpt lat="42.2940643" lon="13.6359814"><ele>789.0</ele><time>2026-05-03T08:23:30.027Z</time></trkpt><trkpt lat="42.2939734" lon="13.6361023"><ele>788.25</ele><time>2026-05-03T08:23:31.027Z</time></trkpt><trkpt lat="42.2938807" lon="13.6362253"><ele>787.5</ele><time>2026-05-03T08:23:32.027Z</time></trkpt><trkpt lat="42.2937833" lon="13.6363491"><ele>786.75</ele><time>2026-05-03T08:23:33.027Z</time></trkpt><trkpt lat="42.293688" lon="13.6364729"><ele>786.0</ele><time>2026-05-03T08:23:34.027Z</time></trkpt><trkpt lat="42.293597" lon="13.6366"><ele>786.0</ele><time>2026-05-03T08:23:35.027Z</time></trkpt><trkpt lat="42.2935042" lon="13.6367319"><ele>786.0</ele><time>2026-05-03T08:23:36.027Z</time></trkpt><trkpt lat="42.2934091" lon="13.6368597"><ele>786.0</ele><time>2026-05-03T08:23:37.028Z</time></trkpt><trkpt lat="42.2933138" lon="13.6369926"><ele>786.0</ele><time>2026-05-03T08:23:38.027Z</time></trkpt><trkpt lat="42.2932174" lon="13.63713"><ele>786.0</ele><time>2026-05-03T08:23:39.027Z</time></trkpt><trkpt lat="42.29312" lon="13.637273"><ele>786.0</ele><time>2026-05-03T08:23:40.027Z</time></trkpt><trkpt lat="42.2930238" lon="13.637412"><ele>786.0</ele><time>2026-05-03T08:23:41.027Z</time></trkpt><trkpt lat="42.292928" lon="13.6375502"><ele>786.0</ele><time>2026-05-03T08:23:42.027Z</time></trkpt><trkpt lat="42.2928326" lon="13.6376871"><ele>785.0</ele><time>2026-05-03T08:23:43.027Z</time></trkpt><trkpt lat="42.2927343" lon="13.6378219"><ele>784.0</ele><time>2026-05-03T08:23:44.027Z</time></trkpt><trkpt lat="42.2926366" lon="13.6379591"><ele>783.0</ele><time>2026-05-03T08:23:45.027Z</time></trkpt><trkpt lat="42.2925418" lon="13.6380946"><ele>782.0</ele><time>2026-05-03T08:23:46.027Z</time></trkpt><trkpt lat="42.2924448" lon="13.6382344"><ele>782.0</ele><time>2026-05-03T08:23:47.027Z</time></trkpt><trkpt lat="42.2923471" lon="13.6383708"><ele>782.0</ele><time>2026-05-03T08:23:48.027Z</time></trkpt><trkpt lat="42.2922477" lon="13.6385066"><ele>782.0</ele><time>2026-05-03T08:23:49.027Z</time></trkpt><trkpt lat="42.2921486" lon="13.6386433"><ele>782.0</ele><time>2026-05-03T08:23:50.027Z</time></trkpt><trkpt lat="42.292055" lon="13.638777"><ele>781.25</ele><time>2026-05-03T08:23:51.027Z</time></trkpt><trkpt lat="42.291962" lon="13.638909"><ele>780.5</ele><time>2026-05-03T08:23:52.027Z</time></trkpt><trkpt lat="42.2918658" lon="13.6390444"><ele>779.75</ele><time>2026-05-03T08:23:53.027Z</time></trkpt><trkpt lat="42.2917697" lon="13.6391789"><ele>779.0</ele><time>2026-05-03T08:23:54.027Z</time></trkpt><trkpt lat="42.2916685" lon="13.6393169"><ele>779.0</ele><time>2026-05-03T08:23:55.027Z</time></trkpt><trkpt lat="42.2915724" lon="13.6394541"><ele>779.0</ele><time>2026-05-03T08:23:56.027Z</time></trkpt><trkpt lat="42.2914773" lon="13.6395922"><ele>779.0</ele><time>2026-05-03T08:23:57.028Z</time></trkpt><trkpt lat="42.2913803" lon="13.639732"><ele>779.0</ele><time>2026-05-03T08:23:58.027Z</time></trkpt><trkpt lat="42.2912832" lon="13.639866"><ele>778.75</ele><time>2026-05-03T08:23:59.027Z</time></trkpt><trkpt lat="42.2911814" lon="13.6400031"><ele>778.5</ele><time>2026-05-03T08:24:00.027Z</time></trkpt><trkpt lat="42.2910847" lon="13.6401432"><ele>778.25</ele><time>2026-05-03T08:24:01.027Z</time></trkpt><trkpt lat="42.2909863" lon="13.6402832"><ele>778.0</ele><time>2026-05-03T08:24:02.027Z</time></trkpt><trkpt lat="42.2908873" lon="13.6404214"><ele>777.75</ele><time>2026-05-03T08:24:03.027Z</time></trkpt><trkpt lat="42.2907923" lon="13.6405607"><ele>777.5</ele><time>2026-05-03T08:24:04.027Z</time></trkpt><trkpt lat="42.2907012" lon="13.6406946"><ele>777.25</ele><time>2026-05-03T08:24:05.027Z</time></trkpt><trkpt lat="42.2906058" lon="13.6408285"><ele>777.0</ele><time>2026-05-03T08:24:06.027Z</time></trkpt><trkpt lat="42.2905126" lon="13.6409577"><ele>777.0</ele><time>2026-05-03T08:24:07.027Z</time></trkpt><trkpt lat="42.2904198" lon="13.6410847"><ele>777.0</ele><time>2026-05-03T08:24:08.027Z</time></trkpt><trkpt lat="42.2903291" lon="13.6412121"><ele>777.0</ele><time>2026-05-03T08:24:09.027Z</time></trkpt><trkpt lat="42.2902386" lon="13.6413425"><ele>777.0</ele><time>2026-05-03T08:24:10.027Z</time></trkpt><trkpt lat="42.2901461" lon="13.6414751"><ele>777.75</ele><time>2026-05-03T08:24:11.027Z</time></trkpt><trkpt lat="42.2900542" lon="13.6416067"><ele>778.5</ele><time>2026-05-03T08:24:12.027Z</time></trkpt><trkpt lat="42.289961" lon="13.6417403"><ele>779.25</ele><time>2026-05-03T08:24:13.028Z</time></trkpt><trkpt lat="42.289866" lon="13.6418762"><ele>780.0</ele><time>2026-05-03T08:24:14.027Z</time></trkpt><trkpt lat="42.2897701" lon="13.6420124"><ele>779.25</ele><time>2026-05-03T08:24:15.027Z</time></trkpt><trkpt lat="42.2896733" lon="13.6421502"><ele>778.5</ele><time>2026-05-03T08:24:16.027Z</time></trkpt><trkpt lat="42.2895738" lon="13.6422904"><ele>777.75</ele><time>2026-05-03T08:24:17.027Z</time></trkpt><trkpt lat="42.2894699" lon="13.6424321"><ele>777.0</ele><time>2026-05-03T08:24:18.027Z</time></trkpt><trkpt lat="42.2893627" lon="13.6425753"><ele>777.0</ele><time>2026-05-03T08:24:19.027Z</time></trkpt><trkpt lat="42.2892551" lon="13.6427209"><ele>777.0</ele><time>2026-05-03T08:24:20.027Z</time></trkpt><trkpt lat="42.289147" lon="13.6428688"><ele>777.0</ele><time>2026-05-03T08:24:21.027Z</time></trkpt><trkpt lat="42.2890392" lon="13.6430169"><ele>777.0</ele><time>2026-05-03T08:24:22.027Z</time></trkpt><trkpt lat="42.288931" lon="13.6431664"><ele>777.0</ele><time>2026-05-03T08:24:23.027Z</time></trkpt><trkpt lat="42.2888257" lon="13.6433081"><ele>777.0</ele><time>2026-05-03T08:24:24.027Z</time></trkpt><trkpt lat="42.2887268" lon="13.643441"><ele>777.0</ele><time>2026-05-03T08:24:25.027Z</time></trkpt><trkpt lat="42.2886305" lon="13.64357"><ele>776.5</ele><time>2026-05-03T08:24:26.027Z</time></trkpt><trkpt lat="42.2885349" lon="13.6436993"><ele>776.0</ele><time>2026-05-03T08:24:27.027Z</time></trkpt><trkpt lat="42.2884395" lon="13.6438254"><ele>775.5</ele><time>2026-05-03T08:24:28.028Z</time></trkpt><trkpt lat="42.2883418" lon="13.643949"><ele>775.0</ele><time>2026-05-03T08:24:29.027Z</time></trkpt><trkpt lat="42.2882447" lon="13.6440782"><ele>775.0</ele><time>2026-05-03T08:24:30.027Z</time></trkpt><trkpt lat="42.288144" lon="13.6442104"><ele>775.0</ele><time>2026-05-03T08:24:31.027Z</time></trkpt><trkpt lat="42.2880442" lon="13.6443468"><ele>775.0</ele><time>2026-05-03T08:24:32.027Z</time></trkpt><trkpt lat="42.2879443" lon="13.6444859"><ele>775.0</ele><time>2026-05-03T08:24:33.027Z</time></trkpt><trkpt lat="42.2878471" lon="13.6446224"><ele>775.25</ele><time>2026-05-03T08:24:34.027Z</time></trkpt><trkpt lat="42.2877496" lon="13.6447593"><ele>775.5</ele><time>2026-05-03T08:24:35.027Z</time></trkpt><trkpt lat="42.2876501" lon="13.6448951"><ele>775.75</ele><time>2026-05-03T08:24:36.027Z</time></trkpt><trkpt lat="42.2875534" lon="13.6450309"><ele>776.0</ele><time>2026-05-03T08:24:37.027Z</time></trkpt><trkpt lat="42.2874581" lon="13.6451656"><ele>775.75</ele><time>2026-05-03T08:24:38.028Z</time></trkpt><trkpt lat="42.2873641" lon="13.6453013"><ele>775.5</ele><time>2026-05-03T08:24:39.027Z</time></trkpt><trkpt lat="42.287263" lon="13.6454322"><ele>775.25</ele><time>2026-05-03T08:24:40.027Z</time></trkpt><trkpt lat="42.287161" lon="13.6455656"><ele>775.0</ele><time>2026-05-03T08:24:41.027Z</time></trkpt><trkpt lat="42.2870581" lon="13.6456963"><ele>773.75</ele><time>2026-05-03T08:24:42.027Z</time></trkpt><trkpt lat="42.2869554" lon="13.6458251"><ele>772.5</ele><time>2026-05-03T08:24:43.027Z</time></trkpt><trkpt lat="42.2868542" lon="13.6459554"><ele>771.25</ele><time>2026-05-03T08:24:44.027Z</time></trkpt><trkpt lat="42.2867575" lon="13.6460832"><ele>770.0</ele><time>2026-05-03T08:24:45.027Z</time></trkpt><trkpt lat="42.2866621" lon="13.6462116"><ele>770.0</ele><time>2026-05-03T08:24:46.027Z</time></trkpt><trkpt lat="42.2865683" lon="13.6463421"><ele>770.0</ele><time>2026-05-03T08:24:47.027Z</time></trkpt><trkpt lat="42.2864728" lon="13.6464733"><ele>770.0</ele><time>2026-05-03T08:24:48.027Z</time></trkpt><trkpt lat="42.2863785" lon="13.6466062"><ele>770.0</ele><time>2026-05-03T08:24:49.027Z</time></trkpt><trkpt lat="42.286283" lon="13.6467376"><ele>768.5</ele><time>2026-05-03T08:24:50.027Z</time></trkpt><trkpt lat="42.2861847" lon="13.646869"><ele>767.0</ele><time>2026-05-03T08:24:51.027Z</time></trkpt><trkpt lat="42.2860844" lon="13.6470042"><ele>765.5</ele><time>2026-05-03T08:24:52.027Z</time></trkpt><trkpt lat="42.2859819" lon="13.6471411"><ele>764.0</ele><time>2026-05-03T08:24:53.027Z</time></trkpt><trkpt lat="42.2858815" lon="13.6472739"><ele>764.0</ele><time>2026-05-03T08:24:54.027Z</time></trkpt><trkpt lat="42.285783" lon="13.6474038"><ele>764.0</ele><time>2026-05-03T08:24:55.028Z</time></trkpt><trkpt lat="42.2856859" lon="13.6475315"><ele>764.0</ele><time>2026-05-03T08:24:56.027Z</time></trkpt><trkpt lat="42.2855873" lon="13.6476556"><ele>764.0</ele><time>2026-05-03T08:24:57.027Z</time></trkpt><trkpt lat="42.285493" lon="13.647779"><ele>763.0</ele><time>2026-05-03T08:24:58.027Z</time></trkpt><trkpt lat="42.2854006" lon="13.6479017"><ele>762.0</ele><time>2026-05-03T08:24:59.027Z</time></trkpt><trkpt lat="42.2853097" lon="13.6480238"><ele>761.0</ele><time>2026-05-03T08:25:00.027Z</time></trkpt><trkpt lat="42.2852191" lon="13.6481424"><ele>760.0</ele><time>2026-05-03T08:25:01.027Z</time></trkpt><trkpt lat="42.2851301" lon="13.6482606"><ele>760.0</ele><time>2026-05-03T08:25:02.027Z</time></trkpt><trkpt lat="42.2850411" lon="13.648374"><ele>760.0</ele><time>2026-05-03T08:25:03.027Z</time></trkpt><trkpt lat="42.2849525" lon="13.6484884"><ele>760.0</ele><time>2026-05-03T08:25:04.027Z</time></trkpt><trkpt lat="42.2848655" lon="13.6486007"><ele>760.0</ele><time>2026-05-03T08:25:05.027Z</time></trkpt><trkpt lat="42.2847808" lon="13.6487153"><ele>760.0</ele><time>2026-05-03T08:25:06.027Z</time></trkpt><trkpt lat="42.2846969" lon="13.6488241"><ele>760.0</ele><time>2026-05-03T08:25:07.027Z</time></trkpt><trkpt lat="42.2846117" lon="13.6489318"><ele>760.0</ele><time>2026-05-03T08:25:08.027Z</time></trkpt><trkpt lat="42.2845257" lon="13.6490386"><ele>760.0</ele><time>2026-05-03T08:25:09.027Z</time></trkpt><trkpt lat="42.2844414" lon="13.649143"><ele>760.0</ele><time>2026-05-03T08:25:10.027Z</time></trkpt><trkpt lat="42.2843572" lon="13.6492461"><ele>760.0</ele><time>2026-05-03T08:25:11.027Z</time></trkpt><trkpt lat="42.2842741" lon="13.6493471"><ele>760.0</ele><time>2026-05-03T08:25:12.027Z</time></trkpt><trkpt lat="42.2841913" lon="13.6494487"><ele>760.0</ele><time>2026-05-03T08:25:13.027Z</time></trkpt><trkpt lat="42.2841094" lon="13.64955"><ele>760.0</ele><time>2026-05-03T08:25:14.027Z</time></trkpt><trkpt lat="42.2840276" lon="13.6496487"><ele>759.8</ele><time>2026-05-03T08:25:15.027Z</time></trkpt><trkpt lat="42.2839476" lon="13.6497473"><ele>759.6</ele><time>2026-05-03T08:25:16.027Z</time></trkpt><trkpt lat="42.2838674" lon="13.6498445"><ele>759.4000000000001</ele><time>2026-05-03T08:25:17.027Z</time></trkpt><trkpt lat="42.2837812" lon="13.6499404"><ele>759.2</ele><time>2026-05-03T08:25:18.027Z</time></trkpt><trkpt lat="42.2836927" lon="13.6500429"><ele>759.0</ele><time>2026-05-03T08:25:19.027Z</time></trkpt><trkpt lat="42.2835999" lon="13.6501535"><ele>758.25</ele><time>2026-05-03T08:25:20.027Z</time></trkpt><trkpt lat="42.2835044" lon="13.6502671"><ele>757.5</ele><time>2026-05-03T08:25:21.027Z</time></trkpt><trkpt lat="42.2834058" lon="13.6503867"><ele>756.75</ele><time>2026-05-03T08:25:22.027Z</time></trkpt><trkpt lat="42.2833096" lon="13.6505117"><ele>756.0</ele><time>2026-05-03T08:25:23.027Z</time></trkpt><trkpt lat="42.2832138" lon="13.6506403"><ele>756.0</ele><time>2026-05-03T08:25:24.027Z</time></trkpt><trkpt lat="42.2831171" lon="13.650769"><ele>756.0</ele><time>2026-05-03T08:25:25.027Z</time></trkpt><trkpt lat="42.2830196" lon="13.6509017"><ele>756.0</ele><time>2026-05-03T08:25:26.027Z</time></trkpt><trkpt lat="42.2829223" lon="13.6510344"><ele>756.0</ele><time>2026-05-03T08:25:27.027Z</time></trkpt><trkpt lat="42.2828237" lon="13.651167"><ele>755.75</ele><time>2026-05-03T08:25:28.027Z</time></trkpt><trkpt lat="42.2827244" lon="13.6513"><ele>755.5</ele><time>2026-05-03T08:25:29.028Z</time></trkpt><trkpt lat="42.2826273" lon="13.6514338"><ele>755.25</ele><time>2026-05-03T08:25:30.027Z</time></trkpt><trkpt lat="42.2825291" lon="13.6515682"><ele>755.0</ele><time>2026-05-03T08:25:31.027Z</time></trkpt><trkpt lat="42.2824323" lon="13.6517007"><ele>755.0</ele><time>2026-05-03T08:25:32.028Z</time></trkpt><trkpt lat="42.282338" lon="13.6518287"><ele>755.0</ele><time>2026-05-03T08:25:33.028Z</time></trkpt><trkpt lat="42.2822409" lon="13.6519572"><ele>755.0</ele><time>2026-05-03T08:25:34.028Z</time></trkpt><trkpt lat="42.282143" lon="13.6520873"><ele>755.0</ele><time>2026-05-03T08:25:35.027Z</time></trkpt><trkpt lat="42.2820484" lon="13.6522146"><ele>754.75</ele><time>2026-05-03T08:25:36.027Z</time></trkpt><trkpt lat="42.2819553" lon="13.6523412"><ele>754.5</ele><time>2026-05-03T08:25:37.027Z</time></trkpt><trkpt lat="42.2818595" lon="13.6524719"><ele>754.25</ele><time>2026-05-03T08:25:38.027Z</time></trkpt><trkpt lat="42.281765" lon="13.6525995"><ele>754.0</ele><time>2026-05-03T08:25:39.027Z</time></trkpt><trkpt lat="42.2816676" lon="13.6527285"><ele>754.5</ele><time>2026-05-03T08:25:40.027Z</time></trkpt><trkpt lat="42.2815703" lon="13.6528588"><ele>755.0</ele><time>2026-05-03T08:25:41.027Z</time></trkpt><trkpt lat="42.2814755" lon="13.6529891"><ele>755.5</ele><time>2026-05-03T08:25:42.027Z</time></trkpt><trkpt lat="42.281377" lon="13.6531183"><ele>756.0</ele><time>2026-05-03T08:25:43.027Z</time></trkpt><trkpt lat="42.2812799" lon="13.6532467"><ele>754.5</ele><time>2026-05-03T08:25:44.027Z</time></trkpt><trkpt lat="42.2811857" lon="13.6533787"><ele>753.0</ele><time>2026-05-03T08:25:45.027Z</time></trkpt><trkpt lat="42.2810886" lon="13.6535082"><ele>751.5</ele><time>2026-05-03T08:25:46.027Z</time></trkpt><trkpt lat="42.280994" lon="13.6536397"><ele>750.0</ele><time>2026-05-03T08:25:47.027Z</time></trkpt><trkpt lat="42.2809003" lon="13.6537716"><ele>749.75</ele><time>2026-05-03T08:25:48.027Z</time></trkpt><trkpt lat="42.2808053" lon="13.6539007"><ele>749.5</ele><time>2026-05-03T08:25:49.027Z</time></trkpt><trkpt lat="42.2807104" lon="13.6540286"><ele>749.25</ele><time>2026-05-03T08:25:50.027Z</time></trkpt><trkpt lat="42.2806145" lon="13.6541564"><ele>749.0</ele><time>2026-05-03T08:25:51.027Z</time></trkpt><trkpt lat="42.2805214" lon="13.654288"><ele>749.0</ele><time>2026-05-03T08:25:52.027Z</time></trkpt><trkpt lat="42.2804283" lon="13.654422"><ele>749.0</ele><time>2026-05-03T08:25:53.027Z</time></trkpt><trkpt lat="42.2803354" lon="13.6545596"><ele>749.0</ele><time>2026-05-03T08:25:54.027Z</time></trkpt><trkpt lat="42.2802425" lon="13.6546954"><ele>749.0</ele><time>2026-05-03T08:25:55.027Z</time></trkpt><trkpt lat="42.2801481" lon="13.6548291"><ele>750.0</ele><time>2026-05-03T08:25:56.028Z</time></trkpt><trkpt lat="42.2800549" lon="13.6549654"><ele>751.0</ele><time>2026-05-03T08:25:57.027Z</time></trkpt><trkpt lat="42.2799607" lon="13.6551018"><ele>752.0</ele><time>2026-05-03T08:25:58.027Z</time></trkpt><trkpt lat="42.2798667" lon="13.6552338"><ele>753.0</ele><time>2026-05-03T08:25:59.027Z</time></trkpt><trkpt lat="42.2797745" lon="13.655368"><ele>753.0</ele><time>2026-05-03T08:26:00.027Z</time></trkpt><trkpt lat="42.2796831" lon="13.6555044"><ele>753.0</ele><time>2026-05-03T08:26:01.027Z</time></trkpt><trkpt lat="42.2795892" lon="13.6556381"><ele>753.0</ele><time>2026-05-03T08:26:02.028Z</time></trkpt><trkpt lat="42.2794906" lon="13.6557667"><ele>753.0</ele><time>2026-05-03T08:26:03.027Z</time></trkpt><trkpt lat="42.2793932" lon="13.6558948"><ele>753.0</ele><time>2026-05-03T08:26:04.027Z</time></trkpt><trkpt lat="42.2792962" lon="13.656022"><ele>753.0</ele><time>2026-05-03T08:26:05.027Z</time></trkpt><trkpt lat="42.2791986" lon="13.6561513"><ele>753.0</ele><time>2026-05-03T08:26:06.027Z</time></trkpt><trkpt lat="42.2791013" lon="13.6562809"><ele>753.0</ele><time>2026-05-03T08:26:07.027Z</time></trkpt><trkpt lat="42.2790025" lon="13.6564105"><ele>752.25</ele><time>2026-05-03T08:26:08.027Z</time></trkpt><trkpt lat="42.2789028" lon="13.6565419"><ele>751.5</ele><time>2026-05-03T08:26:09.027Z</time></trkpt><trkpt lat="42.2788015" lon="13.6566756"><ele>750.75</ele><time>2026-05-03T08:26:10.027Z</time></trkpt><trkpt lat="42.2786997" lon="13.6568101"><ele>750.0</ele><time>2026-05-03T08:26:11.027Z</time></trkpt><trkpt lat="42.2785962" lon="13.6569458"><ele>751.0</ele><time>2026-05-03T08:26:12.027Z</time></trkpt><trkpt lat="42.2784918" lon="13.6570833"><ele>752.0</ele><time>2026-05-03T08:26:13.027Z</time></trkpt><trkpt lat="42.2783883" lon="13.6572207"><ele>753.0</ele><time>2026-05-03T08:26:14.027Z</time></trkpt><trkpt lat="42.278285" lon="13.6573568"><ele>754.0</ele><time>2026-05-03T08:26:15.027Z</time></trkpt><trkpt lat="42.2781814" lon="13.6574927"><ele>753.25</ele><time>2026-05-03T08:26:16.027Z</time></trkpt><trkpt lat="42.2780768" lon="13.6576288"><ele>752.5</ele><time>2026-05-03T08:26:17.027Z</time></trkpt><trkpt lat="42.2779738" lon="13.6577649"><ele>751.75</ele><time>2026-05-03T08:26:18.027Z</time></trkpt><trkpt lat="42.2778746" lon="13.6579018"><ele>751.0</ele><time>2026-05-03T08:26:19.027Z</time></trkpt><trkpt lat="42.2777742" lon="13.6580396"><ele>750.25</ele><time>2026-05-03T08:26:20.027Z</time></trkpt><trkpt lat="42.2776728" lon="13.6581774"><ele>749.5</ele><time>2026-05-03T08:26:21.028Z</time></trkpt><trkpt lat="42.2775703" lon="13.658314"><ele>748.75</ele><time>2026-05-03T08:26:22.027Z</time></trkpt><trkpt lat="42.2774676" lon="13.6584491"><ele>748.0</ele><time>2026-05-03T08:26:23.027Z</time></trkpt><trkpt lat="42.2773636" lon="13.6585843"><ele>748.0</ele><time>2026-05-03T08:26:24.027Z</time></trkpt><trkpt lat="42.2772609" lon="13.6587201"><ele>748.0</ele><time>2026-05-03T08:26:25.027Z</time></trkpt><trkpt lat="42.2771588" lon="13.6588561"><ele>748.0</ele><time>2026-05-03T08:26:26.027Z</time></trkpt><trkpt lat="42.2770568" lon="13.6589917"><ele>748.0</ele><time>2026-05-03T08:26:27.027Z</time></trkpt><trkpt lat="42.2769529" lon="13.6591279"><ele>748.0</ele><time>2026-05-03T08:26:28.027Z</time></trkpt><trkpt lat="42.276848" lon="13.6592638"><ele>748.0</ele><time>2026-05-03T08:26:29.027Z</time></trkpt><trkpt lat="42.2767473" lon="13.6593969"><ele>748.0</ele><time>2026-05-03T08:26:30.027Z</time></trkpt><trkpt lat="42.2766452" lon="13.6595329"><ele>748.0</ele><time>2026-05-03T08:26:31.027Z</time></trkpt><trkpt lat="42.2765446" lon="13.6596665"><ele>747.0</ele><time>2026-05-03T08:26:32.027Z</time></trkpt><trkpt lat="42.276441" lon="13.6597988"><ele>746.0</ele><time>2026-05-03T08:26:33.027Z</time></trkpt><trkpt lat="42.2763365" lon="13.6599302"><ele>745.0</ele><time>2026-05-03T08:26:34.027Z</time></trkpt><trkpt lat="42.2762315" lon="13.6600599"><ele>744.0</ele><time>2026-05-03T08:26:35.027Z</time></trkpt><trkpt lat="42.2761235" lon="13.6601901"><ele>744.0</ele><time>2026-05-03T08:26:36.027Z</time></trkpt><trkpt lat="42.2760136" lon="13.6603155"><ele>744.0</ele><time>2026-05-03T08:26:37.027Z</time></trkpt><trkpt lat="42.2759033" lon="13.6604355"><ele>744.0</ele><time>2026-05-03T08:26:38.027Z</time></trkpt><trkpt lat="42.2757907" lon="13.6605549"><ele>744.0</ele><time>2026-05-03T08:26:39.027Z</time></trkpt><trkpt lat="42.275674" lon="13.6606736"><ele>744.3333333333334</ele><time>2026-05-03T08:26:40.028Z</time></trkpt><trkpt lat="42.2755513" lon="13.6607969"><ele>744.6666666666667</ele><time>2026-05-03T08:26:41.028Z</time></trkpt><trkpt lat="42.2754228" lon="13.6609211"><ele>745.0</ele><time>2026-05-03T08:26:42.027Z</time></trkpt><trkpt lat="42.2752901" lon="13.66105"><ele>744.0</ele><time>2026-05-03T08:26:43.027Z</time></trkpt><trkpt lat="42.2751531" lon="13.6611845"><ele>743.0</ele><time>2026-05-03T08:26:44.027Z</time></trkpt><trkpt lat="42.2750112" lon="13.6613223"><ele>742.0</ele><time>2026-05-03T08:26:45.027Z</time></trkpt><trkpt lat="42.2748639" lon="13.661465"><ele>742.3333333333334</ele><time>2026-05-03T08:26:46.027Z</time></trkpt><trkpt lat="42.2747146" lon="13.6616131"><ele>742.6666666666666</ele><time>2026-05-03T08:26:47.027Z</time></trkpt><trkpt lat="42.2745658" lon="13.6617659"><ele>743.0</ele><time>2026-05-03T08:26:48.027Z</time></trkpt><trkpt lat="42.274422" lon="13.6619198"><ele>743.3333333333333</ele><time>2026-05-03T08:26:49.027Z</time></trkpt><trkpt lat="42.2742836" lon="13.6620734"><ele>743.6666666666666</ele><time>2026-05-03T08:26:50.027Z</time></trkpt><trkpt lat="42.2741502" lon="13.6622269"><ele>744.0</ele><time>2026-05-03T08:26:51.027Z</time></trkpt><trkpt lat="42.2740222" lon="13.6623793"><ele>743.6666666666666</ele><time>2026-05-03T08:26:52.027Z</time></trkpt><trkpt lat="42.2739015" lon="13.6625327"><ele>743.3333333333333</ele><time>2026-05-03T08:26:53.028Z</time></trkpt><trkpt lat="42.2737872" lon="13.6626839"><ele>743.0</ele><time>2026-05-03T08:26:54.027Z</time></trkpt><trkpt lat="42.2736777" lon="13.6628393"><ele>742.6666666666666</ele><time>2026-05-03T08:26:55.027Z</time></trkpt><trkpt lat="42.2735724" lon="13.6629934"><ele>742.3333333333334</ele><time>2026-05-03T08:26:56.027Z</time></trkpt><trkpt lat="42.2734687" lon="13.6631462"><ele>742.0</ele><time>2026-05-03T08:26:57.027Z</time></trkpt><trkpt lat="42.2733692" lon="13.6632999"><ele>742.0</ele><time>2026-05-03T08:26:58.027Z</time></trkpt><trkpt lat="42.2732733" lon="13.6634523"><ele>742.0</ele><time>2026-05-03T08:26:59.027Z</time></trkpt><trkpt lat="42.2731809" lon="13.6636016"><ele>742.0</ele><time>2026-05-03T08:27:00.027Z</time></trkpt><trkpt lat="42.2730901" lon="13.6637498"><ele>742.0</ele><time>2026-05-03T08:27:01.027Z</time></trkpt><trkpt lat="42.2730019" lon="13.663898"><ele>742.0</ele><time>2026-05-03T08:27:02.027Z</time></trkpt><trkpt lat="42.2729188" lon="13.6640496"><ele>742.0</ele><time>2026-05-03T08:27:03.027Z</time></trkpt><trkpt lat="42.2728369" lon="13.6642059"><ele>742.0</ele><time>2026-05-03T08:27:04.027Z</time></trkpt><trkpt lat="42.272755" lon="13.6643615"><ele>742.0</ele><time>2026-05-03T08:27:05.027Z</time></trkpt><trkpt lat="42.272673" lon="13.66452"><ele>742.0</ele><time>2026-05-03T08:27:06.027Z</time></trkpt><trkpt lat="42.2725931" lon="13.6646811"><ele>742.0</ele><time>2026-05-03T08:27:07.027Z</time></trkpt><trkpt lat="42.2725151" lon="13.6648431"><ele>742.0</ele><time>2026-05-03T08:27:08.027Z</time></trkpt><trkpt lat="42.2724376" lon="13.665009"><ele>742.0</ele><time>2026-05-03T08:27:09.027Z</time></trkpt><trkpt lat="42.2723631" lon="13.6651785"><ele>741.75</ele><time>2026-05-03T08:27:10.027Z</time></trkpt><trkpt lat="42.2722915" lon="13.6653457"><ele>741.5</ele><time>2026-05-03T08:27:11.027Z</time></trkpt><trkpt lat="42.2722202" lon="13.6655141"><ele>741.25</ele><time>2026-05-03T08:27:12.027Z</time></trkpt><trkpt lat="42.2721487" lon="13.6656896"><ele>741.0</ele><time>2026-05-03T08:27:13.027Z</time></trkpt><trkpt lat="42.2720796" lon="13.6658592"><ele>741.0</ele><time>2026-05-03T08:27:14.027Z</time></trkpt><trkpt lat="42.2720113" lon="13.6660295"><ele>741.0</ele><time>2026-05-03T08:27:15.027Z</time></trkpt><trkpt lat="42.2719458" lon="13.6661956"><ele>741.0</ele><time>2026-05-03T08:27:16.027Z</time></trkpt><trkpt lat="42.2718762" lon="13.6663581"><ele>741.0</ele><time>2026-05-03T08:27:17.027Z</time></trkpt><trkpt lat="42.2718048" lon="13.6665182"><ele>741.0</ele><time>2026-05-03T08:27:18.027Z</time></trkpt><trkpt lat="42.2717292" lon="13.6666837"><ele>741.0</ele><time>2026-05-03T08:27:19.027Z</time></trkpt><trkpt lat="42.2716528" lon="13.6668505"><ele>741.0</ele><time>2026-05-03T08:27:20.027Z</time></trkpt><trkpt lat="42.2715737" lon="13.6670098"><ele>741.0</ele><time>2026-05-03T08:27:21.027Z</time></trkpt><trkpt lat="42.2714909" lon="13.6671702"><ele>741.25</ele><time>2026-05-03T08:27:22.027Z</time></trkpt><trkpt lat="42.2714071" lon="13.6673325"><ele>741.5</ele><time>2026-05-03T08:27:23.027Z</time></trkpt><trkpt lat="42.2713234" lon="13.6674895"><ele>741.75</ele><time>2026-05-03T08:27:24.027Z</time></trkpt><trkpt lat="42.2712363" lon="13.6676424"><ele>742.0</ele><time>2026-05-03T08:27:25.027Z</time></trkpt><trkpt lat="42.2711483" lon="13.6677962"><ele>741.25</ele><time>2026-05-03T08:27:26.027Z</time></trkpt><trkpt lat="42.2710609" lon="13.6679496"><ele>740.5</ele><time>2026-05-03T08:27:27.027Z</time></trkpt><trkpt lat="42.2709702" lon="13.6681022"><ele>739.75</ele><time>2026-05-03T08:27:28.027Z</time></trkpt><trkpt lat="42.2708801" lon="13.6682507"><ele>739.0</ele><time>2026-05-03T08:27:29.027Z</time></trkpt><trkpt lat="42.2707887" lon="13.6683962"><ele>739.0</ele><time>2026-05-03T08:27:30.027Z</time></trkpt><trkpt lat="42.2706925" lon="13.6685414"><ele>739.0</ele><time>2026-05-03T08:27:31.027Z</time></trkpt><trkpt lat="42.2705928" lon="13.6686797"><ele>739.0</ele><time>2026-05-03T08:27:32.027Z</time></trkpt><trkpt lat="42.2704923" lon="13.66882"><ele>739.0</ele><time>2026-05-03T08:27:33.027Z</time></trkpt><trkpt lat="42.2703913" lon="13.6689579"><ele>739.25</ele><time>2026-05-03T08:27:34.028Z</time></trkpt><trkpt lat="42.2702877" lon="13.6690945"><ele>739.5</ele><time>2026-05-03T08:27:35.027Z</time></trkpt><trkpt lat="42.2701799" lon="13.6692263"><ele>739.75</ele><time>2026-05-03T08:27:36.027Z</time></trkpt><trkpt lat="42.2700725" lon="13.6693584"><ele>740.0</ele><time>2026-05-03T08:27:37.027Z</time></trkpt><trkpt lat="42.2699643" lon="13.6694891"><ele>740.25</ele><time>2026-05-03T08:27:38.027Z</time></trkpt><trkpt lat="42.2698574" lon="13.6696177"><ele>740.5</ele><time>2026-05-03T08:27:39.027Z</time></trkpt><trkpt lat="42.269748" lon="13.6697418"><ele>740.75</ele><time>2026-05-03T08:27:40.027Z</time></trkpt><trkpt lat="42.2696346" lon="13.6698647"><ele>741.0</ele><time>2026-05-03T08:27:41.027Z</time></trkpt><trkpt lat="42.2695191" lon="13.6699848"><ele>741.0</ele><time>2026-05-03T08:27:42.027Z</time></trkpt><trkpt lat="42.2694053" lon="13.6701007"><ele>741.0</ele><time>2026-05-03T08:27:43.027Z</time></trkpt><trkpt lat="42.2692909" lon="13.6702151"><ele>741.0</ele><time>2026-05-03T08:27:44.027Z</time></trkpt><trkpt lat="42.2691748" lon="13.670328"><ele>741.0</ele><time>2026-05-03T08:27:45.027Z</time></trkpt><trkpt lat="42.2690552" lon="13.6704382"><ele>740.75</ele><time>2026-05-03T08:27:46.027Z</time></trkpt><trkpt lat="42.2689373" lon="13.6705458"><ele>740.5</ele><time>2026-05-03T08:27:47.027Z</time></trkpt><trkpt lat="42.2688189" lon="13.6706545"><ele>740.25</ele><time>2026-05-03T08:27:48.027Z</time></trkpt><trkpt lat="42.2687022" lon="13.6707615"><ele>740.0</ele><time>2026-05-03T08:27:49.027Z</time></trkpt><trkpt lat="42.2685865" lon="13.6708703"><ele>740.0</ele><time>2026-05-03T08:27:50.027Z</time></trkpt><trkpt lat="42.2684681" lon="13.6709752"><ele>740.0</ele><time>2026-05-03T08:27:51.027Z</time></trkpt><trkpt lat="42.2683474" lon="13.6710796"><ele>740.0</ele><time>2026-05-03T08:27:52.027Z</time></trkpt><trkpt lat="42.2682278" lon="13.6711839"><ele>740.0</ele><time>2026-05-03T08:27:53.027Z</time></trkpt><trkpt lat="42.2681083" lon="13.6712896"><ele>740.5</ele><time>2026-05-03T08:27:54.027Z</time></trkpt><trkpt lat="42.2679903" lon="13.6713963"><ele>741.0</ele><time>2026-05-03T08:27:55.027Z</time></trkpt><trkpt lat="42.2678733" lon="13.6715104"><ele>741.5</ele><time>2026-05-03T08:27:56.028Z</time></trkpt><trkpt lat="42.2677594" lon="13.6716267"><ele>742.0</ele><time>2026-05-03T08:27:57.027Z</time></trkpt><trkpt lat="42.267645" lon="13.6717485"><ele>742.0</ele><time>2026-05-03T08:27:58.027Z</time></trkpt><trkpt lat="42.2675344" lon="13.6718711"><ele>742.0</ele><time>2026-05-03T08:27:59.028Z</time></trkpt><trkpt lat="42.2674215" lon="13.6719963"><ele>742.0</ele><time>2026-05-03T08:28:00.027Z</time></trkpt><trkpt lat="42.2673124" lon="13.6721226"><ele>742.0</ele><time>2026-05-03T08:28:01.027Z</time></trkpt><trkpt lat="42.2672056" lon="13.6722499"><ele>742.5</ele><time>2026-05-03T08:28:02.027Z</time></trkpt><trkpt lat="42.2671004" lon="13.6723795"><ele>743.0</ele><time>2026-05-03T08:28:03.027Z</time></trkpt><trkpt lat="42.2669941" lon="13.6725101"><ele>743.5</ele><time>2026-05-03T08:28:04.028Z</time></trkpt><trkpt lat="42.2668884" lon="13.6726412"><ele>744.0</ele><time>2026-05-03T08:28:05.027Z</time></trkpt><trkpt lat="42.2667846" lon="13.6727756"><ele>744.0</ele><time>2026-05-03T08:28:06.027Z</time></trkpt><trkpt lat="42.2666813" lon="13.672911"><ele>744.0</ele><time>2026-05-03T08:28:07.027Z</time></trkpt><trkpt lat="42.2665778" lon="13.6730479"><ele>744.0</ele><time>2026-05-03T08:28:08.027Z</time></trkpt><trkpt lat="42.2664731" lon="13.673184"><ele>744.0</ele><time>2026-05-03T08:28:09.027Z</time></trkpt><trkpt lat="42.2663689" lon="13.673318"><ele>744.25</ele><time>2026-05-03T08:28:10.027Z</time></trkpt><trkpt lat="42.2662658" lon="13.6734512"><ele>744.5</ele><time>2026-05-03T08:28:11.027Z</time></trkpt><trkpt lat="42.2661632" lon="13.6735869"><ele>744.75</ele><time>2026-05-03T08:28:12.027Z</time></trkpt><trkpt lat="42.2660622" lon="13.6737235"><ele>745.0</ele><time>2026-05-03T08:28:13.027Z</time></trkpt><trkpt lat="42.2659618" lon="13.67386"><ele>744.25</ele><time>2026-05-03T08:28:14.027Z</time></trkpt><trkpt lat="42.2658606" lon="13.6739918"><ele>743.5</ele><time>2026-05-03T08:28:15.027Z</time></trkpt><trkpt lat="42.26576" lon="13.6741168"><ele>742.75</ele><time>2026-05-03T08:28:16.027Z</time></trkpt><trkpt lat="42.2656664" lon="13.6742363"><ele>742.0</ele><time>2026-05-03T08:28:17.027Z</time></trkpt><trkpt lat="42.2655797" lon="13.6743485"><ele>742.0</ele><time>2026-05-03T08:28:18.027Z</time></trkpt><trkpt lat="42.2654968" lon="13.6744482"><ele>742.0</ele><time>2026-05-03T08:28:19.027Z</time></trkpt><trkpt lat="42.2654104" lon="13.674537"><ele>742.0</ele><time>2026-05-03T08:28:20.027Z</time></trkpt><trkpt lat="42.265317" lon="13.6746134"><ele>742.0</ele><time>2026-05-03T08:28:21.027Z</time></trkpt><trkpt lat="42.2652151" lon="13.6746734"><ele>742.0</ele><time>2026-05-03T08:28:22.028Z</time></trkpt><trkpt lat="42.2651071" lon="13.6747209"><ele>742.0</ele><time>2026-05-03T08:28:23.027Z</time></trkpt><trkpt lat="42.2650049" lon="13.6747686"><ele>742.0</ele><time>2026-05-03T08:28:24.027Z</time></trkpt><trkpt lat="42.2649084" lon="13.6748439"><ele>742.0</ele><time>2026-05-03T08:28:25.027Z</time></trkpt><trkpt lat="42.2648223" lon="13.6749385"><ele>742.0</ele><time>2026-05-03T08:28:26.027Z</time></trkpt><trkpt lat="42.2647419" lon="13.675051"><ele>742.0</ele><time>2026-05-03T08:28:27.027Z</time></trkpt><trkpt lat="42.2646694" lon="13.6751814"><ele>742.25</ele><time>2026-05-03T08:28:28.027Z</time></trkpt><trkpt lat="42.2646057" lon="13.675328"><ele>742.5</ele><time>2026-05-03T08:28:29.027Z</time></trkpt><trkpt lat="42.2645497" lon="13.6754888"><ele>742.75</ele><time>2026-05-03T08:28:30.027Z</time></trkpt><trkpt lat="42.2644948" lon="13.6756577"><ele>743.0</ele><time>2026-05-03T08:28:31.027Z</time></trkpt><trkpt lat="42.2644295" lon="13.6758252"><ele>743.0</ele><time>2026-05-03T08:28:32.027Z</time></trkpt><trkpt lat="42.2643412" lon="13.6759801"><ele>743.0</ele><time>2026-05-03T08:28:33.027Z</time></trkpt><trkpt lat="42.2642347" lon="13.6761194"><ele>743.0</ele><time>2026-05-03T08:28:34.027Z</time></trkpt><trkpt lat="42.2641185" lon="13.6762555"><ele>743.0</ele><time>2026-05-03T08:28:35.027Z</time></trkpt><trkpt lat="42.2639958" lon="13.6764023"><ele>743.3333333333333</ele><time>2026-05-03T08:28:36.027Z</time></trkpt><trkpt lat="42.2638726" lon="13.6765558"><ele>743.6666666666666</ele><time>2026-05-03T08:28:37.027Z</time></trkpt><trkpt lat="42.2637447" lon="13.6767134"><ele>744.0</ele><time>2026-05-03T08:28:38.027Z</time></trkpt><trkpt lat="42.2636171" lon="13.676873"><ele>744.0</ele><time>2026-05-03T08:28:39.027Z</time></trkpt><trkpt lat="42.2634977" lon="13.6770274"><ele>744.0</ele><time>2026-05-03T08:28:40.028Z</time></trkpt><trkpt lat="42.2633846" lon="13.6771758"><ele>744.0</ele><time>2026-05-03T08:28:41.027Z</time></trkpt><trkpt lat="42.2632718" lon="13.6773193"><ele>744.0</ele><time>2026-05-03T08:28:42.027Z</time></trkpt><trkpt lat="42.2631623" lon="13.6774601"><ele>744.0</ele><time>2026-05-03T08:28:43.027Z</time></trkpt><trkpt lat="42.2630529" lon="13.6775986"><ele>744.0</ele><time>2026-05-03T08:28:44.027Z</time></trkpt><trkpt lat="42.262948" lon="13.6777329"><ele>744.0</ele><time>2026-05-03T08:28:45.027Z</time></trkpt><trkpt lat="42.2628478" lon="13.6778681"><ele>743.75</ele><time>2026-05-03T08:28:46.027Z</time></trkpt><trkpt lat="42.2627478" lon="13.6780011"><ele>743.5</ele><time>2026-05-03T08:28:47.027Z</time></trkpt><trkpt lat="42.2626416" lon="13.6781412"><ele>743.25</ele><time>2026-05-03T08:28:48.027Z</time></trkpt><trkpt lat="42.2625362" lon="13.6782751"><ele>743.0</ele><time>2026-05-03T08:28:49.027Z</time></trkpt><trkpt lat="42.2624292" lon="13.6784207"><ele>743.0</ele><time>2026-05-03T08:28:50.027Z</time></trkpt><trkpt lat="42.2623184" lon="13.6785619"><ele>743.0</ele><time>2026-05-03T08:28:51.027Z</time></trkpt><trkpt lat="42.2622117" lon="13.6787036"><ele>743.0</ele><time>2026-05-03T08:28:52.027Z</time></trkpt><trkpt lat="42.262109" lon="13.6788435"><ele>743.0</ele><time>2026-05-03T08:28:53.027Z</time></trkpt><trkpt lat="42.2620094" lon="13.6789788"><ele>742.5</ele><time>2026-05-03T08:28:54.027Z</time></trkpt><trkpt lat="42.2619069" lon="13.6791205"><ele>742.0</ele><time>2026-05-03T08:28:55.027Z</time></trkpt><trkpt lat="42.2618021" lon="13.6792634"><ele>741.5</ele><time>2026-05-03T08:28:56.027Z</time></trkpt><trkpt lat="42.2617013" lon="13.6793992"><ele>741.0</ele><time>2026-05-03T08:28:57.027Z</time></trkpt><trkpt lat="42.261602" lon="13.6795305"><ele>740.5</ele><time>2026-05-03T08:28:58.027Z</time></trkpt><trkpt lat="42.2615002" lon="13.6796708"><ele>740.0</ele><time>2026-05-03T08:28:59.027Z</time></trkpt><trkpt lat="42.2613965" lon="13.6798111"><ele>739.5</ele><time>2026-05-03T08:29:00.027Z</time></trkpt><trkpt lat="42.2612933" lon="13.6799495"><ele>739.0</ele><time>2026-05-03T08:29:01.027Z</time></trkpt><trkpt lat="42.2611861" lon="13.6800892"><ele>739.5</ele><time>2026-05-03T08:29:02.027Z</time></trkpt><trkpt lat="42.2610788" lon="13.6802242"><ele>740.0</ele><time>2026-05-03T08:29:03.027Z</time></trkpt><trkpt lat="42.2609741" lon="13.680364"><ele>740.5</ele><time>2026-05-03T08:29:04.027Z</time></trkpt><trkpt lat="42.2608711" lon="13.6805057"><ele>741.0</ele><time>2026-05-03T08:29:05.027Z</time></trkpt><trkpt lat="42.2607678" lon="13.6806423"><ele>741.0</ele><time>2026-05-03T08:29:06.027Z</time></trkpt><trkpt lat="42.2606638" lon="13.6807801"><ele>741.0</ele><time>2026-05-03T08:29:07.027Z</time></trkpt><trkpt lat="42.2605594" lon="13.6809189"><ele>741.0</ele><time>2026-05-03T08:29:08.027Z</time></trkpt><trkpt lat="42.2604539" lon="13.6810563"><ele>741.0</ele><time>2026-05-03T08:29:09.027Z</time></trkpt><trkpt lat="42.2603491" lon="13.6811932"><ele>740.5</ele><time>2026-05-03T08:29:10.027Z</time></trkpt><trkpt lat="42.2602448" lon="13.6813287"><ele>740.0</ele><time>2026-05-03T08:29:11.027Z</time></trkpt><trkpt lat="42.2601412" lon="13.6814709"><ele>739.5</ele><time>2026-05-03T08:29:12.027Z</time></trkpt><trkpt lat="42.2600363" lon="13.6816093"><ele>739.0</ele><time>2026-05-03T08:29:13.027Z</time></trkpt><trkpt lat="42.2599311" lon="13.6817466"><ele>739.0</ele><time>2026-05-03T08:29:14.027Z</time></trkpt><trkpt lat="42.259826" lon="13.6818857"><ele>739.0</ele><time>2026-05-03T08:29:15.027Z</time></trkpt><trkpt lat="42.2597255" lon="13.6820244"><ele>739.0</ele><time>2026-05-03T08:29:16.027Z</time></trkpt><trkpt lat="42.2596212" lon="13.6821619"><ele>739.0</ele><time>2026-05-03T08:29:17.027Z</time></trkpt><trkpt lat="42.259517" lon="13.682297"><ele>738.5</ele><time>2026-05-03T08:29:18.027Z</time></trkpt><trkpt lat="42.2594142" lon="13.6824362"><ele>738.0</ele><time>2026-05-03T08:29:19.027Z</time></trkpt><trkpt lat="42.2593117" lon="13.6825735"><ele>737.5</ele><time>2026-05-03T08:29:20.027Z</time></trkpt><trkpt lat="42.2592065" lon="13.6827109"><ele>737.0</ele><time>2026-05-03T08:29:21.027Z</time></trkpt><trkpt lat="42.2591023" lon="13.6828529"><ele>736.75</ele><time>2026-05-03T08:29:22.027Z</time></trkpt><trkpt lat="42.258998" lon="13.682987"><ele>736.5</ele><time>2026-05-03T08:29:23.027Z</time></trkpt><trkpt lat="42.2589039" lon="13.6831079"><ele>736.25</ele><time>2026-05-03T08:29:24.027Z</time></trkpt><trkpt lat="42.2588152" lon="13.6832278"><ele>736.0</ele><time>2026-05-03T08:29:25.027Z</time></trkpt><trkpt lat="42.2587259" lon="13.6833457"><ele>736.0</ele><time>2026-05-03T08:29:26.027Z</time></trkpt><trkpt lat="42.2586439" lon="13.6834542"><ele>736.0</ele><time>2026-05-03T08:29:27.027Z</time></trkpt><trkpt lat="42.2585658" lon="13.6835556"><ele>736.0</ele><time>2026-05-03T08:29:28.027Z</time></trkpt><trkpt lat="42.2584884" lon="13.6836578"><ele>736.0</ele><time>2026-05-03T08:29:29.027Z</time></trkpt><trkpt lat="42.2584133" lon="13.6837542"><ele>736.0</ele><time>2026-05-03T08:29:30.027Z</time></trkpt><trkpt lat="42.2583299" lon="13.6838358"><ele>736.1999999999999</ele><time>2026-05-03T08:29:31.027Z</time></trkpt><trkpt lat="42.2582374" lon="13.6839041"><ele>736.4</ele><time>2026-05-03T08:29:32.027Z</time></trkpt><trkpt lat="42.2581359" lon="13.6839604"><ele>736.6</ele><time>2026-05-03T08:29:33.027Z</time></trkpt><trkpt lat="42.2580291" lon="13.6839999"><ele>736.8</ele><time>2026-05-03T08:29:34.027Z</time></trkpt><trkpt lat="42.2579317" lon="13.6840601"><ele>737.0</ele><time>2026-05-03T08:29:35.027Z</time></trkpt><trkpt lat="42.2578353" lon="13.6841428"><ele>737.0</ele><time>2026-05-03T08:29:36.027Z</time></trkpt><trkpt lat="42.2577466" lon="13.6842412"><ele>737.0</ele><time>2026-05-03T08:29:37.028Z</time></trkpt><trkpt lat="42.2576621" lon="13.684361"><ele>737.0</ele><time>2026-05-03T08:29:38.028Z</time></trkpt><trkpt lat="42.2575838" lon="13.6844996"><ele>737.0</ele><time>2026-05-03T08:29:39.027Z</time></trkpt><trkpt lat="42.2575209" lon="13.6846561"><ele>736.75</ele><time>2026-05-03T08:29:40.027Z</time></trkpt><trkpt lat="42.2574637" lon="13.6848268"><ele>736.5</ele><time>2026-05-03T08:29:41.027Z</time></trkpt><trkpt lat="42.2574039" lon="13.6850013"><ele>736.25</ele><time>2026-05-03T08:29:42.027Z</time></trkpt><trkpt lat="42.2573332" lon="13.6851723"><ele>736.0</ele><time>2026-05-03T08:29:43.027Z</time></trkpt><trkpt lat="42.2572408" lon="13.685334"><ele>734.6666666666667</ele><time>2026-05-03T08:29:44.027Z</time></trkpt><trkpt lat="42.2571316" lon="13.685486"><ele>733.3333333333334</ele><time>2026-05-03T08:29:45.028Z</time></trkpt><trkpt lat="42.2570135" lon="13.6856325"><ele>732.0</ele><time>2026-05-03T08:29:46.027Z</time></trkpt><trkpt lat="42.2568909" lon="13.6857817"><ele>732.0</ele><time>2026-05-03T08:29:47.027Z</time></trkpt><trkpt lat="42.2567697" lon="13.6859371"><ele>732.0</ele><time>2026-05-03T08:29:48.027Z</time></trkpt><trkpt lat="42.2566491" lon="13.6860909"><ele>732.0</ele><time>2026-05-03T08:29:49.027Z</time></trkpt><trkpt lat="42.2565342" lon="13.6862399"><ele>731.3333333333334</ele><time>2026-05-03T08:29:50.027Z</time></trkpt><trkpt lat="42.256419" lon="13.6863861"><ele>730.6666666666667</ele><time>2026-05-03T08:29:51.027Z</time></trkpt><trkpt lat="42.2563099" lon="13.6865302"><ele>730.0</ele><time>2026-05-03T08:29:52.027Z</time></trkpt><trkpt lat="42.2562046" lon="13.6866752"><ele>730.0</ele><time>2026-05-03T08:29:53.027Z</time></trkpt><trkpt lat="42.2561" lon="13.6868128"><ele>730.0</ele><time>2026-05-03T08:29:54.027Z</time></trkpt><trkpt lat="42.2559969" lon="13.68695"><ele>730.0</ele><time>2026-05-03T08:29:55.027Z</time></trkpt><trkpt lat="42.2558955" lon="13.6870829"><ele>730.0</ele><time>2026-05-03T08:29:56.027Z</time></trkpt><trkpt lat="42.2557967" lon="13.6872119"><ele>730.25</ele><time>2026-05-03T08:29:57.027Z</time></trkpt><trkpt lat="42.2557" lon="13.6873398"><ele>730.5</ele><time>2026-05-03T08:29:58.027Z</time></trkpt><trkpt lat="42.2556035" lon="13.687465"><ele>730.75</ele><time>2026-05-03T08:29:59.027Z</time></trkpt><trkpt lat="42.2555089" lon="13.6875887"><ele>731.0</ele><time>2026-05-03T08:30:00.027Z</time></trkpt><trkpt lat="42.2554152" lon="13.6877135"><ele>730.75</ele><time>2026-05-03T08:30:01.027Z</time></trkpt><trkpt lat="42.2553226" lon="13.6878384"><ele>730.5</ele><time>2026-05-03T08:30:02.027Z</time></trkpt><trkpt lat="42.2552254" lon="13.6879637"><ele>730.25</ele><time>2026-05-03T08:30:03.027Z</time></trkpt><trkpt lat="42.255128" lon="13.6880895"><ele>730.0</ele><time>2026-05-03T08:30:04.028Z</time></trkpt><trkpt lat="42.2550347" lon="13.6882165"><ele>730.0</ele><time>2026-05-03T08:30:05.027Z</time></trkpt><trkpt lat="42.2549374" lon="13.688345"><ele>730.0</ele><time>2026-05-03T08:30:06.027Z</time></trkpt><trkpt lat="42.254841" lon="13.6884758"><ele>730.0</ele><time>2026-05-03T08:30:07.027Z</time></trkpt><trkpt lat="42.2547461" lon="13.6886047"><ele>730.0</ele><time>2026-05-03T08:30:08.027Z</time></trkpt><trkpt lat="42.254653" lon="13.6887343"><ele>730.0</ele><time>2026-05-03T08:30:09.027Z</time></trkpt><trkpt lat="42.2545571" lon="13.6888593"><ele>730.0</ele><time>2026-05-03T08:30:10.027Z</time></trkpt><trkpt lat="42.2544612" lon="13.6889862"><ele>730.0</ele><time>2026-05-03T08:30:11.027Z</time></trkpt><trkpt lat="42.2543672" lon="13.6891099"><ele>730.0</ele><time>2026-05-03T08:30:12.027Z</time></trkpt><trkpt lat="42.2542708" lon="13.6892346"><ele>730.0</ele><time>2026-05-03T08:30:13.028Z</time></trkpt><trkpt lat="42.2541782" lon="13.6893601"><ele>730.0</ele><time>2026-05-03T08:30:14.027Z</time></trkpt><trkpt lat="42.2540812" lon="13.6894882"><ele>730.0</ele><time>2026-05-03T08:30:15.027Z</time></trkpt><trkpt lat="42.2539859" lon="13.6896163"><ele>730.0</ele><time>2026-05-03T08:30:16.027Z</time></trkpt><trkpt lat="42.2538953" lon="13.6897434"><ele>729.5</ele><time>2026-05-03T08:30:17.027Z</time></trkpt><trkpt lat="42.2538006" lon="13.6898696"><ele>729.0</ele><time>2026-05-03T08:30:18.027Z</time></trkpt><trkpt lat="42.2537104" lon="13.6899948"><ele>728.5</ele><time>2026-05-03T08:30:19.027Z</time></trkpt><trkpt lat="42.253608" lon="13.6901188"><ele>728.0</ele><time>2026-05-03T08:30:20.027Z</time></trkpt><trkpt lat="42.2535123" lon="13.6902416"><ele>727.5</ele><time>2026-05-03T08:30:21.028Z</time></trkpt><trkpt lat="42.2534169" lon="13.6903715"><ele>727.0</ele><time>2026-05-03T08:30:22.027Z</time></trkpt><trkpt lat="42.2533207" lon="13.6904941"><ele>726.5</ele><time>2026-05-03T08:30:23.027Z</time></trkpt><trkpt lat="42.2532274" lon="13.6906212"><ele>726.0</ele><time>2026-05-03T08:30:24.027Z</time></trkpt><trkpt lat="42.2531286" lon="13.690745"><ele>726.0</ele><time>2026-05-03T08:30:25.027Z</time></trkpt><trkpt lat="42.2530316" lon="13.6908715"><ele>726.0</ele><time>2026-05-03T08:30:26.027Z</time></trkpt><trkpt lat="42.2529367" lon="13.6909966"><ele>726.0</ele><time>2026-05-03T08:30:27.027Z</time></trkpt><trkpt lat="42.2528399" lon="13.6911234"><ele>726.0</ele><time>2026-05-03T08:30:28.027Z</time></trkpt><trkpt lat="42.2527422" lon="13.6912456"><ele>726.0</ele><time>2026-05-03T08:30:29.027Z</time></trkpt><trkpt lat="42.2526443" lon="13.6913714"><ele>726.0</ele><time>2026-05-03T08:30:30.027Z</time></trkpt><trkpt lat="42.2525453" lon="13.6914996"><ele>726.0</ele><time>2026-05-03T08:30:31.027Z</time></trkpt><trkpt lat="42.2524474" lon="13.6916298"><ele>726.0</ele><time>2026-05-03T08:30:32.027Z</time></trkpt><trkpt lat="42.2523504" lon="13.6917574"><ele>726.25</ele><time>2026-05-03T08:30:33.027Z</time></trkpt><trkpt lat="42.2522516" lon="13.6918842"><ele>726.5</ele><time>2026-05-03T08:30:34.027Z</time></trkpt><trkpt lat="42.2521532" lon="13.6920123"><ele>726.75</ele><time>2026-05-03T08:30:35.027Z</time></trkpt><trkpt lat="42.2520581" lon="13.6921414"><ele>727.0</ele><time>2026-05-03T08:30:36.027Z</time></trkpt><trkpt lat="42.2519627" lon="13.6922702"><ele>727.0</ele><time>2026-05-03T08:30:37.028Z</time></trkpt><trkpt lat="42.2518653" lon="13.6923978"><ele>727.0</ele><time>2026-05-03T08:30:38.027Z</time></trkpt><trkpt lat="42.2517673" lon="13.6925253"><ele>727.0</ele><time>2026-05-03T08:30:39.027Z</time></trkpt><trkpt lat="42.2516698" lon="13.6926535"><ele>727.0</ele><time>2026-05-03T08:30:40.027Z</time></trkpt><trkpt lat="42.2515721" lon="13.6927812"><ele>726.75</ele><time>2026-05-03T08:30:41.027Z</time></trkpt><trkpt lat="42.2514748" lon="13.6929093"><ele>726.5</ele><time>2026-05-03T08:30:42.027Z</time></trkpt><trkpt lat="42.2513783" lon="13.6930379"><ele>726.25</ele><time>2026-05-03T08:30:43.027Z</time></trkpt><trkpt lat="42.2512807" lon="13.6931674"><ele>726.0</ele><time>2026-05-03T08:30:44.027Z</time></trkpt><trkpt lat="42.2511825" lon="13.6932986"><ele>725.5</ele><time>2026-05-03T08:30:45.027Z</time></trkpt><trkpt lat="42.2510851" lon="13.6934286"><ele>725.0</ele><time>2026-05-03T08:30:46.027Z</time></trkpt><trkpt lat="42.2509882" lon="13.6935568"><ele>724.5</ele><time>2026-05-03T08:30:47.027Z</time></trkpt><trkpt lat="42.2508905" lon="13.693687"><ele>724.0</ele><time>2026-05-03T08:30:48.027Z</time></trkpt><trkpt lat="42.2507925" lon="13.6938155"><ele>724.25</ele><time>2026-05-03T08:30:49.027Z</time></trkpt><trkpt lat="42.2506946" lon="13.6939429"><ele>724.5</ele><time>2026-05-03T08:30:50.027Z</time></trkpt><trkpt lat="42.2505931" lon="13.6940703"><ele>724.75</ele><time>2026-05-03T08:30:51.027Z</time></trkpt><trkpt lat="42.2504952" lon="13.6941986"><ele>725.0</ele><time>2026-05-03T08:30:52.027Z</time></trkpt><trkpt lat="42.250399" lon="13.6943314"><ele>724.0</ele><time>2026-05-03T08:30:53.027Z</time></trkpt><trkpt lat="42.2503016" lon="13.6944674"><ele>723.0</ele><time>2026-05-03T08:30:54.027Z</time></trkpt><trkpt lat="42.2502046" lon="13.6945999"><ele>722.0</ele><time>2026-05-03T08:30:55.027Z</time></trkpt><trkpt lat="42.2501071" lon="13.6947323"><ele>721.0</ele><time>2026-05-03T08:30:56.027Z</time></trkpt><trkpt lat="42.2500124" lon="13.6948703"><ele>721.0</ele><time>2026-05-03T08:30:57.027Z</time></trkpt><trkpt lat="42.2499186" lon="13.6950123"><ele>721.0</ele><time>2026-05-03T08:30:58.027Z</time></trkpt><trkpt lat="42.2498274" lon="13.6951556"><ele>721.0</ele><time>2026-05-03T08:30:59.027Z</time></trkpt><trkpt lat="42.249734" lon="13.6952951"><ele>721.0</ele><time>2026-05-03T08:31:00.027Z</time></trkpt><trkpt lat="42.2496418" lon="13.6954336"><ele>722.75</ele><time>2026-05-03T08:31:01.027Z</time></trkpt><trkpt lat="42.2495488" lon="13.6955717"><ele>724.5</ele><time>2026-05-03T08:31:02.027Z</time></trkpt><trkpt lat="42.2494527" lon="13.6957123"><ele>726.25</ele><time>2026-05-03T08:31:03.027Z</time></trkpt><trkpt lat="42.2493557" lon="13.6958546"><ele>728.0</ele><time>2026-05-03T08:31:04.027Z</time></trkpt><trkpt lat="42.2492556" lon="13.6959975"><ele>727.5</ele><time>2026-05-03T08:31:05.027Z</time></trkpt><trkpt lat="42.249155" lon="13.6961394"><ele>727.0</ele><time>2026-05-03T08:31:06.027Z</time></trkpt><trkpt lat="42.2490526" lon="13.6962803"><ele>726.5</ele><time>2026-05-03T08:31:07.027Z</time></trkpt><trkpt lat="42.2489479" lon="13.6964228"><ele>726.0</ele><time>2026-05-03T08:31:08.027Z</time></trkpt><trkpt lat="42.2488389" lon="13.6965634"><ele>725.6666666666666</ele><time>2026-05-03T08:31:09.027Z</time></trkpt><trkpt lat="42.2487263" lon="13.6967012"><ele>725.3333333333333</ele><time>2026-05-03T08:31:10.027Z</time></trkpt><trkpt lat="42.2486122" lon="13.6968405"><ele>725.0</ele><time>2026-05-03T08:31:11.027Z</time></trkpt><trkpt lat="42.2484958" lon="13.6969806"><ele>724.75</ele><time>2026-05-03T08:31:12.027Z</time></trkpt><trkpt lat="42.248384" lon="13.6971152"><ele>724.5</ele><time>2026-05-03T08:31:13.027Z</time></trkpt><trkpt lat="42.2482734" lon="13.697247"><ele>724.25</ele><time>2026-05-03T08:31:14.027Z</time></trkpt><trkpt lat="42.2481631" lon="13.6973713"><ele>724.0</ele><time>2026-05-03T08:31:15.027Z</time></trkpt><trkpt lat="42.2480623" lon="13.697477"><ele>724.75</ele><time>2026-05-03T08:31:16.027Z</time></trkpt><trkpt lat="42.2479604" lon="13.6975571"><ele>725.5</ele><time>2026-05-03T08:31:17.027Z</time></trkpt><trkpt lat="42.2478503" lon="13.6976125"><ele>726.25</ele><time>2026-05-03T08:31:18.027Z</time></trkpt><trkpt lat="42.247734" lon="13.6976532"><ele>727.0</ele><time>2026-05-03T08:31:19.027Z</time></trkpt><trkpt lat="42.2476176" lon="13.6977"><ele>727.0</ele><time>2026-05-03T08:31:20.027Z</time></trkpt><trkpt lat="42.2475016" lon="13.6977714"><ele>727.0</ele><time>2026-05-03T08:31:21.027Z</time></trkpt><trkpt lat="42.2473939" lon="13.6978696"><ele>727.0</ele><time>2026-05-03T08:31:22.027Z</time></trkpt><trkpt lat="42.2472993" lon="13.697988"><ele>727.0</ele><time>2026-05-03T08:31:23.027Z</time></trkpt><trkpt lat="42.2472194" lon="13.6981217"><ele>727.0</ele><time>2026-05-03T08:31:24.027Z</time></trkpt><trkpt lat="42.2471496" lon="13.698273"><ele>727.0</ele><time>2026-05-03T08:31:25.027Z</time></trkpt><trkpt lat="42.2470941" lon="13.6984415"><ele>727.0</ele><time>2026-05-03T08:31:26.027Z</time></trkpt><trkpt lat="42.2470346" lon="13.6986118"><ele>727.0</ele><time>2026-05-03T08:31:27.027Z</time></trkpt><trkpt lat="42.246953" lon="13.6987712"><ele>726.3333333333334</ele><time>2026-05-03T08:31:28.027Z</time></trkpt><trkpt lat="42.2468511" lon="13.6989199"><ele>725.6666666666666</ele><time>2026-05-03T08:31:29.027Z</time></trkpt><trkpt lat="42.2467329" lon="13.6990559"><ele>725.0</ele><time>2026-05-03T08:31:30.027Z</time></trkpt><trkpt lat="42.2466071" lon="13.6991922"><ele>725.0</ele><time>2026-05-03T08:31:31.027Z</time></trkpt><trkpt lat="42.2464797" lon="13.6993342"><ele>725.0</ele><time>2026-05-03T08:31:32.028Z</time></trkpt><trkpt lat="42.246351" lon="13.6994831"><ele>725.0</ele><time>2026-05-03T08:31:33.027Z</time></trkpt><trkpt lat="42.2462232" lon="13.6996256"><ele>724.6666666666666</ele><time>2026-05-03T08:31:34.027Z</time></trkpt><trkpt lat="42.2460956" lon="13.6997659"><ele>724.3333333333334</ele><time>2026-05-03T08:31:35.027Z</time></trkpt><trkpt lat="42.2459568" lon="13.6999135"><ele>724.0</ele><time>2026-05-03T08:31:36.027Z</time></trkpt><trkpt lat="42.2458102" lon="13.7000703"><ele>724.0</ele><time>2026-05-03T08:31:37.027Z</time></trkpt><trkpt lat="42.2456584" lon="13.7002387"><ele>724.0</ele><time>2026-05-03T08:31:38.028Z</time></trkpt><trkpt lat="42.2455041" lon="13.7003989"><ele>724.0</ele><time>2026-05-03T08:31:39.027Z</time></trkpt><trkpt lat="42.2453572" lon="13.7005512"><ele>724.3333333333334</ele><time>2026-05-03T08:31:40.027Z</time></trkpt><trkpt lat="42.2452147" lon="13.700695"><ele>724.6666666666666</ele><time>2026-05-03T08:31:41.027Z</time></trkpt><trkpt lat="42.2450775" lon="13.7008361"><ele>725.0</ele><time>2026-05-03T08:31:42.027Z</time></trkpt><trkpt lat="42.24494" lon="13.7009722"><ele>726.0</ele><time>2026-05-03T08:31:43.027Z</time></trkpt><trkpt lat="42.2448047" lon="13.7011044"><ele>727.0</ele><time>2026-05-03T08:31:44.027Z</time></trkpt><trkpt lat="42.2446789" lon="13.701223"><ele>728.0</ele><time>2026-05-03T08:31:45.027Z</time></trkpt><trkpt lat="42.2445556" lon="13.7013365"><ele>728.0</ele><time>2026-05-03T08:31:46.027Z</time></trkpt><trkpt lat="42.2444329" lon="13.7014519"><ele>728.0</ele><time>2026-05-03T08:31:47.027Z</time></trkpt><trkpt lat="42.244314" lon="13.7015605"><ele>728.0</ele><time>2026-05-03T08:31:48.027Z</time></trkpt><trkpt lat="42.2441935" lon="13.7016657"><ele>728.0</ele><time>2026-05-03T08:31:49.028Z</time></trkpt><trkpt lat="42.244072" lon="13.7017713"><ele>727.0</ele><time>2026-05-03T08:31:50.027Z</time></trkpt><trkpt lat="42.2439517" lon="13.7018745"><ele>726.0</ele><time>2026-05-03T08:31:51.027Z</time></trkpt><trkpt lat="42.2438301" lon="13.701981"><ele>725.0</ele><time>2026-05-03T08:31:52.027Z</time></trkpt><trkpt lat="42.2437082" lon="13.7020825"><ele>724.0</ele><time>2026-05-03T08:31:53.027Z</time></trkpt><trkpt lat="42.2435865" lon="13.7021847"><ele>724.0</ele><time>2026-05-03T08:31:54.027Z</time></trkpt><trkpt lat="42.2434636" lon="13.7022844"><ele>724.0</ele><time>2026-05-03T08:31:55.027Z</time></trkpt><trkpt lat="42.2433429" lon="13.7023869"><ele>724.0</ele><time>2026-05-03T08:31:56.027Z</time></trkpt><trkpt lat="42.2432213" lon="13.7024921"><ele>724.0</ele><time>2026-05-03T08:31:57.027Z</time></trkpt><trkpt lat="42.2431016" lon="13.7025968"><ele>723.75</ele><time>2026-05-03T08:31:58.028Z</time></trkpt><trkpt lat="42.24298" lon="13.7027069"><ele>723.5</ele><time>2026-05-03T08:31:59.027Z</time></trkpt><trkpt lat="42.2428578" lon="13.7028071"><ele>723.25</ele><time>2026-05-03T08:32:00.027Z</time></trkpt><trkpt lat="42.2427384" lon="13.7029124"><ele>723.0</ele><time>2026-05-03T08:32:01.027Z</time></trkpt><trkpt lat="42.2426206" lon="13.7030162"><ele>721.75</ele><time>2026-05-03T08:32:02.027Z</time></trkpt><trkpt lat="42.2425022" lon="13.7031236"><ele>720.5</ele><time>2026-05-03T08:32:03.027Z</time></trkpt><trkpt lat="42.2423863" lon="13.7032256"><ele>719.25</ele><time>2026-05-03T08:32:04.028Z</time></trkpt><trkpt lat="42.242269" lon="13.7033339"><ele>718.0</ele><time>2026-05-03T08:32:05.028Z</time></trkpt><trkpt lat="42.2421523" lon="13.7034428"><ele>716.0</ele><time>2026-05-03T08:32:06.027Z</time></trkpt><trkpt lat="42.2420418" lon="13.7035557"><ele>714.0</ele><time>2026-05-03T08:32:07.027Z</time></trkpt><trkpt lat="42.2419326" lon="13.7036693"><ele>712.0</ele><time>2026-05-03T08:32:08.027Z</time></trkpt><trkpt lat="42.241825" lon="13.7037891"><ele>710.0</ele><time>2026-05-03T08:32:09.027Z</time></trkpt><trkpt lat="42.2417187" lon="13.7039091"><ele>710.0</ele><time>2026-05-03T08:32:10.027Z</time></trkpt><trkpt lat="42.2416131" lon="13.7040349"><ele>710.0</ele><time>2026-05-03T08:32:11.027Z</time></trkpt><trkpt lat="42.241507" lon="13.7041599"><ele>710.0</ele><time>2026-05-03T08:32:12.027Z</time></trkpt><trkpt lat="42.2414082" lon="13.7042891"><ele>710.0</ele><time>2026-05-03T08:32:13.027Z</time></trkpt><trkpt lat="42.2413088" lon="13.704421"><ele>708.5</ele><time>2026-05-03T08:32:14.027Z</time></trkpt><trkpt lat="42.241216" lon="13.704551"><ele>707.0</ele><time>2026-05-03T08:32:15.027Z</time></trkpt><trkpt lat="42.2411267" lon="13.7046772"><ele>705.5</ele><time>2026-05-03T08:32:16.027Z</time></trkpt><trkpt lat="42.2410335" lon="13.7048039"><ele>704.0</ele><time>2026-05-03T08:32:17.027Z</time></trkpt><trkpt lat="42.2409449" lon="13.7049387"><ele>704.0</ele><time>2026-05-03T08:32:18.027Z</time></trkpt><trkpt lat="42.2408553" lon="13.7050805"><ele>704.0</ele><time>2026-05-03T08:32:19.027Z</time></trkpt><trkpt lat="42.2407699" lon="13.7052227"><ele>704.0</ele><time>2026-05-03T08:32:20.027Z</time></trkpt><trkpt lat="42.2406877" lon="13.7053674"><ele>704.0</ele><time>2026-05-03T08:32:21.027Z</time></trkpt><trkpt lat="42.2406048" lon="13.7055188"><ele>704.0</ele><time>2026-05-03T08:32:22.027Z</time></trkpt><trkpt lat="42.2405249" lon="13.7056664"><ele>704.0</ele><time>2026-05-03T08:32:23.027Z</time></trkpt><trkpt lat="42.2404467" lon="13.7058158"><ele>704.0</ele><time>2026-05-03T08:32:24.027Z</time></trkpt><trkpt lat="42.2403698" lon="13.7059725"><ele>704.0</ele><time>2026-05-03T08:32:25.027Z</time></trkpt><trkpt lat="42.2402915" lon="13.7061288"><ele>704.5</ele><time>2026-05-03T08:32:26.027Z</time></trkpt><trkpt lat="42.240217" lon="13.7062882"><ele>705.0</ele><time>2026-05-03T08:32:27.027Z</time></trkpt><trkpt lat="42.2401415" lon="13.706454"><ele>705.5</ele><time>2026-05-03T08:32:28.027Z</time></trkpt><trkpt lat="42.2400702" lon="13.7066196"><ele>706.0</ele><time>2026-05-03T08:32:29.027Z</time></trkpt><trkpt lat="42.2400012" lon="13.7067889"><ele>706.25</ele><time>2026-05-03T08:32:30.027Z</time></trkpt><trkpt lat="42.2399335" lon="13.7069549"><ele>706.5</ele><time>2026-05-03T08:32:31.028Z</time></trkpt><trkpt lat="42.2398686" lon="13.7071337"><ele>706.75</ele><time>2026-05-03T08:32:32.027Z</time></trkpt><trkpt lat="42.2398043" lon="13.7073083"><ele>707.0</ele><time>2026-05-03T08:32:33.027Z</time></trkpt><trkpt lat="42.239742" lon="13.7074839"><ele>707.0</ele><time>2026-05-03T08:32:34.027Z</time></trkpt><trkpt lat="42.2396846" lon="13.7076616"><ele>707.0</ele><time>2026-05-03T08:32:35.027Z</time></trkpt><trkpt lat="42.2396304" lon="13.7078415"><ele>707.0</ele><time>2026-05-03T08:32:36.027Z</time></trkpt><trkpt lat="42.2395758" lon="13.7080266"><ele>707.0</ele><time>2026-05-03T08:32:37.027Z</time></trkpt><trkpt lat="42.2395223" lon="13.7082141"><ele>706.25</ele><time>2026-05-03T08:32:38.027Z</time></trkpt><trkpt lat="42.2394687" lon="13.7084033"><ele>705.5</ele><time>2026-05-03T08:32:39.027Z</time></trkpt><trkpt lat="42.2394192" lon="13.7085943"><ele>704.75</ele><time>2026-05-03T08:32:40.027Z</time></trkpt><trkpt lat="42.2393715" lon="13.7087844"><ele>704.0</ele><time>2026-05-03T08:32:41.027Z</time></trkpt><trkpt lat="42.2393187" lon="13.7089732"><ele>703.25</ele><time>2026-05-03T08:32:42.027Z</time></trkpt><trkpt lat="42.2392697" lon="13.709161"><ele>702.5</ele><time>2026-05-03T08:32:43.027Z</time></trkpt><trkpt lat="42.2392192" lon="13.7093498"><ele>701.75</ele><time>2026-05-03T08:32:44.027Z</time></trkpt><trkpt lat="42.2391704" lon="13.7095376"><ele>701.0</ele><time>2026-05-03T08:32:45.027Z</time></trkpt><trkpt lat="42.2391206" lon="13.7097272"><ele>700.75</ele><time>2026-05-03T08:32:46.027Z</time></trkpt><trkpt lat="42.2390705" lon="13.7099156"><ele>700.5</ele><time>2026-05-03T08:32:47.027Z</time></trkpt><trkpt lat="42.2390207" lon="13.7101089"><ele>700.25</ele><time>2026-05-03T08:32:48.027Z</time></trkpt><trkpt lat="42.2389714" lon="13.7102997"><ele>700.0</ele><time>2026-05-03T08:32:49.027Z</time></trkpt><trkpt lat="42.2389206" lon="13.7104878"><ele>700.0</ele><time>2026-05-03T08:32:50.027Z</time></trkpt><trkpt lat="42.2388698" lon="13.7106775"><ele>700.0</ele><time>2026-05-03T08:32:51.027Z</time></trkpt><trkpt lat="42.2388185" lon="13.7108644"><ele>700.0</ele><time>2026-05-03T08:32:52.027Z</time></trkpt><trkpt lat="42.2387707" lon="13.711054"><ele>700.0</ele><time>2026-05-03T08:32:53.027Z</time></trkpt><trkpt lat="42.238725" lon="13.7112419"><ele>699.25</ele><time>2026-05-03T08:32:54.027Z</time></trkpt><trkpt lat="42.2386766" lon="13.7114285"><ele>698.5</ele><time>2026-05-03T08:32:55.028Z</time></trkpt><trkpt lat="42.238628" lon="13.7116145"><ele>697.75</ele><time>2026-05-03T08:32:56.027Z</time></trkpt><trkpt lat="42.2385791" lon="13.7118019"><ele>697.0</ele><time>2026-05-03T08:32:57.027Z</time></trkpt><trkpt lat="42.2385268" lon="13.711992"><ele>696.0</ele><time>2026-05-03T08:32:58.027Z</time></trkpt><trkpt lat="42.2384789" lon="13.7121787"><ele>695.0</ele><time>2026-05-03T08:32:59.027Z</time></trkpt><trkpt lat="42.2384321" lon="13.7123675"><ele>694.0</ele><time>2026-05-03T08:33:00.027Z</time></trkpt><trkpt lat="42.238385" lon="13.7125572"><ele>693.0</ele><time>2026-05-03T08:33:01.027Z</time></trkpt><trkpt lat="42.2383389" lon="13.7127477"><ele>692.25</ele><time>2026-05-03T08:33:02.027Z</time></trkpt><trkpt lat="42.2382902" lon="13.7129358"><ele>691.5</ele><time>2026-05-03T08:33:03.028Z</time></trkpt><trkpt lat="42.2382419" lon="13.7131237"><ele>690.75</ele><time>2026-05-03T08:33:04.027Z</time></trkpt><trkpt lat="42.2381956" lon="13.7133108"><ele>690.0</ele><time>2026-05-03T08:33:05.027Z</time></trkpt><trkpt lat="42.2381512" lon="13.7134989"><ele>690.25</ele><time>2026-05-03T08:33:06.028Z</time></trkpt><trkpt lat="42.2381065" lon="13.7136828"><ele>690.5</ele><time>2026-05-03T08:33:07.027Z</time></trkpt><trkpt lat="42.2380599" lon="13.7138555"><ele>690.75</ele><time>2026-05-03T08:33:08.028Z</time></trkpt><trkpt lat="42.2380088" lon="13.7140156"><ele>691.0</ele><time>2026-05-03T08:33:09.027Z</time></trkpt><trkpt lat="42.237948" lon="13.7141498"><ele>691.0</ele><time>2026-05-03T08:33:10.027Z</time></trkpt><trkpt lat="42.2378745" lon="13.714264"><ele>691.0</ele><time>2026-05-03T08:33:11.027Z</time></trkpt><trkpt lat="42.2377941" lon="13.7143658"><ele>691.0</ele><time>2026-05-03T08:33:12.027Z</time></trkpt><trkpt lat="42.2377146" lon="13.7144721"><ele>691.0</ele><time>2026-05-03T08:33:13.027Z</time></trkpt><trkpt lat="42.2376437" lon="13.7145968"><ele>690.0</ele><time>2026-05-03T08:33:14.027Z</time></trkpt><trkpt lat="42.2375859" lon="13.7147445"><ele>689.0</ele><time>2026-05-03T08:33:15.027Z</time></trkpt><trkpt lat="42.2375417" lon="13.7149007"><ele>688.0</ele><time>2026-05-03T08:33:16.027Z</time></trkpt><trkpt lat="42.237516" lon="13.7150701"><ele>687.0</ele><time>2026-05-03T08:33:17.027Z</time></trkpt><trkpt lat="42.2375094" lon="13.7152504"><ele>686.75</ele><time>2026-05-03T08:33:18.027Z</time></trkpt><trkpt lat="42.2375204" lon="13.715435"><ele>686.5</ele><time>2026-05-03T08:33:19.027Z</time></trkpt><trkpt lat="42.2375329" lon="13.7156279"><ele>686.25</ele><time>2026-05-03T08:33:20.027Z</time></trkpt><trkpt lat="42.2375227" lon="13.7158203"><ele>686.0</ele><time>2026-05-03T08:33:21.027Z</time></trkpt><trkpt lat="42.2374903" lon="13.7160155"><ele>686.3333333333333</ele><time>2026-05-03T08:33:22.027Z</time></trkpt><trkpt lat="42.2374422" lon="13.7162108"><ele>686.6666666666666</ele><time>2026-05-03T08:33:23.027Z</time></trkpt><trkpt lat="42.2373919" lon="13.7164123"><ele>687.0</ele><time>2026-05-03T08:33:24.027Z</time></trkpt><trkpt lat="42.2373362" lon="13.7166186"><ele>686.6666666666666</ele><time>2026-05-03T08:33:25.027Z</time></trkpt><trkpt lat="42.2372805" lon="13.7168278"><ele>686.3333333333333</ele><time>2026-05-03T08:33:26.027Z</time></trkpt><trkpt lat="42.2372237" lon="13.7170447"><ele>686.0</ele><time>2026-05-03T08:33:27.027Z</time></trkpt><trkpt lat="42.2371673" lon="13.7172651"><ele>685.6666666666666</ele><time>2026-05-03T08:33:28.027Z</time></trkpt><trkpt lat="42.2371075" lon="13.7174907"><ele>685.3333333333334</ele><time>2026-05-03T08:33:29.027Z</time></trkpt><trkpt lat="42.237049" lon="13.717708"><ele>685.0</ele><time>2026-05-03T08:33:30.027Z</time></trkpt><trkpt lat="42.2369868" lon="13.7179298"><ele>685.0</ele><time>2026-05-03T08:33:31.027Z</time></trkpt><trkpt lat="42.2369313" lon="13.7181424"><ele>685.0</ele><time>2026-05-03T08:33:32.027Z</time></trkpt><trkpt lat="42.236877" lon="13.7183501"><ele>685.0</ele><time>2026-05-03T08:33:33.027Z</time></trkpt><trkpt lat="42.236828" lon="13.7185554"><ele>684.3333333333334</ele><time>2026-05-03T08:33:34.027Z</time></trkpt><trkpt lat="42.2367787" lon="13.7187498"><ele>683.6666666666666</ele><time>2026-05-03T08:33:35.027Z</time></trkpt><trkpt lat="42.2367266" lon="13.7189406"><ele>683.0</ele><time>2026-05-03T08:33:36.027Z</time></trkpt><trkpt lat="42.2366752" lon="13.7191357"><ele>683.0</ele><time>2026-05-03T08:33:37.027Z</time></trkpt><trkpt lat="42.236625" lon="13.7193293"><ele>683.0</ele><time>2026-05-03T08:33:38.027Z</time></trkpt><trkpt lat="42.2365759" lon="13.7195264"><ele>683.0</ele><time>2026-05-03T08:33:39.027Z</time></trkpt><trkpt lat="42.2365238" lon="13.7197212"><ele>683.0</ele><time>2026-05-03T08:33:40.028Z</time></trkpt><trkpt lat="42.2364714" lon="13.7199123"><ele>683.0</ele><time>2026-05-03T08:33:41.027Z</time></trkpt><trkpt lat="42.2364224" lon="13.720105"><ele>683.0</ele><time>2026-05-03T08:33:42.027Z</time></trkpt><trkpt lat="42.2363748" lon="13.7202978"><ele>683.0</ele><time>2026-05-03T08:33:43.027Z</time></trkpt><trkpt lat="42.2363243" lon="13.7204878"><ele>683.0</ele><time>2026-05-03T08:33:44.028Z</time></trkpt><trkpt lat="42.2362758" lon="13.7206776"><ele>683.0</ele><time>2026-05-03T08:33:45.027Z</time></trkpt><trkpt lat="42.2362253" lon="13.7208652"><ele>683.0</ele><time>2026-05-03T08:33:46.027Z</time></trkpt><trkpt lat="42.2361747" lon="13.7210597"><ele>684.0</ele><time>2026-05-03T08:33:47.027Z</time></trkpt><trkpt lat="42.2361242" lon="13.7212495"><ele>685.0</ele><time>2026-05-03T08:33:48.027Z</time></trkpt><trkpt lat="42.2360777" lon="13.7214443"><ele>686.0</ele><time>2026-05-03T08:33:49.027Z</time></trkpt><trkpt lat="42.2360267" lon="13.7216392"><ele>686.0</ele><time>2026-05-03T08:33:50.027Z</time></trkpt><trkpt lat="42.235976" lon="13.7218326"><ele>686.0</ele><time>2026-05-03T08:33:51.027Z</time></trkpt><trkpt lat="42.2359245" lon="13.7220225"><ele>686.0</ele><time>2026-05-03T08:33:52.027Z</time></trkpt><trkpt lat="42.2358741" lon="13.7222088"><ele>686.0</ele><time>2026-05-03T08:33:53.027Z</time></trkpt><trkpt lat="42.2358265" lon="13.7223964"><ele>686.0</ele><time>2026-05-03T08:33:54.027Z</time></trkpt><trkpt lat="42.2357801" lon="13.7225827"><ele>686.0</ele><time>2026-05-03T08:33:55.027Z</time></trkpt><trkpt lat="42.2357305" lon="13.7227747"><ele>686.0</ele><time>2026-05-03T08:33:56.027Z</time></trkpt><trkpt lat="42.2356796" lon="13.7229583"><ele>686.0</ele><time>2026-05-03T08:33:57.027Z</time></trkpt><trkpt lat="42.235629" lon="13.7231439"><ele>686.0</ele><time>2026-05-03T08:33:58.028Z</time></trkpt><trkpt lat="42.2355777" lon="13.7233356"><ele>686.0</ele><time>2026-05-03T08:33:59.027Z</time></trkpt><trkpt lat="42.2355304" lon="13.7235344"><ele>686.0</ele><time>2026-05-03T08:34:00.027Z</time></trkpt><trkpt lat="42.2354776" lon="13.7237159"><ele>686.0</ele><time>2026-05-03T08:34:01.027Z</time></trkpt><trkpt lat="42.2354284" lon="13.7239055"><ele>686.0</ele><time>2026-05-03T08:34:02.027Z</time></trkpt><trkpt lat="42.2353812" lon="13.7240914"><ele>686.0</ele><time>2026-05-03T08:34:03.027Z</time></trkpt><trkpt lat="42.2353401" lon="13.7242658"><ele>686.0</ele><time>2026-05-03T08:34:04.027Z</time></trkpt><trkpt lat="42.2352986" lon="13.7244321"><ele>685.75</ele><time>2026-05-03T08:34:05.027Z</time></trkpt><trkpt lat="42.2352602" lon="13.7246009"><ele>685.5</ele><time>2026-05-03T08:34:06.027Z</time></trkpt><trkpt lat="42.2352186" lon="13.7247692"><ele>685.25</ele><time>2026-05-03T08:34:07.027Z</time></trkpt><trkpt lat="42.2351791" lon="13.7249446"><ele>685.0</ele><time>2026-05-03T08:34:08.027Z</time></trkpt><trkpt lat="42.2351361" lon="13.7251166"><ele>685.25</ele><time>2026-05-03T08:34:09.027Z</time></trkpt><trkpt lat="42.2350908" lon="13.725295"><ele>685.5</ele><time>2026-05-03T08:34:10.027Z</time></trkpt><trkpt lat="42.2350423" lon="13.7254757"><ele>685.75</ele><time>2026-05-03T08:34:11.027Z</time></trkpt><trkpt lat="42.235" lon="13.7256546"><ele>686.0</ele><time>2026-05-03T08:34:12.027Z</time></trkpt><trkpt lat="42.2349539" lon="13.7258321"><ele>686.0</ele><time>2026-05-03T08:34:13.027Z</time></trkpt><trkpt lat="42.2349039" lon="13.726006"><ele>686.0</ele><time>2026-05-03T08:34:14.028Z</time></trkpt><trkpt lat="42.2348576" lon="13.7261761"><ele>686.0</ele><time>2026-05-03T08:34:15.027Z</time></trkpt><trkpt lat="42.2348033" lon="13.7263433"><ele>686.0</ele><time>2026-05-03T08:34:16.027Z</time></trkpt><trkpt lat="42.234738" lon="13.7265073"><ele>684.75</ele><time>2026-05-03T08:34:17.028Z</time></trkpt><trkpt lat="42.2346665" lon="13.7266714"><ele>683.5</ele><time>2026-05-03T08:34:18.027Z</time></trkpt><trkpt lat="42.2345925" lon="13.7268405"><ele>682.25</ele><time>2026-05-03T08:34:19.027Z</time></trkpt><trkpt lat="42.2345141" lon="13.7270056"><ele>681.0</ele><time>2026-05-03T08:34:20.027Z</time></trkpt><trkpt lat="42.2344316" lon="13.72717"><ele>681.0</ele><time>2026-05-03T08:34:21.027Z</time></trkpt><trkpt lat="42.2343437" lon="13.7273298"><ele>681.0</ele><time>2026-05-03T08:34:22.028Z</time></trkpt><trkpt lat="42.2342492" lon="13.7274865"><ele>681.0</ele><time>2026-05-03T08:34:23.027Z</time></trkpt><trkpt lat="42.2341537" lon="13.7276341"><ele>681.0</ele><time>2026-05-03T08:34:24.027Z</time></trkpt><trkpt lat="42.2340551" lon="13.7277812"><ele>681.0</ele><time>2026-05-03T08:34:25.027Z</time></trkpt><trkpt lat="42.2339532" lon="13.7279269"><ele>681.0</ele><time>2026-05-03T08:34:26.027Z</time></trkpt><trkpt lat="42.2338543" lon="13.7280692"><ele>681.0</ele><time>2026-05-03T08:34:27.027Z</time></trkpt><trkpt lat="42.2337551" lon="13.7282118"><ele>681.0</ele><time>2026-05-03T08:34:28.027Z</time></trkpt><trkpt lat="42.2336649" lon="13.7283496"><ele>681.0</ele><time>2026-05-03T08:34:29.027Z</time></trkpt><trkpt lat="42.2335748" lon="13.7284944"><ele>681.0</ele><time>2026-05-03T08:34:30.027Z</time></trkpt><trkpt lat="42.2334922" lon="13.7286478"><ele>681.0</ele><time>2026-05-03T08:34:31.027Z</time></trkpt><trkpt lat="42.2334189" lon="13.7288022"><ele>681.0</ele><time>2026-05-03T08:34:32.027Z</time></trkpt><trkpt lat="42.2333568" lon="13.7289613"><ele>681.5</ele><time>2026-05-03T08:34:33.027Z</time></trkpt><trkpt lat="42.2333073" lon="13.7291271"><ele>682.0</ele><time>2026-05-03T08:34:34.027Z</time></trkpt><trkpt lat="42.2332737" lon="13.7292982"><ele>682.5</ele><time>2026-05-03T08:34:35.027Z</time></trkpt><trkpt lat="42.2332502" lon="13.7294725"><ele>683.0</ele><time>2026-05-03T08:34:36.027Z</time></trkpt><trkpt lat="42.2332401" lon="13.7296512"><ele>683.0</ele><time>2026-05-03T08:34:37.027Z</time></trkpt><trkpt lat="42.2332439" lon="13.7298338"><ele>683.0</ele><time>2026-05-03T08:34:38.027Z</time></trkpt><trkpt lat="42.2332602" lon="13.7300133"><ele>683.0</ele><time>2026-05-03T08:34:39.027Z</time></trkpt><trkpt lat="42.2332888" lon="13.7301925"><ele>683.0</ele><time>2026-05-03T08:34:40.027Z</time></trkpt><trkpt lat="42.233328" lon="13.7303628"><ele>683.25</ele><time>2026-05-03T08:34:41.027Z</time></trkpt><trkpt lat="42.2333789" lon="13.7305288"><ele>683.5</ele><time>2026-05-03T08:34:42.027Z</time></trkpt><trkpt lat="42.2334401" lon="13.7306863"><ele>683.75</ele><time>2026-05-03T08:34:43.027Z</time></trkpt><trkpt lat="42.2335092" lon="13.7308372"><ele>684.0</ele><time>2026-05-03T08:34:44.027Z</time></trkpt><trkpt lat="42.2335837" lon="13.7309846"><ele>684.0</ele><time>2026-05-03T08:34:45.027Z</time></trkpt><trkpt lat="42.2336601" lon="13.7311341"><ele>684.0</ele><time>2026-05-03T08:34:46.027Z</time></trkpt><trkpt lat="42.2337355" lon="13.7312839"><ele>684.0</ele><time>2026-05-03T08:34:47.027Z</time></trkpt><trkpt lat="42.2338131" lon="13.7314325"><ele>684.0</ele><time>2026-05-03T08:34:48.027Z</time></trkpt><trkpt lat="42.2338925" lon="13.7315814"><ele>684.25</ele><time>2026-05-03T08:34:49.027Z</time></trkpt><trkpt lat="42.2339755" lon="13.7317263"><ele>684.5</ele><time>2026-05-03T08:34:50.027Z</time></trkpt><trkpt lat="42.23406" lon="13.731872"><ele>684.75</ele><time>2026-05-03T08:34:51.027Z</time></trkpt><trkpt lat="42.2341494" lon="13.732014"><ele>685.0</ele><time>2026-05-03T08:34:52.027Z</time></trkpt><trkpt lat="42.2342408" lon="13.7321558"><ele>685.25</ele><time>2026-05-03T08:34:53.027Z</time></trkpt><trkpt lat="42.2343333" lon="13.7322999"><ele>685.5</ele><time>2026-05-03T08:34:54.027Z</time></trkpt><trkpt lat="42.2344316" lon="13.7324429"><ele>685.75</ele><time>2026-05-03T08:34:55.027Z</time></trkpt><trkpt lat="42.2345309" lon="13.7325856"><ele>686.0</ele><time>2026-05-03T08:34:56.027Z</time></trkpt><trkpt lat="42.2346318" lon="13.7327281"><ele>686.0</ele><time>2026-05-03T08:34:57.027Z</time></trkpt><trkpt lat="42.2347317" lon="13.7328712"><ele>686.0</ele><time>2026-05-03T08:34:58.027Z</time></trkpt><trkpt lat="42.2348352" lon="13.7330111"><ele>686.0</ele><time>2026-05-03T08:34:59.027Z</time></trkpt><trkpt lat="42.2349418" lon="13.7331492"><ele>686.0</ele><time>2026-05-03T08:35:00.027Z</time></trkpt><trkpt lat="42.2350527" lon="13.733285"><ele>685.3333333333333</ele><time>2026-05-03T08:35:01.027Z</time></trkpt><trkpt lat="42.2351681" lon="13.7334193"><ele>684.6666666666666</ele><time>2026-05-03T08:35:02.027Z</time></trkpt><trkpt lat="42.2352845" lon="13.7335537"><ele>684.0</ele><time>2026-05-03T08:35:03.027Z</time></trkpt><trkpt lat="42.2354028" lon="13.7336872"><ele>683.6666666666666</ele><time>2026-05-03T08:35:04.027Z</time></trkpt><trkpt lat="42.235521" lon="13.733816"><ele>683.3333333333333</ele><time>2026-05-03T08:35:05.027Z</time></trkpt><trkpt lat="42.2356405" lon="13.7339419"><ele>683.0</ele><time>2026-05-03T08:35:06.027Z</time></trkpt><trkpt lat="42.2357608" lon="13.734063"><ele>683.0</ele><time>2026-05-03T08:35:07.027Z</time></trkpt><trkpt lat="42.2358826" lon="13.7341821"><ele>683.0</ele><time>2026-05-03T08:35:08.027Z</time></trkpt><trkpt lat="42.2360062" lon="13.7342967"><ele>683.0</ele><time>2026-05-03T08:35:09.027Z</time></trkpt><trkpt lat="42.236131" lon="13.7344101"><ele>683.0</ele><time>2026-05-03T08:35:10.027Z</time></trkpt><trkpt lat="42.2362573" lon="13.7345207"><ele>683.0</ele><time>2026-05-03T08:35:11.027Z</time></trkpt><trkpt lat="42.2363834" lon="13.7346276"><ele>683.0</ele><time>2026-05-03T08:35:12.027Z</time></trkpt><trkpt lat="42.2365121" lon="13.7347339"><ele>682.3333333333333</ele><time>2026-05-03T08:35:13.027Z</time></trkpt><trkpt lat="42.2366402" lon="13.7348376"><ele>681.6666666666666</ele><time>2026-05-03T08:35:14.027Z</time></trkpt><trkpt lat="42.236772" lon="13.7349384"><ele>681.0</ele><time>2026-05-03T08:35:15.028Z</time></trkpt><trkpt lat="42.2369042" lon="13.7350382"><ele>681.0</ele><time>2026-05-03T08:35:16.027Z</time></trkpt><trkpt lat="42.2370413" lon="13.735133"><ele>681.0</ele><time>2026-05-03T08:35:17.027Z</time></trkpt><trkpt lat="42.2371819" lon="13.7352212"><ele>681.0</ele><time>2026-05-03T08:35:18.028Z</time></trkpt><trkpt lat="42.2373212" lon="13.7353108"><ele>680.3333333333334</ele><time>2026-05-03T08:35:19.027Z</time></trkpt><trkpt lat="42.2374666" lon="13.7354005"><ele>679.6666666666667</ele><time>2026-05-03T08:35:20.027Z</time></trkpt><trkpt lat="42.2376085" lon="13.7354929"><ele>679.0</ele><time>2026-05-03T08:35:21.027Z</time></trkpt><trkpt lat="42.2377532" lon="13.7355819"><ele>679.0</ele><time>2026-05-03T08:35:22.027Z</time></trkpt><trkpt lat="42.2378978" lon="13.7356712"><ele>679.0</ele><time>2026-05-03T08:35:23.027Z</time></trkpt><trkpt lat="42.2380433" lon="13.7357514"><ele>679.0</ele><time>2026-05-03T08:35:24.027Z</time></trkpt><trkpt lat="42.2381899" lon="13.7358232"><ele>678.3333333333334</ele><time>2026-05-03T08:35:25.027Z</time></trkpt><trkpt lat="42.2383386" lon="13.7358884"><ele>677.6666666666666</ele><time>2026-05-03T08:35:26.027Z</time></trkpt><trkpt lat="42.2384881" lon="13.7359476"><ele>677.0</ele><time>2026-05-03T08:35:27.027Z</time></trkpt><trkpt lat="42.2386372" lon="13.7360027"><ele>677.3333333333333</ele><time>2026-05-03T08:35:28.027Z</time></trkpt><trkpt lat="42.2387889" lon="13.7360584"><ele>677.6666666666666</ele><time>2026-05-03T08:35:29.027Z</time></trkpt><trkpt lat="42.2389428" lon="13.7361102"><ele>678.0</ele><time>2026-05-03T08:35:30.027Z</time></trkpt><trkpt lat="42.2390964" lon="13.7361593"><ele>678.0</ele><time>2026-05-03T08:35:31.027Z</time></trkpt><trkpt lat="42.2392501" lon="13.7362117"><ele>678.0</ele><time>2026-05-03T08:35:32.027Z</time></trkpt><trkpt lat="42.2394095" lon="13.7362629"><ele>678.0</ele><time>2026-05-03T08:35:33.027Z</time></trkpt><trkpt lat="42.2395667" lon="13.7363088"><ele>678.0</ele><time>2026-05-03T08:35:34.027Z</time></trkpt><trkpt lat="42.2397219" lon="13.7363537"><ele>678.0</ele><time>2026-05-03T08:35:35.027Z</time></trkpt><trkpt lat="42.2398762" lon="13.7363975"><ele>678.0</ele><time>2026-05-03T08:35:36.027Z</time></trkpt><trkpt lat="42.24003" lon="13.7364419"><ele>677.0</ele><time>2026-05-03T08:35:37.027Z</time></trkpt><trkpt lat="42.2401841" lon="13.7364855"><ele>676.0</ele><time>2026-05-03T08:35:38.027Z</time></trkpt><trkpt lat="42.2403387" lon="13.7365293"><ele>675.0</ele><time>2026-05-03T08:35:39.027Z</time></trkpt><trkpt lat="42.2404974" lon="13.7365782"><ele>675.6666666666666</ele><time>2026-05-03T08:35:40.027Z</time></trkpt><trkpt lat="42.2406573" lon="13.7366247"><ele>676.3333333333333</ele><time>2026-05-03T08:35:41.027Z</time></trkpt><trkpt lat="42.2408153" lon="13.7366698"><ele>677.0</ele><time>2026-05-03T08:35:42.027Z</time></trkpt><trkpt lat="42.2409736" lon="13.7367134"><ele>677.0</ele><time>2026-05-03T08:35:43.027Z</time></trkpt><trkpt lat="42.2411296" lon="13.7367572"><ele>677.0</ele><time>2026-05-03T08:35:44.027Z</time></trkpt><trkpt lat="42.2412871" lon="13.7368025"><ele>677.0</ele><time>2026-05-03T08:35:45.027Z</time></trkpt><trkpt lat="42.2414422" lon="13.7368489"><ele>677.0</ele><time>2026-05-03T08:35:46.027Z</time></trkpt><trkpt lat="42.2415967" lon="13.7368963"><ele>677.0</ele><time>2026-05-03T08:35:47.027Z</time></trkpt><trkpt lat="42.2417531" lon="13.7369438"><ele>677.0</ele><time>2026-05-03T08:35:48.027Z</time></trkpt><trkpt lat="42.2419109" lon="13.7369892"><ele>677.0</ele><time>2026-05-03T08:35:49.027Z</time></trkpt><trkpt lat="42.2420681" lon="13.7370336"><ele>677.0</ele><time>2026-05-03T08:35:50.027Z</time></trkpt><trkpt lat="42.242225" lon="13.7370779"><ele>677.0</ele><time>2026-05-03T08:35:51.027Z</time></trkpt><trkpt lat="42.2423811" lon="13.7371251"><ele>675.6666666666666</ele><time>2026-05-03T08:35:52.027Z</time></trkpt><trkpt lat="42.2425369" lon="13.737172"><ele>674.3333333333334</ele><time>2026-05-03T08:35:53.027Z</time></trkpt><trkpt lat="42.2426933" lon="13.7372206"><ele>673.0</ele><time>2026-05-03T08:35:54.027Z</time></trkpt><trkpt lat="42.2428495" lon="13.7372707"><ele>673.0</ele><time>2026-05-03T08:35:55.027Z</time></trkpt><trkpt lat="42.243006" lon="13.7373176"><ele>673.0</ele><time>2026-05-03T08:35:56.028Z</time></trkpt><trkpt lat="42.2431621" lon="13.7373663"><ele>673.0</ele><time>2026-05-03T08:35:57.028Z</time></trkpt><trkpt lat="42.2433183" lon="13.7374243"><ele>673.0</ele><time>2026-05-03T08:35:58.027Z</time></trkpt><trkpt lat="42.2434726" lon="13.7374956"><ele>673.0</ele><time>2026-05-03T08:35:59.027Z</time></trkpt><trkpt lat="42.2436235" lon="13.7375723"><ele>673.0</ele><time>2026-05-03T08:36:00.027Z</time></trkpt><trkpt lat="42.2437733" lon="13.7376525"><ele>674.6666666666667</ele><time>2026-05-03T08:36:01.027Z</time></trkpt><trkpt lat="42.2439224" lon="13.7377402"><ele>676.3333333333334</ele><time>2026-05-03T08:36:02.027Z</time></trkpt><trkpt lat="42.2440689" lon="13.7378337"><ele>678.0</ele><time>2026-05-03T08:36:03.027Z</time></trkpt><trkpt lat="42.2442161" lon="13.7379299"><ele>679.0</ele><time>2026-05-03T08:36:04.027Z</time></trkpt><trkpt lat="42.2443608" lon="13.7380305"><ele>680.0</ele><time>2026-05-03T08:36:05.027Z</time></trkpt><trkpt lat="42.2445035" lon="13.7381315"><ele>681.0</ele><time>2026-05-03T08:36:06.027Z</time></trkpt><trkpt lat="42.2446451" lon="13.7382329"><ele>681.0</ele><time>2026-05-03T08:36:07.027Z</time></trkpt><trkpt lat="42.244785" lon="13.738337"><ele>681.0</ele><time>2026-05-03T08:36:08.027Z</time></trkpt><trkpt lat="42.2449249" lon="13.7384394"><ele>681.0</ele><time>2026-05-03T08:36:09.027Z</time></trkpt><trkpt lat="42.245069" lon="13.7385375"><ele>680.3333333333334</ele><time>2026-05-03T08:36:10.028Z</time></trkpt><trkpt lat="42.2452157" lon="13.738628"><ele>679.6666666666667</ele><time>2026-05-03T08:36:11.027Z</time></trkpt><trkpt lat="42.2453695" lon="13.7387126"><ele>679.0</ele><time>2026-05-03T08:36:12.027Z</time></trkpt><trkpt lat="42.2455227" lon="13.7387817"><ele>674.6666666666667</ele><time>2026-05-03T08:36:13.027Z</time></trkpt><trkpt lat="42.2456724" lon="13.7388474"><ele>670.3333333333334</ele><time>2026-05-03T08:36:14.027Z</time></trkpt><trkpt lat="42.2458261" lon="13.738904"><ele>666.0</ele><time>2026-05-03T08:36:15.027Z</time></trkpt><trkpt lat="42.2459805" lon="13.7389614"><ele>666.0</ele><time>2026-05-03T08:36:16.027Z</time></trkpt><trkpt lat="42.2461354" lon="13.7390179"><ele>666.0</ele><time>2026-05-03T08:36:17.027Z</time></trkpt><trkpt lat="42.2462855" lon="13.7390735"><ele>666.0</ele><time>2026-05-03T08:36:18.027Z</time></trkpt><trkpt lat="42.2464388" lon="13.7391284"><ele>665.3333333333334</ele><time>2026-05-03T08:36:19.027Z</time></trkpt><trkpt lat="42.2465935" lon="13.7391858"><ele>664.6666666666667</ele><time>2026-05-03T08:36:20.027Z</time></trkpt><trkpt lat="42.2467512" lon="13.7392551"><ele>664.0</ele><time>2026-05-03T08:36:21.027Z</time></trkpt><trkpt lat="42.2469036" lon="13.7393088"><ele>664.0</ele><time>2026-05-03T08:36:22.027Z</time></trkpt><trkpt lat="42.2470583" lon="13.7393535"><ele>664.0</ele><time>2026-05-03T08:36:23.027Z</time></trkpt><trkpt lat="42.247211" lon="13.7393827"><ele>664.0</ele><time>2026-05-03T08:36:24.027Z</time></trkpt><trkpt lat="42.2473667" lon="13.7394001"><ele>653.3333333333334</ele><time>2026-05-03T08:36:25.027Z</time></trkpt><trkpt lat="42.2475243" lon="13.7394051"><ele>642.6666666666666</ele><time>2026-05-03T08:36:26.027Z</time></trkpt><trkpt lat="42.2476843" lon="13.7393988"><ele>632.0</ele><time>2026-05-03T08:36:27.027Z</time></trkpt><trkpt lat="42.247843" lon="13.7393864"><ele>641.6666666666666</ele><time>2026-05-03T08:36:28.028Z</time></trkpt><trkpt lat="42.2480045" lon="13.7393589"><ele>651.3333333333334</ele><time>2026-05-03T08:36:29.027Z</time></trkpt><trkpt lat="42.2481601" lon="13.7393284"><ele>661.0</ele><time>2026-05-03T08:36:30.027Z</time></trkpt><trkpt lat="42.2483175" lon="13.7392991"><ele>661.0</ele><time>2026-05-03T08:36:31.027Z</time></trkpt><trkpt lat="42.2484727" lon="13.7392764"><ele>661.0</ele><time>2026-05-03T08:36:32.027Z</time></trkpt><trkpt lat="42.2486305" lon="13.7392593"><ele>661.0</ele><time>2026-05-03T08:36:33.028Z</time></trkpt><trkpt lat="42.2487863" lon="13.7392428"><ele>661.0</ele><time>2026-05-03T08:36:34.027Z</time></trkpt><trkpt lat="42.2489358" lon="13.7392291"><ele>661.0</ele><time>2026-05-03T08:36:35.027Z</time></trkpt><trkpt lat="42.2490904" lon="13.7392192"><ele>661.0</ele><time>2026-05-03T08:36:36.027Z</time></trkpt><trkpt lat="42.2492467" lon="13.7392104"><ele>659.3333333333334</ele><time>2026-05-03T08:36:37.027Z</time></trkpt><trkpt lat="42.2494018" lon="13.7392016"><ele>657.6666666666666</ele><time>2026-05-03T08:36:38.027Z</time></trkpt><trkpt lat="42.2495547" lon="13.7391933"><ele>656.0</ele><time>2026-05-03T08:36:39.027Z</time></trkpt><trkpt lat="42.2497072" lon="13.7391876"><ele>653.3333333333333</ele><time>2026-05-03T08:36:40.028Z</time></trkpt><trkpt lat="42.2498607" lon="13.7391822"><ele>650.6666666666666</ele><time>2026-05-03T08:36:41.028Z</time></trkpt><trkpt lat="42.2500155" lon="13.7391744"><ele>648.0</ele><time>2026-05-03T08:36:42.027Z</time></trkpt><trkpt lat="42.2501719" lon="13.7391643"><ele>648.0</ele><time>2026-05-03T08:36:43.027Z</time></trkpt><trkpt lat="42.250328" lon="13.7391567"><ele>648.0</ele><time>2026-05-03T08:36:44.027Z</time></trkpt><trkpt lat="42.250484" lon="13.7391441"><ele>648.0</ele><time>2026-05-03T08:36:45.027Z</time></trkpt><trkpt lat="42.2506406" lon="13.7391371"><ele>645.6666666666666</ele><time>2026-05-03T08:36:46.027Z</time></trkpt><trkpt lat="42.2507943" lon="13.7391246"><ele>643.3333333333333</ele><time>2026-05-03T08:36:47.027Z</time></trkpt><trkpt lat="42.2509471" lon="13.7391077"><ele>641.0</ele><time>2026-05-03T08:36:48.027Z</time></trkpt><trkpt lat="42.2510996" lon="13.7390869"><ele>641.0</ele><time>2026-05-03T08:36:49.027Z</time></trkpt><trkpt lat="42.2512494" lon="13.7390543"><ele>641.0</ele><time>2026-05-03T08:36:50.027Z</time></trkpt><trkpt lat="42.2513973" lon="13.7390203"><ele>641.0</ele><time>2026-05-03T08:36:51.027Z</time></trkpt><trkpt lat="42.251545" lon="13.7389842"><ele>638.5</ele><time>2026-05-03T08:36:52.027Z</time></trkpt><trkpt lat="42.251692" lon="13.7389456"><ele>636.0</ele><time>2026-05-03T08:36:53.027Z</time></trkpt><trkpt lat="42.2518349" lon="13.7389151"><ele>633.5</ele><time>2026-05-03T08:36:54.027Z</time></trkpt><trkpt lat="42.251979" lon="13.7388762"><ele>631.0</ele><time>2026-05-03T08:36:55.028Z</time></trkpt><trkpt lat="42.252126" lon="13.7388279"><ele>631.0</ele><time>2026-05-03T08:36:56.027Z</time></trkpt><trkpt lat="42.2522724" lon="13.7387696"><ele>631.0</ele><time>2026-05-03T08:36:57.027Z</time></trkpt><trkpt lat="42.2524159" lon="13.7387047"><ele>631.0</ele><time>2026-05-03T08:36:58.027Z</time></trkpt><trkpt lat="42.2525578" lon="13.7386401"><ele>627.0</ele><time>2026-05-03T08:36:59.027Z</time></trkpt><trkpt lat="42.2527009" lon="13.738575"><ele>623.0</ele><time>2026-05-03T08:37:00.027Z</time></trkpt><trkpt lat="42.2528452" lon="13.738507"><ele>619.0</ele><time>2026-05-03T08:37:01.027Z</time></trkpt><trkpt lat="42.2529865" lon="13.7384361"><ele>621.6666666666667</ele><time>2026-05-03T08:37:02.027Z</time></trkpt><trkpt lat="42.2531279" lon="13.7383637"><ele>624.3333333333334</ele><time>2026-05-03T08:37:03.028Z</time></trkpt><trkpt lat="42.2532682" lon="13.7382856"><ele>627.0</ele><time>2026-05-03T08:37:04.028Z</time></trkpt><trkpt lat="42.2534067" lon="13.7382023"><ele>627.0</ele><time>2026-05-03T08:37:05.027Z</time></trkpt><trkpt lat="42.253543" lon="13.7381067"><ele>627.0</ele><time>2026-05-03T08:37:06.027Z</time></trkpt><trkpt lat="42.2536776" lon="13.7380054"><ele>627.0</ele><time>2026-05-03T08:37:07.027Z</time></trkpt><trkpt lat="42.2538097" lon="13.7379008"><ele>627.0</ele><time>2026-05-03T08:37:08.027Z</time></trkpt><trkpt lat="42.2539396" lon="13.7377963"><ele>627.0</ele><time>2026-05-03T08:37:09.027Z</time></trkpt><trkpt lat="42.2540723" lon="13.7376943"><ele>627.0</ele><time>2026-05-03T08:37:10.028Z</time></trkpt><trkpt lat="42.2542046" lon="13.7375905"><ele>627.5</ele><time>2026-05-03T08:37:11.027Z</time></trkpt><trkpt lat="42.2543319" lon="13.7374918"><ele>628.0</ele><time>2026-05-03T08:37:12.027Z</time></trkpt><trkpt lat="42.2544619" lon="13.7373927"><ele>628.5</ele><time>2026-05-03T08:37:13.027Z</time></trkpt><trkpt lat="42.2545934" lon="13.7372958"><ele>629.0</ele><time>2026-05-03T08:37:14.027Z</time></trkpt><trkpt lat="42.2547242" lon="13.7371943"><ele>629.3333333333333</ele><time>2026-05-03T08:37:15.027Z</time></trkpt><trkpt lat="42.2548525" lon="13.7370882"><ele>629.6666666666666</ele><time>2026-05-03T08:37:16.027Z</time></trkpt><trkpt lat="42.2549797" lon="13.7369779"><ele>630.0</ele><time>2026-05-03T08:37:17.027Z</time></trkpt><trkpt lat="42.2551034" lon="13.736858"><ele>630.0</ele><time>2026-05-03T08:37:18.027Z</time></trkpt><trkpt lat="42.2552178" lon="13.7367328"><ele>630.0</ele><time>2026-05-03T08:37:19.027Z</time></trkpt><trkpt lat="42.2553314" lon="13.7365986"><ele>630.0</ele><time>2026-05-03T08:37:20.027Z</time></trkpt><trkpt lat="42.2554417" lon="13.7364584"><ele>630.0</ele><time>2026-05-03T08:37:21.027Z</time></trkpt><trkpt lat="42.2555495" lon="13.7363162"><ele>630.0</ele><time>2026-05-03T08:37:22.027Z</time></trkpt><trkpt lat="42.2556555" lon="13.73617"><ele>630.0</ele><time>2026-05-03T08:37:23.027Z</time></trkpt><trkpt lat="42.2557586" lon="13.7360201"><ele>625.6666666666666</ele><time>2026-05-03T08:37:24.028Z</time></trkpt><trkpt lat="42.2558561" lon="13.7358631"><ele>621.3333333333333</ele><time>2026-05-03T08:37:25.027Z</time></trkpt><trkpt lat="42.2559478" lon="13.7356998"><ele>617.0</ele><time>2026-05-03T08:37:26.027Z</time></trkpt><trkpt lat="42.2560338" lon="13.7355309"><ele>617.0</ele><time>2026-05-03T08:37:27.027Z</time></trkpt><trkpt lat="42.2561158" lon="13.7353575"><ele>617.0</ele><time>2026-05-03T08:37:28.027Z</time></trkpt><trkpt lat="42.2561946" lon="13.7351828"><ele>617.0</ele><time>2026-05-03T08:37:29.027Z</time></trkpt><trkpt lat="42.2562665" lon="13.7350056"><ele>614.75</ele><time>2026-05-03T08:37:30.027Z</time></trkpt><trkpt lat="42.2563312" lon="13.7348288"><ele>612.5</ele><time>2026-05-03T08:37:31.027Z</time></trkpt><trkpt lat="42.2563983" lon="13.7346494"><ele>610.25</ele><time>2026-05-03T08:37:32.027Z</time></trkpt><trkpt lat="42.2564685" lon="13.7344698"><ele>608.0</ele><time>2026-05-03T08:37:33.027Z</time></trkpt><trkpt lat="42.2565443" lon="13.7342941"><ele>608.0</ele><time>2026-05-03T08:37:34.027Z</time></trkpt><trkpt lat="42.2566261" lon="13.7341225"><ele>608.0</ele><time>2026-05-03T08:37:35.027Z</time></trkpt><trkpt lat="42.2567151" lon="13.7339585"><ele>608.0</ele><time>2026-05-03T08:37:36.027Z</time></trkpt><trkpt lat="42.2568158" lon="13.7338073"><ele>608.0</ele><time>2026-05-03T08:37:37.027Z</time></trkpt><trkpt lat="42.2569265" lon="13.7336681"><ele>608.0</ele><time>2026-05-03T08:37:38.027Z</time></trkpt><trkpt lat="42.2570489" lon="13.7335438"><ele>608.0</ele><time>2026-05-03T08:37:39.027Z</time></trkpt><trkpt lat="42.2571796" lon="13.7334348"><ele>605.0</ele><time>2026-05-03T08:37:40.027Z</time></trkpt><trkpt lat="42.2573177" lon="13.7333455"><ele>602.0</ele><time>2026-05-03T08:37:41.027Z</time></trkpt><trkpt lat="42.2574608" lon="13.7332736"><ele>599.0</ele><time>2026-05-03T08:37:42.027Z</time></trkpt><trkpt lat="42.2576189" lon="13.7332458"><ele>599.0</ele><time>2026-05-03T08:37:43.027Z</time></trkpt><trkpt lat="42.2577685" lon="13.7332092"><ele>599.0</ele><time>2026-05-03T08:37:44.028Z</time></trkpt><trkpt lat="42.2579164" lon="13.7331948"><ele>599.0</ele><time>2026-05-03T08:37:45.027Z</time></trkpt><trkpt lat="42.2580633" lon="13.7331941"><ele>599.0</ele><time>2026-05-03T08:37:46.028Z</time></trkpt><trkpt lat="42.2582127" lon="13.7332099"><ele>597.0</ele><time>2026-05-03T08:37:47.028Z</time></trkpt><trkpt lat="42.2583641" lon="13.7332535"><ele>595.0</ele><time>2026-05-03T08:37:48.027Z</time></trkpt><trkpt lat="42.2585095" lon="13.7333218"><ele>593.0</ele><time>2026-05-03T08:37:49.027Z</time></trkpt><trkpt lat="42.2586475" lon="13.7334035"><ele>593.0</ele><time>2026-05-03T08:37:50.027Z</time></trkpt><trkpt lat="42.2587835" lon="13.7335013"><ele>593.0</ele><time>2026-05-03T08:37:51.027Z</time></trkpt><trkpt lat="42.2589117" lon="13.7336168"><ele>593.0</ele><time>2026-05-03T08:37:52.027Z</time></trkpt><trkpt lat="42.2590295" lon="13.7337439"><ele>592.6666666666666</ele><time>2026-05-03T08:37:53.027Z</time></trkpt><trkpt lat="42.2591393" lon="13.7338886"><ele>592.3333333333334</ele><time>2026-05-03T08:37:54.027Z</time></trkpt><trkpt lat="42.2592391" lon="13.7340397"><ele>592.0</ele><time>2026-05-03T08:37:55.027Z</time></trkpt><trkpt lat="42.2593278" lon="13.7342014"><ele>592.0</ele><time>2026-05-03T08:37:56.027Z</time></trkpt><trkpt lat="42.2594067" lon="13.7343752"><ele>592.0</ele><time>2026-05-03T08:37:57.027Z</time></trkpt><trkpt lat="42.2594756" lon="13.7345576"><ele>592.0</ele><time>2026-05-03T08:37:58.027Z</time></trkpt><trkpt lat="42.2595375" lon="13.7347397"><ele>589.3333333333334</ele><time>2026-05-03T08:37:59.027Z</time></trkpt><trkpt lat="42.2595898" lon="13.734929"><ele>586.6666666666666</ele><time>2026-05-03T08:38:00.028Z</time></trkpt><trkpt lat="42.2596464" lon="13.7351201"><ele>584.0</ele><time>2026-05-03T08:38:01.028Z</time></trkpt><trkpt lat="42.2597046" lon="13.7353085"><ele>585.0</ele><time>2026-05-03T08:38:02.027Z</time></trkpt><trkpt lat="42.2597626" lon="13.7354967"><ele>586.0</ele><time>2026-05-03T08:38:03.027Z</time></trkpt><trkpt lat="42.2598253" lon="13.7356749"><ele>587.0</ele><time>2026-05-03T08:38:04.027Z</time></trkpt><trkpt lat="42.2598971" lon="13.7358538"><ele>588.0</ele><time>2026-05-03T08:38:05.028Z</time></trkpt><trkpt lat="42.2599765" lon="13.7360294"><ele>586.6666666666666</ele><time>2026-05-03T08:38:06.027Z</time></trkpt><trkpt lat="42.2600596" lon="13.7362025"><ele>585.3333333333333</ele><time>2026-05-03T08:38:07.027Z</time></trkpt><trkpt lat="42.2601501" lon="13.7363702"><ele>584.0</ele><time>2026-05-03T08:38:08.027Z</time></trkpt><trkpt lat="42.2602461" lon="13.7365331"><ele>584.0</ele><time>2026-05-03T08:38:09.027Z</time></trkpt><trkpt lat="42.2603462" lon="13.7366906"><ele>584.0</ele><time>2026-05-03T08:38:10.028Z</time></trkpt><trkpt lat="42.2604555" lon="13.7368358"><ele>584.0</ele><time>2026-05-03T08:38:11.027Z</time></trkpt><trkpt lat="42.2605705" lon="13.7369588"><ele>583.6666666666666</ele><time>2026-05-03T08:38:12.027Z</time></trkpt><trkpt lat="42.2606897" lon="13.737089"><ele>583.3333333333334</ele><time>2026-05-03T08:38:13.027Z</time></trkpt><trkpt lat="42.2608152" lon="13.7372041"><ele>583.0</ele><time>2026-05-03T08:38:14.027Z</time></trkpt><trkpt lat="42.2609427" lon="13.7373162"><ele>583.0</ele><time>2026-05-03T08:38:15.027Z</time></trkpt><trkpt lat="42.2610707" lon="13.7374208"><ele>583.0</ele><time>2026-05-03T08:38:16.027Z</time></trkpt><trkpt lat="42.2612055" lon="13.7375188"><ele>583.0</ele><time>2026-05-03T08:38:17.027Z</time></trkpt><trkpt lat="42.2613384" lon="13.7376055"><ele>582.3333333333334</ele><time>2026-05-03T08:38:18.027Z</time></trkpt><trkpt lat="42.2614778" lon="13.7376889"><ele>581.6666666666666</ele><time>2026-05-03T08:38:19.027Z</time></trkpt><trkpt lat="42.2616203" lon="13.7377637"><ele>581.0</ele><time>2026-05-03T08:38:20.027Z</time></trkpt><trkpt lat="42.2617655" lon="13.7378274"><ele>572.3333333333333</ele><time>2026-05-03T08:38:21.027Z</time></trkpt><trkpt lat="42.2619133" lon="13.7378806"><ele>563.6666666666666</ele><time>2026-05-03T08:38:22.027Z</time></trkpt><trkpt lat="42.2620575" lon="13.7379246"><ele>555.0</ele><time>2026-05-03T08:38:23.027Z</time></trkpt><trkpt lat="42.2622105" lon="13.7379623"><ele>555.6666666666666</ele><time>2026-05-03T08:38:24.027Z</time></trkpt><trkpt lat="42.2623718" lon="13.7379885"><ele>556.3333333333333</ele><time>2026-05-03T08:38:25.027Z</time></trkpt><trkpt lat="42.2625317" lon="13.7380039"><ele>557.0</ele><time>2026-05-03T08:38:26.027Z</time></trkpt><trkpt lat="42.262692" lon="13.7380136"><ele>557.0</ele><time>2026-05-03T08:38:27.027Z</time></trkpt><trkpt lat="42.2628521" lon="13.738025"><ele>557.0</ele><time>2026-05-03T08:38:28.027Z</time></trkpt><trkpt lat="42.2630129" lon="13.7380355"><ele>557.0</ele><time>2026-05-03T08:38:29.027Z</time></trkpt><trkpt lat="42.2631713" lon="13.7380396"><ele>558.0</ele><time>2026-05-03T08:38:30.027Z</time></trkpt><trkpt lat="42.2633309" lon="13.7380448"><ele>559.0</ele><time>2026-05-03T08:38:31.027Z</time></trkpt><trkpt lat="42.2634975" lon="13.738049"><ele>560.0</ele><time>2026-05-03T08:38:32.027Z</time></trkpt><trkpt lat="42.2636595" lon="13.7380576"><ele>560.0</ele><time>2026-05-03T08:38:33.027Z</time></trkpt><trkpt lat="42.2638213" lon="13.7380645"><ele>560.0</ele><time>2026-05-03T08:38:34.027Z</time></trkpt><trkpt lat="42.2639801" lon="13.7380721"><ele>560.0</ele><time>2026-05-03T08:38:35.027Z</time></trkpt><trkpt lat="42.2641407" lon="13.7380767"><ele>558.6666666666666</ele><time>2026-05-03T08:38:36.027Z</time></trkpt><trkpt lat="42.2643019" lon="13.738086"><ele>557.3333333333334</ele><time>2026-05-03T08:38:37.027Z</time></trkpt><trkpt lat="42.2644605" lon="13.7380922"><ele>556.0</ele><time>2026-05-03T08:38:38.027Z</time></trkpt><trkpt lat="42.2646213" lon="13.7381002"><ele>554.6666666666667</ele><time>2026-05-03T08:38:39.027Z</time></trkpt><trkpt lat="42.2647797" lon="13.7381068"><ele>553.3333333333334</ele><time>2026-05-03T08:38:40.027Z</time></trkpt><trkpt lat="42.2649389" lon="13.7381103"><ele>552.0</ele><time>2026-05-03T08:38:41.028Z</time></trkpt><trkpt lat="42.2650991" lon="13.7381146"><ele>552.0</ele><time>2026-05-03T08:38:42.027Z</time></trkpt><trkpt lat="42.2652606" lon="13.7381255"><ele>552.0</ele><time>2026-05-03T08:38:43.027Z</time></trkpt><trkpt lat="42.2654216" lon="13.7381348"><ele>552.0</ele><time>2026-05-03T08:38:44.027Z</time></trkpt><trkpt lat="42.2655808" lon="13.7381371"><ele>551.3333333333334</ele><time>2026-05-03T08:38:45.027Z</time></trkpt><trkpt lat="42.2657439" lon="13.7381369"><ele>550.6666666666667</ele><time>2026-05-03T08:38:46.027Z</time></trkpt><trkpt lat="42.2659147" lon="13.738138"><ele>550.0</ele><time>2026-05-03T08:38:47.027Z</time></trkpt><trkpt lat="42.2660941" lon="13.738142"><ele>550.0</ele><time>2026-05-03T08:38:48.028Z</time></trkpt><trkpt lat="42.2662728" lon="13.7381522"><ele>550.0</ele><time>2026-05-03T08:38:49.027Z</time></trkpt><trkpt lat="42.2664515" lon="13.7381571"><ele>550.0</ele><time>2026-05-03T08:38:50.027Z</time></trkpt><trkpt lat="42.2666254" lon="13.7381619"><ele>549.0</ele><time>2026-05-03T08:38:51.027Z</time></trkpt><trkpt lat="42.2667992" lon="13.7381663"><ele>548.0</ele><time>2026-05-03T08:38:52.027Z</time></trkpt><trkpt lat="42.2669692" lon="13.7381784"><ele>547.0</ele><time>2026-05-03T08:38:53.028Z</time></trkpt><trkpt lat="42.2671369" lon="13.7381862"><ele>545.6666666666667</ele><time>2026-05-03T08:38:54.027Z</time></trkpt><trkpt lat="42.2673019" lon="13.7381915"><ele>544.3333333333334</ele><time>2026-05-03T08:38:55.028Z</time></trkpt><trkpt lat="42.2674622" lon="13.738197"><ele>543.0</ele><time>2026-05-03T08:38:56.027Z</time></trkpt><trkpt lat="42.2676139" lon="13.7382039"><ele>543.0</ele><time>2026-05-03T08:38:57.027Z</time></trkpt><trkpt lat="42.2677732" lon="13.7382233"><ele>543.0</ele><time>2026-05-03T08:38:58.027Z</time></trkpt><trkpt lat="42.2679199" lon="13.7382328"><ele>543.0</ele><time>2026-05-03T08:38:59.027Z</time></trkpt><trkpt lat="42.2680631" lon="13.7382396"><ele>541.75</ele><time>2026-05-03T08:39:00.027Z</time></trkpt><trkpt lat="42.2682016" lon="13.7382426"><ele>540.5</ele><time>2026-05-03T08:39:01.028Z</time></trkpt><trkpt lat="42.268338" lon="13.7382428"><ele>539.25</ele><time>2026-05-03T08:39:02.027Z</time></trkpt><trkpt lat="42.2684633" lon="13.7382529"><ele>538.0</ele><time>2026-05-03T08:39:03.027Z</time></trkpt><trkpt lat="42.2685894" lon="13.7382592"><ele>538.0</ele><time>2026-05-03T08:39:04.027Z</time></trkpt><trkpt lat="42.2687167" lon="13.7382638"><ele>538.0</ele><time>2026-05-03T08:39:05.027Z</time></trkpt><trkpt lat="42.2688469" lon="13.7382772"><ele>538.0</ele><time>2026-05-03T08:39:06.027Z</time></trkpt><trkpt lat="42.2689847" lon="13.7382845"><ele>538.0</ele><time>2026-05-03T08:39:07.027Z</time></trkpt><trkpt lat="42.2691262" lon="13.7382888"><ele>538.5</ele><time>2026-05-03T08:39:08.027Z</time></trkpt><trkpt lat="42.2692707" lon="13.7382949"><ele>539.0</ele><time>2026-05-03T08:39:09.027Z</time></trkpt><trkpt lat="42.2694222" lon="13.7383008"><ele>539.5</ele><time>2026-05-03T08:39:10.027Z</time></trkpt><trkpt lat="42.269573" lon="13.7383019"><ele>540.0</ele><time>2026-05-03T08:39:11.028Z</time></trkpt><trkpt lat="42.2697185" lon="13.7382952"><ele>539.75</ele><time>2026-05-03T08:39:12.027Z</time></trkpt><trkpt lat="42.2698639" lon="13.7382797"><ele>539.5</ele><time>2026-05-03T08:39:13.028Z</time></trkpt><trkpt lat="42.2700062" lon="13.7382538"><ele>539.25</ele><time>2026-05-03T08:39:14.027Z</time></trkpt><trkpt lat="42.2701413" lon="13.738211"><ele>539.0</ele><time>2026-05-03T08:39:15.027Z</time></trkpt><trkpt lat="42.2702638" lon="13.7381637"><ele>539.0</ele><time>2026-05-03T08:39:16.027Z</time></trkpt><trkpt lat="42.2703833" lon="13.7381045"><ele>539.0</ele><time>2026-05-03T08:39:17.028Z</time></trkpt><trkpt lat="42.2704979" lon="13.7380365"><ele>539.0</ele><time>2026-05-03T08:39:18.027Z</time></trkpt><trkpt lat="42.270607" lon="13.7379558"><ele>539.0</ele><time>2026-05-03T08:39:19.027Z</time></trkpt><trkpt lat="42.2707131" lon="13.7378652"><ele>539.75</ele><time>2026-05-03T08:39:20.027Z</time></trkpt><trkpt lat="42.2708245" lon="13.7377713"><ele>540.5</ele><time>2026-05-03T08:39:21.027Z</time></trkpt><trkpt lat="42.270943" lon="13.7376687"><ele>541.25</ele><time>2026-05-03T08:39:22.027Z</time></trkpt><trkpt lat="42.271057" lon="13.7375582"><ele>542.0</ele><time>2026-05-03T08:39:23.027Z</time></trkpt><trkpt lat="42.2711703" lon="13.7374321"><ele>542.0</ele><time>2026-05-03T08:39:24.027Z</time></trkpt><trkpt lat="42.2712821" lon="13.7372933"><ele>542.0</ele><time>2026-05-03T08:39:25.028Z</time></trkpt><trkpt lat="42.2713963" lon="13.7371451"><ele>542.0</ele><time>2026-05-03T08:39:26.027Z</time></trkpt><trkpt lat="42.2715136" lon="13.7370001"><ele>538.6666666666666</ele><time>2026-05-03T08:39:27.027Z</time></trkpt><trkpt lat="42.271638" lon="13.7368572"><ele>535.3333333333334</ele><time>2026-05-03T08:39:28.027Z</time></trkpt><trkpt lat="42.2717637" lon="13.7367212"><ele>532.0</ele><time>2026-05-03T08:39:29.027Z</time></trkpt><trkpt lat="42.271892" lon="13.7365984"><ele>532.0</ele><time>2026-05-03T08:39:30.027Z</time></trkpt><trkpt lat="42.2720267" lon="13.7364833"><ele>532.0</ele><time>2026-05-03T08:39:31.027Z</time></trkpt><trkpt lat="42.2721677" lon="13.7363873"><ele>532.0</ele><time>2026-05-03T08:39:32.027Z</time></trkpt><trkpt lat="42.2723099" lon="13.7363025"><ele>525.3333333333334</ele><time>2026-05-03T08:39:33.027Z</time></trkpt><trkpt lat="42.2724604" lon="13.7362322"><ele>518.6666666666666</ele><time>2026-05-03T08:39:34.027Z</time></trkpt><trkpt lat="42.2726106" lon="13.7361736"><ele>512.0</ele><time>2026-05-03T08:39:35.028Z</time></trkpt><trkpt lat="42.2727604" lon="13.7361079"><ele>514.6666666666666</ele><time>2026-05-03T08:39:36.027Z</time></trkpt><trkpt lat="42.2729082" lon="13.7360383"><ele>517.3333333333334</ele><time>2026-05-03T08:39:37.027Z</time></trkpt><trkpt lat="42.2730563" lon="13.7359705"><ele>520.0</ele><time>2026-05-03T08:39:38.027Z</time></trkpt><trkpt lat="42.2732012" lon="13.7358929"><ele>520.0</ele><time>2026-05-03T08:39:39.027Z</time></trkpt><trkpt lat="42.2733393" lon="13.7358093"><ele>520.0</ele><time>2026-05-03T08:39:40.027Z</time></trkpt><trkpt lat="42.2734752" lon="13.7357117"><ele>520.0</ele><time>2026-05-03T08:39:41.027Z</time></trkpt><trkpt lat="42.2736006" lon="13.7356101"><ele>520.0</ele><time>2026-05-03T08:39:42.027Z</time></trkpt><trkpt lat="42.2737238" lon="13.7354877"><ele>520.0</ele><time>2026-05-03T08:39:43.028Z</time></trkpt><trkpt lat="42.2738357" lon="13.7353498"><ele>520.0</ele><time>2026-05-03T08:39:44.027Z</time></trkpt><trkpt lat="42.2739426" lon="13.7351989"><ele>521.0</ele><time>2026-05-03T08:39:45.027Z</time></trkpt><trkpt lat="42.2740426" lon="13.7350414"><ele>522.0</ele><time>2026-05-03T08:39:46.027Z</time></trkpt><trkpt lat="42.2741343" lon="13.734864"><ele>523.0</ele><time>2026-05-03T08:39:47.028Z</time></trkpt><trkpt lat="42.2742136" lon="13.7346886"><ele>523.0</ele><time>2026-05-03T08:39:48.027Z</time></trkpt><trkpt lat="42.2742886" lon="13.7344974"><ele>523.0</ele><time>2026-05-03T08:39:49.027Z</time></trkpt><trkpt lat="42.2743579" lon="13.7342996"><ele>523.0</ele><time>2026-05-03T08:39:50.027Z</time></trkpt><trkpt lat="42.2744161" lon="13.7341044"><ele>525.6666666666667</ele><time>2026-05-03T08:39:51.028Z</time></trkpt><trkpt lat="42.2744684" lon="13.733902"><ele>528.3333333333334</ele><time>2026-05-03T08:39:52.028Z</time></trkpt><trkpt lat="42.2745118" lon="13.7336929"><ele>531.0</ele><time>2026-05-03T08:39:53.027Z</time></trkpt><trkpt lat="42.2745511" lon="13.733484"><ele>531.0</ele><time>2026-05-03T08:39:54.027Z</time></trkpt><trkpt lat="42.2745846" lon="13.7332759"><ele>531.0</ele><time>2026-05-03T08:39:55.027Z</time></trkpt><trkpt lat="42.2746119" lon="13.7330627"><ele>531.0</ele><time>2026-05-03T08:39:56.027Z</time></trkpt><trkpt lat="42.274635" lon="13.7328522"><ele>528.6666666666666</ele><time>2026-05-03T08:39:57.027Z</time></trkpt><trkpt lat="42.2746556" lon="13.7326416"><ele>526.3333333333333</ele><time>2026-05-03T08:39:58.027Z</time></trkpt><trkpt lat="42.2746762" lon="13.7324246"><ele>524.0</ele><time>2026-05-03T08:39:59.027Z</time></trkpt><trkpt lat="42.2747001" lon="13.732218"><ele>524.0</ele><time>2026-05-03T08:40:00.027Z</time></trkpt><trkpt lat="42.2747249" lon="13.7320083"><ele>524.0</ele><time>2026-05-03T08:40:01.027Z</time></trkpt><trkpt lat="42.2747526" lon="13.7317991"><ele>524.0</ele><time>2026-05-03T08:40:02.028Z</time></trkpt><trkpt lat="42.2747884" lon="13.7315918"><ele>517.6666666666666</ele><time>2026-05-03T08:40:03.027Z</time></trkpt><trkpt lat="42.274834" lon="13.731385"><ele>511.33333333333337</ele><time>2026-05-03T08:40:04.027Z</time></trkpt><trkpt lat="42.2748837" lon="13.7311814"><ele>505.0</ele><time>2026-05-03T08:40:05.027Z</time></trkpt><trkpt lat="42.2749364" lon="13.7309855"><ele>505.0</ele><time>2026-05-03T08:40:06.027Z</time></trkpt><trkpt lat="42.2749946" lon="13.7307871"><ele>505.0</ele><time>2026-05-03T08:40:07.027Z</time></trkpt><trkpt lat="42.2750588" lon="13.7305842"><ele>505.0</ele><time>2026-05-03T08:40:08.027Z</time></trkpt><trkpt lat="42.2751203" lon="13.7303921"><ele>507.0</ele><time>2026-05-03T08:40:09.027Z</time></trkpt><trkpt lat="42.2751962" lon="13.7302031"><ele>509.0</ele><time>2026-05-03T08:40:10.027Z</time></trkpt><trkpt lat="42.2752731" lon="13.730019"><ele>511.0</ele><time>2026-05-03T08:40:11.027Z</time></trkpt><trkpt lat="42.275356" lon="13.7298353"><ele>511.0</ele><time>2026-05-03T08:40:12.027Z</time></trkpt><trkpt lat="42.2754431" lon="13.7296473"><ele>511.0</ele><time>2026-05-03T08:40:13.027Z</time></trkpt><trkpt lat="42.2755288" lon="13.7294633"><ele>511.0</ele><time>2026-05-03T08:40:14.027Z</time></trkpt><trkpt lat="42.2756164" lon="13.7292806"><ele>505.0</ele><time>2026-05-03T08:40:15.027Z</time></trkpt><trkpt lat="42.2757014" lon="13.7290983"><ele>499.0</ele><time>2026-05-03T08:40:16.027Z</time></trkpt><trkpt lat="42.2757888" lon="13.7289165"><ele>493.0</ele><time>2026-05-03T08:40:17.027Z</time></trkpt><trkpt lat="42.2758813" lon="13.7287408"><ele>493.0</ele><time>2026-05-03T08:40:18.027Z</time></trkpt><trkpt lat="42.2759788" lon="13.7285681"><ele>493.0</ele><time>2026-05-03T08:40:19.027Z</time></trkpt><trkpt lat="42.2760832" lon="13.7284005"><ele>493.0</ele><time>2026-05-03T08:40:20.027Z</time></trkpt><trkpt lat="42.2761977" lon="13.728251"><ele>490.6666666666667</ele><time>2026-05-03T08:40:21.027Z</time></trkpt><trkpt lat="42.276326" lon="13.7281166"><ele>488.33333333333337</ele><time>2026-05-03T08:40:22.027Z</time></trkpt><trkpt lat="42.2764548" lon="13.7279873"><ele>486.0</ele><time>2026-05-03T08:40:23.027Z</time></trkpt><trkpt lat="42.2765888" lon="13.7278717"><ele>486.0</ele><time>2026-05-03T08:40:24.027Z</time></trkpt><trkpt lat="42.2767289" lon="13.7277644"><ele>486.0</ele><time>2026-05-03T08:40:25.027Z</time></trkpt><trkpt lat="42.2768757" lon="13.7276677"><ele>486.0</ele><time>2026-05-03T08:40:26.027Z</time></trkpt><trkpt lat="42.2770261" lon="13.7275888"><ele>487.0</ele><time>2026-05-03T08:40:27.027Z</time></trkpt><trkpt lat="42.2771817" lon="13.727526"><ele>488.0</ele><time>2026-05-03T08:40:28.027Z</time></trkpt><trkpt lat="42.2773387" lon="13.7274713"><ele>489.0</ele><time>2026-05-03T08:40:29.027Z</time></trkpt><trkpt lat="42.2774982" lon="13.7274351"><ele>489.0</ele><time>2026-05-03T08:40:30.027Z</time></trkpt><trkpt lat="42.2776608" lon="13.7274164"><ele>489.0</ele><time>2026-05-03T08:40:31.027Z</time></trkpt><trkpt lat="42.2778185" lon="13.727407"><ele>489.0</ele><time>2026-05-03T08:40:32.027Z</time></trkpt><trkpt lat="42.2779795" lon="13.7274191"><ele>487.66666666666663</ele><time>2026-05-03T08:40:33.027Z</time></trkpt><trkpt lat="42.2781366" lon="13.7274358"><ele>486.3333333333333</ele><time>2026-05-03T08:40:34.027Z</time></trkpt><trkpt lat="42.2782945" lon="13.7274773"><ele>485.0</ele><time>2026-05-03T08:40:35.027Z</time></trkpt><trkpt lat="42.2784463" lon="13.7275321"><ele>485.0</ele><time>2026-05-03T08:40:36.028Z</time></trkpt><trkpt lat="42.2785955" lon="13.7276023"><ele>485.0</ele><time>2026-05-03T08:40:37.027Z</time></trkpt><trkpt lat="42.2787427" lon="13.7276849"><ele>485.0</ele><time>2026-05-03T08:40:38.027Z</time></trkpt><trkpt lat="42.278887" lon="13.7277715"><ele>481.0</ele><time>2026-05-03T08:40:39.027Z</time></trkpt><trkpt lat="42.2790309" lon="13.7278629"><ele>477.0</ele><time>2026-05-03T08:40:40.027Z</time></trkpt><trkpt lat="42.2791789" lon="13.7279539"><ele>473.0</ele><time>2026-05-03T08:40:41.027Z</time></trkpt><trkpt lat="42.2793234" lon="13.7280431"><ele>473.0</ele><time>2026-05-03T08:40:42.027Z</time></trkpt><trkpt lat="42.279465" lon="13.7281392"><ele>473.0</ele><time>2026-05-03T08:40:43.027Z</time></trkpt><trkpt lat="42.2796083" lon="13.7282336"><ele>473.0</ele><time>2026-05-03T08:40:44.027Z</time></trkpt><trkpt lat="42.2797481" lon="13.7283261"><ele>474.66666666666663</ele><time>2026-05-03T08:40:45.027Z</time></trkpt><trkpt lat="42.2798908" lon="13.7284142"><ele>476.33333333333337</ele><time>2026-05-03T08:40:46.027Z</time></trkpt><trkpt lat="42.2800339" lon="13.7284997"><ele>478.0</ele><time>2026-05-03T08:40:47.027Z</time></trkpt><trkpt lat="42.280185" lon="13.728567"><ele>472.6666666666667</ele><time>2026-05-03T08:40:48.028Z</time></trkpt><trkpt lat="42.280339" lon="13.7286178"><ele>467.33333333333337</ele><time>2026-05-03T08:40:49.027Z</time></trkpt><trkpt lat="42.2804924" lon="13.728657"><ele>462.0</ele><time>2026-05-03T08:40:50.027Z</time></trkpt><trkpt lat="42.2806485" lon="13.7286867"><ele>462.0</ele><time>2026-05-03T08:40:51.027Z</time></trkpt><trkpt lat="42.2808035" lon="13.7287066"><ele>462.0</ele><time>2026-05-03T08:40:52.027Z</time></trkpt><trkpt lat="42.2809465" lon="13.7287163"><ele>462.0</ele><time>2026-05-03T08:40:53.028Z</time></trkpt><trkpt lat="42.2810879" lon="13.7287279"><ele>462.0</ele><time>2026-05-03T08:40:54.027Z</time></trkpt><trkpt lat="42.2812214" lon="13.7287312"><ele>462.0</ele><time>2026-05-03T08:40:55.027Z</time></trkpt><trkpt lat="42.2813576" lon="13.7287335"><ele>462.0</ele><time>2026-05-03T08:40:56.027Z</time></trkpt><trkpt lat="42.2814984" lon="13.7287356"><ele>462.0</ele><time>2026-05-03T08:40:57.027Z</time></trkpt><trkpt lat="42.2816401" lon="13.72874"><ele>462.0</ele><time>2026-05-03T08:40:58.027Z</time></trkpt><trkpt lat="42.2817864" lon="13.7287458"><ele>461.66666666666663</ele><time>2026-05-03T08:40:59.027Z</time></trkpt><trkpt lat="42.2819348" lon="13.7287462"><ele>461.3333333333333</ele><time>2026-05-03T08:41:00.027Z</time></trkpt><trkpt lat="42.2820889" lon="13.7287461"><ele>461.0</ele><time>2026-05-03T08:41:01.027Z</time></trkpt><trkpt lat="42.2822458" lon="13.728746"><ele>459.3333333333333</ele><time>2026-05-03T08:41:02.027Z</time></trkpt><trkpt lat="42.2824056" lon="13.7287471"><ele>457.66666666666663</ele><time>2026-05-03T08:41:03.027Z</time></trkpt><trkpt lat="42.2825644" lon="13.7287461"><ele>456.0</ele><time>2026-05-03T08:41:04.027Z</time></trkpt><trkpt lat="42.2827231" lon="13.7287489"><ele>456.0</ele><time>2026-05-03T08:41:05.027Z</time></trkpt><trkpt lat="42.2828823" lon="13.7287482"><ele>456.0</ele><time>2026-05-03T08:41:06.027Z</time></trkpt><trkpt lat="42.2830431" lon="13.7287537"><ele>456.0</ele><time>2026-05-03T08:41:07.027Z</time></trkpt><trkpt lat="42.2832022" lon="13.7287638"><ele>454.66666666666663</ele><time>2026-05-03T08:41:08.027Z</time></trkpt><trkpt lat="42.2833576" lon="13.7287723"><ele>453.3333333333333</ele><time>2026-05-03T08:41:09.027Z</time></trkpt><trkpt lat="42.2835183" lon="13.7287829"><ele>452.0</ele><time>2026-05-03T08:41:10.027Z</time></trkpt><trkpt lat="42.2836783" lon="13.7287995"><ele>452.0</ele><time>2026-05-03T08:41:11.028Z</time></trkpt><trkpt lat="42.2838346" lon="13.7288251"><ele>452.0</ele><time>2026-05-03T08:41:12.027Z</time></trkpt><trkpt lat="42.2839856" lon="13.7288605"><ele>452.0</ele><time>2026-05-03T08:41:13.028Z</time></trkpt><trkpt lat="42.2841369" lon="13.7289133"><ele>451.75</ele><time>2026-05-03T08:41:14.028Z</time></trkpt><trkpt lat="42.2842838" lon="13.7289762"><ele>451.5</ele><time>2026-05-03T08:41:15.027Z</time></trkpt><trkpt lat="42.2844193" lon="13.72905"><ele>451.25</ele><time>2026-05-03T08:41:16.027Z</time></trkpt><trkpt lat="42.28455" lon="13.7291311"><ele>451.0</ele><time>2026-05-03T08:41:17.027Z</time></trkpt><trkpt lat="42.2846687" lon="13.7292324"><ele>450.25</ele><time>2026-05-03T08:41:18.027Z</time></trkpt><trkpt lat="42.2847932" lon="13.7293371"><ele>449.5</ele><time>2026-05-03T08:41:19.027Z</time></trkpt><trkpt lat="42.2849051" lon="13.7294496"><ele>448.75</ele><time>2026-05-03T08:41:20.027Z</time></trkpt><trkpt lat="42.2850128" lon="13.7295743"><ele>448.0</ele><time>2026-05-03T08:41:21.027Z</time></trkpt><trkpt lat="42.285112" lon="13.7297046"><ele>448.0</ele><time>2026-05-03T08:41:22.027Z</time></trkpt><trkpt lat="42.2852053" lon="13.729842"><ele>448.0</ele><time>2026-05-03T08:41:23.027Z</time></trkpt><trkpt lat="42.2852941" lon="13.7299855"><ele>448.0</ele><time>2026-05-03T08:41:24.027Z</time></trkpt><trkpt lat="42.2853804" lon="13.7301357"><ele>448.0</ele><time>2026-05-03T08:41:25.027Z</time></trkpt><trkpt lat="42.2854558" lon="13.7302954"><ele>445.75</ele><time>2026-05-03T08:41:26.027Z</time></trkpt><trkpt lat="42.2855215" lon="13.7304643"><ele>443.5</ele><time>2026-05-03T08:41:27.027Z</time></trkpt><trkpt lat="42.2855787" lon="13.7306441"><ele>441.25</ele><time>2026-05-03T08:41:28.028Z</time></trkpt><trkpt lat="42.285628" lon="13.7308324"><ele>439.0</ele><time>2026-05-03T08:41:29.027Z</time></trkpt><trkpt lat="42.2856728" lon="13.7310288"><ele>437.33333333333337</ele><time>2026-05-03T08:41:30.027Z</time></trkpt><trkpt lat="42.2857058" lon="13.7312359"><ele>435.66666666666663</ele><time>2026-05-03T08:41:31.027Z</time></trkpt><trkpt lat="42.2857263" lon="13.7314491"><ele>434.0</ele><time>2026-05-03T08:41:32.028Z</time></trkpt><trkpt lat="42.2857385" lon="13.7316672"><ele>434.0</ele><time>2026-05-03T08:41:33.027Z</time></trkpt><trkpt lat="42.2857469" lon="13.7318891"><ele>434.0</ele><time>2026-05-03T08:41:34.027Z</time></trkpt><trkpt lat="42.2857532" lon="13.732113"><ele>434.0</ele><time>2026-05-03T08:41:35.027Z</time></trkpt><trkpt lat="42.2857574" lon="13.7323393"><ele>433.3333333333333</ele><time>2026-05-03T08:41:36.027Z</time></trkpt><trkpt lat="42.2857636" lon="13.7325686"><ele>432.66666666666663</ele><time>2026-05-03T08:41:37.027Z</time></trkpt><trkpt lat="42.2857677" lon="13.7327992"><ele>432.0</ele><time>2026-05-03T08:41:38.028Z</time></trkpt><trkpt lat="42.2857705" lon="13.7330296"><ele>431.66666666666663</ele><time>2026-05-03T08:41:39.027Z</time></trkpt><trkpt lat="42.2857758" lon="13.7332592"><ele>431.3333333333333</ele><time>2026-05-03T08:41:40.028Z</time></trkpt><trkpt lat="42.2857833" lon="13.7334869"><ele>431.0</ele><time>2026-05-03T08:41:41.027Z</time></trkpt><trkpt lat="42.2857899" lon="13.7337124"><ele>430.3333333333333</ele><time>2026-05-03T08:41:42.027Z</time></trkpt><trkpt lat="42.2857953" lon="13.7339348"><ele>429.66666666666663</ele><time>2026-05-03T08:41:43.027Z</time></trkpt><trkpt lat="42.2857996" lon="13.7341521"><ele>429.0</ele><time>2026-05-03T08:41:44.027Z</time></trkpt><trkpt lat="42.2858094" lon="13.7343669"><ele>427.66666666666663</ele><time>2026-05-03T08:41:45.027Z</time></trkpt><trkpt lat="42.2858129" lon="13.7345806"><ele>426.3333333333333</ele><time>2026-05-03T08:41:46.027Z</time></trkpt><trkpt lat="42.2858215" lon="13.7347995"><ele>425.0</ele><time>2026-05-03T08:41:47.027Z</time></trkpt><trkpt lat="42.285825" lon="13.735016"><ele>424.3333333333333</ele><time>2026-05-03T08:41:48.027Z</time></trkpt><trkpt lat="42.285831" lon="13.7352311"><ele>423.66666666666663</ele><time>2026-05-03T08:41:49.027Z</time></trkpt><trkpt lat="42.285843" lon="13.7354449"><ele>423.0</ele><time>2026-05-03T08:41:50.027Z</time></trkpt><trkpt lat="42.2858454" lon="13.7356603"><ele>423.0</ele><time>2026-05-03T08:41:51.027Z</time></trkpt><trkpt lat="42.2858471" lon="13.7358805"><ele>423.0</ele><time>2026-05-03T08:41:52.027Z</time></trkpt><trkpt lat="42.2858499" lon="13.736098"><ele>423.0</ele><time>2026-05-03T08:41:53.027Z</time></trkpt><trkpt lat="42.2858529" lon="13.7363152"><ele>421.66666666666663</ele><time>2026-05-03T08:41:54.027Z</time></trkpt><trkpt lat="42.2858596" lon="13.7365315"><ele>420.3333333333333</ele><time>2026-05-03T08:41:55.027Z</time></trkpt><trkpt lat="42.2858666" lon="13.7367488"><ele>419.0</ele><time>2026-05-03T08:41:56.027Z</time></trkpt><trkpt lat="42.285869" lon="13.7369667"><ele>418.3333333333333</ele><time>2026-05-03T08:41:57.027Z</time></trkpt><trkpt lat="42.285873" lon="13.7371812"><ele>417.66666666666663</ele><time>2026-05-03T08:41:58.027Z</time></trkpt><trkpt lat="42.2858761" lon="13.7374008"><ele>417.0</ele><time>2026-05-03T08:41:59.027Z</time></trkpt><trkpt lat="42.2858815" lon="13.7376181"><ele>416.33333333333337</ele><time>2026-05-03T08:42:00.027Z</time></trkpt><trkpt lat="42.2858877" lon="13.7378391"><ele>415.6666666666667</ele><time>2026-05-03T08:42:01.027Z</time></trkpt><trkpt lat="42.285892" lon="13.7380571"><ele>415.0</ele><time>2026-05-03T08:42:02.027Z</time></trkpt><trkpt lat="42.2858964" lon="13.7382749"><ele>415.0</ele><time>2026-05-03T08:42:03.027Z</time></trkpt><trkpt lat="42.2859024" lon="13.7384939"><ele>415.0</ele><time>2026-05-03T08:42:04.027Z</time></trkpt><trkpt lat="42.285907" lon="13.7387123"><ele>415.0</ele><time>2026-05-03T08:42:05.027Z</time></trkpt><trkpt lat="42.2859103" lon="13.7389284"><ele>414.33333333333337</ele><time>2026-05-03T08:42:06.027Z</time></trkpt><trkpt lat="42.2859147" lon="13.7391447"><ele>413.66666666666663</ele><time>2026-05-03T08:42:07.027Z</time></trkpt><trkpt lat="42.2859176" lon="13.7393623"><ele>413.0</ele><time>2026-05-03T08:42:08.027Z</time></trkpt><trkpt lat="42.2859204" lon="13.7395768"><ele>412.66666666666663</ele><time>2026-05-03T08:42:09.027Z</time></trkpt><trkpt lat="42.2859265" lon="13.7397928"><ele>412.33333333333337</ele><time>2026-05-03T08:42:10.027Z</time></trkpt><trkpt lat="42.2859311" lon="13.7400119"><ele>412.0</ele><time>2026-05-03T08:42:11.027Z</time></trkpt><trkpt lat="42.2859381" lon="13.7402308"><ele>411.0</ele><time>2026-05-03T08:42:12.027Z</time></trkpt><trkpt lat="42.2859475" lon="13.7404424"><ele>410.0</ele><time>2026-05-03T08:42:13.027Z</time></trkpt><trkpt lat="42.2859541" lon="13.7406571"><ele>409.0</ele><time>2026-05-03T08:42:14.027Z</time></trkpt><trkpt lat="42.2859593" lon="13.7408702"><ele>408.33333333333337</ele><time>2026-05-03T08:42:15.027Z</time></trkpt><trkpt lat="42.2859622" lon="13.7410791"><ele>407.66666666666663</ele><time>2026-05-03T08:42:16.027Z</time></trkpt><trkpt lat="42.2859665" lon="13.7412884"><ele>407.0</ele><time>2026-05-03T08:42:17.027Z</time></trkpt><trkpt lat="42.2859716" lon="13.7414936"><ele>407.0</ele><time>2026-05-03T08:42:18.027Z</time></trkpt><trkpt lat="42.2859747" lon="13.7416982"><ele>407.0</ele><time>2026-05-03T08:42:19.027Z</time></trkpt><trkpt lat="42.2859763" lon="13.741907"><ele>407.0</ele><time>2026-05-03T08:42:20.027Z</time></trkpt><trkpt lat="42.2859762" lon="13.7421139"><ele>406.3333333333333</ele><time>2026-05-03T08:42:21.027Z</time></trkpt><trkpt lat="42.2859794" lon="13.7423203"><ele>405.66666666666663</ele><time>2026-05-03T08:42:22.027Z</time></trkpt><trkpt lat="42.2859807" lon="13.7425283"><ele>405.0</ele><time>2026-05-03T08:42:23.027Z</time></trkpt><trkpt lat="42.285982" lon="13.7427337"><ele>404.33333333333337</ele><time>2026-05-03T08:42:24.027Z</time></trkpt><trkpt lat="42.2859825" lon="13.7429417"><ele>403.6666666666667</ele><time>2026-05-03T08:42:25.027Z</time></trkpt><trkpt lat="42.2859813" lon="13.7431451"><ele>403.0</ele><time>2026-05-03T08:42:26.028Z</time></trkpt><trkpt lat="42.2859832" lon="13.743348"><ele>402.33333333333337</ele><time>2026-05-03T08:42:27.027Z</time></trkpt><trkpt lat="42.2859847" lon="13.7435508"><ele>401.66666666666663</ele><time>2026-05-03T08:42:28.027Z</time></trkpt><trkpt lat="42.2859875" lon="13.7437544"><ele>401.0</ele><time>2026-05-03T08:42:29.027Z</time></trkpt><trkpt lat="42.285989" lon="13.7439579"><ele>401.0</ele><time>2026-05-03T08:42:30.027Z</time></trkpt><trkpt lat="42.2859939" lon="13.7441601"><ele>401.0</ele><time>2026-05-03T08:42:31.027Z</time></trkpt><trkpt lat="42.2859999" lon="13.7443603"><ele>401.0</ele><time>2026-05-03T08:42:32.027Z</time></trkpt><trkpt lat="42.2860054" lon="13.7445613"><ele>401.0</ele><time>2026-05-03T08:42:33.027Z</time></trkpt><trkpt lat="42.2860083" lon="13.7447618"><ele>400.75</ele><time>2026-05-03T08:42:34.027Z</time></trkpt><trkpt lat="42.2860096" lon="13.7449617"><ele>400.5</ele><time>2026-05-03T08:42:35.027Z</time></trkpt><trkpt lat="42.2860125" lon="13.7451609"><ele>400.25</ele><time>2026-05-03T08:42:36.027Z</time></trkpt><trkpt lat="42.286016" lon="13.7453612"><ele>400.0</ele><time>2026-05-03T08:42:37.027Z</time></trkpt><trkpt lat="42.2860213" lon="13.7455609"><ele>399.75</ele><time>2026-05-03T08:42:38.027Z</time></trkpt><trkpt lat="42.2860273" lon="13.7457601"><ele>399.5</ele><time>2026-05-03T08:42:39.027Z</time></trkpt><trkpt lat="42.2860337" lon="13.7459595"><ele>399.25</ele><time>2026-05-03T08:42:40.027Z</time></trkpt><trkpt lat="42.2860376" lon="13.7461581"><ele>399.0</ele><time>2026-05-03T08:42:41.027Z</time></trkpt><trkpt lat="42.2860414" lon="13.7463589"><ele>398.0</ele><time>2026-05-03T08:42:42.027Z</time></trkpt><trkpt lat="42.2860446" lon="13.7465619"><ele>397.0</ele><time>2026-05-03T08:42:43.027Z</time></trkpt><trkpt lat="42.2860494" lon="13.7467663"><ele>396.0</ele><time>2026-05-03T08:42:44.027Z</time></trkpt><trkpt lat="42.2860557" lon="13.7469737"><ele>395.33333333333337</ele><time>2026-05-03T08:42:45.027Z</time></trkpt><trkpt lat="42.2860579" lon="13.7471798"><ele>394.6666666666667</ele><time>2026-05-03T08:42:46.027Z</time></trkpt><trkpt lat="42.2860574" lon="13.7473863"><ele>394.0</ele><time>2026-05-03T08:42:47.027Z</time></trkpt><trkpt lat="42.2860601" lon="13.7475896"><ele>393.6666666666667</ele><time>2026-05-03T08:42:48.027Z</time></trkpt><trkpt lat="42.2860637" lon="13.747794"><ele>393.33333333333337</ele><time>2026-05-03T08:42:49.027Z</time></trkpt><trkpt lat="42.2860692" lon="13.7479996"><ele>393.0</ele><time>2026-05-03T08:42:50.027Z</time></trkpt><trkpt lat="42.2860751" lon="13.748208"><ele>393.0</ele><time>2026-05-03T08:42:51.027Z</time></trkpt><trkpt lat="42.2860809" lon="13.7484183"><ele>393.0</ele><time>2026-05-03T08:42:52.027Z</time></trkpt><trkpt lat="42.2860851" lon="13.7486304"><ele>393.0</ele><time>2026-05-03T08:42:53.027Z</time></trkpt><trkpt lat="42.286089" lon="13.7488444"><ele>392.66666666666663</ele><time>2026-05-03T08:42:54.027Z</time></trkpt><trkpt lat="42.2860931" lon="13.7490573"><ele>392.3333333333333</ele><time>2026-05-03T08:42:55.027Z</time></trkpt><trkpt lat="42.2860973" lon="13.7492699"><ele>392.0</ele><time>2026-05-03T08:42:56.027Z</time></trkpt><trkpt lat="42.2861005" lon="13.7494826"><ele>391.3333333333333</ele><time>2026-05-03T08:42:57.028Z</time></trkpt><trkpt lat="42.2861044" lon="13.7496952"><ele>390.66666666666663</ele><time>2026-05-03T08:42:58.027Z</time></trkpt><trkpt lat="42.2861103" lon="13.749909"><ele>390.0</ele><time>2026-05-03T08:42:59.027Z</time></trkpt><trkpt lat="42.286118" lon="13.7501236"><ele>388.66666666666663</ele><time>2026-05-03T08:43:00.027Z</time></trkpt><trkpt lat="42.2861248" lon="13.7503389"><ele>387.3333333333333</ele><time>2026-05-03T08:43:01.027Z</time></trkpt><trkpt lat="42.2861293" lon="13.750552"><ele>386.0</ele><time>2026-05-03T08:43:02.027Z</time></trkpt><trkpt lat="42.2861322" lon="13.7507636"><ele>386.0</ele><time>2026-05-03T08:43:03.027Z</time></trkpt><trkpt lat="42.2861355" lon="13.750977"><ele>386.0</ele><time>2026-05-03T08:43:04.027Z</time></trkpt><trkpt lat="42.2861404" lon="13.7511898"><ele>386.0</ele><time>2026-05-03T08:43:05.027Z</time></trkpt><trkpt lat="42.2861448" lon="13.7514017"><ele>384.66666666666663</ele><time>2026-05-03T08:43:06.027Z</time></trkpt><trkpt lat="42.2861467" lon="13.7516173"><ele>383.3333333333333</ele><time>2026-05-03T08:43:07.027Z</time></trkpt><trkpt lat="42.2861499" lon="13.7518307"><ele>382.0</ele><time>2026-05-03T08:43:08.027Z</time></trkpt><trkpt lat="42.286156" lon="13.7520444"><ele>382.0</ele><time>2026-05-03T08:43:09.027Z</time></trkpt><trkpt lat="42.2861622" lon="13.7522587"><ele>382.0</ele><time>2026-05-03T08:43:10.027Z</time></trkpt><trkpt lat="42.2861689" lon="13.7524725"><ele>382.0</ele><time>2026-05-03T08:43:11.027Z</time></trkpt><trkpt lat="42.2861739" lon="13.7526842"><ele>381.3333333333333</ele><time>2026-05-03T08:43:12.028Z</time></trkpt><trkpt lat="42.2861755" lon="13.7528964"><ele>380.6666666666667</ele><time>2026-05-03T08:43:13.027Z</time></trkpt><trkpt lat="42.286177" lon="13.7531102"><ele>380.0</ele><time>2026-05-03T08:43:14.027Z</time></trkpt><trkpt lat="42.2861826" lon="13.7533206"><ele>380.0</ele><time>2026-05-03T08:43:15.027Z</time></trkpt><trkpt lat="42.2861883" lon="13.7535342"><ele>380.0</ele><time>2026-05-03T08:43:16.027Z</time></trkpt><trkpt lat="42.2861902" lon="13.7537477"><ele>380.0</ele><time>2026-05-03T08:43:17.027Z</time></trkpt><trkpt lat="42.2861953" lon="13.7539605"><ele>379.33333333333337</ele><time>2026-05-03T08:43:18.027Z</time></trkpt><trkpt lat="42.2861996" lon="13.7541727"><ele>378.6666666666667</ele><time>2026-05-03T08:43:19.027Z</time></trkpt><trkpt lat="42.2862057" lon="13.7543847"><ele>378.0</ele><time>2026-05-03T08:43:20.027Z</time></trkpt><trkpt lat="42.2862125" lon="13.7545961"><ele>378.0</ele><time>2026-05-03T08:43:21.027Z</time></trkpt><trkpt lat="42.2862175" lon="13.7548083"><ele>378.0</ele><time>2026-05-03T08:43:22.027Z</time></trkpt><trkpt lat="42.2862176" lon="13.7550231"><ele>378.0</ele><time>2026-05-03T08:43:23.027Z</time></trkpt><trkpt lat="42.2862172" lon="13.755236"><ele>377.6666666666667</ele><time>2026-05-03T08:43:24.027Z</time></trkpt><trkpt lat="42.2862178" lon="13.7554491"><ele>377.33333333333337</ele><time>2026-05-03T08:43:25.027Z</time></trkpt><trkpt lat="42.2862238" lon="13.7556614"><ele>377.0</ele><time>2026-05-03T08:43:26.027Z</time></trkpt><trkpt lat="42.2862303" lon="13.7558748"><ele>377.33333333333337</ele><time>2026-05-03T08:43:27.027Z</time></trkpt><trkpt lat="42.2862385" lon="13.7560877"><ele>377.6666666666667</ele><time>2026-05-03T08:43:28.027Z</time></trkpt><trkpt lat="42.2862441" lon="13.756299"><ele>378.0</ele><time>2026-05-03T08:43:29.027Z</time></trkpt><trkpt lat="42.2862462" lon="13.756511"><ele>378.0</ele><time>2026-05-03T08:43:30.027Z</time></trkpt><trkpt lat="42.2862478" lon="13.7567227"><ele>378.0</ele><time>2026-05-03T08:43:31.027Z</time></trkpt><trkpt lat="42.2862534" lon="13.7569348"><ele>378.0</ele><time>2026-05-03T08:43:32.027Z</time></trkpt><trkpt lat="42.2862627" lon="13.7571481"><ele>378.0</ele><time>2026-05-03T08:43:33.027Z</time></trkpt><trkpt lat="42.2862718" lon="13.7573604"><ele>378.0</ele><time>2026-05-03T08:43:34.027Z</time></trkpt><trkpt lat="42.2862773" lon="13.7575726"><ele>378.0</ele><time>2026-05-03T08:43:35.027Z</time></trkpt><trkpt lat="42.2862762" lon="13.7577845"><ele>378.0</ele><time>2026-05-03T08:43:36.027Z</time></trkpt><trkpt lat="42.286275" lon="13.7579975"><ele>378.0</ele><time>2026-05-03T08:43:37.027Z</time></trkpt><trkpt lat="42.2862765" lon="13.7582099"><ele>378.0</ele><time>2026-05-03T08:43:38.027Z</time></trkpt><trkpt lat="42.2862706" lon="13.758422"><ele>378.3333333333333</ele><time>2026-05-03T08:43:39.028Z</time></trkpt><trkpt lat="42.2862581" lon="13.7586317"><ele>378.66666666666663</ele><time>2026-05-03T08:43:40.027Z</time></trkpt><trkpt lat="42.2862371" lon="13.7588369"><ele>379.0</ele><time>2026-05-03T08:43:41.027Z</time></trkpt><trkpt lat="42.2862163" lon="13.7590437"><ele>379.0</ele><time>2026-05-03T08:43:42.027Z</time></trkpt><trkpt lat="42.2861882" lon="13.7592489"><ele>379.0</ele><time>2026-05-03T08:43:43.027Z</time></trkpt><trkpt lat="42.2861558" lon="13.7594509"><ele>379.0</ele><time>2026-05-03T08:43:44.027Z</time></trkpt><trkpt lat="42.2861158" lon="13.7596509"><ele>378.66666666666663</ele><time>2026-05-03T08:43:45.027Z</time></trkpt><trkpt lat="42.2860656" lon="13.7598469"><ele>378.3333333333333</ele><time>2026-05-03T08:43:46.027Z</time></trkpt><trkpt lat="42.2860089" lon="13.7600412"><ele>378.0</ele><time>2026-05-03T08:43:47.027Z</time></trkpt><trkpt lat="42.2859475" lon="13.7602351"><ele>378.5</ele><time>2026-05-03T08:43:48.027Z</time></trkpt><trkpt lat="42.2858836" lon="13.7604254"><ele>379.0</ele><time>2026-05-03T08:43:49.028Z</time></trkpt><trkpt lat="42.2858159" lon="13.7606013"><ele>379.5</ele><time>2026-05-03T08:43:50.027Z</time></trkpt><trkpt lat="42.2857452" lon="13.7607679"><ele>380.0</ele><time>2026-05-03T08:43:51.027Z</time></trkpt><trkpt lat="42.2856763" lon="13.7609243"><ele>380.5</ele><time>2026-05-03T08:43:52.027Z</time></trkpt><trkpt lat="42.2856088" lon="13.7610747"><ele>381.0</ele><time>2026-05-03T08:43:53.027Z</time></trkpt><trkpt lat="42.2855402" lon="13.7612154"><ele>381.5</ele><time>2026-05-03T08:43:54.027Z</time></trkpt><trkpt lat="42.2854716" lon="13.7613463"><ele>382.0</ele><time>2026-05-03T08:43:55.027Z</time></trkpt><trkpt lat="42.285402" lon="13.7614668"><ele>382.0</ele><time>2026-05-03T08:43:56.027Z</time></trkpt><trkpt lat="42.285333" lon="13.7615916"><ele>382.0</ele><time>2026-05-03T08:43:57.027Z</time></trkpt><trkpt lat="42.2852676" lon="13.7617071"><ele>382.0</ele><time>2026-05-03T08:43:58.027Z</time></trkpt><trkpt lat="42.2852074" lon="13.7618121"><ele>382.0</ele><time>2026-05-03T08:43:59.027Z</time></trkpt><trkpt lat="42.2851555" lon="13.7618999"><ele>382.0</ele><time>2026-05-03T08:44:00.027Z</time></trkpt><trkpt lat="42.2851076" lon="13.761976"><ele>382.20000000000005</ele><time>2026-05-03T08:44:01.027Z</time></trkpt><trkpt lat="42.2850303" lon="13.7620922"><ele>382.4</ele><time>2026-05-03T08:44:03.027Z</time></trkpt><trkpt lat="42.2849895" lon="13.7621645"><ele>382.6</ele><time>2026-05-03T08:44:06.027Z</time></trkpt><trkpt lat="42.2850242" lon="13.7622366"><ele>382.79999999999995</ele><time>2026-05-03T08:44:35.027Z</time></trkpt><trkpt lat="42.2850951" lon="13.7621494"><ele>383.0</ele><time>2026-05-03T08:44:37.027Z</time></trkpt><trkpt lat="42.2851755" lon="13.762012"><ele>383.0</ele><time>2026-05-03T08:44:39.027Z</time></trkpt><trkpt lat="42.2852234" lon="13.7619467"><ele>383.0</ele><time>2026-05-03T08:44:40.027Z</time></trkpt><trkpt lat="42.285281" lon="13.7619084"><ele>383.0</ele><time>2026-05-03T08:44:41.027Z</time></trkpt><trkpt lat="42.2853459" lon="13.7619009"><ele>383.0</ele><time>2026-05-03T08:44:42.027Z</time></trkpt><trkpt lat="42.2854095" lon="13.7619145"><ele>383.0</ele><time>2026-05-03T08:44:43.027Z</time></trkpt><trkpt lat="42.2854744" lon="13.7619543"><ele>383.0</ele><time>2026-05-03T08:44:44.027Z</time></trkpt><trkpt lat="42.2855346" lon="13.762014"><ele>383.0</ele><time>2026-05-03T08:44:45.027Z</time></trkpt><trkpt lat="42.2855905" lon="13.7620823"><ele>384.1666666666667</ele><time>2026-05-03T08:44:46.027Z</time></trkpt><trkpt lat="42.2856381" lon="13.7621394"><ele>385.33333333333337</ele><time>2026-05-03T08:44:47.027Z</time></trkpt><trkpt lat="42.2857214" lon="13.7621944"><ele>386.5</ele><time>2026-05-03T08:44:49.027Z</time></trkpt><trkpt lat="42.2858362" lon="13.7621786"><ele>387.6666666666667</ele><time>2026-05-03T08:44:51.027Z</time></trkpt><trkpt lat="42.2858921" lon="13.7621192"><ele>388.8333333333333</ele><time>2026-05-03T08:44:52.027Z</time></trkpt><trkpt lat="42.2859519" lon="13.7620298"><ele>390.0</ele><time>2026-05-03T08:44:53.027Z</time></trkpt><trkpt lat="42.2860185" lon="13.761928"><ele>388.5</ele><time>2026-05-03T08:44:54.027Z</time></trkpt><trkpt lat="42.2860941" lon="13.761819"><ele>387.0</ele><time>2026-05-03T08:44:55.027Z</time></trkpt><trkpt lat="42.2861792" lon="13.7616985"><ele>385.5</ele><time>2026-05-03T08:44:56.027Z</time></trkpt><trkpt lat="42.2862682" lon="13.7615686"><ele>384.0</ele><time>2026-05-03T08:44:57.027Z</time></trkpt><trkpt lat="42.2863649" lon="13.7614317"><ele>384.33333333333337</ele><time>2026-05-03T08:44:58.027Z</time></trkpt><trkpt lat="42.286467" lon="13.761289"><ele>384.6666666666667</ele><time>2026-05-03T08:44:59.027Z</time></trkpt><trkpt lat="42.2865726" lon="13.7611396"><ele>385.0</ele><time>2026-05-03T08:45:00.027Z</time></trkpt><trkpt lat="42.2866807" lon="13.7609809"><ele>385.0</ele><time>2026-05-03T08:45:01.027Z</time></trkpt><trkpt lat="42.2867874" lon="13.760822"><ele>385.0</ele><time>2026-05-03T08:45:02.027Z</time></trkpt><trkpt lat="42.2868918" lon="13.7606782"><ele>385.0</ele><time>2026-05-03T08:45:03.027Z</time></trkpt><trkpt lat="42.286994" lon="13.7605541"><ele>385.0</ele><time>2026-05-03T08:45:04.027Z</time></trkpt><trkpt lat="42.2871033" lon="13.7604378"><ele>385.0</ele><time>2026-05-03T08:45:05.027Z</time></trkpt><trkpt lat="42.2872156" lon="13.760333"><ele>385.0</ele><time>2026-05-03T08:45:06.027Z</time></trkpt><trkpt lat="42.2873339" lon="13.7602419"><ele>385.0</ele><time>2026-05-03T08:45:07.027Z</time></trkpt><trkpt lat="42.2874532" lon="13.7601513"><ele>385.0</ele><time>2026-05-03T08:45:08.027Z</time></trkpt><trkpt lat="42.2875681" lon="13.7600641"><ele>384.75</ele><time>2026-05-03T08:45:09.027Z</time></trkpt><trkpt lat="42.2876813" lon="13.7599713"><ele>384.5</ele><time>2026-05-03T08:45:10.027Z</time></trkpt><trkpt lat="42.2877885" lon="13.7598728"><ele>384.25</ele><time>2026-05-03T08:45:11.027Z</time></trkpt><trkpt lat="42.2878922" lon="13.7597639"><ele>384.0</ele><time>2026-05-03T08:45:12.028Z</time></trkpt><trkpt lat="42.2879849" lon="13.7596404"><ele>384.0</ele><time>2026-05-03T08:45:13.027Z</time></trkpt><trkpt lat="42.2880703" lon="13.7595091"><ele>384.0</ele><time>2026-05-03T08:45:14.027Z</time></trkpt><trkpt lat="42.2881614" lon="13.7593759"><ele>384.0</ele><time>2026-05-03T08:45:15.027Z</time></trkpt><trkpt lat="42.2882622" lon="13.7592537"><ele>384.0</ele><time>2026-05-03T08:45:16.027Z</time></trkpt><trkpt lat="42.2883697" lon="13.7591376"><ele>383.5</ele><time>2026-05-03T08:45:17.027Z</time></trkpt><trkpt lat="42.2884813" lon="13.7590232"><ele>383.0</ele><time>2026-05-03T08:45:18.027Z</time></trkpt><trkpt lat="42.2885922" lon="13.7589128"><ele>382.5</ele><time>2026-05-03T08:45:19.027Z</time></trkpt><trkpt lat="42.2887016" lon="13.7588086"><ele>382.0</ele><time>2026-05-03T08:45:20.027Z</time></trkpt><trkpt lat="42.2888118" lon="13.7587027"><ele>382.0</ele><time>2026-05-03T08:45:21.027Z</time></trkpt><trkpt lat="42.2889241" lon="13.7585957"><ele>382.0</ele><time>2026-05-03T08:45:22.028Z</time></trkpt><trkpt lat="42.2890389" lon="13.7584889"><ele>382.0</ele><time>2026-05-03T08:45:23.027Z</time></trkpt><trkpt lat="42.2891561" lon="13.7583781"><ele>382.0</ele><time>2026-05-03T08:45:24.027Z</time></trkpt><trkpt lat="42.2892766" lon="13.7582691"><ele>382.25</ele><time>2026-05-03T08:45:25.027Z</time></trkpt><trkpt lat="42.2894005" lon="13.7581616"><ele>382.5</ele><time>2026-05-03T08:45:26.027Z</time></trkpt><trkpt lat="42.2895294" lon="13.7580565"><ele>382.75</ele><time>2026-05-03T08:45:27.027Z</time></trkpt><trkpt lat="42.2896591" lon="13.757954"><ele>383.0</ele><time>2026-05-03T08:45:28.027Z</time></trkpt><trkpt lat="42.2897939" lon="13.7578533"><ele>383.6666666666667</ele><time>2026-05-03T08:45:29.027Z</time></trkpt><trkpt lat="42.2899288" lon="13.7577494"><ele>384.33333333333337</ele><time>2026-05-03T08:45:30.027Z</time></trkpt><trkpt lat="42.2900643" lon="13.7576438"><ele>385.0</ele><time>2026-05-03T08:45:31.027Z</time></trkpt><trkpt lat="42.2902004" lon="13.7575389"><ele>382.6666666666667</ele><time>2026-05-03T08:45:32.027Z</time></trkpt><trkpt lat="42.2903365" lon="13.7574342"><ele>380.33333333333337</ele><time>2026-05-03T08:45:33.027Z</time></trkpt><trkpt lat="42.2904698" lon="13.7573235"><ele>378.0</ele><time>2026-05-03T08:45:34.027Z</time></trkpt><trkpt lat="42.2905953" lon="13.7572071"><ele>378.0</ele><time>2026-05-03T08:45:35.027Z</time></trkpt><trkpt lat="42.290718" lon="13.7570906"><ele>378.0</ele><time>2026-05-03T08:45:36.027Z</time></trkpt><trkpt lat="42.2908366" lon="13.7569793"><ele>378.0</ele><time>2026-05-03T08:45:37.027Z</time></trkpt><trkpt lat="42.2909599" lon="13.7568794"><ele>378.0</ele><time>2026-05-03T08:45:38.028Z</time></trkpt><trkpt lat="42.2910901" lon="13.7567866"><ele>377.75</ele><time>2026-05-03T08:45:39.027Z</time></trkpt><trkpt lat="42.2912238" lon="13.7567036"><ele>377.5</ele><time>2026-05-03T08:45:40.027Z</time></trkpt><trkpt lat="42.2913637" lon="13.7566241"><ele>377.25</ele><time>2026-05-03T08:45:41.027Z</time></trkpt><trkpt lat="42.291502" lon="13.7565453"><ele>377.0</ele><time>2026-05-03T08:45:42.027Z</time></trkpt><trkpt lat="42.2916362" lon="13.756461"><ele>378.5</ele><time>2026-05-03T08:45:43.027Z</time></trkpt><trkpt lat="42.2917589" lon="13.7563726"><ele>380.0</ele><time>2026-05-03T08:45:44.027Z</time></trkpt><trkpt lat="42.291856" lon="13.7562928"><ele>381.5</ele><time>2026-05-03T08:45:45.027Z</time></trkpt><trkpt lat="42.2919204" lon="13.7562001"><ele>383.0</ele><time>2026-05-03T08:45:46.027Z</time></trkpt><trkpt lat="42.2919723" lon="13.7560666"><ele>381.25</ele><time>2026-05-03T08:45:47.027Z</time></trkpt><trkpt lat="42.2920102" lon="13.7559125"><ele>379.5</ele><time>2026-05-03T08:45:48.027Z</time></trkpt><trkpt lat="42.2920455" lon="13.7557493"><ele>377.75</ele><time>2026-05-03T08:45:49.028Z</time></trkpt><trkpt lat="42.2920915" lon="13.7555891"><ele>376.0</ele><time>2026-05-03T08:45:50.027Z</time></trkpt><trkpt lat="42.2921523" lon="13.7554342"><ele>376.0</ele><time>2026-05-03T08:45:51.027Z</time></trkpt><trkpt lat="42.2922292" lon="13.7552927"><ele>376.0</ele><time>2026-05-03T08:45:52.027Z</time></trkpt><trkpt lat="42.2923168" lon="13.7551583"><ele>376.0</ele><time>2026-05-03T08:45:53.027Z</time></trkpt><trkpt lat="42.2924162" lon="13.7550356"><ele>376.0</ele><time>2026-05-03T08:45:54.027Z</time></trkpt><trkpt lat="42.2925248" lon="13.7549288"><ele>376.75</ele><time>2026-05-03T08:45:55.027Z</time></trkpt><trkpt lat="42.2926452" lon="13.7548505"><ele>377.5</ele><time>2026-05-03T08:45:56.027Z</time></trkpt><trkpt lat="42.2927712" lon="13.7548183"><ele>378.25</ele><time>2026-05-03T08:45:57.027Z</time></trkpt><trkpt lat="42.2928934" lon="13.7548331"><ele>379.0</ele><time>2026-05-03T08:45:58.027Z</time></trkpt><trkpt lat="42.2930062" lon="13.7548855"><ele>379.5</ele><time>2026-05-03T08:45:59.027Z</time></trkpt><trkpt lat="42.2931166" lon="13.7549475"><ele>380.0</ele><time>2026-05-03T08:46:00.027Z</time></trkpt><trkpt lat="42.2932366" lon="13.7550082"><ele>380.5</ele><time>2026-05-03T08:46:01.027Z</time></trkpt><trkpt lat="42.2933577" lon="13.7550716"><ele>381.0</ele><time>2026-05-03T08:46:02.027Z</time></trkpt><trkpt lat="42.2934814" lon="13.7551388"><ele>381.0</ele><time>2026-05-03T08:46:03.027Z</time></trkpt><trkpt lat="42.2936001" lon="13.7552021"><ele>381.0</ele><time>2026-05-03T08:46:04.028Z</time></trkpt><trkpt lat="42.2937173" lon="13.7552666"><ele>381.0</ele><time>2026-05-03T08:46:05.027Z</time></trkpt><trkpt lat="42.2938317" lon="13.755327"><ele>381.0</ele><time>2026-05-03T08:46:06.027Z</time></trkpt><trkpt lat="42.2939434" lon="13.7553813"><ele>380.5</ele><time>2026-05-03T08:46:07.027Z</time></trkpt><trkpt lat="42.2940598" lon="13.7554086"><ele>380.0</ele><time>2026-05-03T08:46:08.027Z</time></trkpt><trkpt lat="42.2941843" lon="13.755403"><ele>379.5</ele><time>2026-05-03T08:46:09.027Z</time></trkpt><trkpt lat="42.2943155" lon="13.7553718"><ele>379.0</ele><time>2026-05-03T08:46:10.027Z</time></trkpt><trkpt lat="42.2944456" lon="13.7553342"><ele>379.0</ele><time>2026-05-03T08:46:11.027Z</time></trkpt><trkpt lat="42.2945788" lon="13.7552868"><ele>379.0</ele><time>2026-05-03T08:46:12.027Z</time></trkpt><trkpt lat="42.2947188" lon="13.7552546"><ele>379.0</ele><time>2026-05-03T08:46:13.027Z</time></trkpt><trkpt lat="42.2948652" lon="13.7552543"><ele>379.0</ele><time>2026-05-03T08:46:14.027Z</time></trkpt><trkpt lat="42.2950112" lon="13.7552889"><ele>376.0</ele><time>2026-05-03T08:46:15.027Z</time></trkpt><trkpt lat="42.2951575" lon="13.7553311"><ele>373.0</ele><time>2026-05-03T08:46:16.027Z</time></trkpt><trkpt lat="42.2953087" lon="13.7553748"><ele>370.0</ele><time>2026-05-03T08:46:17.027Z</time></trkpt><trkpt lat="42.295461" lon="13.7554196"><ele>370.3333333333333</ele><time>2026-05-03T08:46:18.027Z</time></trkpt><trkpt lat="42.2956154" lon="13.7554663"><ele>370.6666666666667</ele><time>2026-05-03T08:46:19.027Z</time></trkpt><trkpt lat="42.2957648" lon="13.7555171"><ele>371.0</ele><time>2026-05-03T08:46:20.027Z</time></trkpt><trkpt lat="42.2959131" lon="13.7555653"><ele>371.0</ele><time>2026-05-03T08:46:21.027Z</time></trkpt><trkpt lat="42.2960592" lon="13.7556069"><ele>371.0</ele><time>2026-05-03T08:46:22.027Z</time></trkpt><trkpt lat="42.2962044" lon="13.7556499"><ele>371.0</ele><time>2026-05-03T08:46:23.028Z</time></trkpt><trkpt lat="42.2963497" lon="13.7556937"><ele>371.0</ele><time>2026-05-03T08:46:24.027Z</time></trkpt><trkpt lat="42.2964951" lon="13.755741"><ele>370.75</ele><time>2026-05-03T08:46:25.027Z</time></trkpt><trkpt lat="42.2966362" lon="13.7557844"><ele>370.5</ele><time>2026-05-03T08:46:26.028Z</time></trkpt><trkpt lat="42.2967787" lon="13.7558272"><ele>370.25</ele><time>2026-05-03T08:46:27.027Z</time></trkpt><trkpt lat="42.2969166" lon="13.7558699"><ele>370.0</ele><time>2026-05-03T08:46:28.027Z</time></trkpt><trkpt lat="42.2970467" lon="13.7559055"><ele>370.0</ele><time>2026-05-03T08:46:29.027Z</time></trkpt><trkpt lat="42.2971613" lon="13.7559266"><ele>370.0</ele><time>2026-05-03T08:46:30.027Z</time></trkpt><trkpt lat="42.2972705" lon="13.7559384"><ele>370.0</ele><time>2026-05-03T08:46:31.027Z</time></trkpt><trkpt lat="42.2973797" lon="13.755944"><ele>370.0</ele><time>2026-05-03T08:46:32.027Z</time></trkpt><trkpt lat="42.2974905" lon="13.7559437"><ele>370.0</ele><time>2026-05-03T08:46:33.027Z</time></trkpt><trkpt lat="42.2975998" lon="13.7559381"><ele>369.5</ele><time>2026-05-03T08:46:34.027Z</time></trkpt><trkpt lat="42.2977104" lon="13.7559403"><ele>369.0</ele><time>2026-05-03T08:46:35.027Z</time></trkpt><trkpt lat="42.2978308" lon="13.7559368"><ele>368.5</ele><time>2026-05-03T08:46:36.027Z</time></trkpt><trkpt lat="42.2979539" lon="13.7559417"><ele>368.0</ele><time>2026-05-03T08:46:37.027Z</time></trkpt><trkpt lat="42.2980863" lon="13.7559393"><ele>368.0</ele><time>2026-05-03T08:46:38.027Z</time></trkpt><trkpt lat="42.2982197" lon="13.7559321"><ele>368.0</ele><time>2026-05-03T08:46:39.027Z</time></trkpt><trkpt lat="42.2983534" lon="13.7559291"><ele>368.0</ele><time>2026-05-03T08:46:40.027Z</time></trkpt><trkpt lat="42.2984912" lon="13.7559277"><ele>368.0</ele><time>2026-05-03T08:46:41.027Z</time></trkpt><trkpt lat="42.2986305" lon="13.7559316"><ele>368.0</ele><time>2026-05-03T08:46:42.027Z</time></trkpt><trkpt lat="42.2987726" lon="13.7559288"><ele>368.0</ele><time>2026-05-03T08:46:43.027Z</time></trkpt><trkpt lat="42.2989135" lon="13.7559237"><ele>368.0</ele><time>2026-05-03T08:46:44.027Z</time></trkpt><trkpt lat="42.2990484" lon="13.7559131"><ele>368.0</ele><time>2026-05-03T08:46:45.027Z</time></trkpt><trkpt lat="42.2991847" lon="13.7559055"><ele>368.5</ele><time>2026-05-03T08:46:46.027Z</time></trkpt><trkpt lat="42.2993221" lon="13.7559029"><ele>369.0</ele><time>2026-05-03T08:46:47.027Z</time></trkpt><trkpt lat="42.2994584" lon="13.7558978"><ele>369.5</ele><time>2026-05-03T08:46:48.028Z</time></trkpt><trkpt lat="42.2995959" lon="13.7558925"><ele>370.0</ele><time>2026-05-03T08:46:49.027Z</time></trkpt><trkpt lat="42.2997353" lon="13.7558909"><ele>369.75</ele><time>2026-05-03T08:46:50.027Z</time></trkpt><trkpt lat="42.2998735" lon="13.755888"><ele>369.5</ele><time>2026-05-03T08:46:51.027Z</time></trkpt><trkpt lat="42.3000113" lon="13.7558812"><ele>369.25</ele><time>2026-05-03T08:46:52.027Z</time></trkpt><trkpt lat="42.3001503" lon="13.7558716"><ele>369.0</ele><time>2026-05-03T08:46:53.027Z</time></trkpt><trkpt lat="42.3002888" lon="13.7558558"><ele>369.0</ele><time>2026-05-03T08:46:54.027Z</time></trkpt><trkpt lat="42.3004256" lon="13.7558357"><ele>369.0</ele><time>2026-05-03T08:46:55.027Z</time></trkpt><trkpt lat="42.3005626" lon="13.7558112"><ele>369.0</ele><time>2026-05-03T08:46:56.027Z</time></trkpt><trkpt lat="42.3006972" lon="13.7557903"><ele>369.0</ele><time>2026-05-03T08:46:57.027Z</time></trkpt><trkpt lat="42.3008321" lon="13.7557661"><ele>369.0</ele><time>2026-05-03T08:46:58.027Z</time></trkpt><trkpt lat="42.3009651" lon="13.7557403"><ele>369.0</ele><time>2026-05-03T08:46:59.027Z</time></trkpt><trkpt lat="42.3010954" lon="13.7557155"><ele>369.0</ele><time>2026-05-03T08:47:00.027Z</time></trkpt><trkpt lat="42.3012231" lon="13.7556873"><ele>369.0</ele><time>2026-05-03T08:47:01.028Z</time></trkpt><trkpt lat="42.3013511" lon="13.7556498"><ele>368.75</ele><time>2026-05-03T08:47:02.027Z</time></trkpt><trkpt lat="42.3014773" lon="13.7556036"><ele>368.5</ele><time>2026-05-03T08:47:03.027Z</time></trkpt><trkpt lat="42.3016009" lon="13.7555473"><ele>368.25</ele><time>2026-05-03T08:47:04.027Z</time></trkpt><trkpt lat="42.3017258" lon="13.7554882"><ele>368.0</ele><time>2026-05-03T08:47:05.027Z</time></trkpt><trkpt lat="42.3018492" lon="13.7554253"><ele>368.0</ele><time>2026-05-03T08:47:06.027Z</time></trkpt><trkpt lat="42.3019687" lon="13.7553584"><ele>368.0</ele><time>2026-05-03T08:47:07.027Z</time></trkpt><trkpt lat="42.30209" lon="13.7552885"><ele>368.0</ele><time>2026-05-03T08:47:08.027Z</time></trkpt><trkpt lat="42.30221" lon="13.7552155"><ele>368.0</ele><time>2026-05-03T08:47:09.027Z</time></trkpt><trkpt lat="42.3023304" lon="13.7551439"><ele>369.0</ele><time>2026-05-03T08:47:10.027Z</time></trkpt><trkpt lat="42.302453" lon="13.7550749"><ele>370.0</ele><time>2026-05-03T08:47:11.027Z</time></trkpt><trkpt lat="42.3025749" lon="13.7550081"><ele>371.0</ele><time>2026-05-03T08:47:12.027Z</time></trkpt><trkpt lat="42.3026986" lon="13.7549369"><ele>372.0</ele><time>2026-05-03T08:47:13.027Z</time></trkpt><trkpt lat="42.3028221" lon="13.7548655"><ele>372.0</ele><time>2026-05-03T08:47:14.027Z</time></trkpt><trkpt lat="42.3029491" lon="13.7547934"><ele>372.0</ele><time>2026-05-03T08:47:15.027Z</time></trkpt><trkpt lat="42.3030759" lon="13.75472"><ele>372.0</ele><time>2026-05-03T08:47:16.027Z</time></trkpt><trkpt lat="42.3032026" lon="13.7546444"><ele>372.0</ele><time>2026-05-03T08:47:17.027Z</time></trkpt><trkpt lat="42.3033313" lon="13.7545685"><ele>371.75</ele><time>2026-05-03T08:47:18.027Z</time></trkpt><trkpt lat="42.3034604" lon="13.754492"><ele>371.5</ele><time>2026-05-03T08:47:19.027Z</time></trkpt><trkpt lat="42.303591" lon="13.7544135"><ele>371.25</ele><time>2026-05-03T08:47:20.028Z</time></trkpt><trkpt lat="42.3037226" lon="13.7543358"><ele>371.0</ele><time>2026-05-03T08:47:21.027Z</time></trkpt><trkpt lat="42.3038549" lon="13.75426"><ele>371.75</ele><time>2026-05-03T08:47:22.027Z</time></trkpt><trkpt lat="42.3039887" lon="13.7541841"><ele>372.5</ele><time>2026-05-03T08:47:23.027Z</time></trkpt><trkpt lat="42.3041211" lon="13.7541049"><ele>373.25</ele><time>2026-05-03T08:47:24.027Z</time></trkpt><trkpt lat="42.3042531" lon="13.7540247"><ele>374.0</ele><time>2026-05-03T08:47:25.027Z</time></trkpt><trkpt lat="42.3043883" lon="13.7539477"><ele>374.0</ele><time>2026-05-03T08:47:26.027Z</time></trkpt><trkpt lat="42.3045236" lon="13.7538708"><ele>374.0</ele><time>2026-05-03T08:47:27.027Z</time></trkpt><trkpt lat="42.3046557" lon="13.7537907"><ele>374.0</ele><time>2026-05-03T08:47:28.027Z</time></trkpt><trkpt lat="42.304788" lon="13.7537079"><ele>374.0</ele><time>2026-05-03T08:47:29.027Z</time></trkpt><trkpt lat="42.3049221" lon="13.7536303"><ele>374.25</ele><time>2026-05-03T08:47:30.027Z</time></trkpt><trkpt lat="42.3050553" lon="13.7535541"><ele>374.5</ele><time>2026-05-03T08:47:31.027Z</time></trkpt><trkpt lat="42.3051852" lon="13.7534797"><ele>374.75</ele><time>2026-05-03T08:47:32.027Z</time></trkpt><trkpt lat="42.3053135" lon="13.7534068"><ele>375.0</ele><time>2026-05-03T08:47:33.027Z</time></trkpt><trkpt lat="42.3054385" lon="13.7533353"><ele>375.25</ele><time>2026-05-03T08:47:34.027Z</time></trkpt><trkpt lat="42.305563" lon="13.7532618"><ele>375.5</ele><time>2026-05-03T08:47:35.027Z</time></trkpt><trkpt lat="42.3056847" lon="13.7531921"><ele>375.75</ele><time>2026-05-03T08:47:36.027Z</time></trkpt><trkpt lat="42.3058057" lon="13.7531197"><ele>376.0</ele><time>2026-05-03T08:47:37.027Z</time></trkpt><trkpt lat="42.3059209" lon="13.7530553"><ele>376.25</ele><time>2026-05-03T08:47:38.027Z</time></trkpt><trkpt lat="42.3060365" lon="13.7529861"><ele>376.5</ele><time>2026-05-03T08:47:39.027Z</time></trkpt><trkpt lat="42.3061485" lon="13.7529192"><ele>376.75</ele><time>2026-05-03T08:47:40.027Z</time></trkpt><trkpt lat="42.3062601" lon="13.7528563"><ele>377.0</ele><time>2026-05-03T08:47:41.027Z</time></trkpt><trkpt lat="42.3063735" lon="13.7527984"><ele>377.25</ele><time>2026-05-03T08:47:42.027Z</time></trkpt><trkpt lat="42.3064912" lon="13.752751"><ele>377.5</ele><time>2026-05-03T08:47:43.027Z</time></trkpt><trkpt lat="42.3066127" lon="13.7527199"><ele>377.75</ele><time>2026-05-03T08:47:44.027Z</time></trkpt><trkpt lat="42.3067352" lon="13.7527029"><ele>378.0</ele><time>2026-05-03T08:47:45.027Z</time></trkpt><trkpt lat="42.3068572" lon="13.7526959"><ele>380.0</ele><time>2026-05-03T08:47:46.027Z</time></trkpt><trkpt lat="42.306979" lon="13.7526927"><ele>382.0</ele><time>2026-05-03T08:47:47.027Z</time></trkpt><trkpt lat="42.3071015" lon="13.7526867"><ele>384.0</ele><time>2026-05-03T08:47:48.027Z</time></trkpt><trkpt lat="42.3072231" lon="13.7526819"><ele>386.0</ele><time>2026-05-03T08:47:49.028Z</time></trkpt><trkpt lat="42.3073438" lon="13.7526789"><ele>386.5</ele><time>2026-05-03T08:47:50.027Z</time></trkpt><trkpt lat="42.3074642" lon="13.7526765"><ele>387.0</ele><time>2026-05-03T08:47:51.027Z</time></trkpt><trkpt lat="42.3075815" lon="13.7526735"><ele>387.5</ele><time>2026-05-03T08:47:52.027Z</time></trkpt><trkpt lat="42.3076952" lon="13.752668"><ele>388.0</ele><time>2026-05-03T08:47:53.027Z</time></trkpt><trkpt lat="42.3078095" lon="13.752668"><ele>388.0</ele><time>2026-05-03T08:47:54.027Z</time></trkpt><trkpt lat="42.307922" lon="13.7526691"><ele>388.0</ele><time>2026-05-03T08:47:55.027Z</time></trkpt><trkpt lat="42.3080331" lon="13.7526683"><ele>388.0</ele><time>2026-05-03T08:47:56.027Z</time></trkpt><trkpt lat="42.3081425" lon="13.7526662"><ele>388.0</ele><time>2026-05-03T08:47:57.027Z</time></trkpt><trkpt lat="42.3082499" lon="13.752664"><ele>388.0</ele><time>2026-05-03T08:47:58.027Z</time></trkpt><trkpt lat="42.3083568" lon="13.7526603"><ele>389.2</ele><time>2026-05-03T08:47:59.027Z</time></trkpt><trkpt lat="42.3084631" lon="13.7526585"><ele>390.4</ele><time>2026-05-03T08:48:00.027Z</time></trkpt><trkpt lat="42.3085697" lon="13.7526545"><ele>391.59999999999997</ele><time>2026-05-03T08:48:01.027Z</time></trkpt><trkpt lat="42.3086807" lon="13.7526508"><ele>392.79999999999995</ele><time>2026-05-03T08:48:02.027Z</time></trkpt><trkpt lat="42.3087937" lon="13.7526517"><ele>394.0</ele><time>2026-05-03T08:48:03.027Z</time></trkpt><trkpt lat="42.3089087" lon="13.7526509"><ele>395.0</ele><time>2026-05-03T08:48:04.027Z</time></trkpt><trkpt lat="42.3090251" lon="13.7526446"><ele>396.0</ele><time>2026-05-03T08:48:05.027Z</time></trkpt><trkpt lat="42.3091412" lon="13.7526333"><ele>397.0</ele><time>2026-05-03T08:48:06.027Z</time></trkpt><trkpt lat="42.3092561" lon="13.75262"><ele>398.0</ele><time>2026-05-03T08:48:07.028Z</time></trkpt><trkpt lat="42.3093722" lon="13.7526051"><ele>398.0</ele><time>2026-05-03T08:48:08.027Z</time></trkpt><trkpt lat="42.3094889" lon="13.7525882"><ele>398.0</ele><time>2026-05-03T08:48:09.027Z</time></trkpt><trkpt lat="42.3096071" lon="13.7525686"><ele>398.0</ele><time>2026-05-03T08:48:10.027Z</time></trkpt><trkpt lat="42.309727" lon="13.7525485"><ele>398.0</ele><time>2026-05-03T08:48:11.027Z</time></trkpt><trkpt lat="42.3098484" lon="13.7525303"><ele>399.0</ele><time>2026-05-03T08:48:12.027Z</time></trkpt><trkpt lat="42.3099712" lon="13.7525102"><ele>400.0</ele><time>2026-05-03T08:48:13.027Z</time></trkpt><trkpt lat="42.3100947" lon="13.7524871"><ele>401.0</ele><time>2026-05-03T08:48:14.027Z</time></trkpt><trkpt lat="42.3102174" lon="13.7524634"><ele>402.0</ele><time>2026-05-03T08:48:15.027Z</time></trkpt><trkpt lat="42.3103401" lon="13.7524339"><ele>402.0</ele><time>2026-05-03T08:48:16.027Z</time></trkpt><trkpt lat="42.310461" lon="13.7523878"><ele>402.0</ele><time>2026-05-03T08:48:17.028Z</time></trkpt><trkpt lat="42.3105783" lon="13.7523241"><ele>402.0</ele><time>2026-05-03T08:48:18.027Z</time></trkpt><trkpt lat="42.3106934" lon="13.752242"><ele>402.0</ele><time>2026-05-03T08:48:19.027Z</time></trkpt><trkpt lat="42.3108086" lon="13.7521534"><ele>401.5</ele><time>2026-05-03T08:48:20.027Z</time></trkpt><trkpt lat="42.3109259" lon="13.7520623"><ele>401.0</ele><time>2026-05-03T08:48:21.028Z</time></trkpt><trkpt lat="42.311044" lon="13.7519635"><ele>400.5</ele><time>2026-05-03T08:48:22.028Z</time></trkpt><trkpt lat="42.311163" lon="13.7518551"><ele>400.0</ele><time>2026-05-03T08:48:23.027Z</time></trkpt><trkpt lat="42.3112788" lon="13.7517392"><ele>401.75</ele><time>2026-05-03T08:48:24.027Z</time></trkpt><trkpt lat="42.3113892" lon="13.7516172"><ele>403.5</ele><time>2026-05-03T08:48:25.027Z</time></trkpt><trkpt lat="42.3114891" lon="13.7515006"><ele>405.25</ele><time>2026-05-03T08:48:26.027Z</time></trkpt><trkpt lat="42.3115841" lon="13.7513918"><ele>407.0</ele><time>2026-05-03T08:48:27.027Z</time></trkpt><trkpt lat="42.3116783" lon="13.7512858"><ele>407.0</ele><time>2026-05-03T08:48:28.028Z</time></trkpt><trkpt lat="42.3117715" lon="13.7511774"><ele>407.0</ele><time>2026-05-03T08:48:29.027Z</time></trkpt><trkpt lat="42.3118666" lon="13.7510702"><ele>407.0</ele><time>2026-05-03T08:48:30.027Z</time></trkpt><trkpt lat="42.3119665" lon="13.7509657"><ele>407.0</ele><time>2026-05-03T08:48:31.027Z</time></trkpt><trkpt lat="42.3120712" lon="13.7508665"><ele>407.75</ele><time>2026-05-03T08:48:32.027Z</time></trkpt><trkpt lat="42.3121825" lon="13.7507778"><ele>408.5</ele><time>2026-05-03T08:48:33.027Z</time></trkpt><trkpt lat="42.3122994" lon="13.750701"><ele>409.25</ele><time>2026-05-03T08:48:34.027Z</time></trkpt><trkpt lat="42.3124179" lon="13.7506348"><ele>410.0</ele><time>2026-05-03T08:48:35.027Z</time></trkpt><trkpt lat="42.3125316" lon="13.7505777"><ele>410.0</ele><time>2026-05-03T08:48:36.028Z</time></trkpt><trkpt lat="42.3126429" lon="13.7505275"><ele>410.0</ele><time>2026-05-03T08:48:37.027Z</time></trkpt><trkpt lat="42.3127578" lon="13.7504788"><ele>410.0</ele><time>2026-05-03T08:48:38.027Z</time></trkpt><trkpt lat="42.3128758" lon="13.7504316"><ele>410.0</ele><time>2026-05-03T08:48:39.028Z</time></trkpt><trkpt lat="42.3129972" lon="13.7503974"><ele>410.75</ele><time>2026-05-03T08:48:40.027Z</time></trkpt><trkpt lat="42.3131215" lon="13.7503787"><ele>411.5</ele><time>2026-05-03T08:48:41.028Z</time></trkpt><trkpt lat="42.3132499" lon="13.750373"><ele>412.25</ele><time>2026-05-03T08:48:42.027Z</time></trkpt><trkpt lat="42.3133796" lon="13.7503701"><ele>413.0</ele><time>2026-05-03T08:48:43.027Z</time></trkpt><trkpt lat="42.3135086" lon="13.7503676"><ele>413.0</ele><time>2026-05-03T08:48:44.027Z</time></trkpt><trkpt lat="42.3136355" lon="13.7503721"><ele>413.0</ele><time>2026-05-03T08:48:45.027Z</time></trkpt><trkpt lat="42.3137615" lon="13.7503784"><ele>413.0</ele><time>2026-05-03T08:48:46.027Z</time></trkpt><trkpt lat="42.3138869" lon="13.7503832"><ele>413.0</ele><time>2026-05-03T08:48:47.027Z</time></trkpt><trkpt lat="42.3140112" lon="13.7503854"><ele>414.25</ele><time>2026-05-03T08:48:48.027Z</time></trkpt><trkpt lat="42.3141342" lon="13.7503885"><ele>415.5</ele><time>2026-05-03T08:48:49.027Z</time></trkpt><trkpt lat="42.3142509" lon="13.7503924"><ele>416.75</ele><time>2026-05-03T08:48:50.027Z</time></trkpt><trkpt lat="42.3143625" lon="13.7503982"><ele>418.0</ele><time>2026-05-03T08:48:51.028Z</time></trkpt><trkpt lat="42.3144702" lon="13.7504034"><ele>418.0</ele><time>2026-05-03T08:48:52.027Z</time></trkpt><trkpt lat="42.3145779" lon="13.7504094"><ele>418.0</ele><time>2026-05-03T08:48:53.027Z</time></trkpt><trkpt lat="42.3146861" lon="13.7504153"><ele>418.0</ele><time>2026-05-03T08:48:54.027Z</time></trkpt><trkpt lat="42.3147979" lon="13.7504186"><ele>418.0</ele><time>2026-05-03T08:48:55.027Z</time></trkpt><trkpt lat="42.3149112" lon="13.7504125"><ele>418.0</ele><time>2026-05-03T08:48:56.027Z</time></trkpt><trkpt lat="42.3150287" lon="13.7504138"><ele>419.4</ele><time>2026-05-03T08:48:57.027Z</time></trkpt><trkpt lat="42.3151507" lon="13.7504305"><ele>420.79999999999995</ele><time>2026-05-03T08:48:58.027Z</time></trkpt><trkpt lat="42.3152666" lon="13.7504572"><ele>422.2</ele><time>2026-05-03T08:48:59.027Z</time></trkpt><trkpt lat="42.3153634" lon="13.7504891"><ele>423.6</ele><time>2026-05-03T08:49:00.027Z</time></trkpt><trkpt lat="42.3154421" lon="13.7505198"><ele>425.0</ele><time>2026-05-03T08:49:01.027Z</time></trkpt><trkpt lat="42.3155104" lon="13.7505454"><ele>426.3333333333333</ele><time>2026-05-03T08:49:02.027Z</time></trkpt><trkpt lat="42.3155712" lon="13.7505688"><ele>427.66666666666663</ele><time>2026-05-03T08:49:03.027Z</time></trkpt><trkpt lat="42.3156677" lon="13.750603"><ele>429.0</ele><time>2026-05-03T08:49:05.027Z</time></trkpt><trkpt lat="42.3157433" lon="13.7506322"><ele>430.33333333333337</ele><time>2026-05-03T08:49:07.027Z</time></trkpt><trkpt lat="42.3158377" lon="13.7506646"><ele>431.6666666666667</ele><time>2026-05-03T08:49:09.027Z</time></trkpt><trkpt lat="42.3159188" lon="13.750704"><ele>433.0</ele><time>2026-05-03T08:49:11.027Z</time></trkpt><trkpt lat="42.3160098" lon="13.7507485"><ele>433.00000000000006</ele><time>2026-05-03T08:49:13.027Z</time></trkpt><trkpt lat="42.3160883" lon="13.7507921"><ele>433.0</ele><time>2026-05-03T08:49:16.027Z</time></trkpt><trkpt lat="42.3161538" lon="13.7508082"><ele>433.0</ele><time>2026-05-03T08:49:46.027Z</time></trkpt><trkpt lat="42.3162172" lon="13.7508257"><ele>433.0</ele><time>2026-05-03T08:49:48.027Z</time></trkpt><trkpt lat="42.3163116" lon="13.7508648"><ele>433.00000000000006</ele><time>2026-05-03T08:49:50.027Z</time></trkpt><trkpt lat="42.316423" lon="13.7509127"><ele>433.0</ele><time>2026-05-03T08:49:52.027Z</time></trkpt><trkpt lat="42.3164853" lon="13.7509392"><ele>432.50000000000006</ele><time>2026-05-03T08:49:53.027Z</time></trkpt><trkpt lat="42.3165542" lon="13.7509689"><ele>432.0</ele><time>2026-05-03T08:49:54.027Z</time></trkpt><trkpt lat="42.3166284" lon="13.7510047"><ele>431.5</ele><time>2026-05-03T08:49:55.027Z</time></trkpt><trkpt lat="42.3167086" lon="13.7510398"><ele>431.0</ele><time>2026-05-03T08:49:56.027Z</time></trkpt><trkpt lat="42.3167896" lon="13.7510809"><ele>430.50000000000006</ele><time>2026-05-03T08:49:57.027Z</time></trkpt><trkpt lat="42.3168744" lon="13.7511267"><ele>430.0</ele><time>2026-05-03T08:49:58.027Z</time></trkpt><trkpt lat="42.3169618" lon="13.7511741"><ele>430.0</ele><time>2026-05-03T08:49:59.027Z</time></trkpt><trkpt lat="42.3170515" lon="13.7512208"><ele>430.0</ele><time>2026-05-03T08:50:00.027Z</time></trkpt><trkpt lat="42.317136" lon="13.7512702"><ele>430.0</ele><time>2026-05-03T08:50:01.027Z</time></trkpt><trkpt lat="42.3172198" lon="13.751321"><ele>430.0</ele><time>2026-05-03T08:50:02.027Z</time></trkpt><trkpt lat="42.3173" lon="13.7513657"><ele>430.0</ele><time>2026-05-03T08:50:03.027Z</time></trkpt><trkpt lat="42.3173789" lon="13.7514119"><ele>431.1666666666667</ele><time>2026-05-03T08:50:04.027Z</time></trkpt><trkpt lat="42.3174561" lon="13.7514591"><ele>432.33333333333337</ele><time>2026-05-03T08:50:05.027Z</time></trkpt><trkpt lat="42.3175286" lon="13.7515023"><ele>433.5</ele><time>2026-05-03T08:50:06.027Z</time></trkpt><trkpt lat="42.3176048" lon="13.7515359"><ele>434.66666666666663</ele><time>2026-05-03T08:50:07.027Z</time></trkpt><trkpt lat="42.3176823" lon="13.7515553"><ele>435.8333333333333</ele><time>2026-05-03T08:50:08.027Z</time></trkpt><trkpt lat="42.3177615" lon="13.7515618"><ele>437.0</ele><time>2026-05-03T08:50:09.027Z</time></trkpt><trkpt lat="42.3178416" lon="13.7515638"><ele>436.99999999999994</ele><time>2026-05-03T08:50:10.027Z</time></trkpt><trkpt lat="42.3179187" lon="13.7515456"><ele>437.0</ele><time>2026-05-03T08:50:11.027Z</time></trkpt><trkpt lat="42.3179988" lon="13.7515215"><ele>437.0</ele><time>2026-05-03T08:50:12.027Z</time></trkpt><trkpt lat="42.3180772" lon="13.751484"><ele>437.0</ele><time>2026-05-03T08:50:13.028Z</time></trkpt><trkpt lat="42.3181607" lon="13.7514406"><ele>436.99999999999994</ele><time>2026-05-03T08:50:14.027Z</time></trkpt><trkpt lat="42.3182335" lon="13.7514043"><ele>437.0</ele><time>2026-05-03T08:50:15.027Z</time></trkpt><trkpt lat="42.3183097" lon="13.7513667"><ele>437.49999999999994</ele><time>2026-05-03T08:50:16.027Z</time></trkpt><trkpt lat="42.3183859" lon="13.7513405"><ele>438.0</ele><time>2026-05-03T08:50:17.027Z</time></trkpt><trkpt lat="42.3184615" lon="13.751321"><ele>438.5</ele><time>2026-05-03T08:50:18.028Z</time></trkpt><trkpt lat="42.3185374" lon="13.7513048"><ele>439.0</ele><time>2026-05-03T08:50:19.027Z</time></trkpt><trkpt lat="42.3186116" lon="13.7512847"><ele>439.49999999999994</ele><time>2026-05-03T08:50:20.027Z</time></trkpt><trkpt lat="42.3186894" lon="13.7512711"><ele>440.0</ele><time>2026-05-03T08:50:21.027Z</time></trkpt><trkpt lat="42.3187658" lon="13.7512532"><ele>439.99999999999994</ele><time>2026-05-03T08:50:22.028Z</time></trkpt><trkpt lat="42.3188461" lon="13.7512336"><ele>440.0</ele><time>2026-05-03T08:50:23.027Z</time></trkpt><trkpt lat="42.3189268" lon="13.7512217"><ele>440.0</ele><time>2026-05-03T08:50:24.027Z</time></trkpt><trkpt lat="42.3190121" lon="13.7512215"><ele>440.0</ele><time>2026-05-03T08:50:25.027Z</time></trkpt><trkpt lat="42.319098" lon="13.7512303"><ele>439.99999999999994</ele><time>2026-05-03T08:50:26.027Z</time></trkpt><trkpt lat="42.3191836" lon="13.7512553"><ele>440.0</ele><time>2026-05-03T08:50:27.027Z</time></trkpt><trkpt lat="42.3192673" lon="13.7512936"><ele>440.99999999999994</ele><time>2026-05-03T08:50:28.028Z</time></trkpt><trkpt lat="42.319344" lon="13.7513466"><ele>442.0</ele><time>2026-05-03T08:50:29.027Z</time></trkpt><trkpt lat="42.3194186" lon="13.7514024"><ele>443.0</ele><time>2026-05-03T08:50:30.027Z</time></trkpt><trkpt lat="42.3194871" lon="13.7514764"><ele>444.0</ele><time>2026-05-03T08:50:31.027Z</time></trkpt><trkpt lat="42.3195535" lon="13.7515456"><ele>444.99999999999994</ele><time>2026-05-03T08:50:32.027Z</time></trkpt><trkpt lat="42.3196281" lon="13.7516166"><ele>446.0</ele><time>2026-05-03T08:50:33.027Z</time></trkpt><trkpt lat="42.3197042" lon="13.7516843"><ele>446.20000000000005</ele><time>2026-05-03T08:50:34.027Z</time></trkpt><trkpt lat="42.319779" lon="13.7517551"><ele>446.40000000000003</ele><time>2026-05-03T08:50:35.027Z</time></trkpt><trkpt lat="42.3198509" lon="13.7518288"><ele>446.6</ele><time>2026-05-03T08:50:36.027Z</time></trkpt><trkpt lat="42.3199276" lon="13.7519023"><ele>446.8</ele><time>2026-05-03T08:50:37.027Z</time></trkpt><trkpt lat="42.3200014" lon="13.7519749"><ele>447.0</ele><time>2026-05-03T08:50:38.027Z</time></trkpt><trkpt lat="42.320076" lon="13.7520414"><ele>447.0</ele><time>2026-05-03T08:50:39.027Z</time></trkpt><trkpt lat="42.3201401" lon="13.7521064"><ele>447.00000000000006</ele><time>2026-05-03T08:50:40.028Z</time></trkpt><trkpt lat="42.3202022" lon="13.7521676"><ele>447.00000000000006</ele><time>2026-05-03T08:50:42.027Z</time></trkpt><trkpt lat="42.3202706" lon="13.7522246"><ele>447.0</ele><time>2026-05-03T08:51:05.028Z</time></trkpt><trkpt lat="42.3203611" lon="13.7522878"><ele>447.0</ele><time>2026-05-03T08:51:07.027Z</time></trkpt><trkpt lat="42.3204773" lon="13.7523755"><ele>447.0</ele><time>2026-05-03T08:51:09.027Z</time></trkpt><trkpt lat="42.3205417" lon="13.7524252"><ele>447.0</ele><time>2026-05-03T08:51:10.027Z</time></trkpt><trkpt lat="42.3206122" lon="13.7524806"><ele>447.0</ele><time>2026-05-03T08:51:11.027Z</time></trkpt><trkpt lat="42.3206845" lon="13.7525416"><ele>447.0</ele><time>2026-05-03T08:51:12.027Z</time></trkpt><trkpt lat="42.3207611" lon="13.7526004"><ele>447.0</ele><time>2026-05-03T08:51:13.028Z</time></trkpt><trkpt lat="42.3208339" lon="13.7526545"><ele>447.0</ele><time>2026-05-03T08:51:14.027Z</time></trkpt><trkpt lat="42.3209074" lon="13.752707"><ele>448.0</ele><time>2026-05-03T08:51:15.027Z</time></trkpt><trkpt lat="42.32098" lon="13.7527622"><ele>449.0</ele><time>2026-05-03T08:51:16.027Z</time></trkpt><trkpt lat="42.321054" lon="13.7528217"><ele>450.0</ele><time>2026-05-03T08:51:17.027Z</time></trkpt><trkpt lat="42.3211255" lon="13.7528845"><ele>451.0</ele><time>2026-05-03T08:51:18.027Z</time></trkpt><trkpt lat="42.3211976" lon="13.7529465"><ele>452.0</ele><time>2026-05-03T08:51:19.027Z</time></trkpt><trkpt lat="42.3212647" lon="13.7530123"><ele>453.0</ele><time>2026-05-03T08:51:20.027Z</time></trkpt><trkpt lat="42.3213258" lon="13.7530907"><ele>453.0</ele><time>2026-05-03T08:51:21.027Z</time></trkpt><trkpt lat="42.3213757" lon="13.7531842"><ele>453.0</ele><time>2026-05-03T08:51:22.027Z</time></trkpt><trkpt lat="42.3214174" lon="13.7532856"><ele>453.0</ele><time>2026-05-03T08:51:23.027Z</time></trkpt><trkpt lat="42.3214577" lon="13.753391"><ele>453.0</ele><time>2026-05-03T08:51:24.027Z</time></trkpt><trkpt lat="42.3215049" lon="13.7534981"><ele>453.0</ele><time>2026-05-03T08:51:25.027Z</time></trkpt><trkpt lat="42.321564" lon="13.7535941"><ele>453.0</ele><time>2026-05-03T08:51:26.027Z</time></trkpt><trkpt lat="42.3216364" lon="13.7536809"><ele>454.2</ele><time>2026-05-03T08:51:27.027Z</time></trkpt><trkpt lat="42.3217148" lon="13.7537642"><ele>455.4</ele><time>2026-05-03T08:51:28.027Z</time></trkpt><trkpt lat="42.3217973" lon="13.7538416"><ele>456.59999999999997</ele><time>2026-05-03T08:51:29.027Z</time></trkpt><trkpt lat="42.3218791" lon="13.7539209"><ele>457.79999999999995</ele><time>2026-05-03T08:51:30.027Z</time></trkpt><trkpt lat="42.3219571" lon="13.7540011"><ele>459.0</ele><time>2026-05-03T08:51:31.027Z</time></trkpt><trkpt lat="42.3220367" lon="13.7540763"><ele>459.0</ele><time>2026-05-03T08:51:32.027Z</time></trkpt><trkpt lat="42.3221147" lon="13.7541488"><ele>459.0</ele><time>2026-05-03T08:51:33.027Z</time></trkpt><trkpt lat="42.3221952" lon="13.7542169"><ele>459.0</ele><time>2026-05-03T08:51:34.027Z</time></trkpt><trkpt lat="42.3222728" lon="13.7542855"><ele>459.0</ele><time>2026-05-03T08:51:35.027Z</time></trkpt><trkpt lat="42.3223501" lon="13.7543549"><ele>459.0</ele><time>2026-05-03T08:51:36.027Z</time></trkpt><trkpt lat="42.3224324" lon="13.7544162"><ele>459.6</ele><time>2026-05-03T08:51:37.027Z</time></trkpt><trkpt lat="42.3225167" lon="13.7544771"><ele>460.2</ele><time>2026-05-03T08:51:38.027Z</time></trkpt><trkpt lat="42.3225993" lon="13.754542"><ele>460.80000000000007</ele><time>2026-05-03T08:51:39.027Z</time></trkpt><trkpt lat="42.3226786" lon="13.7546071"><ele>461.40000000000003</ele><time>2026-05-03T08:51:40.028Z</time></trkpt><trkpt lat="42.3227572" lon="13.754671"><ele>462.0</ele><time>2026-05-03T08:51:41.027Z</time></trkpt><trkpt lat="42.3228376" lon="13.7547353"><ele>462.0</ele><time>2026-05-03T08:51:42.027Z</time></trkpt><trkpt lat="42.32292" lon="13.7547995"><ele>462.00000000000006</ele><time>2026-05-03T08:51:43.027Z</time></trkpt><trkpt lat="42.322999" lon="13.7548639"><ele>462.00000000000006</ele><time>2026-05-03T08:51:44.027Z</time></trkpt><trkpt lat="42.3230792" lon="13.7549277"><ele>462.0</ele><time>2026-05-03T08:51:45.027Z</time></trkpt><trkpt lat="42.323159" lon="13.7549937"><ele>462.0</ele><time>2026-05-03T08:51:46.027Z</time></trkpt><trkpt lat="42.3232365" lon="13.7550618"><ele>462.20000000000005</ele><time>2026-05-03T08:51:47.027Z</time></trkpt><trkpt lat="42.3233189" lon="13.7551272"><ele>462.40000000000003</ele><time>2026-05-03T08:51:48.027Z</time></trkpt><trkpt lat="42.3234002" lon="13.7551902"><ele>462.59999999999997</ele><time>2026-05-03T08:51:49.027Z</time></trkpt><trkpt lat="42.3234856" lon="13.7552473"><ele>462.79999999999995</ele><time>2026-05-03T08:51:50.027Z</time></trkpt><trkpt lat="42.3235722" lon="13.7553052"><ele>463.0</ele><time>2026-05-03T08:51:51.027Z</time></trkpt><trkpt lat="42.3236611" lon="13.7553588"><ele>463.0</ele><time>2026-05-03T08:51:52.027Z</time></trkpt><trkpt lat="42.3237526" lon="13.7553968"><ele>462.99999999999994</ele><time>2026-05-03T08:51:53.027Z</time></trkpt><trkpt lat="42.323851" lon="13.7554106"><ele>462.99999999999994</ele><time>2026-05-03T08:51:54.027Z</time></trkpt><trkpt lat="42.3239485" lon="13.7554036"><ele>463.0</ele><time>2026-05-03T08:51:55.027Z</time></trkpt><trkpt lat="42.3240491" lon="13.7553929"><ele>463.0</ele><time>2026-05-03T08:51:56.027Z</time></trkpt><trkpt lat="42.324149" lon="13.7553864"><ele>464.79999999999995</ele><time>2026-05-03T08:51:57.027Z</time></trkpt><trkpt lat="42.3242489" lon="13.7553758"><ele>466.59999999999997</ele><time>2026-05-03T08:51:58.027Z</time></trkpt><trkpt lat="42.3243502" lon="13.755365"><ele>468.40000000000003</ele><time>2026-05-03T08:51:59.027Z</time></trkpt><trkpt lat="42.3244457" lon="13.7553694"><ele>470.20000000000005</ele><time>2026-05-03T08:52:00.027Z</time></trkpt><trkpt lat="42.3245419" lon="13.7553907"><ele>472.0</ele><time>2026-05-03T08:52:01.027Z</time></trkpt><trkpt lat="42.3246357" lon="13.7554133"><ele>473.40000000000003</ele><time>2026-05-03T08:52:02.027Z</time></trkpt><trkpt lat="42.324735" lon="13.755439"><ele>474.80000000000007</ele><time>2026-05-03T08:52:03.027Z</time></trkpt><trkpt lat="42.3248353" lon="13.7554584"><ele>476.2</ele><time>2026-05-03T08:52:04.027Z</time></trkpt><trkpt lat="42.3249382" lon="13.7554776"><ele>477.6</ele><time>2026-05-03T08:52:05.027Z</time></trkpt><trkpt lat="42.3250292" lon="13.7554975"><ele>479.0</ele><time>2026-05-03T08:52:06.027Z</time></trkpt><trkpt lat="42.3250981" lon="13.7555268"><ele>478.99999999999994</ele><time>2026-05-03T08:52:07.027Z</time></trkpt><trkpt lat="42.3251659" lon="13.7555709"><ele>479.0</ele><time>2026-05-03T08:52:08.027Z</time></trkpt><trkpt lat="42.3252197" lon="13.7556325"><ele>479.0</ele><time>2026-05-03T08:52:09.027Z</time></trkpt><trkpt lat="42.3252586" lon="13.7557237"><ele>479.0</ele><time>2026-05-03T08:52:10.027Z</time></trkpt><trkpt lat="42.3252853" lon="13.7558308"><ele>478.99999999999994</ele><time>2026-05-03T08:52:11.027Z</time></trkpt><trkpt lat="42.325294" lon="13.7559405"><ele>479.0</ele><time>2026-05-03T08:52:12.028Z</time></trkpt><trkpt lat="42.3253009" lon="13.7560543"><ele>478.8333333333333</ele><time>2026-05-03T08:52:13.027Z</time></trkpt><trkpt lat="42.3253067" lon="13.7561752"><ele>478.66666666666663</ele><time>2026-05-03T08:52:14.027Z</time></trkpt><trkpt lat="42.3253096" lon="13.7562966"><ele>478.5</ele><time>2026-05-03T08:52:15.027Z</time></trkpt><trkpt lat="42.325304" lon="13.7564123"><ele>478.33333333333337</ele><time>2026-05-03T08:52:16.028Z</time></trkpt><trkpt lat="42.3252858" lon="13.7565245"><ele>478.1666666666667</ele><time>2026-05-03T08:52:17.028Z</time></trkpt><trkpt lat="42.3252504" lon="13.7566234"><ele>478.0</ele><time>2026-05-03T08:52:18.027Z</time></trkpt><trkpt lat="42.3251892" lon="13.7567027"><ele>478.00000000000006</ele><time>2026-05-03T08:52:19.027Z</time></trkpt><trkpt lat="42.3251203" lon="13.756774"><ele>478.0</ele><time>2026-05-03T08:52:20.027Z</time></trkpt><trkpt lat="42.3250528" lon="13.7568566"><ele>478.0</ele><time>2026-05-03T08:52:21.027Z</time></trkpt><trkpt lat="42.324993" lon="13.7569257"><ele>478.0</ele><time>2026-05-03T08:52:22.027Z</time></trkpt><trkpt lat="42.3249372" lon="13.7570092"><ele>478.00000000000006</ele><time>2026-05-03T08:52:23.027Z</time></trkpt><trkpt lat="42.3248937" lon="13.7571039"><ele>478.0</ele><time>2026-05-03T08:52:24.028Z</time></trkpt><trkpt lat="42.3248757" lon="13.7572146"><ele>479.6666666666667</ele><time>2026-05-03T08:52:25.027Z</time></trkpt><trkpt lat="42.3248578" lon="13.7573206"><ele>481.33333333333337</ele><time>2026-05-03T08:52:26.027Z</time></trkpt><trkpt lat="42.3248515" lon="13.7574312"><ele>483.0</ele><time>2026-05-03T08:52:27.027Z</time></trkpt><trkpt lat="42.3248471" lon="13.7575413"><ele>484.66666666666663</ele><time>2026-05-03T08:52:28.027Z</time></trkpt><trkpt lat="42.3248466" lon="13.7576521"><ele>486.3333333333333</ele><time>2026-05-03T08:52:29.027Z</time></trkpt><trkpt lat="42.3248551" lon="13.7577595"><ele>488.0</ele><time>2026-05-03T08:52:30.027Z</time></trkpt><trkpt lat="42.3248623" lon="13.7578701"><ele>488.49999999999994</ele><time>2026-05-03T08:52:31.027Z</time></trkpt><trkpt lat="42.324874" lon="13.7579837"><ele>489.0</ele><time>2026-05-03T08:52:32.027Z</time></trkpt><trkpt lat="42.3248904" lon="13.758096"><ele>489.5</ele><time>2026-05-03T08:52:33.027Z</time></trkpt><trkpt lat="42.3249042" lon="13.7582146"><ele>490.0</ele><time>2026-05-03T08:52:34.027Z</time></trkpt><trkpt lat="42.3249205" lon="13.758333"><ele>490.49999999999994</ele><time>2026-05-03T08:52:35.027Z</time></trkpt><trkpt lat="42.3249409" lon="13.7584544"><ele>491.0</ele><time>2026-05-03T08:52:36.027Z</time></trkpt><trkpt lat="42.3249634" lon="13.758575"><ele>490.99999999999994</ele><time>2026-05-03T08:52:37.027Z</time></trkpt><trkpt lat="42.3249821" lon="13.7586913"><ele>491.0</ele><time>2026-05-03T08:52:38.027Z</time></trkpt><trkpt lat="42.3249878" lon="13.7588071"><ele>491.0</ele><time>2026-05-03T08:52:39.027Z</time></trkpt><trkpt lat="42.3250122" lon="13.758916"><ele>491.0</ele><time>2026-05-03T08:52:40.027Z</time></trkpt><trkpt lat="42.3250094" lon="13.7590214"><ele>490.99999999999994</ele><time>2026-05-03T08:52:41.027Z</time></trkpt><trkpt lat="42.3249988" lon="13.7591246"><ele>491.0</ele><time>2026-05-03T08:52:42.027Z</time></trkpt><trkpt lat="42.3249836" lon="13.7592264"><ele>490.99999999999994</ele><time>2026-05-03T08:52:43.028Z</time></trkpt><trkpt lat="42.3249798" lon="13.7593261"><ele>491.0</ele><time>2026-05-03T08:52:44.027Z</time></trkpt><trkpt lat="42.3249805" lon="13.759417"><ele>491.0</ele><time>2026-05-03T08:52:45.027Z</time></trkpt><trkpt lat="42.3250087" lon="13.75953"><ele>491.0</ele><time>2026-05-03T08:52:47.027Z</time></trkpt><trkpt lat="42.3249998" lon="13.7596244"><ele>490.99999999999994</ele><time>2026-05-03T08:52:50.027Z</time></trkpt><trkpt lat="42.3249736" lon="13.7597181"><ele>491.0</ele><time>2026-05-03T08:52:54.027Z</time></trkpt><trkpt lat="42.3249085" lon="13.7597738"><ele>491.66666666666663</ele><time>2026-05-03T08:52:58.027Z</time></trkpt><trkpt lat="42.324962" lon="13.7598621"><ele>492.3333333333333</ele><time>2026-05-03T08:53:06.027Z</time></trkpt><trkpt lat="42.3250251" lon="13.7598271"><ele>493.0</ele><time>2026-05-03T09:14:05.027Z</time></trkpt><trkpt lat="42.3250646" lon="13.7597291"><ele>493.66666666666663</ele><time>2026-05-03T09:14:11.027Z</time></trkpt><trkpt lat="42.3251069" lon="13.7596352"><ele>494.3333333333333</ele><time>2026-05-03T09:14:14.027Z</time></trkpt><trkpt lat="42.3251929" lon="13.7596006"><ele>495.0</ele><time>2026-05-03T09:14:17.027Z</time></trkpt><trkpt lat="42.3252465" lon="13.759655"><ele>495.0</ele><time>2026-05-03T09:14:19.027Z</time></trkpt><trkpt lat="42.3252964" lon="13.7597348"><ele>495.0</ele><time>2026-05-03T09:14:21.027Z</time></trkpt><trkpt lat="42.3253398" lon="13.7598423"><ele>495.0</ele><time>2026-05-03T09:14:23.028Z</time></trkpt><trkpt lat="42.3254055" lon="13.7599543"><ele>495.0</ele><time>2026-05-03T09:14:25.027Z</time></trkpt><trkpt lat="42.3254555" lon="13.7600559"><ele>495.0</ele><time>2026-05-03T09:14:27.027Z</time></trkpt><trkpt lat="42.3255092" lon="13.7601576"><ele>496.0</ele><time>2026-05-03T09:14:29.027Z</time></trkpt><trkpt lat="42.32555" lon="13.76025"><ele>497.0</ele><time>2026-05-03T09:14:31.027Z</time></trkpt><trkpt lat="42.3255936" lon="13.7603338"><ele>498.0</ele><time>2026-05-03T09:14:33.027Z</time></trkpt><trkpt lat="42.3255832" lon="13.7604502"><ele>499.0</ele><time>2026-05-03T09:14:36.027Z</time></trkpt><trkpt lat="42.32549" lon="13.7604865"><ele>500.0</ele><time>2026-05-03T09:14:38.027Z</time></trkpt><trkpt lat="42.3253704" lon="13.7605005"><ele>499.99999999999994</ele><time>2026-05-03T09:14:40.027Z</time></trkpt><trkpt lat="42.3253021" lon="13.7605132"><ele>500.0</ele><time>2026-05-03T09:14:41.027Z</time></trkpt><trkpt lat="42.3252362" lon="13.7605085"><ele>500.0</ele><time>2026-05-03T09:14:42.027Z</time></trkpt><trkpt lat="42.3251304" lon="13.7605065"><ele>500.0</ele><time>2026-05-03T09:14:44.027Z</time></trkpt><trkpt lat="42.3250506" lon="13.760504"><ele>499.99999999999994</ele><time>2026-05-03T09:14:46.027Z</time></trkpt><trkpt lat="42.3249701" lon="13.7605537"><ele>500.0</ele><time>2026-05-03T09:14:48.027Z</time></trkpt><trkpt lat="42.3248899" lon="13.7606607"><ele>499.99999999999994</ele><time>2026-05-03T09:14:50.027Z</time></trkpt><trkpt lat="42.3248434" lon="13.7607271"><ele>500.0</ele><time>2026-05-03T09:14:51.027Z</time></trkpt><trkpt lat="42.3247859" lon="13.7607849"><ele>500.0</ele><time>2026-05-03T09:14:52.027Z</time></trkpt><trkpt lat="42.3247212" lon="13.7608363"><ele>500.0</ele><time>2026-05-03T09:14:53.027Z</time></trkpt><trkpt lat="42.3246462" lon="13.7608721"><ele>499.99999999999994</ele><time>2026-05-03T09:14:54.027Z</time></trkpt><trkpt lat="42.3245667" lon="13.7608833"><ele>500.0</ele><time>2026-05-03T09:14:55.027Z</time></trkpt><trkpt lat="42.3244799" lon="13.7608858"><ele>499.99999999999994</ele><time>2026-05-03T09:14:56.028Z</time></trkpt><trkpt lat="42.3243909" lon="13.7608809"><ele>500.0</ele><time>2026-05-03T09:14:57.027Z</time></trkpt><trkpt lat="42.3243063" lon="13.7608701"><ele>500.0</ele><time>2026-05-03T09:14:58.027Z</time></trkpt><trkpt lat="42.3242245" lon="13.7608554"><ele>500.0</ele><time>2026-05-03T09:14:59.027Z</time></trkpt><trkpt lat="42.3241396" lon="13.7608365"><ele>499.99999999999994</ele><time>2026-05-03T09:15:00.027Z</time></trkpt><trkpt lat="42.3240452" lon="13.7608394"><ele>500.0</ele><time>2026-05-03T09:15:01.027Z</time></trkpt><trkpt lat="42.3239573" lon="13.7608398"><ele>499.8333333333333</ele><time>2026-05-03T09:15:02.027Z</time></trkpt><trkpt lat="42.3238796" lon="13.7608462"><ele>499.66666666666663</ele><time>2026-05-03T09:15:03.027Z</time></trkpt><trkpt lat="42.3238042" lon="13.7608433"><ele>499.5</ele><time>2026-05-03T09:15:04.027Z</time></trkpt><trkpt lat="42.3237243" lon="13.7608451"><ele>499.33333333333337</ele><time>2026-05-03T09:15:05.027Z</time></trkpt><trkpt lat="42.3236422" lon="13.7608413"><ele>499.1666666666667</ele><time>2026-05-03T09:15:06.027Z</time></trkpt><trkpt lat="42.3235565" lon="13.7608344"><ele>499.0</ele><time>2026-05-03T09:15:07.027Z</time></trkpt><trkpt lat="42.3234614" lon="13.7608341"><ele>499.0</ele><time>2026-05-03T09:15:08.027Z</time></trkpt><trkpt lat="42.3233698" lon="13.7608462"><ele>499.0</ele><time>2026-05-03T09:15:09.027Z</time></trkpt><trkpt lat="42.3232764" lon="13.7608655"><ele>499.0</ele><time>2026-05-03T09:15:10.027Z</time></trkpt><trkpt lat="42.323186" lon="13.760885"><ele>499.0</ele><time>2026-05-03T09:15:11.027Z</time></trkpt><trkpt lat="42.3231009" lon="13.7609168"><ele>499.0</ele><time>2026-05-03T09:15:12.027Z</time></trkpt><trkpt lat="42.323013" lon="13.7609616"><ele>498.6</ele><time>2026-05-03T09:15:13.027Z</time></trkpt><trkpt lat="42.3229326" lon="13.76102"><ele>498.2</ele><time>2026-05-03T09:15:14.028Z</time></trkpt><trkpt lat="42.3228458" lon="13.761081"><ele>497.80000000000007</ele><time>2026-05-03T09:15:15.027Z</time></trkpt><trkpt lat="42.3227509" lon="13.7611475"><ele>497.40000000000003</ele><time>2026-05-03T09:15:16.028Z</time></trkpt><trkpt lat="42.3226607" lon="13.7612026"><ele>497.0</ele><time>2026-05-03T09:15:17.027Z</time></trkpt><trkpt lat="42.3225695" lon="13.761266"><ele>497.0</ele><time>2026-05-03T09:15:18.027Z</time></trkpt><trkpt lat="42.3224798" lon="13.7613247"><ele>497.00000000000006</ele><time>2026-05-03T09:15:19.028Z</time></trkpt><trkpt lat="42.3223921" lon="13.761384"><ele>497.00000000000006</ele><time>2026-05-03T09:15:20.027Z</time></trkpt><trkpt lat="42.3223028" lon="13.7614476"><ele>497.0</ele><time>2026-05-03T09:15:21.027Z</time></trkpt><trkpt lat="42.3222121" lon="13.7615104"><ele>497.0</ele><time>2026-05-03T09:15:22.027Z</time></trkpt><trkpt lat="42.3221304" lon="13.7615655"><ele>495.16666666666663</ele><time>2026-05-03T09:15:23.027Z</time></trkpt><trkpt lat="42.3220523" lon="13.7616122"><ele>493.3333333333333</ele><time>2026-05-03T09:15:24.027Z</time></trkpt><trkpt lat="42.3219846" lon="13.7616559"><ele>491.5</ele><time>2026-05-03T09:15:25.027Z</time></trkpt><trkpt lat="42.3219213" lon="13.761703"><ele>489.66666666666663</ele><time>2026-05-03T09:15:26.027Z</time></trkpt><trkpt lat="42.3218288" lon="13.7617817"><ele>487.8333333333333</ele><time>2026-05-03T09:15:28.027Z</time></trkpt><trkpt lat="42.3217363" lon="13.7618352"><ele>486.0</ele><time>2026-05-03T09:15:30.027Z</time></trkpt><trkpt lat="42.3216495" lon="13.7617966"><ele>486.0</ele><time>2026-05-03T09:15:32.027Z</time></trkpt><trkpt lat="42.3215686" lon="13.7617034"><ele>486.0</ele><time>2026-05-03T09:15:34.027Z</time></trkpt><trkpt lat="42.321505" lon="13.7616318"><ele>486.0</ele><time>2026-05-03T09:15:35.027Z</time></trkpt><trkpt lat="42.3214566" lon="13.7615668"><ele>486.0</ele><time>2026-05-03T09:15:36.027Z</time></trkpt><trkpt lat="42.3214208" lon="13.7614942"><ele>486.0</ele><time>2026-05-03T09:15:37.027Z</time></trkpt><trkpt lat="42.3213934" lon="13.7613692"><ele>486.0</ele><time>2026-05-03T09:15:39.027Z</time></trkpt><trkpt lat="42.3214063" lon="13.7612049"><ele>486.0</ele><time>2026-05-03T09:15:41.028Z</time></trkpt><trkpt lat="42.3214109" lon="13.7610832"><ele>486.0</ele><time>2026-05-03T09:15:43.027Z</time></trkpt><trkpt lat="42.3213845" lon="13.7609658"><ele>486.0</ele><time>2026-05-03T09:15:45.027Z</time></trkpt><trkpt lat="42.3213502" lon="13.7608526"><ele>486.0</ele><time>2026-05-03T09:15:47.027Z</time></trkpt><trkpt lat="42.3213352" lon="13.7607639"><ele>486.0</ele><time>2026-05-03T09:15:50.027Z</time></trkpt><trkpt lat="42.3212942" lon="13.7606642"><ele>486.0</ele><time>2026-05-03T09:15:54.027Z</time></trkpt><trkpt lat="42.3212454" lon="13.7605673"><ele>483.3333333333333</ele><time>2026-05-03T09:15:57.027Z</time></trkpt><trkpt lat="42.3212405" lon="13.7604479"><ele>480.66666666666663</ele><time>2026-05-03T09:16:00.027Z</time></trkpt><trkpt lat="42.3211865" lon="13.7604021"><ele>478.0</ele><time>2026-05-03T09:16:05.027Z</time></trkpt><trkpt lat="42.3211296" lon="13.760445"><ele>475.3333333333333</ele><time>2026-05-03T09:16:07.027Z</time></trkpt><trkpt lat="42.3210413" lon="13.7605255"><ele>472.66666666666663</ele><time>2026-05-03T09:16:09.027Z</time></trkpt><trkpt lat="42.3209433" lon="13.7605861"><ele>470.0</ele><time>2026-05-03T09:16:11.027Z</time></trkpt><trkpt lat="42.3208332" lon="13.760656"><ele>470.0</ele><time>2026-05-03T09:16:13.027Z</time></trkpt><trkpt lat="42.3207061" lon="13.7607165"><ele>470.0</ele><time>2026-05-03T09:16:15.027Z</time></trkpt><trkpt lat="42.3206049" lon="13.7607736"><ele>470.0</ele><time>2026-05-03T09:16:17.027Z</time></trkpt><trkpt lat="42.3205047" lon="13.7608534"><ele>470.0</ele><time>2026-05-03T09:16:19.027Z</time></trkpt><trkpt lat="42.3204044" lon="13.7609389"><ele>469.2</ele><time>2026-05-03T09:16:21.027Z</time></trkpt><trkpt lat="42.3203204" lon="13.7610288"><ele>468.4</ele><time>2026-05-03T09:16:23.027Z</time></trkpt><trkpt lat="42.3202371" lon="13.7611199"><ele>467.6</ele><time>2026-05-03T09:16:25.027Z</time></trkpt><trkpt lat="42.3201628" lon="13.7612289"><ele>466.8</ele><time>2026-05-03T09:16:27.027Z</time></trkpt><trkpt lat="42.3201154" lon="13.7612884"><ele>466.0</ele><time>2026-05-03T09:16:28.027Z</time></trkpt><trkpt lat="42.3200337" lon="13.7613933"><ele>466.0</ele><time>2026-05-03T09:16:30.027Z</time></trkpt><trkpt lat="42.3199542" lon="13.7614789"><ele>466.0</ele><time>2026-05-03T09:16:32.027Z</time></trkpt><trkpt lat="42.3198533" lon="13.7615572"><ele>466.0</ele><time>2026-05-03T09:16:34.027Z</time></trkpt><trkpt lat="42.3197581" lon="13.7616368"><ele>466.0</ele><time>2026-05-03T09:16:36.027Z</time></trkpt><trkpt lat="42.3196538" lon="13.7617279"><ele>465.6</ele><time>2026-05-03T09:16:38.027Z</time></trkpt><trkpt lat="42.319572" lon="13.7618107"><ele>465.20000000000005</ele><time>2026-05-03T09:16:40.027Z</time></trkpt><trkpt lat="42.3194821" lon="13.7618846"><ele>464.79999999999995</ele><time>2026-05-03T09:16:42.027Z</time></trkpt><trkpt lat="42.3193788" lon="13.7619598"><ele>464.4</ele><time>2026-05-03T09:16:44.027Z</time></trkpt><trkpt lat="42.3193234" lon="13.7620008"><ele>464.0</ele><time>2026-05-03T09:16:45.027Z</time></trkpt><trkpt lat="42.3192641" lon="13.7620433"><ele>464.0</ele><time>2026-05-03T09:16:46.027Z</time></trkpt><trkpt lat="42.3191984" lon="13.7620961"><ele>464.0</ele><time>2026-05-03T09:16:47.027Z</time></trkpt><trkpt lat="42.3191209" lon="13.7621526"><ele>464.0</ele><time>2026-05-03T09:16:48.028Z</time></trkpt><trkpt lat="42.3190326" lon="13.7622087"><ele>464.0</ele><time>2026-05-03T09:16:49.027Z</time></trkpt><trkpt lat="42.3189497" lon="13.7622647"><ele>464.0</ele><time>2026-05-03T09:16:50.027Z</time></trkpt><trkpt lat="42.3188655" lon="13.7623265"><ele>462.0</ele><time>2026-05-03T09:16:51.027Z</time></trkpt><trkpt lat="42.3187772" lon="13.7623921"><ele>460.0</ele><time>2026-05-03T09:16:52.027Z</time></trkpt><trkpt lat="42.3186988" lon="13.7624659"><ele>458.0</ele><time>2026-05-03T09:16:53.027Z</time></trkpt><trkpt lat="42.318615" lon="13.7625339"><ele>456.0</ele><time>2026-05-03T09:16:54.027Z</time></trkpt><trkpt lat="42.3185372" lon="13.762604"><ele>454.0</ele><time>2026-05-03T09:16:55.027Z</time></trkpt><trkpt lat="42.3184605" lon="13.7626721"><ele>455.79999999999995</ele><time>2026-05-03T09:16:56.027Z</time></trkpt><trkpt lat="42.3183868" lon="13.7627427"><ele>457.59999999999997</ele><time>2026-05-03T09:16:57.028Z</time></trkpt><trkpt lat="42.3183107" lon="13.7628152"><ele>459.4</ele><time>2026-05-03T09:16:58.027Z</time></trkpt><trkpt lat="42.3182339" lon="13.762881"><ele>461.2</ele><time>2026-05-03T09:16:59.027Z</time></trkpt><trkpt lat="42.3181655" lon="13.7629534"><ele>463.0</ele><time>2026-05-03T09:17:00.027Z</time></trkpt><trkpt lat="42.3180863" lon="13.7630244"><ele>462.00000000000006</ele><time>2026-05-03T09:17:01.027Z</time></trkpt><trkpt lat="42.3180123" lon="13.7630938"><ele>461.0</ele><time>2026-05-03T09:17:02.027Z</time></trkpt><trkpt lat="42.3179365" lon="13.7631597"><ele>460.0</ele><time>2026-05-03T09:17:03.027Z</time></trkpt><trkpt lat="42.317863" lon="13.7632122"><ele>459.0</ele><time>2026-05-03T09:17:04.027Z</time></trkpt><trkpt lat="42.31779" lon="13.7632707"><ele>458.00000000000006</ele><time>2026-05-03T09:17:05.027Z</time></trkpt><trkpt lat="42.3177345" lon="13.7633123"><ele>457.0</ele><time>2026-05-03T09:17:06.027Z</time></trkpt><trkpt lat="42.317679" lon="13.7633598"><ele>457.00000000000006</ele><time>2026-05-03T09:17:08.027Z</time></trkpt><trkpt lat="42.3175939" lon="13.7634736"><ele>457.0</ele><time>2026-05-03T09:17:17.027Z</time></trkpt><trkpt lat="42.3175599" lon="13.7635528"><ele>457.0</ele><time>2026-05-03T09:17:18.027Z</time></trkpt><trkpt lat="42.3175196" lon="13.7636294"><ele>457.0</ele><time>2026-05-03T09:17:19.027Z</time></trkpt><trkpt lat="42.3174673" lon="13.7637132"><ele>457.00000000000006</ele><time>2026-05-03T09:17:20.027Z</time></trkpt><trkpt lat="42.3174041" lon="13.7638088"><ele>457.0</ele><time>2026-05-03T09:17:21.027Z</time></trkpt><trkpt lat="42.3173153" lon="13.763918"><ele>456.25</ele><time>2026-05-03T09:17:22.027Z</time></trkpt><trkpt lat="42.3172277" lon="13.764028"><ele>455.5</ele><time>2026-05-03T09:17:23.027Z</time></trkpt><trkpt lat="42.3171361" lon="13.7642549"><ele>454.75</ele><time>2026-05-03T09:17:24.027Z</time></trkpt><trkpt lat="42.3170487" lon="13.7643959"><ele>454.0</ele><time>2026-05-03T09:17:25.027Z</time></trkpt><trkpt lat="42.3169645" lon="13.7645311"><ele>454.0</ele><time>2026-05-03T09:17:26.027Z</time></trkpt><trkpt lat="42.3168811" lon="13.7646536"><ele>454.0</ele><time>2026-05-03T09:17:27.027Z</time></trkpt><trkpt lat="42.3167919" lon="13.7647816"><ele>454.0</ele><time>2026-05-03T09:17:28.027Z</time></trkpt><trkpt lat="42.3166947" lon="13.7648905"><ele>454.0</ele><time>2026-05-03T09:17:29.027Z</time></trkpt><trkpt lat="42.3165898" lon="13.7650005"><ele>454.0</ele><time>2026-05-03T09:17:30.027Z</time></trkpt><trkpt lat="42.3164797" lon="13.7651006"><ele>454.0</ele><time>2026-05-03T09:17:31.027Z</time></trkpt><trkpt lat="42.3163656" lon="13.7651993"><ele>454.0</ele><time>2026-05-03T09:17:32.027Z</time></trkpt><trkpt lat="42.3162556" lon="13.7652855"><ele>454.0</ele><time>2026-05-03T09:17:33.027Z</time></trkpt><trkpt lat="42.3161522" lon="13.7653677"><ele>454.6</ele><time>2026-05-03T09:17:34.027Z</time></trkpt><trkpt lat="42.3160565" lon="13.7654503"><ele>455.2</ele><time>2026-05-03T09:17:35.027Z</time></trkpt><trkpt lat="42.3159794" lon="13.7655245"><ele>455.80000000000007</ele><time>2026-05-03T09:17:36.027Z</time></trkpt><trkpt lat="42.3159155" lon="13.7656098"><ele>456.40000000000003</ele><time>2026-05-03T09:17:37.027Z</time></trkpt><trkpt lat="42.3158547" lon="13.7657172"><ele>457.0</ele><time>2026-05-03T09:17:38.027Z</time></trkpt><trkpt lat="42.3157984" lon="13.7658445"><ele>457.0</ele><time>2026-05-03T09:17:39.027Z</time></trkpt><trkpt lat="42.3157401" lon="13.7659841"><ele>457.0</ele><time>2026-05-03T09:17:40.027Z</time></trkpt><trkpt lat="42.3156771" lon="13.7661216"><ele>457.0</ele><time>2026-05-03T09:17:41.027Z</time></trkpt><trkpt lat="42.3156119" lon="13.766266"><ele>457.0</ele><time>2026-05-03T09:17:42.027Z</time></trkpt><trkpt lat="42.3155387" lon="13.76639"><ele>457.8</ele><time>2026-05-03T09:17:43.027Z</time></trkpt><trkpt lat="42.3154654" lon="13.7664988"><ele>458.6</ele><time>2026-05-03T09:17:44.027Z</time></trkpt><trkpt lat="42.3153866" lon="13.7665954"><ele>459.40000000000003</ele><time>2026-05-03T09:17:45.027Z</time></trkpt><trkpt lat="42.3153044" lon="13.7666755"><ele>460.20000000000005</ele><time>2026-05-03T09:17:46.027Z</time></trkpt><trkpt lat="42.3152185" lon="13.766754"><ele>461.0</ele><time>2026-05-03T09:17:47.027Z</time></trkpt><trkpt lat="42.3151296" lon="13.7668359"><ele>464.25</ele><time>2026-05-03T09:17:48.027Z</time></trkpt><trkpt lat="42.3150378" lon="13.76692"><ele>467.5</ele><time>2026-05-03T09:17:49.027Z</time></trkpt><trkpt lat="42.3149442" lon="13.7670136"><ele>470.75</ele><time>2026-05-03T09:17:50.027Z</time></trkpt><trkpt lat="42.3148525" lon="13.7671213"><ele>474.0</ele><time>2026-05-03T09:17:51.027Z</time></trkpt><trkpt lat="42.3147648" lon="13.7672347"><ele>473.0</ele><time>2026-05-03T09:17:52.027Z</time></trkpt><trkpt lat="42.3146812" lon="13.767344"><ele>472.0</ele><time>2026-05-03T09:17:53.027Z</time></trkpt><trkpt lat="42.3146112" lon="13.7674463"><ele>471.0</ele><time>2026-05-03T09:17:54.027Z</time></trkpt><trkpt lat="42.3145442" lon="13.7675554"><ele>470.0</ele><time>2026-05-03T09:17:55.027Z</time></trkpt><trkpt lat="42.3144856" lon="13.7676613"><ele>469.0</ele><time>2026-05-03T09:17:56.027Z</time></trkpt><trkpt lat="42.3144536" lon="13.767782"><ele>469.0</ele><time>2026-05-03T09:17:57.027Z</time></trkpt><trkpt lat="42.3144283" lon="13.7679227"><ele>469.0</ele><time>2026-05-03T09:17:58.027Z</time></trkpt><trkpt lat="42.3144081" lon="13.7680757"><ele>469.0</ele><time>2026-05-03T09:17:59.027Z</time></trkpt><trkpt lat="42.3143918" lon="13.7682396"><ele>469.0</ele><time>2026-05-03T09:18:00.027Z</time></trkpt><trkpt lat="42.3143685" lon="13.7684099"><ele>470.5</ele><time>2026-05-03T09:18:01.027Z</time></trkpt><trkpt lat="42.3143433" lon="13.7685879"><ele>472.0</ele><time>2026-05-03T09:18:02.027Z</time></trkpt><trkpt lat="42.314315" lon="13.7687735"><ele>473.5</ele><time>2026-05-03T09:18:03.027Z</time></trkpt><trkpt lat="42.3142937" lon="13.7689295"><ele>475.0</ele><time>2026-05-03T09:18:04.027Z</time></trkpt><trkpt lat="42.3142822" lon="13.7690363"><ele>475.00000000000006</ele><time>2026-05-03T09:18:05.027Z</time></trkpt><trkpt lat="42.3142764" lon="13.7691252"><ele>475.0</ele><time>2026-05-03T09:18:06.027Z</time></trkpt><trkpt lat="42.3142637" lon="13.7692467"><ele>475.0</ele><time>2026-05-03T09:18:08.027Z</time></trkpt><trkpt lat="42.3142637" lon="13.7693694"><ele>475.0</ele><time>2026-05-03T09:18:10.027Z</time></trkpt><trkpt lat="42.3142573" lon="13.7695443"><ele>475.00000000000006</ele><time>2026-05-03T09:18:12.027Z</time></trkpt><trkpt lat="42.3142516" lon="13.769634"><ele>475.0</ele><time>2026-05-03T09:18:13.028Z</time></trkpt><trkpt lat="42.3142289" lon="13.7697681"><ele>475.0</ele><time>2026-05-03T09:18:15.027Z</time></trkpt><trkpt lat="42.3142261" lon="13.7698719"><ele>475.0</ele><time>2026-05-03T09:18:18.027Z</time></trkpt><trkpt lat="42.314257" lon="13.7697512"><ele>475.0</ele><time>2026-05-03T09:18:34.028Z</time></trkpt><trkpt lat="42.3142636" lon="13.7695795"><ele>475.0</ele><time>2026-05-03T09:18:36.027Z</time></trkpt><trkpt lat="42.3142666" lon="13.7694685"><ele>475.0</ele><time>2026-05-03T09:18:37.027Z</time></trkpt><trkpt lat="42.3142657" lon="13.7693584"><ele>475.00000000000006</ele><time>2026-05-03T09:18:38.027Z</time></trkpt><trkpt lat="42.3142694" lon="13.7692418"><ele>475.0</ele><time>2026-05-03T09:18:39.027Z</time></trkpt><trkpt lat="42.3142729" lon="13.7691246"><ele>475.0</ele><time>2026-05-03T09:18:40.027Z</time></trkpt><trkpt lat="42.314283" lon="13.7690118"><ele>475.0</ele><time>2026-05-03T09:18:41.027Z</time></trkpt><trkpt lat="42.3142959" lon="13.7688966"><ele>475.00000000000006</ele><time>2026-05-03T09:18:42.027Z</time></trkpt><trkpt lat="42.3143171" lon="13.7687791"><ele>475.0</ele><time>2026-05-03T09:18:43.027Z</time></trkpt><trkpt lat="42.3143352" lon="13.7686549"><ele>475.0</ele><time>2026-05-03T09:18:44.027Z</time></trkpt><trkpt lat="42.3143539" lon="13.7685277"><ele>475.0</ele><time>2026-05-03T09:18:45.027Z</time></trkpt><trkpt lat="42.3143714" lon="13.7683954"><ele>475.0</ele><time>2026-05-03T09:18:46.027Z</time></trkpt><trkpt lat="42.3143892" lon="13.768262"><ele>475.0</ele><time>2026-05-03T09:18:47.027Z</time></trkpt><trkpt lat="42.3144037" lon="13.7681425"><ele>475.0</ele><time>2026-05-03T09:18:48.027Z</time></trkpt><trkpt lat="42.3144192" lon="13.7680427"><ele>474.00000000000006</ele><time>2026-05-03T09:18:49.027Z</time></trkpt><trkpt lat="42.314431" lon="13.7679449"><ele>473.0</ele><time>2026-05-03T09:18:50.027Z</time></trkpt><trkpt lat="42.3144603" lon="13.7678113"><ele>472.0</ele><time>2026-05-03T09:18:52.027Z</time></trkpt><trkpt lat="42.3144846" lon="13.7677309"><ele>471.0</ele><time>2026-05-03T09:18:54.027Z</time></trkpt><trkpt lat="42.3144487" lon="13.7676497"><ele>470.00000000000006</ele><time>2026-05-03T09:18:58.027Z</time></trkpt><trkpt lat="42.3143666" lon="13.7676741"><ele>469.0</ele><time>2026-05-03T09:19:00.028Z</time></trkpt><trkpt lat="42.3142387" lon="13.7677231"><ele>469.0</ele><time>2026-05-03T09:19:02.028Z</time></trkpt><trkpt lat="42.3141793" lon="13.7677522"><ele>469.0</ele><time>2026-05-03T09:19:03.027Z</time></trkpt><trkpt lat="42.3141238" lon="13.767799"><ele>469.0</ele><time>2026-05-03T09:19:04.027Z</time></trkpt><trkpt lat="42.3140681" lon="13.767861"><ele>469.0</ele><time>2026-05-03T09:19:05.027Z</time></trkpt><trkpt lat="42.3140139" lon="13.7679324"><ele>469.0</ele><time>2026-05-03T09:19:06.027Z</time></trkpt><trkpt lat="42.3139667" lon="13.7680142"><ele>469.0</ele><time>2026-05-03T09:19:07.027Z</time></trkpt><trkpt lat="42.3139263" lon="13.7681023"><ele>469.0</ele><time>2026-05-03T09:19:08.028Z</time></trkpt><trkpt lat="42.3138989" lon="13.7681987"><ele>465.00000000000006</ele><time>2026-05-03T09:19:09.027Z</time></trkpt><trkpt lat="42.313867" lon="13.7682809"><ele>461.0</ele><time>2026-05-03T09:19:10.027Z</time></trkpt><trkpt lat="42.3138317" lon="13.7683694"><ele>457.0</ele><time>2026-05-03T09:19:11.027Z</time></trkpt><trkpt lat="42.3137947" lon="13.7684518"><ele>453.0</ele><time>2026-05-03T09:19:12.027Z</time></trkpt><trkpt lat="42.3137513" lon="13.768532"><ele>449.00000000000006</ele><time>2026-05-03T09:19:13.027Z</time></trkpt><trkpt lat="42.3137017" lon="13.7686196"><ele>445.0</ele><time>2026-05-03T09:19:14.027Z</time></trkpt><trkpt lat="42.3136562" lon="13.7687093"><ele>445.00000000000006</ele><time>2026-05-03T09:19:15.027Z</time></trkpt><trkpt lat="42.3136138" lon="13.7687974"><ele>445.0</ele><time>2026-05-03T09:19:16.027Z</time></trkpt><trkpt lat="42.3135692" lon="13.76889"><ele>445.0</ele><time>2026-05-03T09:19:17.027Z</time></trkpt><trkpt lat="42.3135331" lon="13.7690028"><ele>445.0</ele><time>2026-05-03T09:19:18.027Z</time></trkpt><trkpt lat="42.3134928" lon="13.7691142"><ele>445.00000000000006</ele><time>2026-05-03T09:19:19.028Z</time></trkpt><trkpt lat="42.3134426" lon="13.7692191"><ele>445.0</ele><time>2026-05-03T09:19:20.027Z</time></trkpt><trkpt lat="42.3133916" lon="13.7693246"><ele>445.4</ele><time>2026-05-03T09:19:21.027Z</time></trkpt><trkpt lat="42.3133389" lon="13.7694338"><ele>445.8</ele><time>2026-05-03T09:19:22.027Z</time></trkpt><trkpt lat="42.3132796" lon="13.7695296"><ele>446.20000000000005</ele><time>2026-05-03T09:19:23.027Z</time></trkpt><trkpt lat="42.3132156" lon="13.7696292"><ele>446.6</ele><time>2026-05-03T09:19:24.027Z</time></trkpt><trkpt lat="42.3131411" lon="13.7697268"><ele>447.0</ele><time>2026-05-03T09:19:25.027Z</time></trkpt><trkpt lat="42.3130544" lon="13.7698117"><ele>443.25</ele><time>2026-05-03T09:19:26.027Z</time></trkpt><trkpt lat="42.3129505" lon="13.7698923"><ele>439.5</ele><time>2026-05-03T09:19:27.027Z</time></trkpt><trkpt lat="42.3128391" lon="13.7699625"><ele>435.75</ele><time>2026-05-03T09:19:28.027Z</time></trkpt><trkpt lat="42.3127331" lon="13.7700317"><ele>432.0</ele><time>2026-05-03T09:19:29.027Z</time></trkpt><trkpt lat="42.3126107" lon="13.7700905"><ele>432.0</ele><time>2026-05-03T09:19:30.027Z</time></trkpt><trkpt lat="42.3124969" lon="13.7701337"><ele>432.0</ele><time>2026-05-03T09:19:31.027Z</time></trkpt><trkpt lat="42.3123787" lon="13.7701645"><ele>432.0</ele><time>2026-05-03T09:19:32.027Z</time></trkpt><trkpt lat="42.3122479" lon="13.7701866"><ele>432.0</ele><time>2026-05-03T09:19:33.027Z</time></trkpt><trkpt lat="42.3121208" lon="13.7702118"><ele>433.8</ele><time>2026-05-03T09:19:34.027Z</time></trkpt><trkpt lat="42.3120132" lon="13.7702327"><ele>435.6</ele><time>2026-05-03T09:19:35.027Z</time></trkpt><trkpt lat="42.3119294" lon="13.7702552"><ele>437.40000000000003</ele><time>2026-05-03T09:19:36.027Z</time></trkpt><trkpt lat="42.311861" lon="13.7702754"><ele>439.20000000000005</ele><time>2026-05-03T09:19:37.027Z</time></trkpt><trkpt lat="42.3117391" lon="13.7703056"><ele>441.0</ele><time>2026-05-03T09:19:39.027Z</time></trkpt><trkpt lat="42.3116693" lon="13.7703228"><ele>441.0</ele><time>2026-05-03T09:19:40.027Z</time></trkpt><trkpt lat="42.3115975" lon="13.7703529"><ele>441.0</ele><time>2026-05-03T09:19:41.027Z</time></trkpt><trkpt lat="42.3115217" lon="13.7704026"><ele>441.0</ele><time>2026-05-03T09:19:42.027Z</time></trkpt><trkpt lat="42.3114337" lon="13.7704692"><ele>441.0</ele><time>2026-05-03T09:19:43.027Z</time></trkpt><trkpt lat="42.3113416" lon="13.770551"><ele>441.0</ele><time>2026-05-03T09:19:44.027Z</time></trkpt><trkpt lat="42.3112513" lon="13.7706272"><ele>440.3333333333333</ele><time>2026-05-03T09:19:45.027Z</time></trkpt><trkpt lat="42.3111692" lon="13.7707067"><ele>439.66666666666663</ele><time>2026-05-03T09:19:46.027Z</time></trkpt><trkpt lat="42.3110985" lon="13.7707678"><ele>439.0</ele><time>2026-05-03T09:19:47.027Z</time></trkpt><trkpt lat="42.3110359" lon="13.7708146"><ele>438.3333333333333</ele><time>2026-05-03T09:19:48.027Z</time></trkpt><trkpt lat="42.3109685" lon="13.770839"><ele>437.66666666666663</ele><time>2026-05-03T09:19:49.027Z</time></trkpt><trkpt lat="42.3108966" lon="13.7708362"><ele>437.0</ele><time>2026-05-03T09:19:50.027Z</time></trkpt><trkpt lat="42.3108206" lon="13.7708206"><ele>436.99999999999994</ele><time>2026-05-03T09:19:51.027Z</time></trkpt><trkpt lat="42.3107461" lon="13.7708024"><ele>437.0</ele><time>2026-05-03T09:19:52.027Z</time></trkpt><trkpt lat="42.3106781" lon="13.7707957"><ele>437.0</ele><time>2026-05-03T09:19:53.028Z</time></trkpt><trkpt lat="42.3106079" lon="13.7707962"><ele>437.0</ele><time>2026-05-03T09:19:54.027Z</time></trkpt><trkpt lat="42.3105323" lon="13.770819"><ele>436.99999999999994</ele><time>2026-05-03T09:19:55.027Z</time></trkpt><trkpt lat="42.3104454" lon="13.7708503"><ele>437.0</ele><time>2026-05-03T09:19:56.027Z</time></trkpt><trkpt lat="42.3103574" lon="13.7708808"><ele>436.40000000000003</ele><time>2026-05-03T09:19:57.027Z</time></trkpt><trkpt lat="42.3102583" lon="13.7708984"><ele>435.80000000000007</ele><time>2026-05-03T09:19:58.027Z</time></trkpt><trkpt lat="42.310161" lon="13.7709143"><ele>435.2</ele><time>2026-05-03T09:19:59.027Z</time></trkpt><trkpt lat="42.3100689" lon="13.7709305"><ele>434.6</ele><time>2026-05-03T09:20:00.027Z</time></trkpt><trkpt lat="42.309981" lon="13.7709602"><ele>434.0</ele><time>2026-05-03T09:20:01.027Z</time></trkpt><trkpt lat="42.3099" lon="13.7709924"><ele>435.66666666666663</ele><time>2026-05-03T09:20:02.027Z</time></trkpt><trkpt lat="42.3098358" lon="13.7710302"><ele>437.3333333333333</ele><time>2026-05-03T09:20:03.027Z</time></trkpt><trkpt lat="42.3097511" lon="13.7710996"><ele>439.0</ele><time>2026-05-03T09:20:05.027Z</time></trkpt><trkpt lat="42.3096852" lon="13.7711812"><ele>440.66666666666663</ele><time>2026-05-03T09:20:08.028Z</time></trkpt><trkpt lat="42.309646" lon="13.7712526"><ele>442.3333333333333</ele><time>2026-05-03T09:20:10.027Z</time></trkpt><trkpt lat="42.3096075" lon="13.7713271"><ele>444.0</ele><time>2026-05-03T09:20:12.027Z</time></trkpt><trkpt lat="42.3095317" lon="13.7714031"><ele>444.0</ele><time>2026-05-03T09:20:14.027Z</time></trkpt><trkpt lat="42.3094389" lon="13.7714712"><ele>444.0</ele><time>2026-05-03T09:20:16.027Z</time></trkpt><trkpt lat="42.3093326" lon="13.7715475"><ele>444.0</ele><time>2026-05-03T09:20:18.027Z</time></trkpt><trkpt lat="42.3092137" lon="13.7716143"><ele>444.0</ele><time>2026-05-03T09:20:20.027Z</time></trkpt><trkpt lat="42.3091546" lon="13.7716515"><ele>444.0</ele><time>2026-05-03T09:20:21.028Z</time></trkpt><trkpt lat="42.309096" lon="13.7716859"><ele>444.0</ele><time>2026-05-03T09:20:22.027Z</time></trkpt><trkpt lat="42.3090009" lon="13.7717642"><ele>444.0</ele><time>2026-05-03T09:20:24.027Z</time></trkpt><trkpt lat="42.3089473" lon="13.7718153"><ele>444.0</ele><time>2026-05-03T09:20:26.027Z</time></trkpt><trkpt lat="42.3090173" lon="13.7717588"><ele>444.0</ele><time>2026-05-03T09:21:10.027Z</time></trkpt><trkpt lat="42.3090784" lon="13.7717037"><ele>444.0</ele><time>2026-05-03T09:21:12.028Z</time></trkpt><trkpt lat="42.3091517" lon="13.7716495"><ele>444.0</ele><time>2026-05-03T09:21:14.027Z</time></trkpt><trkpt lat="42.3092197" lon="13.7716094"><ele>444.0</ele><time>2026-05-03T09:21:16.027Z</time></trkpt><trkpt lat="42.3092895" lon="13.771578"><ele>444.0</ele><time>2026-05-03T09:21:18.027Z</time></trkpt><trkpt lat="42.3093524" lon="13.7715403"><ele>444.0</ele><time>2026-05-03T09:21:20.027Z</time></trkpt><trkpt lat="42.3094121" lon="13.771502"><ele>444.0</ele><time>2026-05-03T09:21:22.027Z</time></trkpt><trkpt lat="42.3094899" lon="13.7714509"><ele>444.0</ele><time>2026-05-03T09:21:25.027Z</time></trkpt><trkpt lat="42.309546" lon="13.771401"><ele>444.0</ele><time>2026-05-03T09:21:27.027Z</time></trkpt><trkpt lat="42.3095976" lon="13.7713289"><ele>444.0</ele><time>2026-05-03T09:21:30.027Z</time></trkpt><trkpt lat="42.3096305" lon="13.7712534"><ele>444.0</ele><time>2026-05-03T09:21:33.027Z</time></trkpt><trkpt lat="42.3096566" lon="13.771154"><ele>444.0</ele><time>2026-05-03T09:21:37.028Z</time></trkpt><trkpt lat="42.309719" lon="13.7710892"><ele>444.0</ele><time>2026-05-03T09:21:52.027Z</time></trkpt><trkpt lat="42.3097756" lon="13.7710377"><ele>444.0</ele><time>2026-05-03T09:21:54.027Z</time></trkpt><trkpt lat="42.309833" lon="13.7709985"><ele>444.0</ele><time>2026-05-03T09:21:56.027Z</time></trkpt><trkpt lat="42.3098928" lon="13.7709703"><ele>444.0</ele><time>2026-05-03T09:21:58.027Z</time></trkpt><trkpt lat="42.3099712" lon="13.7709283"><ele>444.0</ele><time>2026-05-03T09:22:02.027Z</time></trkpt><trkpt lat="42.3098942" lon="13.7709925"><ele>444.0</ele><time>2026-05-03T09:22:37.027Z</time></trkpt><trkpt lat="42.3098104" lon="13.7710422"><ele>444.0</ele><time>2026-05-03T09:22:39.027Z</time></trkpt><trkpt lat="42.3097457" lon="13.7710843"><ele>444.0</ele><time>2026-05-03T09:22:42.027Z</time></trkpt><trkpt lat="42.3096955" lon="13.771155"><ele>444.0</ele><time>2026-05-03T09:23:08.027Z</time></trkpt><trkpt lat="42.3096576" lon="13.771242"><ele>444.0</ele><time>2026-05-03T09:23:10.027Z</time></trkpt><trkpt lat="42.3095943" lon="13.7713433"><ele>444.0</ele><time>2026-05-03T09:23:12.027Z</time></trkpt><trkpt lat="42.3095044" lon="13.7714404"><ele>444.0</ele><time>2026-05-03T09:23:14.027Z</time></trkpt><trkpt lat="42.3094489" lon="13.7714855"><ele>444.0</ele><time>2026-05-03T09:23:15.027Z</time></trkpt><trkpt lat="42.3093933" lon="13.7715287"><ele>444.0</ele><time>2026-05-03T09:23:16.027Z</time></trkpt><trkpt lat="42.3093328" lon="13.7715636"><ele>444.0</ele><time>2026-05-03T09:23:17.027Z</time></trkpt><trkpt lat="42.3092692" lon="13.7715987"><ele>444.0</ele><time>2026-05-03T09:23:18.028Z</time></trkpt><trkpt lat="42.309207" lon="13.7716248"><ele>444.0</ele><time>2026-05-03T09:23:19.027Z</time></trkpt><trkpt lat="42.3091482" lon="13.7716566"><ele>444.0</ele><time>2026-05-03T09:23:20.027Z</time></trkpt><trkpt lat="42.3090912" lon="13.7716931"><ele>444.0</ele><time>2026-05-03T09:23:21.027Z</time></trkpt><trkpt lat="42.3090318" lon="13.7717437"><ele>444.0</ele><time>2026-05-03T09:23:22.027Z</time></trkpt><trkpt lat="42.3089804" lon="13.7718062"><ele>444.0</ele><time>2026-05-03T09:23:23.027Z</time></trkpt><trkpt lat="42.3089282" lon="13.7718699"><ele>444.0</ele><time>2026-05-03T09:23:24.027Z</time></trkpt><trkpt lat="42.3088795" lon="13.7719373"><ele>444.0</ele><time>2026-05-03T09:23:25.027Z</time></trkpt><trkpt lat="42.3087925" lon="13.7720531"><ele>444.0</ele><time>2026-05-03T09:23:27.028Z</time></trkpt><trkpt lat="42.3087443" lon="13.7721209"><ele>443.8333333333333</ele><time>2026-05-03T09:23:28.027Z</time></trkpt><trkpt lat="42.3086828" lon="13.772176"><ele>443.66666666666663</ele><time>2026-05-03T09:23:29.027Z</time></trkpt><trkpt lat="42.3086271" lon="13.7722464"><ele>443.5</ele><time>2026-05-03T09:23:30.027Z</time></trkpt><trkpt lat="42.3085692" lon="13.7723101"><ele>443.3333333333333</ele><time>2026-05-03T09:23:31.027Z</time></trkpt><trkpt lat="42.3085098" lon="13.772376"><ele>443.16666666666663</ele><time>2026-05-03T09:23:32.027Z</time></trkpt><trkpt lat="42.308452" lon="13.7724514"><ele>443.0</ele><time>2026-05-03T09:23:33.027Z</time></trkpt><trkpt lat="42.3083951" lon="13.7725248"><ele>443.0</ele><time>2026-05-03T09:23:34.028Z</time></trkpt><trkpt lat="42.308345" lon="13.7725997"><ele>443.0</ele><time>2026-05-03T09:23:35.027Z</time></trkpt><trkpt lat="42.3082935" lon="13.7726775"><ele>443.0</ele><time>2026-05-03T09:23:36.027Z</time></trkpt><trkpt lat="42.3082398" lon="13.7727546"><ele>443.0</ele><time>2026-05-03T09:23:37.027Z</time></trkpt><trkpt lat="42.3081858" lon="13.7728225"><ele>443.0</ele><time>2026-05-03T09:23:38.027Z</time></trkpt><trkpt lat="42.3081343" lon="13.7728807"><ele>443.0</ele><time>2026-05-03T09:23:39.027Z</time></trkpt><trkpt lat="42.3080858" lon="13.7729369"><ele>443.0</ele><time>2026-05-03T09:23:40.027Z</time></trkpt><trkpt lat="42.3080332" lon="13.772995"><ele>440.99999999999994</ele><time>2026-05-03T09:23:41.027Z</time></trkpt><trkpt lat="42.3079783" lon="13.7730522"><ele>439.0</ele><time>2026-05-03T09:23:42.027Z</time></trkpt><trkpt lat="42.3079193" lon="13.7731098"><ele>437.0</ele><time>2026-05-03T09:23:43.027Z</time></trkpt><trkpt lat="42.3078534" lon="13.7731638"><ele>435.0</ele><time>2026-05-03T09:23:44.027Z</time></trkpt><trkpt lat="42.3077897" lon="13.7732127"><ele>432.99999999999994</ele><time>2026-05-03T09:23:45.027Z</time></trkpt><trkpt lat="42.3077197" lon="13.7732697"><ele>431.0</ele><time>2026-05-03T09:23:46.027Z</time></trkpt><trkpt lat="42.3076513" lon="13.7733383"><ele>430.99999999999994</ele><time>2026-05-03T09:23:47.027Z</time></trkpt><trkpt lat="42.3075872" lon="13.7734142"><ele>431.0</ele><time>2026-05-03T09:23:48.027Z</time></trkpt><trkpt lat="42.3075283" lon="13.773492"><ele>431.0</ele><time>2026-05-03T09:23:49.027Z</time></trkpt><trkpt lat="42.3074703" lon="13.7735806"><ele>431.0</ele><time>2026-05-03T09:23:50.027Z</time></trkpt><trkpt lat="42.3074055" lon="13.7736539"><ele>430.99999999999994</ele><time>2026-05-03T09:23:51.027Z</time></trkpt><trkpt lat="42.3073376" lon="13.7737195"><ele>431.0</ele><time>2026-05-03T09:23:52.027Z</time></trkpt><trkpt lat="42.3072651" lon="13.7737789"><ele>429.99999999999994</ele><time>2026-05-03T09:23:53.027Z</time></trkpt><trkpt lat="42.3071965" lon="13.7738428"><ele>429.0</ele><time>2026-05-03T09:23:54.027Z</time></trkpt><trkpt lat="42.3071297" lon="13.7739067"><ele>428.0</ele><time>2026-05-03T09:23:55.027Z</time></trkpt><trkpt lat="42.307065" lon="13.7739791"><ele>427.0</ele><time>2026-05-03T09:23:56.028Z</time></trkpt><trkpt lat="42.3070078" lon="13.7740561"><ele>425.99999999999994</ele><time>2026-05-03T09:23:57.027Z</time></trkpt><trkpt lat="42.3069531" lon="13.7741388"><ele>425.0</ele><time>2026-05-03T09:23:58.027Z</time></trkpt><trkpt lat="42.3068964" lon="13.7742179"><ele>424.99999999999994</ele><time>2026-05-03T09:23:59.028Z</time></trkpt><trkpt lat="42.306833" lon="13.7742979"><ele>425.0</ele><time>2026-05-03T09:24:00.028Z</time></trkpt><trkpt lat="42.3067731" lon="13.7743799"><ele>425.0</ele><time>2026-05-03T09:24:01.027Z</time></trkpt><trkpt lat="42.3067183" lon="13.7744598"><ele>425.0</ele><time>2026-05-03T09:24:02.027Z</time></trkpt><trkpt lat="42.3066636" lon="13.7745349"><ele>424.99999999999994</ele><time>2026-05-03T09:24:03.027Z</time></trkpt><trkpt lat="42.3066083" lon="13.7746205"><ele>425.0</ele><time>2026-05-03T09:24:04.027Z</time></trkpt><trkpt lat="42.3065614" lon="13.7747165"><ele>424.8</ele><time>2026-05-03T09:24:05.027Z</time></trkpt><trkpt lat="42.3065189" lon="13.7748322"><ele>424.6</ele><time>2026-05-03T09:24:06.027Z</time></trkpt><trkpt lat="42.3064779" lon="13.7749414"><ele>424.4</ele><time>2026-05-03T09:24:07.027Z</time></trkpt><trkpt lat="42.3064389" lon="13.7750504"><ele>424.2</ele><time>2026-05-03T09:24:08.027Z</time></trkpt><trkpt lat="42.3064006" lon="13.7751698"><ele>424.0</ele><time>2026-05-03T09:24:09.027Z</time></trkpt><trkpt lat="42.3063687" lon="13.7752843"><ele>424.00000000000006</ele><time>2026-05-03T09:24:10.027Z</time></trkpt><trkpt lat="42.3063379" lon="13.7753988"><ele>424.0</ele><time>2026-05-03T09:24:11.027Z</time></trkpt><trkpt lat="42.3063113" lon="13.7755087"><ele>424.0</ele><time>2026-05-03T09:24:12.027Z</time></trkpt><trkpt lat="42.3062795" lon="13.7756171"><ele>424.0</ele><time>2026-05-03T09:24:13.027Z</time></trkpt><trkpt lat="42.3062458" lon="13.7757244"><ele>424.00000000000006</ele><time>2026-05-03T09:24:14.027Z</time></trkpt><trkpt lat="42.3062173" lon="13.7758241"><ele>424.0</ele><time>2026-05-03T09:24:15.027Z</time></trkpt><trkpt lat="42.306194" lon="13.7759272"><ele>423.83333333333337</ele><time>2026-05-03T09:24:16.027Z</time></trkpt><trkpt lat="42.3061686" lon="13.7760329"><ele>423.6666666666667</ele><time>2026-05-03T09:24:17.027Z</time></trkpt><trkpt lat="42.3061459" lon="13.7761446"><ele>423.5</ele><time>2026-05-03T09:24:18.027Z</time></trkpt><trkpt lat="42.3061213" lon="13.7762513"><ele>423.33333333333337</ele><time>2026-05-03T09:24:19.027Z</time></trkpt><trkpt lat="42.3060955" lon="13.7763551"><ele>423.1666666666667</ele><time>2026-05-03T09:24:20.027Z</time></trkpt><trkpt lat="42.3060757" lon="13.7764484"><ele>423.0</ele><time>2026-05-03T09:24:21.027Z</time></trkpt><trkpt lat="42.3060589" lon="13.7765372"><ele>423.0</ele><time>2026-05-03T09:24:22.027Z</time></trkpt><trkpt lat="42.306057" lon="13.776708"><ele>423.0</ele><time>2026-05-03T09:24:24.027Z</time></trkpt><trkpt lat="42.3060621" lon="13.7767953"><ele>423.0</ele><time>2026-05-03T09:24:25.028Z</time></trkpt><trkpt lat="42.3060752" lon="13.7768867"><ele>423.0</ele><time>2026-05-03T09:24:26.027Z</time></trkpt><trkpt lat="42.3060973" lon="13.7769796"><ele>423.0</ele><time>2026-05-03T09:24:27.027Z</time></trkpt><trkpt lat="42.3061196" lon="13.7770735"><ele>423.0</ele><time>2026-05-03T09:24:28.027Z</time></trkpt><trkpt lat="42.3061411" lon="13.7771582"><ele>422.8333333333333</ele><time>2026-05-03T09:24:29.027Z</time></trkpt><trkpt lat="42.3061302" lon="13.7772717"><ele>422.66666666666663</ele><time>2026-05-03T09:24:31.027Z</time></trkpt><trkpt lat="42.3061144" lon="13.7773644"><ele>422.5</ele><time>2026-05-03T09:24:33.027Z</time></trkpt><trkpt lat="42.3060739" lon="13.7774922"><ele>422.3333333333333</ele><time>2026-05-03T09:24:35.027Z</time></trkpt><trkpt lat="42.3060386" lon="13.7775797"><ele>422.16666666666663</ele><time>2026-05-03T09:24:37.027Z</time></trkpt><trkpt lat="42.3061026" lon="13.7776277"><ele>422.0</ele><time>2026-05-03T09:24:50.027Z</time></trkpt><trkpt lat="42.3061957" lon="13.7776244"><ele>421.99999999999994</ele><time>2026-05-03T09:24:53.027Z</time></trkpt><trkpt lat="42.3062642" lon="13.7776852"><ele>422.0</ele><time>2026-05-03T09:24:55.028Z</time></trkpt><trkpt lat="42.3063221" lon="13.7777679"><ele>422.0</ele><time>2026-05-03T09:24:57.027Z</time></trkpt><trkpt lat="42.3064168" lon="13.7777883"><ele>422.0</ele><time>2026-05-03T09:25:00.027Z</time></trkpt><trkpt lat="42.3064819" lon="13.7777954"><ele>421.99999999999994</ele><time>2026-05-03T09:25:02.027Z</time></trkpt><trkpt lat="42.3065429" lon="13.7778821"><ele>422.0</ele><time>2026-05-03T09:25:05.027Z</time></trkpt><trkpt lat="42.3065624" lon="13.7779772"><ele>421.8333333333333</ele><time>2026-05-03T09:25:07.027Z</time></trkpt><trkpt lat="42.3065696" lon="13.7780651"><ele>421.66666666666663</ele><time>2026-05-03T09:25:09.027Z</time></trkpt><trkpt lat="42.3065033" lon="13.7781004"><ele>421.5</ele><time>2026-05-03T09:25:53.027Z</time></trkpt><trkpt lat="42.3064311" lon="13.7780407"><ele>421.33333333333337</ele><time>2026-05-03T09:25:57.027Z</time></trkpt><trkpt lat="42.3064103" lon="13.77793"><ele>421.1666666666667</ele><time>2026-05-03T09:26:00.027Z</time></trkpt><trkpt lat="42.3063953" lon="13.7778279"><ele>421.0</ele><time>2026-05-03T09:26:02.027Z</time></trkpt><trkpt lat="42.306354" lon="13.7777443"><ele>421.00000000000006</ele><time>2026-05-03T09:26:04.027Z</time></trkpt><trkpt lat="42.3062793" lon="13.777705"><ele>421.0</ele><time>2026-05-03T09:26:05.027Z</time></trkpt><trkpt lat="42.3061979" lon="13.7776358"><ele>421.0</ele><time>2026-05-03T09:26:07.027Z</time></trkpt><trkpt lat="42.3061337" lon="13.777618"><ele>421.0</ele><time>2026-05-03T09:26:09.027Z</time></trkpt><trkpt lat="42.3060664" lon="13.7776236"><ele>421.0</ele><time>2026-05-03T09:26:11.027Z</time></trkpt><trkpt lat="42.306002" lon="13.7776458"><ele>421.00000000000006</ele><time>2026-05-03T09:26:14.027Z</time></trkpt><trkpt lat="42.3059451" lon="13.7776962"><ele>421.0</ele><time>2026-05-03T09:26:16.027Z</time></trkpt><trkpt lat="42.3058685" lon="13.7778009"><ele>421.00000000000006</ele><time>2026-05-03T09:26:18.027Z</time></trkpt><trkpt lat="42.3057784" lon="13.7779"><ele>421.0</ele><time>2026-05-03T09:26:20.027Z</time></trkpt><trkpt lat="42.3057316" lon="13.7779588"><ele>421.0</ele><time>2026-05-03T09:26:21.027Z</time></trkpt><trkpt lat="42.3056818" lon="13.7780222"><ele>421.0</ele><time>2026-05-03T09:26:22.027Z</time></trkpt><trkpt lat="42.3056319" lon="13.7780787"><ele>421.00000000000006</ele><time>2026-05-03T09:26:23.027Z</time></trkpt><trkpt lat="42.3055753" lon="13.7781289"><ele>421.0</ele><time>2026-05-03T09:26:24.027Z</time></trkpt><trkpt lat="42.3055123" lon="13.7781665"><ele>420.00000000000006</ele><time>2026-05-03T09:26:25.027Z</time></trkpt><trkpt lat="42.3054502" lon="13.7782034"><ele>419.0</ele><time>2026-05-03T09:26:26.027Z</time></trkpt><trkpt lat="42.3053905" lon="13.7782526"><ele>418.0</ele><time>2026-05-03T09:26:27.027Z</time></trkpt><trkpt lat="42.3053406" lon="13.7783173"><ele>417.0</ele><time>2026-05-03T09:26:28.027Z</time></trkpt><trkpt lat="42.3052896" lon="13.7783934"><ele>416.0</ele><time>2026-05-03T09:26:29.027Z</time></trkpt><trkpt lat="42.305238" lon="13.7784814"><ele>415.00000000000006</ele><time>2026-05-03T09:26:30.027Z</time></trkpt><trkpt lat="42.3051888" lon="13.7785684"><ele>414.0</ele><time>2026-05-03T09:26:31.027Z</time></trkpt><trkpt lat="42.3051402" lon="13.7786644"><ele>414.0</ele><time>2026-05-03T09:26:32.027Z</time></trkpt><trkpt lat="42.3050954" lon="13.7787749"><ele>414.0</ele><time>2026-05-03T09:26:33.027Z</time></trkpt><trkpt lat="42.3050476" lon="13.7788793"><ele>414.0</ele><time>2026-05-03T09:26:34.027Z</time></trkpt><trkpt lat="42.3049952" lon="13.7789733"><ele>414.0</ele><time>2026-05-03T09:26:35.027Z</time></trkpt><trkpt lat="42.3049337" lon="13.7790637"><ele>414.0</ele><time>2026-05-03T09:26:36.027Z</time></trkpt><trkpt lat="42.3048649" lon="13.7791534"><ele>414.0</ele><time>2026-05-03T09:26:37.027Z</time></trkpt><trkpt lat="42.3047941" lon="13.7792524"><ele>414.0</ele><time>2026-05-03T09:26:38.027Z</time></trkpt><trkpt lat="42.304729" lon="13.7793443"><ele>414.0</ele><time>2026-05-03T09:26:39.027Z</time></trkpt><trkpt lat="42.3046701" lon="13.7794384"><ele>414.0</ele><time>2026-05-03T09:26:40.027Z</time></trkpt><trkpt lat="42.3046157" lon="13.7795319"><ele>414.0</ele><time>2026-05-03T09:26:41.027Z</time></trkpt><trkpt lat="42.3045566" lon="13.779611"><ele>412.6666666666667</ele><time>2026-05-03T09:26:42.027Z</time></trkpt><trkpt lat="42.3044863" lon="13.7796709"><ele>411.33333333333337</ele><time>2026-05-03T09:26:43.027Z</time></trkpt><trkpt lat="42.3044102" lon="13.7797082"><ele>410.0</ele><time>2026-05-03T09:26:44.027Z</time></trkpt><trkpt lat="42.3043327" lon="13.7797446"><ele>408.6666666666667</ele><time>2026-05-03T09:26:45.027Z</time></trkpt><trkpt lat="42.3042594" lon="13.7797904"><ele>407.33333333333337</ele><time>2026-05-03T09:26:46.027Z</time></trkpt><trkpt lat="42.304193" lon="13.7798511"><ele>406.0</ele><time>2026-05-03T09:26:47.027Z</time></trkpt><trkpt lat="42.3041311" lon="13.7799299"><ele>406.00000000000006</ele><time>2026-05-03T09:26:48.027Z</time></trkpt><trkpt lat="42.3040725" lon="13.7800234"><ele>406.0</ele><time>2026-05-03T09:26:49.027Z</time></trkpt><trkpt lat="42.3040144" lon="13.7801166"><ele>406.0</ele><time>2026-05-03T09:26:50.027Z</time></trkpt><trkpt lat="42.3039574" lon="13.7801895"><ele>406.0</ele><time>2026-05-03T09:26:51.027Z</time></trkpt><trkpt lat="42.3038656" lon="13.7802651"><ele>406.00000000000006</ele><time>2026-05-03T09:26:53.027Z</time></trkpt><trkpt lat="42.3037964" lon="13.7802538"><ele>406.0</ele><time>2026-05-03T09:26:56.028Z</time></trkpt><trkpt lat="42.3037251" lon="13.7802586"><ele>405.50000000000006</ele><time>2026-05-03T09:26:58.027Z</time></trkpt><trkpt lat="42.3036502" lon="13.7802893"><ele>405.0</ele><time>2026-05-03T09:27:00.027Z</time></trkpt><trkpt lat="42.3035828" lon="13.7803711"><ele>404.5</ele><time>2026-05-03T09:27:10.027Z</time></trkpt><trkpt lat="42.3034992" lon="13.7804856"><ele>404.0</ele><time>2026-05-03T09:27:12.028Z</time></trkpt><trkpt lat="42.3034478" lon="13.7805586"><ele>403.50000000000006</ele><time>2026-05-03T09:27:13.027Z</time></trkpt><trkpt lat="42.3033941" lon="13.7806413"><ele>403.0</ele><time>2026-05-03T09:27:14.027Z</time></trkpt><trkpt lat="42.3033383" lon="13.7807267"><ele>403.00000000000006</ele><time>2026-05-03T09:27:15.027Z</time></trkpt><trkpt lat="42.3032809" lon="13.7808196"><ele>403.0</ele><time>2026-05-03T09:27:16.027Z</time></trkpt><trkpt lat="42.3032261" lon="13.7809107"><ele>403.0</ele><time>2026-05-03T09:27:17.027Z</time></trkpt><trkpt lat="42.3031683" lon="13.7809934"><ele>403.0</ele><time>2026-05-03T09:27:18.028Z</time></trkpt><trkpt lat="42.3031132" lon="13.7810875"><ele>403.00000000000006</ele><time>2026-05-03T09:27:19.027Z</time></trkpt><trkpt lat="42.3030596" lon="13.7811808"><ele>403.0</ele><time>2026-05-03T09:27:20.027Z</time></trkpt><trkpt lat="42.3030022" lon="13.7812608"><ele>401.6666666666667</ele><time>2026-05-03T09:27:21.027Z</time></trkpt><trkpt lat="42.302944" lon="13.7813304"><ele>400.33333333333337</ele><time>2026-05-03T09:27:22.027Z</time></trkpt><trkpt lat="42.3028815" lon="13.7813933"><ele>399.0</ele><time>2026-05-03T09:27:23.027Z</time></trkpt><trkpt lat="42.3028116" lon="13.7814423"><ele>397.66666666666663</ele><time>2026-05-03T09:27:24.027Z</time></trkpt><trkpt lat="42.3027336" lon="13.7814792"><ele>396.3333333333333</ele><time>2026-05-03T09:27:25.027Z</time></trkpt><trkpt lat="42.3026433" lon="13.7815068"><ele>395.0</ele><time>2026-05-03T09:27:26.027Z</time></trkpt><trkpt lat="42.302544" lon="13.7815312"><ele>394.99999999999994</ele><time>2026-05-03T09:27:27.027Z</time></trkpt><trkpt lat="42.3024449" lon="13.7815623"><ele>395.0</ele><time>2026-05-03T09:27:28.027Z</time></trkpt><trkpt lat="42.3023476" lon="13.7815994"><ele>395.0</ele><time>2026-05-03T09:27:29.027Z</time></trkpt><trkpt lat="42.3022691" lon="13.7816431"><ele>395.0</ele><time>2026-05-03T09:27:30.027Z</time></trkpt><trkpt lat="42.3022098" lon="13.7816792"><ele>394.99999999999994</ele><time>2026-05-03T09:27:31.027Z</time></trkpt><trkpt lat="42.3021417" lon="13.7817359"><ele>395.0</ele><time>2026-05-03T09:27:33.027Z</time></trkpt><trkpt lat="42.3020953" lon="13.7817953"><ele>392.8</ele><time>2026-05-03T09:27:37.027Z</time></trkpt><trkpt lat="42.3020103" lon="13.781622"><ele>390.6</ele><time>2026-05-03T09:27:52.027Z</time></trkpt><trkpt lat="42.3019895" lon="13.7814599"><ele>388.4</ele><time>2026-05-03T09:27:54.028Z</time></trkpt><trkpt lat="42.3019758" lon="13.7813766"><ele>386.2</ele><time>2026-05-03T09:27:55.027Z</time></trkpt><trkpt lat="42.3019595" lon="13.7812819"><ele>384.0</ele><time>2026-05-03T09:27:56.027Z</time></trkpt><trkpt lat="42.3019464" lon="13.7811749"><ele>384.0</ele><time>2026-05-03T09:27:57.027Z</time></trkpt><trkpt lat="42.3019348" lon="13.7810559"><ele>384.0</ele><time>2026-05-03T09:27:58.027Z</time></trkpt><trkpt lat="42.3019209" lon="13.7809315"><ele>384.0</ele><time>2026-05-03T09:27:59.027Z</time></trkpt><trkpt lat="42.3019039" lon="13.7808109"><ele>384.0</ele><time>2026-05-03T09:28:00.027Z</time></trkpt><trkpt lat="42.3018963" lon="13.7806994"><ele>384.0</ele><time>2026-05-03T09:28:01.027Z</time></trkpt><trkpt lat="42.3018951" lon="13.7805931"><ele>384.0</ele><time>2026-05-03T09:28:02.027Z</time></trkpt><trkpt lat="42.3018883" lon="13.7804952"><ele>384.0</ele><time>2026-05-03T09:28:03.028Z</time></trkpt><trkpt lat="42.3018764" lon="13.7803735"><ele>384.0</ele><time>2026-05-03T09:28:05.027Z</time></trkpt><trkpt lat="42.3019272" lon="13.780303"><ele>384.0</ele><time>2026-05-03T09:28:07.027Z</time></trkpt><trkpt lat="42.3019807" lon="13.780173"><ele>384.0</ele><time>2026-05-03T09:28:09.027Z</time></trkpt><trkpt lat="42.3019571" lon="13.7800128"><ele>384.0</ele><time>2026-05-03T09:28:11.028Z</time></trkpt><trkpt lat="42.3019001" lon="13.7798907"><ele>383.5</ele><time>2026-05-03T09:28:12.027Z</time></trkpt><trkpt lat="42.3018577" lon="13.7797518"><ele>383.0</ele><time>2026-05-03T09:28:13.027Z</time></trkpt><trkpt lat="42.3018098" lon="13.7796069"><ele>382.5</ele><time>2026-05-03T09:28:14.027Z</time></trkpt><trkpt lat="42.3017537" lon="13.7794637"><ele>382.0</ele><time>2026-05-03T09:28:15.027Z</time></trkpt><trkpt lat="42.3017024" lon="13.7793228"><ele>381.25</ele><time>2026-05-03T09:28:16.027Z</time></trkpt><trkpt lat="42.3016573" lon="13.7791718"><ele>380.5</ele><time>2026-05-03T09:28:17.027Z</time></trkpt><trkpt lat="42.3016202" lon="13.7790127"><ele>379.75</ele><time>2026-05-03T09:28:18.027Z</time></trkpt><trkpt lat="42.3015784" lon="13.7788525"><ele>379.0</ele><time>2026-05-03T09:28:19.027Z</time></trkpt><trkpt lat="42.3015413" lon="13.7787019"><ele>379.0</ele><time>2026-05-03T09:28:20.027Z</time></trkpt><trkpt lat="42.3015038" lon="13.7785407"><ele>379.0</ele><time>2026-05-03T09:28:21.027Z</time></trkpt><trkpt lat="42.3014622" lon="13.778379"><ele>379.0</ele><time>2026-05-03T09:28:22.027Z</time></trkpt><trkpt lat="42.3014138" lon="13.7782149"><ele>379.0</ele><time>2026-05-03T09:28:23.027Z</time></trkpt><trkpt lat="42.3013542" lon="13.7780574"><ele>376.5</ele><time>2026-05-03T09:28:24.027Z</time></trkpt><trkpt lat="42.3013032" lon="13.7779101"><ele>374.0</ele><time>2026-05-03T09:28:25.027Z</time></trkpt><trkpt lat="42.3012679" lon="13.7777688"><ele>371.5</ele><time>2026-05-03T09:28:26.027Z</time></trkpt><trkpt lat="42.3012406" lon="13.7776225"><ele>369.0</ele><time>2026-05-03T09:28:27.027Z</time></trkpt><trkpt lat="42.3012272" lon="13.7774741"><ele>368.6</ele><time>2026-05-03T09:28:28.027Z</time></trkpt><trkpt lat="42.3012291" lon="13.7773187"><ele>368.2</ele><time>2026-05-03T09:28:29.027Z</time></trkpt><trkpt lat="42.3012401" lon="13.7771622"><ele>367.8</ele><time>2026-05-03T09:28:30.027Z</time></trkpt><trkpt lat="42.3012511" lon="13.7770254"><ele>367.40000000000003</ele><time>2026-05-03T09:28:31.027Z</time></trkpt><trkpt lat="42.3012577" lon="13.7769143"><ele>367.0</ele><time>2026-05-03T09:28:32.027Z</time></trkpt><trkpt lat="42.3012494" lon="13.7768197"><ele>367.0</ele><time>2026-05-03T09:28:33.027Z</time></trkpt><trkpt lat="42.3012354" lon="13.7767224"><ele>367.0</ele><time>2026-05-03T09:28:34.027Z</time></trkpt><trkpt lat="42.3011726" lon="13.7766123"><ele>367.0</ele><time>2026-05-03T09:28:35.027Z</time></trkpt><trkpt lat="42.3011218" lon="13.7765052"><ele>367.0</ele><time>2026-05-03T09:28:36.027Z</time></trkpt><trkpt lat="42.3010675" lon="13.7764118"><ele>367.0</ele><time>2026-05-03T09:28:37.027Z</time></trkpt><trkpt lat="42.3010021" lon="13.7763321"><ele>367.0</ele><time>2026-05-03T09:28:38.027Z</time></trkpt><trkpt lat="42.3009425" lon="13.7762652"><ele>367.0</ele><time>2026-05-03T09:28:39.027Z</time></trkpt><trkpt lat="42.3008678" lon="13.776167"><ele>367.0</ele><time>2026-05-03T09:28:41.027Z</time></trkpt><trkpt lat="42.3008492" lon="13.7760462"><ele>367.0</ele><time>2026-05-03T09:28:43.027Z</time></trkpt><trkpt lat="42.3008754" lon="13.775895"><ele>367.0</ele><time>2026-05-03T09:28:45.027Z</time></trkpt><trkpt lat="42.3008355" lon="13.7757923"><ele>367.0</ele><time>2026-05-03T09:28:47.027Z</time></trkpt><trkpt lat="42.3007804" lon="13.7757496"><ele>367.6</ele><time>2026-05-03T09:28:48.027Z</time></trkpt><trkpt lat="42.3006853" lon="13.7756544"><ele>368.20000000000005</ele><time>2026-05-03T09:28:50.027Z</time></trkpt><trkpt lat="42.3005748" lon="13.7755991"><ele>368.8</ele><time>2026-05-03T09:28:52.027Z</time></trkpt><trkpt lat="42.3005156" lon="13.7755636"><ele>369.4</ele><time>2026-05-03T09:28:53.027Z</time></trkpt><trkpt lat="42.3004255" lon="13.775437"><ele>370.0</ele><time>2026-05-03T09:28:55.028Z</time></trkpt><trkpt lat="42.300385" lon="13.7753535"><ele>368.0</ele><time>2026-05-03T09:28:56.027Z</time></trkpt><trkpt lat="42.30033" lon="13.7752585"><ele>366.0</ele><time>2026-05-03T09:28:57.027Z</time></trkpt><trkpt lat="42.3002583" lon="13.7751799"><ele>364.0</ele><time>2026-05-03T09:28:58.027Z</time></trkpt><trkpt lat="42.3001941" lon="13.7751096"><ele>362.0</ele><time>2026-05-03T09:28:59.027Z</time></trkpt><trkpt lat="42.3001114" lon="13.7750389"><ele>360.0</ele><time>2026-05-03T09:29:01.027Z</time></trkpt><trkpt lat="42.3000105" lon="13.7750546"><ele>360.0</ele><time>2026-05-03T09:29:03.027Z</time></trkpt><trkpt lat="42.2999572" lon="13.7751038"><ele>360.0</ele><time>2026-05-03T09:29:04.027Z</time></trkpt><trkpt lat="42.299897" lon="13.7751672"><ele>360.0</ele><time>2026-05-03T09:29:05.027Z</time></trkpt><trkpt lat="42.2998495" lon="13.7752306"><ele>360.0</ele><time>2026-05-03T09:29:06.028Z</time></trkpt><trkpt lat="42.2997515" lon="13.7753449"><ele>360.0</ele><time>2026-05-03T09:29:08.027Z</time></trkpt><trkpt lat="42.2996891" lon="13.7754034"><ele>360.0</ele><time>2026-05-03T09:29:09.027Z</time></trkpt><trkpt lat="42.2996316" lon="13.7754583"><ele>359.6666666666667</ele><time>2026-05-03T09:29:10.027Z</time></trkpt><trkpt lat="42.2995778" lon="13.7755036"><ele>359.3333333333333</ele><time>2026-05-03T09:29:11.027Z</time></trkpt><trkpt lat="42.2994754" lon="13.7755364"><ele>359.0</ele><time>2026-05-03T09:29:13.027Z</time></trkpt><trkpt lat="42.2993594" lon="13.7754796"><ele>358.66666666666663</ele><time>2026-05-03T09:29:15.028Z</time></trkpt><trkpt lat="42.2992963" lon="13.7754315"><ele>358.3333333333333</ele><time>2026-05-03T09:29:16.027Z</time></trkpt><trkpt lat="42.2992299" lon="13.7753766"><ele>358.0</ele><time>2026-05-03T09:29:17.027Z</time></trkpt><trkpt lat="42.2991374" lon="13.7753012"><ele>358.0</ele><time>2026-05-03T09:29:19.027Z</time></trkpt><trkpt lat="42.2990688" lon="13.7752954"><ele>358.0</ele><time>2026-05-03T09:29:21.027Z</time></trkpt><trkpt lat="42.2990047" lon="13.7753694"><ele>358.0</ele><time>2026-05-03T09:29:23.027Z</time></trkpt><trkpt lat="42.2989411" lon="13.7755213"><ele>358.0</ele><time>2026-05-03T09:29:25.027Z</time></trkpt><trkpt lat="42.2989108" lon="13.7756108"><ele>358.0</ele><time>2026-05-03T09:29:26.027Z</time></trkpt><trkpt lat="42.2988823" lon="13.7757186"><ele>358.0</ele><time>2026-05-03T09:29:27.027Z</time></trkpt><trkpt lat="42.2988508" lon="13.7758354"><ele>357.59999999999997</ele><time>2026-05-03T09:29:28.027Z</time></trkpt><trkpt lat="42.2988183" lon="13.7759573"><ele>357.2</ele><time>2026-05-03T09:29:29.028Z</time></trkpt><trkpt lat="42.2987898" lon="13.776093"><ele>356.8</ele><time>2026-05-03T09:29:30.027Z</time></trkpt><trkpt lat="42.2987615" lon="13.7762392"><ele>356.4</ele><time>2026-05-03T09:29:31.027Z</time></trkpt><trkpt lat="42.2987352" lon="13.7763949"><ele>356.0</ele><time>2026-05-03T09:29:32.027Z</time></trkpt><trkpt lat="42.298699" lon="13.7765468"><ele>356.0</ele><time>2026-05-03T09:29:33.027Z</time></trkpt><trkpt lat="42.2986624" lon="13.7767015"><ele>356.0</ele><time>2026-05-03T09:29:34.027Z</time></trkpt><trkpt lat="42.2986173" lon="13.7768597"><ele>356.0</ele><time>2026-05-03T09:29:35.027Z</time></trkpt><trkpt lat="42.2985612" lon="13.7770204"><ele>356.0</ele><time>2026-05-03T09:29:36.027Z</time></trkpt><trkpt lat="42.2985165" lon="13.7771751"><ele>356.20000000000005</ele><time>2026-05-03T09:29:37.028Z</time></trkpt><trkpt lat="42.2984779" lon="13.7773162"><ele>356.40000000000003</ele><time>2026-05-03T09:29:38.027Z</time></trkpt><trkpt lat="42.2984487" lon="13.7774342"><ele>356.6</ele><time>2026-05-03T09:29:39.027Z</time></trkpt><trkpt lat="42.2984219" lon="13.7775315"><ele>356.8</ele><time>2026-05-03T09:29:40.027Z</time></trkpt><trkpt lat="42.2983795" lon="13.7776621"><ele>357.0</ele><time>2026-05-03T09:29:42.027Z</time></trkpt><trkpt lat="42.2982758" lon="13.7778091"><ele>357.0</ele><time>2026-05-03T09:29:59.027Z</time></trkpt><trkpt lat="42.2982165" lon="13.7778395"><ele>357.0</ele><time>2026-05-03T09:30:00.027Z</time></trkpt><trkpt lat="42.298153" lon="13.7778784"><ele>357.0</ele><time>2026-05-03T09:30:01.027Z</time></trkpt><trkpt lat="42.2980882" lon="13.777936"><ele>357.0</ele><time>2026-05-03T09:30:02.027Z</time></trkpt><trkpt lat="42.2980244" lon="13.7780097"><ele>357.0</ele><time>2026-05-03T09:30:03.028Z</time></trkpt><trkpt lat="42.2979487" lon="13.7781033"><ele>357.0</ele><time>2026-05-03T09:30:04.027Z</time></trkpt><trkpt lat="42.2978765" lon="13.7782077"><ele>356.25</ele><time>2026-05-03T09:30:05.027Z</time></trkpt><trkpt lat="42.2977977" lon="13.7783161"><ele>355.5</ele><time>2026-05-03T09:30:06.027Z</time></trkpt><trkpt lat="42.2977132" lon="13.7784255"><ele>354.75</ele><time>2026-05-03T09:30:07.028Z</time></trkpt><trkpt lat="42.2976241" lon="13.7785339"><ele>354.0</ele><time>2026-05-03T09:30:08.027Z</time></trkpt><trkpt lat="42.2975343" lon="13.7786446"><ele>353.5</ele><time>2026-05-03T09:30:09.027Z</time></trkpt><trkpt lat="42.2974431" lon="13.7787526"><ele>353.0</ele><time>2026-05-03T09:30:10.027Z</time></trkpt><trkpt lat="42.2973435" lon="13.7788518"><ele>352.5</ele><time>2026-05-03T09:30:11.027Z</time></trkpt><trkpt lat="42.2972391" lon="13.7789509"><ele>352.0</ele><time>2026-05-03T09:30:12.028Z</time></trkpt><trkpt lat="42.2971411" lon="13.7790435"><ele>351.75</ele><time>2026-05-03T09:30:13.027Z</time></trkpt><trkpt lat="42.297044" lon="13.7791309"><ele>351.5</ele><time>2026-05-03T09:30:14.027Z</time></trkpt><trkpt lat="42.2969538" lon="13.7792182"><ele>351.25</ele><time>2026-05-03T09:30:15.027Z</time></trkpt><trkpt lat="42.2968692" lon="13.7793139"><ele>351.0</ele><time>2026-05-03T09:30:16.027Z</time></trkpt><trkpt lat="42.2967877" lon="13.7794256"><ele>351.0</ele><time>2026-05-03T09:30:17.027Z</time></trkpt><trkpt lat="42.2967107" lon="13.7795476"><ele>351.0</ele><time>2026-05-03T09:30:18.027Z</time></trkpt><trkpt lat="42.2966321" lon="13.779678"><ele>351.0</ele><time>2026-05-03T09:30:19.027Z</time></trkpt><trkpt lat="42.2965468" lon="13.7798066"><ele>351.0</ele><time>2026-05-03T09:30:20.027Z</time></trkpt><trkpt lat="42.2964684" lon="13.779947"><ele>351.0</ele><time>2026-05-03T09:30:21.027Z</time></trkpt><trkpt lat="42.2963931" lon="13.7800716"><ele>351.0</ele><time>2026-05-03T09:30:22.027Z</time></trkpt><trkpt lat="42.2963187" lon="13.7801864"><ele>351.0</ele><time>2026-05-03T09:30:23.027Z</time></trkpt><trkpt lat="42.2962481" lon="13.7803058"><ele>351.0</ele><time>2026-05-03T09:30:24.027Z</time></trkpt><trkpt lat="42.2961878" lon="13.7804328"><ele>351.5</ele><time>2026-05-03T09:30:25.027Z</time></trkpt><trkpt lat="42.2961357" lon="13.7805655"><ele>352.0</ele><time>2026-05-03T09:30:26.027Z</time></trkpt><trkpt lat="42.2960758" lon="13.780695"><ele>352.5</ele><time>2026-05-03T09:30:27.027Z</time></trkpt><trkpt lat="42.2960091" lon="13.7808173"><ele>353.0</ele><time>2026-05-03T09:30:28.028Z</time></trkpt><trkpt lat="42.295928" lon="13.7809458"><ele>352.75</ele><time>2026-05-03T09:30:29.027Z</time></trkpt><trkpt lat="42.2958332" lon="13.7810827"><ele>352.5</ele><time>2026-05-03T09:30:30.027Z</time></trkpt><trkpt lat="42.2957588" lon="13.7812051"><ele>352.25</ele><time>2026-05-03T09:30:31.027Z</time></trkpt><trkpt lat="42.2956849" lon="13.7813274"><ele>352.0</ele><time>2026-05-03T09:30:32.027Z</time></trkpt><trkpt lat="42.2956126" lon="13.7814405"><ele>352.0</ele><time>2026-05-03T09:30:33.027Z</time></trkpt><trkpt lat="42.295538" lon="13.781544"><ele>352.0</ele><time>2026-05-03T09:30:34.027Z</time></trkpt><trkpt lat="42.2954623" lon="13.7816304"><ele>352.0</ele><time>2026-05-03T09:30:35.027Z</time></trkpt><trkpt lat="42.2953831" lon="13.7817134"><ele>352.0</ele><time>2026-05-03T09:30:36.027Z</time></trkpt><trkpt lat="42.2952936" lon="13.7818011"><ele>352.0</ele><time>2026-05-03T09:30:37.027Z</time></trkpt><trkpt lat="42.2951986" lon="13.7818944"><ele>352.0</ele><time>2026-05-03T09:30:38.027Z</time></trkpt><trkpt lat="42.2950937" lon="13.7819916"><ele>352.0</ele><time>2026-05-03T09:30:39.027Z</time></trkpt><trkpt lat="42.2949875" lon="13.7820973"><ele>352.0</ele><time>2026-05-03T09:30:40.027Z</time></trkpt><trkpt lat="42.2948835" lon="13.7822129"><ele>352.0</ele><time>2026-05-03T09:30:41.027Z</time></trkpt><trkpt lat="42.2947868" lon="13.7823243"><ele>351.5</ele><time>2026-05-03T09:30:42.027Z</time></trkpt><trkpt lat="42.294697" lon="13.7824316"><ele>351.0</ele><time>2026-05-03T09:30:43.027Z</time></trkpt><trkpt lat="42.2946185" lon="13.7825363"><ele>350.5</ele><time>2026-05-03T09:30:44.027Z</time></trkpt><trkpt lat="42.2945332" lon="13.7826551"><ele>350.0</ele><time>2026-05-03T09:30:45.027Z</time></trkpt><trkpt lat="42.2944399" lon="13.7827799"><ele>350.0</ele><time>2026-05-03T09:30:46.027Z</time></trkpt><trkpt lat="42.2943404" lon="13.7829058"><ele>350.0</ele><time>2026-05-03T09:30:47.027Z</time></trkpt><trkpt lat="42.2942486" lon="13.7830225"><ele>350.0</ele><time>2026-05-03T09:30:48.027Z</time></trkpt><trkpt lat="42.2941636" lon="13.7831387"><ele>350.0</ele><time>2026-05-03T09:30:49.027Z</time></trkpt><trkpt lat="42.2940738" lon="13.7832678"><ele>350.0</ele><time>2026-05-03T09:30:50.027Z</time></trkpt><trkpt lat="42.2939857" lon="13.7833919"><ele>350.0</ele><time>2026-05-03T09:30:51.027Z</time></trkpt><trkpt lat="42.2939022" lon="13.7835166"><ele>350.0</ele><time>2026-05-03T09:30:52.027Z</time></trkpt><trkpt lat="42.2938294" lon="13.7836341"><ele>350.0</ele><time>2026-05-03T09:30:53.027Z</time></trkpt><trkpt lat="42.2937461" lon="13.7837524"><ele>350.25</ele><time>2026-05-03T09:30:54.027Z</time></trkpt><trkpt lat="42.2936531" lon="13.7838628"><ele>350.5</ele><time>2026-05-03T09:30:55.027Z</time></trkpt><trkpt lat="42.2935567" lon="13.7839752"><ele>350.75</ele><time>2026-05-03T09:30:56.027Z</time></trkpt><trkpt lat="42.2934603" lon="13.7840895"><ele>351.0</ele><time>2026-05-03T09:30:57.027Z</time></trkpt><trkpt lat="42.2933653" lon="13.7841921"><ele>351.0</ele><time>2026-05-03T09:30:58.027Z</time></trkpt><trkpt lat="42.2932755" lon="13.7842853"><ele>351.0</ele><time>2026-05-03T09:30:59.028Z</time></trkpt><trkpt lat="42.2931799" lon="13.7843791"><ele>351.0</ele><time>2026-05-03T09:31:00.027Z</time></trkpt><trkpt lat="42.2930855" lon="13.7844687"><ele>351.0</ele><time>2026-05-03T09:31:01.027Z</time></trkpt><trkpt lat="42.2929866" lon="13.7845477"><ele>351.25</ele><time>2026-05-03T09:31:02.027Z</time></trkpt><trkpt lat="42.292883" lon="13.7846275"><ele>351.5</ele><time>2026-05-03T09:31:03.027Z</time></trkpt><trkpt lat="42.2927741" lon="13.7846986"><ele>351.75</ele><time>2026-05-03T09:31:04.027Z</time></trkpt><trkpt lat="42.292664" lon="13.7847668"><ele>352.0</ele><time>2026-05-03T09:31:05.027Z</time></trkpt><trkpt lat="42.2925577" lon="13.7848285"><ele>352.0</ele><time>2026-05-03T09:31:06.027Z</time></trkpt><trkpt lat="42.2924526" lon="13.7848842"><ele>352.0</ele><time>2026-05-03T09:31:07.027Z</time></trkpt><trkpt lat="42.2923496" lon="13.7849281"><ele>352.0</ele><time>2026-05-03T09:31:08.027Z</time></trkpt><trkpt lat="42.2922362" lon="13.7849693"><ele>352.0</ele><time>2026-05-03T09:31:09.028Z</time></trkpt><trkpt lat="42.2921277" lon="13.7850098"><ele>352.20000000000005</ele><time>2026-05-03T09:31:10.027Z</time></trkpt><trkpt lat="42.2920175" lon="13.7850531"><ele>352.4</ele><time>2026-05-03T09:31:11.027Z</time></trkpt><trkpt lat="42.291913" lon="13.7850988"><ele>352.6</ele><time>2026-05-03T09:31:12.027Z</time></trkpt><trkpt lat="42.2918068" lon="13.7851455"><ele>352.79999999999995</ele><time>2026-05-03T09:31:13.027Z</time></trkpt><trkpt lat="42.2917163" lon="13.7852204"><ele>353.0</ele><time>2026-05-03T09:31:14.027Z</time></trkpt><trkpt lat="42.2916146" lon="13.785289"><ele>353.0</ele><time>2026-05-03T09:31:15.027Z</time></trkpt><trkpt lat="42.2915096" lon="13.7853624"><ele>353.0</ele><time>2026-05-03T09:31:16.027Z</time></trkpt><trkpt lat="42.2913997" lon="13.7854289"><ele>353.0</ele><time>2026-05-03T09:31:17.027Z</time></trkpt><trkpt lat="42.2912869" lon="13.785502"><ele>353.0</ele><time>2026-05-03T09:31:18.027Z</time></trkpt><trkpt lat="42.2911727" lon="13.7855877"><ele>352.5</ele><time>2026-05-03T09:31:19.028Z</time></trkpt><trkpt lat="42.2910637" lon="13.7856711"><ele>352.0</ele><time>2026-05-03T09:31:20.027Z</time></trkpt><trkpt lat="42.2909504" lon="13.7857559"><ele>351.5</ele><time>2026-05-03T09:31:21.027Z</time></trkpt><trkpt lat="42.2908269" lon="13.7858467"><ele>351.0</ele><time>2026-05-03T09:31:22.027Z</time></trkpt><trkpt lat="42.2907138" lon="13.7859348"><ele>351.25</ele><time>2026-05-03T09:31:23.027Z</time></trkpt><trkpt lat="42.2906058" lon="13.7860122"><ele>351.5</ele><time>2026-05-03T09:31:24.027Z</time></trkpt><trkpt lat="42.2905034" lon="13.786095"><ele>351.75</ele><time>2026-05-03T09:31:25.027Z</time></trkpt><trkpt lat="42.2903985" lon="13.7861801"><ele>352.0</ele><time>2026-05-03T09:31:26.027Z</time></trkpt><trkpt lat="42.2903064" lon="13.7862709"><ele>352.0</ele><time>2026-05-03T09:31:27.027Z</time></trkpt><trkpt lat="42.2902181" lon="13.7863462"><ele>352.0</ele><time>2026-05-03T09:31:28.027Z</time></trkpt><trkpt lat="42.2901293" lon="13.786433"><ele>352.0</ele><time>2026-05-03T09:31:29.027Z</time></trkpt><trkpt lat="42.2900347" lon="13.7865085"><ele>352.0</ele><time>2026-05-03T09:31:30.027Z</time></trkpt><trkpt lat="42.2899368" lon="13.7865852"><ele>352.0</ele><time>2026-05-03T09:31:31.027Z</time></trkpt><trkpt lat="42.2898323" lon="13.7866643"><ele>351.5</ele><time>2026-05-03T09:31:32.028Z</time></trkpt><trkpt lat="42.2897216" lon="13.7867415"><ele>351.0</ele><time>2026-05-03T09:31:33.027Z</time></trkpt><trkpt lat="42.2896106" lon="13.7868202"><ele>350.5</ele><time>2026-05-03T09:31:34.027Z</time></trkpt><trkpt lat="42.2895059" lon="13.7869097"><ele>350.0</ele><time>2026-05-03T09:31:35.027Z</time></trkpt><trkpt lat="42.2893951" lon="13.7869913"><ele>351.25</ele><time>2026-05-03T09:31:36.027Z</time></trkpt><trkpt lat="42.2892828" lon="13.7870743"><ele>352.5</ele><time>2026-05-03T09:31:37.027Z</time></trkpt><trkpt lat="42.2891743" lon="13.7871561"><ele>353.75</ele><time>2026-05-03T09:31:38.027Z</time></trkpt><trkpt lat="42.2890667" lon="13.7872468"><ele>355.0</ele><time>2026-05-03T09:31:39.028Z</time></trkpt><trkpt lat="42.2889619" lon="13.7873384"><ele>355.0</ele><time>2026-05-03T09:31:40.027Z</time></trkpt><trkpt lat="42.2888566" lon="13.7874384"><ele>355.0</ele><time>2026-05-03T09:31:41.028Z</time></trkpt><trkpt lat="42.2887471" lon="13.7875325"><ele>355.0</ele><time>2026-05-03T09:31:42.027Z</time></trkpt><trkpt lat="42.2886349" lon="13.7876317"><ele>355.0</ele><time>2026-05-03T09:31:43.027Z</time></trkpt><trkpt lat="42.2885197" lon="13.7877284"><ele>356.25</ele><time>2026-05-03T09:31:44.027Z</time></trkpt><trkpt lat="42.2884012" lon="13.7878251"><ele>357.5</ele><time>2026-05-03T09:31:45.027Z</time></trkpt><trkpt lat="42.2882873" lon="13.7879074"><ele>358.75</ele><time>2026-05-03T09:31:46.027Z</time></trkpt><trkpt lat="42.2881794" lon="13.7879755"><ele>360.0</ele><time>2026-05-03T09:31:47.027Z</time></trkpt><trkpt lat="42.2880688" lon="13.7880239"><ele>360.5</ele><time>2026-05-03T09:31:48.028Z</time></trkpt><trkpt lat="42.2879575" lon="13.7880555"><ele>361.0</ele><time>2026-05-03T09:31:49.028Z</time></trkpt><trkpt lat="42.2878459" lon="13.7880903"><ele>361.5</ele><time>2026-05-03T09:31:50.027Z</time></trkpt><trkpt lat="42.2877393" lon="13.7881333"><ele>362.0</ele><time>2026-05-03T09:31:51.027Z</time></trkpt><trkpt lat="42.2876176" lon="13.7882003"><ele>362.0</ele><time>2026-05-03T09:31:52.028Z</time></trkpt><trkpt lat="42.2875015" lon="13.7882584"><ele>362.0</ele><time>2026-05-03T09:31:53.027Z</time></trkpt><trkpt lat="42.2873861" lon="13.788303"><ele>362.0</ele><time>2026-05-03T09:31:54.027Z</time></trkpt><trkpt lat="42.287287" lon="13.7883544"><ele>362.0</ele><time>2026-05-03T09:31:55.027Z</time></trkpt><trkpt lat="42.2871862" lon="13.78843"><ele>362.0</ele><time>2026-05-03T09:31:56.027Z</time></trkpt><trkpt lat="42.2870772" lon="13.7885017"><ele>362.0</ele><time>2026-05-03T09:31:57.027Z</time></trkpt><trkpt lat="42.2869742" lon="13.7885711"><ele>362.0</ele><time>2026-05-03T09:31:58.027Z</time></trkpt><trkpt lat="42.2868786" lon="13.7886354"><ele>362.0</ele><time>2026-05-03T09:31:59.027Z</time></trkpt><trkpt lat="42.2868061" lon="13.7886963"><ele>362.0</ele><time>2026-05-03T09:32:00.027Z</time></trkpt><trkpt lat="42.2867012" lon="13.7887803"><ele>362.0</ele><time>2026-05-03T09:32:02.027Z</time></trkpt><trkpt lat="42.2866392" lon="13.7888063"><ele>362.0</ele><time>2026-05-03T09:32:04.027Z</time></trkpt><trkpt lat="42.2865959" lon="13.7887105"><ele>362.0</ele><time>2026-05-03T09:32:07.027Z</time></trkpt><trkpt lat="42.286615" lon="13.7885889"><ele>362.0</ele><time>2026-05-03T09:32:09.027Z</time></trkpt><trkpt lat="42.2866134" lon="13.7884747"><ele>362.0</ele><time>2026-05-03T09:32:11.027Z</time></trkpt><trkpt lat="42.2866011" lon="13.7883547"><ele>362.0</ele><time>2026-05-03T09:32:13.027Z</time></trkpt><trkpt lat="42.2865878" lon="13.7882174"><ele>361.20000000000005</ele><time>2026-05-03T09:32:15.027Z</time></trkpt><trkpt lat="42.2865681" lon="13.7880359"><ele>360.4</ele><time>2026-05-03T09:32:23.027Z</time></trkpt><trkpt lat="42.286564" lon="13.7879383"><ele>359.6</ele><time>2026-05-03T09:32:24.027Z</time></trkpt><trkpt lat="42.2865427" lon="13.7877993"><ele>358.79999999999995</ele><time>2026-05-03T09:32:25.027Z</time></trkpt><trkpt lat="42.286522" lon="13.7876432"><ele>358.0</ele><time>2026-05-03T09:32:26.027Z</time></trkpt><trkpt lat="42.2865019" lon="13.7874649"><ele>356.3333333333333</ele><time>2026-05-03T09:32:27.027Z</time></trkpt><trkpt lat="42.2864787" lon="13.787265"><ele>354.6666666666667</ele><time>2026-05-03T09:32:28.027Z</time></trkpt><trkpt lat="42.28645" lon="13.78704"><ele>353.0</ele><time>2026-05-03T09:32:29.027Z</time></trkpt><trkpt lat="42.2864158" lon="13.7868118"><ele>350.0</ele><time>2026-05-03T09:32:30.027Z</time></trkpt><trkpt lat="42.2863782" lon="13.7865482"><ele>347.0</ele><time>2026-05-03T09:32:31.027Z</time></trkpt><trkpt lat="42.2863335" lon="13.7862717"><ele>344.0</ele><time>2026-05-03T09:32:32.027Z</time></trkpt><trkpt lat="42.2862928" lon="13.7860007"><ele>343.6666666666667</ele><time>2026-05-03T09:32:33.027Z</time></trkpt><trkpt lat="42.2862525" lon="13.7857418"><ele>343.3333333333333</ele><time>2026-05-03T09:32:34.028Z</time></trkpt><trkpt lat="42.2862245" lon="13.7854822"><ele>343.0</ele><time>2026-05-03T09:32:35.027Z</time></trkpt><trkpt lat="42.2861822" lon="13.7851871"><ele>343.0</ele><time>2026-05-03T09:32:36.027Z</time></trkpt><trkpt lat="42.2861467" lon="13.7848882"><ele>343.0</ele><time>2026-05-03T09:32:37.027Z</time></trkpt><trkpt lat="42.2861085" lon="13.7845743"><ele>344.0</ele><time>2026-05-03T09:32:38.028Z</time></trkpt><trkpt lat="42.2860808" lon="13.7842589"><ele>345.0</ele><time>2026-05-03T09:32:39.027Z</time></trkpt><trkpt lat="42.2860466" lon="13.78392"><ele>345.0</ele><time>2026-05-03T09:32:40.027Z</time></trkpt><trkpt lat="42.2859967" lon="13.7835757"><ele>345.0</ele><time>2026-05-03T09:32:41.027Z</time></trkpt><trkpt lat="42.285968" lon="13.7832699"><ele>345.3333333333333</ele><time>2026-05-03T09:32:42.027Z</time></trkpt><trkpt lat="42.2859232" lon="13.7829499"><ele>345.66666666666663</ele><time>2026-05-03T09:32:43.027Z</time></trkpt><trkpt lat="42.2858767" lon="13.7826777"><ele>346.0</ele><time>2026-05-03T09:32:44.027Z</time></trkpt><trkpt lat="42.2857995" lon="13.7823633"><ele>345.0</ele><time>2026-05-03T09:32:45.027Z</time></trkpt><trkpt lat="42.2857183" lon="13.7820584"><ele>344.0</ele><time>2026-05-03T09:32:46.027Z</time></trkpt><trkpt lat="42.2855804" lon="13.7817458"><ele>344.0</ele><time>2026-05-03T09:32:47.027Z</time></trkpt><trkpt lat="42.2854574" lon="13.7814256"><ele>344.0</ele><time>2026-05-03T09:32:48.027Z</time></trkpt><trkpt lat="42.285321" lon="13.7810939"><ele>343.5</ele><time>2026-05-03T09:32:49.028Z</time></trkpt><trkpt lat="42.2851787" lon="13.7807391"><ele>343.0</ele><time>2026-05-03T09:32:50.027Z</time></trkpt><trkpt lat="42.2850288" lon="13.780375"><ele>343.0</ele><time>2026-05-03T09:32:51.027Z</time></trkpt><trkpt lat="42.2848738" lon="13.7799942"><ele>343.0</ele><time>2026-05-03T09:32:52.027Z</time></trkpt><trkpt lat="42.2847129" lon="13.7795979"><ele>343.0</ele><time>2026-05-03T09:32:53.027Z</time></trkpt><trkpt lat="42.2845461" lon="13.7791855"><ele>343.0</ele><time>2026-05-03T09:32:54.027Z</time></trkpt><trkpt lat="42.2843805" lon="13.7787792"><ele>343.5</ele><time>2026-05-03T09:32:55.028Z</time></trkpt><trkpt lat="42.2842279" lon="13.7784052"><ele>344.0</ele><time>2026-05-03T09:32:56.027Z</time></trkpt><trkpt lat="42.2840814" lon="13.7780459"><ele>344.0</ele><time>2026-05-03T09:32:57.027Z</time></trkpt><trkpt lat="42.2839431" lon="13.7777069"><ele>344.0</ele><time>2026-05-03T09:32:58.027Z</time></trkpt><trkpt lat="42.2838102" lon="13.7773812"><ele>344.5</ele><time>2026-05-03T09:32:59.027Z</time></trkpt><trkpt lat="42.2836711" lon="13.7770383"><ele>345.0</ele><time>2026-05-03T09:33:00.027Z</time></trkpt><trkpt lat="42.2835283" lon="13.7766991"><ele>345.0</ele><time>2026-05-03T09:33:01.027Z</time></trkpt><trkpt lat="42.2834026" lon="13.7763813"><ele>345.0</ele><time>2026-05-03T09:33:02.027Z</time></trkpt><trkpt lat="42.283287" lon="13.7760969"><ele>345.0</ele><time>2026-05-03T09:33:03.027Z</time></trkpt><trkpt lat="42.2831823" lon="13.7758236"><ele>345.0</ele><time>2026-05-03T09:33:04.027Z</time></trkpt><trkpt lat="42.2830845" lon="13.7755816"><ele>345.0</ele><time>2026-05-03T09:33:05.027Z</time></trkpt><trkpt lat="42.2829969" lon="13.7753689"><ele>346.0</ele><time>2026-05-03T09:33:06.027Z</time></trkpt><trkpt lat="42.2829064" lon="13.7751769"><ele>347.0</ele><time>2026-05-03T09:33:07.027Z</time></trkpt><trkpt lat="42.2828003" lon="13.7750076"><ele>348.0</ele><time>2026-05-03T09:33:08.027Z</time></trkpt><trkpt lat="42.2826914" lon="13.7748722"><ele>348.0</ele><time>2026-05-03T09:33:09.027Z</time></trkpt><trkpt lat="42.2825558" lon="13.7747578"><ele>348.0</ele><time>2026-05-03T09:33:10.027Z</time></trkpt><trkpt lat="42.2823959" lon="13.7746826"><ele>348.0</ele><time>2026-05-03T09:33:11.027Z</time></trkpt><trkpt lat="42.2822084" lon="13.7746276"><ele>348.25</ele><time>2026-05-03T09:33:12.027Z</time></trkpt><trkpt lat="42.28203" lon="13.7745749"><ele>348.5</ele><time>2026-05-03T09:33:13.028Z</time></trkpt><trkpt lat="42.2818983" lon="13.7745378"><ele>348.75</ele><time>2026-05-03T09:33:14.027Z</time></trkpt><trkpt lat="42.2817917" lon="13.7745053"><ele>349.0</ele><time>2026-05-03T09:33:15.027Z</time></trkpt><trkpt lat="42.2816941" lon="13.7744486"><ele>349.0</ele><time>2026-05-03T09:33:16.028Z</time></trkpt><trkpt lat="42.2815898" lon="13.7743585"><ele>349.0</ele><time>2026-05-03T09:33:17.027Z</time></trkpt><trkpt lat="42.2814854" lon="13.7742407"><ele>349.0</ele><time>2026-05-03T09:33:18.027Z</time></trkpt><trkpt lat="42.2813773" lon="13.7740936"><ele>349.0</ele><time>2026-05-03T09:33:19.027Z</time></trkpt><trkpt lat="42.2812511" lon="13.7739308"><ele>349.66666666666663</ele><time>2026-05-03T09:33:20.027Z</time></trkpt><trkpt lat="42.2811195" lon="13.7737515"><ele>350.3333333333333</ele><time>2026-05-03T09:33:21.027Z</time></trkpt><trkpt lat="42.281" lon="13.7735866"><ele>351.0</ele><time>2026-05-03T09:33:22.027Z</time></trkpt><trkpt lat="42.2808864" lon="13.7734148"><ele>351.6666666666667</ele><time>2026-05-03T09:33:23.028Z</time></trkpt><trkpt lat="42.2807734" lon="13.7732045"><ele>352.33333333333337</ele><time>2026-05-03T09:33:24.027Z</time></trkpt><trkpt lat="42.2806702" lon="13.7729749"><ele>353.0</ele><time>2026-05-03T09:33:25.027Z</time></trkpt><trkpt lat="42.2805633" lon="13.772757"><ele>353.6666666666667</ele><time>2026-05-03T09:33:26.027Z</time></trkpt><trkpt lat="42.2804671" lon="13.7725648"><ele>354.3333333333333</ele><time>2026-05-03T09:33:27.027Z</time></trkpt><trkpt lat="42.2803888" lon="13.7724059"><ele>355.0</ele><time>2026-05-03T09:33:28.027Z</time></trkpt><trkpt lat="42.2803" lon="13.7722407"><ele>355.0</ele><time>2026-05-03T09:33:29.027Z</time></trkpt><trkpt lat="42.2801912" lon="13.7721838"><ele>355.0</ele><time>2026-05-03T09:33:30.028Z</time></trkpt><trkpt lat="42.2800733" lon="13.7720969"><ele>355.0</ele><time>2026-05-03T09:33:31.027Z</time></trkpt><trkpt lat="42.279977" lon="13.7720218"><ele>355.0</ele><time>2026-05-03T09:33:32.027Z</time></trkpt><trkpt lat="42.2798794" lon="13.7719468"><ele>355.5</ele><time>2026-05-03T09:33:33.027Z</time></trkpt><trkpt lat="42.2797967" lon="13.7718295"><ele>356.0</ele><time>2026-05-03T09:33:34.027Z</time></trkpt><trkpt lat="42.2797107" lon="13.7717131"><ele>356.5</ele><time>2026-05-03T09:33:35.027Z</time></trkpt><trkpt lat="42.2796377" lon="13.7715694"><ele>357.0</ele><time>2026-05-03T09:33:36.027Z</time></trkpt><trkpt lat="42.2795765" lon="13.7714014"><ele>357.0</ele><time>2026-05-03T09:33:37.027Z</time></trkpt><trkpt lat="42.27951" lon="13.7712182"><ele>357.0</ele><time>2026-05-03T09:33:38.027Z</time></trkpt><trkpt lat="42.2794347" lon="13.7710271"><ele>357.0</ele><time>2026-05-03T09:33:39.027Z</time></trkpt><trkpt lat="42.2793695" lon="13.7708289"><ele>357.5</ele><time>2026-05-03T09:33:40.027Z</time></trkpt><trkpt lat="42.2793092" lon="13.7706506"><ele>358.0</ele><time>2026-05-03T09:33:41.027Z</time></trkpt><trkpt lat="42.2792554" lon="13.7704974"><ele>358.5</ele><time>2026-05-03T09:33:42.027Z</time></trkpt><trkpt lat="42.2792051" lon="13.7703652"><ele>359.0</ele><time>2026-05-03T09:33:43.027Z</time></trkpt><trkpt lat="42.2791674" lon="13.7702422"><ele>359.4</ele><time>2026-05-03T09:33:44.027Z</time></trkpt><trkpt lat="42.2791243" lon="13.7701199"><ele>359.79999999999995</ele><time>2026-05-03T09:33:45.027Z</time></trkpt><trkpt lat="42.2790834" lon="13.7699904"><ele>360.20000000000005</ele><time>2026-05-03T09:33:46.027Z</time></trkpt><trkpt lat="42.2790397" lon="13.7698702"><ele>360.6</ele><time>2026-05-03T09:33:47.027Z</time></trkpt><trkpt lat="42.279005" lon="13.7697611"><ele>361.0</ele><time>2026-05-03T09:33:48.027Z</time></trkpt><trkpt lat="42.2789695" lon="13.7696552"><ele>361.0</ele><time>2026-05-03T09:33:49.027Z</time></trkpt><trkpt lat="42.2789363" lon="13.7695636"><ele>361.0</ele><time>2026-05-03T09:33:50.027Z</time></trkpt><trkpt lat="42.2788854" lon="13.7694213"><ele>361.0</ele><time>2026-05-03T09:33:52.027Z</time></trkpt><trkpt lat="42.2788339" lon="13.7693714"><ele>361.0</ele><time>2026-05-03T09:33:54.028Z</time></trkpt><trkpt lat="42.2787345" lon="13.7693999"><ele>361.0</ele><time>2026-05-03T09:33:56.027Z</time></trkpt><trkpt lat="42.2786618" lon="13.7694723"><ele>361.0</ele><time>2026-05-03T09:33:57.027Z</time></trkpt><trkpt lat="42.2785756" lon="13.7695512"><ele>360.75</ele><time>2026-05-03T09:33:58.027Z</time></trkpt><trkpt lat="42.2784846" lon="13.7696623"><ele>360.5</ele><time>2026-05-03T09:33:59.027Z</time></trkpt><trkpt lat="42.2783746" lon="13.7697874"><ele>360.25</ele><time>2026-05-03T09:34:00.027Z</time></trkpt><trkpt lat="42.2782563" lon="13.769923"><ele>360.0</ele><time>2026-05-03T09:34:01.028Z</time></trkpt><trkpt lat="42.2781249" lon="13.7700728"><ele>358.0</ele><time>2026-05-03T09:34:02.027Z</time></trkpt><trkpt lat="42.2779846" lon="13.7702391"><ele>356.0</ele><time>2026-05-03T09:34:03.027Z</time></trkpt><trkpt lat="42.277848" lon="13.7703977"><ele>354.0</ele><time>2026-05-03T09:34:04.027Z</time></trkpt><trkpt lat="42.2777129" lon="13.7705389"><ele>354.0</ele><time>2026-05-03T09:34:05.027Z</time></trkpt><trkpt lat="42.277597" lon="13.7706573"><ele>354.0</ele><time>2026-05-03T09:34:06.027Z</time></trkpt><trkpt lat="42.2774851" lon="13.7707316"><ele>354.0</ele><time>2026-05-03T09:34:07.027Z</time></trkpt><trkpt lat="42.2773662" lon="13.7707932"><ele>354.0</ele><time>2026-05-03T09:34:08.027Z</time></trkpt><trkpt lat="42.2772147" lon="13.7708098"><ele>352.0</ele><time>2026-05-03T09:34:09.027Z</time></trkpt><trkpt lat="42.2769954" lon="13.77074"><ele>350.0</ele><time>2026-05-03T09:34:10.027Z</time></trkpt><trkpt lat="42.2767756" lon="13.7707081"><ele>348.0</ele><time>2026-05-03T09:34:11.027Z</time></trkpt><trkpt lat="42.2765399" lon="13.7706812"><ele>346.6666666666667</ele><time>2026-05-03T09:34:12.027Z</time></trkpt><trkpt lat="42.2763098" lon="13.7706559"><ele>345.33333333333337</ele><time>2026-05-03T09:34:13.027Z</time></trkpt><trkpt lat="42.2761088" lon="13.770627"><ele>344.0</ele><time>2026-05-03T09:34:14.027Z</time></trkpt><trkpt lat="42.2759159" lon="13.7705883"><ele>344.0</ele><time>2026-05-03T09:34:15.027Z</time></trkpt><trkpt lat="42.2757352" lon="13.7705502"><ele>344.0</ele><time>2026-05-03T09:34:16.027Z</time></trkpt><trkpt lat="42.2756235" lon="13.7705453"><ele>344.0</ele><time>2026-05-03T09:34:17.027Z</time></trkpt><trkpt lat="42.2754904" lon="13.7705282"><ele>344.0</ele><time>2026-05-03T09:34:18.027Z</time></trkpt><trkpt lat="42.2753501" lon="13.7705594"><ele>346.0</ele><time>2026-05-03T09:34:19.027Z</time></trkpt><trkpt lat="42.2752168" lon="13.7706286"><ele>348.0</ele><time>2026-05-03T09:34:20.027Z</time></trkpt><trkpt lat="42.2751017" lon="13.7706926"><ele>350.0</ele><time>2026-05-03T09:34:21.027Z</time></trkpt><trkpt lat="42.2750188" lon="13.7707704"><ele>352.0</ele><time>2026-05-03T09:34:22.027Z</time></trkpt><trkpt lat="42.2749522" lon="13.7708797"><ele>353.25</ele><time>2026-05-03T09:34:23.027Z</time></trkpt><trkpt lat="42.2749067" lon="13.7710293"><ele>354.5</ele><time>2026-05-03T09:34:24.027Z</time></trkpt><trkpt lat="42.2748664" lon="13.771221"><ele>355.75</ele><time>2026-05-03T09:34:25.027Z</time></trkpt><trkpt lat="42.2748203" lon="13.7714473"><ele>357.0</ele><time>2026-05-03T09:34:26.027Z</time></trkpt><trkpt lat="42.2747698" lon="13.7716963"><ele>356.0</ele><time>2026-05-03T09:34:27.027Z</time></trkpt><trkpt lat="42.2747192" lon="13.7719179"><ele>355.0</ele><time>2026-05-03T09:34:28.027Z</time></trkpt><trkpt lat="42.2746745" lon="13.7721204"><ele>354.0</ele><time>2026-05-03T09:34:29.027Z</time></trkpt><trkpt lat="42.2746268" lon="13.7722889"><ele>354.0</ele><time>2026-05-03T09:34:30.027Z</time></trkpt><trkpt lat="42.2745757" lon="13.7724525"><ele>354.0</ele><time>2026-05-03T09:34:31.027Z</time></trkpt><trkpt lat="42.2745094" lon="13.772581"><ele>354.0</ele><time>2026-05-03T09:34:32.027Z</time></trkpt><trkpt lat="42.2744394" lon="13.7726944"><ele>354.0</ele><time>2026-05-03T09:34:33.027Z</time></trkpt><trkpt lat="42.2743608" lon="13.7728063"><ele>353.5</ele><time>2026-05-03T09:34:34.027Z</time></trkpt><trkpt lat="42.2742717" lon="13.7729246"><ele>353.0</ele><time>2026-05-03T09:34:35.028Z</time></trkpt><trkpt lat="42.274171" lon="13.7730561"><ele>352.5</ele><time>2026-05-03T09:34:36.027Z</time></trkpt><trkpt lat="42.2740691" lon="13.7731933"><ele>352.0</ele><time>2026-05-03T09:34:37.027Z</time></trkpt><trkpt lat="42.2739405" lon="13.7733472"><ele>352.66666666666663</ele><time>2026-05-03T09:34:38.027Z</time></trkpt><trkpt lat="42.2738004" lon="13.7735187"><ele>353.3333333333333</ele><time>2026-05-03T09:34:39.027Z</time></trkpt><trkpt lat="42.2736328" lon="13.7737073"><ele>354.0</ele><time>2026-05-03T09:34:40.027Z</time></trkpt><trkpt lat="42.2734512" lon="13.7739024"><ele>354.0</ele><time>2026-05-03T09:34:41.028Z</time></trkpt><trkpt lat="42.2732933" lon="13.7741023"><ele>354.0</ele><time>2026-05-03T09:34:42.027Z</time></trkpt><trkpt lat="42.2731391" lon="13.7743334"><ele>354.0</ele><time>2026-05-03T09:34:43.028Z</time></trkpt><trkpt lat="42.2729864" lon="13.7745759"><ele>355.0</ele><time>2026-05-03T09:34:44.027Z</time></trkpt><trkpt lat="42.272857" lon="13.7747981"><ele>356.0</ele><time>2026-05-03T09:34:45.027Z</time></trkpt><trkpt lat="42.2727455" lon="13.7749839"><ele>357.0</ele><time>2026-05-03T09:34:46.028Z</time></trkpt><trkpt lat="42.2726518" lon="13.7751354"><ele>356.0</ele><time>2026-05-03T09:34:47.027Z</time></trkpt><trkpt lat="42.2725695" lon="13.7752743"><ele>355.0</ele><time>2026-05-03T09:34:48.027Z</time></trkpt><trkpt lat="42.2724928" lon="13.7753997"><ele>354.0</ele><time>2026-05-03T09:34:49.028Z</time></trkpt><trkpt lat="42.2724238" lon="13.7755417"><ele>353.0</ele><time>2026-05-03T09:34:50.028Z</time></trkpt><trkpt lat="42.2723682" lon="13.7756752"><ele>353.0</ele><time>2026-05-03T09:34:51.027Z</time></trkpt><trkpt lat="42.272324" lon="13.7758184"><ele>353.0</ele><time>2026-05-03T09:34:52.027Z</time></trkpt><trkpt lat="42.2722825" lon="13.775991"><ele>353.0</ele><time>2026-05-03T09:34:53.027Z</time></trkpt><trkpt lat="42.2722507" lon="13.7762107"><ele>353.0</ele><time>2026-05-03T09:34:54.027Z</time></trkpt><trkpt lat="42.2722225" lon="13.776471"><ele>352.0</ele><time>2026-05-03T09:34:55.027Z</time></trkpt><trkpt lat="42.2721928" lon="13.77676"><ele>351.0</ele><time>2026-05-03T09:34:56.027Z</time></trkpt><trkpt lat="42.2721657" lon="13.7770764"><ele>350.0</ele><time>2026-05-03T09:34:57.027Z</time></trkpt><trkpt lat="42.2721397" lon="13.7773663"><ele>349.0</ele><time>2026-05-03T09:34:58.027Z</time></trkpt><trkpt lat="42.2721098" lon="13.7776542"><ele>348.0</ele><time>2026-05-03T09:34:59.027Z</time></trkpt><trkpt lat="42.2720805" lon="13.7779202"><ele>347.3333333333333</ele><time>2026-05-03T09:35:00.027Z</time></trkpt><trkpt lat="42.2720588" lon="13.778179"><ele>346.66666666666663</ele><time>2026-05-03T09:35:01.028Z</time></trkpt><trkpt lat="42.2720366" lon="13.7784287"><ele>346.0</ele><time>2026-05-03T09:35:02.027Z</time></trkpt><trkpt lat="42.2720144" lon="13.7786584"><ele>345.0</ele><time>2026-05-03T09:35:03.027Z</time></trkpt><trkpt lat="42.2719813" lon="13.7788806"><ele>344.0</ele><time>2026-05-03T09:35:04.027Z</time></trkpt><trkpt lat="42.2719586" lon="13.7791047"><ele>343.0</ele><time>2026-05-03T09:35:05.027Z</time></trkpt><trkpt lat="42.2719354" lon="13.779306"><ele>342.25</ele><time>2026-05-03T09:35:06.027Z</time></trkpt><trkpt lat="42.2719156" lon="13.7794793"><ele>341.5</ele><time>2026-05-03T09:35:07.027Z</time></trkpt><trkpt lat="42.2718924" lon="13.7796152"><ele>340.75</ele><time>2026-05-03T09:35:08.027Z</time></trkpt><trkpt lat="42.2718421" lon="13.7797496"><ele>340.0</ele><time>2026-05-03T09:35:09.027Z</time></trkpt><trkpt lat="42.2717749" lon="13.7798874"><ele>340.0</ele><time>2026-05-03T09:35:10.028Z</time></trkpt><trkpt lat="42.271681" lon="13.7800341"><ele>340.0</ele><time>2026-05-03T09:35:11.027Z</time></trkpt><trkpt lat="42.2715891" lon="13.7801755"><ele>340.0</ele><time>2026-05-03T09:35:12.027Z</time></trkpt><trkpt lat="42.2715039" lon="13.7802953"><ele>340.0</ele><time>2026-05-03T09:35:13.027Z</time></trkpt><trkpt lat="42.2714235" lon="13.7804167"><ele>340.2</ele><time>2026-05-03T09:35:14.028Z</time></trkpt><trkpt lat="42.2713489" lon="13.780522"><ele>340.4</ele><time>2026-05-03T09:35:15.027Z</time></trkpt><trkpt lat="42.2712839" lon="13.780627"><ele>340.6</ele><time>2026-05-03T09:35:16.027Z</time></trkpt><trkpt lat="42.2712194" lon="13.7807262"><ele>340.8</ele><time>2026-05-03T09:35:17.027Z</time></trkpt><trkpt lat="42.2711667" lon="13.7808067"><ele>341.0</ele><time>2026-05-03T09:35:18.027Z</time></trkpt><trkpt lat="42.2710958" lon="13.7809092"><ele>341.0</ele><time>2026-05-03T09:35:20.027Z</time></trkpt><trkpt lat="42.2710458" lon="13.7809767"><ele>341.0</ele><time>2026-05-03T09:35:22.027Z</time></trkpt><trkpt lat="42.2709823" lon="13.7810705"><ele>341.0</ele><time>2026-05-03T09:35:26.027Z</time></trkpt><trkpt lat="42.2708866" lon="13.7811721"><ele>341.0</ele><time>2026-05-03T09:35:28.027Z</time></trkpt><trkpt lat="42.270825" lon="13.7812518"><ele>341.0</ele><time>2026-05-03T09:35:29.027Z</time></trkpt><trkpt lat="42.270765" lon="13.7813258"><ele>340.0</ele><time>2026-05-03T09:35:30.027Z</time></trkpt><trkpt lat="42.2707039" lon="13.7813764"><ele>339.0</ele><time>2026-05-03T09:35:31.027Z</time></trkpt><trkpt lat="42.2706117" lon="13.7814296"><ele>338.0</ele><time>2026-05-03T09:35:32.027Z</time></trkpt><trkpt lat="42.2705107" lon="13.7814939"><ele>337.0</ele><time>2026-05-03T09:35:33.027Z</time></trkpt><trkpt lat="42.2703866" lon="13.7815655"><ele>336.0</ele><time>2026-05-03T09:35:34.027Z</time></trkpt><trkpt lat="42.2702633" lon="13.7816633"><ele>336.0</ele><time>2026-05-03T09:35:35.027Z</time></trkpt><trkpt lat="42.2701577" lon="13.7817468"><ele>336.0</ele><time>2026-05-03T09:35:36.028Z</time></trkpt><trkpt lat="42.2700754" lon="13.7818014"><ele>336.0</ele><time>2026-05-03T09:35:37.027Z</time></trkpt><trkpt lat="42.2700193" lon="13.7818412"><ele>336.0</ele><time>2026-05-03T09:35:38.027Z</time></trkpt><trkpt lat="42.2699451" lon="13.7819165"><ele>336.0</ele><time>2026-05-03T09:35:40.027Z</time></trkpt><trkpt lat="42.2698719" lon="13.7820173"><ele>335.57142857142856</ele><time>2026-05-03T09:35:42.027Z</time></trkpt><trkpt lat="42.2698158" lon="13.78206"><ele>335.1428571428571</ele><time>2026-05-03T09:35:43.027Z</time></trkpt><trkpt lat="42.2697493" lon="13.7820977"><ele>334.7142857142857</ele><time>2026-05-03T09:35:44.028Z</time></trkpt><trkpt lat="42.2696833" lon="13.782134"><ele>334.2857142857143</ele><time>2026-05-03T09:35:45.027Z</time></trkpt><trkpt lat="42.2696286" lon="13.78218"><ele>333.85714285714283</ele><time>2026-05-03T09:35:46.027Z</time></trkpt><trkpt lat="42.2695662" lon="13.7822608"><ele>333.42857142857144</ele><time>2026-05-03T09:35:48.027Z</time></trkpt><trkpt lat="42.2695193" lon="13.7823318"><ele>333.0</ele><time>2026-05-03T09:35:50.027Z</time></trkpt><trkpt lat="42.2694891" lon="13.7824138"><ele>334.0</ele><time>2026-05-03T09:35:52.027Z</time></trkpt><trkpt lat="42.2694674" lon="13.7824965"><ele>335.0</ele><time>2026-05-03T09:35:54.027Z</time></trkpt><trkpt lat="42.2694314" lon="13.7826061"><ele>336.0</ele><time>2026-05-03T09:35:56.027Z</time></trkpt><trkpt lat="42.2693872" lon="13.7827368"><ele>337.0</ele><time>2026-05-03T09:35:58.027Z</time></trkpt><trkpt lat="42.2693736" lon="13.7828311"><ele>338.0</ele><time>2026-05-03T09:35:59.027Z</time></trkpt><trkpt lat="42.2693571" lon="13.7829414"><ele>339.0</ele><time>2026-05-03T09:36:00.027Z</time></trkpt><trkpt lat="42.2693566" lon="13.7830525"><ele>339.0</ele><time>2026-05-03T09:36:01.027Z</time></trkpt><trkpt lat="42.2693262" lon="13.7831522"><ele>339.0</ele><time>2026-05-03T09:36:02.027Z</time></trkpt><trkpt lat="42.2692933" lon="13.7832715"><ele>339.0</ele><time>2026-05-03T09:36:03.027Z</time></trkpt><trkpt lat="42.2692658" lon="13.7833781"><ele>339.0</ele><time>2026-05-03T09:36:04.027Z</time></trkpt><trkpt lat="42.2692449" lon="13.7834645"><ele>339.0</ele><time>2026-05-03T09:36:05.027Z</time></trkpt><trkpt lat="42.2692194" lon="13.7835478"><ele>339.0</ele><time>2026-05-03T09:36:06.027Z</time></trkpt><trkpt lat="42.269151" lon="13.7836849"><ele>339.2</ele><time>2026-05-03T09:36:08.027Z</time></trkpt><trkpt lat="42.2691081" lon="13.7837556"><ele>339.4</ele><time>2026-05-03T09:36:09.027Z</time></trkpt><trkpt lat="42.269058" lon="13.783835"><ele>339.6</ele><time>2026-05-03T09:36:10.027Z</time></trkpt><trkpt lat="42.2689987" lon="13.7839325"><ele>339.8</ele><time>2026-05-03T09:36:11.027Z</time></trkpt><trkpt lat="42.2689401" lon="13.7840421"><ele>340.0</ele><time>2026-05-03T09:36:12.027Z</time></trkpt><trkpt lat="42.2688754" lon="13.7841644"><ele>340.75</ele><time>2026-05-03T09:36:13.027Z</time></trkpt><trkpt lat="42.2688089" lon="13.7842923"><ele>341.5</ele><time>2026-05-03T09:36:14.027Z</time></trkpt><trkpt lat="42.2687392" lon="13.7844193"><ele>342.25</ele><time>2026-05-03T09:36:15.027Z</time></trkpt><trkpt lat="42.2686611" lon="13.7845519"><ele>343.0</ele><time>2026-05-03T09:36:16.027Z</time></trkpt><trkpt lat="42.2685651" lon="13.7846822"><ele>343.0</ele><time>2026-05-03T09:36:17.027Z</time></trkpt><trkpt lat="42.2684585" lon="13.7848156"><ele>343.0</ele><time>2026-05-03T09:36:18.027Z</time></trkpt><trkpt lat="42.2683356" lon="13.7849458"><ele>343.0</ele><time>2026-05-03T09:36:19.027Z</time></trkpt><trkpt lat="42.2682006" lon="13.7850762"><ele>344.3333333333333</ele><time>2026-05-03T09:36:20.027Z</time></trkpt><trkpt lat="42.2680559" lon="13.7852056"><ele>345.6666666666667</ele><time>2026-05-03T09:36:21.027Z</time></trkpt><trkpt lat="42.2679037" lon="13.7853298"><ele>347.0</ele><time>2026-05-03T09:36:22.027Z</time></trkpt><trkpt lat="42.2677647" lon="13.7854494"><ele>347.0</ele><time>2026-05-03T09:36:23.027Z</time></trkpt><trkpt lat="42.2676352" lon="13.7855751"><ele>347.0</ele><time>2026-05-03T09:36:24.027Z</time></trkpt><trkpt lat="42.2675153" lon="13.7857012"><ele>347.0</ele><time>2026-05-03T09:36:25.027Z</time></trkpt><trkpt lat="42.2674094" lon="13.7858146"><ele>347.0</ele><time>2026-05-03T09:36:26.027Z</time></trkpt><trkpt lat="42.267311" lon="13.7859211"><ele>347.25</ele><time>2026-05-03T09:36:27.027Z</time></trkpt><trkpt lat="42.2672155" lon="13.7860234"><ele>347.5</ele><time>2026-05-03T09:36:28.027Z</time></trkpt><trkpt lat="42.2671291" lon="13.7861271"><ele>347.75</ele><time>2026-05-03T09:36:29.027Z</time></trkpt><trkpt lat="42.2670351" lon="13.7862449"><ele>348.0</ele><time>2026-05-03T09:36:30.027Z</time></trkpt><trkpt lat="42.2669346" lon="13.7863791"><ele>348.0</ele><time>2026-05-03T09:36:31.027Z</time></trkpt><trkpt lat="42.2668278" lon="13.7865224"><ele>348.0</ele><time>2026-05-03T09:36:32.027Z</time></trkpt><trkpt lat="42.2667241" lon="13.7866921"><ele>348.0</ele><time>2026-05-03T09:36:33.027Z</time></trkpt><trkpt lat="42.2666226" lon="13.7868609"><ele>347.5</ele><time>2026-05-03T09:36:34.027Z</time></trkpt><trkpt lat="42.2665248" lon="13.7870174"><ele>347.0</ele><time>2026-05-03T09:36:35.027Z</time></trkpt><trkpt lat="42.2664335" lon="13.7871655"><ele>346.5</ele><time>2026-05-03T09:36:36.027Z</time></trkpt><trkpt lat="42.266345" lon="13.7873135"><ele>346.0</ele><time>2026-05-03T09:36:37.027Z</time></trkpt><trkpt lat="42.2662572" lon="13.7874766"><ele>346.25</ele><time>2026-05-03T09:36:38.027Z</time></trkpt><trkpt lat="42.2661721" lon="13.7876336"><ele>346.5</ele><time>2026-05-03T09:36:39.027Z</time></trkpt><trkpt lat="42.2660821" lon="13.787793"><ele>346.75</ele><time>2026-05-03T09:36:40.027Z</time></trkpt><trkpt lat="42.2659898" lon="13.7879438"><ele>347.0</ele><time>2026-05-03T09:36:41.027Z</time></trkpt><trkpt lat="42.2659099" lon="13.788093"><ele>347.0</ele><time>2026-05-03T09:36:42.027Z</time></trkpt><trkpt lat="42.2658287" lon="13.7882365"><ele>347.0</ele><time>2026-05-03T09:36:43.027Z</time></trkpt><trkpt lat="42.2657403" lon="13.7883696"><ele>347.0</ele><time>2026-05-03T09:36:44.028Z</time></trkpt><trkpt lat="42.2656588" lon="13.7884977"><ele>347.0</ele><time>2026-05-03T09:36:45.027Z</time></trkpt><trkpt lat="42.2655836" lon="13.7886315"><ele>347.6</ele><time>2026-05-03T09:36:46.027Z</time></trkpt><trkpt lat="42.2655157" lon="13.788759"><ele>348.20000000000005</ele><time>2026-05-03T09:36:47.027Z</time></trkpt><trkpt lat="42.265456" lon="13.7888827"><ele>348.8</ele><time>2026-05-03T09:36:48.027Z</time></trkpt><trkpt lat="42.2654036" lon="13.789003"><ele>349.4</ele><time>2026-05-03T09:36:49.027Z</time></trkpt><trkpt lat="42.2653483" lon="13.7891333"><ele>350.0</ele><time>2026-05-03T09:36:50.027Z</time></trkpt><trkpt lat="42.2652969" lon="13.7892606"><ele>349.25</ele><time>2026-05-03T09:36:51.027Z</time></trkpt><trkpt lat="42.2652419" lon="13.7893951"><ele>348.5</ele><time>2026-05-03T09:36:52.027Z</time></trkpt><trkpt lat="42.2651955" lon="13.7895557"><ele>347.75</ele><time>2026-05-03T09:36:53.027Z</time></trkpt><trkpt lat="42.2651406" lon="13.7897247"><ele>347.0</ele><time>2026-05-03T09:36:54.027Z</time></trkpt><trkpt lat="42.2650757" lon="13.789894"><ele>347.0</ele><time>2026-05-03T09:36:55.027Z</time></trkpt><trkpt lat="42.2650073" lon="13.7900646"><ele>347.0</ele><time>2026-05-03T09:36:56.027Z</time></trkpt><trkpt lat="42.2649431" lon="13.7902657"><ele>347.0</ele><time>2026-05-03T09:36:57.027Z</time></trkpt><trkpt lat="42.2648751" lon="13.790483"><ele>346.33333333333337</ele><time>2026-05-03T09:36:58.027Z</time></trkpt><trkpt lat="42.2647983" lon="13.7907062"><ele>345.6666666666667</ele><time>2026-05-03T09:36:59.027Z</time></trkpt><trkpt lat="42.2647278" lon="13.790939"><ele>345.0</ele><time>2026-05-03T09:37:00.027Z</time></trkpt><trkpt lat="42.2646595" lon="13.7911568"><ele>346.3333333333333</ele><time>2026-05-03T09:37:01.027Z</time></trkpt><trkpt lat="42.2645827" lon="13.7913655"><ele>347.66666666666663</ele><time>2026-05-03T09:37:02.027Z</time></trkpt><trkpt lat="42.2645178" lon="13.7915757"><ele>349.0</ele><time>2026-05-03T09:37:03.027Z</time></trkpt><trkpt lat="42.2644501" lon="13.7917882"><ele>348.0</ele><time>2026-05-03T09:37:04.027Z</time></trkpt><trkpt lat="42.2643886" lon="13.7920013"><ele>347.0</ele><time>2026-05-03T09:37:05.027Z</time></trkpt><trkpt lat="42.264337" lon="13.7922241"><ele>346.0</ele><time>2026-05-03T09:37:06.028Z</time></trkpt><trkpt lat="42.2642907" lon="13.792445"><ele>346.0</ele><time>2026-05-03T09:37:07.027Z</time></trkpt><trkpt lat="42.2642336" lon="13.7926589"><ele>346.0</ele><time>2026-05-03T09:37:08.028Z</time></trkpt><trkpt lat="42.2641718" lon="13.792876"><ele>346.0</ele><time>2026-05-03T09:37:09.028Z</time></trkpt><trkpt lat="42.2641051" lon="13.7930856"><ele>346.0</ele><time>2026-05-03T09:37:10.027Z</time></trkpt><trkpt lat="42.2640348" lon="13.7933023"><ele>346.0</ele><time>2026-05-03T09:37:11.027Z</time></trkpt><trkpt lat="42.2639679" lon="13.7934982"><ele>346.0</ele><time>2026-05-03T09:37:12.027Z</time></trkpt><trkpt lat="42.2638994" lon="13.7936898"><ele>346.0</ele><time>2026-05-03T09:37:13.027Z</time></trkpt><trkpt lat="42.2638377" lon="13.7938796"><ele>346.0</ele><time>2026-05-03T09:37:14.027Z</time></trkpt><trkpt lat="42.2637782" lon="13.7940555"><ele>346.0</ele><time>2026-05-03T09:37:15.027Z</time></trkpt><trkpt lat="42.2637205" lon="13.7942119"><ele>346.0</ele><time>2026-05-03T09:37:16.027Z</time></trkpt><trkpt lat="42.2636531" lon="13.7943697"><ele>345.0</ele><time>2026-05-03T09:37:17.027Z</time></trkpt><trkpt lat="42.2635758" lon="13.7945199"><ele>344.0</ele><time>2026-05-03T09:37:18.027Z</time></trkpt><trkpt lat="42.263493" lon="13.7946674"><ele>343.0</ele><time>2026-05-03T09:37:19.027Z</time></trkpt><trkpt lat="42.2634012" lon="13.7948223"><ele>342.0</ele><time>2026-05-03T09:37:20.027Z</time></trkpt><trkpt lat="42.2633022" lon="13.7949724"><ele>342.0</ele><time>2026-05-03T09:37:21.027Z</time></trkpt><trkpt lat="42.2632121" lon="13.7951135"><ele>342.0</ele><time>2026-05-03T09:37:22.027Z</time></trkpt><trkpt lat="42.2631313" lon="13.7952426"><ele>342.0</ele><time>2026-05-03T09:37:23.027Z</time></trkpt><trkpt lat="42.2630596" lon="13.7953736"><ele>342.0</ele><time>2026-05-03T09:37:24.027Z</time></trkpt><trkpt lat="42.2629913" lon="13.7954969"><ele>342.40000000000003</ele><time>2026-05-03T09:37:25.027Z</time></trkpt><trkpt lat="42.2629236" lon="13.7956196"><ele>342.8</ele><time>2026-05-03T09:37:26.027Z</time></trkpt><trkpt lat="42.2628546" lon="13.7957314"><ele>343.2</ele><time>2026-05-03T09:37:27.027Z</time></trkpt><trkpt lat="42.2627924" lon="13.7958353"><ele>343.6</ele><time>2026-05-03T09:37:28.027Z</time></trkpt><trkpt lat="42.2627381" lon="13.7959308"><ele>344.0</ele><time>2026-05-03T09:37:29.027Z</time></trkpt><trkpt lat="42.2626947" lon="13.7960185"><ele>344.0</ele><time>2026-05-03T09:37:30.027Z</time></trkpt><trkpt lat="42.2626294" lon="13.7961284"><ele>344.0</ele><time>2026-05-03T09:37:32.027Z</time></trkpt><trkpt lat="42.2625886" lon="13.7962027"><ele>344.0</ele><time>2026-05-03T09:37:35.027Z</time></trkpt><trkpt lat="42.2627033" lon="13.7963216"><ele>344.0</ele><time>2026-05-03T09:37:51.027Z</time></trkpt><trkpt lat="42.2628348" lon="13.7963331"><ele>344.0</ele><time>2026-05-03T09:37:53.027Z</time></trkpt><trkpt lat="42.2629197" lon="13.7963418"><ele>344.0</ele><time>2026-05-03T09:37:54.027Z</time></trkpt><trkpt lat="42.2630054" lon="13.796363"><ele>344.0</ele><time>2026-05-03T09:37:55.027Z</time></trkpt><trkpt lat="42.2631043" lon="13.7963873"><ele>344.0</ele><time>2026-05-03T09:37:56.027Z</time></trkpt><trkpt lat="42.2632273" lon="13.7964096"><ele>344.0</ele><time>2026-05-03T09:37:57.027Z</time></trkpt><trkpt lat="42.2633676" lon="13.7964268"><ele>342.75</ele><time>2026-05-03T09:37:58.027Z</time></trkpt><trkpt lat="42.2635103" lon="13.7964529"><ele>341.5</ele><time>2026-05-03T09:37:59.027Z</time></trkpt><trkpt lat="42.263662" lon="13.7964938"><ele>340.25</ele><time>2026-05-03T09:38:00.028Z</time></trkpt><trkpt lat="42.2638036" lon="13.7965422"><ele>339.0</ele><time>2026-05-03T09:38:01.027Z</time></trkpt><trkpt lat="42.2639543" lon="13.796579"><ele>338.0</ele><time>2026-05-03T09:38:02.027Z</time></trkpt><trkpt lat="42.2640947" lon="13.796614"><ele>337.0</ele><time>2026-05-03T09:38:03.027Z</time></trkpt><trkpt lat="42.2642219" lon="13.7966496"><ele>336.0</ele><time>2026-05-03T09:38:04.027Z</time></trkpt><trkpt lat="42.2643367" lon="13.7967055"><ele>335.0</ele><time>2026-05-03T09:38:05.027Z</time></trkpt><trkpt lat="42.2644421" lon="13.7967849"><ele>333.25</ele><time>2026-05-03T09:38:06.027Z</time></trkpt><trkpt lat="42.2645385" lon="13.7968948"><ele>331.5</ele><time>2026-05-03T09:38:07.027Z</time></trkpt><trkpt lat="42.2646233" lon="13.7970254"><ele>329.75</ele><time>2026-05-03T09:38:08.027Z</time></trkpt><trkpt lat="42.2647019" lon="13.7971638"><ele>328.0</ele><time>2026-05-03T09:38:09.027Z</time></trkpt><trkpt lat="42.2647596" lon="13.7973144"><ele>328.0</ele><time>2026-05-03T09:38:10.027Z</time></trkpt><trkpt lat="42.2648078" lon="13.7974925"><ele>328.0</ele><time>2026-05-03T09:38:11.027Z</time></trkpt><trkpt lat="42.2648361" lon="13.7976812"><ele>328.0</ele><time>2026-05-03T09:38:12.027Z</time></trkpt><trkpt lat="42.2648518" lon="13.7978677"><ele>328.0</ele><time>2026-05-03T09:38:13.027Z</time></trkpt><trkpt lat="42.2648686" lon="13.7980408"><ele>328.2</ele><time>2026-05-03T09:38:14.027Z</time></trkpt><trkpt lat="42.2648883" lon="13.7981949"><ele>328.4</ele><time>2026-05-03T09:38:15.027Z</time></trkpt><trkpt lat="42.2649118" lon="13.7983148"><ele>328.59999999999997</ele><time>2026-05-03T09:38:16.027Z</time></trkpt><trkpt lat="42.2649476" lon="13.7984513"><ele>328.79999999999995</ele><time>2026-05-03T09:38:17.027Z</time></trkpt><trkpt lat="42.2649902" lon="13.798595"><ele>329.0</ele><time>2026-05-03T09:38:18.027Z</time></trkpt><trkpt lat="42.2650405" lon="13.7987459"><ele>329.0</ele><time>2026-05-03T09:38:19.027Z</time></trkpt><trkpt lat="42.2650911" lon="13.7988596"><ele>329.0</ele><time>2026-05-03T09:38:20.027Z</time></trkpt><trkpt lat="42.2651235" lon="13.7989388"><ele>329.0</ele><time>2026-05-03T09:38:21.027Z</time></trkpt><trkpt lat="42.265158" lon="13.7990632"><ele>329.0</ele><time>2026-05-03T09:38:23.027Z</time></trkpt><trkpt lat="42.2651382" lon="13.7991782"><ele>329.0</ele><time>2026-05-03T09:38:25.027Z</time></trkpt><trkpt lat="42.2650754" lon="13.799256"><ele>329.0</ele><time>2026-05-03T09:38:27.027Z</time></trkpt><trkpt lat="42.2649516" lon="13.7993109"><ele>329.0</ele><time>2026-05-03T09:38:29.028Z</time></trkpt><trkpt lat="42.2648746" lon="13.7993298"><ele>329.0</ele><time>2026-05-03T09:38:30.028Z</time></trkpt><trkpt lat="42.2647994" lon="13.7993194"><ele>329.0</ele><time>2026-05-03T09:38:31.027Z</time></trkpt><trkpt lat="42.2647316" lon="13.799305"><ele>329.0</ele><time>2026-05-03T09:38:32.027Z</time></trkpt><trkpt lat="42.2646581" lon="13.7993026"><ele>329.0</ele><time>2026-05-03T09:38:33.028Z</time></trkpt><trkpt lat="42.2645875" lon="13.7993223"><ele>329.0</ele><time>2026-05-03T09:38:34.027Z</time></trkpt><trkpt lat="42.2645104" lon="13.7993581"><ele>330.33333333333337</ele><time>2026-05-03T09:38:35.027Z</time></trkpt><trkpt lat="42.2644386" lon="13.799405"><ele>331.6666666666667</ele><time>2026-05-03T09:38:36.027Z</time></trkpt><trkpt lat="42.2643633" lon="13.7994686"><ele>333.0</ele><time>2026-05-03T09:38:37.027Z</time></trkpt><trkpt lat="42.2642994" lon="13.7995505"><ele>334.3333333333333</ele><time>2026-05-03T09:38:38.027Z</time></trkpt><trkpt lat="42.2642454" lon="13.7996246"><ele>335.66666666666663</ele><time>2026-05-03T09:38:39.027Z</time></trkpt><trkpt lat="42.2641801" lon="13.7996974"><ele>337.0</ele><time>2026-05-03T09:38:40.027Z</time></trkpt><trkpt lat="42.2641144" lon="13.7997448"><ele>337.0</ele><time>2026-05-03T09:38:41.027Z</time></trkpt><trkpt lat="42.2640436" lon="13.7997825"><ele>337.0</ele><time>2026-05-03T09:38:42.027Z</time></trkpt><trkpt lat="42.263974" lon="13.7998348"><ele>337.0</ele><time>2026-05-03T09:38:43.027Z</time></trkpt><trkpt lat="42.2638881" lon="13.7998903"><ele>337.0</ele><time>2026-05-03T09:38:44.027Z</time></trkpt><trkpt lat="42.2638074" lon="13.7999417"><ele>337.0</ele><time>2026-05-03T09:38:45.027Z</time></trkpt><trkpt lat="42.2637189" lon="13.7999922"><ele>337.0</ele><time>2026-05-03T09:38:46.027Z</time></trkpt><trkpt lat="42.2636192" lon="13.8000346"><ele>336.5</ele><time>2026-05-03T09:38:47.027Z</time></trkpt><trkpt lat="42.263515" lon="13.8000637"><ele>336.0</ele><time>2026-05-03T09:38:48.027Z</time></trkpt><trkpt lat="42.2634308" lon="13.8000764"><ele>335.5</ele><time>2026-05-03T09:38:49.027Z</time></trkpt><trkpt lat="42.2633318" lon="13.8000952"><ele>335.0</ele><time>2026-05-03T09:38:50.027Z</time></trkpt><trkpt lat="42.2632569" lon="13.8001044"><ele>334.5</ele><time>2026-05-03T09:38:51.027Z</time></trkpt><trkpt lat="42.2631855" lon="13.8000989"><ele>334.0</ele><time>2026-05-03T09:38:52.027Z</time></trkpt><trkpt lat="42.263113" lon="13.8000893"><ele>333.8333333333333</ele><time>2026-05-03T09:38:53.028Z</time></trkpt><trkpt lat="42.2630364" lon="13.8000656"><ele>333.66666666666663</ele><time>2026-05-03T09:38:54.027Z</time></trkpt><trkpt lat="42.2629645" lon="13.8000358"><ele>333.5</ele><time>2026-05-03T09:38:55.027Z</time></trkpt><trkpt lat="42.2628794" lon="13.799994"><ele>333.3333333333333</ele><time>2026-05-03T09:38:56.027Z</time></trkpt><trkpt lat="42.262793" lon="13.7999512"><ele>333.1666666666667</ele><time>2026-05-03T09:38:57.027Z</time></trkpt><trkpt lat="42.2627063" lon="13.7999091"><ele>333.0</ele><time>2026-05-03T09:38:58.027Z</time></trkpt><trkpt lat="42.262625" lon="13.7998693"><ele>333.0</ele><time>2026-05-03T09:38:59.027Z</time></trkpt><trkpt lat="42.2625238" lon="13.799867"><ele>333.0</ele><time>2026-05-03T09:39:00.027Z</time></trkpt><trkpt lat="42.2624156" lon="13.7998611"><ele>333.0</ele><time>2026-05-03T09:39:01.027Z</time></trkpt><trkpt lat="42.2623073" lon="13.7998438"><ele>333.0</ele><time>2026-05-03T09:39:02.027Z</time></trkpt><trkpt lat="42.2622015" lon="13.7998237"><ele>333.0</ele><time>2026-05-03T09:39:03.027Z</time></trkpt><trkpt lat="42.2620952" lon="13.7998128"><ele>332.8333333333333</ele><time>2026-05-03T09:39:04.027Z</time></trkpt><trkpt lat="42.2620075" lon="13.7998204"><ele>332.6666666666667</ele><time>2026-05-03T09:39:05.027Z</time></trkpt><trkpt lat="42.2619214" lon="13.7998303"><ele>332.5</ele><time>2026-05-03T09:39:06.027Z</time></trkpt><trkpt lat="42.261833" lon="13.7998499"><ele>332.33333333333337</ele><time>2026-05-03T09:39:07.027Z</time></trkpt><trkpt lat="42.261758" lon="13.7999043"><ele>332.1666666666667</ele><time>2026-05-03T09:39:08.027Z</time></trkpt><trkpt lat="42.2616812" lon="13.7999508"><ele>332.0</ele><time>2026-05-03T09:39:09.027Z</time></trkpt><trkpt lat="42.2616055" lon="13.8000061"><ele>332.0</ele><time>2026-05-03T09:39:10.027Z</time></trkpt><trkpt lat="42.2615263" lon="13.8000699"><ele>332.0</ele><time>2026-05-03T09:39:11.027Z</time></trkpt><trkpt lat="42.2614407" lon="13.8001305"><ele>332.0</ele><time>2026-05-03T09:39:12.027Z</time></trkpt><trkpt lat="42.2613622" lon="13.8001842"><ele>332.0</ele><time>2026-05-03T09:39:13.027Z</time></trkpt><trkpt lat="42.2613076" lon="13.8002369"><ele>332.0</ele><time>2026-05-03T09:39:14.027Z</time></trkpt><trkpt lat="42.2612461" lon="13.8003021"><ele>332.0</ele><time>2026-05-03T09:39:15.027Z</time></trkpt><trkpt lat="42.2611804" lon="13.8003621"><ele>332.0</ele><time>2026-05-03T09:39:16.027Z</time></trkpt><trkpt lat="42.2611265" lon="13.8004313"><ele>332.0</ele><time>2026-05-03T09:39:17.028Z</time></trkpt><trkpt lat="42.2610794" lon="13.8005147"><ele>332.0</ele><time>2026-05-03T09:39:18.027Z</time></trkpt><trkpt lat="42.2610113" lon="13.8005875"><ele>332.0</ele><time>2026-05-03T09:39:19.027Z</time></trkpt><trkpt lat="42.260963" lon="13.80065"><ele>332.0</ele><time>2026-05-03T09:39:20.027Z</time></trkpt><trkpt lat="42.2609011" lon="13.8007177"><ele>332.0</ele><time>2026-05-03T09:39:21.027Z</time></trkpt><trkpt lat="42.2608515" lon="13.8007886"><ele>332.0</ele><time>2026-05-03T09:39:22.027Z</time></trkpt><trkpt lat="42.260796" lon="13.8008397"><ele>332.0</ele><time>2026-05-03T09:39:23.027Z</time></trkpt><trkpt lat="42.2607082" lon="13.8009268"><ele>332.0</ele><time>2026-05-03T09:39:25.027Z</time></trkpt><trkpt lat="42.2606239" lon="13.8010065"><ele>332.0</ele><time>2026-05-03T09:39:27.027Z</time></trkpt><trkpt lat="42.2605473" lon="13.8010869"><ele>332.0</ele><time>2026-05-03T09:39:29.027Z</time></trkpt><trkpt lat="42.2604497" lon="13.8011718"><ele>331.8</ele><time>2026-05-03T09:39:31.027Z</time></trkpt><trkpt lat="42.2603595" lon="13.8012328"><ele>331.6</ele><time>2026-05-03T09:39:33.027Z</time></trkpt><trkpt lat="42.260288" lon="13.801299"><ele>331.40000000000003</ele><time>2026-05-03T09:39:35.027Z</time></trkpt><trkpt lat="42.2602359" lon="13.8013729"><ele>331.20000000000005</ele><time>2026-05-03T09:39:37.027Z</time></trkpt><trkpt lat="42.2601629" lon="13.8014565"><ele>331.0</ele><time>2026-05-03T09:39:39.027Z</time></trkpt><trkpt lat="42.2600791" lon="13.8015614"><ele>331.0</ele><time>2026-05-03T09:39:41.027Z</time></trkpt><trkpt lat="42.2599833" lon="13.801674"><ele>331.0</ele><time>2026-05-03T09:39:43.027Z</time></trkpt><trkpt lat="42.2599356" lon="13.8017459"><ele>331.0</ele><time>2026-05-03T09:39:44.027Z</time></trkpt><trkpt lat="42.2598878" lon="13.8018269"><ele>331.0</ele><time>2026-05-03T09:39:45.027Z</time></trkpt><trkpt lat="42.2598334" lon="13.8019114"><ele>331.0</ele><time>2026-05-03T09:39:46.027Z</time></trkpt><trkpt lat="42.2597709" lon="13.8019989"><ele>331.0</ele><time>2026-05-03T09:39:47.027Z</time></trkpt><trkpt lat="42.2597016" lon="13.802086"><ele>331.8</ele><time>2026-05-03T09:39:48.027Z</time></trkpt><trkpt lat="42.2596199" lon="13.8021572"><ele>332.6</ele><time>2026-05-03T09:39:49.027Z</time></trkpt><trkpt lat="42.2595388" lon="13.8022322"><ele>333.4</ele><time>2026-05-03T09:39:50.027Z</time></trkpt><trkpt lat="42.2594574" lon="13.8022928"><ele>334.2</ele><time>2026-05-03T09:39:51.027Z</time></trkpt><trkpt lat="42.2593685" lon="13.8023348"><ele>335.0</ele><time>2026-05-03T09:39:52.027Z</time></trkpt><trkpt lat="42.2592814" lon="13.8023689"><ele>335.0</ele><time>2026-05-03T09:39:53.027Z</time></trkpt><trkpt lat="42.2591956" lon="13.802394"><ele>335.0</ele><time>2026-05-03T09:39:54.027Z</time></trkpt><trkpt lat="42.2591123" lon="13.80241"><ele>335.0</ele><time>2026-05-03T09:39:55.027Z</time></trkpt><trkpt lat="42.2590251" lon="13.8023999"><ele>335.0</ele><time>2026-05-03T09:39:56.027Z</time></trkpt><trkpt lat="42.2589343" lon="13.8023731"><ele>335.0</ele><time>2026-05-03T09:39:57.027Z</time></trkpt><trkpt lat="42.258835" lon="13.8023423"><ele>335.75</ele><time>2026-05-03T09:39:58.027Z</time></trkpt><trkpt lat="42.2587272" lon="13.8023036"><ele>336.5</ele><time>2026-05-03T09:39:59.027Z</time></trkpt><trkpt lat="42.2586099" lon="13.8022532"><ele>337.25</ele><time>2026-05-03T09:40:00.027Z</time></trkpt><trkpt lat="42.2584987" lon="13.8022023"><ele>338.0</ele><time>2026-05-03T09:40:01.027Z</time></trkpt><trkpt lat="42.2583997" lon="13.8021708"><ele>338.0</ele><time>2026-05-03T09:40:02.027Z</time></trkpt><trkpt lat="42.258309" lon="13.8021199"><ele>338.0</ele><time>2026-05-03T09:40:03.027Z</time></trkpt><trkpt lat="42.2581904" lon="13.8020368"><ele>338.0</ele><time>2026-05-03T09:40:05.027Z</time></trkpt><trkpt lat="42.2581009" lon="13.801914"><ele>338.0</ele><time>2026-05-03T09:40:07.027Z</time></trkpt><trkpt lat="42.2580589" lon="13.8018208"><ele>338.0</ele><time>2026-05-03T09:40:08.027Z</time></trkpt><trkpt lat="42.2580143" lon="13.8017199"><ele>337.33333333333337</ele><time>2026-05-03T09:40:09.027Z</time></trkpt><trkpt lat="42.2579628" lon="13.8016157"><ele>336.6666666666667</ele><time>2026-05-03T09:40:10.028Z</time></trkpt><trkpt lat="42.2579064" lon="13.8015118"><ele>336.0</ele><time>2026-05-03T09:40:11.027Z</time></trkpt><trkpt lat="42.2578513" lon="13.8014176"><ele>335.3333333333333</ele><time>2026-05-03T09:40:12.027Z</time></trkpt><trkpt lat="42.2577834" lon="13.8013386"><ele>334.66666666666663</ele><time>2026-05-03T09:40:13.027Z</time></trkpt><trkpt lat="42.2577198" lon="13.8012755"><ele>334.0</ele><time>2026-05-03T09:40:14.027Z</time></trkpt><trkpt lat="42.257654" lon="13.8012372"><ele>334.0</ele><time>2026-05-03T09:40:15.027Z</time></trkpt><trkpt lat="42.257581" lon="13.8012207"><ele>334.0</ele><time>2026-05-03T09:40:16.027Z</time></trkpt><trkpt lat="42.2575065" lon="13.8012283"><ele>334.0</ele><time>2026-05-03T09:40:17.027Z</time></trkpt><trkpt lat="42.2574288" lon="13.8012523"><ele>334.0</ele><time>2026-05-03T09:40:18.027Z</time></trkpt><trkpt lat="42.2573434" lon="13.8013032"><ele>334.0</ele><time>2026-05-03T09:40:19.027Z</time></trkpt><trkpt lat="42.257249" lon="13.8013729"><ele>334.0</ele><time>2026-05-03T09:40:20.027Z</time></trkpt><trkpt lat="42.2571615" lon="13.8014475"><ele>334.16666666666663</ele><time>2026-05-03T09:40:21.027Z</time></trkpt><trkpt lat="42.2570942" lon="13.8015053"><ele>334.3333333333333</ele><time>2026-05-03T09:40:22.027Z</time></trkpt><trkpt lat="42.2569983" lon="13.8015963"><ele>334.5</ele><time>2026-05-03T09:40:24.027Z</time></trkpt><trkpt lat="42.2569468" lon="13.8016533"><ele>334.6666666666667</ele><time>2026-05-03T09:40:25.027Z</time></trkpt><trkpt lat="42.2568925" lon="13.8017274"><ele>334.83333333333337</ele><time>2026-05-03T09:40:26.027Z</time></trkpt><trkpt lat="42.2568317" lon="13.8018177"><ele>335.0</ele><time>2026-05-03T09:40:27.027Z</time></trkpt><trkpt lat="42.2567675" lon="13.8019229"><ele>335.0</ele><time>2026-05-03T09:40:28.027Z</time></trkpt><trkpt lat="42.2566959" lon="13.8020222"><ele>335.0</ele><time>2026-05-03T09:40:29.027Z</time></trkpt><trkpt lat="42.2566228" lon="13.802126"><ele>335.0</ele><time>2026-05-03T09:40:30.027Z</time></trkpt><trkpt lat="42.2565434" lon="13.802226"><ele>335.0</ele><time>2026-05-03T09:40:31.027Z</time></trkpt><trkpt lat="42.2564517" lon="13.8023039"><ele>335.0</ele><time>2026-05-03T09:40:32.028Z</time></trkpt><trkpt lat="42.256362" lon="13.8023642"><ele>334.0</ele><time>2026-05-03T09:40:33.027Z</time></trkpt><trkpt lat="42.2562647" lon="13.8024119"><ele>333.0</ele><time>2026-05-03T09:40:34.027Z</time></trkpt><trkpt lat="42.2561594" lon="13.802443"><ele>332.0</ele><time>2026-05-03T09:40:35.027Z</time></trkpt><trkpt lat="42.2560493" lon="13.8024728"><ele>331.0</ele><time>2026-05-03T09:40:36.027Z</time></trkpt><trkpt lat="42.2559325" lon="13.802511"><ele>330.0</ele><time>2026-05-03T09:40:37.027Z</time></trkpt><trkpt lat="42.2558138" lon="13.8025532"><ele>330.0</ele><time>2026-05-03T09:40:38.027Z</time></trkpt><trkpt lat="42.2556886" lon="13.802595"><ele>330.0</ele><time>2026-05-03T09:40:39.027Z</time></trkpt><trkpt lat="42.2555734" lon="13.802655"><ele>330.0</ele><time>2026-05-03T09:40:40.027Z</time></trkpt><trkpt lat="42.2554529" lon="13.8027242"><ele>330.0</ele><time>2026-05-03T09:40:41.027Z</time></trkpt><trkpt lat="42.2553358" lon="13.8027991"><ele>331.25</ele><time>2026-05-03T09:40:42.027Z</time></trkpt><trkpt lat="42.2552164" lon="13.8028699"><ele>332.5</ele><time>2026-05-03T09:40:43.027Z</time></trkpt><trkpt lat="42.2550924" lon="13.802926"><ele>333.75</ele><time>2026-05-03T09:40:44.027Z</time></trkpt><trkpt lat="42.2549773" lon="13.8029708"><ele>335.0</ele><time>2026-05-03T09:40:45.027Z</time></trkpt><trkpt lat="42.2548665" lon="13.8030049"><ele>334.0</ele><time>2026-05-03T09:40:46.028Z</time></trkpt><trkpt lat="42.2547512" lon="13.8030288"><ele>333.0</ele><time>2026-05-03T09:40:47.027Z</time></trkpt><trkpt lat="42.2546419" lon="13.80303"><ele>332.0</ele><time>2026-05-03T09:40:48.027Z</time></trkpt><trkpt lat="42.2545392" lon="13.8030371"><ele>331.0</ele><time>2026-05-03T09:40:49.027Z</time></trkpt><trkpt lat="42.2544324" lon="13.8030478"><ele>330.0</ele><time>2026-05-03T09:40:50.027Z</time></trkpt><trkpt lat="42.2543239" lon="13.8030923"><ele>330.0</ele><time>2026-05-03T09:40:51.027Z</time></trkpt><trkpt lat="42.2542004" lon="13.8031366"><ele>330.0</ele><time>2026-05-03T09:40:52.027Z</time></trkpt><trkpt lat="42.2540804" lon="13.8031861"><ele>330.0</ele><time>2026-05-03T09:40:53.027Z</time></trkpt><trkpt lat="42.2539525" lon="13.8032381"><ele>330.0</ele><time>2026-05-03T09:40:54.027Z</time></trkpt><trkpt lat="42.2538327" lon="13.803287"><ele>330.5</ele><time>2026-05-03T09:40:55.027Z</time></trkpt><trkpt lat="42.2537205" lon="13.8033336"><ele>331.0</ele><time>2026-05-03T09:40:56.027Z</time></trkpt><trkpt lat="42.2536124" lon="13.8033832"><ele>331.5</ele><time>2026-05-03T09:40:57.027Z</time></trkpt><trkpt lat="42.2535063" lon="13.8034676"><ele>332.0</ele><time>2026-05-03T09:40:58.027Z</time></trkpt><trkpt lat="42.2534041" lon="13.8035561"><ele>332.0</ele><time>2026-05-03T09:40:59.028Z</time></trkpt><trkpt lat="42.2532922" lon="13.8036499"><ele>332.0</ele><time>2026-05-03T09:41:00.027Z</time></trkpt><trkpt lat="42.2531824" lon="13.8037558"><ele>332.0</ele><time>2026-05-03T09:41:01.027Z</time></trkpt><trkpt lat="42.2530835" lon="13.8038348"><ele>332.0</ele><time>2026-05-03T09:41:02.027Z</time></trkpt><trkpt lat="42.2529781" lon="13.8039004"><ele>330.75</ele><time>2026-05-03T09:41:03.027Z</time></trkpt><trkpt lat="42.2528629" lon="13.8039537"><ele>329.5</ele><time>2026-05-03T09:41:04.027Z</time></trkpt><trkpt lat="42.2527531" lon="13.8040006"><ele>328.25</ele><time>2026-05-03T09:41:05.027Z</time></trkpt><trkpt lat="42.2526421" lon="13.8040309"><ele>327.0</ele><time>2026-05-03T09:41:06.028Z</time></trkpt><trkpt lat="42.2525348" lon="13.8040583"><ele>327.0</ele><time>2026-05-03T09:41:07.027Z</time></trkpt><trkpt lat="42.25245" lon="13.8040781"><ele>327.0</ele><time>2026-05-03T09:41:08.027Z</time></trkpt><trkpt lat="42.2523569" lon="13.8040845"><ele>327.0</ele><time>2026-05-03T09:41:09.027Z</time></trkpt><trkpt lat="42.2522552" lon="13.804085"><ele>327.0</ele><time>2026-05-03T09:41:10.027Z</time></trkpt><trkpt lat="42.2521599" lon="13.80406"><ele>327.0</ele><time>2026-05-03T09:41:11.027Z</time></trkpt><trkpt lat="42.2520734" lon="13.8040314"><ele>328.6666666666667</ele><time>2026-05-03T09:41:12.027Z</time></trkpt><trkpt lat="42.2519936" lon="13.8039878"><ele>330.3333333333333</ele><time>2026-05-03T09:41:13.027Z</time></trkpt><trkpt lat="42.2519125" lon="13.8039205"><ele>332.0</ele><time>2026-05-03T09:41:14.027Z</time></trkpt><trkpt lat="42.2518424" lon="13.8038514"><ele>333.66666666666663</ele><time>2026-05-03T09:41:15.027Z</time></trkpt><trkpt lat="42.2517683" lon="13.803773"><ele>335.3333333333333</ele><time>2026-05-03T09:41:16.027Z</time></trkpt><trkpt lat="42.2517018" lon="13.8036998"><ele>337.0</ele><time>2026-05-03T09:41:17.027Z</time></trkpt><trkpt lat="42.2516145" lon="13.8036196"><ele>337.0</ele><time>2026-05-03T09:41:20.027Z</time></trkpt><trkpt lat="42.2515298" lon="13.8035356"><ele>337.0</ele><time>2026-05-03T09:41:22.028Z</time></trkpt><trkpt lat="42.2513765" lon="13.8034803"><ele>337.0</ele><time>2026-05-03T09:41:24.028Z</time></trkpt><trkpt lat="42.2512893" lon="13.8034428"><ele>337.0</ele><time>2026-05-03T09:41:25.028Z</time></trkpt><trkpt lat="42.2512161" lon="13.8034093"><ele>337.0</ele><time>2026-05-03T09:41:26.027Z</time></trkpt><trkpt lat="42.2511352" lon="13.8033746"><ele>335.6</ele><time>2026-05-03T09:41:27.027Z</time></trkpt><trkpt lat="42.2510373" lon="13.8033575"><ele>334.20000000000005</ele><time>2026-05-03T09:41:28.027Z</time></trkpt><trkpt lat="42.2509549" lon="13.8033401"><ele>332.8</ele><time>2026-05-03T09:41:29.027Z</time></trkpt><trkpt lat="42.2508447" lon="13.8033357"><ele>331.4</ele><time>2026-05-03T09:41:30.027Z</time></trkpt><trkpt lat="42.2507418" lon="13.803343"><ele>330.0</ele><time>2026-05-03T09:41:31.027Z</time></trkpt><trkpt lat="42.2506383" lon="13.8033817"><ele>330.0</ele><time>2026-05-03T09:41:32.027Z</time></trkpt><trkpt lat="42.2505335" lon="13.803422"><ele>330.0</ele><time>2026-05-03T09:41:33.027Z</time></trkpt><trkpt lat="42.2504315" lon="13.8034753"><ele>330.0</ele><time>2026-05-03T09:41:34.027Z</time></trkpt><trkpt lat="42.2503331" lon="13.8035461"><ele>330.0</ele><time>2026-05-03T09:41:35.027Z</time></trkpt><trkpt lat="42.2502348" lon="13.8036201"><ele>330.0</ele><time>2026-05-03T09:41:36.028Z</time></trkpt><trkpt lat="42.2501358" lon="13.8037083"><ele>330.8</ele><time>2026-05-03T09:41:37.027Z</time></trkpt><trkpt lat="42.2500447" lon="13.8037923"><ele>331.6</ele><time>2026-05-03T09:41:38.027Z</time></trkpt><trkpt lat="42.2499586" lon="13.8038659"><ele>332.4</ele><time>2026-05-03T09:41:39.027Z</time></trkpt><trkpt lat="42.2498852" lon="13.8039457"><ele>333.2</ele><time>2026-05-03T09:41:40.027Z</time></trkpt><trkpt lat="42.2498161" lon="13.8040495"><ele>334.0</ele><time>2026-05-03T09:41:41.027Z</time></trkpt><trkpt lat="42.249754" lon="13.804162"><ele>334.0</ele><time>2026-05-03T09:41:42.027Z</time></trkpt><trkpt lat="42.2497004" lon="13.8042781"><ele>334.0</ele><time>2026-05-03T09:41:43.027Z</time></trkpt><trkpt lat="42.2496482" lon="13.8043864"><ele>334.0</ele><time>2026-05-03T09:41:44.027Z</time></trkpt><trkpt lat="42.2495844" lon="13.8044636"><ele>334.0</ele><time>2026-05-03T09:41:45.027Z</time></trkpt><trkpt lat="42.2495236" lon="13.8045469"><ele>334.0</ele><time>2026-05-03T09:41:46.027Z</time></trkpt><trkpt lat="42.24947" lon="13.8046259"><ele>334.0</ele><time>2026-05-03T09:41:47.027Z</time></trkpt><trkpt lat="42.2494027" lon="13.8047162"><ele>334.6</ele><time>2026-05-03T09:41:48.027Z</time></trkpt><trkpt lat="42.2493318" lon="13.8048125"><ele>335.2</ele><time>2026-05-03T09:41:49.027Z</time></trkpt><trkpt lat="42.2492564" lon="13.804912"><ele>335.8</ele><time>2026-05-03T09:41:50.027Z</time></trkpt><trkpt lat="42.249177" lon="13.805005"><ele>336.40000000000003</ele><time>2026-05-03T09:41:51.027Z</time></trkpt><trkpt lat="42.2491123" lon="13.8051132"><ele>337.0</ele><time>2026-05-03T09:41:52.027Z</time></trkpt><trkpt lat="42.2490242" lon="13.8051343"><ele>336.6</ele><time>2026-05-03T09:41:53.028Z</time></trkpt><trkpt lat="42.2489358" lon="13.8051841"><ele>336.20000000000005</ele><time>2026-05-03T09:41:54.027Z</time></trkpt><trkpt lat="42.248834" lon="13.8052059"><ele>335.8</ele><time>2026-05-03T09:41:55.028Z</time></trkpt><trkpt lat="42.2487331" lon="13.8052272"><ele>335.4</ele><time>2026-05-03T09:41:56.027Z</time></trkpt><trkpt lat="42.2486408" lon="13.8052598"><ele>335.0</ele><time>2026-05-03T09:41:57.027Z</time></trkpt><trkpt lat="42.2485604" lon="13.8053067"><ele>335.0</ele><time>2026-05-03T09:41:58.027Z</time></trkpt><trkpt lat="42.2484862" lon="13.8053648"><ele>335.0</ele><time>2026-05-03T09:41:59.027Z</time></trkpt><trkpt lat="42.2484142" lon="13.8054217"><ele>335.0</ele><time>2026-05-03T09:42:00.027Z</time></trkpt><trkpt lat="42.2483645" lon="13.8054815"><ele>335.0</ele><time>2026-05-03T09:42:01.027Z</time></trkpt><trkpt lat="42.2482842" lon="13.805577"><ele>335.0</ele><time>2026-05-03T09:42:03.028Z</time></trkpt><trkpt lat="42.2482239" lon="13.8056578"><ele>335.0</ele><time>2026-05-03T09:42:05.027Z</time></trkpt><trkpt lat="42.2481446" lon="13.805735"><ele>333.83333333333337</ele><time>2026-05-03T09:42:07.027Z</time></trkpt><trkpt lat="42.2480595" lon="13.8058534"><ele>332.6666666666667</ele><time>2026-05-03T09:42:09.027Z</time></trkpt><trkpt lat="42.2480171" lon="13.8059274"><ele>331.5</ele><time>2026-05-03T09:42:10.027Z</time></trkpt><trkpt lat="42.2479651" lon="13.8059794"><ele>330.3333333333333</ele><time>2026-05-03T09:42:11.027Z</time></trkpt><trkpt lat="42.2478607" lon="13.8060574"><ele>329.16666666666663</ele><time>2026-05-03T09:42:13.027Z</time></trkpt><trkpt lat="42.2477948" lon="13.8060856"><ele>328.0</ele><time>2026-05-03T09:42:14.028Z</time></trkpt><trkpt lat="42.2477315" lon="13.8060991"><ele>327.66666666666663</ele><time>2026-05-03T09:42:15.027Z</time></trkpt><trkpt lat="42.2476679" lon="13.8061142"><ele>327.3333333333333</ele><time>2026-05-03T09:42:16.027Z</time></trkpt><trkpt lat="42.2476026" lon="13.8061311"><ele>327.0</ele><time>2026-05-03T09:42:17.027Z</time></trkpt><trkpt lat="42.2475409" lon="13.8061669"><ele>326.6666666666667</ele><time>2026-05-03T09:42:18.027Z</time></trkpt><trkpt lat="42.2474471" lon="13.8062391"><ele>326.33333333333337</ele><time>2026-05-03T09:42:20.027Z</time></trkpt><trkpt lat="42.2473806" lon="13.8062653"><ele>326.0</ele><time>2026-05-03T09:42:22.027Z</time></trkpt><trkpt lat="42.2473008" lon="13.8062601"><ele>325.5</ele><time>2026-05-03T09:42:24.027Z</time></trkpt><trkpt lat="42.2472242" lon="13.8062131"><ele>325.0</ele><time>2026-05-03T09:42:26.027Z</time></trkpt><trkpt lat="42.2471816" lon="13.8061285"><ele>324.5</ele><time>2026-05-03T09:42:28.027Z</time></trkpt><trkpt lat="42.2471277" lon="13.8060703"><ele>324.0</ele><time>2026-05-03T09:42:30.027Z</time></trkpt><trkpt lat="42.2471025" lon="13.8061513"><ele>323.5</ele><time>2026-05-03T09:42:35.027Z</time></trkpt><trkpt lat="42.2471901" lon="13.8062023"><ele>323.0</ele><time>2026-05-03T09:42:37.028Z</time></trkpt><trkpt lat="42.2472908" lon="13.8062646"><ele>323.59999999999997</ele><time>2026-05-03T09:42:39.027Z</time></trkpt><trkpt lat="42.2473842" lon="13.8062813"><ele>324.2</ele><time>2026-05-03T09:42:41.027Z</time></trkpt><trkpt lat="42.2474732" lon="13.8062336"><ele>324.8</ele><time>2026-05-03T09:42:43.027Z</time></trkpt><trkpt lat="42.2475748" lon="13.8061669"><ele>325.4</ele><time>2026-05-03T09:42:45.027Z</time></trkpt><trkpt lat="42.2476796" lon="13.806123"><ele>326.0</ele><time>2026-05-03T09:42:47.027Z</time></trkpt><trkpt lat="42.2478124" lon="13.8060849"><ele>326.0</ele><time>2026-05-03T09:42:49.027Z</time></trkpt><trkpt lat="42.2478808" lon="13.8060597"><ele>326.0</ele><time>2026-05-03T09:42:50.027Z</time></trkpt><trkpt lat="42.24798" lon="13.8059789"><ele>326.0</ele><time>2026-05-03T09:42:52.027Z</time></trkpt><trkpt lat="42.2480525" lon="13.8058784"><ele>326.0</ele><time>2026-05-03T09:42:54.027Z</time></trkpt><trkpt lat="42.2481118" lon="13.8057895"><ele>326.0</ele><time>2026-05-03T09:42:57.027Z</time></trkpt><trkpt lat="42.2481532" lon="13.8057034"><ele>326.0</ele><time>2026-05-03T09:42:59.027Z</time></trkpt><trkpt lat="42.2482149" lon="13.8056456"><ele>326.0</ele><time>2026-05-03T09:43:02.027Z</time></trkpt><trkpt lat="42.2482064" lon="13.8058069"><ele>326.0</ele><time>2026-05-03T09:54:36.022Z</time></trkpt><trkpt lat="42.2481322" lon="13.8059129"><ele>326.0</ele><time>2026-05-03T09:54:38.022Z</time></trkpt><trkpt lat="42.2480923" lon="13.8059948"><ele>326.0</ele><time>2026-05-03T09:54:39.022Z</time></trkpt><trkpt lat="42.2480509" lon="13.8060664"><ele>326.0</ele><time>2026-05-03T09:54:40.022Z</time></trkpt><trkpt lat="42.248009" lon="13.8061652"><ele>326.0</ele><time>2026-05-03T09:54:41.022Z</time></trkpt><trkpt lat="42.2479588" lon="13.8062366"><ele>326.0</ele><time>2026-05-03T09:54:42.022Z</time></trkpt><trkpt lat="42.2479181" lon="13.8063226"><ele>326.0</ele><time>2026-05-03T09:54:43.022Z</time></trkpt><trkpt lat="42.2478811" lon="13.8064053"><ele>326.0</ele><time>2026-05-03T09:54:44.022Z</time></trkpt><trkpt lat="42.2478582" lon="13.8064883"><ele>326.0</ele><time>2026-05-03T09:54:45.022Z</time></trkpt><trkpt lat="42.2478315" lon="13.8065809"><ele>326.0</ele><time>2026-05-03T09:54:46.023Z</time></trkpt><trkpt lat="42.2478124" lon="13.8066643"><ele>326.0</ele><time>2026-05-03T09:54:47.022Z</time></trkpt><trkpt lat="42.2477935" lon="13.8067572"><ele>326.33333333333337</ele><time>2026-05-03T09:54:48.022Z</time></trkpt><trkpt lat="42.2477716" lon="13.8068644"><ele>326.6666666666667</ele><time>2026-05-03T09:54:49.022Z</time></trkpt><trkpt lat="42.2477622" lon="13.8069626"><ele>327.0</ele><time>2026-05-03T09:54:50.022Z</time></trkpt><trkpt lat="42.2477501" lon="13.8070618"><ele>327.3333333333333</ele><time>2026-05-03T09:54:51.022Z</time></trkpt><trkpt lat="42.2477312" lon="13.8071434"><ele>327.66666666666663</ele><time>2026-05-03T09:54:52.022Z</time></trkpt><trkpt lat="42.2476622" lon="13.8072809"><ele>328.0</ele><time>2026-05-03T09:54:54.022Z</time></trkpt><trkpt lat="42.2476277" lon="13.8073521"><ele>328.0</ele><time>2026-05-03T09:54:55.022Z</time></trkpt><trkpt lat="42.2475593" lon="13.8074175"><ele>328.0</ele><time>2026-05-03T09:54:56.023Z</time></trkpt><trkpt lat="42.2474782" lon="13.8074819"><ele>328.0</ele><time>2026-05-03T09:54:57.022Z</time></trkpt><trkpt lat="42.2473962" lon="13.8075365"><ele>328.0</ele><time>2026-05-03T09:54:58.022Z</time></trkpt><trkpt lat="42.2473206" lon="13.8075926"><ele>328.0</ele><time>2026-05-03T09:54:59.022Z</time></trkpt><trkpt lat="42.247264" lon="13.8076589"><ele>328.0</ele><time>2026-05-03T09:55:00.022Z</time></trkpt><trkpt lat="42.2471949" lon="13.8077242"><ele>327.5</ele><time>2026-05-03T09:55:01.022Z</time></trkpt><trkpt lat="42.247121" lon="13.8077914"><ele>327.0</ele><time>2026-05-03T09:55:02.022Z</time></trkpt><trkpt lat="42.2470674" lon="13.807861"><ele>326.5</ele><time>2026-05-03T09:55:03.022Z</time></trkpt><trkpt lat="42.2470057" lon="13.8079389"><ele>326.0</ele><time>2026-05-03T09:55:05.022Z</time></trkpt><trkpt lat="42.2469562" lon="13.8079977"><ele>325.5</ele><time>2026-05-03T09:55:07.022Z</time></trkpt><trkpt lat="42.2469151" lon="13.8081032"><ele>325.0</ele><time>2026-05-03T09:55:09.023Z</time></trkpt><trkpt lat="42.2468649" lon="13.8082272"><ele>325.0</ele><time>2026-05-03T09:55:11.022Z</time></trkpt><trkpt lat="42.2468451" lon="13.8083211"><ele>325.0</ele><time>2026-05-03T09:55:12.023Z</time></trkpt><trkpt lat="42.2468176" lon="13.808422"><ele>325.0</ele><time>2026-05-03T09:55:13.023Z</time></trkpt><trkpt lat="42.2468093" lon="13.8085334"><ele>325.0</ele><time>2026-05-03T09:55:14.022Z</time></trkpt><trkpt lat="42.2467899" lon="13.8086404"><ele>325.0</ele><time>2026-05-03T09:55:15.022Z</time></trkpt><trkpt lat="42.2467588" lon="13.8087553"><ele>325.0</ele><time>2026-05-03T09:55:16.022Z</time></trkpt><trkpt lat="42.2467192" lon="13.8088803"><ele>325.0</ele><time>2026-05-03T09:55:17.023Z</time></trkpt><trkpt lat="42.2466898" lon="13.8090033"><ele>325.0</ele><time>2026-05-03T09:55:18.023Z</time></trkpt><trkpt lat="42.246653" lon="13.8091473"><ele>325.0</ele><time>2026-05-03T09:55:19.022Z</time></trkpt><trkpt lat="42.246606" lon="13.8092989"><ele>325.0</ele><time>2026-05-03T09:55:20.022Z</time></trkpt><trkpt lat="42.2465772" lon="13.8094344"><ele>325.0</ele><time>2026-05-03T09:55:21.022Z</time></trkpt><trkpt lat="42.246543" lon="13.8095763"><ele>325.0</ele><time>2026-05-03T09:55:22.022Z</time></trkpt><trkpt lat="42.2465108" lon="13.8097127"><ele>325.0</ele><time>2026-05-03T09:55:23.022Z</time></trkpt><trkpt lat="42.2464737" lon="13.8098335"><ele>325.0</ele><time>2026-05-03T09:55:24.022Z</time></trkpt><trkpt lat="42.2464428" lon="13.809933"><ele>325.0</ele><time>2026-05-03T09:55:25.022Z</time></trkpt><trkpt lat="42.2463753" lon="13.8100891"><ele>325.0</ele><time>2026-05-03T09:55:27.022Z</time></trkpt><trkpt lat="42.2463311" lon="13.8101609"><ele>325.0</ele><time>2026-05-03T09:55:28.022Z</time></trkpt><trkpt lat="42.2462812" lon="13.8102464"><ele>325.0</ele><time>2026-05-03T09:55:29.022Z</time></trkpt><trkpt lat="42.246223" lon="13.8103106"><ele>325.0</ele><time>2026-05-03T09:55:30.022Z</time></trkpt><trkpt lat="42.2461544" lon="13.8103939"><ele>325.0</ele><time>2026-05-03T09:55:31.022Z</time></trkpt><trkpt lat="42.2460921" lon="13.8104727"><ele>325.0</ele><time>2026-05-03T09:55:32.022Z</time></trkpt><trkpt lat="42.2460194" lon="13.8105326"><ele>325.0</ele><time>2026-05-03T09:55:33.023Z</time></trkpt><trkpt lat="42.2459509" lon="13.8106107"><ele>325.0</ele><time>2026-05-03T09:55:34.022Z</time></trkpt><trkpt lat="42.2458763" lon="13.810696"><ele>325.0</ele><time>2026-05-03T09:55:35.022Z</time></trkpt><trkpt lat="42.2458034" lon="13.8107835"><ele>325.0</ele><time>2026-05-03T09:55:36.022Z</time></trkpt><trkpt lat="42.2457329" lon="13.8108782"><ele>325.0</ele><time>2026-05-03T09:55:37.022Z</time></trkpt><trkpt lat="42.2456679" lon="13.8109717"><ele>325.0</ele><time>2026-05-03T09:55:38.022Z</time></trkpt><trkpt lat="42.2455878" lon="13.8110628"><ele>324.8333333333333</ele><time>2026-05-03T09:55:39.022Z</time></trkpt><trkpt lat="42.245523" lon="13.8111444"><ele>324.66666666666663</ele><time>2026-05-03T09:55:40.022Z</time></trkpt><trkpt lat="42.2454526" lon="13.8112182"><ele>324.5</ele><time>2026-05-03T09:55:41.022Z</time></trkpt><trkpt lat="42.2453901" lon="13.8112903"><ele>324.3333333333333</ele><time>2026-05-03T09:55:42.022Z</time></trkpt><trkpt lat="42.2453244" lon="13.8113617"><ele>324.1666666666667</ele><time>2026-05-03T09:55:43.022Z</time></trkpt><trkpt lat="42.2452707" lon="13.8114268"><ele>324.0</ele><time>2026-05-03T09:55:44.023Z</time></trkpt><trkpt lat="42.2452103" lon="13.8115055"><ele>324.0</ele><time>2026-05-03T09:55:45.022Z</time></trkpt><trkpt lat="42.2451712" lon="13.8115768"><ele>324.0</ele><time>2026-05-03T09:55:46.022Z</time></trkpt><trkpt lat="42.2451436" lon="13.8116564"><ele>324.0</ele><time>2026-05-03T09:55:47.023Z</time></trkpt><trkpt lat="42.2451155" lon="13.8117391"><ele>324.0</ele><time>2026-05-03T09:55:48.022Z</time></trkpt><trkpt lat="42.2450771" lon="13.8119271"><ele>324.0</ele><time>2026-05-03T09:55:50.022Z</time></trkpt><trkpt lat="42.2450483" lon="13.8120962"><ele>323.5</ele><time>2026-05-03T09:55:52.022Z</time></trkpt><trkpt lat="42.2450175" lon="13.8121717"><ele>323.0</ele><time>2026-05-03T09:55:53.023Z</time></trkpt><trkpt lat="42.2449865" lon="13.8122524"><ele>322.5</ele><time>2026-05-03T09:55:54.023Z</time></trkpt><trkpt lat="42.2449333" lon="13.8123233"><ele>322.0</ele><time>2026-05-03T09:55:55.022Z</time></trkpt><trkpt lat="42.2448424" lon="13.8124535"><ele>321.5</ele><time>2026-05-03T09:55:57.022Z</time></trkpt><trkpt lat="42.2447705" lon="13.8124994"><ele>321.0</ele><time>2026-05-03T09:55:58.022Z</time></trkpt><trkpt lat="42.2446987" lon="13.8125558"><ele>321.0</ele><time>2026-05-03T09:55:59.022Z</time></trkpt><trkpt lat="42.2446096" lon="13.8125873"><ele>321.0</ele><time>2026-05-03T09:56:00.022Z</time></trkpt><trkpt lat="42.2445275" lon="13.812611"><ele>321.0</ele><time>2026-05-03T09:56:01.022Z</time></trkpt><trkpt lat="42.2444439" lon="13.8126219"><ele>321.0</ele><time>2026-05-03T09:56:02.022Z</time></trkpt><trkpt lat="42.2443572" lon="13.8126559"><ele>321.0</ele><time>2026-05-03T09:56:03.022Z</time></trkpt><trkpt lat="42.2442768" lon="13.8126797"><ele>321.0</ele><time>2026-05-03T09:56:04.022Z</time></trkpt><trkpt lat="42.2441933" lon="13.8127568"><ele>321.8</ele><time>2026-05-03T09:56:05.023Z</time></trkpt><trkpt lat="42.2441044" lon="13.8128125"><ele>322.6</ele><time>2026-05-03T09:56:06.022Z</time></trkpt><trkpt lat="42.2440103" lon="13.8128522"><ele>323.4</ele><time>2026-05-03T09:56:07.023Z</time></trkpt><trkpt lat="42.2439147" lon="13.8128871"><ele>324.2</ele><time>2026-05-03T09:56:08.022Z</time></trkpt><trkpt lat="42.2438257" lon="13.8129341"><ele>325.0</ele><time>2026-05-03T09:56:09.022Z</time></trkpt><trkpt lat="42.2437436" lon="13.8129728"><ele>325.0</ele><time>2026-05-03T09:56:10.022Z</time></trkpt><trkpt lat="42.2436609" lon="13.8130178"><ele>325.0</ele><time>2026-05-03T09:56:11.022Z</time></trkpt><trkpt lat="42.2435912" lon="13.8130833"><ele>325.0</ele><time>2026-05-03T09:56:12.022Z</time></trkpt><trkpt lat="42.2435252" lon="13.8131561"><ele>325.0</ele><time>2026-05-03T09:56:13.022Z</time></trkpt><trkpt lat="42.2434594" lon="13.813229"><ele>325.0</ele><time>2026-05-03T09:56:14.022Z</time></trkpt><trkpt lat="42.2433999" lon="13.8133055"><ele>325.0</ele><time>2026-05-03T09:56:15.022Z</time></trkpt><trkpt lat="42.2433188" lon="13.8133863"><ele>325.0</ele><time>2026-05-03T09:56:16.022Z</time></trkpt><trkpt lat="42.2432503" lon="13.8134796"><ele>325.0</ele><time>2026-05-03T09:56:17.022Z</time></trkpt><trkpt lat="42.243174" lon="13.8135906"><ele>325.0</ele><time>2026-05-03T09:56:18.022Z</time></trkpt><trkpt lat="42.2430947" lon="13.8136854"><ele>325.0</ele><time>2026-05-03T09:56:19.022Z</time></trkpt><trkpt lat="42.2430117" lon="13.8137846"><ele>325.0</ele><time>2026-05-03T09:56:20.022Z</time></trkpt><trkpt lat="42.2429255" lon="13.81388"><ele>324.0</ele><time>2026-05-03T09:56:21.022Z</time></trkpt><trkpt lat="42.242845" lon="13.8139656"><ele>323.0</ele><time>2026-05-03T09:56:22.023Z</time></trkpt><trkpt lat="42.2427629" lon="13.8140498"><ele>322.0</ele><time>2026-05-03T09:56:23.023Z</time></trkpt><trkpt lat="42.2426732" lon="13.8141391"><ele>321.0</ele><time>2026-05-03T09:56:24.022Z</time></trkpt><trkpt lat="42.2425827" lon="13.8142225"><ele>320.0</ele><time>2026-05-03T09:56:25.022Z</time></trkpt><trkpt lat="42.2425004" lon="13.8143015"><ele>319.8</ele><time>2026-05-03T09:56:26.022Z</time></trkpt><trkpt lat="42.24243" lon="13.8143692"><ele>319.6</ele><time>2026-05-03T09:56:27.022Z</time></trkpt><trkpt lat="42.2423685" lon="13.8144235"><ele>319.4</ele><time>2026-05-03T09:56:28.022Z</time></trkpt><trkpt lat="42.2422615" lon="13.8145034"><ele>319.2</ele><time>2026-05-03T09:56:30.022Z</time></trkpt><trkpt lat="42.2421535" lon="13.8145206"><ele>319.0</ele><time>2026-05-03T09:56:32.022Z</time></trkpt><trkpt lat="42.2420352" lon="13.8145512"><ele>319.0</ele><time>2026-05-03T09:56:34.022Z</time></trkpt><trkpt lat="42.2419685" lon="13.8145912"><ele>319.0</ele><time>2026-05-03T09:56:36.022Z</time></trkpt><trkpt lat="42.2419268" lon="13.8147018"><ele>319.0</ele><time>2026-05-03T09:56:38.023Z</time></trkpt><trkpt lat="42.241898" lon="13.8148432"><ele>319.0</ele><time>2026-05-03T09:56:40.022Z</time></trkpt><trkpt lat="42.2418945" lon="13.8149447"><ele>319.0</ele><time>2026-05-03T09:56:41.022Z</time></trkpt><trkpt lat="42.2418504" lon="13.8150599"><ele>319.0</ele><time>2026-05-03T09:56:42.022Z</time></trkpt><trkpt lat="42.2417977" lon="13.8151594"><ele>319.3333333333333</ele><time>2026-05-03T09:56:43.022Z</time></trkpt><trkpt lat="42.241764" lon="13.8152612"><ele>319.66666666666663</ele><time>2026-05-03T09:56:44.022Z</time></trkpt><trkpt lat="42.2417239" lon="13.815393"><ele>320.0</ele><time>2026-05-03T09:56:45.023Z</time></trkpt><trkpt lat="42.2416958" lon="13.8155092"><ele>320.3333333333333</ele><time>2026-05-03T09:56:46.022Z</time></trkpt><trkpt lat="42.2416814" lon="13.8156165"><ele>320.6666666666667</ele><time>2026-05-03T09:56:47.022Z</time></trkpt><trkpt lat="42.2416833" lon="13.815725"><ele>321.0</ele><time>2026-05-03T09:56:48.022Z</time></trkpt><trkpt lat="42.2416623" lon="13.8158182"><ele>321.0</ele><time>2026-05-03T09:56:49.022Z</time></trkpt><trkpt lat="42.2416194" lon="13.8158997"><ele>321.0</ele><time>2026-05-03T09:56:50.022Z</time></trkpt><trkpt lat="42.2415689" lon="13.8159768"><ele>321.0</ele><time>2026-05-03T09:56:51.023Z</time></trkpt><trkpt lat="42.2415171" lon="13.8160368"><ele>321.0</ele><time>2026-05-03T09:56:52.022Z</time></trkpt><trkpt lat="42.2414644" lon="13.8160928"><ele>321.0</ele><time>2026-05-03T09:56:53.023Z</time></trkpt><trkpt lat="42.2414047" lon="13.8161422"><ele>321.0</ele><time>2026-05-03T09:56:54.022Z</time></trkpt><trkpt lat="42.2412925" lon="13.816224"><ele>322.1428571428571</ele><time>2026-05-03T09:56:56.022Z</time></trkpt><trkpt lat="42.2412254" lon="13.8162628"><ele>323.2857142857143</ele><time>2026-05-03T09:56:57.022Z</time></trkpt><trkpt lat="42.2411525" lon="13.8162963"><ele>324.42857142857144</ele><time>2026-05-03T09:56:58.022Z</time></trkpt><trkpt lat="42.2410711" lon="13.8162875"><ele>325.57142857142856</ele><time>2026-05-03T09:56:59.022Z</time></trkpt><trkpt lat="42.2410061" lon="13.8163145"><ele>326.7142857142857</ele><time>2026-05-03T09:57:00.022Z</time></trkpt><trkpt lat="42.2409309" lon="13.8163087"><ele>327.85714285714283</ele><time>2026-05-03T09:57:01.022Z</time></trkpt><trkpt lat="42.2408619" lon="13.8163057"><ele>329.0</ele><time>2026-05-03T09:57:02.022Z</time></trkpt><trkpt lat="42.2407836" lon="13.816312"><ele>329.0</ele><time>2026-05-03T09:57:03.022Z</time></trkpt><trkpt lat="42.2407066" lon="13.8163153"><ele>329.0</ele><time>2026-05-03T09:57:04.022Z</time></trkpt><trkpt lat="42.2406112" lon="13.8163248"><ele>329.0</ele><time>2026-05-03T09:57:05.023Z</time></trkpt><trkpt lat="42.2405035" lon="13.8163313"><ele>329.0</ele><time>2026-05-03T09:57:06.022Z</time></trkpt><trkpt lat="42.2403959" lon="13.8163368"><ele>329.0</ele><time>2026-05-03T09:57:07.022Z</time></trkpt><trkpt lat="42.2402946" lon="13.8163415"><ele>328.6666666666667</ele><time>2026-05-03T09:57:08.022Z</time></trkpt><trkpt lat="42.2401964" lon="13.8163532"><ele>328.33333333333337</ele><time>2026-05-03T09:57:09.022Z</time></trkpt><trkpt lat="42.2401135" lon="13.8163612"><ele>328.0</ele><time>2026-05-03T09:57:10.023Z</time></trkpt><trkpt lat="42.2400284" lon="13.8163863"><ele>327.6666666666667</ele><time>2026-05-03T09:57:11.022Z</time></trkpt><trkpt lat="42.2399451" lon="13.8164019"><ele>327.3333333333333</ele><time>2026-05-03T09:57:12.022Z</time></trkpt><trkpt lat="42.2398701" lon="13.8164608"><ele>327.0</ele><time>2026-05-03T09:57:13.022Z</time></trkpt><trkpt lat="42.2397758" lon="13.8164845"><ele>326.3333333333333</ele><time>2026-05-03T09:57:14.022Z</time></trkpt><trkpt lat="42.2396852" lon="13.816502"><ele>325.6666666666667</ele><time>2026-05-03T09:57:15.022Z</time></trkpt><trkpt lat="42.2396176" lon="13.8165079"><ele>325.0</ele><time>2026-05-03T09:57:16.022Z</time></trkpt><trkpt lat="42.2395147" lon="13.816485"><ele>324.33333333333337</ele><time>2026-05-03T09:57:18.022Z</time></trkpt><trkpt lat="42.2394413" lon="13.8163972"><ele>323.6666666666667</ele><time>2026-05-03T09:57:20.022Z</time></trkpt><trkpt lat="42.239409" lon="13.8163242"><ele>323.0</ele><time>2026-05-03T09:57:21.022Z</time></trkpt><trkpt lat="42.2393687" lon="13.816257"><ele>323.0</ele><time>2026-05-03T09:57:22.022Z</time></trkpt><trkpt lat="42.2392754" lon="13.8161609"><ele>323.0</ele><time>2026-05-03T09:57:24.023Z</time></trkpt><trkpt lat="42.2392004" lon="13.816194"><ele>323.0</ele><time>2026-05-03T09:57:25.022Z</time></trkpt><trkpt lat="42.2390728" lon="13.8161775"><ele>323.0</ele><time>2026-05-03T09:57:27.022Z</time></trkpt><trkpt lat="42.2389905" lon="13.8161651"><ele>323.0</ele><time>2026-05-03T09:57:28.022Z</time></trkpt><trkpt lat="42.2389086" lon="13.8161517"><ele>322.2</ele><time>2026-05-03T09:57:29.022Z</time></trkpt><trkpt lat="42.2388254" lon="13.8161291"><ele>321.4</ele><time>2026-05-03T09:57:30.023Z</time></trkpt><trkpt lat="42.2387281" lon="13.8161101"><ele>320.59999999999997</ele><time>2026-05-03T09:57:31.022Z</time></trkpt><trkpt lat="42.2386278" lon="13.816104"><ele>319.79999999999995</ele><time>2026-05-03T09:57:32.022Z</time></trkpt><trkpt lat="42.2385277" lon="13.8161271"><ele>319.0</ele><time>2026-05-03T09:57:33.022Z</time></trkpt><trkpt lat="42.2384175" lon="13.8161644"><ele>319.0</ele><time>2026-05-03T09:57:34.022Z</time></trkpt><trkpt lat="42.2383059" lon="13.816221"><ele>319.0</ele><time>2026-05-03T09:57:35.023Z</time></trkpt><trkpt lat="42.2381845" lon="13.8162741"><ele>319.0</ele><time>2026-05-03T09:57:36.022Z</time></trkpt><trkpt lat="42.2380597" lon="13.8163349"><ele>319.0</ele><time>2026-05-03T09:57:37.023Z</time></trkpt><trkpt lat="42.2379271" lon="13.8163951"><ele>319.0</ele><time>2026-05-03T09:57:38.022Z</time></trkpt><trkpt lat="42.2377962" lon="13.8164572"><ele>319.0</ele><time>2026-05-03T09:57:39.022Z</time></trkpt><trkpt lat="42.2376637" lon="13.816522"><ele>319.0</ele><time>2026-05-03T09:57:40.022Z</time></trkpt><trkpt lat="42.2375294" lon="13.8165781"><ele>319.0</ele><time>2026-05-03T09:57:41.022Z</time></trkpt><trkpt lat="42.2373966" lon="13.8166405"><ele>319.25</ele><time>2026-05-03T09:57:42.022Z</time></trkpt><trkpt lat="42.2372651" lon="13.8166902"><ele>319.5</ele><time>2026-05-03T09:57:43.022Z</time></trkpt><trkpt lat="42.2371301" lon="13.8167315"><ele>319.75</ele><time>2026-05-03T09:57:44.022Z</time></trkpt><trkpt lat="42.2369913" lon="13.816751"><ele>320.0</ele><time>2026-05-03T09:57:45.022Z</time></trkpt><trkpt lat="42.2368507" lon="13.8167429"><ele>320.0</ele><time>2026-05-03T09:57:46.022Z</time></trkpt><trkpt lat="42.2367126" lon="13.8167179"><ele>320.0</ele><time>2026-05-03T09:57:47.022Z</time></trkpt><trkpt lat="42.2365734" lon="13.8166484"><ele>320.0</ele><time>2026-05-03T09:57:48.022Z</time></trkpt><trkpt lat="42.236448" lon="13.8165708"><ele>320.0</ele><time>2026-05-03T09:57:49.022Z</time></trkpt><trkpt lat="42.236335" lon="13.8164892"><ele>320.4</ele><time>2026-05-03T09:57:50.022Z</time></trkpt><trkpt lat="42.2362454" lon="13.8164156"><ele>320.8</ele><time>2026-05-03T09:57:51.022Z</time></trkpt><trkpt lat="42.2361673" lon="13.8163555"><ele>321.20000000000005</ele><time>2026-05-03T09:57:52.022Z</time></trkpt><trkpt lat="42.2360999" lon="13.8163074"><ele>321.6</ele><time>2026-05-03T09:57:53.022Z</time></trkpt><trkpt lat="42.2360287" lon="13.8162662"><ele>322.0</ele><time>2026-05-03T09:57:54.022Z</time></trkpt><trkpt lat="42.235911" lon="13.8162179"><ele>322.0</ele><time>2026-05-03T09:57:56.022Z</time></trkpt><trkpt lat="42.2358403" lon="13.816229"><ele>322.0</ele><time>2026-05-03T09:57:57.022Z</time></trkpt><trkpt lat="42.2357657" lon="13.8162426"><ele>322.0</ele><time>2026-05-03T09:57:58.022Z</time></trkpt><trkpt lat="42.2356898" lon="13.8162721"><ele>322.0</ele><time>2026-05-03T09:57:59.022Z</time></trkpt><trkpt lat="42.2356212" lon="13.8163063"><ele>322.0</ele><time>2026-05-03T09:58:00.022Z</time></trkpt><trkpt lat="42.2355513" lon="13.8163516"><ele>322.0</ele><time>2026-05-03T09:58:01.022Z</time></trkpt><trkpt lat="42.2354831" lon="13.816411"><ele>321.8</ele><time>2026-05-03T09:58:02.022Z</time></trkpt><trkpt lat="42.2354192" lon="13.8164779"><ele>321.6</ele><time>2026-05-03T09:58:03.022Z</time></trkpt><trkpt lat="42.2353643" lon="13.8165624"><ele>321.40000000000003</ele><time>2026-05-03T09:58:04.022Z</time></trkpt><trkpt lat="42.2353088" lon="13.8166614"><ele>321.20000000000005</ele><time>2026-05-03T09:58:05.022Z</time></trkpt><trkpt lat="42.2352522" lon="13.8167715"><ele>321.0</ele><time>2026-05-03T09:58:06.022Z</time></trkpt><trkpt lat="42.2351909" lon="13.8168965"><ele>321.0</ele><time>2026-05-03T09:58:07.022Z</time></trkpt><trkpt lat="42.2351259" lon="13.8170329"><ele>321.0</ele><time>2026-05-03T09:58:08.022Z</time></trkpt><trkpt lat="42.2350593" lon="13.8171802"><ele>321.0</ele><time>2026-05-03T09:58:09.022Z</time></trkpt><trkpt lat="42.2349854" lon="13.8173199"><ele>321.0</ele><time>2026-05-03T09:58:10.022Z</time></trkpt><trkpt lat="42.2349028" lon="13.8174715"><ele>321.0</ele><time>2026-05-03T09:58:11.022Z</time></trkpt><trkpt lat="42.2348109" lon="13.8176217"><ele>321.0</ele><time>2026-05-03T09:58:12.021Z</time></trkpt><trkpt lat="42.2347118" lon="13.8177651"><ele>321.0</ele><time>2026-05-03T09:58:13.022Z</time></trkpt><trkpt lat="42.2346021" lon="13.817903"><ele>321.0</ele><time>2026-05-03T09:58:14.022Z</time></trkpt><trkpt lat="42.2344928" lon="13.818034"><ele>322.25</ele><time>2026-05-03T09:58:15.022Z</time></trkpt><trkpt lat="42.2343704" lon="13.8181583"><ele>323.5</ele><time>2026-05-03T09:58:16.023Z</time></trkpt><trkpt lat="42.2342476" lon="13.8182578"><ele>324.75</ele><time>2026-05-03T09:58:17.022Z</time></trkpt><trkpt lat="42.2341204" lon="13.8183615"><ele>326.0</ele><time>2026-05-03T09:58:18.022Z</time></trkpt><trkpt lat="42.2339847" lon="13.8184486"><ele>327.6666666666667</ele><time>2026-05-03T09:58:19.022Z</time></trkpt><trkpt lat="42.2338432" lon="13.8185441"><ele>329.3333333333333</ele><time>2026-05-03T09:58:20.022Z</time></trkpt><trkpt lat="42.2337036" lon="13.8186327"><ele>331.0</ele><time>2026-05-03T09:58:21.022Z</time></trkpt><trkpt lat="42.2335606" lon="13.818716"><ele>331.0</ele><time>2026-05-03T09:58:22.022Z</time></trkpt><trkpt lat="42.2334193" lon="13.8187887"><ele>331.0</ele><time>2026-05-03T09:58:23.022Z</time></trkpt><trkpt lat="42.2332851" lon="13.8188396"><ele>331.0</ele><time>2026-05-03T09:58:24.022Z</time></trkpt><trkpt lat="42.2331719" lon="13.8188876"><ele>331.0</ele><time>2026-05-03T09:58:25.023Z</time></trkpt><trkpt lat="42.2330573" lon="13.8189395"><ele>328.5</ele><time>2026-05-03T09:58:26.022Z</time></trkpt><trkpt lat="42.2329424" lon="13.8189853"><ele>326.0</ele><time>2026-05-03T09:58:27.022Z</time></trkpt><trkpt lat="42.2328242" lon="13.8190252"><ele>323.5</ele><time>2026-05-03T09:58:28.022Z</time></trkpt><trkpt lat="42.2326979" lon="13.8190338"><ele>321.0</ele><time>2026-05-03T09:58:29.022Z</time></trkpt><trkpt lat="42.2325598" lon="13.8190437"><ele>321.0</ele><time>2026-05-03T09:58:30.022Z</time></trkpt><trkpt lat="42.2324187" lon="13.8190567"><ele>321.0</ele><time>2026-05-03T09:58:31.023Z</time></trkpt><trkpt lat="42.2322687" lon="13.8190657"><ele>321.0</ele><time>2026-05-03T09:58:32.022Z</time></trkpt><trkpt lat="42.2321225" lon="13.8190828"><ele>321.0</ele><time>2026-05-03T09:58:33.022Z</time></trkpt><trkpt lat="42.2319841" lon="13.8190969"><ele>320.75</ele><time>2026-05-03T09:58:34.022Z</time></trkpt><trkpt lat="42.2318472" lon="13.8191131"><ele>320.5</ele><time>2026-05-03T09:58:35.023Z</time></trkpt><trkpt lat="42.2317139" lon="13.8191531"><ele>320.25</ele><time>2026-05-03T09:58:36.022Z</time></trkpt><trkpt lat="42.2315888" lon="13.8192161"><ele>320.0</ele><time>2026-05-03T09:58:37.022Z</time></trkpt><trkpt lat="42.2314664" lon="13.8192693"><ele>321.25</ele><time>2026-05-03T09:58:38.022Z</time></trkpt><trkpt lat="42.2313536" lon="13.8193465"><ele>322.5</ele><time>2026-05-03T09:58:39.022Z</time></trkpt><trkpt lat="42.2312527" lon="13.8194252"><ele>323.75</ele><time>2026-05-03T09:58:40.022Z</time></trkpt><trkpt lat="42.2311527" lon="13.8194862"><ele>325.0</ele><time>2026-05-03T09:58:41.022Z</time></trkpt><trkpt lat="42.2310437" lon="13.81954"><ele>325.0</ele><time>2026-05-03T09:58:42.022Z</time></trkpt><trkpt lat="42.2309312" lon="13.8195694"><ele>325.0</ele><time>2026-05-03T09:58:43.022Z</time></trkpt><trkpt lat="42.2308178" lon="13.8195814"><ele>325.0</ele><time>2026-05-03T09:58:44.022Z</time></trkpt><trkpt lat="42.2307072" lon="13.8195896"><ele>325.0</ele><time>2026-05-03T09:58:45.023Z</time></trkpt><trkpt lat="42.2305918" lon="13.8196012"><ele>323.25</ele><time>2026-05-03T09:58:46.022Z</time></trkpt><trkpt lat="42.2304758" lon="13.8196255"><ele>321.5</ele><time>2026-05-03T09:58:47.022Z</time></trkpt><trkpt lat="42.2303548" lon="13.8196519"><ele>319.75</ele><time>2026-05-03T09:58:48.022Z</time></trkpt><trkpt lat="42.2302284" lon="13.8196725"><ele>318.0</ele><time>2026-05-03T09:58:49.022Z</time></trkpt><trkpt lat="42.2300911" lon="13.8196909"><ele>318.0</ele><time>2026-05-03T09:58:50.022Z</time></trkpt><trkpt lat="42.229946" lon="13.8197011"><ele>318.0</ele><time>2026-05-03T09:58:51.022Z</time></trkpt><trkpt lat="42.2297982" lon="13.8197033"><ele>318.0</ele><time>2026-05-03T09:58:52.022Z</time></trkpt><trkpt lat="42.2296422" lon="13.8197141"><ele>318.0</ele><time>2026-05-03T09:58:53.022Z</time></trkpt><trkpt lat="42.2294876" lon="13.8197213"><ele>318.0</ele><time>2026-05-03T09:58:54.023Z</time></trkpt><trkpt lat="42.2293273" lon="13.8197338"><ele>318.0</ele><time>2026-05-03T09:58:55.022Z</time></trkpt><trkpt lat="42.2291794" lon="13.8197457"><ele>318.0</ele><time>2026-05-03T09:58:56.022Z</time></trkpt><trkpt lat="42.2290315" lon="13.8197553"><ele>319.75</ele><time>2026-05-03T09:58:57.022Z</time></trkpt><trkpt lat="42.2288997" lon="13.8197663"><ele>321.5</ele><time>2026-05-03T09:58:58.022Z</time></trkpt><trkpt lat="42.2287547" lon="13.8197712"><ele>323.25</ele><time>2026-05-03T09:58:59.022Z</time></trkpt><trkpt lat="42.2286226" lon="13.819765"><ele>325.0</ele><time>2026-05-03T09:59:00.022Z</time></trkpt><trkpt lat="42.2284795" lon="13.8197447"><ele>325.0</ele><time>2026-05-03T09:59:01.022Z</time></trkpt><trkpt lat="42.2283406" lon="13.8197116"><ele>325.0</ele><time>2026-05-03T09:59:02.022Z</time></trkpt><trkpt lat="42.2281955" lon="13.8196762"><ele>325.0</ele><time>2026-05-03T09:59:03.022Z</time></trkpt><trkpt lat="42.2280533" lon="13.8196358"><ele>325.0</ele><time>2026-05-03T09:59:04.022Z</time></trkpt><trkpt lat="42.227912" lon="13.8195984"><ele>325.0</ele><time>2026-05-03T09:59:05.022Z</time></trkpt><trkpt lat="42.22777" lon="13.819577"><ele>325.0</ele><time>2026-05-03T09:59:06.023Z</time></trkpt><trkpt lat="42.2276049" lon="13.8195819"><ele>325.0</ele><time>2026-05-03T09:59:07.022Z</time></trkpt><trkpt lat="42.2274506" lon="13.8195937"><ele>324.3333333333333</ele><time>2026-05-03T09:59:08.023Z</time></trkpt><trkpt lat="42.2272893" lon="13.8196141"><ele>323.6666666666667</ele><time>2026-05-03T09:59:09.022Z</time></trkpt><trkpt lat="42.2271328" lon="13.819639"><ele>323.0</ele><time>2026-05-03T09:59:10.022Z</time></trkpt><trkpt lat="42.2269968" lon="13.8196759"><ele>323.0</ele><time>2026-05-03T09:59:11.022Z</time></trkpt><trkpt lat="42.226871" lon="13.8197122"><ele>323.0</ele><time>2026-05-03T09:59:12.022Z</time></trkpt><trkpt lat="42.2267551" lon="13.8197633"><ele>323.0</ele><time>2026-05-03T09:59:13.022Z</time></trkpt><trkpt lat="42.226638" lon="13.8198469"><ele>323.0</ele><time>2026-05-03T09:59:14.022Z</time></trkpt><trkpt lat="42.226532" lon="13.8199291"><ele>321.33333333333337</ele><time>2026-05-03T09:59:15.022Z</time></trkpt><trkpt lat="42.2264244" lon="13.8200386"><ele>319.6666666666667</ele><time>2026-05-03T09:59:16.022Z</time></trkpt><trkpt lat="42.2263232" lon="13.8201515"><ele>318.0</ele><time>2026-05-03T09:59:17.022Z</time></trkpt><trkpt lat="42.2262176" lon="13.8203692"><ele>318.0</ele><time>2026-05-03T09:59:18.022Z</time></trkpt><trkpt lat="42.2261069" lon="13.8205737"><ele>318.0</ele><time>2026-05-03T09:59:19.022Z</time></trkpt><trkpt lat="42.2260051" lon="13.8207638"><ele>318.0</ele><time>2026-05-03T09:59:20.022Z</time></trkpt><trkpt lat="42.2259189" lon="13.8209278"><ele>318.25</ele><time>2026-05-03T09:59:21.022Z</time></trkpt><trkpt lat="42.2258267" lon="13.8210896"><ele>318.5</ele><time>2026-05-03T09:59:22.022Z</time></trkpt><trkpt lat="42.2257291" lon="13.821241"><ele>318.75</ele><time>2026-05-03T09:59:23.022Z</time></trkpt><trkpt lat="42.2256118" lon="13.8213521"><ele>319.0</ele><time>2026-05-03T09:59:24.022Z</time></trkpt><trkpt lat="42.2254788" lon="13.8214637"><ele>319.0</ele><time>2026-05-03T09:59:25.022Z</time></trkpt><trkpt lat="42.225326" lon="13.8215523"><ele>319.0</ele><time>2026-05-03T09:59:26.022Z</time></trkpt><trkpt lat="42.225159" lon="13.8216275"><ele>319.0</ele><time>2026-05-03T09:59:27.022Z</time></trkpt><trkpt lat="42.2249804" lon="13.8216893"><ele>318.66666666666663</ele><time>2026-05-03T09:59:28.022Z</time></trkpt><trkpt lat="42.2248093" lon="13.8217366"><ele>318.3333333333333</ele><time>2026-05-03T09:59:29.023Z</time></trkpt><trkpt lat="42.2246501" lon="13.8217946"><ele>318.0</ele><time>2026-05-03T09:59:30.022Z</time></trkpt><trkpt lat="42.2244909" lon="13.8218631"><ele>319.6666666666667</ele><time>2026-05-03T09:59:31.022Z</time></trkpt><trkpt lat="42.2243334" lon="13.8219552"><ele>321.33333333333337</ele><time>2026-05-03T09:59:32.022Z</time></trkpt><trkpt lat="42.2242" lon="13.822055"><ele>323.0</ele><time>2026-05-03T09:59:33.022Z</time></trkpt><trkpt lat="42.2240819" lon="13.822159"><ele>322.25</ele><time>2026-05-03T09:59:34.022Z</time></trkpt><trkpt lat="42.2239696" lon="13.8222588"><ele>321.5</ele><time>2026-05-03T09:59:35.022Z</time></trkpt><trkpt lat="42.2238571" lon="13.822359"><ele>320.75</ele><time>2026-05-03T09:59:36.023Z</time></trkpt><trkpt lat="42.2237551" lon="13.822441"><ele>320.0</ele><time>2026-05-03T09:59:37.022Z</time></trkpt><trkpt lat="42.2236479" lon="13.8225262"><ele>320.0</ele><time>2026-05-03T09:59:38.022Z</time></trkpt><trkpt lat="42.2235396" lon="13.8226062"><ele>320.0</ele><time>2026-05-03T09:59:39.022Z</time></trkpt><trkpt lat="42.2234187" lon="13.8226706"><ele>320.0</ele><time>2026-05-03T09:59:40.022Z</time></trkpt><trkpt lat="42.2232831" lon="13.8227208"><ele>320.0</ele><time>2026-05-03T09:59:41.022Z</time></trkpt><trkpt lat="42.2231441" lon="13.822738"><ele>322.6666666666667</ele><time>2026-05-03T09:59:42.022Z</time></trkpt><trkpt lat="42.2229963" lon="13.8227264"><ele>325.3333333333333</ele><time>2026-05-03T09:59:43.022Z</time></trkpt><trkpt lat="42.2228399" lon="13.8226928"><ele>328.0</ele><time>2026-05-03T09:59:44.022Z</time></trkpt><trkpt lat="42.2226726" lon="13.8226569"><ele>327.3333333333333</ele><time>2026-05-03T09:59:45.022Z</time></trkpt><trkpt lat="42.2224956" lon="13.8226155"><ele>326.6666666666667</ele><time>2026-05-03T09:59:46.022Z</time></trkpt><trkpt lat="42.2223152" lon="13.8225685"><ele>326.0</ele><time>2026-05-03T09:59:47.022Z</time></trkpt><trkpt lat="42.2221516" lon="13.8225173"><ele>326.0</ele><time>2026-05-03T09:59:48.022Z</time></trkpt><trkpt lat="42.2220169" lon="13.8224706"><ele>326.0</ele><time>2026-05-03T09:59:49.022Z</time></trkpt><trkpt lat="42.221877" lon="13.8224302"><ele>326.0</ele><time>2026-05-03T09:59:50.022Z</time></trkpt><trkpt lat="42.2217442" lon="13.8223764"><ele>326.0</ele><time>2026-05-03T09:59:51.022Z</time></trkpt><trkpt lat="42.2216221" lon="13.8223249"><ele>326.0</ele><time>2026-05-03T09:59:52.022Z</time></trkpt><trkpt lat="42.2215099" lon="13.8223012"><ele>326.0</ele><time>2026-05-03T09:59:53.022Z</time></trkpt><trkpt lat="42.2213854" lon="13.82228"><ele>326.0</ele><time>2026-05-03T09:59:54.022Z</time></trkpt><trkpt lat="42.2212499" lon="13.8222526"><ele>326.0</ele><time>2026-05-03T09:59:55.022Z</time></trkpt><trkpt lat="42.2211112" lon="13.8222486"><ele>326.75</ele><time>2026-05-03T09:59:56.022Z</time></trkpt><trkpt lat="42.2209849" lon="13.8222639"><ele>327.5</ele><time>2026-05-03T09:59:57.022Z</time></trkpt><trkpt lat="42.2208818" lon="13.8222916"><ele>328.25</ele><time>2026-05-03T09:59:58.022Z</time></trkpt><trkpt lat="42.2207763" lon="13.8223414"><ele>329.0</ele><time>2026-05-03T09:59:59.022Z</time></trkpt><trkpt lat="42.2206752" lon="13.8224293"><ele>327.75</ele><time>2026-05-03T10:00:00.022Z</time></trkpt><trkpt lat="42.2205735" lon="13.8225421"><ele>326.5</ele><time>2026-05-03T10:00:01.022Z</time></trkpt><trkpt lat="42.2204662" lon="13.8226776"><ele>325.25</ele><time>2026-05-03T10:00:02.022Z</time></trkpt><trkpt lat="42.2203511" lon="13.822824"><ele>324.0</ele><time>2026-05-03T10:00:03.022Z</time></trkpt><trkpt lat="42.2202419" lon="13.8229594"><ele>324.0</ele><time>2026-05-03T10:00:04.022Z</time></trkpt><trkpt lat="42.220134" lon="13.8230805"><ele>324.0</ele><time>2026-05-03T10:00:05.022Z</time></trkpt><trkpt lat="42.220033" lon="13.8231895"><ele>324.0</ele><time>2026-05-03T10:00:06.022Z</time></trkpt><trkpt lat="42.2199349" lon="13.8232951"><ele>324.0</ele><time>2026-05-03T10:00:07.022Z</time></trkpt><trkpt lat="42.2198387" lon="13.8234055"><ele>323.25</ele><time>2026-05-03T10:00:08.022Z</time></trkpt><trkpt lat="42.2197441" lon="13.823518"><ele>322.5</ele><time>2026-05-03T10:00:09.022Z</time></trkpt><trkpt lat="42.2196527" lon="13.8236201"><ele>321.75</ele><time>2026-05-03T10:00:10.022Z</time></trkpt><trkpt lat="42.2195525" lon="13.8237078"><ele>321.0</ele><time>2026-05-03T10:00:11.022Z</time></trkpt><trkpt lat="42.2194566" lon="13.8237804"><ele>321.0</ele><time>2026-05-03T10:00:12.022Z</time></trkpt><trkpt lat="42.2193328" lon="13.8238458"><ele>321.0</ele><time>2026-05-03T10:00:13.022Z</time></trkpt><trkpt lat="42.2192121" lon="13.8239092"><ele>321.0</ele><time>2026-05-03T10:00:14.022Z</time></trkpt><trkpt lat="42.2190866" lon="13.8239712"><ele>321.0</ele><time>2026-05-03T10:00:15.022Z</time></trkpt><trkpt lat="42.2189565" lon="13.8240372"><ele>321.25</ele><time>2026-05-03T10:00:16.023Z</time></trkpt><trkpt lat="42.2188324" lon="13.8241046"><ele>321.5</ele><time>2026-05-03T10:00:17.022Z</time></trkpt><trkpt lat="42.2187014" lon="13.824168"><ele>321.75</ele><time>2026-05-03T10:00:18.022Z</time></trkpt><trkpt lat="42.2185768" lon="13.8242159"><ele>322.0</ele><time>2026-05-03T10:00:19.022Z</time></trkpt><trkpt lat="42.2184639" lon="13.8242644"><ele>322.0</ele><time>2026-05-03T10:00:20.022Z</time></trkpt><trkpt lat="42.2183525" lon="13.8243039"><ele>322.0</ele><time>2026-05-03T10:00:21.022Z</time></trkpt><trkpt lat="42.2182433" lon="13.8243511"><ele>322.0</ele><time>2026-05-03T10:00:22.022Z</time></trkpt><trkpt lat="42.2181403" lon="13.82439"><ele>322.0</ele><time>2026-05-03T10:00:23.022Z</time></trkpt><trkpt lat="42.2180424" lon="13.8244182"><ele>322.0</ele><time>2026-05-03T10:00:24.022Z</time></trkpt><trkpt lat="42.2179468" lon="13.8244552"><ele>322.5</ele><time>2026-05-03T10:00:25.022Z</time></trkpt><trkpt lat="42.2178415" lon="13.8245064"><ele>323.0</ele><time>2026-05-03T10:00:26.023Z</time></trkpt><trkpt lat="42.2177283" lon="13.8245686"><ele>323.5</ele><time>2026-05-03T10:00:27.022Z</time></trkpt><trkpt lat="42.2176195" lon="13.8246256"><ele>324.0</ele><time>2026-05-03T10:00:28.022Z</time></trkpt><trkpt lat="42.2175142" lon="13.8246812"><ele>324.0</ele><time>2026-05-03T10:00:29.022Z</time></trkpt><trkpt lat="42.2174195" lon="13.8247319"><ele>324.0</ele><time>2026-05-03T10:00:30.023Z</time></trkpt><trkpt lat="42.2173371" lon="13.8247835"><ele>324.0</ele><time>2026-05-03T10:00:31.022Z</time></trkpt><trkpt lat="42.2172634" lon="13.8248273"><ele>324.0</ele><time>2026-05-03T10:00:32.022Z</time></trkpt><trkpt lat="42.2171988" lon="13.8248676"><ele>324.0</ele><time>2026-05-03T10:00:33.022Z</time></trkpt><trkpt lat="42.2170936" lon="13.8248947"><ele>323.6</ele><time>2026-05-03T10:00:35.022Z</time></trkpt><trkpt lat="42.2170031" lon="13.8248519"><ele>323.2</ele><time>2026-05-03T10:00:37.022Z</time></trkpt><trkpt lat="42.2169405" lon="13.8247317"><ele>322.8</ele><time>2026-05-03T10:00:39.022Z</time></trkpt><trkpt lat="42.2169037" lon="13.8246134"><ele>322.40000000000003</ele><time>2026-05-03T10:00:41.022Z</time></trkpt><trkpt lat="42.2168594" lon="13.8245193"><ele>322.0</ele><time>2026-05-03T10:01:03.022Z</time></trkpt><trkpt lat="42.2168115" lon="13.824411"><ele>321.40000000000003</ele><time>2026-05-03T10:01:05.022Z</time></trkpt><trkpt lat="42.2167418" lon="13.8242636"><ele>320.8</ele><time>2026-05-03T10:01:07.022Z</time></trkpt><trkpt lat="42.2167053" lon="13.8241777"><ele>320.2</ele><time>2026-05-03T10:01:08.022Z</time></trkpt><trkpt lat="42.2166635" lon="13.8240805"><ele>319.6</ele><time>2026-05-03T10:01:09.022Z</time></trkpt><trkpt lat="42.2166257" lon="13.82398"><ele>319.0</ele><time>2026-05-03T10:01:10.022Z</time></trkpt><trkpt lat="42.2165818" lon="13.8238665"><ele>319.0</ele><time>2026-05-03T10:01:11.023Z</time></trkpt><trkpt lat="42.2165335" lon="13.8237544"><ele>319.0</ele><time>2026-05-03T10:01:12.022Z</time></trkpt><trkpt lat="42.2164841" lon="13.8236447"><ele>319.0</ele><time>2026-05-03T10:01:13.022Z</time></trkpt><trkpt lat="42.2164346" lon="13.823524"><ele>319.0</ele><time>2026-05-03T10:01:14.022Z</time></trkpt><trkpt lat="42.2163836" lon="13.8234015"><ele>319.0</ele><time>2026-05-03T10:01:15.003Z</time></trkpt><trkpt lat="42.216329" lon="13.8232755"><ele>317.8</ele><time>2026-05-03T10:01:16.017Z</time></trkpt><trkpt lat="42.2162756" lon="13.8231452"><ele>316.59999999999997</ele><time>2026-05-03T10:01:17.011Z</time></trkpt><trkpt lat="42.2162234" lon="13.8230098"><ele>315.4</ele><time>2026-05-03T10:01:18.013Z</time></trkpt><trkpt lat="42.2161713" lon="13.8228827"><ele>314.2</ele><time>2026-05-03T10:01:19.012Z</time></trkpt><trkpt lat="42.2161174" lon="13.822765"><ele>313.0</ele><time>2026-05-03T10:01:20.01Z</time></trkpt><trkpt lat="42.2160648" lon="13.8226502"><ele>313.4</ele><time>2026-05-03T10:01:21.01Z</time></trkpt><trkpt lat="42.2160136" lon="13.8225468"><ele>313.8</ele><time>2026-05-03T10:01:22.011Z</time></trkpt><trkpt lat="42.2159533" lon="13.8224527"><ele>314.2</ele><time>2026-05-03T10:01:23.01Z</time></trkpt><trkpt lat="42.2158807" lon="13.8223782"><ele>314.6</ele><time>2026-05-03T10:01:24.01Z</time></trkpt><trkpt lat="42.215789" lon="13.8223287"><ele>315.0</ele><time>2026-05-03T10:01:25.01Z</time></trkpt><trkpt lat="42.2157039" lon="13.8223066"><ele>315.4</ele><time>2026-05-03T10:01:26.01Z</time></trkpt><trkpt lat="42.2156008" lon="13.8222993"><ele>315.8</ele><time>2026-05-03T10:01:27.01Z</time></trkpt><trkpt lat="42.2154975" lon="13.8223222"><ele>316.2</ele><time>2026-05-03T10:01:28.01Z</time></trkpt><trkpt lat="42.2153969" lon="13.822366"><ele>316.6</ele><time>2026-05-03T10:01:29.01Z</time></trkpt><trkpt lat="42.2152933" lon="13.8224222"><ele>317.0</ele><time>2026-05-03T10:01:30.01Z</time></trkpt><trkpt lat="42.2151844" lon="13.8224778"><ele>317.0</ele><time>2026-05-03T10:01:31.01Z</time></trkpt><trkpt lat="42.2150762" lon="13.8225397"><ele>317.0</ele><time>2026-05-03T10:01:32.01Z</time></trkpt><trkpt lat="42.2149678" lon="13.8225993"><ele>317.0</ele><time>2026-05-03T10:01:33.01Z</time></trkpt><trkpt lat="42.2148692" lon="13.8226534"><ele>317.0</ele><time>2026-05-03T10:01:34.01Z</time></trkpt><trkpt lat="42.2147772" lon="13.8227081"><ele>317.0</ele><time>2026-05-03T10:01:35.01Z</time></trkpt><trkpt lat="42.2146879" lon="13.8227499"><ele>317.0</ele><time>2026-05-03T10:01:36.01Z</time></trkpt><trkpt lat="42.214602" lon="13.8227738"><ele>317.0</ele><time>2026-05-03T10:01:37.01Z</time></trkpt><trkpt lat="42.2145144" lon="13.822775"><ele>317.0</ele><time>2026-05-03T10:01:38.01Z</time></trkpt><trkpt lat="42.214433" lon="13.8227429"><ele>317.0</ele><time>2026-05-03T10:01:39.01Z</time></trkpt><trkpt lat="42.2143595" lon="13.8226917"><ele>317.0</ele><time>2026-05-03T10:01:40.01Z</time></trkpt><trkpt lat="42.2142957" lon="13.8226358"><ele>317.0</ele><time>2026-05-03T10:01:41.01Z</time></trkpt><trkpt lat="42.2142381" lon="13.8225732"><ele>317.0</ele><time>2026-05-03T10:01:42.01Z</time></trkpt><trkpt lat="42.2141889" lon="13.8225027"><ele>317.0</ele><time>2026-05-03T10:01:43.01Z</time></trkpt><trkpt lat="42.2141436" lon="13.8224276"><ele>317.0</ele><time>2026-05-03T10:01:44.01Z</time></trkpt><trkpt lat="42.2141025" lon="13.8223486"><ele>317.0</ele><time>2026-05-03T10:01:45.01Z</time></trkpt><trkpt lat="42.2140712" lon="13.8222731"><ele>317.0</ele><time>2026-05-03T10:01:46.01Z</time></trkpt><trkpt lat="42.2140465" lon="13.8221364"><ele>317.0</ele><time>2026-05-03T10:01:48.01Z</time></trkpt><trkpt lat="42.2140697" lon="13.8220315"><ele>317.0</ele><time>2026-05-03T10:01:50.011Z</time></trkpt><trkpt lat="42.2141473" lon="13.8219438"><ele>317.0</ele><time>2026-05-03T10:01:52.01Z</time></trkpt><trkpt lat="42.214203" lon="13.8218915"><ele>317.0</ele><time>2026-05-03T10:01:53.011Z</time></trkpt><trkpt lat="42.2142633" lon="13.8218313"><ele>317.0</ele><time>2026-05-03T10:01:54.01Z</time></trkpt><trkpt lat="42.214327" lon="13.8217618"><ele>317.0</ele><time>2026-05-03T10:01:55.01Z</time></trkpt><trkpt lat="42.2143915" lon="13.8216828"><ele>317.0</ele><time>2026-05-03T10:01:56.01Z</time></trkpt><trkpt lat="42.2144524" lon="13.8216011"><ele>317.33333333333337</ele><time>2026-05-03T10:01:57.01Z</time></trkpt><trkpt lat="42.2145102" lon="13.8215194"><ele>317.6666666666667</ele><time>2026-05-03T10:01:58.01Z</time></trkpt><trkpt lat="42.2145606" lon="13.821442"><ele>318.0</ele><time>2026-05-03T10:01:59.01Z</time></trkpt><trkpt lat="42.2146091" lon="13.8213677"><ele>318.3333333333333</ele><time>2026-05-03T10:02:00.01Z</time></trkpt><trkpt lat="42.2146595" lon="13.821288"><ele>318.66666666666663</ele><time>2026-05-03T10:02:01.01Z</time></trkpt><trkpt lat="42.2147127" lon="13.8212042"><ele>319.0</ele><time>2026-05-03T10:02:02.011Z</time></trkpt><trkpt lat="42.2147719" lon="13.8211182"><ele>319.0</ele><time>2026-05-03T10:02:03.01Z</time></trkpt><trkpt lat="42.2148347" lon="13.8210308"><ele>319.0</ele><time>2026-05-03T10:02:04.01Z</time></trkpt><trkpt lat="42.2148985" lon="13.8209369"><ele>319.0</ele><time>2026-05-03T10:02:05.01Z</time></trkpt><trkpt lat="42.2149622" lon="13.8208431"><ele>319.0</ele><time>2026-05-03T10:02:06.01Z</time></trkpt><trkpt lat="42.215023" lon="13.8207548"><ele>319.0</ele><time>2026-05-03T10:02:07.01Z</time></trkpt><trkpt lat="42.2150794" lon="13.8206723"><ele>319.0</ele><time>2026-05-03T10:02:08.01Z</time></trkpt><trkpt lat="42.2151313" lon="13.8205988"><ele>319.0</ele><time>2026-05-03T10:02:09.01Z</time></trkpt><trkpt lat="42.2151785" lon="13.8205317"><ele>319.0</ele><time>2026-05-03T10:02:10.01Z</time></trkpt><trkpt lat="42.215244" lon="13.8204028"><ele>319.0</ele><time>2026-05-03T10:02:12.01Z</time></trkpt><trkpt lat="42.2152423" lon="13.8202776"><ele>319.0</ele><time>2026-05-03T10:02:14.01Z</time></trkpt><trkpt lat="42.2151874" lon="13.8202009"><ele>319.0</ele><time>2026-05-03T10:02:16.01Z</time></trkpt><trkpt lat="42.2151237" lon="13.8202067"><ele>319.0</ele><time>2026-05-03T10:02:18.01Z</time></trkpt><trkpt lat="42.2150646" lon="13.8202598"><ele>319.0</ele><time>2026-05-03T10:02:25.01Z</time></trkpt><trkpt lat="42.2150313" lon="13.8203417"><ele>319.0</ele><time>2026-05-03T10:02:27.01Z</time></trkpt><trkpt lat="42.2149964" lon="13.8204914"><ele>319.0</ele><time>2026-05-03T10:02:29.01Z</time></trkpt><trkpt lat="42.2149845" lon="13.8205779"><ele>319.0</ele><time>2026-05-03T10:02:30.01Z</time></trkpt><trkpt lat="42.2149593" lon="13.8207371"><ele>319.0</ele><time>2026-05-03T10:02:32.01Z</time></trkpt><trkpt lat="42.2148892" lon="13.8208858"><ele>319.0</ele><time>2026-05-03T10:02:34.01Z</time></trkpt><trkpt lat="42.2148483" lon="13.8209685"><ele>319.0</ele><time>2026-05-03T10:02:35.022Z</time></trkpt><trkpt lat="42.2148113" lon="13.8210388"><ele>319.0</ele><time>2026-05-03T10:02:36.023Z</time></trkpt><trkpt lat="42.2147443" lon="13.8211462"><ele>319.0</ele><time>2026-05-03T10:02:38.022Z</time></trkpt><trkpt lat="42.2147007" lon="13.8212167"><ele>319.0</ele><time>2026-05-03T10:02:40.022Z</time></trkpt><trkpt lat="42.2146422" lon="13.8212918"><ele>319.0</ele><time>2026-05-03T10:02:43.022Z</time></trkpt><trkpt lat="42.2146059" lon="13.8213647"><ele>319.0</ele><time>2026-05-03T10:02:45.022Z</time></trkpt><trkpt lat="42.2145397" lon="13.8214508"><ele>319.0</ele><time>2026-05-03T10:02:47.022Z</time></trkpt><trkpt lat="42.2144586" lon="13.8215529"><ele>319.0</ele><time>2026-05-03T10:02:49.022Z</time></trkpt><trkpt lat="42.2143901" lon="13.8216489"><ele>319.0</ele><time>2026-05-03T10:02:51.022Z</time></trkpt><trkpt lat="42.2143363" lon="13.8217265"><ele>319.0</ele><time>2026-05-03T10:02:53.022Z</time></trkpt><trkpt lat="42.2142843" lon="13.8217831"><ele>319.0</ele><time>2026-05-03T10:02:55.022Z</time></trkpt><trkpt lat="42.2142079" lon="13.8218513"><ele>318.59999999999997</ele><time>2026-05-03T10:02:57.022Z</time></trkpt><trkpt lat="42.2141248" lon="13.8219378"><ele>318.2</ele><time>2026-05-03T10:02:59.022Z</time></trkpt><trkpt lat="42.2140272" lon="13.8220001"><ele>317.79999999999995</ele><time>2026-05-03T10:03:01.022Z</time></trkpt><trkpt lat="42.2139252" lon="13.8220395"><ele>317.4</ele><time>2026-05-03T10:03:03.022Z</time></trkpt><trkpt lat="42.213857" lon="13.8220675"><ele>317.0</ele><time>2026-05-03T10:03:05.022Z</time></trkpt><trkpt lat="42.2137911" lon="13.8219914"><ele>317.0</ele><time>2026-05-03T10:03:08.022Z</time></trkpt><trkpt lat="42.2137744" lon="13.8218698"><ele>317.0</ele><time>2026-05-03T10:03:10.022Z</time></trkpt><trkpt lat="42.2137721" lon="13.8216982"><ele>317.0</ele><time>2026-05-03T10:03:12.022Z</time></trkpt><trkpt lat="42.2137634" lon="13.8216022"><ele>317.0</ele><time>2026-05-03T10:03:13.023Z</time></trkpt><trkpt lat="42.2137578" lon="13.8214921"><ele>317.0</ele><time>2026-05-03T10:03:14.022Z</time></trkpt><trkpt lat="42.2137532" lon="13.8213784"><ele>317.1666666666667</ele><time>2026-05-03T10:03:15.022Z</time></trkpt><trkpt lat="42.2137542" lon="13.8212551"><ele>317.33333333333337</ele><time>2026-05-03T10:03:16.022Z</time></trkpt><trkpt lat="42.213756" lon="13.821145"><ele>317.5</ele><time>2026-05-03T10:03:17.022Z</time></trkpt><trkpt lat="42.2137684" lon="13.8210437"><ele>317.6666666666667</ele><time>2026-05-03T10:03:18.022Z</time></trkpt><trkpt lat="42.2137907" lon="13.8209426"><ele>317.8333333333333</ele><time>2026-05-03T10:03:19.022Z</time></trkpt><trkpt lat="42.213805" lon="13.820857"><ele>318.0</ele><time>2026-05-03T10:03:20.022Z</time></trkpt><trkpt lat="42.2138225" lon="13.8207203"><ele>318.0</ele><time>2026-05-03T10:03:22.022Z</time></trkpt><trkpt lat="42.21383" lon="13.8206229"><ele>318.0</ele><time>2026-05-03T10:03:24.022Z</time></trkpt><trkpt lat="42.2138031" lon="13.8207353"><ele>318.0</ele><time>2026-05-03T10:03:31.022Z</time></trkpt><trkpt lat="42.2137866" lon="13.8208653"><ele>318.0</ele><time>2026-05-03T10:03:33.022Z</time></trkpt><trkpt lat="42.2137742" lon="13.8209552"><ele>318.0</ele><time>2026-05-03T10:03:34.022Z</time></trkpt><trkpt lat="42.213758" lon="13.8210482"><ele>318.0</ele><time>2026-05-03T10:03:35.022Z</time></trkpt><trkpt lat="42.213751" lon="13.8211536"><ele>318.0</ele><time>2026-05-03T10:03:36.022Z</time></trkpt><trkpt lat="42.2137506" lon="13.821269"><ele>318.0</ele><time>2026-05-03T10:03:37.022Z</time></trkpt><trkpt lat="42.2137556" lon="13.8213827"><ele>318.0</ele><time>2026-05-03T10:03:38.022Z</time></trkpt><trkpt lat="42.2137575" lon="13.8214795"><ele>318.0</ele><time>2026-05-03T10:03:39.022Z</time></trkpt><trkpt lat="42.213761" lon="13.8215789"><ele>318.0</ele><time>2026-05-03T10:03:40.022Z</time></trkpt><trkpt lat="42.213768" lon="13.8217362"><ele>318.0</ele><time>2026-05-03T10:03:42.023Z</time></trkpt><trkpt lat="42.2137652" lon="13.8218346"><ele>317.8333333333333</ele><time>2026-05-03T10:03:44.022Z</time></trkpt><trkpt lat="42.213777" lon="13.8219323"><ele>317.6666666666667</ele><time>2026-05-03T10:03:48.022Z</time></trkpt><trkpt lat="42.2137827" lon="13.8220189"><ele>317.5</ele><time>2026-05-03T10:03:51.022Z</time></trkpt><trkpt lat="42.2137402" lon="13.8220927"><ele>317.33333333333337</ele><time>2026-05-03T10:03:54.022Z</time></trkpt><trkpt lat="42.2136564" lon="13.8221287"><ele>317.1666666666667</ele><time>2026-05-03T10:03:56.023Z</time></trkpt><trkpt lat="42.2135404" lon="13.8221643"><ele>317.0</ele><time>2026-05-03T10:03:58.022Z</time></trkpt><trkpt lat="42.2134628" lon="13.8221981"><ele>317.0</ele><time>2026-05-03T10:03:59.022Z</time></trkpt><trkpt lat="42.2133809" lon="13.8222276"><ele>317.0</ele><time>2026-05-03T10:04:00.022Z</time></trkpt><trkpt lat="42.2133063" lon="13.8222507"><ele>317.0</ele><time>2026-05-03T10:04:01.022Z</time></trkpt><trkpt lat="42.2132398" lon="13.8222607"><ele>317.0</ele><time>2026-05-03T10:04:02.022Z</time></trkpt><trkpt lat="42.2131417" lon="13.8222365"><ele>317.0</ele><time>2026-05-03T10:04:04.022Z</time></trkpt><trkpt lat="42.2131271" lon="13.8221459"><ele>317.0</ele><time>2026-05-03T10:04:05.023Z</time></trkpt><trkpt lat="42.21312" lon="13.822061"><ele>317.2</ele><time>2026-05-03T10:04:06.022Z</time></trkpt><trkpt lat="42.2131229" lon="13.8219585"><ele>317.4</ele><time>2026-05-03T10:04:07.022Z</time></trkpt><trkpt lat="42.2131395" lon="13.8218364"><ele>317.6</ele><time>2026-05-03T10:04:08.022Z</time></trkpt><trkpt lat="42.213157" lon="13.821698"><ele>317.8</ele><time>2026-05-03T10:04:09.023Z</time></trkpt><trkpt lat="42.213173" lon="13.8215444"><ele>318.0</ele><time>2026-05-03T10:04:10.022Z</time></trkpt><trkpt lat="42.213193" lon="13.8213806"><ele>318.0</ele><time>2026-05-03T10:04:11.023Z</time></trkpt><trkpt lat="42.2132067" lon="13.8212247"><ele>318.0</ele><time>2026-05-03T10:04:12.022Z</time></trkpt><trkpt lat="42.2132202" lon="13.821069"><ele>318.0</ele><time>2026-05-03T10:04:13.022Z</time></trkpt><trkpt lat="42.2132231" lon="13.8209153"><ele>318.0</ele><time>2026-05-03T10:04:14.022Z</time></trkpt><trkpt lat="42.2132123" lon="13.820752"><ele>317.4</ele><time>2026-05-03T10:04:15.022Z</time></trkpt><trkpt lat="42.2131959" lon="13.820599"><ele>316.8</ele><time>2026-05-03T10:04:16.022Z</time></trkpt><trkpt lat="42.2131818" lon="13.8204611"><ele>316.2</ele><time>2026-05-03T10:04:17.022Z</time></trkpt><trkpt lat="42.2131826" lon="13.8203305"><ele>315.6</ele><time>2026-05-03T10:04:18.022Z</time></trkpt><trkpt lat="42.2131957" lon="13.8202107"><ele>315.0</ele><time>2026-05-03T10:04:19.022Z</time></trkpt><trkpt lat="42.213235" lon="13.8201096"><ele>315.0</ele><time>2026-05-03T10:04:20.022Z</time></trkpt><trkpt lat="42.2133035" lon="13.8200411"><ele>315.0</ele><time>2026-05-03T10:04:21.022Z</time></trkpt><trkpt lat="42.2133819" lon="13.8200103"><ele>315.0</ele><time>2026-05-03T10:04:22.022Z</time></trkpt><trkpt lat="42.2134663" lon="13.820018"><ele>315.0</ele><time>2026-05-03T10:04:23.022Z</time></trkpt><trkpt lat="42.2135383" lon="13.8200705"><ele>315.0</ele><time>2026-05-03T10:04:24.023Z</time></trkpt><trkpt lat="42.2136002" lon="13.8201368"><ele>315.0</ele><time>2026-05-03T10:04:25.022Z</time></trkpt><trkpt lat="42.2136018" lon="13.8202315"><ele>315.0</ele><time>2026-05-03T10:04:26.022Z</time></trkpt><trkpt lat="42.2136018" lon="13.8203173"><ele>315.0</ele><time>2026-05-03T10:04:27.022Z</time></trkpt><trkpt lat="42.2135743" lon="13.820394"><ele>315.0</ele><time>2026-05-03T10:04:28.022Z</time></trkpt><trkpt lat="42.2135329" lon="13.8204644"><ele>315.0</ele><time>2026-05-03T10:04:29.022Z</time></trkpt><trkpt lat="42.2134603" lon="13.8205244"><ele>315.0</ele><time>2026-05-03T10:04:30.022Z</time></trkpt><trkpt lat="42.2133676" lon="13.8205916"><ele>315.0</ele><time>2026-05-03T10:04:31.022Z</time></trkpt><trkpt lat="42.2132585" lon="13.8206702"><ele>314.6666666666667</ele><time>2026-05-03T10:04:32.022Z</time></trkpt><trkpt lat="42.2131273" lon="13.8207583"><ele>314.33333333333337</ele><time>2026-05-03T10:04:33.022Z</time></trkpt><trkpt lat="42.2129828" lon="13.8208593"><ele>314.0</ele><time>2026-05-03T10:04:34.022Z</time></trkpt><trkpt lat="42.2128295" lon="13.8209694"><ele>314.33333333333337</ele><time>2026-05-03T10:04:35.022Z</time></trkpt><trkpt lat="42.2126678" lon="13.8210841"><ele>314.6666666666667</ele><time>2026-05-03T10:04:36.022Z</time></trkpt><trkpt lat="42.2124955" lon="13.8211944"><ele>315.0</ele><time>2026-05-03T10:04:37.022Z</time></trkpt><trkpt lat="42.2123152" lon="13.8213102"><ele>315.3333333333333</ele><time>2026-05-03T10:04:38.022Z</time></trkpt><trkpt lat="42.2121292" lon="13.8214343"><ele>315.66666666666663</ele><time>2026-05-03T10:04:39.022Z</time></trkpt><trkpt lat="42.2119425" lon="13.8215567"><ele>316.0</ele><time>2026-05-03T10:04:40.022Z</time></trkpt><trkpt lat="42.211759" lon="13.8216763"><ele>316.0</ele><time>2026-05-03T10:04:41.022Z</time></trkpt><trkpt lat="42.2115739" lon="13.8217908"><ele>316.0</ele><time>2026-05-03T10:04:42.022Z</time></trkpt><trkpt lat="42.2113932" lon="13.8219014"><ele>316.0</ele><time>2026-05-03T10:04:43.022Z</time></trkpt><trkpt lat="42.2112195" lon="13.8220087"><ele>314.66666666666663</ele><time>2026-05-03T10:04:44.022Z</time></trkpt><trkpt lat="42.2110489" lon="13.8221147"><ele>313.3333333333333</ele><time>2026-05-03T10:04:45.022Z</time></trkpt><trkpt lat="42.2108777" lon="13.8222267"><ele>312.0</ele><time>2026-05-03T10:04:46.022Z</time></trkpt><trkpt lat="42.2107047" lon="13.8223422"><ele>311.6666666666667</ele><time>2026-05-03T10:04:47.022Z</time></trkpt><trkpt lat="42.2105282" lon="13.8224576"><ele>311.33333333333337</ele><time>2026-05-03T10:04:48.022Z</time></trkpt><trkpt lat="42.2103494" lon="13.8225746"><ele>311.0</ele><time>2026-05-03T10:04:49.022Z</time></trkpt><trkpt lat="42.2101702" lon="13.8226906"><ele>311.0</ele><time>2026-05-03T10:04:50.022Z</time></trkpt><trkpt lat="42.209993" lon="13.822805"><ele>311.0</ele><time>2026-05-03T10:04:51.022Z</time></trkpt><trkpt lat="42.2098161" lon="13.822919"><ele>311.0</ele><time>2026-05-03T10:04:52.022Z</time></trkpt><trkpt lat="42.2096364" lon="13.8230378"><ele>313.0</ele><time>2026-05-03T10:04:53.023Z</time></trkpt><trkpt lat="42.2094641" lon="13.8231549"><ele>315.0</ele><time>2026-05-03T10:04:54.022Z</time></trkpt><trkpt lat="42.2092905" lon="13.8232739"><ele>317.0</ele><time>2026-05-03T10:04:55.022Z</time></trkpt><trkpt lat="42.2091177" lon="13.8234019"><ele>317.6666666666667</ele><time>2026-05-03T10:04:56.023Z</time></trkpt><trkpt lat="42.208946" lon="13.823534"><ele>318.3333333333333</ele><time>2026-05-03T10:04:57.023Z</time></trkpt><trkpt lat="42.2087744" lon="13.8236807"><ele>319.0</ele><time>2026-05-03T10:04:58.022Z</time></trkpt><trkpt lat="42.2086076" lon="13.8238378"><ele>319.0</ele><time>2026-05-03T10:04:59.022Z</time></trkpt><trkpt lat="42.2084488" lon="13.8239991"><ele>319.0</ele><time>2026-05-03T10:05:00.022Z</time></trkpt><trkpt lat="42.2082953" lon="13.8241676"><ele>319.0</ele><time>2026-05-03T10:05:01.022Z</time></trkpt><trkpt lat="42.2081511" lon="13.8243415"><ele>322.3333333333333</ele><time>2026-05-03T10:05:02.022Z</time></trkpt><trkpt lat="42.2080083" lon="13.8245274"><ele>325.6666666666667</ele><time>2026-05-03T10:05:03.022Z</time></trkpt><trkpt lat="42.2078789" lon="13.8247205"><ele>329.0</ele><time>2026-05-03T10:05:04.022Z</time></trkpt><trkpt lat="42.2077556" lon="13.8249283"><ele>329.0</ele><time>2026-05-03T10:05:05.022Z</time></trkpt><trkpt lat="42.2076362" lon="13.8251412"><ele>329.0</ele><time>2026-05-03T10:05:06.022Z</time></trkpt><trkpt lat="42.2075221" lon="13.8253614"><ele>329.0</ele><time>2026-05-03T10:05:07.023Z</time></trkpt><trkpt lat="42.2074097" lon="13.8255837"><ele>332.6666666666667</ele><time>2026-05-03T10:05:08.023Z</time></trkpt><trkpt lat="42.2072982" lon="13.8257941"><ele>336.3333333333333</ele><time>2026-05-03T10:05:09.022Z</time></trkpt><trkpt lat="42.2071831" lon="13.8260028"><ele>340.0</ele><time>2026-05-03T10:05:10.022Z</time></trkpt><trkpt lat="42.2070566" lon="13.826207"><ele>331.0</ele><time>2026-05-03T10:05:11.022Z</time></trkpt><trkpt lat="42.206923" lon="13.8264028"><ele>322.0</ele><time>2026-05-03T10:05:12.022Z</time></trkpt><trkpt lat="42.2067799" lon="13.8265904"><ele>313.0</ele><time>2026-05-03T10:05:13.022Z</time></trkpt><trkpt lat="42.2066364" lon="13.8267708"><ele>316.66666666666663</ele><time>2026-05-03T10:05:14.022Z</time></trkpt><trkpt lat="42.2064951" lon="13.8269543"><ele>320.3333333333333</ele><time>2026-05-03T10:05:15.022Z</time></trkpt><trkpt lat="42.2063567" lon="13.8271383"><ele>324.0</ele><time>2026-05-03T10:05:16.022Z</time></trkpt><trkpt lat="42.2062301" lon="13.8273408"><ele>324.0</ele><time>2026-05-03T10:05:17.022Z</time></trkpt><trkpt lat="42.2061187" lon="13.827559"><ele>324.0</ele><time>2026-05-03T10:05:18.022Z</time></trkpt><trkpt lat="42.2060263" lon="13.8277898"><ele>324.0</ele><time>2026-05-03T10:05:19.022Z</time></trkpt><trkpt lat="42.2059498" lon="13.8280298"><ele>317.6666666666667</ele><time>2026-05-03T10:05:20.022Z</time></trkpt><trkpt lat="42.205886" lon="13.8282792"><ele>311.33333333333337</ele><time>2026-05-03T10:05:21.022Z</time></trkpt><trkpt lat="42.2058336" lon="13.828544"><ele>305.0</ele><time>2026-05-03T10:05:22.022Z</time></trkpt><trkpt lat="42.2057837" lon="13.8288045"><ele>308.0</ele><time>2026-05-03T10:05:23.023Z</time></trkpt><trkpt lat="42.2057351" lon="13.8290618"><ele>311.0</ele><time>2026-05-03T10:05:24.022Z</time></trkpt><trkpt lat="42.2056891" lon="13.8293204"><ele>314.0</ele><time>2026-05-03T10:05:25.022Z</time></trkpt><trkpt lat="42.2056423" lon="13.8295774"><ele>314.0</ele><time>2026-05-03T10:05:26.022Z</time></trkpt><trkpt lat="42.2055953" lon="13.8298389"><ele>314.0</ele><time>2026-05-03T10:05:27.022Z</time></trkpt><trkpt lat="42.2055479" lon="13.8300927"><ele>314.0</ele><time>2026-05-03T10:05:28.022Z</time></trkpt><trkpt lat="42.2055057" lon="13.8303532"><ele>310.6666666666667</ele><time>2026-05-03T10:05:29.022Z</time></trkpt><trkpt lat="42.2054617" lon="13.8306102"><ele>307.3333333333333</ele><time>2026-05-03T10:05:30.022Z</time></trkpt><trkpt lat="42.2054174" lon="13.8308705"><ele>304.0</ele><time>2026-05-03T10:05:31.022Z</time></trkpt><trkpt lat="42.2053711" lon="13.831127"><ele>301.3333333333333</ele><time>2026-05-03T10:05:32.022Z</time></trkpt><trkpt lat="42.2053222" lon="13.8313848"><ele>298.6666666666667</ele><time>2026-05-03T10:05:33.022Z</time></trkpt><trkpt lat="42.2052683" lon="13.8316421"><ele>296.0</ele><time>2026-05-03T10:05:34.022Z</time></trkpt><trkpt lat="42.2052052" lon="13.8318885"><ele>291.33333333333337</ele><time>2026-05-03T10:05:35.022Z</time></trkpt><trkpt lat="42.2051289" lon="13.832124"><ele>286.6666666666667</ele><time>2026-05-03T10:05:36.022Z</time></trkpt><trkpt lat="42.2050491" lon="13.8323642"><ele>282.0</ele><time>2026-05-03T10:05:37.023Z</time></trkpt><trkpt lat="42.2049603" lon="13.8326037"><ele>277.3333333333333</ele><time>2026-05-03T10:05:38.022Z</time></trkpt><trkpt lat="42.2048682" lon="13.8328392"><ele>272.66666666666663</ele><time>2026-05-03T10:05:39.022Z</time></trkpt><trkpt lat="42.2047753" lon="13.8330767"><ele>268.0</ele><time>2026-05-03T10:05:40.022Z</time></trkpt><trkpt lat="42.2046798" lon="13.8333082"><ele>272.66666666666663</ele><time>2026-05-03T10:05:41.022Z</time></trkpt><trkpt lat="42.2045895" lon="13.8335436"><ele>277.3333333333333</ele><time>2026-05-03T10:05:42.022Z</time></trkpt><trkpt lat="42.2045008" lon="13.8337815"><ele>282.0</ele><time>2026-05-03T10:05:43.023Z</time></trkpt><trkpt lat="42.2044127" lon="13.8340206"><ele>282.0</ele><time>2026-05-03T10:05:44.022Z</time></trkpt><trkpt lat="42.2043222" lon="13.8342587"><ele>282.0</ele><time>2026-05-03T10:05:45.022Z</time></trkpt><trkpt lat="42.2042263" lon="13.834488"><ele>282.0</ele><time>2026-05-03T10:05:46.022Z</time></trkpt><trkpt lat="42.2041336" lon="13.8347246"><ele>279.6666666666667</ele><time>2026-05-03T10:05:47.022Z</time></trkpt><trkpt lat="42.2040389" lon="13.8349608"><ele>277.33333333333337</ele><time>2026-05-03T10:05:48.022Z</time></trkpt><trkpt lat="42.2039445" lon="13.8351995"><ele>275.0</ele><time>2026-05-03T10:05:49.022Z</time></trkpt><trkpt lat="42.2038379" lon="13.8354343"><ele>275.0</ele><time>2026-05-03T10:05:50.022Z</time></trkpt><trkpt lat="42.2037337" lon="13.8356703"><ele>275.0</ele><time>2026-05-03T10:05:51.022Z</time></trkpt><trkpt lat="42.2036079" lon="13.8358939"><ele>275.0</ele><time>2026-05-03T10:05:52.022Z</time></trkpt><trkpt lat="42.2034851" lon="13.836108"><ele>271.33333333333337</ele><time>2026-05-03T10:05:53.022Z</time></trkpt><trkpt lat="42.2033421" lon="13.8362988"><ele>267.6666666666667</ele><time>2026-05-03T10:05:54.022Z</time></trkpt><trkpt lat="42.2031832" lon="13.8364651"><ele>264.0</ele><time>2026-05-03T10:05:55.022Z</time></trkpt><trkpt lat="42.2030187" lon="13.8366208"><ele>264.0</ele><time>2026-05-03T10:05:56.022Z</time></trkpt><trkpt lat="42.2028431" lon="13.8367661"><ele>264.0</ele><time>2026-05-03T10:05:57.022Z</time></trkpt><trkpt lat="42.2026674" lon="13.8368921"><ele>264.0</ele><time>2026-05-03T10:05:58.022Z</time></trkpt><trkpt lat="42.2024839" lon="13.8370018"><ele>260.6666666666667</ele><time>2026-05-03T10:05:59.022Z</time></trkpt><trkpt lat="42.2022943" lon="13.837095"><ele>257.33333333333337</ele><time>2026-05-03T10:06:00.022Z</time></trkpt><trkpt lat="42.2021013" lon="13.8371674"><ele>254.0</ele><time>2026-05-03T10:06:01.022Z</time></trkpt><trkpt lat="42.2019065" lon="13.837229"><ele>254.0</ele><time>2026-05-03T10:06:02.022Z</time></trkpt><trkpt lat="42.2017119" lon="13.837275"><ele>254.0</ele><time>2026-05-03T10:06:03.022Z</time></trkpt><trkpt lat="42.2015115" lon="13.8373059"><ele>254.0</ele><time>2026-05-03T10:06:04.022Z</time></trkpt><trkpt lat="42.201314" lon="13.8373363"><ele>255.0</ele><time>2026-05-03T10:06:05.023Z</time></trkpt><trkpt lat="42.2011089" lon="13.8373698"><ele>256.0</ele><time>2026-05-03T10:06:06.022Z</time></trkpt><trkpt lat="42.2009042" lon="13.8373979"><ele>257.0</ele><time>2026-05-03T10:06:07.022Z</time></trkpt><trkpt lat="42.2007016" lon="13.8374221"><ele>259.0</ele><time>2026-05-03T10:06:08.022Z</time></trkpt><trkpt lat="42.2005002" lon="13.8374563"><ele>261.0</ele><time>2026-05-03T10:06:09.023Z</time></trkpt><trkpt lat="42.2002976" lon="13.8374931"><ele>263.0</ele><time>2026-05-03T10:06:10.022Z</time></trkpt><trkpt lat="42.2000997" lon="13.8375157"><ele>263.0</ele><time>2026-05-03T10:06:11.022Z</time></trkpt><trkpt lat="42.1999002" lon="13.8375449"><ele>263.0</ele><time>2026-05-03T10:06:12.023Z</time></trkpt><trkpt lat="42.1997043" lon="13.8375756"><ele>263.0</ele><time>2026-05-03T10:06:13.022Z</time></trkpt><trkpt lat="42.1995032" lon="13.8376068"><ele>264.0</ele><time>2026-05-03T10:06:14.023Z</time></trkpt><trkpt lat="42.1993021" lon="13.8376331"><ele>265.0</ele><time>2026-05-03T10:06:15.022Z</time></trkpt><trkpt lat="42.1991003" lon="13.83763"><ele>266.0</ele><time>2026-05-03T10:06:16.022Z</time></trkpt><trkpt lat="42.1989029" lon="13.8376028"><ele>266.0</ele><time>2026-05-03T10:06:17.022Z</time></trkpt><trkpt lat="42.1987006" lon="13.8375557"><ele>266.0</ele><time>2026-05-03T10:06:18.022Z</time></trkpt><trkpt lat="42.1985037" lon="13.8375052"><ele>266.0</ele><time>2026-05-03T10:06:19.022Z</time></trkpt><trkpt lat="42.1982993" lon="13.8374729"><ele>265.33333333333337</ele><time>2026-05-03T10:06:20.022Z</time></trkpt><trkpt lat="42.1980979" lon="13.8374596"><ele>264.6666666666667</ele><time>2026-05-03T10:06:21.022Z</time></trkpt><trkpt lat="42.1978994" lon="13.8374567"><ele>264.0</ele><time>2026-05-03T10:06:22.022Z</time></trkpt><trkpt lat="42.1977039" lon="13.837504"><ele>264.0</ele><time>2026-05-03T10:06:23.022Z</time></trkpt><trkpt lat="42.1975126" lon="13.8375755"><ele>264.0</ele><time>2026-05-03T10:06:24.022Z</time></trkpt><trkpt lat="42.1973294" lon="13.8376635"><ele>264.0</ele><time>2026-05-03T10:06:25.022Z</time></trkpt><trkpt lat="42.1971513" lon="13.8377743"><ele>265.6666666666667</ele><time>2026-05-03T10:06:26.022Z</time></trkpt><trkpt lat="42.1969769" lon="13.8379092"><ele>267.33333333333337</ele><time>2026-05-03T10:06:27.023Z</time></trkpt><trkpt lat="42.1968112" lon="13.8380694"><ele>269.0</ele><time>2026-05-03T10:06:28.022Z</time></trkpt><trkpt lat="42.1966579" lon="13.8382511"><ele>269.0</ele><time>2026-05-03T10:06:29.022Z</time></trkpt><trkpt lat="42.1965238" lon="13.8384476"><ele>269.0</ele><time>2026-05-03T10:06:30.022Z</time></trkpt><trkpt lat="42.1963943" lon="13.8386524"><ele>269.0</ele><time>2026-05-03T10:06:31.022Z</time></trkpt><trkpt lat="42.1962931" lon="13.8388814"><ele>273.0</ele><time>2026-05-03T10:06:32.022Z</time></trkpt><trkpt lat="42.196204" lon="13.8391067"><ele>277.0</ele><time>2026-05-03T10:06:33.022Z</time></trkpt><trkpt lat="42.1961329" lon="13.8393492"><ele>281.0</ele><time>2026-05-03T10:06:34.022Z</time></trkpt><trkpt lat="42.1960549" lon="13.839584"><ele>281.0</ele><time>2026-05-03T10:06:35.022Z</time></trkpt><trkpt lat="42.196042" lon="13.8398826"><ele>281.0</ele><time>2026-05-03T10:06:36.022Z</time></trkpt><trkpt lat="42.1960219" lon="13.8401474"><ele>281.0</ele><time>2026-05-03T10:06:37.022Z</time></trkpt><trkpt lat="42.196004" lon="13.8404194"><ele>279.0</ele><time>2026-05-03T10:06:38.022Z</time></trkpt><trkpt lat="42.1959827" lon="13.8406883"><ele>277.0</ele><time>2026-05-03T10:06:39.022Z</time></trkpt><trkpt lat="42.1959656" lon="13.8409614"><ele>275.0</ele><time>2026-05-03T10:06:40.022Z</time></trkpt><trkpt lat="42.1959464" lon="13.841235"><ele>272.33333333333337</ele><time>2026-05-03T10:06:41.022Z</time></trkpt><trkpt lat="42.1959125" lon="13.8415073"><ele>269.6666666666667</ele><time>2026-05-03T10:06:42.022Z</time></trkpt><trkpt lat="42.1958528" lon="13.8417617"><ele>267.0</ele><time>2026-05-03T10:06:43.022Z</time></trkpt><trkpt lat="42.1957705" lon="13.842"><ele>263.3333333333333</ele><time>2026-05-03T10:06:44.022Z</time></trkpt><trkpt lat="42.1956741" lon="13.8422352"><ele>259.66666666666663</ele><time>2026-05-03T10:06:45.022Z</time></trkpt><trkpt lat="42.1955707" lon="13.8424614"><ele>256.0</ele><time>2026-05-03T10:06:46.022Z</time></trkpt><trkpt lat="42.1954398" lon="13.8426633"><ele>253.0</ele><time>2026-05-03T10:06:47.022Z</time></trkpt><trkpt lat="42.1953054" lon="13.8428554"><ele>250.0</ele><time>2026-05-03T10:06:48.022Z</time></trkpt><trkpt lat="42.1951645" lon="13.8430361"><ele>247.0</ele><time>2026-05-03T10:06:49.022Z</time></trkpt><trkpt lat="42.1917917" lon="13.8464247"><ele>247.0</ele><time>2026-05-03T10:07:13.022Z</time></trkpt><trkpt lat="42.1916725" lon="13.8465545"><ele>247.0</ele><time>2026-05-03T10:07:14.022Z</time></trkpt><trkpt lat="42.1915482" lon="13.8466904"><ele>247.0</ele><time>2026-05-03T10:07:15.022Z</time></trkpt><trkpt lat="42.1914266" lon="13.8467974"><ele>246.25</ele><time>2026-05-03T10:07:16.022Z</time></trkpt><trkpt lat="42.1913409" lon="13.846896"><ele>245.5</ele><time>2026-05-03T10:07:17.022Z</time></trkpt><trkpt lat="42.1912417" lon="13.8469951"><ele>244.75</ele><time>2026-05-03T10:07:18.022Z</time></trkpt><trkpt lat="42.1911394" lon="13.8470942"><ele>244.0</ele><time>2026-05-03T10:07:19.022Z</time></trkpt><trkpt lat="42.1910428" lon="13.8471907"><ele>244.0</ele><time>2026-05-03T10:07:20.022Z</time></trkpt><trkpt lat="42.1909388" lon="13.8472917"><ele>243.99999999999997</ele><time>2026-05-03T10:07:21.022Z</time></trkpt><trkpt lat="42.1908435" lon="13.8473891"><ele>243.99999999999997</ele><time>2026-05-03T10:07:22.022Z</time></trkpt><trkpt lat="42.1907561" lon="13.8474613"><ele>244.0</ele><time>2026-05-03T10:07:23.023Z</time></trkpt><trkpt lat="42.1906681" lon="13.8475223"><ele>244.0</ele><time>2026-05-03T10:07:24.022Z</time></trkpt><trkpt lat="42.1906" lon="13.847552"><ele>244.16666666666666</ele><time>2026-05-03T10:07:25.022Z</time></trkpt><trkpt lat="42.1905316" lon="13.8475746"><ele>244.33333333333331</ele><time>2026-05-03T10:07:26.022Z</time></trkpt><trkpt lat="42.1904486" lon="13.8475801"><ele>244.5</ele><time>2026-05-03T10:07:27.022Z</time></trkpt><trkpt lat="42.1903645" lon="13.8475975"><ele>244.66666666666669</ele><time>2026-05-03T10:07:28.022Z</time></trkpt><trkpt lat="42.1902856" lon="13.8476447"><ele>244.83333333333334</ele><time>2026-05-03T10:07:29.022Z</time></trkpt><trkpt lat="42.1902253" lon="13.847721"><ele>245.0</ele><time>2026-05-03T10:07:30.022Z</time></trkpt><trkpt lat="42.1901907" lon="13.8478189"><ele>246.6</ele><time>2026-05-03T10:07:31.022Z</time></trkpt><trkpt lat="42.190192" lon="13.8479294"><ele>248.2</ele><time>2026-05-03T10:07:32.022Z</time></trkpt><trkpt lat="42.1902295" lon="13.8480368"><ele>249.8</ele><time>2026-05-03T10:07:33.022Z</time></trkpt><trkpt lat="42.1902686" lon="13.8481363"><ele>251.4</ele><time>2026-05-03T10:07:34.022Z</time></trkpt><trkpt lat="42.1903473" lon="13.8482094"><ele>253.0</ele><time>2026-05-03T10:07:35.022Z</time></trkpt><trkpt lat="42.1904648" lon="13.8482765"><ele>253.0</ele><time>2026-05-03T10:07:36.022Z</time></trkpt><trkpt lat="42.1905565" lon="13.8483854"><ele>253.0</ele><time>2026-05-03T10:07:37.022Z</time></trkpt><trkpt lat="42.1906418" lon="13.8485189"><ele>253.0</ele><time>2026-05-03T10:07:38.022Z</time></trkpt><trkpt lat="42.1907306" lon="13.8486681"><ele>253.0</ele><time>2026-05-03T10:07:39.022Z</time></trkpt><trkpt lat="42.1908196" lon="13.8488359"><ele>251.0</ele><time>2026-05-03T10:07:40.022Z</time></trkpt><trkpt lat="42.190912" lon="13.8490153"><ele>249.0</ele><time>2026-05-03T10:07:41.022Z</time></trkpt><trkpt lat="42.1910087" lon="13.8492061"><ele>247.0</ele><time>2026-05-03T10:07:42.022Z</time></trkpt><trkpt lat="42.1911121" lon="13.8494021"><ele>254.66666666666666</ele><time>2026-05-03T10:07:43.022Z</time></trkpt><trkpt lat="42.1912211" lon="13.8496017"><ele>262.3333333333333</ele><time>2026-05-03T10:07:44.022Z</time></trkpt><trkpt lat="42.1913435" lon="13.8498079"><ele>270.0</ele><time>2026-05-03T10:07:45.022Z</time></trkpt><trkpt lat="42.1914676" lon="13.8500106"><ele>267.3333333333333</ele><time>2026-05-03T10:07:46.022Z</time></trkpt><trkpt lat="42.1915996" lon="13.8502137"><ele>264.66666666666663</ele><time>2026-05-03T10:07:47.022Z</time></trkpt><trkpt lat="42.1917619" lon="13.850411"><ele>262.0</ele><time>2026-05-03T10:07:48.022Z</time></trkpt><trkpt lat="42.1919063" lon="13.8506121"><ele>262.0</ele><time>2026-05-03T10:07:49.022Z</time></trkpt><trkpt lat="42.1920832" lon="13.8507893"><ele>262.0</ele><time>2026-05-03T10:07:50.022Z</time></trkpt><trkpt lat="42.1922446" lon="13.8509752"><ele>262.0</ele><time>2026-05-03T10:07:51.022Z</time></trkpt><trkpt lat="42.1924286" lon="13.8511226"><ele>262.3333333333333</ele><time>2026-05-03T10:07:52.022Z</time></trkpt><trkpt lat="42.1925861" lon="13.8512919"><ele>262.6666666666667</ele><time>2026-05-03T10:07:53.022Z</time></trkpt><trkpt lat="42.1927531" lon="13.8514565"><ele>263.0</ele><time>2026-05-03T10:07:54.023Z</time></trkpt><trkpt lat="42.1928902" lon="13.8516277"><ele>263.0</ele><time>2026-05-03T10:07:55.023Z</time></trkpt><trkpt lat="42.1930439" lon="13.8517859"><ele>263.0</ele><time>2026-05-03T10:07:56.022Z</time></trkpt><trkpt lat="42.1931835" lon="13.8519058"><ele>263.0</ele><time>2026-05-03T10:07:57.022Z</time></trkpt><trkpt lat="42.1933249" lon="13.8520092"><ele>271.0</ele><time>2026-05-03T10:07:58.022Z</time></trkpt><trkpt lat="42.1936014" lon="13.851991"><ele>279.0</ele><time>2026-05-03T10:07:59.023Z</time></trkpt><trkpt lat="42.1937982" lon="13.8520457"><ele>279.0</ele><time>2026-05-03T10:08:00.023Z</time></trkpt><trkpt lat="42.1939879" lon="13.8520852"><ele>279.0</ele><time>2026-05-03T10:08:01.022Z</time></trkpt><trkpt lat="42.1941818" lon="13.8521154"><ele>279.0</ele><time>2026-05-03T10:08:02.022Z</time></trkpt><trkpt lat="42.1943569" lon="13.8521469"><ele>272.3333333333333</ele><time>2026-05-03T10:08:03.023Z</time></trkpt><trkpt lat="42.1945361" lon="13.8521802"><ele>265.66666666666663</ele><time>2026-05-03T10:08:04.023Z</time></trkpt><trkpt lat="42.1946927" lon="13.8522747"><ele>259.0</ele><time>2026-05-03T10:08:05.022Z</time></trkpt><trkpt lat="42.1948611" lon="13.8523577"><ele>261.0</ele><time>2026-05-03T10:08:06.022Z</time></trkpt><trkpt lat="42.1950325" lon="13.852451"><ele>263.0</ele><time>2026-05-03T10:08:07.022Z</time></trkpt><trkpt lat="42.195094" lon="13.8527169"><ele>265.0</ele><time>2026-05-03T10:08:08.022Z</time></trkpt><trkpt lat="42.1952157" lon="13.8528951"><ele>265.0</ele><time>2026-05-03T10:08:09.022Z</time></trkpt><trkpt lat="42.1953074" lon="13.8531052"><ele>265.0</ele><time>2026-05-03T10:08:10.022Z</time></trkpt><trkpt lat="42.1953977" lon="13.8533288"><ele>265.0</ele><time>2026-05-03T10:08:11.023Z</time></trkpt><trkpt lat="42.1954778" lon="13.8535616"><ele>270.0</ele><time>2026-05-03T10:08:12.022Z</time></trkpt><trkpt lat="42.1955427" lon="13.8537837"><ele>275.0</ele><time>2026-05-03T10:08:13.023Z</time></trkpt><trkpt lat="42.195611" lon="13.8540036"><ele>280.0</ele><time>2026-05-03T10:08:14.022Z</time></trkpt><trkpt lat="42.1956766" lon="13.8542251"><ele>269.66666666666663</ele><time>2026-05-03T10:08:15.023Z</time></trkpt><trkpt lat="42.1957338" lon="13.854425"><ele>259.3333333333333</ele><time>2026-05-03T10:08:16.022Z</time></trkpt><trkpt lat="42.1957944" lon="13.8546283"><ele>249.0</ele><time>2026-05-03T10:08:17.023Z</time></trkpt><trkpt lat="42.1958417" lon="13.8548435"><ele>249.0</ele><time>2026-05-03T10:08:18.022Z</time></trkpt><trkpt lat="42.1958642" lon="13.8550691"><ele>249.0</ele><time>2026-05-03T10:08:19.022Z</time></trkpt><trkpt lat="42.1958816" lon="13.855299"><ele>249.0</ele><time>2026-05-03T10:08:20.022Z</time></trkpt><trkpt lat="42.1958838" lon="13.8555471"><ele>249.0</ele><time>2026-05-03T10:08:21.022Z</time></trkpt><trkpt lat="42.1958801" lon="13.855802"><ele>249.0</ele><time>2026-05-03T10:08:22.022Z</time></trkpt><trkpt lat="42.1958778" lon="13.8560684"><ele>249.0</ele><time>2026-05-03T10:08:23.022Z</time></trkpt><trkpt lat="42.1958756" lon="13.8563358"><ele>248.66666666666669</ele><time>2026-05-03T10:08:24.022Z</time></trkpt><trkpt lat="42.1958681" lon="13.8565916"><ele>248.33333333333334</ele><time>2026-05-03T10:08:25.023Z</time></trkpt><trkpt lat="42.1958493" lon="13.8568531"><ele>248.0</ele><time>2026-05-03T10:08:26.022Z</time></trkpt><trkpt lat="42.1958321" lon="13.8571072"><ele>248.0</ele><time>2026-05-03T10:08:27.022Z</time></trkpt><trkpt lat="42.195819" lon="13.8573554"><ele>248.0</ele><time>2026-05-03T10:08:28.022Z</time></trkpt><trkpt lat="42.1957974" lon="13.8576026"><ele>248.0</ele><time>2026-05-03T10:08:29.022Z</time></trkpt><trkpt lat="42.195776" lon="13.8578542"><ele>247.0</ele><time>2026-05-03T10:08:30.022Z</time></trkpt><trkpt lat="42.1957569" lon="13.8580995"><ele>246.0</ele><time>2026-05-03T10:08:31.022Z</time></trkpt><trkpt lat="42.1957308" lon="13.8583441"><ele>245.0</ele><time>2026-05-03T10:08:32.022Z</time></trkpt><trkpt lat="42.1956915" lon="13.8585822"><ele>258.0</ele><time>2026-05-03T10:08:33.022Z</time></trkpt><trkpt lat="42.1956551" lon="13.8588139"><ele>271.0</ele><time>2026-05-03T10:08:34.022Z</time></trkpt><trkpt lat="42.1956214" lon="13.8590475"><ele>284.0</ele><time>2026-05-03T10:08:35.022Z</time></trkpt><trkpt lat="42.195589" lon="13.8592634"><ele>281.33333333333337</ele><time>2026-05-03T10:08:36.022Z</time></trkpt><trkpt lat="42.195568" lon="13.8594774"><ele>278.6666666666667</ele><time>2026-05-03T10:08:37.022Z</time></trkpt><trkpt lat="42.1955613" lon="13.8597016"><ele>276.0</ele><time>2026-05-03T10:08:38.022Z</time></trkpt><trkpt lat="42.195553" lon="13.8599271"><ele>275.3333333333333</ele><time>2026-05-03T10:08:39.022Z</time></trkpt><trkpt lat="42.195544" lon="13.8601359"><ele>274.66666666666663</ele><time>2026-05-03T10:08:40.022Z</time></trkpt><trkpt lat="42.1955334" lon="13.8603428"><ele>274.0</ele><time>2026-05-03T10:08:41.022Z</time></trkpt><trkpt lat="42.1955246" lon="13.8605455"><ele>274.0</ele><time>2026-05-03T10:08:42.022Z</time></trkpt><trkpt lat="42.1955163" lon="13.860728"><ele>274.0</ele><time>2026-05-03T10:08:43.022Z</time></trkpt><trkpt lat="42.1955121" lon="13.8609106"><ele>274.0</ele><time>2026-05-03T10:08:44.022Z</time></trkpt><trkpt lat="42.1955113" lon="13.8610796"><ele>274.0</ele><time>2026-05-03T10:08:45.022Z</time></trkpt><trkpt lat="42.1955189" lon="13.8612413"><ele>273.8</ele><time>2026-05-03T10:08:46.022Z</time></trkpt><trkpt lat="42.1955236" lon="13.8613864"><ele>273.59999999999997</ele><time>2026-05-03T10:08:47.022Z</time></trkpt><trkpt lat="42.1955322" lon="13.8615151"><ele>273.4</ele><time>2026-05-03T10:08:48.022Z</time></trkpt><trkpt lat="42.1955484" lon="13.8616276"><ele>273.2</ele><time>2026-05-03T10:08:49.022Z</time></trkpt><trkpt lat="42.1955598" lon="13.8617379"><ele>273.0</ele><time>2026-05-03T10:08:50.022Z</time></trkpt><trkpt lat="42.1955476" lon="13.8619199"><ele>274.4</ele><time>2026-05-03T10:08:52.022Z</time></trkpt><trkpt lat="42.1955511" lon="13.8620054"><ele>275.8</ele><time>2026-05-03T10:08:53.022Z</time></trkpt><trkpt lat="42.1955671" lon="13.8621094"><ele>277.2</ele><time>2026-05-03T10:08:54.022Z</time></trkpt><trkpt lat="42.1955801" lon="13.8622205"><ele>278.6</ele><time>2026-05-03T10:08:55.022Z</time></trkpt><trkpt lat="42.1955937" lon="13.8623801"><ele>280.0</ele><time>2026-05-03T10:08:56.022Z</time></trkpt><trkpt lat="42.195629" lon="13.8625414"><ele>286.66666666666663</ele><time>2026-05-03T10:08:57.022Z</time></trkpt><trkpt lat="42.1956642" lon="13.86274"><ele>293.3333333333333</ele><time>2026-05-03T10:08:58.022Z</time></trkpt><trkpt lat="42.1957846" lon="13.8629728"><ele>300.0</ele><time>2026-05-03T10:08:59.022Z</time></trkpt><trkpt lat="42.1958692" lon="13.8632085"><ele>287.3333333333333</ele><time>2026-05-03T10:09:00.022Z</time></trkpt><trkpt lat="42.1959641" lon="13.8634698"><ele>274.66666666666663</ele><time>2026-05-03T10:09:01.022Z</time></trkpt><trkpt lat="42.1960617" lon="13.8637388"><ele>262.0</ele><time>2026-05-03T10:09:02.022Z</time></trkpt><trkpt lat="42.1961628" lon="13.8640109"><ele>269.5</ele><time>2026-05-03T10:09:03.022Z</time></trkpt><trkpt lat="42.196265" lon="13.8642911"><ele>277.0</ele><time>2026-05-03T10:09:04.022Z</time></trkpt><trkpt lat="42.1963683" lon="13.8645587"><ele>277.0</ele><time>2026-05-03T10:09:05.023Z</time></trkpt><trkpt lat="42.196446" lon="13.8648059"><ele>277.0</ele><time>2026-05-03T10:09:06.022Z</time></trkpt><trkpt lat="42.1965376" lon="13.8650291"><ele>277.0</ele><time>2026-05-03T10:09:07.022Z</time></trkpt><trkpt lat="42.1966242" lon="13.8652774"><ele>269.66666666666663</ele><time>2026-05-03T10:09:08.022Z</time></trkpt><trkpt lat="42.1967026" lon="13.8655377"><ele>262.3333333333333</ele><time>2026-05-03T10:09:09.023Z</time></trkpt><trkpt lat="42.1967822" lon="13.8658017"><ele>255.0</ele><time>2026-05-03T10:09:10.022Z</time></trkpt><trkpt lat="42.1968569" lon="13.8660755"><ele>255.0</ele><time>2026-05-03T10:09:11.022Z</time></trkpt><trkpt lat="42.1969205" lon="13.8663575"><ele>255.0</ele><time>2026-05-03T10:09:12.022Z</time></trkpt><trkpt lat="42.1969879" lon="13.8666505"><ele>255.0</ele><time>2026-05-03T10:09:13.022Z</time></trkpt><trkpt lat="42.1970535" lon="13.8669491"><ele>257.6666666666667</ele><time>2026-05-03T10:09:14.022Z</time></trkpt><trkpt lat="42.1971131" lon="13.8672434"><ele>260.33333333333337</ele><time>2026-05-03T10:09:15.022Z</time></trkpt><trkpt lat="42.1971803" lon="13.8675247"><ele>263.0</ele><time>2026-05-03T10:09:16.022Z</time></trkpt><trkpt lat="42.1972346" lon="13.867788"><ele>264.0</ele><time>2026-05-03T10:09:17.022Z</time></trkpt><trkpt lat="42.197293" lon="13.8680545"><ele>265.0</ele><time>2026-05-03T10:09:18.022Z</time></trkpt><trkpt lat="42.1973429" lon="13.8683106"><ele>266.0</ele><time>2026-05-03T10:09:19.022Z</time></trkpt><trkpt lat="42.1973882" lon="13.8685711"><ele>257.0</ele><time>2026-05-03T10:09:20.023Z</time></trkpt><trkpt lat="42.1974251" lon="13.8688539"><ele>248.0</ele><time>2026-05-03T10:09:21.022Z</time></trkpt><trkpt lat="42.197457" lon="13.8691422"><ele>239.0</ele><time>2026-05-03T10:09:22.022Z</time></trkpt><trkpt lat="42.1974933" lon="13.8694408"><ele>238.0</ele><time>2026-05-03T10:09:23.022Z</time></trkpt><trkpt lat="42.1975303" lon="13.8697475"><ele>237.0</ele><time>2026-05-03T10:09:24.022Z</time></trkpt><trkpt lat="42.1975535" lon="13.870051"><ele>237.0</ele><time>2026-05-03T10:09:25.022Z</time></trkpt><trkpt lat="42.1976039" lon="13.8703628"><ele>237.0</ele><time>2026-05-03T10:09:26.022Z</time></trkpt><trkpt lat="42.1976406" lon="13.8706814"><ele>238.5</ele><time>2026-05-03T10:09:27.022Z</time></trkpt><trkpt lat="42.1976759" lon="13.8709999"><ele>240.0</ele><time>2026-05-03T10:09:28.022Z</time></trkpt><trkpt lat="42.197716" lon="13.8713185"><ele>240.0</ele><time>2026-05-03T10:09:29.022Z</time></trkpt><trkpt lat="42.197755" lon="13.8716301"><ele>240.0</ele><time>2026-05-03T10:09:30.022Z</time></trkpt><trkpt lat="42.1977962" lon="13.8719407"><ele>245.0</ele><time>2026-05-03T10:09:31.022Z</time></trkpt><trkpt lat="42.1978399" lon="13.8722467"><ele>250.0</ele><time>2026-05-03T10:09:32.022Z</time></trkpt><trkpt lat="42.1978847" lon="13.8725481"><ele>248.0</ele><time>2026-05-03T10:09:33.022Z</time></trkpt><trkpt lat="42.197937" lon="13.8728488"><ele>246.0</ele><time>2026-05-03T10:09:34.022Z</time></trkpt><trkpt lat="42.1979857" lon="13.8731582"><ele>250.66666666666669</ele><time>2026-05-03T10:09:35.022Z</time></trkpt><trkpt lat="42.1980334" lon="13.8734602"><ele>255.33333333333334</ele><time>2026-05-03T10:09:36.022Z</time></trkpt><trkpt lat="42.198084" lon="13.8737456"><ele>260.0</ele><time>2026-05-03T10:09:37.022Z</time></trkpt><trkpt lat="42.198125" lon="13.8740224"><ele>250.66666666666669</ele><time>2026-05-03T10:09:38.022Z</time></trkpt><trkpt lat="42.1981688" lon="13.8743006"><ele>241.33333333333331</ele><time>2026-05-03T10:09:39.022Z</time></trkpt><trkpt lat="42.198214" lon="13.8745685"><ele>232.0</ele><time>2026-05-03T10:09:40.022Z</time></trkpt><trkpt lat="42.198248" lon="13.8748195"><ele>232.0</ele><time>2026-05-03T10:09:41.022Z</time></trkpt><trkpt lat="42.1982821" lon="13.8750648"><ele>232.0</ele><time>2026-05-03T10:09:42.022Z</time></trkpt><trkpt lat="42.1983001" lon="13.8752862"><ele>232.0</ele><time>2026-05-03T10:09:43.022Z</time></trkpt><trkpt lat="42.1982921" lon="13.875519"><ele>229.33333333333331</ele><time>2026-05-03T10:09:44.022Z</time></trkpt><trkpt lat="42.1982456" lon="13.8757673"><ele>226.66666666666669</ele><time>2026-05-03T10:09:45.022Z</time></trkpt><trkpt lat="42.1981906" lon="13.8760148"><ele>224.0</ele><time>2026-05-03T10:09:46.022Z</time></trkpt><trkpt lat="42.198133" lon="13.876286"><ele>237.0</ele><time>2026-05-03T10:09:47.022Z</time></trkpt><trkpt lat="42.1980692" lon="13.8765488"><ele>250.0</ele><time>2026-05-03T10:09:48.022Z</time></trkpt><trkpt lat="42.1980168" lon="13.8767909"><ele>263.0</ele><time>2026-05-03T10:09:49.022Z</time></trkpt><trkpt lat="42.1979665" lon="13.8770318"><ele>263.0</ele><time>2026-05-03T10:09:50.022Z</time></trkpt><trkpt lat="42.1979409" lon="13.8772681"><ele>263.0</ele><time>2026-05-03T10:09:51.022Z</time></trkpt><trkpt lat="42.1979438" lon="13.8775042"><ele>263.0</ele><time>2026-05-03T10:09:52.022Z</time></trkpt><trkpt lat="42.1980113" lon="13.8777402"><ele>264.6666666666667</ele><time>2026-05-03T10:09:53.022Z</time></trkpt><trkpt lat="42.1980817" lon="13.8779835"><ele>266.3333333333333</ele><time>2026-05-03T10:09:54.022Z</time></trkpt><trkpt lat="42.1981693" lon="13.8782245"><ele>268.0</ele><time>2026-05-03T10:09:55.022Z</time></trkpt><trkpt lat="42.1982807" lon="13.8784567"><ele>258.3333333333333</ele><time>2026-05-03T10:09:56.022Z</time></trkpt><trkpt lat="42.1983998" lon="13.8786624"><ele>248.66666666666669</ele><time>2026-05-03T10:09:57.022Z</time></trkpt><trkpt lat="42.1985473" lon="13.8788711"><ele>239.0</ele><time>2026-05-03T10:09:58.022Z</time></trkpt><trkpt lat="42.1987295" lon="13.8790513"><ele>239.0</ele><time>2026-05-03T10:09:59.022Z</time></trkpt><trkpt lat="42.1989067" lon="13.8792277"><ele>239.0</ele><time>2026-05-03T10:10:00.022Z</time></trkpt><trkpt lat="42.1990609" lon="13.8794204"><ele>239.0</ele><time>2026-05-03T10:10:01.023Z</time></trkpt><trkpt lat="42.199185" lon="13.8796276"><ele>238.0</ele><time>2026-05-03T10:10:02.023Z</time></trkpt><trkpt lat="42.1992644" lon="13.8798237"><ele>237.0</ele><time>2026-05-03T10:10:03.022Z</time></trkpt><trkpt lat="42.1993086" lon="13.8800368"><ele>236.0</ele><time>2026-05-03T10:10:04.022Z</time></trkpt><trkpt lat="42.1993259" lon="13.8802731"><ele>236.0</ele><time>2026-05-03T10:10:05.022Z</time></trkpt><trkpt lat="42.1993074" lon="13.8805271"><ele>236.0</ele><time>2026-05-03T10:10:06.022Z</time></trkpt><trkpt lat="42.19929" lon="13.8807818"><ele>236.0</ele><time>2026-05-03T10:10:07.022Z</time></trkpt><trkpt lat="42.1992703" lon="13.8810315"><ele>233.0</ele><time>2026-05-03T10:10:08.022Z</time></trkpt><trkpt lat="42.1992618" lon="13.8812588"><ele>230.0</ele><time>2026-05-03T10:10:09.022Z</time></trkpt><trkpt lat="42.1992515" lon="13.8814805"><ele>227.0</ele><time>2026-05-03T10:10:10.022Z</time></trkpt><trkpt lat="42.1993004" lon="13.8816501"><ele>229.0</ele><time>2026-05-03T10:10:11.022Z</time></trkpt><trkpt lat="42.1993635" lon="13.8818508"><ele>231.0</ele><time>2026-05-03T10:10:12.023Z</time></trkpt><trkpt lat="42.1994401" lon="13.8820458"><ele>233.0</ele><time>2026-05-03T10:10:13.022Z</time></trkpt><trkpt lat="42.1995159" lon="13.8822583"><ele>233.0</ele><time>2026-05-03T10:10:14.022Z</time></trkpt><trkpt lat="42.1995725" lon="13.8824625"><ele>233.0</ele><time>2026-05-03T10:10:15.022Z</time></trkpt><trkpt lat="42.1996289" lon="13.8826608"><ele>233.0</ele><time>2026-05-03T10:10:16.022Z</time></trkpt><trkpt lat="42.1996896" lon="13.8828484"><ele>228.75</ele><time>2026-05-03T10:10:17.022Z</time></trkpt><trkpt lat="42.1997482" lon="13.8830048"><ele>224.5</ele><time>2026-05-03T10:10:18.022Z</time></trkpt><trkpt lat="42.1998612" lon="13.8831201"><ele>220.25</ele><time>2026-05-03T10:10:19.022Z</time></trkpt><trkpt lat="42.1999549" lon="13.8832666"><ele>216.0</ele><time>2026-05-03T10:10:20.022Z</time></trkpt><trkpt lat="42.20005" lon="13.8834136"><ele>223.66666666666669</ele><time>2026-05-03T10:10:21.022Z</time></trkpt><trkpt lat="42.2001618" lon="13.8835658"><ele>231.33333333333334</ele><time>2026-05-03T10:10:22.023Z</time></trkpt><trkpt lat="42.2002738" lon="13.8837199"><ele>239.0</ele><time>2026-05-03T10:10:23.022Z</time></trkpt><trkpt lat="42.2003891" lon="13.8838913"><ele>239.0</ele><time>2026-05-03T10:10:24.022Z</time></trkpt><trkpt lat="42.2004905" lon="13.8840931"><ele>239.0</ele><time>2026-05-03T10:10:25.022Z</time></trkpt><trkpt lat="42.2005643" lon="13.8843032"><ele>239.0</ele><time>2026-05-03T10:10:26.022Z</time></trkpt><trkpt lat="42.2006306" lon="13.8845253"><ele>237.66666666666669</ele><time>2026-05-03T10:10:27.022Z</time></trkpt><trkpt lat="42.2006952" lon="13.8847773"><ele>236.33333333333331</ele><time>2026-05-03T10:10:28.022Z</time></trkpt><trkpt lat="42.2007745" lon="13.8850102"><ele>235.0</ele><time>2026-05-03T10:10:29.022Z</time></trkpt><trkpt lat="42.2008515" lon="13.8852438"><ele>235.0</ele><time>2026-05-03T10:10:30.022Z</time></trkpt><trkpt lat="42.2010064" lon="13.8854223"><ele>235.0</ele><time>2026-05-03T10:10:31.022Z</time></trkpt><trkpt lat="42.201144" lon="13.8856056"><ele>235.0</ele><time>2026-05-03T10:10:32.022Z</time></trkpt><trkpt lat="42.201314" lon="13.8857909"><ele>232.0</ele><time>2026-05-03T10:10:33.022Z</time></trkpt><trkpt lat="42.201507" lon="13.8859774"><ele>229.0</ele><time>2026-05-03T10:10:34.022Z</time></trkpt><trkpt lat="42.201712" lon="13.8861817"><ele>229.0</ele><time>2026-05-03T10:10:35.022Z</time></trkpt><trkpt lat="42.2019216" lon="13.8863954"><ele>229.0</ele><time>2026-05-03T10:10:36.023Z</time></trkpt><trkpt lat="42.2021463" lon="13.8866149"><ele>225.0</ele><time>2026-05-03T10:10:37.022Z</time></trkpt><trkpt lat="42.2023792" lon="13.8868428"><ele>221.0</ele><time>2026-05-03T10:10:38.022Z</time></trkpt><trkpt lat="42.2026003" lon="13.8870741"><ele>221.0</ele><time>2026-05-03T10:10:39.022Z</time></trkpt><trkpt lat="42.2028083" lon="13.8872886"><ele>221.0</ele><time>2026-05-03T10:10:40.022Z</time></trkpt><trkpt lat="42.2029874" lon="13.8874969"><ele>226.0</ele><time>2026-05-03T10:10:41.022Z</time></trkpt><trkpt lat="42.2031704" lon="13.8876873"><ele>231.0</ele><time>2026-05-03T10:10:42.022Z</time></trkpt><trkpt lat="42.2033484" lon="13.887878"><ele>231.0</ele><time>2026-05-03T10:10:43.022Z</time></trkpt><trkpt lat="42.203522" lon="13.8880692"><ele>231.0</ele><time>2026-05-03T10:10:44.022Z</time></trkpt><trkpt lat="42.203697" lon="13.8882647"><ele>235.0</ele><time>2026-05-03T10:10:45.022Z</time></trkpt><trkpt lat="42.2038546" lon="13.8884623"><ele>239.0</ele><time>2026-05-03T10:10:46.022Z</time></trkpt><trkpt lat="42.204007" lon="13.8886773"><ele>243.0</ele><time>2026-05-03T10:10:47.022Z</time></trkpt><trkpt lat="42.2041301" lon="13.8889048"><ele>235.33333333333331</ele><time>2026-05-03T10:10:48.022Z</time></trkpt><trkpt lat="42.2042606" lon="13.8891392"><ele>227.66666666666666</ele><time>2026-05-03T10:10:49.022Z</time></trkpt><trkpt lat="42.204356" lon="13.8894159"><ele>220.0</ele><time>2026-05-03T10:10:50.022Z</time></trkpt><trkpt lat="42.2044566" lon="13.8896943"><ele>220.0</ele><time>2026-05-03T10:10:51.022Z</time></trkpt><trkpt lat="42.2045484" lon="13.8899722"><ele>220.0</ele><time>2026-05-03T10:10:52.022Z</time></trkpt><trkpt lat="42.2046084" lon="13.8902475"><ele>220.0</ele><time>2026-05-03T10:10:53.022Z</time></trkpt><trkpt lat="42.2046934" lon="13.8904981"><ele>222.0</ele><time>2026-05-03T10:10:54.022Z</time></trkpt><trkpt lat="42.2048059" lon="13.890726"><ele>224.0</ele><time>2026-05-03T10:10:55.022Z</time></trkpt><trkpt lat="42.2049449" lon="13.8909467"><ele>226.0</ele><time>2026-05-03T10:10:56.022Z</time></trkpt><trkpt lat="42.2051085" lon="13.8911574"><ele>226.0</ele><time>2026-05-03T10:10:57.022Z</time></trkpt><trkpt lat="42.2052795" lon="13.8913816"><ele>226.0</ele><time>2026-05-03T10:10:58.022Z</time></trkpt><trkpt lat="42.2054558" lon="13.8916189"><ele>226.0</ele><time>2026-05-03T10:10:59.023Z</time></trkpt><trkpt lat="42.20564" lon="13.8918622"><ele>226.0</ele><time>2026-05-03T10:11:00.022Z</time></trkpt><trkpt lat="42.205828" lon="13.8921142"><ele>226.0</ele><time>2026-05-03T10:11:01.022Z</time></trkpt><trkpt lat="42.2060233" lon="13.892369"><ele>226.0</ele><time>2026-05-03T10:11:02.022Z</time></trkpt><trkpt lat="42.2062289" lon="13.8926149"><ele>227.5</ele><time>2026-05-03T10:11:03.022Z</time></trkpt><trkpt lat="42.2064249" lon="13.8928284"><ele>229.0</ele><time>2026-05-03T10:11:04.022Z</time></trkpt><trkpt lat="42.2066224" lon="13.893044"><ele>229.0</ele><time>2026-05-03T10:11:05.022Z</time></trkpt><trkpt lat="42.206782" lon="13.8932151"><ele>229.0</ele><time>2026-05-03T10:11:06.022Z</time></trkpt><trkpt lat="42.2069485" lon="13.893382"><ele>229.0</ele><time>2026-05-03T10:11:07.022Z</time></trkpt><trkpt lat="42.2070982" lon="13.8935492"><ele>231.33333333333331</ele><time>2026-05-03T10:11:08.022Z</time></trkpt><trkpt lat="42.2072453" lon="13.8937148"><ele>233.66666666666669</ele><time>2026-05-03T10:11:09.022Z</time></trkpt><trkpt lat="42.2073987" lon="13.8938673"><ele>236.0</ele><time>2026-05-03T10:11:10.022Z</time></trkpt><trkpt lat="42.2075427" lon="13.8940136"><ele>232.33333333333334</ele><time>2026-05-03T10:11:11.022Z</time></trkpt><trkpt lat="42.2076816" lon="13.8941572"><ele>228.66666666666669</ele><time>2026-05-03T10:11:12.022Z</time></trkpt><trkpt lat="42.2078204" lon="13.8942975"><ele>225.0</ele><time>2026-05-03T10:11:13.022Z</time></trkpt><trkpt lat="42.2079562" lon="13.8944357"><ele>225.0</ele><time>2026-05-03T10:11:14.022Z</time></trkpt><trkpt lat="42.2080866" lon="13.8945709"><ele>225.0</ele><time>2026-05-03T10:11:15.022Z</time></trkpt><trkpt lat="42.2082183" lon="13.8947031"><ele>225.0</ele><time>2026-05-03T10:11:16.022Z</time></trkpt><trkpt lat="42.2083432" lon="13.8948365"><ele>224.66666666666669</ele><time>2026-05-03T10:11:17.022Z</time></trkpt><trkpt lat="42.2084721" lon="13.8949702"><ele>224.33333333333334</ele><time>2026-05-03T10:11:18.022Z</time></trkpt><trkpt lat="42.2085992" lon="13.895104"><ele>224.0</ele><time>2026-05-03T10:11:19.022Z</time></trkpt><trkpt lat="42.20873" lon="13.8952345"><ele>224.0</ele><time>2026-05-03T10:11:20.022Z</time></trkpt><trkpt lat="42.2088561" lon="13.8953658"><ele>224.0</ele><time>2026-05-03T10:11:21.022Z</time></trkpt><trkpt lat="42.2089929" lon="13.8954938"><ele>224.0</ele><time>2026-05-03T10:11:22.022Z</time></trkpt><trkpt lat="42.2091267" lon="13.895625"><ele>224.66666666666669</ele><time>2026-05-03T10:11:23.022Z</time></trkpt><trkpt lat="42.2092682" lon="13.8957605"><ele>225.33333333333331</ele><time>2026-05-03T10:11:24.022Z</time></trkpt><trkpt lat="42.2094099" lon="13.8958976"><ele>226.0</ele><time>2026-05-03T10:11:25.022Z</time></trkpt><trkpt lat="42.2095555" lon="13.8960381"><ele>226.0</ele><time>2026-05-03T10:11:26.022Z</time></trkpt><trkpt lat="42.2097002" lon="13.896182"><ele>226.0</ele><time>2026-05-03T10:11:27.022Z</time></trkpt><trkpt lat="42.2098433" lon="13.8963229"><ele>226.0</ele><time>2026-05-03T10:11:28.022Z</time></trkpt><trkpt lat="42.2099862" lon="13.8964655"><ele>226.33333333333331</ele><time>2026-05-03T10:11:29.022Z</time></trkpt><trkpt lat="42.2101227" lon="13.896616"><ele>226.66666666666669</ele><time>2026-05-03T10:11:30.023Z</time></trkpt><trkpt lat="42.2102579" lon="13.8967719"><ele>227.0</ele><time>2026-05-03T10:11:31.022Z</time></trkpt><trkpt lat="42.2103657" lon="13.8969378"><ele>227.0</ele><time>2026-05-03T10:11:32.022Z</time></trkpt><trkpt lat="42.2104574" lon="13.8971191"><ele>227.0</ele><time>2026-05-03T10:11:33.022Z</time></trkpt><trkpt lat="42.2105364" lon="13.8973304"><ele>227.0</ele><time>2026-05-03T10:11:34.023Z</time></trkpt><trkpt lat="42.2106095" lon="13.8975533"><ele>224.0</ele><time>2026-05-03T10:11:35.022Z</time></trkpt><trkpt lat="42.2106823" lon="13.8977805"><ele>221.0</ele><time>2026-05-03T10:11:36.022Z</time></trkpt><trkpt lat="42.2107631" lon="13.8980184"><ele>218.0</ele><time>2026-05-03T10:11:37.022Z</time></trkpt><trkpt lat="42.2108416" lon="13.8982553"><ele>219.33333333333334</ele><time>2026-05-03T10:11:38.022Z</time></trkpt><trkpt lat="42.2109206" lon="13.8984978"><ele>220.66666666666669</ele><time>2026-05-03T10:11:39.022Z</time></trkpt><trkpt lat="42.2109931" lon="13.8987272"><ele>222.0</ele><time>2026-05-03T10:11:40.022Z</time></trkpt><trkpt lat="42.211061" lon="13.8989481"><ele>222.0</ele><time>2026-05-03T10:11:41.022Z</time></trkpt><trkpt lat="42.2111288" lon="13.8991543"><ele>222.0</ele><time>2026-05-03T10:11:42.022Z</time></trkpt><trkpt lat="42.2111948" lon="13.8993576"><ele>222.0</ele><time>2026-05-03T10:11:43.022Z</time></trkpt><trkpt lat="42.2112597" lon="13.899552"><ele>222.25</ele><time>2026-05-03T10:11:44.022Z</time></trkpt><trkpt lat="42.2113188" lon="13.8997343"><ele>222.5</ele><time>2026-05-03T10:11:45.022Z</time></trkpt><trkpt lat="42.2113726" lon="13.8999083"><ele>222.75</ele><time>2026-05-03T10:11:46.022Z</time></trkpt><trkpt lat="42.2114139" lon="13.9000594"><ele>223.0</ele><time>2026-05-03T10:11:47.022Z</time></trkpt><trkpt lat="42.2114533" lon="13.9001909"><ele>223.49999999999997</ele><time>2026-05-03T10:11:48.022Z</time></trkpt><trkpt lat="42.2114852" lon="13.9002969"><ele>224.0</ele><time>2026-05-03T10:11:49.022Z</time></trkpt><trkpt lat="42.2115126" lon="13.90038"><ele>224.5</ele><time>2026-05-03T10:11:50.022Z</time></trkpt><trkpt lat="42.2115409" lon="13.9004686"><ele>225.0</ele><time>2026-05-03T10:11:53.022Z</time></trkpt><trkpt lat="42.2115602" lon="13.9005695"><ele>225.49999999999997</ele><time>2026-05-03T10:11:56.022Z</time></trkpt><trkpt lat="42.2115904" lon="13.9006647"><ele>226.0</ele><time>2026-05-03T10:11:58.022Z</time></trkpt><trkpt lat="42.2116332" lon="13.900799"><ele>225.66666666666666</ele><time>2026-05-03T10:12:00.022Z</time></trkpt><trkpt lat="42.2116573" lon="13.9009097"><ele>225.33333333333331</ele><time>2026-05-03T10:12:02.022Z</time></trkpt><trkpt lat="42.2116585" lon="13.9010074"><ele>225.0</ele><time>2026-05-03T10:12:05.022Z</time></trkpt><trkpt lat="42.2116073" lon="13.9010606"><ele>224.66666666666669</ele><time>2026-05-03T10:12:08.022Z</time></trkpt><trkpt lat="42.2115521" lon="13.9011154"><ele>224.33333333333334</ele><time>2026-05-03T10:12:10.022Z</time></trkpt><trkpt lat="42.2114975" lon="13.9011926"><ele>224.0</ele><time>2026-05-03T10:12:12.022Z</time></trkpt><trkpt lat="42.2114806" lon="13.9013135"><ele>227.33333333333334</ele><time>2026-05-03T10:12:15.023Z</time></trkpt><trkpt lat="42.2114834" lon="13.9014139"><ele>230.66666666666669</ele><time>2026-05-03T10:12:17.022Z</time></trkpt><trkpt lat="42.2114293" lon="13.9015013"><ele>234.0</ele><time>2026-05-03T10:12:20.022Z</time></trkpt><trkpt lat="42.2113474" lon="13.9014595"><ele>237.33333333333331</ele><time>2026-05-03T10:12:23.023Z</time></trkpt><trkpt lat="42.211296" lon="13.9014041"><ele>240.66666666666666</ele><time>2026-05-03T10:12:25.022Z</time></trkpt><trkpt lat="42.2112248" lon="13.9013679"><ele>244.0</ele><time>2026-05-03T10:12:27.022Z</time></trkpt><trkpt lat="42.2111336" lon="13.9013465"><ele>243.99999999999997</ele><time>2026-05-03T10:12:29.022Z</time></trkpt><trkpt lat="42.2110321" lon="13.9013382"><ele>244.0</ele><time>2026-05-03T10:12:31.022Z</time></trkpt><trkpt lat="42.2109589" lon="13.9013396"><ele>244.0</ele><time>2026-05-03T10:12:33.022Z</time></trkpt><trkpt lat="42.2109075" lon="13.9014146"><ele>244.0</ele><time>2026-05-03T10:12:36.022Z</time></trkpt><trkpt lat="42.2109099" lon="13.9015009"><ele>243.99999999999997</ele><time>2026-05-03T10:12:39.022Z</time></trkpt><trkpt lat="42.2109504" lon="13.9016111"><ele>244.0</ele><time>2026-05-03T10:12:41.974Z</time></trkpt><trkpt lat="42.2110039" lon="13.9016777"><ele>243.99999999999997</ele><time>2026-05-03T10:12:44.022Z</time></trkpt><trkpt lat="42.2110601" lon="13.9017272"><ele>244.0</ele><time>2026-05-03T10:12:46.022Z</time></trkpt><trkpt lat="42.2111211" lon="13.9017828"><ele>244.0</ele><time>2026-05-03T10:12:50.022Z</time></trkpt><trkpt lat="42.2111506" lon="13.9018882"><ele>244.0</ele><time>2026-05-03T10:13:31.022Z</time></trkpt><trkpt lat="42.2111237" lon="13.9020211"><ele>243.99999999999997</ele><time>2026-05-03T10:22:55.022Z</time></trkpt><trkpt lat="42.2110568" lon="13.9020242"><ele>244.0</ele><time>2026-05-03T10:24:56.02Z</time></trkpt><trkpt lat="42.2109986" lon="13.9019664"><ele>247.49999999999997</ele><time>2026-05-03T10:25:00.02Z</time></trkpt><trkpt lat="42.2109282" lon="13.9018935"><ele>251.0</ele><time>2026-05-03T10:25:03.02Z</time></trkpt><trkpt lat="42.2108612" lon="13.9018257"><ele>254.5</ele><time>2026-05-03T10:25:06.021Z</time></trkpt><trkpt lat="42.2108165" lon="13.901758"><ele>258.0</ele><time>2026-05-03T10:25:10.02Z</time></trkpt><trkpt lat="42.2107539" lon="13.901806"><ele>261.5</ele><time>2026-05-03T10:25:14.02Z</time></trkpt><trkpt lat="42.2107637" lon="13.9018977"><ele>265.0</ele><time>2026-05-03T10:25:19.044Z</time></trkpt><trkpt lat="42.2108292" lon="13.9019752"><ele>265.0</ele><time>2026-05-03T10:25:23.021Z</time></trkpt><trkpt lat="42.2108814" lon="13.9020655"><ele>265.0</ele><time>2026-05-03T10:25:25.913Z</time></trkpt><trkpt lat="42.2108886" lon="13.9021667"><ele>265.0</ele><time>2026-05-03T10:25:30.022Z</time></trkpt><trkpt lat="42.2109169" lon="13.9022431"><ele>265.0</ele><time>2026-05-03T10:32:30.014Z</time></trkpt><trkpt lat="42.2109241" lon="13.9023301"><ele>265.0</ele><time>2026-05-03T10:32:47.013Z</time></trkpt><trkpt lat="42.2109395" lon="13.9024333"><ele>265.0</ele><time>2026-05-03T10:32:51.013Z</time></trkpt><trkpt lat="42.2109164" lon="13.9025998"><ele>267.66666666666663</ele><time>2026-05-03T10:32:54.013Z</time></trkpt><trkpt lat="42.2108872" lon="13.9027206"><ele>270.3333333333333</ele><time>2026-05-03T10:32:56.013Z</time></trkpt><trkpt lat="42.2108852" lon="13.9028464"><ele>273.0</ele><time>2026-05-03T10:32:58.013Z</time></trkpt><trkpt lat="42.2109109" lon="13.9029531"><ele>275.6666666666667</ele><time>2026-05-03T10:33:00.013Z</time></trkpt><trkpt lat="42.210933" lon="13.9030702"><ele>278.33333333333337</ele><time>2026-05-03T10:33:02.014Z</time></trkpt><trkpt lat="42.2109628" lon="13.9031768"><ele>281.0</ele><time>2026-05-03T10:33:04.013Z</time></trkpt><trkpt lat="42.2110053" lon="13.9032732"><ele>281.0</ele><time>2026-05-03T10:33:06.013Z</time></trkpt><trkpt lat="42.2110407" lon="13.9032016"><ele>281.0</ele><time>2026-05-03T10:33:09.013Z</time></trkpt><trkpt lat="42.2110619" lon="13.9033163"><ele>281.0</ele><time>2026-05-03T10:33:15.013Z</time></trkpt><trkpt lat="42.2111013" lon="13.9033951"><ele>281.0</ele><time>2026-05-03T10:41:27.018Z</time></trkpt><trkpt lat="42.2111159" lon="13.9034817"><ele>281.0</ele><time>2026-05-03T10:41:29.018Z</time></trkpt><trkpt lat="42.2111497" lon="13.9036093"><ele>281.0</ele><time>2026-05-03T10:41:31.018Z</time></trkpt><trkpt lat="42.2111867" lon="13.9037839"><ele>283.0</ele><time>2026-05-03T10:41:33.018Z</time></trkpt><trkpt lat="42.2112046" lon="13.9038808"><ele>285.0</ele><time>2026-05-03T10:41:34.018Z</time></trkpt><trkpt lat="42.2112188" lon="13.9039814"><ele>287.0</ele><time>2026-05-03T10:41:35.018Z</time></trkpt><trkpt lat="42.211237" lon="13.9040875"><ele>289.0</ele><time>2026-05-03T10:41:36.018Z</time></trkpt><trkpt lat="42.2112591" lon="13.9041871"><ele>291.0</ele><time>2026-05-03T10:41:37.018Z</time></trkpt><trkpt lat="42.2112764" lon="13.9042972"><ele>293.0</ele><time>2026-05-03T10:41:38.018Z</time></trkpt><trkpt lat="42.211279" lon="13.9044094"><ele>295.0</ele><time>2026-05-03T10:41:39.018Z</time></trkpt><trkpt lat="42.2113011" lon="13.9045147"><ele>297.0</ele><time>2026-05-03T10:41:40.018Z</time></trkpt><trkpt lat="42.2113299" lon="13.9046129"><ele>299.0</ele><time>2026-05-03T10:41:41.018Z</time></trkpt><trkpt lat="42.2113537" lon="13.9047154"><ele>301.0</ele><time>2026-05-03T10:41:42.018Z</time></trkpt><trkpt lat="42.211379" lon="13.9048239"><ele>303.0</ele><time>2026-05-03T10:41:43.018Z</time></trkpt><trkpt lat="42.2114099" lon="13.9049353"><ele>305.0</ele><time>2026-05-03T10:41:44.018Z</time></trkpt><trkpt lat="42.2114261" lon="13.9050484"><ele>305.33333333333337</ele><time>2026-05-03T10:41:45.018Z</time></trkpt><trkpt lat="42.2114412" lon="13.9051603"><ele>305.6666666666667</ele><time>2026-05-03T10:41:46.018Z</time></trkpt><trkpt lat="42.2114533" lon="13.9052626"><ele>306.0</ele><time>2026-05-03T10:41:47.018Z</time></trkpt><trkpt lat="42.2114659" lon="13.905359"><ele>306.3333333333333</ele><time>2026-05-03T10:41:48.018Z</time></trkpt><trkpt lat="42.211487" lon="13.9054599"><ele>306.66666666666663</ele><time>2026-05-03T10:41:49.018Z</time></trkpt><trkpt lat="42.2115052" lon="13.9055673"><ele>307.0</ele><time>2026-05-03T10:41:50.018Z</time></trkpt><trkpt lat="42.2115216" lon="13.9056708"><ele>307.0</ele><time>2026-05-03T10:41:51.018Z</time></trkpt><trkpt lat="42.2115451" lon="13.9057784"><ele>307.0</ele><time>2026-05-03T10:41:52.018Z</time></trkpt><trkpt lat="42.2115803" lon="13.9058922"><ele>307.0</ele><time>2026-05-03T10:41:53.019Z</time></trkpt><trkpt lat="42.2115904" lon="13.9059828"><ele>307.0</ele><time>2026-05-03T10:41:54.018Z</time></trkpt><trkpt lat="42.2116287" lon="13.9060861"><ele>307.0</ele><time>2026-05-03T10:41:55.018Z</time></trkpt><trkpt lat="42.2116627" lon="13.9061839"><ele>307.0</ele><time>2026-05-03T10:41:56.018Z</time></trkpt><trkpt lat="42.2116915" lon="13.9062823"><ele>308.3333333333333</ele><time>2026-05-03T10:41:57.018Z</time></trkpt><trkpt lat="42.2117216" lon="13.9063702"><ele>309.66666666666663</ele><time>2026-05-03T10:41:58.018Z</time></trkpt><trkpt lat="42.2117501" lon="13.9064599"><ele>311.0</ele><time>2026-05-03T10:41:59.018Z</time></trkpt><trkpt lat="42.2117775" lon="13.9065579"><ele>312.3333333333333</ele><time>2026-05-03T10:42:00.018Z</time></trkpt><trkpt lat="42.2117989" lon="13.9066596"><ele>313.6666666666667</ele><time>2026-05-03T10:42:01.019Z</time></trkpt><trkpt lat="42.2118162" lon="13.9067621"><ele>315.0</ele><time>2026-05-03T10:42:02.018Z</time></trkpt><trkpt lat="42.211835" lon="13.9068644"><ele>316.8333333333333</ele><time>2026-05-03T10:42:03.018Z</time></trkpt><trkpt lat="42.211853" lon="13.9069595"><ele>318.6666666666667</ele><time>2026-05-03T10:42:04.019Z</time></trkpt><trkpt lat="42.2118833" lon="13.9070561"><ele>320.5</ele><time>2026-05-03T10:42:05.018Z</time></trkpt><trkpt lat="42.2119132" lon="13.9071544"><ele>322.33333333333337</ele><time>2026-05-03T10:42:06.018Z</time></trkpt><trkpt lat="42.2119486" lon="13.9072585"><ele>324.1666666666667</ele><time>2026-05-03T10:42:07.018Z</time></trkpt><trkpt lat="42.2119785" lon="13.9073618"><ele>326.0</ele><time>2026-05-03T10:42:08.018Z</time></trkpt><trkpt lat="42.212012" lon="13.9074711"><ele>326.6</ele><time>2026-05-03T10:42:09.018Z</time></trkpt><trkpt lat="42.2120411" lon="13.9075833"><ele>327.20000000000005</ele><time>2026-05-03T10:42:10.018Z</time></trkpt><trkpt lat="42.2120661" lon="13.9077034"><ele>327.79999999999995</ele><time>2026-05-03T10:42:11.018Z</time></trkpt><trkpt lat="42.2120868" lon="13.9078343"><ele>328.4</ele><time>2026-05-03T10:42:12.018Z</time></trkpt><trkpt lat="42.2121092" lon="13.9079724"><ele>329.0</ele><time>2026-05-03T10:42:13.018Z</time></trkpt><trkpt lat="42.212126" lon="13.9081135"><ele>329.0</ele><time>2026-05-03T10:42:14.018Z</time></trkpt><trkpt lat="42.2121295" lon="13.9082431"><ele>329.0</ele><time>2026-05-03T10:42:15.018Z</time></trkpt><trkpt lat="42.212129" lon="13.9083515"><ele>329.0</ele><time>2026-05-03T10:42:16.018Z</time></trkpt><trkpt lat="42.2121267" lon="13.9084561"><ele>329.0</ele><time>2026-05-03T10:42:17.018Z</time></trkpt><trkpt lat="42.2121256" lon="13.9085647"><ele>329.0</ele><time>2026-05-03T10:42:18.018Z</time></trkpt><trkpt lat="42.2121185" lon="13.9086715"><ele>329.0</ele><time>2026-05-03T10:42:19.018Z</time></trkpt><trkpt lat="42.2120979" lon="13.9087786"><ele>329.5</ele><time>2026-05-03T10:42:20.018Z</time></trkpt><trkpt lat="42.2120692" lon="13.9088838"><ele>330.0</ele><time>2026-05-03T10:42:21.018Z</time></trkpt><trkpt lat="42.212031" lon="13.9089877"><ele>330.5</ele><time>2026-05-03T10:42:22.019Z</time></trkpt><trkpt lat="42.2119846" lon="13.9090874"><ele>331.0</ele><time>2026-05-03T10:42:23.018Z</time></trkpt><trkpt lat="42.2119337" lon="13.9091911"><ele>331.5</ele><time>2026-05-03T10:42:24.018Z</time></trkpt><trkpt lat="42.2118788" lon="13.9092911"><ele>332.0</ele><time>2026-05-03T10:42:25.018Z</time></trkpt><trkpt lat="42.2118258" lon="13.909382"><ele>332.6666666666667</ele><time>2026-05-03T10:42:26.018Z</time></trkpt><trkpt lat="42.2117863" lon="13.9094666"><ele>333.33333333333337</ele><time>2026-05-03T10:42:27.018Z</time></trkpt><trkpt lat="42.2117584" lon="13.9095479"><ele>334.0</ele><time>2026-05-03T10:42:28.019Z</time></trkpt><trkpt lat="42.2117546" lon="13.9096522"><ele>334.6666666666667</ele><time>2026-05-03T10:42:29.018Z</time></trkpt><trkpt lat="42.2117641" lon="13.9097609"><ele>335.3333333333333</ele><time>2026-05-03T10:42:30.019Z</time></trkpt><trkpt lat="42.2117809" lon="13.9098742"><ele>336.0</ele><time>2026-05-03T10:42:31.018Z</time></trkpt><trkpt lat="42.2117955" lon="13.9099902"><ele>336.0</ele><time>2026-05-03T10:42:32.018Z</time></trkpt><trkpt lat="42.2118124" lon="13.9101138"><ele>336.0</ele><time>2026-05-03T10:42:33.018Z</time></trkpt><trkpt lat="42.2118251" lon="13.9102316"><ele>336.0</ele><time>2026-05-03T10:42:34.018Z</time></trkpt><trkpt lat="42.2118385" lon="13.910353"><ele>336.0</ele><time>2026-05-03T10:42:35.018Z</time></trkpt><trkpt lat="42.2118466" lon="13.9104766"><ele>336.0</ele><time>2026-05-03T10:42:36.018Z</time></trkpt><trkpt lat="42.2118497" lon="13.9106051"><ele>336.0</ele><time>2026-05-03T10:42:37.018Z</time></trkpt><trkpt lat="42.2118445" lon="13.9107388"><ele>336.0</ele><time>2026-05-03T10:42:38.018Z</time></trkpt><trkpt lat="42.2118297" lon="13.9108608"><ele>336.0</ele><time>2026-05-03T10:42:39.018Z</time></trkpt><trkpt lat="42.2118176" lon="13.9109811"><ele>336.0</ele><time>2026-05-03T10:42:40.018Z</time></trkpt><trkpt lat="42.2118074" lon="13.9110977"><ele>336.0</ele><time>2026-05-03T10:42:41.019Z</time></trkpt><trkpt lat="42.2117985" lon="13.9112045"><ele>336.0</ele><time>2026-05-03T10:42:42.018Z</time></trkpt><trkpt lat="42.2117883" lon="13.9113101"><ele>336.0</ele><time>2026-05-03T10:42:43.019Z</time></trkpt><trkpt lat="42.2117805" lon="13.9114036"><ele>336.0</ele><time>2026-05-03T10:42:44.018Z</time></trkpt><trkpt lat="42.2117756" lon="13.9115527"><ele>336.0</ele><time>2026-05-03T10:42:46.018Z</time></trkpt><trkpt lat="42.2117789" lon="13.9117058"><ele>336.0</ele><time>2026-05-03T10:42:48.018Z</time></trkpt><trkpt lat="42.2118077" lon="13.9118691"><ele>336.0</ele><time>2026-05-03T10:42:50.018Z</time></trkpt><trkpt lat="42.2118489" lon="13.9119503"><ele>335.5</ele><time>2026-05-03T10:42:51.018Z</time></trkpt><trkpt lat="42.2119259" lon="13.9120681"><ele>335.0</ele><time>2026-05-03T10:42:53.018Z</time></trkpt><trkpt lat="42.2119716" lon="13.9121378"><ele>334.5</ele><time>2026-05-03T10:42:54.018Z</time></trkpt><trkpt lat="42.2120306" lon="13.9122211"><ele>334.0</ele><time>2026-05-03T10:42:55.018Z</time></trkpt><trkpt lat="42.21209" lon="13.9123133"><ele>333.5</ele><time>2026-05-03T10:42:56.018Z</time></trkpt><trkpt lat="42.2121446" lon="13.9124007"><ele>333.0</ele><time>2026-05-03T10:42:57.018Z</time></trkpt><trkpt lat="42.2121951" lon="13.9124753"><ele>333.0</ele><time>2026-05-03T10:42:58.018Z</time></trkpt><trkpt lat="42.2122469" lon="13.9125414"><ele>333.0</ele><time>2026-05-03T10:42:59.018Z</time></trkpt><trkpt lat="42.2122985" lon="13.9125966"><ele>333.0</ele><time>2026-05-03T10:43:00.018Z</time></trkpt><trkpt lat="42.212401" lon="13.9126951"><ele>333.0</ele><time>2026-05-03T10:43:02.018Z</time></trkpt><trkpt lat="42.2124617" lon="13.9127362"><ele>333.0</ele><time>2026-05-03T10:43:03.019Z</time></trkpt><trkpt lat="42.2125202" lon="13.9127751"><ele>333.0</ele><time>2026-05-03T10:43:04.018Z</time></trkpt><trkpt lat="42.2125941" lon="13.9128357"><ele>333.6666666666667</ele><time>2026-05-03T10:43:05.018Z</time></trkpt><trkpt lat="42.2126711" lon="13.9128918"><ele>334.3333333333333</ele><time>2026-05-03T10:43:06.018Z</time></trkpt><trkpt lat="42.2127464" lon="13.9129489"><ele>335.0</ele><time>2026-05-03T10:43:07.018Z</time></trkpt><trkpt lat="42.212852" lon="13.9130131"><ele>335.66666666666663</ele><time>2026-05-03T10:43:09.018Z</time></trkpt><trkpt lat="42.2129078" lon="13.9130531"><ele>336.3333333333333</ele><time>2026-05-03T10:43:10.018Z</time></trkpt><trkpt lat="42.2129752" lon="13.9130859"><ele>337.0</ele><time>2026-05-03T10:43:11.018Z</time></trkpt><trkpt lat="42.2130699" lon="13.9131328"><ele>337.8</ele><time>2026-05-03T10:43:12.018Z</time></trkpt><trkpt lat="42.2131628" lon="13.9131741"><ele>338.6</ele><time>2026-05-03T10:43:13.018Z</time></trkpt><trkpt lat="42.2132549" lon="13.9132049"><ele>339.40000000000003</ele><time>2026-05-03T10:43:14.018Z</time></trkpt><trkpt lat="42.2133452" lon="13.9132254"><ele>340.20000000000005</ele><time>2026-05-03T10:43:15.018Z</time></trkpt><trkpt lat="42.2134401" lon="13.9132513"><ele>341.0</ele><time>2026-05-03T10:43:16.018Z</time></trkpt><trkpt lat="42.2135371" lon="13.9132751"><ele>341.0</ele><time>2026-05-03T10:43:17.018Z</time></trkpt><trkpt lat="42.2136416" lon="13.9133026"><ele>341.0</ele><time>2026-05-03T10:43:18.018Z</time></trkpt><trkpt lat="42.2137385" lon="13.9133147"><ele>341.0</ele><time>2026-05-03T10:43:19.018Z</time></trkpt><trkpt lat="42.2138296" lon="13.9133217"><ele>341.0</ele><time>2026-05-03T10:43:20.018Z</time></trkpt><trkpt lat="42.2139086" lon="13.9133244"><ele>341.0</ele><time>2026-05-03T10:43:21.018Z</time></trkpt><trkpt lat="42.2139777" lon="13.9133244"><ele>341.0</ele><time>2026-05-03T10:43:22.018Z</time></trkpt><trkpt lat="42.2140542" lon="13.9133129"><ele>341.4</ele><time>2026-05-03T10:43:23.018Z</time></trkpt><trkpt lat="42.2141365" lon="13.9132998"><ele>341.8</ele><time>2026-05-03T10:43:24.018Z</time></trkpt><trkpt lat="42.214221" lon="13.9132717"><ele>342.2</ele><time>2026-05-03T10:43:25.018Z</time></trkpt><trkpt lat="42.2143076" lon="13.9132377"><ele>342.59999999999997</ele><time>2026-05-03T10:43:26.019Z</time></trkpt><trkpt lat="42.2144006" lon="13.9132012"><ele>343.0</ele><time>2026-05-03T10:43:27.018Z</time></trkpt><trkpt lat="42.2144936" lon="13.9131558"><ele>343.0</ele><time>2026-05-03T10:43:28.018Z</time></trkpt><trkpt lat="42.2145856" lon="13.9131163"><ele>343.0</ele><time>2026-05-03T10:43:29.018Z</time></trkpt><trkpt lat="42.2146687" lon="13.9130938"><ele>343.0</ele><time>2026-05-03T10:43:30.018Z</time></trkpt><trkpt lat="42.2147509" lon="13.9130733"><ele>343.0</ele><time>2026-05-03T10:43:31.018Z</time></trkpt><trkpt lat="42.214825" lon="13.9130753"><ele>343.0</ele><time>2026-05-03T10:43:32.018Z</time></trkpt><trkpt lat="42.2148988" lon="13.9130733"><ele>343.0</ele><time>2026-05-03T10:43:33.018Z</time></trkpt><trkpt lat="42.2149847" lon="13.9131283"><ele>342.0</ele><time>2026-05-03T10:43:34.018Z</time></trkpt><trkpt lat="42.2150801" lon="13.913195"><ele>341.0</ele><time>2026-05-03T10:43:35.018Z</time></trkpt><trkpt lat="42.2151774" lon="13.9132652"><ele>340.0</ele><time>2026-05-03T10:43:36.018Z</time></trkpt><trkpt lat="42.2152828" lon="13.9133437"><ele>339.0</ele><time>2026-05-03T10:43:37.018Z</time></trkpt><trkpt lat="42.2153933" lon="13.9134274"><ele>338.5</ele><time>2026-05-03T10:43:38.018Z</time></trkpt><trkpt lat="42.215502" lon="13.9135063"><ele>338.0</ele><time>2026-05-03T10:43:39.018Z</time></trkpt><trkpt lat="42.2156048" lon="13.913582"><ele>337.5</ele><time>2026-05-03T10:43:40.018Z</time></trkpt><trkpt lat="42.2157043" lon="13.9136576"><ele>337.0</ele><time>2026-05-03T10:43:41.018Z</time></trkpt><trkpt lat="42.2157976" lon="13.9137269"><ele>336.6</ele><time>2026-05-03T10:43:42.018Z</time></trkpt><trkpt lat="42.2158852" lon="13.9137855"><ele>336.20000000000005</ele><time>2026-05-03T10:43:43.018Z</time></trkpt><trkpt lat="42.2159594" lon="13.9138397"><ele>335.8</ele><time>2026-05-03T10:43:44.018Z</time></trkpt><trkpt lat="42.2160243" lon="13.9138886"><ele>335.4</ele><time>2026-05-03T10:43:45.018Z</time></trkpt><trkpt lat="42.2161224" lon="13.9139716"><ele>335.0</ele><time>2026-05-03T10:43:47.018Z</time></trkpt><trkpt lat="42.2161834" lon="13.9140527"><ele>335.0</ele><time>2026-05-03T10:43:49.018Z</time></trkpt><trkpt lat="42.2161722" lon="13.9141602"><ele>335.0</ele><time>2026-05-03T10:43:51.018Z</time></trkpt><trkpt lat="42.216113" lon="13.9142603"><ele>335.0</ele><time>2026-05-03T10:43:53.018Z</time></trkpt><trkpt lat="42.2160742" lon="13.9143577"><ele>335.0</ele><time>2026-05-03T10:43:59.018Z</time></trkpt><trkpt lat="42.2160287" lon="13.9144282"><ele>335.0</ele><time>2026-05-03T10:44:01.018Z</time></trkpt><trkpt lat="42.215966" lon="13.9144612"><ele>335.0</ele><time>2026-05-03T10:44:02.018Z</time></trkpt><trkpt lat="42.2159046" lon="13.9145054"><ele>334.4</ele><time>2026-05-03T10:44:03.018Z</time></trkpt><trkpt lat="42.2158259" lon="13.9145519"><ele>333.8</ele><time>2026-05-03T10:44:04.018Z</time></trkpt><trkpt lat="42.2157423" lon="13.914613"><ele>333.20000000000005</ele><time>2026-05-03T10:44:05.018Z</time></trkpt><trkpt lat="42.2156515" lon="13.9146811"><ele>332.6</ele><time>2026-05-03T10:44:06.018Z</time></trkpt><trkpt lat="42.215577" lon="13.9147522"><ele>332.0</ele><time>2026-05-03T10:44:07.018Z</time></trkpt><trkpt lat="42.215504" lon="13.9148055"><ele>332.0</ele><time>2026-05-03T10:44:08.018Z</time></trkpt><trkpt lat="42.2154416" lon="13.9148611"><ele>332.0</ele><time>2026-05-03T10:44:09.018Z</time></trkpt><trkpt lat="42.2153652" lon="13.9148953"><ele>332.0</ele><time>2026-05-03T10:44:10.018Z</time></trkpt><trkpt lat="42.2152877" lon="13.9149266"><ele>332.0</ele><time>2026-05-03T10:44:11.018Z</time></trkpt><trkpt lat="42.2152096" lon="13.9149712"><ele>332.0</ele><time>2026-05-03T10:44:12.018Z</time></trkpt><trkpt lat="42.2151335" lon="13.91503"><ele>332.0</ele><time>2026-05-03T10:44:13.018Z</time></trkpt><trkpt lat="42.2150555" lon="13.9151029"><ele>330.6</ele><time>2026-05-03T10:44:14.018Z</time></trkpt><trkpt lat="42.2149772" lon="13.9151887"><ele>329.20000000000005</ele><time>2026-05-03T10:44:15.018Z</time></trkpt><trkpt lat="42.2148953" lon="13.9152727"><ele>327.8</ele><time>2026-05-03T10:44:16.018Z</time></trkpt><trkpt lat="42.2148104" lon="13.9153532"><ele>326.4</ele><time>2026-05-03T10:44:17.018Z</time></trkpt><trkpt lat="42.2147171" lon="13.9154217"><ele>325.0</ele><time>2026-05-03T10:44:18.018Z</time></trkpt><trkpt lat="42.2146239" lon="13.9154886"><ele>325.0</ele><time>2026-05-03T10:44:19.018Z</time></trkpt><trkpt lat="42.2145325" lon="13.9155572"><ele>325.0</ele><time>2026-05-03T10:44:20.018Z</time></trkpt><trkpt lat="42.2144418" lon="13.9156427"><ele>325.0</ele><time>2026-05-03T10:44:21.018Z</time></trkpt><trkpt lat="42.2143546" lon="13.915737"><ele>325.0</ele><time>2026-05-03T10:44:22.018Z</time></trkpt><trkpt lat="42.2142676" lon="13.9158392"><ele>325.0</ele><time>2026-05-03T10:44:23.018Z</time></trkpt><trkpt lat="42.2141739" lon="13.915945"><ele>323.5</ele><time>2026-05-03T10:44:24.018Z</time></trkpt><trkpt lat="42.2140806" lon="13.9160511"><ele>322.0</ele><time>2026-05-03T10:44:25.018Z</time></trkpt><trkpt lat="42.2139828" lon="13.9161448"><ele>320.5</ele><time>2026-05-03T10:44:26.018Z</time></trkpt><trkpt lat="42.2138797" lon="13.9162281"><ele>319.0</ele><time>2026-05-03T10:44:27.018Z</time></trkpt><trkpt lat="42.2137802" lon="13.9162959"><ele>319.0</ele><time>2026-05-03T10:44:28.018Z</time></trkpt><trkpt lat="42.2136886" lon="13.9163636"><ele>319.0</ele><time>2026-05-03T10:44:29.018Z</time></trkpt><trkpt lat="42.2136074" lon="13.9164434"><ele>319.0</ele><time>2026-05-03T10:44:30.018Z</time></trkpt><trkpt lat="42.2135414" lon="13.9165523"><ele>319.0</ele><time>2026-05-03T10:44:31.018Z</time></trkpt><trkpt lat="42.2134936" lon="13.9166776"><ele>319.0</ele><time>2026-05-03T10:44:32.018Z</time></trkpt><trkpt lat="42.2134716" lon="13.9168219"><ele>319.4</ele><time>2026-05-03T10:44:33.019Z</time></trkpt><trkpt lat="42.2134725" lon="13.9169704"><ele>319.79999999999995</ele><time>2026-05-03T10:44:34.018Z</time></trkpt><trkpt lat="42.2134824" lon="13.9171163"><ele>320.20000000000005</ele><time>2026-05-03T10:44:35.018Z</time></trkpt><trkpt lat="42.2134861" lon="13.9172681"><ele>320.6</ele><time>2026-05-03T10:44:36.018Z</time></trkpt><trkpt lat="42.2134926" lon="13.9174251"><ele>321.0</ele><time>2026-05-03T10:44:37.018Z</time></trkpt><trkpt lat="42.213489" lon="13.9175826"><ele>321.6666666666667</ele><time>2026-05-03T10:44:38.018Z</time></trkpt><trkpt lat="42.2134852" lon="13.9177277"><ele>322.3333333333333</ele><time>2026-05-03T10:44:39.018Z</time></trkpt><trkpt lat="42.2134732" lon="13.9178496"><ele>323.0</ele><time>2026-05-03T10:44:40.018Z</time></trkpt><trkpt lat="42.2134638" lon="13.9179461"><ele>323.66666666666663</ele><time>2026-05-03T10:44:41.018Z</time></trkpt><trkpt lat="42.2134557" lon="13.9180672"><ele>324.3333333333333</ele><time>2026-05-03T10:44:43.018Z</time></trkpt><trkpt lat="42.2134981" lon="13.918146"><ele>325.0</ele><time>2026-05-03T10:44:45.018Z</time></trkpt><trkpt lat="42.2136158" lon="13.9181936"><ele>325.0</ele><time>2026-05-03T10:44:47.018Z</time></trkpt><trkpt lat="42.213679" lon="13.9182346"><ele>325.0</ele><time>2026-05-03T10:44:48.018Z</time></trkpt><trkpt lat="42.2137449" lon="13.9182932"><ele>325.0</ele><time>2026-05-03T10:44:49.018Z</time></trkpt><trkpt lat="42.213809" lon="13.9183702"><ele>325.0</ele><time>2026-05-03T10:44:50.018Z</time></trkpt><trkpt lat="42.2138754" lon="13.9184664"><ele>325.0</ele><time>2026-05-03T10:44:51.018Z</time></trkpt><trkpt lat="42.2139487" lon="13.9185762"><ele>325.0</ele><time>2026-05-03T10:44:52.019Z</time></trkpt><trkpt lat="42.2140271" lon="13.9186964"><ele>324.75</ele><time>2026-05-03T10:44:53.018Z</time></trkpt><trkpt lat="42.2141161" lon="13.9188156"><ele>324.5</ele><time>2026-05-03T10:44:54.019Z</time></trkpt><trkpt lat="42.2142145" lon="13.9189301"><ele>324.25</ele><time>2026-05-03T10:44:55.018Z</time></trkpt><trkpt lat="42.2143202" lon="13.9190432"><ele>324.0</ele><time>2026-05-03T10:44:56.018Z</time></trkpt><trkpt lat="42.2144342" lon="13.9191516"><ele>323.75</ele><time>2026-05-03T10:44:57.018Z</time></trkpt><trkpt lat="42.214551" lon="13.9192504"><ele>323.5</ele><time>2026-05-03T10:44:58.018Z</time></trkpt><trkpt lat="42.2146743" lon="13.9193487"><ele>323.25</ele><time>2026-05-03T10:44:59.018Z</time></trkpt><trkpt lat="42.2147922" lon="13.9194439"><ele>323.0</ele><time>2026-05-03T10:45:00.018Z</time></trkpt><trkpt lat="42.2149092" lon="13.9195396"><ele>323.0</ele><time>2026-05-03T10:45:01.018Z</time></trkpt><trkpt lat="42.2150279" lon="13.919638"><ele>323.0</ele><time>2026-05-03T10:45:02.018Z</time></trkpt><trkpt lat="42.2151424" lon="13.9197426"><ele>323.0</ele><time>2026-05-03T10:45:03.018Z</time></trkpt><trkpt lat="42.2152578" lon="13.9198462"><ele>323.0</ele><time>2026-05-03T10:45:04.018Z</time></trkpt><trkpt lat="42.2153695" lon="13.9199549"><ele>323.0</ele><time>2026-05-03T10:45:05.018Z</time></trkpt><trkpt lat="42.2154864" lon="13.9200658"><ele>323.0</ele><time>2026-05-03T10:45:06.018Z</time></trkpt><trkpt lat="42.2156043" lon="13.9201854"><ele>323.0</ele><time>2026-05-03T10:45:07.018Z</time></trkpt><trkpt lat="42.2157187" lon="13.9203106"><ele>323.0</ele><time>2026-05-03T10:45:08.018Z</time></trkpt><trkpt lat="42.2158351" lon="13.9204347"><ele>322.25</ele><time>2026-05-03T10:45:09.018Z</time></trkpt><trkpt lat="42.2159449" lon="13.9205568"><ele>321.5</ele><time>2026-05-03T10:45:10.019Z</time></trkpt><trkpt lat="42.2160522" lon="13.920676"><ele>320.75</ele><time>2026-05-03T10:45:11.018Z</time></trkpt><trkpt lat="42.216149" lon="13.9207974"><ele>320.0</ele><time>2026-05-03T10:45:12.018Z</time></trkpt><trkpt lat="42.2162301" lon="13.9209068"><ele>319.8</ele><time>2026-05-03T10:45:13.018Z</time></trkpt><trkpt lat="42.2163002" lon="13.9210115"><ele>319.6</ele><time>2026-05-03T10:45:14.018Z</time></trkpt><trkpt lat="42.2163592" lon="13.9210991"><ele>319.4</ele><time>2026-05-03T10:45:15.018Z</time></trkpt><trkpt lat="42.2164072" lon="13.921169"><ele>319.2</ele><time>2026-05-03T10:45:16.018Z</time></trkpt><trkpt lat="42.2164664" lon="13.9212766"><ele>319.0</ele><time>2026-05-03T10:45:18.018Z</time></trkpt><trkpt lat="42.2165243" lon="13.9213685"><ele>319.0</ele><time>2026-05-03T10:45:20.019Z</time></trkpt><trkpt lat="42.2166093" lon="13.9214738"><ele>319.0</ele><time>2026-05-03T10:45:22.018Z</time></trkpt><trkpt lat="42.2166642" lon="13.9215351"><ele>319.0</ele><time>2026-05-03T10:45:23.018Z</time></trkpt><trkpt lat="42.2167293" lon="13.9216108"><ele>319.0</ele><time>2026-05-03T10:45:24.018Z</time></trkpt><trkpt lat="42.2168003" lon="13.9216945"><ele>319.0</ele><time>2026-05-03T10:45:25.018Z</time></trkpt><trkpt lat="42.2168715" lon="13.9217889"><ele>318.66666666666663</ele><time>2026-05-03T10:45:26.018Z</time></trkpt><trkpt lat="42.2169314" lon="13.9218742"><ele>318.3333333333333</ele><time>2026-05-03T10:45:27.018Z</time></trkpt><trkpt lat="42.2169875" lon="13.9219581"><ele>318.0</ele><time>2026-05-03T10:45:28.018Z</time></trkpt><trkpt lat="42.217031" lon="13.9220462"><ele>317.6666666666667</ele><time>2026-05-03T10:45:29.018Z</time></trkpt><trkpt lat="42.2170696" lon="13.9221444"><ele>317.33333333333337</ele><time>2026-05-03T10:45:30.018Z</time></trkpt><trkpt lat="42.2171151" lon="13.9222542"><ele>317.0</ele><time>2026-05-03T10:45:31.018Z</time></trkpt><trkpt lat="42.217155" lon="13.9223846"><ele>317.0</ele><time>2026-05-03T10:45:32.018Z</time></trkpt><trkpt lat="42.2172039" lon="13.9225282"><ele>317.0</ele><time>2026-05-03T10:45:33.018Z</time></trkpt><trkpt lat="42.2172504" lon="13.922675"><ele>317.0</ele><time>2026-05-03T10:45:34.018Z</time></trkpt><trkpt lat="42.2172966" lon="13.9228196"><ele>317.0</ele><time>2026-05-03T10:45:35.018Z</time></trkpt><trkpt lat="42.21734" lon="13.922948"><ele>316.0</ele><time>2026-05-03T10:45:36.018Z</time></trkpt><trkpt lat="42.2173842" lon="13.9230615"><ele>315.0</ele><time>2026-05-03T10:45:37.018Z</time></trkpt><trkpt lat="42.2174282" lon="13.9231452"><ele>314.0</ele><time>2026-05-03T10:45:38.018Z</time></trkpt><trkpt lat="42.2174805" lon="13.9232127"><ele>313.0</ele><time>2026-05-03T10:45:39.018Z</time></trkpt><trkpt lat="42.2175417" lon="13.9232707"><ele>312.0</ele><time>2026-05-03T10:45:40.018Z</time></trkpt><trkpt lat="42.2176094" lon="13.9233327"><ele>311.0</ele><time>2026-05-03T10:45:41.018Z</time></trkpt><trkpt lat="42.2176916" lon="13.9233993"><ele>310.25</ele><time>2026-05-03T10:45:42.018Z</time></trkpt><trkpt lat="42.2177821" lon="13.9234703"><ele>309.5</ele><time>2026-05-03T10:45:43.019Z</time></trkpt><trkpt lat="42.2178869" lon="13.9235432"><ele>308.75</ele><time>2026-05-03T10:45:44.018Z</time></trkpt><trkpt lat="42.2179911" lon="13.9236138"><ele>308.0</ele><time>2026-05-03T10:45:45.018Z</time></trkpt><trkpt lat="42.2180901" lon="13.9236912"><ele>308.0</ele><time>2026-05-03T10:45:46.018Z</time></trkpt><trkpt lat="42.2181815" lon="13.923782"><ele>308.0</ele><time>2026-05-03T10:45:47.018Z</time></trkpt><trkpt lat="42.2182761" lon="13.9238757"><ele>308.0</ele><time>2026-05-03T10:45:48.018Z</time></trkpt><trkpt lat="42.2183782" lon="13.9239671"><ele>308.0</ele><time>2026-05-03T10:45:49.018Z</time></trkpt><trkpt lat="42.2184791" lon="13.9240516"><ele>308.0</ele><time>2026-05-03T10:45:50.018Z</time></trkpt><trkpt lat="42.2185758" lon="13.9241236"><ele>308.0</ele><time>2026-05-03T10:45:51.018Z</time></trkpt><trkpt lat="42.2186653" lon="13.9241936"><ele>308.0</ele><time>2026-05-03T10:45:52.018Z</time></trkpt><trkpt lat="42.2187422" lon="13.9242548"><ele>308.0</ele><time>2026-05-03T10:45:53.018Z</time></trkpt><trkpt lat="42.2188104" lon="13.9242944"><ele>308.0</ele><time>2026-05-03T10:45:54.018Z</time></trkpt><trkpt lat="42.2189249" lon="13.9243414"><ele>307.0</ele><time>2026-05-03T10:45:56.018Z</time></trkpt><trkpt lat="42.2189887" lon="13.9243787"><ele>306.0</ele><time>2026-05-03T10:45:57.018Z</time></trkpt><trkpt lat="42.2190553" lon="13.9244139"><ele>305.0</ele><time>2026-05-03T10:45:58.018Z</time></trkpt><trkpt lat="42.2191223" lon="13.9244529"><ele>304.0</ele><time>2026-05-03T10:45:59.018Z</time></trkpt><trkpt lat="42.219201" lon="13.9244969"><ele>303.0</ele><time>2026-05-03T10:46:00.018Z</time></trkpt><trkpt lat="42.2192675" lon="13.9245527"><ele>302.0</ele><time>2026-05-03T10:46:01.018Z</time></trkpt><trkpt lat="42.2193375" lon="13.9246222"><ele>302.0</ele><time>2026-05-03T10:46:02.018Z</time></trkpt><trkpt lat="42.2193942" lon="13.9246994"><ele>302.0</ele><time>2026-05-03T10:46:03.018Z</time></trkpt><trkpt lat="42.2194496" lon="13.9247767"><ele>302.0</ele><time>2026-05-03T10:46:04.018Z</time></trkpt><trkpt lat="42.2195071" lon="13.924847"><ele>302.0</ele><time>2026-05-03T10:46:05.018Z</time></trkpt><trkpt lat="42.2195558" lon="13.9249225"><ele>302.0</ele><time>2026-05-03T10:46:06.018Z</time></trkpt><trkpt lat="42.2196118" lon="13.9249917"><ele>302.0</ele><time>2026-05-03T10:46:07.018Z</time></trkpt><trkpt lat="42.2196628" lon="13.9250631"><ele>301.6666666666667</ele><time>2026-05-03T10:46:08.018Z</time></trkpt><trkpt lat="42.2197137" lon="13.9251402"><ele>301.33333333333337</ele><time>2026-05-03T10:46:09.018Z</time></trkpt><trkpt lat="42.2197779" lon="13.9252264"><ele>301.0</ele><time>2026-05-03T10:46:10.018Z</time></trkpt><trkpt lat="42.2198408" lon="13.9253098"><ele>300.6666666666667</ele><time>2026-05-03T10:46:11.018Z</time></trkpt><trkpt lat="42.2199029" lon="13.9253828"><ele>300.3333333333333</ele><time>2026-05-03T10:46:12.018Z</time></trkpt><trkpt lat="42.2199653" lon="13.9254555"><ele>300.0</ele><time>2026-05-03T10:46:13.018Z</time></trkpt><trkpt lat="42.2200304" lon="13.9255155"><ele>299.6666666666667</ele><time>2026-05-03T10:46:14.018Z</time></trkpt><trkpt lat="42.2200994" lon="13.9255594"><ele>299.3333333333333</ele><time>2026-05-03T10:46:15.018Z</time></trkpt><trkpt lat="42.2201797" lon="13.925586"><ele>299.0</ele><time>2026-05-03T10:46:16.018Z</time></trkpt><trkpt lat="42.2202656" lon="13.9256027"><ele>298.66666666666663</ele><time>2026-05-03T10:46:17.018Z</time></trkpt><trkpt lat="42.2203507" lon="13.9256129"><ele>298.3333333333333</ele><time>2026-05-03T10:46:18.018Z</time></trkpt><trkpt lat="42.2204147" lon="13.92562"><ele>298.0</ele><time>2026-05-03T10:46:19.018Z</time></trkpt><trkpt lat="42.220493" lon="13.9256342"><ele>298.0</ele><time>2026-05-03T10:46:21.018Z</time></trkpt><trkpt lat="42.2205745" lon="13.9256365"><ele>298.0</ele><time>2026-05-03T10:46:23.018Z</time></trkpt><trkpt lat="42.2206662" lon="13.9255948"><ele>298.0</ele><time>2026-05-03T10:46:25.019Z</time></trkpt><trkpt lat="42.2207684" lon="13.9255473"><ele>298.0</ele><time>2026-05-03T10:46:27.019Z</time></trkpt><trkpt lat="42.2208745" lon="13.925518"><ele>298.0</ele><time>2026-05-03T10:46:29.018Z</time></trkpt><trkpt lat="42.2209809" lon="13.9255237"><ele>296.8</ele><time>2026-05-03T10:46:31.018Z</time></trkpt><trkpt lat="42.2210986" lon="13.9255283"><ele>295.6</ele><time>2026-05-03T10:46:33.019Z</time></trkpt><trkpt lat="42.2212181" lon="13.9255343"><ele>294.4</ele><time>2026-05-03T10:46:35.018Z</time></trkpt><trkpt lat="42.221325" lon="13.9255499"><ele>293.2</ele><time>2026-05-03T10:46:37.018Z</time></trkpt><trkpt lat="42.2214291" lon="13.9255499"><ele>292.0</ele><time>2026-05-03T10:46:39.019Z</time></trkpt><trkpt lat="42.2215263" lon="13.9255615"><ele>290.0</ele><time>2026-05-03T10:46:41.018Z</time></trkpt><trkpt lat="42.2216259" lon="13.9255718"><ele>288.0</ele><time>2026-05-03T10:46:43.018Z</time></trkpt><trkpt lat="42.2217265" lon="13.9256028"><ele>286.0</ele><time>2026-05-03T10:46:45.018Z</time></trkpt><trkpt lat="42.22182" lon="13.9256162"><ele>284.0</ele><time>2026-05-03T10:46:47.018Z</time></trkpt><trkpt lat="42.2219262" lon="13.9256282"><ele>282.0</ele><time>2026-05-03T10:46:49.018Z</time></trkpt><trkpt lat="42.2220162" lon="13.9256592"><ele>282.0</ele><time>2026-05-03T10:46:51.018Z</time></trkpt><trkpt lat="42.2220978" lon="13.9257001"><ele>282.0</ele><time>2026-05-03T10:46:53.019Z</time></trkpt><trkpt lat="42.2221589" lon="13.9257342"><ele>282.0</ele><time>2026-05-03T10:46:55.018Z</time></trkpt><trkpt lat="42.2222243" lon="13.925802"><ele>282.0</ele><time>2026-05-03T10:46:58.018Z</time></trkpt><trkpt lat="42.2222746" lon="13.9258708"><ele>282.0</ele><time>2026-05-03T10:47:00.018Z</time></trkpt><trkpt lat="42.2223137" lon="13.9259672"><ele>282.0</ele><time>2026-05-03T10:47:03.019Z</time></trkpt><trkpt lat="42.2223065" lon="13.926066"><ele>280.0</ele><time>2026-05-03T10:47:06.018Z</time></trkpt><trkpt lat="42.2222648" lon="13.9261487"><ele>278.0</ele><time>2026-05-03T10:47:28.018Z</time></trkpt><trkpt lat="42.2222227" lon="13.9262249"><ele>276.0</ele><time>2026-05-03T10:47:34.018Z</time></trkpt><trkpt lat="42.222161" lon="13.926268"><ele>274.0</ele><time>2026-05-03T10:47:39.019Z</time></trkpt><trkpt lat="42.2220913" lon="13.9263211"><ele>272.0</ele><time>2026-05-03T10:47:43.019Z</time></trkpt><trkpt lat="42.2220253" lon="13.9263683"><ele>270.0</ele><time>2026-05-03T10:47:47.018Z</time></trkpt><trkpt lat="42.2219661" lon="13.9264176"><ele>268.0</ele><time>2026-05-03T10:48:03.018Z</time></trkpt><trkpt lat="42.2219122" lon="13.9264671"><ele>268.0</ele><time>2026-05-03T10:48:06.018Z</time></trkpt><trkpt lat="42.2218541" lon="13.9265221"><ele>268.0</ele><time>2026-05-03T10:48:09.019Z</time></trkpt><trkpt lat="42.2217935" lon="13.9265506"><ele>268.0</ele><time>2026-05-03T10:48:15.018Z</time></trkpt><trkpt lat="42.2217678" lon="13.9266413"><ele>268.0</ele><time>2026-05-03T10:48:46.018Z</time></trkpt><trkpt lat="42.2217347" lon="13.9267208"><ele>268.0</ele><time>2026-05-03T10:48:49.018Z</time></trkpt><trkpt lat="42.2217072" lon="13.9268214"><ele>268.0</ele><time>2026-05-03T10:48:53.018Z</time></trkpt><trkpt lat="42.2216534" lon="13.9269136"><ele>268.0</ele><time>2026-05-03T10:48:57.018Z</time></trkpt><trkpt lat="42.2216737" lon="13.9270032"><ele>268.0</ele><time>2026-05-03T10:49:02.018Z</time></trkpt><trkpt lat="42.2217063" lon="13.926921"><ele>268.0</ele><time>2026-05-03T10:49:14.018Z</time></trkpt><trkpt lat="42.2217068" lon="13.9268329"><ele>268.0</ele><time>2026-05-03T10:49:18.018Z</time></trkpt><trkpt lat="42.2217273" lon="13.9267478"><ele>268.0</ele><time>2026-05-03T10:49:21.018Z</time></trkpt><trkpt lat="42.2217655" lon="13.9266454"><ele>268.0</ele><time>2026-05-03T10:49:24.019Z</time></trkpt><trkpt lat="42.2218068" lon="13.9265747"><ele>268.0</ele><time>2026-05-03T10:49:26.018Z</time></trkpt><trkpt lat="42.2218781" lon="13.926502"><ele>268.0</ele><time>2026-05-03T10:49:28.018Z</time></trkpt><trkpt lat="42.2219449" lon="13.9264268"><ele>268.0</ele><time>2026-05-03T10:49:30.019Z</time></trkpt><trkpt lat="42.2220193" lon="13.9263696"><ele>268.0</ele><time>2026-05-03T10:49:32.018Z</time></trkpt><trkpt lat="42.2221018" lon="13.9263247"><ele>268.0</ele><time>2026-05-03T10:49:34.018Z</time></trkpt><trkpt lat="42.2221801" lon="13.9262567"><ele>268.0</ele><time>2026-05-03T10:49:36.019Z</time></trkpt><trkpt lat="42.2222447" lon="13.9261773"><ele>268.0</ele><time>2026-05-03T10:49:39.018Z</time></trkpt><trkpt lat="42.2222823" lon="13.9260766"><ele>268.0</ele><time>2026-05-03T10:49:42.018Z</time></trkpt><trkpt lat="42.2223021" lon="13.9259748"><ele>270.0</ele><time>2026-05-03T10:49:45.018Z</time></trkpt><trkpt lat="42.2222699" lon="13.9258729"><ele>272.0</ele><time>2026-05-03T10:49:48.018Z</time></trkpt><trkpt lat="42.2222255" lon="13.9258032"><ele>274.0</ele><time>2026-05-03T10:51:35.018Z</time></trkpt><trkpt lat="42.2221713" lon="13.9257503"><ele>276.0</ele><time>2026-05-03T10:51:42.019Z</time></trkpt><trkpt lat="42.2221008" lon="13.9256931"><ele>278.0</ele><time>2026-05-03T10:51:50.018Z</time></trkpt><trkpt lat="42.2220233" lon="13.9256558"><ele>280.0</ele><time>2026-05-03T10:51:53.018Z</time></trkpt><trkpt lat="42.2219583" lon="13.9256349"><ele>282.0</ele><time>2026-05-03T10:51:55.018Z</time></trkpt><trkpt lat="42.2218626" lon="13.9256142"><ele>282.0</ele><time>2026-05-03T10:51:58.018Z</time></trkpt><trkpt lat="42.2217976" lon="13.9255967"><ele>282.0</ele><time>2026-05-03T10:52:00.018Z</time></trkpt><trkpt lat="42.2217092" lon="13.9255782"><ele>282.0</ele><time>2026-05-03T10:52:03.018Z</time></trkpt><trkpt lat="42.2216331" lon="13.9255578"><ele>282.0</ele><time>2026-05-03T10:52:05.018Z</time></trkpt><trkpt lat="42.2215391" lon="13.9255496"><ele>282.0</ele><time>2026-05-03T10:52:07.018Z</time></trkpt><trkpt lat="42.2214537" lon="13.9255404"><ele>282.0</ele><time>2026-05-03T10:52:09.018Z</time></trkpt><trkpt lat="42.2213618" lon="13.9255311"><ele>284.0</ele><time>2026-05-03T10:52:11.019Z</time></trkpt><trkpt lat="42.2212568" lon="13.9255338"><ele>286.0</ele><time>2026-05-03T10:52:13.018Z</time></trkpt><trkpt lat="42.2211554" lon="13.9255232"><ele>288.0</ele><time>2026-05-03T10:52:15.018Z</time></trkpt><trkpt lat="42.2210596" lon="13.9255176"><ele>290.0</ele><time>2026-05-03T10:52:17.018Z</time></trkpt><trkpt lat="42.2209606" lon="13.9255057"><ele>292.0</ele><time>2026-05-03T10:52:19.018Z</time></trkpt><trkpt lat="42.2208751" lon="13.9255119"><ele>292.0</ele><time>2026-05-03T10:52:21.018Z</time></trkpt><trkpt lat="42.2207849" lon="13.925538"><ele>292.0</ele><time>2026-05-03T10:52:23.018Z</time></trkpt><trkpt lat="42.2206962" lon="13.9255768"><ele>292.0</ele><time>2026-05-03T10:52:25.018Z</time></trkpt><trkpt lat="42.2206265" lon="13.9256192"><ele>292.0</ele><time>2026-05-03T10:52:27.018Z</time></trkpt><trkpt lat="42.2205394" lon="13.9256255"><ele>292.0</ele><time>2026-05-03T10:52:29.018Z</time></trkpt><trkpt lat="42.2204295" lon="13.9256045"><ele>293.2</ele><time>2026-05-03T10:52:31.018Z</time></trkpt><trkpt lat="42.2203351" lon="13.9256051"><ele>294.4</ele><time>2026-05-03T10:52:33.018Z</time></trkpt><trkpt lat="42.2202271" lon="13.9255989"><ele>295.6</ele><time>2026-05-03T10:52:35.018Z</time></trkpt><trkpt lat="42.2201319" lon="13.9255645"><ele>296.8</ele><time>2026-05-03T10:52:37.018Z</time></trkpt><trkpt lat="42.2200539" lon="13.9255165"><ele>298.0</ele><time>2026-05-03T10:52:39.018Z</time></trkpt><trkpt lat="42.219973" lon="13.9254469"><ele>298.0</ele><time>2026-05-03T10:52:41.019Z</time></trkpt><trkpt lat="42.2198892" lon="13.9253528"><ele>298.0</ele><time>2026-05-03T10:52:43.018Z</time></trkpt><trkpt lat="42.219805" lon="13.9252454"><ele>298.0</ele><time>2026-05-03T10:52:45.018Z</time></trkpt><trkpt lat="42.2197261" lon="13.9251275"><ele>298.0</ele><time>2026-05-03T10:52:47.018Z</time></trkpt><trkpt lat="42.219652" lon="13.9250175"><ele>298.8</ele><time>2026-05-03T10:52:49.018Z</time></trkpt><trkpt lat="42.2195785" lon="13.9249212"><ele>299.6</ele><time>2026-05-03T10:52:51.018Z</time></trkpt><trkpt lat="42.2195165" lon="13.9248249"><ele>300.4</ele><time>2026-05-03T10:52:53.018Z</time></trkpt><trkpt lat="42.2194591" lon="13.9247355"><ele>301.2</ele><time>2026-05-03T10:52:55.018Z</time></trkpt><trkpt lat="42.2193934" lon="13.9246541"><ele>302.0</ele><time>2026-05-03T10:52:57.018Z</time></trkpt><trkpt lat="42.2193147" lon="13.9245649"><ele>302.0</ele><time>2026-05-03T10:52:59.018Z</time></trkpt><trkpt lat="42.2192189" lon="13.9244772"><ele>302.0</ele><time>2026-05-03T10:53:01.018Z</time></trkpt><trkpt lat="42.2191587" lon="13.9244471"><ele>302.0</ele><time>2026-05-03T10:53:02.019Z</time></trkpt><trkpt lat="42.2190522" lon="13.9243914"><ele>302.0</ele><time>2026-05-03T10:53:04.018Z</time></trkpt><trkpt lat="42.2189533" lon="13.9243384"><ele>302.0</ele><time>2026-05-03T10:53:06.018Z</time></trkpt><trkpt lat="42.2188507" lon="13.9242872"><ele>303.0</ele><time>2026-05-03T10:53:08.018Z</time></trkpt><trkpt lat="42.2187395" lon="13.9242172"><ele>304.0</ele><time>2026-05-03T10:53:10.019Z</time></trkpt><trkpt lat="42.2186726" lon="13.9241707"><ele>305.0</ele><time>2026-05-03T10:53:11.018Z</time></trkpt><trkpt lat="42.2186034" lon="13.9241225"><ele>306.0</ele><time>2026-05-03T10:53:12.019Z</time></trkpt><trkpt lat="42.2185321" lon="13.9240662"><ele>307.0</ele><time>2026-05-03T10:53:13.018Z</time></trkpt><trkpt lat="42.2184656" lon="13.9240078"><ele>308.0</ele><time>2026-05-03T10:53:14.018Z</time></trkpt><trkpt lat="42.2183956" lon="13.9239488"><ele>308.0</ele><time>2026-05-03T10:53:15.018Z</time></trkpt><trkpt lat="42.218323" lon="13.9238966"><ele>308.0</ele><time>2026-05-03T10:53:16.018Z</time></trkpt><trkpt lat="42.2182562" lon="13.9238363"><ele>308.0</ele><time>2026-05-03T10:53:17.018Z</time></trkpt><trkpt lat="42.2181918" lon="13.9237713"><ele>308.0</ele><time>2026-05-03T10:53:18.018Z</time></trkpt><trkpt lat="42.2181269" lon="13.9237125"><ele>308.0</ele><time>2026-05-03T10:53:19.018Z</time></trkpt><trkpt lat="42.2180489" lon="13.9236452"><ele>308.0</ele><time>2026-05-03T10:53:20.018Z</time></trkpt><trkpt lat="42.2179719" lon="13.9235903"><ele>308.0</ele><time>2026-05-03T10:53:21.019Z</time></trkpt><trkpt lat="42.2178917" lon="13.9235377"><ele>308.0</ele><time>2026-05-03T10:53:22.018Z</time></trkpt><trkpt lat="42.2178195" lon="13.9234858"><ele>308.0</ele><time>2026-05-03T10:53:23.018Z</time></trkpt><trkpt lat="42.2177562" lon="13.9234226"><ele>308.0</ele><time>2026-05-03T10:53:24.018Z</time></trkpt><trkpt lat="42.2176939" lon="13.9233768"><ele>308.0</ele><time>2026-05-03T10:53:25.018Z</time></trkpt><trkpt lat="42.2176358" lon="13.923338"><ele>308.0</ele><time>2026-05-03T10:53:26.018Z</time></trkpt><trkpt lat="42.2175579" lon="13.9232828"><ele>308.0</ele><time>2026-05-03T10:53:28.018Z</time></trkpt><trkpt lat="42.2174846" lon="13.9232763"><ele>308.0</ele><time>2026-05-03T10:53:32.018Z</time></trkpt><trkpt lat="42.2174806" lon="13.9233824"><ele>308.0</ele><time>2026-05-03T10:53:34.018Z</time></trkpt><trkpt lat="42.217523" lon="13.9235537"><ele>308.0</ele><time>2026-05-03T10:53:36.018Z</time></trkpt><trkpt lat="42.2175351" lon="13.9236636"><ele>308.0</ele><time>2026-05-03T10:53:37.018Z</time></trkpt><trkpt lat="42.2175589" lon="13.9237913"><ele>308.0</ele><time>2026-05-03T10:53:38.018Z</time></trkpt><trkpt lat="42.2175905" lon="13.9239328"><ele>308.0</ele><time>2026-05-03T10:53:39.019Z</time></trkpt><trkpt lat="42.2176272" lon="13.9240855"><ele>308.0</ele><time>2026-05-03T10:53:40.018Z</time></trkpt><trkpt lat="42.2176622" lon="13.9242459"><ele>308.0</ele><time>2026-05-03T10:53:41.018Z</time></trkpt><trkpt lat="42.2176982" lon="13.9244092"><ele>307.4</ele><time>2026-05-03T10:53:42.018Z</time></trkpt><trkpt lat="42.2177337" lon="13.9245686"><ele>306.8</ele><time>2026-05-03T10:53:43.018Z</time></trkpt><trkpt lat="42.2177645" lon="13.9247258"><ele>306.2</ele><time>2026-05-03T10:53:44.018Z</time></trkpt><trkpt lat="42.2177932" lon="13.9248571"><ele>305.6</ele><time>2026-05-03T10:53:45.018Z</time></trkpt><trkpt lat="42.2178281" lon="13.9249762"><ele>305.0</ele><time>2026-05-03T10:53:46.018Z</time></trkpt><trkpt lat="42.2178714" lon="13.925093"><ele>304.4</ele><time>2026-05-03T10:53:47.018Z</time></trkpt><trkpt lat="42.2179289" lon="13.9252052"><ele>303.8</ele><time>2026-05-03T10:53:48.018Z</time></trkpt><trkpt lat="42.217993" lon="13.9253155"><ele>303.2</ele><time>2026-05-03T10:53:49.018Z</time></trkpt><trkpt lat="42.2180562" lon="13.9254215"><ele>302.6</ele><time>2026-05-03T10:53:50.018Z</time></trkpt><trkpt lat="42.2181195" lon="13.9255279"><ele>302.0</ele><time>2026-05-03T10:53:51.018Z</time></trkpt><trkpt lat="42.2181737" lon="13.9256424"><ele>302.0</ele><time>2026-05-03T10:53:52.018Z</time></trkpt><trkpt lat="42.2182154" lon="13.9257648"><ele>302.0</ele><time>2026-05-03T10:53:53.018Z</time></trkpt><trkpt lat="42.2182492" lon="13.9258943"><ele>302.0</ele><time>2026-05-03T10:53:54.019Z</time></trkpt><trkpt lat="42.2182795" lon="13.9260282"><ele>302.0</ele><time>2026-05-03T10:53:55.018Z</time></trkpt><trkpt lat="42.2183146" lon="13.9261549"><ele>302.0</ele><time>2026-05-03T10:53:56.018Z</time></trkpt><trkpt lat="42.2183586" lon="13.9262724"><ele>301.4</ele><time>2026-05-03T10:53:57.018Z</time></trkpt><trkpt lat="42.2184132" lon="13.9263807"><ele>300.79999999999995</ele><time>2026-05-03T10:53:58.018Z</time></trkpt><trkpt lat="42.2184676" lon="13.9264947"><ele>300.2</ele><time>2026-05-03T10:53:59.018Z</time></trkpt><trkpt lat="42.2185196" lon="13.9266124"><ele>299.59999999999997</ele><time>2026-05-03T10:54:00.018Z</time></trkpt><trkpt lat="42.2185603" lon="13.9267215"><ele>299.0</ele><time>2026-05-03T10:54:01.018Z</time></trkpt><trkpt lat="42.2185993" lon="13.9268217"><ele>298.2857142857143</ele><time>2026-05-03T10:54:02.018Z</time></trkpt><trkpt lat="42.2186343" lon="13.9269101"><ele>297.57142857142856</ele><time>2026-05-03T10:54:03.018Z</time></trkpt><trkpt lat="42.2186678" lon="13.9269903"><ele>296.8571428571429</ele><time>2026-05-03T10:54:04.018Z</time></trkpt><trkpt lat="42.21871" lon="13.9270608"><ele>296.1428571428571</ele><time>2026-05-03T10:54:05.018Z</time></trkpt><trkpt lat="42.2187552" lon="13.9271299"><ele>295.42857142857144</ele><time>2026-05-03T10:54:06.018Z</time></trkpt><trkpt lat="42.2188154" lon="13.9271934"><ele>294.7142857142857</ele><time>2026-05-03T10:54:07.018Z</time></trkpt><trkpt lat="42.2188884" lon="13.9272598"><ele>294.0</ele><time>2026-05-03T10:54:08.018Z</time></trkpt><trkpt lat="42.2189642" lon="13.9273249"><ele>293.8333333333333</ele><time>2026-05-03T10:54:09.018Z</time></trkpt><trkpt lat="42.2190306" lon="13.927389"><ele>293.6666666666667</ele><time>2026-05-03T10:54:10.018Z</time></trkpt><trkpt lat="42.2190855" lon="13.9274402"><ele>293.5</ele><time>2026-05-03T10:54:11.018Z</time></trkpt><trkpt lat="42.2191377" lon="13.927491"><ele>293.33333333333337</ele><time>2026-05-03T10:54:12.018Z</time></trkpt><trkpt lat="42.2192126" lon="13.9276282"><ele>293.1666666666667</ele><time>2026-05-03T10:54:14.018Z</time></trkpt><trkpt lat="42.2192578" lon="13.9277126"><ele>293.0</ele><time>2026-05-03T10:54:15.018Z</time></trkpt><trkpt lat="42.2193075" lon="13.9277999"><ele>292.33333333333337</ele><time>2026-05-03T10:54:16.018Z</time></trkpt><trkpt lat="42.2193571" lon="13.9278863"><ele>291.6666666666667</ele><time>2026-05-03T10:54:17.019Z</time></trkpt><trkpt lat="42.2194062" lon="13.9279654"><ele>291.0</ele><time>2026-05-03T10:54:18.019Z</time></trkpt><trkpt lat="42.2194584" lon="13.9280357"><ele>290.3333333333333</ele><time>2026-05-03T10:54:19.018Z</time></trkpt><trkpt lat="42.2195405" lon="13.9281676"><ele>289.66666666666663</ele><time>2026-05-03T10:54:21.018Z</time></trkpt><trkpt lat="42.2195922" lon="13.9282226"><ele>289.0</ele><time>2026-05-03T10:54:22.018Z</time></trkpt><trkpt lat="42.2196508" lon="13.9282701"><ele>289.0</ele><time>2026-05-03T10:54:23.018Z</time></trkpt><trkpt lat="42.219712" lon="13.928315"><ele>289.0</ele><time>2026-05-03T10:54:24.018Z</time></trkpt><trkpt lat="42.219816" lon="13.9284019"><ele>289.0</ele><time>2026-05-03T10:54:26.019Z</time></trkpt><trkpt lat="42.2198901" lon="13.928528"><ele>289.0</ele><time>2026-05-03T10:54:28.018Z</time></trkpt><trkpt lat="42.2199328" lon="13.9285922"><ele>289.0</ele><time>2026-05-03T10:54:29.018Z</time></trkpt><trkpt lat="42.2199729" lon="13.9286636"><ele>289.0</ele><time>2026-05-03T10:54:30.018Z</time></trkpt><trkpt lat="42.2200126" lon="13.9287445"><ele>287.7142857142857</ele><time>2026-05-03T10:54:31.018Z</time></trkpt><trkpt lat="42.2200413" lon="13.9288252"><ele>286.42857142857144</ele><time>2026-05-03T10:54:32.018Z</time></trkpt><trkpt lat="42.2200673" lon="13.9289085"><ele>285.1428571428571</ele><time>2026-05-03T10:54:33.018Z</time></trkpt><trkpt lat="42.2200932" lon="13.9289928"><ele>283.8571428571429</ele><time>2026-05-03T10:54:34.018Z</time></trkpt><trkpt lat="42.2201217" lon="13.9290869"><ele>282.57142857142856</ele><time>2026-05-03T10:54:35.019Z</time></trkpt><trkpt lat="42.2201483" lon="13.9291835"><ele>281.2857142857143</ele><time>2026-05-03T10:54:36.018Z</time></trkpt><trkpt lat="42.2201749" lon="13.929284"><ele>280.0</ele><time>2026-05-03T10:54:37.018Z</time></trkpt><trkpt lat="42.2202028" lon="13.9293843"><ele>278.5</ele><time>2026-05-03T10:54:38.018Z</time></trkpt><trkpt lat="42.2202311" lon="13.9294871"><ele>277.0</ele><time>2026-05-03T10:54:39.018Z</time></trkpt><trkpt lat="42.2202622" lon="13.9295914"><ele>275.5</ele><time>2026-05-03T10:54:40.018Z</time></trkpt><trkpt lat="42.2202962" lon="13.929699"><ele>274.0</ele><time>2026-05-03T10:54:41.018Z</time></trkpt><trkpt lat="42.2203286" lon="13.9298011"><ele>272.5</ele><time>2026-05-03T10:54:42.018Z</time></trkpt><trkpt lat="42.2203607" lon="13.9298964"><ele>271.0</ele><time>2026-05-03T10:54:43.018Z</time></trkpt><trkpt lat="42.2204115" lon="13.9299885"><ele>269.8333333333333</ele><time>2026-05-03T10:54:44.018Z</time></trkpt><trkpt lat="42.220444" lon="13.9300767"><ele>268.66666666666663</ele><time>2026-05-03T10:54:45.018Z</time></trkpt><trkpt lat="42.2204765" lon="13.9301688"><ele>267.5</ele><time>2026-05-03T10:54:46.018Z</time></trkpt><trkpt lat="42.2205093" lon="13.9302565"><ele>266.3333333333333</ele><time>2026-05-03T10:54:47.018Z</time></trkpt><trkpt lat="42.2205453" lon="13.9303437"><ele>265.1666666666667</ele><time>2026-05-03T10:54:48.018Z</time></trkpt><trkpt lat="42.220596" lon="13.9304918"><ele>264.0</ele><time>2026-05-03T10:54:50.018Z</time></trkpt><trkpt lat="42.2206223" lon="13.9306325"><ele>264.0</ele><time>2026-05-03T10:54:52.018Z</time></trkpt><trkpt lat="42.2206275" lon="13.9307245"><ele>264.0</ele><time>2026-05-03T10:54:54.019Z</time></trkpt><trkpt lat="42.2205795" lon="13.9308565"><ele>264.0</ele><time>2026-05-03T10:54:57.018Z</time></trkpt><trkpt lat="42.220551" lon="13.9310119"><ele>264.0</ele><time>2026-05-03T10:54:59.018Z</time></trkpt><trkpt lat="42.2205678" lon="13.9311112"><ele>264.0</ele><time>2026-05-03T10:55:00.018Z</time></trkpt><trkpt lat="42.2206017" lon="13.9312192"><ele>262.59999999999997</ele><time>2026-05-03T10:55:01.018Z</time></trkpt><trkpt lat="42.2206333" lon="13.9313529"><ele>261.2</ele><time>2026-05-03T10:55:02.019Z</time></trkpt><trkpt lat="42.2206567" lon="13.9314925"><ele>259.79999999999995</ele><time>2026-05-03T10:55:03.018Z</time></trkpt><trkpt lat="42.2206893" lon="13.931635"><ele>258.4</ele><time>2026-05-03T10:55:04.019Z</time></trkpt><trkpt lat="42.2207234" lon="13.9317789"><ele>257.0</ele><time>2026-05-03T10:55:05.018Z</time></trkpt><trkpt lat="42.2207585" lon="13.9319267"><ele>255.39999999999998</ele><time>2026-05-03T10:55:06.018Z</time></trkpt><trkpt lat="42.2207934" lon="13.9320701"><ele>253.79999999999998</ele><time>2026-05-03T10:55:07.018Z</time></trkpt><trkpt lat="42.2208275" lon="13.9322044"><ele>252.2</ele><time>2026-05-03T10:55:08.018Z</time></trkpt><trkpt lat="42.220864" lon="13.9323278"><ele>250.6</ele><time>2026-05-03T10:55:09.018Z</time></trkpt><trkpt lat="42.2209151" lon="13.9324435"><ele>249.0</ele><time>2026-05-03T10:55:10.018Z</time></trkpt><trkpt lat="42.2209801" lon="13.9325524"><ele>247.2</ele><time>2026-05-03T10:55:11.018Z</time></trkpt><trkpt lat="42.2210515" lon="13.9326528"><ele>245.39999999999998</ele><time>2026-05-03T10:55:12.018Z</time></trkpt><trkpt lat="42.2211317" lon="13.9327543"><ele>243.6</ele><time>2026-05-03T10:55:13.019Z</time></trkpt><trkpt lat="42.2212176" lon="13.9328564"><ele>241.8</ele><time>2026-05-03T10:55:14.018Z</time></trkpt><trkpt lat="42.2213022" lon="13.9329674"><ele>240.0</ele><time>2026-05-03T10:55:15.018Z</time></trkpt><trkpt lat="42.2213817" lon="13.933083"><ele>240.0</ele><time>2026-05-03T10:55:16.018Z</time></trkpt><trkpt lat="42.2214566" lon="13.9332025"><ele>240.0</ele><time>2026-05-03T10:55:17.018Z</time></trkpt><trkpt lat="42.2215297" lon="13.93332"><ele>240.0</ele><time>2026-05-03T10:55:18.018Z</time></trkpt><trkpt lat="42.2216" lon="13.9334323"><ele>240.0</ele><time>2026-05-03T10:55:19.018Z</time></trkpt><trkpt lat="42.2216614" lon="13.9335371"><ele>240.0</ele><time>2026-05-03T10:55:20.018Z</time></trkpt><trkpt lat="42.2217263" lon="13.933629"><ele>237.6</ele><time>2026-05-03T10:55:21.018Z</time></trkpt><trkpt lat="42.2218002" lon="13.9337062"><ele>235.2</ele><time>2026-05-03T10:55:22.018Z</time></trkpt><trkpt lat="42.2218948" lon="13.9337487"><ele>232.8</ele><time>2026-05-03T10:55:23.018Z</time></trkpt><trkpt lat="42.2220059" lon="13.9337708"><ele>230.4</ele><time>2026-05-03T10:55:24.018Z</time></trkpt><trkpt lat="42.2221039" lon="13.9337946"><ele>228.0</ele><time>2026-05-03T10:55:25.018Z</time></trkpt><trkpt lat="42.2221836" lon="13.9338403"><ele>228.0</ele><time>2026-05-03T10:55:26.019Z</time></trkpt><trkpt lat="42.2222472" lon="13.933906"><ele>228.0</ele><time>2026-05-03T10:55:27.018Z</time></trkpt><trkpt lat="42.2222835" lon="13.9340012"><ele>228.0</ele><time>2026-05-03T10:55:28.018Z</time></trkpt><trkpt lat="42.2223107" lon="13.9341112"><ele>228.0</ele><time>2026-05-03T10:55:29.018Z</time></trkpt><trkpt lat="42.2223225" lon="13.9342436"><ele>228.0</ele><time>2026-05-03T10:55:30.019Z</time></trkpt><trkpt lat="42.2223353" lon="13.9343926"><ele>225.2</ele><time>2026-05-03T10:55:31.019Z</time></trkpt><trkpt lat="42.2223504" lon="13.9345453"><ele>222.4</ele><time>2026-05-03T10:55:32.018Z</time></trkpt><trkpt lat="42.2223664" lon="13.9346784"><ele>219.59999999999997</ele><time>2026-05-03T10:55:33.018Z</time></trkpt><trkpt lat="42.2223901" lon="13.934787"><ele>216.79999999999998</ele><time>2026-05-03T10:55:34.018Z</time></trkpt><trkpt lat="42.2224288" lon="13.9348755"><ele>214.0</ele><time>2026-05-03T10:55:35.019Z</time></trkpt><trkpt lat="42.2224886" lon="13.9349433"><ele>214.0</ele><time>2026-05-03T10:55:36.018Z</time></trkpt><trkpt lat="42.2225565" lon="13.9349911"><ele>213.99999999999997</ele><time>2026-05-03T10:55:37.018Z</time></trkpt><trkpt lat="42.2226456" lon="13.9350238"><ele>213.99999999999997</ele><time>2026-05-03T10:55:38.018Z</time></trkpt><trkpt lat="42.2227352" lon="13.9350652"><ele>214.0</ele><time>2026-05-03T10:55:39.018Z</time></trkpt><trkpt lat="42.2228269" lon="13.9351124"><ele>214.0</ele><time>2026-05-03T10:55:40.018Z</time></trkpt><trkpt lat="42.2229211" lon="13.9351675"><ele>212.79999999999998</ele><time>2026-05-03T10:55:41.018Z</time></trkpt><trkpt lat="42.223016" lon="13.9352393"><ele>211.59999999999997</ele><time>2026-05-03T10:55:42.018Z</time></trkpt><trkpt lat="42.2231085" lon="13.9353278"><ele>210.4</ele><time>2026-05-03T10:55:43.018Z</time></trkpt><trkpt lat="42.2231951" lon="13.9354271"><ele>209.2</ele><time>2026-05-03T10:55:44.018Z</time></trkpt><trkpt lat="42.2232742" lon="13.9355336"><ele>208.0</ele><time>2026-05-03T10:55:45.018Z</time></trkpt><trkpt lat="42.2233501" lon="13.9356482"><ele>207.2</ele><time>2026-05-03T10:55:46.019Z</time></trkpt><trkpt lat="42.2234163" lon="13.9357662"><ele>206.4</ele><time>2026-05-03T10:55:47.018Z</time></trkpt><trkpt lat="42.2234669" lon="13.9358814"><ele>205.6</ele><time>2026-05-03T10:55:48.018Z</time></trkpt><trkpt lat="42.2235097" lon="13.9359902"><ele>204.79999999999998</ele><time>2026-05-03T10:55:49.018Z</time></trkpt><trkpt lat="42.2235468" lon="13.9360992"><ele>204.0</ele><time>2026-05-03T10:55:50.018Z</time></trkpt><trkpt lat="42.2235914" lon="13.9361976"><ele>203.66666666666666</ele><time>2026-05-03T10:55:51.018Z</time></trkpt><trkpt lat="42.223643" lon="13.9362819"><ele>203.33333333333331</ele><time>2026-05-03T10:55:52.018Z</time></trkpt><trkpt lat="42.2237082" lon="13.9363344"><ele>203.0</ele><time>2026-05-03T10:55:53.018Z</time></trkpt><trkpt lat="42.2237853" lon="13.9363665"><ele>202.66666666666666</ele><time>2026-05-03T10:55:54.018Z</time></trkpt><trkpt lat="42.2238804" lon="13.9363674"><ele>202.33333333333331</ele><time>2026-05-03T10:55:55.018Z</time></trkpt><trkpt lat="42.2239547" lon="13.9363652"><ele>202.0</ele><time>2026-05-03T10:55:56.018Z</time></trkpt><trkpt lat="42.2240352" lon="13.9363868"><ele>201.2</ele><time>2026-05-03T10:55:57.018Z</time></trkpt><trkpt lat="42.2241128" lon="13.9364366"><ele>200.39999999999998</ele><time>2026-05-03T10:55:58.019Z</time></trkpt><trkpt lat="42.2241977" lon="13.9365019"><ele>199.60000000000002</ele><time>2026-05-03T10:55:59.019Z</time></trkpt><trkpt lat="42.2242982" lon="13.9365503"><ele>198.8</ele><time>2026-05-03T10:56:00.018Z</time></trkpt><trkpt lat="42.2244086" lon="13.9365921"><ele>198.0</ele><time>2026-05-03T10:56:01.018Z</time></trkpt><trkpt lat="42.2245308" lon="13.9366325"><ele>198.0</ele><time>2026-05-03T10:56:02.019Z</time></trkpt><trkpt lat="42.2246511" lon="13.9366708"><ele>198.0</ele><time>2026-05-03T10:56:03.018Z</time></trkpt><trkpt lat="42.2247676" lon="13.9367127"><ele>198.0</ele><time>2026-05-03T10:56:04.018Z</time></trkpt><trkpt lat="42.2248811" lon="13.9367505"><ele>198.0</ele><time>2026-05-03T10:56:05.018Z</time></trkpt><trkpt lat="42.2249896" lon="13.9367854"><ele>197.60000000000002</ele><time>2026-05-03T10:56:06.018Z</time></trkpt><trkpt lat="42.225092" lon="13.9368177"><ele>197.20000000000002</ele><time>2026-05-03T10:56:07.018Z</time></trkpt><trkpt lat="42.2251799" lon="13.9368592"><ele>196.8</ele><time>2026-05-03T10:56:08.018Z</time></trkpt><trkpt lat="42.2252605" lon="13.9368927"><ele>196.4</ele><time>2026-05-03T10:56:09.018Z</time></trkpt><trkpt lat="42.2253415" lon="13.9369285"><ele>196.0</ele><time>2026-05-03T10:56:10.018Z</time></trkpt><trkpt lat="42.2254186" lon="13.936967"><ele>195.99999999999997</ele><time>2026-05-03T10:56:11.018Z</time></trkpt><trkpt lat="42.225482" lon="13.9369989"><ele>196.0</ele><time>2026-05-03T10:56:12.018Z</time></trkpt><trkpt lat="42.2255855" lon="13.9370462"><ele>196.0</ele><time>2026-05-03T10:56:14.018Z</time></trkpt><trkpt lat="42.2256497" lon="13.9370623"><ele>196.0</ele><time>2026-05-03T10:56:16.018Z</time></trkpt><trkpt lat="42.2257206" lon="13.9370478"><ele>195.99999999999997</ele><time>2026-05-03T10:56:20.018Z</time></trkpt><trkpt lat="42.225774" lon="13.9369406"><ele>196.0</ele><time>2026-05-03T10:56:33.018Z</time></trkpt><trkpt lat="42.2257942" lon="13.9368576"><ele>195.60000000000002</ele><time>2026-05-03T10:56:34.018Z</time></trkpt><trkpt lat="42.2258024" lon="13.9367467"><ele>195.2</ele><time>2026-05-03T10:56:35.018Z</time></trkpt><trkpt lat="42.2258078" lon="13.9366203"><ele>194.8</ele><time>2026-05-03T10:56:36.018Z</time></trkpt><trkpt lat="42.2258104" lon="13.9364797"><ele>194.39999999999998</ele><time>2026-05-03T10:56:37.018Z</time></trkpt><trkpt lat="42.2258221" lon="13.9363249"><ele>194.0</ele><time>2026-05-03T10:56:38.018Z</time></trkpt><trkpt lat="42.2258253" lon="13.9361603"><ele>194.0</ele><time>2026-05-03T10:56:39.018Z</time></trkpt><trkpt lat="42.2258269" lon="13.935986"><ele>194.0</ele><time>2026-05-03T10:56:40.018Z</time></trkpt><trkpt lat="42.2258308" lon="13.935802"><ele>194.0</ele><time>2026-05-03T10:56:41.018Z</time></trkpt><trkpt lat="42.2258421" lon="13.9356216"><ele>194.0</ele><time>2026-05-03T10:56:42.019Z</time></trkpt><trkpt lat="42.2258464" lon="13.9354242"><ele>194.33333333333334</ele><time>2026-05-03T10:56:43.018Z</time></trkpt><trkpt lat="42.2258516" lon="13.9352199"><ele>194.66666666666669</ele><time>2026-05-03T10:56:44.018Z</time></trkpt><trkpt lat="42.2258544" lon="13.9350131"><ele>195.0</ele><time>2026-05-03T10:56:45.018Z</time></trkpt><trkpt lat="42.2258552" lon="13.934795"><ele>194.33333333333331</ele><time>2026-05-03T10:56:46.018Z</time></trkpt><trkpt lat="42.2258592" lon="13.9345719"><ele>193.66666666666666</ele><time>2026-05-03T10:56:47.018Z</time></trkpt><trkpt lat="42.2258634" lon="13.9343434"><ele>193.0</ele><time>2026-05-03T10:56:48.018Z</time></trkpt><trkpt lat="42.2258665" lon="13.9341095"><ele>193.0</ele><time>2026-05-03T10:56:49.018Z</time></trkpt><trkpt lat="42.225872" lon="13.933867"><ele>193.0</ele><time>2026-05-03T10:56:50.018Z</time></trkpt><trkpt lat="42.2258767" lon="13.9336233"><ele>193.0</ele><time>2026-05-03T10:56:51.018Z</time></trkpt><trkpt lat="42.2258875" lon="13.9333776"><ele>193.33333333333331</ele><time>2026-05-03T10:56:52.018Z</time></trkpt><trkpt lat="42.2258923" lon="13.9331355"><ele>193.66666666666669</ele><time>2026-05-03T10:56:53.018Z</time></trkpt><trkpt lat="42.2258966" lon="13.932893"><ele>194.0</ele><time>2026-05-03T10:56:54.018Z</time></trkpt><trkpt lat="42.2259034" lon="13.9326484"><ele>193.0</ele><time>2026-05-03T10:56:55.018Z</time></trkpt><trkpt lat="42.2259109" lon="13.932406"><ele>192.0</ele><time>2026-05-03T10:56:56.018Z</time></trkpt><trkpt lat="42.225914" lon="13.932171"><ele>191.0</ele><time>2026-05-03T10:56:57.019Z</time></trkpt><trkpt lat="42.2259189" lon="13.9319329"><ele>191.0</ele><time>2026-05-03T10:56:58.018Z</time></trkpt><trkpt lat="42.225923" lon="13.9316991"><ele>191.0</ele><time>2026-05-03T10:56:59.018Z</time></trkpt><trkpt lat="42.2259263" lon="13.9314675"><ele>191.0</ele><time>2026-05-03T10:57:00.018Z</time></trkpt><trkpt lat="42.225924" lon="13.9312288"><ele>191.0</ele><time>2026-05-03T10:57:01.018Z</time></trkpt><trkpt lat="42.2259287" lon="13.9310043"><ele>191.0</ele><time>2026-05-03T10:57:02.018Z</time></trkpt><trkpt lat="42.225928" lon="13.9307762"><ele>191.0</ele><time>2026-05-03T10:57:03.018Z</time></trkpt><trkpt lat="42.2259331" lon="13.9305536"><ele>192.0</ele><time>2026-05-03T10:57:04.019Z</time></trkpt><trkpt lat="42.2259361" lon="13.9303353"><ele>193.0</ele><time>2026-05-03T10:57:05.018Z</time></trkpt><trkpt lat="42.2259376" lon="13.9301284"><ele>194.0</ele><time>2026-05-03T10:57:06.018Z</time></trkpt><trkpt lat="42.2259402" lon="13.9299113"><ele>195.0</ele><time>2026-05-03T10:57:07.018Z</time></trkpt><trkpt lat="42.2259459" lon="13.9297213"><ele>196.0</ele><time>2026-05-03T10:57:08.018Z</time></trkpt><trkpt lat="42.2259507" lon="13.9295348"><ele>197.0</ele><time>2026-05-03T10:57:09.018Z</time></trkpt><trkpt lat="42.2259525" lon="13.9293485"><ele>198.0</ele><time>2026-05-03T10:57:10.018Z</time></trkpt><trkpt lat="42.2259574" lon="13.929169"><ele>198.5</ele><time>2026-05-03T10:57:11.018Z</time></trkpt><trkpt lat="42.2259618" lon="13.9289966"><ele>199.0</ele><time>2026-05-03T10:57:12.019Z</time></trkpt><trkpt lat="42.2259662" lon="13.9288208"><ele>199.5</ele><time>2026-05-03T10:57:13.018Z</time></trkpt><trkpt lat="42.2259721" lon="13.9286432"><ele>200.0</ele><time>2026-05-03T10:57:14.018Z</time></trkpt><trkpt lat="42.2259783" lon="13.9284681"><ele>200.0</ele><time>2026-05-03T10:57:15.018Z</time></trkpt><trkpt lat="42.2259796" lon="13.9282872"><ele>200.0</ele><time>2026-05-03T10:57:16.018Z</time></trkpt><trkpt lat="42.2259816" lon="13.9281095"><ele>200.0</ele><time>2026-05-03T10:57:17.019Z</time></trkpt><trkpt lat="42.2259866" lon="13.9279458"><ele>200.0</ele><time>2026-05-03T10:57:18.018Z</time></trkpt><trkpt lat="42.2259913" lon="13.9277828"><ele>200.0</ele><time>2026-05-03T10:57:19.018Z</time></trkpt><trkpt lat="42.2260002" lon="13.9276311"><ele>200.0</ele><time>2026-05-03T10:57:20.018Z</time></trkpt><trkpt lat="42.2260079" lon="13.9274763"><ele>200.0</ele><time>2026-05-03T10:57:21.018Z</time></trkpt><trkpt lat="42.2260132" lon="13.9273233"><ele>200.0</ele><time>2026-05-03T10:57:22.017Z</time></trkpt><trkpt lat="42.2260132" lon="13.9271772"><ele>200.0</ele><time>2026-05-03T10:57:23.018Z</time></trkpt><trkpt lat="42.2260254" lon="13.9270721"><ele>200.8</ele><time>2026-05-03T10:57:24.018Z</time></trkpt><trkpt lat="42.2260329" lon="13.9269836"><ele>201.6</ele><time>2026-05-03T10:57:25.018Z</time></trkpt><trkpt lat="42.226083" lon="13.9268562"><ele>202.39999999999998</ele><time>2026-05-03T10:57:27.018Z</time></trkpt><trkpt lat="42.2261933" lon="13.9267567"><ele>203.2</ele><time>2026-05-03T10:57:29.019Z</time></trkpt><trkpt lat="42.2262692" lon="13.9267197"><ele>204.0</ele><time>2026-05-03T10:57:30.018Z</time></trkpt><trkpt lat="42.2263601" lon="13.9267008"><ele>204.0</ele><time>2026-05-03T10:57:31.018Z</time></trkpt><trkpt lat="42.2264593" lon="13.9266904"><ele>204.0</ele><time>2026-05-03T10:57:32.018Z</time></trkpt><trkpt lat="42.2265694" lon="13.9266855"><ele>204.0</ele><time>2026-05-03T10:57:33.018Z</time></trkpt><trkpt lat="42.2266904" lon="13.9266986"><ele>204.0</ele><time>2026-05-03T10:57:34.018Z</time></trkpt><trkpt lat="42.2268162" lon="13.9267"><ele>204.0</ele><time>2026-05-03T10:57:35.018Z</time></trkpt><trkpt lat="42.2269488" lon="13.9266997"><ele>204.0</ele><time>2026-05-03T10:57:36.018Z</time></trkpt><trkpt lat="42.2270758" lon="13.9267021"><ele>204.0</ele><time>2026-05-03T10:57:37.018Z</time></trkpt><trkpt lat="42.2272024" lon="13.9267029"><ele>204.0</ele><time>2026-05-03T10:57:38.018Z</time></trkpt><trkpt lat="42.2273253" lon="13.9267133"><ele>203.25</ele><time>2026-05-03T10:57:39.018Z</time></trkpt><trkpt lat="42.2274515" lon="13.9267364"><ele>202.5</ele><time>2026-05-03T10:57:40.019Z</time></trkpt><trkpt lat="42.2275802" lon="13.9267876"><ele>201.75</ele><time>2026-05-03T10:57:41.018Z</time></trkpt><trkpt lat="42.2277015" lon="13.9268496"><ele>201.0</ele><time>2026-05-03T10:57:42.018Z</time></trkpt><trkpt lat="42.2278306" lon="13.9269186"><ele>201.0</ele><time>2026-05-03T10:57:43.018Z</time></trkpt><trkpt lat="42.2279591" lon="13.9269996"><ele>201.0</ele><time>2026-05-03T10:57:44.018Z</time></trkpt><trkpt lat="42.2280865" lon="13.9270831"><ele>201.0</ele><time>2026-05-03T10:57:45.018Z</time></trkpt><trkpt lat="42.2282104" lon="13.9271573"><ele>201.0</ele><time>2026-05-03T10:57:46.018Z</time></trkpt><trkpt lat="42.2283417" lon="13.9272153"><ele>201.25</ele><time>2026-05-03T10:57:47.018Z</time></trkpt><trkpt lat="42.2284696" lon="13.9272595"><ele>201.5</ele><time>2026-05-03T10:57:48.018Z</time></trkpt><trkpt lat="42.2285988" lon="13.927289"><ele>201.75</ele><time>2026-05-03T10:57:49.018Z</time></trkpt><trkpt lat="42.2287368" lon="13.9273061"><ele>202.0</ele><time>2026-05-03T10:57:50.018Z</time></trkpt><trkpt lat="42.2288794" lon="13.9273155"><ele>201.75</ele><time>2026-05-03T10:57:51.018Z</time></trkpt><trkpt lat="42.229022" lon="13.927323"><ele>201.5</ele><time>2026-05-03T10:57:52.019Z</time></trkpt><trkpt lat="42.2291782" lon="13.9273327"><ele>201.25</ele><time>2026-05-03T10:57:53.018Z</time></trkpt><trkpt lat="42.229326" lon="13.9273364"><ele>201.0</ele><time>2026-05-03T10:57:54.018Z</time></trkpt><trkpt lat="42.2294751" lon="13.9273466"><ele>201.0</ele><time>2026-05-03T10:57:55.018Z</time></trkpt><trkpt lat="42.2297673" lon="13.9273542"><ele>201.0</ele><time>2026-05-03T10:57:57.018Z</time></trkpt><trkpt lat="42.2299142" lon="13.9273604"><ele>201.0</ele><time>2026-05-03T10:57:58.018Z</time></trkpt><trkpt lat="42.2300554" lon="13.9273581"><ele>200.5</ele><time>2026-05-03T10:57:59.019Z</time></trkpt><trkpt lat="42.2302042" lon="13.9273626"><ele>200.0</ele><time>2026-05-03T10:58:00.018Z</time></trkpt><trkpt lat="42.2303534" lon="13.9273613"><ele>199.5</ele><time>2026-05-03T10:58:01.018Z</time></trkpt><trkpt lat="42.2304949" lon="13.9273611"><ele>199.0</ele><time>2026-05-03T10:58:02.018Z</time></trkpt><trkpt lat="42.2306433" lon="13.9273644"><ele>198.0</ele><time>2026-05-03T10:58:03.018Z</time></trkpt><trkpt lat="42.2307923" lon="13.9273663"><ele>197.0</ele><time>2026-05-03T10:58:04.018Z</time></trkpt><trkpt lat="42.2309431" lon="13.927362"><ele>196.0</ele><time>2026-05-03T10:58:05.018Z</time></trkpt><trkpt lat="42.2310934" lon="13.927359"><ele>196.0</ele><time>2026-05-03T10:58:06.018Z</time></trkpt><trkpt lat="42.2312402" lon="13.9273657"><ele>196.0</ele><time>2026-05-03T10:58:07.018Z</time></trkpt><trkpt lat="42.231382" lon="13.9273688"><ele>196.0</ele><time>2026-05-03T10:58:08.018Z</time></trkpt><trkpt lat="42.2315305" lon="13.9273753"><ele>196.0</ele><time>2026-05-03T10:58:09.018Z</time></trkpt><trkpt lat="42.2316591" lon="13.9273786"><ele>196.5</ele><time>2026-05-03T10:58:10.018Z</time></trkpt><trkpt lat="42.2317997" lon="13.9273659"><ele>197.0</ele><time>2026-05-03T10:58:11.018Z</time></trkpt><trkpt lat="42.2319409" lon="13.9273444"><ele>197.5</ele><time>2026-05-03T10:58:12.018Z</time></trkpt><trkpt lat="42.2320845" lon="13.9273032"><ele>198.0</ele><time>2026-05-03T10:58:13.018Z</time></trkpt><trkpt lat="42.2322198" lon="13.9272258"><ele>196.5</ele><time>2026-05-03T10:58:14.018Z</time></trkpt><trkpt lat="42.2323404" lon="13.9271209"><ele>195.0</ele><time>2026-05-03T10:58:15.018Z</time></trkpt><trkpt lat="42.2324549" lon="13.9269898"><ele>193.5</ele><time>2026-05-03T10:58:16.019Z</time></trkpt><trkpt lat="42.2325586" lon="13.9268379"><ele>192.0</ele><time>2026-05-03T10:58:17.018Z</time></trkpt><trkpt lat="42.2326557" lon="13.9266769"><ele>192.0</ele><time>2026-05-03T10:58:18.019Z</time></trkpt><trkpt lat="42.2327535" lon="13.926513"><ele>192.0</ele><time>2026-05-03T10:58:19.018Z</time></trkpt><trkpt lat="42.2328526" lon="13.926347"><ele>192.0</ele><time>2026-05-03T10:58:20.018Z</time></trkpt><trkpt lat="42.2329474" lon="13.9261774"><ele>192.0</ele><time>2026-05-03T10:58:21.018Z</time></trkpt><trkpt lat="42.2330474" lon="13.926011"><ele>192.0</ele><time>2026-05-03T10:58:22.018Z</time></trkpt><trkpt lat="42.2331431" lon="13.9258423"><ele>192.0</ele><time>2026-05-03T10:58:23.019Z</time></trkpt><trkpt lat="42.2332399" lon="13.9256756"><ele>189.66666666666666</ele><time>2026-05-03T10:58:24.018Z</time></trkpt><trkpt lat="42.2333321" lon="13.9255178"><ele>187.33333333333331</ele><time>2026-05-03T10:58:25.018Z</time></trkpt><trkpt lat="42.2334318" lon="13.9253579"><ele>185.0</ele><time>2026-05-03T10:58:26.018Z</time></trkpt><trkpt lat="42.2335319" lon="13.9252087"><ele>185.0</ele><time>2026-05-03T10:58:27.018Z</time></trkpt><trkpt lat="42.2336392" lon="13.9250792"><ele>185.0</ele><time>2026-05-03T10:58:28.018Z</time></trkpt><trkpt lat="42.2337562" lon="13.924952"><ele>185.0</ele><time>2026-05-03T10:58:29.018Z</time></trkpt><trkpt lat="42.2338704" lon="13.9248731"><ele>185.0</ele><time>2026-05-03T10:58:30.018Z</time></trkpt><trkpt lat="42.2340154" lon="13.9248728"><ele>187.0</ele><time>2026-05-03T10:58:31.018Z</time></trkpt><trkpt lat="42.2341449" lon="13.9248898"><ele>189.0</ele><time>2026-05-03T10:58:32.018Z</time></trkpt><trkpt lat="42.2342642" lon="13.924937"><ele>191.0</ele><time>2026-05-03T10:58:33.018Z</time></trkpt><trkpt lat="42.2343789" lon="13.9250303"><ele>193.0</ele><time>2026-05-03T10:58:34.018Z</time></trkpt><trkpt lat="42.2344818" lon="13.925142"><ele>193.0</ele><time>2026-05-03T10:58:35.019Z</time></trkpt><trkpt lat="42.2345552" lon="13.9252826"><ele>193.0</ele><time>2026-05-03T10:58:36.018Z</time></trkpt><trkpt lat="42.2346182" lon="13.9254475"><ele>193.0</ele><time>2026-05-03T10:58:37.018Z</time></trkpt><trkpt lat="42.2346563" lon="13.9256314"><ele>193.0</ele><time>2026-05-03T10:58:38.018Z</time></trkpt><trkpt lat="42.2346854" lon="13.9258152"><ele>191.0</ele><time>2026-05-03T10:58:39.018Z</time></trkpt><trkpt lat="42.2346859" lon="13.9260075"><ele>189.0</ele><time>2026-05-03T10:58:40.018Z</time></trkpt><trkpt lat="42.2346848" lon="13.9262004"><ele>187.0</ele><time>2026-05-03T10:58:41.018Z</time></trkpt><trkpt lat="42.2346989" lon="13.9264021"><ele>185.0</ele><time>2026-05-03T10:58:42.018Z</time></trkpt><trkpt lat="42.2347152" lon="13.9266098"><ele>185.5</ele><time>2026-05-03T10:58:43.018Z</time></trkpt><trkpt lat="42.2347322" lon="13.9268141"><ele>186.0</ele><time>2026-05-03T10:58:44.018Z</time></trkpt><trkpt lat="42.2347446" lon="13.9270133"><ele>186.5</ele><time>2026-05-03T10:58:45.019Z</time></trkpt><trkpt lat="42.2347595" lon="13.9272081"><ele>187.0</ele><time>2026-05-03T10:58:46.018Z</time></trkpt><trkpt lat="42.2347754" lon="13.9274047"><ele>188.75</ele><time>2026-05-03T10:58:47.018Z</time></trkpt><trkpt lat="42.2347945" lon="13.9276057"><ele>190.5</ele><time>2026-05-03T10:58:48.018Z</time></trkpt><trkpt lat="42.2348174" lon="13.9278028"><ele>192.25</ele><time>2026-05-03T10:58:49.018Z</time></trkpt><trkpt lat="42.2348443" lon="13.9280039"><ele>194.0</ele><time>2026-05-03T10:58:50.018Z</time></trkpt><trkpt lat="42.2348738" lon="13.9281983"><ele>194.0</ele><time>2026-05-03T10:58:51.018Z</time></trkpt><trkpt lat="42.234903" lon="13.928387"><ele>194.0</ele><time>2026-05-03T10:58:52.018Z</time></trkpt><trkpt lat="42.2349313" lon="13.9285675"><ele>194.0</ele><time>2026-05-03T10:58:53.018Z</time></trkpt><trkpt lat="42.234954" lon="13.9287225"><ele>194.0</ele><time>2026-05-03T10:58:54.018Z</time></trkpt><trkpt lat="42.2349788" lon="13.9288667"><ele>194.16666666666669</ele><time>2026-05-03T10:58:55.018Z</time></trkpt><trkpt lat="42.2350038" lon="13.9289835"><ele>194.33333333333334</ele><time>2026-05-03T10:58:56.018Z</time></trkpt><trkpt lat="42.2350396" lon="13.9290818"><ele>194.5</ele><time>2026-05-03T10:58:57.018Z</time></trkpt><trkpt lat="42.2351058" lon="13.9291532"><ele>194.66666666666669</ele><time>2026-05-03T10:58:58.019Z</time></trkpt><trkpt lat="42.235182" lon="13.9292053"><ele>194.83333333333334</ele><time>2026-05-03T10:58:59.018Z</time></trkpt><trkpt lat="42.2352707" lon="13.9292366"><ele>195.0</ele><time>2026-05-03T10:59:00.018Z</time></trkpt><trkpt lat="42.2353757" lon="13.9292341"><ele>195.0</ele><time>2026-05-03T10:59:01.018Z</time></trkpt><trkpt lat="42.2354844" lon="13.9292163"><ele>195.0</ele><time>2026-05-03T10:59:02.018Z</time></trkpt><trkpt lat="42.2355994" lon="13.9291969"><ele>195.0</ele><time>2026-05-03T10:59:03.018Z</time></trkpt><trkpt lat="42.235713" lon="13.9291754"><ele>195.0</ele><time>2026-05-03T10:59:04.018Z</time></trkpt><trkpt lat="42.235821" lon="13.9291528"><ele>195.0</ele><time>2026-05-03T10:59:05.018Z</time></trkpt><trkpt lat="42.2359181" lon="13.9291329"><ele>194.33333333333334</ele><time>2026-05-03T10:59:06.019Z</time></trkpt><trkpt lat="42.2360028" lon="13.9291158"><ele>193.66666666666666</ele><time>2026-05-03T10:59:07.018Z</time></trkpt><trkpt lat="42.2360825" lon="13.9291013"><ele>193.0</ele><time>2026-05-03T10:59:08.018Z</time></trkpt><trkpt lat="42.236169" lon="13.9290854"><ele>192.33333333333331</ele><time>2026-05-03T10:59:09.018Z</time></trkpt><trkpt lat="42.2362593" lon="13.9290705"><ele>191.66666666666666</ele><time>2026-05-03T10:59:10.018Z</time></trkpt><trkpt lat="42.2363544" lon="13.929047"><ele>191.0</ele><time>2026-05-03T10:59:11.018Z</time></trkpt><trkpt lat="42.236438" lon="13.929045"><ele>190.83333333333331</ele><time>2026-05-03T10:59:12.018Z</time></trkpt><trkpt lat="42.2365151" lon="13.9290445"><ele>190.66666666666666</ele><time>2026-05-03T10:59:13.018Z</time></trkpt><trkpt lat="42.236581" lon="13.9290488"><ele>190.5</ele><time>2026-05-03T10:59:14.019Z</time></trkpt><trkpt lat="42.2366461" lon="13.9290514"><ele>190.33333333333334</ele><time>2026-05-03T10:59:15.018Z</time></trkpt><trkpt lat="42.2367238" lon="13.929046"><ele>190.16666666666669</ele><time>2026-05-03T10:59:17.018Z</time></trkpt><trkpt lat="42.236859" lon="13.9290301"><ele>190.0</ele><time>2026-05-03T11:00:22.018Z</time></trkpt><trkpt lat="42.2369733" lon="13.9290289"><ele>190.0</ele><time>2026-05-03T11:00:24.018Z</time></trkpt><trkpt lat="42.2370946" lon="13.929014"><ele>190.0</ele><time>2026-05-03T11:00:26.018Z</time></trkpt><trkpt lat="42.2371599" lon="13.9289951"><ele>190.0</ele><time>2026-05-03T11:00:27.018Z</time></trkpt><trkpt lat="42.2372187" lon="13.928962"><ele>190.0</ele><time>2026-05-03T11:00:28.018Z</time></trkpt><trkpt lat="42.2372938" lon="13.9289364"><ele>190.0</ele><time>2026-05-03T11:00:29.018Z</time></trkpt><trkpt lat="42.2373763" lon="13.9289152"><ele>190.0</ele><time>2026-05-03T11:00:30.019Z</time></trkpt><trkpt lat="42.2374617" lon="13.9288834"><ele>189.8</ele><time>2026-05-03T11:00:30.996Z</time></trkpt><trkpt lat="42.2375561" lon="13.9288584"><ele>189.6</ele><time>2026-05-03T11:00:31.995Z</time></trkpt><trkpt lat="42.2376439" lon="13.9288101"><ele>189.39999999999998</ele><time>2026-05-03T11:00:33.001Z</time></trkpt><trkpt lat="42.2377431" lon="13.9287712"><ele>189.2</ele><time>2026-05-03T11:00:34.007Z</time></trkpt><trkpt lat="42.2378481" lon="13.9287317"><ele>189.0</ele><time>2026-05-03T11:00:34.995Z</time></trkpt><trkpt lat="42.2379543" lon="13.9286874"><ele>189.0</ele><time>2026-05-03T11:00:36.003Z</time></trkpt><trkpt lat="42.238064" lon="13.9286372"><ele>189.0</ele><time>2026-05-03T11:00:37.003Z</time></trkpt><trkpt lat="42.2381737" lon="13.9285816"><ele>189.0</ele><time>2026-05-03T11:00:38.003Z</time></trkpt><trkpt lat="42.2382845" lon="13.9285225"><ele>189.0</ele><time>2026-05-03T11:00:39.003Z</time></trkpt><trkpt lat="42.238393" lon="13.9284546"><ele>189.25</ele><time>2026-05-03T11:00:40.003Z</time></trkpt><trkpt lat="42.2384948" lon="13.9283663"><ele>189.5</ele><time>2026-05-03T11:00:41.003Z</time></trkpt><trkpt lat="42.2385916" lon="13.9282643"><ele>189.75</ele><time>2026-05-03T11:00:42.004Z</time></trkpt><trkpt lat="42.238684" lon="13.9281492"><ele>190.0</ele><time>2026-05-03T11:00:43.003Z</time></trkpt><trkpt lat="42.238774" lon="13.928025"><ele>190.0</ele><time>2026-05-03T11:00:44.003Z</time></trkpt><trkpt lat="42.2388618" lon="13.9278967"><ele>190.0</ele><time>2026-05-03T11:00:45.003Z</time></trkpt><trkpt lat="42.2389516" lon="13.9277645"><ele>190.0</ele><time>2026-05-03T11:00:46.019Z</time></trkpt><trkpt lat="42.2390402" lon="13.9276252"><ele>190.0</ele><time>2026-05-03T11:00:47.019Z</time></trkpt><trkpt lat="42.2391253" lon="13.9274781"><ele>190.0</ele><time>2026-05-03T11:00:48.018Z</time></trkpt><trkpt lat="42.2392078" lon="13.9273291"><ele>190.0</ele><time>2026-05-03T11:00:49.018Z</time></trkpt><trkpt lat="42.2392849" lon="13.9271705"><ele>190.0</ele><time>2026-05-03T11:00:50.018Z</time></trkpt><trkpt lat="42.2393609" lon="13.9270141"><ele>190.0</ele><time>2026-05-03T11:00:51.018Z</time></trkpt><trkpt lat="42.2394354" lon="13.9268689"><ele>190.0</ele><time>2026-05-03T11:00:52.018Z</time></trkpt><trkpt lat="42.2395164" lon="13.926737"><ele>190.0</ele><time>2026-05-03T11:00:53.018Z</time></trkpt><trkpt lat="42.2396032" lon="13.9266155"><ele>190.0</ele><time>2026-05-03T11:00:54.018Z</time></trkpt><trkpt lat="42.2397201" lon="13.9265389"><ele>190.0</ele><time>2026-05-03T11:00:55.018Z</time></trkpt><trkpt lat="42.2398378" lon="13.9264709"><ele>190.0</ele><time>2026-05-03T11:00:56.018Z</time></trkpt><trkpt lat="42.2399609" lon="13.9264267"><ele>190.0</ele><time>2026-05-03T11:00:57.018Z</time></trkpt><trkpt lat="42.2400902" lon="13.9263946"><ele>190.0</ele><time>2026-05-03T11:00:58.018Z</time></trkpt><trkpt lat="42.2402302" lon="13.9263637"><ele>190.0</ele><time>2026-05-03T11:00:59.018Z</time></trkpt><trkpt lat="42.2403671" lon="13.9263477"><ele>190.0</ele><time>2026-05-03T11:01:00.018Z</time></trkpt><trkpt lat="42.2404974" lon="13.9263526"><ele>190.0</ele><time>2026-05-03T11:01:01.018Z</time></trkpt><trkpt lat="42.240615" lon="13.9263776"><ele>190.0</ele><time>2026-05-03T11:01:02.018Z</time></trkpt><trkpt lat="42.2407276" lon="13.926389"><ele>190.0</ele><time>2026-05-03T11:01:03.018Z</time></trkpt><trkpt lat="42.2408236" lon="13.9263968"><ele>190.0</ele><time>2026-05-03T11:01:04.018Z</time></trkpt><trkpt lat="42.2409075" lon="13.9263912"><ele>190.0</ele><time>2026-05-03T11:01:05.018Z</time></trkpt><trkpt lat="42.2409726" lon="13.9263812"><ele>190.0</ele><time>2026-05-03T11:01:06.018Z</time></trkpt><trkpt lat="42.2410545" lon="13.9263703"><ele>190.0</ele><time>2026-05-03T11:01:08.018Z</time></trkpt><trkpt lat="42.2411239" lon="13.9263436"><ele>190.0</ele><time>2026-05-03T11:01:42.962Z</time></trkpt><trkpt lat="42.2412059" lon="13.9264334"><ele>190.0</ele><time>2026-05-03T11:01:44.018Z</time></trkpt><trkpt lat="42.2412431" lon="13.9265095"><ele>190.0</ele><time>2026-05-03T11:01:45.018Z</time></trkpt><trkpt lat="42.2412723" lon="13.9265994"><ele>190.0</ele><time>2026-05-03T11:01:46.019Z</time></trkpt><trkpt lat="42.2413058" lon="13.9267104"><ele>190.0</ele><time>2026-05-03T11:01:47.018Z</time></trkpt><trkpt lat="42.2413345" lon="13.9268265"><ele>190.0</ele><time>2026-05-03T11:01:48.018Z</time></trkpt><trkpt lat="42.2413697" lon="13.9269577"><ele>190.0</ele><time>2026-05-03T11:01:49.019Z</time></trkpt><trkpt lat="42.2414023" lon="13.927095"><ele>189.25</ele><time>2026-05-03T11:01:50.018Z</time></trkpt><trkpt lat="42.2414392" lon="13.9272386"><ele>188.5</ele><time>2026-05-03T11:01:51.018Z</time></trkpt><trkpt lat="42.2414794" lon="13.9273856"><ele>187.75</ele><time>2026-05-03T11:01:52.018Z</time></trkpt><trkpt lat="42.2415144" lon="13.9275267"><ele>187.0</ele><time>2026-05-03T11:01:53.018Z</time></trkpt><trkpt lat="42.2415529" lon="13.927671"><ele>186.75</ele><time>2026-05-03T11:01:54.019Z</time></trkpt><trkpt lat="42.2415912" lon="13.9278185"><ele>186.5</ele><time>2026-05-03T11:01:55.018Z</time></trkpt><trkpt lat="42.2416305" lon="13.9279748"><ele>186.25</ele><time>2026-05-03T11:01:56.019Z</time></trkpt><trkpt lat="42.241668" lon="13.9281267"><ele>186.0</ele><time>2026-05-03T11:01:57.018Z</time></trkpt><trkpt lat="42.2417059" lon="13.9282789"><ele>185.0</ele><time>2026-05-03T11:01:58.018Z</time></trkpt><trkpt lat="42.2417455" lon="13.9284324"><ele>184.0</ele><time>2026-05-03T11:01:59.018Z</time></trkpt><trkpt lat="42.2417856" lon="13.9285893"><ele>183.0</ele><time>2026-05-03T11:02:00.018Z</time></trkpt><trkpt lat="42.2418251" lon="13.9287474"><ele>182.0</ele><time>2026-05-03T11:02:01.018Z</time></trkpt><trkpt lat="42.2418644" lon="13.9289002"><ele>182.0</ele><time>2026-05-03T11:02:02.018Z</time></trkpt><trkpt lat="42.2419021" lon="13.9290549"><ele>182.0</ele><time>2026-05-03T11:02:03.018Z</time></trkpt><trkpt lat="42.2419412" lon="13.9292074"><ele>182.0</ele><time>2026-05-03T11:02:04.018Z</time></trkpt><trkpt lat="42.241978" lon="13.9293648"><ele>182.0</ele><time>2026-05-03T11:02:05.018Z</time></trkpt><trkpt lat="42.2420163" lon="13.9295243"><ele>182.0</ele><time>2026-05-03T11:02:06.018Z</time></trkpt><trkpt lat="42.2420537" lon="13.9296834"><ele>182.0</ele><time>2026-05-03T11:02:07.018Z</time></trkpt><trkpt lat="42.2420892" lon="13.9298361"><ele>182.0</ele><time>2026-05-03T11:02:08.019Z</time></trkpt><trkpt lat="42.2421321" lon="13.9299935"><ele>182.0</ele><time>2026-05-03T11:02:09.018Z</time></trkpt><trkpt lat="42.242174" lon="13.9301528"><ele>182.0</ele><time>2026-05-03T11:02:10.018Z</time></trkpt><trkpt lat="42.2422142" lon="13.9303116"><ele>182.0</ele><time>2026-05-03T11:02:11.018Z</time></trkpt><trkpt lat="42.2422459" lon="13.9304683"><ele>182.0</ele><time>2026-05-03T11:02:12.019Z</time></trkpt><trkpt lat="42.2422836" lon="13.9306324"><ele>182.0</ele><time>2026-05-03T11:02:13.018Z</time></trkpt><trkpt lat="42.2423251" lon="13.9307987"><ele>181.75</ele><time>2026-05-03T11:02:14.018Z</time></trkpt><trkpt lat="42.2423677" lon="13.9309641"><ele>181.5</ele><time>2026-05-03T11:02:15.018Z</time></trkpt><trkpt lat="42.242407" lon="13.9311254"><ele>181.25</ele><time>2026-05-03T11:02:16.018Z</time></trkpt><trkpt lat="42.2424502" lon="13.9312877"><ele>181.0</ele><time>2026-05-03T11:02:17.018Z</time></trkpt><trkpt lat="42.2424963" lon="13.9314556"><ele>181.0</ele><time>2026-05-03T11:02:18.018Z</time></trkpt><trkpt lat="42.2425378" lon="13.9316189"><ele>181.0</ele><time>2026-05-03T11:02:19.018Z</time></trkpt><trkpt lat="42.2425794" lon="13.9317875"><ele>181.0</ele><time>2026-05-03T11:02:20.018Z</time></trkpt><trkpt lat="42.2426216" lon="13.9319559"><ele>181.0</ele><time>2026-05-03T11:02:21.018Z</time></trkpt><trkpt lat="42.2426654" lon="13.9321256"><ele>180.5</ele><time>2026-05-03T11:02:22.019Z</time></trkpt><trkpt lat="42.2427071" lon="13.932297"><ele>180.0</ele><time>2026-05-03T11:02:23.018Z</time></trkpt><trkpt lat="42.2427502" lon="13.9324648"><ele>179.5</ele><time>2026-05-03T11:02:24.018Z</time></trkpt><trkpt lat="42.2427947" lon="13.9326331"><ele>179.0</ele><time>2026-05-03T11:02:25.018Z</time></trkpt><trkpt lat="42.2428344" lon="13.9327993"><ele>178.5</ele><time>2026-05-03T11:02:26.018Z</time></trkpt><trkpt lat="42.2428699" lon="13.9329607"><ele>178.0</ele><time>2026-05-03T11:02:27.018Z</time></trkpt><trkpt lat="42.2429043" lon="13.933118"><ele>177.5</ele><time>2026-05-03T11:02:28.018Z</time></trkpt><trkpt lat="42.2429444" lon="13.9332797"><ele>177.0</ele><time>2026-05-03T11:02:29.019Z</time></trkpt><trkpt lat="42.2429849" lon="13.9334389"><ele>176.5</ele><time>2026-05-03T11:02:30.018Z</time></trkpt><trkpt lat="42.2430273" lon="13.9335984"><ele>176.0</ele><time>2026-05-03T11:02:31.018Z</time></trkpt><trkpt lat="42.2430617" lon="13.933751"><ele>175.5</ele><time>2026-05-03T11:02:32.018Z</time></trkpt><trkpt lat="42.2430956" lon="13.9338978"><ele>175.0</ele><time>2026-05-03T11:02:33.018Z</time></trkpt><trkpt lat="42.2431316" lon="13.9340412"><ele>174.0</ele><time>2026-05-03T11:02:34.018Z</time></trkpt><trkpt lat="42.2431676" lon="13.9341765"><ele>173.0</ele><time>2026-05-03T11:02:35.018Z</time></trkpt><trkpt lat="42.2432008" lon="13.934309"><ele>172.0</ele><time>2026-05-03T11:02:36.018Z</time></trkpt><trkpt lat="42.2432321" lon="13.9344328"><ele>171.0</ele><time>2026-05-03T11:02:37.018Z</time></trkpt><trkpt lat="42.2432608" lon="13.9345425"><ele>170.0</ele><time>2026-05-03T11:02:38.018Z</time></trkpt><trkpt lat="42.2432857" lon="13.9346328"><ele>169.83333333333331</ele><time>2026-05-03T11:02:39.018Z</time></trkpt><trkpt lat="42.243305" lon="13.9347472"><ele>169.66666666666666</ele><time>2026-05-03T11:02:41.018Z</time></trkpt><trkpt lat="42.2433348" lon="13.9348438"><ele>169.5</ele><time>2026-05-03T11:02:44.018Z</time></trkpt><trkpt lat="42.2434281" lon="13.9348998"><ele>169.33333333333334</ele><time>2026-05-03T11:02:47.018Z</time></trkpt><trkpt lat="42.2435407" lon="13.9349249"><ele>169.16666666666669</ele><time>2026-05-03T11:02:49.019Z</time></trkpt><trkpt lat="42.2436066" lon="13.9349462"><ele>169.0</ele><time>2026-05-03T11:02:50.018Z</time></trkpt><trkpt lat="42.2436846" lon="13.9349705"><ele>169.0</ele><time>2026-05-03T11:02:51.018Z</time></trkpt><trkpt lat="42.2437735" lon="13.9349911"><ele>169.0</ele><time>2026-05-03T11:02:52.018Z</time></trkpt><trkpt lat="42.243861" lon="13.9350166"><ele>169.0</ele><time>2026-05-03T11:02:53.018Z</time></trkpt><trkpt lat="42.2439493" lon="13.9350399"><ele>169.0</ele><time>2026-05-03T11:02:54.018Z</time></trkpt><trkpt lat="42.244038" lon="13.93506"><ele>169.0</ele><time>2026-05-03T11:02:55.018Z</time></trkpt><trkpt lat="42.2441209" lon="13.9350792"><ele>169.0</ele><time>2026-05-03T11:02:56.018Z</time></trkpt><trkpt lat="42.2441964" lon="13.935099"><ele>168.83333333333334</ele><time>2026-05-03T11:02:57.018Z</time></trkpt><trkpt lat="42.2442691" lon="13.9351165"><ele>168.66666666666669</ele><time>2026-05-03T11:02:58.018Z</time></trkpt><trkpt lat="42.2443356" lon="13.9351352"><ele>168.5</ele><time>2026-05-03T11:02:59.018Z</time></trkpt><trkpt lat="42.2444509" lon="13.9351361"><ele>168.33333333333334</ele><time>2026-05-03T11:03:01.018Z</time></trkpt><trkpt lat="42.2445308" lon="13.9351513"><ele>168.16666666666666</ele><time>2026-05-03T11:03:03.018Z</time></trkpt><trkpt lat="42.2445864" lon="13.9350486"><ele>168.0</ele><time>2026-05-03T11:03:05.018Z</time></trkpt><trkpt lat="42.2446497" lon="13.9350282"><ele>167.66666666666666</ele><time>2026-05-03T11:03:08.018Z</time></trkpt><trkpt lat="42.2446705" lon="13.9351194"><ele>167.33333333333334</ele><time>2026-05-03T11:03:11.018Z</time></trkpt><trkpt lat="42.2446278" lon="13.9352384"><ele>167.0</ele><time>2026-05-03T11:03:13.018Z</time></trkpt><trkpt lat="42.2446003" lon="13.9353205"><ele>166.66666666666669</ele><time>2026-05-03T11:03:14.018Z</time></trkpt><trkpt lat="42.2445745" lon="13.9354186"><ele>166.33333333333334</ele><time>2026-05-03T11:03:15.018Z</time></trkpt><trkpt lat="42.244547" lon="13.9355306"><ele>166.0</ele><time>2026-05-03T11:03:16.018Z</time></trkpt><trkpt lat="42.2445191" lon="13.935651"><ele>166.0</ele><time>2026-05-03T11:03:17.018Z</time></trkpt><trkpt lat="42.2444931" lon="13.9357663"><ele>166.0</ele><time>2026-05-03T11:03:18.018Z</time></trkpt><trkpt lat="42.2444592" lon="13.9358544"><ele>166.0</ele><time>2026-05-03T11:03:19.018Z</time></trkpt><trkpt lat="42.2444389" lon="13.9359357"><ele>166.0</ele><time>2026-05-03T11:03:20.018Z</time></trkpt><trkpt lat="42.2444111" lon="13.9360555"><ele>166.0</ele><time>2026-05-03T11:03:22.018Z</time></trkpt><trkpt lat="42.244386" lon="13.936162"><ele>166.0</ele><time>2026-05-03T11:03:24.018Z</time></trkpt><trkpt lat="42.2443366" lon="13.9363008"><ele>165.33333333333334</ele><time>2026-05-03T11:03:26.018Z</time></trkpt><trkpt lat="42.2443005" lon="13.9363835"><ele>164.66666666666669</ele><time>2026-05-03T11:03:27.018Z</time></trkpt><trkpt lat="42.2442626" lon="13.9364782"><ele>164.0</ele><time>2026-05-03T11:03:28.018Z</time></trkpt><trkpt lat="42.2442205" lon="13.9365842"><ele>163.33333333333334</ele><time>2026-05-03T11:03:29.018Z</time></trkpt><trkpt lat="42.2441732" lon="13.9366962"><ele>162.66666666666666</ele><time>2026-05-03T11:03:30.018Z</time></trkpt><trkpt lat="42.2441318" lon="13.9367997"><ele>162.0</ele><time>2026-05-03T11:03:31.018Z</time></trkpt><trkpt lat="42.2440937" lon="13.9368775"><ele>161.6</ele><time>2026-05-03T11:03:32.018Z</time></trkpt><trkpt lat="42.2440092" lon="13.9369493"><ele>161.2</ele><time>2026-05-03T11:03:34.018Z</time></trkpt><trkpt lat="42.2439098" lon="13.9368817"><ele>160.8</ele><time>2026-05-03T11:03:36.018Z</time></trkpt><trkpt lat="42.2438505" lon="13.9367239"><ele>160.4</ele><time>2026-05-03T11:03:38.018Z</time></trkpt><trkpt lat="42.2438252" lon="13.9366255"><ele>160.0</ele><time>2026-05-03T11:03:39.018Z</time></trkpt><trkpt lat="42.2437973" lon="13.9365162"><ele>161.0</ele><time>2026-05-03T11:03:40.018Z</time></trkpt><trkpt lat="42.2437679" lon="13.9363995"><ele>162.0</ele><time>2026-05-03T11:03:41.018Z</time></trkpt><trkpt lat="42.2437378" lon="13.9362766"><ele>163.0</ele><time>2026-05-03T11:03:42.018Z</time></trkpt><trkpt lat="42.2437088" lon="13.9361436"><ele>164.0</ele><time>2026-05-03T11:03:43.019Z</time></trkpt><trkpt lat="42.2436784" lon="13.9360078"><ele>165.0</ele><time>2026-05-03T11:03:44.019Z</time></trkpt><trkpt lat="42.2436442" lon="13.9358653"><ele>165.4</ele><time>2026-05-03T11:03:45.018Z</time></trkpt><trkpt lat="42.243608" lon="13.9357163"><ele>165.8</ele><time>2026-05-03T11:03:46.018Z</time></trkpt><trkpt lat="42.243571" lon="13.9355709"><ele>166.2</ele><time>2026-05-03T11:03:47.018Z</time></trkpt><trkpt lat="42.2435395" lon="13.9354514"><ele>166.6</ele><time>2026-05-03T11:03:48.018Z</time></trkpt><trkpt lat="42.2435118" lon="13.9353508"><ele>167.0</ele><time>2026-05-03T11:03:49.018Z</time></trkpt><trkpt lat="42.2434848" lon="13.9352536"><ele>167.0</ele><time>2026-05-03T11:03:50.018Z</time></trkpt><trkpt lat="42.2434621" lon="13.9351572"><ele>167.0</ele><time>2026-05-03T11:03:51.018Z</time></trkpt><trkpt lat="42.2434172" lon="13.9350111"><ele>167.0</ele><time>2026-05-03T11:03:53.018Z</time></trkpt><trkpt lat="42.2434283" lon="13.9349128"><ele>167.0</ele><time>2026-05-03T11:03:55.018Z</time></trkpt><trkpt lat="42.2435084" lon="13.9348903"><ele>167.0</ele><time>2026-05-03T11:03:58.018Z</time></trkpt><trkpt lat="42.2436249" lon="13.9349229"><ele>167.16666666666666</ele><time>2026-05-03T11:04:00.018Z</time></trkpt><trkpt lat="42.2436889" lon="13.9349438"><ele>167.33333333333331</ele><time>2026-05-03T11:04:01.018Z</time></trkpt><trkpt lat="42.2437628" lon="13.9349617"><ele>167.5</ele><time>2026-05-03T11:04:02.018Z</time></trkpt><trkpt lat="42.2438433" lon="13.9349821"><ele>167.66666666666666</ele><time>2026-05-03T11:04:03.018Z</time></trkpt><trkpt lat="42.2439393" lon="13.9350178"><ele>167.83333333333334</ele><time>2026-05-03T11:04:04.018Z</time></trkpt><trkpt lat="42.2440346" lon="13.9350412"><ele>168.0</ele><time>2026-05-03T11:04:05.018Z</time></trkpt><trkpt lat="42.2441341" lon="13.9350761"><ele>167.66666666666666</ele><time>2026-05-03T11:04:06.018Z</time></trkpt><trkpt lat="42.2442134" lon="13.9350954"><ele>167.33333333333334</ele><time>2026-05-03T11:04:07.018Z</time></trkpt><trkpt lat="42.2442883" lon="13.9351153"><ele>167.0</ele><time>2026-05-03T11:04:08.018Z</time></trkpt><trkpt lat="42.2443393" lon="13.9351658"><ele>166.66666666666669</ele><time>2026-05-03T11:04:09.018Z</time></trkpt><trkpt lat="42.2444554" lon="13.9351767"><ele>166.33333333333334</ele><time>2026-05-03T11:04:11.018Z</time></trkpt><trkpt lat="42.244544" lon="13.9351492"><ele>166.0</ele><time>2026-05-03T11:04:13.018Z</time></trkpt><trkpt lat="42.2446026" lon="13.9350688"><ele>166.0</ele><time>2026-05-03T11:04:15.018Z</time></trkpt><trkpt lat="42.2446314" lon="13.9349921"><ele>166.0</ele><time>2026-05-03T11:04:19.018Z</time></trkpt><trkpt lat="42.244685" lon="13.9350435"><ele>166.0</ele><time>2026-05-03T11:04:27.018Z</time></trkpt><trkpt lat="42.2446651" lon="13.9351314"><ele>166.0</ele><time>2026-05-03T11:04:29.018Z</time></trkpt><trkpt lat="42.2446309" lon="13.9352679"><ele>166.0</ele><time>2026-05-03T11:04:31.019Z</time></trkpt><trkpt lat="42.2446088" lon="13.9353502"><ele>166.0</ele><time>2026-05-03T11:04:32.018Z</time></trkpt><trkpt lat="42.2445848" lon="13.9354397"><ele>166.0</ele><time>2026-05-03T11:04:33.018Z</time></trkpt><trkpt lat="42.2445547" lon="13.9355431"><ele>166.0</ele><time>2026-05-03T11:04:34.018Z</time></trkpt><trkpt lat="42.2445259" lon="13.9356556"><ele>166.0</ele><time>2026-05-03T11:04:35.018Z</time></trkpt><trkpt lat="42.2444953" lon="13.9357796"><ele>166.0</ele><time>2026-05-03T11:04:36.018Z</time></trkpt><trkpt lat="42.244459" lon="13.9359086"><ele>166.0</ele><time>2026-05-03T11:04:37.018Z</time></trkpt><trkpt lat="42.2444249" lon="13.9360324"><ele>166.0</ele><time>2026-05-03T11:04:38.018Z</time></trkpt><trkpt lat="42.2443909" lon="13.9361462"><ele>165.20000000000002</ele><time>2026-05-03T11:04:39.018Z</time></trkpt><trkpt lat="42.2443544" lon="13.9362637"><ele>164.4</ele><time>2026-05-03T11:04:40.018Z</time></trkpt><trkpt lat="42.2443096" lon="13.9363834"><ele>163.6</ele><time>2026-05-03T11:04:41.018Z</time></trkpt><trkpt lat="42.2442591" lon="13.9365075"><ele>162.8</ele><time>2026-05-03T11:04:42.018Z</time></trkpt><trkpt lat="42.2442059" lon="13.9366315"><ele>162.0</ele><time>2026-05-03T11:04:43.019Z</time></trkpt><trkpt lat="42.2441579" lon="13.9367371"><ele>161.66666666666666</ele><time>2026-05-03T11:04:44.018Z</time></trkpt><trkpt lat="42.2441171" lon="13.9368249"><ele>161.33333333333334</ele><time>2026-05-03T11:04:45.018Z</time></trkpt><trkpt lat="42.2440537" lon="13.9369296"><ele>161.0</ele><time>2026-05-03T11:04:47.018Z</time></trkpt><trkpt lat="42.2440002" lon="13.9370201"><ele>160.66666666666669</ele><time>2026-05-03T11:04:49.019Z</time></trkpt><trkpt lat="42.244054" lon="13.9370703"><ele>160.33333333333334</ele><time>2026-05-03T11:04:54.018Z</time></trkpt><trkpt lat="42.2441104" lon="13.9369284"><ele>160.0</ele><time>2026-05-03T11:04:56.019Z</time></trkpt><trkpt lat="42.2441458" lon="13.9368445"><ele>160.0</ele><time>2026-05-03T11:04:57.018Z</time></trkpt><trkpt lat="42.2441901" lon="13.9367468"><ele>160.0</ele><time>2026-05-03T11:04:58.019Z</time></trkpt><trkpt lat="42.2442367" lon="13.9366323"><ele>160.0</ele><time>2026-05-03T11:04:59.018Z</time></trkpt><trkpt lat="42.244291" lon="13.9365105"><ele>160.0</ele><time>2026-05-03T11:05:00.018Z</time></trkpt><trkpt lat="42.2443496" lon="13.9363794"><ele>160.0</ele><time>2026-05-03T11:05:01.018Z</time></trkpt><trkpt lat="42.2443997" lon="13.9362507"><ele>160.4</ele><time>2026-05-03T11:05:02.018Z</time></trkpt><trkpt lat="42.244444" lon="13.936121"><ele>160.8</ele><time>2026-05-03T11:05:03.019Z</time></trkpt><trkpt lat="42.2444838" lon="13.9359988"><ele>161.2</ele><time>2026-05-03T11:05:04.018Z</time></trkpt><trkpt lat="42.2445189" lon="13.935873"><ele>161.6</ele><time>2026-05-03T11:05:05.018Z</time></trkpt><trkpt lat="42.2445514" lon="13.9357564"><ele>162.0</ele><time>2026-05-03T11:05:06.018Z</time></trkpt><trkpt lat="42.2445801" lon="13.9356528"><ele>161.6</ele><time>2026-05-03T11:05:07.018Z</time></trkpt><trkpt lat="42.2446089" lon="13.9355431"><ele>161.2</ele><time>2026-05-03T11:05:08.018Z</time></trkpt><trkpt lat="42.2446359" lon="13.9354441"><ele>160.8</ele><time>2026-05-03T11:05:09.019Z</time></trkpt><trkpt lat="42.2446619" lon="13.9353425"><ele>160.4</ele><time>2026-05-03T11:05:10.019Z</time></trkpt><trkpt lat="42.2446873" lon="13.9352455"><ele>160.0</ele><time>2026-05-03T11:05:11.018Z</time></trkpt><trkpt lat="42.2448164" lon="13.9350554"><ele>160.0</ele><time>2026-05-03T11:05:15.018Z</time></trkpt><trkpt lat="42.2449043" lon="13.9351063"><ele>160.0</ele><time>2026-05-03T11:05:16.018Z</time></trkpt><trkpt lat="42.2449667" lon="13.9352709"><ele>160.0</ele><time>2026-05-03T11:05:17.018Z</time></trkpt><trkpt lat="42.2450029" lon="13.9353717"><ele>160.0</ele><time>2026-05-03T11:05:18.018Z</time></trkpt><trkpt lat="42.2450324" lon="13.9354523"><ele>160.0</ele><time>2026-05-03T11:05:19.018Z</time></trkpt><trkpt lat="42.2450707" lon="13.9355736"><ele>160.0</ele><time>2026-05-03T11:05:20.018Z</time></trkpt><trkpt lat="42.2451218" lon="13.9357194"><ele>160.0</ele><time>2026-05-03T11:05:21.018Z</time></trkpt><trkpt lat="42.2451705" lon="13.9358719"><ele>160.0</ele><time>2026-05-03T11:05:22.018Z</time></trkpt><trkpt lat="42.2452179" lon="13.9360379"><ele>160.0</ele><time>2026-05-03T11:05:23.018Z</time></trkpt><trkpt lat="42.2452661" lon="13.9361916"><ele>159.25</ele><time>2026-05-03T11:05:24.019Z</time></trkpt><trkpt lat="42.2453262" lon="13.9363376"><ele>158.5</ele><time>2026-05-03T11:05:25.018Z</time></trkpt><trkpt lat="42.2453836" lon="13.9364852"><ele>157.75</ele><time>2026-05-03T11:05:26.018Z</time></trkpt><trkpt lat="42.2454351" lon="13.9366421"><ele>157.0</ele><time>2026-05-03T11:05:27.018Z</time></trkpt><trkpt lat="42.2454891" lon="13.9367966"><ele>156.5</ele><time>2026-05-03T11:05:28.018Z</time></trkpt><trkpt lat="42.2455398" lon="13.9369519"><ele>156.0</ele><time>2026-05-03T11:05:29.018Z</time></trkpt><trkpt lat="42.2455904" lon="13.937111"><ele>155.5</ele><time>2026-05-03T11:05:30.018Z</time></trkpt><trkpt lat="42.245644" lon="13.9372727"><ele>155.0</ele><time>2026-05-03T11:05:31.018Z</time></trkpt><trkpt lat="42.2457062" lon="13.9374366"><ele>154.75</ele><time>2026-05-03T11:05:32.018Z</time></trkpt><trkpt lat="42.2457609" lon="13.9376075"><ele>154.5</ele><time>2026-05-03T11:05:33.019Z</time></trkpt><trkpt lat="42.245817" lon="13.9377838"><ele>154.25</ele><time>2026-05-03T11:05:34.018Z</time></trkpt><trkpt lat="42.2458749" lon="13.9379668"><ele>154.0</ele><time>2026-05-03T11:05:35.018Z</time></trkpt><trkpt lat="42.2459406" lon="13.9381581"><ele>154.0</ele><time>2026-05-03T11:05:36.018Z</time></trkpt><trkpt lat="42.2460061" lon="13.9383526"><ele>154.0</ele><time>2026-05-03T11:05:37.019Z</time></trkpt><trkpt lat="42.2460728" lon="13.9385506"><ele>154.0</ele><time>2026-05-03T11:05:38.018Z</time></trkpt><trkpt lat="42.2461324" lon="13.9387407"><ele>154.0</ele><time>2026-05-03T11:05:39.018Z</time></trkpt><trkpt lat="42.2461955" lon="13.938928"><ele>154.0</ele><time>2026-05-03T11:05:40.018Z</time></trkpt><trkpt lat="42.2462629" lon="13.9391098"><ele>154.0</ele><time>2026-05-03T11:05:41.019Z</time></trkpt><trkpt lat="42.2463224" lon="13.939291"><ele>153.75</ele><time>2026-05-03T11:05:42.018Z</time></trkpt><trkpt lat="42.2463819" lon="13.9394739"><ele>153.5</ele><time>2026-05-03T11:05:43.018Z</time></trkpt><trkpt lat="42.2464429" lon="13.939653"><ele>153.25</ele><time>2026-05-03T11:05:44.019Z</time></trkpt><trkpt lat="42.2465043" lon="13.9398318"><ele>153.0</ele><time>2026-05-03T11:05:45.018Z</time></trkpt><trkpt lat="42.2465682" lon="13.9400196"><ele>150.66666666666666</ele><time>2026-05-03T11:05:46.018Z</time></trkpt><trkpt lat="42.2466329" lon="13.9402023"><ele>148.33333333333331</ele><time>2026-05-03T11:05:47.018Z</time></trkpt><trkpt lat="42.2466956" lon="13.9403907"><ele>146.0</ele><time>2026-05-03T11:05:48.018Z</time></trkpt><trkpt lat="42.2467591" lon="13.9405836"><ele>146.0</ele><time>2026-05-03T11:05:49.018Z</time></trkpt><trkpt lat="42.2468188" lon="13.9407792"><ele>146.0</ele><time>2026-05-03T11:05:50.018Z</time></trkpt><trkpt lat="42.2468824" lon="13.9409755"><ele>146.0</ele><time>2026-05-03T11:05:51.018Z</time></trkpt><trkpt lat="42.2469467" lon="13.9411698"><ele>146.0</ele><time>2026-05-03T11:05:52.018Z</time></trkpt><trkpt lat="42.2470112" lon="13.941367"><ele>146.0</ele><time>2026-05-03T11:05:53.018Z</time></trkpt><trkpt lat="42.2470758" lon="13.941565"><ele>146.0</ele><time>2026-05-03T11:05:54.018Z</time></trkpt><trkpt lat="42.2471315" lon="13.9417515"><ele>145.5</ele><time>2026-05-03T11:05:55.018Z</time></trkpt><trkpt lat="42.2471896" lon="13.9419276"><ele>145.0</ele><time>2026-05-03T11:05:56.018Z</time></trkpt><trkpt lat="42.2472458" lon="13.9420795"><ele>144.5</ele><time>2026-05-03T11:05:57.018Z</time></trkpt><trkpt lat="42.2472883" lon="13.9422202"><ele>144.0</ele><time>2026-05-03T11:05:58.018Z</time></trkpt><trkpt lat="42.2473524" lon="13.942351"><ele>143.0</ele><time>2026-05-03T11:05:59.018Z</time></trkpt><trkpt lat="42.2474459" lon="13.9424553"><ele>142.0</ele><time>2026-05-03T11:06:00.019Z</time></trkpt><trkpt lat="42.2475503" lon="13.9425433"><ele>141.0</ele><time>2026-05-03T11:06:01.018Z</time></trkpt><trkpt lat="42.2476609" lon="13.9426267"><ele>140.0</ele><time>2026-05-03T11:06:02.018Z</time></trkpt><trkpt lat="42.2477975" lon="13.9426793"><ele>139.5</ele><time>2026-05-03T11:06:03.018Z</time></trkpt><trkpt lat="42.2479236" lon="13.9427564"><ele>139.0</ele><time>2026-05-03T11:06:04.018Z</time></trkpt><trkpt lat="42.2480407" lon="13.942846"><ele>138.5</ele><time>2026-05-03T11:06:05.018Z</time></trkpt><trkpt lat="42.2481454" lon="13.9429613"><ele>138.0</ele><time>2026-05-03T11:06:06.018Z</time></trkpt><trkpt lat="42.248241" lon="13.9430926"><ele>137.25</ele><time>2026-05-03T11:06:07.018Z</time></trkpt><trkpt lat="42.2483109" lon="13.9432494"><ele>136.5</ele><time>2026-05-03T11:06:08.018Z</time></trkpt><trkpt lat="42.2483593" lon="13.943428"><ele>135.75</ele><time>2026-05-03T11:06:09.018Z</time></trkpt><trkpt lat="42.2483898" lon="13.9436139"><ele>135.0</ele><time>2026-05-03T11:06:10.018Z</time></trkpt><trkpt lat="42.2484068" lon="13.9438069"><ele>135.0</ele><time>2026-05-03T11:06:11.018Z</time></trkpt><trkpt lat="42.2483974" lon="13.9439972"><ele>135.0</ele><time>2026-05-03T11:06:12.018Z</time></trkpt><trkpt lat="42.2483866" lon="13.9441958"><ele>135.0</ele><time>2026-05-03T11:06:13.018Z</time></trkpt><trkpt lat="42.2483636" lon="13.9444082"><ele>135.0</ele><time>2026-05-03T11:06:14.019Z</time></trkpt><trkpt lat="42.2483422" lon="13.9446162"><ele>135.0</ele><time>2026-05-03T11:06:15.018Z</time></trkpt><trkpt lat="42.2483248" lon="13.9448253"><ele>135.0</ele><time>2026-05-03T11:06:16.018Z</time></trkpt><trkpt lat="42.2483085" lon="13.9450358"><ele>135.0</ele><time>2026-05-03T11:06:17.018Z</time></trkpt><trkpt lat="42.2482871" lon="13.9452487"><ele>135.66666666666666</ele><time>2026-05-03T11:06:18.018Z</time></trkpt><trkpt lat="42.2482633" lon="13.9454598"><ele>136.33333333333331</ele><time>2026-05-03T11:06:19.018Z</time></trkpt><trkpt lat="42.2482408" lon="13.9456728"><ele>137.0</ele><time>2026-05-03T11:06:20.018Z</time></trkpt><trkpt lat="42.2482164" lon="13.9458861"><ele>137.33333333333331</ele><time>2026-05-03T11:06:21.018Z</time></trkpt><trkpt lat="42.2481949" lon="13.946099"><ele>137.66666666666666</ele><time>2026-05-03T11:06:22.018Z</time></trkpt><trkpt lat="42.2481734" lon="13.9463149"><ele>138.0</ele><time>2026-05-03T11:06:23.018Z</time></trkpt><trkpt lat="42.2481513" lon="13.946531"><ele>137.66666666666666</ele><time>2026-05-03T11:06:24.019Z</time></trkpt><trkpt lat="42.2481309" lon="13.9467476"><ele>137.33333333333331</ele><time>2026-05-03T11:06:25.018Z</time></trkpt><trkpt lat="42.2481107" lon="13.9469453"><ele>137.0</ele><time>2026-05-03T11:06:26.019Z</time></trkpt><trkpt lat="42.2480948" lon="13.9471478"><ele>137.5</ele><time>2026-05-03T11:06:27.018Z</time></trkpt><trkpt lat="42.2480777" lon="13.9473349"><ele>138.0</ele><time>2026-05-03T11:06:28.018Z</time></trkpt><trkpt lat="42.2480755" lon="13.9475124"><ele>138.5</ele><time>2026-05-03T11:06:29.018Z</time></trkpt><trkpt lat="42.2481018" lon="13.9476765"><ele>139.0</ele><time>2026-05-03T11:06:30.018Z</time></trkpt><trkpt lat="42.2481523" lon="13.9478318"><ele>139.0</ele><time>2026-05-03T11:06:31.018Z</time></trkpt><trkpt lat="42.2482289" lon="13.947976"><ele>139.0</ele><time>2026-05-03T11:06:32.018Z</time></trkpt><trkpt lat="42.2483284" lon="13.9481065"><ele>139.0</ele><time>2026-05-03T11:06:33.018Z</time></trkpt><trkpt lat="42.248435" lon="13.9482335"><ele>139.0</ele><time>2026-05-03T11:06:34.018Z</time></trkpt><trkpt lat="42.2485463" lon="13.9483615"><ele>140.0</ele><time>2026-05-03T11:06:35.018Z</time></trkpt><trkpt lat="42.2486609" lon="13.9484951"><ele>141.0</ele><time>2026-05-03T11:06:36.018Z</time></trkpt><trkpt lat="42.2487771" lon="13.9486343"><ele>142.0</ele><time>2026-05-03T11:06:37.019Z</time></trkpt><trkpt lat="42.2488972" lon="13.9487709"><ele>141.0</ele><time>2026-05-03T11:06:38.018Z</time></trkpt><trkpt lat="42.2490154" lon="13.9489065"><ele>140.0</ele><time>2026-05-03T11:06:39.018Z</time></trkpt><trkpt lat="42.249135" lon="13.9490419"><ele>139.0</ele><time>2026-05-03T11:06:40.018Z</time></trkpt><trkpt lat="42.2492531" lon="13.9491777"><ele>139.33333333333334</ele><time>2026-05-03T11:06:41.018Z</time></trkpt><trkpt lat="42.2493704" lon="13.9493138"><ele>139.66666666666666</ele><time>2026-05-03T11:06:42.018Z</time></trkpt><trkpt lat="42.2494917" lon="13.9494542"><ele>140.0</ele><time>2026-05-03T11:06:43.018Z</time></trkpt><trkpt lat="42.2496085" lon="13.9495901"><ele>140.0</ele><time>2026-05-03T11:06:44.018Z</time></trkpt><trkpt lat="42.2497247" lon="13.9497238"><ele>140.0</ele><time>2026-05-03T11:06:45.018Z</time></trkpt><trkpt lat="42.2498369" lon="13.949852"><ele>140.0</ele><time>2026-05-03T11:06:46.018Z</time></trkpt><trkpt lat="42.2499492" lon="13.9499801"><ele>140.0</ele><time>2026-05-03T11:06:47.018Z</time></trkpt><trkpt lat="42.250057" lon="13.9501054"><ele>139.5</ele><time>2026-05-03T11:06:48.018Z</time></trkpt><trkpt lat="42.2501628" lon="13.9502274"><ele>139.0</ele><time>2026-05-03T11:06:49.018Z</time></trkpt><trkpt lat="42.2502694" lon="13.9503451"><ele>138.5</ele><time>2026-05-03T11:06:50.018Z</time></trkpt><trkpt lat="42.2503762" lon="13.9504565"><ele>138.0</ele><time>2026-05-03T11:06:51.018Z</time></trkpt><trkpt lat="42.2504819" lon="13.9505591"><ele>138.0</ele><time>2026-05-03T11:06:52.019Z</time></trkpt><trkpt lat="42.2505867" lon="13.9506428"><ele>138.0</ele><time>2026-05-03T11:06:53.018Z</time></trkpt><trkpt lat="42.2506854" lon="13.9507219"><ele>138.0</ele><time>2026-05-03T11:06:54.018Z</time></trkpt><trkpt lat="42.2507763" lon="13.9508039"><ele>138.0</ele><time>2026-05-03T11:06:55.019Z</time></trkpt><trkpt lat="42.2508469" lon="13.9508912"><ele>138.0</ele><time>2026-05-03T11:06:56.018Z</time></trkpt><trkpt lat="42.250898" lon="13.9509829"><ele>137.83333333333334</ele><time>2026-05-03T11:06:57.018Z</time></trkpt><trkpt lat="42.2509267" lon="13.9510854"><ele>137.66666666666666</ele><time>2026-05-03T11:06:58.018Z</time></trkpt><trkpt lat="42.2509457" lon="13.9511903"><ele>137.5</ele><time>2026-05-03T11:06:59.018Z</time></trkpt><trkpt lat="42.2509462" lon="13.9512932"><ele>137.33333333333331</ele><time>2026-05-03T11:07:00.018Z</time></trkpt><trkpt lat="42.2509485" lon="13.9514341"><ele>137.16666666666666</ele><time>2026-05-03T11:07:02.018Z</time></trkpt><trkpt lat="42.2509595" lon="13.9515204"><ele>137.0</ele><time>2026-05-03T11:07:04.018Z</time></trkpt><trkpt lat="42.250994" lon="13.9516105"><ele>137.0</ele><time>2026-05-03T11:07:07.018Z</time></trkpt><trkpt lat="42.2510881" lon="13.9516675"><ele>137.0</ele><time>2026-05-03T11:07:09.018Z</time></trkpt><trkpt lat="42.2512213" lon="13.9516799"><ele>137.0</ele><time>2026-05-03T11:07:11.018Z</time></trkpt><trkpt lat="42.2513001" lon="13.9516872"><ele>137.0</ele><time>2026-05-03T11:07:12.018Z</time></trkpt><trkpt lat="42.2513849" lon="13.951703"><ele>137.0</ele><time>2026-05-03T11:07:13.019Z</time></trkpt><trkpt lat="42.2514745" lon="13.9517235"><ele>136.16666666666666</ele><time>2026-05-03T11:07:14.018Z</time></trkpt><trkpt lat="42.2515626" lon="13.9517439"><ele>135.33333333333331</ele><time>2026-05-03T11:07:15.018Z</time></trkpt><trkpt lat="42.2516404" lon="13.9517623"><ele>134.5</ele><time>2026-05-03T11:07:16.018Z</time></trkpt><trkpt lat="42.2517109" lon="13.9517763"><ele>133.66666666666666</ele><time>2026-05-03T11:07:17.018Z</time></trkpt><trkpt lat="42.2518122" lon="13.9518111"><ele>132.83333333333334</ele><time>2026-05-03T11:07:19.018Z</time></trkpt><trkpt lat="42.2518793" lon="13.9518162"><ele>132.0</ele><time>2026-05-03T11:07:21.018Z</time></trkpt><trkpt lat="42.251993" lon="13.9518598"><ele>132.0</ele><time>2026-05-03T11:08:11.018Z</time></trkpt><trkpt lat="42.2520718" lon="13.9518612"><ele>132.0</ele><time>2026-05-03T11:08:33.018Z</time></trkpt><trkpt lat="42.2521481" lon="13.9518761"><ele>132.0</ele><time>2026-05-03T11:08:38.018Z</time></trkpt><trkpt lat="42.2522168" lon="13.9518683"><ele>132.0</ele><time>2026-05-03T11:08:44.018Z</time></trkpt><trkpt lat="42.2522891" lon="13.9518578"><ele>132.0</ele><time>2026-05-03T11:08:49.018Z</time></trkpt><trkpt lat="42.2524108" lon="13.9518604"><ele>132.0</ele><time>2026-05-03T11:08:51.018Z</time></trkpt><trkpt lat="42.252486" lon="13.9518745"><ele>131.4</ele><time>2026-05-03T11:08:52.018Z</time></trkpt><trkpt lat="42.2525746" lon="13.951894"><ele>130.79999999999998</ele><time>2026-05-03T11:08:53.019Z</time></trkpt><trkpt lat="42.2526751" lon="13.9519157"><ele>130.2</ele><time>2026-05-03T11:08:54.018Z</time></trkpt><trkpt lat="42.252775" lon="13.9519371"><ele>129.6</ele><time>2026-05-03T11:08:55.018Z</time></trkpt><trkpt lat="42.2528706" lon="13.9519558"><ele>129.0</ele><time>2026-05-03T11:08:56.018Z</time></trkpt><trkpt lat="42.2529628" lon="13.9519772"><ele>129.0</ele><time>2026-05-03T11:08:57.018Z</time></trkpt><trkpt lat="42.253055" lon="13.9519956"><ele>129.0</ele><time>2026-05-03T11:08:58.018Z</time></trkpt><trkpt lat="42.2531417" lon="13.9520123"><ele>129.0</ele><time>2026-05-03T11:08:59.018Z</time></trkpt><trkpt lat="42.2532177" lon="13.9520299"><ele>129.0</ele><time>2026-05-03T11:09:00.018Z</time></trkpt><trkpt lat="42.2532984" lon="13.9520572"><ele>129.0</ele><time>2026-05-03T11:09:01.018Z</time></trkpt><trkpt lat="42.2533919" lon="13.9520791"><ele>129.0</ele><time>2026-05-03T11:09:02.018Z</time></trkpt><trkpt lat="42.2534968" lon="13.9520732"><ele>129.5</ele><time>2026-05-03T11:09:03.018Z</time></trkpt><trkpt lat="42.2536102" lon="13.9520352"><ele>130.0</ele><time>2026-05-03T11:09:04.018Z</time></trkpt><trkpt lat="42.2537366" lon="13.9519815"><ele>130.5</ele><time>2026-05-03T11:09:05.018Z</time></trkpt><trkpt lat="42.2538732" lon="13.9519206"><ele>131.0</ele><time>2026-05-03T11:09:06.018Z</time></trkpt><trkpt lat="42.2540232" lon="13.9518678"><ele>134.33333333333331</ele><time>2026-05-03T11:09:07.018Z</time></trkpt><trkpt lat="42.254178" lon="13.9518135"><ele>137.66666666666666</ele><time>2026-05-03T11:09:08.018Z</time></trkpt><trkpt lat="42.2543416" lon="13.9517659"><ele>141.0</ele><time>2026-05-03T11:09:09.018Z</time></trkpt><trkpt lat="42.2545149" lon="13.9517167"><ele>141.0</ele><time>2026-05-03T11:09:10.018Z</time></trkpt><trkpt lat="42.2547054" lon="13.9516657"><ele>141.0</ele><time>2026-05-03T11:09:11.018Z</time></trkpt><trkpt lat="42.2548935" lon="13.9516088"><ele>141.0</ele><time>2026-05-03T11:09:12.018Z</time></trkpt><trkpt lat="42.2550895" lon="13.9515439"><ele>141.0</ele><time>2026-05-03T11:09:13.018Z</time></trkpt><trkpt lat="42.2552923" lon="13.9514846"><ele>141.0</ele><time>2026-05-03T11:09:14.018Z</time></trkpt><trkpt lat="42.2555036" lon="13.9514161"><ele>141.0</ele><time>2026-05-03T11:09:15.018Z</time></trkpt><trkpt lat="42.255721" lon="13.9513497"><ele>141.66666666666666</ele><time>2026-05-03T11:09:16.018Z</time></trkpt><trkpt lat="42.2559361" lon="13.9512843"><ele>142.33333333333331</ele><time>2026-05-03T11:09:17.018Z</time></trkpt><trkpt lat="42.2561363" lon="13.9512201"><ele>143.0</ele><time>2026-05-03T11:09:18.018Z</time></trkpt><trkpt lat="42.2563295" lon="13.9511757"><ele>143.33333333333331</ele><time>2026-05-03T11:09:19.018Z</time></trkpt><trkpt lat="42.2565235" lon="13.9511336"><ele>143.66666666666666</ele><time>2026-05-03T11:09:20.018Z</time></trkpt><trkpt lat="42.2567199" lon="13.9511165"><ele>144.0</ele><time>2026-05-03T11:09:21.018Z</time></trkpt><trkpt lat="42.2569259" lon="13.9511232"><ele>144.0</ele><time>2026-05-03T11:09:22.018Z</time></trkpt><trkpt lat="42.2571399" lon="13.9511486"><ele>144.0</ele><time>2026-05-03T11:09:23.018Z</time></trkpt><trkpt lat="42.2573578" lon="13.9511547"><ele>144.0</ele><time>2026-05-03T11:09:24.018Z</time></trkpt><trkpt lat="42.2575777" lon="13.951165"><ele>143.66666666666666</ele><time>2026-05-03T11:09:25.018Z</time></trkpt><trkpt lat="42.2577954" lon="13.9511758"><ele>143.33333333333331</ele><time>2026-05-03T11:09:26.018Z</time></trkpt><trkpt lat="42.2580105" lon="13.9512011"><ele>143.0</ele><time>2026-05-03T11:09:27.018Z</time></trkpt><trkpt lat="42.2582262" lon="13.951251"><ele>143.66666666666666</ele><time>2026-05-03T11:09:28.018Z</time></trkpt><trkpt lat="42.2584379" lon="13.951316"><ele>144.33333333333334</ele><time>2026-05-03T11:09:29.018Z</time></trkpt><trkpt lat="42.2586432" lon="13.9514045"><ele>145.0</ele><time>2026-05-03T11:09:30.018Z</time></trkpt><trkpt lat="42.2588466" lon="13.9515097"><ele>146.0</ele><time>2026-05-03T11:09:31.018Z</time></trkpt><trkpt lat="42.2590486" lon="13.9516276"><ele>147.0</ele><time>2026-05-03T11:09:32.018Z</time></trkpt><trkpt lat="42.2592419" lon="13.9517654"><ele>148.0</ele><time>2026-05-03T11:09:33.018Z</time></trkpt><trkpt lat="42.2594266" lon="13.9519166"><ele>148.0</ele><time>2026-05-03T11:09:34.018Z</time></trkpt><trkpt lat="42.2596031" lon="13.9520988"><ele>148.0</ele><time>2026-05-03T11:09:35.018Z</time></trkpt><trkpt lat="42.2597701" lon="13.9522892"><ele>148.0</ele><time>2026-05-03T11:09:36.018Z</time></trkpt><trkpt lat="42.2599305" lon="13.9524939"><ele>147.66666666666669</ele><time>2026-05-03T11:09:37.018Z</time></trkpt><trkpt lat="42.2600797" lon="13.952708"><ele>147.33333333333334</ele><time>2026-05-03T11:09:38.018Z</time></trkpt><trkpt lat="42.2602167" lon="13.9529299"><ele>147.0</ele><time>2026-05-03T11:09:39.018Z</time></trkpt><trkpt lat="42.2603423" lon="13.9531763"><ele>149.0</ele><time>2026-05-03T11:09:40.018Z</time></trkpt><trkpt lat="42.2604524" lon="13.9534279"><ele>151.0</ele><time>2026-05-03T11:09:41.018Z</time></trkpt><trkpt lat="42.2605501" lon="13.953689"><ele>153.0</ele><time>2026-05-03T11:09:42.018Z</time></trkpt><trkpt lat="42.2606378" lon="13.953959"><ele>148.0</ele><time>2026-05-03T11:09:43.018Z</time></trkpt><trkpt lat="42.260705" lon="13.954239"><ele>143.0</ele><time>2026-05-03T11:09:44.018Z</time></trkpt><trkpt lat="42.2607673" lon="13.9545261"><ele>138.0</ele><time>2026-05-03T11:09:45.018Z</time></trkpt><trkpt lat="42.2608307" lon="13.9548191"><ele>138.0</ele><time>2026-05-03T11:09:46.018Z</time></trkpt><trkpt lat="42.2608901" lon="13.9551138"><ele>138.0</ele><time>2026-05-03T11:09:47.018Z</time></trkpt><trkpt lat="42.260954" lon="13.9554177"><ele>138.0</ele><time>2026-05-03T11:09:48.018Z</time></trkpt><trkpt lat="42.2610206" lon="13.9557246"><ele>138.0</ele><time>2026-05-03T11:09:49.018Z</time></trkpt><trkpt lat="42.2610822" lon="13.9560311"><ele>139.0</ele><time>2026-05-03T11:09:50.018Z</time></trkpt><trkpt lat="42.2611472" lon="13.9563363"><ele>140.0</ele><time>2026-05-03T11:09:51.018Z</time></trkpt><trkpt lat="42.2612217" lon="13.956635"><ele>143.0</ele><time>2026-05-03T11:09:52.018Z</time></trkpt><trkpt lat="42.2613143" lon="13.9569298"><ele>146.0</ele><time>2026-05-03T11:09:53.018Z</time></trkpt><trkpt lat="42.2614185" lon="13.9572196"><ele>143.5</ele><time>2026-05-03T11:09:54.018Z</time></trkpt><trkpt lat="42.2615247" lon="13.9575021"><ele>141.0</ele><time>2026-05-03T11:09:55.018Z</time></trkpt><trkpt lat="42.2616325" lon="13.9577909"><ele>141.0</ele><time>2026-05-03T11:09:56.018Z</time></trkpt><trkpt lat="42.2617389" lon="13.9580761"><ele>141.0</ele><time>2026-05-03T11:09:57.018Z</time></trkpt><trkpt lat="42.2618466" lon="13.9583577"><ele>143.0</ele><time>2026-05-03T11:09:58.018Z</time></trkpt><trkpt lat="42.2619475" lon="13.9586415"><ele>145.0</ele><time>2026-05-03T11:09:59.018Z</time></trkpt><trkpt lat="42.2620346" lon="13.9589351"><ele>146.0</ele><time>2026-05-03T11:10:00.018Z</time></trkpt><trkpt lat="42.2621031" lon="13.9592338"><ele>147.0</ele><time>2026-05-03T11:10:01.018Z</time></trkpt><trkpt lat="42.2621522" lon="13.9595451"><ele>147.0</ele><time>2026-05-03T11:10:02.018Z</time></trkpt><trkpt lat="42.2621917" lon="13.9598572"><ele>147.0</ele><time>2026-05-03T11:10:03.018Z</time></trkpt><trkpt lat="42.2622315" lon="13.9601728"><ele>149.0</ele><time>2026-05-03T11:10:04.018Z</time></trkpt><trkpt lat="42.2622713" lon="13.9604941"><ele>151.0</ele><time>2026-05-03T11:10:05.018Z</time></trkpt><trkpt lat="42.2623129" lon="13.9608138"><ele>143.0</ele><time>2026-05-03T11:10:06.018Z</time></trkpt><trkpt lat="42.2623593" lon="13.9611326"><ele>135.0</ele><time>2026-05-03T11:10:07.019Z</time></trkpt><trkpt lat="42.262404" lon="13.9614565"><ele>135.5</ele><time>2026-05-03T11:10:08.018Z</time></trkpt><trkpt lat="42.2624482" lon="13.961779"><ele>136.0</ele><time>2026-05-03T11:10:09.018Z</time></trkpt><trkpt lat="42.2624866" lon="13.9620821"><ele>136.0</ele><time>2026-05-03T11:10:10.018Z</time></trkpt><trkpt lat="42.262533" lon="13.9623668"><ele>136.0</ele><time>2026-05-03T11:10:11.018Z</time></trkpt><trkpt lat="42.2626007" lon="13.9626389"><ele>136.0</ele><time>2026-05-03T11:10:12.018Z</time></trkpt><trkpt lat="42.2626922" lon="13.9629001"><ele>137.0</ele><time>2026-05-03T11:10:13.018Z</time></trkpt><trkpt lat="42.2628018" lon="13.9631522"><ele>138.0</ele><time>2026-05-03T11:10:14.018Z</time></trkpt><trkpt lat="42.2629386" lon="13.9633835"><ele>139.0</ele><time>2026-05-03T11:10:15.018Z</time></trkpt><trkpt lat="42.2630878" lon="13.9636045"><ele>137.5</ele><time>2026-05-03T11:10:16.018Z</time></trkpt><trkpt lat="42.2632449" lon="13.9638226"><ele>136.0</ele><time>2026-05-03T11:10:17.018Z</time></trkpt><trkpt lat="42.2634003" lon="13.9640419"><ele>140.5</ele><time>2026-05-03T11:10:18.018Z</time></trkpt><trkpt lat="42.2635612" lon="13.9642666"><ele>145.0</ele><time>2026-05-03T11:10:19.018Z</time></trkpt><trkpt lat="42.2637168" lon="13.9644866"><ele>145.0</ele><time>2026-05-03T11:10:20.018Z</time></trkpt><trkpt lat="42.2638736" lon="13.964709"><ele>145.0</ele><time>2026-05-03T11:10:21.018Z</time></trkpt><trkpt lat="42.264032" lon="13.9649298"><ele>144.33333333333334</ele><time>2026-05-03T11:10:22.018Z</time></trkpt><trkpt lat="42.2641839" lon="13.9651325"><ele>143.66666666666666</ele><time>2026-05-03T11:10:23.018Z</time></trkpt><trkpt lat="42.2643246" lon="13.9653327"><ele>143.0</ele><time>2026-05-03T11:10:24.018Z</time></trkpt><trkpt lat="42.2644521" lon="13.9655436"><ele>143.0</ele><time>2026-05-03T11:10:25.018Z</time></trkpt><trkpt lat="42.2645548" lon="13.9657774"><ele>143.0</ele><time>2026-05-03T11:10:26.018Z</time></trkpt><trkpt lat="42.2646414" lon="13.9660336"><ele>143.0</ele><time>2026-05-03T11:10:27.018Z</time></trkpt><trkpt lat="42.2647153" lon="13.9662992"><ele>140.66666666666666</ele><time>2026-05-03T11:10:28.018Z</time></trkpt><trkpt lat="42.2647907" lon="13.966575"><ele>138.33333333333334</ele><time>2026-05-03T11:10:29.018Z</time></trkpt><trkpt lat="42.2648636" lon="13.9668589"><ele>136.0</ele><time>2026-05-03T11:10:30.018Z</time></trkpt><trkpt lat="42.264939" lon="13.9671484"><ele>136.0</ele><time>2026-05-03T11:10:31.018Z</time></trkpt><trkpt lat="42.2650118" lon="13.9674387"><ele>136.0</ele><time>2026-05-03T11:10:32.018Z</time></trkpt><trkpt lat="42.2650811" lon="13.9677357"><ele>138.5</ele><time>2026-05-03T11:10:33.018Z</time></trkpt><trkpt lat="42.2651602" lon="13.9680329"><ele>141.0</ele><time>2026-05-03T11:10:34.018Z</time></trkpt><trkpt lat="42.2652382" lon="13.9683292"><ele>144.5</ele><time>2026-05-03T11:10:35.018Z</time></trkpt><trkpt lat="42.2653149" lon="13.9686216"><ele>148.0</ele><time>2026-05-03T11:10:36.018Z</time></trkpt><trkpt lat="42.2653951" lon="13.9689179"><ele>151.0</ele><time>2026-05-03T11:10:37.018Z</time></trkpt><trkpt lat="42.2654807" lon="13.9692117"><ele>154.0</ele><time>2026-05-03T11:10:38.018Z</time></trkpt><trkpt lat="42.2655619" lon="13.9695029"><ele>150.66666666666669</ele><time>2026-05-03T11:10:39.018Z</time></trkpt><trkpt lat="42.2656411" lon="13.9697843"><ele>147.33333333333334</ele><time>2026-05-03T11:10:40.018Z</time></trkpt><trkpt lat="42.2657131" lon="13.9700507"><ele>144.0</ele><time>2026-05-03T11:10:41.018Z</time></trkpt><trkpt lat="42.2657761" lon="13.9703085"><ele>144.0</ele><time>2026-05-03T11:10:42.018Z</time></trkpt><trkpt lat="42.2658164" lon="13.9705662"><ele>144.0</ele><time>2026-05-03T11:10:43.018Z</time></trkpt><trkpt lat="42.2658341" lon="13.9708328"><ele>144.0</ele><time>2026-05-03T11:10:44.019Z</time></trkpt><trkpt lat="42.2658291" lon="13.9711101"><ele>143.66666666666666</ele><time>2026-05-03T11:10:45.018Z</time></trkpt><trkpt lat="42.2658116" lon="13.9714011"><ele>143.33333333333331</ele><time>2026-05-03T11:10:46.018Z</time></trkpt><trkpt lat="42.2657896" lon="13.9717071"><ele>143.0</ele><time>2026-05-03T11:10:47.018Z</time></trkpt><trkpt lat="42.2657652" lon="13.9720157"><ele>142.33333333333331</ele><time>2026-05-03T11:10:48.018Z</time></trkpt><trkpt lat="42.2657422" lon="13.9723049"><ele>141.66666666666666</ele><time>2026-05-03T11:10:49.018Z</time></trkpt><trkpt lat="42.2657238" lon="13.9725797"><ele>141.0</ele><time>2026-05-03T11:10:50.018Z</time></trkpt><trkpt lat="42.2657058" lon="13.9728441"><ele>141.0</ele><time>2026-05-03T11:10:51.018Z</time></trkpt><trkpt lat="42.2656952" lon="13.9731041"><ele>141.0</ele><time>2026-05-03T11:10:52.019Z</time></trkpt><trkpt lat="42.2657126" lon="13.9733718"><ele>141.0</ele><time>2026-05-03T11:10:53.018Z</time></trkpt><trkpt lat="42.2657574" lon="13.9736318"><ele>142.0</ele><time>2026-05-03T11:10:54.018Z</time></trkpt><trkpt lat="42.2658303" lon="13.9738856"><ele>143.0</ele><time>2026-05-03T11:10:55.018Z</time></trkpt><trkpt lat="42.2659234" lon="13.9741524"><ele>144.0</ele><time>2026-05-03T11:10:56.018Z</time></trkpt><trkpt lat="42.2660209" lon="13.9744136"><ele>147.0</ele><time>2026-05-03T11:10:57.018Z</time></trkpt><trkpt lat="42.2661148" lon="13.9746692"><ele>150.0</ele><time>2026-05-03T11:10:58.018Z</time></trkpt><trkpt lat="42.2662057" lon="13.9749014"><ele>153.0</ele><time>2026-05-03T11:10:59.018Z</time></trkpt><trkpt lat="42.2662899" lon="13.9751149"><ele>152.33333333333334</ele><time>2026-05-03T11:11:00.018Z</time></trkpt><trkpt lat="42.2663665" lon="13.975314"><ele>151.66666666666669</ele><time>2026-05-03T11:11:01.018Z</time></trkpt><trkpt lat="42.2664298" lon="13.9755057"><ele>151.0</ele><time>2026-05-03T11:11:02.018Z</time></trkpt><trkpt lat="42.266484" lon="13.9756865"><ele>151.5</ele><time>2026-05-03T11:11:03.019Z</time></trkpt><trkpt lat="42.2665207" lon="13.9758663"><ele>152.0</ele><time>2026-05-03T11:11:04.018Z</time></trkpt><trkpt lat="42.2665426" lon="13.9760379"><ele>152.5</ele><time>2026-05-03T11:11:05.018Z</time></trkpt><trkpt lat="42.2665484" lon="13.9762014"><ele>153.0</ele><time>2026-05-03T11:11:06.018Z</time></trkpt><trkpt lat="42.2665534" lon="13.9763571"><ele>153.0</ele><time>2026-05-03T11:11:07.018Z</time></trkpt><trkpt lat="42.2665572" lon="13.9765048"><ele>153.0</ele><time>2026-05-03T11:11:08.018Z</time></trkpt><trkpt lat="42.2665579" lon="13.9766434"><ele>153.0</ele><time>2026-05-03T11:11:09.018Z</time></trkpt><trkpt lat="42.2665623" lon="13.9767729"><ele>153.0</ele><time>2026-05-03T11:11:10.018Z</time></trkpt><trkpt lat="42.2665636" lon="13.9768918"><ele>153.0</ele><time>2026-05-03T11:11:11.018Z</time></trkpt><trkpt lat="42.2665658" lon="13.9770011"><ele>153.5</ele><time>2026-05-03T11:11:12.018Z</time></trkpt><trkpt lat="42.2665645" lon="13.977102"><ele>154.0</ele><time>2026-05-03T11:11:13.018Z</time></trkpt><trkpt lat="42.2665666" lon="13.977196"><ele>154.5</ele><time>2026-05-03T11:11:14.018Z</time></trkpt><trkpt lat="42.2665715" lon="13.977281"><ele>155.0</ele><time>2026-05-03T11:11:15.018Z</time></trkpt><trkpt lat="42.2665734" lon="13.9774219"><ele>155.5</ele><time>2026-05-03T11:11:17.018Z</time></trkpt><trkpt lat="42.2665765" lon="13.9775246"><ele>156.0</ele><time>2026-05-03T11:11:19.018Z</time></trkpt><trkpt lat="42.266576" lon="13.9776117"><ele>156.0</ele><time>2026-05-03T11:11:32.018Z</time></trkpt><trkpt lat="42.2665853" lon="13.9777239"><ele>156.0</ele><time>2026-05-03T11:11:34.018Z</time></trkpt><trkpt lat="42.266595" lon="13.9778138"><ele>156.0</ele><time>2026-05-03T11:11:35.018Z</time></trkpt><trkpt lat="42.266603" lon="13.9779184"><ele>156.0</ele><time>2026-05-03T11:11:36.018Z</time></trkpt><trkpt lat="42.266613" lon="13.9780503"><ele>156.0</ele><time>2026-05-03T11:11:37.018Z</time></trkpt><trkpt lat="42.2666243" lon="13.9782053"><ele>156.0</ele><time>2026-05-03T11:11:38.019Z</time></trkpt><trkpt lat="42.2666343" lon="13.9783812"><ele>156.66666666666666</ele><time>2026-05-03T11:11:39.018Z</time></trkpt><trkpt lat="42.2666487" lon="13.9785801"><ele>157.33333333333331</ele><time>2026-05-03T11:11:40.018Z</time></trkpt><trkpt lat="42.2666603" lon="13.9787872"><ele>158.0</ele><time>2026-05-03T11:11:41.018Z</time></trkpt><trkpt lat="42.2666741" lon="13.9790093"><ele>159.0</ele><time>2026-05-03T11:11:42.018Z</time></trkpt><trkpt lat="42.2666879" lon="13.9792406"><ele>160.0</ele><time>2026-05-03T11:11:43.018Z</time></trkpt><trkpt lat="42.2667044" lon="13.9794808"><ele>161.0</ele><time>2026-05-03T11:11:44.018Z</time></trkpt><trkpt lat="42.2667191" lon="13.979726"><ele>161.0</ele><time>2026-05-03T11:11:45.019Z</time></trkpt><trkpt lat="42.2667331" lon="13.9799831"><ele>161.0</ele><time>2026-05-03T11:11:46.018Z</time></trkpt><trkpt lat="42.2667446" lon="13.9802432"><ele>161.0</ele><time>2026-05-03T11:11:47.018Z</time></trkpt><trkpt lat="42.2667601" lon="13.9805111"><ele>161.66666666666666</ele><time>2026-05-03T11:11:48.018Z</time></trkpt><trkpt lat="42.2667762" lon="13.9807873"><ele>162.33333333333334</ele><time>2026-05-03T11:11:49.018Z</time></trkpt><trkpt lat="42.2667965" lon="13.981071"><ele>163.0</ele><time>2026-05-03T11:11:50.018Z</time></trkpt><trkpt lat="42.2668137" lon="13.9813555"><ele>163.33333333333334</ele><time>2026-05-03T11:11:51.018Z</time></trkpt><trkpt lat="42.26683" lon="13.9816391"><ele>163.66666666666666</ele><time>2026-05-03T11:11:52.018Z</time></trkpt><trkpt lat="42.2668452" lon="13.9819268"><ele>164.0</ele><time>2026-05-03T11:11:53.018Z</time></trkpt><trkpt lat="42.2668622" lon="13.9822174"><ele>163.33333333333331</ele><time>2026-05-03T11:11:54.018Z</time></trkpt><trkpt lat="42.2668807" lon="13.9825154"><ele>162.66666666666666</ele><time>2026-05-03T11:11:55.019Z</time></trkpt><trkpt lat="42.2668998" lon="13.9828018"><ele>162.0</ele><time>2026-05-03T11:11:56.018Z</time></trkpt><trkpt lat="42.2669164" lon="13.9830768"><ele>162.66666666666666</ele><time>2026-05-03T11:11:57.018Z</time></trkpt><trkpt lat="42.2669329" lon="13.983348"><ele>163.33333333333331</ele><time>2026-05-03T11:11:58.018Z</time></trkpt><trkpt lat="42.2669467" lon="13.9836196"><ele>164.0</ele><time>2026-05-03T11:11:59.018Z</time></trkpt><trkpt lat="42.2669684" lon="13.9838941"><ele>164.0</ele><time>2026-05-03T11:12:00.018Z</time></trkpt><trkpt lat="42.2669983" lon="13.9841758"><ele>164.0</ele><time>2026-05-03T11:12:01.018Z</time></trkpt><trkpt lat="42.2670366" lon="13.9844597"><ele>164.0</ele><time>2026-05-03T11:12:02.018Z</time></trkpt><trkpt lat="42.2670777" lon="13.9847514"><ele>160.33333333333331</ele><time>2026-05-03T11:12:03.018Z</time></trkpt><trkpt lat="42.2671062" lon="13.9850377"><ele>156.66666666666666</ele><time>2026-05-03T11:12:04.018Z</time></trkpt><trkpt lat="42.267119" lon="13.9853234"><ele>153.0</ele><time>2026-05-03T11:12:05.018Z</time></trkpt><trkpt lat="42.2671152" lon="13.9856044"><ele>151.33333333333334</ele><time>2026-05-03T11:12:06.018Z</time></trkpt><trkpt lat="42.2671006" lon="13.9858808"><ele>149.66666666666669</ele><time>2026-05-03T11:12:07.018Z</time></trkpt><trkpt lat="42.2670728" lon="13.986156"><ele>148.0</ele><time>2026-05-03T11:12:08.018Z</time></trkpt><trkpt lat="42.2670285" lon="13.9864208"><ele>146.0</ele><time>2026-05-03T11:12:09.018Z</time></trkpt><trkpt lat="42.2669714" lon="13.9866938"><ele>144.0</ele><time>2026-05-03T11:12:10.018Z</time></trkpt><trkpt lat="42.2669164" lon="13.9869693"><ele>142.0</ele><time>2026-05-03T11:12:11.018Z</time></trkpt><trkpt lat="42.2668572" lon="13.9872425"><ele>140.33333333333334</ele><time>2026-05-03T11:12:12.019Z</time></trkpt><trkpt lat="42.2667935" lon="13.9875124"><ele>138.66666666666666</ele><time>2026-05-03T11:12:13.018Z</time></trkpt><trkpt lat="42.2667327" lon="13.9877831"><ele>137.0</ele><time>2026-05-03T11:12:14.018Z</time></trkpt><trkpt lat="42.2666819" lon="13.9880547"><ele>137.0</ele><time>2026-05-03T11:12:15.018Z</time></trkpt><trkpt lat="42.2666423" lon="13.988329"><ele>137.0</ele><time>2026-05-03T11:12:16.018Z</time></trkpt><trkpt lat="42.266622" lon="13.9886073"><ele>137.0</ele><time>2026-05-03T11:12:17.018Z</time></trkpt><trkpt lat="42.2666192" lon="13.9888867"><ele>135.33333333333331</ele><time>2026-05-03T11:12:18.018Z</time></trkpt><trkpt lat="42.2666385" lon="13.9891659"><ele>133.66666666666666</ele><time>2026-05-03T11:12:19.018Z</time></trkpt><trkpt lat="42.2666783" lon="13.9894443"><ele>132.0</ele><time>2026-05-03T11:12:20.018Z</time></trkpt><trkpt lat="42.2667272" lon="13.9897156"><ele>132.0</ele><time>2026-05-03T11:12:21.018Z</time></trkpt><trkpt lat="42.2667802" lon="13.9899889"><ele>132.0</ele><time>2026-05-03T11:12:22.018Z</time></trkpt><trkpt lat="42.266825" lon="13.9902651"><ele>132.0</ele><time>2026-05-03T11:12:23.018Z</time></trkpt><trkpt lat="42.2668528" lon="13.99053"><ele>131.66666666666666</ele><time>2026-05-03T11:12:24.018Z</time></trkpt><trkpt lat="42.2668614" lon="13.9907886"><ele>131.33333333333331</ele><time>2026-05-03T11:12:25.018Z</time></trkpt><trkpt lat="42.2668527" lon="13.9910441"><ele>131.0</ele><time>2026-05-03T11:12:26.018Z</time></trkpt><trkpt lat="42.266824" lon="13.9912975"><ele>129.0</ele><time>2026-05-03T11:12:27.018Z</time></trkpt><trkpt lat="42.266787" lon="13.9915534"><ele>127.0</ele><time>2026-05-03T11:12:28.018Z</time></trkpt><trkpt lat="42.2667425" lon="13.9918143"><ele>125.0</ele><time>2026-05-03T11:12:29.018Z</time></trkpt><trkpt lat="42.2666989" lon="13.9920808"><ele>123.33333333333333</ele><time>2026-05-03T11:12:30.018Z</time></trkpt><trkpt lat="42.2666527" lon="13.9923473"><ele>121.66666666666666</ele><time>2026-05-03T11:12:31.018Z</time></trkpt><trkpt lat="42.2666083" lon="13.9926197"><ele>120.0</ele><time>2026-05-03T11:12:32.018Z</time></trkpt><trkpt lat="42.2665638" lon="13.9928922"><ele>119.33333333333334</ele><time>2026-05-03T11:12:33.018Z</time></trkpt><trkpt lat="42.2665237" lon="13.9931626"><ele>118.66666666666667</ele><time>2026-05-03T11:12:34.018Z</time></trkpt><trkpt lat="42.2664762" lon="13.9934239"><ele>118.0</ele><time>2026-05-03T11:12:35.018Z</time></trkpt><trkpt lat="42.2664326" lon="13.9936703"><ele>120.0</ele><time>2026-05-03T11:12:36.018Z</time></trkpt><trkpt lat="42.2663939" lon="13.9938932"><ele>122.0</ele><time>2026-05-03T11:12:37.018Z</time></trkpt><trkpt lat="42.2663589" lon="13.9941013"><ele>124.0</ele><time>2026-05-03T11:12:38.018Z</time></trkpt><trkpt lat="42.2663315" lon="13.9942961"><ele>124.0</ele><time>2026-05-03T11:12:39.018Z</time></trkpt><trkpt lat="42.2663027" lon="13.9944827"><ele>124.0</ele><time>2026-05-03T11:12:40.018Z</time></trkpt><trkpt lat="42.2662677" lon="13.9946504"><ele>124.0</ele><time>2026-05-03T11:12:41.018Z</time></trkpt><trkpt lat="42.2662308" lon="13.9948013"><ele>124.0</ele><time>2026-05-03T11:12:42.018Z</time></trkpt><trkpt lat="42.2661803" lon="13.9949322"><ele>123.6</ele><time>2026-05-03T11:12:43.018Z</time></trkpt><trkpt lat="42.2661204" lon="13.9950402"><ele>123.2</ele><time>2026-05-03T11:12:44.018Z</time></trkpt><trkpt lat="42.2660659" lon="13.9951338"><ele>122.79999999999998</ele><time>2026-05-03T11:12:45.018Z</time></trkpt><trkpt lat="42.2660282" lon="13.9952405"><ele>122.39999999999999</ele><time>2026-05-03T11:12:46.018Z</time></trkpt><trkpt lat="42.2660386" lon="13.9953762"><ele>122.0</ele><time>2026-05-03T11:12:47.018Z</time></trkpt><trkpt lat="42.2660492" lon="13.9955226"><ele>122.0</ele><time>2026-05-03T11:12:48.018Z</time></trkpt><trkpt lat="42.2660474" lon="13.9956865"><ele>122.0</ele><time>2026-05-03T11:12:49.018Z</time></trkpt><trkpt lat="42.2660318" lon="13.9958678"><ele>122.0</ele><time>2026-05-03T11:12:50.018Z</time></trkpt><trkpt lat="42.2660143" lon="13.9960681"><ele>122.0</ele><time>2026-05-03T11:12:51.018Z</time></trkpt><trkpt lat="42.2659879" lon="13.9962839"><ele>121.33333333333333</ele><time>2026-05-03T11:12:52.018Z</time></trkpt><trkpt lat="42.2659533" lon="13.9965069"><ele>120.66666666666666</ele><time>2026-05-03T11:12:53.018Z</time></trkpt><trkpt lat="42.2659179" lon="13.9967434"><ele>120.0</ele><time>2026-05-03T11:12:54.018Z</time></trkpt><trkpt lat="42.265873" lon="13.9969875"><ele>120.0</ele><time>2026-05-03T11:12:55.018Z</time></trkpt><trkpt lat="42.2658281" lon="13.9972428"><ele>120.0</ele><time>2026-05-03T11:12:56.018Z</time></trkpt><trkpt lat="42.2657829" lon="13.9974956"><ele>120.0</ele><time>2026-05-03T11:12:57.018Z</time></trkpt><trkpt lat="42.2657361" lon="13.9977328"><ele>119.33333333333334</ele><time>2026-05-03T11:12:58.018Z</time></trkpt><trkpt lat="42.2656654" lon="13.9979485"><ele>118.66666666666667</ele><time>2026-05-03T11:12:59.018Z</time></trkpt><trkpt lat="42.2655896" lon="13.9981667"><ele>118.0</ele><time>2026-05-03T11:13:00.019Z</time></trkpt><trkpt lat="42.265498" lon="13.998378"><ele>117.66666666666667</ele><time>2026-05-03T11:13:01.018Z</time></trkpt><trkpt lat="42.2653891" lon="13.9985749"><ele>117.33333333333334</ele><time>2026-05-03T11:13:02.018Z</time></trkpt><trkpt lat="42.2652614" lon="13.9987542"><ele>117.0</ele><time>2026-05-03T11:13:03.018Z</time></trkpt><trkpt lat="42.265126" lon="13.9989117"><ele>117.0</ele><time>2026-05-03T11:13:04.018Z</time></trkpt><trkpt lat="42.2649952" lon="13.9990564"><ele>117.0</ele><time>2026-05-03T11:13:05.018Z</time></trkpt><trkpt lat="42.264865" lon="13.9991878"><ele>117.0</ele><time>2026-05-03T11:13:06.019Z</time></trkpt><trkpt lat="42.2647355" lon="13.9993094"><ele>117.33333333333334</ele><time>2026-05-03T11:13:07.018Z</time></trkpt><trkpt lat="42.2646083" lon="13.9994307"><ele>117.66666666666667</ele><time>2026-05-03T11:13:08.018Z</time></trkpt><trkpt lat="42.2644808" lon="13.9995554"><ele>118.0</ele><time>2026-05-03T11:13:09.018Z</time></trkpt><trkpt lat="42.2643533" lon="13.9996806"><ele>118.0</ele><time>2026-05-03T11:13:10.018Z</time></trkpt><trkpt lat="42.2642276" lon="13.9998059"><ele>118.0</ele><time>2026-05-03T11:13:11.018Z</time></trkpt><trkpt lat="42.2641029" lon="13.9999308"><ele>118.0</ele><time>2026-05-03T11:13:12.018Z</time></trkpt><trkpt lat="42.2639752" lon="14.0000541"><ele>119.66666666666667</ele><time>2026-05-03T11:13:13.018Z</time></trkpt><trkpt lat="42.2638507" lon="14.0001821"><ele>121.33333333333334</ele><time>2026-05-03T11:13:14.018Z</time></trkpt><trkpt lat="42.2637292" lon="14.0003098"><ele>123.0</ele><time>2026-05-03T11:13:15.019Z</time></trkpt><trkpt lat="42.2636126" lon="14.0004402"><ele>123.0</ele><time>2026-05-03T11:13:16.018Z</time></trkpt><trkpt lat="42.2635034" lon="14.0005808"><ele>123.0</ele><time>2026-05-03T11:13:17.018Z</time></trkpt><trkpt lat="42.26341" lon="14.0007411"><ele>123.0</ele><time>2026-05-03T11:13:18.018Z</time></trkpt><trkpt lat="42.2633348" lon="14.0009215"><ele>120.66666666666666</ele><time>2026-05-03T11:13:19.018Z</time></trkpt><trkpt lat="42.2632771" lon="14.0011126"><ele>118.33333333333333</ele><time>2026-05-03T11:13:20.018Z</time></trkpt><trkpt lat="42.2632468" lon="14.0013199"><ele>116.0</ele><time>2026-05-03T11:13:21.018Z</time></trkpt><trkpt lat="42.2632348" lon="14.0015303"><ele>114.33333333333333</ele><time>2026-05-03T11:13:22.018Z</time></trkpt><trkpt lat="42.2632487" lon="14.0017439"><ele>112.66666666666666</ele><time>2026-05-03T11:13:23.018Z</time></trkpt><trkpt lat="42.2632934" lon="14.0019569"><ele>111.0</ele><time>2026-05-03T11:13:24.019Z</time></trkpt><trkpt lat="42.2633676" lon="14.002161"><ele>111.0</ele><time>2026-05-03T11:13:25.018Z</time></trkpt><trkpt lat="42.2634391" lon="14.0023552"><ele>111.0</ele><time>2026-05-03T11:13:26.018Z</time></trkpt><trkpt lat="42.2635171" lon="14.0025303"><ele>111.0</ele><time>2026-05-03T11:13:27.019Z</time></trkpt><trkpt lat="42.2635969" lon="14.0027062"><ele>110.5</ele><time>2026-05-03T11:13:28.018Z</time></trkpt><trkpt lat="42.2636721" lon="14.002859"><ele>110.0</ele><time>2026-05-03T11:13:29.018Z</time></trkpt><trkpt lat="42.2637455" lon="14.0030048"><ele>109.5</ele><time>2026-05-03T11:13:30.018Z</time></trkpt><trkpt lat="42.2638174" lon="14.0031442"><ele>109.0</ele><time>2026-05-03T11:13:31.018Z</time></trkpt><trkpt lat="42.2638758" lon="14.0032791"><ele>109.0</ele><time>2026-05-03T11:13:32.018Z</time></trkpt><trkpt lat="42.2639252" lon="14.0034095"><ele>109.0</ele><time>2026-05-03T11:13:33.018Z</time></trkpt><trkpt lat="42.2639651" lon="14.0035366"><ele>109.0</ele><time>2026-05-03T11:13:34.018Z</time></trkpt><trkpt lat="42.2639837" lon="14.0036574"><ele>109.0</ele><time>2026-05-03T11:13:35.018Z</time></trkpt><trkpt lat="42.2639842" lon="14.0037692"><ele>109.0</ele><time>2026-05-03T11:13:36.018Z</time></trkpt><trkpt lat="42.2639747" lon="14.0038676"><ele>109.00000000000001</ele><time>2026-05-03T11:13:37.018Z</time></trkpt><trkpt lat="42.2639768" lon="14.0039538"><ele>109.0</ele><time>2026-05-03T11:13:38.018Z</time></trkpt><trkpt lat="42.2640075" lon="14.0040316"><ele>109.0</ele><time>2026-05-03T11:13:39.019Z</time></trkpt><trkpt lat="42.2640572" lon="14.0040989"><ele>109.0</ele><time>2026-05-03T11:13:40.018Z</time></trkpt><trkpt lat="42.2641213" lon="14.0041534"><ele>109.00000000000001</ele><time>2026-05-03T11:13:41.019Z</time></trkpt><trkpt lat="42.2642017" lon="14.0042047"><ele>109.0</ele><time>2026-05-03T11:13:42.018Z</time></trkpt><trkpt lat="42.2642759" lon="14.0042936"><ele>109.25</ele><time>2026-05-03T11:13:43.018Z</time></trkpt><trkpt lat="42.2643477" lon="14.0044141"><ele>109.5</ele><time>2026-05-03T11:13:44.018Z</time></trkpt><trkpt lat="42.264424" lon="14.0045537"><ele>109.75</ele><time>2026-05-03T11:13:45.018Z</time></trkpt><trkpt lat="42.2645002" lon="14.0047053"><ele>110.0</ele><time>2026-05-03T11:13:46.018Z</time></trkpt><trkpt lat="42.2645704" lon="14.0048468"><ele>110.0</ele><time>2026-05-03T11:13:47.018Z</time></trkpt><trkpt lat="42.2646332" lon="14.0049803"><ele>110.0</ele><time>2026-05-03T11:13:48.018Z</time></trkpt><trkpt lat="42.2646886" lon="14.0051022"><ele>110.0</ele><time>2026-05-03T11:13:49.018Z</time></trkpt><trkpt lat="42.2647397" lon="14.0052158"><ele>110.0</ele><time>2026-05-03T11:13:50.019Z</time></trkpt><trkpt lat="42.2647888" lon="14.0053273"><ele>110.0</ele><time>2026-05-03T11:13:51.018Z</time></trkpt><trkpt lat="42.2648405" lon="14.005445"><ele>109.0</ele><time>2026-05-03T11:13:52.018Z</time></trkpt><trkpt lat="42.2648922" lon="14.0055622"><ele>108.0</ele><time>2026-05-03T11:13:53.018Z</time></trkpt><trkpt lat="42.2649418" lon="14.0056745"><ele>107.0</ele><time>2026-05-03T11:13:54.018Z</time></trkpt><trkpt lat="42.2649878" lon="14.0057835"><ele>106.0</ele><time>2026-05-03T11:13:55.018Z</time></trkpt><trkpt lat="42.2650341" lon="14.0058898"><ele>105.0</ele><time>2026-05-03T11:13:56.018Z</time></trkpt><trkpt lat="42.2650796" lon="14.005997"><ele>104.4</ele><time>2026-05-03T11:13:57.018Z</time></trkpt><trkpt lat="42.2651265" lon="14.0061018"><ele>103.8</ele><time>2026-05-03T11:13:58.018Z</time></trkpt><trkpt lat="42.265175" lon="14.0062124"><ele>103.19999999999999</ele><time>2026-05-03T11:13:59.018Z</time></trkpt><trkpt lat="42.2652232" lon="14.0063252"><ele>102.6</ele><time>2026-05-03T11:14:00.019Z</time></trkpt><trkpt lat="42.2652687" lon="14.0064458"><ele>102.0</ele><time>2026-05-03T11:14:01.019Z</time></trkpt><trkpt lat="42.265333" lon="14.0065769"><ele>102.0</ele><time>2026-05-03T11:14:02.018Z</time></trkpt><trkpt lat="42.2654042" lon="14.0067546"><ele>102.0</ele><time>2026-05-03T11:14:03.018Z</time></trkpt><trkpt lat="42.2655169" lon="14.0070333"><ele>102.0</ele><time>2026-05-03T11:14:04.018Z</time></trkpt><trkpt lat="42.2656199" lon="14.007278"><ele>101.66666666666666</ele><time>2026-05-03T11:14:05.018Z</time></trkpt><trkpt lat="42.2657342" lon="14.0075025"><ele>101.33333333333333</ele><time>2026-05-03T11:14:06.018Z</time></trkpt><trkpt lat="42.2658751" lon="14.0076964"><ele>101.0</ele><time>2026-05-03T11:14:07.018Z</time></trkpt><trkpt lat="42.2660248" lon="14.0078798"><ele>101.0</ele><time>2026-05-03T11:14:08.018Z</time></trkpt><trkpt lat="42.2661805" lon="14.0080515"><ele>101.0</ele><time>2026-05-03T11:14:09.018Z</time></trkpt><trkpt lat="42.2663263" lon="14.0082198"><ele>101.0</ele><time>2026-05-03T11:14:10.018Z</time></trkpt><trkpt lat="42.2664589" lon="14.008394"><ele>100.33333333333333</ele><time>2026-05-03T11:14:11.018Z</time></trkpt><trkpt lat="42.2665789" lon="14.0085852"><ele>99.66666666666666</ele><time>2026-05-03T11:14:12.018Z</time></trkpt><trkpt lat="42.2666796" lon="14.0087838"><ele>99.0</ele><time>2026-05-03T11:14:13.018Z</time></trkpt><trkpt lat="42.2667684" lon="14.0089699"><ele>99.0</ele><time>2026-05-03T11:14:14.018Z</time></trkpt><trkpt lat="42.2668485" lon="14.0091482"><ele>99.0</ele><time>2026-05-03T11:14:15.018Z</time></trkpt><trkpt lat="42.2669277" lon="14.0093191"><ele>99.0</ele><time>2026-05-03T11:14:16.018Z</time></trkpt><trkpt lat="42.2669979" lon="14.0094704"><ele>99.0</ele><time>2026-05-03T11:14:17.018Z</time></trkpt><trkpt lat="42.2670614" lon="14.0096082"><ele>99.16666666666667</ele><time>2026-05-03T11:14:18.018Z</time></trkpt><trkpt lat="42.2671233" lon="14.0097302"><ele>99.33333333333334</ele><time>2026-05-03T11:14:19.018Z</time></trkpt><trkpt lat="42.267177" lon="14.0098365"><ele>99.5</ele><time>2026-05-03T11:14:20.018Z</time></trkpt><trkpt lat="42.2672197" lon="14.009933"><ele>99.66666666666667</ele><time>2026-05-03T11:14:21.018Z</time></trkpt><trkpt lat="42.267251" lon="14.010028"><ele>99.83333333333334</ele><time>2026-05-03T11:14:22.018Z</time></trkpt><trkpt lat="42.2672632" lon="14.0101123"><ele>100.0</ele><time>2026-05-03T11:14:23.018Z</time></trkpt><trkpt lat="42.26726" lon="14.0102901"><ele>99.0</ele><time>2026-05-03T11:14:25.018Z</time></trkpt><trkpt lat="42.2672785" lon="14.0103904"><ele>98.0</ele><time>2026-05-03T11:14:26.018Z</time></trkpt><trkpt lat="42.2673273" lon="14.0104811"><ele>97.0</ele><time>2026-05-03T11:14:27.018Z</time></trkpt><trkpt lat="42.2673838" lon="14.0105644"><ele>96.0</ele><time>2026-05-03T11:14:28.018Z</time></trkpt><trkpt lat="42.2674934" lon="14.0106422"><ele>95.0</ele><time>2026-05-03T11:14:29.018Z</time></trkpt><trkpt lat="42.2675784" lon="14.0107716"><ele>95.66666666666667</ele><time>2026-05-03T11:14:30.018Z</time></trkpt><trkpt lat="42.26766" lon="14.0109353"><ele>96.33333333333334</ele><time>2026-05-03T11:14:31.018Z</time></trkpt><trkpt lat="42.2677452" lon="14.011128"><ele>97.0</ele><time>2026-05-03T11:14:32.018Z</time></trkpt><trkpt lat="42.2678316" lon="14.0113125"><ele>97.0</ele><time>2026-05-03T11:14:33.018Z</time></trkpt><trkpt lat="42.2679118" lon="14.0114837"><ele>97.0</ele><time>2026-05-03T11:14:34.019Z</time></trkpt><trkpt lat="42.2679844" lon="14.0116496"><ele>97.0</ele><time>2026-05-03T11:14:35.019Z</time></trkpt><trkpt lat="42.2680588" lon="14.0118079"><ele>97.0</ele><time>2026-05-03T11:14:36.018Z</time></trkpt><trkpt lat="42.2681355" lon="14.0119768"><ele>94.33333333333334</ele><time>2026-05-03T11:14:37.018Z</time></trkpt><trkpt lat="42.2682263" lon="14.0121699"><ele>91.66666666666667</ele><time>2026-05-03T11:14:38.018Z</time></trkpt><trkpt lat="42.2683308" lon="14.0123846"><ele>89.0</ele><time>2026-05-03T11:14:39.018Z</time></trkpt><trkpt lat="42.2684346" lon="14.0126251"><ele>89.0</ele><time>2026-05-03T11:14:40.018Z</time></trkpt><trkpt lat="42.2685277" lon="14.0128583"><ele>89.0</ele><time>2026-05-03T11:14:41.018Z</time></trkpt><trkpt lat="42.2686176" lon="14.0130843"><ele>89.0</ele><time>2026-05-03T11:14:42.018Z</time></trkpt><trkpt lat="42.268706" lon="14.013298"><ele>88.66666666666667</ele><time>2026-05-03T11:14:43.018Z</time></trkpt><trkpt lat="42.2687934" lon="14.0135005"><ele>88.33333333333333</ele><time>2026-05-03T11:14:44.018Z</time></trkpt><trkpt lat="42.2688747" lon="14.0136943"><ele>88.0</ele><time>2026-05-03T11:14:45.018Z</time></trkpt><trkpt lat="42.2689531" lon="14.0138712"><ele>87.5</ele><time>2026-05-03T11:14:46.018Z</time></trkpt><trkpt lat="42.2690261" lon="14.0140285"><ele>87.0</ele><time>2026-05-03T11:14:47.018Z</time></trkpt><trkpt lat="42.2690974" lon="14.0141695"><ele>86.5</ele><time>2026-05-03T11:14:48.019Z</time></trkpt><trkpt lat="42.2691701" lon="14.0142803"><ele>86.0</ele><time>2026-05-03T11:14:49.018Z</time></trkpt><trkpt lat="42.2692421" lon="14.0143802"><ele>86.0</ele><time>2026-05-03T11:14:50.018Z</time></trkpt><trkpt lat="42.2693052" lon="14.0144861"><ele>86.0</ele><time>2026-05-03T11:14:51.019Z</time></trkpt><trkpt lat="42.2693432" lon="14.0146011"><ele>86.0</ele><time>2026-05-03T11:14:52.018Z</time></trkpt><trkpt lat="42.2693774" lon="14.0147091"><ele>86.0</ele><time>2026-05-03T11:14:53.018Z</time></trkpt><trkpt lat="42.2694142" lon="14.014795"><ele>86.0</ele><time>2026-05-03T11:14:54.018Z</time></trkpt><trkpt lat="42.2694683" lon="14.0148819"><ele>86.0</ele><time>2026-05-03T11:14:55.018Z</time></trkpt><trkpt lat="42.2695221" lon="14.0149916"><ele>86.25</ele><time>2026-05-03T11:14:56.018Z</time></trkpt><trkpt lat="42.2695801" lon="14.0151334"><ele>86.5</ele><time>2026-05-03T11:14:57.018Z</time></trkpt><trkpt lat="42.269639" lon="14.0153149"><ele>86.75</ele><time>2026-05-03T11:14:58.018Z</time></trkpt><trkpt lat="42.2697148" lon="14.0155227"><ele>87.0</ele><time>2026-05-03T11:14:59.018Z</time></trkpt><trkpt lat="42.2698064" lon="14.0157469"><ele>86.66666666666667</ele><time>2026-05-03T11:15:00.018Z</time></trkpt><trkpt lat="42.2699116" lon="14.0159811"><ele>86.33333333333334</ele><time>2026-05-03T11:15:01.018Z</time></trkpt><trkpt lat="42.2700253" lon="14.016232"><ele>86.0</ele><time>2026-05-03T11:15:02.018Z</time></trkpt><trkpt lat="42.2701429" lon="14.0164988"><ele>86.0</ele><time>2026-05-03T11:15:03.018Z</time></trkpt><trkpt lat="42.2702651" lon="14.0167785"><ele>86.0</ele><time>2026-05-03T11:15:04.018Z</time></trkpt><trkpt lat="42.2703931" lon="14.0170654"><ele>86.0</ele><time>2026-05-03T11:15:05.018Z</time></trkpt><trkpt lat="42.2705245" lon="14.0173674"><ele>86.0</ele><time>2026-05-03T11:15:06.018Z</time></trkpt><trkpt lat="42.2706624" lon="14.0176747"><ele>86.0</ele><time>2026-05-03T11:15:07.018Z</time></trkpt><trkpt lat="42.2708015" lon="14.0179886"><ele>86.0</ele><time>2026-05-03T11:15:08.018Z</time></trkpt><trkpt lat="42.2709397" lon="14.0182894"><ele>88.0</ele><time>2026-05-03T11:15:09.018Z</time></trkpt><trkpt lat="42.2710701" lon="14.0185637"><ele>90.0</ele><time>2026-05-03T11:15:10.018Z</time></trkpt><trkpt lat="42.2712029" lon="14.0188149"><ele>90.0</ele><time>2026-05-03T11:15:11.018Z</time></trkpt><trkpt lat="42.2713489" lon="14.0190443"><ele>90.0</ele><time>2026-05-03T11:15:12.018Z</time></trkpt><trkpt lat="42.2715051" lon="14.0192555"><ele>90.0</ele><time>2026-05-03T11:15:13.018Z</time></trkpt><trkpt lat="42.2716618" lon="14.0194432"><ele>91.0</ele><time>2026-05-03T11:15:14.019Z</time></trkpt><trkpt lat="42.2718398" lon="14.0196281"><ele>92.0</ele><time>2026-05-03T11:15:15.018Z</time></trkpt><trkpt lat="42.2720262" lon="14.0198198"><ele>91.5</ele><time>2026-05-03T11:15:16.018Z</time></trkpt><trkpt lat="42.2722231" lon="14.020006"><ele>91.0</ele><time>2026-05-03T11:15:17.018Z</time></trkpt><trkpt lat="42.2724458" lon="14.0201727"><ele>91.0</ele><time>2026-05-03T11:15:18.018Z</time></trkpt><trkpt lat="42.2726793" lon="14.0203243"><ele>91.0</ele><time>2026-05-03T11:15:19.018Z</time></trkpt><trkpt lat="42.2729107" lon="14.0204462"><ele>88.5</ele><time>2026-05-03T11:15:20.018Z</time></trkpt><trkpt lat="42.2731456" lon="14.0205298"><ele>86.0</ele><time>2026-05-03T11:15:21.018Z</time></trkpt><trkpt lat="42.2733774" lon="14.0205996"><ele>86.0</ele><time>2026-05-03T11:15:22.018Z</time></trkpt><trkpt lat="42.2736187" lon="14.0206483"><ele>86.0</ele><time>2026-05-03T11:15:23.018Z</time></trkpt><trkpt lat="42.2738675" lon="14.0206735"><ele>85.0</ele><time>2026-05-03T11:15:24.019Z</time></trkpt><trkpt lat="42.2741248" lon="14.0206881"><ele>84.0</ele><time>2026-05-03T11:15:25.019Z</time></trkpt><trkpt lat="42.2743909" lon="14.020685"><ele>84.0</ele><time>2026-05-03T11:15:26.018Z</time></trkpt><trkpt lat="42.2746564" lon="14.0206785"><ele>84.0</ele><time>2026-05-03T11:15:27.018Z</time></trkpt><trkpt lat="42.274928" lon="14.0206714"><ele>82.5</ele><time>2026-05-03T11:15:28.018Z</time></trkpt><trkpt lat="42.2752054" lon="14.0206712"><ele>81.0</ele><time>2026-05-03T11:15:29.018Z</time></trkpt><trkpt lat="42.2754825" lon="14.0206689"><ele>81.5</ele><time>2026-05-03T11:15:30.019Z</time></trkpt><trkpt lat="42.2757583" lon="14.0206783"><ele>82.0</ele><time>2026-05-03T11:15:31.019Z</time></trkpt><trkpt lat="42.2760298" lon="14.0207056"><ele>82.0</ele><time>2026-05-03T11:15:32.019Z</time></trkpt><trkpt lat="42.2762982" lon="14.0207531"><ele>82.0</ele><time>2026-05-03T11:15:33.018Z</time></trkpt><trkpt lat="42.2765643" lon="14.0208117"><ele>84.0</ele><time>2026-05-03T11:15:34.019Z</time></trkpt><trkpt lat="42.2768267" lon="14.0208852"><ele>86.0</ele><time>2026-05-03T11:15:35.019Z</time></trkpt><trkpt lat="42.2770879" lon="14.0209687"><ele>84.0</ele><time>2026-05-03T11:15:36.018Z</time></trkpt><trkpt lat="42.2773452" lon="14.0210663"><ele>82.0</ele><time>2026-05-03T11:15:37.018Z</time></trkpt><trkpt lat="42.2775967" lon="14.0211843"><ele>82.0</ele><time>2026-05-03T11:15:38.019Z</time></trkpt><trkpt lat="42.2778334" lon="14.0213079"><ele>82.0</ele><time>2026-05-03T11:15:39.018Z</time></trkpt><trkpt lat="42.2780636" lon="14.0214449"><ele>81.5</ele><time>2026-05-03T11:15:40.018Z</time></trkpt><trkpt lat="42.2782957" lon="14.0215932"><ele>81.0</ele><time>2026-05-03T11:15:41.018Z</time></trkpt><trkpt lat="42.2785324" lon="14.0217456"><ele>80.5</ele><time>2026-05-03T11:15:42.019Z</time></trkpt><trkpt lat="42.2787776" lon="14.0218953"><ele>80.0</ele><time>2026-05-03T11:15:43.018Z</time></trkpt><trkpt lat="42.2790321" lon="14.0220375"><ele>80.0</ele><time>2026-05-03T11:15:44.018Z</time></trkpt><trkpt lat="42.2792867" lon="14.0221932"><ele>80.0</ele><time>2026-05-03T11:15:45.018Z</time></trkpt><trkpt lat="42.2795428" lon="14.0223658"><ele>81.5</ele><time>2026-05-03T11:15:46.018Z</time></trkpt><trkpt lat="42.2798019" lon="14.0225364"><ele>83.0</ele><time>2026-05-03T11:15:47.018Z</time></trkpt><trkpt lat="42.2800475" lon="14.0226898"><ele>83.0</ele><time>2026-05-03T11:15:48.018Z</time></trkpt><trkpt lat="42.280275" lon="14.0228326"><ele>83.0</ele><time>2026-05-03T11:15:49.018Z</time></trkpt><trkpt lat="42.2804922" lon="14.022968"><ele>84.0</ele><time>2026-05-03T11:15:50.018Z</time></trkpt><trkpt lat="42.2806975" lon="14.0230965"><ele>85.0</ele><time>2026-05-03T11:15:51.018Z</time></trkpt><trkpt lat="42.2809013" lon="14.02323"><ele>87.66666666666666</ele><time>2026-05-03T11:15:52.018Z</time></trkpt><trkpt lat="42.2810971" lon="14.02336"><ele>90.33333333333333</ele><time>2026-05-03T11:15:53.018Z</time></trkpt><trkpt lat="42.2812937" lon="14.0234945"><ele>93.0</ele><time>2026-05-03T11:15:54.018Z</time></trkpt><trkpt lat="42.2814756" lon="14.0236213"><ele>93.0</ele><time>2026-05-03T11:15:55.018Z</time></trkpt><trkpt lat="42.281644" lon="14.0237487"><ele>93.0</ele><time>2026-05-03T11:15:56.018Z</time></trkpt><trkpt lat="42.2818031" lon="14.0238735"><ele>93.0</ele><time>2026-05-03T11:15:57.018Z</time></trkpt><trkpt lat="42.2819518" lon="14.0239952"><ele>93.0</ele><time>2026-05-03T11:15:58.018Z</time></trkpt><trkpt lat="42.2820927" lon="14.0241147"><ele>93.0</ele><time>2026-05-03T11:15:59.018Z</time></trkpt><trkpt lat="42.2822269" lon="14.0242364"><ele>93.0</ele><time>2026-05-03T11:16:00.018Z</time></trkpt><trkpt lat="42.2823544" lon="14.0243619"><ele>95.0</ele><time>2026-05-03T11:16:01.018Z</time></trkpt><trkpt lat="42.2824767" lon="14.0244891"><ele>97.0</ele><time>2026-05-03T11:16:02.018Z</time></trkpt><trkpt lat="42.2825906" lon="14.0246254"><ele>99.0</ele><time>2026-05-03T11:16:03.018Z</time></trkpt><trkpt lat="42.2827032" lon="14.0247634"><ele>99.0</ele><time>2026-05-03T11:16:04.018Z</time></trkpt><trkpt lat="42.2828182" lon="14.0249086"><ele>99.0</ele><time>2026-05-03T11:16:05.018Z</time></trkpt><trkpt lat="42.282934" lon="14.0250576"><ele>99.0</ele><time>2026-05-03T11:16:06.018Z</time></trkpt><trkpt lat="42.2830512" lon="14.0252147"><ele>96.66666666666667</ele><time>2026-05-03T11:16:07.018Z</time></trkpt><trkpt lat="42.2831673" lon="14.0253793"><ele>94.33333333333334</ele><time>2026-05-03T11:16:08.018Z</time></trkpt><trkpt lat="42.2832809" lon="14.0255509"><ele>92.0</ele><time>2026-05-03T11:16:09.018Z</time></trkpt><trkpt lat="42.2833942" lon="14.0257278"><ele>96.0</ele><time>2026-05-03T11:16:10.018Z</time></trkpt><trkpt lat="42.2835015" lon="14.0259105"><ele>100.0</ele><time>2026-05-03T11:16:11.018Z</time></trkpt><trkpt lat="42.2836062" lon="14.0260963"><ele>104.0</ele><time>2026-05-03T11:16:12.018Z</time></trkpt><trkpt lat="42.2837231" lon="14.0263004"><ele>104.0</ele><time>2026-05-03T11:16:13.018Z</time></trkpt><trkpt lat="42.2838384" lon="14.0265264"><ele>104.0</ele><time>2026-05-03T11:16:14.018Z</time></trkpt><trkpt lat="42.2839513" lon="14.026771"><ele>104.0</ele><time>2026-05-03T11:16:15.018Z</time></trkpt><trkpt lat="42.2840634" lon="14.0270347"><ele>100.0</ele><time>2026-05-03T11:16:16.018Z</time></trkpt><trkpt lat="42.2841726" lon="14.0273137"><ele>96.0</ele><time>2026-05-03T11:16:17.018Z</time></trkpt><trkpt lat="42.2842808" lon="14.0275975"><ele>96.0</ele><time>2026-05-03T11:16:18.018Z</time></trkpt><trkpt lat="42.2843837" lon="14.0278727"><ele>96.0</ele><time>2026-05-03T11:16:19.018Z</time></trkpt><trkpt lat="42.2844815" lon="14.0281344"><ele>96.0</ele><time>2026-05-03T11:16:20.018Z</time></trkpt><trkpt lat="42.2845785" lon="14.0283828"><ele>95.66666666666667</ele><time>2026-05-03T11:16:21.018Z</time></trkpt><trkpt lat="42.2846681" lon="14.0286337"><ele>95.33333333333334</ele><time>2026-05-03T11:16:22.018Z</time></trkpt><trkpt lat="42.2847557" lon="14.0288714"><ele>95.0</ele><time>2026-05-03T11:16:23.018Z</time></trkpt><trkpt lat="42.2848333" lon="14.0290963"><ele>91.0</ele><time>2026-05-03T11:16:24.019Z</time></trkpt><trkpt lat="42.2849105" lon="14.0293099"><ele>87.0</ele><time>2026-05-03T11:16:25.018Z</time></trkpt><trkpt lat="42.2849886" lon="14.0295269"><ele>83.0</ele><time>2026-05-03T11:16:26.018Z</time></trkpt><trkpt lat="42.2850699" lon="14.0297414"><ele>83.0</ele><time>2026-05-03T11:16:27.018Z</time></trkpt><trkpt lat="42.2851533" lon="14.0299622"><ele>83.0</ele><time>2026-05-03T11:16:28.018Z</time></trkpt><trkpt lat="42.2852365" lon="14.0301828"><ele>83.0</ele><time>2026-05-03T11:16:29.018Z</time></trkpt><trkpt lat="42.2853124" lon="14.0303982"><ele>85.66666666666667</ele><time>2026-05-03T11:16:30.018Z</time></trkpt><trkpt lat="42.28539" lon="14.0306068"><ele>88.33333333333333</ele><time>2026-05-03T11:16:31.018Z</time></trkpt><trkpt lat="42.2854698" lon="14.0308195"><ele>91.0</ele><time>2026-05-03T11:16:32.018Z</time></trkpt><trkpt lat="42.2855488" lon="14.0310315"><ele>86.66666666666666</ele><time>2026-05-03T11:16:33.018Z</time></trkpt><trkpt lat="42.2856269" lon="14.0312386"><ele>82.33333333333333</ele><time>2026-05-03T11:16:34.018Z</time></trkpt><trkpt lat="42.2857052" lon="14.0314355"><ele>78.0</ele><time>2026-05-03T11:16:35.018Z</time></trkpt><trkpt lat="42.285788" lon="14.0316173"><ele>79.66666666666667</ele><time>2026-05-03T11:16:36.019Z</time></trkpt><trkpt lat="42.2858708" lon="14.0317889"><ele>81.33333333333334</ele><time>2026-05-03T11:16:37.018Z</time></trkpt><trkpt lat="42.2859822" lon="14.03195"><ele>83.0</ele><time>2026-05-03T11:16:38.018Z</time></trkpt><trkpt lat="42.2861226" lon="14.0321199"><ele>83.0</ele><time>2026-05-03T11:16:39.018Z</time></trkpt><trkpt lat="42.2862833" lon="14.0322988"><ele>83.0</ele><time>2026-05-03T11:16:40.018Z</time></trkpt><trkpt lat="42.2864594" lon="14.0324879"><ele>83.0</ele><time>2026-05-03T11:16:41.018Z</time></trkpt><trkpt lat="42.2866355" lon="14.0326991"><ele>81.5</ele><time>2026-05-03T11:16:42.019Z</time></trkpt><trkpt lat="42.2868233" lon="14.0329174"><ele>80.0</ele><time>2026-05-03T11:16:43.018Z</time></trkpt><trkpt lat="42.2870188" lon="14.0331337"><ele>80.5</ele><time>2026-05-03T11:16:44.018Z</time></trkpt><trkpt lat="42.2872287" lon="14.0333574"><ele>81.0</ele><time>2026-05-03T11:16:45.018Z</time></trkpt><trkpt lat="42.2874406" lon="14.0335873"><ele>77.5</ele><time>2026-05-03T11:16:46.018Z</time></trkpt><trkpt lat="42.2876567" lon="14.033823"><ele>74.0</ele><time>2026-05-03T11:16:47.018Z</time></trkpt><trkpt lat="42.2878789" lon="14.0340653"><ele>74.5</ele><time>2026-05-03T11:16:48.018Z</time></trkpt><trkpt lat="42.2881069" lon="14.0343094"><ele>75.0</ele><time>2026-05-03T11:16:49.018Z</time></trkpt><trkpt lat="42.2883364" lon="14.0345562"><ele>75.0</ele><time>2026-05-03T11:16:50.018Z</time></trkpt><trkpt lat="42.2885691" lon="14.0348046"><ele>75.0</ele><time>2026-05-03T11:16:51.018Z</time></trkpt><trkpt lat="42.288803" lon="14.0350585"><ele>74.5</ele><time>2026-05-03T11:16:52.018Z</time></trkpt><trkpt lat="42.2890327" lon="14.0353082"><ele>74.0</ele><time>2026-05-03T11:16:53.018Z</time></trkpt><trkpt lat="42.2892458" lon="14.035539"><ele>74.0</ele><time>2026-05-03T11:16:54.018Z</time></trkpt><trkpt lat="42.2894484" lon="14.0357632"><ele>74.0</ele><time>2026-05-03T11:16:55.018Z</time></trkpt><trkpt lat="42.2896493" lon="14.0359884"><ele>74.5</ele><time>2026-05-03T11:16:56.018Z</time></trkpt><trkpt lat="42.2898548" lon="14.0362091"><ele>75.0</ele><time>2026-05-03T11:16:57.018Z</time></trkpt><trkpt lat="42.2900585" lon="14.0364339"><ele>82.5</ele><time>2026-05-03T11:16:58.018Z</time></trkpt><trkpt lat="42.2902687" lon="14.0366574"><ele>90.0</ele><time>2026-05-03T11:16:59.018Z</time></trkpt><trkpt lat="42.2904776" lon="14.0368786"><ele>83.0</ele><time>2026-05-03T11:17:00.018Z</time></trkpt><trkpt lat="42.2906741" lon="14.0370858"><ele>76.0</ele><time>2026-05-03T11:17:01.018Z</time></trkpt><trkpt lat="42.290858" lon="14.0372875"><ele>82.5</ele><time>2026-05-03T11:17:02.018Z</time></trkpt><trkpt lat="42.2910372" lon="14.0374818"><ele>89.0</ele><time>2026-05-03T11:17:03.018Z</time></trkpt><trkpt lat="42.2912254" lon="14.0376753"><ele>83.5</ele><time>2026-05-03T11:17:04.018Z</time></trkpt><trkpt lat="42.2914252" lon="14.037861"><ele>78.0</ele><time>2026-05-03T11:17:05.018Z</time></trkpt><trkpt lat="42.2916445" lon="14.0380293"><ele>78.0</ele><time>2026-05-03T11:17:06.018Z</time></trkpt><trkpt lat="42.2918762" lon="14.038191"><ele>78.0</ele><time>2026-05-03T11:17:07.018Z</time></trkpt><trkpt lat="42.2921134" lon="14.0383665"><ele>74.5</ele><time>2026-05-03T11:17:08.018Z</time></trkpt><trkpt lat="42.2923543" lon="14.0385361"><ele>71.0</ele><time>2026-05-03T11:17:09.018Z</time></trkpt><trkpt lat="42.2925974" lon="14.0387082"><ele>71.0</ele><time>2026-05-03T11:17:10.018Z</time></trkpt><trkpt lat="42.2930387" lon="14.039026"><ele>71.66666666666667</ele><time>2026-05-03T11:17:12.018Z</time></trkpt><trkpt lat="42.2932386" lon="14.039171"><ele>72.33333333333333</ele><time>2026-05-03T11:17:13.018Z</time></trkpt><trkpt lat="42.2934269" lon="14.0393087"><ele>73.0</ele><time>2026-05-03T11:17:14.018Z</time></trkpt><trkpt lat="42.2936019" lon="14.039432"><ele>73.0</ele><time>2026-05-03T11:17:15.018Z</time></trkpt><trkpt lat="42.2937702" lon="14.0395618"><ele>73.0</ele><time>2026-05-03T11:17:16.018Z</time></trkpt><trkpt lat="42.29392" lon="14.0396711"><ele>73.0</ele><time>2026-05-03T11:17:17.018Z</time></trkpt><trkpt lat="42.2940501" lon="14.0397707"><ele>73.0</ele><time>2026-05-03T11:17:18.019Z</time></trkpt><trkpt lat="42.2941656" lon="14.0398548"><ele>73.0</ele><time>2026-05-03T11:17:19.018Z</time></trkpt><trkpt lat="42.2942633" lon="14.0399233"><ele>73.0</ele><time>2026-05-03T11:17:20.018Z</time></trkpt><trkpt lat="42.2943443" lon="14.0399854"><ele>73.0</ele><time>2026-05-03T11:17:21.018Z</time></trkpt><trkpt lat="42.294406" lon="14.0400461"><ele>73.0</ele><time>2026-05-03T11:17:22.019Z</time></trkpt><trkpt lat="42.2944551" lon="14.0401243"><ele>73.0</ele><time>2026-05-03T11:17:23.018Z</time></trkpt><trkpt lat="42.2945067" lon="14.0401988"><ele>73.0</ele><time>2026-05-03T11:17:24.019Z</time></trkpt><trkpt lat="42.2945695" lon="14.0402527"><ele>73.0</ele><time>2026-05-03T11:17:25.018Z</time></trkpt><trkpt lat="42.2946498" lon="14.0402777"><ele>73.0</ele><time>2026-05-03T11:17:26.018Z</time></trkpt><trkpt lat="42.2947405" lon="14.0402799"><ele>73.0</ele><time>2026-05-03T11:17:27.018Z</time></trkpt><trkpt lat="42.2948393" lon="14.0403051"><ele>73.0</ele><time>2026-05-03T11:17:28.018Z</time></trkpt><trkpt lat="42.2949458" lon="14.0403491"><ele>73.0</ele><time>2026-05-03T11:17:29.018Z</time></trkpt><trkpt lat="42.2950672" lon="14.0404117"><ele>73.0</ele><time>2026-05-03T11:17:30.018Z</time></trkpt><trkpt lat="42.2951985" lon="14.0404933"><ele>73.0</ele><time>2026-05-03T11:17:31.018Z</time></trkpt><trkpt lat="42.2953479" lon="14.0405839"><ele>73.0</ele><time>2026-05-03T11:17:32.018Z</time></trkpt><trkpt lat="42.2955084" lon="14.0406839"><ele>73.0</ele><time>2026-05-03T11:17:33.018Z</time></trkpt><trkpt lat="42.2956794" lon="14.0407889"><ele>73.0</ele><time>2026-05-03T11:17:34.018Z</time></trkpt><trkpt lat="42.2958593" lon="14.0408992"><ele>73.0</ele><time>2026-05-03T11:17:35.018Z</time></trkpt><trkpt lat="42.2960414" lon="14.0410075"><ele>74.0</ele><time>2026-05-03T11:17:36.018Z</time></trkpt><trkpt lat="42.2962143" lon="14.0411135"><ele>75.0</ele><time>2026-05-03T11:17:37.018Z</time></trkpt><trkpt lat="42.2963819" lon="14.0412205"><ele>76.0</ele><time>2026-05-03T11:17:38.018Z</time></trkpt><trkpt lat="42.2965473" lon="14.0413313"><ele>77.0</ele><time>2026-05-03T11:17:39.018Z</time></trkpt><trkpt lat="42.2967103" lon="14.041446"><ele>78.0</ele><time>2026-05-03T11:17:40.018Z</time></trkpt><trkpt lat="42.2968637" lon="14.041575"><ele>79.0</ele><time>2026-05-03T11:17:41.018Z</time></trkpt><trkpt lat="42.297006" lon="14.0417331"><ele>79.0</ele><time>2026-05-03T11:17:42.018Z</time></trkpt><trkpt lat="42.2971303" lon="14.0419092"><ele>79.0</ele><time>2026-05-03T11:17:43.018Z</time></trkpt><trkpt lat="42.2972436" lon="14.0421075"><ele>79.0</ele><time>2026-05-03T11:17:44.018Z</time></trkpt><trkpt lat="42.2973409" lon="14.0423232"><ele>81.66666666666666</ele><time>2026-05-03T11:17:45.018Z</time></trkpt><trkpt lat="42.2974313" lon="14.0425481"><ele>84.33333333333333</ele><time>2026-05-03T11:17:46.018Z</time></trkpt><trkpt lat="42.2974976" lon="14.0427866"><ele>87.0</ele><time>2026-05-03T11:17:47.018Z</time></trkpt><trkpt lat="42.2975508" lon="14.0430263"><ele>87.0</ele><time>2026-05-03T11:17:48.018Z</time></trkpt><trkpt lat="42.2975962" lon="14.0432611"><ele>87.0</ele><time>2026-05-03T11:17:49.019Z</time></trkpt><trkpt lat="42.2976297" lon="14.043491"><ele>87.0</ele><time>2026-05-03T11:17:50.018Z</time></trkpt><trkpt lat="42.2976761" lon="14.0437213"><ele>87.0</ele><time>2026-05-03T11:17:51.018Z</time></trkpt><trkpt lat="42.297724" lon="14.0439455"><ele>87.0</ele><time>2026-05-03T11:17:52.018Z</time></trkpt><trkpt lat="42.2977748" lon="14.0441745"><ele>87.0</ele><time>2026-05-03T11:17:53.018Z</time></trkpt><trkpt lat="42.2978279" lon="14.0444016"><ele>87.0</ele><time>2026-05-03T11:17:54.018Z</time></trkpt><trkpt lat="42.2978847" lon="14.0446127"><ele>87.0</ele><time>2026-05-03T11:17:55.018Z</time></trkpt><trkpt lat="42.2979548" lon="14.0448141"><ele>87.0</ele><time>2026-05-03T11:17:56.018Z</time></trkpt><trkpt lat="42.298039" lon="14.0450117"><ele>83.0</ele><time>2026-05-03T11:17:57.018Z</time></trkpt><trkpt lat="42.2981281" lon="14.0452044"><ele>79.0</ele><time>2026-05-03T11:17:58.018Z</time></trkpt><trkpt lat="42.2982185" lon="14.0453993"><ele>75.0</ele><time>2026-05-03T11:17:59.018Z</time></trkpt><trkpt lat="42.2983099" lon="14.0455971"><ele>76.66666666666667</ele><time>2026-05-03T11:18:00.018Z</time></trkpt><trkpt lat="42.2984006" lon="14.0457961"><ele>78.33333333333334</ele><time>2026-05-03T11:18:01.018Z</time></trkpt><trkpt lat="42.2984959" lon="14.0459993"><ele>80.0</ele><time>2026-05-03T11:18:02.018Z</time></trkpt><trkpt lat="42.2985896" lon="14.046199"><ele>80.0</ele><time>2026-05-03T11:18:03.018Z</time></trkpt><trkpt lat="42.2986852" lon="14.0464005"><ele>80.0</ele><time>2026-05-03T11:18:04.018Z</time></trkpt><trkpt lat="42.298784" lon="14.0466013"><ele>80.0</ele><time>2026-05-03T11:18:05.018Z</time></trkpt><trkpt lat="42.2988818" lon="14.0468042"><ele>78.0</ele><time>2026-05-03T11:18:06.018Z</time></trkpt><trkpt lat="42.2989852" lon="14.04701"><ele>76.0</ele><time>2026-05-03T11:18:07.018Z</time></trkpt><trkpt lat="42.2990855" lon="14.0472195"><ele>74.0</ele><time>2026-05-03T11:18:08.018Z</time></trkpt><trkpt lat="42.2991814" lon="14.0474224"><ele>75.33333333333334</ele><time>2026-05-03T11:18:09.019Z</time></trkpt><trkpt lat="42.2992817" lon="14.0476209"><ele>76.66666666666667</ele><time>2026-05-03T11:18:10.018Z</time></trkpt><trkpt lat="42.2993886" lon="14.0478148"><ele>78.0</ele><time>2026-05-03T11:18:11.018Z</time></trkpt><trkpt lat="42.2994872" lon="14.0480131"><ele>78.0</ele><time>2026-05-03T11:18:12.018Z</time></trkpt><trkpt lat="42.299583" lon="14.048217"><ele>78.0</ele><time>2026-05-03T11:18:13.019Z</time></trkpt><trkpt lat="42.2996887" lon="14.0484206"><ele>78.0</ele><time>2026-05-03T11:18:14.018Z</time></trkpt><trkpt lat="42.2997951" lon="14.0486301"><ele>76.33333333333333</ele><time>2026-05-03T11:18:15.018Z</time></trkpt><trkpt lat="42.2999069" lon="14.0488425"><ele>74.66666666666666</ele><time>2026-05-03T11:18:16.018Z</time></trkpt><trkpt lat="42.3000217" lon="14.0490629"><ele>73.0</ele><time>2026-05-03T11:18:17.018Z</time></trkpt><trkpt lat="42.3001446" lon="14.0492785"><ele>73.0</ele><time>2026-05-03T11:18:18.019Z</time></trkpt><trkpt lat="42.3002834" lon="14.0494807"><ele>73.0</ele><time>2026-05-03T11:18:19.018Z</time></trkpt><trkpt lat="42.3004378" lon="14.049662"><ele>73.0</ele><time>2026-05-03T11:18:20.018Z</time></trkpt><trkpt lat="42.3006008" lon="14.0498361"><ele>72.0</ele><time>2026-05-03T11:18:21.018Z</time></trkpt><trkpt lat="42.3007653" lon="14.0499958"><ele>71.0</ele><time>2026-05-03T11:18:22.018Z</time></trkpt><trkpt lat="42.3009159" lon="14.050144"><ele>70.0</ele><time>2026-05-03T11:18:23.018Z</time></trkpt><trkpt lat="42.3010655" lon="14.0502882"><ele>70.0</ele><time>2026-05-03T11:18:24.018Z</time></trkpt><trkpt lat="42.3012028" lon="14.0504259"><ele>70.0</ele><time>2026-05-03T11:18:25.018Z</time></trkpt><trkpt lat="42.3013368" lon="14.0505649"><ele>70.0</ele><time>2026-05-03T11:18:26.019Z</time></trkpt><trkpt lat="42.3014763" lon="14.0507057"><ele>68.0</ele><time>2026-05-03T11:18:27.018Z</time></trkpt><trkpt lat="42.3016186" lon="14.0508472"><ele>66.0</ele><time>2026-05-03T11:18:28.018Z</time></trkpt><trkpt lat="42.3017671" lon="14.0509908"><ele>64.0</ele><time>2026-05-03T11:18:29.018Z</time></trkpt><trkpt lat="42.3019113" lon="14.0511284"><ele>64.0</ele><time>2026-05-03T11:18:30.018Z</time></trkpt><trkpt lat="42.3020556" lon="14.0512651"><ele>64.0</ele><time>2026-05-03T11:18:31.018Z</time></trkpt><trkpt lat="42.3021985" lon="14.0514024"><ele>64.0</ele><time>2026-05-03T11:18:32.018Z</time></trkpt><trkpt lat="42.3023384" lon="14.0515375"><ele>63.666666666666664</ele><time>2026-05-03T11:18:33.019Z</time></trkpt><trkpt lat="42.3024669" lon="14.0516663"><ele>63.33333333333333</ele><time>2026-05-03T11:18:34.018Z</time></trkpt><trkpt lat="42.3025916" lon="14.0517862"><ele>63.0</ele><time>2026-05-03T11:18:35.018Z</time></trkpt><trkpt lat="42.3027121" lon="14.0519002"><ele>63.0</ele><time>2026-05-03T11:18:36.018Z</time></trkpt><trkpt lat="42.3028295" lon="14.0520047"><ele>63.0</ele><time>2026-05-03T11:18:37.019Z</time></trkpt><trkpt lat="42.3029379" lon="14.0521074"><ele>63.0</ele><time>2026-05-03T11:18:38.019Z</time></trkpt><trkpt lat="42.3030381" lon="14.0522049"><ele>63.0</ele><time>2026-05-03T11:18:39.018Z</time></trkpt><trkpt lat="42.3031304" lon="14.0522971"><ele>63.0</ele><time>2026-05-03T11:18:40.018Z</time></trkpt><trkpt lat="42.303211" lon="14.0523794"><ele>63.0</ele><time>2026-05-03T11:18:41.018Z</time></trkpt><trkpt lat="42.3032872" lon="14.0524525"><ele>63.0</ele><time>2026-05-03T11:18:42.018Z</time></trkpt><trkpt lat="42.3033551" lon="14.0525164"><ele>63.0</ele><time>2026-05-03T11:18:43.018Z</time></trkpt><trkpt lat="42.3034139" lon="14.0525783"><ele>63.0</ele><time>2026-05-03T11:18:44.018Z</time></trkpt><trkpt lat="42.3034688" lon="14.0526345"><ele>63.0</ele><time>2026-05-03T11:18:45.018Z</time></trkpt><trkpt lat="42.3035553" lon="14.0527199"><ele>63.0</ele><time>2026-05-03T11:18:46.018Z</time></trkpt><trkpt lat="42.3036785" lon="14.0528321"><ele>63.0</ele><time>2026-05-03T11:18:47.019Z</time></trkpt><trkpt lat="42.3038228" lon="14.0529819"><ele>63.0</ele><time>2026-05-03T11:18:48.018Z</time></trkpt><trkpt lat="42.3039841" lon="14.0531532"><ele>62.33333333333333</ele><time>2026-05-03T11:18:49.018Z</time></trkpt><trkpt lat="42.304145" lon="14.0533204"><ele>61.666666666666664</ele><time>2026-05-03T11:18:50.018Z</time></trkpt><trkpt lat="42.3042923" lon="14.0534769"><ele>61.0</ele><time>2026-05-03T11:18:51.018Z</time></trkpt><trkpt lat="42.3044356" lon="14.0536207"><ele>61.0</ele><time>2026-05-03T11:18:52.018Z</time></trkpt><trkpt lat="42.3045839" lon="14.0537619"><ele>61.0</ele><time>2026-05-03T11:18:53.018Z</time></trkpt><trkpt lat="42.3047322" lon="14.0538967"><ele>61.0</ele><time>2026-05-03T11:18:54.018Z</time></trkpt><trkpt lat="42.3048917" lon="14.0540289"><ele>61.0</ele><time>2026-05-03T11:18:55.018Z</time></trkpt><trkpt lat="42.3050616" lon="14.05414"><ele>61.0</ele><time>2026-05-03T11:18:56.018Z</time></trkpt><trkpt lat="42.3052365" lon="14.0542515"><ele>61.0</ele><time>2026-05-03T11:18:57.018Z</time></trkpt><trkpt lat="42.3054154" lon="14.0543584"><ele>61.666666666666664</ele><time>2026-05-03T11:18:58.018Z</time></trkpt><trkpt lat="42.3055962" lon="14.0544608"><ele>62.33333333333333</ele><time>2026-05-03T11:18:59.018Z</time></trkpt><trkpt lat="42.3057792" lon="14.0545668"><ele>63.0</ele><time>2026-05-03T11:19:00.018Z</time></trkpt><trkpt lat="42.3059624" lon="14.0546751"><ele>63.0</ele><time>2026-05-03T11:19:01.019Z</time></trkpt><trkpt lat="42.306146" lon="14.0547832"><ele>63.0</ele><time>2026-05-03T11:19:02.018Z</time></trkpt><trkpt lat="42.3063326" lon="14.0548951"><ele>63.0</ele><time>2026-05-03T11:19:03.018Z</time></trkpt><trkpt lat="42.3065195" lon="14.0550007"><ele>62.5</ele><time>2026-05-03T11:19:04.018Z</time></trkpt><trkpt lat="42.3069003" lon="14.0552202"><ele>62.0</ele><time>2026-05-03T11:19:06.018Z</time></trkpt><trkpt lat="42.3072792" lon="14.0554449"><ele>62.0</ele><time>2026-05-03T11:19:08.018Z</time></trkpt><trkpt lat="42.3074711" lon="14.0555604"><ele>62.0</ele><time>2026-05-03T11:19:09.018Z</time></trkpt><trkpt lat="42.3076624" lon="14.0556795"><ele>62.0</ele><time>2026-05-03T11:19:10.018Z</time></trkpt><trkpt lat="42.3078585" lon="14.0557913"><ele>62.333333333333336</ele><time>2026-05-03T11:19:11.019Z</time></trkpt><trkpt lat="42.3080581" lon="14.0559027"><ele>62.66666666666667</ele><time>2026-05-03T11:19:12.018Z</time></trkpt><trkpt lat="42.3082555" lon="14.0560161"><ele>63.0</ele><time>2026-05-03T11:19:13.018Z</time></trkpt><trkpt lat="42.3084513" lon="14.056123"><ele>63.0</ele><time>2026-05-03T11:19:14.018Z</time></trkpt><trkpt lat="42.3086374" lon="14.0562465"><ele>63.0</ele><time>2026-05-03T11:19:15.018Z</time></trkpt><trkpt lat="42.3088175" lon="14.0563798"><ele>63.0</ele><time>2026-05-03T11:19:16.018Z</time></trkpt><trkpt lat="42.3089837" lon="14.0565333"><ele>63.33333333333333</ele><time>2026-05-03T11:19:17.018Z</time></trkpt><trkpt lat="42.3091518" lon="14.0567076"><ele>63.666666666666664</ele><time>2026-05-03T11:19:18.018Z</time></trkpt><trkpt lat="42.309306" lon="14.0569054"><ele>64.0</ele><time>2026-05-03T11:19:19.018Z</time></trkpt><trkpt lat="42.3094457" lon="14.0571313"><ele>64.0</ele><time>2026-05-03T11:19:20.018Z</time></trkpt><trkpt lat="42.3095777" lon="14.0573717"><ele>64.0</ele><time>2026-05-03T11:19:21.018Z</time></trkpt><trkpt lat="42.3097069" lon="14.0576131"><ele>64.0</ele><time>2026-05-03T11:19:22.018Z</time></trkpt><trkpt lat="42.3098376" lon="14.0578611"><ele>64.0</ele><time>2026-05-03T11:19:23.018Z</time></trkpt><trkpt lat="42.3099753" lon="14.0581006"><ele>64.0</ele><time>2026-05-03T11:19:24.018Z</time></trkpt><trkpt lat="42.3101135" lon="14.0583429"><ele>65.5</ele><time>2026-05-03T11:19:25.018Z</time></trkpt><trkpt lat="42.310248" lon="14.0585904"><ele>67.0</ele><time>2026-05-03T11:19:26.018Z</time></trkpt><trkpt lat="42.310379" lon="14.0588354"><ele>67.0</ele><time>2026-05-03T11:19:27.018Z</time></trkpt><trkpt lat="42.3105103" lon="14.0590813"><ele>67.0</ele><time>2026-05-03T11:19:28.018Z</time></trkpt><trkpt lat="42.3106402" lon="14.059317"><ele>67.0</ele><time>2026-05-03T11:19:29.018Z</time></trkpt><trkpt lat="42.3107659" lon="14.0595518"><ele>67.0</ele><time>2026-05-03T11:19:30.018Z</time></trkpt><trkpt lat="42.3108925" lon="14.059781"><ele>67.0</ele><time>2026-05-03T11:19:31.018Z</time></trkpt><trkpt lat="42.3110135" lon="14.0600114"><ele>67.0</ele><time>2026-05-03T11:19:32.018Z</time></trkpt><trkpt lat="42.3111315" lon="14.0602378"><ele>67.33333333333333</ele><time>2026-05-03T11:19:33.018Z</time></trkpt><trkpt lat="42.3112514" lon="14.0604559"><ele>67.66666666666667</ele><time>2026-05-03T11:19:34.018Z</time></trkpt><trkpt lat="42.3113701" lon="14.0606711"><ele>68.0</ele><time>2026-05-03T11:19:35.019Z</time></trkpt><trkpt lat="42.311493" lon="14.0608842"><ele>67.33333333333334</ele><time>2026-05-03T11:19:36.018Z</time></trkpt><trkpt lat="42.3116258" lon="14.0611071"><ele>66.66666666666667</ele><time>2026-05-03T11:19:37.018Z</time></trkpt><trkpt lat="42.3117613" lon="14.0613439"><ele>66.0</ele><time>2026-05-03T11:19:38.018Z</time></trkpt><trkpt lat="42.3118982" lon="14.0615879"><ele>65.0</ele><time>2026-05-03T11:19:39.018Z</time></trkpt><trkpt lat="42.3120365" lon="14.0618408"><ele>64.0</ele><time>2026-05-03T11:19:40.018Z</time></trkpt><trkpt lat="42.3121711" lon="14.0621012"><ele>63.5</ele><time>2026-05-03T11:19:41.018Z</time></trkpt><trkpt lat="42.3123107" lon="14.0623584"><ele>63.0</ele><time>2026-05-03T11:19:42.019Z</time></trkpt><trkpt lat="42.312448" lon="14.0626149"><ele>64.0</ele><time>2026-05-03T11:19:43.018Z</time></trkpt><trkpt lat="42.3125884" lon="14.0628663"><ele>65.0</ele><time>2026-05-03T11:19:44.018Z</time></trkpt><trkpt lat="42.3127288" lon="14.0631172"><ele>66.0</ele><time>2026-05-03T11:19:45.018Z</time></trkpt><trkpt lat="42.3128631" lon="14.0633698"><ele>67.0</ele><time>2026-05-03T11:19:46.018Z</time></trkpt><trkpt lat="42.3129895" lon="14.063627"><ele>66.66666666666666</ele><time>2026-05-03T11:19:47.018Z</time></trkpt><trkpt lat="42.313105" lon="14.0638894"><ele>66.33333333333333</ele><time>2026-05-03T11:19:48.018Z</time></trkpt><trkpt lat="42.313207" lon="14.0641572"><ele>66.0</ele><time>2026-05-03T11:19:49.018Z</time></trkpt><trkpt lat="42.3132951" lon="14.0644342"><ele>66.66666666666667</ele><time>2026-05-03T11:19:50.018Z</time></trkpt><trkpt lat="42.313378" lon="14.0647139"><ele>67.33333333333334</ele><time>2026-05-03T11:19:51.018Z</time></trkpt><trkpt lat="42.3134446" lon="14.0650001"><ele>68.0</ele><time>2026-05-03T11:19:52.018Z</time></trkpt><trkpt lat="42.3134967" lon="14.0652905"><ele>68.33333333333334</ele><time>2026-05-03T11:19:53.018Z</time></trkpt><trkpt lat="42.3135406" lon="14.0655819"><ele>68.66666666666667</ele><time>2026-05-03T11:19:54.019Z</time></trkpt><trkpt lat="42.313573" lon="14.0658748"><ele>69.0</ele><time>2026-05-03T11:19:55.018Z</time></trkpt><trkpt lat="42.3135982" lon="14.0661717"><ele>68.33333333333333</ele><time>2026-05-03T11:19:56.018Z</time></trkpt><trkpt lat="42.3136239" lon="14.0664683"><ele>67.66666666666666</ele><time>2026-05-03T11:19:57.018Z</time></trkpt><trkpt lat="42.3136493" lon="14.0667635"><ele>67.0</ele><time>2026-05-03T11:19:58.018Z</time></trkpt><trkpt lat="42.3136784" lon="14.0670569"><ele>67.0</ele><time>2026-05-03T11:19:59.018Z</time></trkpt><trkpt lat="42.3137063" lon="14.067349"><ele>67.0</ele><time>2026-05-03T11:20:00.018Z</time></trkpt><trkpt lat="42.3137333" lon="14.0676393"><ele>67.0</ele><time>2026-05-03T11:20:01.018Z</time></trkpt><trkpt lat="42.3137572" lon="14.0679266"><ele>67.0</ele><time>2026-05-03T11:20:02.018Z</time></trkpt><trkpt lat="42.3137826" lon="14.0682111"><ele>67.0</ele><time>2026-05-03T11:20:03.018Z</time></trkpt><trkpt lat="42.3138091" lon="14.0684933"><ele>67.0</ele><time>2026-05-03T11:20:04.018Z</time></trkpt><trkpt lat="42.3138382" lon="14.0687737"><ele>67.0</ele><time>2026-05-03T11:20:05.018Z</time></trkpt><trkpt lat="42.3138662" lon="14.069058"><ele>67.0</ele><time>2026-05-03T11:20:06.018Z</time></trkpt><trkpt lat="42.3138946" lon="14.0693445"><ele>67.0</ele><time>2026-05-03T11:20:07.018Z</time></trkpt><trkpt lat="42.3139216" lon="14.0696307"><ele>66.66666666666666</ele><time>2026-05-03T11:20:08.018Z</time></trkpt><trkpt lat="42.3139482" lon="14.0699175"><ele>66.33333333333333</ele><time>2026-05-03T11:20:09.018Z</time></trkpt><trkpt lat="42.3139731" lon="14.0702083"><ele>66.0</ele><time>2026-05-03T11:20:10.018Z</time></trkpt><trkpt lat="42.3140015" lon="14.0705003"><ele>66.33333333333333</ele><time>2026-05-03T11:20:11.018Z</time></trkpt><trkpt lat="42.314029" lon="14.0707939"><ele>66.66666666666666</ele><time>2026-05-03T11:20:12.018Z</time></trkpt><trkpt lat="42.3140555" lon="14.0710898"><ele>67.0</ele><time>2026-05-03T11:20:13.018Z</time></trkpt><trkpt lat="42.3140833" lon="14.0713876"><ele>67.66666666666666</ele><time>2026-05-03T11:20:14.018Z</time></trkpt><trkpt lat="42.31411" lon="14.0716868"><ele>68.33333333333333</ele><time>2026-05-03T11:20:15.018Z</time></trkpt><trkpt lat="42.3141365" lon="14.0719877"><ele>69.0</ele><time>2026-05-03T11:20:16.018Z</time></trkpt><trkpt lat="42.3141598" lon="14.0722924"><ele>68.66666666666667</ele><time>2026-05-03T11:20:17.018Z</time></trkpt><trkpt lat="42.3141877" lon="14.0725965"><ele>68.33333333333334</ele><time>2026-05-03T11:20:18.018Z</time></trkpt><trkpt lat="42.3142188" lon="14.0728841"><ele>68.0</ele><time>2026-05-03T11:20:19.018Z</time></trkpt><trkpt lat="42.3142473" lon="14.0731645"><ele>67.66666666666667</ele><time>2026-05-03T11:20:20.018Z</time></trkpt><trkpt lat="42.3142702" lon="14.0734256"><ele>67.33333333333333</ele><time>2026-05-03T11:20:21.018Z</time></trkpt><trkpt lat="42.3142971" lon="14.0736767"><ele>67.0</ele><time>2026-05-03T11:20:22.018Z</time></trkpt><trkpt lat="42.3143208" lon="14.0739063"><ele>67.25</ele><time>2026-05-03T11:20:23.017Z</time></trkpt><trkpt lat="42.3143418" lon="14.074112"><ele>67.5</ele><time>2026-05-03T11:20:24.019Z</time></trkpt><trkpt lat="42.3143714" lon="14.0742939"><ele>67.75</ele><time>2026-05-03T11:20:25.018Z</time></trkpt><trkpt lat="42.3144127" lon="14.0744538"><ele>68.0</ele><time>2026-05-03T11:20:26.018Z</time></trkpt><trkpt lat="42.3144661" lon="14.0745921"><ele>68.0</ele><time>2026-05-03T11:20:27.018Z</time></trkpt><trkpt lat="42.3145226" lon="14.0747193"><ele>68.0</ele><time>2026-05-03T11:20:28.018Z</time></trkpt><trkpt lat="42.3145776" lon="14.0748235"><ele>68.0</ele><time>2026-05-03T11:20:29.019Z</time></trkpt><trkpt lat="42.3146213" lon="14.0749087"><ele>68.0</ele><time>2026-05-03T11:20:30.018Z</time></trkpt><trkpt lat="42.314636" lon="14.0750788"><ele>68.0</ele><time>2026-05-03T11:20:32.018Z</time></trkpt><trkpt lat="42.3146295" lon="14.0751786"><ele>68.0</ele><time>2026-05-03T11:20:33.018Z</time></trkpt><trkpt lat="42.3146453" lon="14.0752992"><ele>68.0</ele><time>2026-05-03T11:20:34.019Z</time></trkpt><trkpt lat="42.3146872" lon="14.0754314"><ele>68.0</ele><time>2026-05-03T11:20:35.018Z</time></trkpt><trkpt lat="42.3147495" lon="14.0755751"><ele>68.0</ele><time>2026-05-03T11:20:36.018Z</time></trkpt><trkpt lat="42.3148218" lon="14.0757289"><ele>68.25</ele><time>2026-05-03T11:20:37.018Z</time></trkpt><trkpt lat="42.3148947" lon="14.0758779"><ele>68.5</ele><time>2026-05-03T11:20:38.018Z</time></trkpt><trkpt lat="42.3149649" lon="14.0760146"><ele>68.75</ele><time>2026-05-03T11:20:39.018Z</time></trkpt><trkpt lat="42.3150306" lon="14.0761425"><ele>69.0</ele><time>2026-05-03T11:20:40.018Z</time></trkpt><trkpt lat="42.315092" lon="14.0762663"><ele>69.0</ele><time>2026-05-03T11:20:41.018Z</time></trkpt><trkpt lat="42.3151484" lon="14.0763839"><ele>69.0</ele><time>2026-05-03T11:20:42.018Z</time></trkpt><trkpt lat="42.3152077" lon="14.0765044"><ele>69.0</ele><time>2026-05-03T11:20:43.018Z</time></trkpt><trkpt lat="42.3152651" lon="14.076632"><ele>69.0</ele><time>2026-05-03T11:20:44.018Z</time></trkpt><trkpt lat="42.3153275" lon="14.0767613"><ele>69.0</ele><time>2026-05-03T11:20:45.018Z</time></trkpt><trkpt lat="42.3153908" lon="14.0768922"><ele>69.0</ele><time>2026-05-03T11:20:46.018Z</time></trkpt><trkpt lat="42.3154556" lon="14.0770253"><ele>69.0</ele><time>2026-05-03T11:20:47.018Z</time></trkpt><trkpt lat="42.315523" lon="14.0771628"><ele>69.0</ele><time>2026-05-03T11:20:48.018Z</time></trkpt><trkpt lat="42.315591" lon="14.0773013"><ele>69.0</ele><time>2026-05-03T11:20:49.018Z</time></trkpt><trkpt lat="42.315659" lon="14.0774457"><ele>68.75</ele><time>2026-05-03T11:20:50.018Z</time></trkpt><trkpt lat="42.3157286" lon="14.0775926"><ele>68.5</ele><time>2026-05-03T11:20:51.018Z</time></trkpt><trkpt lat="42.3158056" lon="14.0777422"><ele>68.25</ele><time>2026-05-03T11:20:52.018Z</time></trkpt><trkpt lat="42.3158859" lon="14.0779021"><ele>68.0</ele><time>2026-05-03T11:20:53.018Z</time></trkpt><trkpt lat="42.3159696" lon="14.078068"><ele>68.0</ele><time>2026-05-03T11:20:54.018Z</time></trkpt><trkpt lat="42.3160551" lon="14.0782397"><ele>68.0</ele><time>2026-05-03T11:20:55.018Z</time></trkpt><trkpt lat="42.3161451" lon="14.078422"><ele>68.0</ele><time>2026-05-03T11:20:56.018Z</time></trkpt><trkpt lat="42.3162341" lon="14.0786095"><ele>68.0</ele><time>2026-05-03T11:20:57.019Z</time></trkpt><trkpt lat="42.3163247" lon="14.0788055"><ele>68.0</ele><time>2026-05-03T11:20:58.018Z</time></trkpt><trkpt lat="42.3164117" lon="14.0789978"><ele>68.0</ele><time>2026-05-03T11:20:59.018Z</time></trkpt><trkpt lat="42.3164986" lon="14.0791835"><ele>67.75</ele><time>2026-05-03T11:21:00.018Z</time></trkpt><trkpt lat="42.3165779" lon="14.0793579"><ele>67.5</ele><time>2026-05-03T11:21:01.018Z</time></trkpt><trkpt lat="42.3166513" lon="14.0795083"><ele>67.25</ele><time>2026-05-03T11:21:02.019Z</time></trkpt><trkpt lat="42.3167154" lon="14.0796421"><ele>67.0</ele><time>2026-05-03T11:21:03.019Z</time></trkpt><trkpt lat="42.3167791" lon="14.0797782"><ele>67.0</ele><time>2026-05-03T11:21:04.018Z</time></trkpt><trkpt lat="42.3168394" lon="14.0799106"><ele>67.0</ele><time>2026-05-03T11:21:05.018Z</time></trkpt><trkpt lat="42.3169027" lon="14.0800382"><ele>67.0</ele><time>2026-05-03T11:21:06.018Z</time></trkpt><trkpt lat="42.3169626" lon="14.0801586"><ele>67.0</ele><time>2026-05-03T11:21:07.018Z</time></trkpt><trkpt lat="42.3170223" lon="14.0802811"><ele>67.0</ele><time>2026-05-03T11:21:08.018Z</time></trkpt><trkpt lat="42.3170805" lon="14.0803993"><ele>67.0</ele><time>2026-05-03T11:21:09.019Z</time></trkpt><trkpt lat="42.3171341" lon="14.0805176"><ele>67.0</ele><time>2026-05-03T11:21:10.018Z</time></trkpt><trkpt lat="42.3171879" lon="14.0806287"><ele>67.0</ele><time>2026-05-03T11:21:11.018Z</time></trkpt><trkpt lat="42.3172349" lon="14.0807345"><ele>67.0</ele><time>2026-05-03T11:21:12.018Z</time></trkpt><trkpt lat="42.317281" lon="14.0808276"><ele>67.0</ele><time>2026-05-03T11:21:13.018Z</time></trkpt><trkpt lat="42.3173228" lon="14.0809087"><ele>67.0</ele><time>2026-05-03T11:21:14.018Z</time></trkpt><trkpt lat="42.3173651" lon="14.0809863"><ele>66.66666666666666</ele><time>2026-05-03T11:21:15.018Z</time></trkpt><trkpt lat="42.3174023" lon="14.0810667"><ele>66.33333333333333</ele><time>2026-05-03T11:21:16.018Z</time></trkpt><trkpt lat="42.317441" lon="14.0811459"><ele>66.0</ele><time>2026-05-03T11:21:17.018Z</time></trkpt><trkpt lat="42.3174808" lon="14.0812276"><ele>65.66666666666667</ele><time>2026-05-03T11:21:18.019Z</time></trkpt><trkpt lat="42.3175261" lon="14.0813218"><ele>65.33333333333334</ele><time>2026-05-03T11:21:19.018Z</time></trkpt><trkpt lat="42.3175725" lon="14.0814187"><ele>65.0</ele><time>2026-05-03T11:21:20.018Z</time></trkpt><trkpt lat="42.3176252" lon="14.0815264"><ele>64.8</ele><time>2026-05-03T11:21:21.018Z</time></trkpt><trkpt lat="42.3176684" lon="14.0816413"><ele>64.6</ele><time>2026-05-03T11:21:22.018Z</time></trkpt><trkpt lat="42.3177206" lon="14.0817577"><ele>64.4</ele><time>2026-05-03T11:21:23.018Z</time></trkpt><trkpt lat="42.3177755" lon="14.0818741"><ele>64.2</ele><time>2026-05-03T11:21:24.018Z</time></trkpt><trkpt lat="42.3178349" lon="14.0819981"><ele>64.0</ele><time>2026-05-03T11:21:25.018Z</time></trkpt><trkpt lat="42.3178985" lon="14.0821281"><ele>64.0</ele><time>2026-05-03T11:21:26.018Z</time></trkpt><trkpt lat="42.3179702" lon="14.0822661"><ele>64.0</ele><time>2026-05-03T11:21:27.019Z</time></trkpt><trkpt lat="42.3180425" lon="14.0824246"><ele>64.0</ele><time>2026-05-03T11:21:28.018Z</time></trkpt><trkpt lat="42.3181207" lon="14.0825856"><ele>64.0</ele><time>2026-05-03T11:21:29.018Z</time></trkpt><trkpt lat="42.3182016" lon="14.0827561"><ele>64.0</ele><time>2026-05-03T11:21:30.018Z</time></trkpt><trkpt lat="42.3182893" lon="14.0829324"><ele>64.0</ele><time>2026-05-03T11:21:31.017Z</time></trkpt><trkpt lat="42.3183719" lon="14.0831044"><ele>64.0</ele><time>2026-05-03T11:21:32.019Z</time></trkpt><trkpt lat="42.3184518" lon="14.0832724"><ele>63.75</ele><time>2026-05-03T11:21:33.018Z</time></trkpt><trkpt lat="42.3185277" lon="14.0834352"><ele>63.5</ele><time>2026-05-03T11:21:34.018Z</time></trkpt><trkpt lat="42.318595" lon="14.0835979"><ele>63.25</ele><time>2026-05-03T11:21:35.018Z</time></trkpt><trkpt lat="42.3186708" lon="14.083759"><ele>63.0</ele><time>2026-05-03T11:21:36.019Z</time></trkpt><trkpt lat="42.3187465" lon="14.0839199"><ele>63.0</ele><time>2026-05-03T11:21:37.018Z</time></trkpt><trkpt lat="42.318826" lon="14.0840889"><ele>63.0</ele><time>2026-05-03T11:21:38.018Z</time></trkpt><trkpt lat="42.3189086" lon="14.0842523"><ele>63.0</ele><time>2026-05-03T11:21:39.018Z</time></trkpt><trkpt lat="42.3189858" lon="14.0844215"><ele>63.0</ele><time>2026-05-03T11:21:40.018Z</time></trkpt><trkpt lat="42.3190686" lon="14.0845936"><ele>63.0</ele><time>2026-05-03T11:21:41.018Z</time></trkpt><trkpt lat="42.3191525" lon="14.0847597"><ele>63.0</ele><time>2026-05-03T11:21:42.018Z</time></trkpt><trkpt lat="42.319234" lon="14.0849239"><ele>63.0</ele><time>2026-05-03T11:21:43.018Z</time></trkpt><trkpt lat="42.3193137" lon="14.0850883"><ele>63.0</ele><time>2026-05-03T11:21:44.018Z</time></trkpt><trkpt lat="42.3193925" lon="14.0852562"><ele>62.75</ele><time>2026-05-03T11:21:45.018Z</time></trkpt><trkpt lat="42.3194738" lon="14.0854253"><ele>62.5</ele><time>2026-05-03T11:21:46.018Z</time></trkpt><trkpt lat="42.3195549" lon="14.0855943"><ele>62.25</ele><time>2026-05-03T11:21:47.018Z</time></trkpt><trkpt lat="42.3196375" lon="14.0857637"><ele>62.0</ele><time>2026-05-03T11:21:48.018Z</time></trkpt><trkpt lat="42.3197196" lon="14.0859342"><ele>61.75</ele><time>2026-05-03T11:21:49.018Z</time></trkpt><trkpt lat="42.3197987" lon="14.0861035"><ele>61.5</ele><time>2026-05-03T11:21:50.018Z</time></trkpt><trkpt lat="42.3198787" lon="14.0862691"><ele>61.25</ele><time>2026-05-03T11:21:51.018Z</time></trkpt><trkpt lat="42.3199597" lon="14.0864352"><ele>61.0</ele><time>2026-05-03T11:21:52.018Z</time></trkpt><trkpt lat="42.3200389" lon="14.0866032"><ele>61.0</ele><time>2026-05-03T11:21:53.018Z</time></trkpt><trkpt lat="42.3201166" lon="14.086768"><ele>61.0</ele><time>2026-05-03T11:21:54.018Z</time></trkpt><trkpt lat="42.3201955" lon="14.0869248"><ele>61.0</ele><time>2026-05-03T11:21:55.018Z</time></trkpt><trkpt lat="42.3202771" lon="14.0870802"><ele>61.0</ele><time>2026-05-03T11:21:56.018Z</time></trkpt><trkpt lat="42.3203452" lon="14.0872307"><ele>61.0</ele><time>2026-05-03T11:21:57.018Z</time></trkpt><trkpt lat="42.3204103" lon="14.0873588"><ele>60.99999999999999</ele><time>2026-05-03T11:21:58.018Z</time></trkpt><trkpt lat="42.3204686" lon="14.0874826"><ele>60.99999999999999</ele><time>2026-05-03T11:21:59.019Z</time></trkpt><trkpt lat="42.3205234" lon="14.0876061"><ele>61.0</ele><time>2026-05-03T11:22:00.018Z</time></trkpt><trkpt lat="42.3205795" lon="14.0877201"><ele>61.0</ele><time>2026-05-03T11:22:01.018Z</time></trkpt><trkpt lat="42.320633" lon="14.0878438"><ele>60.75</ele><time>2026-05-03T11:22:02.018Z</time></trkpt><trkpt lat="42.3206907" lon="14.0879686"><ele>60.5</ele><time>2026-05-03T11:22:03.018Z</time></trkpt><trkpt lat="42.3207498" lon="14.0880994"><ele>60.25</ele><time>2026-05-03T11:22:04.018Z</time></trkpt><trkpt lat="42.3208143" lon="14.0882386"><ele>60.0</ele><time>2026-05-03T11:22:05.018Z</time></trkpt><trkpt lat="42.3208842" lon="14.0883817"><ele>60.0</ele><time>2026-05-03T11:22:06.018Z</time></trkpt><trkpt lat="42.3209541" lon="14.0885185"><ele>60.0</ele><time>2026-05-03T11:22:07.018Z</time></trkpt><trkpt lat="42.3210202" lon="14.0886545"><ele>60.0</ele><time>2026-05-03T11:22:08.018Z</time></trkpt><trkpt lat="42.3210876" lon="14.0887877"><ele>60.0</ele><time>2026-05-03T11:22:09.018Z</time></trkpt><trkpt lat="42.321151" lon="14.0889199"><ele>60.0</ele><time>2026-05-03T11:22:10.018Z</time></trkpt><trkpt lat="42.3212136" lon="14.0890566"><ele>60.0</ele><time>2026-05-03T11:22:11.019Z</time></trkpt><trkpt lat="42.3212762" lon="14.0891962"><ele>60.0</ele><time>2026-05-03T11:22:12.018Z</time></trkpt><trkpt lat="42.321338" lon="14.0893249"><ele>60.0</ele><time>2026-05-03T11:22:13.017Z</time></trkpt><trkpt lat="42.3213946" lon="14.0894434"><ele>59.8</ele><time>2026-05-03T11:22:14.018Z</time></trkpt><trkpt lat="42.3214502" lon="14.0895621"><ele>59.6</ele><time>2026-05-03T11:22:15.018Z</time></trkpt><trkpt lat="42.3215047" lon="14.0896754"><ele>59.400000000000006</ele><time>2026-05-03T11:22:16.018Z</time></trkpt><trkpt lat="42.3215569" lon="14.0897876"><ele>59.2</ele><time>2026-05-03T11:22:17.018Z</time></trkpt><trkpt lat="42.3216107" lon="14.0898939"><ele>59.0</ele><time>2026-05-03T11:22:18.018Z</time></trkpt><trkpt lat="42.3216607" lon="14.0900005"><ele>58.800000000000004</ele><time>2026-05-03T11:22:19.018Z</time></trkpt><trkpt lat="42.3217139" lon="14.0901139"><ele>58.60000000000001</ele><time>2026-05-03T11:22:20.019Z</time></trkpt><trkpt lat="42.3217693" lon="14.0902248"><ele>58.4</ele><time>2026-05-03T11:22:21.018Z</time></trkpt><trkpt lat="42.3218282" lon="14.0903389"><ele>58.2</ele><time>2026-05-03T11:22:22.018Z</time></trkpt><trkpt lat="42.3218858" lon="14.090458"><ele>58.0</ele><time>2026-05-03T11:22:23.018Z</time></trkpt><trkpt lat="42.3219477" lon="14.09058"><ele>58.0</ele><time>2026-05-03T11:22:24.018Z</time></trkpt><trkpt lat="42.3220064" lon="14.0906967"><ele>58.0</ele><time>2026-05-03T11:22:25.018Z</time></trkpt><trkpt lat="42.3220635" lon="14.0908095"><ele>58.0</ele><time>2026-05-03T11:22:26.018Z</time></trkpt><trkpt lat="42.3221195" lon="14.0909245"><ele>58.0</ele><time>2026-05-03T11:22:27.018Z</time></trkpt><trkpt lat="42.3221724" lon="14.0910387"><ele>58.0</ele><time>2026-05-03T11:22:28.018Z</time></trkpt><trkpt lat="42.3222244" lon="14.0911493"><ele>58.2</ele><time>2026-05-03T11:22:29.018Z</time></trkpt><trkpt lat="42.3222719" lon="14.0912499"><ele>58.4</ele><time>2026-05-03T11:22:30.018Z</time></trkpt><trkpt lat="42.322316" lon="14.0913488"><ele>58.60000000000001</ele><time>2026-05-03T11:22:31.018Z</time></trkpt><trkpt lat="42.3223719" lon="14.0914593"><ele>58.800000000000004</ele><time>2026-05-03T11:22:32.018Z</time></trkpt><trkpt lat="42.3224275" lon="14.0915737"><ele>59.0</ele><time>2026-05-03T11:22:33.018Z</time></trkpt><trkpt lat="42.3224886" lon="14.0916952"><ele>59.0</ele><time>2026-05-03T11:22:34.018Z</time></trkpt><trkpt lat="42.3225563" lon="14.0918263"><ele>59.0</ele><time>2026-05-03T11:22:35.018Z</time></trkpt><trkpt lat="42.3226233" lon="14.091967"><ele>59.0</ele><time>2026-05-03T11:22:36.018Z</time></trkpt><trkpt lat="42.3226895" lon="14.0921164"><ele>59.0</ele><time>2026-05-03T11:22:37.018Z</time></trkpt><trkpt lat="42.3227593" lon="14.0922729"><ele>58.75</ele><time>2026-05-03T11:22:38.018Z</time></trkpt><trkpt lat="42.3228311" lon="14.0924361"><ele>58.5</ele><time>2026-05-03T11:22:39.018Z</time></trkpt><trkpt lat="42.322905" lon="14.092597"><ele>58.25</ele><time>2026-05-03T11:22:40.018Z</time></trkpt><trkpt lat="42.3229822" lon="14.0927601"><ele>58.0</ele><time>2026-05-03T11:22:41.018Z</time></trkpt><trkpt lat="42.3230589" lon="14.0929265"><ele>58.0</ele><time>2026-05-03T11:22:42.018Z</time></trkpt><trkpt lat="42.3231373" lon="14.0930976"><ele>58.0</ele><time>2026-05-03T11:22:43.018Z</time></trkpt><trkpt lat="42.3232141" lon="14.0932702"><ele>58.0</ele><time>2026-05-03T11:22:44.018Z</time></trkpt><trkpt lat="42.3232959" lon="14.0934401"><ele>58.0</ele><time>2026-05-03T11:22:45.018Z</time></trkpt><trkpt lat="42.3233768" lon="14.0936089"><ele>58.0</ele><time>2026-05-03T11:22:46.018Z</time></trkpt><trkpt lat="42.323456" lon="14.0937833"><ele>58.0</ele><time>2026-05-03T11:22:47.019Z</time></trkpt><trkpt lat="42.3235289" lon="14.0939639"><ele>58.0</ele><time>2026-05-03T11:22:48.018Z</time></trkpt><trkpt lat="42.3235926" lon="14.0941546"><ele>58.0</ele><time>2026-05-03T11:22:49.019Z</time></trkpt><trkpt lat="42.3236475" lon="14.0943516"><ele>58.0</ele><time>2026-05-03T11:22:50.019Z</time></trkpt><trkpt lat="42.3236943" lon="14.0945505"><ele>58.0</ele><time>2026-05-03T11:22:51.018Z</time></trkpt><trkpt lat="42.3237353" lon="14.0947482"><ele>58.25</ele><time>2026-05-03T11:22:52.018Z</time></trkpt><trkpt lat="42.3237722" lon="14.0949435"><ele>58.5</ele><time>2026-05-03T11:22:53.018Z</time></trkpt><trkpt lat="42.3238116" lon="14.0951343"><ele>58.75</ele><time>2026-05-03T11:22:54.018Z</time></trkpt><trkpt lat="42.3238518" lon="14.0953168"><ele>59.0</ele><time>2026-05-03T11:22:55.018Z</time></trkpt><trkpt lat="42.3238909" lon="14.095498"><ele>58.75</ele><time>2026-05-03T11:22:56.018Z</time></trkpt><trkpt lat="42.3239292" lon="14.0956764"><ele>58.5</ele><time>2026-05-03T11:22:57.018Z</time></trkpt><trkpt lat="42.3239656" lon="14.0958492"><ele>58.25</ele><time>2026-05-03T11:22:58.019Z</time></trkpt><trkpt lat="42.3240004" lon="14.0960267"><ele>58.0</ele><time>2026-05-03T11:22:59.018Z</time></trkpt><trkpt lat="42.3240312" lon="14.0961993"><ele>58.0</ele><time>2026-05-03T11:23:00.018Z</time></trkpt><trkpt lat="42.3240654" lon="14.0963757"><ele>58.0</ele><time>2026-05-03T11:23:01.018Z</time></trkpt><trkpt lat="42.3241003" lon="14.0965489"><ele>58.0</ele><time>2026-05-03T11:23:02.018Z</time></trkpt><trkpt lat="42.3241379" lon="14.0967212"><ele>58.0</ele><time>2026-05-03T11:23:03.018Z</time></trkpt><trkpt lat="42.324178" lon="14.0968957"><ele>58.0</ele><time>2026-05-03T11:23:04.018Z</time></trkpt><trkpt lat="42.3242154" lon="14.0970704"><ele>58.0</ele><time>2026-05-03T11:23:05.018Z</time></trkpt><trkpt lat="42.324256" lon="14.0972442"><ele>58.0</ele><time>2026-05-03T11:23:06.019Z</time></trkpt><trkpt lat="42.3242928" lon="14.0974173"><ele>58.0</ele><time>2026-05-03T11:23:07.018Z</time></trkpt><trkpt lat="42.3243305" lon="14.0975928"><ele>57.75</ele><time>2026-05-03T11:23:08.018Z</time></trkpt><trkpt lat="42.3243758" lon="14.0977644"><ele>57.5</ele><time>2026-05-03T11:23:09.018Z</time></trkpt><trkpt lat="42.3244301" lon="14.0979266"><ele>57.25</ele><time>2026-05-03T11:23:10.018Z</time></trkpt><trkpt lat="42.3245009" lon="14.0980865"><ele>57.0</ele><time>2026-05-03T11:23:11.018Z</time></trkpt><trkpt lat="42.3245797" lon="14.0982365"><ele>57.75</ele><time>2026-05-03T11:23:12.018Z</time></trkpt><trkpt lat="42.3246676" lon="14.0983889"><ele>58.5</ele><time>2026-05-03T11:23:13.018Z</time></trkpt><trkpt lat="42.3247605" lon="14.0985387"><ele>59.25</ele><time>2026-05-03T11:23:14.018Z</time></trkpt><trkpt lat="42.324855" lon="14.0986885"><ele>60.0</ele><time>2026-05-03T11:23:15.018Z</time></trkpt><trkpt lat="42.3249515" lon="14.0988367"><ele>59.0</ele><time>2026-05-03T11:23:16.018Z</time></trkpt><trkpt lat="42.3250479" lon="14.0989829"><ele>58.0</ele><time>2026-05-03T11:23:17.018Z</time></trkpt><trkpt lat="42.3251408" lon="14.0991297"><ele>57.0</ele><time>2026-05-03T11:23:18.018Z</time></trkpt><trkpt lat="42.325231" lon="14.0992759"><ele>56.0</ele><time>2026-05-03T11:23:19.018Z</time></trkpt><trkpt lat="42.3253203" lon="14.0994304"><ele>56.0</ele><time>2026-05-03T11:23:20.018Z</time></trkpt><trkpt lat="42.3254108" lon="14.0995736"><ele>56.0</ele><time>2026-05-03T11:23:21.018Z</time></trkpt><trkpt lat="42.3255078" lon="14.0997233"><ele>56.0</ele><time>2026-05-03T11:23:22.018Z</time></trkpt><trkpt lat="42.3255983" lon="14.099876"><ele>56.0</ele><time>2026-05-03T11:23:23.018Z</time></trkpt><trkpt lat="42.3256876" lon="14.1000278"><ele>55.25</ele><time>2026-05-03T11:23:24.018Z</time></trkpt><trkpt lat="42.3257809" lon="14.1001703"><ele>54.5</ele><time>2026-05-03T11:23:25.019Z</time></trkpt><trkpt lat="42.3258702" lon="14.1003025"><ele>53.75</ele><time>2026-05-03T11:23:26.018Z</time></trkpt><trkpt lat="42.3259489" lon="14.1004209"><ele>53.0</ele><time>2026-05-03T11:23:27.018Z</time></trkpt><trkpt lat="42.3260119" lon="14.100523"><ele>53.00000000000001</ele><time>2026-05-03T11:23:28.018Z</time></trkpt><trkpt lat="42.3260603" lon="14.1006054"><ele>53.0</ele><time>2026-05-03T11:23:29.018Z</time></trkpt><trkpt lat="42.3260953" lon="14.1006792"><ele>53.0</ele><time>2026-05-03T11:23:30.018Z</time></trkpt><trkpt lat="42.3261486" lon="14.1008246"><ele>53.0</ele><time>2026-05-03T11:23:32.018Z</time></trkpt><trkpt lat="42.3261642" lon="14.1009107"><ele>53.00000000000001</ele><time>2026-05-03T11:23:33.018Z</time></trkpt><trkpt lat="42.3261731" lon="14.1010024"><ele>53.0</ele><time>2026-05-03T11:23:34.018Z</time></trkpt><trkpt lat="42.3261815" lon="14.1010876"><ele>53.333333333333336</ele><time>2026-05-03T11:23:35.018Z</time></trkpt><trkpt lat="42.3262494" lon="14.1012088"><ele>53.66666666666667</ele><time>2026-05-03T11:23:37.018Z</time></trkpt><trkpt lat="42.326311" lon="14.1012443"><ele>54.0</ele><time>2026-05-03T11:23:38.018Z</time></trkpt><trkpt lat="42.3263817" lon="14.1012644"><ele>54.33333333333333</ele><time>2026-05-03T11:23:39.018Z</time></trkpt><trkpt lat="42.3264433" lon="14.1012888"><ele>54.666666666666664</ele><time>2026-05-03T11:23:40.018Z</time></trkpt><trkpt lat="42.3264978" lon="14.1013351"><ele>55.0</ele><time>2026-05-03T11:23:41.018Z</time></trkpt><trkpt lat="42.3265526" lon="14.1014015"><ele>55.0</ele><time>2026-05-03T11:23:42.018Z</time></trkpt><trkpt lat="42.3266091" lon="14.1014821"><ele>55.0</ele><time>2026-05-03T11:23:43.018Z</time></trkpt><trkpt lat="42.326667" lon="14.1015728"><ele>55.0</ele><time>2026-05-03T11:23:44.018Z</time></trkpt><trkpt lat="42.3267332" lon="14.1016725"><ele>55.0</ele><time>2026-05-03T11:23:45.018Z</time></trkpt><trkpt lat="42.3268053" lon="14.101783"><ele>55.0</ele><time>2026-05-03T11:23:46.019Z</time></trkpt><trkpt lat="42.3268775" lon="14.1019015"><ele>55.0</ele><time>2026-05-03T11:23:47.018Z</time></trkpt><trkpt lat="42.3269518" lon="14.1020268"><ele>55.0</ele><time>2026-05-03T11:23:48.018Z</time></trkpt><trkpt lat="42.3270266" lon="14.10216"><ele>55.0</ele><time>2026-05-03T11:23:49.018Z</time></trkpt><trkpt lat="42.3270991" lon="14.1023024"><ele>55.0</ele><time>2026-05-03T11:23:50.018Z</time></trkpt><trkpt lat="42.327165" lon="14.1024537"><ele>55.5</ele><time>2026-05-03T11:23:51.018Z</time></trkpt><trkpt lat="42.3272232" lon="14.1026078"><ele>56.0</ele><time>2026-05-03T11:23:52.018Z</time></trkpt><trkpt lat="42.3272763" lon="14.1027626"><ele>56.5</ele><time>2026-05-03T11:23:53.018Z</time></trkpt><trkpt lat="42.3273285" lon="14.1029176"><ele>57.0</ele><time>2026-05-03T11:23:54.018Z</time></trkpt><trkpt lat="42.3273785" lon="14.1030691"><ele>55.0</ele><time>2026-05-03T11:23:55.018Z</time></trkpt><trkpt lat="42.3274282" lon="14.1032134"><ele>53.0</ele><time>2026-05-03T11:23:56.018Z</time></trkpt><trkpt lat="42.3274758" lon="14.1033612"><ele>51.0</ele><time>2026-05-03T11:23:57.018Z</time></trkpt><trkpt lat="42.3275206" lon="14.1035156"><ele>49.0</ele><time>2026-05-03T11:23:58.018Z</time></trkpt><trkpt lat="42.3275664" lon="14.1036776"><ele>49.0</ele><time>2026-05-03T11:23:59.018Z</time></trkpt><trkpt lat="42.3276171" lon="14.1038398"><ele>49.0</ele><time>2026-05-03T11:24:00.018Z</time></trkpt><trkpt lat="42.3276692" lon="14.1040038"><ele>49.0</ele><time>2026-05-03T11:24:01.018Z</time></trkpt><trkpt lat="42.3277243" lon="14.1041677"><ele>49.0</ele><time>2026-05-03T11:24:02.018Z</time></trkpt><trkpt lat="42.3277812" lon="14.1043311"><ele>48.5</ele><time>2026-05-03T11:24:03.018Z</time></trkpt><trkpt lat="42.3278322" lon="14.1044957"><ele>48.0</ele><time>2026-05-03T11:24:04.018Z</time></trkpt><trkpt lat="42.3278802" lon="14.1046554"><ele>47.5</ele><time>2026-05-03T11:24:05.018Z</time></trkpt><trkpt lat="42.3279319" lon="14.104815"><ele>47.0</ele><time>2026-05-03T11:24:06.018Z</time></trkpt><trkpt lat="42.3279784" lon="14.1049702"><ele>46.75</ele><time>2026-05-03T11:24:07.018Z</time></trkpt><trkpt lat="42.3280253" lon="14.1051169"><ele>46.5</ele><time>2026-05-03T11:24:08.018Z</time></trkpt><trkpt lat="42.3280714" lon="14.1052587"><ele>46.25</ele><time>2026-05-03T11:24:09.018Z</time></trkpt><trkpt lat="42.3281161" lon="14.1054025"><ele>46.0</ele><time>2026-05-03T11:24:10.018Z</time></trkpt><trkpt lat="42.3281611" lon="14.1055475"><ele>46.0</ele><time>2026-05-03T11:24:11.018Z</time></trkpt><trkpt lat="42.3282074" lon="14.1056994"><ele>46.0</ele><time>2026-05-03T11:24:12.018Z</time></trkpt><trkpt lat="42.3282548" lon="14.1058548"><ele>46.0</ele><time>2026-05-03T11:24:13.018Z</time></trkpt><trkpt lat="42.3282996" lon="14.1060032"><ele>46.0</ele><time>2026-05-03T11:24:14.018Z</time></trkpt><trkpt lat="42.3283443" lon="14.1061459"><ele>46.0</ele><time>2026-05-03T11:24:15.018Z</time></trkpt><trkpt lat="42.3283915" lon="14.1062848"><ele>46.0</ele><time>2026-05-03T11:24:16.018Z</time></trkpt><trkpt lat="42.3284388" lon="14.1064243"><ele>46.0</ele><time>2026-05-03T11:24:17.018Z</time></trkpt><trkpt lat="42.328482" lon="14.1065828"><ele>46.0</ele><time>2026-05-03T11:24:18.018Z</time></trkpt><trkpt lat="42.3285174" lon="14.10672"><ele>46.0</ele><time>2026-05-03T11:24:19.018Z</time></trkpt><trkpt lat="42.3285605" lon="14.1068501"><ele>46.0</ele><time>2026-05-03T11:24:20.018Z</time></trkpt><trkpt lat="42.3285999" lon="14.1069738"><ele>46.0</ele><time>2026-05-03T11:24:21.018Z</time></trkpt><trkpt lat="42.3286405" lon="14.1071015"><ele>46.0</ele><time>2026-05-03T11:24:22.018Z</time></trkpt><trkpt lat="42.3286757" lon="14.1072388"><ele>46.0</ele><time>2026-05-03T11:24:23.018Z</time></trkpt><trkpt lat="42.3287144" lon="14.1073659"><ele>46.0</ele><time>2026-05-03T11:24:24.018Z</time></trkpt><trkpt lat="42.328762" lon="14.1075075"><ele>46.0</ele><time>2026-05-03T11:24:25.018Z</time></trkpt><trkpt lat="42.3288048" lon="14.1076458"><ele>46.0</ele><time>2026-05-03T11:24:26.018Z</time></trkpt><trkpt lat="42.3288632" lon="14.1077688"><ele>46.0</ele><time>2026-05-03T11:24:27.019Z</time></trkpt><trkpt lat="42.3289073" lon="14.1079018"><ele>46.0</ele><time>2026-05-03T11:24:28.018Z</time></trkpt><trkpt lat="42.3289487" lon="14.1080318"><ele>44.75</ele><time>2026-05-03T11:24:29.018Z</time></trkpt><trkpt lat="42.3289877" lon="14.1081663"><ele>43.5</ele><time>2026-05-03T11:24:30.018Z</time></trkpt><trkpt lat="42.3290354" lon="14.1083042"><ele>42.25</ele><time>2026-05-03T11:24:31.019Z</time></trkpt><trkpt lat="42.3290827" lon="14.1084407"><ele>41.0</ele><time>2026-05-03T11:24:32.018Z</time></trkpt><trkpt lat="42.3291368" lon="14.1085852"><ele>41.0</ele><time>2026-05-03T11:24:33.018Z</time></trkpt><trkpt lat="42.3291841" lon="14.108733"><ele>41.0</ele><time>2026-05-03T11:24:34.018Z</time></trkpt><trkpt lat="42.329233" lon="14.1088865"><ele>41.0</ele><time>2026-05-03T11:24:35.018Z</time></trkpt><trkpt lat="42.3292801" lon="14.109042"><ele>41.0</ele><time>2026-05-03T11:24:36.018Z</time></trkpt><trkpt lat="42.3293193" lon="14.1091931"><ele>41.5</ele><time>2026-05-03T11:24:37.018Z</time></trkpt><trkpt lat="42.329361" lon="14.1093477"><ele>42.0</ele><time>2026-05-03T11:24:38.018Z</time></trkpt><trkpt lat="42.3294002" lon="14.1094928"><ele>42.5</ele><time>2026-05-03T11:24:39.019Z</time></trkpt><trkpt lat="42.3294474" lon="14.1096247"><ele>43.0</ele><time>2026-05-03T11:24:40.018Z</time></trkpt><trkpt lat="42.3294932" lon="14.1097642"><ele>43.0</ele><time>2026-05-03T11:24:41.018Z</time></trkpt><trkpt lat="42.3295381" lon="14.1099043"><ele>43.0</ele><time>2026-05-03T11:24:42.016Z</time></trkpt><trkpt lat="42.3295821" lon="14.1100406"><ele>43.0</ele><time>2026-05-03T11:24:43.018Z</time></trkpt><trkpt lat="42.3296258" lon="14.1101852"><ele>43.0</ele><time>2026-05-03T11:24:44.018Z</time></trkpt><trkpt lat="42.3296698" lon="14.1103302"><ele>43.25</ele><time>2026-05-03T11:24:45.018Z</time></trkpt><trkpt lat="42.3297162" lon="14.1104812"><ele>43.5</ele><time>2026-05-03T11:24:46.018Z</time></trkpt><trkpt lat="42.3297687" lon="14.1106333"><ele>43.75</ele><time>2026-05-03T11:24:47.018Z</time></trkpt><trkpt lat="42.3298157" lon="14.1107939"><ele>44.0</ele><time>2026-05-03T11:24:48.016Z</time></trkpt><trkpt lat="42.3298649" lon="14.11095"><ele>43.5</ele><time>2026-05-03T11:24:49.018Z</time></trkpt><trkpt lat="42.3299128" lon="14.111105"><ele>43.0</ele><time>2026-05-03T11:24:50.018Z</time></trkpt><trkpt lat="42.3299617" lon="14.1112621"><ele>42.5</ele><time>2026-05-03T11:24:51.018Z</time></trkpt><trkpt lat="42.3300076" lon="14.1114193"><ele>42.0</ele><time>2026-05-03T11:24:52.018Z</time></trkpt><trkpt lat="42.3300575" lon="14.1115726"><ele>42.25</ele><time>2026-05-03T11:24:53.018Z</time></trkpt><trkpt lat="42.33011" lon="14.1117294"><ele>42.5</ele><time>2026-05-03T11:24:54.018Z</time></trkpt><trkpt lat="42.3301576" lon="14.1118739"><ele>42.75</ele><time>2026-05-03T11:24:55.018Z</time></trkpt><trkpt lat="42.3301991" lon="14.1120065"><ele>43.0</ele><time>2026-05-03T11:24:56.019Z</time></trkpt><trkpt lat="42.3302374" lon="14.1121334"><ele>43.0</ele><time>2026-05-03T11:24:57.018Z</time></trkpt><trkpt lat="42.3302754" lon="14.1122622"><ele>43.0</ele><time>2026-05-03T11:24:58.016Z</time></trkpt><trkpt lat="42.3303084" lon="14.1123825"><ele>43.0</ele><time>2026-05-03T11:24:59.019Z</time></trkpt><trkpt lat="42.3303401" lon="14.1124973"><ele>43.0</ele><time>2026-05-03T11:25:00.018Z</time></trkpt><trkpt lat="42.3303739" lon="14.1126115"><ele>43.0</ele><time>2026-05-03T11:25:01.018Z</time></trkpt><trkpt lat="42.3304028" lon="14.1127101"><ele>43.0</ele><time>2026-05-03T11:25:02.018Z</time></trkpt><trkpt lat="42.330427" lon="14.1128057"><ele>43.0</ele><time>2026-05-03T11:25:03.018Z</time></trkpt><trkpt lat="42.3304446" lon="14.112897"><ele>43.0</ele><time>2026-05-03T11:25:04.019Z</time></trkpt><trkpt lat="42.3304509" lon="14.1129837"><ele>43.0</ele><time>2026-05-03T11:25:05.018Z</time></trkpt><trkpt lat="42.3304545" lon="14.1130772"><ele>43.0</ele><time>2026-05-03T11:25:06.018Z</time></trkpt><trkpt lat="42.3304681" lon="14.1131682"><ele>43.0</ele><time>2026-05-03T11:25:07.018Z</time></trkpt><trkpt lat="42.3305425" lon="14.1132978"><ele>42.0</ele><time>2026-05-03T11:25:09.018Z</time></trkpt><trkpt lat="42.3306279" lon="14.1134074"><ele>41.0</ele><time>2026-05-03T11:25:11.018Z</time></trkpt><trkpt lat="42.3306854" lon="14.1135446"><ele>40.0</ele><time>2026-05-03T11:25:13.018Z</time></trkpt><trkpt lat="42.3307121" lon="14.1136265"><ele>39.0</ele><time>2026-05-03T11:25:14.018Z</time></trkpt><trkpt lat="42.3307436" lon="14.1137192"><ele>38.0</ele><time>2026-05-03T11:25:15.018Z</time></trkpt><trkpt lat="42.3307785" lon="14.1138223"><ele>38.0</ele><time>2026-05-03T11:25:16.018Z</time></trkpt><trkpt lat="42.3308163" lon="14.113935"><ele>38.0</ele><time>2026-05-03T11:25:17.018Z</time></trkpt><trkpt lat="42.3308528" lon="14.1140581"><ele>38.0</ele><time>2026-05-03T11:25:18.018Z</time></trkpt><trkpt lat="42.3308891" lon="14.1141778"><ele>38.0</ele><time>2026-05-03T11:25:19.018Z</time></trkpt><trkpt lat="42.33092" lon="14.1143268"><ele>38.0</ele><time>2026-05-03T11:25:20.018Z</time></trkpt><trkpt lat="42.3309661" lon="14.1144525"><ele>38.0</ele><time>2026-05-03T11:25:21.018Z</time></trkpt><trkpt lat="42.3310013" lon="14.1145767"><ele>38.0</ele><time>2026-05-03T11:25:22.018Z</time></trkpt><trkpt lat="42.3310401" lon="14.1147006"><ele>38.0</ele><time>2026-05-03T11:25:23.018Z</time></trkpt><trkpt lat="42.3310767" lon="14.1148204"><ele>38.0</ele><time>2026-05-03T11:25:24.018Z</time></trkpt><trkpt lat="42.3311153" lon="14.1149447"><ele>38.0</ele><time>2026-05-03T11:25:25.018Z</time></trkpt><trkpt lat="42.3311554" lon="14.1150607"><ele>38.0</ele><time>2026-05-03T11:25:26.018Z</time></trkpt><trkpt lat="42.3311948" lon="14.1151792"><ele>38.0</ele><time>2026-05-03T11:25:27.018Z</time></trkpt><trkpt lat="42.3312326" lon="14.1152938"><ele>38.0</ele><time>2026-05-03T11:25:28.018Z</time></trkpt><trkpt lat="42.3312641" lon="14.115415"><ele>38.0</ele><time>2026-05-03T11:25:29.018Z</time></trkpt><trkpt lat="42.3312968" lon="14.115539"><ele>38.0</ele><time>2026-05-03T11:25:30.018Z</time></trkpt><trkpt lat="42.3313386" lon="14.1156774"><ele>38.0</ele><time>2026-05-03T11:25:31.018Z</time></trkpt><trkpt lat="42.3313838" lon="14.115823"><ele>38.0</ele><time>2026-05-03T11:25:32.018Z</time></trkpt><trkpt lat="42.3314326" lon="14.1159747"><ele>38.0</ele><time>2026-05-03T11:25:33.018Z</time></trkpt><trkpt lat="42.3314851" lon="14.1161314"><ele>38.0</ele><time>2026-05-03T11:25:34.018Z</time></trkpt><trkpt lat="42.3315318" lon="14.1162959"><ele>38.0</ele><time>2026-05-03T11:25:35.018Z</time></trkpt><trkpt lat="42.3315801" lon="14.1164609"><ele>38.0</ele><time>2026-05-03T11:25:36.016Z</time></trkpt><trkpt lat="42.3316233" lon="14.116618"><ele>38.0</ele><time>2026-05-03T11:25:37.019Z</time></trkpt><trkpt lat="42.3316664" lon="14.1167753"><ele>38.0</ele><time>2026-05-03T11:25:38.019Z</time></trkpt><trkpt lat="42.3317109" lon="14.1169215"><ele>38.0</ele><time>2026-05-03T11:25:39.018Z</time></trkpt><trkpt lat="42.3317519" lon="14.1170695"><ele>38.0</ele><time>2026-05-03T11:25:40.018Z</time></trkpt><trkpt lat="42.3318025" lon="14.117224"><ele>38.0</ele><time>2026-05-03T11:25:41.018Z</time></trkpt><trkpt lat="42.3318551" lon="14.1173768"><ele>38.0</ele><time>2026-05-03T11:25:42.018Z</time></trkpt><trkpt lat="42.3319074" lon="14.117527"><ele>38.5</ele><time>2026-05-03T11:25:43.018Z</time></trkpt><trkpt lat="42.3319561" lon="14.1176815"><ele>39.0</ele><time>2026-05-03T11:25:44.018Z</time></trkpt><trkpt lat="42.332009" lon="14.1178322"><ele>39.5</ele><time>2026-05-03T11:25:45.018Z</time></trkpt><trkpt lat="42.3320631" lon="14.117991"><ele>40.0</ele><time>2026-05-03T11:25:46.018Z</time></trkpt><trkpt lat="42.3321148" lon="14.1181473"><ele>40.0</ele><time>2026-05-03T11:25:47.018Z</time></trkpt><trkpt lat="42.3321616" lon="14.1183136"><ele>40.0</ele><time>2026-05-03T11:25:48.019Z</time></trkpt><trkpt lat="42.33221" lon="14.1184728"><ele>40.0</ele><time>2026-05-03T11:25:49.018Z</time></trkpt><trkpt lat="42.332258" lon="14.1186328"><ele>40.0</ele><time>2026-05-03T11:25:50.018Z</time></trkpt><trkpt lat="42.3323102" lon="14.1187885"><ele>39.5</ele><time>2026-05-03T11:25:51.018Z</time></trkpt><trkpt lat="42.3323578" lon="14.1189389"><ele>39.0</ele><time>2026-05-03T11:25:52.018Z</time></trkpt><trkpt lat="42.3324101" lon="14.119089"><ele>38.5</ele><time>2026-05-03T11:25:53.018Z</time></trkpt><trkpt lat="42.3324651" lon="14.1192349"><ele>38.0</ele><time>2026-05-03T11:25:54.018Z</time></trkpt><trkpt lat="42.3325182" lon="14.1193903"><ele>37.75</ele><time>2026-05-03T11:25:55.018Z</time></trkpt><trkpt lat="42.332569" lon="14.1195479"><ele>37.5</ele><time>2026-05-03T11:25:56.018Z</time></trkpt><trkpt lat="42.3326169" lon="14.1197122"><ele>37.25</ele><time>2026-05-03T11:25:57.018Z</time></trkpt><trkpt lat="42.3326562" lon="14.1198725"><ele>37.0</ele><time>2026-05-03T11:25:58.018Z</time></trkpt><trkpt lat="42.3327063" lon="14.1200354"><ele>37.75</ele><time>2026-05-03T11:25:59.018Z</time></trkpt><trkpt lat="42.332759" lon="14.120204"><ele>38.5</ele><time>2026-05-03T11:26:00.018Z</time></trkpt><trkpt lat="42.3328123" lon="14.1203768"><ele>39.25</ele><time>2026-05-03T11:26:01.018Z</time></trkpt><trkpt lat="42.3328681" lon="14.1205462"><ele>40.0</ele><time>2026-05-03T11:26:02.019Z</time></trkpt><trkpt lat="42.3329241" lon="14.1207168"><ele>40.0</ele><time>2026-05-03T11:26:03.018Z</time></trkpt><trkpt lat="42.3329793" lon="14.1208889"><ele>40.0</ele><time>2026-05-03T11:26:04.019Z</time></trkpt><trkpt lat="42.3330333" lon="14.1210652"><ele>40.0</ele><time>2026-05-03T11:26:05.018Z</time></trkpt><trkpt lat="42.3330745" lon="14.12123"><ele>40.0</ele><time>2026-05-03T11:26:06.018Z</time></trkpt><trkpt lat="42.3331258" lon="14.1213653"><ele>40.5</ele><time>2026-05-03T11:26:07.018Z</time></trkpt><trkpt lat="42.3331795" lon="14.121523"><ele>41.0</ele><time>2026-05-03T11:26:08.018Z</time></trkpt><trkpt lat="42.3332283" lon="14.1216843"><ele>41.5</ele><time>2026-05-03T11:26:09.018Z</time></trkpt><trkpt lat="42.3332814" lon="14.12184"><ele>42.0</ele><time>2026-05-03T11:26:10.018Z</time></trkpt><trkpt lat="42.3333322" lon="14.1220015"><ele>42.0</ele><time>2026-05-03T11:26:11.018Z</time></trkpt><trkpt lat="42.3333812" lon="14.12216"><ele>42.0</ele><time>2026-05-03T11:26:12.018Z</time></trkpt><trkpt lat="42.3334317" lon="14.1223221"><ele>42.0</ele><time>2026-05-03T11:26:13.018Z</time></trkpt><trkpt lat="42.3334884" lon="14.1224888"><ele>42.0</ele><time>2026-05-03T11:26:14.018Z</time></trkpt><trkpt lat="42.3335392" lon="14.1226495"><ele>42.25</ele><time>2026-05-03T11:26:15.018Z</time></trkpt><trkpt lat="42.3335883" lon="14.122811"><ele>42.5</ele><time>2026-05-03T11:26:16.018Z</time></trkpt><trkpt lat="42.3336323" lon="14.1229584"><ele>42.75</ele><time>2026-05-03T11:26:17.018Z</time></trkpt><trkpt lat="42.3336781" lon="14.1231028"><ele>43.0</ele><time>2026-05-03T11:26:18.018Z</time></trkpt><trkpt lat="42.3337232" lon="14.1232406"><ele>43.0</ele><time>2026-05-03T11:26:19.018Z</time></trkpt><trkpt lat="42.3337671" lon="14.1233758"><ele>43.0</ele><time>2026-05-03T11:26:20.017Z</time></trkpt><trkpt lat="42.3338124" lon="14.1235147"><ele>43.0</ele><time>2026-05-03T11:26:21.018Z</time></trkpt><trkpt lat="42.3338564" lon="14.1236515"><ele>43.0</ele><time>2026-05-03T11:26:22.018Z</time></trkpt><trkpt lat="42.333901" lon="14.1237842"><ele>43.0</ele><time>2026-05-03T11:26:23.018Z</time></trkpt><trkpt lat="42.3339477" lon="14.1239113"><ele>42.75</ele><time>2026-05-03T11:26:24.019Z</time></trkpt><trkpt lat="42.3340032" lon="14.1240411"><ele>42.5</ele><time>2026-05-03T11:26:25.018Z</time></trkpt><trkpt lat="42.3340724" lon="14.1241725"><ele>42.25</ele><time>2026-05-03T11:26:26.018Z</time></trkpt><trkpt lat="42.3341578" lon="14.1243029"><ele>42.0</ele><time>2026-05-03T11:26:27.018Z</time></trkpt><trkpt lat="42.3342546" lon="14.1244326"><ele>41.75</ele><time>2026-05-03T11:26:28.018Z</time></trkpt><trkpt lat="42.3343601" lon="14.1245604"><ele>41.5</ele><time>2026-05-03T11:26:29.017Z</time></trkpt><trkpt lat="42.3344643" lon="14.1246913"><ele>41.25</ele><time>2026-05-03T11:26:30.019Z</time></trkpt><trkpt lat="42.3345672" lon="14.1248212"><ele>41.0</ele><time>2026-05-03T11:26:31.018Z</time></trkpt><trkpt lat="42.3346719" lon="14.1249502"><ele>41.25</ele><time>2026-05-03T11:26:32.018Z</time></trkpt><trkpt lat="42.3347765" lon="14.1250756"><ele>41.5</ele><time>2026-05-03T11:26:33.019Z</time></trkpt><trkpt lat="42.3348767" lon="14.125194"><ele>41.75</ele><time>2026-05-03T11:26:34.018Z</time></trkpt><trkpt lat="42.3349699" lon="14.1253073"><ele>42.0</ele><time>2026-05-03T11:26:35.018Z</time></trkpt><trkpt lat="42.3350614" lon="14.1254217"><ele>42.0</ele><time>2026-05-03T11:26:36.018Z</time></trkpt><trkpt lat="42.3351528" lon="14.1255376"><ele>42.0</ele><time>2026-05-03T11:26:37.018Z</time></trkpt><trkpt lat="42.335251" lon="14.1256563"><ele>42.0</ele><time>2026-05-03T11:26:38.018Z</time></trkpt><trkpt lat="42.3353498" lon="14.1257766"><ele>42.0</ele><time>2026-05-03T11:26:39.018Z</time></trkpt><trkpt lat="42.3354549" lon="14.1258987"><ele>42.5</ele><time>2026-05-03T11:26:40.018Z</time></trkpt><trkpt lat="42.3355622" lon="14.1260232"><ele>43.0</ele><time>2026-05-03T11:26:41.018Z</time></trkpt><trkpt lat="42.3356686" lon="14.1261521"><ele>43.5</ele><time>2026-05-03T11:26:42.018Z</time></trkpt><trkpt lat="42.3357772" lon="14.1262847"><ele>44.0</ele><time>2026-05-03T11:26:43.018Z</time></trkpt><trkpt lat="42.3358909" lon="14.1264211"><ele>44.0</ele><time>2026-05-03T11:26:44.018Z</time></trkpt><trkpt lat="42.336008" lon="14.1265609"><ele>44.0</ele><time>2026-05-03T11:26:45.018Z</time></trkpt><trkpt lat="42.3361268" lon="14.1267051"><ele>44.0</ele><time>2026-05-03T11:26:46.018Z</time></trkpt><trkpt lat="42.3362456" lon="14.1268538"><ele>44.33333333333333</ele><time>2026-05-03T11:26:47.018Z</time></trkpt><trkpt lat="42.3363594" lon="14.1269982"><ele>44.666666666666664</ele><time>2026-05-03T11:26:48.018Z</time></trkpt><trkpt lat="42.3364706" lon="14.127132"><ele>45.0</ele><time>2026-05-03T11:26:49.018Z</time></trkpt><trkpt lat="42.3365794" lon="14.1272627"><ele>45.0</ele><time>2026-05-03T11:26:50.018Z</time></trkpt><trkpt lat="42.3366821" lon="14.1273857"><ele>45.0</ele><time>2026-05-03T11:26:51.018Z</time></trkpt><trkpt lat="42.3367804" lon="14.1275101"><ele>45.0</ele><time>2026-05-03T11:26:52.018Z</time></trkpt><trkpt lat="42.3368798" lon="14.1276332"><ele>45.0</ele><time>2026-05-03T11:26:53.018Z</time></trkpt><trkpt lat="42.3369813" lon="14.1277548"><ele>45.25</ele><time>2026-05-03T11:26:54.018Z</time></trkpt><trkpt lat="42.3370854" lon="14.1278754"><ele>45.5</ele><time>2026-05-03T11:26:55.019Z</time></trkpt><trkpt lat="42.3371931" lon="14.1280017"><ele>45.75</ele><time>2026-05-03T11:26:56.018Z</time></trkpt><trkpt lat="42.3373028" lon="14.128125"><ele>46.0</ele><time>2026-05-03T11:26:57.018Z</time></trkpt><trkpt lat="42.3374069" lon="14.1282431"><ele>46.75</ele><time>2026-05-03T11:26:58.018Z</time></trkpt><trkpt lat="42.3375175" lon="14.1283612"><ele>47.5</ele><time>2026-05-03T11:26:59.018Z</time></trkpt><trkpt lat="42.3376371" lon="14.1284749"><ele>48.25</ele><time>2026-05-03T11:27:00.018Z</time></trkpt><trkpt lat="42.3377608" lon="14.1285881"><ele>49.0</ele><time>2026-05-03T11:27:01.018Z</time></trkpt><trkpt lat="42.3378836" lon="14.1286965"><ele>49.0</ele><time>2026-05-03T11:27:02.018Z</time></trkpt><trkpt lat="42.3380141" lon="14.1288066"><ele>49.0</ele><time>2026-05-03T11:27:03.018Z</time></trkpt><trkpt lat="42.3381426" lon="14.1289157"><ele>49.0</ele><time>2026-05-03T11:27:04.019Z</time></trkpt><trkpt lat="42.3382763" lon="14.1290266"><ele>49.33333333333333</ele><time>2026-05-03T11:27:05.018Z</time></trkpt><trkpt lat="42.338414" lon="14.1291267"><ele>49.66666666666667</ele><time>2026-05-03T11:27:06.018Z</time></trkpt><trkpt lat="42.3385451" lon="14.1292302"><ele>50.0</ele><time>2026-05-03T11:27:07.018Z</time></trkpt><trkpt lat="42.3386815" lon="14.1293353"><ele>50.0</ele><time>2026-05-03T11:27:08.019Z</time></trkpt><trkpt lat="42.3388122" lon="14.129442"><ele>50.0</ele><time>2026-05-03T11:27:09.018Z</time></trkpt><trkpt lat="42.3389332" lon="14.1295567"><ele>50.0</ele><time>2026-05-03T11:27:10.018Z</time></trkpt><trkpt lat="42.3390705" lon="14.1296732"><ele>49.66666666666667</ele><time>2026-05-03T11:27:11.018Z</time></trkpt><trkpt lat="42.3392057" lon="14.1297887"><ele>49.33333333333333</ele><time>2026-05-03T11:27:12.018Z</time></trkpt><trkpt lat="42.3393438" lon="14.1299013"><ele>49.0</ele><time>2026-05-03T11:27:13.018Z</time></trkpt><trkpt lat="42.3394835" lon="14.1300106"><ele>49.0</ele><time>2026-05-03T11:27:14.018Z</time></trkpt><trkpt lat="42.3396273" lon="14.1301294"><ele>49.0</ele><time>2026-05-03T11:27:15.018Z</time></trkpt><trkpt lat="42.3397661" lon="14.1302473"><ele>49.0</ele><time>2026-05-03T11:27:16.018Z</time></trkpt><trkpt lat="42.339909" lon="14.1303638"><ele>49.0</ele><time>2026-05-03T11:27:17.018Z</time></trkpt><trkpt lat="42.3400531" lon="14.1304819"><ele>49.0</ele><time>2026-05-03T11:27:18.018Z</time></trkpt><trkpt lat="42.3402004" lon="14.1306024"><ele>49.0</ele><time>2026-05-03T11:27:19.019Z</time></trkpt><trkpt lat="42.3403522" lon="14.130722"><ele>49.0</ele><time>2026-05-03T11:27:20.018Z</time></trkpt><trkpt lat="42.3405023" lon="14.1308506"><ele>49.0</ele><time>2026-05-03T11:27:21.018Z</time></trkpt><trkpt lat="42.3406598" lon="14.1309769"><ele>49.0</ele><time>2026-05-03T11:27:22.018Z</time></trkpt><trkpt lat="42.3408206" lon="14.1311066"><ele>49.0</ele><time>2026-05-03T11:27:23.018Z</time></trkpt><trkpt lat="42.3409802" lon="14.1312416"><ele>49.0</ele><time>2026-05-03T11:27:24.018Z</time></trkpt><trkpt lat="42.3411415" lon="14.1313896"><ele>49.0</ele><time>2026-05-03T11:27:25.019Z</time></trkpt><trkpt lat="42.3413056" lon="14.13154"><ele>48.666666666666664</ele><time>2026-05-03T11:27:26.018Z</time></trkpt><trkpt lat="42.341466" lon="14.1316805"><ele>48.33333333333333</ele><time>2026-05-03T11:27:27.018Z</time></trkpt><trkpt lat="42.3416225" lon="14.1318109"><ele>48.0</ele><time>2026-05-03T11:27:28.018Z</time></trkpt><trkpt lat="42.3417797" lon="14.1319352"><ele>48.0</ele><time>2026-05-03T11:27:29.018Z</time></trkpt><trkpt lat="42.3419367" lon="14.1320616"><ele>48.0</ele><time>2026-05-03T11:27:30.018Z</time></trkpt><trkpt lat="42.3420913" lon="14.1321882"><ele>48.0</ele><time>2026-05-03T11:27:31.018Z</time></trkpt><trkpt lat="42.3422448" lon="14.1323149"><ele>48.0</ele><time>2026-05-03T11:27:32.018Z</time></trkpt><trkpt lat="42.3424052" lon="14.1324388"><ele>48.0</ele><time>2026-05-03T11:27:33.018Z</time></trkpt><trkpt lat="42.3425648" lon="14.1325644"><ele>48.0</ele><time>2026-05-03T11:27:34.018Z</time></trkpt><trkpt lat="42.34272" lon="14.1326965"><ele>48.0</ele><time>2026-05-03T11:27:35.018Z</time></trkpt><trkpt lat="42.3428781" lon="14.1328295"><ele>48.0</ele><time>2026-05-03T11:27:36.018Z</time></trkpt><trkpt lat="42.3430348" lon="14.1329612"><ele>48.0</ele><time>2026-05-03T11:27:37.019Z</time></trkpt><trkpt lat="42.3431945" lon="14.1330912"><ele>48.33333333333333</ele><time>2026-05-03T11:27:38.018Z</time></trkpt><trkpt lat="42.3433556" lon="14.1332265"><ele>48.666666666666664</ele><time>2026-05-03T11:27:39.018Z</time></trkpt><trkpt lat="42.3435101" lon="14.1333563"><ele>49.0</ele><time>2026-05-03T11:27:40.018Z</time></trkpt><trkpt lat="42.3436694" lon="14.1334724"><ele>49.0</ele><time>2026-05-03T11:27:41.018Z</time></trkpt><trkpt lat="42.3438315" lon="14.1335884"><ele>49.0</ele><time>2026-05-03T11:27:42.018Z</time></trkpt><trkpt lat="42.343996" lon="14.1336839"><ele>49.0</ele><time>2026-05-03T11:27:43.018Z</time></trkpt><trkpt lat="42.3441605" lon="14.1337644"><ele>49.0</ele><time>2026-05-03T11:27:44.018Z</time></trkpt><trkpt lat="42.3443272" lon="14.1338382"><ele>49.0</ele><time>2026-05-03T11:27:45.019Z</time></trkpt><trkpt lat="42.3445024" lon="14.1339084"><ele>49.0</ele><time>2026-05-03T11:27:46.018Z</time></trkpt><trkpt lat="42.3446787" lon="14.1339704"><ele>48.666666666666664</ele><time>2026-05-03T11:27:47.018Z</time></trkpt><trkpt lat="42.3448578" lon="14.134025"><ele>48.33333333333333</ele><time>2026-05-03T11:27:48.018Z</time></trkpt><trkpt lat="42.3450386" lon="14.1340751"><ele>48.0</ele><time>2026-05-03T11:27:49.018Z</time></trkpt><trkpt lat="42.3452208" lon="14.1341125"><ele>48.0</ele><time>2026-05-03T11:27:50.018Z</time></trkpt><trkpt lat="42.3454044" lon="14.1341407"><ele>48.0</ele><time>2026-05-03T11:27:51.018Z</time></trkpt><trkpt lat="42.3455876" lon="14.1341532"><ele>48.0</ele><time>2026-05-03T11:27:52.018Z</time></trkpt><trkpt lat="42.3457716" lon="14.1341554"><ele>48.0</ele><time>2026-05-03T11:27:53.018Z</time></trkpt><trkpt lat="42.3459553" lon="14.1341515"><ele>48.0</ele><time>2026-05-03T11:27:54.019Z</time></trkpt><trkpt lat="42.3461362" lon="14.1341404"><ele>48.0</ele><time>2026-05-03T11:27:55.018Z</time></trkpt><trkpt lat="42.3463174" lon="14.134121"><ele>48.0</ele><time>2026-05-03T11:27:56.018Z</time></trkpt><trkpt lat="42.346496" lon="14.1340915"><ele>48.0</ele><time>2026-05-03T11:27:57.018Z</time></trkpt><trkpt lat="42.3466753" lon="14.1340536"><ele>48.0</ele><time>2026-05-03T11:27:58.018Z</time></trkpt><trkpt lat="42.3468537" lon="14.134005"><ele>47.0</ele><time>2026-05-03T11:27:59.019Z</time></trkpt><trkpt lat="42.3470278" lon="14.1339453"><ele>46.0</ele><time>2026-05-03T11:28:00.018Z</time></trkpt><trkpt lat="42.3472091" lon="14.1338836"><ele>45.0</ele><time>2026-05-03T11:28:01.018Z</time></trkpt><trkpt lat="42.3473868" lon="14.1338265"><ele>45.0</ele><time>2026-05-03T11:28:02.018Z</time></trkpt><trkpt lat="42.3475621" lon="14.1337663"><ele>45.0</ele><time>2026-05-03T11:28:03.018Z</time></trkpt><trkpt lat="42.3477397" lon="14.1337062"><ele>45.0</ele><time>2026-05-03T11:28:04.018Z</time></trkpt><trkpt lat="42.347915" lon="14.133645"><ele>45.0</ele><time>2026-05-03T11:28:05.018Z</time></trkpt><trkpt lat="42.3480937" lon="14.1335853"><ele>45.0</ele><time>2026-05-03T11:28:06.018Z</time></trkpt><trkpt lat="42.3482727" lon="14.1335237"><ele>45.0</ele><time>2026-05-03T11:28:07.018Z</time></trkpt><trkpt lat="42.3484543" lon="14.1334647"><ele>45.0</ele><time>2026-05-03T11:28:08.018Z</time></trkpt><trkpt lat="42.348637" lon="14.1334058"><ele>45.0</ele><time>2026-05-03T11:28:09.018Z</time></trkpt><trkpt lat="42.3488224" lon="14.1333508"><ele>45.0</ele><time>2026-05-03T11:28:10.018Z</time></trkpt><trkpt lat="42.3490087" lon="14.1332966"><ele>44.666666666666664</ele><time>2026-05-03T11:28:11.018Z</time></trkpt><trkpt lat="42.3491957" lon="14.1332415"><ele>44.33333333333333</ele><time>2026-05-03T11:28:12.018Z</time></trkpt><trkpt lat="42.3493829" lon="14.1331846"><ele>44.0</ele><time>2026-05-03T11:28:13.018Z</time></trkpt><trkpt lat="42.3495686" lon="14.1331404"><ele>41.666666666666664</ele><time>2026-05-03T11:28:14.018Z</time></trkpt><trkpt lat="42.349754" lon="14.1330972"><ele>39.333333333333336</ele><time>2026-05-03T11:28:15.018Z</time></trkpt><trkpt lat="42.3499412" lon="14.133059"><ele>37.0</ele><time>2026-05-03T11:28:16.019Z</time></trkpt><trkpt lat="42.3501277" lon="14.1330221"><ele>37.0</ele><time>2026-05-03T11:28:17.019Z</time></trkpt><trkpt lat="42.3503162" lon="14.1329931"><ele>37.0</ele><time>2026-05-03T11:28:18.018Z</time></trkpt><trkpt lat="42.3505066" lon="14.1329634"><ele>37.0</ele><time>2026-05-03T11:28:19.018Z</time></trkpt><trkpt lat="42.3506958" lon="14.1329295"><ele>37.0</ele><time>2026-05-03T11:28:20.018Z</time></trkpt><trkpt lat="42.3508862" lon="14.1329002"><ele>37.0</ele><time>2026-05-03T11:28:21.018Z</time></trkpt><trkpt lat="42.351079" lon="14.1328729"><ele>37.0</ele><time>2026-05-03T11:28:22.018Z</time></trkpt><trkpt lat="42.35127" lon="14.1328437"><ele>37.66666666666667</ele><time>2026-05-03T11:28:23.018Z</time></trkpt><trkpt lat="42.351462" lon="14.1328162"><ele>38.333333333333336</ele><time>2026-05-03T11:28:24.018Z</time></trkpt><trkpt lat="42.3516516" lon="14.132788"><ele>39.0</ele><time>2026-05-03T11:28:25.018Z</time></trkpt><trkpt lat="42.3518416" lon="14.1327553"><ele>39.0</ele><time>2026-05-03T11:28:26.018Z</time></trkpt><trkpt lat="42.3520235" lon="14.1327292"><ele>39.0</ele><time>2026-05-03T11:28:27.019Z</time></trkpt><trkpt lat="42.3522119" lon="14.1326918"><ele>39.0</ele><time>2026-05-03T11:28:28.018Z</time></trkpt><trkpt lat="42.3523962" lon="14.1326607"><ele>40.0</ele><time>2026-05-03T11:28:29.018Z</time></trkpt><trkpt lat="42.3525803" lon="14.1326306"><ele>41.0</ele><time>2026-05-03T11:28:30.018Z</time></trkpt><trkpt lat="42.3527613" lon="14.1326029"><ele>42.0</ele><time>2026-05-03T11:28:31.018Z</time></trkpt><trkpt lat="42.3529368" lon="14.1325767"><ele>42.333333333333336</ele><time>2026-05-03T11:28:32.018Z</time></trkpt><trkpt lat="42.3531145" lon="14.1325442"><ele>42.66666666666667</ele><time>2026-05-03T11:28:33.018Z</time></trkpt><trkpt lat="42.3533023" lon="14.1325078"><ele>43.0</ele><time>2026-05-03T11:28:34.018Z</time></trkpt><trkpt lat="42.3535003" lon="14.1324676"><ele>43.0</ele><time>2026-05-03T11:28:35.018Z</time></trkpt><trkpt lat="42.3537022" lon="14.1324288"><ele>43.0</ele><time>2026-05-03T11:28:36.019Z</time></trkpt><trkpt lat="42.353915" lon="14.1323874"><ele>43.0</ele><time>2026-05-03T11:28:37.018Z</time></trkpt><trkpt lat="42.354136" lon="14.1323477"><ele>40.5</ele><time>2026-05-03T11:28:38.018Z</time></trkpt><trkpt lat="42.3543644" lon="14.1323095"><ele>38.0</ele><time>2026-05-03T11:28:39.018Z</time></trkpt><trkpt lat="42.3545963" lon="14.132275"><ele>39.666666666666664</ele><time>2026-05-03T11:28:40.018Z</time></trkpt><trkpt lat="42.3548243" lon="14.1322476"><ele>41.333333333333336</ele><time>2026-05-03T11:28:41.018Z</time></trkpt><trkpt lat="42.3550417" lon="14.1322246"><ele>43.0</ele><time>2026-05-03T11:28:42.018Z</time></trkpt><trkpt lat="42.3552523" lon="14.1322035"><ele>43.0</ele><time>2026-05-03T11:28:43.018Z</time></trkpt><trkpt lat="42.3554553" lon="14.1321815"><ele>43.0</ele><time>2026-05-03T11:28:44.018Z</time></trkpt><trkpt lat="42.3556561" lon="14.1321514"><ele>43.0</ele><time>2026-05-03T11:28:45.018Z</time></trkpt><trkpt lat="42.3558543" lon="14.1321225"><ele>43.0</ele><time>2026-05-03T11:28:46.018Z</time></trkpt><trkpt lat="42.3560437" lon="14.132093"><ele>43.0</ele><time>2026-05-03T11:28:47.018Z</time></trkpt><trkpt lat="42.3562286" lon="14.1320642"><ele>43.0</ele><time>2026-05-03T11:28:48.018Z</time></trkpt><trkpt lat="42.3564127" lon="14.1320341"><ele>42.333333333333336</ele><time>2026-05-03T11:28:49.018Z</time></trkpt><trkpt lat="42.3565966" lon="14.1320064"><ele>41.666666666666664</ele><time>2026-05-03T11:28:50.018Z</time></trkpt><trkpt lat="42.3567838" lon="14.1319784"><ele>41.0</ele><time>2026-05-03T11:28:51.018Z</time></trkpt><trkpt lat="42.3569729" lon="14.1319519"><ele>41.0</ele><time>2026-05-03T11:28:52.018Z</time></trkpt><trkpt lat="42.3571624" lon="14.131922"><ele>41.0</ele><time>2026-05-03T11:28:53.018Z</time></trkpt><trkpt lat="42.3573522" lon="14.1318905"><ele>41.0</ele><time>2026-05-03T11:28:54.018Z</time></trkpt><trkpt lat="42.3575407" lon="14.1318596"><ele>41.0</ele><time>2026-05-03T11:28:55.018Z</time></trkpt><trkpt lat="42.3577297" lon="14.1318305"><ele>41.0</ele><time>2026-05-03T11:28:56.018Z</time></trkpt><trkpt lat="42.3579169" lon="14.1318084"><ele>41.0</ele><time>2026-05-03T11:28:57.018Z</time></trkpt><trkpt lat="42.3581035" lon="14.1317836"><ele>41.0</ele><time>2026-05-03T11:28:58.018Z</time></trkpt><trkpt lat="42.3582907" lon="14.1317674"><ele>41.0</ele><time>2026-05-03T11:28:59.018Z</time></trkpt><trkpt lat="42.3584795" lon="14.1317598"><ele>41.0</ele><time>2026-05-03T11:29:00.018Z</time></trkpt><trkpt lat="42.358669" lon="14.1317524"><ele>41.0</ele><time>2026-05-03T11:29:01.018Z</time></trkpt><trkpt lat="42.3588592" lon="14.1317508"><ele>41.0</ele><time>2026-05-03T11:29:02.018Z</time></trkpt><trkpt lat="42.3590489" lon="14.1317536"><ele>41.0</ele><time>2026-05-03T11:29:03.017Z</time></trkpt><trkpt lat="42.3592392" lon="14.1317639"><ele>41.0</ele><time>2026-05-03T11:29:04.018Z</time></trkpt><trkpt lat="42.3594282" lon="14.1317784"><ele>41.0</ele><time>2026-05-03T11:29:05.018Z</time></trkpt><trkpt lat="42.3596175" lon="14.1317987"><ele>41.0</ele><time>2026-05-03T11:29:06.018Z</time></trkpt><trkpt lat="42.3598066" lon="14.1318217"><ele>41.0</ele><time>2026-05-03T11:29:07.018Z</time></trkpt><trkpt lat="42.3599897" lon="14.1318516"><ele>41.0</ele><time>2026-05-03T11:29:08.018Z</time></trkpt><trkpt lat="42.3601777" lon="14.1318836"><ele>41.0</ele><time>2026-05-03T11:29:09.018Z</time></trkpt><trkpt lat="42.3603757" lon="14.13192"><ele>40.666666666666664</ele><time>2026-05-03T11:29:10.018Z</time></trkpt><trkpt lat="42.3605764" lon="14.1319599"><ele>40.333333333333336</ele><time>2026-05-03T11:29:11.019Z</time></trkpt><trkpt lat="42.3607806" lon="14.1320049"><ele>40.0</ele><time>2026-05-03T11:29:12.018Z</time></trkpt><trkpt lat="42.3609835" lon="14.1320563"><ele>40.0</ele><time>2026-05-03T11:29:13.018Z</time></trkpt><trkpt lat="42.3611861" lon="14.1321136"><ele>40.0</ele><time>2026-05-03T11:29:14.018Z</time></trkpt><trkpt lat="42.3613846" lon="14.1321711"><ele>40.0</ele><time>2026-05-03T11:29:15.018Z</time></trkpt><trkpt lat="42.3615824" lon="14.1322378"><ele>39.66666666666667</ele><time>2026-05-03T11:29:16.018Z</time></trkpt><trkpt lat="42.36178" lon="14.1322979"><ele>39.333333333333336</ele><time>2026-05-03T11:29:17.019Z</time></trkpt><trkpt lat="42.3619788" lon="14.1323608"><ele>39.0</ele><time>2026-05-03T11:29:18.018Z</time></trkpt><trkpt lat="42.3621778" lon="14.1324263"><ele>39.333333333333336</ele><time>2026-05-03T11:29:19.018Z</time></trkpt><trkpt lat="42.3623758" lon="14.1324874"><ele>39.66666666666667</ele><time>2026-05-03T11:29:20.018Z</time></trkpt><trkpt lat="42.3625774" lon="14.1325493"><ele>40.0</ele><time>2026-05-03T11:29:21.018Z</time></trkpt><trkpt lat="42.3627792" lon="14.1326102"><ele>40.0</ele><time>2026-05-03T11:29:22.018Z</time></trkpt><trkpt lat="42.3629781" lon="14.1326727"><ele>40.0</ele><time>2026-05-03T11:29:23.018Z</time></trkpt><trkpt lat="42.3631788" lon="14.1327327"><ele>40.0</ele><time>2026-05-03T11:29:24.018Z</time></trkpt><trkpt lat="42.3633763" lon="14.1327955"><ele>40.333333333333336</ele><time>2026-05-03T11:29:25.018Z</time></trkpt><trkpt lat="42.3635757" lon="14.1328605"><ele>40.666666666666664</ele><time>2026-05-03T11:29:26.018Z</time></trkpt><trkpt lat="42.3637757" lon="14.1329171"><ele>41.0</ele><time>2026-05-03T11:29:27.018Z</time></trkpt><trkpt lat="42.3639758" lon="14.1329716"><ele>40.33333333333333</ele><time>2026-05-03T11:29:28.018Z</time></trkpt><trkpt lat="42.3641868" lon="14.1330196"><ele>39.666666666666664</ele><time>2026-05-03T11:29:29.018Z</time></trkpt><trkpt lat="42.3644148" lon="14.1330638"><ele>39.0</ele><time>2026-05-03T11:29:30.019Z</time></trkpt><trkpt lat="42.3646461" lon="14.1331282"><ele>38.5</ele><time>2026-05-03T11:29:31.018Z</time></trkpt><trkpt lat="42.3648861" lon="14.1332065"><ele>38.0</ele><time>2026-05-03T11:29:32.019Z</time></trkpt><trkpt lat="42.3651285" lon="14.1332827"><ele>38.0</ele><time>2026-05-03T11:29:33.018Z</time></trkpt><trkpt lat="42.3653722" lon="14.1333599"><ele>38.0</ele><time>2026-05-03T11:29:34.018Z</time></trkpt><trkpt lat="42.3656179" lon="14.1334356"><ele>37.0</ele><time>2026-05-03T11:29:35.018Z</time></trkpt><trkpt lat="42.3658657" lon="14.1335128"><ele>36.0</ele><time>2026-05-03T11:29:36.018Z</time></trkpt><trkpt lat="42.3661158" lon="14.1335916"><ele>35.5</ele><time>2026-05-03T11:29:37.018Z</time></trkpt><trkpt lat="42.3663639" lon="14.1336685"><ele>35.0</ele><time>2026-05-03T11:29:38.018Z</time></trkpt><trkpt lat="42.3666066" lon="14.1337479"><ele>35.0</ele><time>2026-05-03T11:29:39.019Z</time></trkpt><trkpt lat="42.3668394" lon="14.1338223"><ele>35.0</ele><time>2026-05-03T11:29:40.018Z</time></trkpt><trkpt lat="42.3670631" lon="14.1338963"><ele>34.666666666666664</ele><time>2026-05-03T11:29:41.018Z</time></trkpt><trkpt lat="42.3672812" lon="14.1339684"><ele>34.333333333333336</ele><time>2026-05-03T11:29:42.018Z</time></trkpt><trkpt lat="42.3674943" lon="14.1340399"><ele>34.0</ele><time>2026-05-03T11:29:43.019Z</time></trkpt><trkpt lat="42.3677025" lon="14.1341065"><ele>34.0</ele><time>2026-05-03T11:29:44.018Z</time></trkpt><trkpt lat="42.3679094" lon="14.1341711"><ele>34.0</ele><time>2026-05-03T11:29:45.018Z</time></trkpt><trkpt lat="42.3681135" lon="14.1342339"><ele>34.0</ele><time>2026-05-03T11:29:46.018Z</time></trkpt><trkpt lat="42.3683172" lon="14.1342985"><ele>34.0</ele><time>2026-05-03T11:29:47.018Z</time></trkpt><trkpt lat="42.3685212" lon="14.1343615"><ele>34.0</ele><time>2026-05-03T11:29:48.018Z</time></trkpt><trkpt lat="42.368727" lon="14.1344258"><ele>34.0</ele><time>2026-05-03T11:29:49.018Z</time></trkpt><trkpt lat="42.3689325" lon="14.1344902"><ele>32.66666666666667</ele><time>2026-05-03T11:29:50.018Z</time></trkpt><trkpt lat="42.3691411" lon="14.1345516"><ele>31.333333333333336</ele><time>2026-05-03T11:29:51.018Z</time></trkpt><trkpt lat="42.3693483" lon="14.1346159"><ele>30.0</ele><time>2026-05-03T11:29:52.018Z</time></trkpt><trkpt lat="42.3695579" lon="14.1346795"><ele>29.0</ele><time>2026-05-03T11:29:53.018Z</time></trkpt><trkpt lat="42.3697666" lon="14.1347433"><ele>28.0</ele><time>2026-05-03T11:29:54.018Z</time></trkpt><trkpt lat="42.3699765" lon="14.1348062"><ele>27.0</ele><time>2026-05-03T11:29:55.018Z</time></trkpt><trkpt lat="42.3701862" lon="14.134871"><ele>28.0</ele><time>2026-05-03T11:29:56.018Z</time></trkpt><trkpt lat="42.3703952" lon="14.134937"><ele>29.0</ele><time>2026-05-03T11:29:57.018Z</time></trkpt><trkpt lat="42.3706058" lon="14.1350045"><ele>30.0</ele><time>2026-05-03T11:29:58.018Z</time></trkpt><trkpt lat="42.370819" lon="14.1350726"><ele>30.0</ele><time>2026-05-03T11:29:59.018Z</time></trkpt><trkpt lat="42.3710311" lon="14.1351415"><ele>30.0</ele><time>2026-05-03T11:30:00.018Z</time></trkpt><trkpt lat="42.3712443" lon="14.1352141"><ele>30.0</ele><time>2026-05-03T11:30:01.018Z</time></trkpt><trkpt lat="42.3714589" lon="14.1352809"><ele>30.5</ele><time>2026-05-03T11:30:02.018Z</time></trkpt><trkpt lat="42.3716839" lon="14.1353331"><ele>31.0</ele><time>2026-05-03T11:30:03.018Z</time></trkpt><trkpt lat="42.3719166" lon="14.1353809"><ele>31.0</ele><time>2026-05-03T11:30:04.018Z</time></trkpt><trkpt lat="42.3721606" lon="14.1354374"><ele>31.0</ele><time>2026-05-03T11:30:05.018Z</time></trkpt><trkpt lat="42.3724048" lon="14.135507"><ele>31.0</ele><time>2026-05-03T11:30:06.019Z</time></trkpt><trkpt lat="42.3726524" lon="14.135584"><ele>31.0</ele><time>2026-05-03T11:30:07.018Z</time></trkpt><trkpt lat="42.3729046" lon="14.1356602"><ele>32.5</ele><time>2026-05-03T11:30:08.018Z</time></trkpt><trkpt lat="42.3731605" lon="14.1357408"><ele>34.0</ele><time>2026-05-03T11:30:09.018Z</time></trkpt><trkpt lat="42.3734174" lon="14.1358235"><ele>34.0</ele><time>2026-05-03T11:30:10.018Z</time></trkpt><trkpt lat="42.3736752" lon="14.1359067"><ele>34.0</ele><time>2026-05-03T11:30:11.018Z</time></trkpt><trkpt lat="42.3739348" lon="14.1359862"><ele>33.0</ele><time>2026-05-03T11:30:12.018Z</time></trkpt><trkpt lat="42.3741961" lon="14.1360648"><ele>32.0</ele><time>2026-05-03T11:30:13.018Z</time></trkpt><trkpt lat="42.3744577" lon="14.1361413"><ele>32.0</ele><time>2026-05-03T11:30:14.018Z</time></trkpt><trkpt lat="42.3747186" lon="14.1362201"><ele>32.0</ele><time>2026-05-03T11:30:15.018Z</time></trkpt><trkpt lat="42.3749785" lon="14.1363027"><ele>32.0</ele><time>2026-05-03T11:30:16.018Z</time></trkpt><trkpt lat="42.3752398" lon="14.1363819"><ele>32.0</ele><time>2026-05-03T11:30:17.018Z</time></trkpt><trkpt lat="42.3754993" lon="14.1364617"><ele>31.5</ele><time>2026-05-03T11:30:18.018Z</time></trkpt><trkpt lat="42.375758" lon="14.1365466"><ele>31.0</ele><time>2026-05-03T11:30:19.018Z</time></trkpt><trkpt lat="42.3760178" lon="14.13663"><ele>31.0</ele><time>2026-05-03T11:30:20.018Z</time></trkpt><trkpt lat="42.3762732" lon="14.1367092"><ele>31.0</ele><time>2026-05-03T11:30:21.018Z</time></trkpt><trkpt lat="42.3765241" lon="14.1367882"><ele>31.0</ele><time>2026-05-03T11:30:22.018Z</time></trkpt><trkpt lat="42.3767732" lon="14.1368694"><ele>31.0</ele><time>2026-05-03T11:30:23.018Z</time></trkpt><trkpt lat="42.3770072" lon="14.136953"><ele>31.0</ele><time>2026-05-03T11:30:24.018Z</time></trkpt><trkpt lat="42.3772367" lon="14.1370327"><ele>31.0</ele><time>2026-05-03T11:30:25.018Z</time></trkpt><trkpt lat="42.3774637" lon="14.1371083"><ele>31.0</ele><time>2026-05-03T11:30:26.018Z</time></trkpt><trkpt lat="42.3776793" lon="14.1371834"><ele>31.0</ele><time>2026-05-03T11:30:27.018Z</time></trkpt><trkpt lat="42.3778967" lon="14.1372613"><ele>31.0</ele><time>2026-05-03T11:30:28.018Z</time></trkpt><trkpt lat="42.3781077" lon="14.1373341"><ele>31.333333333333336</ele><time>2026-05-03T11:30:29.018Z</time></trkpt><trkpt lat="42.3783157" lon="14.1374266"><ele>31.666666666666664</ele><time>2026-05-03T11:30:30.018Z</time></trkpt><trkpt lat="42.3785188" lon="14.1375195"><ele>32.0</ele><time>2026-05-03T11:30:31.018Z</time></trkpt><trkpt lat="42.378716" lon="14.137638"><ele>32.0</ele><time>2026-05-03T11:30:32.018Z</time></trkpt><trkpt lat="42.3789052" lon="14.1377717"><ele>32.0</ele><time>2026-05-03T11:30:33.018Z</time></trkpt><trkpt lat="42.3790904" lon="14.1379146"><ele>32.0</ele><time>2026-05-03T11:30:34.018Z</time></trkpt><trkpt lat="42.3792741" lon="14.1380725"><ele>32.0</ele><time>2026-05-03T11:30:35.019Z</time></trkpt><trkpt lat="42.3794529" lon="14.1382413"><ele>32.0</ele><time>2026-05-03T11:30:36.018Z</time></trkpt><trkpt lat="42.3796254" lon="14.1384264"><ele>32.0</ele><time>2026-05-03T11:30:37.018Z</time></trkpt><trkpt lat="42.3797889" lon="14.1386227"><ele>32.0</ele><time>2026-05-03T11:30:38.018Z</time></trkpt><trkpt lat="42.3799467" lon="14.1388349"><ele>32.0</ele><time>2026-05-03T11:30:39.018Z</time></trkpt><trkpt lat="42.3800931" lon="14.1390622"><ele>32.0</ele><time>2026-05-03T11:30:40.018Z</time></trkpt><trkpt lat="42.3802333" lon="14.1393005"><ele>31.5</ele><time>2026-05-03T11:30:41.018Z</time></trkpt><trkpt lat="42.380361" lon="14.1395521"><ele>31.0</ele><time>2026-05-03T11:30:42.018Z</time></trkpt><trkpt lat="42.3804798" lon="14.1398168"><ele>31.0</ele><time>2026-05-03T11:30:43.018Z</time></trkpt><trkpt lat="42.3805862" lon="14.1400919"><ele>31.0</ele><time>2026-05-03T11:30:44.018Z</time></trkpt><trkpt lat="42.3806816" lon="14.1403747"><ele>31.0</ele><time>2026-05-03T11:30:45.018Z</time></trkpt><trkpt lat="42.3807648" lon="14.1406656"><ele>31.0</ele><time>2026-05-03T11:30:46.018Z</time></trkpt><trkpt lat="42.3808353" lon="14.1409638"><ele>31.0</ele><time>2026-05-03T11:30:47.018Z</time></trkpt><trkpt lat="42.3808948" lon="14.1412684"><ele>31.0</ele><time>2026-05-03T11:30:48.018Z</time></trkpt><trkpt lat="42.3809395" lon="14.1415804"><ele>31.0</ele><time>2026-05-03T11:30:49.018Z</time></trkpt><trkpt lat="42.3809711" lon="14.1418974"><ele>31.0</ele><time>2026-05-03T11:30:50.018Z</time></trkpt><trkpt lat="42.3809939" lon="14.1422161"><ele>31.0</ele><time>2026-05-03T11:30:51.018Z</time></trkpt><trkpt lat="42.3810111" lon="14.1425381"><ele>31.0</ele><time>2026-05-03T11:30:52.018Z</time></trkpt><trkpt lat="42.3810239" lon="14.1428597"><ele>31.0</ele><time>2026-05-03T11:30:53.018Z</time></trkpt><trkpt lat="42.3810351" lon="14.1431796"><ele>31.0</ele><time>2026-05-03T11:30:54.019Z</time></trkpt><trkpt lat="42.3810466" lon="14.1434954"><ele>30.5</ele><time>2026-05-03T11:30:55.018Z</time></trkpt><trkpt lat="42.3810573" lon="14.1438086"><ele>30.0</ele><time>2026-05-03T11:30:56.018Z</time></trkpt><trkpt lat="42.3810658" lon="14.144117"><ele>29.5</ele><time>2026-05-03T11:30:57.018Z</time></trkpt><trkpt lat="42.3810737" lon="14.1444243"><ele>29.0</ele><time>2026-05-03T11:30:58.018Z</time></trkpt><trkpt lat="42.3810831" lon="14.1447296"><ele>29.333333333333332</ele><time>2026-05-03T11:30:59.018Z</time></trkpt><trkpt lat="42.3810934" lon="14.1450338"><ele>29.666666666666664</ele><time>2026-05-03T11:31:00.018Z</time></trkpt><trkpt lat="42.3810995" lon="14.1453349"><ele>30.0</ele><time>2026-05-03T11:31:01.018Z</time></trkpt><trkpt lat="42.3811074" lon="14.1456368"><ele>29.666666666666664</ele><time>2026-05-03T11:31:02.018Z</time></trkpt><trkpt lat="42.3811166" lon="14.1459375"><ele>29.333333333333332</ele><time>2026-05-03T11:31:03.018Z</time></trkpt><trkpt lat="42.3811289" lon="14.1462392"><ele>29.0</ele><time>2026-05-03T11:31:04.019Z</time></trkpt><trkpt lat="42.3811434" lon="14.1465405"><ele>29.666666666666664</ele><time>2026-05-03T11:31:05.018Z</time></trkpt><trkpt lat="42.3811623" lon="14.1468417"><ele>30.333333333333336</ele><time>2026-05-03T11:31:06.018Z</time></trkpt><trkpt lat="42.3811939" lon="14.1471399"><ele>31.0</ele><time>2026-05-03T11:31:07.018Z</time></trkpt><trkpt lat="42.3812354" lon="14.1474371"><ele>31.333333333333336</ele><time>2026-05-03T11:31:08.018Z</time></trkpt><trkpt lat="42.3812897" lon="14.1477317"><ele>31.666666666666664</ele><time>2026-05-03T11:31:09.018Z</time></trkpt><trkpt lat="42.3813475" lon="14.1480184"><ele>32.0</ele><time>2026-05-03T11:31:10.018Z</time></trkpt><trkpt lat="42.3814163" lon="14.1483098"><ele>31.666666666666664</ele><time>2026-05-03T11:31:11.018Z</time></trkpt><trkpt lat="42.3814985" lon="14.1485969"><ele>31.333333333333336</ele><time>2026-05-03T11:31:12.018Z</time></trkpt><trkpt lat="42.3815839" lon="14.1488694"><ele>31.0</ele><time>2026-05-03T11:31:13.018Z</time></trkpt><trkpt lat="42.3816772" lon="14.1491319"><ele>31.0</ele><time>2026-05-03T11:31:14.018Z</time></trkpt><trkpt lat="42.381786" lon="14.1493817"><ele>31.0</ele><time>2026-05-03T11:31:15.018Z</time></trkpt><trkpt lat="42.3819084" lon="14.1496199"><ele>31.0</ele><time>2026-05-03T11:31:16.019Z</time></trkpt><trkpt lat="42.3820409" lon="14.1498482"><ele>30.0</ele><time>2026-05-03T11:31:17.018Z</time></trkpt><trkpt lat="42.3821835" lon="14.1500706"><ele>29.0</ele><time>2026-05-03T11:31:18.018Z</time></trkpt><trkpt lat="42.382334" lon="14.1502812"><ele>28.0</ele><time>2026-05-03T11:31:19.018Z</time></trkpt><trkpt lat="42.3824877" lon="14.1504757"><ele>28.0</ele><time>2026-05-03T11:31:20.018Z</time></trkpt><trkpt lat="42.3826611" lon="14.1506533"><ele>28.0</ele><time>2026-05-03T11:31:21.018Z</time></trkpt><trkpt lat="42.3828341" lon="14.1508301"><ele>28.0</ele><time>2026-05-03T11:31:22.018Z</time></trkpt><trkpt lat="42.3830093" lon="14.1509998"><ele>28.333333333333336</ele><time>2026-05-03T11:31:23.018Z</time></trkpt><trkpt lat="42.3831852" lon="14.1511667"><ele>28.666666666666664</ele><time>2026-05-03T11:31:24.018Z</time></trkpt><trkpt lat="42.3833656" lon="14.1513344"><ele>29.0</ele><time>2026-05-03T11:31:25.018Z</time></trkpt><trkpt lat="42.3835474" lon="14.1515021"><ele>29.333333333333332</ele><time>2026-05-03T11:31:26.018Z</time></trkpt><trkpt lat="42.3837266" lon="14.1516717"><ele>29.666666666666664</ele><time>2026-05-03T11:31:27.018Z</time></trkpt><trkpt lat="42.3839062" lon="14.1518391"><ele>30.0</ele><time>2026-05-03T11:31:28.018Z</time></trkpt><trkpt lat="42.384089" lon="14.1519931"><ele>30.0</ele><time>2026-05-03T11:31:29.018Z</time></trkpt><trkpt lat="42.3842741" lon="14.1521364"><ele>30.0</ele><time>2026-05-03T11:31:30.018Z</time></trkpt><trkpt lat="42.3844563" lon="14.1522669"><ele>30.0</ele><time>2026-05-03T11:31:31.019Z</time></trkpt><trkpt lat="42.3846386" lon="14.1523838"><ele>31.333333333333336</ele><time>2026-05-03T11:31:32.018Z</time></trkpt><trkpt lat="42.3848223" lon="14.1524846"><ele>32.66666666666667</ele><time>2026-05-03T11:31:33.018Z</time></trkpt><trkpt lat="42.3850221" lon="14.1525806"><ele>34.0</ele><time>2026-05-03T11:31:34.018Z</time></trkpt><trkpt lat="42.3852409" lon="14.1526752"><ele>34.0</ele><time>2026-05-03T11:31:35.018Z</time></trkpt><trkpt lat="42.38547" lon="14.1527801"><ele>34.0</ele><time>2026-05-03T11:31:36.019Z</time></trkpt><trkpt lat="42.3857105" lon="14.1528861"><ele>31.0</ele><time>2026-05-03T11:31:37.018Z</time></trkpt><trkpt lat="42.3859633" lon="14.152995"><ele>28.0</ele><time>2026-05-03T11:31:38.018Z</time></trkpt><trkpt lat="42.3862259" lon="14.1531116"><ele>30.0</ele><time>2026-05-03T11:31:39.018Z</time></trkpt><trkpt lat="42.3864951" lon="14.1532216"><ele>32.0</ele><time>2026-05-03T11:31:40.018Z</time></trkpt><trkpt lat="42.3867605" lon="14.1533229"><ele>32.0</ele><time>2026-05-03T11:31:41.018Z</time></trkpt><trkpt lat="42.38702" lon="14.1534173"><ele>32.0</ele><time>2026-05-03T11:31:42.018Z</time></trkpt><trkpt lat="42.3872719" lon="14.1535053"><ele>30.5</ele><time>2026-05-03T11:31:43.018Z</time></trkpt><trkpt lat="42.3875194" lon="14.153589"><ele>29.0</ele><time>2026-05-03T11:31:44.018Z</time></trkpt><trkpt lat="42.3877677" lon="14.1536679"><ele>29.0</ele><time>2026-05-03T11:31:45.019Z</time></trkpt><trkpt lat="42.3880075" lon="14.1537485"><ele>29.0</ele><time>2026-05-03T11:31:46.018Z</time></trkpt><trkpt lat="42.3882501" lon="14.1538348"><ele>28.0</ele><time>2026-05-03T11:31:47.018Z</time></trkpt><trkpt lat="42.388489" lon="14.1539253"><ele>27.0</ele><time>2026-05-03T11:31:48.018Z</time></trkpt><trkpt lat="42.3887281" lon="14.1540228"><ele>28.0</ele><time>2026-05-03T11:31:49.018Z</time></trkpt><trkpt lat="42.3889674" lon="14.1541251"><ele>29.0</ele><time>2026-05-03T11:31:50.018Z</time></trkpt><trkpt lat="42.3892039" lon="14.1542461"><ele>29.0</ele><time>2026-05-03T11:31:51.018Z</time></trkpt><trkpt lat="42.389438" lon="14.1543849"><ele>29.0</ele><time>2026-05-03T11:31:52.018Z</time></trkpt><trkpt lat="42.3896692" lon="14.1545364"><ele>28.5</ele><time>2026-05-03T11:31:53.018Z</time></trkpt><trkpt lat="42.389895" lon="14.1547077"><ele>28.0</ele><time>2026-05-03T11:31:54.018Z</time></trkpt><trkpt lat="42.3901167" lon="14.1548934"><ele>28.0</ele><time>2026-05-03T11:31:55.018Z</time></trkpt><trkpt lat="42.3903335" lon="14.1550934"><ele>28.0</ele><time>2026-05-03T11:31:56.018Z</time></trkpt><trkpt lat="42.390543" lon="14.1553098"><ele>26.0</ele><time>2026-05-03T11:31:57.018Z</time></trkpt><trkpt lat="42.390749" lon="14.1555326"><ele>24.0</ele><time>2026-05-03T11:31:58.018Z</time></trkpt><trkpt lat="42.3909572" lon="14.1557594"><ele>24.0</ele><time>2026-05-03T11:31:59.018Z</time></trkpt><trkpt lat="42.3911643" lon="14.1559858"><ele>24.0</ele><time>2026-05-03T11:32:00.018Z</time></trkpt><trkpt lat="42.3913722" lon="14.1562127"><ele>21.5</ele><time>2026-05-03T11:32:01.018Z</time></trkpt><trkpt lat="42.3915772" lon="14.1564352"><ele>19.0</ele><time>2026-05-03T11:32:02.018Z</time></trkpt><trkpt lat="42.3917841" lon="14.1566567"><ele>19.0</ele><time>2026-05-03T11:32:03.018Z</time></trkpt><trkpt lat="42.3919882" lon="14.1568779"><ele>19.0</ele><time>2026-05-03T11:32:04.018Z</time></trkpt><trkpt lat="42.3921907" lon="14.1570982"><ele>19.0</ele><time>2026-05-03T11:32:05.018Z</time></trkpt><trkpt lat="42.3923892" lon="14.1573175"><ele>19.0</ele><time>2026-05-03T11:32:06.017Z</time></trkpt><trkpt lat="42.392587" lon="14.1575334"><ele>18.5</ele><time>2026-05-03T11:32:07.018Z</time></trkpt><trkpt lat="42.392785" lon="14.1577465"><ele>18.0</ele><time>2026-05-03T11:32:08.018Z</time></trkpt><trkpt lat="42.3929838" lon="14.1579596"><ele>18.5</ele><time>2026-05-03T11:32:09.018Z</time></trkpt><trkpt lat="42.3931838" lon="14.1581741"><ele>19.0</ele><time>2026-05-03T11:32:10.019Z</time></trkpt><trkpt lat="42.3933851" lon="14.1583902"><ele>20.0</ele><time>2026-05-03T11:32:11.019Z</time></trkpt><trkpt lat="42.3935834" lon="14.1586065"><ele>21.0</ele><time>2026-05-03T11:32:12.018Z</time></trkpt><trkpt lat="42.3937774" lon="14.1588206"><ele>21.0</ele><time>2026-05-03T11:32:13.018Z</time></trkpt><trkpt lat="42.3939737" lon="14.1590331"><ele>21.0</ele><time>2026-05-03T11:32:14.019Z</time></trkpt><trkpt lat="42.3941779" lon="14.1592459"><ele>23.5</ele><time>2026-05-03T11:32:15.018Z</time></trkpt><trkpt lat="42.3943832" lon="14.1594612"><ele>26.0</ele><time>2026-05-03T11:32:16.018Z</time></trkpt><trkpt lat="42.3946008" lon="14.1596801"><ele>25.5</ele><time>2026-05-03T11:32:17.018Z</time></trkpt><trkpt lat="42.3948092" lon="14.1599013"><ele>25.0</ele><time>2026-05-03T11:32:18.018Z</time></trkpt><trkpt lat="42.3950209" lon="14.1601259"><ele>25.0</ele><time>2026-05-03T11:32:19.018Z</time></trkpt><trkpt lat="42.3952335" lon="14.1603511"><ele>25.0</ele><time>2026-05-03T11:32:20.018Z</time></trkpt><trkpt lat="42.3954523" lon="14.1605726"><ele>26.0</ele><time>2026-05-03T11:32:21.018Z</time></trkpt><trkpt lat="42.3956773" lon="14.1607876"><ele>27.0</ele><time>2026-05-03T11:32:22.018Z</time></trkpt><trkpt lat="42.3959052" lon="14.1609982"><ele>27.0</ele><time>2026-05-03T11:32:23.018Z</time></trkpt><trkpt lat="42.3961401" lon="14.1612046"><ele>27.0</ele><time>2026-05-03T11:32:24.018Z</time></trkpt><trkpt lat="42.3963785" lon="14.1614"><ele>25.5</ele><time>2026-05-03T11:32:25.018Z</time></trkpt><trkpt lat="42.39662" lon="14.1615999"><ele>24.0</ele><time>2026-05-03T11:32:26.018Z</time></trkpt><trkpt lat="42.3968675" lon="14.1617912"><ele>24.0</ele><time>2026-05-03T11:32:27.018Z</time></trkpt><trkpt lat="42.397118" lon="14.161973"><ele>24.0</ele><time>2026-05-03T11:32:28.019Z</time></trkpt><trkpt lat="42.3973742" lon="14.1621435"><ele>23.0</ele><time>2026-05-03T11:32:29.018Z</time></trkpt><trkpt lat="42.3976287" lon="14.1623054"><ele>22.0</ele><time>2026-05-03T11:32:30.018Z</time></trkpt><trkpt lat="42.3978818" lon="14.1624653"><ele>21.5</ele><time>2026-05-03T11:32:31.018Z</time></trkpt><trkpt lat="42.3981363" lon="14.1626247"><ele>21.0</ele><time>2026-05-03T11:32:32.018Z</time></trkpt><trkpt lat="42.3983896" lon="14.1627836"><ele>21.0</ele><time>2026-05-03T11:32:33.018Z</time></trkpt><trkpt lat="42.3986395" lon="14.1629385"><ele>21.0</ele><time>2026-05-03T11:32:34.018Z</time></trkpt><trkpt lat="42.3988848" lon="14.1630976"><ele>22.5</ele><time>2026-05-03T11:32:35.018Z</time></trkpt><trkpt lat="42.3991344" lon="14.1632401"><ele>24.0</ele><time>2026-05-03T11:32:36.018Z</time></trkpt><trkpt lat="42.3993896" lon="14.163385"><ele>24.0</ele><time>2026-05-03T11:32:37.018Z</time></trkpt><trkpt lat="42.3996466" lon="14.163535"><ele>24.0</ele><time>2026-05-03T11:32:38.018Z</time></trkpt><trkpt lat="42.3999052" lon="14.163686"><ele>23.5</ele><time>2026-05-03T11:32:39.018Z</time></trkpt><trkpt lat="42.4001631" lon="14.1638355"><ele>23.0</ele><time>2026-05-03T11:32:40.018Z</time></trkpt><trkpt lat="42.4004248" lon="14.1639715"><ele>23.5</ele><time>2026-05-03T11:32:41.018Z</time></trkpt><trkpt lat="42.4006904" lon="14.1640829"><ele>24.0</ele><time>2026-05-03T11:32:42.018Z</time></trkpt><trkpt lat="42.4009554" lon="14.1641715"><ele>24.0</ele><time>2026-05-03T11:32:43.018Z</time></trkpt><trkpt lat="42.4012238" lon="14.1642321"><ele>24.0</ele><time>2026-05-03T11:32:44.018Z</time></trkpt><trkpt lat="42.4014963" lon="14.1642608"><ele>24.0</ele><time>2026-05-03T11:32:45.018Z</time></trkpt><trkpt lat="42.4017703" lon="14.1642602"><ele>24.0</ele><time>2026-05-03T11:32:46.018Z</time></trkpt><trkpt lat="42.402056" lon="14.1642233"><ele>23.0</ele><time>2026-05-03T11:32:47.018Z</time></trkpt><trkpt lat="42.4023322" lon="14.1641735"><ele>22.0</ele><time>2026-05-03T11:32:48.018Z</time></trkpt><trkpt lat="42.4026145" lon="14.1640798"><ele>22.0</ele><time>2026-05-03T11:32:49.018Z</time></trkpt><trkpt lat="42.4028856" lon="14.1639699"><ele>22.0</ele><time>2026-05-03T11:32:50.018Z</time></trkpt><trkpt lat="42.4031534" lon="14.1638332"><ele>22.5</ele><time>2026-05-03T11:32:51.018Z</time></trkpt><trkpt lat="42.4034176" lon="14.1636794"><ele>23.0</ele><time>2026-05-03T11:32:52.018Z</time></trkpt><trkpt lat="42.4036799" lon="14.1635179"><ele>23.5</ele><time>2026-05-03T11:32:53.019Z</time></trkpt><trkpt lat="42.4039444" lon="14.1633608"><ele>24.0</ele><time>2026-05-03T11:32:54.018Z</time></trkpt><trkpt lat="42.4042051" lon="14.1631987"><ele>23.0</ele><time>2026-05-03T11:32:55.018Z</time></trkpt><trkpt lat="42.4044672" lon="14.163032"><ele>22.0</ele><time>2026-05-03T11:32:56.018Z</time></trkpt><trkpt lat="42.4047325" lon="14.1628718"><ele>21.5</ele><time>2026-05-03T11:32:57.018Z</time></trkpt><trkpt lat="42.4049989" lon="14.1627114"><ele>21.0</ele><time>2026-05-03T11:32:58.018Z</time></trkpt><trkpt lat="42.4052691" lon="14.162559"><ele>21.0</ele><time>2026-05-03T11:32:59.018Z</time></trkpt><trkpt lat="42.4055399" lon="14.1624198"><ele>21.0</ele><time>2026-05-03T11:33:00.018Z</time></trkpt><trkpt lat="42.4058172" lon="14.1622992"><ele>21.5</ele><time>2026-05-03T11:33:01.018Z</time></trkpt><trkpt lat="42.4060954" lon="14.1621975"><ele>22.0</ele><time>2026-05-03T11:33:02.018Z</time></trkpt><trkpt lat="42.4063782" lon="14.1621112"><ele>22.0</ele><time>2026-05-03T11:33:03.019Z</time></trkpt><trkpt lat="42.4066617" lon="14.1620432"><ele>22.0</ele><time>2026-05-03T11:33:04.018Z</time></trkpt><trkpt lat="42.406947" lon="14.1619966"><ele>22.0</ele><time>2026-05-03T11:33:05.018Z</time></trkpt><trkpt lat="42.4072322" lon="14.1619707"><ele>22.0</ele><time>2026-05-03T11:33:06.018Z</time></trkpt><trkpt lat="42.4075155" lon="14.161963"><ele>22.0</ele><time>2026-05-03T11:33:07.018Z</time></trkpt><trkpt lat="42.4077973" lon="14.1619803"><ele>22.0</ele><time>2026-05-03T11:33:08.018Z</time></trkpt><trkpt lat="42.408079" lon="14.1620178"><ele>22.5</ele><time>2026-05-03T11:33:09.018Z</time></trkpt><trkpt lat="42.4083569" lon="14.1620669"><ele>23.0</ele><time>2026-05-03T11:33:10.018Z</time></trkpt><trkpt lat="42.4086317" lon="14.1621384"><ele>22.0</ele><time>2026-05-03T11:33:11.018Z</time></trkpt><trkpt lat="42.4089005" lon="14.1622311"><ele>21.0</ele><time>2026-05-03T11:33:12.018Z</time></trkpt><trkpt lat="42.4091655" lon="14.1623441"><ele>21.0</ele><time>2026-05-03T11:33:13.018Z</time></trkpt><trkpt lat="42.4094238" lon="14.1624683"><ele>21.0</ele><time>2026-05-03T11:33:14.018Z</time></trkpt><trkpt lat="42.4096742" lon="14.1626149"><ele>21.0</ele><time>2026-05-03T11:33:15.018Z</time></trkpt><trkpt lat="42.4099266" lon="14.1627685"><ele>21.0</ele><time>2026-05-03T11:33:16.018Z</time></trkpt><trkpt lat="42.4101743" lon="14.1629243"><ele>21.0</ele><time>2026-05-03T11:33:17.018Z</time></trkpt><trkpt lat="42.4104233" lon="14.1630776"><ele>21.0</ele><time>2026-05-03T11:33:18.018Z</time></trkpt><trkpt lat="42.4106692" lon="14.1632329"><ele>19.5</ele><time>2026-05-03T11:33:19.018Z</time></trkpt><trkpt lat="42.4109139" lon="14.1633852"><ele>18.0</ele><time>2026-05-03T11:33:20.018Z</time></trkpt><trkpt lat="42.411163" lon="14.1635343"><ele>18.0</ele><time>2026-05-03T11:33:21.018Z</time></trkpt><trkpt lat="42.4114123" lon="14.1636822"><ele>18.0</ele><time>2026-05-03T11:33:22.018Z</time></trkpt><trkpt lat="42.4116622" lon="14.1638367"><ele>18.0</ele><time>2026-05-03T11:33:23.018Z</time></trkpt><trkpt lat="42.4119096" lon="14.1639908"><ele>18.0</ele><time>2026-05-03T11:33:24.018Z</time></trkpt><trkpt lat="42.4121565" lon="14.1641451"><ele>17.5</ele><time>2026-05-03T11:33:25.018Z</time></trkpt><trkpt lat="42.4124023" lon="14.1643018"><ele>17.0</ele><time>2026-05-03T11:33:26.018Z</time></trkpt><trkpt lat="42.412648" lon="14.164458"><ele>17.0</ele><time>2026-05-03T11:33:27.018Z</time></trkpt><trkpt lat="42.4128913" lon="14.1646199"><ele>17.0</ele><time>2026-05-03T11:33:28.018Z</time></trkpt><trkpt lat="42.4131315" lon="14.164785"><ele>17.0</ele><time>2026-05-03T11:33:29.018Z</time></trkpt><trkpt lat="42.4133713" lon="14.164951"><ele>17.0</ele><time>2026-05-03T11:33:30.018Z</time></trkpt><trkpt lat="42.413611" lon="14.1651155"><ele>18.5</ele><time>2026-05-03T11:33:31.018Z</time></trkpt><trkpt lat="42.4138532" lon="14.1652823"><ele>20.0</ele><time>2026-05-03T11:33:32.018Z</time></trkpt><trkpt lat="42.4140939" lon="14.1654501"><ele>20.0</ele><time>2026-05-03T11:33:33.018Z</time></trkpt><trkpt lat="42.4143336" lon="14.1656174"><ele>20.0</ele><time>2026-05-03T11:33:34.018Z</time></trkpt><trkpt lat="42.414574" lon="14.1657852"><ele>19.0</ele><time>2026-05-03T11:33:35.018Z</time></trkpt><trkpt lat="42.4148176" lon="14.165953"><ele>18.0</ele><time>2026-05-03T11:33:36.018Z</time></trkpt><trkpt lat="42.4150641" lon="14.166116"><ele>18.0</ele><time>2026-05-03T11:33:37.018Z</time></trkpt><trkpt lat="42.4153085" lon="14.166279"><ele>18.0</ele><time>2026-05-03T11:33:38.019Z</time></trkpt><trkpt lat="42.4155538" lon="14.1664401"><ele>16.5</ele><time>2026-05-03T11:33:39.018Z</time></trkpt><trkpt lat="42.415798" lon="14.1666044"><ele>15.0</ele><time>2026-05-03T11:33:40.018Z</time></trkpt><trkpt lat="42.416034" lon="14.1667729"><ele>15.0</ele><time>2026-05-03T11:33:41.018Z</time></trkpt><trkpt lat="42.4162703" lon="14.1669402"><ele>15.0</ele><time>2026-05-03T11:33:42.018Z</time></trkpt><trkpt lat="42.4165052" lon="14.1671066"><ele>15.5</ele><time>2026-05-03T11:33:43.018Z</time></trkpt><trkpt lat="42.416736" lon="14.1672694"><ele>16.0</ele><time>2026-05-03T11:33:44.018Z</time></trkpt><trkpt lat="42.41697" lon="14.167426"><ele>17.0</ele><time>2026-05-03T11:33:45.019Z</time></trkpt><trkpt lat="42.4172088" lon="14.1675791"><ele>18.0</ele><time>2026-05-03T11:33:46.018Z</time></trkpt><trkpt lat="42.4174476" lon="14.1677362"><ele>18.0</ele><time>2026-05-03T11:33:47.018Z</time></trkpt><trkpt lat="42.4176857" lon="14.1678941"><ele>18.0</ele><time>2026-05-03T11:33:48.019Z</time></trkpt><trkpt lat="42.417928" lon="14.1680563"><ele>17.5</ele><time>2026-05-03T11:33:49.018Z</time></trkpt><trkpt lat="42.4181689" lon="14.1682172"><ele>17.0</ele><time>2026-05-03T11:33:50.018Z</time></trkpt><trkpt lat="42.4184081" lon="14.1683786"><ele>17.0</ele><time>2026-05-03T11:33:51.018Z</time></trkpt><trkpt lat="42.4186468" lon="14.1685358"><ele>17.0</ele><time>2026-05-03T11:33:52.018Z</time></trkpt><trkpt lat="42.4188842" lon="14.1686978"><ele>17.0</ele><time>2026-05-03T11:33:53.018Z</time></trkpt><trkpt lat="42.4191181" lon="14.1688557"><ele>17.0</ele><time>2026-05-03T11:33:54.018Z</time></trkpt><trkpt lat="42.4193369" lon="14.1690196"><ele>15.5</ele><time>2026-05-03T11:33:55.018Z</time></trkpt><trkpt lat="42.4195703" lon="14.1691796"><ele>14.0</ele><time>2026-05-03T11:33:56.018Z</time></trkpt><trkpt lat="42.4198096" lon="14.1693448"><ele>14.0</ele><time>2026-05-03T11:33:57.018Z</time></trkpt><trkpt lat="42.4200466" lon="14.1695095"><ele>14.0</ele><time>2026-05-03T11:33:58.018Z</time></trkpt><trkpt lat="42.4202795" lon="14.1696735"><ele>14.0</ele><time>2026-05-03T11:33:59.018Z</time></trkpt><trkpt lat="42.4205141" lon="14.1698343"><ele>14.0</ele><time>2026-05-03T11:34:00.018Z</time></trkpt><trkpt lat="42.4207442" lon="14.1699916"><ele>15.5</ele><time>2026-05-03T11:34:01.018Z</time></trkpt><trkpt lat="42.420969" lon="14.1701458"><ele>17.0</ele><time>2026-05-03T11:34:02.019Z</time></trkpt><trkpt lat="42.4211847" lon="14.1703004"><ele>16.5</ele><time>2026-05-03T11:34:03.018Z</time></trkpt><trkpt lat="42.4214007" lon="14.1704499"><ele>16.0</ele><time>2026-05-03T11:34:04.018Z</time></trkpt><trkpt lat="42.4216167" lon="14.1705991"><ele>16.5</ele><time>2026-05-03T11:34:05.018Z</time></trkpt><trkpt lat="42.421832" lon="14.1707489"><ele>17.0</ele><time>2026-05-03T11:34:06.018Z</time></trkpt><trkpt lat="42.4220436" lon="14.1708997"><ele>18.5</ele><time>2026-05-03T11:34:07.018Z</time></trkpt><trkpt lat="42.4222584" lon="14.1710535"><ele>20.0</ele><time>2026-05-03T11:34:08.018Z</time></trkpt><trkpt lat="42.4224793" lon="14.1712127"><ele>20.0</ele><time>2026-05-03T11:34:09.018Z</time></trkpt><trkpt lat="42.4227032" lon="14.1713797"><ele>20.0</ele><time>2026-05-03T11:34:10.018Z</time></trkpt><trkpt lat="42.4229266" lon="14.1715565"><ele>17.5</ele><time>2026-05-03T11:34:11.018Z</time></trkpt><trkpt lat="42.4231473" lon="14.1717462"><ele>15.0</ele><time>2026-05-03T11:34:12.018Z</time></trkpt><trkpt lat="42.4233635" lon="14.171943"><ele>15.0</ele><time>2026-05-03T11:34:13.018Z</time></trkpt><trkpt lat="42.4235747" lon="14.1721468"><ele>15.0</ele><time>2026-05-03T11:34:14.018Z</time></trkpt><trkpt lat="42.4237837" lon="14.1723574"><ele>14.5</ele><time>2026-05-03T11:34:15.018Z</time></trkpt><trkpt lat="42.423991" lon="14.1725757"><ele>14.0</ele><time>2026-05-03T11:34:16.018Z</time></trkpt><trkpt lat="42.4241964" lon="14.1727943"><ele>14.0</ele><time>2026-05-03T11:34:17.018Z</time></trkpt><trkpt lat="42.4244027" lon="14.1730138"><ele>14.0</ele><time>2026-05-03T11:34:18.018Z</time></trkpt><trkpt lat="42.4246064" lon="14.1732334"><ele>14.5</ele><time>2026-05-03T11:34:19.018Z</time></trkpt><trkpt lat="42.424809" lon="14.1734484"><ele>15.0</ele><time>2026-05-03T11:34:20.019Z</time></trkpt><trkpt lat="42.4250123" lon="14.173658"><ele>15.0</ele><time>2026-05-03T11:34:21.018Z</time></trkpt><trkpt lat="42.4252147" lon="14.1738648"><ele>15.0</ele><time>2026-05-03T11:34:22.018Z</time></trkpt><trkpt lat="42.4254189" lon="14.1740734"><ele>15.0</ele><time>2026-05-03T11:34:23.019Z</time></trkpt><trkpt lat="42.4256251" lon="14.1742754"><ele>15.0</ele><time>2026-05-03T11:34:24.019Z</time></trkpt><trkpt lat="42.4258384" lon="14.1744816"><ele>15.0</ele><time>2026-05-03T11:34:25.018Z</time></trkpt><trkpt lat="42.4260526" lon="14.1746925"><ele>15.0</ele><time>2026-05-03T11:34:26.018Z</time></trkpt><trkpt lat="42.4262696" lon="14.1749048"><ele>14.0</ele><time>2026-05-03T11:34:27.018Z</time></trkpt><trkpt lat="42.4264889" lon="14.1751157"><ele>13.0</ele><time>2026-05-03T11:34:28.018Z</time></trkpt><trkpt lat="42.4267084" lon="14.1753324"><ele>13.0</ele><time>2026-05-03T11:34:29.018Z</time></trkpt><trkpt lat="42.4269252" lon="14.1755556"><ele>13.0</ele><time>2026-05-03T11:34:30.018Z</time></trkpt><trkpt lat="42.4271413" lon="14.1757796"><ele>14.0</ele><time>2026-05-03T11:34:31.018Z</time></trkpt><trkpt lat="42.4273585" lon="14.1760058"><ele>15.0</ele><time>2026-05-03T11:34:32.018Z</time></trkpt><trkpt lat="42.4275775" lon="14.1762255"><ele>15.0</ele><time>2026-05-03T11:34:33.018Z</time></trkpt><trkpt lat="42.4277913" lon="14.1764431"><ele>15.0</ele><time>2026-05-03T11:34:34.018Z</time></trkpt><trkpt lat="42.4280095" lon="14.1766523"><ele>14.0</ele><time>2026-05-03T11:34:35.018Z</time></trkpt><trkpt lat="42.428227" lon="14.176857"><ele>13.0</ele><time>2026-05-03T11:34:36.018Z</time></trkpt><trkpt lat="42.4284478" lon="14.1770575"><ele>13.0</ele><time>2026-05-03T11:34:37.018Z</time></trkpt><trkpt lat="42.4286753" lon="14.1772502"><ele>13.0</ele><time>2026-05-03T11:34:38.018Z</time></trkpt><trkpt lat="42.4289045" lon="14.1774337"><ele>12.5</ele><time>2026-05-03T11:34:39.018Z</time></trkpt><trkpt lat="42.4291399" lon="14.1776089"><ele>12.0</ele><time>2026-05-03T11:34:40.018Z</time></trkpt><trkpt lat="42.4293824" lon="14.1777676"><ele>12.0</ele><time>2026-05-03T11:34:41.018Z</time></trkpt><trkpt lat="42.4296307" lon="14.1779181"><ele>12.0</ele><time>2026-05-03T11:34:42.018Z</time></trkpt><trkpt lat="42.4298798" lon="14.178061"><ele>11.0</ele><time>2026-05-03T11:34:43.018Z</time></trkpt><trkpt lat="42.4301318" lon="14.1781952"><ele>10.0</ele><time>2026-05-03T11:34:44.018Z</time></trkpt><trkpt lat="42.4303872" lon="14.1783249"><ele>10.0</ele><time>2026-05-03T11:34:45.018Z</time></trkpt><trkpt lat="42.4306407" lon="14.178451"><ele>10.0</ele><time>2026-05-03T11:34:46.018Z</time></trkpt><trkpt lat="42.4308871" lon="14.1785772"><ele>10.0</ele><time>2026-05-03T11:34:47.018Z</time></trkpt><trkpt lat="42.4311248" lon="14.1786961"><ele>10.0</ele><time>2026-05-03T11:34:48.018Z</time></trkpt><trkpt lat="42.43136" lon="14.1788155"><ele>10.5</ele><time>2026-05-03T11:34:49.018Z</time></trkpt><trkpt lat="42.4315885" lon="14.1789321"><ele>11.0</ele><time>2026-05-03T11:34:50.018Z</time></trkpt><trkpt lat="42.4318129" lon="14.1790455"><ele>11.0</ele><time>2026-05-03T11:34:51.018Z</time></trkpt><trkpt lat="42.4320335" lon="14.1791615"><ele>11.0</ele><time>2026-05-03T11:34:52.018Z</time></trkpt><trkpt lat="42.432253" lon="14.1792776"><ele>11.0</ele><time>2026-05-03T11:34:53.018Z</time></trkpt><trkpt lat="42.432466" lon="14.1794088"><ele>11.0</ele><time>2026-05-03T11:34:54.018Z</time></trkpt><trkpt lat="42.432685" lon="14.1795387"><ele>11.0</ele><time>2026-05-03T11:34:55.018Z</time></trkpt><trkpt lat="42.4329014" lon="14.1796767"><ele>11.0</ele><time>2026-05-03T11:34:56.018Z</time></trkpt><trkpt lat="42.4331185" lon="14.1798218"><ele>10.5</ele><time>2026-05-03T11:34:57.018Z</time></trkpt><trkpt lat="42.433334" lon="14.1799708"><ele>10.0</ele><time>2026-05-03T11:34:58.018Z</time></trkpt><trkpt lat="42.4335461" lon="14.1801241"><ele>10.0</ele><time>2026-05-03T11:34:59.018Z</time></trkpt><trkpt lat="42.4337551" lon="14.1802797"><ele>10.0</ele><time>2026-05-03T11:35:00.018Z</time></trkpt><trkpt lat="42.433968" lon="14.180438"><ele>10.0</ele><time>2026-05-03T11:35:01.018Z</time></trkpt><trkpt lat="42.4341788" lon="14.1806027"><ele>10.0</ele><time>2026-05-03T11:35:02.018Z</time></trkpt><trkpt lat="42.4343936" lon="14.1807684"><ele>10.5</ele><time>2026-05-03T11:35:03.018Z</time></trkpt><trkpt lat="42.4346058" lon="14.1809352"><ele>11.0</ele><time>2026-05-03T11:35:04.018Z</time></trkpt><trkpt lat="42.4348194" lon="14.1811034"><ele>11.0</ele><time>2026-05-03T11:35:05.018Z</time></trkpt><trkpt lat="42.4350321" lon="14.1812712"><ele>11.0</ele><time>2026-05-03T11:35:06.018Z</time></trkpt><trkpt lat="42.435248" lon="14.1814383"><ele>10.5</ele><time>2026-05-03T11:35:07.018Z</time></trkpt><trkpt lat="42.4354621" lon="14.1816021"><ele>10.0</ele><time>2026-05-03T11:35:08.018Z</time></trkpt><trkpt lat="42.4356791" lon="14.1817664"><ele>10.0</ele><time>2026-05-03T11:35:09.018Z</time></trkpt><trkpt lat="42.4358945" lon="14.1819247"><ele>10.0</ele><time>2026-05-03T11:35:10.018Z</time></trkpt><trkpt lat="42.4361073" lon="14.1820863"><ele>10.5</ele><time>2026-05-03T11:35:11.018Z</time></trkpt><trkpt lat="42.436321" lon="14.1822477"><ele>11.0</ele><time>2026-05-03T11:35:12.018Z</time></trkpt><trkpt lat="42.4365327" lon="14.1824115"><ele>11.0</ele><time>2026-05-03T11:35:13.018Z</time></trkpt><trkpt lat="42.4367412" lon="14.1825765"><ele>11.0</ele><time>2026-05-03T11:35:14.018Z</time></trkpt><trkpt lat="42.4369483" lon="14.1827392"><ele>12.0</ele><time>2026-05-03T11:35:15.018Z</time></trkpt><trkpt lat="42.4371575" lon="14.1828992"><ele>13.0</ele><time>2026-05-03T11:35:16.018Z</time></trkpt><trkpt lat="42.437363" lon="14.1830574"><ele>12.0</ele><time>2026-05-03T11:35:17.018Z</time></trkpt><trkpt lat="42.4375712" lon="14.1832158"><ele>11.0</ele><time>2026-05-03T11:35:18.018Z</time></trkpt><trkpt lat="42.4377757" lon="14.1833743"><ele>11.5</ele><time>2026-05-03T11:35:19.019Z</time></trkpt><trkpt lat="42.4379814" lon="14.1835305"><ele>12.0</ele><time>2026-05-03T11:35:20.019Z</time></trkpt><trkpt lat="42.438186" lon="14.1836863"><ele>12.0</ele><time>2026-05-03T11:35:21.019Z</time></trkpt><trkpt lat="42.438388" lon="14.183839"><ele>12.0</ele><time>2026-05-03T11:35:22.018Z</time></trkpt><trkpt lat="42.4385905" lon="14.1839907"><ele>12.0</ele><time>2026-05-03T11:35:23.018Z</time></trkpt><trkpt lat="42.438791" lon="14.184145"><ele>12.0</ele><time>2026-05-03T11:35:24.018Z</time></trkpt><trkpt lat="42.4389914" lon="14.1843001"><ele>12.0</ele><time>2026-05-03T11:35:25.018Z</time></trkpt><trkpt lat="42.4391922" lon="14.1844532"><ele>12.0</ele><time>2026-05-03T11:35:26.018Z</time></trkpt><trkpt lat="42.439394" lon="14.1846086"><ele>12.0</ele><time>2026-05-03T11:35:27.018Z</time></trkpt><trkpt lat="42.439593" lon="14.1847642"><ele>12.0</ele><time>2026-05-03T11:35:28.018Z</time></trkpt><trkpt lat="42.4397888" lon="14.1849204"><ele>11.5</ele><time>2026-05-03T11:35:29.018Z</time></trkpt><trkpt lat="42.43999" lon="14.1850744"><ele>11.0</ele><time>2026-05-03T11:35:30.018Z</time></trkpt><trkpt lat="42.4401917" lon="14.1852275"><ele>11.0</ele><time>2026-05-03T11:35:31.018Z</time></trkpt><trkpt lat="42.4403896" lon="14.1853817"><ele>11.0</ele><time>2026-05-03T11:35:32.018Z</time></trkpt><trkpt lat="42.440588" lon="14.1855351"><ele>11.0</ele><time>2026-05-03T11:35:33.018Z</time></trkpt><trkpt lat="42.4407882" lon="14.1856873"><ele>11.0</ele><time>2026-05-03T11:35:34.018Z</time></trkpt><trkpt lat="42.4409887" lon="14.1858406"><ele>11.0</ele><time>2026-05-03T11:35:35.018Z</time></trkpt><trkpt lat="42.4411876" lon="14.1859955"><ele>11.0</ele><time>2026-05-03T11:35:36.018Z</time></trkpt><trkpt lat="42.4413883" lon="14.1861504"><ele>11.5</ele><time>2026-05-03T11:35:37.018Z</time></trkpt><trkpt lat="42.441588" lon="14.1863053"><ele>12.0</ele><time>2026-05-03T11:35:38.018Z</time></trkpt><trkpt lat="42.441792" lon="14.186459"><ele>11.5</ele><time>2026-05-03T11:35:39.018Z</time></trkpt><trkpt lat="42.4419919" lon="14.1866121"><ele>11.0</ele><time>2026-05-03T11:35:40.019Z</time></trkpt><trkpt lat="42.4421925" lon="14.1867632"><ele>11.0</ele><time>2026-05-03T11:35:41.019Z</time></trkpt><trkpt lat="42.4423928" lon="14.1869162"><ele>11.0</ele><time>2026-05-03T11:35:42.018Z</time></trkpt><trkpt lat="42.4425923" lon="14.1870653"><ele>11.0</ele><time>2026-05-03T11:35:43.018Z</time></trkpt><trkpt lat="42.4427781" lon="14.1872135"><ele>11.0</ele><time>2026-05-03T11:35:44.018Z</time></trkpt><trkpt lat="42.4429595" lon="14.1873536"><ele>11.0</ele><time>2026-05-03T11:35:45.018Z</time></trkpt><trkpt lat="42.443127" lon="14.187485"><ele>11.0</ele><time>2026-05-03T11:35:46.019Z</time></trkpt><trkpt lat="42.4432864" lon="14.1876113"><ele>11.0</ele><time>2026-05-03T11:35:47.018Z</time></trkpt><trkpt lat="42.4434393" lon="14.1877355"><ele>11.0</ele><time>2026-05-03T11:35:48.018Z</time></trkpt><trkpt lat="42.4435746" lon="14.1878409"><ele>11.0</ele><time>2026-05-03T11:35:49.018Z</time></trkpt><trkpt lat="42.4437072" lon="14.1879446"><ele>11.0</ele><time>2026-05-03T11:35:50.019Z</time></trkpt><trkpt lat="42.4438336" lon="14.188044"><ele>11.0</ele><time>2026-05-03T11:35:51.018Z</time></trkpt><trkpt lat="42.4439537" lon="14.1881438"><ele>11.0</ele><time>2026-05-03T11:35:52.018Z</time></trkpt><trkpt lat="42.4440734" lon="14.1882479"><ele>10.5</ele><time>2026-05-03T11:35:53.018Z</time></trkpt><trkpt lat="42.4441903" lon="14.1883563"><ele>10.0</ele><time>2026-05-03T11:35:54.018Z</time></trkpt><trkpt lat="42.4443039" lon="14.188467"><ele>9.5</ele><time>2026-05-03T11:35:55.018Z</time></trkpt><trkpt lat="42.4444044" lon="14.1885704"><ele>9.0</ele><time>2026-05-03T11:35:56.018Z</time></trkpt><trkpt lat="42.444495" lon="14.1886688"><ele>9.0</ele><time>2026-05-03T11:35:57.018Z</time></trkpt><trkpt lat="42.4445797" lon="14.1887613"><ele>9.0</ele><time>2026-05-03T11:35:58.018Z</time></trkpt><trkpt lat="42.4446708" lon="14.1888564"><ele>9.0</ele><time>2026-05-03T11:35:59.018Z</time></trkpt><trkpt lat="42.4447672" lon="14.1889475"><ele>9.0</ele><time>2026-05-03T11:36:00.018Z</time></trkpt><trkpt lat="42.4448737" lon="14.1890364"><ele>10.0</ele><time>2026-05-03T11:36:01.018Z</time></trkpt><trkpt lat="42.4449843" lon="14.1891255"><ele>11.0</ele><time>2026-05-03T11:36:02.018Z</time></trkpt><trkpt lat="42.4451034" lon="14.1892124"><ele>12.0</ele><time>2026-05-03T11:36:03.018Z</time></trkpt><trkpt lat="42.4452286" lon="14.1892875"><ele>13.0</ele><time>2026-05-03T11:36:04.018Z</time></trkpt><trkpt lat="42.4453462" lon="14.1893609"><ele>13.0</ele><time>2026-05-03T11:36:05.018Z</time></trkpt><trkpt lat="42.4454807" lon="14.1893982"><ele>13.0</ele><time>2026-05-03T11:36:06.018Z</time></trkpt><trkpt lat="42.445601" lon="14.1894401"><ele>13.0</ele><time>2026-05-03T11:36:07.018Z</time></trkpt><trkpt lat="42.4457101" lon="14.1894805"><ele>13.0</ele><time>2026-05-03T11:36:08.018Z</time></trkpt><trkpt lat="42.4458285" lon="14.1894971"><ele>13.0</ele><time>2026-05-03T11:36:09.018Z</time></trkpt><trkpt lat="42.4459372" lon="14.1895037"><ele>13.0</ele><time>2026-05-03T11:36:10.018Z</time></trkpt><trkpt lat="42.4460503" lon="14.1894586"><ele>13.0</ele><time>2026-05-03T11:36:11.018Z</time></trkpt><trkpt lat="42.4461494" lon="14.1894453"><ele>13.0</ele><time>2026-05-03T11:36:12.018Z</time></trkpt><trkpt lat="42.4462469" lon="14.1894127"><ele>13.0</ele><time>2026-05-03T11:36:13.018Z</time></trkpt><trkpt lat="42.446356" lon="14.1893585"><ele>12.5</ele><time>2026-05-03T11:36:14.019Z</time></trkpt><trkpt lat="42.4464541" lon="14.1891158"><ele>12.0</ele><time>2026-05-03T11:36:15.018Z</time></trkpt><trkpt lat="42.4464845" lon="14.1890194"><ele>11.5</ele><time>2026-05-03T11:36:16.018Z</time></trkpt><trkpt lat="42.4465081" lon="14.1888082"><ele>11.0</ele><time>2026-05-03T11:36:17.018Z</time></trkpt><trkpt lat="42.4465316" lon="14.1886727"><ele>11.0</ele><time>2026-05-03T11:36:18.016Z</time></trkpt><trkpt lat="42.4465296" lon="14.188544"><ele>11.0</ele><time>2026-05-03T11:36:19.018Z</time></trkpt><trkpt lat="42.4465286" lon="14.1884006"><ele>11.0</ele><time>2026-05-03T11:36:20.018Z</time></trkpt><trkpt lat="42.4465395" lon="14.1882444"><ele>11.0</ele><time>2026-05-03T11:36:21.018Z</time></trkpt><trkpt lat="42.4465505" lon="14.188082"><ele>11.0</ele><time>2026-05-03T11:36:22.018Z</time></trkpt><trkpt lat="42.4465758" lon="14.1879112"><ele>11.25</ele><time>2026-05-03T11:36:23.018Z</time></trkpt><trkpt lat="42.4466056" lon="14.1877388"><ele>11.5</ele><time>2026-05-03T11:36:24.018Z</time></trkpt><trkpt lat="42.4466479" lon="14.1875666"><ele>11.75</ele><time>2026-05-03T11:36:25.018Z</time></trkpt><trkpt lat="42.4467028" lon="14.1873892"><ele>12.0</ele><time>2026-05-03T11:36:26.018Z</time></trkpt><trkpt lat="42.4467621" lon="14.1872118"><ele>11.5</ele><time>2026-05-03T11:36:27.019Z</time></trkpt><trkpt lat="42.4468279" lon="14.187031"><ele>11.0</ele><time>2026-05-03T11:36:28.018Z</time></trkpt><trkpt lat="42.4468917" lon="14.1868552"><ele>10.5</ele><time>2026-05-03T11:36:29.018Z</time></trkpt><trkpt lat="42.4469568" lon="14.1866966"><ele>10.0</ele><time>2026-05-03T11:36:30.017Z</time></trkpt><trkpt lat="42.4470304" lon="14.1865396"><ele>9.333333333333334</ele><time>2026-05-03T11:36:31.019Z</time></trkpt><trkpt lat="42.4471146" lon="14.1863872"><ele>8.666666666666666</ele><time>2026-05-03T11:36:32.018Z</time></trkpt><trkpt lat="42.4472066" lon="14.1862203"><ele>8.0</ele><time>2026-05-03T11:36:33.018Z</time></trkpt><trkpt lat="42.447303" lon="14.186049"><ele>9.666666666666666</ele><time>2026-05-03T11:36:34.018Z</time></trkpt><trkpt lat="42.4474075" lon="14.1858631"><ele>11.333333333333332</ele><time>2026-05-03T11:36:35.018Z</time></trkpt><trkpt lat="42.4475144" lon="14.1856675"><ele>13.0</ele><time>2026-05-03T11:36:36.015Z</time></trkpt><trkpt lat="42.4476305" lon="14.1854713"><ele>13.333333333333332</ele><time>2026-05-03T11:36:37.018Z</time></trkpt><trkpt lat="42.4477519" lon="14.1852693"><ele>13.666666666666668</ele><time>2026-05-03T11:36:38.018Z</time></trkpt><trkpt lat="42.4478781" lon="14.1850622"><ele>14.0</ele><time>2026-05-03T11:36:39.018Z</time></trkpt><trkpt lat="42.4480037" lon="14.1848476"><ele>13.666666666666668</ele><time>2026-05-03T11:36:40.018Z</time></trkpt><trkpt lat="42.4481323" lon="14.1846216"><ele>13.333333333333332</ele><time>2026-05-03T11:36:41.019Z</time></trkpt><trkpt lat="42.448269" lon="14.1843973"><ele>13.0</ele><time>2026-05-03T11:36:42.018Z</time></trkpt><trkpt lat="42.4484053" lon="14.1841728"><ele>13.0</ele><time>2026-05-03T11:36:43.018Z</time></trkpt><trkpt lat="42.4485461" lon="14.1839368"><ele>13.0</ele><time>2026-05-03T11:36:44.018Z</time></trkpt><trkpt lat="42.4486904" lon="14.1837028"><ele>13.0</ele><time>2026-05-03T11:36:45.018Z</time></trkpt><trkpt lat="42.4488364" lon="14.1834656"><ele>13.0</ele><time>2026-05-03T11:36:46.018Z</time></trkpt><trkpt lat="42.4489908" lon="14.1832341"><ele>13.0</ele><time>2026-05-03T11:36:47.018Z</time></trkpt><trkpt lat="42.4491491" lon="14.1830073"><ele>14.5</ele><time>2026-05-03T11:36:48.018Z</time></trkpt><trkpt lat="42.4493117" lon="14.1827865"><ele>16.0</ele><time>2026-05-03T11:36:49.018Z</time></trkpt><trkpt lat="42.4494735" lon="14.1825644"><ele>15.666666666666666</ele><time>2026-05-03T11:36:50.017Z</time></trkpt><trkpt lat="42.4496386" lon="14.1823587"><ele>15.333333333333332</ele><time>2026-05-03T11:36:51.018Z</time></trkpt><trkpt lat="42.4498051" lon="14.1821627"><ele>15.0</ele><time>2026-05-03T11:36:52.018Z</time></trkpt><trkpt lat="42.4499783" lon="14.1819749"><ele>16.0</ele><time>2026-05-03T11:36:53.018Z</time></trkpt><trkpt lat="42.45015" lon="14.181789"><ele>17.0</ele><time>2026-05-03T11:36:54.018Z</time></trkpt><trkpt lat="42.4503293" lon="14.1816161"><ele>18.0</ele><time>2026-05-03T11:36:55.018Z</time></trkpt><trkpt lat="42.4505111" lon="14.181449"><ele>18.333333333333332</ele><time>2026-05-03T11:36:56.018Z</time></trkpt><trkpt lat="42.4506955" lon="14.1812898"><ele>18.666666666666664</ele><time>2026-05-03T11:36:57.018Z</time></trkpt><trkpt lat="42.450881" lon="14.1811299"><ele>19.0</ele><time>2026-05-03T11:36:58.018Z</time></trkpt><trkpt lat="42.4510661" lon="14.1809734"><ele>19.0</ele><time>2026-05-03T11:36:59.018Z</time></trkpt><trkpt lat="42.4512498" lon="14.180817"><ele>19.0</ele><time>2026-05-03T11:37:00.018Z</time></trkpt><trkpt lat="42.4514316" lon="14.1806535"><ele>19.0</ele><time>2026-05-03T11:37:01.018Z</time></trkpt><trkpt lat="42.4516112" lon="14.180482"><ele>20.0</ele><time>2026-05-03T11:37:02.018Z</time></trkpt><trkpt lat="42.4517845" lon="14.1802945"><ele>21.0</ele><time>2026-05-03T11:37:03.018Z</time></trkpt><trkpt lat="42.4519526" lon="14.1800941"><ele>22.0</ele><time>2026-05-03T11:37:04.019Z</time></trkpt><trkpt lat="42.4521189" lon="14.1798839"><ele>24.0</ele><time>2026-05-03T11:37:05.018Z</time></trkpt><trkpt lat="42.4522825" lon="14.179665"><ele>26.0</ele><time>2026-05-03T11:37:06.018Z</time></trkpt><trkpt lat="42.4524422" lon="14.1794373"><ele>26.0</ele><time>2026-05-03T11:37:07.018Z</time></trkpt><trkpt lat="42.4525933" lon="14.1791968"><ele>26.0</ele><time>2026-05-03T11:37:08.018Z</time></trkpt><trkpt lat="42.4527363" lon="14.1789462"><ele>26.5</ele><time>2026-05-03T11:37:09.018Z</time></trkpt><trkpt lat="42.4528711" lon="14.1786877"><ele>27.0</ele><time>2026-05-03T11:37:10.018Z</time></trkpt><trkpt lat="42.4529964" lon="14.1784225"><ele>31.0</ele><time>2026-05-03T11:37:11.018Z</time></trkpt><trkpt lat="42.4531183" lon="14.1781524"><ele>35.0</ele><time>2026-05-03T11:37:12.018Z</time></trkpt><trkpt lat="42.4532395" lon="14.1778807"><ele>35.0</ele><time>2026-05-03T11:37:13.018Z</time></trkpt><trkpt lat="42.4533622" lon="14.177609"><ele>35.0</ele><time>2026-05-03T11:37:14.018Z</time></trkpt><trkpt lat="42.4534863" lon="14.1773391"><ele>34.0</ele><time>2026-05-03T11:37:15.018Z</time></trkpt><trkpt lat="42.4536163" lon="14.1770733"><ele>33.0</ele><time>2026-05-03T11:37:16.017Z</time></trkpt><trkpt lat="42.4537505" lon="14.1768097"><ele>35.5</ele><time>2026-05-03T11:37:17.018Z</time></trkpt><trkpt lat="42.4538916" lon="14.1765493"><ele>38.0</ele><time>2026-05-03T11:37:18.018Z</time></trkpt><trkpt lat="42.4540389" lon="14.176295"><ele>38.5</ele><time>2026-05-03T11:37:19.018Z</time></trkpt><trkpt lat="42.4541976" lon="14.1760527"><ele>39.0</ele><time>2026-05-03T11:37:20.018Z</time></trkpt><trkpt lat="42.4543616" lon="14.1758158"><ele>39.0</ele><time>2026-05-03T11:37:21.019Z</time></trkpt><trkpt lat="42.4545371" lon="14.1755923"><ele>39.0</ele><time>2026-05-03T11:37:22.018Z</time></trkpt><trkpt lat="42.4547203" lon="14.1753824"><ele>41.5</ele><time>2026-05-03T11:37:23.018Z</time></trkpt><trkpt lat="42.4549088" lon="14.1751782"><ele>44.0</ele><time>2026-05-03T11:37:24.018Z</time></trkpt><trkpt lat="42.4551094" lon="14.1749922"><ele>45.0</ele><time>2026-05-03T11:37:25.019Z</time></trkpt><trkpt lat="42.4553162" lon="14.174819"><ele>46.0</ele><time>2026-05-03T11:37:26.018Z</time></trkpt><trkpt lat="42.4555289" lon="14.1746488"><ele>47.0</ele><time>2026-05-03T11:37:27.015Z</time></trkpt><trkpt lat="42.4557506" lon="14.1745142"><ele>48.0</ele><time>2026-05-03T11:37:28.019Z</time></trkpt><trkpt lat="42.4559724" lon="14.174373"><ele>48.0</ele><time>2026-05-03T11:37:29.018Z</time></trkpt><trkpt lat="42.4562009" lon="14.1742462"><ele>48.0</ele><time>2026-05-03T11:37:30.018Z</time></trkpt><trkpt lat="42.4564306" lon="14.1741333"><ele>51.0</ele><time>2026-05-03T11:37:31.018Z</time></trkpt><trkpt lat="42.4566609" lon="14.1740153"><ele>54.0</ele><time>2026-05-03T11:37:32.018Z</time></trkpt><trkpt lat="42.4568965" lon="14.1739199"><ele>54.5</ele><time>2026-05-03T11:37:33.018Z</time></trkpt><trkpt lat="42.4571473" lon="14.1738985"><ele>55.0</ele><time>2026-05-03T11:37:34.018Z</time></trkpt><trkpt lat="42.4573918" lon="14.1738502"><ele>55.0</ele><time>2026-05-03T11:37:35.017Z</time></trkpt><trkpt lat="42.4576367" lon="14.1738269"><ele>55.0</ele><time>2026-05-03T11:37:36.018Z</time></trkpt><trkpt lat="42.4578838" lon="14.1738162"><ele>56.5</ele><time>2026-05-03T11:37:37.018Z</time></trkpt><trkpt lat="42.4581297" lon="14.1738197"><ele>58.0</ele><time>2026-05-03T11:37:38.018Z</time></trkpt><trkpt lat="42.4583735" lon="14.1738318"><ele>58.0</ele><time>2026-05-03T11:37:39.018Z</time></trkpt><trkpt lat="42.4586211" lon="14.1738537"><ele>58.0</ele><time>2026-05-03T11:37:40.018Z</time></trkpt><trkpt lat="42.4588703" lon="14.1738847"><ele>59.0</ele><time>2026-05-03T11:37:41.018Z</time></trkpt><trkpt lat="42.4591201" lon="14.173919"><ele>60.0</ele><time>2026-05-03T11:37:42.018Z</time></trkpt><trkpt lat="42.4593684" lon="14.1739519"><ele>60.0</ele><time>2026-05-03T11:37:43.018Z</time></trkpt><trkpt lat="42.4596159" lon="14.1739749"><ele>60.0</ele><time>2026-05-03T11:37:44.018Z</time></trkpt><trkpt lat="42.4598658" lon="14.1739996"><ele>58.5</ele><time>2026-05-03T11:37:45.018Z</time></trkpt><trkpt lat="42.4601193" lon="14.17401"><ele>57.0</ele><time>2026-05-03T11:37:46.018Z</time></trkpt><trkpt lat="42.4603706" lon="14.1740055"><ele>51.5</ele><time>2026-05-03T11:37:47.018Z</time></trkpt><trkpt lat="42.4606244" lon="14.1739826"><ele>46.0</ele><time>2026-05-03T11:37:48.018Z</time></trkpt><trkpt lat="42.4608701" lon="14.1739538"><ele>46.0</ele><time>2026-05-03T11:37:49.018Z</time></trkpt><trkpt lat="42.46112" lon="14.1739095"><ele>46.0</ele><time>2026-05-03T11:37:50.018Z</time></trkpt><trkpt lat="42.4613707" lon="14.1738371"><ele>39.5</ele><time>2026-05-03T11:37:51.018Z</time></trkpt><trkpt lat="42.4616209" lon="14.1737616"><ele>33.0</ele><time>2026-05-03T11:37:52.018Z</time></trkpt><trkpt lat="42.4618697" lon="14.1736715"><ele>30.5</ele><time>2026-05-03T11:37:53.018Z</time></trkpt><trkpt lat="42.4621164" lon="14.173565"><ele>28.0</ele><time>2026-05-03T11:37:54.018Z</time></trkpt><trkpt lat="42.4623547" lon="14.1734345"><ele>28.0</ele><time>2026-05-03T11:37:55.018Z</time></trkpt><trkpt lat="42.4625862" lon="14.1732946"><ele>28.0</ele><time>2026-05-03T11:37:56.018Z</time></trkpt><trkpt lat="42.4627963" lon="14.1731441"><ele>28.5</ele><time>2026-05-03T11:37:57.018Z</time></trkpt><trkpt lat="42.4630067" lon="14.1729838"><ele>29.0</ele><time>2026-05-03T11:37:58.018Z</time></trkpt><trkpt lat="42.4632149" lon="14.1728048"><ele>29.0</ele><time>2026-05-03T11:37:59.019Z</time></trkpt><trkpt lat="42.4634194" lon="14.1726174"><ele>29.0</ele><time>2026-05-03T11:38:00.018Z</time></trkpt><trkpt lat="42.4636211" lon="14.1724184"><ele>30.5</ele><time>2026-05-03T11:38:01.018Z</time></trkpt><trkpt lat="42.463818" lon="14.1722098"><ele>32.0</ele><time>2026-05-03T11:38:02.018Z</time></trkpt><trkpt lat="42.4640032" lon="14.1719817"><ele>32.0</ele><time>2026-05-03T11:38:03.018Z</time></trkpt><trkpt lat="42.4641815" lon="14.171737"><ele>32.0</ele><time>2026-05-03T11:38:04.018Z</time></trkpt><trkpt lat="42.4643503" lon="14.1714753"><ele>32.0</ele><time>2026-05-03T11:38:05.018Z</time></trkpt><trkpt lat="42.4645148" lon="14.17121"><ele>32.0</ele><time>2026-05-03T11:38:06.018Z</time></trkpt><trkpt lat="42.4646724" lon="14.1709353"><ele>33.0</ele><time>2026-05-03T11:38:07.018Z</time></trkpt><trkpt lat="42.464821" lon="14.1706534"><ele>34.0</ele><time>2026-05-03T11:38:08.018Z</time></trkpt><trkpt lat="42.4649672" lon="14.1703664"><ele>34.0</ele><time>2026-05-03T11:38:09.018Z</time></trkpt><trkpt lat="42.465092" lon="14.1700644"><ele>34.0</ele><time>2026-05-03T11:38:10.018Z</time></trkpt><trkpt lat="42.4652218" lon="14.1697713"><ele>35.0</ele><time>2026-05-03T11:38:11.018Z</time></trkpt><trkpt lat="42.4653468" lon="14.1694823"><ele>36.0</ele><time>2026-05-03T11:38:12.018Z</time></trkpt><trkpt lat="42.4654742" lon="14.1692"><ele>37.0</ele><time>2026-05-03T11:38:13.018Z</time></trkpt><trkpt lat="42.4656044" lon="14.1689232"><ele>38.0</ele><time>2026-05-03T11:38:14.018Z</time></trkpt><trkpt lat="42.465741" lon="14.1686545"><ele>38.0</ele><time>2026-05-03T11:38:15.018Z</time></trkpt><trkpt lat="42.4658836" lon="14.1683969"><ele>38.0</ele><time>2026-05-03T11:38:16.018Z</time></trkpt><trkpt lat="42.4660349" lon="14.1681499"><ele>37.5</ele><time>2026-05-03T11:38:17.018Z</time></trkpt><trkpt lat="42.4661985" lon="14.1679128"><ele>37.0</ele><time>2026-05-03T11:38:18.018Z</time></trkpt><trkpt lat="42.4663738" lon="14.1676891"><ele>38.5</ele><time>2026-05-03T11:38:19.018Z</time></trkpt><trkpt lat="42.4665762" lon="14.1674986"><ele>40.0</ele><time>2026-05-03T11:38:20.018Z</time></trkpt><trkpt lat="42.4667788" lon="14.167315"><ele>40.0</ele><time>2026-05-03T11:38:21.018Z</time></trkpt><trkpt lat="42.4669918" lon="14.1671489"><ele>40.0</ele><time>2026-05-03T11:38:22.017Z</time></trkpt><trkpt lat="42.4672145" lon="14.1670005"><ele>45.0</ele><time>2026-05-03T11:38:23.018Z</time></trkpt><trkpt lat="42.4674448" lon="14.1668761"><ele>50.0</ele><time>2026-05-03T11:38:24.018Z</time></trkpt><trkpt lat="42.4676805" lon="14.1667723"><ele>50.0</ele><time>2026-05-03T11:38:25.018Z</time></trkpt><trkpt lat="42.4679228" lon="14.1666954"><ele>50.0</ele><time>2026-05-03T11:38:26.018Z</time></trkpt><trkpt lat="42.4681639" lon="14.1666492"><ele>51.0</ele><time>2026-05-03T11:38:27.018Z</time></trkpt><trkpt lat="42.4684053" lon="14.1666215"><ele>52.0</ele><time>2026-05-03T11:38:28.017Z</time></trkpt><trkpt lat="42.4686425" lon="14.1666142"><ele>53.5</ele><time>2026-05-03T11:38:29.016Z</time></trkpt><trkpt lat="42.4688778" lon="14.1666211"><ele>55.0</ele><time>2026-05-03T11:38:30.018Z</time></trkpt><trkpt lat="42.4691083" lon="14.166642"><ele>55.0</ele><time>2026-05-03T11:38:31.019Z</time></trkpt><trkpt lat="42.4693361" lon="14.1666783"><ele>55.0</ele><time>2026-05-03T11:38:32.018Z</time></trkpt><trkpt lat="42.4695608" lon="14.1667279"><ele>58.0</ele><time>2026-05-03T11:38:33.018Z</time></trkpt><trkpt lat="42.4697825" lon="14.1667839"><ele>61.0</ele><time>2026-05-03T11:38:34.017Z</time></trkpt><trkpt lat="42.4700049" lon="14.1668431"><ele>61.0</ele><time>2026-05-03T11:38:35.018Z</time></trkpt><trkpt lat="42.4702254" lon="14.1669047"><ele>61.0</ele><time>2026-05-03T11:38:36.018Z</time></trkpt><trkpt lat="42.470443" lon="14.1669666"><ele>61.0</ele><time>2026-05-03T11:38:37.018Z</time></trkpt><trkpt lat="42.4706532" lon="14.1670172"><ele>63.666666666666664</ele><time>2026-05-03T11:38:38.016Z</time></trkpt><trkpt lat="42.4708647" lon="14.1670769"><ele>66.33333333333333</ele><time>2026-05-03T11:38:39.018Z</time></trkpt><trkpt lat="42.471075" lon="14.1671249"><ele>69.0</ele><time>2026-05-03T11:38:40.018Z</time></trkpt><trkpt lat="42.4712815" lon="14.1671649"><ele>71.0</ele><time>2026-05-03T11:38:41.018Z</time></trkpt><trkpt lat="42.4714856" lon="14.1672057"><ele>73.0</ele><time>2026-05-03T11:38:42.019Z</time></trkpt><trkpt lat="42.4716924" lon="14.1672378"><ele>75.0</ele><time>2026-05-03T11:38:43.018Z</time></trkpt><trkpt lat="42.4718944" lon="14.1672652"><ele>75.0</ele><time>2026-05-03T11:38:44.018Z</time></trkpt><trkpt lat="42.4720976" lon="14.1672899"><ele>75.0</ele><time>2026-05-03T11:38:45.018Z</time></trkpt><trkpt lat="42.4723028" lon="14.1673089"><ele>75.0</ele><time>2026-05-03T11:38:46.018Z</time></trkpt><trkpt lat="42.4724956" lon="14.1673403"><ele>79.5</ele><time>2026-05-03T11:38:47.018Z</time></trkpt><trkpt lat="42.4726938" lon="14.1673611"><ele>84.0</ele><time>2026-05-03T11:38:48.018Z</time></trkpt><trkpt lat="42.4854493" lon="14.1652815"><ele>73.0</ele><time>2026-05-03T11:39:48.017Z</time></trkpt><trkpt lat="42.4858434" lon="14.1650501"><ele>62.0</ele><time>2026-05-03T11:39:50.017Z</time></trkpt><trkpt lat="42.4860539" lon="14.1649496"><ele>63.66666666666667</ele><time>2026-05-03T11:39:51.018Z</time></trkpt><trkpt lat="42.486253" lon="14.164821"><ele>65.33333333333333</ele><time>2026-05-03T11:39:52.018Z</time></trkpt><trkpt lat="42.4864519" lon="14.1646993"><ele>67.0</ele><time>2026-05-03T11:39:53.018Z</time></trkpt><trkpt lat="42.486653" lon="14.1645785"><ele>62.0</ele><time>2026-05-03T11:39:54.018Z</time></trkpt><trkpt lat="42.4868586" lon="14.1644591"><ele>57.0</ele><time>2026-05-03T11:39:55.018Z</time></trkpt><trkpt lat="42.4870674" lon="14.1643468"><ele>52.0</ele><time>2026-05-03T11:39:56.018Z</time></trkpt><trkpt lat="42.487276" lon="14.1642366"><ele>48.33333333333333</ele><time>2026-05-03T11:39:57.018Z</time></trkpt><trkpt lat="42.4874845" lon="14.1641309"><ele>44.666666666666664</ele><time>2026-05-03T11:39:58.018Z</time></trkpt><trkpt lat="42.4876938" lon="14.1640249"><ele>41.0</ele><time>2026-05-03T11:39:59.018Z</time></trkpt><trkpt lat="42.4879012" lon="14.1639158"><ele>44.666666666666664</ele><time>2026-05-03T11:40:00.018Z</time></trkpt><trkpt lat="42.4881038" lon="14.1637977"><ele>48.33333333333333</ele><time>2026-05-03T11:40:01.018Z</time></trkpt><trkpt lat="42.4883038" lon="14.1636645"><ele>52.0</ele><time>2026-05-03T11:40:02.018Z</time></trkpt><trkpt lat="42.4884992" lon="14.163549"><ele>52.0</ele><time>2026-05-03T11:40:03.018Z</time></trkpt><trkpt lat="42.488696" lon="14.163424"><ele>52.0</ele><time>2026-05-03T11:40:04.018Z</time></trkpt><trkpt lat="42.4888929" lon="14.1632976"><ele>52.0</ele><time>2026-05-03T11:40:05.016Z</time></trkpt><trkpt lat="42.4890892" lon="14.163172"><ele>63.0</ele><time>2026-05-03T11:40:06.018Z</time></trkpt><trkpt lat="42.4984787" lon="14.1459746"><ele>63.0</ele><time>2026-05-03T11:41:28.015Z</time></trkpt><trkpt lat="42.4985419" lon="14.1457414"><ele>63.0</ele><time>2026-05-03T11:41:29.018Z</time></trkpt><trkpt lat="42.4985976" lon="14.1454953"><ele>63.0</ele><time>2026-05-03T11:41:30.018Z</time></trkpt><trkpt lat="42.4986611" lon="14.1452507"><ele>58.66666666666667</ele><time>2026-05-03T11:41:31.017Z</time></trkpt><trkpt lat="42.4987281" lon="14.1450028"><ele>54.333333333333336</ele><time>2026-05-03T11:41:32.018Z</time></trkpt><trkpt lat="42.4987943" lon="14.1447544"><ele>50.0</ele><time>2026-05-03T11:41:33.018Z</time></trkpt><trkpt lat="42.498858" lon="14.1445077"><ele>48.0</ele><time>2026-05-03T11:41:34.018Z</time></trkpt><trkpt lat="42.4989142" lon="14.1442591"><ele>46.0</ele><time>2026-05-03T11:41:35.016Z</time></trkpt><trkpt lat="42.4989273" lon="14.1439795"><ele>44.0</ele><time>2026-05-03T11:41:36.018Z</time></trkpt><trkpt lat="42.4989372" lon="14.1437204"><ele>42.666666666666664</ele><time>2026-05-03T11:41:37.018Z</time></trkpt><trkpt lat="42.4989314" lon="14.1434658"><ele>41.333333333333336</ele><time>2026-05-03T11:41:38.016Z</time></trkpt><trkpt lat="42.4988851" lon="14.1432532"><ele>40.0</ele><time>2026-05-03T11:41:39.014Z</time></trkpt><trkpt lat="42.4988472" lon="14.1430464"><ele>39.75</ele><time>2026-05-03T11:41:40.017Z</time></trkpt><trkpt lat="42.4988051" lon="14.142853"><ele>39.5</ele><time>2026-05-03T11:41:41.018Z</time></trkpt><trkpt lat="42.4987753" lon="14.1426662"><ele>39.25</ele><time>2026-05-03T11:41:42.016Z</time></trkpt><trkpt lat="42.4987688" lon="14.1424941"><ele>39.0</ele><time>2026-05-03T11:41:43.018Z</time></trkpt><trkpt lat="42.4988002" lon="14.1423268"><ele>40.0</ele><time>2026-05-03T11:41:44.017Z</time></trkpt><trkpt lat="42.4988505" lon="14.1421613"><ele>41.0</ele><time>2026-05-03T11:41:45.018Z</time></trkpt><trkpt lat="42.4989238" lon="14.1419934"><ele>42.0</ele><time>2026-05-03T11:41:46.018Z</time></trkpt><trkpt lat="42.499007" lon="14.1418171"><ele>43.0</ele><time>2026-05-03T11:41:47.018Z</time></trkpt><trkpt lat="42.4991008" lon="14.1416372"><ele>46.0</ele><time>2026-05-03T11:41:48.018Z</time></trkpt><trkpt lat="42.4992067" lon="14.141459"><ele>49.0</ele><time>2026-05-03T11:41:49.017Z</time></trkpt><trkpt lat="42.4993185" lon="14.1413018"><ele>52.0</ele><time>2026-05-03T11:41:50.018Z</time></trkpt><trkpt lat="42.4994317" lon="14.1411558"><ele>52.0</ele><time>2026-05-03T11:41:51.018Z</time></trkpt><trkpt lat="42.499552" lon="14.141029"><ele>52.0</ele><time>2026-05-03T11:41:52.018Z</time></trkpt><trkpt lat="42.4996758" lon="14.140919"><ele>52.0</ele><time>2026-05-03T11:41:53.018Z</time></trkpt><trkpt lat="42.4997955" lon="14.1407988"><ele>52.0</ele><time>2026-05-03T11:41:54.019Z</time></trkpt><trkpt lat="42.4998919" lon="14.1406647"><ele>48.75</ele><time>2026-05-03T11:41:55.018Z</time></trkpt><trkpt lat="42.4999844" lon="14.140535"><ele>45.5</ele><time>2026-05-03T11:41:56.018Z</time></trkpt><trkpt lat="42.5000707" lon="14.1403976"><ele>42.25</ele><time>2026-05-03T11:41:57.018Z</time></trkpt><trkpt lat="42.5001677" lon="14.1402661"><ele>39.0</ele><time>2026-05-03T11:41:58.018Z</time></trkpt><trkpt lat="42.5002566" lon="14.1401247"><ele>39.0</ele><time>2026-05-03T11:41:59.018Z</time></trkpt><trkpt lat="42.5003369" lon="14.1399954"><ele>39.0</ele><time>2026-05-03T11:42:00.018Z</time></trkpt><trkpt lat="42.5004184" lon="14.139863"><ele>39.0</ele><time>2026-05-03T11:42:01.018Z</time></trkpt><trkpt lat="42.5004959" lon="14.1397348"><ele>39.0</ele><time>2026-05-03T11:42:02.018Z</time></trkpt><trkpt lat="42.5005688" lon="14.1396158"><ele>36.4</ele><time>2026-05-03T11:42:03.016Z</time></trkpt><trkpt lat="42.5006374" lon="14.1395066"><ele>33.8</ele><time>2026-05-03T11:42:04.018Z</time></trkpt><trkpt lat="42.500708" lon="14.1393835"><ele>31.200000000000003</ele><time>2026-05-03T11:42:05.014Z</time></trkpt><trkpt lat="42.5007671" lon="14.1392624"><ele>28.6</ele><time>2026-05-03T11:42:06.014Z</time></trkpt><trkpt lat="42.5008241" lon="14.1391519"><ele>26.0</ele><time>2026-05-03T11:42:07.017Z</time></trkpt><trkpt lat="42.5008764" lon="14.1390489"><ele>25.166666666666664</ele><time>2026-05-03T11:42:08.018Z</time></trkpt><trkpt lat="42.5009331" lon="14.1389503"><ele>24.333333333333332</ele><time>2026-05-03T11:42:09.019Z</time></trkpt><trkpt lat="42.5009965" lon="14.1388678"><ele>23.5</ele><time>2026-05-03T11:42:10.018Z</time></trkpt><trkpt lat="42.5010622" lon="14.1387975"><ele>22.666666666666664</ele><time>2026-05-03T11:42:11.019Z</time></trkpt><trkpt lat="42.5011184" lon="14.1387466"><ele>21.833333333333332</ele><time>2026-05-03T11:42:12.015Z</time></trkpt><trkpt lat="42.5012011" lon="14.1387046"><ele>21.0</ele><time>2026-05-03T11:42:14.018Z</time></trkpt><trkpt lat="42.5012885" lon="14.1386974"><ele>20.833333333333332</ele><time>2026-05-03T11:42:17.017Z</time></trkpt><trkpt lat="42.501379" lon="14.1387339"><ele>20.666666666666668</ele><time>2026-05-03T11:42:19.018Z</time></trkpt><trkpt lat="42.5014368" lon="14.1387791"><ele>20.5</ele><time>2026-05-03T11:42:20.018Z</time></trkpt><trkpt lat="42.501489" lon="14.13885"><ele>20.333333333333336</ele><time>2026-05-03T11:42:21.018Z</time></trkpt><trkpt lat="42.501541" lon="14.1389376"><ele>20.166666666666668</ele><time>2026-05-03T11:42:22.018Z</time></trkpt><trkpt lat="42.5016071" lon="14.1390317"><ele>20.0</ele><time>2026-05-03T11:42:23.018Z</time></trkpt><trkpt lat="42.501683" lon="14.1391157"><ele>20.0</ele><time>2026-05-03T11:42:24.018Z</time></trkpt><trkpt lat="42.5017734" lon="14.139179"><ele>20.0</ele><time>2026-05-03T11:42:25.012Z</time></trkpt><trkpt lat="42.5018567" lon="14.1392316"><ele>20.0</ele><time>2026-05-03T11:42:26.018Z</time></trkpt><trkpt lat="42.5019501" lon="14.1392771"><ele>20.0</ele><time>2026-05-03T11:42:27.019Z</time></trkpt><trkpt lat="42.502052" lon="14.1393195"><ele>20.0</ele><time>2026-05-03T11:42:28.018Z</time></trkpt><trkpt lat="42.5021587" lon="14.1393644"><ele>19.0</ele><time>2026-05-03T11:42:29.018Z</time></trkpt><trkpt lat="42.5022709" lon="14.1394142"><ele>18.0</ele><time>2026-05-03T11:42:30.018Z</time></trkpt><trkpt lat="42.5023859" lon="14.1394695"><ele>17.0</ele><time>2026-05-03T11:42:31.017Z</time></trkpt><trkpt lat="42.5025029" lon="14.1395297"><ele>16.0</ele><time>2026-05-03T11:42:32.018Z</time></trkpt><trkpt lat="42.5026148" lon="14.1396033"><ele>16.0</ele><time>2026-05-03T11:42:33.018Z</time></trkpt><trkpt lat="42.5027158" lon="14.1396891"><ele>16.0</ele><time>2026-05-03T11:42:34.018Z</time></trkpt><trkpt lat="42.502801" lon="14.1397724"><ele>16.0</ele><time>2026-05-03T11:42:35.018Z</time></trkpt><trkpt lat="42.5028908" lon="14.1398617"><ele>16.0</ele><time>2026-05-03T11:42:36.018Z</time></trkpt><trkpt lat="42.5029939" lon="14.1399465"><ele>15.75</ele><time>2026-05-03T11:42:37.018Z</time></trkpt><trkpt lat="42.5031058" lon="14.1400341"><ele>15.5</ele><time>2026-05-03T11:42:38.018Z</time></trkpt><trkpt lat="42.5032218" lon="14.1401377"><ele>15.25</ele><time>2026-05-03T11:42:39.018Z</time></trkpt><trkpt lat="42.5033426" lon="14.1402465"><ele>15.0</ele><time>2026-05-03T11:42:40.018Z</time></trkpt><trkpt lat="42.503467" lon="14.1403576"><ele>15.0</ele><time>2026-05-03T11:42:41.018Z</time></trkpt><trkpt lat="42.5035885" lon="14.1404753"><ele>15.0</ele><time>2026-05-03T11:42:42.018Z</time></trkpt><trkpt lat="42.5037022" lon="14.1405951"><ele>15.0</ele><time>2026-05-03T11:42:43.018Z</time></trkpt><trkpt lat="42.5038068" lon="14.1407185"><ele>15.0</ele><time>2026-05-03T11:42:44.012Z</time></trkpt><trkpt lat="42.5039059" lon="14.1408473"><ele>15.0</ele><time>2026-05-03T11:42:45.018Z</time></trkpt><trkpt lat="42.5039989" lon="14.1409777"><ele>15.0</ele><time>2026-05-03T11:42:46.016Z</time></trkpt><trkpt lat="42.5040832" lon="14.1411114"><ele>15.0</ele><time>2026-05-03T11:42:47.016Z</time></trkpt><trkpt lat="42.5041624" lon="14.1412369"><ele>15.0</ele><time>2026-05-03T11:42:48.014Z</time></trkpt><trkpt lat="42.5042376" lon="14.1413547"><ele>15.0</ele><time>2026-05-03T11:42:49.016Z</time></trkpt><trkpt lat="42.5043011" lon="14.1414603"><ele>15.0</ele><time>2026-05-03T11:42:50.018Z</time></trkpt><trkpt lat="42.50436" lon="14.1415524"><ele>15.0</ele><time>2026-05-03T11:42:51.018Z</time></trkpt><trkpt lat="42.5044046" lon="14.141618"><ele>15.0</ele><time>2026-05-03T11:42:52.018Z</time></trkpt><trkpt lat="42.5044838" lon="14.141678"><ele>15.0</ele><time>2026-05-03T11:42:54.018Z</time></trkpt><trkpt lat="42.5045867" lon="14.141574"><ele>14.4</ele><time>2026-05-03T11:42:56.018Z</time></trkpt><trkpt lat="42.5046476" lon="14.1414928"><ele>13.8</ele><time>2026-05-03T11:42:57.016Z</time></trkpt><trkpt lat="42.5047176" lon="14.1414002"><ele>13.2</ele><time>2026-05-03T11:42:58.018Z</time></trkpt><trkpt lat="42.5047948" lon="14.1412842"><ele>12.6</ele><time>2026-05-03T11:42:59.018Z</time></trkpt><trkpt lat="42.5048841" lon="14.1411574"><ele>12.0</ele><time>2026-05-03T11:43:00.018Z</time></trkpt><trkpt lat="42.5049717" lon="14.1410148"><ele>12.0</ele><time>2026-05-03T11:43:01.018Z</time></trkpt><trkpt lat="42.5050686" lon="14.1408788"><ele>12.0</ele><time>2026-05-03T11:43:02.018Z</time></trkpt><trkpt lat="42.505161" lon="14.1407468"><ele>12.0</ele><time>2026-05-03T11:43:03.018Z</time></trkpt><trkpt lat="42.5052502" lon="14.1406238"><ele>12.0</ele><time>2026-05-03T11:43:04.019Z</time></trkpt><trkpt lat="42.5053367" lon="14.1404939"><ele>11.25</ele><time>2026-05-03T11:43:05.018Z</time></trkpt><trkpt lat="42.5054218" lon="14.1403721"><ele>10.5</ele><time>2026-05-03T11:43:06.018Z</time></trkpt><trkpt lat="42.505505" lon="14.140246"><ele>9.75</ele><time>2026-05-03T11:43:07.018Z</time></trkpt><trkpt lat="42.5055909" lon="14.140117"><ele>9.0</ele><time>2026-05-03T11:43:08.018Z</time></trkpt><trkpt lat="42.5056741" lon="14.1399846"><ele>9.25</ele><time>2026-05-03T11:43:09.018Z</time></trkpt><trkpt lat="42.5057593" lon="14.1398572"><ele>9.5</ele><time>2026-05-03T11:43:10.018Z</time></trkpt><trkpt lat="42.5058498" lon="14.1397433"><ele>9.75</ele><time>2026-05-03T11:43:11.018Z</time></trkpt><trkpt lat="42.5059382" lon="14.1396358"><ele>10.0</ele><time>2026-05-03T11:43:12.018Z</time></trkpt><trkpt lat="42.5060184" lon="14.1395234"><ele>10.0</ele><time>2026-05-03T11:43:13.019Z</time></trkpt><trkpt lat="42.5060907" lon="14.1394126"><ele>10.0</ele><time>2026-05-03T11:43:14.018Z</time></trkpt><trkpt lat="42.5061558" lon="14.1393188"><ele>10.0</ele><time>2026-05-03T11:43:15.018Z</time></trkpt><trkpt lat="42.5062092" lon="14.1392274"><ele>10.0</ele><time>2026-05-03T11:43:16.018Z</time></trkpt><trkpt lat="42.5062497" lon="14.139155"><ele>10.0</ele><time>2026-05-03T11:43:17.018Z</time></trkpt><trkpt lat="42.5062978" lon="14.1390607"><ele>10.0</ele><time>2026-05-03T11:43:19.017Z</time></trkpt><trkpt lat="42.5063505" lon="14.1390116"><ele>9.75</ele><time>2026-05-03T11:43:33.018Z</time></trkpt><trkpt lat="42.5064704" lon="14.139052"><ele>9.5</ele><time>2026-05-03T11:43:35.018Z</time></trkpt><trkpt lat="42.506557" lon="14.1391208"><ele>9.25</ele><time>2026-05-03T11:43:36.018Z</time></trkpt><trkpt lat="42.5066471" lon="14.1392167"><ele>9.0</ele><time>2026-05-03T11:43:37.015Z</time></trkpt><trkpt lat="42.5067401" lon="14.1393261"><ele>9.0</ele><time>2026-05-03T11:43:38.018Z</time></trkpt><trkpt lat="42.5068337" lon="14.1394334"><ele>9.0</ele><time>2026-05-03T11:43:39.018Z</time></trkpt><trkpt lat="42.506925" lon="14.1395344"><ele>9.0</ele><time>2026-05-03T11:43:40.018Z</time></trkpt><trkpt lat="42.5070167" lon="14.1396401"><ele>9.0</ele><time>2026-05-03T11:43:41.018Z</time></trkpt><trkpt lat="42.5071125" lon="14.139747"><ele>9.0</ele><time>2026-05-03T11:43:42.014Z</time></trkpt><trkpt lat="42.5072109" lon="14.1398572"><ele>9.0</ele><time>2026-05-03T11:43:43.018Z</time></trkpt><trkpt lat="42.5073122" lon="14.1399682"><ele>9.0</ele><time>2026-05-03T11:43:44.018Z</time></trkpt><trkpt lat="42.5074162" lon="14.1400828"><ele>9.0</ele><time>2026-05-03T11:43:45.018Z</time></trkpt><trkpt lat="42.5075223" lon="14.1402059"><ele>9.0</ele><time>2026-05-03T11:43:46.018Z</time></trkpt><trkpt lat="42.5076283" lon="14.1403352"><ele>9.0</ele><time>2026-05-03T11:43:47.018Z</time></trkpt><trkpt lat="42.5077356" lon="14.1404593"><ele>9.0</ele><time>2026-05-03T11:43:48.018Z</time></trkpt><trkpt lat="42.5078473" lon="14.1405791"><ele>9.0</ele><time>2026-05-03T11:43:49.018Z</time></trkpt><trkpt lat="42.5079629" lon="14.1407006"><ele>9.25</ele><time>2026-05-03T11:43:50.018Z</time></trkpt><trkpt lat="42.508079" lon="14.140822"><ele>9.5</ele><time>2026-05-03T11:43:51.018Z</time></trkpt><trkpt lat="42.5081947" lon="14.1409459"><ele>9.75</ele><time>2026-05-03T11:43:52.018Z</time></trkpt><trkpt lat="42.5083128" lon="14.141072"><ele>10.0</ele><time>2026-05-03T11:43:53.018Z</time></trkpt><trkpt lat="42.5084314" lon="14.1412018"><ele>10.0</ele><time>2026-05-03T11:43:54.018Z</time></trkpt><trkpt lat="42.5085501" lon="14.1413341"><ele>10.0</ele><time>2026-05-03T11:43:55.018Z</time></trkpt><trkpt lat="42.5086663" lon="14.141464"><ele>10.0</ele><time>2026-05-03T11:43:56.018Z</time></trkpt><trkpt lat="42.5087819" lon="14.1415868"><ele>9.25</ele><time>2026-05-03T11:43:57.018Z</time></trkpt><trkpt lat="42.5088885" lon="14.1417026"><ele>8.5</ele><time>2026-05-03T11:43:58.018Z</time></trkpt><trkpt lat="42.5089922" lon="14.1418136"><ele>7.75</ele><time>2026-05-03T11:43:59.018Z</time></trkpt><trkpt lat="42.5090935" lon="14.141919"><ele>7.0</ele><time>2026-05-03T11:44:00.018Z</time></trkpt><trkpt lat="42.5091958" lon="14.14203"><ele>7.0</ele><time>2026-05-03T11:44:01.018Z</time></trkpt><trkpt lat="42.5092953" lon="14.1421427"><ele>6.999999999999999</ele><time>2026-05-03T11:44:02.018Z</time></trkpt><trkpt lat="42.5093917" lon="14.1422463"><ele>6.999999999999999</ele><time>2026-05-03T11:44:03.018Z</time></trkpt><trkpt lat="42.5094612" lon="14.1423248"><ele>7.0</ele><time>2026-05-03T11:44:04.018Z</time></trkpt><trkpt lat="42.5095218" lon="14.1423931"><ele>7.0</ele><time>2026-05-03T11:44:05.018Z</time></trkpt><trkpt lat="42.5095727" lon="14.1424506"><ele>6.8</ele><time>2026-05-03T11:44:06.018Z</time></trkpt><trkpt lat="42.509642" lon="14.1425287"><ele>6.6</ele><time>2026-05-03T11:44:08.018Z</time></trkpt><trkpt lat="42.5097359" lon="14.1425828"><ele>6.3999999999999995</ele><time>2026-05-03T11:44:41.018Z</time></trkpt><trkpt lat="42.5097878" lon="14.1426565"><ele>6.199999999999999</ele><time>2026-05-03T11:44:42.018Z</time></trkpt><trkpt lat="42.5098575" lon="14.1427352"><ele>6.0</ele><time>2026-05-03T11:44:43.018Z</time></trkpt><trkpt lat="42.5099402" lon="14.1428236"><ele>6.0</ele><time>2026-05-03T11:44:44.018Z</time></trkpt><trkpt lat="42.510031" lon="14.142922"><ele>6.0</ele><time>2026-05-03T11:44:45.018Z</time></trkpt><trkpt lat="42.510128" lon="14.1430294"><ele>6.0</ele><time>2026-05-03T11:44:46.018Z</time></trkpt><trkpt lat="42.5102344" lon="14.1431443"><ele>6.0</ele><time>2026-05-03T11:44:47.018Z</time></trkpt><trkpt lat="42.5103447" lon="14.1432611"><ele>6.0</ele><time>2026-05-03T11:44:48.018Z</time></trkpt><trkpt lat="42.5104571" lon="14.1433793"><ele>6.0</ele><time>2026-05-03T11:44:49.018Z</time></trkpt><trkpt lat="42.510567" lon="14.1434956"><ele>6.0</ele><time>2026-05-03T11:44:50.019Z</time></trkpt><trkpt lat="42.5106736" lon="14.1436095"><ele>6.0</ele><time>2026-05-03T11:44:51.018Z</time></trkpt><trkpt lat="42.5107767" lon="14.143721"><ele>6.0</ele><time>2026-05-03T11:44:52.018Z</time></trkpt><trkpt lat="42.5108775" lon="14.1438291"><ele>6.0</ele><time>2026-05-03T11:44:53.018Z</time></trkpt><trkpt lat="42.5109767" lon="14.1439335"><ele>6.0</ele><time>2026-05-03T11:44:54.018Z</time></trkpt><trkpt lat="42.5110768" lon="14.1440392"><ele>6.0</ele><time>2026-05-03T11:44:55.018Z</time></trkpt><trkpt lat="42.5111755" lon="14.1441459"><ele>6.0</ele><time>2026-05-03T11:44:56.018Z</time></trkpt><trkpt lat="42.5112752" lon="14.1442537"><ele>6.0</ele><time>2026-05-03T11:44:57.018Z</time></trkpt><trkpt lat="42.5113681" lon="14.1443631"><ele>6.0</ele><time>2026-05-03T11:44:58.018Z</time></trkpt><trkpt lat="42.5114648" lon="14.1444711"><ele>6.0</ele><time>2026-05-03T11:44:59.016Z</time></trkpt><trkpt lat="42.5115618" lon="14.1445808"><ele>6.0</ele><time>2026-05-03T11:45:00.018Z</time></trkpt><trkpt lat="42.5116603" lon="14.144686"><ele>6.0</ele><time>2026-05-03T11:45:01.018Z</time></trkpt><trkpt lat="42.5117583" lon="14.144791"><ele>6.0</ele><time>2026-05-03T11:45:02.018Z</time></trkpt><trkpt lat="42.5118504" lon="14.1448884"><ele>6.0</ele><time>2026-05-03T11:45:03.018Z</time></trkpt><trkpt lat="42.5119329" lon="14.1449799"><ele>5.8</ele><time>2026-05-03T11:45:04.018Z</time></trkpt><trkpt lat="42.5120113" lon="14.1450687"><ele>5.6</ele><time>2026-05-03T11:45:05.018Z</time></trkpt><trkpt lat="42.512078" lon="14.1451482"><ele>5.4</ele><time>2026-05-03T11:45:06.002Z</time></trkpt><trkpt lat="42.5121318" lon="14.1452237"><ele>5.2</ele><time>2026-05-03T11:45:06.996Z</time></trkpt><trkpt lat="42.5121802" lon="14.1453862"><ele>5.0</ele><time>2026-05-03T11:45:08.99Z</time></trkpt><trkpt lat="42.5122028" lon="14.145474"><ele>4.8</ele><time>2026-05-03T11:45:09.991Z</time></trkpt><trkpt lat="42.5122286" lon="14.1455817"><ele>4.6</ele><time>2026-05-03T11:45:11.001Z</time></trkpt><trkpt lat="42.512282" lon="14.145667"><ele>4.4</ele><time>2026-05-03T11:45:12.001Z</time></trkpt><trkpt lat="42.5123658" lon="14.1457447"><ele>4.2</ele><time>2026-05-03T11:45:13.001Z</time></trkpt><trkpt lat="42.5124738" lon="14.1457346"><ele>4.0</ele><time>2026-05-03T11:45:14.001Z</time></trkpt><trkpt lat="42.5125883" lon="14.1457314"><ele>4.0</ele><time>2026-05-03T11:45:15.018Z</time></trkpt><trkpt lat="42.512665" lon="14.1458227"><ele>4.0</ele><time>2026-05-03T11:45:16.018Z</time></trkpt><trkpt lat="42.5127472" lon="14.1459116"><ele>4.0</ele><time>2026-05-03T11:45:17.018Z</time></trkpt><trkpt lat="42.512837" lon="14.146011"><ele>4.0</ele><time>2026-05-03T11:45:18.018Z</time></trkpt><trkpt lat="42.5129332" lon="14.1461132"><ele>4.0</ele><time>2026-05-03T11:45:19.018Z</time></trkpt><trkpt lat="42.5130334" lon="14.1462183"><ele>4.0</ele><time>2026-05-03T11:45:20.018Z</time></trkpt><trkpt lat="42.5131371" lon="14.1463334"><ele>4.0</ele><time>2026-05-03T11:45:21.018Z</time></trkpt><trkpt lat="42.513245" lon="14.1464533"><ele>4.0</ele><time>2026-05-03T11:45:22.018Z</time></trkpt><trkpt lat="42.5133556" lon="14.1465778"><ele>4.0</ele><time>2026-05-03T11:45:23.018Z</time></trkpt><trkpt lat="42.5134664" lon="14.1466992"><ele>4.0</ele><time>2026-05-03T11:45:24.018Z</time></trkpt><trkpt lat="42.5135698" lon="14.1468166"><ele>4.0</ele><time>2026-05-03T11:45:25.018Z</time></trkpt><trkpt lat="42.513674" lon="14.1469292"><ele>4.0</ele><time>2026-05-03T11:45:26.018Z</time></trkpt><trkpt lat="42.5137761" lon="14.1470392"><ele>4.0</ele><time>2026-05-03T11:45:27.018Z</time></trkpt><trkpt lat="42.5138757" lon="14.1471484"><ele>4.0</ele><time>2026-05-03T11:45:28.018Z</time></trkpt><trkpt lat="42.5139746" lon="14.1472581"><ele>4.0</ele><time>2026-05-03T11:45:29.018Z</time></trkpt><trkpt lat="42.5140792" lon="14.147365"><ele>4.0</ele><time>2026-05-03T11:45:30.018Z</time></trkpt><trkpt lat="42.5141752" lon="14.1474741"><ele>4.0</ele><time>2026-05-03T11:45:31.018Z</time></trkpt><trkpt lat="42.5142719" lon="14.1475803"><ele>4.0</ele><time>2026-05-03T11:45:32.018Z</time></trkpt><trkpt lat="42.5143607" lon="14.1476787"><ele>4.0</ele><time>2026-05-03T11:45:33.018Z</time></trkpt><trkpt lat="42.5144448" lon="14.147769"><ele>4.0</ele><time>2026-05-03T11:45:34.018Z</time></trkpt><trkpt lat="42.5145242" lon="14.1478563"><ele>4.0</ele><time>2026-05-03T11:45:35.018Z</time></trkpt><trkpt lat="42.5146005" lon="14.1479361"><ele>4.0</ele><time>2026-05-03T11:45:36.016Z</time></trkpt><trkpt lat="42.5146683" lon="14.148009"><ele>3.9999999999999996</ele><time>2026-05-03T11:45:37.018Z</time></trkpt><trkpt lat="42.5147292" lon="14.1480708"><ele>4.0</ele><time>2026-05-03T11:45:38.018Z</time></trkpt><trkpt lat="42.5147901" lon="14.148136"><ele>4.0</ele><time>2026-05-03T11:45:39.019Z</time></trkpt><trkpt lat="42.5148483" lon="14.1481984"><ele>4.0</ele><time>2026-05-03T11:45:40.018Z</time></trkpt><trkpt lat="42.5149017" lon="14.1482561"><ele>3.9999999999999996</ele><time>2026-05-03T11:45:41.018Z</time></trkpt><trkpt lat="42.5149951" lon="14.1483581"><ele>4.0</ele><time>2026-05-03T11:45:43.018Z</time></trkpt><trkpt lat="42.5150459" lon="14.1484148"><ele>4.166666666666666</ele><time>2026-05-03T11:45:44.018Z</time></trkpt><trkpt lat="42.5151032" lon="14.1484777"><ele>4.333333333333333</ele><time>2026-05-03T11:45:45.018Z</time></trkpt><trkpt lat="42.5151648" lon="14.1485466"><ele>4.5</ele><time>2026-05-03T11:45:46.017Z</time></trkpt><trkpt lat="42.5152293" lon="14.1486233"><ele>4.666666666666667</ele><time>2026-05-03T11:45:47.019Z</time></trkpt><trkpt lat="42.5152999" lon="14.148705"><ele>4.833333333333334</ele><time>2026-05-03T11:45:48.018Z</time></trkpt><trkpt lat="42.5153762" lon="14.1487901"><ele>5.0</ele><time>2026-05-03T11:45:49.018Z</time></trkpt><trkpt lat="42.5154573" lon="14.1488787"><ele>4.8</ele><time>2026-05-03T11:45:50.018Z</time></trkpt><trkpt lat="42.5155412" lon="14.148971"><ele>4.6</ele><time>2026-05-03T11:45:51.018Z</time></trkpt><trkpt lat="42.515625" lon="14.1490571"><ele>4.4</ele><time>2026-05-03T11:45:52.018Z</time></trkpt><trkpt lat="42.5157055" lon="14.1491453"><ele>4.2</ele><time>2026-05-03T11:45:53.018Z</time></trkpt><trkpt lat="42.515784" lon="14.1492343"><ele>4.0</ele><time>2026-05-03T11:45:54.018Z</time></trkpt><trkpt lat="42.5158562" lon="14.1493256"><ele>3.9999999999999996</ele><time>2026-05-03T11:45:55.016Z</time></trkpt><trkpt lat="42.5159206" lon="14.1494202"><ele>4.0</ele><time>2026-05-03T11:45:56.018Z</time></trkpt><trkpt lat="42.5159766" lon="14.1495149"><ele>4.0</ele><time>2026-05-03T11:45:57.018Z</time></trkpt><trkpt lat="42.5160204" lon="14.1496151"><ele>4.0</ele><time>2026-05-03T11:45:58.018Z</time></trkpt><trkpt lat="42.5160488" lon="14.1497149"><ele>3.9999999999999996</ele><time>2026-05-03T11:45:59.018Z</time></trkpt><trkpt lat="42.5160667" lon="14.1498099"><ele>4.0</ele><time>2026-05-03T11:46:00.018Z</time></trkpt><trkpt lat="42.5160799" lon="14.1499105"><ele>3.9999999999999996</ele><time>2026-05-03T11:46:01.018Z</time></trkpt><trkpt lat="42.5160877" lon="14.1500115"><ele>4.0</ele><time>2026-05-03T11:46:02.018Z</time></trkpt><trkpt lat="42.5160854" lon="14.1501048"><ele>4.0</ele><time>2026-05-03T11:46:03.018Z</time></trkpt><trkpt lat="42.5160827" lon="14.1502523"><ele>4.0</ele><time>2026-05-03T11:46:05.018Z</time></trkpt><trkpt lat="42.5161077" lon="14.1503711"><ele>3.9999999999999996</ele><time>2026-05-03T11:46:07.018Z</time></trkpt><trkpt lat="42.5162002" lon="14.1503838"><ele>4.0</ele><time>2026-05-03T11:46:09.018Z</time></trkpt><trkpt lat="42.5162461" lon="14.1503249"><ele>4.0</ele><time>2026-05-03T11:46:10.018Z</time></trkpt><trkpt lat="42.5162977" lon="14.1502622"><ele>4.0</ele><time>2026-05-03T11:46:11.019Z</time></trkpt><trkpt lat="42.5163537" lon="14.1501912"><ele>4.0</ele><time>2026-05-03T11:46:12.018Z</time></trkpt><trkpt lat="42.5164223" lon="14.1500958"><ele>4.0</ele><time>2026-05-03T11:46:13.018Z</time></trkpt><trkpt lat="42.5165013" lon="14.1500001"><ele>4.0</ele><time>2026-05-03T11:46:14.019Z</time></trkpt><trkpt lat="42.5165878" lon="14.149881"><ele>4.25</ele><time>2026-05-03T11:46:15.018Z</time></trkpt><trkpt lat="42.5166824" lon="14.1497726"><ele>4.5</ele><time>2026-05-03T11:46:16.018Z</time></trkpt><trkpt lat="42.5167801" lon="14.1496517"><ele>4.75</ele><time>2026-05-03T11:46:17.018Z</time></trkpt><trkpt lat="42.5168819" lon="14.1495295"><ele>5.0</ele><time>2026-05-03T11:46:18.018Z</time></trkpt><trkpt lat="42.5169795" lon="14.1494141"><ele>5.0</ele><time>2026-05-03T11:46:19.018Z</time></trkpt><trkpt lat="42.5170768" lon="14.1492999"><ele>5.0</ele><time>2026-05-03T11:46:20.018Z</time></trkpt><trkpt lat="42.517168" lon="14.1491817"><ele>5.0</ele><time>2026-05-03T11:46:21.018Z</time></trkpt><trkpt lat="42.5172601" lon="14.1490681"><ele>5.0</ele><time>2026-05-03T11:46:22.018Z</time></trkpt><trkpt lat="42.5173489" lon="14.1489653"><ele>5.0</ele><time>2026-05-03T11:46:23.018Z</time></trkpt><trkpt lat="42.5174251" lon="14.1488819"><ele>5.0</ele><time>2026-05-03T11:46:24.018Z</time></trkpt><trkpt lat="42.5174859" lon="14.1488046"><ele>5.0</ele><time>2026-05-03T11:46:25.018Z</time></trkpt><trkpt lat="42.5175464" lon="14.148725"><ele>5.0</ele><time>2026-05-03T11:46:26.018Z</time></trkpt><trkpt lat="42.5176147" lon="14.1486464"><ele>5.0</ele><time>2026-05-03T11:46:27.018Z</time></trkpt><trkpt lat="42.5176827" lon="14.1485653"><ele>5.0</ele><time>2026-05-03T11:46:28.018Z</time></trkpt><trkpt lat="42.5177581" lon="14.1484718"><ele>5.0</ele><time>2026-05-03T11:46:29.018Z</time></trkpt><trkpt lat="42.517833" lon="14.1483796"><ele>5.0</ele><time>2026-05-03T11:46:30.018Z</time></trkpt><trkpt lat="42.5179117" lon="14.1482708"><ele>5.0</ele><time>2026-05-03T11:46:31.018Z</time></trkpt><trkpt lat="42.517998" lon="14.1481661"><ele>5.0</ele><time>2026-05-03T11:46:32.018Z</time></trkpt><trkpt lat="42.5180874" lon="14.1480583"><ele>5.0</ele><time>2026-05-03T11:46:33.018Z</time></trkpt><trkpt lat="42.5181804" lon="14.147947"><ele>5.0</ele><time>2026-05-03T11:46:34.017Z</time></trkpt><trkpt lat="42.5182719" lon="14.1478383"><ele>5.0</ele><time>2026-05-03T11:46:35.018Z</time></trkpt><trkpt lat="42.5183594" lon="14.1477335"><ele>5.0</ele><time>2026-05-03T11:46:36.018Z</time></trkpt><trkpt lat="42.5184491" lon="14.1476251"><ele>5.0</ele><time>2026-05-03T11:46:37.018Z</time></trkpt><trkpt lat="42.5185333" lon="14.1475135"><ele>5.0</ele><time>2026-05-03T11:46:38.018Z</time></trkpt><trkpt lat="42.5186089" lon="14.1474129"><ele>5.0</ele><time>2026-05-03T11:46:39.018Z</time></trkpt><trkpt lat="42.5186811" lon="14.1473241"><ele>5.0</ele><time>2026-05-03T11:46:40.018Z</time></trkpt><trkpt lat="42.5187447" lon="14.1472419"><ele>5.0</ele><time>2026-05-03T11:46:41.018Z</time></trkpt><trkpt lat="42.518808" lon="14.1472001"><ele>5.0</ele><time>2026-05-03T11:46:43.019Z</time></trkpt><trkpt lat="42.5188937" lon="14.147205"><ele>5.0</ele><time>2026-05-03T11:46:45.018Z</time></trkpt><trkpt lat="42.5189671" lon="14.1472002"><ele>4.6</ele><time>2026-05-03T11:46:46.018Z</time></trkpt><trkpt lat="42.5190496" lon="14.1472098"><ele>4.2</ele><time>2026-05-03T11:46:47.018Z</time></trkpt><trkpt lat="42.519144" lon="14.147232"><ele>3.8</ele><time>2026-05-03T11:46:48.018Z</time></trkpt><trkpt lat="42.5192361" lon="14.1472664"><ele>3.4</ele><time>2026-05-03T11:46:49.018Z</time></trkpt><trkpt lat="42.5193377" lon="14.1473045"><ele>3.0</ele><time>2026-05-03T11:46:50.018Z</time></trkpt><trkpt lat="42.5194325" lon="14.1473661"><ele>3.0</ele><time>2026-05-03T11:46:51.018Z</time></trkpt><trkpt lat="42.5195127" lon="14.1474563"><ele>3.0</ele><time>2026-05-03T11:46:52.018Z</time></trkpt><trkpt lat="42.5195884" lon="14.1475599"><ele>3.0</ele><time>2026-05-03T11:46:53.018Z</time></trkpt><trkpt lat="42.5196657" lon="14.1476936"><ele>3.0</ele><time>2026-05-03T11:46:54.017Z</time></trkpt><trkpt lat="42.5197463" lon="14.1478382"><ele>2.75</ele><time>2026-05-03T11:46:55.018Z</time></trkpt><trkpt lat="42.519833" lon="14.1479933"><ele>2.5</ele><time>2026-05-03T11:46:56.018Z</time></trkpt><trkpt lat="42.519919" lon="14.1481618"><ele>2.25</ele><time>2026-05-03T11:46:57.018Z</time></trkpt><trkpt lat="42.5199893" lon="14.1483317"><ele>2.0</ele><time>2026-05-03T11:46:58.018Z</time></trkpt><trkpt lat="42.5200523" lon="14.1485052"><ele>2.0</ele><time>2026-05-03T11:46:59.018Z</time></trkpt><trkpt lat="42.5201121" lon="14.1486825"><ele>2.0</ele><time>2026-05-03T11:47:00.016Z</time></trkpt><trkpt lat="42.5201758" lon="14.1488579"><ele>2.0</ele><time>2026-05-03T11:47:01.018Z</time></trkpt><trkpt lat="42.5202417" lon="14.1490335"><ele>2.0</ele><time>2026-05-03T11:47:02.018Z</time></trkpt><trkpt lat="42.5203069" lon="14.1492123"><ele>2.0</ele><time>2026-05-03T11:47:03.018Z</time></trkpt><trkpt lat="42.5203686" lon="14.1493863"><ele>2.0</ele><time>2026-05-03T11:47:04.018Z</time></trkpt><trkpt lat="42.5204273" lon="14.1495528"><ele>2.0</ele><time>2026-05-03T11:47:05.018Z</time></trkpt><trkpt lat="42.5204838" lon="14.1497139"><ele>2.0</ele><time>2026-05-03T11:47:06.016Z</time></trkpt><trkpt lat="42.5205366" lon="14.1498696"><ele>2.25</ele><time>2026-05-03T11:47:07.018Z</time></trkpt><trkpt lat="42.5205891" lon="14.1500221"><ele>2.5</ele><time>2026-05-03T11:47:08.018Z</time></trkpt><trkpt lat="42.5206404" lon="14.1501749"><ele>2.75</ele><time>2026-05-03T11:47:09.018Z</time></trkpt><trkpt lat="42.5206934" lon="14.1503186"><ele>3.0</ele><time>2026-05-03T11:47:10.018Z</time></trkpt><trkpt lat="42.5207455" lon="14.1504575"><ele>3.0</ele><time>2026-05-03T11:47:11.018Z</time></trkpt><trkpt lat="42.520793" lon="14.1505923"><ele>3.0</ele><time>2026-05-03T11:47:12.018Z</time></trkpt><trkpt lat="42.5208401" lon="14.1507258"><ele>3.0</ele><time>2026-05-03T11:47:13.018Z</time></trkpt><trkpt lat="42.5208846" lon="14.150861"><ele>3.0</ele><time>2026-05-03T11:47:14.018Z</time></trkpt><trkpt lat="42.5209316" lon="14.1509963"><ele>3.0</ele><time>2026-05-03T11:47:15.018Z</time></trkpt><trkpt lat="42.5209787" lon="14.1511323"><ele>2.8333333333333335</ele><time>2026-05-03T11:47:16.018Z</time></trkpt><trkpt lat="42.5210295" lon="14.1512619"><ele>2.6666666666666665</ele><time>2026-05-03T11:47:17.019Z</time></trkpt><trkpt lat="42.5210686" lon="14.151378"><ele>2.5</ele><time>2026-05-03T11:47:18.018Z</time></trkpt><trkpt lat="42.5210962" lon="14.1514603"><ele>2.333333333333333</ele><time>2026-05-03T11:47:19.018Z</time></trkpt><trkpt lat="42.5211236" lon="14.1515494"><ele>2.1666666666666665</ele><time>2026-05-03T11:47:21.016Z</time></trkpt><trkpt lat="42.5211639" lon="14.1516761"><ele>2.0</ele><time>2026-05-03T11:47:24.018Z</time></trkpt><trkpt lat="42.5212053" lon="14.1518103"><ele>1.6666666666666665</ele><time>2026-05-03T11:47:26.019Z</time></trkpt><trkpt lat="42.5212377" lon="14.1518889"><ele>1.3333333333333333</ele><time>2026-05-03T11:47:27.018Z</time></trkpt><trkpt lat="42.5212704" lon="14.1519746"><ele>1.0</ele><time>2026-05-03T11:47:28.018Z</time></trkpt><trkpt lat="42.5213087" lon="14.152061"><ele>0.6666666666666666</ele><time>2026-05-03T11:47:29.018Z</time></trkpt><trkpt lat="42.5213495" lon="14.1521599"><ele>0.3333333333333333</ele><time>2026-05-03T11:47:30.018Z</time></trkpt><trkpt lat="42.5213929" lon="14.1522699"><ele>0.0</ele><time>2026-05-03T11:47:31.018Z</time></trkpt><trkpt lat="42.5214356" lon="14.1523963"><ele>-0.25</ele><time>2026-05-03T11:47:32.018Z</time></trkpt><trkpt lat="42.5214817" lon="14.1525319"><ele>-0.5</ele><time>2026-05-03T11:47:33.018Z</time></trkpt><trkpt lat="42.5215341" lon="14.1526689"><ele>-0.75</ele><time>2026-05-03T11:47:34.018Z</time></trkpt><trkpt lat="42.5215863" lon="14.1528107"><ele>-1.0</ele><time>2026-05-03T11:47:35.018Z</time></trkpt><trkpt lat="42.5216384" lon="14.1529584"><ele>-1.0</ele><time>2026-05-03T11:47:36.018Z</time></trkpt><trkpt lat="42.5216844" lon="14.1531051"><ele>-1.0</ele><time>2026-05-03T11:47:37.018Z</time></trkpt><trkpt lat="42.5217277" lon="14.1532351"><ele>-1.0</ele><time>2026-05-03T11:47:38.019Z</time></trkpt><trkpt lat="42.521767" lon="14.1533448"><ele>-1.0</ele><time>2026-05-03T11:47:39.018Z</time></trkpt><trkpt lat="42.5218004" lon="14.1534308"><ele>-1.0</ele><time>2026-05-03T11:47:40.018Z</time></trkpt><trkpt lat="42.5218394" lon="14.1535384"><ele>-0.8333333333333333</ele><time>2026-05-03T11:47:42.018Z</time></trkpt><trkpt lat="42.52189" lon="14.1536087"><ele>-0.6666666666666666</ele><time>2026-05-03T11:47:45.018Z</time></trkpt><trkpt lat="42.5219874" lon="14.1535984"><ele>-0.5</ele><time>2026-05-03T11:47:48.018Z</time></trkpt><trkpt lat="42.5220805" lon="14.1535124"><ele>-0.3333333333333333</ele><time>2026-05-03T11:47:50.018Z</time></trkpt><trkpt lat="42.5221373" lon="14.1534687"><ele>-0.16666666666666666</ele><time>2026-05-03T11:47:51.018Z</time></trkpt><trkpt lat="42.5221935" lon="14.1534224"><ele>0.0</ele><time>2026-05-03T11:47:52.018Z</time></trkpt><trkpt lat="42.5222669" lon="14.1533459"><ele>-0.16666666666666666</ele><time>2026-05-03T11:47:54.018Z</time></trkpt><trkpt lat="42.5222726" lon="14.1532498"><ele>-0.3333333333333333</ele><time>2026-05-03T11:47:57.018Z</time></trkpt><trkpt lat="42.522237" lon="14.1531696"><ele>-0.5</ele><time>2026-05-03T11:47:59.018Z</time></trkpt><trkpt lat="42.5221812" lon="14.1530581"><ele>-0.6666666666666666</ele><time>2026-05-03T11:48:01.018Z</time></trkpt><trkpt lat="42.5221425" lon="14.1529714"><ele>-0.8333333333333333</ele><time>2026-05-03T11:48:03.018Z</time></trkpt><trkpt lat="42.5220905" lon="14.1528656"><ele>-1.0</ele><time>2026-05-03T11:48:06.012Z</time></trkpt><trkpt lat="42.5220542" lon="14.1527855"><ele>-0.9999999999999999</ele><time>2026-05-03T11:48:08.018Z</time></trkpt><trkpt lat="42.5220152" lon="14.1526974"><ele>-1.0</ele><time>2026-05-03T11:48:10.018Z</time></trkpt><trkpt lat="42.5219648" lon="14.1525936"><ele>-1.0</ele><time>2026-05-03T11:48:13.015Z</time></trkpt><trkpt lat="42.5219241" lon="14.1525158"><ele>-1.0</ele><time>2026-05-03T11:48:15.018Z</time></trkpt><trkpt lat="42.5218628" lon="14.1524014"><ele>-0.9999999999999999</ele><time>2026-05-03T11:48:17.018Z</time></trkpt><trkpt lat="42.5218279" lon="14.1523302"><ele>-1.0</ele><time>2026-05-03T11:48:18.018Z</time></trkpt><trkpt lat="42.5217743" lon="14.15219"><ele>-0.8333333333333333</ele><time>2026-05-03T11:48:20.018Z</time></trkpt><trkpt lat="42.5217725" lon="14.152077"><ele>-0.6666666666666666</ele><time>2026-05-03T11:48:22.019Z</time></trkpt><trkpt lat="42.5218253" lon="14.1520094"><ele>-0.5</ele><time>2026-05-03T11:48:24.018Z</time></trkpt><trkpt lat="42.5219111" lon="14.1520213"><ele>-0.3333333333333333</ele><time>2026-05-03T11:48:27.014Z</time></trkpt><trkpt lat="42.5219623" lon="14.152094"><ele>-0.16666666666666666</ele><time>2026-05-03T11:48:29.018Z</time></trkpt><trkpt lat="42.5220032" lon="14.1521941"><ele>0.0</ele><time>2026-05-03T11:48:31.018Z</time></trkpt><trkpt lat="42.5220402" lon="14.1522734"><ele>0.0</ele><time>2026-05-03T11:48:33.018Z</time></trkpt><trkpt lat="42.5220821" lon="14.1523619"><ele>2.0</ele><time>2026-05-03T11:48:36.018Z</time></trkpt><trkpt lat="42.5221292" lon="14.1524244"><ele>2.0</ele><time>2026-05-03T11:48:39.018Z</time></trkpt><trkpt lat="42.5221896" lon="14.1524611"><ele>2.0</ele><time>2026-05-03T11:48:43.018Z</time></trkpt></trkseg></trk></gpx>